<?xml version="1.0" encoding="UTF-8"?>
<gpx creator="StravaGPX" version="1.1" xmlns="http://www.topografix.com/GPX/1/1" xmlns:xsi="http://www.w3.org/2001/XMLSchema-instance" xsi:schemaLocation="http://www.topografix.com/GPX/1/1 http://www.topografix.com/GPX/1/1/gpx.xsd">
 <metadata>
  <time>2026-06-22T21:28:53Z</time>
 </metadata>
 <trk>
  <name>Day 4/5 (part 1) Team summit Kilimanjaro 🫶🏔️🇹🇿</name>
  <type>hiking</type>
  <trkseg>
   <trkpt lat="-3.1014490" lon="37.3783370">
    <ele>4622.5</ele>
    <time>2026-06-22T21:28:53Z</time>
   </trkpt>
   <trkpt lat="-3.1014180" lon="37.3784090">
    <ele>4623.2</ele>
    <time>2026-06-22T21:28:54Z</time>
   </trkpt>
   <trkpt lat="-3.1013930" lon="37.3783910">
    <ele>4623.5</ele>
    <time>2026-06-22T21:28:55Z</time>
   </trkpt>
   <trkpt lat="-3.1013600" lon="37.3783920">
    <ele>4623.9</ele>
    <time>2026-06-22T21:28:56Z</time>
   </trkpt>
   <trkpt lat="-3.1013530" lon="37.3784080">
    <ele>4624.0</ele>
    <time>2026-06-22T21:28:57Z</time>
   </trkpt>
   <trkpt lat="-3.1013550" lon="37.3784190">
    <ele>4624.1</ele>
    <time>2026-06-22T21:28:58Z</time>
   </trkpt>
   <trkpt lat="-3.1013560" lon="37.3784220">
    <ele>4624.2</ele>
    <time>2026-06-22T21:28:59Z</time>
   </trkpt>
   <trkpt lat="-3.1013580" lon="37.3784230">
    <ele>4624.2</ele>
    <time>2026-06-22T21:29:00Z</time>
   </trkpt>
   <trkpt lat="-3.1013600" lon="37.3784250">
    <ele>4624.2</ele>
    <time>2026-06-22T21:29:01Z</time>
   </trkpt>
   <trkpt lat="-3.1013630" lon="37.3784240">
    <ele>4624.3</ele>
    <time>2026-06-22T21:29:02Z</time>
   </trkpt>
   <trkpt lat="-3.1013520" lon="37.3784260">
    <ele>4624.4</ele>
    <time>2026-06-22T21:29:03Z</time>
   </trkpt>
   <trkpt lat="-3.1013470" lon="37.3784260">
    <ele>4624.4</ele>
    <time>2026-06-22T21:29:04Z</time>
   </trkpt>
   <trkpt lat="-3.1013460" lon="37.3784260">
    <ele>4624.4</ele>
    <time>2026-06-22T21:29:05Z</time>
   </trkpt>
   <trkpt lat="-3.1013440" lon="37.3784260">
    <ele>4624.4</ele>
    <time>2026-06-22T21:29:06Z</time>
   </trkpt>
   <trkpt lat="-3.1013420" lon="37.3784260">
    <ele>4624.5</ele>
    <time>2026-06-22T21:29:07Z</time>
   </trkpt>
   <trkpt lat="-3.1013420" lon="37.3784270">
    <ele>4624.5</ele>
    <time>2026-06-22T21:29:08Z</time>
   </trkpt>
   <trkpt lat="-3.1013420" lon="37.3784280">
    <ele>4624.5</ele>
    <time>2026-06-22T21:29:09Z</time>
   </trkpt>
   <trkpt lat="-3.1013430" lon="37.3784290">
    <ele>4624.5</ele>
    <time>2026-06-22T21:29:10Z</time>
   </trkpt>
   <trkpt lat="-3.1013430" lon="37.3784300">
    <ele>4624.5</ele>
    <time>2026-06-22T21:29:11Z</time>
   </trkpt>
   <trkpt lat="-3.1013440" lon="37.3784300">
    <ele>4624.5</ele>
    <time>2026-06-22T21:29:12Z</time>
   </trkpt>
   <trkpt lat="-3.1013430" lon="37.3784310">
    <ele>4624.5</ele>
    <time>2026-06-22T21:29:13Z</time>
   </trkpt>
   <trkpt lat="-3.1013430" lon="37.3784320">
    <ele>4624.5</ele>
    <time>2026-06-22T21:29:14Z</time>
   </trkpt>
   <trkpt lat="-3.1013410" lon="37.3784330">
    <ele>4624.6</ele>
    <time>2026-06-22T21:29:15Z</time>
   </trkpt>
   <trkpt lat="-3.1013410" lon="37.3784330">
    <ele>4624.6</ele>
    <time>2026-06-22T21:29:16Z</time>
   </trkpt>
   <trkpt lat="-3.1013400" lon="37.3784320">
    <ele>4624.6</ele>
    <time>2026-06-22T21:29:17Z</time>
   </trkpt>
   <trkpt lat="-3.1013400" lon="37.3784340">
    <ele>4624.6</ele>
    <time>2026-06-22T21:29:18Z</time>
   </trkpt>
   <trkpt lat="-3.1013410" lon="37.3784340">
    <ele>4624.6</ele>
    <time>2026-06-22T21:29:19Z</time>
   </trkpt>
   <trkpt lat="-3.1013400" lon="37.3784330">
    <ele>4624.6</ele>
    <time>2026-06-22T21:29:20Z</time>
   </trkpt>
   <trkpt lat="-3.1013420" lon="37.3784330">
    <ele>4624.6</ele>
    <time>2026-06-22T21:29:21Z</time>
   </trkpt>
   <trkpt lat="-3.1013400" lon="37.3784320">
    <ele>4624.7</ele>
    <time>2026-06-22T21:29:22Z</time>
   </trkpt>
   <trkpt lat="-3.1013410" lon="37.3784350">
    <ele>4624.7</ele>
    <time>2026-06-22T21:29:23Z</time>
   </trkpt>
   <trkpt lat="-3.1013400" lon="37.3784340">
    <ele>4624.7</ele>
    <time>2026-06-22T21:29:24Z</time>
   </trkpt>
   <trkpt lat="-3.1013460" lon="37.3784400">
    <ele>4624.8</ele>
    <time>2026-06-22T21:29:25Z</time>
   </trkpt>
   <trkpt lat="-3.1013440" lon="37.3784370">
    <ele>4624.8</ele>
    <time>2026-06-22T21:29:26Z</time>
   </trkpt>
   <trkpt lat="-3.1013440" lon="37.3784420">
    <ele>4624.9</ele>
    <time>2026-06-22T21:29:27Z</time>
   </trkpt>
   <trkpt lat="-3.1013460" lon="37.3784460">
    <ele>4624.9</ele>
    <time>2026-06-22T21:29:28Z</time>
   </trkpt>
   <trkpt lat="-3.1013500" lon="37.3784420">
    <ele>4625.0</ele>
    <time>2026-06-22T21:29:29Z</time>
   </trkpt>
   <trkpt lat="-3.1013500" lon="37.3784420">
    <ele>4625.0</ele>
    <time>2026-06-22T21:29:30Z</time>
   </trkpt>
   <trkpt lat="-3.1013470" lon="37.3784420">
    <ele>4625.0</ele>
    <time>2026-06-22T21:29:31Z</time>
   </trkpt>
   <trkpt lat="-3.1013480" lon="37.3784420">
    <ele>4625.0</ele>
    <time>2026-06-22T21:29:32Z</time>
   </trkpt>
   <trkpt lat="-3.1013490" lon="37.3784380">
    <ele>4625.1</ele>
    <time>2026-06-22T21:29:33Z</time>
   </trkpt>
   <trkpt lat="-3.1013490" lon="37.3784350">
    <ele>4625.1</ele>
    <time>2026-06-22T21:29:34Z</time>
   </trkpt>
   <trkpt lat="-3.1013470" lon="37.3784330">
    <ele>4625.1</ele>
    <time>2026-06-22T21:29:35Z</time>
   </trkpt>
   <trkpt lat="-3.1013460" lon="37.3784330">
    <ele>4625.1</ele>
    <time>2026-06-22T21:29:36Z</time>
   </trkpt>
   <trkpt lat="-3.1013440" lon="37.3784350">
    <ele>4625.1</ele>
    <time>2026-06-22T21:29:37Z</time>
   </trkpt>
   <trkpt lat="-3.1013460" lon="37.3784360">
    <ele>4625.2</ele>
    <time>2026-06-22T21:29:38Z</time>
   </trkpt>
   <trkpt lat="-3.1013490" lon="37.3784360">
    <ele>4625.2</ele>
    <time>2026-06-22T21:29:39Z</time>
   </trkpt>
   <trkpt lat="-3.1013480" lon="37.3784350">
    <ele>4625.2</ele>
    <time>2026-06-22T21:29:40Z</time>
   </trkpt>
   <trkpt lat="-3.1013440" lon="37.3784350">
    <ele>4625.2</ele>
    <time>2026-06-22T21:29:41Z</time>
   </trkpt>
   <trkpt lat="-3.1013420" lon="37.3784340">
    <ele>4625.3</ele>
    <time>2026-06-22T21:29:42Z</time>
   </trkpt>
   <trkpt lat="-3.1013430" lon="37.3784390">
    <ele>4625.3</ele>
    <time>2026-06-22T21:29:43Z</time>
   </trkpt>
   <trkpt lat="-3.1013460" lon="37.3784400">
    <ele>4625.4</ele>
    <time>2026-06-22T21:29:44Z</time>
   </trkpt>
   <trkpt lat="-3.1013460" lon="37.3784350">
    <ele>4625.4</ele>
    <time>2026-06-22T21:29:45Z</time>
   </trkpt>
   <trkpt lat="-3.1013470" lon="37.3784390">
    <ele>4625.4</ele>
    <time>2026-06-22T21:29:46Z</time>
   </trkpt>
   <trkpt lat="-3.1013510" lon="37.3784380">
    <ele>4625.5</ele>
    <time>2026-06-22T21:29:47Z</time>
   </trkpt>
   <trkpt lat="-3.1013510" lon="37.3784380">
    <ele>4625.5</ele>
    <time>2026-06-22T21:29:48Z</time>
   </trkpt>
   <trkpt lat="-3.1013530" lon="37.3784400">
    <ele>4625.5</ele>
    <time>2026-06-22T21:29:49Z</time>
   </trkpt>
   <trkpt lat="-3.1013530" lon="37.3784400">
    <ele>4625.5</ele>
    <time>2026-06-22T21:29:50Z</time>
   </trkpt>
   <trkpt lat="-3.1013530" lon="37.3784390">
    <ele>4625.5</ele>
    <time>2026-06-22T21:29:51Z</time>
   </trkpt>
   <trkpt lat="-3.1013510" lon="37.3784420">
    <ele>4625.6</ele>
    <time>2026-06-22T21:29:52Z</time>
   </trkpt>
   <trkpt lat="-3.1013490" lon="37.3784420">
    <ele>4625.6</ele>
    <time>2026-06-22T21:29:53Z</time>
   </trkpt>
   <trkpt lat="-3.1013500" lon="37.3784430">
    <ele>4625.6</ele>
    <time>2026-06-22T21:29:54Z</time>
   </trkpt>
   <trkpt lat="-3.1013500" lon="37.3784390">
    <ele>4625.6</ele>
    <time>2026-06-22T21:29:55Z</time>
   </trkpt>
   <trkpt lat="-3.1013520" lon="37.3784400">
    <ele>4625.7</ele>
    <time>2026-06-22T21:29:56Z</time>
   </trkpt>
   <trkpt lat="-3.1013520" lon="37.3784390">
    <ele>4625.7</ele>
    <time>2026-06-22T21:29:57Z</time>
   </trkpt>
   <trkpt lat="-3.1013520" lon="37.3784390">
    <ele>4625.7</ele>
    <time>2026-06-22T21:29:58Z</time>
   </trkpt>
   <trkpt lat="-3.1013520" lon="37.3784390">
    <ele>4625.7</ele>
    <time>2026-06-22T21:29:59Z</time>
   </trkpt>
   <trkpt lat="-3.1013520" lon="37.3784390">
    <ele>4625.7</ele>
    <time>2026-06-22T21:30:00Z</time>
   </trkpt>
   <trkpt lat="-3.1013510" lon="37.3784410">
    <ele>4625.7</ele>
    <time>2026-06-22T21:30:01Z</time>
   </trkpt>
   <trkpt lat="-3.1013520" lon="37.3784390">
    <ele>4625.7</ele>
    <time>2026-06-22T21:30:02Z</time>
   </trkpt>
   <trkpt lat="-3.1013520" lon="37.3784390">
    <ele>4625.7</ele>
    <time>2026-06-22T21:30:03Z</time>
   </trkpt>
   <trkpt lat="-3.1013520" lon="37.3784390">
    <ele>4625.7</ele>
    <time>2026-06-22T21:30:04Z</time>
   </trkpt>
   <trkpt lat="-3.1013530" lon="37.3784400">
    <ele>4625.7</ele>
    <time>2026-06-22T21:30:05Z</time>
   </trkpt>
   <trkpt lat="-3.1013530" lon="37.3784400">
    <ele>4625.7</ele>
    <time>2026-06-22T21:30:06Z</time>
   </trkpt>
   <trkpt lat="-3.1013520" lon="37.3784400">
    <ele>4625.7</ele>
    <time>2026-06-22T21:30:07Z</time>
   </trkpt>
   <trkpt lat="-3.1013520" lon="37.3784410">
    <ele>4625.8</ele>
    <time>2026-06-22T21:30:08Z</time>
   </trkpt>
   <trkpt lat="-3.1013510" lon="37.3784420">
    <ele>4625.8</ele>
    <time>2026-06-22T21:30:09Z</time>
   </trkpt>
   <trkpt lat="-3.1013510" lon="37.3784420">
    <ele>4625.8</ele>
    <time>2026-06-22T21:30:10Z</time>
   </trkpt>
   <trkpt lat="-3.1013510" lon="37.3784420">
    <ele>4625.8</ele>
    <time>2026-06-22T21:30:11Z</time>
   </trkpt>
   <trkpt lat="-3.1013510" lon="37.3784420">
    <ele>4625.8</ele>
    <time>2026-06-22T21:30:12Z</time>
   </trkpt>
   <trkpt lat="-3.1013510" lon="37.3784420">
    <ele>4625.8</ele>
    <time>2026-06-22T21:30:13Z</time>
   </trkpt>
   <trkpt lat="-3.1013510" lon="37.3784420">
    <ele>4625.8</ele>
    <time>2026-06-22T21:30:14Z</time>
   </trkpt>
   <trkpt lat="-3.1013510" lon="37.3784420">
    <ele>4625.8</ele>
    <time>2026-06-22T21:30:15Z</time>
   </trkpt>
   <trkpt lat="-3.1013510" lon="37.3784420">
    <ele>4625.8</ele>
    <time>2026-06-22T21:30:16Z</time>
   </trkpt>
   <trkpt lat="-3.1013510" lon="37.3784420">
    <ele>4625.8</ele>
    <time>2026-06-22T21:30:17Z</time>
   </trkpt>
   <trkpt lat="-3.1013510" lon="37.3784420">
    <ele>4625.8</ele>
    <time>2026-06-22T21:30:18Z</time>
   </trkpt>
   <trkpt lat="-3.1013510" lon="37.3784420">
    <ele>4625.8</ele>
    <time>2026-06-22T21:30:19Z</time>
   </trkpt>
   <trkpt lat="-3.1013500" lon="37.3784380">
    <ele>4625.8</ele>
    <time>2026-06-22T21:30:20Z</time>
   </trkpt>
   <trkpt lat="-3.1013520" lon="37.3784350">
    <ele>4625.9</ele>
    <time>2026-06-22T21:30:21Z</time>
   </trkpt>
   <trkpt lat="-3.1013540" lon="37.3784330">
    <ele>4625.9</ele>
    <time>2026-06-22T21:30:22Z</time>
   </trkpt>
   <trkpt lat="-3.1013530" lon="37.3784280">
    <ele>4625.9</ele>
    <time>2026-06-22T21:30:23Z</time>
   </trkpt>
   <trkpt lat="-3.1013490" lon="37.3784200">
    <ele>4626.0</ele>
    <time>2026-06-22T21:30:24Z</time>
   </trkpt>
   <trkpt lat="-3.1013420" lon="37.3784170">
    <ele>4626.1</ele>
    <time>2026-06-22T21:30:25Z</time>
   </trkpt>
   <trkpt lat="-3.1013350" lon="37.3784210">
    <ele>4626.2</ele>
    <time>2026-06-22T21:30:26Z</time>
   </trkpt>
   <trkpt lat="-3.1013310" lon="37.3784320">
    <ele>4626.3</ele>
    <time>2026-06-22T21:30:27Z</time>
   </trkpt>
   <trkpt lat="-3.1013250" lon="37.3784380">
    <ele>4626.4</ele>
    <time>2026-06-22T21:30:28Z</time>
   </trkpt>
   <trkpt lat="-3.1013240" lon="37.3784400">
    <ele>4626.4</ele>
    <time>2026-06-22T21:30:29Z</time>
   </trkpt>
   <trkpt lat="-3.1013240" lon="37.3784380">
    <ele>4626.5</ele>
    <time>2026-06-22T21:30:30Z</time>
   </trkpt>
   <trkpt lat="-3.1013240" lon="37.3784380">
    <ele>4626.5</ele>
    <time>2026-06-22T21:30:31Z</time>
   </trkpt>
   <trkpt lat="-3.1013230" lon="37.3784360">
    <ele>4626.5</ele>
    <time>2026-06-22T21:30:32Z</time>
   </trkpt>
   <trkpt lat="-3.1013230" lon="37.3784360">
    <ele>4626.5</ele>
    <time>2026-06-22T21:30:33Z</time>
   </trkpt>
   <trkpt lat="-3.1013230" lon="37.3784360">
    <ele>4626.5</ele>
    <time>2026-06-22T21:30:34Z</time>
   </trkpt>
   <trkpt lat="-3.1013250" lon="37.3784340">
    <ele>4626.5</ele>
    <time>2026-06-22T21:30:35Z</time>
   </trkpt>
   <trkpt lat="-3.1013270" lon="37.3784320">
    <ele>4626.5</ele>
    <time>2026-06-22T21:30:36Z</time>
   </trkpt>
   <trkpt lat="-3.1013230" lon="37.3784280">
    <ele>4626.6</ele>
    <time>2026-06-22T21:30:37Z</time>
   </trkpt>
   <trkpt lat="-3.1013230" lon="37.3784320">
    <ele>4626.6</ele>
    <time>2026-06-22T21:30:38Z</time>
   </trkpt>
   <trkpt lat="-3.1013220" lon="37.3784340">
    <ele>4626.7</ele>
    <time>2026-06-22T21:30:39Z</time>
   </trkpt>
   <trkpt lat="-3.1013220" lon="37.3784340">
    <ele>4626.7</ele>
    <time>2026-06-22T21:30:40Z</time>
   </trkpt>
   <trkpt lat="-3.1013300" lon="37.3784340">
    <ele>4626.7</ele>
    <time>2026-06-22T21:30:41Z</time>
   </trkpt>
   <trkpt lat="-3.1013310" lon="37.3784350">
    <ele>4626.8</ele>
    <time>2026-06-22T21:30:42Z</time>
   </trkpt>
   <trkpt lat="-3.1013330" lon="37.3784350">
    <ele>4626.8</ele>
    <time>2026-06-22T21:30:43Z</time>
   </trkpt>
   <trkpt lat="-3.1013320" lon="37.3784350">
    <ele>4626.8</ele>
    <time>2026-06-22T21:30:44Z</time>
   </trkpt>
   <trkpt lat="-3.1013320" lon="37.3784340">
    <ele>4626.8</ele>
    <time>2026-06-22T21:30:45Z</time>
   </trkpt>
   <trkpt lat="-3.1013310" lon="37.3784340">
    <ele>4626.8</ele>
    <time>2026-06-22T21:30:46Z</time>
   </trkpt>
   <trkpt lat="-3.1013300" lon="37.3784370">
    <ele>4626.8</ele>
    <time>2026-06-22T21:30:47Z</time>
   </trkpt>
   <trkpt lat="-3.1013320" lon="37.3784310">
    <ele>4626.9</ele>
    <time>2026-06-22T21:30:48Z</time>
   </trkpt>
   <trkpt lat="-3.1013320" lon="37.3784360">
    <ele>4627.0</ele>
    <time>2026-06-22T21:30:49Z</time>
   </trkpt>
   <trkpt lat="-3.1013350" lon="37.3784340">
    <ele>4627.0</ele>
    <time>2026-06-22T21:30:50Z</time>
   </trkpt>
   <trkpt lat="-3.1013350" lon="37.3784340">
    <ele>4627.0</ele>
    <time>2026-06-22T21:30:51Z</time>
   </trkpt>
   <trkpt lat="-3.1013340" lon="37.3784320">
    <ele>4627.0</ele>
    <time>2026-06-22T21:30:52Z</time>
   </trkpt>
   <trkpt lat="-3.1013330" lon="37.3784320">
    <ele>4627.0</ele>
    <time>2026-06-22T21:30:53Z</time>
   </trkpt>
   <trkpt lat="-3.1013370" lon="37.3784320">
    <ele>4627.1</ele>
    <time>2026-06-22T21:30:54Z</time>
   </trkpt>
   <trkpt lat="-3.1013370" lon="37.3784330">
    <ele>4627.1</ele>
    <time>2026-06-22T21:30:55Z</time>
   </trkpt>
   <trkpt lat="-3.1013360" lon="37.3784320">
    <ele>4627.1</ele>
    <time>2026-06-22T21:30:56Z</time>
   </trkpt>
   <trkpt lat="-3.1013350" lon="37.3784300">
    <ele>4627.1</ele>
    <time>2026-06-22T21:30:57Z</time>
   </trkpt>
   <trkpt lat="-3.1013350" lon="37.3784300">
    <ele>4627.1</ele>
    <time>2026-06-22T21:30:58Z</time>
   </trkpt>
   <trkpt lat="-3.1013350" lon="37.3784300">
    <ele>4627.1</ele>
    <time>2026-06-22T21:30:59Z</time>
   </trkpt>
   <trkpt lat="-3.1013350" lon="37.3784300">
    <ele>4627.1</ele>
    <time>2026-06-22T21:31:00Z</time>
   </trkpt>
   <trkpt lat="-3.1013360" lon="37.3784330">
    <ele>4627.2</ele>
    <time>2026-06-22T21:31:01Z</time>
   </trkpt>
   <trkpt lat="-3.1013360" lon="37.3784330">
    <ele>4627.2</ele>
    <time>2026-06-22T21:31:02Z</time>
   </trkpt>
   <trkpt lat="-3.1013370" lon="37.3784330">
    <ele>4627.2</ele>
    <time>2026-06-22T21:31:03Z</time>
   </trkpt>
   <trkpt lat="-3.1013380" lon="37.3784320">
    <ele>4627.2</ele>
    <time>2026-06-22T21:31:04Z</time>
   </trkpt>
   <trkpt lat="-3.1013380" lon="37.3784320">
    <ele>4627.2</ele>
    <time>2026-06-22T21:31:05Z</time>
   </trkpt>
   <trkpt lat="-3.1013370" lon="37.3784330">
    <ele>4627.2</ele>
    <time>2026-06-22T21:31:06Z</time>
   </trkpt>
   <trkpt lat="-3.1013380" lon="37.3784330">
    <ele>4627.2</ele>
    <time>2026-06-22T21:31:07Z</time>
   </trkpt>
   <trkpt lat="-3.1013380" lon="37.3784330">
    <ele>4627.2</ele>
    <time>2026-06-22T21:31:08Z</time>
   </trkpt>
   <trkpt lat="-3.1013370" lon="37.3784340">
    <ele>4627.2</ele>
    <time>2026-06-22T21:31:09Z</time>
   </trkpt>
   <trkpt lat="-3.1013370" lon="37.3784340">
    <ele>4627.2</ele>
    <time>2026-06-22T21:31:10Z</time>
   </trkpt>
   <trkpt lat="-3.1013370" lon="37.3784340">
    <ele>4627.2</ele>
    <time>2026-06-22T21:31:11Z</time>
   </trkpt>
   <trkpt lat="-3.1013370" lon="37.3784340">
    <ele>4627.2</ele>
    <time>2026-06-22T21:31:12Z</time>
   </trkpt>
   <trkpt lat="-3.1013370" lon="37.3784340">
    <ele>4627.2</ele>
    <time>2026-06-22T21:31:13Z</time>
   </trkpt>
   <trkpt lat="-3.1013370" lon="37.3784340">
    <ele>4627.2</ele>
    <time>2026-06-22T21:31:14Z</time>
   </trkpt>
   <trkpt lat="-3.1013360" lon="37.3784370">
    <ele>4627.3</ele>
    <time>2026-06-22T21:31:15Z</time>
   </trkpt>
   <trkpt lat="-3.1013360" lon="37.3784370">
    <ele>4627.3</ele>
    <time>2026-06-22T21:31:16Z</time>
   </trkpt>
   <trkpt lat="-3.1013360" lon="37.3784370">
    <ele>4627.3</ele>
    <time>2026-06-22T21:31:17Z</time>
   </trkpt>
   <trkpt lat="-3.1013360" lon="37.3784370">
    <ele>4627.3</ele>
    <time>2026-06-22T21:31:18Z</time>
   </trkpt>
   <trkpt lat="-3.1013370" lon="37.3784390">
    <ele>4627.3</ele>
    <time>2026-06-22T21:31:19Z</time>
   </trkpt>
   <trkpt lat="-3.1013370" lon="37.3784390">
    <ele>4627.3</ele>
    <time>2026-06-22T21:31:20Z</time>
   </trkpt>
   <trkpt lat="-3.1013360" lon="37.3784380">
    <ele>4627.3</ele>
    <time>2026-06-22T21:31:21Z</time>
   </trkpt>
   <trkpt lat="-3.1013360" lon="37.3784390">
    <ele>4627.3</ele>
    <time>2026-06-22T21:31:22Z</time>
   </trkpt>
   <trkpt lat="-3.1013360" lon="37.3784380">
    <ele>4627.3</ele>
    <time>2026-06-22T21:31:23Z</time>
   </trkpt>
   <trkpt lat="-3.1013350" lon="37.3784380">
    <ele>4627.3</ele>
    <time>2026-06-22T21:31:24Z</time>
   </trkpt>
   <trkpt lat="-3.1013350" lon="37.3784410">
    <ele>4627.4</ele>
    <time>2026-06-22T21:31:25Z</time>
   </trkpt>
   <trkpt lat="-3.1013350" lon="37.3784410">
    <ele>4627.4</ele>
    <time>2026-06-22T21:31:26Z</time>
   </trkpt>
   <trkpt lat="-3.1013350" lon="37.3784400">
    <ele>4627.4</ele>
    <time>2026-06-22T21:31:27Z</time>
   </trkpt>
   <trkpt lat="-3.1013360" lon="37.3784400">
    <ele>4627.4</ele>
    <time>2026-06-22T21:31:28Z</time>
   </trkpt>
   <trkpt lat="-3.1013360" lon="37.3784390">
    <ele>4627.4</ele>
    <time>2026-06-22T21:31:29Z</time>
   </trkpt>
   <trkpt lat="-3.1013370" lon="37.3784400">
    <ele>4627.4</ele>
    <time>2026-06-22T21:31:30Z</time>
   </trkpt>
   <trkpt lat="-3.1013370" lon="37.3784390">
    <ele>4627.4</ele>
    <time>2026-06-22T21:31:31Z</time>
   </trkpt>
   <trkpt lat="-3.1013360" lon="37.3784390">
    <ele>4627.4</ele>
    <time>2026-06-22T21:31:32Z</time>
   </trkpt>
   <trkpt lat="-3.1013360" lon="37.3784380">
    <ele>4627.4</ele>
    <time>2026-06-22T21:31:33Z</time>
   </trkpt>
   <trkpt lat="-3.1013360" lon="37.3784370">
    <ele>4627.5</ele>
    <time>2026-06-22T21:31:34Z</time>
   </trkpt>
   <trkpt lat="-3.1013360" lon="37.3784370">
    <ele>4627.5</ele>
    <time>2026-06-22T21:31:35Z</time>
   </trkpt>
   <trkpt lat="-3.1013360" lon="37.3784370">
    <ele>4627.5</ele>
    <time>2026-06-22T21:31:36Z</time>
   </trkpt>
   <trkpt lat="-3.1013360" lon="37.3784360">
    <ele>4627.5</ele>
    <time>2026-06-22T21:31:37Z</time>
   </trkpt>
   <trkpt lat="-3.1013360" lon="37.3784360">
    <ele>4627.5</ele>
    <time>2026-06-22T21:31:38Z</time>
   </trkpt>
   <trkpt lat="-3.1013370" lon="37.3784350">
    <ele>4627.5</ele>
    <time>2026-06-22T21:31:39Z</time>
   </trkpt>
   <trkpt lat="-3.1013370" lon="37.3784350">
    <ele>4627.5</ele>
    <time>2026-06-22T21:31:40Z</time>
   </trkpt>
   <trkpt lat="-3.1013370" lon="37.3784350">
    <ele>4627.5</ele>
    <time>2026-06-22T21:31:41Z</time>
   </trkpt>
   <trkpt lat="-3.1013370" lon="37.3784350">
    <ele>4627.5</ele>
    <time>2026-06-22T21:31:42Z</time>
   </trkpt>
   <trkpt lat="-3.1013370" lon="37.3784320">
    <ele>4627.5</ele>
    <time>2026-06-22T21:31:43Z</time>
   </trkpt>
   <trkpt lat="-3.1013370" lon="37.3784320">
    <ele>4627.5</ele>
    <time>2026-06-22T21:31:44Z</time>
   </trkpt>
   <trkpt lat="-3.1013390" lon="37.3784310">
    <ele>4627.5</ele>
    <time>2026-06-22T21:31:45Z</time>
   </trkpt>
   <trkpt lat="-3.1013390" lon="37.3784310">
    <ele>4627.5</ele>
    <time>2026-06-22T21:31:46Z</time>
   </trkpt>
   <trkpt lat="-3.1013400" lon="37.3784310">
    <ele>4627.5</ele>
    <time>2026-06-22T21:31:47Z</time>
   </trkpt>
   <trkpt lat="-3.1013400" lon="37.3784300">
    <ele>4627.6</ele>
    <time>2026-06-22T21:31:48Z</time>
   </trkpt>
   <trkpt lat="-3.1013400" lon="37.3784340">
    <ele>4627.6</ele>
    <time>2026-06-22T21:31:49Z</time>
   </trkpt>
   <trkpt lat="-3.1013400" lon="37.3784340">
    <ele>4627.6</ele>
    <time>2026-06-22T21:31:50Z</time>
   </trkpt>
   <trkpt lat="-3.1013410" lon="37.3784330">
    <ele>4627.6</ele>
    <time>2026-06-22T21:31:51Z</time>
   </trkpt>
   <trkpt lat="-3.1013410" lon="37.3784330">
    <ele>4627.6</ele>
    <time>2026-06-22T21:31:52Z</time>
   </trkpt>
   <trkpt lat="-3.1013410" lon="37.3784330">
    <ele>4627.6</ele>
    <time>2026-06-22T21:31:53Z</time>
   </trkpt>
   <trkpt lat="-3.1013420" lon="37.3784330">
    <ele>4627.6</ele>
    <time>2026-06-22T21:31:54Z</time>
   </trkpt>
   <trkpt lat="-3.1013420" lon="37.3784330">
    <ele>4627.6</ele>
    <time>2026-06-22T21:31:55Z</time>
   </trkpt>
   <trkpt lat="-3.1013410" lon="37.3784330">
    <ele>4627.6</ele>
    <time>2026-06-22T21:31:56Z</time>
   </trkpt>
   <trkpt lat="-3.1013420" lon="37.3784340">
    <ele>4627.6</ele>
    <time>2026-06-22T21:31:57Z</time>
   </trkpt>
   <trkpt lat="-3.1013420" lon="37.3784330">
    <ele>4627.7</ele>
    <time>2026-06-22T21:31:58Z</time>
   </trkpt>
   <trkpt lat="-3.1013410" lon="37.3784330">
    <ele>4627.7</ele>
    <time>2026-06-22T21:31:59Z</time>
   </trkpt>
   <trkpt lat="-3.1013420" lon="37.3784330">
    <ele>4627.7</ele>
    <time>2026-06-22T21:32:00Z</time>
   </trkpt>
   <trkpt lat="-3.1013410" lon="37.3784320">
    <ele>4627.7</ele>
    <time>2026-06-22T21:32:01Z</time>
   </trkpt>
   <trkpt lat="-3.1013410" lon="37.3784320">
    <ele>4627.7</ele>
    <time>2026-06-22T21:32:02Z</time>
   </trkpt>
   <trkpt lat="-3.1013410" lon="37.3784310">
    <ele>4627.7</ele>
    <time>2026-06-22T21:32:03Z</time>
   </trkpt>
   <trkpt lat="-3.1013410" lon="37.3784310">
    <ele>4627.7</ele>
    <time>2026-06-22T21:32:04Z</time>
   </trkpt>
   <trkpt lat="-3.1013400" lon="37.3784300">
    <ele>4627.7</ele>
    <time>2026-06-22T21:32:05Z</time>
   </trkpt>
   <trkpt lat="-3.1013360" lon="37.3784260">
    <ele>4627.8</ele>
    <time>2026-06-22T21:32:06Z</time>
   </trkpt>
   <trkpt lat="-3.1013360" lon="37.3784270">
    <ele>4627.8</ele>
    <time>2026-06-22T21:32:07Z</time>
   </trkpt>
   <trkpt lat="-3.1013360" lon="37.3784200">
    <ele>4627.9</ele>
    <time>2026-06-22T21:32:08Z</time>
   </trkpt>
   <trkpt lat="-3.1013400" lon="37.3784300">
    <ele>4628.0</ele>
    <time>2026-06-22T21:32:09Z</time>
   </trkpt>
   <trkpt lat="-3.1013370" lon="37.3784270">
    <ele>4628.0</ele>
    <time>2026-06-22T21:32:10Z</time>
   </trkpt>
   <trkpt lat="-3.1013390" lon="37.3784260">
    <ele>4628.0</ele>
    <time>2026-06-22T21:32:11Z</time>
   </trkpt>
   <trkpt lat="-3.1013370" lon="37.3784260">
    <ele>4628.1</ele>
    <time>2026-06-22T21:32:12Z</time>
   </trkpt>
   <trkpt lat="-3.1013380" lon="37.3784260">
    <ele>4628.1</ele>
    <time>2026-06-22T21:32:13Z</time>
   </trkpt>
   <trkpt lat="-3.1013370" lon="37.3784270">
    <ele>4628.1</ele>
    <time>2026-06-22T21:32:14Z</time>
   </trkpt>
   <trkpt lat="-3.1013360" lon="37.3784260">
    <ele>4628.1</ele>
    <time>2026-06-22T21:32:15Z</time>
   </trkpt>
   <trkpt lat="-3.1013350" lon="37.3784260">
    <ele>4628.1</ele>
    <time>2026-06-22T21:32:16Z</time>
   </trkpt>
   <trkpt lat="-3.1013340" lon="37.3784260">
    <ele>4628.1</ele>
    <time>2026-06-22T21:32:17Z</time>
   </trkpt>
   <trkpt lat="-3.1013340" lon="37.3784220">
    <ele>4628.2</ele>
    <time>2026-06-22T21:32:18Z</time>
   </trkpt>
   <trkpt lat="-3.1013290" lon="37.3784190">
    <ele>4628.2</ele>
    <time>2026-06-22T21:32:19Z</time>
   </trkpt>
   <trkpt lat="-3.1013300" lon="37.3784120">
    <ele>4628.3</ele>
    <time>2026-06-22T21:32:20Z</time>
   </trkpt>
   <trkpt lat="-3.1013320" lon="37.3784070">
    <ele>4628.4</ele>
    <time>2026-06-22T21:32:21Z</time>
   </trkpt>
   <trkpt lat="-3.1013320" lon="37.3784020">
    <ele>4628.4</ele>
    <time>2026-06-22T21:32:22Z</time>
   </trkpt>
   <trkpt lat="-3.1013380" lon="37.3783930">
    <ele>4628.5</ele>
    <time>2026-06-22T21:32:23Z</time>
   </trkpt>
   <trkpt lat="-3.1013390" lon="37.3783920">
    <ele>4628.5</ele>
    <time>2026-06-22T21:32:24Z</time>
   </trkpt>
   <trkpt lat="-3.1013350" lon="37.3783920">
    <ele>4628.6</ele>
    <time>2026-06-22T21:32:25Z</time>
   </trkpt>
   <trkpt lat="-3.1013360" lon="37.3783920">
    <ele>4628.6</ele>
    <time>2026-06-22T21:32:26Z</time>
   </trkpt>
   <trkpt lat="-3.1013360" lon="37.3783930">
    <ele>4628.6</ele>
    <time>2026-06-22T21:32:27Z</time>
   </trkpt>
   <trkpt lat="-3.1013350" lon="37.3783920">
    <ele>4628.6</ele>
    <time>2026-06-22T21:32:28Z</time>
   </trkpt>
   <trkpt lat="-3.1013360" lon="37.3783930">
    <ele>4628.6</ele>
    <time>2026-06-22T21:32:29Z</time>
   </trkpt>
   <trkpt lat="-3.1013380" lon="37.3783940">
    <ele>4628.7</ele>
    <time>2026-06-22T21:32:30Z</time>
   </trkpt>
   <trkpt lat="-3.1013370" lon="37.3783950">
    <ele>4628.7</ele>
    <time>2026-06-22T21:32:31Z</time>
   </trkpt>
   <trkpt lat="-3.1013370" lon="37.3783950">
    <ele>4628.7</ele>
    <time>2026-06-22T21:32:32Z</time>
   </trkpt>
   <trkpt lat="-3.1013380" lon="37.3783970">
    <ele>4628.7</ele>
    <time>2026-06-22T21:32:33Z</time>
   </trkpt>
   <trkpt lat="-3.1013370" lon="37.3783970">
    <ele>4628.7</ele>
    <time>2026-06-22T21:32:34Z</time>
   </trkpt>
   <trkpt lat="-3.1013370" lon="37.3783980">
    <ele>4628.7</ele>
    <time>2026-06-22T21:32:35Z</time>
   </trkpt>
   <trkpt lat="-3.1013350" lon="37.3784010">
    <ele>4628.8</ele>
    <time>2026-06-22T21:32:36Z</time>
   </trkpt>
   <trkpt lat="-3.1013370" lon="37.3783980">
    <ele>4628.8</ele>
    <time>2026-06-22T21:32:37Z</time>
   </trkpt>
   <trkpt lat="-3.1013330" lon="37.3783940">
    <ele>4628.9</ele>
    <time>2026-06-22T21:32:38Z</time>
   </trkpt>
   <trkpt lat="-3.1013320" lon="37.3783980">
    <ele>4628.9</ele>
    <time>2026-06-22T21:32:39Z</time>
   </trkpt>
   <trkpt lat="-3.1013320" lon="37.3783980">
    <ele>4628.9</ele>
    <time>2026-06-22T21:32:40Z</time>
   </trkpt>
   <trkpt lat="-3.1013320" lon="37.3784010">
    <ele>4628.9</ele>
    <time>2026-06-22T21:32:41Z</time>
   </trkpt>
   <trkpt lat="-3.1013300" lon="37.3784010">
    <ele>4629.0</ele>
    <time>2026-06-22T21:32:42Z</time>
   </trkpt>
   <trkpt lat="-3.1013290" lon="37.3784000">
    <ele>4629.0</ele>
    <time>2026-06-22T21:32:43Z</time>
   </trkpt>
   <trkpt lat="-3.1013310" lon="37.3784010">
    <ele>4629.0</ele>
    <time>2026-06-22T21:32:44Z</time>
   </trkpt>
   <trkpt lat="-3.1013290" lon="37.3784020">
    <ele>4629.0</ele>
    <time>2026-06-22T21:32:45Z</time>
   </trkpt>
   <trkpt lat="-3.1013300" lon="37.3784020">
    <ele>4629.0</ele>
    <time>2026-06-22T21:32:46Z</time>
   </trkpt>
   <trkpt lat="-3.1013310" lon="37.3784020">
    <ele>4629.0</ele>
    <time>2026-06-22T21:32:47Z</time>
   </trkpt>
   <trkpt lat="-3.1013310" lon="37.3784020">
    <ele>4629.0</ele>
    <time>2026-06-22T21:32:48Z</time>
   </trkpt>
   <trkpt lat="-3.1013310" lon="37.3784020">
    <ele>4629.0</ele>
    <time>2026-06-22T21:32:49Z</time>
   </trkpt>
   <trkpt lat="-3.1013330" lon="37.3784030">
    <ele>4629.1</ele>
    <time>2026-06-22T21:32:50Z</time>
   </trkpt>
   <trkpt lat="-3.1013320" lon="37.3784030">
    <ele>4629.1</ele>
    <time>2026-06-22T21:32:51Z</time>
   </trkpt>
   <trkpt lat="-3.1013330" lon="37.3783970">
    <ele>4629.1</ele>
    <time>2026-06-22T21:32:52Z</time>
   </trkpt>
   <trkpt lat="-3.1013280" lon="37.3783940">
    <ele>4629.2</ele>
    <time>2026-06-22T21:32:53Z</time>
   </trkpt>
   <trkpt lat="-3.1013310" lon="37.3783960">
    <ele>4629.2</ele>
    <time>2026-06-22T21:32:54Z</time>
   </trkpt>
   <trkpt lat="-3.1013280" lon="37.3783960">
    <ele>4629.3</ele>
    <time>2026-06-22T21:32:55Z</time>
   </trkpt>
   <trkpt lat="-3.1013280" lon="37.3783960">
    <ele>4629.3</ele>
    <time>2026-06-22T21:32:56Z</time>
   </trkpt>
   <trkpt lat="-3.1013300" lon="37.3783960">
    <ele>4629.3</ele>
    <time>2026-06-22T21:32:57Z</time>
   </trkpt>
   <trkpt lat="-3.1013310" lon="37.3783960">
    <ele>4629.3</ele>
    <time>2026-06-22T21:32:58Z</time>
   </trkpt>
   <trkpt lat="-3.1013320" lon="37.3783980">
    <ele>4629.3</ele>
    <time>2026-06-22T21:32:59Z</time>
   </trkpt>
   <trkpt lat="-3.1013330" lon="37.3783990">
    <ele>4629.3</ele>
    <time>2026-06-22T21:33:00Z</time>
   </trkpt>
   <trkpt lat="-3.1013340" lon="37.3784010">
    <ele>4629.4</ele>
    <time>2026-06-22T21:33:01Z</time>
   </trkpt>
   <trkpt lat="-3.1013340" lon="37.3784030">
    <ele>4629.4</ele>
    <time>2026-06-22T21:33:02Z</time>
   </trkpt>
   <trkpt lat="-3.1013330" lon="37.3784040">
    <ele>4629.4</ele>
    <time>2026-06-22T21:33:03Z</time>
   </trkpt>
   <trkpt lat="-3.1013330" lon="37.3784040">
    <ele>4629.4</ele>
    <time>2026-06-22T21:33:04Z</time>
   </trkpt>
   <trkpt lat="-3.1013340" lon="37.3784040">
    <ele>4629.4</ele>
    <time>2026-06-22T21:33:05Z</time>
   </trkpt>
   <trkpt lat="-3.1013340" lon="37.3784010">
    <ele>4629.4</ele>
    <time>2026-06-22T21:33:06Z</time>
   </trkpt>
   <trkpt lat="-3.1013320" lon="37.3783980">
    <ele>4629.5</ele>
    <time>2026-06-22T21:33:07Z</time>
   </trkpt>
   <trkpt lat="-3.1013320" lon="37.3783990">
    <ele>4629.5</ele>
    <time>2026-06-22T21:33:08Z</time>
   </trkpt>
   <trkpt lat="-3.1013320" lon="37.3783990">
    <ele>4629.5</ele>
    <time>2026-06-22T21:33:09Z</time>
   </trkpt>
   <trkpt lat="-3.1013320" lon="37.3783990">
    <ele>4629.5</ele>
    <time>2026-06-22T21:33:10Z</time>
   </trkpt>
   <trkpt lat="-3.1013330" lon="37.3783990">
    <ele>4629.5</ele>
    <time>2026-06-22T21:33:11Z</time>
   </trkpt>
   <trkpt lat="-3.1013340" lon="37.3784010">
    <ele>4629.5</ele>
    <time>2026-06-22T21:33:12Z</time>
   </trkpt>
   <trkpt lat="-3.1013320" lon="37.3784030">
    <ele>4629.5</ele>
    <time>2026-06-22T21:33:13Z</time>
   </trkpt>
   <trkpt lat="-3.1013300" lon="37.3784040">
    <ele>4629.6</ele>
    <time>2026-06-22T21:33:14Z</time>
   </trkpt>
   <trkpt lat="-3.1013320" lon="37.3784040">
    <ele>4629.6</ele>
    <time>2026-06-22T21:33:15Z</time>
   </trkpt>
   <trkpt lat="-3.1013320" lon="37.3784040">
    <ele>4629.6</ele>
    <time>2026-06-22T21:33:16Z</time>
   </trkpt>
   <trkpt lat="-3.1013310" lon="37.3784040">
    <ele>4629.6</ele>
    <time>2026-06-22T21:33:17Z</time>
   </trkpt>
   <trkpt lat="-3.1013310" lon="37.3784040">
    <ele>4629.6</ele>
    <time>2026-06-22T21:33:18Z</time>
   </trkpt>
   <trkpt lat="-3.1013290" lon="37.3784030">
    <ele>4629.6</ele>
    <time>2026-06-22T21:33:19Z</time>
   </trkpt>
   <trkpt lat="-3.1013250" lon="37.3784000">
    <ele>4629.7</ele>
    <time>2026-06-22T21:33:20Z</time>
   </trkpt>
   <trkpt lat="-3.1013310" lon="37.3784000">
    <ele>4629.7</ele>
    <time>2026-06-22T21:33:21Z</time>
   </trkpt>
   <trkpt lat="-3.1013290" lon="37.3784000">
    <ele>4629.8</ele>
    <time>2026-06-22T21:33:22Z</time>
   </trkpt>
   <trkpt lat="-3.1013330" lon="37.3784000">
    <ele>4629.8</ele>
    <time>2026-06-22T21:33:23Z</time>
   </trkpt>
   <trkpt lat="-3.1013310" lon="37.3783980">
    <ele>4629.8</ele>
    <time>2026-06-22T21:33:24Z</time>
   </trkpt>
   <trkpt lat="-3.1013300" lon="37.3783990">
    <ele>4629.9</ele>
    <time>2026-06-22T21:33:25Z</time>
   </trkpt>
   <trkpt lat="-3.1013330" lon="37.3784000">
    <ele>4629.9</ele>
    <time>2026-06-22T21:33:26Z</time>
   </trkpt>
   <trkpt lat="-3.1013340" lon="37.3784010">
    <ele>4629.9</ele>
    <time>2026-06-22T21:33:27Z</time>
   </trkpt>
   <trkpt lat="-3.1013340" lon="37.3784030">
    <ele>4629.9</ele>
    <time>2026-06-22T21:33:28Z</time>
   </trkpt>
   <trkpt lat="-3.1013340" lon="37.3784050">
    <ele>4629.9</ele>
    <time>2026-06-22T21:33:29Z</time>
   </trkpt>
   <trkpt lat="-3.1013350" lon="37.3784050">
    <ele>4630.0</ele>
    <time>2026-06-22T21:33:30Z</time>
   </trkpt>
   <trkpt lat="-3.1013340" lon="37.3784070">
    <ele>4630.0</ele>
    <time>2026-06-22T21:33:31Z</time>
   </trkpt>
   <trkpt lat="-3.1013340" lon="37.3784060">
    <ele>4630.0</ele>
    <time>2026-06-22T21:33:32Z</time>
   </trkpt>
   <trkpt lat="-3.1013340" lon="37.3784070">
    <ele>4630.0</ele>
    <time>2026-06-22T21:33:33Z</time>
   </trkpt>
   <trkpt lat="-3.1013340" lon="37.3784070">
    <ele>4630.0</ele>
    <time>2026-06-22T21:33:34Z</time>
   </trkpt>
   <trkpt lat="-3.1013340" lon="37.3784070">
    <ele>4630.0</ele>
    <time>2026-06-22T21:33:35Z</time>
   </trkpt>
   <trkpt lat="-3.1013340" lon="37.3784070">
    <ele>4630.0</ele>
    <time>2026-06-22T21:33:36Z</time>
   </trkpt>
   <trkpt lat="-3.1013340" lon="37.3784080">
    <ele>4630.0</ele>
    <time>2026-06-22T21:33:37Z</time>
   </trkpt>
   <trkpt lat="-3.1013350" lon="37.3784090">
    <ele>4630.0</ele>
    <time>2026-06-22T21:33:38Z</time>
   </trkpt>
   <trkpt lat="-3.1013360" lon="37.3784110">
    <ele>4630.0</ele>
    <time>2026-06-22T21:33:39Z</time>
   </trkpt>
   <trkpt lat="-3.1013360" lon="37.3784120">
    <ele>4630.1</ele>
    <time>2026-06-22T21:33:40Z</time>
   </trkpt>
   <trkpt lat="-3.1013370" lon="37.3784130">
    <ele>4630.1</ele>
    <time>2026-06-22T21:33:41Z</time>
   </trkpt>
   <trkpt lat="-3.1013360" lon="37.3784130">
    <ele>4630.1</ele>
    <time>2026-06-22T21:33:42Z</time>
   </trkpt>
   <trkpt lat="-3.1013360" lon="37.3784130">
    <ele>4630.1</ele>
    <time>2026-06-22T21:33:43Z</time>
   </trkpt>
   <trkpt lat="-3.1013370" lon="37.3784130">
    <ele>4630.1</ele>
    <time>2026-06-22T21:33:44Z</time>
   </trkpt>
   <trkpt lat="-3.1013360" lon="37.3784130">
    <ele>4630.1</ele>
    <time>2026-06-22T21:33:45Z</time>
   </trkpt>
   <trkpt lat="-3.1013360" lon="37.3784130">
    <ele>4630.1</ele>
    <time>2026-06-22T21:33:46Z</time>
   </trkpt>
   <trkpt lat="-3.1013360" lon="37.3784130">
    <ele>4630.1</ele>
    <time>2026-06-22T21:33:47Z</time>
   </trkpt>
   <trkpt lat="-3.1013350" lon="37.3784130">
    <ele>4630.1</ele>
    <time>2026-06-22T21:33:48Z</time>
   </trkpt>
   <trkpt lat="-3.1013360" lon="37.3784150">
    <ele>4630.1</ele>
    <time>2026-06-22T21:33:49Z</time>
   </trkpt>
   <trkpt lat="-3.1013360" lon="37.3784140">
    <ele>4630.1</ele>
    <time>2026-06-22T21:33:50Z</time>
   </trkpt>
   <trkpt lat="-3.1013360" lon="37.3784150">
    <ele>4630.2</ele>
    <time>2026-06-22T21:33:51Z</time>
   </trkpt>
   <trkpt lat="-3.1013360" lon="37.3784150">
    <ele>4630.2</ele>
    <time>2026-06-22T21:33:52Z</time>
   </trkpt>
   <trkpt lat="-3.1013350" lon="37.3784150">
    <ele>4630.2</ele>
    <time>2026-06-22T21:33:53Z</time>
   </trkpt>
   <trkpt lat="-3.1013340" lon="37.3784150">
    <ele>4630.2</ele>
    <time>2026-06-22T21:33:54Z</time>
   </trkpt>
   <trkpt lat="-3.1013350" lon="37.3784170">
    <ele>4630.2</ele>
    <time>2026-06-22T21:33:55Z</time>
   </trkpt>
   <trkpt lat="-3.1013350" lon="37.3784170">
    <ele>4630.2</ele>
    <time>2026-06-22T21:33:56Z</time>
   </trkpt>
   <trkpt lat="-3.1013340" lon="37.3784170">
    <ele>4630.2</ele>
    <time>2026-06-22T21:33:57Z</time>
   </trkpt>
   <trkpt lat="-3.1013340" lon="37.3784170">
    <ele>4630.2</ele>
    <time>2026-06-22T21:33:58Z</time>
   </trkpt>
   <trkpt lat="-3.1013340" lon="37.3784170">
    <ele>4630.2</ele>
    <time>2026-06-22T21:33:59Z</time>
   </trkpt>
   <trkpt lat="-3.1013340" lon="37.3784170">
    <ele>4630.2</ele>
    <time>2026-06-22T21:34:00Z</time>
   </trkpt>
   <trkpt lat="-3.1013330" lon="37.3784160">
    <ele>4630.2</ele>
    <time>2026-06-22T21:34:01Z</time>
   </trkpt>
   <trkpt lat="-3.1013330" lon="37.3784160">
    <ele>4630.2</ele>
    <time>2026-06-22T21:34:02Z</time>
   </trkpt>
   <trkpt lat="-3.1013330" lon="37.3784160">
    <ele>4630.2</ele>
    <time>2026-06-22T21:34:03Z</time>
   </trkpt>
   <trkpt lat="-3.1013330" lon="37.3784150">
    <ele>4630.2</ele>
    <time>2026-06-22T21:34:04Z</time>
   </trkpt>
   <trkpt lat="-3.1013330" lon="37.3784150">
    <ele>4630.2</ele>
    <time>2026-06-22T21:34:05Z</time>
   </trkpt>
   <trkpt lat="-3.1013330" lon="37.3784140">
    <ele>4630.3</ele>
    <time>2026-06-22T21:34:06Z</time>
   </trkpt>
   <trkpt lat="-3.1013340" lon="37.3784140">
    <ele>4630.3</ele>
    <time>2026-06-22T21:34:07Z</time>
   </trkpt>
   <trkpt lat="-3.1013340" lon="37.3784140">
    <ele>4630.3</ele>
    <time>2026-06-22T21:34:08Z</time>
   </trkpt>
   <trkpt lat="-3.1013330" lon="37.3784160">
    <ele>4630.3</ele>
    <time>2026-06-22T21:34:09Z</time>
   </trkpt>
   <trkpt lat="-3.1013330" lon="37.3784180">
    <ele>4630.3</ele>
    <time>2026-06-22T21:34:10Z</time>
   </trkpt>
   <trkpt lat="-3.1013350" lon="37.3784190">
    <ele>4630.3</ele>
    <time>2026-06-22T21:34:11Z</time>
   </trkpt>
   <trkpt lat="-3.1013340" lon="37.3784170">
    <ele>4630.4</ele>
    <time>2026-06-22T21:34:12Z</time>
   </trkpt>
   <trkpt lat="-3.1013350" lon="37.3784180">
    <ele>4630.4</ele>
    <time>2026-06-22T21:34:13Z</time>
   </trkpt>
   <trkpt lat="-3.1013370" lon="37.3784180">
    <ele>4630.4</ele>
    <time>2026-06-22T21:34:14Z</time>
   </trkpt>
   <trkpt lat="-3.1013370" lon="37.3784170">
    <ele>4630.4</ele>
    <time>2026-06-22T21:34:15Z</time>
   </trkpt>
   <trkpt lat="-3.1013360" lon="37.3784170">
    <ele>4630.4</ele>
    <time>2026-06-22T21:34:16Z</time>
   </trkpt>
   <trkpt lat="-3.1013360" lon="37.3784150">
    <ele>4630.4</ele>
    <time>2026-06-22T21:34:17Z</time>
   </trkpt>
   <trkpt lat="-3.1013370" lon="37.3784160">
    <ele>4630.4</ele>
    <time>2026-06-22T21:34:18Z</time>
   </trkpt>
   <trkpt lat="-3.1013380" lon="37.3784150">
    <ele>4630.5</ele>
    <time>2026-06-22T21:34:19Z</time>
   </trkpt>
   <trkpt lat="-3.1013380" lon="37.3784160">
    <ele>4630.5</ele>
    <time>2026-06-22T21:34:20Z</time>
   </trkpt>
   <trkpt lat="-3.1013390" lon="37.3784160">
    <ele>4630.5</ele>
    <time>2026-06-22T21:34:21Z</time>
   </trkpt>
   <trkpt lat="-3.1013390" lon="37.3784170">
    <ele>4630.5</ele>
    <time>2026-06-22T21:34:22Z</time>
   </trkpt>
   <trkpt lat="-3.1013350" lon="37.3784180">
    <ele>4630.5</ele>
    <time>2026-06-22T21:34:23Z</time>
   </trkpt>
   <trkpt lat="-3.1013380" lon="37.3784160">
    <ele>4630.6</ele>
    <time>2026-06-22T21:34:24Z</time>
   </trkpt>
   <trkpt lat="-3.1013390" lon="37.3784160">
    <ele>4630.6</ele>
    <time>2026-06-22T21:34:25Z</time>
   </trkpt>
   <trkpt lat="-3.1013390" lon="37.3784170">
    <ele>4630.6</ele>
    <time>2026-06-22T21:34:26Z</time>
   </trkpt>
   <trkpt lat="-3.1013400" lon="37.3784180">
    <ele>4630.6</ele>
    <time>2026-06-22T21:34:27Z</time>
   </trkpt>
   <trkpt lat="-3.1013390" lon="37.3784170">
    <ele>4630.6</ele>
    <time>2026-06-22T21:34:28Z</time>
   </trkpt>
   <trkpt lat="-3.1013390" lon="37.3784160">
    <ele>4630.6</ele>
    <time>2026-06-22T21:34:29Z</time>
   </trkpt>
   <trkpt lat="-3.1013390" lon="37.3784160">
    <ele>4630.6</ele>
    <time>2026-06-22T21:34:30Z</time>
   </trkpt>
   <trkpt lat="-3.1013400" lon="37.3784150">
    <ele>4630.7</ele>
    <time>2026-06-22T21:34:31Z</time>
   </trkpt>
   <trkpt lat="-3.1013400" lon="37.3784150">
    <ele>4630.7</ele>
    <time>2026-06-22T21:34:32Z</time>
   </trkpt>
   <trkpt lat="-3.1013400" lon="37.3784150">
    <ele>4630.7</ele>
    <time>2026-06-22T21:34:33Z</time>
   </trkpt>
   <trkpt lat="-3.1013410" lon="37.3784170">
    <ele>4630.7</ele>
    <time>2026-06-22T21:34:34Z</time>
   </trkpt>
   <trkpt lat="-3.1013410" lon="37.3784170">
    <ele>4630.7</ele>
    <time>2026-06-22T21:34:35Z</time>
   </trkpt>
   <trkpt lat="-3.1013400" lon="37.3784180">
    <ele>4630.7</ele>
    <time>2026-06-22T21:34:36Z</time>
   </trkpt>
   <trkpt lat="-3.1013390" lon="37.3784180">
    <ele>4630.7</ele>
    <time>2026-06-22T21:34:37Z</time>
   </trkpt>
   <trkpt lat="-3.1013390" lon="37.3784180">
    <ele>4630.7</ele>
    <time>2026-06-22T21:34:38Z</time>
   </trkpt>
   <trkpt lat="-3.1013420" lon="37.3784190">
    <ele>4630.7</ele>
    <time>2026-06-22T21:34:39Z</time>
   </trkpt>
   <trkpt lat="-3.1013420" lon="37.3784190">
    <ele>4630.7</ele>
    <time>2026-06-22T21:34:40Z</time>
   </trkpt>
   <trkpt lat="-3.1013420" lon="37.3784190">
    <ele>4630.7</ele>
    <time>2026-06-22T21:34:41Z</time>
   </trkpt>
   <trkpt lat="-3.1013420" lon="37.3784190">
    <ele>4630.7</ele>
    <time>2026-06-22T21:34:42Z</time>
   </trkpt>
   <trkpt lat="-3.1013420" lon="37.3784200">
    <ele>4630.7</ele>
    <time>2026-06-22T21:34:43Z</time>
   </trkpt>
   <trkpt lat="-3.1013410" lon="37.3784190">
    <ele>4630.8</ele>
    <time>2026-06-22T21:34:44Z</time>
   </trkpt>
   <trkpt lat="-3.1013410" lon="37.3784190">
    <ele>4630.8</ele>
    <time>2026-06-22T21:34:45Z</time>
   </trkpt>
   <trkpt lat="-3.1013420" lon="37.3784180">
    <ele>4630.8</ele>
    <time>2026-06-22T21:34:46Z</time>
   </trkpt>
   <trkpt lat="-3.1013410" lon="37.3784180">
    <ele>4630.8</ele>
    <time>2026-06-22T21:34:47Z</time>
   </trkpt>
   <trkpt lat="-3.1013410" lon="37.3784180">
    <ele>4630.8</ele>
    <time>2026-06-22T21:34:48Z</time>
   </trkpt>
   <trkpt lat="-3.1013410" lon="37.3784180">
    <ele>4630.8</ele>
    <time>2026-06-22T21:34:49Z</time>
   </trkpt>
   <trkpt lat="-3.1013420" lon="37.3784180">
    <ele>4630.8</ele>
    <time>2026-06-22T21:34:50Z</time>
   </trkpt>
   <trkpt lat="-3.1013410" lon="37.3784170">
    <ele>4630.8</ele>
    <time>2026-06-22T21:34:51Z</time>
   </trkpt>
   <trkpt lat="-3.1013410" lon="37.3784180">
    <ele>4630.8</ele>
    <time>2026-06-22T21:34:52Z</time>
   </trkpt>
   <trkpt lat="-3.1013420" lon="37.3784180">
    <ele>4630.8</ele>
    <time>2026-06-22T21:34:53Z</time>
   </trkpt>
   <trkpt lat="-3.1013430" lon="37.3784180">
    <ele>4630.8</ele>
    <time>2026-06-22T21:34:54Z</time>
   </trkpt>
   <trkpt lat="-3.1013440" lon="37.3784190">
    <ele>4630.9</ele>
    <time>2026-06-22T21:34:55Z</time>
   </trkpt>
   <trkpt lat="-3.1013440" lon="37.3784190">
    <ele>4630.9</ele>
    <time>2026-06-22T21:34:56Z</time>
   </trkpt>
   <trkpt lat="-3.1013440" lon="37.3784190">
    <ele>4630.9</ele>
    <time>2026-06-22T21:34:57Z</time>
   </trkpt>
   <trkpt lat="-3.1013450" lon="37.3784190">
    <ele>4630.9</ele>
    <time>2026-06-22T21:34:58Z</time>
   </trkpt>
   <trkpt lat="-3.1013450" lon="37.3784180">
    <ele>4630.9</ele>
    <time>2026-06-22T21:34:59Z</time>
   </trkpt>
   <trkpt lat="-3.1013450" lon="37.3784180">
    <ele>4630.9</ele>
    <time>2026-06-22T21:35:00Z</time>
   </trkpt>
   <trkpt lat="-3.1013460" lon="37.3784190">
    <ele>4630.9</ele>
    <time>2026-06-22T21:35:01Z</time>
   </trkpt>
   <trkpt lat="-3.1013460" lon="37.3784190">
    <ele>4630.9</ele>
    <time>2026-06-22T21:35:02Z</time>
   </trkpt>
   <trkpt lat="-3.1013460" lon="37.3784190">
    <ele>4630.9</ele>
    <time>2026-06-22T21:35:03Z</time>
   </trkpt>
   <trkpt lat="-3.1013460" lon="37.3784180">
    <ele>4630.9</ele>
    <time>2026-06-22T21:35:04Z</time>
   </trkpt>
   <trkpt lat="-3.1013470" lon="37.3784180">
    <ele>4630.9</ele>
    <time>2026-06-22T21:35:05Z</time>
   </trkpt>
   <trkpt lat="-3.1013470" lon="37.3784180">
    <ele>4630.9</ele>
    <time>2026-06-22T21:35:06Z</time>
   </trkpt>
   <trkpt lat="-3.1013470" lon="37.3784180">
    <ele>4630.9</ele>
    <time>2026-06-22T21:35:07Z</time>
   </trkpt>
   <trkpt lat="-3.1013480" lon="37.3784190">
    <ele>4630.9</ele>
    <time>2026-06-22T21:35:08Z</time>
   </trkpt>
   <trkpt lat="-3.1013480" lon="37.3784190">
    <ele>4630.9</ele>
    <time>2026-06-22T21:35:09Z</time>
   </trkpt>
   <trkpt lat="-3.1013490" lon="37.3784190">
    <ele>4630.9</ele>
    <time>2026-06-22T21:35:10Z</time>
   </trkpt>
   <trkpt lat="-3.1013480" lon="37.3784190">
    <ele>4630.9</ele>
    <time>2026-06-22T21:35:11Z</time>
   </trkpt>
   <trkpt lat="-3.1013470" lon="37.3784190">
    <ele>4631.0</ele>
    <time>2026-06-22T21:35:12Z</time>
   </trkpt>
   <trkpt lat="-3.1013460" lon="37.3784180">
    <ele>4631.0</ele>
    <time>2026-06-22T21:35:13Z</time>
   </trkpt>
   <trkpt lat="-3.1013470" lon="37.3784180">
    <ele>4631.0</ele>
    <time>2026-06-22T21:35:14Z</time>
   </trkpt>
   <trkpt lat="-3.1013480" lon="37.3784180">
    <ele>4631.0</ele>
    <time>2026-06-22T21:35:15Z</time>
   </trkpt>
   <trkpt lat="-3.1013470" lon="37.3784180">
    <ele>4631.0</ele>
    <time>2026-06-22T21:35:16Z</time>
   </trkpt>
   <trkpt lat="-3.1013480" lon="37.3784180">
    <ele>4631.0</ele>
    <time>2026-06-22T21:35:17Z</time>
   </trkpt>
   <trkpt lat="-3.1013480" lon="37.3784190">
    <ele>4631.0</ele>
    <time>2026-06-22T21:35:18Z</time>
   </trkpt>
   <trkpt lat="-3.1013470" lon="37.3784190">
    <ele>4631.0</ele>
    <time>2026-06-22T21:35:19Z</time>
   </trkpt>
   <trkpt lat="-3.1013460" lon="37.3784190">
    <ele>4631.0</ele>
    <time>2026-06-22T21:35:20Z</time>
   </trkpt>
   <trkpt lat="-3.1013450" lon="37.3784200">
    <ele>4631.1</ele>
    <time>2026-06-22T21:35:21Z</time>
   </trkpt>
   <trkpt lat="-3.1013460" lon="37.3784200">
    <ele>4631.1</ele>
    <time>2026-06-22T21:35:22Z</time>
   </trkpt>
   <trkpt lat="-3.1013440" lon="37.3784210">
    <ele>4631.1</ele>
    <time>2026-06-22T21:35:23Z</time>
   </trkpt>
   <trkpt lat="-3.1013440" lon="37.3784210">
    <ele>4631.1</ele>
    <time>2026-06-22T21:35:24Z</time>
   </trkpt>
   <trkpt lat="-3.1013440" lon="37.3784210">
    <ele>4631.1</ele>
    <time>2026-06-22T21:35:25Z</time>
   </trkpt>
   <trkpt lat="-3.1013440" lon="37.3784220">
    <ele>4631.1</ele>
    <time>2026-06-22T21:35:26Z</time>
   </trkpt>
   <trkpt lat="-3.1013440" lon="37.3784220">
    <ele>4631.1</ele>
    <time>2026-06-22T21:35:27Z</time>
   </trkpt>
   <trkpt lat="-3.1013440" lon="37.3784230">
    <ele>4631.1</ele>
    <time>2026-06-22T21:35:28Z</time>
   </trkpt>
   <trkpt lat="-3.1013430" lon="37.3784220">
    <ele>4631.1</ele>
    <time>2026-06-22T21:35:29Z</time>
   </trkpt>
   <trkpt lat="-3.1013440" lon="37.3784210">
    <ele>4631.1</ele>
    <time>2026-06-22T21:35:30Z</time>
   </trkpt>
   <trkpt lat="-3.1013440" lon="37.3784210">
    <ele>4631.1</ele>
    <time>2026-06-22T21:35:31Z</time>
   </trkpt>
   <trkpt lat="-3.1013450" lon="37.3784220">
    <ele>4631.2</ele>
    <time>2026-06-22T21:35:32Z</time>
   </trkpt>
   <trkpt lat="-3.1013450" lon="37.3784220">
    <ele>4631.2</ele>
    <time>2026-06-22T21:35:33Z</time>
   </trkpt>
   <trkpt lat="-3.1013450" lon="37.3784220">
    <ele>4631.2</ele>
    <time>2026-06-22T21:35:34Z</time>
   </trkpt>
   <trkpt lat="-3.1013450" lon="37.3784220">
    <ele>4631.2</ele>
    <time>2026-06-22T21:35:35Z</time>
   </trkpt>
   <trkpt lat="-3.1013450" lon="37.3784220">
    <ele>4631.2</ele>
    <time>2026-06-22T21:35:36Z</time>
   </trkpt>
   <trkpt lat="-3.1013450" lon="37.3784230">
    <ele>4631.2</ele>
    <time>2026-06-22T21:35:37Z</time>
   </trkpt>
   <trkpt lat="-3.1013440" lon="37.3784230">
    <ele>4631.2</ele>
    <time>2026-06-22T21:35:38Z</time>
   </trkpt>
   <trkpt lat="-3.1013440" lon="37.3784230">
    <ele>4631.2</ele>
    <time>2026-06-22T21:35:39Z</time>
   </trkpt>
   <trkpt lat="-3.1013450" lon="37.3784230">
    <ele>4631.2</ele>
    <time>2026-06-22T21:35:40Z</time>
   </trkpt>
   <trkpt lat="-3.1013450" lon="37.3784230">
    <ele>4631.2</ele>
    <time>2026-06-22T21:35:41Z</time>
   </trkpt>
   <trkpt lat="-3.1013450" lon="37.3784230">
    <ele>4631.2</ele>
    <time>2026-06-22T21:35:42Z</time>
   </trkpt>
   <trkpt lat="-3.1013450" lon="37.3784230">
    <ele>4631.2</ele>
    <time>2026-06-22T21:35:43Z</time>
   </trkpt>
   <trkpt lat="-3.1013440" lon="37.3784230">
    <ele>4631.2</ele>
    <time>2026-06-22T21:35:44Z</time>
   </trkpt>
   <trkpt lat="-3.1013450" lon="37.3784230">
    <ele>4631.2</ele>
    <time>2026-06-22T21:35:45Z</time>
   </trkpt>
   <trkpt lat="-3.1013450" lon="37.3784230">
    <ele>4631.2</ele>
    <time>2026-06-22T21:35:46Z</time>
   </trkpt>
   <trkpt lat="-3.1013450" lon="37.3784230">
    <ele>4631.2</ele>
    <time>2026-06-22T21:35:47Z</time>
   </trkpt>
   <trkpt lat="-3.1013450" lon="37.3784230">
    <ele>4631.2</ele>
    <time>2026-06-22T21:35:48Z</time>
   </trkpt>
   <trkpt lat="-3.1013450" lon="37.3784220">
    <ele>4631.2</ele>
    <time>2026-06-22T21:35:49Z</time>
   </trkpt>
   <trkpt lat="-3.1013450" lon="37.3784210">
    <ele>4631.2</ele>
    <time>2026-06-22T21:35:50Z</time>
   </trkpt>
   <trkpt lat="-3.1013460" lon="37.3784180">
    <ele>4631.3</ele>
    <time>2026-06-22T21:35:51Z</time>
   </trkpt>
   <trkpt lat="-3.1013430" lon="37.3784190">
    <ele>4631.3</ele>
    <time>2026-06-22T21:35:52Z</time>
   </trkpt>
   <trkpt lat="-3.1013470" lon="37.3784220">
    <ele>4631.4</ele>
    <time>2026-06-22T21:35:53Z</time>
   </trkpt>
   <trkpt lat="-3.1013460" lon="37.3784220">
    <ele>4631.4</ele>
    <time>2026-06-22T21:35:54Z</time>
   </trkpt>
   <trkpt lat="-3.1013450" lon="37.3784210">
    <ele>4631.4</ele>
    <time>2026-06-22T21:35:55Z</time>
   </trkpt>
   <trkpt lat="-3.1013450" lon="37.3784210">
    <ele>4631.4</ele>
    <time>2026-06-22T21:35:56Z</time>
   </trkpt>
   <trkpt lat="-3.1013450" lon="37.3784210">
    <ele>4631.4</ele>
    <time>2026-06-22T21:35:57Z</time>
   </trkpt>
   <trkpt lat="-3.1013450" lon="37.3784210">
    <ele>4631.4</ele>
    <time>2026-06-22T21:35:58Z</time>
   </trkpt>
   <trkpt lat="-3.1013460" lon="37.3784200">
    <ele>4631.4</ele>
    <time>2026-06-22T21:35:59Z</time>
   </trkpt>
   <trkpt lat="-3.1013440" lon="37.3784190">
    <ele>4631.4</ele>
    <time>2026-06-22T21:36:00Z</time>
   </trkpt>
   <trkpt lat="-3.1013440" lon="37.3784190">
    <ele>4631.4</ele>
    <time>2026-06-22T21:36:01Z</time>
   </trkpt>
   <trkpt lat="-3.1013440" lon="37.3784180">
    <ele>4631.4</ele>
    <time>2026-06-22T21:36:02Z</time>
   </trkpt>
   <trkpt lat="-3.1013450" lon="37.3784190">
    <ele>4631.4</ele>
    <time>2026-06-22T21:36:03Z</time>
   </trkpt>
   <trkpt lat="-3.1013460" lon="37.3784190">
    <ele>4631.5</ele>
    <time>2026-06-22T21:36:04Z</time>
   </trkpt>
   <trkpt lat="-3.1013450" lon="37.3784200">
    <ele>4631.5</ele>
    <time>2026-06-22T21:36:05Z</time>
   </trkpt>
   <trkpt lat="-3.1013450" lon="37.3784190">
    <ele>4631.5</ele>
    <time>2026-06-22T21:36:06Z</time>
   </trkpt>
   <trkpt lat="-3.1013440" lon="37.3784170">
    <ele>4631.5</ele>
    <time>2026-06-22T21:36:07Z</time>
   </trkpt>
   <trkpt lat="-3.1013460" lon="37.3784170">
    <ele>4631.5</ele>
    <time>2026-06-22T21:36:08Z</time>
   </trkpt>
   <trkpt lat="-3.1013440" lon="37.3784160">
    <ele>4631.5</ele>
    <time>2026-06-22T21:36:09Z</time>
   </trkpt>
   <trkpt lat="-3.1013450" lon="37.3784150">
    <ele>4631.6</ele>
    <time>2026-06-22T21:36:10Z</time>
   </trkpt>
   <trkpt lat="-3.1013420" lon="37.3784120">
    <ele>4631.6</ele>
    <time>2026-06-22T21:36:11Z</time>
   </trkpt>
   <trkpt lat="-3.1013430" lon="37.3784120">
    <ele>4631.6</ele>
    <time>2026-06-22T21:36:12Z</time>
   </trkpt>
   <trkpt lat="-3.1013430" lon="37.3784120">
    <ele>4631.6</ele>
    <time>2026-06-22T21:36:13Z</time>
   </trkpt>
   <trkpt lat="-3.1013410" lon="37.3784110">
    <ele>4631.6</ele>
    <time>2026-06-22T21:36:14Z</time>
   </trkpt>
   <trkpt lat="-3.1013400" lon="37.3784100">
    <ele>4631.6</ele>
    <time>2026-06-22T21:36:15Z</time>
   </trkpt>
   <trkpt lat="-3.1013400" lon="37.3784090">
    <ele>4631.7</ele>
    <time>2026-06-22T21:36:16Z</time>
   </trkpt>
   <trkpt lat="-3.1013400" lon="37.3784090">
    <ele>4631.7</ele>
    <time>2026-06-22T21:36:17Z</time>
   </trkpt>
   <trkpt lat="-3.1013390" lon="37.3784090">
    <ele>4631.7</ele>
    <time>2026-06-22T21:36:18Z</time>
   </trkpt>
   <trkpt lat="-3.1013380" lon="37.3784080">
    <ele>4631.7</ele>
    <time>2026-06-22T21:36:19Z</time>
   </trkpt>
   <trkpt lat="-3.1013310" lon="37.3784050">
    <ele>4631.8</ele>
    <time>2026-06-22T21:36:20Z</time>
   </trkpt>
   <trkpt lat="-3.1013260" lon="37.3784010">
    <ele>4631.8</ele>
    <time>2026-06-22T21:36:21Z</time>
   </trkpt>
   <trkpt lat="-3.1013220" lon="37.3784010">
    <ele>4631.9</ele>
    <time>2026-06-22T21:36:22Z</time>
   </trkpt>
   <trkpt lat="-3.1013180" lon="37.3783990">
    <ele>4631.9</ele>
    <time>2026-06-22T21:36:23Z</time>
   </trkpt>
   <trkpt lat="-3.1013150" lon="37.3783970">
    <ele>4632.0</ele>
    <time>2026-06-22T21:36:24Z</time>
   </trkpt>
   <trkpt lat="-3.1013090" lon="37.3783950">
    <ele>4632.0</ele>
    <time>2026-06-22T21:36:25Z</time>
   </trkpt>
   <trkpt lat="-3.1013060" lon="37.3783930">
    <ele>4632.1</ele>
    <time>2026-06-22T21:36:26Z</time>
   </trkpt>
   <trkpt lat="-3.1013040" lon="37.3783920">
    <ele>4632.1</ele>
    <time>2026-06-22T21:36:27Z</time>
   </trkpt>
   <trkpt lat="-3.1013000" lon="37.3783870">
    <ele>4632.1</ele>
    <time>2026-06-22T21:36:28Z</time>
   </trkpt>
   <trkpt lat="-3.1013000" lon="37.3783820">
    <ele>4632.2</ele>
    <time>2026-06-22T21:36:29Z</time>
   </trkpt>
   <trkpt lat="-3.1012970" lon="37.3783820">
    <ele>4632.2</ele>
    <time>2026-06-22T21:36:30Z</time>
   </trkpt>
   <trkpt lat="-3.1012970" lon="37.3783790">
    <ele>4632.3</ele>
    <time>2026-06-22T21:36:31Z</time>
   </trkpt>
   <trkpt lat="-3.1012970" lon="37.3783770">
    <ele>4632.3</ele>
    <time>2026-06-22T21:36:32Z</time>
   </trkpt>
   <trkpt lat="-3.1012940" lon="37.3783740">
    <ele>4632.3</ele>
    <time>2026-06-22T21:36:33Z</time>
   </trkpt>
   <trkpt lat="-3.1012920" lon="37.3783720">
    <ele>4632.4</ele>
    <time>2026-06-22T21:36:34Z</time>
   </trkpt>
   <trkpt lat="-3.1012880" lon="37.3783710">
    <ele>4632.4</ele>
    <time>2026-06-22T21:36:35Z</time>
   </trkpt>
   <trkpt lat="-3.1012870" lon="37.3783710">
    <ele>4632.4</ele>
    <time>2026-06-22T21:36:36Z</time>
   </trkpt>
   <trkpt lat="-3.1012820" lon="37.3783720">
    <ele>4632.5</ele>
    <time>2026-06-22T21:36:37Z</time>
   </trkpt>
   <trkpt lat="-3.1012780" lon="37.3783740">
    <ele>4632.5</ele>
    <time>2026-06-22T21:36:38Z</time>
   </trkpt>
   <trkpt lat="-3.1012730" lon="37.3783740">
    <ele>4632.6</ele>
    <time>2026-06-22T21:36:39Z</time>
   </trkpt>
   <trkpt lat="-3.1012700" lon="37.3783750">
    <ele>4632.6</ele>
    <time>2026-06-22T21:36:40Z</time>
   </trkpt>
   <trkpt lat="-3.1012690" lon="37.3783770">
    <ele>4632.6</ele>
    <time>2026-06-22T21:36:41Z</time>
   </trkpt>
   <trkpt lat="-3.1012640" lon="37.3783800">
    <ele>4632.7</ele>
    <time>2026-06-22T21:36:42Z</time>
   </trkpt>
   <trkpt lat="-3.1012630" lon="37.3783850">
    <ele>4632.7</ele>
    <time>2026-06-22T21:36:43Z</time>
   </trkpt>
   <trkpt lat="-3.1012590" lon="37.3783850">
    <ele>4632.8</ele>
    <time>2026-06-22T21:36:44Z</time>
   </trkpt>
   <trkpt lat="-3.1012590" lon="37.3783890">
    <ele>4632.8</ele>
    <time>2026-06-22T21:36:45Z</time>
   </trkpt>
   <trkpt lat="-3.1012540" lon="37.3783900">
    <ele>4632.9</ele>
    <time>2026-06-22T21:36:46Z</time>
   </trkpt>
   <trkpt lat="-3.1012530" lon="37.3783930">
    <ele>4632.9</ele>
    <time>2026-06-22T21:36:47Z</time>
   </trkpt>
   <trkpt lat="-3.1012520" lon="37.3783940">
    <ele>4632.9</ele>
    <time>2026-06-22T21:36:48Z</time>
   </trkpt>
   <trkpt lat="-3.1012500" lon="37.3783960">
    <ele>4632.9</ele>
    <time>2026-06-22T21:36:49Z</time>
   </trkpt>
   <trkpt lat="-3.1012490" lon="37.3783970">
    <ele>4633.0</ele>
    <time>2026-06-22T21:36:50Z</time>
   </trkpt>
   <trkpt lat="-3.1012470" lon="37.3784000">
    <ele>4633.0</ele>
    <time>2026-06-22T21:36:51Z</time>
   </trkpt>
   <trkpt lat="-3.1012450" lon="37.3784010">
    <ele>4633.0</ele>
    <time>2026-06-22T21:36:52Z</time>
   </trkpt>
   <trkpt lat="-3.1012420" lon="37.3784030">
    <ele>4633.1</ele>
    <time>2026-06-22T21:36:53Z</time>
   </trkpt>
   <trkpt lat="-3.1012410" lon="37.3784030">
    <ele>4633.1</ele>
    <time>2026-06-22T21:36:54Z</time>
   </trkpt>
   <trkpt lat="-3.1012380" lon="37.3784040">
    <ele>4633.1</ele>
    <time>2026-06-22T21:36:55Z</time>
   </trkpt>
   <trkpt lat="-3.1012370" lon="37.3784030">
    <ele>4633.1</ele>
    <time>2026-06-22T21:36:56Z</time>
   </trkpt>
   <trkpt lat="-3.1012350" lon="37.3784030">
    <ele>4633.1</ele>
    <time>2026-06-22T21:36:57Z</time>
   </trkpt>
   <trkpt lat="-3.1012330" lon="37.3784000">
    <ele>4633.2</ele>
    <time>2026-06-22T21:36:58Z</time>
   </trkpt>
   <trkpt lat="-3.1012300" lon="37.3783990">
    <ele>4633.2</ele>
    <time>2026-06-22T21:36:59Z</time>
   </trkpt>
   <trkpt lat="-3.1012280" lon="37.3783960">
    <ele>4633.2</ele>
    <time>2026-06-22T21:37:00Z</time>
   </trkpt>
   <trkpt lat="-3.1012290" lon="37.3783950">
    <ele>4633.3</ele>
    <time>2026-06-22T21:37:01Z</time>
   </trkpt>
   <trkpt lat="-3.1012290" lon="37.3783920">
    <ele>4633.3</ele>
    <time>2026-06-22T21:37:02Z</time>
   </trkpt>
   <trkpt lat="-3.1012300" lon="37.3783900">
    <ele>4633.3</ele>
    <time>2026-06-22T21:37:03Z</time>
   </trkpt>
   <trkpt lat="-3.1012300" lon="37.3783890">
    <ele>4633.3</ele>
    <time>2026-06-22T21:37:04Z</time>
   </trkpt>
   <trkpt lat="-3.1012270" lon="37.3783850">
    <ele>4633.4</ele>
    <time>2026-06-22T21:37:05Z</time>
   </trkpt>
   <trkpt lat="-3.1012260" lon="37.3783820">
    <ele>4633.4</ele>
    <time>2026-06-22T21:37:06Z</time>
   </trkpt>
   <trkpt lat="-3.1012280" lon="37.3783820">
    <ele>4633.4</ele>
    <time>2026-06-22T21:37:07Z</time>
   </trkpt>
   <trkpt lat="-3.1012290" lon="37.3783830">
    <ele>4633.4</ele>
    <time>2026-06-22T21:37:08Z</time>
   </trkpt>
   <trkpt lat="-3.1012260" lon="37.3783800">
    <ele>4633.5</ele>
    <time>2026-06-22T21:37:09Z</time>
   </trkpt>
   <trkpt lat="-3.1012250" lon="37.3783800">
    <ele>4633.5</ele>
    <time>2026-06-22T21:37:10Z</time>
   </trkpt>
   <trkpt lat="-3.1012270" lon="37.3783780">
    <ele>4633.5</ele>
    <time>2026-06-22T21:37:11Z</time>
   </trkpt>
   <trkpt lat="-3.1012250" lon="37.3783750">
    <ele>4633.6</ele>
    <time>2026-06-22T21:37:12Z</time>
   </trkpt>
   <trkpt lat="-3.1012230" lon="37.3783720">
    <ele>4633.6</ele>
    <time>2026-06-22T21:37:13Z</time>
   </trkpt>
   <trkpt lat="-3.1012210" lon="37.3783690">
    <ele>4633.6</ele>
    <time>2026-06-22T21:37:14Z</time>
   </trkpt>
   <trkpt lat="-3.1012200" lon="37.3783680">
    <ele>4633.6</ele>
    <time>2026-06-22T21:37:15Z</time>
   </trkpt>
   <trkpt lat="-3.1012210" lon="37.3783670">
    <ele>4633.7</ele>
    <time>2026-06-22T21:37:16Z</time>
   </trkpt>
   <trkpt lat="-3.1012180" lon="37.3783660">
    <ele>4633.7</ele>
    <time>2026-06-22T21:37:17Z</time>
   </trkpt>
   <trkpt lat="-3.1012150" lon="37.3783650">
    <ele>4633.7</ele>
    <time>2026-06-22T21:37:18Z</time>
   </trkpt>
   <trkpt lat="-3.1012120" lon="37.3783650">
    <ele>4633.8</ele>
    <time>2026-06-22T21:37:19Z</time>
   </trkpt>
   <trkpt lat="-3.1012070" lon="37.3783660">
    <ele>4633.8</ele>
    <time>2026-06-22T21:37:20Z</time>
   </trkpt>
   <trkpt lat="-3.1012070" lon="37.3783680">
    <ele>4633.8</ele>
    <time>2026-06-22T21:37:21Z</time>
   </trkpt>
   <trkpt lat="-3.1012070" lon="37.3783710">
    <ele>4633.9</ele>
    <time>2026-06-22T21:37:22Z</time>
   </trkpt>
   <trkpt lat="-3.1012060" lon="37.3783720">
    <ele>4633.9</ele>
    <time>2026-06-22T21:37:23Z</time>
   </trkpt>
   <trkpt lat="-3.1012060" lon="37.3783730">
    <ele>4633.9</ele>
    <time>2026-06-22T21:37:24Z</time>
   </trkpt>
   <trkpt lat="-3.1012050" lon="37.3783740">
    <ele>4633.9</ele>
    <time>2026-06-22T21:37:25Z</time>
   </trkpt>
   <trkpt lat="-3.1012050" lon="37.3783750">
    <ele>4633.9</ele>
    <time>2026-06-22T21:37:26Z</time>
   </trkpt>
   <trkpt lat="-3.1012020" lon="37.3783770">
    <ele>4633.9</ele>
    <time>2026-06-22T21:37:27Z</time>
   </trkpt>
   <trkpt lat="-3.1012000" lon="37.3783780">
    <ele>4634.0</ele>
    <time>2026-06-22T21:37:28Z</time>
   </trkpt>
   <trkpt lat="-3.1011990" lon="37.3783780">
    <ele>4634.0</ele>
    <time>2026-06-22T21:37:29Z</time>
   </trkpt>
   <trkpt lat="-3.1011980" lon="37.3783780">
    <ele>4634.0</ele>
    <time>2026-06-22T21:37:30Z</time>
   </trkpt>
   <trkpt lat="-3.1011950" lon="37.3783780">
    <ele>4634.0</ele>
    <time>2026-06-22T21:37:31Z</time>
   </trkpt>
   <trkpt lat="-3.1011940" lon="37.3783800">
    <ele>4634.0</ele>
    <time>2026-06-22T21:37:32Z</time>
   </trkpt>
   <trkpt lat="-3.1011880" lon="37.3783790">
    <ele>4634.1</ele>
    <time>2026-06-22T21:37:33Z</time>
   </trkpt>
   <trkpt lat="-3.1011870" lon="37.3783790">
    <ele>4634.1</ele>
    <time>2026-06-22T21:37:34Z</time>
   </trkpt>
   <trkpt lat="-3.1011840" lon="37.3783800">
    <ele>4634.2</ele>
    <time>2026-06-22T21:37:35Z</time>
   </trkpt>
   <trkpt lat="-3.1011800" lon="37.3783810">
    <ele>4634.2</ele>
    <time>2026-06-22T21:37:36Z</time>
   </trkpt>
   <trkpt lat="-3.1011780" lon="37.3783840">
    <ele>4634.2</ele>
    <time>2026-06-22T21:37:37Z</time>
   </trkpt>
   <trkpt lat="-3.1011730" lon="37.3783850">
    <ele>4634.3</ele>
    <time>2026-06-22T21:37:38Z</time>
   </trkpt>
   <trkpt lat="-3.1011720" lon="37.3783860">
    <ele>4634.3</ele>
    <time>2026-06-22T21:37:39Z</time>
   </trkpt>
   <trkpt lat="-3.1011680" lon="37.3783860">
    <ele>4634.3</ele>
    <time>2026-06-22T21:37:40Z</time>
   </trkpt>
   <trkpt lat="-3.1011650" lon="37.3783840">
    <ele>4634.4</ele>
    <time>2026-06-22T21:37:41Z</time>
   </trkpt>
   <trkpt lat="-3.1011620" lon="37.3783830">
    <ele>4634.4</ele>
    <time>2026-06-22T21:37:42Z</time>
   </trkpt>
   <trkpt lat="-3.1011580" lon="37.3783840">
    <ele>4634.5</ele>
    <time>2026-06-22T21:37:43Z</time>
   </trkpt>
   <trkpt lat="-3.1011510" lon="37.3783850">
    <ele>4634.5</ele>
    <time>2026-06-22T21:37:44Z</time>
   </trkpt>
   <trkpt lat="-3.1011490" lon="37.3783880">
    <ele>4634.6</ele>
    <time>2026-06-22T21:37:45Z</time>
   </trkpt>
   <trkpt lat="-3.1011450" lon="37.3783880">
    <ele>4634.6</ele>
    <time>2026-06-22T21:37:46Z</time>
   </trkpt>
   <trkpt lat="-3.1011410" lon="37.3783890">
    <ele>4634.6</ele>
    <time>2026-06-22T21:37:47Z</time>
   </trkpt>
   <trkpt lat="-3.1011370" lon="37.3783900">
    <ele>4634.7</ele>
    <time>2026-06-22T21:37:48Z</time>
   </trkpt>
   <trkpt lat="-3.1011330" lon="37.3783910">
    <ele>4634.7</ele>
    <time>2026-06-22T21:37:49Z</time>
   </trkpt>
   <trkpt lat="-3.1011310" lon="37.3783920">
    <ele>4634.8</ele>
    <time>2026-06-22T21:37:50Z</time>
   </trkpt>
   <trkpt lat="-3.1011280" lon="37.3783940">
    <ele>4634.8</ele>
    <time>2026-06-22T21:37:51Z</time>
   </trkpt>
   <trkpt lat="-3.1011240" lon="37.3783950">
    <ele>4634.8</ele>
    <time>2026-06-22T21:37:52Z</time>
   </trkpt>
   <trkpt lat="-3.1011210" lon="37.3783960">
    <ele>4634.9</ele>
    <time>2026-06-22T21:37:53Z</time>
   </trkpt>
   <trkpt lat="-3.1011180" lon="37.3783970">
    <ele>4634.9</ele>
    <time>2026-06-22T21:37:54Z</time>
   </trkpt>
   <trkpt lat="-3.1011150" lon="37.3783970">
    <ele>4634.9</ele>
    <time>2026-06-22T21:37:55Z</time>
   </trkpt>
   <trkpt lat="-3.1011110" lon="37.3783980">
    <ele>4635.0</ele>
    <time>2026-06-22T21:37:56Z</time>
   </trkpt>
   <trkpt lat="-3.1011100" lon="37.3783990">
    <ele>4635.0</ele>
    <time>2026-06-22T21:37:57Z</time>
   </trkpt>
   <trkpt lat="-3.1011070" lon="37.3783990">
    <ele>4635.0</ele>
    <time>2026-06-22T21:37:58Z</time>
   </trkpt>
   <trkpt lat="-3.1011020" lon="37.3783990">
    <ele>4635.1</ele>
    <time>2026-06-22T21:37:59Z</time>
   </trkpt>
   <trkpt lat="-3.1011010" lon="37.3784000">
    <ele>4635.1</ele>
    <time>2026-06-22T21:38:00Z</time>
   </trkpt>
   <trkpt lat="-3.1010980" lon="37.3784030">
    <ele>4635.1</ele>
    <time>2026-06-22T21:38:01Z</time>
   </trkpt>
   <trkpt lat="-3.1010970" lon="37.3784000">
    <ele>4635.2</ele>
    <time>2026-06-22T21:38:02Z</time>
   </trkpt>
   <trkpt lat="-3.1010970" lon="37.3784010">
    <ele>4635.2</ele>
    <time>2026-06-22T21:38:03Z</time>
   </trkpt>
   <trkpt lat="-3.1010990" lon="37.3784000">
    <ele>4635.2</ele>
    <time>2026-06-22T21:38:04Z</time>
   </trkpt>
   <trkpt lat="-3.1010970" lon="37.3784020">
    <ele>4635.2</ele>
    <time>2026-06-22T21:38:05Z</time>
   </trkpt>
   <trkpt lat="-3.1010950" lon="37.3784030">
    <ele>4635.3</ele>
    <time>2026-06-22T21:38:06Z</time>
   </trkpt>
   <trkpt lat="-3.1010890" lon="37.3784050">
    <ele>4635.3</ele>
    <time>2026-06-22T21:38:07Z</time>
   </trkpt>
   <trkpt lat="-3.1010850" lon="37.3784100">
    <ele>4635.4</ele>
    <time>2026-06-22T21:38:08Z</time>
   </trkpt>
   <trkpt lat="-3.1010850" lon="37.3784130">
    <ele>4635.4</ele>
    <time>2026-06-22T21:38:09Z</time>
   </trkpt>
   <trkpt lat="-3.1010840" lon="37.3784140">
    <ele>4635.4</ele>
    <time>2026-06-22T21:38:10Z</time>
   </trkpt>
   <trkpt lat="-3.1010830" lon="37.3784140">
    <ele>4635.4</ele>
    <time>2026-06-22T21:38:11Z</time>
   </trkpt>
   <trkpt lat="-3.1010810" lon="37.3784170">
    <ele>4635.5</ele>
    <time>2026-06-22T21:38:12Z</time>
   </trkpt>
   <trkpt lat="-3.1010770" lon="37.3784140">
    <ele>4635.5</ele>
    <time>2026-06-22T21:38:13Z</time>
   </trkpt>
   <trkpt lat="-3.1010730" lon="37.3784210">
    <ele>4635.6</ele>
    <time>2026-06-22T21:38:14Z</time>
   </trkpt>
   <trkpt lat="-3.1010710" lon="37.3784210">
    <ele>4635.6</ele>
    <time>2026-06-22T21:38:15Z</time>
   </trkpt>
   <trkpt lat="-3.1010730" lon="37.3784220">
    <ele>4635.7</ele>
    <time>2026-06-22T21:38:16Z</time>
   </trkpt>
   <trkpt lat="-3.1010690" lon="37.3784250">
    <ele>4635.7</ele>
    <time>2026-06-22T21:38:17Z</time>
   </trkpt>
   <trkpt lat="-3.1010660" lon="37.3784260">
    <ele>4635.7</ele>
    <time>2026-06-22T21:38:18Z</time>
   </trkpt>
   <trkpt lat="-3.1010640" lon="37.3784260">
    <ele>4635.8</ele>
    <time>2026-06-22T21:38:19Z</time>
   </trkpt>
   <trkpt lat="-3.1010630" lon="37.3784280">
    <ele>4635.8</ele>
    <time>2026-06-22T21:38:20Z</time>
   </trkpt>
   <trkpt lat="-3.1010630" lon="37.3784260">
    <ele>4635.8</ele>
    <time>2026-06-22T21:38:21Z</time>
   </trkpt>
   <trkpt lat="-3.1010620" lon="37.3784290">
    <ele>4635.8</ele>
    <time>2026-06-22T21:38:22Z</time>
   </trkpt>
   <trkpt lat="-3.1010570" lon="37.3784310">
    <ele>4635.9</ele>
    <time>2026-06-22T21:38:23Z</time>
   </trkpt>
   <trkpt lat="-3.1010530" lon="37.3784340">
    <ele>4635.9</ele>
    <time>2026-06-22T21:38:24Z</time>
   </trkpt>
   <trkpt lat="-3.1010530" lon="37.3784370">
    <ele>4636.0</ele>
    <time>2026-06-22T21:38:25Z</time>
   </trkpt>
   <trkpt lat="-3.1010490" lon="37.3784400">
    <ele>4636.0</ele>
    <time>2026-06-22T21:38:26Z</time>
   </trkpt>
   <trkpt lat="-3.1010490" lon="37.3784420">
    <ele>4636.0</ele>
    <time>2026-06-22T21:38:27Z</time>
   </trkpt>
   <trkpt lat="-3.1010470" lon="37.3784450">
    <ele>4636.1</ele>
    <time>2026-06-22T21:38:28Z</time>
   </trkpt>
   <trkpt lat="-3.1010450" lon="37.3784480">
    <ele>4636.1</ele>
    <time>2026-06-22T21:38:29Z</time>
   </trkpt>
   <trkpt lat="-3.1010460" lon="37.3784500">
    <ele>4636.1</ele>
    <time>2026-06-22T21:38:30Z</time>
   </trkpt>
   <trkpt lat="-3.1010460" lon="37.3784520">
    <ele>4636.2</ele>
    <time>2026-06-22T21:38:31Z</time>
   </trkpt>
   <trkpt lat="-3.1010450" lon="37.3784570">
    <ele>4636.2</ele>
    <time>2026-06-22T21:38:32Z</time>
   </trkpt>
   <trkpt lat="-3.1010440" lon="37.3784600">
    <ele>4636.3</ele>
    <time>2026-06-22T21:38:33Z</time>
   </trkpt>
   <trkpt lat="-3.1010470" lon="37.3784600">
    <ele>4636.3</ele>
    <time>2026-06-22T21:38:34Z</time>
   </trkpt>
   <trkpt lat="-3.1010430" lon="37.3784660">
    <ele>4636.4</ele>
    <time>2026-06-22T21:38:35Z</time>
   </trkpt>
   <trkpt lat="-3.1010460" lon="37.3784630">
    <ele>4636.4</ele>
    <time>2026-06-22T21:38:36Z</time>
   </trkpt>
   <trkpt lat="-3.1010460" lon="37.3784650">
    <ele>4636.4</ele>
    <time>2026-06-22T21:38:37Z</time>
   </trkpt>
   <trkpt lat="-3.1010470" lon="37.3784650">
    <ele>4636.4</ele>
    <time>2026-06-22T21:38:38Z</time>
   </trkpt>
   <trkpt lat="-3.1010470" lon="37.3784650">
    <ele>4636.4</ele>
    <time>2026-06-22T21:38:39Z</time>
   </trkpt>
   <trkpt lat="-3.1010460" lon="37.3784670">
    <ele>4636.5</ele>
    <time>2026-06-22T21:38:40Z</time>
   </trkpt>
   <trkpt lat="-3.1010470" lon="37.3784680">
    <ele>4636.5</ele>
    <time>2026-06-22T21:38:41Z</time>
   </trkpt>
   <trkpt lat="-3.1010480" lon="37.3784690">
    <ele>4636.5</ele>
    <time>2026-06-22T21:38:42Z</time>
   </trkpt>
   <trkpt lat="-3.1010490" lon="37.3784710">
    <ele>4636.5</ele>
    <time>2026-06-22T21:38:43Z</time>
   </trkpt>
   <trkpt lat="-3.1010490" lon="37.3784700">
    <ele>4636.5</ele>
    <time>2026-06-22T21:38:44Z</time>
   </trkpt>
   <trkpt lat="-3.1010510" lon="37.3784730">
    <ele>4636.6</ele>
    <time>2026-06-22T21:38:45Z</time>
   </trkpt>
   <trkpt lat="-3.1010500" lon="37.3784780">
    <ele>4636.6</ele>
    <time>2026-06-22T21:38:46Z</time>
   </trkpt>
   <trkpt lat="-3.1010510" lon="37.3784780">
    <ele>4636.6</ele>
    <time>2026-06-22T21:38:47Z</time>
   </trkpt>
   <trkpt lat="-3.1010490" lon="37.3784820">
    <ele>4636.7</ele>
    <time>2026-06-22T21:38:48Z</time>
   </trkpt>
   <trkpt lat="-3.1010470" lon="37.3784830">
    <ele>4636.7</ele>
    <time>2026-06-22T21:38:49Z</time>
   </trkpt>
   <trkpt lat="-3.1010420" lon="37.3784860">
    <ele>4636.7</ele>
    <time>2026-06-22T21:38:50Z</time>
   </trkpt>
   <trkpt lat="-3.1010470" lon="37.3784860">
    <ele>4636.8</ele>
    <time>2026-06-22T21:38:51Z</time>
   </trkpt>
   <trkpt lat="-3.1010470" lon="37.3784890">
    <ele>4636.8</ele>
    <time>2026-06-22T21:38:52Z</time>
   </trkpt>
   <trkpt lat="-3.1010480" lon="37.3784890">
    <ele>4636.8</ele>
    <time>2026-06-22T21:38:53Z</time>
   </trkpt>
   <trkpt lat="-3.1010460" lon="37.3784930">
    <ele>4636.9</ele>
    <time>2026-06-22T21:38:54Z</time>
   </trkpt>
   <trkpt lat="-3.1010440" lon="37.3784950">
    <ele>4636.9</ele>
    <time>2026-06-22T21:38:55Z</time>
   </trkpt>
   <trkpt lat="-3.1010400" lon="37.3784950">
    <ele>4637.0</ele>
    <time>2026-06-22T21:38:56Z</time>
   </trkpt>
   <trkpt lat="-3.1010260" lon="37.3785040">
    <ele>4637.2</ele>
    <time>2026-06-22T21:38:57Z</time>
   </trkpt>
   <trkpt lat="-3.1010370" lon="37.3785020">
    <ele>4637.3</ele>
    <time>2026-06-22T21:38:58Z</time>
   </trkpt>
   <trkpt lat="-3.1010340" lon="37.3785040">
    <ele>4637.3</ele>
    <time>2026-06-22T21:38:59Z</time>
   </trkpt>
   <trkpt lat="-3.1010350" lon="37.3785020">
    <ele>4637.3</ele>
    <time>2026-06-22T21:39:00Z</time>
   </trkpt>
   <trkpt lat="-3.1010290" lon="37.3785050">
    <ele>4637.4</ele>
    <time>2026-06-22T21:39:01Z</time>
   </trkpt>
   <trkpt lat="-3.1010290" lon="37.3785080">
    <ele>4637.4</ele>
    <time>2026-06-22T21:39:02Z</time>
   </trkpt>
   <trkpt lat="-3.1010280" lon="37.3785090">
    <ele>4637.5</ele>
    <time>2026-06-22T21:39:03Z</time>
   </trkpt>
   <trkpt lat="-3.1010280" lon="37.3785090">
    <ele>4637.5</ele>
    <time>2026-06-22T21:39:04Z</time>
   </trkpt>
   <trkpt lat="-3.1010240" lon="37.3785110">
    <ele>4637.5</ele>
    <time>2026-06-22T21:39:05Z</time>
   </trkpt>
   <trkpt lat="-3.1010210" lon="37.3785110">
    <ele>4637.5</ele>
    <time>2026-06-22T21:39:06Z</time>
   </trkpt>
   <trkpt lat="-3.1010190" lon="37.3785120">
    <ele>4637.6</ele>
    <time>2026-06-22T21:39:07Z</time>
   </trkpt>
   <trkpt lat="-3.1010150" lon="37.3785110">
    <ele>4637.6</ele>
    <time>2026-06-22T21:39:08Z</time>
   </trkpt>
   <trkpt lat="-3.1010140" lon="37.3785160">
    <ele>4637.7</ele>
    <time>2026-06-22T21:39:09Z</time>
   </trkpt>
   <trkpt lat="-3.1010130" lon="37.3785180">
    <ele>4637.7</ele>
    <time>2026-06-22T21:39:10Z</time>
   </trkpt>
   <trkpt lat="-3.1010100" lon="37.3785200">
    <ele>4637.7</ele>
    <time>2026-06-22T21:39:11Z</time>
   </trkpt>
   <trkpt lat="-3.1010100" lon="37.3785220">
    <ele>4637.7</ele>
    <time>2026-06-22T21:39:12Z</time>
   </trkpt>
   <trkpt lat="-3.1010090" lon="37.3785220">
    <ele>4637.8</ele>
    <time>2026-06-22T21:39:13Z</time>
   </trkpt>
   <trkpt lat="-3.1010050" lon="37.3785250">
    <ele>4637.8</ele>
    <time>2026-06-22T21:39:14Z</time>
   </trkpt>
   <trkpt lat="-3.1010070" lon="37.3785240">
    <ele>4637.8</ele>
    <time>2026-06-22T21:39:15Z</time>
   </trkpt>
   <trkpt lat="-3.1010040" lon="37.3785260">
    <ele>4637.9</ele>
    <time>2026-06-22T21:39:16Z</time>
   </trkpt>
   <trkpt lat="-3.1010000" lon="37.3785270">
    <ele>4637.9</ele>
    <time>2026-06-22T21:39:17Z</time>
   </trkpt>
   <trkpt lat="-3.1009980" lon="37.3785290">
    <ele>4638.0</ele>
    <time>2026-06-22T21:39:18Z</time>
   </trkpt>
   <trkpt lat="-3.1009940" lon="37.3785310">
    <ele>4638.0</ele>
    <time>2026-06-22T21:39:19Z</time>
   </trkpt>
   <trkpt lat="-3.1009920" lon="37.3785330">
    <ele>4638.0</ele>
    <time>2026-06-22T21:39:20Z</time>
   </trkpt>
   <trkpt lat="-3.1009880" lon="37.3785310">
    <ele>4638.1</ele>
    <time>2026-06-22T21:39:21Z</time>
   </trkpt>
   <trkpt lat="-3.1009850" lon="37.3785300">
    <ele>4638.1</ele>
    <time>2026-06-22T21:39:22Z</time>
   </trkpt>
   <trkpt lat="-3.1009790" lon="37.3785280">
    <ele>4638.2</ele>
    <time>2026-06-22T21:39:23Z</time>
   </trkpt>
   <trkpt lat="-3.1009740" lon="37.3785290">
    <ele>4638.2</ele>
    <time>2026-06-22T21:39:24Z</time>
   </trkpt>
   <trkpt lat="-3.1009690" lon="37.3785320">
    <ele>4638.3</ele>
    <time>2026-06-22T21:39:25Z</time>
   </trkpt>
   <trkpt lat="-3.1009680" lon="37.3785310">
    <ele>4638.3</ele>
    <time>2026-06-22T21:39:26Z</time>
   </trkpt>
   <trkpt lat="-3.1009650" lon="37.3785330">
    <ele>4638.4</ele>
    <time>2026-06-22T21:39:27Z</time>
   </trkpt>
   <trkpt lat="-3.1009620" lon="37.3785340">
    <ele>4638.4</ele>
    <time>2026-06-22T21:39:28Z</time>
   </trkpt>
   <trkpt lat="-3.1009610" lon="37.3785330">
    <ele>4638.4</ele>
    <time>2026-06-22T21:39:29Z</time>
   </trkpt>
   <trkpt lat="-3.1009590" lon="37.3785310">
    <ele>4638.4</ele>
    <time>2026-06-22T21:39:30Z</time>
   </trkpt>
   <trkpt lat="-3.1009570" lon="37.3785310">
    <ele>4638.5</ele>
    <time>2026-06-22T21:39:31Z</time>
   </trkpt>
   <trkpt lat="-3.1009510" lon="37.3785320">
    <ele>4638.5</ele>
    <time>2026-06-22T21:39:32Z</time>
   </trkpt>
   <trkpt lat="-3.1009480" lon="37.3785310">
    <ele>4638.6</ele>
    <time>2026-06-22T21:39:33Z</time>
   </trkpt>
   <trkpt lat="-3.1009480" lon="37.3785300">
    <ele>4638.6</ele>
    <time>2026-06-22T21:39:34Z</time>
   </trkpt>
   <trkpt lat="-3.1009440" lon="37.3785300">
    <ele>4638.6</ele>
    <time>2026-06-22T21:39:35Z</time>
   </trkpt>
   <trkpt lat="-3.1009410" lon="37.3785290">
    <ele>4638.6</ele>
    <time>2026-06-22T21:39:36Z</time>
   </trkpt>
   <trkpt lat="-3.1009410" lon="37.3785300">
    <ele>4638.7</ele>
    <time>2026-06-22T21:39:37Z</time>
   </trkpt>
   <trkpt lat="-3.1009370" lon="37.3785270">
    <ele>4638.7</ele>
    <time>2026-06-22T21:39:38Z</time>
   </trkpt>
   <trkpt lat="-3.1009360" lon="37.3785250">
    <ele>4638.7</ele>
    <time>2026-06-22T21:39:39Z</time>
   </trkpt>
   <trkpt lat="-3.1009360" lon="37.3785240">
    <ele>4638.7</ele>
    <time>2026-06-22T21:39:40Z</time>
   </trkpt>
   <trkpt lat="-3.1009330" lon="37.3785200">
    <ele>4638.8</ele>
    <time>2026-06-22T21:39:41Z</time>
   </trkpt>
   <trkpt lat="-3.1009310" lon="37.3785170">
    <ele>4638.8</ele>
    <time>2026-06-22T21:39:42Z</time>
   </trkpt>
   <trkpt lat="-3.1009290" lon="37.3785130">
    <ele>4638.9</ele>
    <time>2026-06-22T21:39:43Z</time>
   </trkpt>
   <trkpt lat="-3.1009280" lon="37.3785090">
    <ele>4638.9</ele>
    <time>2026-06-22T21:39:44Z</time>
   </trkpt>
   <trkpt lat="-3.1009270" lon="37.3785060">
    <ele>4639.0</ele>
    <time>2026-06-22T21:39:45Z</time>
   </trkpt>
   <trkpt lat="-3.1009250" lon="37.3785030">
    <ele>4639.0</ele>
    <time>2026-06-22T21:39:46Z</time>
   </trkpt>
   <trkpt lat="-3.1009240" lon="37.3785000">
    <ele>4639.0</ele>
    <time>2026-06-22T21:39:47Z</time>
   </trkpt>
   <trkpt lat="-3.1009100" lon="37.3785010">
    <ele>4639.2</ele>
    <time>2026-06-22T21:39:48Z</time>
   </trkpt>
   <trkpt lat="-3.1009170" lon="37.3784960">
    <ele>4639.3</ele>
    <time>2026-06-22T21:39:49Z</time>
   </trkpt>
   <trkpt lat="-3.1009160" lon="37.3784940">
    <ele>4639.3</ele>
    <time>2026-06-22T21:39:50Z</time>
   </trkpt>
   <trkpt lat="-3.1009100" lon="37.3784930">
    <ele>4639.4</ele>
    <time>2026-06-22T21:39:51Z</time>
   </trkpt>
   <trkpt lat="-3.1009110" lon="37.3784910">
    <ele>4639.4</ele>
    <time>2026-06-22T21:39:52Z</time>
   </trkpt>
   <trkpt lat="-3.1009060" lon="37.3784880">
    <ele>4639.5</ele>
    <time>2026-06-22T21:39:53Z</time>
   </trkpt>
   <trkpt lat="-3.1009040" lon="37.3784870">
    <ele>4639.5</ele>
    <time>2026-06-22T21:39:54Z</time>
   </trkpt>
   <trkpt lat="-3.1009000" lon="37.3784840">
    <ele>4639.5</ele>
    <time>2026-06-22T21:39:55Z</time>
   </trkpt>
   <trkpt lat="-3.1008970" lon="37.3784840">
    <ele>4639.6</ele>
    <time>2026-06-22T21:39:56Z</time>
   </trkpt>
   <trkpt lat="-3.1008950" lon="37.3784830">
    <ele>4639.6</ele>
    <time>2026-06-22T21:39:57Z</time>
   </trkpt>
   <trkpt lat="-3.1008940" lon="37.3784810">
    <ele>4639.6</ele>
    <time>2026-06-22T21:39:58Z</time>
   </trkpt>
   <trkpt lat="-3.1008940" lon="37.3784800">
    <ele>4639.7</ele>
    <time>2026-06-22T21:39:59Z</time>
   </trkpt>
   <trkpt lat="-3.1008900" lon="37.3784780">
    <ele>4639.7</ele>
    <time>2026-06-22T21:40:00Z</time>
   </trkpt>
   <trkpt lat="-3.1008880" lon="37.3784770">
    <ele>4639.8</ele>
    <time>2026-06-22T21:40:01Z</time>
   </trkpt>
   <trkpt lat="-3.1008800" lon="37.3784720">
    <ele>4640.0</ele>
    <time>2026-06-22T21:40:02Z</time>
   </trkpt>
   <trkpt lat="-3.1008810" lon="37.3784720">
    <ele>4640.0</ele>
    <time>2026-06-22T21:40:03Z</time>
   </trkpt>
   <trkpt lat="-3.1008750" lon="37.3784700">
    <ele>4640.1</ele>
    <time>2026-06-22T21:40:04Z</time>
   </trkpt>
   <trkpt lat="-3.1008730" lon="37.3784690">
    <ele>4640.1</ele>
    <time>2026-06-22T21:40:05Z</time>
   </trkpt>
   <trkpt lat="-3.1008690" lon="37.3784670">
    <ele>4640.2</ele>
    <time>2026-06-22T21:40:06Z</time>
   </trkpt>
   <trkpt lat="-3.1008680" lon="37.3784680">
    <ele>4640.2</ele>
    <time>2026-06-22T21:40:07Z</time>
   </trkpt>
   <trkpt lat="-3.1008650" lon="37.3784670">
    <ele>4640.3</ele>
    <time>2026-06-22T21:40:08Z</time>
   </trkpt>
   <trkpt lat="-3.1008610" lon="37.3784660">
    <ele>4640.4</ele>
    <time>2026-06-22T21:40:09Z</time>
   </trkpt>
   <trkpt lat="-3.1008610" lon="37.3784670">
    <ele>4640.4</ele>
    <time>2026-06-22T21:40:10Z</time>
   </trkpt>
   <trkpt lat="-3.1008560" lon="37.3784660">
    <ele>4640.5</ele>
    <time>2026-06-22T21:40:11Z</time>
   </trkpt>
   <trkpt lat="-3.1008530" lon="37.3784680">
    <ele>4640.6</ele>
    <time>2026-06-22T21:40:12Z</time>
   </trkpt>
   <trkpt lat="-3.1008390" lon="37.3784590">
    <ele>4640.8</ele>
    <time>2026-06-22T21:40:13Z</time>
   </trkpt>
   <trkpt lat="-3.1008380" lon="37.3784590">
    <ele>4640.9</ele>
    <time>2026-06-22T21:40:14Z</time>
   </trkpt>
   <trkpt lat="-3.1008390" lon="37.3784690">
    <ele>4641.0</ele>
    <time>2026-06-22T21:40:15Z</time>
   </trkpt>
   <trkpt lat="-3.1008370" lon="37.3784650">
    <ele>4641.1</ele>
    <time>2026-06-22T21:40:16Z</time>
   </trkpt>
   <trkpt lat="-3.1008320" lon="37.3784650">
    <ele>4641.2</ele>
    <time>2026-06-22T21:40:17Z</time>
   </trkpt>
   <trkpt lat="-3.1008310" lon="37.3784620">
    <ele>4641.3</ele>
    <time>2026-06-22T21:40:18Z</time>
   </trkpt>
   <trkpt lat="-3.1008300" lon="37.3784590">
    <ele>4641.3</ele>
    <time>2026-06-22T21:40:19Z</time>
   </trkpt>
   <trkpt lat="-3.1008300" lon="37.3784550">
    <ele>4641.4</ele>
    <time>2026-06-22T21:40:20Z</time>
   </trkpt>
   <trkpt lat="-3.1008280" lon="37.3784520">
    <ele>4641.4</ele>
    <time>2026-06-22T21:40:21Z</time>
   </trkpt>
   <trkpt lat="-3.1008280" lon="37.3784520">
    <ele>4641.4</ele>
    <time>2026-06-22T21:40:22Z</time>
   </trkpt>
   <trkpt lat="-3.1008260" lon="37.3784490">
    <ele>4641.5</ele>
    <time>2026-06-22T21:40:23Z</time>
   </trkpt>
   <trkpt lat="-3.1008210" lon="37.3784480">
    <ele>4641.6</ele>
    <time>2026-06-22T21:40:24Z</time>
   </trkpt>
   <trkpt lat="-3.1008200" lon="37.3784500">
    <ele>4641.6</ele>
    <time>2026-06-22T21:40:25Z</time>
   </trkpt>
   <trkpt lat="-3.1008180" lon="37.3784520">
    <ele>4641.7</ele>
    <time>2026-06-22T21:40:26Z</time>
   </trkpt>
   <trkpt lat="-3.1008150" lon="37.3784540">
    <ele>4641.7</ele>
    <time>2026-06-22T21:40:27Z</time>
   </trkpt>
   <trkpt lat="-3.1008120" lon="37.3784550">
    <ele>4641.8</ele>
    <time>2026-06-22T21:40:28Z</time>
   </trkpt>
   <trkpt lat="-3.1008100" lon="37.3784580">
    <ele>4641.8</ele>
    <time>2026-06-22T21:40:29Z</time>
   </trkpt>
   <trkpt lat="-3.1008090" lon="37.3784590">
    <ele>4641.9</ele>
    <time>2026-06-22T21:40:30Z</time>
   </trkpt>
   <trkpt lat="-3.1008030" lon="37.3784610">
    <ele>4642.0</ele>
    <time>2026-06-22T21:40:31Z</time>
   </trkpt>
   <trkpt lat="-3.1007990" lon="37.3784620">
    <ele>4642.0</ele>
    <time>2026-06-22T21:40:32Z</time>
   </trkpt>
   <trkpt lat="-3.1007950" lon="37.3784610">
    <ele>4642.1</ele>
    <time>2026-06-22T21:40:33Z</time>
   </trkpt>
   <trkpt lat="-3.1007960" lon="37.3784620">
    <ele>4642.1</ele>
    <time>2026-06-22T21:40:34Z</time>
   </trkpt>
   <trkpt lat="-3.1007930" lon="37.3784620">
    <ele>4642.2</ele>
    <time>2026-06-22T21:40:35Z</time>
   </trkpt>
   <trkpt lat="-3.1007910" lon="37.3784630">
    <ele>4642.2</ele>
    <time>2026-06-22T21:40:36Z</time>
   </trkpt>
   <trkpt lat="-3.1007870" lon="37.3784660">
    <ele>4642.3</ele>
    <time>2026-06-22T21:40:37Z</time>
   </trkpt>
   <trkpt lat="-3.1007850" lon="37.3784680">
    <ele>4642.3</ele>
    <time>2026-06-22T21:40:38Z</time>
   </trkpt>
   <trkpt lat="-3.1007810" lon="37.3784700">
    <ele>4642.4</ele>
    <time>2026-06-22T21:40:39Z</time>
   </trkpt>
   <trkpt lat="-3.1007780" lon="37.3784720">
    <ele>4642.5</ele>
    <time>2026-06-22T21:40:40Z</time>
   </trkpt>
   <trkpt lat="-3.1007720" lon="37.3784750">
    <ele>4642.6</ele>
    <time>2026-06-22T21:40:41Z</time>
   </trkpt>
   <trkpt lat="-3.1007660" lon="37.3784750">
    <ele>4642.6</ele>
    <time>2026-06-22T21:40:42Z</time>
   </trkpt>
   <trkpt lat="-3.1007640" lon="37.3784750">
    <ele>4642.7</ele>
    <time>2026-06-22T21:40:43Z</time>
   </trkpt>
   <trkpt lat="-3.1007620" lon="37.3784730">
    <ele>4642.7</ele>
    <time>2026-06-22T21:40:44Z</time>
   </trkpt>
   <trkpt lat="-3.1007590" lon="37.3784720">
    <ele>4642.8</ele>
    <time>2026-06-22T21:40:45Z</time>
   </trkpt>
   <trkpt lat="-3.1007560" lon="37.3784690">
    <ele>4642.8</ele>
    <time>2026-06-22T21:40:46Z</time>
   </trkpt>
   <trkpt lat="-3.1007540" lon="37.3784680">
    <ele>4642.9</ele>
    <time>2026-06-22T21:40:47Z</time>
   </trkpt>
   <trkpt lat="-3.1007500" lon="37.3784660">
    <ele>4642.9</ele>
    <time>2026-06-22T21:40:48Z</time>
   </trkpt>
   <trkpt lat="-3.1007490" lon="37.3784630">
    <ele>4643.0</ele>
    <time>2026-06-22T21:40:49Z</time>
   </trkpt>
   <trkpt lat="-3.1007450" lon="37.3784590">
    <ele>4643.1</ele>
    <time>2026-06-22T21:40:50Z</time>
   </trkpt>
   <trkpt lat="-3.1007440" lon="37.3784550">
    <ele>4643.1</ele>
    <time>2026-06-22T21:40:51Z</time>
   </trkpt>
   <trkpt lat="-3.1007410" lon="37.3784520">
    <ele>4643.2</ele>
    <time>2026-06-22T21:40:52Z</time>
   </trkpt>
   <trkpt lat="-3.1007380" lon="37.3784480">
    <ele>4643.2</ele>
    <time>2026-06-22T21:40:53Z</time>
   </trkpt>
   <trkpt lat="-3.1007370" lon="37.3784440">
    <ele>4643.3</ele>
    <time>2026-06-22T21:40:54Z</time>
   </trkpt>
   <trkpt lat="-3.1007360" lon="37.3784410">
    <ele>4643.3</ele>
    <time>2026-06-22T21:40:55Z</time>
   </trkpt>
   <trkpt lat="-3.1007350" lon="37.3784380">
    <ele>4643.4</ele>
    <time>2026-06-22T21:40:56Z</time>
   </trkpt>
   <trkpt lat="-3.1007350" lon="37.3784350">
    <ele>4643.4</ele>
    <time>2026-06-22T21:40:57Z</time>
   </trkpt>
   <trkpt lat="-3.1007330" lon="37.3784310">
    <ele>4643.5</ele>
    <time>2026-06-22T21:40:58Z</time>
   </trkpt>
   <trkpt lat="-3.1007320" lon="37.3784290">
    <ele>4643.5</ele>
    <time>2026-06-22T21:40:59Z</time>
   </trkpt>
   <trkpt lat="-3.1007310" lon="37.3784260">
    <ele>4643.6</ele>
    <time>2026-06-22T21:41:00Z</time>
   </trkpt>
   <trkpt lat="-3.1007280" lon="37.3784240">
    <ele>4643.6</ele>
    <time>2026-06-22T21:41:01Z</time>
   </trkpt>
   <trkpt lat="-3.1007250" lon="37.3784210">
    <ele>4643.7</ele>
    <time>2026-06-22T21:41:02Z</time>
   </trkpt>
   <trkpt lat="-3.1007230" lon="37.3784180">
    <ele>4643.7</ele>
    <time>2026-06-22T21:41:03Z</time>
   </trkpt>
   <trkpt lat="-3.1007230" lon="37.3784130">
    <ele>4643.8</ele>
    <time>2026-06-22T21:41:04Z</time>
   </trkpt>
   <trkpt lat="-3.1007210" lon="37.3784070">
    <ele>4643.9</ele>
    <time>2026-06-22T21:41:05Z</time>
   </trkpt>
   <trkpt lat="-3.1007170" lon="37.3784010">
    <ele>4644.0</ele>
    <time>2026-06-22T21:41:06Z</time>
   </trkpt>
   <trkpt lat="-3.1007130" lon="37.3783980">
    <ele>4644.1</ele>
    <time>2026-06-22T21:41:07Z</time>
   </trkpt>
   <trkpt lat="-3.1007090" lon="37.3783940">
    <ele>4644.1</ele>
    <time>2026-06-22T21:41:08Z</time>
   </trkpt>
   <trkpt lat="-3.1007060" lon="37.3783920">
    <ele>4644.2</ele>
    <time>2026-06-22T21:41:09Z</time>
   </trkpt>
   <trkpt lat="-3.1007010" lon="37.3783880">
    <ele>4644.3</ele>
    <time>2026-06-22T21:41:10Z</time>
   </trkpt>
   <trkpt lat="-3.1006980" lon="37.3783860">
    <ele>4644.3</ele>
    <time>2026-06-22T21:41:11Z</time>
   </trkpt>
   <trkpt lat="-3.1006960" lon="37.3783840">
    <ele>4644.3</ele>
    <time>2026-06-22T21:41:12Z</time>
   </trkpt>
   <trkpt lat="-3.1006940" lon="37.3783830">
    <ele>4644.4</ele>
    <time>2026-06-22T21:41:13Z</time>
   </trkpt>
   <trkpt lat="-3.1006920" lon="37.3783810">
    <ele>4644.4</ele>
    <time>2026-06-22T21:41:14Z</time>
   </trkpt>
   <trkpt lat="-3.1006850" lon="37.3783760">
    <ele>4644.5</ele>
    <time>2026-06-22T21:41:15Z</time>
   </trkpt>
   <trkpt lat="-3.1006830" lon="37.3783740">
    <ele>4644.6</ele>
    <time>2026-06-22T21:41:16Z</time>
   </trkpt>
   <trkpt lat="-3.1006800" lon="37.3783720">
    <ele>4644.6</ele>
    <time>2026-06-22T21:41:17Z</time>
   </trkpt>
   <trkpt lat="-3.1006760" lon="37.3783660">
    <ele>4644.7</ele>
    <time>2026-06-22T21:41:18Z</time>
   </trkpt>
   <trkpt lat="-3.1006750" lon="37.3783680">
    <ele>4644.7</ele>
    <time>2026-06-22T21:41:19Z</time>
   </trkpt>
   <trkpt lat="-3.1006700" lon="37.3783660">
    <ele>4644.8</ele>
    <time>2026-06-22T21:41:20Z</time>
   </trkpt>
   <trkpt lat="-3.1006660" lon="37.3783670">
    <ele>4644.8</ele>
    <time>2026-06-22T21:41:21Z</time>
   </trkpt>
   <trkpt lat="-3.1006610" lon="37.3783700">
    <ele>4644.9</ele>
    <time>2026-06-22T21:41:22Z</time>
   </trkpt>
   <trkpt lat="-3.1006590" lon="37.3783710">
    <ele>4645.0</ele>
    <time>2026-06-22T21:41:23Z</time>
   </trkpt>
   <trkpt lat="-3.1006530" lon="37.3783710">
    <ele>4645.0</ele>
    <time>2026-06-22T21:41:24Z</time>
   </trkpt>
   <trkpt lat="-3.1006520" lon="37.3783720">
    <ele>4645.1</ele>
    <time>2026-06-22T21:41:25Z</time>
   </trkpt>
   <trkpt lat="-3.1006480" lon="37.3783700">
    <ele>4645.1</ele>
    <time>2026-06-22T21:41:26Z</time>
   </trkpt>
   <trkpt lat="-3.1006470" lon="37.3783690">
    <ele>4645.1</ele>
    <time>2026-06-22T21:41:27Z</time>
   </trkpt>
   <trkpt lat="-3.1006440" lon="37.3783670">
    <ele>4645.2</ele>
    <time>2026-06-22T21:41:28Z</time>
   </trkpt>
   <trkpt lat="-3.1006440" lon="37.3783640">
    <ele>4645.2</ele>
    <time>2026-06-22T21:41:29Z</time>
   </trkpt>
   <trkpt lat="-3.1006390" lon="37.3783570">
    <ele>4645.3</ele>
    <time>2026-06-22T21:41:30Z</time>
   </trkpt>
   <trkpt lat="-3.1006380" lon="37.3783560">
    <ele>4645.3</ele>
    <time>2026-06-22T21:41:31Z</time>
   </trkpt>
   <trkpt lat="-3.1006350" lon="37.3783540">
    <ele>4645.4</ele>
    <time>2026-06-22T21:41:32Z</time>
   </trkpt>
   <trkpt lat="-3.1006330" lon="37.3783510">
    <ele>4645.4</ele>
    <time>2026-06-22T21:41:33Z</time>
   </trkpt>
   <trkpt lat="-3.1006310" lon="37.3783470">
    <ele>4645.5</ele>
    <time>2026-06-22T21:41:34Z</time>
   </trkpt>
   <trkpt lat="-3.1006300" lon="37.3783460">
    <ele>4645.5</ele>
    <time>2026-06-22T21:41:35Z</time>
   </trkpt>
   <trkpt lat="-3.1006300" lon="37.3783420">
    <ele>4645.5</ele>
    <time>2026-06-22T21:41:36Z</time>
   </trkpt>
   <trkpt lat="-3.1006290" lon="37.3783390">
    <ele>4645.6</ele>
    <time>2026-06-22T21:41:37Z</time>
   </trkpt>
   <trkpt lat="-3.1006300" lon="37.3783370">
    <ele>4645.6</ele>
    <time>2026-06-22T21:41:38Z</time>
   </trkpt>
   <trkpt lat="-3.1006290" lon="37.3783350">
    <ele>4645.6</ele>
    <time>2026-06-22T21:41:39Z</time>
   </trkpt>
   <trkpt lat="-3.1006270" lon="37.3783320">
    <ele>4645.7</ele>
    <time>2026-06-22T21:41:40Z</time>
   </trkpt>
   <trkpt lat="-3.1006240" lon="37.3783290">
    <ele>4645.7</ele>
    <time>2026-06-22T21:41:41Z</time>
   </trkpt>
   <trkpt lat="-3.1006210" lon="37.3783320">
    <ele>4645.8</ele>
    <time>2026-06-22T21:41:42Z</time>
   </trkpt>
   <trkpt lat="-3.1006140" lon="37.3783320">
    <ele>4645.9</ele>
    <time>2026-06-22T21:41:43Z</time>
   </trkpt>
   <trkpt lat="-3.1006090" lon="37.3783360">
    <ele>4645.9</ele>
    <time>2026-06-22T21:41:44Z</time>
   </trkpt>
   <trkpt lat="-3.1006050" lon="37.3783380">
    <ele>4646.0</ele>
    <time>2026-06-22T21:41:45Z</time>
   </trkpt>
   <trkpt lat="-3.1005990" lon="37.3783370">
    <ele>4646.0</ele>
    <time>2026-06-22T21:41:46Z</time>
   </trkpt>
   <trkpt lat="-3.1005960" lon="37.3783370">
    <ele>4646.1</ele>
    <time>2026-06-22T21:41:47Z</time>
   </trkpt>
   <trkpt lat="-3.1005930" lon="37.3783350">
    <ele>4646.1</ele>
    <time>2026-06-22T21:41:48Z</time>
   </trkpt>
   <trkpt lat="-3.1005910" lon="37.3783360">
    <ele>4646.1</ele>
    <time>2026-06-22T21:41:49Z</time>
   </trkpt>
   <trkpt lat="-3.1005890" lon="37.3783330">
    <ele>4646.2</ele>
    <time>2026-06-22T21:41:50Z</time>
   </trkpt>
   <trkpt lat="-3.1005860" lon="37.3783310">
    <ele>4646.2</ele>
    <time>2026-06-22T21:41:51Z</time>
   </trkpt>
   <trkpt lat="-3.1005850" lon="37.3783290">
    <ele>4646.2</ele>
    <time>2026-06-22T21:41:52Z</time>
   </trkpt>
   <trkpt lat="-3.1005800" lon="37.3783270">
    <ele>4646.3</ele>
    <time>2026-06-22T21:41:53Z</time>
   </trkpt>
   <trkpt lat="-3.1005750" lon="37.3783230">
    <ele>4646.4</ele>
    <time>2026-06-22T21:41:54Z</time>
   </trkpt>
   <trkpt lat="-3.1005750" lon="37.3783230">
    <ele>4646.4</ele>
    <time>2026-06-22T21:41:55Z</time>
   </trkpt>
   <trkpt lat="-3.1005700" lon="37.3783190">
    <ele>4646.4</ele>
    <time>2026-06-22T21:41:56Z</time>
   </trkpt>
   <trkpt lat="-3.1005680" lon="37.3783150">
    <ele>4646.5</ele>
    <time>2026-06-22T21:41:57Z</time>
   </trkpt>
   <trkpt lat="-3.1005660" lon="37.3783130">
    <ele>4646.5</ele>
    <time>2026-06-22T21:41:58Z</time>
   </trkpt>
   <trkpt lat="-3.1005640" lon="37.3783090">
    <ele>4646.5</ele>
    <time>2026-06-22T21:41:59Z</time>
   </trkpt>
   <trkpt lat="-3.1005600" lon="37.3783080">
    <ele>4646.6</ele>
    <time>2026-06-22T21:42:00Z</time>
   </trkpt>
   <trkpt lat="-3.1005580" lon="37.3783060">
    <ele>4646.6</ele>
    <time>2026-06-22T21:42:01Z</time>
   </trkpt>
   <trkpt lat="-3.1005540" lon="37.3783040">
    <ele>4646.6</ele>
    <time>2026-06-22T21:42:02Z</time>
   </trkpt>
   <trkpt lat="-3.1005500" lon="37.3783000">
    <ele>4646.7</ele>
    <time>2026-06-22T21:42:03Z</time>
   </trkpt>
   <trkpt lat="-3.1005510" lon="37.3783000">
    <ele>4646.7</ele>
    <time>2026-06-22T21:42:04Z</time>
   </trkpt>
   <trkpt lat="-3.1005460" lon="37.3782980">
    <ele>4646.7</ele>
    <time>2026-06-22T21:42:05Z</time>
   </trkpt>
   <trkpt lat="-3.1005410" lon="37.3782950">
    <ele>4646.8</ele>
    <time>2026-06-22T21:42:06Z</time>
   </trkpt>
   <trkpt lat="-3.1005370" lon="37.3782930">
    <ele>4646.8</ele>
    <time>2026-06-22T21:42:07Z</time>
   </trkpt>
   <trkpt lat="-3.1005310" lon="37.3782930">
    <ele>4646.9</ele>
    <time>2026-06-22T21:42:08Z</time>
   </trkpt>
   <trkpt lat="-3.1005250" lon="37.3782930">
    <ele>4646.9</ele>
    <time>2026-06-22T21:42:09Z</time>
   </trkpt>
   <trkpt lat="-3.1005250" lon="37.3782940">
    <ele>4647.0</ele>
    <time>2026-06-22T21:42:10Z</time>
   </trkpt>
   <trkpt lat="-3.1005170" lon="37.3782940">
    <ele>4647.0</ele>
    <time>2026-06-22T21:42:11Z</time>
   </trkpt>
   <trkpt lat="-3.1005160" lon="37.3782940">
    <ele>4647.0</ele>
    <time>2026-06-22T21:42:12Z</time>
   </trkpt>
   <trkpt lat="-3.1005120" lon="37.3782920">
    <ele>4647.1</ele>
    <time>2026-06-22T21:42:13Z</time>
   </trkpt>
   <trkpt lat="-3.1005080" lon="37.3782910">
    <ele>4647.1</ele>
    <time>2026-06-22T21:42:14Z</time>
   </trkpt>
   <trkpt lat="-3.1005020" lon="37.3782900">
    <ele>4647.2</ele>
    <time>2026-06-22T21:42:15Z</time>
   </trkpt>
   <trkpt lat="-3.1005000" lon="37.3782910">
    <ele>4647.2</ele>
    <time>2026-06-22T21:42:16Z</time>
   </trkpt>
   <trkpt lat="-3.1004950" lon="37.3782950">
    <ele>4647.2</ele>
    <time>2026-06-22T21:42:17Z</time>
   </trkpt>
   <trkpt lat="-3.1004930" lon="37.3782960">
    <ele>4647.3</ele>
    <time>2026-06-22T21:42:18Z</time>
   </trkpt>
   <trkpt lat="-3.1004880" lon="37.3782930">
    <ele>4647.3</ele>
    <time>2026-06-22T21:42:19Z</time>
   </trkpt>
   <trkpt lat="-3.1004820" lon="37.3782910">
    <ele>4647.4</ele>
    <time>2026-06-22T21:42:20Z</time>
   </trkpt>
   <trkpt lat="-3.1004820" lon="37.3782870">
    <ele>4647.4</ele>
    <time>2026-06-22T21:42:21Z</time>
   </trkpt>
   <trkpt lat="-3.1004820" lon="37.3782880">
    <ele>4647.4</ele>
    <time>2026-06-22T21:42:22Z</time>
   </trkpt>
   <trkpt lat="-3.1004740" lon="37.3782850">
    <ele>4647.5</ele>
    <time>2026-06-22T21:42:23Z</time>
   </trkpt>
   <trkpt lat="-3.1004730" lon="37.3782910">
    <ele>4647.5</ele>
    <time>2026-06-22T21:42:24Z</time>
   </trkpt>
   <trkpt lat="-3.1004710" lon="37.3782930">
    <ele>4647.6</ele>
    <time>2026-06-22T21:42:25Z</time>
   </trkpt>
   <trkpt lat="-3.1004680" lon="37.3782930">
    <ele>4647.6</ele>
    <time>2026-06-22T21:42:26Z</time>
   </trkpt>
   <trkpt lat="-3.1004630" lon="37.3782960">
    <ele>4647.6</ele>
    <time>2026-06-22T21:42:27Z</time>
   </trkpt>
   <trkpt lat="-3.1004570" lon="37.3782980">
    <ele>4647.7</ele>
    <time>2026-06-22T21:42:28Z</time>
   </trkpt>
   <trkpt lat="-3.1004530" lon="37.3783000">
    <ele>4647.7</ele>
    <time>2026-06-22T21:42:29Z</time>
   </trkpt>
   <trkpt lat="-3.1004490" lon="37.3783000">
    <ele>4647.8</ele>
    <time>2026-06-22T21:42:30Z</time>
   </trkpt>
   <trkpt lat="-3.1004440" lon="37.3782980">
    <ele>4647.8</ele>
    <time>2026-06-22T21:42:31Z</time>
   </trkpt>
   <trkpt lat="-3.1004420" lon="37.3782960">
    <ele>4647.8</ele>
    <time>2026-06-22T21:42:32Z</time>
   </trkpt>
   <trkpt lat="-3.1004390" lon="37.3782920">
    <ele>4647.9</ele>
    <time>2026-06-22T21:42:33Z</time>
   </trkpt>
   <trkpt lat="-3.1004360" lon="37.3782900">
    <ele>4647.9</ele>
    <time>2026-06-22T21:42:34Z</time>
   </trkpt>
   <trkpt lat="-3.1004330" lon="37.3782900">
    <ele>4647.9</ele>
    <time>2026-06-22T21:42:35Z</time>
   </trkpt>
   <trkpt lat="-3.1004270" lon="37.3782900">
    <ele>4648.0</ele>
    <time>2026-06-22T21:42:36Z</time>
   </trkpt>
   <trkpt lat="-3.1004210" lon="37.3782910">
    <ele>4648.0</ele>
    <time>2026-06-22T21:42:37Z</time>
   </trkpt>
   <trkpt lat="-3.1004120" lon="37.3782900">
    <ele>4648.1</ele>
    <time>2026-06-22T21:42:38Z</time>
   </trkpt>
   <trkpt lat="-3.1004060" lon="37.3782900">
    <ele>4648.2</ele>
    <time>2026-06-22T21:42:39Z</time>
   </trkpt>
   <trkpt lat="-3.1004000" lon="37.3782890">
    <ele>4648.2</ele>
    <time>2026-06-22T21:42:40Z</time>
   </trkpt>
   <trkpt lat="-3.1003950" lon="37.3782910">
    <ele>4648.3</ele>
    <time>2026-06-22T21:42:41Z</time>
   </trkpt>
   <trkpt lat="-3.1003910" lon="37.3782910">
    <ele>4648.3</ele>
    <time>2026-06-22T21:42:42Z</time>
   </trkpt>
   <trkpt lat="-3.1003860" lon="37.3782910">
    <ele>4648.4</ele>
    <time>2026-06-22T21:42:43Z</time>
   </trkpt>
   <trkpt lat="-3.1003780" lon="37.3782890">
    <ele>4648.5</ele>
    <time>2026-06-22T21:42:44Z</time>
   </trkpt>
   <trkpt lat="-3.1003740" lon="37.3782910">
    <ele>4648.5</ele>
    <time>2026-06-22T21:42:45Z</time>
   </trkpt>
   <trkpt lat="-3.1003680" lon="37.3782890">
    <ele>4648.6</ele>
    <time>2026-06-22T21:42:46Z</time>
   </trkpt>
   <trkpt lat="-3.1003620" lon="37.3782900">
    <ele>4648.7</ele>
    <time>2026-06-22T21:42:47Z</time>
   </trkpt>
   <trkpt lat="-3.1003570" lon="37.3782930">
    <ele>4648.7</ele>
    <time>2026-06-22T21:42:48Z</time>
   </trkpt>
   <trkpt lat="-3.1003520" lon="37.3782920">
    <ele>4648.8</ele>
    <time>2026-06-22T21:42:49Z</time>
   </trkpt>
   <trkpt lat="-3.1003480" lon="37.3782910">
    <ele>4648.8</ele>
    <time>2026-06-22T21:42:50Z</time>
   </trkpt>
   <trkpt lat="-3.1003430" lon="37.3782910">
    <ele>4648.9</ele>
    <time>2026-06-22T21:42:51Z</time>
   </trkpt>
   <trkpt lat="-3.1003410" lon="37.3782940">
    <ele>4648.9</ele>
    <time>2026-06-22T21:42:52Z</time>
   </trkpt>
   <trkpt lat="-3.1003340" lon="37.3782940">
    <ele>4649.0</ele>
    <time>2026-06-22T21:42:53Z</time>
   </trkpt>
   <trkpt lat="-3.1003300" lon="37.3782950">
    <ele>4649.1</ele>
    <time>2026-06-22T21:42:54Z</time>
   </trkpt>
   <trkpt lat="-3.1003260" lon="37.3782970">
    <ele>4649.1</ele>
    <time>2026-06-22T21:42:55Z</time>
   </trkpt>
   <trkpt lat="-3.1003230" lon="37.3782990">
    <ele>4649.2</ele>
    <time>2026-06-22T21:42:56Z</time>
   </trkpt>
   <trkpt lat="-3.1003150" lon="37.3782980">
    <ele>4649.3</ele>
    <time>2026-06-22T21:42:57Z</time>
   </trkpt>
   <trkpt lat="-3.1003100" lon="37.3782960">
    <ele>4649.3</ele>
    <time>2026-06-22T21:42:58Z</time>
   </trkpt>
   <trkpt lat="-3.1003050" lon="37.3782930">
    <ele>4649.4</ele>
    <time>2026-06-22T21:42:59Z</time>
   </trkpt>
   <trkpt lat="-3.1003010" lon="37.3782930">
    <ele>4649.5</ele>
    <time>2026-06-22T21:43:00Z</time>
   </trkpt>
   <trkpt lat="-3.1002960" lon="37.3782930">
    <ele>4649.5</ele>
    <time>2026-06-22T21:43:01Z</time>
   </trkpt>
   <trkpt lat="-3.1002910" lon="37.3782930">
    <ele>4649.6</ele>
    <time>2026-06-22T21:43:02Z</time>
   </trkpt>
   <trkpt lat="-3.1002880" lon="37.3782920">
    <ele>4649.6</ele>
    <time>2026-06-22T21:43:03Z</time>
   </trkpt>
   <trkpt lat="-3.1002850" lon="37.3782920">
    <ele>4649.7</ele>
    <time>2026-06-22T21:43:04Z</time>
   </trkpt>
   <trkpt lat="-3.1002830" lon="37.3782910">
    <ele>4649.7</ele>
    <time>2026-06-22T21:43:05Z</time>
   </trkpt>
   <trkpt lat="-3.1002810" lon="37.3782900">
    <ele>4649.8</ele>
    <time>2026-06-22T21:43:06Z</time>
   </trkpt>
   <trkpt lat="-3.1002760" lon="37.3782890">
    <ele>4649.8</ele>
    <time>2026-06-22T21:43:07Z</time>
   </trkpt>
   <trkpt lat="-3.1002730" lon="37.3782890">
    <ele>4649.9</ele>
    <time>2026-06-22T21:43:08Z</time>
   </trkpt>
   <trkpt lat="-3.1002690" lon="37.3782870">
    <ele>4649.9</ele>
    <time>2026-06-22T21:43:09Z</time>
   </trkpt>
   <trkpt lat="-3.1002670" lon="37.3782870">
    <ele>4650.0</ele>
    <time>2026-06-22T21:43:10Z</time>
   </trkpt>
   <trkpt lat="-3.1002670" lon="37.3782880">
    <ele>4650.0</ele>
    <time>2026-06-22T21:43:11Z</time>
   </trkpt>
   <trkpt lat="-3.1002600" lon="37.3782830">
    <ele>4650.1</ele>
    <time>2026-06-22T21:43:12Z</time>
   </trkpt>
   <trkpt lat="-3.1002550" lon="37.3782820">
    <ele>4650.2</ele>
    <time>2026-06-22T21:43:13Z</time>
   </trkpt>
   <trkpt lat="-3.1002500" lon="37.3782800">
    <ele>4650.3</ele>
    <time>2026-06-22T21:43:14Z</time>
   </trkpt>
   <trkpt lat="-3.1002450" lon="37.3782800">
    <ele>4650.4</ele>
    <time>2026-06-22T21:43:15Z</time>
   </trkpt>
   <trkpt lat="-3.1002400" lon="37.3782810">
    <ele>4650.4</ele>
    <time>2026-06-22T21:43:16Z</time>
   </trkpt>
   <trkpt lat="-3.1002360" lon="37.3782820">
    <ele>4650.5</ele>
    <time>2026-06-22T21:43:17Z</time>
   </trkpt>
   <trkpt lat="-3.1002280" lon="37.3782800">
    <ele>4650.7</ele>
    <time>2026-06-22T21:43:18Z</time>
   </trkpt>
   <trkpt lat="-3.1002250" lon="37.3782810">
    <ele>4650.7</ele>
    <time>2026-06-22T21:43:19Z</time>
   </trkpt>
   <trkpt lat="-3.1002200" lon="37.3782810">
    <ele>4650.8</ele>
    <time>2026-06-22T21:43:20Z</time>
   </trkpt>
   <trkpt lat="-3.1002170" lon="37.3782800">
    <ele>4650.8</ele>
    <time>2026-06-22T21:43:21Z</time>
   </trkpt>
   <trkpt lat="-3.1002160" lon="37.3782780">
    <ele>4650.9</ele>
    <time>2026-06-22T21:43:22Z</time>
   </trkpt>
   <trkpt lat="-3.1002130" lon="37.3782770">
    <ele>4650.9</ele>
    <time>2026-06-22T21:43:23Z</time>
   </trkpt>
   <trkpt lat="-3.1002110" lon="37.3782750">
    <ele>4651.0</ele>
    <time>2026-06-22T21:43:24Z</time>
   </trkpt>
   <trkpt lat="-3.1002050" lon="37.3782740">
    <ele>4651.1</ele>
    <time>2026-06-22T21:43:25Z</time>
   </trkpt>
   <trkpt lat="-3.1002020" lon="37.3782690">
    <ele>4651.2</ele>
    <time>2026-06-22T21:43:26Z</time>
   </trkpt>
   <trkpt lat="-3.1001990" lon="37.3782690">
    <ele>4651.2</ele>
    <time>2026-06-22T21:43:27Z</time>
   </trkpt>
   <trkpt lat="-3.1001950" lon="37.3782650">
    <ele>4651.4</ele>
    <time>2026-06-22T21:43:28Z</time>
   </trkpt>
   <trkpt lat="-3.1001920" lon="37.3782640">
    <ele>4651.4</ele>
    <time>2026-06-22T21:43:29Z</time>
   </trkpt>
   <trkpt lat="-3.1001900" lon="37.3782630">
    <ele>4651.5</ele>
    <time>2026-06-22T21:43:30Z</time>
   </trkpt>
   <trkpt lat="-3.1001850" lon="37.3782610">
    <ele>4651.5</ele>
    <time>2026-06-22T21:43:31Z</time>
   </trkpt>
   <trkpt lat="-3.1001810" lon="37.3782600">
    <ele>4651.6</ele>
    <time>2026-06-22T21:43:32Z</time>
   </trkpt>
   <trkpt lat="-3.1001790" lon="37.3782580">
    <ele>4651.7</ele>
    <time>2026-06-22T21:43:33Z</time>
   </trkpt>
   <trkpt lat="-3.1001750" lon="37.3782560">
    <ele>4651.8</ele>
    <time>2026-06-22T21:43:34Z</time>
   </trkpt>
   <trkpt lat="-3.1001700" lon="37.3782550">
    <ele>4651.9</ele>
    <time>2026-06-22T21:43:35Z</time>
   </trkpt>
   <trkpt lat="-3.1001690" lon="37.3782560">
    <ele>4651.9</ele>
    <time>2026-06-22T21:43:36Z</time>
   </trkpt>
   <trkpt lat="-3.1001660" lon="37.3782560">
    <ele>4651.9</ele>
    <time>2026-06-22T21:43:37Z</time>
   </trkpt>
   <trkpt lat="-3.1001610" lon="37.3782550">
    <ele>4652.0</ele>
    <time>2026-06-22T21:43:38Z</time>
   </trkpt>
   <trkpt lat="-3.1001590" lon="37.3782540">
    <ele>4652.1</ele>
    <time>2026-06-22T21:43:39Z</time>
   </trkpt>
   <trkpt lat="-3.1001570" lon="37.3782520">
    <ele>4652.1</ele>
    <time>2026-06-22T21:43:40Z</time>
   </trkpt>
   <trkpt lat="-3.1001550" lon="37.3782520">
    <ele>4652.2</ele>
    <time>2026-06-22T21:43:41Z</time>
   </trkpt>
   <trkpt lat="-3.1001540" lon="37.3782510">
    <ele>4652.2</ele>
    <time>2026-06-22T21:43:42Z</time>
   </trkpt>
   <trkpt lat="-3.1001510" lon="37.3782510">
    <ele>4652.2</ele>
    <time>2026-06-22T21:43:43Z</time>
   </trkpt>
   <trkpt lat="-3.1001480" lon="37.3782460">
    <ele>4652.3</ele>
    <time>2026-06-22T21:43:44Z</time>
   </trkpt>
   <trkpt lat="-3.1001450" lon="37.3782440">
    <ele>4652.4</ele>
    <time>2026-06-22T21:43:45Z</time>
   </trkpt>
   <trkpt lat="-3.1001440" lon="37.3782420">
    <ele>4652.5</ele>
    <time>2026-06-22T21:43:46Z</time>
   </trkpt>
   <trkpt lat="-3.1001420" lon="37.3782400">
    <ele>4652.5</ele>
    <time>2026-06-22T21:43:47Z</time>
   </trkpt>
   <trkpt lat="-3.1001400" lon="37.3782380">
    <ele>4652.6</ele>
    <time>2026-06-22T21:43:48Z</time>
   </trkpt>
   <trkpt lat="-3.1001380" lon="37.3782370">
    <ele>4652.6</ele>
    <time>2026-06-22T21:43:49Z</time>
   </trkpt>
   <trkpt lat="-3.1001360" lon="37.3782350">
    <ele>4652.6</ele>
    <time>2026-06-22T21:43:50Z</time>
   </trkpt>
   <trkpt lat="-3.1001330" lon="37.3782340">
    <ele>4652.7</ele>
    <time>2026-06-22T21:43:51Z</time>
   </trkpt>
   <trkpt lat="-3.1001310" lon="37.3782350">
    <ele>4652.7</ele>
    <time>2026-06-22T21:43:52Z</time>
   </trkpt>
   <trkpt lat="-3.1001270" lon="37.3782320">
    <ele>4652.8</ele>
    <time>2026-06-22T21:43:53Z</time>
   </trkpt>
   <trkpt lat="-3.1001240" lon="37.3782340">
    <ele>4652.9</ele>
    <time>2026-06-22T21:43:54Z</time>
   </trkpt>
   <trkpt lat="-3.1001230" lon="37.3782310">
    <ele>4653.0</ele>
    <time>2026-06-22T21:43:55Z</time>
   </trkpt>
   <trkpt lat="-3.1001200" lon="37.3782310">
    <ele>4653.0</ele>
    <time>2026-06-22T21:43:56Z</time>
   </trkpt>
   <trkpt lat="-3.1001160" lon="37.3782270">
    <ele>4653.1</ele>
    <time>2026-06-22T21:43:57Z</time>
   </trkpt>
   <trkpt lat="-3.1001140" lon="37.3782270">
    <ele>4653.2</ele>
    <time>2026-06-22T21:43:58Z</time>
   </trkpt>
   <trkpt lat="-3.1001120" lon="37.3782230">
    <ele>4653.2</ele>
    <time>2026-06-22T21:43:59Z</time>
   </trkpt>
   <trkpt lat="-3.1001070" lon="37.3782230">
    <ele>4653.3</ele>
    <time>2026-06-22T21:44:00Z</time>
   </trkpt>
   <trkpt lat="-3.1001070" lon="37.3782200">
    <ele>4653.4</ele>
    <time>2026-06-22T21:44:01Z</time>
   </trkpt>
   <trkpt lat="-3.1001040" lon="37.3782160">
    <ele>4653.5</ele>
    <time>2026-06-22T21:44:02Z</time>
   </trkpt>
   <trkpt lat="-3.1001010" lon="37.3782190">
    <ele>4653.6</ele>
    <time>2026-06-22T21:44:03Z</time>
   </trkpt>
   <trkpt lat="-3.1000960" lon="37.3782190">
    <ele>4653.6</ele>
    <time>2026-06-22T21:44:04Z</time>
   </trkpt>
   <trkpt lat="-3.1000940" lon="37.3782220">
    <ele>4653.7</ele>
    <time>2026-06-22T21:44:05Z</time>
   </trkpt>
   <trkpt lat="-3.1000890" lon="37.3782190">
    <ele>4653.8</ele>
    <time>2026-06-22T21:44:06Z</time>
   </trkpt>
   <trkpt lat="-3.1000870" lon="37.3782210">
    <ele>4653.9</ele>
    <time>2026-06-22T21:44:07Z</time>
   </trkpt>
   <trkpt lat="-3.1000840" lon="37.3782200">
    <ele>4653.9</ele>
    <time>2026-06-22T21:44:08Z</time>
   </trkpt>
   <trkpt lat="-3.1000780" lon="37.3782180">
    <ele>4654.0</ele>
    <time>2026-06-22T21:44:09Z</time>
   </trkpt>
   <trkpt lat="-3.1000780" lon="37.3782190">
    <ele>4654.1</ele>
    <time>2026-06-22T21:44:10Z</time>
   </trkpt>
   <trkpt lat="-3.1000760" lon="37.3782180">
    <ele>4654.1</ele>
    <time>2026-06-22T21:44:11Z</time>
   </trkpt>
   <trkpt lat="-3.1000710" lon="37.3782160">
    <ele>4654.2</ele>
    <time>2026-06-22T21:44:12Z</time>
   </trkpt>
   <trkpt lat="-3.1000670" lon="37.3782150">
    <ele>4654.3</ele>
    <time>2026-06-22T21:44:13Z</time>
   </trkpt>
   <trkpt lat="-3.1000640" lon="37.3782130">
    <ele>4654.3</ele>
    <time>2026-06-22T21:44:14Z</time>
   </trkpt>
   <trkpt lat="-3.1000590" lon="37.3782140">
    <ele>4654.4</ele>
    <time>2026-06-22T21:44:15Z</time>
   </trkpt>
   <trkpt lat="-3.1000540" lon="37.3782140">
    <ele>4654.5</ele>
    <time>2026-06-22T21:44:16Z</time>
   </trkpt>
   <trkpt lat="-3.1000500" lon="37.3782160">
    <ele>4654.6</ele>
    <time>2026-06-22T21:44:17Z</time>
   </trkpt>
   <trkpt lat="-3.1000460" lon="37.3782160">
    <ele>4654.6</ele>
    <time>2026-06-22T21:44:18Z</time>
   </trkpt>
   <trkpt lat="-3.1000440" lon="37.3782170">
    <ele>4654.7</ele>
    <time>2026-06-22T21:44:19Z</time>
   </trkpt>
   <trkpt lat="-3.1000380" lon="37.3782180">
    <ele>4654.8</ele>
    <time>2026-06-22T21:44:20Z</time>
   </trkpt>
   <trkpt lat="-3.1000370" lon="37.3782210">
    <ele>4654.8</ele>
    <time>2026-06-22T21:44:21Z</time>
   </trkpt>
   <trkpt lat="-3.1000300" lon="37.3782190">
    <ele>4655.0</ele>
    <time>2026-06-22T21:44:22Z</time>
   </trkpt>
   <trkpt lat="-3.1000300" lon="37.3782220">
    <ele>4655.0</ele>
    <time>2026-06-22T21:44:23Z</time>
   </trkpt>
   <trkpt lat="-3.1000260" lon="37.3782210">
    <ele>4655.1</ele>
    <time>2026-06-22T21:44:24Z</time>
   </trkpt>
   <trkpt lat="-3.1000240" lon="37.3782220">
    <ele>4655.1</ele>
    <time>2026-06-22T21:44:25Z</time>
   </trkpt>
   <trkpt lat="-3.1000170" lon="37.3782200">
    <ele>4655.2</ele>
    <time>2026-06-22T21:44:26Z</time>
   </trkpt>
   <trkpt lat="-3.1000100" lon="37.3782200">
    <ele>4655.3</ele>
    <time>2026-06-22T21:44:27Z</time>
   </trkpt>
   <trkpt lat="-3.1000100" lon="37.3782200">
    <ele>4655.3</ele>
    <time>2026-06-22T21:44:28Z</time>
   </trkpt>
   <trkpt lat="-3.1000060" lon="37.3782210">
    <ele>4655.4</ele>
    <time>2026-06-22T21:44:29Z</time>
   </trkpt>
   <trkpt lat="-3.1000050" lon="37.3782220">
    <ele>4655.4</ele>
    <time>2026-06-22T21:44:30Z</time>
   </trkpt>
   <trkpt lat="-3.0999990" lon="37.3782230">
    <ele>4655.5</ele>
    <time>2026-06-22T21:44:31Z</time>
   </trkpt>
   <trkpt lat="-3.0999960" lon="37.3782250">
    <ele>4655.6</ele>
    <time>2026-06-22T21:44:32Z</time>
   </trkpt>
   <trkpt lat="-3.0999930" lon="37.3782260">
    <ele>4655.6</ele>
    <time>2026-06-22T21:44:33Z</time>
   </trkpt>
   <trkpt lat="-3.0999880" lon="37.3782270">
    <ele>4655.7</ele>
    <time>2026-06-22T21:44:34Z</time>
   </trkpt>
   <trkpt lat="-3.0999860" lon="37.3782270">
    <ele>4655.7</ele>
    <time>2026-06-22T21:44:35Z</time>
   </trkpt>
   <trkpt lat="-3.0999760" lon="37.3782250">
    <ele>4655.9</ele>
    <time>2026-06-22T21:44:36Z</time>
   </trkpt>
   <trkpt lat="-3.0999790" lon="37.3782280">
    <ele>4656.0</ele>
    <time>2026-06-22T21:44:37Z</time>
   </trkpt>
   <trkpt lat="-3.0999770" lon="37.3782270">
    <ele>4656.0</ele>
    <time>2026-06-22T21:44:38Z</time>
   </trkpt>
   <trkpt lat="-3.0999730" lon="37.3782260">
    <ele>4656.0</ele>
    <time>2026-06-22T21:44:39Z</time>
   </trkpt>
   <trkpt lat="-3.0999680" lon="37.3782240">
    <ele>4656.1</ele>
    <time>2026-06-22T21:44:40Z</time>
   </trkpt>
   <trkpt lat="-3.0999670" lon="37.3782230">
    <ele>4656.1</ele>
    <time>2026-06-22T21:44:41Z</time>
   </trkpt>
   <trkpt lat="-3.0999650" lon="37.3782220">
    <ele>4656.2</ele>
    <time>2026-06-22T21:44:42Z</time>
   </trkpt>
   <trkpt lat="-3.0999610" lon="37.3782200">
    <ele>4656.3</ele>
    <time>2026-06-22T21:44:43Z</time>
   </trkpt>
   <trkpt lat="-3.0999570" lon="37.3782180">
    <ele>4656.3</ele>
    <time>2026-06-22T21:44:44Z</time>
   </trkpt>
   <trkpt lat="-3.0999520" lon="37.3782160">
    <ele>4656.4</ele>
    <time>2026-06-22T21:44:45Z</time>
   </trkpt>
   <trkpt lat="-3.0999520" lon="37.3782160">
    <ele>4656.4</ele>
    <time>2026-06-22T21:44:46Z</time>
   </trkpt>
   <trkpt lat="-3.0999490" lon="37.3782150">
    <ele>4656.4</ele>
    <time>2026-06-22T21:44:47Z</time>
   </trkpt>
   <trkpt lat="-3.0999450" lon="37.3782150">
    <ele>4656.5</ele>
    <time>2026-06-22T21:44:48Z</time>
   </trkpt>
   <trkpt lat="-3.0999420" lon="37.3782150">
    <ele>4656.6</ele>
    <time>2026-06-22T21:44:49Z</time>
   </trkpt>
   <trkpt lat="-3.0999400" lon="37.3782140">
    <ele>4656.6</ele>
    <time>2026-06-22T21:44:50Z</time>
   </trkpt>
   <trkpt lat="-3.0999360" lon="37.3782130">
    <ele>4656.6</ele>
    <time>2026-06-22T21:44:51Z</time>
   </trkpt>
   <trkpt lat="-3.0999320" lon="37.3782140">
    <ele>4656.7</ele>
    <time>2026-06-22T21:44:52Z</time>
   </trkpt>
   <trkpt lat="-3.0999250" lon="37.3782130">
    <ele>4656.8</ele>
    <time>2026-06-22T21:44:53Z</time>
   </trkpt>
   <trkpt lat="-3.0999240" lon="37.3782100">
    <ele>4656.9</ele>
    <time>2026-06-22T21:44:54Z</time>
   </trkpt>
   <trkpt lat="-3.0999200" lon="37.3782090">
    <ele>4656.9</ele>
    <time>2026-06-22T21:44:55Z</time>
   </trkpt>
   <trkpt lat="-3.0999160" lon="37.3782070">
    <ele>4657.0</ele>
    <time>2026-06-22T21:44:56Z</time>
   </trkpt>
   <trkpt lat="-3.0999120" lon="37.3782060">
    <ele>4657.1</ele>
    <time>2026-06-22T21:44:57Z</time>
   </trkpt>
   <trkpt lat="-3.0999090" lon="37.3782030">
    <ele>4657.1</ele>
    <time>2026-06-22T21:44:58Z</time>
   </trkpt>
   <trkpt lat="-3.0999040" lon="37.3782000">
    <ele>4657.2</ele>
    <time>2026-06-22T21:44:59Z</time>
   </trkpt>
   <trkpt lat="-3.0999010" lon="37.3781950">
    <ele>4657.3</ele>
    <time>2026-06-22T21:45:00Z</time>
   </trkpt>
   <trkpt lat="-3.0998980" lon="37.3781930">
    <ele>4657.3</ele>
    <time>2026-06-22T21:45:01Z</time>
   </trkpt>
   <trkpt lat="-3.0998930" lon="37.3781920">
    <ele>4657.4</ele>
    <time>2026-06-22T21:45:02Z</time>
   </trkpt>
   <trkpt lat="-3.0998870" lon="37.3781920">
    <ele>4657.5</ele>
    <time>2026-06-22T21:45:03Z</time>
   </trkpt>
   <trkpt lat="-3.0998860" lon="37.3781910">
    <ele>4657.5</ele>
    <time>2026-06-22T21:45:04Z</time>
   </trkpt>
   <trkpt lat="-3.0998780" lon="37.3781920">
    <ele>4657.7</ele>
    <time>2026-06-22T21:45:05Z</time>
   </trkpt>
   <trkpt lat="-3.0998770" lon="37.3781920">
    <ele>4657.7</ele>
    <time>2026-06-22T21:45:06Z</time>
   </trkpt>
   <trkpt lat="-3.0998690" lon="37.3781950">
    <ele>4657.8</ele>
    <time>2026-06-22T21:45:07Z</time>
   </trkpt>
   <trkpt lat="-3.0998660" lon="37.3781930">
    <ele>4657.8</ele>
    <time>2026-06-22T21:45:08Z</time>
   </trkpt>
   <trkpt lat="-3.0998590" lon="37.3781930">
    <ele>4658.0</ele>
    <time>2026-06-22T21:45:09Z</time>
   </trkpt>
   <trkpt lat="-3.0998550" lon="37.3781970">
    <ele>4658.0</ele>
    <time>2026-06-22T21:45:10Z</time>
   </trkpt>
   <trkpt lat="-3.0998500" lon="37.3781910">
    <ele>4658.2</ele>
    <time>2026-06-22T21:45:11Z</time>
   </trkpt>
   <trkpt lat="-3.0998470" lon="37.3781890">
    <ele>4658.2</ele>
    <time>2026-06-22T21:45:12Z</time>
   </trkpt>
   <trkpt lat="-3.0998420" lon="37.3781870">
    <ele>4658.3</ele>
    <time>2026-06-22T21:45:13Z</time>
   </trkpt>
   <trkpt lat="-3.0998400" lon="37.3781870">
    <ele>4658.3</ele>
    <time>2026-06-22T21:45:14Z</time>
   </trkpt>
   <trkpt lat="-3.0998320" lon="37.3781810">
    <ele>4658.5</ele>
    <time>2026-06-22T21:45:15Z</time>
   </trkpt>
   <trkpt lat="-3.0998310" lon="37.3781810">
    <ele>4658.5</ele>
    <time>2026-06-22T21:45:16Z</time>
   </trkpt>
   <trkpt lat="-3.0998290" lon="37.3781820">
    <ele>4658.5</ele>
    <time>2026-06-22T21:45:17Z</time>
   </trkpt>
   <trkpt lat="-3.0998230" lon="37.3781810">
    <ele>4658.6</ele>
    <time>2026-06-22T21:45:18Z</time>
   </trkpt>
   <trkpt lat="-3.0998200" lon="37.3781810">
    <ele>4658.7</ele>
    <time>2026-06-22T21:45:19Z</time>
   </trkpt>
   <trkpt lat="-3.0998160" lon="37.3781790">
    <ele>4658.7</ele>
    <time>2026-06-22T21:45:20Z</time>
   </trkpt>
   <trkpt lat="-3.0998150" lon="37.3781800">
    <ele>4658.7</ele>
    <time>2026-06-22T21:45:21Z</time>
   </trkpt>
   <trkpt lat="-3.0998040" lon="37.3781790">
    <ele>4658.9</ele>
    <time>2026-06-22T21:45:22Z</time>
   </trkpt>
   <trkpt lat="-3.0998010" lon="37.3781790">
    <ele>4659.0</ele>
    <time>2026-06-22T21:45:23Z</time>
   </trkpt>
   <trkpt lat="-3.0997970" lon="37.3781770">
    <ele>4659.0</ele>
    <time>2026-06-22T21:45:24Z</time>
   </trkpt>
   <trkpt lat="-3.0997910" lon="37.3781770">
    <ele>4659.1</ele>
    <time>2026-06-22T21:45:25Z</time>
   </trkpt>
   <trkpt lat="-3.0997870" lon="37.3781760">
    <ele>4659.2</ele>
    <time>2026-06-22T21:45:26Z</time>
   </trkpt>
   <trkpt lat="-3.0997820" lon="37.3781750">
    <ele>4659.2</ele>
    <time>2026-06-22T21:45:27Z</time>
   </trkpt>
   <trkpt lat="-3.0997810" lon="37.3781770">
    <ele>4659.3</ele>
    <time>2026-06-22T21:45:28Z</time>
   </trkpt>
   <trkpt lat="-3.0997760" lon="37.3781750">
    <ele>4659.4</ele>
    <time>2026-06-22T21:45:29Z</time>
   </trkpt>
   <trkpt lat="-3.0997710" lon="37.3781740">
    <ele>4659.4</ele>
    <time>2026-06-22T21:45:30Z</time>
   </trkpt>
   <trkpt lat="-3.0997680" lon="37.3781700">
    <ele>4659.5</ele>
    <time>2026-06-22T21:45:31Z</time>
   </trkpt>
   <trkpt lat="-3.0997650" lon="37.3781660">
    <ele>4659.6</ele>
    <time>2026-06-22T21:45:32Z</time>
   </trkpt>
   <trkpt lat="-3.0997620" lon="37.3781620">
    <ele>4659.7</ele>
    <time>2026-06-22T21:45:33Z</time>
   </trkpt>
   <trkpt lat="-3.0997600" lon="37.3781600">
    <ele>4659.7</ele>
    <time>2026-06-22T21:45:34Z</time>
   </trkpt>
   <trkpt lat="-3.0997540" lon="37.3781530">
    <ele>4659.8</ele>
    <time>2026-06-22T21:45:35Z</time>
   </trkpt>
   <trkpt lat="-3.0997500" lon="37.3781530">
    <ele>4659.9</ele>
    <time>2026-06-22T21:45:36Z</time>
   </trkpt>
   <trkpt lat="-3.0997470" lon="37.3781480">
    <ele>4660.0</ele>
    <time>2026-06-22T21:45:37Z</time>
   </trkpt>
   <trkpt lat="-3.0997430" lon="37.3781410">
    <ele>4660.1</ele>
    <time>2026-06-22T21:45:38Z</time>
   </trkpt>
   <trkpt lat="-3.0997430" lon="37.3781400">
    <ele>4660.1</ele>
    <time>2026-06-22T21:45:39Z</time>
   </trkpt>
   <trkpt lat="-3.0997410" lon="37.3781400">
    <ele>4660.1</ele>
    <time>2026-06-22T21:45:40Z</time>
   </trkpt>
   <trkpt lat="-3.0997370" lon="37.3781380">
    <ele>4660.2</ele>
    <time>2026-06-22T21:45:41Z</time>
   </trkpt>
   <trkpt lat="-3.0997350" lon="37.3781360">
    <ele>4660.2</ele>
    <time>2026-06-22T21:45:42Z</time>
   </trkpt>
   <trkpt lat="-3.0997330" lon="37.3781330">
    <ele>4660.3</ele>
    <time>2026-06-22T21:45:43Z</time>
   </trkpt>
   <trkpt lat="-3.0997310" lon="37.3781300">
    <ele>4660.3</ele>
    <time>2026-06-22T21:45:44Z</time>
   </trkpt>
   <trkpt lat="-3.0997300" lon="37.3781270">
    <ele>4660.3</ele>
    <time>2026-06-22T21:45:45Z</time>
   </trkpt>
   <trkpt lat="-3.0997290" lon="37.3781230">
    <ele>4660.4</ele>
    <time>2026-06-22T21:45:46Z</time>
   </trkpt>
   <trkpt lat="-3.0997300" lon="37.3781220">
    <ele>4660.4</ele>
    <time>2026-06-22T21:45:47Z</time>
   </trkpt>
   <trkpt lat="-3.0997280" lon="37.3781200">
    <ele>4660.4</ele>
    <time>2026-06-22T21:45:48Z</time>
   </trkpt>
   <trkpt lat="-3.0997270" lon="37.3781210">
    <ele>4660.5</ele>
    <time>2026-06-22T21:45:49Z</time>
   </trkpt>
   <trkpt lat="-3.0997250" lon="37.3781170">
    <ele>4660.5</ele>
    <time>2026-06-22T21:45:50Z</time>
   </trkpt>
   <trkpt lat="-3.0997240" lon="37.3781160">
    <ele>4660.5</ele>
    <time>2026-06-22T21:45:51Z</time>
   </trkpt>
   <trkpt lat="-3.0997210" lon="37.3781150">
    <ele>4660.6</ele>
    <time>2026-06-22T21:45:52Z</time>
   </trkpt>
   <trkpt lat="-3.0997180" lon="37.3781160">
    <ele>4660.6</ele>
    <time>2026-06-22T21:45:53Z</time>
   </trkpt>
   <trkpt lat="-3.0997120" lon="37.3781170">
    <ele>4660.7</ele>
    <time>2026-06-22T21:45:54Z</time>
   </trkpt>
   <trkpt lat="-3.0997110" lon="37.3781190">
    <ele>4660.7</ele>
    <time>2026-06-22T21:45:55Z</time>
   </trkpt>
   <trkpt lat="-3.0997070" lon="37.3781160">
    <ele>4660.8</ele>
    <time>2026-06-22T21:45:56Z</time>
   </trkpt>
   <trkpt lat="-3.0997070" lon="37.3781170">
    <ele>4660.8</ele>
    <time>2026-06-22T21:45:57Z</time>
   </trkpt>
   <trkpt lat="-3.0997050" lon="37.3781150">
    <ele>4660.8</ele>
    <time>2026-06-22T21:45:58Z</time>
   </trkpt>
   <trkpt lat="-3.0997050" lon="37.3781130">
    <ele>4660.8</ele>
    <time>2026-06-22T21:45:59Z</time>
   </trkpt>
   <trkpt lat="-3.0997030" lon="37.3781100">
    <ele>4660.9</ele>
    <time>2026-06-22T21:46:00Z</time>
   </trkpt>
   <trkpt lat="-3.0997010" lon="37.3781080">
    <ele>4660.9</ele>
    <time>2026-06-22T21:46:01Z</time>
   </trkpt>
   <trkpt lat="-3.0997000" lon="37.3781060">
    <ele>4660.9</ele>
    <time>2026-06-22T21:46:02Z</time>
   </trkpt>
   <trkpt lat="-3.0997000" lon="37.3781050">
    <ele>4660.9</ele>
    <time>2026-06-22T21:46:03Z</time>
   </trkpt>
   <trkpt lat="-3.0996980" lon="37.3781050">
    <ele>4661.0</ele>
    <time>2026-06-22T21:46:04Z</time>
   </trkpt>
   <trkpt lat="-3.0996980" lon="37.3781020">
    <ele>4661.0</ele>
    <time>2026-06-22T21:46:05Z</time>
   </trkpt>
   <trkpt lat="-3.0996980" lon="37.3780990">
    <ele>4661.0</ele>
    <time>2026-06-22T21:46:06Z</time>
   </trkpt>
   <trkpt lat="-3.0996950" lon="37.3780980">
    <ele>4661.1</ele>
    <time>2026-06-22T21:46:07Z</time>
   </trkpt>
   <trkpt lat="-3.0996930" lon="37.3780940">
    <ele>4661.1</ele>
    <time>2026-06-22T21:46:08Z</time>
   </trkpt>
   <trkpt lat="-3.0996890" lon="37.3780930">
    <ele>4661.1</ele>
    <time>2026-06-22T21:46:09Z</time>
   </trkpt>
   <trkpt lat="-3.0996860" lon="37.3780890">
    <ele>4661.2</ele>
    <time>2026-06-22T21:46:10Z</time>
   </trkpt>
   <trkpt lat="-3.0996830" lon="37.3780890">
    <ele>4661.2</ele>
    <time>2026-06-22T21:46:11Z</time>
   </trkpt>
   <trkpt lat="-3.0996780" lon="37.3780860">
    <ele>4661.3</ele>
    <time>2026-06-22T21:46:12Z</time>
   </trkpt>
   <trkpt lat="-3.0996740" lon="37.3780840">
    <ele>4661.3</ele>
    <time>2026-06-22T21:46:13Z</time>
   </trkpt>
   <trkpt lat="-3.0996710" lon="37.3780820">
    <ele>4661.3</ele>
    <time>2026-06-22T21:46:14Z</time>
   </trkpt>
   <trkpt lat="-3.0996670" lon="37.3780810">
    <ele>4661.4</ele>
    <time>2026-06-22T21:46:15Z</time>
   </trkpt>
   <trkpt lat="-3.0996630" lon="37.3780770">
    <ele>4661.4</ele>
    <time>2026-06-22T21:46:16Z</time>
   </trkpt>
   <trkpt lat="-3.0996600" lon="37.3780750">
    <ele>4661.5</ele>
    <time>2026-06-22T21:46:17Z</time>
   </trkpt>
   <trkpt lat="-3.0996570" lon="37.3780740">
    <ele>4661.5</ele>
    <time>2026-06-22T21:46:18Z</time>
   </trkpt>
   <trkpt lat="-3.0996550" lon="37.3780750">
    <ele>4661.5</ele>
    <time>2026-06-22T21:46:19Z</time>
   </trkpt>
   <trkpt lat="-3.0996500" lon="37.3780750">
    <ele>4661.5</ele>
    <time>2026-06-22T21:46:20Z</time>
   </trkpt>
   <trkpt lat="-3.0996460" lon="37.3780720">
    <ele>4661.6</ele>
    <time>2026-06-22T21:46:21Z</time>
   </trkpt>
   <trkpt lat="-3.0996430" lon="37.3780730">
    <ele>4661.6</ele>
    <time>2026-06-22T21:46:22Z</time>
   </trkpt>
   <trkpt lat="-3.0996380" lon="37.3780730">
    <ele>4661.6</ele>
    <time>2026-06-22T21:46:23Z</time>
   </trkpt>
   <trkpt lat="-3.0996320" lon="37.3780750">
    <ele>4661.7</ele>
    <time>2026-06-22T21:46:24Z</time>
   </trkpt>
   <trkpt lat="-3.0996270" lon="37.3780770">
    <ele>4661.7</ele>
    <time>2026-06-22T21:46:25Z</time>
   </trkpt>
   <trkpt lat="-3.0996220" lon="37.3780780">
    <ele>4661.8</ele>
    <time>2026-06-22T21:46:26Z</time>
   </trkpt>
   <trkpt lat="-3.0996160" lon="37.3780780">
    <ele>4661.8</ele>
    <time>2026-06-22T21:46:27Z</time>
   </trkpt>
   <trkpt lat="-3.0996120" lon="37.3780780">
    <ele>4661.9</ele>
    <time>2026-06-22T21:46:28Z</time>
   </trkpt>
   <trkpt lat="-3.0996070" lon="37.3780770">
    <ele>4661.9</ele>
    <time>2026-06-22T21:46:29Z</time>
   </trkpt>
   <trkpt lat="-3.0995990" lon="37.3780780">
    <ele>4661.9</ele>
    <time>2026-06-22T21:46:30Z</time>
   </trkpt>
   <trkpt lat="-3.0995940" lon="37.3780790">
    <ele>4662.0</ele>
    <time>2026-06-22T21:46:31Z</time>
   </trkpt>
   <trkpt lat="-3.0995870" lon="37.3780810">
    <ele>4662.0</ele>
    <time>2026-06-22T21:46:32Z</time>
   </trkpt>
   <trkpt lat="-3.0995800" lon="37.3780810">
    <ele>4662.1</ele>
    <time>2026-06-22T21:46:33Z</time>
   </trkpt>
   <trkpt lat="-3.0995750" lon="37.3780810">
    <ele>4662.1</ele>
    <time>2026-06-22T21:46:34Z</time>
   </trkpt>
   <trkpt lat="-3.0995670" lon="37.3780820">
    <ele>4662.1</ele>
    <time>2026-06-22T21:46:35Z</time>
   </trkpt>
   <trkpt lat="-3.0995600" lon="37.3780820">
    <ele>4662.2</ele>
    <time>2026-06-22T21:46:36Z</time>
   </trkpt>
   <trkpt lat="-3.0995550" lon="37.3780820">
    <ele>4662.2</ele>
    <time>2026-06-22T21:46:37Z</time>
   </trkpt>
   <trkpt lat="-3.0995480" lon="37.3780810">
    <ele>4662.3</ele>
    <time>2026-06-22T21:46:38Z</time>
   </trkpt>
   <trkpt lat="-3.0995400" lon="37.3780780">
    <ele>4662.3</ele>
    <time>2026-06-22T21:46:39Z</time>
   </trkpt>
   <trkpt lat="-3.0995320" lon="37.3780780">
    <ele>4662.3</ele>
    <time>2026-06-22T21:46:40Z</time>
   </trkpt>
   <trkpt lat="-3.0995250" lon="37.3780770">
    <ele>4662.4</ele>
    <time>2026-06-22T21:46:41Z</time>
   </trkpt>
   <trkpt lat="-3.0995190" lon="37.3780770">
    <ele>4662.4</ele>
    <time>2026-06-22T21:46:42Z</time>
   </trkpt>
   <trkpt lat="-3.0995150" lon="37.3780780">
    <ele>4662.4</ele>
    <time>2026-06-22T21:46:43Z</time>
   </trkpt>
   <trkpt lat="-3.0995090" lon="37.3780780">
    <ele>4662.5</ele>
    <time>2026-06-22T21:46:44Z</time>
   </trkpt>
   <trkpt lat="-3.0995030" lon="37.3780760">
    <ele>4662.5</ele>
    <time>2026-06-22T21:46:45Z</time>
   </trkpt>
   <trkpt lat="-3.0994970" lon="37.3780730">
    <ele>4662.5</ele>
    <time>2026-06-22T21:46:46Z</time>
   </trkpt>
   <trkpt lat="-3.0994920" lon="37.3780720">
    <ele>4662.6</ele>
    <time>2026-06-22T21:46:47Z</time>
   </trkpt>
   <trkpt lat="-3.0994880" lon="37.3780710">
    <ele>4662.6</ele>
    <time>2026-06-22T21:46:48Z</time>
   </trkpt>
   <trkpt lat="-3.0994800" lon="37.3780720">
    <ele>4662.6</ele>
    <time>2026-06-22T21:46:49Z</time>
   </trkpt>
   <trkpt lat="-3.0994770" lon="37.3780730">
    <ele>4662.7</ele>
    <time>2026-06-22T21:46:50Z</time>
   </trkpt>
   <trkpt lat="-3.0994690" lon="37.3780720">
    <ele>4662.7</ele>
    <time>2026-06-22T21:46:51Z</time>
   </trkpt>
   <trkpt lat="-3.0994660" lon="37.3780740">
    <ele>4662.7</ele>
    <time>2026-06-22T21:46:52Z</time>
   </trkpt>
   <trkpt lat="-3.0994590" lon="37.3780760">
    <ele>4662.8</ele>
    <time>2026-06-22T21:46:53Z</time>
   </trkpt>
   <trkpt lat="-3.0994550" lon="37.3780760">
    <ele>4662.8</ele>
    <time>2026-06-22T21:46:54Z</time>
   </trkpt>
   <trkpt lat="-3.0994500" lon="37.3780760">
    <ele>4662.8</ele>
    <time>2026-06-22T21:46:55Z</time>
   </trkpt>
   <trkpt lat="-3.0994460" lon="37.3780760">
    <ele>4662.8</ele>
    <time>2026-06-22T21:46:56Z</time>
   </trkpt>
   <trkpt lat="-3.0994410" lon="37.3780760">
    <ele>4662.9</ele>
    <time>2026-06-22T21:46:57Z</time>
   </trkpt>
   <trkpt lat="-3.0994370" lon="37.3780750">
    <ele>4662.9</ele>
    <time>2026-06-22T21:46:58Z</time>
   </trkpt>
   <trkpt lat="-3.0994300" lon="37.3780710">
    <ele>4662.9</ele>
    <time>2026-06-22T21:46:59Z</time>
   </trkpt>
   <trkpt lat="-3.0994270" lon="37.3780680">
    <ele>4663.0</ele>
    <time>2026-06-22T21:47:00Z</time>
   </trkpt>
   <trkpt lat="-3.0994240" lon="37.3780650">
    <ele>4663.0</ele>
    <time>2026-06-22T21:47:01Z</time>
   </trkpt>
   <trkpt lat="-3.0994210" lon="37.3780620">
    <ele>4663.0</ele>
    <time>2026-06-22T21:47:02Z</time>
   </trkpt>
   <trkpt lat="-3.0994130" lon="37.3780580">
    <ele>4663.1</ele>
    <time>2026-06-22T21:47:03Z</time>
   </trkpt>
   <trkpt lat="-3.0994070" lon="37.3780570">
    <ele>4663.1</ele>
    <time>2026-06-22T21:47:04Z</time>
   </trkpt>
   <trkpt lat="-3.0994030" lon="37.3780580">
    <ele>4663.1</ele>
    <time>2026-06-22T21:47:05Z</time>
   </trkpt>
   <trkpt lat="-3.0993970" lon="37.3780590">
    <ele>4663.1</ele>
    <time>2026-06-22T21:47:06Z</time>
   </trkpt>
   <trkpt lat="-3.0993900" lon="37.3780620">
    <ele>4663.2</ele>
    <time>2026-06-22T21:47:07Z</time>
   </trkpt>
   <trkpt lat="-3.0993860" lon="37.3780630">
    <ele>4663.2</ele>
    <time>2026-06-22T21:47:08Z</time>
   </trkpt>
   <trkpt lat="-3.0993820" lon="37.3780630">
    <ele>4663.2</ele>
    <time>2026-06-22T21:47:09Z</time>
   </trkpt>
   <trkpt lat="-3.0993760" lon="37.3780620">
    <ele>4663.3</ele>
    <time>2026-06-22T21:47:10Z</time>
   </trkpt>
   <trkpt lat="-3.0993700" lon="37.3780630">
    <ele>4663.3</ele>
    <time>2026-06-22T21:47:11Z</time>
   </trkpt>
   <trkpt lat="-3.0993620" lon="37.3780630">
    <ele>4663.4</ele>
    <time>2026-06-22T21:47:12Z</time>
   </trkpt>
   <trkpt lat="-3.0993570" lon="37.3780610">
    <ele>4663.4</ele>
    <time>2026-06-22T21:47:13Z</time>
   </trkpt>
   <trkpt lat="-3.0993490" lon="37.3780590">
    <ele>4663.4</ele>
    <time>2026-06-22T21:47:14Z</time>
   </trkpt>
   <trkpt lat="-3.0993440" lon="37.3780560">
    <ele>4663.5</ele>
    <time>2026-06-22T21:47:15Z</time>
   </trkpt>
   <trkpt lat="-3.0993380" lon="37.3780530">
    <ele>4663.5</ele>
    <time>2026-06-22T21:47:16Z</time>
   </trkpt>
   <trkpt lat="-3.0993320" lon="37.3780510">
    <ele>4663.5</ele>
    <time>2026-06-22T21:47:17Z</time>
   </trkpt>
   <trkpt lat="-3.0993260" lon="37.3780490">
    <ele>4663.6</ele>
    <time>2026-06-22T21:47:18Z</time>
   </trkpt>
   <trkpt lat="-3.0993200" lon="37.3780460">
    <ele>4663.6</ele>
    <time>2026-06-22T21:47:19Z</time>
   </trkpt>
   <trkpt lat="-3.0993170" lon="37.3780440">
    <ele>4663.6</ele>
    <time>2026-06-22T21:47:20Z</time>
   </trkpt>
   <trkpt lat="-3.0993130" lon="37.3780410">
    <ele>4663.7</ele>
    <time>2026-06-22T21:47:21Z</time>
   </trkpt>
   <trkpt lat="-3.0993080" lon="37.3780370">
    <ele>4663.7</ele>
    <time>2026-06-22T21:47:22Z</time>
   </trkpt>
   <trkpt lat="-3.0993040" lon="37.3780340">
    <ele>4663.8</ele>
    <time>2026-06-22T21:47:23Z</time>
   </trkpt>
   <trkpt lat="-3.0993010" lon="37.3780320">
    <ele>4663.8</ele>
    <time>2026-06-22T21:47:24Z</time>
   </trkpt>
   <trkpt lat="-3.0992960" lon="37.3780300">
    <ele>4663.8</ele>
    <time>2026-06-22T21:47:25Z</time>
   </trkpt>
   <trkpt lat="-3.0992920" lon="37.3780270">
    <ele>4663.8</ele>
    <time>2026-06-22T21:47:26Z</time>
   </trkpt>
   <trkpt lat="-3.0992890" lon="37.3780250">
    <ele>4663.9</ele>
    <time>2026-06-22T21:47:27Z</time>
   </trkpt>
   <trkpt lat="-3.0992860" lon="37.3780220">
    <ele>4663.9</ele>
    <time>2026-06-22T21:47:28Z</time>
   </trkpt>
   <trkpt lat="-3.0992840" lon="37.3780210">
    <ele>4663.9</ele>
    <time>2026-06-22T21:47:29Z</time>
   </trkpt>
   <trkpt lat="-3.0992810" lon="37.3780190">
    <ele>4663.9</ele>
    <time>2026-06-22T21:47:30Z</time>
   </trkpt>
   <trkpt lat="-3.0992770" lon="37.3780160">
    <ele>4664.0</ele>
    <time>2026-06-22T21:47:31Z</time>
   </trkpt>
   <trkpt lat="-3.0992770" lon="37.3780140">
    <ele>4664.0</ele>
    <time>2026-06-22T21:47:32Z</time>
   </trkpt>
   <trkpt lat="-3.0992750" lon="37.3780130">
    <ele>4664.0</ele>
    <time>2026-06-22T21:47:33Z</time>
   </trkpt>
   <trkpt lat="-3.0992710" lon="37.3780110">
    <ele>4664.0</ele>
    <time>2026-06-22T21:47:34Z</time>
   </trkpt>
   <trkpt lat="-3.0992700" lon="37.3780130">
    <ele>4664.0</ele>
    <time>2026-06-22T21:47:35Z</time>
   </trkpt>
   <trkpt lat="-3.0992660" lon="37.3780130">
    <ele>4664.1</ele>
    <time>2026-06-22T21:47:36Z</time>
   </trkpt>
   <trkpt lat="-3.0992630" lon="37.3780140">
    <ele>4664.1</ele>
    <time>2026-06-22T21:47:37Z</time>
   </trkpt>
   <trkpt lat="-3.0992620" lon="37.3780180">
    <ele>4664.1</ele>
    <time>2026-06-22T21:47:38Z</time>
   </trkpt>
   <trkpt lat="-3.0992570" lon="37.3780200">
    <ele>4664.1</ele>
    <time>2026-06-22T21:47:39Z</time>
   </trkpt>
   <trkpt lat="-3.0992500" lon="37.3780180">
    <ele>4664.2</ele>
    <time>2026-06-22T21:47:40Z</time>
   </trkpt>
   <trkpt lat="-3.0992500" lon="37.3780200">
    <ele>4664.2</ele>
    <time>2026-06-22T21:47:41Z</time>
   </trkpt>
   <trkpt lat="-3.0992450" lon="37.3780200">
    <ele>4664.2</ele>
    <time>2026-06-22T21:47:42Z</time>
   </trkpt>
   <trkpt lat="-3.0992410" lon="37.3780190">
    <ele>4664.3</ele>
    <time>2026-06-22T21:47:43Z</time>
   </trkpt>
   <trkpt lat="-3.0992360" lon="37.3780180">
    <ele>4664.3</ele>
    <time>2026-06-22T21:47:44Z</time>
   </trkpt>
   <trkpt lat="-3.0992320" lon="37.3780190">
    <ele>4664.3</ele>
    <time>2026-06-22T21:47:45Z</time>
   </trkpt>
   <trkpt lat="-3.0992290" lon="37.3780210">
    <ele>4664.3</ele>
    <time>2026-06-22T21:47:46Z</time>
   </trkpt>
   <trkpt lat="-3.0992260" lon="37.3780240">
    <ele>4664.4</ele>
    <time>2026-06-22T21:47:47Z</time>
   </trkpt>
   <trkpt lat="-3.0992250" lon="37.3780280">
    <ele>4664.4</ele>
    <time>2026-06-22T21:47:48Z</time>
   </trkpt>
   <trkpt lat="-3.0992210" lon="37.3780330">
    <ele>4664.4</ele>
    <time>2026-06-22T21:47:49Z</time>
   </trkpt>
   <trkpt lat="-3.0992190" lon="37.3780370">
    <ele>4664.5</ele>
    <time>2026-06-22T21:47:50Z</time>
   </trkpt>
   <trkpt lat="-3.0992150" lon="37.3780430">
    <ele>4664.5</ele>
    <time>2026-06-22T21:47:51Z</time>
   </trkpt>
   <trkpt lat="-3.0992120" lon="37.3780470">
    <ele>4664.5</ele>
    <time>2026-06-22T21:47:52Z</time>
   </trkpt>
   <trkpt lat="-3.0992070" lon="37.3780510">
    <ele>4664.6</ele>
    <time>2026-06-22T21:47:53Z</time>
   </trkpt>
   <trkpt lat="-3.0992020" lon="37.3780550">
    <ele>4664.6</ele>
    <time>2026-06-22T21:47:54Z</time>
   </trkpt>
   <trkpt lat="-3.0991970" lon="37.3780580">
    <ele>4664.6</ele>
    <time>2026-06-22T21:47:55Z</time>
   </trkpt>
   <trkpt lat="-3.0991930" lon="37.3780600">
    <ele>4664.7</ele>
    <time>2026-06-22T21:47:56Z</time>
   </trkpt>
   <trkpt lat="-3.0991890" lon="37.3780640">
    <ele>4664.7</ele>
    <time>2026-06-22T21:47:57Z</time>
   </trkpt>
   <trkpt lat="-3.0991850" lon="37.3780680">
    <ele>4664.7</ele>
    <time>2026-06-22T21:47:58Z</time>
   </trkpt>
   <trkpt lat="-3.0991820" lon="37.3780730">
    <ele>4664.8</ele>
    <time>2026-06-22T21:47:59Z</time>
   </trkpt>
   <trkpt lat="-3.0991770" lon="37.3780760">
    <ele>4664.8</ele>
    <time>2026-06-22T21:48:00Z</time>
   </trkpt>
   <trkpt lat="-3.0991680" lon="37.3780800">
    <ele>4664.9</ele>
    <time>2026-06-22T21:48:01Z</time>
   </trkpt>
   <trkpt lat="-3.0991640" lon="37.3780830">
    <ele>4664.9</ele>
    <time>2026-06-22T21:48:02Z</time>
   </trkpt>
   <trkpt lat="-3.0991590" lon="37.3780840">
    <ele>4664.9</ele>
    <time>2026-06-22T21:48:03Z</time>
   </trkpt>
   <trkpt lat="-3.0991480" lon="37.3780870">
    <ele>4665.0</ele>
    <time>2026-06-22T21:48:04Z</time>
   </trkpt>
   <trkpt lat="-3.0991440" lon="37.3780870">
    <ele>4665.0</ele>
    <time>2026-06-22T21:48:05Z</time>
   </trkpt>
   <trkpt lat="-3.0991380" lon="37.3780880">
    <ele>4665.0</ele>
    <time>2026-06-22T21:48:06Z</time>
   </trkpt>
   <trkpt lat="-3.0991330" lon="37.3780880">
    <ele>4665.1</ele>
    <time>2026-06-22T21:48:07Z</time>
   </trkpt>
   <trkpt lat="-3.0991270" lon="37.3780880">
    <ele>4665.1</ele>
    <time>2026-06-22T21:48:08Z</time>
   </trkpt>
   <trkpt lat="-3.0991220" lon="37.3780890">
    <ele>4665.1</ele>
    <time>2026-06-22T21:48:09Z</time>
   </trkpt>
   <trkpt lat="-3.0991160" lon="37.3780900">
    <ele>4665.2</ele>
    <time>2026-06-22T21:48:10Z</time>
   </trkpt>
   <trkpt lat="-3.0991120" lon="37.3780910">
    <ele>4665.2</ele>
    <time>2026-06-22T21:48:11Z</time>
   </trkpt>
   <trkpt lat="-3.0991080" lon="37.3780920">
    <ele>4665.2</ele>
    <time>2026-06-22T21:48:12Z</time>
   </trkpt>
   <trkpt lat="-3.0991010" lon="37.3780930">
    <ele>4665.3</ele>
    <time>2026-06-22T21:48:13Z</time>
   </trkpt>
   <trkpt lat="-3.0990980" lon="37.3780950">
    <ele>4665.3</ele>
    <time>2026-06-22T21:48:14Z</time>
   </trkpt>
   <trkpt lat="-3.0990910" lon="37.3780970">
    <ele>4665.3</ele>
    <time>2026-06-22T21:48:15Z</time>
   </trkpt>
   <trkpt lat="-3.0990850" lon="37.3780990">
    <ele>4665.4</ele>
    <time>2026-06-22T21:48:16Z</time>
   </trkpt>
   <trkpt lat="-3.0990790" lon="37.3781020">
    <ele>4665.4</ele>
    <time>2026-06-22T21:48:17Z</time>
   </trkpt>
   <trkpt lat="-3.0990740" lon="37.3781050">
    <ele>4665.5</ele>
    <time>2026-06-22T21:48:18Z</time>
   </trkpt>
   <trkpt lat="-3.0990700" lon="37.3781080">
    <ele>4665.5</ele>
    <time>2026-06-22T21:48:19Z</time>
   </trkpt>
   <trkpt lat="-3.0990670" lon="37.3781090">
    <ele>4665.5</ele>
    <time>2026-06-22T21:48:20Z</time>
   </trkpt>
   <trkpt lat="-3.0990580" lon="37.3781100">
    <ele>4665.6</ele>
    <time>2026-06-22T21:48:21Z</time>
   </trkpt>
   <trkpt lat="-3.0990540" lon="37.3781110">
    <ele>4665.6</ele>
    <time>2026-06-22T21:48:22Z</time>
   </trkpt>
   <trkpt lat="-3.0990510" lon="37.3781100">
    <ele>4665.7</ele>
    <time>2026-06-22T21:48:23Z</time>
   </trkpt>
   <trkpt lat="-3.0990440" lon="37.3781110">
    <ele>4665.7</ele>
    <time>2026-06-22T21:48:24Z</time>
   </trkpt>
   <trkpt lat="-3.0990400" lon="37.3781120">
    <ele>4665.8</ele>
    <time>2026-06-22T21:48:25Z</time>
   </trkpt>
   <trkpt lat="-3.0990330" lon="37.3781120">
    <ele>4665.8</ele>
    <time>2026-06-22T21:48:26Z</time>
   </trkpt>
   <trkpt lat="-3.0990270" lon="37.3781130">
    <ele>4665.9</ele>
    <time>2026-06-22T21:48:27Z</time>
   </trkpt>
   <trkpt lat="-3.0990230" lon="37.3781160">
    <ele>4665.9</ele>
    <time>2026-06-22T21:48:28Z</time>
   </trkpt>
   <trkpt lat="-3.0990190" lon="37.3781150">
    <ele>4666.0</ele>
    <time>2026-06-22T21:48:29Z</time>
   </trkpt>
   <trkpt lat="-3.0990160" lon="37.3781150">
    <ele>4666.0</ele>
    <time>2026-06-22T21:48:30Z</time>
   </trkpt>
   <trkpt lat="-3.0990060" lon="37.3781150">
    <ele>4666.1</ele>
    <time>2026-06-22T21:48:31Z</time>
   </trkpt>
   <trkpt lat="-3.0990040" lon="37.3781140">
    <ele>4666.1</ele>
    <time>2026-06-22T21:48:32Z</time>
   </trkpt>
   <trkpt lat="-3.0989980" lon="37.3781130">
    <ele>4666.1</ele>
    <time>2026-06-22T21:48:33Z</time>
   </trkpt>
   <trkpt lat="-3.0989900" lon="37.3781140">
    <ele>4666.2</ele>
    <time>2026-06-22T21:48:34Z</time>
   </trkpt>
   <trkpt lat="-3.0989870" lon="37.3781160">
    <ele>4666.2</ele>
    <time>2026-06-22T21:48:35Z</time>
   </trkpt>
   <trkpt lat="-3.0989820" lon="37.3781200">
    <ele>4666.3</ele>
    <time>2026-06-22T21:48:36Z</time>
   </trkpt>
   <trkpt lat="-3.0989770" lon="37.3781240">
    <ele>4666.4</ele>
    <time>2026-06-22T21:48:37Z</time>
   </trkpt>
   <trkpt lat="-3.0989730" lon="37.3781270">
    <ele>4666.4</ele>
    <time>2026-06-22T21:48:38Z</time>
   </trkpt>
   <trkpt lat="-3.0989680" lon="37.3781280">
    <ele>4666.5</ele>
    <time>2026-06-22T21:48:39Z</time>
   </trkpt>
   <trkpt lat="-3.0989620" lon="37.3781280">
    <ele>4666.5</ele>
    <time>2026-06-22T21:48:40Z</time>
   </trkpt>
   <trkpt lat="-3.0989580" lon="37.3781270">
    <ele>4666.6</ele>
    <time>2026-06-22T21:48:41Z</time>
   </trkpt>
   <trkpt lat="-3.0989540" lon="37.3781260">
    <ele>4666.6</ele>
    <time>2026-06-22T21:48:42Z</time>
   </trkpt>
   <trkpt lat="-3.0989470" lon="37.3781250">
    <ele>4666.7</ele>
    <time>2026-06-22T21:48:43Z</time>
   </trkpt>
   <trkpt lat="-3.0989400" lon="37.3781240">
    <ele>4666.7</ele>
    <time>2026-06-22T21:48:44Z</time>
   </trkpt>
   <trkpt lat="-3.0989360" lon="37.3781240">
    <ele>4666.7</ele>
    <time>2026-06-22T21:48:45Z</time>
   </trkpt>
   <trkpt lat="-3.0989290" lon="37.3781230">
    <ele>4666.8</ele>
    <time>2026-06-22T21:48:46Z</time>
   </trkpt>
   <trkpt lat="-3.0989210" lon="37.3781220">
    <ele>4666.9</ele>
    <time>2026-06-22T21:48:47Z</time>
   </trkpt>
   <trkpt lat="-3.0989180" lon="37.3781240">
    <ele>4666.9</ele>
    <time>2026-06-22T21:48:48Z</time>
   </trkpt>
   <trkpt lat="-3.0989130" lon="37.3781230">
    <ele>4666.9</ele>
    <time>2026-06-22T21:48:49Z</time>
   </trkpt>
   <trkpt lat="-3.0989080" lon="37.3781250">
    <ele>4667.0</ele>
    <time>2026-06-22T21:48:50Z</time>
   </trkpt>
   <trkpt lat="-3.0989010" lon="37.3781250">
    <ele>4667.0</ele>
    <time>2026-06-22T21:48:51Z</time>
   </trkpt>
   <trkpt lat="-3.0988980" lon="37.3781250">
    <ele>4667.0</ele>
    <time>2026-06-22T21:48:52Z</time>
   </trkpt>
   <trkpt lat="-3.0988930" lon="37.3781250">
    <ele>4667.1</ele>
    <time>2026-06-22T21:48:53Z</time>
   </trkpt>
   <trkpt lat="-3.0988920" lon="37.3781250">
    <ele>4667.1</ele>
    <time>2026-06-22T21:48:54Z</time>
   </trkpt>
   <trkpt lat="-3.0988820" lon="37.3781240">
    <ele>4667.2</ele>
    <time>2026-06-22T21:48:55Z</time>
   </trkpt>
   <trkpt lat="-3.0988790" lon="37.3781240">
    <ele>4667.2</ele>
    <time>2026-06-22T21:48:56Z</time>
   </trkpt>
   <trkpt lat="-3.0988730" lon="37.3781230">
    <ele>4667.2</ele>
    <time>2026-06-22T21:48:57Z</time>
   </trkpt>
   <trkpt lat="-3.0988700" lon="37.3781230">
    <ele>4667.3</ele>
    <time>2026-06-22T21:48:58Z</time>
   </trkpt>
   <trkpt lat="-3.0988660" lon="37.3781240">
    <ele>4667.3</ele>
    <time>2026-06-22T21:48:59Z</time>
   </trkpt>
   <trkpt lat="-3.0988590" lon="37.3781240">
    <ele>4667.3</ele>
    <time>2026-06-22T21:49:00Z</time>
   </trkpt>
   <trkpt lat="-3.0988550" lon="37.3781270">
    <ele>4667.4</ele>
    <time>2026-06-22T21:49:01Z</time>
   </trkpt>
   <trkpt lat="-3.0988510" lon="37.3781280">
    <ele>4667.4</ele>
    <time>2026-06-22T21:49:02Z</time>
   </trkpt>
   <trkpt lat="-3.0988470" lon="37.3781300">
    <ele>4667.4</ele>
    <time>2026-06-22T21:49:03Z</time>
   </trkpt>
   <trkpt lat="-3.0988440" lon="37.3781310">
    <ele>4667.5</ele>
    <time>2026-06-22T21:49:04Z</time>
   </trkpt>
   <trkpt lat="-3.0988370" lon="37.3781340">
    <ele>4667.5</ele>
    <time>2026-06-22T21:49:05Z</time>
   </trkpt>
   <trkpt lat="-3.0988320" lon="37.3781360">
    <ele>4667.6</ele>
    <time>2026-06-22T21:49:06Z</time>
   </trkpt>
   <trkpt lat="-3.0988270" lon="37.3781370">
    <ele>4667.6</ele>
    <time>2026-06-22T21:49:07Z</time>
   </trkpt>
   <trkpt lat="-3.0988210" lon="37.3781390">
    <ele>4667.7</ele>
    <time>2026-06-22T21:49:08Z</time>
   </trkpt>
   <trkpt lat="-3.0988150" lon="37.3781400">
    <ele>4667.7</ele>
    <time>2026-06-22T21:49:09Z</time>
   </trkpt>
   <trkpt lat="-3.0988110" lon="37.3781420">
    <ele>4667.7</ele>
    <time>2026-06-22T21:49:10Z</time>
   </trkpt>
   <trkpt lat="-3.0988070" lon="37.3781430">
    <ele>4667.8</ele>
    <time>2026-06-22T21:49:11Z</time>
   </trkpt>
   <trkpt lat="-3.0988030" lon="37.3781440">
    <ele>4667.8</ele>
    <time>2026-06-22T21:49:12Z</time>
   </trkpt>
   <trkpt lat="-3.0987980" lon="37.3781440">
    <ele>4667.8</ele>
    <time>2026-06-22T21:49:13Z</time>
   </trkpt>
   <trkpt lat="-3.0987940" lon="37.3781450">
    <ele>4667.9</ele>
    <time>2026-06-22T21:49:14Z</time>
   </trkpt>
   <trkpt lat="-3.0987890" lon="37.3781490">
    <ele>4667.9</ele>
    <time>2026-06-22T21:49:15Z</time>
   </trkpt>
   <trkpt lat="-3.0987840" lon="37.3781500">
    <ele>4668.0</ele>
    <time>2026-06-22T21:49:16Z</time>
   </trkpt>
   <trkpt lat="-3.0987800" lon="37.3781510">
    <ele>4668.0</ele>
    <time>2026-06-22T21:49:17Z</time>
   </trkpt>
   <trkpt lat="-3.0987760" lon="37.3781520">
    <ele>4668.0</ele>
    <time>2026-06-22T21:49:18Z</time>
   </trkpt>
   <trkpt lat="-3.0987750" lon="37.3781540">
    <ele>4668.0</ele>
    <time>2026-06-22T21:49:19Z</time>
   </trkpt>
   <trkpt lat="-3.0987680" lon="37.3781590">
    <ele>4668.1</ele>
    <time>2026-06-22T21:49:20Z</time>
   </trkpt>
   <trkpt lat="-3.0987650" lon="37.3781650">
    <ele>4668.2</ele>
    <time>2026-06-22T21:49:21Z</time>
   </trkpt>
   <trkpt lat="-3.0987630" lon="37.3781690">
    <ele>4668.2</ele>
    <time>2026-06-22T21:49:22Z</time>
   </trkpt>
   <trkpt lat="-3.0987570" lon="37.3781710">
    <ele>4668.2</ele>
    <time>2026-06-22T21:49:23Z</time>
   </trkpt>
   <trkpt lat="-3.0987540" lon="37.3781720">
    <ele>4668.3</ele>
    <time>2026-06-22T21:49:24Z</time>
   </trkpt>
   <trkpt lat="-3.0987500" lon="37.3781730">
    <ele>4668.3</ele>
    <time>2026-06-22T21:49:25Z</time>
   </trkpt>
   <trkpt lat="-3.0987440" lon="37.3781720">
    <ele>4668.3</ele>
    <time>2026-06-22T21:49:26Z</time>
   </trkpt>
   <trkpt lat="-3.0987420" lon="37.3781710">
    <ele>4668.4</ele>
    <time>2026-06-22T21:49:27Z</time>
   </trkpt>
   <trkpt lat="-3.0987380" lon="37.3781690">
    <ele>4668.4</ele>
    <time>2026-06-22T21:49:28Z</time>
   </trkpt>
   <trkpt lat="-3.0987350" lon="37.3781680">
    <ele>4668.4</ele>
    <time>2026-06-22T21:49:29Z</time>
   </trkpt>
   <trkpt lat="-3.0987290" lon="37.3781620">
    <ele>4668.5</ele>
    <time>2026-06-22T21:49:30Z</time>
   </trkpt>
   <trkpt lat="-3.0987220" lon="37.3781640">
    <ele>4668.6</ele>
    <time>2026-06-22T21:49:31Z</time>
   </trkpt>
   <trkpt lat="-3.0987220" lon="37.3781640">
    <ele>4668.6</ele>
    <time>2026-06-22T21:49:32Z</time>
   </trkpt>
   <trkpt lat="-3.0987170" lon="37.3781640">
    <ele>4668.6</ele>
    <time>2026-06-22T21:49:33Z</time>
   </trkpt>
   <trkpt lat="-3.0987110" lon="37.3781640">
    <ele>4668.7</ele>
    <time>2026-06-22T21:49:34Z</time>
   </trkpt>
   <trkpt lat="-3.0987070" lon="37.3781640">
    <ele>4668.7</ele>
    <time>2026-06-22T21:49:35Z</time>
   </trkpt>
   <trkpt lat="-3.0986990" lon="37.3781680">
    <ele>4668.8</ele>
    <time>2026-06-22T21:49:36Z</time>
   </trkpt>
   <trkpt lat="-3.0986970" lon="37.3781680">
    <ele>4668.8</ele>
    <time>2026-06-22T21:49:37Z</time>
   </trkpt>
   <trkpt lat="-3.0986930" lon="37.3781690">
    <ele>4668.8</ele>
    <time>2026-06-22T21:49:38Z</time>
   </trkpt>
   <trkpt lat="-3.0986890" lon="37.3781710">
    <ele>4668.9</ele>
    <time>2026-06-22T21:49:39Z</time>
   </trkpt>
   <trkpt lat="-3.0986860" lon="37.3781740">
    <ele>4668.9</ele>
    <time>2026-06-22T21:49:40Z</time>
   </trkpt>
   <trkpt lat="-3.0986810" lon="37.3781780">
    <ele>4669.0</ele>
    <time>2026-06-22T21:49:41Z</time>
   </trkpt>
   <trkpt lat="-3.0986750" lon="37.3781790">
    <ele>4669.0</ele>
    <time>2026-06-22T21:49:42Z</time>
   </trkpt>
   <trkpt lat="-3.0986730" lon="37.3781810">
    <ele>4669.0</ele>
    <time>2026-06-22T21:49:43Z</time>
   </trkpt>
   <trkpt lat="-3.0986680" lon="37.3781830">
    <ele>4669.1</ele>
    <time>2026-06-22T21:49:44Z</time>
   </trkpt>
   <trkpt lat="-3.0986610" lon="37.3781840">
    <ele>4669.2</ele>
    <time>2026-06-22T21:49:45Z</time>
   </trkpt>
   <trkpt lat="-3.0986550" lon="37.3781860">
    <ele>4669.2</ele>
    <time>2026-06-22T21:49:46Z</time>
   </trkpt>
   <trkpt lat="-3.0986520" lon="37.3781830">
    <ele>4669.3</ele>
    <time>2026-06-22T21:49:47Z</time>
   </trkpt>
   <trkpt lat="-3.0986470" lon="37.3781840">
    <ele>4669.3</ele>
    <time>2026-06-22T21:49:48Z</time>
   </trkpt>
   <trkpt lat="-3.0986410" lon="37.3781830">
    <ele>4669.4</ele>
    <time>2026-06-22T21:49:49Z</time>
   </trkpt>
   <trkpt lat="-3.0986340" lon="37.3781840">
    <ele>4669.4</ele>
    <time>2026-06-22T21:49:50Z</time>
   </trkpt>
   <trkpt lat="-3.0986330" lon="37.3781840">
    <ele>4669.4</ele>
    <time>2026-06-22T21:49:51Z</time>
   </trkpt>
   <trkpt lat="-3.0986260" lon="37.3781870">
    <ele>4669.5</ele>
    <time>2026-06-22T21:49:52Z</time>
   </trkpt>
   <trkpt lat="-3.0986200" lon="37.3781890">
    <ele>4669.6</ele>
    <time>2026-06-22T21:49:53Z</time>
   </trkpt>
   <trkpt lat="-3.0986190" lon="37.3781910">
    <ele>4669.6</ele>
    <time>2026-06-22T21:49:54Z</time>
   </trkpt>
   <trkpt lat="-3.0986170" lon="37.3781920">
    <ele>4669.6</ele>
    <time>2026-06-22T21:49:55Z</time>
   </trkpt>
   <trkpt lat="-3.0986070" lon="37.3781990">
    <ele>4669.8</ele>
    <time>2026-06-22T21:49:56Z</time>
   </trkpt>
   <trkpt lat="-3.0986040" lon="37.3782030">
    <ele>4669.8</ele>
    <time>2026-06-22T21:49:57Z</time>
   </trkpt>
   <trkpt lat="-3.0986020" lon="37.3782050">
    <ele>4669.9</ele>
    <time>2026-06-22T21:49:58Z</time>
   </trkpt>
   <trkpt lat="-3.0985980" lon="37.3782090">
    <ele>4669.9</ele>
    <time>2026-06-22T21:49:59Z</time>
   </trkpt>
   <trkpt lat="-3.0985920" lon="37.3782120">
    <ele>4670.0</ele>
    <time>2026-06-22T21:50:00Z</time>
   </trkpt>
   <trkpt lat="-3.0985880" lon="37.3782160">
    <ele>4670.1</ele>
    <time>2026-06-22T21:50:01Z</time>
   </trkpt>
   <trkpt lat="-3.0985850" lon="37.3782160">
    <ele>4670.1</ele>
    <time>2026-06-22T21:50:02Z</time>
   </trkpt>
   <trkpt lat="-3.0985780" lon="37.3782180">
    <ele>4670.2</ele>
    <time>2026-06-22T21:50:03Z</time>
   </trkpt>
   <trkpt lat="-3.0985740" lon="37.3782190">
    <ele>4670.2</ele>
    <time>2026-06-22T21:50:04Z</time>
   </trkpt>
   <trkpt lat="-3.0985710" lon="37.3782210">
    <ele>4670.3</ele>
    <time>2026-06-22T21:50:05Z</time>
   </trkpt>
   <trkpt lat="-3.0985670" lon="37.3782230">
    <ele>4670.3</ele>
    <time>2026-06-22T21:50:06Z</time>
   </trkpt>
   <trkpt lat="-3.0985650" lon="37.3782250">
    <ele>4670.4</ele>
    <time>2026-06-22T21:50:07Z</time>
   </trkpt>
   <trkpt lat="-3.0985610" lon="37.3782290">
    <ele>4670.5</ele>
    <time>2026-06-22T21:50:08Z</time>
   </trkpt>
   <trkpt lat="-3.0985550" lon="37.3782300">
    <ele>4670.5</ele>
    <time>2026-06-22T21:50:09Z</time>
   </trkpt>
   <trkpt lat="-3.0985550" lon="37.3782310">
    <ele>4670.5</ele>
    <time>2026-06-22T21:50:10Z</time>
   </trkpt>
   <trkpt lat="-3.0985500" lon="37.3782290">
    <ele>4670.6</ele>
    <time>2026-06-22T21:50:11Z</time>
   </trkpt>
   <trkpt lat="-3.0985480" lon="37.3782280">
    <ele>4670.6</ele>
    <time>2026-06-22T21:50:12Z</time>
   </trkpt>
   <trkpt lat="-3.0985440" lon="37.3782280">
    <ele>4670.7</ele>
    <time>2026-06-22T21:50:13Z</time>
   </trkpt>
   <trkpt lat="-3.0985420" lon="37.3782270">
    <ele>4670.7</ele>
    <time>2026-06-22T21:50:14Z</time>
   </trkpt>
   <trkpt lat="-3.0985370" lon="37.3782270">
    <ele>4670.8</ele>
    <time>2026-06-22T21:50:15Z</time>
   </trkpt>
   <trkpt lat="-3.0985370" lon="37.3782270">
    <ele>4670.8</ele>
    <time>2026-06-22T21:50:16Z</time>
   </trkpt>
   <trkpt lat="-3.0985330" lon="37.3782300">
    <ele>4670.8</ele>
    <time>2026-06-22T21:50:17Z</time>
   </trkpt>
   <trkpt lat="-3.0985310" lon="37.3782290">
    <ele>4670.9</ele>
    <time>2026-06-22T21:50:18Z</time>
   </trkpt>
   <trkpt lat="-3.0985270" lon="37.3782300">
    <ele>4670.9</ele>
    <time>2026-06-22T21:50:19Z</time>
   </trkpt>
   <trkpt lat="-3.0985240" lon="37.3782310">
    <ele>4671.0</ele>
    <time>2026-06-22T21:50:20Z</time>
   </trkpt>
   <trkpt lat="-3.0985200" lon="37.3782330">
    <ele>4671.0</ele>
    <time>2026-06-22T21:50:21Z</time>
   </trkpt>
   <trkpt lat="-3.0985160" lon="37.3782330">
    <ele>4671.1</ele>
    <time>2026-06-22T21:50:22Z</time>
   </trkpt>
   <trkpt lat="-3.0985100" lon="37.3782320">
    <ele>4671.2</ele>
    <time>2026-06-22T21:50:23Z</time>
   </trkpt>
   <trkpt lat="-3.0985080" lon="37.3782320">
    <ele>4671.2</ele>
    <time>2026-06-22T21:50:24Z</time>
   </trkpt>
   <trkpt lat="-3.0985040" lon="37.3782310">
    <ele>4671.3</ele>
    <time>2026-06-22T21:50:25Z</time>
   </trkpt>
   <trkpt lat="-3.0985010" lon="37.3782290">
    <ele>4671.3</ele>
    <time>2026-06-22T21:50:26Z</time>
   </trkpt>
   <trkpt lat="-3.0985000" lon="37.3782280">
    <ele>4671.4</ele>
    <time>2026-06-22T21:50:27Z</time>
   </trkpt>
   <trkpt lat="-3.0984970" lon="37.3782260">
    <ele>4671.4</ele>
    <time>2026-06-22T21:50:28Z</time>
   </trkpt>
   <trkpt lat="-3.0984980" lon="37.3782240">
    <ele>4671.5</ele>
    <time>2026-06-22T21:50:29Z</time>
   </trkpt>
   <trkpt lat="-3.0984940" lon="37.3782220">
    <ele>4671.5</ele>
    <time>2026-06-22T21:50:30Z</time>
   </trkpt>
   <trkpt lat="-3.0984960" lon="37.3782190">
    <ele>4671.6</ele>
    <time>2026-06-22T21:50:31Z</time>
   </trkpt>
   <trkpt lat="-3.0984930" lon="37.3782160">
    <ele>4671.6</ele>
    <time>2026-06-22T21:50:32Z</time>
   </trkpt>
   <trkpt lat="-3.0984900" lon="37.3782100">
    <ele>4671.7</ele>
    <time>2026-06-22T21:50:33Z</time>
   </trkpt>
   <trkpt lat="-3.0984880" lon="37.3782070">
    <ele>4671.8</ele>
    <time>2026-06-22T21:50:34Z</time>
   </trkpt>
   <trkpt lat="-3.0984860" lon="37.3782040">
    <ele>4671.8</ele>
    <time>2026-06-22T21:50:35Z</time>
   </trkpt>
   <trkpt lat="-3.0984830" lon="37.3782040">
    <ele>4671.9</ele>
    <time>2026-06-22T21:50:36Z</time>
   </trkpt>
   <trkpt lat="-3.0984810" lon="37.3782050">
    <ele>4671.9</ele>
    <time>2026-06-22T21:50:37Z</time>
   </trkpt>
   <trkpt lat="-3.0984770" lon="37.3782060">
    <ele>4672.0</ele>
    <time>2026-06-22T21:50:38Z</time>
   </trkpt>
   <trkpt lat="-3.0984730" lon="37.3782100">
    <ele>4672.1</ele>
    <time>2026-06-22T21:50:39Z</time>
   </trkpt>
   <trkpt lat="-3.0984730" lon="37.3782080">
    <ele>4672.1</ele>
    <time>2026-06-22T21:50:40Z</time>
   </trkpt>
   <trkpt lat="-3.0984700" lon="37.3782130">
    <ele>4672.2</ele>
    <time>2026-06-22T21:50:41Z</time>
   </trkpt>
   <trkpt lat="-3.0984650" lon="37.3782140">
    <ele>4672.3</ele>
    <time>2026-06-22T21:50:42Z</time>
   </trkpt>
   <trkpt lat="-3.0984630" lon="37.3782130">
    <ele>4672.3</ele>
    <time>2026-06-22T21:50:43Z</time>
   </trkpt>
   <trkpt lat="-3.0984610" lon="37.3782130">
    <ele>4672.4</ele>
    <time>2026-06-22T21:50:44Z</time>
   </trkpt>
   <trkpt lat="-3.0984570" lon="37.3782110">
    <ele>4672.4</ele>
    <time>2026-06-22T21:50:45Z</time>
   </trkpt>
   <trkpt lat="-3.0984520" lon="37.3782110">
    <ele>4672.5</ele>
    <time>2026-06-22T21:50:46Z</time>
   </trkpt>
   <trkpt lat="-3.0984490" lon="37.3782110">
    <ele>4672.6</ele>
    <time>2026-06-22T21:50:47Z</time>
   </trkpt>
   <trkpt lat="-3.0984480" lon="37.3782090">
    <ele>4672.6</ele>
    <time>2026-06-22T21:50:48Z</time>
   </trkpt>
   <trkpt lat="-3.0984460" lon="37.3782070">
    <ele>4672.7</ele>
    <time>2026-06-22T21:50:49Z</time>
   </trkpt>
   <trkpt lat="-3.0984420" lon="37.3782040">
    <ele>4672.7</ele>
    <time>2026-06-22T21:50:50Z</time>
   </trkpt>
   <trkpt lat="-3.0984390" lon="37.3782020">
    <ele>4672.8</ele>
    <time>2026-06-22T21:50:51Z</time>
   </trkpt>
   <trkpt lat="-3.0984330" lon="37.3782020">
    <ele>4672.9</ele>
    <time>2026-06-22T21:50:52Z</time>
   </trkpt>
   <trkpt lat="-3.0984320" lon="37.3782020">
    <ele>4672.9</ele>
    <time>2026-06-22T21:50:53Z</time>
   </trkpt>
   <trkpt lat="-3.0984280" lon="37.3782020">
    <ele>4673.0</ele>
    <time>2026-06-22T21:50:54Z</time>
   </trkpt>
   <trkpt lat="-3.0984290" lon="37.3782020">
    <ele>4673.0</ele>
    <time>2026-06-22T21:50:55Z</time>
   </trkpt>
   <trkpt lat="-3.0984230" lon="37.3782020">
    <ele>4673.1</ele>
    <time>2026-06-22T21:50:56Z</time>
   </trkpt>
   <trkpt lat="-3.0984220" lon="37.3782010">
    <ele>4673.2</ele>
    <time>2026-06-22T21:50:57Z</time>
   </trkpt>
   <trkpt lat="-3.0984200" lon="37.3781990">
    <ele>4673.2</ele>
    <time>2026-06-22T21:50:58Z</time>
   </trkpt>
   <trkpt lat="-3.0984170" lon="37.3781960">
    <ele>4673.3</ele>
    <time>2026-06-22T21:50:59Z</time>
   </trkpt>
   <trkpt lat="-3.0984140" lon="37.3781950">
    <ele>4673.3</ele>
    <time>2026-06-22T21:51:00Z</time>
   </trkpt>
   <trkpt lat="-3.0984120" lon="37.3781920">
    <ele>4673.4</ele>
    <time>2026-06-22T21:51:01Z</time>
   </trkpt>
   <trkpt lat="-3.0984120" lon="37.3781850">
    <ele>4673.5</ele>
    <time>2026-06-22T21:51:02Z</time>
   </trkpt>
   <trkpt lat="-3.0984080" lon="37.3781850">
    <ele>4673.6</ele>
    <time>2026-06-22T21:51:03Z</time>
   </trkpt>
   <trkpt lat="-3.0984090" lon="37.3781830">
    <ele>4673.6</ele>
    <time>2026-06-22T21:51:04Z</time>
   </trkpt>
   <trkpt lat="-3.0984070" lon="37.3781800">
    <ele>4673.7</ele>
    <time>2026-06-22T21:51:05Z</time>
   </trkpt>
   <trkpt lat="-3.0984070" lon="37.3781800">
    <ele>4673.7</ele>
    <time>2026-06-22T21:51:06Z</time>
   </trkpt>
   <trkpt lat="-3.0984040" lon="37.3781760">
    <ele>4673.8</ele>
    <time>2026-06-22T21:51:07Z</time>
   </trkpt>
   <trkpt lat="-3.0984000" lon="37.3781760">
    <ele>4673.9</ele>
    <time>2026-06-22T21:51:08Z</time>
   </trkpt>
   <trkpt lat="-3.0983960" lon="37.3781760">
    <ele>4673.9</ele>
    <time>2026-06-22T21:51:09Z</time>
   </trkpt>
   <trkpt lat="-3.0983940" lon="37.3781760">
    <ele>4674.0</ele>
    <time>2026-06-22T21:51:10Z</time>
   </trkpt>
   <trkpt lat="-3.0983910" lon="37.3781780">
    <ele>4674.0</ele>
    <time>2026-06-22T21:51:11Z</time>
   </trkpt>
   <trkpt lat="-3.0983900" lon="37.3781790">
    <ele>4674.1</ele>
    <time>2026-06-22T21:51:12Z</time>
   </trkpt>
   <trkpt lat="-3.0983830" lon="37.3781820">
    <ele>4674.2</ele>
    <time>2026-06-22T21:51:13Z</time>
   </trkpt>
   <trkpt lat="-3.0983780" lon="37.3781850">
    <ele>4674.3</ele>
    <time>2026-06-22T21:51:14Z</time>
   </trkpt>
   <trkpt lat="-3.0983750" lon="37.3781880">
    <ele>4674.4</ele>
    <time>2026-06-22T21:51:15Z</time>
   </trkpt>
   <trkpt lat="-3.0983750" lon="37.3781900">
    <ele>4674.4</ele>
    <time>2026-06-22T21:51:16Z</time>
   </trkpt>
   <trkpt lat="-3.0983750" lon="37.3781930">
    <ele>4674.5</ele>
    <time>2026-06-22T21:51:17Z</time>
   </trkpt>
   <trkpt lat="-3.0983700" lon="37.3781980">
    <ele>4674.6</ele>
    <time>2026-06-22T21:51:18Z</time>
   </trkpt>
   <trkpt lat="-3.0983690" lon="37.3782000">
    <ele>4674.6</ele>
    <time>2026-06-22T21:51:19Z</time>
   </trkpt>
   <trkpt lat="-3.0983660" lon="37.3782000">
    <ele>4674.7</ele>
    <time>2026-06-22T21:51:20Z</time>
   </trkpt>
   <trkpt lat="-3.0983630" lon="37.3782020">
    <ele>4674.8</ele>
    <time>2026-06-22T21:51:21Z</time>
   </trkpt>
   <trkpt lat="-3.0983600" lon="37.3781990">
    <ele>4674.8</ele>
    <time>2026-06-22T21:51:22Z</time>
   </trkpt>
   <trkpt lat="-3.0983570" lon="37.3781990">
    <ele>4674.9</ele>
    <time>2026-06-22T21:51:23Z</time>
   </trkpt>
   <trkpt lat="-3.0983510" lon="37.3781980">
    <ele>4675.0</ele>
    <time>2026-06-22T21:51:24Z</time>
   </trkpt>
   <trkpt lat="-3.0983470" lon="37.3781940">
    <ele>4675.1</ele>
    <time>2026-06-22T21:51:25Z</time>
   </trkpt>
   <trkpt lat="-3.0983460" lon="37.3781940">
    <ele>4675.1</ele>
    <time>2026-06-22T21:51:26Z</time>
   </trkpt>
   <trkpt lat="-3.0983420" lon="37.3781900">
    <ele>4675.2</ele>
    <time>2026-06-22T21:51:27Z</time>
   </trkpt>
   <trkpt lat="-3.0983380" lon="37.3781900">
    <ele>4675.3</ele>
    <time>2026-06-22T21:51:28Z</time>
   </trkpt>
   <trkpt lat="-3.0983350" lon="37.3781880">
    <ele>4675.4</ele>
    <time>2026-06-22T21:51:29Z</time>
   </trkpt>
   <trkpt lat="-3.0983310" lon="37.3781870">
    <ele>4675.4</ele>
    <time>2026-06-22T21:51:30Z</time>
   </trkpt>
   <trkpt lat="-3.0983290" lon="37.3781870">
    <ele>4675.5</ele>
    <time>2026-06-22T21:51:31Z</time>
   </trkpt>
   <trkpt lat="-3.0983260" lon="37.3781860">
    <ele>4675.5</ele>
    <time>2026-06-22T21:51:32Z</time>
   </trkpt>
   <trkpt lat="-3.0983240" lon="37.3781880">
    <ele>4675.6</ele>
    <time>2026-06-22T21:51:33Z</time>
   </trkpt>
   <trkpt lat="-3.0983170" lon="37.3781870">
    <ele>4675.7</ele>
    <time>2026-06-22T21:51:34Z</time>
   </trkpt>
   <trkpt lat="-3.0983170" lon="37.3781920">
    <ele>4675.8</ele>
    <time>2026-06-22T21:51:35Z</time>
   </trkpt>
   <trkpt lat="-3.0983110" lon="37.3781930">
    <ele>4675.9</ele>
    <time>2026-06-22T21:51:36Z</time>
   </trkpt>
   <trkpt lat="-3.0983090" lon="37.3781950">
    <ele>4676.0</ele>
    <time>2026-06-22T21:51:37Z</time>
   </trkpt>
   <trkpt lat="-3.0983060" lon="37.3781980">
    <ele>4676.0</ele>
    <time>2026-06-22T21:51:38Z</time>
   </trkpt>
   <trkpt lat="-3.0983070" lon="37.3782000">
    <ele>4676.1</ele>
    <time>2026-06-22T21:51:39Z</time>
   </trkpt>
   <trkpt lat="-3.0983050" lon="37.3782020">
    <ele>4676.1</ele>
    <time>2026-06-22T21:51:40Z</time>
   </trkpt>
   <trkpt lat="-3.0983020" lon="37.3782030">
    <ele>4676.2</ele>
    <time>2026-06-22T21:51:41Z</time>
   </trkpt>
   <trkpt lat="-3.0982990" lon="37.3782050">
    <ele>4676.2</ele>
    <time>2026-06-22T21:51:42Z</time>
   </trkpt>
   <trkpt lat="-3.0982960" lon="37.3782060">
    <ele>4676.3</ele>
    <time>2026-06-22T21:51:43Z</time>
   </trkpt>
   <trkpt lat="-3.0982920" lon="37.3782080">
    <ele>4676.4</ele>
    <time>2026-06-22T21:51:44Z</time>
   </trkpt>
   <trkpt lat="-3.0982910" lon="37.3782080">
    <ele>4676.4</ele>
    <time>2026-06-22T21:51:45Z</time>
   </trkpt>
   <trkpt lat="-3.0982860" lon="37.3782080">
    <ele>4676.5</ele>
    <time>2026-06-22T21:51:46Z</time>
   </trkpt>
   <trkpt lat="-3.0982830" lon="37.3782070">
    <ele>4676.5</ele>
    <time>2026-06-22T21:51:47Z</time>
   </trkpt>
   <trkpt lat="-3.0982820" lon="37.3782020">
    <ele>4676.6</ele>
    <time>2026-06-22T21:51:48Z</time>
   </trkpt>
   <trkpt lat="-3.0982750" lon="37.3782060">
    <ele>4676.8</ele>
    <time>2026-06-22T21:51:49Z</time>
   </trkpt>
   <trkpt lat="-3.0982730" lon="37.3782050">
    <ele>4676.8</ele>
    <time>2026-06-22T21:51:50Z</time>
   </trkpt>
   <trkpt lat="-3.0982710" lon="37.3782040">
    <ele>4676.9</ele>
    <time>2026-06-22T21:51:51Z</time>
   </trkpt>
   <trkpt lat="-3.0982690" lon="37.3782020">
    <ele>4676.9</ele>
    <time>2026-06-22T21:51:52Z</time>
   </trkpt>
   <trkpt lat="-3.0982660" lon="37.3782030">
    <ele>4677.0</ele>
    <time>2026-06-22T21:51:53Z</time>
   </trkpt>
   <trkpt lat="-3.0982630" lon="37.3782020">
    <ele>4677.0</ele>
    <time>2026-06-22T21:51:54Z</time>
   </trkpt>
   <trkpt lat="-3.0982620" lon="37.3782050">
    <ele>4677.1</ele>
    <time>2026-06-22T21:51:55Z</time>
   </trkpt>
   <trkpt lat="-3.0982590" lon="37.3782040">
    <ele>4677.1</ele>
    <time>2026-06-22T21:51:56Z</time>
   </trkpt>
   <trkpt lat="-3.0982560" lon="37.3782060">
    <ele>4677.2</ele>
    <time>2026-06-22T21:51:57Z</time>
   </trkpt>
   <trkpt lat="-3.0982520" lon="37.3782050">
    <ele>4677.3</ele>
    <time>2026-06-22T21:51:58Z</time>
   </trkpt>
   <trkpt lat="-3.0982470" lon="37.3782050">
    <ele>4677.4</ele>
    <time>2026-06-22T21:51:59Z</time>
   </trkpt>
   <trkpt lat="-3.0982460" lon="37.3782060">
    <ele>4677.4</ele>
    <time>2026-06-22T21:52:00Z</time>
   </trkpt>
   <trkpt lat="-3.0982420" lon="37.3782060">
    <ele>4677.5</ele>
    <time>2026-06-22T21:52:01Z</time>
   </trkpt>
   <trkpt lat="-3.0982410" lon="37.3782060">
    <ele>4677.5</ele>
    <time>2026-06-22T21:52:02Z</time>
   </trkpt>
   <trkpt lat="-3.0982370" lon="37.3782050">
    <ele>4677.6</ele>
    <time>2026-06-22T21:52:03Z</time>
   </trkpt>
   <trkpt lat="-3.0982330" lon="37.3782040">
    <ele>4677.6</ele>
    <time>2026-06-22T21:52:04Z</time>
   </trkpt>
   <trkpt lat="-3.0982270" lon="37.3782040">
    <ele>4677.7</ele>
    <time>2026-06-22T21:52:05Z</time>
   </trkpt>
   <trkpt lat="-3.0982230" lon="37.3782060">
    <ele>4677.8</ele>
    <time>2026-06-22T21:52:06Z</time>
   </trkpt>
   <trkpt lat="-3.0982250" lon="37.3782160">
    <ele>4678.0</ele>
    <time>2026-06-22T21:52:07Z</time>
   </trkpt>
   <trkpt lat="-3.0982170" lon="37.3782100">
    <ele>4678.2</ele>
    <time>2026-06-22T21:52:08Z</time>
   </trkpt>
   <trkpt lat="-3.0982150" lon="37.3782150">
    <ele>4678.3</ele>
    <time>2026-06-22T21:52:09Z</time>
   </trkpt>
   <trkpt lat="-3.0982140" lon="37.3782170">
    <ele>4678.3</ele>
    <time>2026-06-22T21:52:10Z</time>
   </trkpt>
   <trkpt lat="-3.0982110" lon="37.3782180">
    <ele>4678.4</ele>
    <time>2026-06-22T21:52:11Z</time>
   </trkpt>
   <trkpt lat="-3.0982070" lon="37.3782200">
    <ele>4678.5</ele>
    <time>2026-06-22T21:52:12Z</time>
   </trkpt>
   <trkpt lat="-3.0982040" lon="37.3782200">
    <ele>4678.5</ele>
    <time>2026-06-22T21:52:13Z</time>
   </trkpt>
   <trkpt lat="-3.0982010" lon="37.3782230">
    <ele>4678.6</ele>
    <time>2026-06-22T21:52:14Z</time>
   </trkpt>
   <trkpt lat="-3.0981950" lon="37.3782230">
    <ele>4678.7</ele>
    <time>2026-06-22T21:52:15Z</time>
   </trkpt>
   <trkpt lat="-3.0981920" lon="37.3782240">
    <ele>4678.8</ele>
    <time>2026-06-22T21:52:16Z</time>
   </trkpt>
   <trkpt lat="-3.0981890" lon="37.3782220">
    <ele>4678.8</ele>
    <time>2026-06-22T21:52:17Z</time>
   </trkpt>
   <trkpt lat="-3.0981860" lon="37.3782210">
    <ele>4678.9</ele>
    <time>2026-06-22T21:52:18Z</time>
   </trkpt>
   <trkpt lat="-3.0981820" lon="37.3782210">
    <ele>4678.9</ele>
    <time>2026-06-22T21:52:19Z</time>
   </trkpt>
   <trkpt lat="-3.0981790" lon="37.3782210">
    <ele>4679.0</ele>
    <time>2026-06-22T21:52:20Z</time>
   </trkpt>
   <trkpt lat="-3.0981780" lon="37.3782220">
    <ele>4679.0</ele>
    <time>2026-06-22T21:52:21Z</time>
   </trkpt>
   <trkpt lat="-3.0981740" lon="37.3782240">
    <ele>4679.1</ele>
    <time>2026-06-22T21:52:22Z</time>
   </trkpt>
   <trkpt lat="-3.0981700" lon="37.3782250">
    <ele>4679.2</ele>
    <time>2026-06-22T21:52:23Z</time>
   </trkpt>
   <trkpt lat="-3.0981690" lon="37.3782260">
    <ele>4679.2</ele>
    <time>2026-06-22T21:52:24Z</time>
   </trkpt>
   <trkpt lat="-3.0981660" lon="37.3782260">
    <ele>4679.3</ele>
    <time>2026-06-22T21:52:25Z</time>
   </trkpt>
   <trkpt lat="-3.0981610" lon="37.3782260">
    <ele>4679.4</ele>
    <time>2026-06-22T21:52:26Z</time>
   </trkpt>
   <trkpt lat="-3.0981590" lon="37.3782260">
    <ele>4679.4</ele>
    <time>2026-06-22T21:52:27Z</time>
   </trkpt>
   <trkpt lat="-3.0981570" lon="37.3782240">
    <ele>4679.4</ele>
    <time>2026-06-22T21:52:28Z</time>
   </trkpt>
   <trkpt lat="-3.0981530" lon="37.3782230">
    <ele>4679.5</ele>
    <time>2026-06-22T21:52:29Z</time>
   </trkpt>
   <trkpt lat="-3.0981490" lon="37.3782230">
    <ele>4679.6</ele>
    <time>2026-06-22T21:52:30Z</time>
   </trkpt>
   <trkpt lat="-3.0981470" lon="37.3782230">
    <ele>4679.6</ele>
    <time>2026-06-22T21:52:31Z</time>
   </trkpt>
   <trkpt lat="-3.0981410" lon="37.3782240">
    <ele>4679.7</ele>
    <time>2026-06-22T21:52:32Z</time>
   </trkpt>
   <trkpt lat="-3.0981400" lon="37.3782230">
    <ele>4679.8</ele>
    <time>2026-06-22T21:52:33Z</time>
   </trkpt>
   <trkpt lat="-3.0981380" lon="37.3782240">
    <ele>4679.8</ele>
    <time>2026-06-22T21:52:34Z</time>
   </trkpt>
   <trkpt lat="-3.0981330" lon="37.3782270">
    <ele>4679.9</ele>
    <time>2026-06-22T21:52:35Z</time>
   </trkpt>
   <trkpt lat="-3.0981320" lon="37.3782270">
    <ele>4679.9</ele>
    <time>2026-06-22T21:52:36Z</time>
   </trkpt>
   <trkpt lat="-3.0981260" lon="37.3782290">
    <ele>4680.1</ele>
    <time>2026-06-22T21:52:37Z</time>
   </trkpt>
   <trkpt lat="-3.0981250" lon="37.3782290">
    <ele>4680.1</ele>
    <time>2026-06-22T21:52:38Z</time>
   </trkpt>
   <trkpt lat="-3.0981210" lon="37.3782290">
    <ele>4680.2</ele>
    <time>2026-06-22T21:52:39Z</time>
   </trkpt>
   <trkpt lat="-3.0981180" lon="37.3782300">
    <ele>4680.2</ele>
    <time>2026-06-22T21:52:40Z</time>
   </trkpt>
   <trkpt lat="-3.0981140" lon="37.3782300">
    <ele>4680.3</ele>
    <time>2026-06-22T21:52:41Z</time>
   </trkpt>
   <trkpt lat="-3.0981130" lon="37.3782320">
    <ele>4680.3</ele>
    <time>2026-06-22T21:52:42Z</time>
   </trkpt>
   <trkpt lat="-3.0981070" lon="37.3782330">
    <ele>4680.5</ele>
    <time>2026-06-22T21:52:43Z</time>
   </trkpt>
   <trkpt lat="-3.0981090" lon="37.3782340">
    <ele>4680.5</ele>
    <time>2026-06-22T21:52:44Z</time>
   </trkpt>
   <trkpt lat="-3.0981040" lon="37.3782340">
    <ele>4680.6</ele>
    <time>2026-06-22T21:52:45Z</time>
   </trkpt>
   <trkpt lat="-3.0981030" lon="37.3782350">
    <ele>4680.6</ele>
    <time>2026-06-22T21:52:46Z</time>
   </trkpt>
   <trkpt lat="-3.0981000" lon="37.3782340">
    <ele>4680.7</ele>
    <time>2026-06-22T21:52:47Z</time>
   </trkpt>
   <trkpt lat="-3.0980960" lon="37.3782340">
    <ele>4680.8</ele>
    <time>2026-06-22T21:52:48Z</time>
   </trkpt>
   <trkpt lat="-3.0980970" lon="37.3782320">
    <ele>4680.8</ele>
    <time>2026-06-22T21:52:49Z</time>
   </trkpt>
   <trkpt lat="-3.0980940" lon="37.3782320">
    <ele>4680.9</ele>
    <time>2026-06-22T21:52:50Z</time>
   </trkpt>
   <trkpt lat="-3.0980920" lon="37.3782300">
    <ele>4680.9</ele>
    <time>2026-06-22T21:52:51Z</time>
   </trkpt>
   <trkpt lat="-3.0980890" lon="37.3782290">
    <ele>4681.0</ele>
    <time>2026-06-22T21:52:52Z</time>
   </trkpt>
   <trkpt lat="-3.0980900" lon="37.3782250">
    <ele>4681.1</ele>
    <time>2026-06-22T21:52:53Z</time>
   </trkpt>
   <trkpt lat="-3.0980880" lon="37.3782250">
    <ele>4681.1</ele>
    <time>2026-06-22T21:52:54Z</time>
   </trkpt>
   <trkpt lat="-3.0980840" lon="37.3782180">
    <ele>4681.3</ele>
    <time>2026-06-22T21:52:55Z</time>
   </trkpt>
   <trkpt lat="-3.0980830" lon="37.3782130">
    <ele>4681.4</ele>
    <time>2026-06-22T21:52:56Z</time>
   </trkpt>
   <trkpt lat="-3.0980830" lon="37.3782140">
    <ele>4681.4</ele>
    <time>2026-06-22T21:52:57Z</time>
   </trkpt>
   <trkpt lat="-3.0980800" lon="37.3782120">
    <ele>4681.5</ele>
    <time>2026-06-22T21:52:58Z</time>
   </trkpt>
   <trkpt lat="-3.0980780" lon="37.3782120">
    <ele>4681.5</ele>
    <time>2026-06-22T21:52:59Z</time>
   </trkpt>
   <trkpt lat="-3.0980750" lon="37.3782090">
    <ele>4681.6</ele>
    <time>2026-06-22T21:53:00Z</time>
   </trkpt>
   <trkpt lat="-3.0980750" lon="37.3782080">
    <ele>4681.6</ele>
    <time>2026-06-22T21:53:01Z</time>
   </trkpt>
   <trkpt lat="-3.0980720" lon="37.3782050">
    <ele>4681.7</ele>
    <time>2026-06-22T21:53:02Z</time>
   </trkpt>
   <trkpt lat="-3.0980710" lon="37.3782030">
    <ele>4681.8</ele>
    <time>2026-06-22T21:53:03Z</time>
   </trkpt>
   <trkpt lat="-3.0980680" lon="37.3782000">
    <ele>4681.9</ele>
    <time>2026-06-22T21:53:04Z</time>
   </trkpt>
   <trkpt lat="-3.0980670" lon="37.3782000">
    <ele>4681.9</ele>
    <time>2026-06-22T21:53:05Z</time>
   </trkpt>
   <trkpt lat="-3.0980660" lon="37.3781990">
    <ele>4681.9</ele>
    <time>2026-06-22T21:53:06Z</time>
   </trkpt>
   <trkpt lat="-3.0980650" lon="37.3781970">
    <ele>4682.0</ele>
    <time>2026-06-22T21:53:07Z</time>
   </trkpt>
   <trkpt lat="-3.0980620" lon="37.3781930">
    <ele>4682.1</ele>
    <time>2026-06-22T21:53:08Z</time>
   </trkpt>
   <trkpt lat="-3.0980640" lon="37.3781930">
    <ele>4682.1</ele>
    <time>2026-06-22T21:53:09Z</time>
   </trkpt>
   <trkpt lat="-3.0980630" lon="37.3781920">
    <ele>4682.1</ele>
    <time>2026-06-22T21:53:10Z</time>
   </trkpt>
   <trkpt lat="-3.0980620" lon="37.3781900">
    <ele>4682.2</ele>
    <time>2026-06-22T21:53:11Z</time>
   </trkpt>
   <trkpt lat="-3.0980600" lon="37.3781900">
    <ele>4682.2</ele>
    <time>2026-06-22T21:53:12Z</time>
   </trkpt>
   <trkpt lat="-3.0980600" lon="37.3781900">
    <ele>4682.2</ele>
    <time>2026-06-22T21:53:13Z</time>
   </trkpt>
   <trkpt lat="-3.0980600" lon="37.3781880">
    <ele>4682.3</ele>
    <time>2026-06-22T21:53:14Z</time>
   </trkpt>
   <trkpt lat="-3.0980590" lon="37.3781840">
    <ele>4682.4</ele>
    <time>2026-06-22T21:53:15Z</time>
   </trkpt>
   <trkpt lat="-3.0980590" lon="37.3781830">
    <ele>4682.4</ele>
    <time>2026-06-22T21:53:16Z</time>
   </trkpt>
   <trkpt lat="-3.0980560" lon="37.3781820">
    <ele>4682.5</ele>
    <time>2026-06-22T21:53:17Z</time>
   </trkpt>
   <trkpt lat="-3.0980550" lon="37.3781820">
    <ele>4682.5</ele>
    <time>2026-06-22T21:53:18Z</time>
   </trkpt>
   <trkpt lat="-3.0980510" lon="37.3781820">
    <ele>4682.6</ele>
    <time>2026-06-22T21:53:19Z</time>
   </trkpt>
   <trkpt lat="-3.0980460" lon="37.3781800">
    <ele>4682.7</ele>
    <time>2026-06-22T21:53:20Z</time>
   </trkpt>
   <trkpt lat="-3.0980460" lon="37.3781810">
    <ele>4682.7</ele>
    <time>2026-06-22T21:53:21Z</time>
   </trkpt>
   <trkpt lat="-3.0980430" lon="37.3781830">
    <ele>4682.8</ele>
    <time>2026-06-22T21:53:22Z</time>
   </trkpt>
   <trkpt lat="-3.0980380" lon="37.3781820">
    <ele>4682.9</ele>
    <time>2026-06-22T21:53:23Z</time>
   </trkpt>
   <trkpt lat="-3.0980340" lon="37.3781790">
    <ele>4683.0</ele>
    <time>2026-06-22T21:53:24Z</time>
   </trkpt>
   <trkpt lat="-3.0980350" lon="37.3781840">
    <ele>4683.1</ele>
    <time>2026-06-22T21:53:25Z</time>
   </trkpt>
   <trkpt lat="-3.0980310" lon="37.3781840">
    <ele>4683.2</ele>
    <time>2026-06-22T21:53:26Z</time>
   </trkpt>
   <trkpt lat="-3.0980270" lon="37.3781820">
    <ele>4683.3</ele>
    <time>2026-06-22T21:53:27Z</time>
   </trkpt>
   <trkpt lat="-3.0980260" lon="37.3781860">
    <ele>4683.4</ele>
    <time>2026-06-22T21:53:28Z</time>
   </trkpt>
   <trkpt lat="-3.0980260" lon="37.3781880">
    <ele>4683.5</ele>
    <time>2026-06-22T21:53:29Z</time>
   </trkpt>
   <trkpt lat="-3.0980220" lon="37.3781920">
    <ele>4683.6</ele>
    <time>2026-06-22T21:53:30Z</time>
   </trkpt>
   <trkpt lat="-3.0980190" lon="37.3781950">
    <ele>4683.7</ele>
    <time>2026-06-22T21:53:31Z</time>
   </trkpt>
   <trkpt lat="-3.0980150" lon="37.3781970">
    <ele>4683.8</ele>
    <time>2026-06-22T21:53:32Z</time>
   </trkpt>
   <trkpt lat="-3.0980130" lon="37.3782000">
    <ele>4683.9</ele>
    <time>2026-06-22T21:53:33Z</time>
   </trkpt>
   <trkpt lat="-3.0980110" lon="37.3782010">
    <ele>4684.0</ele>
    <time>2026-06-22T21:53:34Z</time>
   </trkpt>
   <trkpt lat="-3.0980070" lon="37.3782040">
    <ele>4684.1</ele>
    <time>2026-06-22T21:53:35Z</time>
   </trkpt>
   <trkpt lat="-3.0980020" lon="37.3782050">
    <ele>4684.2</ele>
    <time>2026-06-22T21:53:36Z</time>
   </trkpt>
   <trkpt lat="-3.0979980" lon="37.3782060">
    <ele>4684.3</ele>
    <time>2026-06-22T21:53:37Z</time>
   </trkpt>
   <trkpt lat="-3.0979960" lon="37.3782070">
    <ele>4684.3</ele>
    <time>2026-06-22T21:53:38Z</time>
   </trkpt>
   <trkpt lat="-3.0979950" lon="37.3782040">
    <ele>4684.4</ele>
    <time>2026-06-22T21:53:39Z</time>
   </trkpt>
   <trkpt lat="-3.0979930" lon="37.3781990">
    <ele>4684.5</ele>
    <time>2026-06-22T21:53:40Z</time>
   </trkpt>
   <trkpt lat="-3.0979940" lon="37.3782000">
    <ele>4684.6</ele>
    <time>2026-06-22T21:53:41Z</time>
   </trkpt>
   <trkpt lat="-3.0979920" lon="37.3781940">
    <ele>4684.7</ele>
    <time>2026-06-22T21:53:42Z</time>
   </trkpt>
   <trkpt lat="-3.0979890" lon="37.3781910">
    <ele>4684.8</ele>
    <time>2026-06-22T21:53:43Z</time>
   </trkpt>
   <trkpt lat="-3.0979900" lon="37.3781880">
    <ele>4684.9</ele>
    <time>2026-06-22T21:53:44Z</time>
   </trkpt>
   <trkpt lat="-3.0979890" lon="37.3781850">
    <ele>4685.0</ele>
    <time>2026-06-22T21:53:45Z</time>
   </trkpt>
   <trkpt lat="-3.0979950" lon="37.3781870">
    <ele>4685.1</ele>
    <time>2026-06-22T21:53:46Z</time>
   </trkpt>
   <trkpt lat="-3.0979880" lon="37.3781780">
    <ele>4685.4</ele>
    <time>2026-06-22T21:53:47Z</time>
   </trkpt>
   <trkpt lat="-3.0979650" lon="37.3781730">
    <ele>4685.9</ele>
    <time>2026-06-22T21:53:48Z</time>
   </trkpt>
   <trkpt lat="-3.0979750" lon="37.3781770">
    <ele>4686.2</ele>
    <time>2026-06-22T21:53:49Z</time>
   </trkpt>
   <trkpt lat="-3.0979720" lon="37.3781760">
    <ele>4686.3</ele>
    <time>2026-06-22T21:53:50Z</time>
   </trkpt>
   <trkpt lat="-3.0979690" lon="37.3781750">
    <ele>4686.3</ele>
    <time>2026-06-22T21:53:51Z</time>
   </trkpt>
   <trkpt lat="-3.0979670" lon="37.3781750">
    <ele>4686.4</ele>
    <time>2026-06-22T21:53:52Z</time>
   </trkpt>
   <trkpt lat="-3.0979640" lon="37.3781730">
    <ele>4686.5</ele>
    <time>2026-06-22T21:53:53Z</time>
   </trkpt>
   <trkpt lat="-3.0979630" lon="37.3781730">
    <ele>4686.5</ele>
    <time>2026-06-22T21:53:54Z</time>
   </trkpt>
   <trkpt lat="-3.0979630" lon="37.3781710">
    <ele>4686.5</ele>
    <time>2026-06-22T21:53:55Z</time>
   </trkpt>
   <trkpt lat="-3.0979590" lon="37.3781710">
    <ele>4686.6</ele>
    <time>2026-06-22T21:53:56Z</time>
   </trkpt>
   <trkpt lat="-3.0979560" lon="37.3781720">
    <ele>4686.7</ele>
    <time>2026-06-22T21:53:57Z</time>
   </trkpt>
   <trkpt lat="-3.0979540" lon="37.3781740">
    <ele>4686.8</ele>
    <time>2026-06-22T21:53:58Z</time>
   </trkpt>
   <trkpt lat="-3.0979500" lon="37.3781750">
    <ele>4686.9</ele>
    <time>2026-06-22T21:53:59Z</time>
   </trkpt>
   <trkpt lat="-3.0979480" lon="37.3781760">
    <ele>4686.9</ele>
    <time>2026-06-22T21:54:00Z</time>
   </trkpt>
   <trkpt lat="-3.0979440" lon="37.3781740">
    <ele>4687.0</ele>
    <time>2026-06-22T21:54:01Z</time>
   </trkpt>
   <trkpt lat="-3.0979450" lon="37.3781730">
    <ele>4687.1</ele>
    <time>2026-06-22T21:54:02Z</time>
   </trkpt>
   <trkpt lat="-3.0979440" lon="37.3781720">
    <ele>4687.1</ele>
    <time>2026-06-22T21:54:03Z</time>
   </trkpt>
   <trkpt lat="-3.0979450" lon="37.3781690">
    <ele>4687.2</ele>
    <time>2026-06-22T21:54:04Z</time>
   </trkpt>
   <trkpt lat="-3.0979450" lon="37.3781670">
    <ele>4687.2</ele>
    <time>2026-06-22T21:54:05Z</time>
   </trkpt>
   <trkpt lat="-3.0979450" lon="37.3781650">
    <ele>4687.3</ele>
    <time>2026-06-22T21:54:06Z</time>
   </trkpt>
   <trkpt lat="-3.0979450" lon="37.3781630">
    <ele>4687.3</ele>
    <time>2026-06-22T21:54:07Z</time>
   </trkpt>
   <trkpt lat="-3.0979460" lon="37.3781620">
    <ele>4687.3</ele>
    <time>2026-06-22T21:54:08Z</time>
   </trkpt>
   <trkpt lat="-3.0979430" lon="37.3781610">
    <ele>4687.4</ele>
    <time>2026-06-22T21:54:09Z</time>
   </trkpt>
   <trkpt lat="-3.0979420" lon="37.3781600">
    <ele>4687.4</ele>
    <time>2026-06-22T21:54:10Z</time>
   </trkpt>
   <trkpt lat="-3.0979400" lon="37.3781600">
    <ele>4687.5</ele>
    <time>2026-06-22T21:54:11Z</time>
   </trkpt>
   <trkpt lat="-3.0979390" lon="37.3781590">
    <ele>4687.5</ele>
    <time>2026-06-22T21:54:12Z</time>
   </trkpt>
   <trkpt lat="-3.0979370" lon="37.3781580">
    <ele>4687.6</ele>
    <time>2026-06-22T21:54:13Z</time>
   </trkpt>
   <trkpt lat="-3.0979350" lon="37.3781580">
    <ele>4687.6</ele>
    <time>2026-06-22T21:54:14Z</time>
   </trkpt>
   <trkpt lat="-3.0979290" lon="37.3781570">
    <ele>4687.8</ele>
    <time>2026-06-22T21:54:15Z</time>
   </trkpt>
   <trkpt lat="-3.0979270" lon="37.3781590">
    <ele>4687.8</ele>
    <time>2026-06-22T21:54:16Z</time>
   </trkpt>
   <trkpt lat="-3.0979250" lon="37.3781590">
    <ele>4687.9</ele>
    <time>2026-06-22T21:54:17Z</time>
   </trkpt>
   <trkpt lat="-3.0979210" lon="37.3781570">
    <ele>4688.0</ele>
    <time>2026-06-22T21:54:18Z</time>
   </trkpt>
   <trkpt lat="-3.0979190" lon="37.3781560">
    <ele>4688.0</ele>
    <time>2026-06-22T21:54:19Z</time>
   </trkpt>
   <trkpt lat="-3.0979220" lon="37.3781570">
    <ele>4688.1</ele>
    <time>2026-06-22T21:54:20Z</time>
   </trkpt>
   <trkpt lat="-3.0979230" lon="37.3781570">
    <ele>4688.1</ele>
    <time>2026-06-22T21:54:21Z</time>
   </trkpt>
   <trkpt lat="-3.0979210" lon="37.3781560">
    <ele>4688.2</ele>
    <time>2026-06-22T21:54:22Z</time>
   </trkpt>
   <trkpt lat="-3.0979220" lon="37.3781570">
    <ele>4688.2</ele>
    <time>2026-06-22T21:54:23Z</time>
   </trkpt>
   <trkpt lat="-3.0979230" lon="37.3781560">
    <ele>4688.3</ele>
    <time>2026-06-22T21:54:24Z</time>
   </trkpt>
   <trkpt lat="-3.0979250" lon="37.3781550">
    <ele>4688.3</ele>
    <time>2026-06-22T21:54:25Z</time>
   </trkpt>
   <trkpt lat="-3.0979240" lon="37.3781550">
    <ele>4688.3</ele>
    <time>2026-06-22T21:54:26Z</time>
   </trkpt>
   <trkpt lat="-3.0979260" lon="37.3781550">
    <ele>4688.4</ele>
    <time>2026-06-22T21:54:27Z</time>
   </trkpt>
   <trkpt lat="-3.0979270" lon="37.3781560">
    <ele>4688.4</ele>
    <time>2026-06-22T21:54:28Z</time>
   </trkpt>
   <trkpt lat="-3.0979270" lon="37.3781560">
    <ele>4688.4</ele>
    <time>2026-06-22T21:54:29Z</time>
   </trkpt>
   <trkpt lat="-3.0979280" lon="37.3781560">
    <ele>4688.4</ele>
    <time>2026-06-22T21:54:30Z</time>
   </trkpt>
   <trkpt lat="-3.0979280" lon="37.3781560">
    <ele>4688.4</ele>
    <time>2026-06-22T21:54:31Z</time>
   </trkpt>
   <trkpt lat="-3.0979280" lon="37.3781560">
    <ele>4688.4</ele>
    <time>2026-06-22T21:54:32Z</time>
   </trkpt>
   <trkpt lat="-3.0979290" lon="37.3781560">
    <ele>4688.5</ele>
    <time>2026-06-22T21:54:33Z</time>
   </trkpt>
   <trkpt lat="-3.0979290" lon="37.3781570">
    <ele>4688.5</ele>
    <time>2026-06-22T21:54:34Z</time>
   </trkpt>
   <trkpt lat="-3.0979290" lon="37.3781580">
    <ele>4688.5</ele>
    <time>2026-06-22T21:54:35Z</time>
   </trkpt>
   <trkpt lat="-3.0979290" lon="37.3781580">
    <ele>4688.5</ele>
    <time>2026-06-22T21:54:36Z</time>
   </trkpt>
   <trkpt lat="-3.0979300" lon="37.3781580">
    <ele>4688.5</ele>
    <time>2026-06-22T21:54:37Z</time>
   </trkpt>
   <trkpt lat="-3.0979300" lon="37.3781580">
    <ele>4688.5</ele>
    <time>2026-06-22T21:54:38Z</time>
   </trkpt>
   <trkpt lat="-3.0979300" lon="37.3781580">
    <ele>4688.5</ele>
    <time>2026-06-22T21:54:39Z</time>
   </trkpt>
   <trkpt lat="-3.0979310" lon="37.3781580">
    <ele>4688.5</ele>
    <time>2026-06-22T21:54:40Z</time>
   </trkpt>
   <trkpt lat="-3.0979310" lon="37.3781580">
    <ele>4688.5</ele>
    <time>2026-06-22T21:54:41Z</time>
   </trkpt>
   <trkpt lat="-3.0979310" lon="37.3781580">
    <ele>4688.5</ele>
    <time>2026-06-22T21:54:42Z</time>
   </trkpt>
   <trkpt lat="-3.0979320" lon="37.3781580">
    <ele>4688.6</ele>
    <time>2026-06-22T21:54:43Z</time>
   </trkpt>
   <trkpt lat="-3.0979320" lon="37.3781580">
    <ele>4688.6</ele>
    <time>2026-06-22T21:54:44Z</time>
   </trkpt>
   <trkpt lat="-3.0979320" lon="37.3781580">
    <ele>4688.6</ele>
    <time>2026-06-22T21:54:45Z</time>
   </trkpt>
   <trkpt lat="-3.0979330" lon="37.3781590">
    <ele>4688.6</ele>
    <time>2026-06-22T21:54:46Z</time>
   </trkpt>
   <trkpt lat="-3.0979330" lon="37.3781590">
    <ele>4688.6</ele>
    <time>2026-06-22T21:54:47Z</time>
   </trkpt>
   <trkpt lat="-3.0979330" lon="37.3781590">
    <ele>4688.6</ele>
    <time>2026-06-22T21:54:48Z</time>
   </trkpt>
   <trkpt lat="-3.0979340" lon="37.3781590">
    <ele>4688.6</ele>
    <time>2026-06-22T21:54:49Z</time>
   </trkpt>
   <trkpt lat="-3.0979350" lon="37.3781590">
    <ele>4688.7</ele>
    <time>2026-06-22T21:54:50Z</time>
   </trkpt>
   <trkpt lat="-3.0979350" lon="37.3781590">
    <ele>4688.7</ele>
    <time>2026-06-22T21:54:51Z</time>
   </trkpt>
   <trkpt lat="-3.0979360" lon="37.3781590">
    <ele>4688.7</ele>
    <time>2026-06-22T21:54:52Z</time>
   </trkpt>
   <trkpt lat="-3.0979370" lon="37.3781590">
    <ele>4688.7</ele>
    <time>2026-06-22T21:54:53Z</time>
   </trkpt>
   <trkpt lat="-3.0979370" lon="37.3781580">
    <ele>4688.7</ele>
    <time>2026-06-22T21:54:54Z</time>
   </trkpt>
   <trkpt lat="-3.0979380" lon="37.3781580">
    <ele>4688.7</ele>
    <time>2026-06-22T21:54:55Z</time>
   </trkpt>
   <trkpt lat="-3.0979380" lon="37.3781590">
    <ele>4688.8</ele>
    <time>2026-06-22T21:54:56Z</time>
   </trkpt>
   <trkpt lat="-3.0979380" lon="37.3781590">
    <ele>4688.8</ele>
    <time>2026-06-22T21:54:57Z</time>
   </trkpt>
   <trkpt lat="-3.0979380" lon="37.3781580">
    <ele>4688.8</ele>
    <time>2026-06-22T21:54:58Z</time>
   </trkpt>
   <trkpt lat="-3.0979390" lon="37.3781580">
    <ele>4688.8</ele>
    <time>2026-06-22T21:54:59Z</time>
   </trkpt>
   <trkpt lat="-3.0979390" lon="37.3781580">
    <ele>4688.8</ele>
    <time>2026-06-22T21:55:00Z</time>
   </trkpt>
   <trkpt lat="-3.0979380" lon="37.3781580">
    <ele>4688.8</ele>
    <time>2026-06-22T21:55:01Z</time>
   </trkpt>
   <trkpt lat="-3.0979380" lon="37.3781580">
    <ele>4688.8</ele>
    <time>2026-06-22T21:55:02Z</time>
   </trkpt>
   <trkpt lat="-3.0979390" lon="37.3781580">
    <ele>4688.9</ele>
    <time>2026-06-22T21:55:03Z</time>
   </trkpt>
   <trkpt lat="-3.0979390" lon="37.3781580">
    <ele>4688.9</ele>
    <time>2026-06-22T21:55:04Z</time>
   </trkpt>
   <trkpt lat="-3.0979390" lon="37.3781580">
    <ele>4688.9</ele>
    <time>2026-06-22T21:55:05Z</time>
   </trkpt>
   <trkpt lat="-3.0979390" lon="37.3781580">
    <ele>4688.9</ele>
    <time>2026-06-22T21:55:06Z</time>
   </trkpt>
   <trkpt lat="-3.0979380" lon="37.3781580">
    <ele>4688.9</ele>
    <time>2026-06-22T21:55:07Z</time>
   </trkpt>
   <trkpt lat="-3.0979380" lon="37.3781590">
    <ele>4688.9</ele>
    <time>2026-06-22T21:55:08Z</time>
   </trkpt>
   <trkpt lat="-3.0979380" lon="37.3781590">
    <ele>4688.9</ele>
    <time>2026-06-22T21:55:09Z</time>
   </trkpt>
   <trkpt lat="-3.0979380" lon="37.3781590">
    <ele>4688.9</ele>
    <time>2026-06-22T21:55:10Z</time>
   </trkpt>
   <trkpt lat="-3.0979380" lon="37.3781580">
    <ele>4688.9</ele>
    <time>2026-06-22T21:55:11Z</time>
   </trkpt>
   <trkpt lat="-3.0979380" lon="37.3781580">
    <ele>4688.9</ele>
    <time>2026-06-22T21:55:12Z</time>
   </trkpt>
   <trkpt lat="-3.0979390" lon="37.3781570">
    <ele>4689.0</ele>
    <time>2026-06-22T21:55:13Z</time>
   </trkpt>
   <trkpt lat="-3.0979370" lon="37.3781580">
    <ele>4689.0</ele>
    <time>2026-06-22T21:55:14Z</time>
   </trkpt>
   <trkpt lat="-3.0979380" lon="37.3781580">
    <ele>4689.0</ele>
    <time>2026-06-22T21:55:15Z</time>
   </trkpt>
   <trkpt lat="-3.0979380" lon="37.3781590">
    <ele>4689.1</ele>
    <time>2026-06-22T21:55:16Z</time>
   </trkpt>
   <trkpt lat="-3.0979380" lon="37.3781580">
    <ele>4689.1</ele>
    <time>2026-06-22T21:55:17Z</time>
   </trkpt>
   <trkpt lat="-3.0979390" lon="37.3781580">
    <ele>4689.1</ele>
    <time>2026-06-22T21:55:18Z</time>
   </trkpt>
   <trkpt lat="-3.0979390" lon="37.3781580">
    <ele>4689.1</ele>
    <time>2026-06-22T21:55:19Z</time>
   </trkpt>
   <trkpt lat="-3.0979390" lon="37.3781580">
    <ele>4689.1</ele>
    <time>2026-06-22T21:55:20Z</time>
   </trkpt>
   <trkpt lat="-3.0979390" lon="37.3781580">
    <ele>4689.1</ele>
    <time>2026-06-22T21:55:21Z</time>
   </trkpt>
   <trkpt lat="-3.0979390" lon="37.3781580">
    <ele>4689.1</ele>
    <time>2026-06-22T21:55:22Z</time>
   </trkpt>
   <trkpt lat="-3.0979390" lon="37.3781590">
    <ele>4689.1</ele>
    <time>2026-06-22T21:55:23Z</time>
   </trkpt>
   <trkpt lat="-3.0979400" lon="37.3781590">
    <ele>4689.2</ele>
    <time>2026-06-22T21:55:24Z</time>
   </trkpt>
   <trkpt lat="-3.0979400" lon="37.3781590">
    <ele>4689.2</ele>
    <time>2026-06-22T21:55:25Z</time>
   </trkpt>
   <trkpt lat="-3.0979400" lon="37.3781590">
    <ele>4689.2</ele>
    <time>2026-06-22T21:55:26Z</time>
   </trkpt>
   <trkpt lat="-3.0979390" lon="37.3781590">
    <ele>4689.2</ele>
    <time>2026-06-22T21:55:27Z</time>
   </trkpt>
   <trkpt lat="-3.0979400" lon="37.3781600">
    <ele>4689.2</ele>
    <time>2026-06-22T21:55:28Z</time>
   </trkpt>
   <trkpt lat="-3.0979390" lon="37.3781600">
    <ele>4689.2</ele>
    <time>2026-06-22T21:55:29Z</time>
   </trkpt>
   <trkpt lat="-3.0979400" lon="37.3781600">
    <ele>4689.3</ele>
    <time>2026-06-22T21:55:30Z</time>
   </trkpt>
   <trkpt lat="-3.0979400" lon="37.3781590">
    <ele>4689.3</ele>
    <time>2026-06-22T21:55:31Z</time>
   </trkpt>
   <trkpt lat="-3.0979390" lon="37.3781600">
    <ele>4689.3</ele>
    <time>2026-06-22T21:55:32Z</time>
   </trkpt>
   <trkpt lat="-3.0979400" lon="37.3781580">
    <ele>4689.4</ele>
    <time>2026-06-22T21:55:33Z</time>
   </trkpt>
   <trkpt lat="-3.0979400" lon="37.3781570">
    <ele>4689.4</ele>
    <time>2026-06-22T21:55:34Z</time>
   </trkpt>
   <trkpt lat="-3.0979390" lon="37.3781570">
    <ele>4689.4</ele>
    <time>2026-06-22T21:55:35Z</time>
   </trkpt>
   <trkpt lat="-3.0979380" lon="37.3781540">
    <ele>4689.5</ele>
    <time>2026-06-22T21:55:36Z</time>
   </trkpt>
   <trkpt lat="-3.0979350" lon="37.3781520">
    <ele>4689.6</ele>
    <time>2026-06-22T21:55:37Z</time>
   </trkpt>
   <trkpt lat="-3.0979310" lon="37.3781480">
    <ele>4689.7</ele>
    <time>2026-06-22T21:55:38Z</time>
   </trkpt>
   <trkpt lat="-3.0979250" lon="37.3781460">
    <ele>4689.9</ele>
    <time>2026-06-22T21:55:39Z</time>
   </trkpt>
   <trkpt lat="-3.0979220" lon="37.3781460">
    <ele>4689.9</ele>
    <time>2026-06-22T21:55:40Z</time>
   </trkpt>
   <trkpt lat="-3.0979190" lon="37.3781470">
    <ele>4690.0</ele>
    <time>2026-06-22T21:55:41Z</time>
   </trkpt>
   <trkpt lat="-3.0979180" lon="37.3781490">
    <ele>4690.1</ele>
    <time>2026-06-22T21:55:42Z</time>
   </trkpt>
   <trkpt lat="-3.0979160" lon="37.3781500">
    <ele>4690.1</ele>
    <time>2026-06-22T21:55:43Z</time>
   </trkpt>
   <trkpt lat="-3.0979160" lon="37.3781500">
    <ele>4690.1</ele>
    <time>2026-06-22T21:55:44Z</time>
   </trkpt>
   <trkpt lat="-3.0979150" lon="37.3781500">
    <ele>4690.1</ele>
    <time>2026-06-22T21:55:45Z</time>
   </trkpt>
   <trkpt lat="-3.0979150" lon="37.3781500">
    <ele>4690.1</ele>
    <time>2026-06-22T21:55:46Z</time>
   </trkpt>
   <trkpt lat="-3.0979140" lon="37.3781500">
    <ele>4690.2</ele>
    <time>2026-06-22T21:55:47Z</time>
   </trkpt>
   <trkpt lat="-3.0979130" lon="37.3781490">
    <ele>4690.2</ele>
    <time>2026-06-22T21:55:48Z</time>
   </trkpt>
   <trkpt lat="-3.0979130" lon="37.3781490">
    <ele>4690.2</ele>
    <time>2026-06-22T21:55:49Z</time>
   </trkpt>
   <trkpt lat="-3.0979110" lon="37.3781490">
    <ele>4690.2</ele>
    <time>2026-06-22T21:55:50Z</time>
   </trkpt>
   <trkpt lat="-3.0979110" lon="37.3781500">
    <ele>4690.3</ele>
    <time>2026-06-22T21:55:51Z</time>
   </trkpt>
   <trkpt lat="-3.0979120" lon="37.3781490">
    <ele>4690.3</ele>
    <time>2026-06-22T21:55:52Z</time>
   </trkpt>
   <trkpt lat="-3.0979100" lon="37.3781510">
    <ele>4690.4</ele>
    <time>2026-06-22T21:55:53Z</time>
   </trkpt>
   <trkpt lat="-3.0979100" lon="37.3781520">
    <ele>4690.4</ele>
    <time>2026-06-22T21:55:54Z</time>
   </trkpt>
   <trkpt lat="-3.0979090" lon="37.3781540">
    <ele>4690.4</ele>
    <time>2026-06-22T21:55:55Z</time>
   </trkpt>
   <trkpt lat="-3.0979080" lon="37.3781530">
    <ele>4690.5</ele>
    <time>2026-06-22T21:55:56Z</time>
   </trkpt>
   <trkpt lat="-3.0979060" lon="37.3781520">
    <ele>4690.5</ele>
    <time>2026-06-22T21:55:57Z</time>
   </trkpt>
   <trkpt lat="-3.0979030" lon="37.3781520">
    <ele>4690.6</ele>
    <time>2026-06-22T21:55:58Z</time>
   </trkpt>
   <trkpt lat="-3.0978990" lon="37.3781520">
    <ele>4690.7</ele>
    <time>2026-06-22T21:55:59Z</time>
   </trkpt>
   <trkpt lat="-3.0978950" lon="37.3781500">
    <ele>4690.8</ele>
    <time>2026-06-22T21:56:00Z</time>
   </trkpt>
   <trkpt lat="-3.0978920" lon="37.3781480">
    <ele>4690.9</ele>
    <time>2026-06-22T21:56:01Z</time>
   </trkpt>
   <trkpt lat="-3.0978910" lon="37.3781460">
    <ele>4690.9</ele>
    <time>2026-06-22T21:56:02Z</time>
   </trkpt>
   <trkpt lat="-3.0978850" lon="37.3781490">
    <ele>4691.1</ele>
    <time>2026-06-22T21:56:03Z</time>
   </trkpt>
   <trkpt lat="-3.0978840" lon="37.3781510">
    <ele>4691.1</ele>
    <time>2026-06-22T21:56:04Z</time>
   </trkpt>
   <trkpt lat="-3.0978860" lon="37.3781530">
    <ele>4691.2</ele>
    <time>2026-06-22T21:56:05Z</time>
   </trkpt>
   <trkpt lat="-3.0978830" lon="37.3781550">
    <ele>4691.3</ele>
    <time>2026-06-22T21:56:06Z</time>
   </trkpt>
   <trkpt lat="-3.0978800" lon="37.3781590">
    <ele>4691.4</ele>
    <time>2026-06-22T21:56:07Z</time>
   </trkpt>
   <trkpt lat="-3.0978780" lon="37.3781610">
    <ele>4691.5</ele>
    <time>2026-06-22T21:56:08Z</time>
   </trkpt>
   <trkpt lat="-3.0978740" lon="37.3781630">
    <ele>4691.6</ele>
    <time>2026-06-22T21:56:09Z</time>
   </trkpt>
   <trkpt lat="-3.0978720" lon="37.3781640">
    <ele>4691.6</ele>
    <time>2026-06-22T21:56:10Z</time>
   </trkpt>
   <trkpt lat="-3.0978690" lon="37.3781640">
    <ele>4691.7</ele>
    <time>2026-06-22T21:56:11Z</time>
   </trkpt>
   <trkpt lat="-3.0978670" lon="37.3781630">
    <ele>4691.7</ele>
    <time>2026-06-22T21:56:12Z</time>
   </trkpt>
   <trkpt lat="-3.0978640" lon="37.3781650">
    <ele>4691.8</ele>
    <time>2026-06-22T21:56:13Z</time>
   </trkpt>
   <trkpt lat="-3.0978580" lon="37.3781640">
    <ele>4692.0</ele>
    <time>2026-06-22T21:56:14Z</time>
   </trkpt>
   <trkpt lat="-3.0978570" lon="37.3781650">
    <ele>4692.0</ele>
    <time>2026-06-22T21:56:15Z</time>
   </trkpt>
   <trkpt lat="-3.0978550" lon="37.3781630">
    <ele>4692.1</ele>
    <time>2026-06-22T21:56:16Z</time>
   </trkpt>
   <trkpt lat="-3.0978530" lon="37.3781650">
    <ele>4692.1</ele>
    <time>2026-06-22T21:56:17Z</time>
   </trkpt>
   <trkpt lat="-3.0978490" lon="37.3781630">
    <ele>4692.2</ele>
    <time>2026-06-22T21:56:18Z</time>
   </trkpt>
   <trkpt lat="-3.0978460" lon="37.3781630">
    <ele>4692.3</ele>
    <time>2026-06-22T21:56:19Z</time>
   </trkpt>
   <trkpt lat="-3.0978450" lon="37.3781620">
    <ele>4692.3</ele>
    <time>2026-06-22T21:56:20Z</time>
   </trkpt>
   <trkpt lat="-3.0978420" lon="37.3781630">
    <ele>4692.4</ele>
    <time>2026-06-22T21:56:21Z</time>
   </trkpt>
   <trkpt lat="-3.0978400" lon="37.3781630">
    <ele>4692.5</ele>
    <time>2026-06-22T21:56:22Z</time>
   </trkpt>
   <trkpt lat="-3.0978360" lon="37.3781650">
    <ele>4692.5</ele>
    <time>2026-06-22T21:56:23Z</time>
   </trkpt>
   <trkpt lat="-3.0978360" lon="37.3781630">
    <ele>4692.6</ele>
    <time>2026-06-22T21:56:24Z</time>
   </trkpt>
   <trkpt lat="-3.0978340" lon="37.3781640">
    <ele>4692.6</ele>
    <time>2026-06-22T21:56:25Z</time>
   </trkpt>
   <trkpt lat="-3.0978320" lon="37.3781620">
    <ele>4692.7</ele>
    <time>2026-06-22T21:56:26Z</time>
   </trkpt>
   <trkpt lat="-3.0978260" lon="37.3781640">
    <ele>4692.8</ele>
    <time>2026-06-22T21:56:27Z</time>
   </trkpt>
   <trkpt lat="-3.0978250" lon="37.3781640">
    <ele>4692.8</ele>
    <time>2026-06-22T21:56:28Z</time>
   </trkpt>
   <trkpt lat="-3.0978200" lon="37.3781660">
    <ele>4692.9</ele>
    <time>2026-06-22T21:56:29Z</time>
   </trkpt>
   <trkpt lat="-3.0978180" lon="37.3781670">
    <ele>4693.0</ele>
    <time>2026-06-22T21:56:30Z</time>
   </trkpt>
   <trkpt lat="-3.0978140" lon="37.3781660">
    <ele>4693.1</ele>
    <time>2026-06-22T21:56:31Z</time>
   </trkpt>
   <trkpt lat="-3.0978130" lon="37.3781670">
    <ele>4693.1</ele>
    <time>2026-06-22T21:56:32Z</time>
   </trkpt>
   <trkpt lat="-3.0978100" lon="37.3781670">
    <ele>4693.2</ele>
    <time>2026-06-22T21:56:33Z</time>
   </trkpt>
   <trkpt lat="-3.0978080" lon="37.3781670">
    <ele>4693.2</ele>
    <time>2026-06-22T21:56:34Z</time>
   </trkpt>
   <trkpt lat="-3.0978030" lon="37.3781660">
    <ele>4693.3</ele>
    <time>2026-06-22T21:56:35Z</time>
   </trkpt>
   <trkpt lat="-3.0978030" lon="37.3781650">
    <ele>4693.3</ele>
    <time>2026-06-22T21:56:36Z</time>
   </trkpt>
   <trkpt lat="-3.0978020" lon="37.3781640">
    <ele>4693.3</ele>
    <time>2026-06-22T21:56:37Z</time>
   </trkpt>
   <trkpt lat="-3.0977990" lon="37.3781620">
    <ele>4693.4</ele>
    <time>2026-06-22T21:56:38Z</time>
   </trkpt>
   <trkpt lat="-3.0977960" lon="37.3781600">
    <ele>4693.5</ele>
    <time>2026-06-22T21:56:39Z</time>
   </trkpt>
   <trkpt lat="-3.0977950" lon="37.3781580">
    <ele>4693.5</ele>
    <time>2026-06-22T21:56:40Z</time>
   </trkpt>
   <trkpt lat="-3.0977910" lon="37.3781550">
    <ele>4693.6</ele>
    <time>2026-06-22T21:56:41Z</time>
   </trkpt>
   <trkpt lat="-3.0977890" lon="37.3781550">
    <ele>4693.7</ele>
    <time>2026-06-22T21:56:42Z</time>
   </trkpt>
   <trkpt lat="-3.0977870" lon="37.3781530">
    <ele>4693.7</ele>
    <time>2026-06-22T21:56:43Z</time>
   </trkpt>
   <trkpt lat="-3.0977860" lon="37.3781520">
    <ele>4693.8</ele>
    <time>2026-06-22T21:56:44Z</time>
   </trkpt>
   <trkpt lat="-3.0977830" lon="37.3781520">
    <ele>4693.8</ele>
    <time>2026-06-22T21:56:45Z</time>
   </trkpt>
   <trkpt lat="-3.0977820" lon="37.3781490">
    <ele>4693.9</ele>
    <time>2026-06-22T21:56:46Z</time>
   </trkpt>
   <trkpt lat="-3.0977770" lon="37.3781480">
    <ele>4694.0</ele>
    <time>2026-06-22T21:56:47Z</time>
   </trkpt>
   <trkpt lat="-3.0977770" lon="37.3781450">
    <ele>4694.0</ele>
    <time>2026-06-22T21:56:48Z</time>
   </trkpt>
   <trkpt lat="-3.0977740" lon="37.3781440">
    <ele>4694.1</ele>
    <time>2026-06-22T21:56:49Z</time>
   </trkpt>
   <trkpt lat="-3.0977710" lon="37.3781430">
    <ele>4694.2</ele>
    <time>2026-06-22T21:56:50Z</time>
   </trkpt>
   <trkpt lat="-3.0977670" lon="37.3781430">
    <ele>4694.2</ele>
    <time>2026-06-22T21:56:51Z</time>
   </trkpt>
   <trkpt lat="-3.0977650" lon="37.3781420">
    <ele>4694.3</ele>
    <time>2026-06-22T21:56:52Z</time>
   </trkpt>
   <trkpt lat="-3.0977630" lon="37.3781430">
    <ele>4694.3</ele>
    <time>2026-06-22T21:56:53Z</time>
   </trkpt>
   <trkpt lat="-3.0977620" lon="37.3781420">
    <ele>4694.4</ele>
    <time>2026-06-22T21:56:54Z</time>
   </trkpt>
   <trkpt lat="-3.0977580" lon="37.3781450">
    <ele>4694.5</ele>
    <time>2026-06-22T21:56:55Z</time>
   </trkpt>
   <trkpt lat="-3.0977570" lon="37.3781450">
    <ele>4694.5</ele>
    <time>2026-06-22T21:56:56Z</time>
   </trkpt>
   <trkpt lat="-3.0977560" lon="37.3781470">
    <ele>4694.5</ele>
    <time>2026-06-22T21:56:57Z</time>
   </trkpt>
   <trkpt lat="-3.0977530" lon="37.3781480">
    <ele>4694.6</ele>
    <time>2026-06-22T21:56:58Z</time>
   </trkpt>
   <trkpt lat="-3.0977500" lon="37.3781510">
    <ele>4694.7</ele>
    <time>2026-06-22T21:56:59Z</time>
   </trkpt>
   <trkpt lat="-3.0977500" lon="37.3781520">
    <ele>4694.7</ele>
    <time>2026-06-22T21:57:00Z</time>
   </trkpt>
   <trkpt lat="-3.0977460" lon="37.3781550">
    <ele>4694.8</ele>
    <time>2026-06-22T21:57:01Z</time>
   </trkpt>
   <trkpt lat="-3.0977450" lon="37.3781570">
    <ele>4694.8</ele>
    <time>2026-06-22T21:57:02Z</time>
   </trkpt>
   <trkpt lat="-3.0977430" lon="37.3781600">
    <ele>4694.9</ele>
    <time>2026-06-22T21:57:03Z</time>
   </trkpt>
   <trkpt lat="-3.0977430" lon="37.3781630">
    <ele>4695.0</ele>
    <time>2026-06-22T21:57:04Z</time>
   </trkpt>
   <trkpt lat="-3.0977410" lon="37.3781640">
    <ele>4695.0</ele>
    <time>2026-06-22T21:57:05Z</time>
   </trkpt>
   <trkpt lat="-3.0977390" lon="37.3781650">
    <ele>4695.0</ele>
    <time>2026-06-22T21:57:06Z</time>
   </trkpt>
   <trkpt lat="-3.0977370" lon="37.3781680">
    <ele>4695.1</ele>
    <time>2026-06-22T21:57:07Z</time>
   </trkpt>
   <trkpt lat="-3.0977350" lon="37.3781680">
    <ele>4695.2</ele>
    <time>2026-06-22T21:57:08Z</time>
   </trkpt>
   <trkpt lat="-3.0977310" lon="37.3781710">
    <ele>4695.2</ele>
    <time>2026-06-22T21:57:09Z</time>
   </trkpt>
   <trkpt lat="-3.0977300" lon="37.3781730">
    <ele>4695.3</ele>
    <time>2026-06-22T21:57:10Z</time>
   </trkpt>
   <trkpt lat="-3.0977270" lon="37.3781750">
    <ele>4695.4</ele>
    <time>2026-06-22T21:57:11Z</time>
   </trkpt>
   <trkpt lat="-3.0977240" lon="37.3781750">
    <ele>4695.4</ele>
    <time>2026-06-22T21:57:12Z</time>
   </trkpt>
   <trkpt lat="-3.0977200" lon="37.3781750">
    <ele>4695.5</ele>
    <time>2026-06-22T21:57:13Z</time>
   </trkpt>
   <trkpt lat="-3.0977180" lon="37.3781750">
    <ele>4695.5</ele>
    <time>2026-06-22T21:57:14Z</time>
   </trkpt>
   <trkpt lat="-3.0977150" lon="37.3781750">
    <ele>4695.6</ele>
    <time>2026-06-22T21:57:15Z</time>
   </trkpt>
   <trkpt lat="-3.0977110" lon="37.3781750">
    <ele>4695.7</ele>
    <time>2026-06-22T21:57:16Z</time>
   </trkpt>
   <trkpt lat="-3.0977080" lon="37.3781760">
    <ele>4695.7</ele>
    <time>2026-06-22T21:57:17Z</time>
   </trkpt>
   <trkpt lat="-3.0977050" lon="37.3781770">
    <ele>4695.8</ele>
    <time>2026-06-22T21:57:18Z</time>
   </trkpt>
   <trkpt lat="-3.0977010" lon="37.3781780">
    <ele>4695.9</ele>
    <time>2026-06-22T21:57:19Z</time>
   </trkpt>
   <trkpt lat="-3.0976990" lon="37.3781780">
    <ele>4695.9</ele>
    <time>2026-06-22T21:57:20Z</time>
   </trkpt>
   <trkpt lat="-3.0976990" lon="37.3781790">
    <ele>4695.9</ele>
    <time>2026-06-22T21:57:21Z</time>
   </trkpt>
   <trkpt lat="-3.0976940" lon="37.3781790">
    <ele>4696.0</ele>
    <time>2026-06-22T21:57:22Z</time>
   </trkpt>
   <trkpt lat="-3.0976910" lon="37.3781800">
    <ele>4696.1</ele>
    <time>2026-06-22T21:57:23Z</time>
   </trkpt>
   <trkpt lat="-3.0976870" lon="37.3781810">
    <ele>4696.1</ele>
    <time>2026-06-22T21:57:24Z</time>
   </trkpt>
   <trkpt lat="-3.0976840" lon="37.3781830">
    <ele>4696.2</ele>
    <time>2026-06-22T21:57:25Z</time>
   </trkpt>
   <trkpt lat="-3.0976790" lon="37.3781830">
    <ele>4696.3</ele>
    <time>2026-06-22T21:57:26Z</time>
   </trkpt>
   <trkpt lat="-3.0976790" lon="37.3781810">
    <ele>4696.3</ele>
    <time>2026-06-22T21:57:27Z</time>
   </trkpt>
   <trkpt lat="-3.0976780" lon="37.3781770">
    <ele>4696.4</ele>
    <time>2026-06-22T21:57:28Z</time>
   </trkpt>
   <trkpt lat="-3.0976780" lon="37.3781740">
    <ele>4696.5</ele>
    <time>2026-06-22T21:57:29Z</time>
   </trkpt>
   <trkpt lat="-3.0976770" lon="37.3781700">
    <ele>4696.6</ele>
    <time>2026-06-22T21:57:30Z</time>
   </trkpt>
   <trkpt lat="-3.0976760" lon="37.3781690">
    <ele>4696.6</ele>
    <time>2026-06-22T21:57:31Z</time>
   </trkpt>
   <trkpt lat="-3.0976730" lon="37.3781670">
    <ele>4696.7</ele>
    <time>2026-06-22T21:57:32Z</time>
   </trkpt>
   <trkpt lat="-3.0976750" lon="37.3781660">
    <ele>4696.7</ele>
    <time>2026-06-22T21:57:33Z</time>
   </trkpt>
   <trkpt lat="-3.0976710" lon="37.3781650">
    <ele>4696.8</ele>
    <time>2026-06-22T21:57:34Z</time>
   </trkpt>
   <trkpt lat="-3.0976700" lon="37.3781640">
    <ele>4696.8</ele>
    <time>2026-06-22T21:57:35Z</time>
   </trkpt>
   <trkpt lat="-3.0976660" lon="37.3781640">
    <ele>4696.9</ele>
    <time>2026-06-22T21:57:36Z</time>
   </trkpt>
   <trkpt lat="-3.0976650" lon="37.3781650">
    <ele>4696.9</ele>
    <time>2026-06-22T21:57:37Z</time>
   </trkpt>
   <trkpt lat="-3.0976600" lon="37.3781640">
    <ele>4697.0</ele>
    <time>2026-06-22T21:57:38Z</time>
   </trkpt>
   <trkpt lat="-3.0976580" lon="37.3781680">
    <ele>4697.1</ele>
    <time>2026-06-22T21:57:39Z</time>
   </trkpt>
   <trkpt lat="-3.0976540" lon="37.3781680">
    <ele>4697.2</ele>
    <time>2026-06-22T21:57:40Z</time>
   </trkpt>
   <trkpt lat="-3.0976490" lon="37.3781700">
    <ele>4697.3</ele>
    <time>2026-06-22T21:57:41Z</time>
   </trkpt>
   <trkpt lat="-3.0976470" lon="37.3781720">
    <ele>4697.3</ele>
    <time>2026-06-22T21:57:42Z</time>
   </trkpt>
   <trkpt lat="-3.0976460" lon="37.3781740">
    <ele>4697.4</ele>
    <time>2026-06-22T21:57:43Z</time>
   </trkpt>
   <trkpt lat="-3.0976450" lon="37.3781760">
    <ele>4697.4</ele>
    <time>2026-06-22T21:57:44Z</time>
   </trkpt>
   <trkpt lat="-3.0976400" lon="37.3781800">
    <ele>4697.5</ele>
    <time>2026-06-22T21:57:45Z</time>
   </trkpt>
   <trkpt lat="-3.0976390" lon="37.3781830">
    <ele>4697.6</ele>
    <time>2026-06-22T21:57:46Z</time>
   </trkpt>
   <trkpt lat="-3.0976390" lon="37.3781850">
    <ele>4697.6</ele>
    <time>2026-06-22T21:57:47Z</time>
   </trkpt>
   <trkpt lat="-3.0976360" lon="37.3781880">
    <ele>4697.7</ele>
    <time>2026-06-22T21:57:48Z</time>
   </trkpt>
   <trkpt lat="-3.0976340" lon="37.3781890">
    <ele>4697.7</ele>
    <time>2026-06-22T21:57:49Z</time>
   </trkpt>
   <trkpt lat="-3.0976320" lon="37.3781910">
    <ele>4697.8</ele>
    <time>2026-06-22T21:57:50Z</time>
   </trkpt>
   <trkpt lat="-3.0976300" lon="37.3781930">
    <ele>4697.9</ele>
    <time>2026-06-22T21:57:51Z</time>
   </trkpt>
   <trkpt lat="-3.0976290" lon="37.3781960">
    <ele>4697.9</ele>
    <time>2026-06-22T21:57:52Z</time>
   </trkpt>
   <trkpt lat="-3.0976270" lon="37.3781980">
    <ele>4698.0</ele>
    <time>2026-06-22T21:57:53Z</time>
   </trkpt>
   <trkpt lat="-3.0976250" lon="37.3781990">
    <ele>4698.0</ele>
    <time>2026-06-22T21:57:54Z</time>
   </trkpt>
   <trkpt lat="-3.0976210" lon="37.3782020">
    <ele>4698.1</ele>
    <time>2026-06-22T21:57:55Z</time>
   </trkpt>
   <trkpt lat="-3.0976190" lon="37.3782050">
    <ele>4698.2</ele>
    <time>2026-06-22T21:57:56Z</time>
   </trkpt>
   <trkpt lat="-3.0976190" lon="37.3782070">
    <ele>4698.2</ele>
    <time>2026-06-22T21:57:57Z</time>
   </trkpt>
   <trkpt lat="-3.0976110" lon="37.3782080">
    <ele>4698.4</ele>
    <time>2026-06-22T21:57:58Z</time>
   </trkpt>
   <trkpt lat="-3.0976090" lon="37.3782090">
    <ele>4698.4</ele>
    <time>2026-06-22T21:57:59Z</time>
   </trkpt>
   <trkpt lat="-3.0976080" lon="37.3782100">
    <ele>4698.4</ele>
    <time>2026-06-22T21:58:00Z</time>
   </trkpt>
   <trkpt lat="-3.0976060" lon="37.3782150">
    <ele>4698.5</ele>
    <time>2026-06-22T21:58:01Z</time>
   </trkpt>
   <trkpt lat="-3.0976030" lon="37.3782150">
    <ele>4698.6</ele>
    <time>2026-06-22T21:58:02Z</time>
   </trkpt>
   <trkpt lat="-3.0975980" lon="37.3782180">
    <ele>4698.7</ele>
    <time>2026-06-22T21:58:03Z</time>
   </trkpt>
   <trkpt lat="-3.0975970" lon="37.3782170">
    <ele>4698.7</ele>
    <time>2026-06-22T21:58:04Z</time>
   </trkpt>
   <trkpt lat="-3.0975970" lon="37.3782190">
    <ele>4698.8</ele>
    <time>2026-06-22T21:58:05Z</time>
   </trkpt>
   <trkpt lat="-3.0975960" lon="37.3782200">
    <ele>4698.8</ele>
    <time>2026-06-22T21:58:06Z</time>
   </trkpt>
   <trkpt lat="-3.0975900" lon="37.3782220">
    <ele>4698.9</ele>
    <time>2026-06-22T21:58:07Z</time>
   </trkpt>
   <trkpt lat="-3.0975840" lon="37.3782210">
    <ele>4699.0</ele>
    <time>2026-06-22T21:58:08Z</time>
   </trkpt>
   <trkpt lat="-3.0975800" lon="37.3782220">
    <ele>4699.1</ele>
    <time>2026-06-22T21:58:09Z</time>
   </trkpt>
   <trkpt lat="-3.0975790" lon="37.3782210">
    <ele>4699.1</ele>
    <time>2026-06-22T21:58:10Z</time>
   </trkpt>
   <trkpt lat="-3.0975760" lon="37.3782220">
    <ele>4699.2</ele>
    <time>2026-06-22T21:58:11Z</time>
   </trkpt>
   <trkpt lat="-3.0975730" lon="37.3782230">
    <ele>4699.3</ele>
    <time>2026-06-22T21:58:12Z</time>
   </trkpt>
   <trkpt lat="-3.0975690" lon="37.3782240">
    <ele>4699.3</ele>
    <time>2026-06-22T21:58:13Z</time>
   </trkpt>
   <trkpt lat="-3.0975670" lon="37.3782240">
    <ele>4699.4</ele>
    <time>2026-06-22T21:58:14Z</time>
   </trkpt>
   <trkpt lat="-3.0975650" lon="37.3782230">
    <ele>4699.4</ele>
    <time>2026-06-22T21:58:15Z</time>
   </trkpt>
   <trkpt lat="-3.0975640" lon="37.3782180">
    <ele>4699.5</ele>
    <time>2026-06-22T21:58:16Z</time>
   </trkpt>
   <trkpt lat="-3.0975690" lon="37.3782140">
    <ele>4699.6</ele>
    <time>2026-06-22T21:58:17Z</time>
   </trkpt>
   <trkpt lat="-3.0975690" lon="37.3782120">
    <ele>4699.7</ele>
    <time>2026-06-22T21:58:18Z</time>
   </trkpt>
   <trkpt lat="-3.0975720" lon="37.3782100">
    <ele>4699.7</ele>
    <time>2026-06-22T21:58:19Z</time>
   </trkpt>
   <trkpt lat="-3.0975720" lon="37.3782070">
    <ele>4699.8</ele>
    <time>2026-06-22T21:58:20Z</time>
   </trkpt>
   <trkpt lat="-3.0975740" lon="37.3782040">
    <ele>4699.9</ele>
    <time>2026-06-22T21:58:21Z</time>
   </trkpt>
   <trkpt lat="-3.0975710" lon="37.3782000">
    <ele>4700.0</ele>
    <time>2026-06-22T21:58:22Z</time>
   </trkpt>
   <trkpt lat="-3.0975690" lon="37.3781990">
    <ele>4700.0</ele>
    <time>2026-06-22T21:58:23Z</time>
   </trkpt>
   <trkpt lat="-3.0975650" lon="37.3781950">
    <ele>4700.1</ele>
    <time>2026-06-22T21:58:24Z</time>
   </trkpt>
   <trkpt lat="-3.0975630" lon="37.3781950">
    <ele>4700.1</ele>
    <time>2026-06-22T21:58:25Z</time>
   </trkpt>
   <trkpt lat="-3.0975600" lon="37.3781920">
    <ele>4700.2</ele>
    <time>2026-06-22T21:58:26Z</time>
   </trkpt>
   <trkpt lat="-3.0975560" lon="37.3781900">
    <ele>4700.3</ele>
    <time>2026-06-22T21:58:27Z</time>
   </trkpt>
   <trkpt lat="-3.0975530" lon="37.3781890">
    <ele>4700.4</ele>
    <time>2026-06-22T21:58:28Z</time>
   </trkpt>
   <trkpt lat="-3.0975510" lon="37.3781890">
    <ele>4700.4</ele>
    <time>2026-06-22T21:58:29Z</time>
   </trkpt>
   <trkpt lat="-3.0975510" lon="37.3781830">
    <ele>4700.5</ele>
    <time>2026-06-22T21:58:30Z</time>
   </trkpt>
   <trkpt lat="-3.0975510" lon="37.3781780">
    <ele>4700.6</ele>
    <time>2026-06-22T21:58:31Z</time>
   </trkpt>
   <trkpt lat="-3.0975510" lon="37.3781740">
    <ele>4700.7</ele>
    <time>2026-06-22T21:58:32Z</time>
   </trkpt>
   <trkpt lat="-3.0975490" lon="37.3781730">
    <ele>4700.8</ele>
    <time>2026-06-22T21:58:33Z</time>
   </trkpt>
   <trkpt lat="-3.0975460" lon="37.3781730">
    <ele>4700.8</ele>
    <time>2026-06-22T21:58:34Z</time>
   </trkpt>
   <trkpt lat="-3.0975420" lon="37.3781720">
    <ele>4700.9</ele>
    <time>2026-06-22T21:58:35Z</time>
   </trkpt>
   <trkpt lat="-3.0975390" lon="37.3781710">
    <ele>4701.0</ele>
    <time>2026-06-22T21:58:36Z</time>
   </trkpt>
   <trkpt lat="-3.0975360" lon="37.3781730">
    <ele>4701.1</ele>
    <time>2026-06-22T21:58:37Z</time>
   </trkpt>
   <trkpt lat="-3.0975330" lon="37.3781720">
    <ele>4701.1</ele>
    <time>2026-06-22T21:58:38Z</time>
   </trkpt>
   <trkpt lat="-3.0975310" lon="37.3781750">
    <ele>4701.2</ele>
    <time>2026-06-22T21:58:39Z</time>
   </trkpt>
   <trkpt lat="-3.0975310" lon="37.3781770">
    <ele>4701.2</ele>
    <time>2026-06-22T21:58:40Z</time>
   </trkpt>
   <trkpt lat="-3.0975280" lon="37.3781800">
    <ele>4701.3</ele>
    <time>2026-06-22T21:58:41Z</time>
   </trkpt>
   <trkpt lat="-3.0975240" lon="37.3781810">
    <ele>4701.4</ele>
    <time>2026-06-22T21:58:42Z</time>
   </trkpt>
   <trkpt lat="-3.0975230" lon="37.3781810">
    <ele>4701.4</ele>
    <time>2026-06-22T21:58:43Z</time>
   </trkpt>
   <trkpt lat="-3.0975200" lon="37.3781820">
    <ele>4701.5</ele>
    <time>2026-06-22T21:58:44Z</time>
   </trkpt>
   <trkpt lat="-3.0975180" lon="37.3781810">
    <ele>4701.5</ele>
    <time>2026-06-22T21:58:45Z</time>
   </trkpt>
   <trkpt lat="-3.0975140" lon="37.3781830">
    <ele>4701.6</ele>
    <time>2026-06-22T21:58:46Z</time>
   </trkpt>
   <trkpt lat="-3.0975090" lon="37.3781820">
    <ele>4701.7</ele>
    <time>2026-06-22T21:58:47Z</time>
   </trkpt>
   <trkpt lat="-3.0975100" lon="37.3781810">
    <ele>4701.7</ele>
    <time>2026-06-22T21:58:48Z</time>
   </trkpt>
   <trkpt lat="-3.0975060" lon="37.3781810">
    <ele>4701.8</ele>
    <time>2026-06-22T21:58:49Z</time>
   </trkpt>
   <trkpt lat="-3.0975000" lon="37.3781810">
    <ele>4701.9</ele>
    <time>2026-06-22T21:58:50Z</time>
   </trkpt>
   <trkpt lat="-3.0974980" lon="37.3781810">
    <ele>4702.0</ele>
    <time>2026-06-22T21:58:51Z</time>
   </trkpt>
   <trkpt lat="-3.0974930" lon="37.3781810">
    <ele>4702.1</ele>
    <time>2026-06-22T21:58:52Z</time>
   </trkpt>
   <trkpt lat="-3.0974920" lon="37.3781800">
    <ele>4702.1</ele>
    <time>2026-06-22T21:58:53Z</time>
   </trkpt>
   <trkpt lat="-3.0974880" lon="37.3781810">
    <ele>4702.2</ele>
    <time>2026-06-22T21:58:54Z</time>
   </trkpt>
   <trkpt lat="-3.0974880" lon="37.3781780">
    <ele>4702.3</ele>
    <time>2026-06-22T21:58:55Z</time>
   </trkpt>
   <trkpt lat="-3.0974880" lon="37.3781750">
    <ele>4702.3</ele>
    <time>2026-06-22T21:58:56Z</time>
   </trkpt>
   <trkpt lat="-3.0974860" lon="37.3781710">
    <ele>4702.4</ele>
    <time>2026-06-22T21:58:57Z</time>
   </trkpt>
   <trkpt lat="-3.0974860" lon="37.3781690">
    <ele>4702.5</ele>
    <time>2026-06-22T21:58:58Z</time>
   </trkpt>
   <trkpt lat="-3.0974880" lon="37.3781670">
    <ele>4702.5</ele>
    <time>2026-06-22T21:58:59Z</time>
   </trkpt>
   <trkpt lat="-3.0974880" lon="37.3781640">
    <ele>4702.6</ele>
    <time>2026-06-22T21:59:00Z</time>
   </trkpt>
   <trkpt lat="-3.0974900" lon="37.3781610">
    <ele>4702.6</ele>
    <time>2026-06-22T21:59:01Z</time>
   </trkpt>
   <trkpt lat="-3.0974890" lon="37.3781580">
    <ele>4702.7</ele>
    <time>2026-06-22T21:59:02Z</time>
   </trkpt>
   <trkpt lat="-3.0974910" lon="37.3781570">
    <ele>4702.7</ele>
    <time>2026-06-22T21:59:03Z</time>
   </trkpt>
   <trkpt lat="-3.0974870" lon="37.3781550">
    <ele>4702.8</ele>
    <time>2026-06-22T21:59:04Z</time>
   </trkpt>
   <trkpt lat="-3.0974850" lon="37.3781530">
    <ele>4702.9</ele>
    <time>2026-06-22T21:59:05Z</time>
   </trkpt>
   <trkpt lat="-3.0974850" lon="37.3781500">
    <ele>4703.0</ele>
    <time>2026-06-22T21:59:06Z</time>
   </trkpt>
   <trkpt lat="-3.0974850" lon="37.3781480">
    <ele>4703.0</ele>
    <time>2026-06-22T21:59:07Z</time>
   </trkpt>
   <trkpt lat="-3.0974790" lon="37.3781480">
    <ele>4703.1</ele>
    <time>2026-06-22T21:59:08Z</time>
   </trkpt>
   <trkpt lat="-3.0974780" lon="37.3781480">
    <ele>4703.1</ele>
    <time>2026-06-22T21:59:09Z</time>
   </trkpt>
   <trkpt lat="-3.0974750" lon="37.3781490">
    <ele>4703.2</ele>
    <time>2026-06-22T21:59:10Z</time>
   </trkpt>
   <trkpt lat="-3.0974720" lon="37.3781500">
    <ele>4703.3</ele>
    <time>2026-06-22T21:59:11Z</time>
   </trkpt>
   <trkpt lat="-3.0974680" lon="37.3781510">
    <ele>4703.4</ele>
    <time>2026-06-22T21:59:12Z</time>
   </trkpt>
   <trkpt lat="-3.0974680" lon="37.3781520">
    <ele>4703.4</ele>
    <time>2026-06-22T21:59:13Z</time>
   </trkpt>
   <trkpt lat="-3.0974640" lon="37.3781540">
    <ele>4703.5</ele>
    <time>2026-06-22T21:59:14Z</time>
   </trkpt>
   <trkpt lat="-3.0974640" lon="37.3781550">
    <ele>4703.5</ele>
    <time>2026-06-22T21:59:15Z</time>
   </trkpt>
   <trkpt lat="-3.0974620" lon="37.3781590">
    <ele>4703.6</ele>
    <time>2026-06-22T21:59:16Z</time>
   </trkpt>
   <trkpt lat="-3.0974590" lon="37.3781620">
    <ele>4703.7</ele>
    <time>2026-06-22T21:59:17Z</time>
   </trkpt>
   <trkpt lat="-3.0974590" lon="37.3781650">
    <ele>4703.7</ele>
    <time>2026-06-22T21:59:18Z</time>
   </trkpt>
   <trkpt lat="-3.0974550" lon="37.3781670">
    <ele>4703.8</ele>
    <time>2026-06-22T21:59:19Z</time>
   </trkpt>
   <trkpt lat="-3.0974530" lon="37.3781690">
    <ele>4703.9</ele>
    <time>2026-06-22T21:59:20Z</time>
   </trkpt>
   <trkpt lat="-3.0974490" lon="37.3781690">
    <ele>4704.0</ele>
    <time>2026-06-22T21:59:21Z</time>
   </trkpt>
   <trkpt lat="-3.0974450" lon="37.3781690">
    <ele>4704.1</ele>
    <time>2026-06-22T21:59:22Z</time>
   </trkpt>
   <trkpt lat="-3.0974430" lon="37.3781710">
    <ele>4704.1</ele>
    <time>2026-06-22T21:59:23Z</time>
   </trkpt>
   <trkpt lat="-3.0974410" lon="37.3781750">
    <ele>4704.2</ele>
    <time>2026-06-22T21:59:24Z</time>
   </trkpt>
   <trkpt lat="-3.0974390" lon="37.3781780">
    <ele>4704.3</ele>
    <time>2026-06-22T21:59:25Z</time>
   </trkpt>
   <trkpt lat="-3.0974390" lon="37.3781790">
    <ele>4704.3</ele>
    <time>2026-06-22T21:59:26Z</time>
   </trkpt>
   <trkpt lat="-3.0974370" lon="37.3781840">
    <ele>4704.4</ele>
    <time>2026-06-22T21:59:27Z</time>
   </trkpt>
   <trkpt lat="-3.0974360" lon="37.3781860">
    <ele>4704.5</ele>
    <time>2026-06-22T21:59:28Z</time>
   </trkpt>
   <trkpt lat="-3.0974330" lon="37.3781890">
    <ele>4704.6</ele>
    <time>2026-06-22T21:59:29Z</time>
   </trkpt>
   <trkpt lat="-3.0974280" lon="37.3781920">
    <ele>4704.7</ele>
    <time>2026-06-22T21:59:30Z</time>
   </trkpt>
   <trkpt lat="-3.0974250" lon="37.3781940">
    <ele>4704.7</ele>
    <time>2026-06-22T21:59:31Z</time>
   </trkpt>
   <trkpt lat="-3.0974220" lon="37.3781960">
    <ele>4704.8</ele>
    <time>2026-06-22T21:59:32Z</time>
   </trkpt>
   <trkpt lat="-3.0974190" lon="37.3781980">
    <ele>4704.9</ele>
    <time>2026-06-22T21:59:33Z</time>
   </trkpt>
   <trkpt lat="-3.0974160" lon="37.3781990">
    <ele>4705.0</ele>
    <time>2026-06-22T21:59:34Z</time>
   </trkpt>
   <trkpt lat="-3.0974150" lon="37.3782000">
    <ele>4705.0</ele>
    <time>2026-06-22T21:59:35Z</time>
   </trkpt>
   <trkpt lat="-3.0974110" lon="37.3782000">
    <ele>4705.1</ele>
    <time>2026-06-22T21:59:36Z</time>
   </trkpt>
   <trkpt lat="-3.0974090" lon="37.3782000">
    <ele>4705.1</ele>
    <time>2026-06-22T21:59:37Z</time>
   </trkpt>
   <trkpt lat="-3.0974070" lon="37.3782030">
    <ele>4705.2</ele>
    <time>2026-06-22T21:59:38Z</time>
   </trkpt>
   <trkpt lat="-3.0974010" lon="37.3782030">
    <ele>4705.3</ele>
    <time>2026-06-22T21:59:39Z</time>
   </trkpt>
   <trkpt lat="-3.0973960" lon="37.3782050">
    <ele>4705.4</ele>
    <time>2026-06-22T21:59:40Z</time>
   </trkpt>
   <trkpt lat="-3.0973950" lon="37.3782060">
    <ele>4705.5</ele>
    <time>2026-06-22T21:59:41Z</time>
   </trkpt>
   <trkpt lat="-3.0973900" lon="37.3782070">
    <ele>4705.6</ele>
    <time>2026-06-22T21:59:42Z</time>
   </trkpt>
   <trkpt lat="-3.0973840" lon="37.3782090">
    <ele>4705.7</ele>
    <time>2026-06-22T21:59:43Z</time>
   </trkpt>
   <trkpt lat="-3.0973830" lon="37.3782090">
    <ele>4705.7</ele>
    <time>2026-06-22T21:59:44Z</time>
   </trkpt>
   <trkpt lat="-3.0973790" lon="37.3782110">
    <ele>4705.8</ele>
    <time>2026-06-22T21:59:45Z</time>
   </trkpt>
   <trkpt lat="-3.0973770" lon="37.3782110">
    <ele>4705.9</ele>
    <time>2026-06-22T21:59:46Z</time>
   </trkpt>
   <trkpt lat="-3.0973740" lon="37.3782110">
    <ele>4705.9</ele>
    <time>2026-06-22T21:59:47Z</time>
   </trkpt>
   <trkpt lat="-3.0973690" lon="37.3782090">
    <ele>4706.1</ele>
    <time>2026-06-22T21:59:48Z</time>
   </trkpt>
   <trkpt lat="-3.0973680" lon="37.3782080">
    <ele>4706.1</ele>
    <time>2026-06-22T21:59:49Z</time>
   </trkpt>
   <trkpt lat="-3.0973650" lon="37.3782070">
    <ele>4706.2</ele>
    <time>2026-06-22T21:59:50Z</time>
   </trkpt>
   <trkpt lat="-3.0973610" lon="37.3782070">
    <ele>4706.2</ele>
    <time>2026-06-22T21:59:51Z</time>
   </trkpt>
   <trkpt lat="-3.0973610" lon="37.3782080">
    <ele>4706.3</ele>
    <time>2026-06-22T21:59:52Z</time>
   </trkpt>
   <trkpt lat="-3.0973610" lon="37.3782090">
    <ele>4706.3</ele>
    <time>2026-06-22T21:59:53Z</time>
   </trkpt>
   <trkpt lat="-3.0973610" lon="37.3782080">
    <ele>4706.3</ele>
    <time>2026-06-22T21:59:54Z</time>
   </trkpt>
   <trkpt lat="-3.0973600" lon="37.3782090">
    <ele>4706.3</ele>
    <time>2026-06-22T21:59:55Z</time>
   </trkpt>
   <trkpt lat="-3.0973560" lon="37.3782100">
    <ele>4706.4</ele>
    <time>2026-06-22T21:59:56Z</time>
   </trkpt>
   <trkpt lat="-3.0973530" lon="37.3782120">
    <ele>4706.5</ele>
    <time>2026-06-22T21:59:57Z</time>
   </trkpt>
   <trkpt lat="-3.0973520" lon="37.3782120">
    <ele>4706.5</ele>
    <time>2026-06-22T21:59:58Z</time>
   </trkpt>
   <trkpt lat="-3.0973490" lon="37.3782120">
    <ele>4706.6</ele>
    <time>2026-06-22T21:59:59Z</time>
   </trkpt>
   <trkpt lat="-3.0973470" lon="37.3782090">
    <ele>4706.7</ele>
    <time>2026-06-22T22:00:00Z</time>
   </trkpt>
   <trkpt lat="-3.0973430" lon="37.3782080">
    <ele>4706.8</ele>
    <time>2026-06-22T22:00:01Z</time>
   </trkpt>
   <trkpt lat="-3.0973450" lon="37.3782060">
    <ele>4706.8</ele>
    <time>2026-06-22T22:00:02Z</time>
   </trkpt>
   <trkpt lat="-3.0973460" lon="37.3782050">
    <ele>4706.9</ele>
    <time>2026-06-22T22:00:03Z</time>
   </trkpt>
   <trkpt lat="-3.0973470" lon="37.3782020">
    <ele>4706.9</ele>
    <time>2026-06-22T22:00:04Z</time>
   </trkpt>
   <trkpt lat="-3.0973470" lon="37.3782000">
    <ele>4707.0</ele>
    <time>2026-06-22T22:00:05Z</time>
   </trkpt>
   <trkpt lat="-3.0973460" lon="37.3782000">
    <ele>4707.0</ele>
    <time>2026-06-22T22:00:06Z</time>
   </trkpt>
   <trkpt lat="-3.0973440" lon="37.3782010">
    <ele>4707.1</ele>
    <time>2026-06-22T22:00:07Z</time>
   </trkpt>
   <trkpt lat="-3.0973420" lon="37.3781970">
    <ele>4707.2</ele>
    <time>2026-06-22T22:00:08Z</time>
   </trkpt>
   <trkpt lat="-3.0973430" lon="37.3781960">
    <ele>4707.2</ele>
    <time>2026-06-22T22:00:09Z</time>
   </trkpt>
   <trkpt lat="-3.0973450" lon="37.3781960">
    <ele>4707.3</ele>
    <time>2026-06-22T22:00:10Z</time>
   </trkpt>
   <trkpt lat="-3.0973420" lon="37.3781950">
    <ele>4707.3</ele>
    <time>2026-06-22T22:00:11Z</time>
   </trkpt>
   <trkpt lat="-3.0973440" lon="37.3781910">
    <ele>4707.4</ele>
    <time>2026-06-22T22:00:12Z</time>
   </trkpt>
   <trkpt lat="-3.0973360" lon="37.3781920">
    <ele>4707.6</ele>
    <time>2026-06-22T22:00:13Z</time>
   </trkpt>
   <trkpt lat="-3.0973400" lon="37.3781890">
    <ele>4707.8</ele>
    <time>2026-06-22T22:00:14Z</time>
   </trkpt>
   <trkpt lat="-3.0973380" lon="37.3781860">
    <ele>4707.8</ele>
    <time>2026-06-22T22:00:15Z</time>
   </trkpt>
   <trkpt lat="-3.0973350" lon="37.3781820">
    <ele>4708.0</ele>
    <time>2026-06-22T22:00:16Z</time>
   </trkpt>
   <trkpt lat="-3.0973340" lon="37.3781790">
    <ele>4708.0</ele>
    <time>2026-06-22T22:00:17Z</time>
   </trkpt>
   <trkpt lat="-3.0973350" lon="37.3781760">
    <ele>4708.1</ele>
    <time>2026-06-22T22:00:18Z</time>
   </trkpt>
   <trkpt lat="-3.0973330" lon="37.3781740">
    <ele>4708.2</ele>
    <time>2026-06-22T22:00:19Z</time>
   </trkpt>
   <trkpt lat="-3.0973350" lon="37.3781710">
    <ele>4708.3</ele>
    <time>2026-06-22T22:00:20Z</time>
   </trkpt>
   <trkpt lat="-3.0973330" lon="37.3781700">
    <ele>4708.3</ele>
    <time>2026-06-22T22:00:21Z</time>
   </trkpt>
   <trkpt lat="-3.0973330" lon="37.3781670">
    <ele>4708.4</ele>
    <time>2026-06-22T22:00:22Z</time>
   </trkpt>
   <trkpt lat="-3.0973330" lon="37.3781640">
    <ele>4708.5</ele>
    <time>2026-06-22T22:00:23Z</time>
   </trkpt>
   <trkpt lat="-3.0973330" lon="37.3781610">
    <ele>4708.5</ele>
    <time>2026-06-22T22:00:24Z</time>
   </trkpt>
   <trkpt lat="-3.0973310" lon="37.3781590">
    <ele>4708.6</ele>
    <time>2026-06-22T22:00:25Z</time>
   </trkpt>
   <trkpt lat="-3.0973270" lon="37.3781560">
    <ele>4708.7</ele>
    <time>2026-06-22T22:00:26Z</time>
   </trkpt>
   <trkpt lat="-3.0973150" lon="37.3781540">
    <ele>4709.1</ele>
    <time>2026-06-22T22:00:27Z</time>
   </trkpt>
   <trkpt lat="-3.0973210" lon="37.3781500">
    <ele>4709.3</ele>
    <time>2026-06-22T22:00:28Z</time>
   </trkpt>
   <trkpt lat="-3.0973200" lon="37.3781460">
    <ele>4709.4</ele>
    <time>2026-06-22T22:00:29Z</time>
   </trkpt>
   <trkpt lat="-3.0973210" lon="37.3781420">
    <ele>4709.5</ele>
    <time>2026-06-22T22:00:30Z</time>
   </trkpt>
   <trkpt lat="-3.0973220" lon="37.3781390">
    <ele>4709.6</ele>
    <time>2026-06-22T22:00:31Z</time>
   </trkpt>
   <trkpt lat="-3.0973250" lon="37.3781380">
    <ele>4709.7</ele>
    <time>2026-06-22T22:00:32Z</time>
   </trkpt>
   <trkpt lat="-3.0973260" lon="37.3781330">
    <ele>4709.8</ele>
    <time>2026-06-22T22:00:33Z</time>
   </trkpt>
   <trkpt lat="-3.0973250" lon="37.3781310">
    <ele>4709.9</ele>
    <time>2026-06-22T22:00:34Z</time>
   </trkpt>
   <trkpt lat="-3.0973280" lon="37.3781290">
    <ele>4710.0</ele>
    <time>2026-06-22T22:00:35Z</time>
   </trkpt>
   <trkpt lat="-3.0973270" lon="37.3781230">
    <ele>4710.1</ele>
    <time>2026-06-22T22:00:36Z</time>
   </trkpt>
   <trkpt lat="-3.0973250" lon="37.3781220">
    <ele>4710.2</ele>
    <time>2026-06-22T22:00:37Z</time>
   </trkpt>
   <trkpt lat="-3.0973260" lon="37.3781190">
    <ele>4710.3</ele>
    <time>2026-06-22T22:00:38Z</time>
   </trkpt>
   <trkpt lat="-3.0973240" lon="37.3781160">
    <ele>4710.4</ele>
    <time>2026-06-22T22:00:39Z</time>
   </trkpt>
   <trkpt lat="-3.0973270" lon="37.3781130">
    <ele>4710.5</ele>
    <time>2026-06-22T22:00:40Z</time>
   </trkpt>
   <trkpt lat="-3.0973250" lon="37.3781100">
    <ele>4710.6</ele>
    <time>2026-06-22T22:00:41Z</time>
   </trkpt>
   <trkpt lat="-3.0973290" lon="37.3781070">
    <ele>4710.7</ele>
    <time>2026-06-22T22:00:42Z</time>
   </trkpt>
   <trkpt lat="-3.0973300" lon="37.3781040">
    <ele>4710.8</ele>
    <time>2026-06-22T22:00:43Z</time>
   </trkpt>
   <trkpt lat="-3.0973290" lon="37.3781000">
    <ele>4710.9</ele>
    <time>2026-06-22T22:00:44Z</time>
   </trkpt>
   <trkpt lat="-3.0973310" lon="37.3780980">
    <ele>4711.0</ele>
    <time>2026-06-22T22:00:45Z</time>
   </trkpt>
   <trkpt lat="-3.0973300" lon="37.3780950">
    <ele>4711.1</ele>
    <time>2026-06-22T22:00:46Z</time>
   </trkpt>
   <trkpt lat="-3.0973310" lon="37.3780920">
    <ele>4711.2</ele>
    <time>2026-06-22T22:00:47Z</time>
   </trkpt>
   <trkpt lat="-3.0973320" lon="37.3780880">
    <ele>4711.3</ele>
    <time>2026-06-22T22:00:48Z</time>
   </trkpt>
   <trkpt lat="-3.0973310" lon="37.3780860">
    <ele>4711.4</ele>
    <time>2026-06-22T22:00:49Z</time>
   </trkpt>
   <trkpt lat="-3.0973300" lon="37.3780840">
    <ele>4711.4</ele>
    <time>2026-06-22T22:00:50Z</time>
   </trkpt>
   <trkpt lat="-3.0973280" lon="37.3780820">
    <ele>4711.5</ele>
    <time>2026-06-22T22:00:51Z</time>
   </trkpt>
   <trkpt lat="-3.0973250" lon="37.3780790">
    <ele>4711.7</ele>
    <time>2026-06-22T22:00:52Z</time>
   </trkpt>
   <trkpt lat="-3.0973220" lon="37.3780790">
    <ele>4711.7</ele>
    <time>2026-06-22T22:00:53Z</time>
   </trkpt>
   <trkpt lat="-3.0973230" lon="37.3780750">
    <ele>4711.9</ele>
    <time>2026-06-22T22:00:54Z</time>
   </trkpt>
   <trkpt lat="-3.0973240" lon="37.3780740">
    <ele>4711.9</ele>
    <time>2026-06-22T22:00:55Z</time>
   </trkpt>
   <trkpt lat="-3.0973240" lon="37.3780740">
    <ele>4711.9</ele>
    <time>2026-06-22T22:00:56Z</time>
   </trkpt>
   <trkpt lat="-3.0973170" lon="37.3780740">
    <ele>4712.1</ele>
    <time>2026-06-22T22:00:57Z</time>
   </trkpt>
   <trkpt lat="-3.0973140" lon="37.3780750">
    <ele>4712.2</ele>
    <time>2026-06-22T22:00:58Z</time>
   </trkpt>
   <trkpt lat="-3.0973130" lon="37.3780750">
    <ele>4712.2</ele>
    <time>2026-06-22T22:00:59Z</time>
   </trkpt>
   <trkpt lat="-3.0973090" lon="37.3780750">
    <ele>4712.3</ele>
    <time>2026-06-22T22:01:00Z</time>
   </trkpt>
   <trkpt lat="-3.0973070" lon="37.3780720">
    <ele>4712.4</ele>
    <time>2026-06-22T22:01:01Z</time>
   </trkpt>
   <trkpt lat="-3.0973020" lon="37.3780730">
    <ele>4712.6</ele>
    <time>2026-06-22T22:01:02Z</time>
   </trkpt>
   <trkpt lat="-3.0973020" lon="37.3780760">
    <ele>4712.7</ele>
    <time>2026-06-22T22:01:03Z</time>
   </trkpt>
   <trkpt lat="-3.0973030" lon="37.3780780">
    <ele>4712.8</ele>
    <time>2026-06-22T22:01:04Z</time>
   </trkpt>
   <trkpt lat="-3.0973040" lon="37.3780780">
    <ele>4712.8</ele>
    <time>2026-06-22T22:01:05Z</time>
   </trkpt>
   <trkpt lat="-3.0973040" lon="37.3780780">
    <ele>4712.8</ele>
    <time>2026-06-22T22:01:06Z</time>
   </trkpt>
   <trkpt lat="-3.0973040" lon="37.3780780">
    <ele>4712.8</ele>
    <time>2026-06-22T22:01:07Z</time>
   </trkpt>
   <trkpt lat="-3.0973020" lon="37.3780850">
    <ele>4713.0</ele>
    <time>2026-06-22T22:01:08Z</time>
   </trkpt>
   <trkpt lat="-3.0973020" lon="37.3780850">
    <ele>4713.0</ele>
    <time>2026-06-22T22:01:09Z</time>
   </trkpt>
   <trkpt lat="-3.0972980" lon="37.3780860">
    <ele>4713.2</ele>
    <time>2026-06-22T22:01:10Z</time>
   </trkpt>
   <trkpt lat="-3.0972980" lon="37.3780840">
    <ele>4713.2</ele>
    <time>2026-06-22T22:01:11Z</time>
   </trkpt>
   <trkpt lat="-3.0972970" lon="37.3780850">
    <ele>4713.3</ele>
    <time>2026-06-22T22:01:12Z</time>
   </trkpt>
   <trkpt lat="-3.0972950" lon="37.3780880">
    <ele>4713.4</ele>
    <time>2026-06-22T22:01:13Z</time>
   </trkpt>
   <trkpt lat="-3.0972950" lon="37.3780880">
    <ele>4713.4</ele>
    <time>2026-06-22T22:01:14Z</time>
   </trkpt>
   <trkpt lat="-3.0972970" lon="37.3780910">
    <ele>4713.5</ele>
    <time>2026-06-22T22:01:15Z</time>
   </trkpt>
   <trkpt lat="-3.0972920" lon="37.3780910">
    <ele>4713.6</ele>
    <time>2026-06-22T22:01:16Z</time>
   </trkpt>
   <trkpt lat="-3.0972920" lon="37.3780930">
    <ele>4713.7</ele>
    <time>2026-06-22T22:01:17Z</time>
   </trkpt>
   <trkpt lat="-3.0972900" lon="37.3780940">
    <ele>4713.8</ele>
    <time>2026-06-22T22:01:18Z</time>
   </trkpt>
   <trkpt lat="-3.0972890" lon="37.3780940">
    <ele>4713.8</ele>
    <time>2026-06-22T22:01:19Z</time>
   </trkpt>
   <trkpt lat="-3.0972860" lon="37.3780960">
    <ele>4713.9</ele>
    <time>2026-06-22T22:01:20Z</time>
   </trkpt>
   <trkpt lat="-3.0972880" lon="37.3780950">
    <ele>4714.0</ele>
    <time>2026-06-22T22:01:21Z</time>
   </trkpt>
   <trkpt lat="-3.0972820" lon="37.3780960">
    <ele>4714.2</ele>
    <time>2026-06-22T22:01:22Z</time>
   </trkpt>
   <trkpt lat="-3.0972820" lon="37.3780950">
    <ele>4714.2</ele>
    <time>2026-06-22T22:01:23Z</time>
   </trkpt>
   <trkpt lat="-3.0972850" lon="37.3780920">
    <ele>4714.3</ele>
    <time>2026-06-22T22:01:24Z</time>
   </trkpt>
   <trkpt lat="-3.0972800" lon="37.3780880">
    <ele>4714.5</ele>
    <time>2026-06-22T22:01:25Z</time>
   </trkpt>
   <trkpt lat="-3.0972820" lon="37.3780860">
    <ele>4714.6</ele>
    <time>2026-06-22T22:01:26Z</time>
   </trkpt>
   <trkpt lat="-3.0972850" lon="37.3780830">
    <ele>4714.7</ele>
    <time>2026-06-22T22:01:27Z</time>
   </trkpt>
   <trkpt lat="-3.0972850" lon="37.3780780">
    <ele>4714.9</ele>
    <time>2026-06-22T22:01:28Z</time>
   </trkpt>
   <trkpt lat="-3.0972830" lon="37.3780750">
    <ele>4715.0</ele>
    <time>2026-06-22T22:01:29Z</time>
   </trkpt>
   <trkpt lat="-3.0972850" lon="37.3780740">
    <ele>4715.1</ele>
    <time>2026-06-22T22:01:30Z</time>
   </trkpt>
   <trkpt lat="-3.0972870" lon="37.3780730">
    <ele>4715.1</ele>
    <time>2026-06-22T22:01:31Z</time>
   </trkpt>
   <trkpt lat="-3.0972870" lon="37.3780680">
    <ele>4715.3</ele>
    <time>2026-06-22T22:01:32Z</time>
   </trkpt>
   <trkpt lat="-3.0972890" lon="37.3780660">
    <ele>4715.4</ele>
    <time>2026-06-22T22:01:33Z</time>
   </trkpt>
   <trkpt lat="-3.0972890" lon="37.3780650">
    <ele>4715.4</ele>
    <time>2026-06-22T22:01:34Z</time>
   </trkpt>
   <trkpt lat="-3.0972900" lon="37.3780600">
    <ele>4715.6</ele>
    <time>2026-06-22T22:01:35Z</time>
   </trkpt>
   <trkpt lat="-3.0972920" lon="37.3780560">
    <ele>4715.7</ele>
    <time>2026-06-22T22:01:36Z</time>
   </trkpt>
   <trkpt lat="-3.0972900" lon="37.3780560">
    <ele>4715.8</ele>
    <time>2026-06-22T22:01:37Z</time>
   </trkpt>
   <trkpt lat="-3.0972840" lon="37.3780510">
    <ele>4716.0</ele>
    <time>2026-06-22T22:01:38Z</time>
   </trkpt>
   <trkpt lat="-3.0972870" lon="37.3780500">
    <ele>4716.1</ele>
    <time>2026-06-22T22:01:39Z</time>
   </trkpt>
   <trkpt lat="-3.0972860" lon="37.3780520">
    <ele>4716.2</ele>
    <time>2026-06-22T22:01:40Z</time>
   </trkpt>
   <trkpt lat="-3.0972810" lon="37.3780540">
    <ele>4716.4</ele>
    <time>2026-06-22T22:01:41Z</time>
   </trkpt>
   <trkpt lat="-3.0972800" lon="37.3780550">
    <ele>4716.4</ele>
    <time>2026-06-22T22:01:42Z</time>
   </trkpt>
   <trkpt lat="-3.0972800" lon="37.3780550">
    <ele>4716.4</ele>
    <time>2026-06-22T22:01:43Z</time>
   </trkpt>
   <trkpt lat="-3.0972800" lon="37.3780550">
    <ele>4716.4</ele>
    <time>2026-06-22T22:01:44Z</time>
   </trkpt>
   <trkpt lat="-3.0972770" lon="37.3780600">
    <ele>4716.6</ele>
    <time>2026-06-22T22:01:45Z</time>
   </trkpt>
   <trkpt lat="-3.0972780" lon="37.3780630">
    <ele>4716.7</ele>
    <time>2026-06-22T22:01:46Z</time>
   </trkpt>
   <trkpt lat="-3.0972730" lon="37.3780650">
    <ele>4716.8</ele>
    <time>2026-06-22T22:01:47Z</time>
   </trkpt>
   <trkpt lat="-3.0972740" lon="37.3780650">
    <ele>4716.9</ele>
    <time>2026-06-22T22:01:48Z</time>
   </trkpt>
   <trkpt lat="-3.0972740" lon="37.3780650">
    <ele>4716.9</ele>
    <time>2026-06-22T22:01:49Z</time>
   </trkpt>
   <trkpt lat="-3.0972720" lon="37.3780660">
    <ele>4716.9</ele>
    <time>2026-06-22T22:01:50Z</time>
   </trkpt>
   <trkpt lat="-3.0972680" lon="37.3780660">
    <ele>4717.1</ele>
    <time>2026-06-22T22:01:51Z</time>
   </trkpt>
   <trkpt lat="-3.0972610" lon="37.3780640">
    <ele>4717.3</ele>
    <time>2026-06-22T22:01:52Z</time>
   </trkpt>
   <trkpt lat="-3.0972620" lon="37.3780650">
    <ele>4717.3</ele>
    <time>2026-06-22T22:01:53Z</time>
   </trkpt>
   <trkpt lat="-3.0972570" lon="37.3780650">
    <ele>4717.5</ele>
    <time>2026-06-22T22:01:54Z</time>
   </trkpt>
   <trkpt lat="-3.0972580" lon="37.3780680">
    <ele>4717.6</ele>
    <time>2026-06-22T22:01:55Z</time>
   </trkpt>
   <trkpt lat="-3.0972580" lon="37.3780670">
    <ele>4717.6</ele>
    <time>2026-06-22T22:01:56Z</time>
   </trkpt>
   <trkpt lat="-3.0972580" lon="37.3780670">
    <ele>4717.6</ele>
    <time>2026-06-22T22:01:57Z</time>
   </trkpt>
   <trkpt lat="-3.0972580" lon="37.3780670">
    <ele>4717.6</ele>
    <time>2026-06-22T22:01:58Z</time>
   </trkpt>
   <trkpt lat="-3.0972580" lon="37.3780670">
    <ele>4717.6</ele>
    <time>2026-06-22T22:01:59Z</time>
   </trkpt>
   <trkpt lat="-3.0972580" lon="37.3780670">
    <ele>4717.6</ele>
    <time>2026-06-22T22:02:00Z</time>
   </trkpt>
   <trkpt lat="-3.0972580" lon="37.3780670">
    <ele>4717.6</ele>
    <time>2026-06-22T22:02:01Z</time>
   </trkpt>
   <trkpt lat="-3.0972560" lon="37.3780680">
    <ele>4717.7</ele>
    <time>2026-06-22T22:02:02Z</time>
   </trkpt>
   <trkpt lat="-3.0972560" lon="37.3780680">
    <ele>4717.7</ele>
    <time>2026-06-22T22:02:03Z</time>
   </trkpt>
   <trkpt lat="-3.0972560" lon="37.3780680">
    <ele>4717.7</ele>
    <time>2026-06-22T22:02:04Z</time>
   </trkpt>
   <trkpt lat="-3.0972570" lon="37.3780670">
    <ele>4717.7</ele>
    <time>2026-06-22T22:02:05Z</time>
   </trkpt>
   <trkpt lat="-3.0972560" lon="37.3780670">
    <ele>4717.8</ele>
    <time>2026-06-22T22:02:06Z</time>
   </trkpt>
   <trkpt lat="-3.0972570" lon="37.3780670">
    <ele>4717.8</ele>
    <time>2026-06-22T22:02:07Z</time>
   </trkpt>
   <trkpt lat="-3.0972570" lon="37.3780670">
    <ele>4717.8</ele>
    <time>2026-06-22T22:02:08Z</time>
   </trkpt>
   <trkpt lat="-3.0972570" lon="37.3780670">
    <ele>4717.8</ele>
    <time>2026-06-22T22:02:09Z</time>
   </trkpt>
   <trkpt lat="-3.0972570" lon="37.3780670">
    <ele>4717.8</ele>
    <time>2026-06-22T22:02:10Z</time>
   </trkpt>
   <trkpt lat="-3.0972560" lon="37.3780680">
    <ele>4717.8</ele>
    <time>2026-06-22T22:02:11Z</time>
   </trkpt>
   <trkpt lat="-3.0972560" lon="37.3780690">
    <ele>4717.9</ele>
    <time>2026-06-22T22:02:12Z</time>
   </trkpt>
   <trkpt lat="-3.0972560" lon="37.3780690">
    <ele>4717.9</ele>
    <time>2026-06-22T22:02:13Z</time>
   </trkpt>
   <trkpt lat="-3.0972560" lon="37.3780690">
    <ele>4717.9</ele>
    <time>2026-06-22T22:02:14Z</time>
   </trkpt>
   <trkpt lat="-3.0972560" lon="37.3780690">
    <ele>4717.9</ele>
    <time>2026-06-22T22:02:15Z</time>
   </trkpt>
   <trkpt lat="-3.0972570" lon="37.3780690">
    <ele>4717.9</ele>
    <time>2026-06-22T22:02:16Z</time>
   </trkpt>
   <trkpt lat="-3.0972570" lon="37.3780690">
    <ele>4717.9</ele>
    <time>2026-06-22T22:02:17Z</time>
   </trkpt>
   <trkpt lat="-3.0972580" lon="37.3780690">
    <ele>4717.9</ele>
    <time>2026-06-22T22:02:18Z</time>
   </trkpt>
   <trkpt lat="-3.0972590" lon="37.3780680">
    <ele>4718.0</ele>
    <time>2026-06-22T22:02:19Z</time>
   </trkpt>
   <trkpt lat="-3.0972590" lon="37.3780690">
    <ele>4718.0</ele>
    <time>2026-06-22T22:02:20Z</time>
   </trkpt>
   <trkpt lat="-3.0972560" lon="37.3780710">
    <ele>4718.1</ele>
    <time>2026-06-22T22:02:21Z</time>
   </trkpt>
   <trkpt lat="-3.0972530" lon="37.3780710">
    <ele>4718.2</ele>
    <time>2026-06-22T22:02:22Z</time>
   </trkpt>
   <trkpt lat="-3.0972510" lon="37.3780690">
    <ele>4718.3</ele>
    <time>2026-06-22T22:02:23Z</time>
   </trkpt>
   <trkpt lat="-3.0972500" lon="37.3780680">
    <ele>4718.3</ele>
    <time>2026-06-22T22:02:24Z</time>
   </trkpt>
   <trkpt lat="-3.0972500" lon="37.3780660">
    <ele>4718.4</ele>
    <time>2026-06-22T22:02:25Z</time>
   </trkpt>
   <trkpt lat="-3.0972510" lon="37.3780650">
    <ele>4718.4</ele>
    <time>2026-06-22T22:02:26Z</time>
   </trkpt>
   <trkpt lat="-3.0972500" lon="37.3780580">
    <ele>4718.7</ele>
    <time>2026-06-22T22:02:27Z</time>
   </trkpt>
   <trkpt lat="-3.0972540" lon="37.3780610">
    <ele>4718.8</ele>
    <time>2026-06-22T22:02:28Z</time>
   </trkpt>
   <trkpt lat="-3.0972510" lon="37.3780570">
    <ele>4719.0</ele>
    <time>2026-06-22T22:02:29Z</time>
   </trkpt>
   <trkpt lat="-3.0972510" lon="37.3780510">
    <ele>4719.2</ele>
    <time>2026-06-22T22:02:30Z</time>
   </trkpt>
   <trkpt lat="-3.0972510" lon="37.3780510">
    <ele>4719.2</ele>
    <time>2026-06-22T22:02:31Z</time>
   </trkpt>
   <trkpt lat="-3.0972510" lon="37.3780520">
    <ele>4719.2</ele>
    <time>2026-06-22T22:02:32Z</time>
   </trkpt>
   <trkpt lat="-3.0972540" lon="37.3780470">
    <ele>4719.4</ele>
    <time>2026-06-22T22:02:33Z</time>
   </trkpt>
   <trkpt lat="-3.0972540" lon="37.3780440">
    <ele>4719.5</ele>
    <time>2026-06-22T22:02:34Z</time>
   </trkpt>
   <trkpt lat="-3.0972540" lon="37.3780390">
    <ele>4719.6</ele>
    <time>2026-06-22T22:02:35Z</time>
   </trkpt>
   <trkpt lat="-3.0972530" lon="37.3780350">
    <ele>4719.7</ele>
    <time>2026-06-22T22:02:36Z</time>
   </trkpt>
   <trkpt lat="-3.0972540" lon="37.3780360">
    <ele>4719.8</ele>
    <time>2026-06-22T22:02:37Z</time>
   </trkpt>
   <trkpt lat="-3.0972540" lon="37.3780320">
    <ele>4719.9</ele>
    <time>2026-06-22T22:02:38Z</time>
   </trkpt>
   <trkpt lat="-3.0972570" lon="37.3780300">
    <ele>4720.0</ele>
    <time>2026-06-22T22:02:39Z</time>
   </trkpt>
   <trkpt lat="-3.0972570" lon="37.3780220">
    <ele>4720.3</ele>
    <time>2026-06-22T22:02:40Z</time>
   </trkpt>
   <trkpt lat="-3.0972550" lon="37.3780250">
    <ele>4720.4</ele>
    <time>2026-06-22T22:02:41Z</time>
   </trkpt>
   <trkpt lat="-3.0972520" lon="37.3780220">
    <ele>4720.5</ele>
    <time>2026-06-22T22:02:42Z</time>
   </trkpt>
   <trkpt lat="-3.0972490" lon="37.3780200">
    <ele>4720.6</ele>
    <time>2026-06-22T22:02:43Z</time>
   </trkpt>
   <trkpt lat="-3.0972470" lon="37.3780180">
    <ele>4720.7</ele>
    <time>2026-06-22T22:02:44Z</time>
   </trkpt>
   <trkpt lat="-3.0972460" lon="37.3780150">
    <ele>4720.8</ele>
    <time>2026-06-22T22:02:45Z</time>
   </trkpt>
   <trkpt lat="-3.0972430" lon="37.3780080">
    <ele>4721.0</ele>
    <time>2026-06-22T22:02:46Z</time>
   </trkpt>
   <trkpt lat="-3.0972420" lon="37.3780070">
    <ele>4721.1</ele>
    <time>2026-06-22T22:02:47Z</time>
   </trkpt>
   <trkpt lat="-3.0972400" lon="37.3780010">
    <ele>4721.3</ele>
    <time>2026-06-22T22:02:48Z</time>
   </trkpt>
   <trkpt lat="-3.0972390" lon="37.3779990">
    <ele>4721.3</ele>
    <time>2026-06-22T22:02:49Z</time>
   </trkpt>
   <trkpt lat="-3.0972380" lon="37.3779950">
    <ele>4721.5</ele>
    <time>2026-06-22T22:02:50Z</time>
   </trkpt>
   <trkpt lat="-3.0972370" lon="37.3779900">
    <ele>4721.6</ele>
    <time>2026-06-22T22:02:51Z</time>
   </trkpt>
   <trkpt lat="-3.0972380" lon="37.3779900">
    <ele>4721.7</ele>
    <time>2026-06-22T22:02:52Z</time>
   </trkpt>
   <trkpt lat="-3.0972380" lon="37.3779870">
    <ele>4721.8</ele>
    <time>2026-06-22T22:02:53Z</time>
   </trkpt>
   <trkpt lat="-3.0972380" lon="37.3779850">
    <ele>4721.8</ele>
    <time>2026-06-22T22:02:54Z</time>
   </trkpt>
   <trkpt lat="-3.0972390" lon="37.3779870">
    <ele>4721.9</ele>
    <time>2026-06-22T22:02:55Z</time>
   </trkpt>
   <trkpt lat="-3.0972380" lon="37.3779840">
    <ele>4722.0</ele>
    <time>2026-06-22T22:02:56Z</time>
   </trkpt>
   <trkpt lat="-3.0972370" lon="37.3779800">
    <ele>4722.1</ele>
    <time>2026-06-22T22:02:57Z</time>
   </trkpt>
   <trkpt lat="-3.0972380" lon="37.3779790">
    <ele>4722.2</ele>
    <time>2026-06-22T22:02:58Z</time>
   </trkpt>
   <trkpt lat="-3.0972380" lon="37.3779790">
    <ele>4722.2</ele>
    <time>2026-06-22T22:02:59Z</time>
   </trkpt>
   <trkpt lat="-3.0972340" lon="37.3779740">
    <ele>4722.4</ele>
    <time>2026-06-22T22:03:00Z</time>
   </trkpt>
   <trkpt lat="-3.0972340" lon="37.3779740">
    <ele>4722.4</ele>
    <time>2026-06-22T22:03:01Z</time>
   </trkpt>
   <trkpt lat="-3.0972330" lon="37.3779730">
    <ele>4722.4</ele>
    <time>2026-06-22T22:03:02Z</time>
   </trkpt>
   <trkpt lat="-3.0972310" lon="37.3779700">
    <ele>4722.5</ele>
    <time>2026-06-22T22:03:03Z</time>
   </trkpt>
   <trkpt lat="-3.0972280" lon="37.3779660">
    <ele>4722.7</ele>
    <time>2026-06-22T22:03:04Z</time>
   </trkpt>
   <trkpt lat="-3.0972260" lon="37.3779640">
    <ele>4722.8</ele>
    <time>2026-06-22T22:03:05Z</time>
   </trkpt>
   <trkpt lat="-3.0972250" lon="37.3779620">
    <ele>4722.8</ele>
    <time>2026-06-22T22:03:06Z</time>
   </trkpt>
   <trkpt lat="-3.0972230" lon="37.3779600">
    <ele>4722.9</ele>
    <time>2026-06-22T22:03:07Z</time>
   </trkpt>
   <trkpt lat="-3.0972210" lon="37.3779580">
    <ele>4723.0</ele>
    <time>2026-06-22T22:03:08Z</time>
   </trkpt>
   <trkpt lat="-3.0972210" lon="37.3779550">
    <ele>4723.1</ele>
    <time>2026-06-22T22:03:09Z</time>
   </trkpt>
   <trkpt lat="-3.0972190" lon="37.3779530">
    <ele>4723.2</ele>
    <time>2026-06-22T22:03:10Z</time>
   </trkpt>
   <trkpt lat="-3.0972170" lon="37.3779500">
    <ele>4723.3</ele>
    <time>2026-06-22T22:03:11Z</time>
   </trkpt>
   <trkpt lat="-3.0972150" lon="37.3779480">
    <ele>4723.4</ele>
    <time>2026-06-22T22:03:12Z</time>
   </trkpt>
   <trkpt lat="-3.0972130" lon="37.3779440">
    <ele>4723.5</ele>
    <time>2026-06-22T22:03:13Z</time>
   </trkpt>
   <trkpt lat="-3.0972120" lon="37.3779450">
    <ele>4723.6</ele>
    <time>2026-06-22T22:03:14Z</time>
   </trkpt>
   <trkpt lat="-3.0972110" lon="37.3779400">
    <ele>4723.7</ele>
    <time>2026-06-22T22:03:15Z</time>
   </trkpt>
   <trkpt lat="-3.0972100" lon="37.3779410">
    <ele>4723.8</ele>
    <time>2026-06-22T22:03:16Z</time>
   </trkpt>
   <trkpt lat="-3.0972080" lon="37.3779380">
    <ele>4723.9</ele>
    <time>2026-06-22T22:03:17Z</time>
   </trkpt>
   <trkpt lat="-3.0972030" lon="37.3779360">
    <ele>4724.0</ele>
    <time>2026-06-22T22:03:18Z</time>
   </trkpt>
   <trkpt lat="-3.0972030" lon="37.3779360">
    <ele>4724.0</ele>
    <time>2026-06-22T22:03:19Z</time>
   </trkpt>
   <trkpt lat="-3.0972010" lon="37.3779350">
    <ele>4724.1</ele>
    <time>2026-06-22T22:03:20Z</time>
   </trkpt>
   <trkpt lat="-3.0971990" lon="37.3779350">
    <ele>4724.2</ele>
    <time>2026-06-22T22:03:21Z</time>
   </trkpt>
   <trkpt lat="-3.0971950" lon="37.3779340">
    <ele>4724.3</ele>
    <time>2026-06-22T22:03:22Z</time>
   </trkpt>
   <trkpt lat="-3.0971900" lon="37.3779320">
    <ele>4724.5</ele>
    <time>2026-06-22T22:03:23Z</time>
   </trkpt>
   <trkpt lat="-3.0971900" lon="37.3779350">
    <ele>4724.6</ele>
    <time>2026-06-22T22:03:24Z</time>
   </trkpt>
   <trkpt lat="-3.0971870" lon="37.3779350">
    <ele>4724.6</ele>
    <time>2026-06-22T22:03:25Z</time>
   </trkpt>
   <trkpt lat="-3.0971870" lon="37.3779360">
    <ele>4724.7</ele>
    <time>2026-06-22T22:03:26Z</time>
   </trkpt>
   <trkpt lat="-3.0971840" lon="37.3779370">
    <ele>4724.8</ele>
    <time>2026-06-22T22:03:27Z</time>
   </trkpt>
   <trkpt lat="-3.0971810" lon="37.3779390">
    <ele>4724.9</ele>
    <time>2026-06-22T22:03:28Z</time>
   </trkpt>
   <trkpt lat="-3.0971780" lon="37.3779390">
    <ele>4725.0</ele>
    <time>2026-06-22T22:03:29Z</time>
   </trkpt>
   <trkpt lat="-3.0971750" lon="37.3779380">
    <ele>4725.1</ele>
    <time>2026-06-22T22:03:30Z</time>
   </trkpt>
   <trkpt lat="-3.0971730" lon="37.3779380">
    <ele>4725.1</ele>
    <time>2026-06-22T22:03:31Z</time>
   </trkpt>
   <trkpt lat="-3.0971710" lon="37.3779390">
    <ele>4725.2</ele>
    <time>2026-06-22T22:03:32Z</time>
   </trkpt>
   <trkpt lat="-3.0971710" lon="37.3779390">
    <ele>4725.2</ele>
    <time>2026-06-22T22:03:33Z</time>
   </trkpt>
   <trkpt lat="-3.0971710" lon="37.3779390">
    <ele>4725.2</ele>
    <time>2026-06-22T22:03:34Z</time>
   </trkpt>
   <trkpt lat="-3.0971730" lon="37.3779400">
    <ele>4725.3</ele>
    <time>2026-06-22T22:03:35Z</time>
   </trkpt>
   <trkpt lat="-3.0971720" lon="37.3779390">
    <ele>4725.3</ele>
    <time>2026-06-22T22:03:36Z</time>
   </trkpt>
   <trkpt lat="-3.0971700" lon="37.3779380">
    <ele>4725.4</ele>
    <time>2026-06-22T22:03:37Z</time>
   </trkpt>
   <trkpt lat="-3.0971650" lon="37.3779330">
    <ele>4725.6</ele>
    <time>2026-06-22T22:03:38Z</time>
   </trkpt>
   <trkpt lat="-3.0971630" lon="37.3779330">
    <ele>4725.7</ele>
    <time>2026-06-22T22:03:39Z</time>
   </trkpt>
   <trkpt lat="-3.0971640" lon="37.3779330">
    <ele>4725.7</ele>
    <time>2026-06-22T22:03:40Z</time>
   </trkpt>
   <trkpt lat="-3.0971620" lon="37.3779310">
    <ele>4725.8</ele>
    <time>2026-06-22T22:03:41Z</time>
   </trkpt>
   <trkpt lat="-3.0971590" lon="37.3779290">
    <ele>4725.9</ele>
    <time>2026-06-22T22:03:42Z</time>
   </trkpt>
   <trkpt lat="-3.0971610" lon="37.3779300">
    <ele>4726.0</ele>
    <time>2026-06-22T22:03:43Z</time>
   </trkpt>
   <trkpt lat="-3.0971610" lon="37.3779300">
    <ele>4726.0</ele>
    <time>2026-06-22T22:03:44Z</time>
   </trkpt>
   <trkpt lat="-3.0971600" lon="37.3779290">
    <ele>4726.0</ele>
    <time>2026-06-22T22:03:45Z</time>
   </trkpt>
   <trkpt lat="-3.0971600" lon="37.3779270">
    <ele>4726.1</ele>
    <time>2026-06-22T22:03:46Z</time>
   </trkpt>
   <trkpt lat="-3.0971590" lon="37.3779230">
    <ele>4726.2</ele>
    <time>2026-06-22T22:03:47Z</time>
   </trkpt>
   <trkpt lat="-3.0971570" lon="37.3779200">
    <ele>4726.3</ele>
    <time>2026-06-22T22:03:48Z</time>
   </trkpt>
   <trkpt lat="-3.0971570" lon="37.3779220">
    <ele>4726.4</ele>
    <time>2026-06-22T22:03:49Z</time>
   </trkpt>
   <trkpt lat="-3.0971540" lon="37.3779190">
    <ele>4726.5</ele>
    <time>2026-06-22T22:03:50Z</time>
   </trkpt>
   <trkpt lat="-3.0971490" lon="37.3779170">
    <ele>4726.7</ele>
    <time>2026-06-22T22:03:51Z</time>
   </trkpt>
   <trkpt lat="-3.0971460" lon="37.3779160">
    <ele>4726.8</ele>
    <time>2026-06-22T22:03:52Z</time>
   </trkpt>
   <trkpt lat="-3.0971450" lon="37.3779170">
    <ele>4726.8</ele>
    <time>2026-06-22T22:03:53Z</time>
   </trkpt>
   <trkpt lat="-3.0971410" lon="37.3779150">
    <ele>4726.9</ele>
    <time>2026-06-22T22:03:54Z</time>
   </trkpt>
   <trkpt lat="-3.0971380" lon="37.3779120">
    <ele>4727.1</ele>
    <time>2026-06-22T22:03:55Z</time>
   </trkpt>
   <trkpt lat="-3.0971390" lon="37.3779130">
    <ele>4727.1</ele>
    <time>2026-06-22T22:03:56Z</time>
   </trkpt>
   <trkpt lat="-3.0971390" lon="37.3779120">
    <ele>4727.1</ele>
    <time>2026-06-22T22:03:57Z</time>
   </trkpt>
   <trkpt lat="-3.0971370" lon="37.3779100">
    <ele>4727.2</ele>
    <time>2026-06-22T22:03:58Z</time>
   </trkpt>
   <trkpt lat="-3.0971350" lon="37.3779100">
    <ele>4727.3</ele>
    <time>2026-06-22T22:03:59Z</time>
   </trkpt>
   <trkpt lat="-3.0971350" lon="37.3779090">
    <ele>4727.3</ele>
    <time>2026-06-22T22:04:00Z</time>
   </trkpt>
   <trkpt lat="-3.0971350" lon="37.3779090">
    <ele>4727.3</ele>
    <time>2026-06-22T22:04:01Z</time>
   </trkpt>
   <trkpt lat="-3.0971350" lon="37.3779090">
    <ele>4727.3</ele>
    <time>2026-06-22T22:04:02Z</time>
   </trkpt>
   <trkpt lat="-3.0971340" lon="37.3779090">
    <ele>4727.3</ele>
    <time>2026-06-22T22:04:03Z</time>
   </trkpt>
   <trkpt lat="-3.0971300" lon="37.3779040">
    <ele>4727.5</ele>
    <time>2026-06-22T22:04:04Z</time>
   </trkpt>
   <trkpt lat="-3.0971260" lon="37.3779020">
    <ele>4727.6</ele>
    <time>2026-06-22T22:04:05Z</time>
   </trkpt>
   <trkpt lat="-3.0971260" lon="37.3779040">
    <ele>4727.7</ele>
    <time>2026-06-22T22:04:06Z</time>
   </trkpt>
   <trkpt lat="-3.0971240" lon="37.3779010">
    <ele>4727.8</ele>
    <time>2026-06-22T22:04:07Z</time>
   </trkpt>
   <trkpt lat="-3.0971200" lon="37.3778960">
    <ele>4728.0</ele>
    <time>2026-06-22T22:04:08Z</time>
   </trkpt>
   <trkpt lat="-3.0971190" lon="37.3778970">
    <ele>4728.0</ele>
    <time>2026-06-22T22:04:09Z</time>
   </trkpt>
   <trkpt lat="-3.0971200" lon="37.3778970">
    <ele>4728.1</ele>
    <time>2026-06-22T22:04:10Z</time>
   </trkpt>
   <trkpt lat="-3.0971210" lon="37.3778970">
    <ele>4728.1</ele>
    <time>2026-06-22T22:04:11Z</time>
   </trkpt>
   <trkpt lat="-3.0971210" lon="37.3778980">
    <ele>4728.1</ele>
    <time>2026-06-22T22:04:12Z</time>
   </trkpt>
   <trkpt lat="-3.0971210" lon="37.3778980">
    <ele>4728.1</ele>
    <time>2026-06-22T22:04:13Z</time>
   </trkpt>
   <trkpt lat="-3.0971210" lon="37.3778980">
    <ele>4728.1</ele>
    <time>2026-06-22T22:04:14Z</time>
   </trkpt>
   <trkpt lat="-3.0971210" lon="37.3778950">
    <ele>4728.2</ele>
    <time>2026-06-22T22:04:15Z</time>
   </trkpt>
   <trkpt lat="-3.0971190" lon="37.3778920">
    <ele>4728.3</ele>
    <time>2026-06-22T22:04:16Z</time>
   </trkpt>
   <trkpt lat="-3.0971180" lon="37.3778910">
    <ele>4728.4</ele>
    <time>2026-06-22T22:04:17Z</time>
   </trkpt>
   <trkpt lat="-3.0971160" lon="37.3778890">
    <ele>4728.4</ele>
    <time>2026-06-22T22:04:18Z</time>
   </trkpt>
   <trkpt lat="-3.0971150" lon="37.3778860">
    <ele>4728.5</ele>
    <time>2026-06-22T22:04:19Z</time>
   </trkpt>
   <trkpt lat="-3.0971150" lon="37.3778880">
    <ele>4728.6</ele>
    <time>2026-06-22T22:04:20Z</time>
   </trkpt>
   <trkpt lat="-3.0971100" lon="37.3778850">
    <ele>4728.8</ele>
    <time>2026-06-22T22:04:21Z</time>
   </trkpt>
   <trkpt lat="-3.0971070" lon="37.3778850">
    <ele>4728.8</ele>
    <time>2026-06-22T22:04:22Z</time>
   </trkpt>
   <trkpt lat="-3.0971060" lon="37.3778830">
    <ele>4728.9</ele>
    <time>2026-06-22T22:04:23Z</time>
   </trkpt>
   <trkpt lat="-3.0971080" lon="37.3778820">
    <ele>4729.0</ele>
    <time>2026-06-22T22:04:24Z</time>
   </trkpt>
   <trkpt lat="-3.0971070" lon="37.3778780">
    <ele>4729.1</ele>
    <time>2026-06-22T22:04:25Z</time>
   </trkpt>
   <trkpt lat="-3.0971060" lon="37.3778790">
    <ele>4729.1</ele>
    <time>2026-06-22T22:04:26Z</time>
   </trkpt>
   <trkpt lat="-3.0971040" lon="37.3778750">
    <ele>4729.2</ele>
    <time>2026-06-22T22:04:27Z</time>
   </trkpt>
   <trkpt lat="-3.0970970" lon="37.3778710">
    <ele>4729.5</ele>
    <time>2026-06-22T22:04:28Z</time>
   </trkpt>
   <trkpt lat="-3.0970950" lon="37.3778680">
    <ele>4729.6</ele>
    <time>2026-06-22T22:04:29Z</time>
   </trkpt>
   <trkpt lat="-3.0970950" lon="37.3778680">
    <ele>4729.6</ele>
    <time>2026-06-22T22:04:30Z</time>
   </trkpt>
   <trkpt lat="-3.0970930" lon="37.3778660">
    <ele>4729.7</ele>
    <time>2026-06-22T22:04:31Z</time>
   </trkpt>
   <trkpt lat="-3.0970920" lon="37.3778660">
    <ele>4729.7</ele>
    <time>2026-06-22T22:04:32Z</time>
   </trkpt>
   <trkpt lat="-3.0970920" lon="37.3778680">
    <ele>4729.7</ele>
    <time>2026-06-22T22:04:33Z</time>
   </trkpt>
   <trkpt lat="-3.0970920" lon="37.3778690">
    <ele>4729.8</ele>
    <time>2026-06-22T22:04:34Z</time>
   </trkpt>
   <trkpt lat="-3.0970900" lon="37.3778670">
    <ele>4729.8</ele>
    <time>2026-06-22T22:04:35Z</time>
   </trkpt>
   <trkpt lat="-3.0970870" lon="37.3778660">
    <ele>4729.9</ele>
    <time>2026-06-22T22:04:36Z</time>
   </trkpt>
   <trkpt lat="-3.0970870" lon="37.3778650">
    <ele>4730.0</ele>
    <time>2026-06-22T22:04:37Z</time>
   </trkpt>
   <trkpt lat="-3.0970830" lon="37.3778620">
    <ele>4730.1</ele>
    <time>2026-06-22T22:04:38Z</time>
   </trkpt>
   <trkpt lat="-3.0970830" lon="37.3778610">
    <ele>4730.1</ele>
    <time>2026-06-22T22:04:39Z</time>
   </trkpt>
   <trkpt lat="-3.0970850" lon="37.3778610">
    <ele>4730.2</ele>
    <time>2026-06-22T22:04:40Z</time>
   </trkpt>
   <trkpt lat="-3.0970810" lon="37.3778590">
    <ele>4730.3</ele>
    <time>2026-06-22T22:04:41Z</time>
   </trkpt>
   <trkpt lat="-3.0970760" lon="37.3778570">
    <ele>4730.5</ele>
    <time>2026-06-22T22:04:42Z</time>
   </trkpt>
   <trkpt lat="-3.0970750" lon="37.3778580">
    <ele>4730.5</ele>
    <time>2026-06-22T22:04:43Z</time>
   </trkpt>
   <trkpt lat="-3.0970720" lon="37.3778600">
    <ele>4730.6</ele>
    <time>2026-06-22T22:04:44Z</time>
   </trkpt>
   <trkpt lat="-3.0970690" lon="37.3778620">
    <ele>4730.7</ele>
    <time>2026-06-22T22:04:45Z</time>
   </trkpt>
   <trkpt lat="-3.0970680" lon="37.3778640">
    <ele>4730.8</ele>
    <time>2026-06-22T22:04:46Z</time>
   </trkpt>
   <trkpt lat="-3.0970670" lon="37.3778640">
    <ele>4730.8</ele>
    <time>2026-06-22T22:04:47Z</time>
   </trkpt>
   <trkpt lat="-3.0970650" lon="37.3778650">
    <ele>4730.9</ele>
    <time>2026-06-22T22:04:48Z</time>
   </trkpt>
   <trkpt lat="-3.0970590" lon="37.3778670">
    <ele>4731.0</ele>
    <time>2026-06-22T22:04:49Z</time>
   </trkpt>
   <trkpt lat="-3.0970570" lon="37.3778690">
    <ele>4731.1</ele>
    <time>2026-06-22T22:04:50Z</time>
   </trkpt>
   <trkpt lat="-3.0970550" lon="37.3778680">
    <ele>4731.2</ele>
    <time>2026-06-22T22:04:51Z</time>
   </trkpt>
   <trkpt lat="-3.0970520" lon="37.3778680">
    <ele>4731.3</ele>
    <time>2026-06-22T22:04:52Z</time>
   </trkpt>
   <trkpt lat="-3.0970500" lon="37.3778690">
    <ele>4731.3</ele>
    <time>2026-06-22T22:04:53Z</time>
   </trkpt>
   <trkpt lat="-3.0970450" lon="37.3778690">
    <ele>4731.5</ele>
    <time>2026-06-22T22:04:54Z</time>
   </trkpt>
   <trkpt lat="-3.0970440" lon="37.3778720">
    <ele>4731.6</ele>
    <time>2026-06-22T22:04:55Z</time>
   </trkpt>
   <trkpt lat="-3.0970450" lon="37.3778720">
    <ele>4731.6</ele>
    <time>2026-06-22T22:04:56Z</time>
   </trkpt>
   <trkpt lat="-3.0970450" lon="37.3778730">
    <ele>4731.6</ele>
    <time>2026-06-22T22:04:57Z</time>
   </trkpt>
   <trkpt lat="-3.0970450" lon="37.3778730">
    <ele>4731.6</ele>
    <time>2026-06-22T22:04:58Z</time>
   </trkpt>
   <trkpt lat="-3.0970410" lon="37.3778730">
    <ele>4731.7</ele>
    <time>2026-06-22T22:04:59Z</time>
   </trkpt>
   <trkpt lat="-3.0970400" lon="37.3778770">
    <ele>4731.8</ele>
    <time>2026-06-22T22:05:00Z</time>
   </trkpt>
   <trkpt lat="-3.0970380" lon="37.3778780">
    <ele>4731.9</ele>
    <time>2026-06-22T22:05:01Z</time>
   </trkpt>
   <trkpt lat="-3.0970390" lon="37.3778780">
    <ele>4731.9</ele>
    <time>2026-06-22T22:05:02Z</time>
   </trkpt>
   <trkpt lat="-3.0970380" lon="37.3778790">
    <ele>4732.0</ele>
    <time>2026-06-22T22:05:03Z</time>
   </trkpt>
   <trkpt lat="-3.0970380" lon="37.3778800">
    <ele>4732.0</ele>
    <time>2026-06-22T22:05:04Z</time>
   </trkpt>
   <trkpt lat="-3.0970380" lon="37.3778800">
    <ele>4732.0</ele>
    <time>2026-06-22T22:05:05Z</time>
   </trkpt>
   <trkpt lat="-3.0970380" lon="37.3778800">
    <ele>4732.0</ele>
    <time>2026-06-22T22:05:06Z</time>
   </trkpt>
   <trkpt lat="-3.0970370" lon="37.3778800">
    <ele>4732.0</ele>
    <time>2026-06-22T22:05:07Z</time>
   </trkpt>
   <trkpt lat="-3.0970370" lon="37.3778810">
    <ele>4732.0</ele>
    <time>2026-06-22T22:05:08Z</time>
   </trkpt>
   <trkpt lat="-3.0970360" lon="37.3778810">
    <ele>4732.1</ele>
    <time>2026-06-22T22:05:09Z</time>
   </trkpt>
   <trkpt lat="-3.0970330" lon="37.3778810">
    <ele>4732.2</ele>
    <time>2026-06-22T22:05:10Z</time>
   </trkpt>
   <trkpt lat="-3.0970310" lon="37.3778830">
    <ele>4732.2</ele>
    <time>2026-06-22T22:05:11Z</time>
   </trkpt>
   <trkpt lat="-3.0970280" lon="37.3778870">
    <ele>4732.4</ele>
    <time>2026-06-22T22:05:12Z</time>
   </trkpt>
   <trkpt lat="-3.0970260" lon="37.3778890">
    <ele>4732.5</ele>
    <time>2026-06-22T22:05:13Z</time>
   </trkpt>
   <trkpt lat="-3.0970230" lon="37.3778930">
    <ele>4732.6</ele>
    <time>2026-06-22T22:05:14Z</time>
   </trkpt>
   <trkpt lat="-3.0970190" lon="37.3778930">
    <ele>4732.7</ele>
    <time>2026-06-22T22:05:15Z</time>
   </trkpt>
   <trkpt lat="-3.0970150" lon="37.3778990">
    <ele>4732.9</ele>
    <time>2026-06-22T22:05:16Z</time>
   </trkpt>
   <trkpt lat="-3.0970100" lon="37.3778970">
    <ele>4733.0</ele>
    <time>2026-06-22T22:05:17Z</time>
   </trkpt>
   <trkpt lat="-3.0970090" lon="37.3778980">
    <ele>4733.1</ele>
    <time>2026-06-22T22:05:18Z</time>
   </trkpt>
   <trkpt lat="-3.0970040" lon="37.3778980">
    <ele>4733.2</ele>
    <time>2026-06-22T22:05:19Z</time>
   </trkpt>
   <trkpt lat="-3.0970010" lon="37.3779000">
    <ele>4733.3</ele>
    <time>2026-06-22T22:05:20Z</time>
   </trkpt>
   <trkpt lat="-3.0969980" lon="37.3779020">
    <ele>4733.4</ele>
    <time>2026-06-22T22:05:21Z</time>
   </trkpt>
   <trkpt lat="-3.0969940" lon="37.3779010">
    <ele>4733.5</ele>
    <time>2026-06-22T22:05:22Z</time>
   </trkpt>
   <trkpt lat="-3.0969920" lon="37.3778980">
    <ele>4733.6</ele>
    <time>2026-06-22T22:05:23Z</time>
   </trkpt>
   <trkpt lat="-3.0969930" lon="37.3778990">
    <ele>4733.7</ele>
    <time>2026-06-22T22:05:24Z</time>
   </trkpt>
   <trkpt lat="-3.0969880" lon="37.3778940">
    <ele>4733.9</ele>
    <time>2026-06-22T22:05:25Z</time>
   </trkpt>
   <trkpt lat="-3.0969910" lon="37.3778860">
    <ele>4734.1</ele>
    <time>2026-06-22T22:05:26Z</time>
   </trkpt>
   <trkpt lat="-3.0969850" lon="37.3778880">
    <ele>4734.3</ele>
    <time>2026-06-22T22:05:27Z</time>
   </trkpt>
   <trkpt lat="-3.0969830" lon="37.3778930">
    <ele>4734.4</ele>
    <time>2026-06-22T22:05:28Z</time>
   </trkpt>
   <trkpt lat="-3.0969790" lon="37.3778960">
    <ele>4734.6</ele>
    <time>2026-06-22T22:05:29Z</time>
   </trkpt>
   <trkpt lat="-3.0969790" lon="37.3779000">
    <ele>4734.7</ele>
    <time>2026-06-22T22:05:30Z</time>
   </trkpt>
   <trkpt lat="-3.0969760" lon="37.3779030">
    <ele>4734.8</ele>
    <time>2026-06-22T22:05:31Z</time>
   </trkpt>
   <trkpt lat="-3.0969720" lon="37.3779050">
    <ele>4734.9</ele>
    <time>2026-06-22T22:05:32Z</time>
   </trkpt>
   <trkpt lat="-3.0969690" lon="37.3779070">
    <ele>4735.0</ele>
    <time>2026-06-22T22:05:33Z</time>
   </trkpt>
   <trkpt lat="-3.0969700" lon="37.3779100">
    <ele>4735.1</ele>
    <time>2026-06-22T22:05:34Z</time>
   </trkpt>
   <trkpt lat="-3.0969700" lon="37.3779110">
    <ele>4735.1</ele>
    <time>2026-06-22T22:05:35Z</time>
   </trkpt>
   <trkpt lat="-3.0969700" lon="37.3779110">
    <ele>4735.1</ele>
    <time>2026-06-22T22:05:36Z</time>
   </trkpt>
   <trkpt lat="-3.0969690" lon="37.3779120">
    <ele>4735.2</ele>
    <time>2026-06-22T22:05:37Z</time>
   </trkpt>
   <trkpt lat="-3.0969700" lon="37.3779130">
    <ele>4735.2</ele>
    <time>2026-06-22T22:05:38Z</time>
   </trkpt>
   <trkpt lat="-3.0969700" lon="37.3779130">
    <ele>4735.2</ele>
    <time>2026-06-22T22:05:39Z</time>
   </trkpt>
   <trkpt lat="-3.0969710" lon="37.3779130">
    <ele>4735.2</ele>
    <time>2026-06-22T22:05:40Z</time>
   </trkpt>
   <trkpt lat="-3.0969710" lon="37.3779130">
    <ele>4735.2</ele>
    <time>2026-06-22T22:05:41Z</time>
   </trkpt>
   <trkpt lat="-3.0969720" lon="37.3779130">
    <ele>4735.2</ele>
    <time>2026-06-22T22:05:42Z</time>
   </trkpt>
   <trkpt lat="-3.0969740" lon="37.3779120">
    <ele>4735.3</ele>
    <time>2026-06-22T22:05:43Z</time>
   </trkpt>
   <trkpt lat="-3.0969720" lon="37.3779100">
    <ele>4735.4</ele>
    <time>2026-06-22T22:05:44Z</time>
   </trkpt>
   <trkpt lat="-3.0969730" lon="37.3779110">
    <ele>4735.4</ele>
    <time>2026-06-22T22:05:45Z</time>
   </trkpt>
   <trkpt lat="-3.0969740" lon="37.3779110">
    <ele>4735.5</ele>
    <time>2026-06-22T22:05:46Z</time>
   </trkpt>
   <trkpt lat="-3.0969750" lon="37.3779110">
    <ele>4735.5</ele>
    <time>2026-06-22T22:05:47Z</time>
   </trkpt>
   <trkpt lat="-3.0969750" lon="37.3779110">
    <ele>4735.5</ele>
    <time>2026-06-22T22:05:48Z</time>
   </trkpt>
   <trkpt lat="-3.0969730" lon="37.3779110">
    <ele>4735.5</ele>
    <time>2026-06-22T22:05:49Z</time>
   </trkpt>
   <trkpt lat="-3.0969750" lon="37.3779120">
    <ele>4735.6</ele>
    <time>2026-06-22T22:05:50Z</time>
   </trkpt>
   <trkpt lat="-3.0969750" lon="37.3779130">
    <ele>4735.6</ele>
    <time>2026-06-22T22:05:51Z</time>
   </trkpt>
   <trkpt lat="-3.0969760" lon="37.3779150">
    <ele>4735.7</ele>
    <time>2026-06-22T22:05:52Z</time>
   </trkpt>
   <trkpt lat="-3.0969740" lon="37.3779150">
    <ele>4735.7</ele>
    <time>2026-06-22T22:05:53Z</time>
   </trkpt>
   <trkpt lat="-3.0969710" lon="37.3779170">
    <ele>4735.8</ele>
    <time>2026-06-22T22:05:54Z</time>
   </trkpt>
   <trkpt lat="-3.0969720" lon="37.3779170">
    <ele>4735.9</ele>
    <time>2026-06-22T22:05:55Z</time>
   </trkpt>
   <trkpt lat="-3.0969720" lon="37.3779170">
    <ele>4735.9</ele>
    <time>2026-06-22T22:05:56Z</time>
   </trkpt>
   <trkpt lat="-3.0969720" lon="37.3779170">
    <ele>4735.9</ele>
    <time>2026-06-22T22:05:57Z</time>
   </trkpt>
   <trkpt lat="-3.0969720" lon="37.3779170">
    <ele>4735.9</ele>
    <time>2026-06-22T22:05:58Z</time>
   </trkpt>
   <trkpt lat="-3.0969730" lon="37.3779180">
    <ele>4735.9</ele>
    <time>2026-06-22T22:05:59Z</time>
   </trkpt>
   <trkpt lat="-3.0969730" lon="37.3779180">
    <ele>4735.9</ele>
    <time>2026-06-22T22:06:00Z</time>
   </trkpt>
   <trkpt lat="-3.0969730" lon="37.3779180">
    <ele>4735.9</ele>
    <time>2026-06-22T22:06:01Z</time>
   </trkpt>
   <trkpt lat="-3.0969740" lon="37.3779180">
    <ele>4735.9</ele>
    <time>2026-06-22T22:06:02Z</time>
   </trkpt>
   <trkpt lat="-3.0969730" lon="37.3779180">
    <ele>4736.0</ele>
    <time>2026-06-22T22:06:03Z</time>
   </trkpt>
   <trkpt lat="-3.0969730" lon="37.3779180">
    <ele>4736.0</ele>
    <time>2026-06-22T22:06:04Z</time>
   </trkpt>
   <trkpt lat="-3.0969730" lon="37.3779180">
    <ele>4736.0</ele>
    <time>2026-06-22T22:06:05Z</time>
   </trkpt>
   <trkpt lat="-3.0969740" lon="37.3779180">
    <ele>4736.0</ele>
    <time>2026-06-22T22:06:06Z</time>
   </trkpt>
   <trkpt lat="-3.0969750" lon="37.3779170">
    <ele>4736.0</ele>
    <time>2026-06-22T22:06:07Z</time>
   </trkpt>
   <trkpt lat="-3.0969760" lon="37.3779180">
    <ele>4736.1</ele>
    <time>2026-06-22T22:06:08Z</time>
   </trkpt>
   <trkpt lat="-3.0969740" lon="37.3779170">
    <ele>4736.1</ele>
    <time>2026-06-22T22:06:09Z</time>
   </trkpt>
   <trkpt lat="-3.0969750" lon="37.3779170">
    <ele>4736.1</ele>
    <time>2026-06-22T22:06:10Z</time>
   </trkpt>
   <trkpt lat="-3.0969750" lon="37.3779170">
    <ele>4736.1</ele>
    <time>2026-06-22T22:06:11Z</time>
   </trkpt>
   <trkpt lat="-3.0969750" lon="37.3779180">
    <ele>4736.2</ele>
    <time>2026-06-22T22:06:12Z</time>
   </trkpt>
   <trkpt lat="-3.0969750" lon="37.3779180">
    <ele>4736.2</ele>
    <time>2026-06-22T22:06:13Z</time>
   </trkpt>
   <trkpt lat="-3.0969740" lon="37.3779190">
    <ele>4736.2</ele>
    <time>2026-06-22T22:06:14Z</time>
   </trkpt>
   <trkpt lat="-3.0969740" lon="37.3779180">
    <ele>4736.2</ele>
    <time>2026-06-22T22:06:15Z</time>
   </trkpt>
   <trkpt lat="-3.0969740" lon="37.3779170">
    <ele>4736.3</ele>
    <time>2026-06-22T22:06:16Z</time>
   </trkpt>
   <trkpt lat="-3.0969740" lon="37.3779180">
    <ele>4736.3</ele>
    <time>2026-06-22T22:06:17Z</time>
   </trkpt>
   <trkpt lat="-3.0969740" lon="37.3779170">
    <ele>4736.3</ele>
    <time>2026-06-22T22:06:18Z</time>
   </trkpt>
   <trkpt lat="-3.0969740" lon="37.3779170">
    <ele>4736.3</ele>
    <time>2026-06-22T22:06:19Z</time>
   </trkpt>
   <trkpt lat="-3.0969730" lon="37.3779160">
    <ele>4736.3</ele>
    <time>2026-06-22T22:06:20Z</time>
   </trkpt>
   <trkpt lat="-3.0969740" lon="37.3779160">
    <ele>4736.4</ele>
    <time>2026-06-22T22:06:21Z</time>
   </trkpt>
   <trkpt lat="-3.0969740" lon="37.3779160">
    <ele>4736.4</ele>
    <time>2026-06-22T22:06:22Z</time>
   </trkpt>
   <trkpt lat="-3.0969740" lon="37.3779160">
    <ele>4736.4</ele>
    <time>2026-06-22T22:06:23Z</time>
   </trkpt>
   <trkpt lat="-3.0969740" lon="37.3779160">
    <ele>4736.4</ele>
    <time>2026-06-22T22:06:24Z</time>
   </trkpt>
   <trkpt lat="-3.0969750" lon="37.3779140">
    <ele>4736.4</ele>
    <time>2026-06-22T22:06:25Z</time>
   </trkpt>
   <trkpt lat="-3.0969730" lon="37.3779150">
    <ele>4736.5</ele>
    <time>2026-06-22T22:06:26Z</time>
   </trkpt>
   <trkpt lat="-3.0969720" lon="37.3779140">
    <ele>4736.5</ele>
    <time>2026-06-22T22:06:27Z</time>
   </trkpt>
   <trkpt lat="-3.0969730" lon="37.3779150">
    <ele>4736.6</ele>
    <time>2026-06-22T22:06:28Z</time>
   </trkpt>
   <trkpt lat="-3.0969730" lon="37.3779150">
    <ele>4736.6</ele>
    <time>2026-06-22T22:06:29Z</time>
   </trkpt>
   <trkpt lat="-3.0969730" lon="37.3779150">
    <ele>4736.6</ele>
    <time>2026-06-22T22:06:30Z</time>
   </trkpt>
   <trkpt lat="-3.0969720" lon="37.3779130">
    <ele>4736.6</ele>
    <time>2026-06-22T22:06:31Z</time>
   </trkpt>
   <trkpt lat="-3.0969720" lon="37.3779130">
    <ele>4736.6</ele>
    <time>2026-06-22T22:06:32Z</time>
   </trkpt>
   <trkpt lat="-3.0969730" lon="37.3779120">
    <ele>4736.6</ele>
    <time>2026-06-22T22:06:33Z</time>
   </trkpt>
   <trkpt lat="-3.0969730" lon="37.3779120">
    <ele>4736.6</ele>
    <time>2026-06-22T22:06:34Z</time>
   </trkpt>
   <trkpt lat="-3.0969740" lon="37.3779120">
    <ele>4736.7</ele>
    <time>2026-06-22T22:06:35Z</time>
   </trkpt>
   <trkpt lat="-3.0969740" lon="37.3779120">
    <ele>4736.7</ele>
    <time>2026-06-22T22:06:36Z</time>
   </trkpt>
   <trkpt lat="-3.0969740" lon="37.3779120">
    <ele>4736.7</ele>
    <time>2026-06-22T22:06:37Z</time>
   </trkpt>
   <trkpt lat="-3.0969730" lon="37.3779110">
    <ele>4736.7</ele>
    <time>2026-06-22T22:06:38Z</time>
   </trkpt>
   <trkpt lat="-3.0969730" lon="37.3779110">
    <ele>4736.7</ele>
    <time>2026-06-22T22:06:39Z</time>
   </trkpt>
   <trkpt lat="-3.0969730" lon="37.3779110">
    <ele>4736.7</ele>
    <time>2026-06-22T22:06:40Z</time>
   </trkpt>
   <trkpt lat="-3.0969730" lon="37.3779110">
    <ele>4736.7</ele>
    <time>2026-06-22T22:06:41Z</time>
   </trkpt>
   <trkpt lat="-3.0969740" lon="37.3779110">
    <ele>4736.7</ele>
    <time>2026-06-22T22:06:42Z</time>
   </trkpt>
   <trkpt lat="-3.0969730" lon="37.3779110">
    <ele>4736.8</ele>
    <time>2026-06-22T22:06:43Z</time>
   </trkpt>
   <trkpt lat="-3.0969730" lon="37.3779110">
    <ele>4736.8</ele>
    <time>2026-06-22T22:06:44Z</time>
   </trkpt>
   <trkpt lat="-3.0969730" lon="37.3779110">
    <ele>4736.8</ele>
    <time>2026-06-22T22:06:45Z</time>
   </trkpt>
   <trkpt lat="-3.0969730" lon="37.3779110">
    <ele>4736.8</ele>
    <time>2026-06-22T22:06:46Z</time>
   </trkpt>
   <trkpt lat="-3.0969730" lon="37.3779110">
    <ele>4736.8</ele>
    <time>2026-06-22T22:06:47Z</time>
   </trkpt>
   <trkpt lat="-3.0969740" lon="37.3779110">
    <ele>4736.8</ele>
    <time>2026-06-22T22:06:48Z</time>
   </trkpt>
   <trkpt lat="-3.0969730" lon="37.3779110">
    <ele>4736.8</ele>
    <time>2026-06-22T22:06:49Z</time>
   </trkpt>
   <trkpt lat="-3.0969730" lon="37.3779120">
    <ele>4736.8</ele>
    <time>2026-06-22T22:06:50Z</time>
   </trkpt>
   <trkpt lat="-3.0969710" lon="37.3779120">
    <ele>4736.9</ele>
    <time>2026-06-22T22:06:51Z</time>
   </trkpt>
   <trkpt lat="-3.0969700" lon="37.3779120">
    <ele>4736.9</ele>
    <time>2026-06-22T22:06:52Z</time>
   </trkpt>
   <trkpt lat="-3.0969680" lon="37.3779130">
    <ele>4737.0</ele>
    <time>2026-06-22T22:06:53Z</time>
   </trkpt>
   <trkpt lat="-3.0969650" lon="37.3779160">
    <ele>4737.1</ele>
    <time>2026-06-22T22:06:54Z</time>
   </trkpt>
   <trkpt lat="-3.0969620" lon="37.3779180">
    <ele>4737.2</ele>
    <time>2026-06-22T22:06:56Z</time>
   </trkpt>
   <trkpt lat="-3.0969550" lon="37.3779160">
    <ele>4737.4</ele>
    <time>2026-06-22T22:06:57Z</time>
   </trkpt>
   <trkpt lat="-3.0969530" lon="37.3779180">
    <ele>4737.4</ele>
    <time>2026-06-22T22:06:58Z</time>
   </trkpt>
   <trkpt lat="-3.0969480" lon="37.3779180">
    <ele>4737.6</ele>
    <time>2026-06-22T22:06:59Z</time>
   </trkpt>
   <trkpt lat="-3.0969480" lon="37.3779170">
    <ele>4737.6</ele>
    <time>2026-06-22T22:07:00Z</time>
   </trkpt>
   <trkpt lat="-3.0969470" lon="37.3779160">
    <ele>4737.6</ele>
    <time>2026-06-22T22:07:01Z</time>
   </trkpt>
   <trkpt lat="-3.0969450" lon="37.3779160">
    <ele>4737.7</ele>
    <time>2026-06-22T22:07:02Z</time>
   </trkpt>
   <trkpt lat="-3.0969410" lon="37.3779150">
    <ele>4737.8</ele>
    <time>2026-06-22T22:07:03Z</time>
   </trkpt>
   <trkpt lat="-3.0969380" lon="37.3779150">
    <ele>4737.9</ele>
    <time>2026-06-22T22:07:04Z</time>
   </trkpt>
   <trkpt lat="-3.0969310" lon="37.3779150">
    <ele>4738.0</ele>
    <time>2026-06-22T22:07:05Z</time>
   </trkpt>
   <trkpt lat="-3.0969340" lon="37.3779130">
    <ele>4738.1</ele>
    <time>2026-06-22T22:07:06Z</time>
   </trkpt>
   <trkpt lat="-3.0969340" lon="37.3779100">
    <ele>4738.2</ele>
    <time>2026-06-22T22:07:07Z</time>
   </trkpt>
   <trkpt lat="-3.0969340" lon="37.3779110">
    <ele>4738.2</ele>
    <time>2026-06-22T22:07:08Z</time>
   </trkpt>
   <trkpt lat="-3.0969300" lon="37.3779080">
    <ele>4738.3</ele>
    <time>2026-06-22T22:07:09Z</time>
   </trkpt>
   <trkpt lat="-3.0969280" lon="37.3779060">
    <ele>4738.4</ele>
    <time>2026-06-22T22:07:10Z</time>
   </trkpt>
   <trkpt lat="-3.0969300" lon="37.3779050">
    <ele>4738.5</ele>
    <time>2026-06-22T22:07:11Z</time>
   </trkpt>
   <trkpt lat="-3.0969280" lon="37.3779040">
    <ele>4738.5</ele>
    <time>2026-06-22T22:07:12Z</time>
   </trkpt>
   <trkpt lat="-3.0969250" lon="37.3779030">
    <ele>4738.6</ele>
    <time>2026-06-22T22:07:13Z</time>
   </trkpt>
   <trkpt lat="-3.0969260" lon="37.3779010">
    <ele>4738.6</ele>
    <time>2026-06-22T22:07:14Z</time>
   </trkpt>
   <trkpt lat="-3.0969260" lon="37.3779010">
    <ele>4738.6</ele>
    <time>2026-06-22T22:07:15Z</time>
   </trkpt>
   <trkpt lat="-3.0969260" lon="37.3779010">
    <ele>4738.6</ele>
    <time>2026-06-22T22:07:16Z</time>
   </trkpt>
   <trkpt lat="-3.0969240" lon="37.3778980">
    <ele>4738.7</ele>
    <time>2026-06-22T22:07:17Z</time>
   </trkpt>
   <trkpt lat="-3.0969240" lon="37.3778970">
    <ele>4738.8</ele>
    <time>2026-06-22T22:07:18Z</time>
   </trkpt>
   <trkpt lat="-3.0969230" lon="37.3778930">
    <ele>4738.9</ele>
    <time>2026-06-22T22:07:19Z</time>
   </trkpt>
   <trkpt lat="-3.0969200" lon="37.3778910">
    <ele>4739.0</ele>
    <time>2026-06-22T22:07:20Z</time>
   </trkpt>
   <trkpt lat="-3.0969180" lon="37.3778880">
    <ele>4739.0</ele>
    <time>2026-06-22T22:07:21Z</time>
   </trkpt>
   <trkpt lat="-3.0969200" lon="37.3778880">
    <ele>4739.1</ele>
    <time>2026-06-22T22:07:22Z</time>
   </trkpt>
   <trkpt lat="-3.0969200" lon="37.3778870">
    <ele>4739.1</ele>
    <time>2026-06-22T22:07:23Z</time>
   </trkpt>
   <trkpt lat="-3.0969200" lon="37.3778890">
    <ele>4739.2</ele>
    <time>2026-06-22T22:07:24Z</time>
   </trkpt>
   <trkpt lat="-3.0969200" lon="37.3778890">
    <ele>4739.2</ele>
    <time>2026-06-22T22:07:25Z</time>
   </trkpt>
   <trkpt lat="-3.0969200" lon="37.3778820">
    <ele>4739.3</ele>
    <time>2026-06-22T22:07:26Z</time>
   </trkpt>
   <trkpt lat="-3.0969180" lon="37.3778800">
    <ele>4739.4</ele>
    <time>2026-06-22T22:07:27Z</time>
   </trkpt>
   <trkpt lat="-3.0969150" lon="37.3778730">
    <ele>4739.6</ele>
    <time>2026-06-22T22:07:28Z</time>
   </trkpt>
   <trkpt lat="-3.0969180" lon="37.3778710">
    <ele>4739.7</ele>
    <time>2026-06-22T22:07:29Z</time>
   </trkpt>
   <trkpt lat="-3.0969150" lon="37.3778690">
    <ele>4739.7</ele>
    <time>2026-06-22T22:07:30Z</time>
   </trkpt>
   <trkpt lat="-3.0969170" lon="37.3778680">
    <ele>4739.8</ele>
    <time>2026-06-22T22:07:31Z</time>
   </trkpt>
   <trkpt lat="-3.0969170" lon="37.3778670">
    <ele>4739.8</ele>
    <time>2026-06-22T22:07:32Z</time>
   </trkpt>
   <trkpt lat="-3.0969170" lon="37.3778670">
    <ele>4739.8</ele>
    <time>2026-06-22T22:07:33Z</time>
   </trkpt>
   <trkpt lat="-3.0969120" lon="37.3778640">
    <ele>4740.0</ele>
    <time>2026-06-22T22:07:34Z</time>
   </trkpt>
   <trkpt lat="-3.0969100" lon="37.3778630">
    <ele>4740.0</ele>
    <time>2026-06-22T22:07:35Z</time>
   </trkpt>
   <trkpt lat="-3.0969090" lon="37.3778600">
    <ele>4740.1</ele>
    <time>2026-06-22T22:07:36Z</time>
   </trkpt>
   <trkpt lat="-3.0969060" lon="37.3778580">
    <ele>4740.2</ele>
    <time>2026-06-22T22:07:37Z</time>
   </trkpt>
   <trkpt lat="-3.0969020" lon="37.3778570">
    <ele>4740.3</ele>
    <time>2026-06-22T22:07:38Z</time>
   </trkpt>
   <trkpt lat="-3.0969030" lon="37.3778570">
    <ele>4740.3</ele>
    <time>2026-06-22T22:07:39Z</time>
   </trkpt>
   <trkpt lat="-3.0969020" lon="37.3778560">
    <ele>4740.3</ele>
    <time>2026-06-22T22:07:40Z</time>
   </trkpt>
   <trkpt lat="-3.0969000" lon="37.3778540">
    <ele>4740.4</ele>
    <time>2026-06-22T22:07:41Z</time>
   </trkpt>
   <trkpt lat="-3.0968970" lon="37.3778540">
    <ele>4740.5</ele>
    <time>2026-06-22T22:07:42Z</time>
   </trkpt>
   <trkpt lat="-3.0968930" lon="37.3778530">
    <ele>4740.5</ele>
    <time>2026-06-22T22:07:43Z</time>
   </trkpt>
   <trkpt lat="-3.0968890" lon="37.3778540">
    <ele>4740.6</ele>
    <time>2026-06-22T22:07:44Z</time>
   </trkpt>
   <trkpt lat="-3.0968900" lon="37.3778550">
    <ele>4740.7</ele>
    <time>2026-06-22T22:07:45Z</time>
   </trkpt>
   <trkpt lat="-3.0968890" lon="37.3778570">
    <ele>4740.7</ele>
    <time>2026-06-22T22:07:46Z</time>
   </trkpt>
   <trkpt lat="-3.0968840" lon="37.3778590">
    <ele>4740.9</ele>
    <time>2026-06-22T22:07:47Z</time>
   </trkpt>
   <trkpt lat="-3.0968840" lon="37.3778620">
    <ele>4740.9</ele>
    <time>2026-06-22T22:07:48Z</time>
   </trkpt>
   <trkpt lat="-3.0968810" lon="37.3778650">
    <ele>4741.0</ele>
    <time>2026-06-22T22:07:49Z</time>
   </trkpt>
   <trkpt lat="-3.0968800" lon="37.3778670">
    <ele>4741.1</ele>
    <time>2026-06-22T22:07:50Z</time>
   </trkpt>
   <trkpt lat="-3.0968760" lon="37.3778700">
    <ele>4741.2</ele>
    <time>2026-06-22T22:07:51Z</time>
   </trkpt>
   <trkpt lat="-3.0968770" lon="37.3778710">
    <ele>4741.2</ele>
    <time>2026-06-22T22:07:52Z</time>
   </trkpt>
   <trkpt lat="-3.0968730" lon="37.3778720">
    <ele>4741.3</ele>
    <time>2026-06-22T22:07:53Z</time>
   </trkpt>
   <trkpt lat="-3.0968700" lon="37.3778740">
    <ele>4741.4</ele>
    <time>2026-06-22T22:07:54Z</time>
   </trkpt>
   <trkpt lat="-3.0968650" lon="37.3778780">
    <ele>4741.5</ele>
    <time>2026-06-22T22:07:55Z</time>
   </trkpt>
   <trkpt lat="-3.0968630" lon="37.3778780">
    <ele>4741.6</ele>
    <time>2026-06-22T22:07:56Z</time>
   </trkpt>
   <trkpt lat="-3.0968620" lon="37.3778780">
    <ele>4741.6</ele>
    <time>2026-06-22T22:07:57Z</time>
   </trkpt>
   <trkpt lat="-3.0968570" lon="37.3778770">
    <ele>4741.7</ele>
    <time>2026-06-22T22:07:58Z</time>
   </trkpt>
   <trkpt lat="-3.0968530" lon="37.3778750">
    <ele>4741.8</ele>
    <time>2026-06-22T22:07:59Z</time>
   </trkpt>
   <trkpt lat="-3.0968530" lon="37.3778770">
    <ele>4741.8</ele>
    <time>2026-06-22T22:08:00Z</time>
   </trkpt>
   <trkpt lat="-3.0968500" lon="37.3778750">
    <ele>4741.9</ele>
    <time>2026-06-22T22:08:01Z</time>
   </trkpt>
   <trkpt lat="-3.0968470" lon="37.3778740">
    <ele>4742.0</ele>
    <time>2026-06-22T22:08:02Z</time>
   </trkpt>
   <trkpt lat="-3.0968430" lon="37.3778790">
    <ele>4742.1</ele>
    <time>2026-06-22T22:08:03Z</time>
   </trkpt>
   <trkpt lat="-3.0968400" lon="37.3778820">
    <ele>4742.2</ele>
    <time>2026-06-22T22:08:04Z</time>
   </trkpt>
   <trkpt lat="-3.0968390" lon="37.3778810">
    <ele>4742.3</ele>
    <time>2026-06-22T22:08:05Z</time>
   </trkpt>
   <trkpt lat="-3.0968370" lon="37.3778820">
    <ele>4742.3</ele>
    <time>2026-06-22T22:08:06Z</time>
   </trkpt>
   <trkpt lat="-3.0968360" lon="37.3778810">
    <ele>4742.3</ele>
    <time>2026-06-22T22:08:07Z</time>
   </trkpt>
   <trkpt lat="-3.0968310" lon="37.3778780">
    <ele>4742.5</ele>
    <time>2026-06-22T22:08:08Z</time>
   </trkpt>
   <trkpt lat="-3.0968300" lon="37.3778810">
    <ele>4742.5</ele>
    <time>2026-06-22T22:08:09Z</time>
   </trkpt>
   <trkpt lat="-3.0968320" lon="37.3778830">
    <ele>4742.6</ele>
    <time>2026-06-22T22:08:10Z</time>
   </trkpt>
   <trkpt lat="-3.0968330" lon="37.3778740">
    <ele>4742.8</ele>
    <time>2026-06-22T22:08:11Z</time>
   </trkpt>
   <trkpt lat="-3.0968340" lon="37.3778700">
    <ele>4742.9</ele>
    <time>2026-06-22T22:08:12Z</time>
   </trkpt>
   <trkpt lat="-3.0968330" lon="37.3778670">
    <ele>4743.0</ele>
    <time>2026-06-22T22:08:13Z</time>
   </trkpt>
   <trkpt lat="-3.0968300" lon="37.3778640">
    <ele>4743.0</ele>
    <time>2026-06-22T22:08:14Z</time>
   </trkpt>
   <trkpt lat="-3.0968290" lon="37.3778620">
    <ele>4743.1</ele>
    <time>2026-06-22T22:08:15Z</time>
   </trkpt>
   <trkpt lat="-3.0968300" lon="37.3778590">
    <ele>4743.2</ele>
    <time>2026-06-22T22:08:16Z</time>
   </trkpt>
   <trkpt lat="-3.0968300" lon="37.3778580">
    <ele>4743.2</ele>
    <time>2026-06-22T22:08:17Z</time>
   </trkpt>
   <trkpt lat="-3.0968330" lon="37.3778520">
    <ele>4743.3</ele>
    <time>2026-06-22T22:08:18Z</time>
   </trkpt>
   <trkpt lat="-3.0968340" lon="37.3778510">
    <ele>4743.4</ele>
    <time>2026-06-22T22:08:19Z</time>
   </trkpt>
   <trkpt lat="-3.0968320" lon="37.3778450">
    <ele>4743.5</ele>
    <time>2026-06-22T22:08:20Z</time>
   </trkpt>
   <trkpt lat="-3.0968300" lon="37.3778420">
    <ele>4743.6</ele>
    <time>2026-06-22T22:08:21Z</time>
   </trkpt>
   <trkpt lat="-3.0968290" lon="37.3778400">
    <ele>4743.6</ele>
    <time>2026-06-22T22:08:22Z</time>
   </trkpt>
   <trkpt lat="-3.0968270" lon="37.3778380">
    <ele>4743.7</ele>
    <time>2026-06-22T22:08:23Z</time>
   </trkpt>
   <trkpt lat="-3.0968240" lon="37.3778360">
    <ele>4743.8</ele>
    <time>2026-06-22T22:08:24Z</time>
   </trkpt>
   <trkpt lat="-3.0968220" lon="37.3778350">
    <ele>4743.8</ele>
    <time>2026-06-22T22:08:25Z</time>
   </trkpt>
   <trkpt lat="-3.0968200" lon="37.3778330">
    <ele>4743.9</ele>
    <time>2026-06-22T22:08:26Z</time>
   </trkpt>
   <trkpt lat="-3.0968170" lon="37.3778330">
    <ele>4744.0</ele>
    <time>2026-06-22T22:08:27Z</time>
   </trkpt>
   <trkpt lat="-3.0968160" lon="37.3778310">
    <ele>4744.0</ele>
    <time>2026-06-22T22:08:28Z</time>
   </trkpt>
   <trkpt lat="-3.0968160" lon="37.3778310">
    <ele>4744.0</ele>
    <time>2026-06-22T22:08:29Z</time>
   </trkpt>
   <trkpt lat="-3.0968140" lon="37.3778300">
    <ele>4744.1</ele>
    <time>2026-06-22T22:08:30Z</time>
   </trkpt>
   <trkpt lat="-3.0968100" lon="37.3778310">
    <ele>4744.2</ele>
    <time>2026-06-22T22:08:31Z</time>
   </trkpt>
   <trkpt lat="-3.0968060" lon="37.3778310">
    <ele>4744.3</ele>
    <time>2026-06-22T22:08:32Z</time>
   </trkpt>
   <trkpt lat="-3.0968050" lon="37.3778310">
    <ele>4744.3</ele>
    <time>2026-06-22T22:08:33Z</time>
   </trkpt>
   <trkpt lat="-3.0968010" lon="37.3778320">
    <ele>4744.4</ele>
    <time>2026-06-22T22:08:34Z</time>
   </trkpt>
   <trkpt lat="-3.0968010" lon="37.3778320">
    <ele>4744.4</ele>
    <time>2026-06-22T22:08:35Z</time>
   </trkpt>
   <trkpt lat="-3.0967980" lon="37.3778330">
    <ele>4744.5</ele>
    <time>2026-06-22T22:08:36Z</time>
   </trkpt>
   <trkpt lat="-3.0967940" lon="37.3778340">
    <ele>4744.5</ele>
    <time>2026-06-22T22:08:37Z</time>
   </trkpt>
   <trkpt lat="-3.0967920" lon="37.3778360">
    <ele>4744.6</ele>
    <time>2026-06-22T22:08:38Z</time>
   </trkpt>
   <trkpt lat="-3.0967910" lon="37.3778390">
    <ele>4744.7</ele>
    <time>2026-06-22T22:08:39Z</time>
   </trkpt>
   <trkpt lat="-3.0967890" lon="37.3778400">
    <ele>4744.7</ele>
    <time>2026-06-22T22:08:40Z</time>
   </trkpt>
   <trkpt lat="-3.0967850" lon="37.3778430">
    <ele>4744.9</ele>
    <time>2026-06-22T22:08:41Z</time>
   </trkpt>
   <trkpt lat="-3.0967840" lon="37.3778460">
    <ele>4744.9</ele>
    <time>2026-06-22T22:08:42Z</time>
   </trkpt>
   <trkpt lat="-3.0967810" lon="37.3778490">
    <ele>4745.0</ele>
    <time>2026-06-22T22:08:43Z</time>
   </trkpt>
   <trkpt lat="-3.0967810" lon="37.3778510">
    <ele>4745.1</ele>
    <time>2026-06-22T22:08:44Z</time>
   </trkpt>
   <trkpt lat="-3.0967810" lon="37.3778540">
    <ele>4745.1</ele>
    <time>2026-06-22T22:08:45Z</time>
   </trkpt>
   <trkpt lat="-3.0967790" lon="37.3778540">
    <ele>4745.2</ele>
    <time>2026-06-22T22:08:46Z</time>
   </trkpt>
   <trkpt lat="-3.0967800" lon="37.3778570">
    <ele>4745.3</ele>
    <time>2026-06-22T22:08:47Z</time>
   </trkpt>
   <trkpt lat="-3.0967780" lon="37.3778620">
    <ele>4745.4</ele>
    <time>2026-06-22T22:08:49Z</time>
   </trkpt>
   <trkpt lat="-3.0967740" lon="37.3778650">
    <ele>4745.5</ele>
    <time>2026-06-22T22:08:50Z</time>
   </trkpt>
   <trkpt lat="-3.0967730" lon="37.3778680">
    <ele>4745.6</ele>
    <time>2026-06-22T22:08:51Z</time>
   </trkpt>
   <trkpt lat="-3.0967710" lon="37.3778680">
    <ele>4745.7</ele>
    <time>2026-06-22T22:08:52Z</time>
   </trkpt>
   <trkpt lat="-3.0967680" lon="37.3778640">
    <ele>4745.8</ele>
    <time>2026-06-22T22:08:53Z</time>
   </trkpt>
   <trkpt lat="-3.0967640" lon="37.3778620">
    <ele>4745.9</ele>
    <time>2026-06-22T22:08:54Z</time>
   </trkpt>
   <trkpt lat="-3.0967630" lon="37.3778620">
    <ele>4745.9</ele>
    <time>2026-06-22T22:08:55Z</time>
   </trkpt>
   <trkpt lat="-3.0967610" lon="37.3778580">
    <ele>4746.0</ele>
    <time>2026-06-22T22:08:56Z</time>
   </trkpt>
   <trkpt lat="-3.0967630" lon="37.3778550">
    <ele>4746.1</ele>
    <time>2026-06-22T22:08:57Z</time>
   </trkpt>
   <trkpt lat="-3.0967630" lon="37.3778530">
    <ele>4746.2</ele>
    <time>2026-06-22T22:08:58Z</time>
   </trkpt>
   <trkpt lat="-3.0967620" lon="37.3778500">
    <ele>4746.2</ele>
    <time>2026-06-22T22:08:59Z</time>
   </trkpt>
   <trkpt lat="-3.0967610" lon="37.3778490">
    <ele>4746.3</ele>
    <time>2026-06-22T22:09:00Z</time>
   </trkpt>
   <trkpt lat="-3.0967600" lon="37.3778470">
    <ele>4746.3</ele>
    <time>2026-06-22T22:09:01Z</time>
   </trkpt>
   <trkpt lat="-3.0967600" lon="37.3778460">
    <ele>4746.4</ele>
    <time>2026-06-22T22:09:02Z</time>
   </trkpt>
   <trkpt lat="-3.0967590" lon="37.3778420">
    <ele>4746.5</ele>
    <time>2026-06-22T22:09:03Z</time>
   </trkpt>
   <trkpt lat="-3.0967560" lon="37.3778400">
    <ele>4746.6</ele>
    <time>2026-06-22T22:09:04Z</time>
   </trkpt>
   <trkpt lat="-3.0967550" lon="37.3778360">
    <ele>4746.7</ele>
    <time>2026-06-22T22:09:05Z</time>
   </trkpt>
   <trkpt lat="-3.0967570" lon="37.3778310">
    <ele>4746.8</ele>
    <time>2026-06-22T22:09:06Z</time>
   </trkpt>
   <trkpt lat="-3.0967580" lon="37.3778270">
    <ele>4746.9</ele>
    <time>2026-06-22T22:09:07Z</time>
   </trkpt>
   <trkpt lat="-3.0967610" lon="37.3778230">
    <ele>4747.0</ele>
    <time>2026-06-22T22:09:08Z</time>
   </trkpt>
   <trkpt lat="-3.0967630" lon="37.3778210">
    <ele>4747.1</ele>
    <time>2026-06-22T22:09:09Z</time>
   </trkpt>
   <trkpt lat="-3.0967650" lon="37.3778170">
    <ele>4747.2</ele>
    <time>2026-06-22T22:09:10Z</time>
   </trkpt>
   <trkpt lat="-3.0967690" lon="37.3778140">
    <ele>4747.4</ele>
    <time>2026-06-22T22:09:11Z</time>
   </trkpt>
   <trkpt lat="-3.0967700" lon="37.3778090">
    <ele>4747.5</ele>
    <time>2026-06-22T22:09:12Z</time>
   </trkpt>
   <trkpt lat="-3.0967690" lon="37.3778050">
    <ele>4747.6</ele>
    <time>2026-06-22T22:09:13Z</time>
   </trkpt>
   <trkpt lat="-3.0967680" lon="37.3778020">
    <ele>4747.7</ele>
    <time>2026-06-22T22:09:14Z</time>
   </trkpt>
   <trkpt lat="-3.0967690" lon="37.3777990">
    <ele>4747.8</ele>
    <time>2026-06-22T22:09:15Z</time>
   </trkpt>
   <trkpt lat="-3.0967680" lon="37.3777940">
    <ele>4747.9</ele>
    <time>2026-06-22T22:09:16Z</time>
   </trkpt>
   <trkpt lat="-3.0967690" lon="37.3777910">
    <ele>4748.0</ele>
    <time>2026-06-22T22:09:17Z</time>
   </trkpt>
   <trkpt lat="-3.0967670" lon="37.3777870">
    <ele>4748.1</ele>
    <time>2026-06-22T22:09:18Z</time>
   </trkpt>
   <trkpt lat="-3.0967680" lon="37.3777840">
    <ele>4748.2</ele>
    <time>2026-06-22T22:09:19Z</time>
   </trkpt>
   <trkpt lat="-3.0967650" lon="37.3777790">
    <ele>4748.4</ele>
    <time>2026-06-22T22:09:20Z</time>
   </trkpt>
   <trkpt lat="-3.0967650" lon="37.3777750">
    <ele>4748.5</ele>
    <time>2026-06-22T22:09:21Z</time>
   </trkpt>
   <trkpt lat="-3.0967650" lon="37.3777700">
    <ele>4748.6</ele>
    <time>2026-06-22T22:09:22Z</time>
   </trkpt>
   <trkpt lat="-3.0967640" lon="37.3777680">
    <ele>4748.7</ele>
    <time>2026-06-22T22:09:23Z</time>
   </trkpt>
   <trkpt lat="-3.0967610" lon="37.3777650">
    <ele>4748.8</ele>
    <time>2026-06-22T22:09:24Z</time>
   </trkpt>
   <trkpt lat="-3.0967620" lon="37.3777670">
    <ele>4748.9</ele>
    <time>2026-06-22T22:09:25Z</time>
   </trkpt>
   <trkpt lat="-3.0967630" lon="37.3777680">
    <ele>4748.9</ele>
    <time>2026-06-22T22:09:26Z</time>
   </trkpt>
   <trkpt lat="-3.0967600" lon="37.3777640">
    <ele>4749.1</ele>
    <time>2026-06-22T22:09:27Z</time>
   </trkpt>
   <trkpt lat="-3.0967580" lon="37.3777620">
    <ele>4749.1</ele>
    <time>2026-06-22T22:09:28Z</time>
   </trkpt>
   <trkpt lat="-3.0967560" lon="37.3777620">
    <ele>4749.2</ele>
    <time>2026-06-22T22:09:29Z</time>
   </trkpt>
   <trkpt lat="-3.0967540" lon="37.3777580">
    <ele>4749.3</ele>
    <time>2026-06-22T22:09:30Z</time>
   </trkpt>
   <trkpt lat="-3.0967540" lon="37.3777580">
    <ele>4749.3</ele>
    <time>2026-06-22T22:09:31Z</time>
   </trkpt>
   <trkpt lat="-3.0967520" lon="37.3777570">
    <ele>4749.4</ele>
    <time>2026-06-22T22:09:32Z</time>
   </trkpt>
   <trkpt lat="-3.0967500" lon="37.3777560">
    <ele>4749.5</ele>
    <time>2026-06-22T22:09:33Z</time>
   </trkpt>
   <trkpt lat="-3.0967520" lon="37.3777560">
    <ele>4749.5</ele>
    <time>2026-06-22T22:09:34Z</time>
   </trkpt>
   <trkpt lat="-3.0967500" lon="37.3777540">
    <ele>4749.6</ele>
    <time>2026-06-22T22:09:35Z</time>
   </trkpt>
   <trkpt lat="-3.0967460" lon="37.3777480">
    <ele>4749.8</ele>
    <time>2026-06-22T22:09:36Z</time>
   </trkpt>
   <trkpt lat="-3.0967480" lon="37.3777500">
    <ele>4749.9</ele>
    <time>2026-06-22T22:09:37Z</time>
   </trkpt>
   <trkpt lat="-3.0967460" lon="37.3777450">
    <ele>4750.1</ele>
    <time>2026-06-22T22:09:38Z</time>
   </trkpt>
   <trkpt lat="-3.0967460" lon="37.3777440">
    <ele>4750.1</ele>
    <time>2026-06-22T22:09:39Z</time>
   </trkpt>
   <trkpt lat="-3.0967460" lon="37.3777420">
    <ele>4750.2</ele>
    <time>2026-06-22T22:09:40Z</time>
   </trkpt>
   <trkpt lat="-3.0967420" lon="37.3777410">
    <ele>4750.3</ele>
    <time>2026-06-22T22:09:41Z</time>
   </trkpt>
   <trkpt lat="-3.0967410" lon="37.3777410">
    <ele>4750.3</ele>
    <time>2026-06-22T22:09:42Z</time>
   </trkpt>
   <trkpt lat="-3.0967400" lon="37.3777380">
    <ele>4750.4</ele>
    <time>2026-06-22T22:09:43Z</time>
   </trkpt>
   <trkpt lat="-3.0967360" lon="37.3777330">
    <ele>4750.6</ele>
    <time>2026-06-22T22:09:44Z</time>
   </trkpt>
   <trkpt lat="-3.0967350" lon="37.3777320">
    <ele>4750.6</ele>
    <time>2026-06-22T22:09:45Z</time>
   </trkpt>
   <trkpt lat="-3.0967350" lon="37.3777280">
    <ele>4750.8</ele>
    <time>2026-06-22T22:09:46Z</time>
   </trkpt>
   <trkpt lat="-3.0967330" lon="37.3777260">
    <ele>4750.8</ele>
    <time>2026-06-22T22:09:47Z</time>
   </trkpt>
   <trkpt lat="-3.0967320" lon="37.3777260">
    <ele>4750.9</ele>
    <time>2026-06-22T22:09:48Z</time>
   </trkpt>
   <trkpt lat="-3.0967300" lon="37.3777240">
    <ele>4751.0</ele>
    <time>2026-06-22T22:09:49Z</time>
   </trkpt>
   <trkpt lat="-3.0967270" lon="37.3777260">
    <ele>4751.1</ele>
    <time>2026-06-22T22:09:50Z</time>
   </trkpt>
   <trkpt lat="-3.0967250" lon="37.3777250">
    <ele>4751.1</ele>
    <time>2026-06-22T22:09:51Z</time>
   </trkpt>
   <trkpt lat="-3.0967210" lon="37.3777280">
    <ele>4751.3</ele>
    <time>2026-06-22T22:09:52Z</time>
   </trkpt>
   <trkpt lat="-3.0967180" lon="37.3777290">
    <ele>4751.4</ele>
    <time>2026-06-22T22:09:53Z</time>
   </trkpt>
   <trkpt lat="-3.0967170" lon="37.3777320">
    <ele>4751.5</ele>
    <time>2026-06-22T22:09:54Z</time>
   </trkpt>
   <trkpt lat="-3.0967150" lon="37.3777270">
    <ele>4751.6</ele>
    <time>2026-06-22T22:09:55Z</time>
   </trkpt>
   <trkpt lat="-3.0967160" lon="37.3777260">
    <ele>4751.7</ele>
    <time>2026-06-22T22:09:56Z</time>
   </trkpt>
   <trkpt lat="-3.0967120" lon="37.3777260">
    <ele>4751.8</ele>
    <time>2026-06-22T22:09:57Z</time>
   </trkpt>
   <trkpt lat="-3.0967130" lon="37.3777240">
    <ele>4751.9</ele>
    <time>2026-06-22T22:09:58Z</time>
   </trkpt>
   <trkpt lat="-3.0967130" lon="37.3777190">
    <ele>4752.0</ele>
    <time>2026-06-22T22:09:59Z</time>
   </trkpt>
   <trkpt lat="-3.0967150" lon="37.3777180">
    <ele>4752.1</ele>
    <time>2026-06-22T22:10:00Z</time>
   </trkpt>
   <trkpt lat="-3.0967160" lon="37.3777180">
    <ele>4752.1</ele>
    <time>2026-06-22T22:10:01Z</time>
   </trkpt>
   <trkpt lat="-3.0967160" lon="37.3777190">
    <ele>4752.1</ele>
    <time>2026-06-22T22:10:02Z</time>
   </trkpt>
   <trkpt lat="-3.0967160" lon="37.3777160">
    <ele>4752.2</ele>
    <time>2026-06-22T22:10:03Z</time>
   </trkpt>
   <trkpt lat="-3.0967170" lon="37.3777160">
    <ele>4752.2</ele>
    <time>2026-06-22T22:10:04Z</time>
   </trkpt>
   <trkpt lat="-3.0967150" lon="37.3777160">
    <ele>4752.3</ele>
    <time>2026-06-22T22:10:05Z</time>
   </trkpt>
   <trkpt lat="-3.0967150" lon="37.3777160">
    <ele>4752.3</ele>
    <time>2026-06-22T22:10:06Z</time>
   </trkpt>
   <trkpt lat="-3.0967130" lon="37.3777110">
    <ele>4752.5</ele>
    <time>2026-06-22T22:10:07Z</time>
   </trkpt>
   <trkpt lat="-3.0967110" lon="37.3777060">
    <ele>4752.6</ele>
    <time>2026-06-22T22:10:08Z</time>
   </trkpt>
   <trkpt lat="-3.0967070" lon="37.3777040">
    <ele>4752.8</ele>
    <time>2026-06-22T22:10:09Z</time>
   </trkpt>
   <trkpt lat="-3.0967080" lon="37.3777050">
    <ele>4752.8</ele>
    <time>2026-06-22T22:10:10Z</time>
   </trkpt>
   <trkpt lat="-3.0967060" lon="37.3777030">
    <ele>4752.9</ele>
    <time>2026-06-22T22:10:11Z</time>
   </trkpt>
   <trkpt lat="-3.0967040" lon="37.3776990">
    <ele>4753.0</ele>
    <time>2026-06-22T22:10:12Z</time>
   </trkpt>
   <trkpt lat="-3.0967030" lon="37.3776970">
    <ele>4753.1</ele>
    <time>2026-06-22T22:10:13Z</time>
   </trkpt>
   <trkpt lat="-3.0967010" lon="37.3776960">
    <ele>4753.1</ele>
    <time>2026-06-22T22:10:14Z</time>
   </trkpt>
   <trkpt lat="-3.0967010" lon="37.3776970">
    <ele>4753.2</ele>
    <time>2026-06-22T22:10:15Z</time>
   </trkpt>
   <trkpt lat="-3.0966970" lon="37.3776980">
    <ele>4753.3</ele>
    <time>2026-06-22T22:10:16Z</time>
   </trkpt>
   <trkpt lat="-3.0966930" lon="37.3776990">
    <ele>4753.4</ele>
    <time>2026-06-22T22:10:17Z</time>
   </trkpt>
   <trkpt lat="-3.0966930" lon="37.3777020">
    <ele>4753.5</ele>
    <time>2026-06-22T22:10:18Z</time>
   </trkpt>
   <trkpt lat="-3.0966890" lon="37.3777020">
    <ele>4753.6</ele>
    <time>2026-06-22T22:10:19Z</time>
   </trkpt>
   <trkpt lat="-3.0966860" lon="37.3777010">
    <ele>4753.7</ele>
    <time>2026-06-22T22:10:20Z</time>
   </trkpt>
   <trkpt lat="-3.0966850" lon="37.3777010">
    <ele>4753.8</ele>
    <time>2026-06-22T22:10:21Z</time>
   </trkpt>
   <trkpt lat="-3.0966850" lon="37.3777000">
    <ele>4753.8</ele>
    <time>2026-06-22T22:10:22Z</time>
   </trkpt>
   <trkpt lat="-3.0966860" lon="37.3776980">
    <ele>4753.8</ele>
    <time>2026-06-22T22:10:23Z</time>
   </trkpt>
   <trkpt lat="-3.0966840" lon="37.3776990">
    <ele>4753.9</ele>
    <time>2026-06-22T22:10:24Z</time>
   </trkpt>
   <trkpt lat="-3.0966820" lon="37.3776980">
    <ele>4754.0</ele>
    <time>2026-06-22T22:10:25Z</time>
   </trkpt>
   <trkpt lat="-3.0966800" lon="37.3776960">
    <ele>4754.1</ele>
    <time>2026-06-22T22:10:26Z</time>
   </trkpt>
   <trkpt lat="-3.0966820" lon="37.3776970">
    <ele>4754.1</ele>
    <time>2026-06-22T22:10:27Z</time>
   </trkpt>
   <trkpt lat="-3.0966820" lon="37.3776970">
    <ele>4754.1</ele>
    <time>2026-06-22T22:10:28Z</time>
   </trkpt>
   <trkpt lat="-3.0966800" lon="37.3776980">
    <ele>4754.2</ele>
    <time>2026-06-22T22:10:29Z</time>
   </trkpt>
   <trkpt lat="-3.0966780" lon="37.3776980">
    <ele>4754.3</ele>
    <time>2026-06-22T22:10:30Z</time>
   </trkpt>
   <trkpt lat="-3.0966780" lon="37.3777000">
    <ele>4754.3</ele>
    <time>2026-06-22T22:10:31Z</time>
   </trkpt>
   <trkpt lat="-3.0966760" lon="37.3776990">
    <ele>4754.4</ele>
    <time>2026-06-22T22:10:32Z</time>
   </trkpt>
   <trkpt lat="-3.0966740" lon="37.3777010">
    <ele>4754.5</ele>
    <time>2026-06-22T22:10:33Z</time>
   </trkpt>
   <trkpt lat="-3.0966710" lon="37.3777010">
    <ele>4754.6</ele>
    <time>2026-06-22T22:10:34Z</time>
   </trkpt>
   <trkpt lat="-3.0966660" lon="37.3777000">
    <ele>4754.7</ele>
    <time>2026-06-22T22:10:35Z</time>
   </trkpt>
   <trkpt lat="-3.0966680" lon="37.3777020">
    <ele>4754.8</ele>
    <time>2026-06-22T22:10:36Z</time>
   </trkpt>
   <trkpt lat="-3.0966650" lon="37.3777030">
    <ele>4754.9</ele>
    <time>2026-06-22T22:10:37Z</time>
   </trkpt>
   <trkpt lat="-3.0966660" lon="37.3777020">
    <ele>4754.9</ele>
    <time>2026-06-22T22:10:38Z</time>
   </trkpt>
   <trkpt lat="-3.0966660" lon="37.3777030">
    <ele>4755.0</ele>
    <time>2026-06-22T22:10:39Z</time>
   </trkpt>
   <trkpt lat="-3.0966650" lon="37.3777010">
    <ele>4755.0</ele>
    <time>2026-06-22T22:10:40Z</time>
   </trkpt>
   <trkpt lat="-3.0966650" lon="37.3777020">
    <ele>4755.1</ele>
    <time>2026-06-22T22:10:41Z</time>
   </trkpt>
   <trkpt lat="-3.0966650" lon="37.3777020">
    <ele>4755.1</ele>
    <time>2026-06-22T22:10:42Z</time>
   </trkpt>
   <trkpt lat="-3.0966660" lon="37.3776990">
    <ele>4755.1</ele>
    <time>2026-06-22T22:10:43Z</time>
   </trkpt>
   <trkpt lat="-3.0966660" lon="37.3776980">
    <ele>4755.2</ele>
    <time>2026-06-22T22:10:44Z</time>
   </trkpt>
   <trkpt lat="-3.0966650" lon="37.3776960">
    <ele>4755.2</ele>
    <time>2026-06-22T22:10:45Z</time>
   </trkpt>
   <trkpt lat="-3.0966630" lon="37.3776950">
    <ele>4755.3</ele>
    <time>2026-06-22T22:10:46Z</time>
   </trkpt>
   <trkpt lat="-3.0966640" lon="37.3776910">
    <ele>4755.4</ele>
    <time>2026-06-22T22:10:47Z</time>
   </trkpt>
   <trkpt lat="-3.0966640" lon="37.3776930">
    <ele>4755.5</ele>
    <time>2026-06-22T22:10:48Z</time>
   </trkpt>
   <trkpt lat="-3.0966650" lon="37.3776920">
    <ele>4755.5</ele>
    <time>2026-06-22T22:10:49Z</time>
   </trkpt>
   <trkpt lat="-3.0966650" lon="37.3776860">
    <ele>4755.7</ele>
    <time>2026-06-22T22:10:50Z</time>
   </trkpt>
   <trkpt lat="-3.0966610" lon="37.3776860">
    <ele>4755.8</ele>
    <time>2026-06-22T22:10:51Z</time>
   </trkpt>
   <trkpt lat="-3.0966620" lon="37.3776840">
    <ele>4755.9</ele>
    <time>2026-06-22T22:10:52Z</time>
   </trkpt>
   <trkpt lat="-3.0966600" lon="37.3776800">
    <ele>4756.0</ele>
    <time>2026-06-22T22:10:53Z</time>
   </trkpt>
   <trkpt lat="-3.0966590" lon="37.3776770">
    <ele>4756.1</ele>
    <time>2026-06-22T22:10:55Z</time>
   </trkpt>
   <trkpt lat="-3.0966600" lon="37.3776780">
    <ele>4756.2</ele>
    <time>2026-06-22T22:10:56Z</time>
   </trkpt>
   <trkpt lat="-3.0966600" lon="37.3776760">
    <ele>4756.2</ele>
    <time>2026-06-22T22:10:57Z</time>
   </trkpt>
   <trkpt lat="-3.0966560" lon="37.3776740">
    <ele>4756.4</ele>
    <time>2026-06-22T22:10:58Z</time>
   </trkpt>
   <trkpt lat="-3.0966540" lon="37.3776770">
    <ele>4756.5</ele>
    <time>2026-06-22T22:10:59Z</time>
   </trkpt>
   <trkpt lat="-3.0966530" lon="37.3776760">
    <ele>4756.5</ele>
    <time>2026-06-22T22:11:00Z</time>
   </trkpt>
   <trkpt lat="-3.0966540" lon="37.3776770">
    <ele>4756.5</ele>
    <time>2026-06-22T22:11:01Z</time>
   </trkpt>
   <trkpt lat="-3.0966530" lon="37.3776760">
    <ele>4756.6</ele>
    <time>2026-06-22T22:11:02Z</time>
   </trkpt>
   <trkpt lat="-3.0966490" lon="37.3776750">
    <ele>4756.7</ele>
    <time>2026-06-22T22:11:03Z</time>
   </trkpt>
   <trkpt lat="-3.0966460" lon="37.3776780">
    <ele>4756.8</ele>
    <time>2026-06-22T22:11:04Z</time>
   </trkpt>
   <trkpt lat="-3.0966420" lon="37.3776800">
    <ele>4756.9</ele>
    <time>2026-06-22T22:11:05Z</time>
   </trkpt>
   <trkpt lat="-3.0966400" lon="37.3776820">
    <ele>4757.0</ele>
    <time>2026-06-22T22:11:06Z</time>
   </trkpt>
   <trkpt lat="-3.0966390" lon="37.3776830">
    <ele>4757.0</ele>
    <time>2026-06-22T22:11:07Z</time>
   </trkpt>
   <trkpt lat="-3.0966370" lon="37.3776850">
    <ele>4757.1</ele>
    <time>2026-06-22T22:11:08Z</time>
   </trkpt>
   <trkpt lat="-3.0966350" lon="37.3776870">
    <ele>4757.2</ele>
    <time>2026-06-22T22:11:09Z</time>
   </trkpt>
   <trkpt lat="-3.0966330" lon="37.3776880">
    <ele>4757.3</ele>
    <time>2026-06-22T22:11:10Z</time>
   </trkpt>
   <trkpt lat="-3.0966330" lon="37.3776890">
    <ele>4757.3</ele>
    <time>2026-06-22T22:11:11Z</time>
   </trkpt>
   <trkpt lat="-3.0966320" lon="37.3776890">
    <ele>4757.3</ele>
    <time>2026-06-22T22:11:12Z</time>
   </trkpt>
   <trkpt lat="-3.0966290" lon="37.3776890">
    <ele>4757.4</ele>
    <time>2026-06-22T22:11:13Z</time>
   </trkpt>
   <trkpt lat="-3.0966290" lon="37.3776900">
    <ele>4757.4</ele>
    <time>2026-06-22T22:11:14Z</time>
   </trkpt>
   <trkpt lat="-3.0966270" lon="37.3776890">
    <ele>4757.5</ele>
    <time>2026-06-22T22:11:15Z</time>
   </trkpt>
   <trkpt lat="-3.0966270" lon="37.3776890">
    <ele>4757.5</ele>
    <time>2026-06-22T22:11:16Z</time>
   </trkpt>
   <trkpt lat="-3.0966260" lon="37.3776870">
    <ele>4757.5</ele>
    <time>2026-06-22T22:11:17Z</time>
   </trkpt>
   <trkpt lat="-3.0966240" lon="37.3776850">
    <ele>4757.6</ele>
    <time>2026-06-22T22:11:18Z</time>
   </trkpt>
   <trkpt lat="-3.0966220" lon="37.3776820">
    <ele>4757.7</ele>
    <time>2026-06-22T22:11:19Z</time>
   </trkpt>
   <trkpt lat="-3.0966230" lon="37.3776830">
    <ele>4757.7</ele>
    <time>2026-06-22T22:11:20Z</time>
   </trkpt>
   <trkpt lat="-3.0966230" lon="37.3776830">
    <ele>4757.7</ele>
    <time>2026-06-22T22:11:21Z</time>
   </trkpt>
   <trkpt lat="-3.0966230" lon="37.3776830">
    <ele>4757.7</ele>
    <time>2026-06-22T22:11:22Z</time>
   </trkpt>
   <trkpt lat="-3.0966240" lon="37.3776850">
    <ele>4757.8</ele>
    <time>2026-06-22T22:11:23Z</time>
   </trkpt>
   <trkpt lat="-3.0966220" lon="37.3776840">
    <ele>4757.9</ele>
    <time>2026-06-22T22:11:24Z</time>
   </trkpt>
   <trkpt lat="-3.0966200" lon="37.3776820">
    <ele>4757.9</ele>
    <time>2026-06-22T22:11:25Z</time>
   </trkpt>
   <trkpt lat="-3.0966180" lon="37.3776820">
    <ele>4758.0</ele>
    <time>2026-06-22T22:11:26Z</time>
   </trkpt>
   <trkpt lat="-3.0966170" lon="37.3776840">
    <ele>4758.0</ele>
    <time>2026-06-22T22:11:27Z</time>
   </trkpt>
   <trkpt lat="-3.0966160" lon="37.3776850">
    <ele>4758.1</ele>
    <time>2026-06-22T22:11:28Z</time>
   </trkpt>
   <trkpt lat="-3.0966160" lon="37.3776860">
    <ele>4758.1</ele>
    <time>2026-06-22T22:11:29Z</time>
   </trkpt>
   <trkpt lat="-3.0966160" lon="37.3776870">
    <ele>4758.1</ele>
    <time>2026-06-22T22:11:30Z</time>
   </trkpt>
   <trkpt lat="-3.0966160" lon="37.3776870">
    <ele>4758.1</ele>
    <time>2026-06-22T22:11:31Z</time>
   </trkpt>
   <trkpt lat="-3.0966160" lon="37.3776850">
    <ele>4758.2</ele>
    <time>2026-06-22T22:11:32Z</time>
   </trkpt>
   <trkpt lat="-3.0966120" lon="37.3776820">
    <ele>4758.3</ele>
    <time>2026-06-22T22:11:33Z</time>
   </trkpt>
   <trkpt lat="-3.0966100" lon="37.3776840">
    <ele>4758.4</ele>
    <time>2026-06-22T22:11:34Z</time>
   </trkpt>
   <trkpt lat="-3.0966110" lon="37.3776870">
    <ele>4758.5</ele>
    <time>2026-06-22T22:11:35Z</time>
   </trkpt>
   <trkpt lat="-3.0966090" lon="37.3776890">
    <ele>4758.6</ele>
    <time>2026-06-22T22:11:36Z</time>
   </trkpt>
   <trkpt lat="-3.0966070" lon="37.3776920">
    <ele>4758.7</ele>
    <time>2026-06-22T22:11:37Z</time>
   </trkpt>
   <trkpt lat="-3.0966060" lon="37.3776930">
    <ele>4758.7</ele>
    <time>2026-06-22T22:11:38Z</time>
   </trkpt>
   <trkpt lat="-3.0966030" lon="37.3776940">
    <ele>4758.8</ele>
    <time>2026-06-22T22:11:39Z</time>
   </trkpt>
   <trkpt lat="-3.0966040" lon="37.3776950">
    <ele>4758.8</ele>
    <time>2026-06-22T22:11:40Z</time>
   </trkpt>
   <trkpt lat="-3.0966030" lon="37.3776960">
    <ele>4758.8</ele>
    <time>2026-06-22T22:11:41Z</time>
   </trkpt>
   <trkpt lat="-3.0966010" lon="37.3776980">
    <ele>4758.9</ele>
    <time>2026-06-22T22:11:42Z</time>
   </trkpt>
   <trkpt lat="-3.0966010" lon="37.3776990">
    <ele>4758.9</ele>
    <time>2026-06-22T22:11:43Z</time>
   </trkpt>
   <trkpt lat="-3.0965980" lon="37.3776990">
    <ele>4759.0</ele>
    <time>2026-06-22T22:11:44Z</time>
   </trkpt>
   <trkpt lat="-3.0965950" lon="37.3777000">
    <ele>4759.1</ele>
    <time>2026-06-22T22:11:45Z</time>
   </trkpt>
   <trkpt lat="-3.0965890" lon="37.3776940">
    <ele>4759.3</ele>
    <time>2026-06-22T22:11:46Z</time>
   </trkpt>
   <trkpt lat="-3.0965880" lon="37.3776940">
    <ele>4759.4</ele>
    <time>2026-06-22T22:11:47Z</time>
   </trkpt>
   <trkpt lat="-3.0965880" lon="37.3776950">
    <ele>4759.4</ele>
    <time>2026-06-22T22:11:48Z</time>
   </trkpt>
   <trkpt lat="-3.0965840" lon="37.3776910">
    <ele>4759.5</ele>
    <time>2026-06-22T22:11:49Z</time>
   </trkpt>
   <trkpt lat="-3.0965810" lon="37.3776910">
    <ele>4759.6</ele>
    <time>2026-06-22T22:11:50Z</time>
   </trkpt>
   <trkpt lat="-3.0965790" lon="37.3776920">
    <ele>4759.7</ele>
    <time>2026-06-22T22:11:51Z</time>
   </trkpt>
   <trkpt lat="-3.0965790" lon="37.3776930">
    <ele>4759.7</ele>
    <time>2026-06-22T22:11:52Z</time>
   </trkpt>
   <trkpt lat="-3.0965750" lon="37.3776910">
    <ele>4759.8</ele>
    <time>2026-06-22T22:11:53Z</time>
   </trkpt>
   <trkpt lat="-3.0965720" lon="37.3776880">
    <ele>4759.9</ele>
    <time>2026-06-22T22:11:54Z</time>
   </trkpt>
   <trkpt lat="-3.0965710" lon="37.3776880">
    <ele>4760.0</ele>
    <time>2026-06-22T22:11:55Z</time>
   </trkpt>
   <trkpt lat="-3.0965660" lon="37.3776880">
    <ele>4760.1</ele>
    <time>2026-06-22T22:11:56Z</time>
   </trkpt>
   <trkpt lat="-3.0965650" lon="37.3776850">
    <ele>4760.2</ele>
    <time>2026-06-22T22:11:57Z</time>
   </trkpt>
   <trkpt lat="-3.0965640" lon="37.3776860">
    <ele>4760.2</ele>
    <time>2026-06-22T22:11:58Z</time>
   </trkpt>
   <trkpt lat="-3.0965600" lon="37.3776860">
    <ele>4760.3</ele>
    <time>2026-06-22T22:11:59Z</time>
   </trkpt>
   <trkpt lat="-3.0965610" lon="37.3776870">
    <ele>4760.4</ele>
    <time>2026-06-22T22:12:00Z</time>
   </trkpt>
   <trkpt lat="-3.0965590" lon="37.3776870">
    <ele>4760.4</ele>
    <time>2026-06-22T22:12:01Z</time>
   </trkpt>
   <trkpt lat="-3.0965570" lon="37.3776890">
    <ele>4760.5</ele>
    <time>2026-06-22T22:12:02Z</time>
   </trkpt>
   <trkpt lat="-3.0965550" lon="37.3776880">
    <ele>4760.5</ele>
    <time>2026-06-22T22:12:03Z</time>
   </trkpt>
   <trkpt lat="-3.0965530" lon="37.3776880">
    <ele>4760.6</ele>
    <time>2026-06-22T22:12:04Z</time>
   </trkpt>
   <trkpt lat="-3.0965510" lon="37.3776920">
    <ele>4760.7</ele>
    <time>2026-06-22T22:12:05Z</time>
   </trkpt>
   <trkpt lat="-3.0965490" lon="37.3776930">
    <ele>4760.8</ele>
    <time>2026-06-22T22:12:06Z</time>
   </trkpt>
   <trkpt lat="-3.0965460" lon="37.3776960">
    <ele>4760.9</ele>
    <time>2026-06-22T22:12:07Z</time>
   </trkpt>
   <trkpt lat="-3.0965430" lon="37.3776970">
    <ele>4760.9</ele>
    <time>2026-06-22T22:12:08Z</time>
   </trkpt>
   <trkpt lat="-3.0965400" lon="37.3777000">
    <ele>4761.1</ele>
    <time>2026-06-22T22:12:09Z</time>
   </trkpt>
   <trkpt lat="-3.0965400" lon="37.3777040">
    <ele>4761.2</ele>
    <time>2026-06-22T22:12:10Z</time>
   </trkpt>
   <trkpt lat="-3.0965420" lon="37.3777060">
    <ele>4761.2</ele>
    <time>2026-06-22T22:12:11Z</time>
   </trkpt>
   <trkpt lat="-3.0965390" lon="37.3777060">
    <ele>4761.3</ele>
    <time>2026-06-22T22:12:12Z</time>
   </trkpt>
   <trkpt lat="-3.0965400" lon="37.3777080">
    <ele>4761.4</ele>
    <time>2026-06-22T22:12:13Z</time>
   </trkpt>
   <trkpt lat="-3.0965380" lon="37.3777080">
    <ele>4761.4</ele>
    <time>2026-06-22T22:12:14Z</time>
   </trkpt>
   <trkpt lat="-3.0965370" lon="37.3777110">
    <ele>4761.5</ele>
    <time>2026-06-22T22:12:15Z</time>
   </trkpt>
   <trkpt lat="-3.0965350" lon="37.3777110">
    <ele>4761.5</ele>
    <time>2026-06-22T22:12:16Z</time>
   </trkpt>
   <trkpt lat="-3.0965330" lon="37.3777140">
    <ele>4761.6</ele>
    <time>2026-06-22T22:12:17Z</time>
   </trkpt>
   <trkpt lat="-3.0965300" lon="37.3777180">
    <ele>4761.8</ele>
    <time>2026-06-22T22:12:18Z</time>
   </trkpt>
   <trkpt lat="-3.0965270" lon="37.3777200">
    <ele>4761.9</ele>
    <time>2026-06-22T22:12:19Z</time>
   </trkpt>
   <trkpt lat="-3.0965260" lon="37.3777220">
    <ele>4761.9</ele>
    <time>2026-06-22T22:12:20Z</time>
   </trkpt>
   <trkpt lat="-3.0965250" lon="37.3777250">
    <ele>4762.0</ele>
    <time>2026-06-22T22:12:21Z</time>
   </trkpt>
   <trkpt lat="-3.0965210" lon="37.3777290">
    <ele>4762.1</ele>
    <time>2026-06-22T22:12:22Z</time>
   </trkpt>
   <trkpt lat="-3.0965190" lon="37.3777300">
    <ele>4762.2</ele>
    <time>2026-06-22T22:12:23Z</time>
   </trkpt>
   <trkpt lat="-3.0965170" lon="37.3777300">
    <ele>4762.3</ele>
    <time>2026-06-22T22:12:24Z</time>
   </trkpt>
   <trkpt lat="-3.0965150" lon="37.3777310">
    <ele>4762.3</ele>
    <time>2026-06-22T22:12:25Z</time>
   </trkpt>
   <trkpt lat="-3.0965170" lon="37.3777320">
    <ele>4762.4</ele>
    <time>2026-06-22T22:12:26Z</time>
   </trkpt>
   <trkpt lat="-3.0965160" lon="37.3777310">
    <ele>4762.4</ele>
    <time>2026-06-22T22:12:27Z</time>
   </trkpt>
   <trkpt lat="-3.0965110" lon="37.3777280">
    <ele>4762.6</ele>
    <time>2026-06-22T22:12:28Z</time>
   </trkpt>
   <trkpt lat="-3.0965090" lon="37.3777280">
    <ele>4762.6</ele>
    <time>2026-06-22T22:12:29Z</time>
   </trkpt>
   <trkpt lat="-3.0965080" lon="37.3777280">
    <ele>4762.6</ele>
    <time>2026-06-22T22:12:30Z</time>
   </trkpt>
   <trkpt lat="-3.0965080" lon="37.3777280">
    <ele>4762.6</ele>
    <time>2026-06-22T22:12:31Z</time>
   </trkpt>
   <trkpt lat="-3.0965070" lon="37.3777240">
    <ele>4762.7</ele>
    <time>2026-06-22T22:12:32Z</time>
   </trkpt>
   <trkpt lat="-3.0965050" lon="37.3777220">
    <ele>4762.8</ele>
    <time>2026-06-22T22:12:33Z</time>
   </trkpt>
   <trkpt lat="-3.0965030" lon="37.3777200">
    <ele>4762.9</ele>
    <time>2026-06-22T22:12:34Z</time>
   </trkpt>
   <trkpt lat="-3.0965040" lon="37.3777200">
    <ele>4762.9</ele>
    <time>2026-06-22T22:12:35Z</time>
   </trkpt>
   <trkpt lat="-3.0965040" lon="37.3777150">
    <ele>4763.0</ele>
    <time>2026-06-22T22:12:36Z</time>
   </trkpt>
   <trkpt lat="-3.0965040" lon="37.3777140">
    <ele>4763.1</ele>
    <time>2026-06-22T22:12:37Z</time>
   </trkpt>
   <trkpt lat="-3.0965030" lon="37.3777090">
    <ele>4763.2</ele>
    <time>2026-06-22T22:12:38Z</time>
   </trkpt>
   <trkpt lat="-3.0965040" lon="37.3777080">
    <ele>4763.2</ele>
    <time>2026-06-22T22:12:39Z</time>
   </trkpt>
   <trkpt lat="-3.0965060" lon="37.3777080">
    <ele>4763.3</ele>
    <time>2026-06-22T22:12:40Z</time>
   </trkpt>
   <trkpt lat="-3.0964990" lon="37.3777010">
    <ele>4763.5</ele>
    <time>2026-06-22T22:12:41Z</time>
   </trkpt>
   <trkpt lat="-3.0964980" lon="37.3777010">
    <ele>4763.6</ele>
    <time>2026-06-22T22:12:42Z</time>
   </trkpt>
   <trkpt lat="-3.0964980" lon="37.3777010">
    <ele>4763.6</ele>
    <time>2026-06-22T22:12:43Z</time>
   </trkpt>
   <trkpt lat="-3.0965000" lon="37.3776980">
    <ele>4763.6</ele>
    <time>2026-06-22T22:12:44Z</time>
   </trkpt>
   <trkpt lat="-3.0965020" lon="37.3776980">
    <ele>4763.7</ele>
    <time>2026-06-22T22:12:45Z</time>
   </trkpt>
   <trkpt lat="-3.0965020" lon="37.3776990">
    <ele>4763.7</ele>
    <time>2026-06-22T22:12:46Z</time>
   </trkpt>
   <trkpt lat="-3.0965030" lon="37.3776980">
    <ele>4763.8</ele>
    <time>2026-06-22T22:12:47Z</time>
   </trkpt>
   <trkpt lat="-3.0965060" lon="37.3776940">
    <ele>4763.9</ele>
    <time>2026-06-22T22:12:48Z</time>
   </trkpt>
   <trkpt lat="-3.0965090" lon="37.3776900">
    <ele>4764.0</ele>
    <time>2026-06-22T22:12:49Z</time>
   </trkpt>
   <trkpt lat="-3.0965080" lon="37.3776860">
    <ele>4764.1</ele>
    <time>2026-06-22T22:12:50Z</time>
   </trkpt>
   <trkpt lat="-3.0965070" lon="37.3776840">
    <ele>4764.2</ele>
    <time>2026-06-22T22:12:51Z</time>
   </trkpt>
   <trkpt lat="-3.0965050" lon="37.3776800">
    <ele>4764.3</ele>
    <time>2026-06-22T22:12:52Z</time>
   </trkpt>
   <trkpt lat="-3.0965040" lon="37.3776750">
    <ele>4764.4</ele>
    <time>2026-06-22T22:12:53Z</time>
   </trkpt>
   <trkpt lat="-3.0965010" lon="37.3776720">
    <ele>4764.5</ele>
    <time>2026-06-22T22:12:54Z</time>
   </trkpt>
   <trkpt lat="-3.0965020" lon="37.3776700">
    <ele>4764.6</ele>
    <time>2026-06-22T22:12:55Z</time>
   </trkpt>
   <trkpt lat="-3.0965010" lon="37.3776660">
    <ele>4764.7</ele>
    <time>2026-06-22T22:12:56Z</time>
   </trkpt>
   <trkpt lat="-3.0965010" lon="37.3776650">
    <ele>4764.7</ele>
    <time>2026-06-22T22:12:57Z</time>
   </trkpt>
   <trkpt lat="-3.0965000" lon="37.3776630">
    <ele>4764.8</ele>
    <time>2026-06-22T22:12:58Z</time>
   </trkpt>
   <trkpt lat="-3.0965000" lon="37.3776610">
    <ele>4764.8</ele>
    <time>2026-06-22T22:12:59Z</time>
   </trkpt>
   <trkpt lat="-3.0964990" lon="37.3776580">
    <ele>4764.9</ele>
    <time>2026-06-22T22:13:01Z</time>
   </trkpt>
   <trkpt lat="-3.0964970" lon="37.3776530">
    <ele>4765.0</ele>
    <time>2026-06-22T22:13:02Z</time>
   </trkpt>
   <trkpt lat="-3.0964960" lon="37.3776530">
    <ele>4765.1</ele>
    <time>2026-06-22T22:13:03Z</time>
   </trkpt>
   <trkpt lat="-3.0964930" lon="37.3776480">
    <ele>4765.2</ele>
    <time>2026-06-22T22:13:04Z</time>
   </trkpt>
   <trkpt lat="-3.0964910" lon="37.3776470">
    <ele>4765.3</ele>
    <time>2026-06-22T22:13:05Z</time>
   </trkpt>
   <trkpt lat="-3.0964900" lon="37.3776440">
    <ele>4765.4</ele>
    <time>2026-06-22T22:13:06Z</time>
   </trkpt>
   <trkpt lat="-3.0964880" lon="37.3776440">
    <ele>4765.4</ele>
    <time>2026-06-22T22:13:07Z</time>
   </trkpt>
   <trkpt lat="-3.0964850" lon="37.3776420">
    <ele>4765.5</ele>
    <time>2026-06-22T22:13:08Z</time>
   </trkpt>
   <trkpt lat="-3.0964830" lon="37.3776380">
    <ele>4765.6</ele>
    <time>2026-06-22T22:13:09Z</time>
   </trkpt>
   <trkpt lat="-3.0964810" lon="37.3776370">
    <ele>4765.7</ele>
    <time>2026-06-22T22:13:10Z</time>
   </trkpt>
   <trkpt lat="-3.0964780" lon="37.3776320">
    <ele>4765.8</ele>
    <time>2026-06-22T22:13:11Z</time>
   </trkpt>
   <trkpt lat="-3.0964750" lon="37.3776270">
    <ele>4766.0</ele>
    <time>2026-06-22T22:13:12Z</time>
   </trkpt>
   <trkpt lat="-3.0964740" lon="37.3776270">
    <ele>4766.0</ele>
    <time>2026-06-22T22:13:13Z</time>
   </trkpt>
   <trkpt lat="-3.0964700" lon="37.3776260">
    <ele>4766.1</ele>
    <time>2026-06-22T22:13:14Z</time>
   </trkpt>
   <trkpt lat="-3.0964660" lon="37.3776210">
    <ele>4766.3</ele>
    <time>2026-06-22T22:13:15Z</time>
   </trkpt>
   <trkpt lat="-3.0964630" lon="37.3776230">
    <ele>4766.4</ele>
    <time>2026-06-22T22:13:16Z</time>
   </trkpt>
   <trkpt lat="-3.0964600" lon="37.3776220">
    <ele>4766.4</ele>
    <time>2026-06-22T22:13:17Z</time>
   </trkpt>
   <trkpt lat="-3.0964580" lon="37.3776230">
    <ele>4766.5</ele>
    <time>2026-06-22T22:13:18Z</time>
   </trkpt>
   <trkpt lat="-3.0964560" lon="37.3776250">
    <ele>4766.6</ele>
    <time>2026-06-22T22:13:19Z</time>
   </trkpt>
   <trkpt lat="-3.0964530" lon="37.3776270">
    <ele>4766.7</ele>
    <time>2026-06-22T22:13:20Z</time>
   </trkpt>
   <trkpt lat="-3.0964490" lon="37.3776260">
    <ele>4766.8</ele>
    <time>2026-06-22T22:13:21Z</time>
   </trkpt>
   <trkpt lat="-3.0964470" lon="37.3776280">
    <ele>4766.8</ele>
    <time>2026-06-22T22:13:22Z</time>
   </trkpt>
   <trkpt lat="-3.0964450" lon="37.3776260">
    <ele>4766.9</ele>
    <time>2026-06-22T22:13:23Z</time>
   </trkpt>
   <trkpt lat="-3.0964440" lon="37.3776270">
    <ele>4767.0</ele>
    <time>2026-06-22T22:13:24Z</time>
   </trkpt>
   <trkpt lat="-3.0964390" lon="37.3776260">
    <ele>4767.1</ele>
    <time>2026-06-22T22:13:25Z</time>
   </trkpt>
   <trkpt lat="-3.0964390" lon="37.3776280">
    <ele>4767.1</ele>
    <time>2026-06-22T22:13:26Z</time>
   </trkpt>
   <trkpt lat="-3.0964400" lon="37.3776280">
    <ele>4767.2</ele>
    <time>2026-06-22T22:13:27Z</time>
   </trkpt>
   <trkpt lat="-3.0964390" lon="37.3776260">
    <ele>4767.2</ele>
    <time>2026-06-22T22:13:28Z</time>
   </trkpt>
   <trkpt lat="-3.0964390" lon="37.3776270">
    <ele>4767.2</ele>
    <time>2026-06-22T22:13:29Z</time>
   </trkpt>
   <trkpt lat="-3.0964410" lon="37.3776270">
    <ele>4767.3</ele>
    <time>2026-06-22T22:13:30Z</time>
   </trkpt>
   <trkpt lat="-3.0964400" lon="37.3776260">
    <ele>4767.3</ele>
    <time>2026-06-22T22:13:31Z</time>
   </trkpt>
   <trkpt lat="-3.0964410" lon="37.3776270">
    <ele>4767.4</ele>
    <time>2026-06-22T22:13:32Z</time>
   </trkpt>
   <trkpt lat="-3.0964390" lon="37.3776270">
    <ele>4767.4</ele>
    <time>2026-06-22T22:13:33Z</time>
   </trkpt>
   <trkpt lat="-3.0964390" lon="37.3776250">
    <ele>4767.5</ele>
    <time>2026-06-22T22:13:34Z</time>
   </trkpt>
   <trkpt lat="-3.0964360" lon="37.3776210">
    <ele>4767.6</ele>
    <time>2026-06-22T22:13:35Z</time>
   </trkpt>
   <trkpt lat="-3.0964360" lon="37.3776200">
    <ele>4767.6</ele>
    <time>2026-06-22T22:13:36Z</time>
   </trkpt>
   <trkpt lat="-3.0964340" lon="37.3776190">
    <ele>4767.7</ele>
    <time>2026-06-22T22:13:37Z</time>
   </trkpt>
   <trkpt lat="-3.0964310" lon="37.3776210">
    <ele>4767.8</ele>
    <time>2026-06-22T22:13:38Z</time>
   </trkpt>
   <trkpt lat="-3.0964240" lon="37.3776150">
    <ele>4768.0</ele>
    <time>2026-06-22T22:13:39Z</time>
   </trkpt>
   <trkpt lat="-3.0964250" lon="37.3776170">
    <ele>4768.1</ele>
    <time>2026-06-22T22:13:40Z</time>
   </trkpt>
   <trkpt lat="-3.0964260" lon="37.3776190">
    <ele>4768.1</ele>
    <time>2026-06-22T22:13:41Z</time>
   </trkpt>
   <trkpt lat="-3.0964210" lon="37.3776190">
    <ele>4768.3</ele>
    <time>2026-06-22T22:13:42Z</time>
   </trkpt>
   <trkpt lat="-3.0964180" lon="37.3776220">
    <ele>4768.4</ele>
    <time>2026-06-22T22:13:43Z</time>
   </trkpt>
   <trkpt lat="-3.0964170" lon="37.3776210">
    <ele>4768.4</ele>
    <time>2026-06-22T22:13:44Z</time>
   </trkpt>
   <trkpt lat="-3.0964120" lon="37.3776160">
    <ele>4768.6</ele>
    <time>2026-06-22T22:13:45Z</time>
   </trkpt>
   <trkpt lat="-3.0964140" lon="37.3776160">
    <ele>4768.7</ele>
    <time>2026-06-22T22:13:46Z</time>
   </trkpt>
   <trkpt lat="-3.0964120" lon="37.3776100">
    <ele>4768.8</ele>
    <time>2026-06-22T22:13:47Z</time>
   </trkpt>
   <trkpt lat="-3.0964100" lon="37.3776080">
    <ele>4768.9</ele>
    <time>2026-06-22T22:13:48Z</time>
   </trkpt>
   <trkpt lat="-3.0964090" lon="37.3776080">
    <ele>4768.9</ele>
    <time>2026-06-22T22:13:49Z</time>
   </trkpt>
   <trkpt lat="-3.0964090" lon="37.3776060">
    <ele>4769.0</ele>
    <time>2026-06-22T22:13:50Z</time>
   </trkpt>
   <trkpt lat="-3.0964070" lon="37.3776010">
    <ele>4769.1</ele>
    <time>2026-06-22T22:13:51Z</time>
   </trkpt>
   <trkpt lat="-3.0964080" lon="37.3775980">
    <ele>4769.2</ele>
    <time>2026-06-22T22:13:52Z</time>
   </trkpt>
   <trkpt lat="-3.0964080" lon="37.3775950">
    <ele>4769.3</ele>
    <time>2026-06-22T22:13:53Z</time>
   </trkpt>
   <trkpt lat="-3.0964080" lon="37.3775910">
    <ele>4769.4</ele>
    <time>2026-06-22T22:13:54Z</time>
   </trkpt>
   <trkpt lat="-3.0964100" lon="37.3775900">
    <ele>4769.4</ele>
    <time>2026-06-22T22:13:55Z</time>
   </trkpt>
   <trkpt lat="-3.0964100" lon="37.3775890">
    <ele>4769.5</ele>
    <time>2026-06-22T22:13:56Z</time>
   </trkpt>
   <trkpt lat="-3.0964100" lon="37.3775890">
    <ele>4769.5</ele>
    <time>2026-06-22T22:13:57Z</time>
   </trkpt>
   <trkpt lat="-3.0964100" lon="37.3775860">
    <ele>4769.5</ele>
    <time>2026-06-22T22:13:58Z</time>
   </trkpt>
   <trkpt lat="-3.0964100" lon="37.3775810">
    <ele>4769.7</ele>
    <time>2026-06-22T22:13:59Z</time>
   </trkpt>
   <trkpt lat="-3.0964110" lon="37.3775810">
    <ele>4769.7</ele>
    <time>2026-06-22T22:14:00Z</time>
   </trkpt>
   <trkpt lat="-3.0964110" lon="37.3775790">
    <ele>4769.7</ele>
    <time>2026-06-22T22:14:01Z</time>
   </trkpt>
   <trkpt lat="-3.0964090" lon="37.3775780">
    <ele>4769.8</ele>
    <time>2026-06-22T22:14:02Z</time>
   </trkpt>
   <trkpt lat="-3.0964070" lon="37.3775750">
    <ele>4769.9</ele>
    <time>2026-06-22T22:14:03Z</time>
   </trkpt>
   <trkpt lat="-3.0964060" lon="37.3775740">
    <ele>4769.9</ele>
    <time>2026-06-22T22:14:04Z</time>
   </trkpt>
   <trkpt lat="-3.0964040" lon="37.3775730">
    <ele>4770.0</ele>
    <time>2026-06-22T22:14:05Z</time>
   </trkpt>
   <trkpt lat="-3.0964010" lon="37.3775710">
    <ele>4770.1</ele>
    <time>2026-06-22T22:14:06Z</time>
   </trkpt>
   <trkpt lat="-3.0963970" lon="37.3775710">
    <ele>4770.2</ele>
    <time>2026-06-22T22:14:07Z</time>
   </trkpt>
   <trkpt lat="-3.0963950" lon="37.3775690">
    <ele>4770.3</ele>
    <time>2026-06-22T22:14:08Z</time>
   </trkpt>
   <trkpt lat="-3.0963910" lon="37.3775700">
    <ele>4770.4</ele>
    <time>2026-06-22T22:14:09Z</time>
   </trkpt>
   <trkpt lat="-3.0963910" lon="37.3775710">
    <ele>4770.4</ele>
    <time>2026-06-22T22:14:10Z</time>
   </trkpt>
   <trkpt lat="-3.0963900" lon="37.3775700">
    <ele>4770.4</ele>
    <time>2026-06-22T22:14:11Z</time>
   </trkpt>
   <trkpt lat="-3.0963900" lon="37.3775700">
    <ele>4770.4</ele>
    <time>2026-06-22T22:14:12Z</time>
   </trkpt>
   <trkpt lat="-3.0963900" lon="37.3775690">
    <ele>4770.5</ele>
    <time>2026-06-22T22:14:13Z</time>
   </trkpt>
   <trkpt lat="-3.0963910" lon="37.3775650">
    <ele>4770.6</ele>
    <time>2026-06-22T22:14:14Z</time>
   </trkpt>
   <trkpt lat="-3.0963920" lon="37.3775610">
    <ele>4770.7</ele>
    <time>2026-06-22T22:14:15Z</time>
   </trkpt>
   <trkpt lat="-3.0963940" lon="37.3775550">
    <ele>4770.8</ele>
    <time>2026-06-22T22:14:16Z</time>
   </trkpt>
   <trkpt lat="-3.0963950" lon="37.3775560">
    <ele>4770.9</ele>
    <time>2026-06-22T22:14:17Z</time>
   </trkpt>
   <trkpt lat="-3.0963960" lon="37.3775510">
    <ele>4771.0</ele>
    <time>2026-06-22T22:14:18Z</time>
   </trkpt>
   <trkpt lat="-3.0963970" lon="37.3775490">
    <ele>4771.1</ele>
    <time>2026-06-22T22:14:19Z</time>
   </trkpt>
   <trkpt lat="-3.0963980" lon="37.3775480">
    <ele>4771.1</ele>
    <time>2026-06-22T22:14:20Z</time>
   </trkpt>
   <trkpt lat="-3.0963950" lon="37.3775420">
    <ele>4771.3</ele>
    <time>2026-06-22T22:14:21Z</time>
   </trkpt>
   <trkpt lat="-3.0963950" lon="37.3775400">
    <ele>4771.3</ele>
    <time>2026-06-22T22:14:22Z</time>
   </trkpt>
   <trkpt lat="-3.0963970" lon="37.3775410">
    <ele>4771.4</ele>
    <time>2026-06-22T22:14:23Z</time>
   </trkpt>
   <trkpt lat="-3.0963950" lon="37.3775380">
    <ele>4771.5</ele>
    <time>2026-06-22T22:14:24Z</time>
   </trkpt>
   <trkpt lat="-3.0963950" lon="37.3775340">
    <ele>4771.6</ele>
    <time>2026-06-22T22:14:25Z</time>
   </trkpt>
   <trkpt lat="-3.0963950" lon="37.3775310">
    <ele>4771.7</ele>
    <time>2026-06-22T22:14:26Z</time>
   </trkpt>
   <trkpt lat="-3.0963950" lon="37.3775290">
    <ele>4771.7</ele>
    <time>2026-06-22T22:14:27Z</time>
   </trkpt>
   <trkpt lat="-3.0963960" lon="37.3775280">
    <ele>4771.7</ele>
    <time>2026-06-22T22:14:28Z</time>
   </trkpt>
   <trkpt lat="-3.0963940" lon="37.3775270">
    <ele>4771.8</ele>
    <time>2026-06-22T22:14:29Z</time>
   </trkpt>
   <trkpt lat="-3.0963950" lon="37.3775230">
    <ele>4771.9</ele>
    <time>2026-06-22T22:14:30Z</time>
   </trkpt>
   <trkpt lat="-3.0963940" lon="37.3775220">
    <ele>4771.9</ele>
    <time>2026-06-22T22:14:31Z</time>
   </trkpt>
   <trkpt lat="-3.0963940" lon="37.3775190">
    <ele>4772.0</ele>
    <time>2026-06-22T22:14:32Z</time>
   </trkpt>
   <trkpt lat="-3.0963930" lon="37.3775170">
    <ele>4772.1</ele>
    <time>2026-06-22T22:14:33Z</time>
   </trkpt>
   <trkpt lat="-3.0963920" lon="37.3775130">
    <ele>4772.2</ele>
    <time>2026-06-22T22:14:34Z</time>
   </trkpt>
   <trkpt lat="-3.0963900" lon="37.3775120">
    <ele>4772.2</ele>
    <time>2026-06-22T22:14:35Z</time>
   </trkpt>
   <trkpt lat="-3.0963880" lon="37.3775100">
    <ele>4772.3</ele>
    <time>2026-06-22T22:14:36Z</time>
   </trkpt>
   <trkpt lat="-3.0963860" lon="37.3775080">
    <ele>4772.4</ele>
    <time>2026-06-22T22:14:37Z</time>
   </trkpt>
   <trkpt lat="-3.0963840" lon="37.3775070">
    <ele>4772.5</ele>
    <time>2026-06-22T22:14:38Z</time>
   </trkpt>
   <trkpt lat="-3.0963790" lon="37.3775040">
    <ele>4772.6</ele>
    <time>2026-06-22T22:14:39Z</time>
   </trkpt>
   <trkpt lat="-3.0963800" lon="37.3775040">
    <ele>4772.6</ele>
    <time>2026-06-22T22:14:40Z</time>
   </trkpt>
   <trkpt lat="-3.0963770" lon="37.3775040">
    <ele>4772.7</ele>
    <time>2026-06-22T22:14:41Z</time>
   </trkpt>
   <trkpt lat="-3.0963720" lon="37.3775050">
    <ele>4772.8</ele>
    <time>2026-06-22T22:14:42Z</time>
   </trkpt>
   <trkpt lat="-3.0963690" lon="37.3775070">
    <ele>4772.9</ele>
    <time>2026-06-22T22:14:43Z</time>
   </trkpt>
   <trkpt lat="-3.0963660" lon="37.3775070">
    <ele>4773.0</ele>
    <time>2026-06-22T22:14:44Z</time>
   </trkpt>
   <trkpt lat="-3.0963640" lon="37.3775100">
    <ele>4773.1</ele>
    <time>2026-06-22T22:14:45Z</time>
   </trkpt>
   <trkpt lat="-3.0963620" lon="37.3775120">
    <ele>4773.2</ele>
    <time>2026-06-22T22:14:46Z</time>
   </trkpt>
   <trkpt lat="-3.0963620" lon="37.3775120">
    <ele>4773.2</ele>
    <time>2026-06-22T22:14:47Z</time>
   </trkpt>
   <trkpt lat="-3.0963610" lon="37.3775120">
    <ele>4773.2</ele>
    <time>2026-06-22T22:14:48Z</time>
   </trkpt>
   <trkpt lat="-3.0963590" lon="37.3775170">
    <ele>4773.3</ele>
    <time>2026-06-22T22:14:49Z</time>
   </trkpt>
   <trkpt lat="-3.0963570" lon="37.3775190">
    <ele>4773.4</ele>
    <time>2026-06-22T22:14:50Z</time>
   </trkpt>
   <trkpt lat="-3.0963530" lon="37.3775220">
    <ele>4773.5</ele>
    <time>2026-06-22T22:14:51Z</time>
   </trkpt>
   <trkpt lat="-3.0963490" lon="37.3775240">
    <ele>4773.7</ele>
    <time>2026-06-22T22:14:52Z</time>
   </trkpt>
   <trkpt lat="-3.0963450" lon="37.3775250">
    <ele>4773.8</ele>
    <time>2026-06-22T22:14:53Z</time>
   </trkpt>
   <trkpt lat="-3.0963440" lon="37.3775270">
    <ele>4773.8</ele>
    <time>2026-06-22T22:14:54Z</time>
   </trkpt>
   <trkpt lat="-3.0963410" lon="37.3775260">
    <ele>4773.9</ele>
    <time>2026-06-22T22:14:55Z</time>
   </trkpt>
   <trkpt lat="-3.0963390" lon="37.3775260">
    <ele>4774.0</ele>
    <time>2026-06-22T22:14:56Z</time>
   </trkpt>
   <trkpt lat="-3.0963370" lon="37.3775270">
    <ele>4774.0</ele>
    <time>2026-06-22T22:14:57Z</time>
   </trkpt>
   <trkpt lat="-3.0963380" lon="37.3775270">
    <ele>4774.0</ele>
    <time>2026-06-22T22:14:58Z</time>
   </trkpt>
   <trkpt lat="-3.0963350" lon="37.3775300">
    <ele>4774.1</ele>
    <time>2026-06-22T22:14:59Z</time>
   </trkpt>
   <trkpt lat="-3.0963330" lon="37.3775340">
    <ele>4774.3</ele>
    <time>2026-06-22T22:15:00Z</time>
   </trkpt>
   <trkpt lat="-3.0963320" lon="37.3775350">
    <ele>4774.3</ele>
    <time>2026-06-22T22:15:01Z</time>
   </trkpt>
   <trkpt lat="-3.0963300" lon="37.3775370">
    <ele>4774.4</ele>
    <time>2026-06-22T22:15:02Z</time>
   </trkpt>
   <trkpt lat="-3.0963260" lon="37.3775400">
    <ele>4774.5</ele>
    <time>2026-06-22T22:15:03Z</time>
   </trkpt>
   <trkpt lat="-3.0963240" lon="37.3775410">
    <ele>4774.5</ele>
    <time>2026-06-22T22:15:04Z</time>
   </trkpt>
   <trkpt lat="-3.0963230" lon="37.3775400">
    <ele>4774.6</ele>
    <time>2026-06-22T22:15:05Z</time>
   </trkpt>
   <trkpt lat="-3.0963210" lon="37.3775390">
    <ele>4774.6</ele>
    <time>2026-06-22T22:15:07Z</time>
   </trkpt>
   <trkpt lat="-3.0963190" lon="37.3775380">
    <ele>4774.7</ele>
    <time>2026-06-22T22:15:08Z</time>
   </trkpt>
   <trkpt lat="-3.0963200" lon="37.3775400">
    <ele>4774.7</ele>
    <time>2026-06-22T22:15:09Z</time>
   </trkpt>
   <trkpt lat="-3.0963200" lon="37.3775400">
    <ele>4774.7</ele>
    <time>2026-06-22T22:15:10Z</time>
   </trkpt>
   <trkpt lat="-3.0963200" lon="37.3775400">
    <ele>4774.7</ele>
    <time>2026-06-22T22:15:11Z</time>
   </trkpt>
   <trkpt lat="-3.0963200" lon="37.3775400">
    <ele>4774.7</ele>
    <time>2026-06-22T22:15:12Z</time>
   </trkpt>
   <trkpt lat="-3.0963210" lon="37.3775380">
    <ele>4774.8</ele>
    <time>2026-06-22T22:15:13Z</time>
   </trkpt>
   <trkpt lat="-3.0963200" lon="37.3775380">
    <ele>4774.8</ele>
    <time>2026-06-22T22:15:14Z</time>
   </trkpt>
   <trkpt lat="-3.0963200" lon="37.3775370">
    <ele>4774.9</ele>
    <time>2026-06-22T22:15:15Z</time>
   </trkpt>
   <trkpt lat="-3.0963220" lon="37.3775370">
    <ele>4774.9</ele>
    <time>2026-06-22T22:15:16Z</time>
   </trkpt>
   <trkpt lat="-3.0963220" lon="37.3775370">
    <ele>4774.9</ele>
    <time>2026-06-22T22:15:17Z</time>
   </trkpt>
   <trkpt lat="-3.0963220" lon="37.3775370">
    <ele>4774.9</ele>
    <time>2026-06-22T22:15:18Z</time>
   </trkpt>
   <trkpt lat="-3.0963220" lon="37.3775380">
    <ele>4774.9</ele>
    <time>2026-06-22T22:15:19Z</time>
   </trkpt>
   <trkpt lat="-3.0963230" lon="37.3775370">
    <ele>4775.0</ele>
    <time>2026-06-22T22:15:20Z</time>
   </trkpt>
   <trkpt lat="-3.0963230" lon="37.3775370">
    <ele>4775.0</ele>
    <time>2026-06-22T22:15:21Z</time>
   </trkpt>
   <trkpt lat="-3.0963230" lon="37.3775370">
    <ele>4775.0</ele>
    <time>2026-06-22T22:15:22Z</time>
   </trkpt>
   <trkpt lat="-3.0963230" lon="37.3775370">
    <ele>4775.0</ele>
    <time>2026-06-22T22:15:23Z</time>
   </trkpt>
   <trkpt lat="-3.0963230" lon="37.3775370">
    <ele>4775.0</ele>
    <time>2026-06-22T22:15:24Z</time>
   </trkpt>
   <trkpt lat="-3.0963230" lon="37.3775370">
    <ele>4775.0</ele>
    <time>2026-06-22T22:15:25Z</time>
   </trkpt>
   <trkpt lat="-3.0963230" lon="37.3775350">
    <ele>4775.0</ele>
    <time>2026-06-22T22:15:26Z</time>
   </trkpt>
   <trkpt lat="-3.0963240" lon="37.3775350">
    <ele>4775.0</ele>
    <time>2026-06-22T22:15:27Z</time>
   </trkpt>
   <trkpt lat="-3.0963250" lon="37.3775330">
    <ele>4775.1</ele>
    <time>2026-06-22T22:15:28Z</time>
   </trkpt>
   <trkpt lat="-3.0963250" lon="37.3775350">
    <ele>4775.1</ele>
    <time>2026-06-22T22:15:29Z</time>
   </trkpt>
   <trkpt lat="-3.0963240" lon="37.3775340">
    <ele>4775.2</ele>
    <time>2026-06-22T22:15:30Z</time>
   </trkpt>
   <trkpt lat="-3.0963270" lon="37.3775340">
    <ele>4775.3</ele>
    <time>2026-06-22T22:15:31Z</time>
   </trkpt>
   <trkpt lat="-3.0963260" lon="37.3775340">
    <ele>4775.3</ele>
    <time>2026-06-22T22:15:32Z</time>
   </trkpt>
   <trkpt lat="-3.0963270" lon="37.3775340">
    <ele>4775.3</ele>
    <time>2026-06-22T22:15:33Z</time>
   </trkpt>
   <trkpt lat="-3.0963270" lon="37.3775350">
    <ele>4775.3</ele>
    <time>2026-06-22T22:15:34Z</time>
   </trkpt>
   <trkpt lat="-3.0963260" lon="37.3775350">
    <ele>4775.4</ele>
    <time>2026-06-22T22:15:35Z</time>
   </trkpt>
   <trkpt lat="-3.0963260" lon="37.3775350">
    <ele>4775.4</ele>
    <time>2026-06-22T22:15:36Z</time>
   </trkpt>
   <trkpt lat="-3.0963280" lon="37.3775340">
    <ele>4775.4</ele>
    <time>2026-06-22T22:15:37Z</time>
   </trkpt>
   <trkpt lat="-3.0963280" lon="37.3775350">
    <ele>4775.4</ele>
    <time>2026-06-22T22:15:38Z</time>
   </trkpt>
   <trkpt lat="-3.0963290" lon="37.3775350">
    <ele>4775.5</ele>
    <time>2026-06-22T22:15:39Z</time>
   </trkpt>
   <trkpt lat="-3.0963270" lon="37.3775350">
    <ele>4775.5</ele>
    <time>2026-06-22T22:15:40Z</time>
   </trkpt>
   <trkpt lat="-3.0963230" lon="37.3775320">
    <ele>4775.6</ele>
    <time>2026-06-22T22:15:41Z</time>
   </trkpt>
   <trkpt lat="-3.0963240" lon="37.3775310">
    <ele>4775.7</ele>
    <time>2026-06-22T22:15:42Z</time>
   </trkpt>
   <trkpt lat="-3.0963230" lon="37.3775300">
    <ele>4775.7</ele>
    <time>2026-06-22T22:15:43Z</time>
   </trkpt>
   <trkpt lat="-3.0963230" lon="37.3775270">
    <ele>4775.8</ele>
    <time>2026-06-22T22:15:44Z</time>
   </trkpt>
   <trkpt lat="-3.0963230" lon="37.3775280">
    <ele>4775.8</ele>
    <time>2026-06-22T22:15:45Z</time>
   </trkpt>
   <trkpt lat="-3.0963150" lon="37.3775270">
    <ele>4776.0</ele>
    <time>2026-06-22T22:15:46Z</time>
   </trkpt>
   <trkpt lat="-3.0963170" lon="37.3775300">
    <ele>4776.1</ele>
    <time>2026-06-22T22:15:47Z</time>
   </trkpt>
   <trkpt lat="-3.0963150" lon="37.3775310">
    <ele>4776.1</ele>
    <time>2026-06-22T22:15:48Z</time>
   </trkpt>
   <trkpt lat="-3.0963160" lon="37.3775310">
    <ele>4776.2</ele>
    <time>2026-06-22T22:15:49Z</time>
   </trkpt>
   <trkpt lat="-3.0963140" lon="37.3775330">
    <ele>4776.2</ele>
    <time>2026-06-22T22:15:50Z</time>
   </trkpt>
   <trkpt lat="-3.0963110" lon="37.3775360">
    <ele>4776.3</ele>
    <time>2026-06-22T22:15:51Z</time>
   </trkpt>
   <trkpt lat="-3.0963080" lon="37.3775400">
    <ele>4776.5</ele>
    <time>2026-06-22T22:15:52Z</time>
   </trkpt>
   <trkpt lat="-3.0963080" lon="37.3775420">
    <ele>4776.5</ele>
    <time>2026-06-22T22:15:53Z</time>
   </trkpt>
   <trkpt lat="-3.0963050" lon="37.3775480">
    <ele>4776.7</ele>
    <time>2026-06-22T22:15:54Z</time>
   </trkpt>
   <trkpt lat="-3.0963050" lon="37.3775470">
    <ele>4776.7</ele>
    <time>2026-06-22T22:15:55Z</time>
   </trkpt>
   <trkpt lat="-3.0963040" lon="37.3775480">
    <ele>4776.8</ele>
    <time>2026-06-22T22:15:56Z</time>
   </trkpt>
   <trkpt lat="-3.0962990" lon="37.3775490">
    <ele>4776.9</ele>
    <time>2026-06-22T22:15:57Z</time>
   </trkpt>
   <trkpt lat="-3.0962950" lon="37.3775510">
    <ele>4777.0</ele>
    <time>2026-06-22T22:15:58Z</time>
   </trkpt>
   <trkpt lat="-3.0962950" lon="37.3775540">
    <ele>4777.1</ele>
    <time>2026-06-22T22:15:59Z</time>
   </trkpt>
   <trkpt lat="-3.0962960" lon="37.3775530">
    <ele>4777.1</ele>
    <time>2026-06-22T22:16:00Z</time>
   </trkpt>
   <trkpt lat="-3.0962930" lon="37.3775550">
    <ele>4777.2</ele>
    <time>2026-06-22T22:16:01Z</time>
   </trkpt>
   <trkpt lat="-3.0962920" lon="37.3775550">
    <ele>4777.2</ele>
    <time>2026-06-22T22:16:02Z</time>
   </trkpt>
   <trkpt lat="-3.0962910" lon="37.3775540">
    <ele>4777.3</ele>
    <time>2026-06-22T22:16:03Z</time>
   </trkpt>
   <trkpt lat="-3.0962880" lon="37.3775550">
    <ele>4777.3</ele>
    <time>2026-06-22T22:16:04Z</time>
   </trkpt>
   <trkpt lat="-3.0962840" lon="37.3775540">
    <ele>4777.4</ele>
    <time>2026-06-22T22:16:05Z</time>
   </trkpt>
   <trkpt lat="-3.0962810" lon="37.3775530">
    <ele>4777.5</ele>
    <time>2026-06-22T22:16:06Z</time>
   </trkpt>
   <trkpt lat="-3.0962790" lon="37.3775570">
    <ele>4777.6</ele>
    <time>2026-06-22T22:16:07Z</time>
   </trkpt>
   <trkpt lat="-3.0962750" lon="37.3775600">
    <ele>4777.7</ele>
    <time>2026-06-22T22:16:08Z</time>
   </trkpt>
   <trkpt lat="-3.0962740" lon="37.3775630">
    <ele>4777.8</ele>
    <time>2026-06-22T22:16:09Z</time>
   </trkpt>
   <trkpt lat="-3.0962700" lon="37.3775630">
    <ele>4777.9</ele>
    <time>2026-06-22T22:16:10Z</time>
   </trkpt>
   <trkpt lat="-3.0962670" lon="37.3775640">
    <ele>4778.0</ele>
    <time>2026-06-22T22:16:11Z</time>
   </trkpt>
   <trkpt lat="-3.0962630" lon="37.3775660">
    <ele>4778.1</ele>
    <time>2026-06-22T22:16:12Z</time>
   </trkpt>
   <trkpt lat="-3.0962600" lon="37.3775700">
    <ele>4778.2</ele>
    <time>2026-06-22T22:16:13Z</time>
   </trkpt>
   <trkpt lat="-3.0962580" lon="37.3775710">
    <ele>4778.3</ele>
    <time>2026-06-22T22:16:14Z</time>
   </trkpt>
   <trkpt lat="-3.0962560" lon="37.3775730">
    <ele>4778.4</ele>
    <time>2026-06-22T22:16:15Z</time>
   </trkpt>
   <trkpt lat="-3.0962550" lon="37.3775750">
    <ele>4778.4</ele>
    <time>2026-06-22T22:16:16Z</time>
   </trkpt>
   <trkpt lat="-3.0962530" lon="37.3775760">
    <ele>4778.5</ele>
    <time>2026-06-22T22:16:17Z</time>
   </trkpt>
   <trkpt lat="-3.0962510" lon="37.3775800">
    <ele>4778.6</ele>
    <time>2026-06-22T22:16:18Z</time>
   </trkpt>
   <trkpt lat="-3.0962470" lon="37.3775780">
    <ele>4778.7</ele>
    <time>2026-06-22T22:16:19Z</time>
   </trkpt>
   <trkpt lat="-3.0962440" lon="37.3775800">
    <ele>4778.8</ele>
    <time>2026-06-22T22:16:20Z</time>
   </trkpt>
   <trkpt lat="-3.0962400" lon="37.3775800">
    <ele>4778.9</ele>
    <time>2026-06-22T22:16:21Z</time>
   </trkpt>
   <trkpt lat="-3.0962400" lon="37.3775820">
    <ele>4778.9</ele>
    <time>2026-06-22T22:16:22Z</time>
   </trkpt>
   <trkpt lat="-3.0962390" lon="37.3775820">
    <ele>4779.0</ele>
    <time>2026-06-22T22:16:23Z</time>
   </trkpt>
   <trkpt lat="-3.0962370" lon="37.3775810">
    <ele>4779.0</ele>
    <time>2026-06-22T22:16:24Z</time>
   </trkpt>
   <trkpt lat="-3.0962350" lon="37.3775790">
    <ele>4779.1</ele>
    <time>2026-06-22T22:16:25Z</time>
   </trkpt>
   <trkpt lat="-3.0962350" lon="37.3775790">
    <ele>4779.1</ele>
    <time>2026-06-22T22:16:26Z</time>
   </trkpt>
   <trkpt lat="-3.0962310" lon="37.3775770">
    <ele>4779.2</ele>
    <time>2026-06-22T22:16:27Z</time>
   </trkpt>
   <trkpt lat="-3.0962300" lon="37.3775760">
    <ele>4779.2</ele>
    <time>2026-06-22T22:16:28Z</time>
   </trkpt>
   <trkpt lat="-3.0962310" lon="37.3775730">
    <ele>4779.3</ele>
    <time>2026-06-22T22:16:29Z</time>
   </trkpt>
   <trkpt lat="-3.0962330" lon="37.3775700">
    <ele>4779.4</ele>
    <time>2026-06-22T22:16:30Z</time>
   </trkpt>
   <trkpt lat="-3.0962330" lon="37.3775650">
    <ele>4779.5</ele>
    <time>2026-06-22T22:16:31Z</time>
   </trkpt>
   <trkpt lat="-3.0962340" lon="37.3775620">
    <ele>4779.6</ele>
    <time>2026-06-22T22:16:32Z</time>
   </trkpt>
   <trkpt lat="-3.0962340" lon="37.3775600">
    <ele>4779.6</ele>
    <time>2026-06-22T22:16:33Z</time>
   </trkpt>
   <trkpt lat="-3.0962340" lon="37.3775550">
    <ele>4779.7</ele>
    <time>2026-06-22T22:16:34Z</time>
   </trkpt>
   <trkpt lat="-3.0962340" lon="37.3775520">
    <ele>4779.8</ele>
    <time>2026-06-22T22:16:35Z</time>
   </trkpt>
   <trkpt lat="-3.0962340" lon="37.3775510">
    <ele>4779.8</ele>
    <time>2026-06-22T22:16:36Z</time>
   </trkpt>
   <trkpt lat="-3.0962340" lon="37.3775510">
    <ele>4779.8</ele>
    <time>2026-06-22T22:16:37Z</time>
   </trkpt>
   <trkpt lat="-3.0962330" lon="37.3775450">
    <ele>4780.0</ele>
    <time>2026-06-22T22:16:38Z</time>
   </trkpt>
   <trkpt lat="-3.0962330" lon="37.3775450">
    <ele>4780.0</ele>
    <time>2026-06-22T22:16:39Z</time>
   </trkpt>
   <trkpt lat="-3.0962320" lon="37.3775420">
    <ele>4780.1</ele>
    <time>2026-06-22T22:16:40Z</time>
   </trkpt>
   <trkpt lat="-3.0962300" lon="37.3775390">
    <ele>4780.2</ele>
    <time>2026-06-22T22:16:41Z</time>
   </trkpt>
   <trkpt lat="-3.0962290" lon="37.3775400">
    <ele>4780.2</ele>
    <time>2026-06-22T22:16:42Z</time>
   </trkpt>
   <trkpt lat="-3.0962260" lon="37.3775400">
    <ele>4780.3</ele>
    <time>2026-06-22T22:16:43Z</time>
   </trkpt>
   <trkpt lat="-3.0962220" lon="37.3775370">
    <ele>4780.4</ele>
    <time>2026-06-22T22:16:44Z</time>
   </trkpt>
   <trkpt lat="-3.0962230" lon="37.3775350">
    <ele>4780.4</ele>
    <time>2026-06-22T22:16:45Z</time>
   </trkpt>
   <trkpt lat="-3.0962170" lon="37.3775360">
    <ele>4780.6</ele>
    <time>2026-06-22T22:16:46Z</time>
   </trkpt>
   <trkpt lat="-3.0962180" lon="37.3775350">
    <ele>4780.6</ele>
    <time>2026-06-22T22:16:47Z</time>
   </trkpt>
   <trkpt lat="-3.0962140" lon="37.3775380">
    <ele>4780.7</ele>
    <time>2026-06-22T22:16:48Z</time>
   </trkpt>
   <trkpt lat="-3.0962120" lon="37.3775390">
    <ele>4780.8</ele>
    <time>2026-06-22T22:16:49Z</time>
   </trkpt>
   <trkpt lat="-3.0962090" lon="37.3775390">
    <ele>4780.9</ele>
    <time>2026-06-22T22:16:50Z</time>
   </trkpt>
   <trkpt lat="-3.0962080" lon="37.3775410">
    <ele>4780.9</ele>
    <time>2026-06-22T22:16:51Z</time>
   </trkpt>
   <trkpt lat="-3.0962040" lon="37.3775440">
    <ele>4781.0</ele>
    <time>2026-06-22T22:16:52Z</time>
   </trkpt>
   <trkpt lat="-3.0962060" lon="37.3775480">
    <ele>4781.1</ele>
    <time>2026-06-22T22:16:53Z</time>
   </trkpt>
   <trkpt lat="-3.0962020" lon="37.3775520">
    <ele>4781.3</ele>
    <time>2026-06-22T22:16:54Z</time>
   </trkpt>
   <trkpt lat="-3.0962000" lon="37.3775560">
    <ele>4781.4</ele>
    <time>2026-06-22T22:16:55Z</time>
   </trkpt>
   <trkpt lat="-3.0961990" lon="37.3775550">
    <ele>4781.4</ele>
    <time>2026-06-22T22:16:56Z</time>
   </trkpt>
   <trkpt lat="-3.0961980" lon="37.3775560">
    <ele>4781.4</ele>
    <time>2026-06-22T22:16:57Z</time>
   </trkpt>
   <trkpt lat="-3.0961960" lon="37.3775610">
    <ele>4781.6</ele>
    <time>2026-06-22T22:16:58Z</time>
   </trkpt>
   <trkpt lat="-3.0961940" lon="37.3775620">
    <ele>4781.6</ele>
    <time>2026-06-22T22:16:59Z</time>
   </trkpt>
   <trkpt lat="-3.0961910" lon="37.3775650">
    <ele>4781.7</ele>
    <time>2026-06-22T22:17:00Z</time>
   </trkpt>
   <trkpt lat="-3.0961900" lon="37.3775660">
    <ele>4781.8</ele>
    <time>2026-06-22T22:17:01Z</time>
   </trkpt>
   <trkpt lat="-3.0961890" lon="37.3775670">
    <ele>4781.8</ele>
    <time>2026-06-22T22:17:02Z</time>
   </trkpt>
   <trkpt lat="-3.0961870" lon="37.3775660">
    <ele>4781.8</ele>
    <time>2026-06-22T22:17:03Z</time>
   </trkpt>
   <trkpt lat="-3.0961860" lon="37.3775650">
    <ele>4781.9</ele>
    <time>2026-06-22T22:17:04Z</time>
   </trkpt>
   <trkpt lat="-3.0961820" lon="37.3775640">
    <ele>4782.0</ele>
    <time>2026-06-22T22:17:05Z</time>
   </trkpt>
   <trkpt lat="-3.0961800" lon="37.3775610">
    <ele>4782.1</ele>
    <time>2026-06-22T22:17:06Z</time>
   </trkpt>
   <trkpt lat="-3.0961790" lon="37.3775620">
    <ele>4782.1</ele>
    <time>2026-06-22T22:17:07Z</time>
   </trkpt>
   <trkpt lat="-3.0961750" lon="37.3775590">
    <ele>4782.2</ele>
    <time>2026-06-22T22:17:08Z</time>
   </trkpt>
   <trkpt lat="-3.0961760" lon="37.3775590">
    <ele>4782.2</ele>
    <time>2026-06-22T22:17:09Z</time>
   </trkpt>
   <trkpt lat="-3.0961730" lon="37.3775600">
    <ele>4782.3</ele>
    <time>2026-06-22T22:17:10Z</time>
   </trkpt>
   <trkpt lat="-3.0961710" lon="37.3775610">
    <ele>4782.4</ele>
    <time>2026-06-22T22:17:11Z</time>
   </trkpt>
   <trkpt lat="-3.0961700" lon="37.3775590">
    <ele>4782.4</ele>
    <time>2026-06-22T22:17:13Z</time>
   </trkpt>
   <trkpt lat="-3.0961700" lon="37.3775580">
    <ele>4782.4</ele>
    <time>2026-06-22T22:17:14Z</time>
   </trkpt>
   <trkpt lat="-3.0961690" lon="37.3775570">
    <ele>4782.5</ele>
    <time>2026-06-22T22:17:15Z</time>
   </trkpt>
   <trkpt lat="-3.0961670" lon="37.3775590">
    <ele>4782.5</ele>
    <time>2026-06-22T22:17:16Z</time>
   </trkpt>
   <trkpt lat="-3.0961660" lon="37.3775580">
    <ele>4782.6</ele>
    <time>2026-06-22T22:17:17Z</time>
   </trkpt>
   <trkpt lat="-3.0961650" lon="37.3775600">
    <ele>4782.6</ele>
    <time>2026-06-22T22:17:18Z</time>
   </trkpt>
   <trkpt lat="-3.0961620" lon="37.3775590">
    <ele>4782.7</ele>
    <time>2026-06-22T22:17:19Z</time>
   </trkpt>
   <trkpt lat="-3.0961600" lon="37.3775570">
    <ele>4782.8</ele>
    <time>2026-06-22T22:17:20Z</time>
   </trkpt>
   <trkpt lat="-3.0961600" lon="37.3775590">
    <ele>4782.8</ele>
    <time>2026-06-22T22:17:21Z</time>
   </trkpt>
   <trkpt lat="-3.0961570" lon="37.3775570">
    <ele>4782.9</ele>
    <time>2026-06-22T22:17:22Z</time>
   </trkpt>
   <trkpt lat="-3.0961570" lon="37.3775570">
    <ele>4782.9</ele>
    <time>2026-06-22T22:17:23Z</time>
   </trkpt>
   <trkpt lat="-3.0961550" lon="37.3775560">
    <ele>4782.9</ele>
    <time>2026-06-22T22:17:24Z</time>
   </trkpt>
   <trkpt lat="-3.0961530" lon="37.3775550">
    <ele>4783.0</ele>
    <time>2026-06-22T22:17:25Z</time>
   </trkpt>
   <trkpt lat="-3.0961530" lon="37.3775570">
    <ele>4783.0</ele>
    <time>2026-06-22T22:17:26Z</time>
   </trkpt>
   <trkpt lat="-3.0961500" lon="37.3775560">
    <ele>4783.1</ele>
    <time>2026-06-22T22:17:27Z</time>
   </trkpt>
   <trkpt lat="-3.0961460" lon="37.3775560">
    <ele>4783.2</ele>
    <time>2026-06-22T22:17:28Z</time>
   </trkpt>
   <trkpt lat="-3.0961470" lon="37.3775530">
    <ele>4783.3</ele>
    <time>2026-06-22T22:17:29Z</time>
   </trkpt>
   <trkpt lat="-3.0961450" lon="37.3775520">
    <ele>4783.3</ele>
    <time>2026-06-22T22:17:30Z</time>
   </trkpt>
   <trkpt lat="-3.0961460" lon="37.3775480">
    <ele>4783.4</ele>
    <time>2026-06-22T22:17:31Z</time>
   </trkpt>
   <trkpt lat="-3.0961490" lon="37.3775450">
    <ele>4783.5</ele>
    <time>2026-06-22T22:17:32Z</time>
   </trkpt>
   <trkpt lat="-3.0961500" lon="37.3775430">
    <ele>4783.6</ele>
    <time>2026-06-22T22:17:33Z</time>
   </trkpt>
   <trkpt lat="-3.0961520" lon="37.3775400">
    <ele>4783.6</ele>
    <time>2026-06-22T22:17:34Z</time>
   </trkpt>
   <trkpt lat="-3.0961510" lon="37.3775370">
    <ele>4783.7</ele>
    <time>2026-06-22T22:17:35Z</time>
   </trkpt>
   <trkpt lat="-3.0961530" lon="37.3775350">
    <ele>4783.8</ele>
    <time>2026-06-22T22:17:36Z</time>
   </trkpt>
   <trkpt lat="-3.0961530" lon="37.3775330">
    <ele>4783.8</ele>
    <time>2026-06-22T22:17:37Z</time>
   </trkpt>
   <trkpt lat="-3.0961530" lon="37.3775310">
    <ele>4783.9</ele>
    <time>2026-06-22T22:17:38Z</time>
   </trkpt>
   <trkpt lat="-3.0961540" lon="37.3775280">
    <ele>4783.9</ele>
    <time>2026-06-22T22:17:39Z</time>
   </trkpt>
   <trkpt lat="-3.0961560" lon="37.3775270">
    <ele>4784.0</ele>
    <time>2026-06-22T22:17:40Z</time>
   </trkpt>
   <trkpt lat="-3.0961580" lon="37.3775250">
    <ele>4784.1</ele>
    <time>2026-06-22T22:17:41Z</time>
   </trkpt>
   <trkpt lat="-3.0961580" lon="37.3775230">
    <ele>4784.1</ele>
    <time>2026-06-22T22:17:42Z</time>
   </trkpt>
   <trkpt lat="-3.0961600" lon="37.3775210">
    <ele>4784.2</ele>
    <time>2026-06-22T22:17:43Z</time>
   </trkpt>
   <trkpt lat="-3.0961600" lon="37.3775190">
    <ele>4784.2</ele>
    <time>2026-06-22T22:17:44Z</time>
   </trkpt>
   <trkpt lat="-3.0961590" lon="37.3775170">
    <ele>4784.3</ele>
    <time>2026-06-22T22:17:45Z</time>
   </trkpt>
   <trkpt lat="-3.0961570" lon="37.3775190">
    <ele>4784.3</ele>
    <time>2026-06-22T22:17:46Z</time>
   </trkpt>
   <trkpt lat="-3.0961590" lon="37.3775160">
    <ele>4784.4</ele>
    <time>2026-06-22T22:17:47Z</time>
   </trkpt>
   <trkpt lat="-3.0961560" lon="37.3775160">
    <ele>4784.5</ele>
    <time>2026-06-22T22:17:48Z</time>
   </trkpt>
   <trkpt lat="-3.0961580" lon="37.3775130">
    <ele>4784.6</ele>
    <time>2026-06-22T22:17:49Z</time>
   </trkpt>
   <trkpt lat="-3.0961570" lon="37.3775100">
    <ele>4784.6</ele>
    <time>2026-06-22T22:17:50Z</time>
   </trkpt>
   <trkpt lat="-3.0961580" lon="37.3775080">
    <ele>4784.7</ele>
    <time>2026-06-22T22:17:51Z</time>
   </trkpt>
   <trkpt lat="-3.0961550" lon="37.3775060">
    <ele>4784.8</ele>
    <time>2026-06-22T22:17:52Z</time>
   </trkpt>
   <trkpt lat="-3.0961500" lon="37.3775040">
    <ele>4784.9</ele>
    <time>2026-06-22T22:17:53Z</time>
   </trkpt>
   <trkpt lat="-3.0961490" lon="37.3775010">
    <ele>4785.0</ele>
    <time>2026-06-22T22:17:54Z</time>
   </trkpt>
   <trkpt lat="-3.0961490" lon="37.3774990">
    <ele>4785.0</ele>
    <time>2026-06-22T22:17:55Z</time>
   </trkpt>
   <trkpt lat="-3.0961500" lon="37.3774990">
    <ele>4785.0</ele>
    <time>2026-06-22T22:17:56Z</time>
   </trkpt>
   <trkpt lat="-3.0961480" lon="37.3774930">
    <ele>4785.2</ele>
    <time>2026-06-22T22:17:57Z</time>
   </trkpt>
   <trkpt lat="-3.0961450" lon="37.3774890">
    <ele>4785.3</ele>
    <time>2026-06-22T22:17:58Z</time>
   </trkpt>
   <trkpt lat="-3.0961470" lon="37.3774890">
    <ele>4785.3</ele>
    <time>2026-06-22T22:17:59Z</time>
   </trkpt>
   <trkpt lat="-3.0961450" lon="37.3774880">
    <ele>4785.4</ele>
    <time>2026-06-22T22:18:00Z</time>
   </trkpt>
   <trkpt lat="-3.0961440" lon="37.3774820">
    <ele>4785.5</ele>
    <time>2026-06-22T22:18:01Z</time>
   </trkpt>
   <trkpt lat="-3.0961420" lon="37.3774800">
    <ele>4785.6</ele>
    <time>2026-06-22T22:18:02Z</time>
   </trkpt>
   <trkpt lat="-3.0961420" lon="37.3774750">
    <ele>4785.7</ele>
    <time>2026-06-22T22:18:03Z</time>
   </trkpt>
   <trkpt lat="-3.0961450" lon="37.3774760">
    <ele>4785.7</ele>
    <time>2026-06-22T22:18:04Z</time>
   </trkpt>
   <trkpt lat="-3.0961470" lon="37.3774790">
    <ele>4785.8</ele>
    <time>2026-06-22T22:18:05Z</time>
   </trkpt>
   <trkpt lat="-3.0961490" lon="37.3774810">
    <ele>4785.9</ele>
    <time>2026-06-22T22:18:06Z</time>
   </trkpt>
   <trkpt lat="-3.0961440" lon="37.3774870">
    <ele>4786.1</ele>
    <time>2026-06-22T22:18:07Z</time>
   </trkpt>
   <trkpt lat="-3.0961380" lon="37.3774920">
    <ele>4786.2</ele>
    <time>2026-06-22T22:18:08Z</time>
   </trkpt>
   <trkpt lat="-3.0961340" lon="37.3774890">
    <ele>4786.3</ele>
    <time>2026-06-22T22:18:09Z</time>
   </trkpt>
   <trkpt lat="-3.0961310" lon="37.3774820">
    <ele>4786.5</ele>
    <time>2026-06-22T22:18:10Z</time>
   </trkpt>
   <trkpt lat="-3.0961280" lon="37.3774740">
    <ele>4786.7</ele>
    <time>2026-06-22T22:18:11Z</time>
   </trkpt>
   <trkpt lat="-3.0961280" lon="37.3774740">
    <ele>4786.7</ele>
    <time>2026-06-22T22:18:12Z</time>
   </trkpt>
   <trkpt lat="-3.0961240" lon="37.3774680">
    <ele>4786.9</ele>
    <time>2026-06-22T22:18:13Z</time>
   </trkpt>
   <trkpt lat="-3.0961220" lon="37.3774640">
    <ele>4787.0</ele>
    <time>2026-06-22T22:18:14Z</time>
   </trkpt>
   <trkpt lat="-3.0961200" lon="37.3774600">
    <ele>4787.0</ele>
    <time>2026-06-22T22:18:15Z</time>
   </trkpt>
   <trkpt lat="-3.0961170" lon="37.3774590">
    <ele>4787.1</ele>
    <time>2026-06-22T22:18:16Z</time>
   </trkpt>
   <trkpt lat="-3.0961130" lon="37.3774580">
    <ele>4787.2</ele>
    <time>2026-06-22T22:18:17Z</time>
   </trkpt>
   <trkpt lat="-3.0961110" lon="37.3774590">
    <ele>4787.3</ele>
    <time>2026-06-22T22:18:18Z</time>
   </trkpt>
   <trkpt lat="-3.0961070" lon="37.3774610">
    <ele>4787.4</ele>
    <time>2026-06-22T22:18:19Z</time>
   </trkpt>
   <trkpt lat="-3.0961100" lon="37.3774650">
    <ele>4787.5</ele>
    <time>2026-06-22T22:18:20Z</time>
   </trkpt>
   <trkpt lat="-3.0961070" lon="37.3774670">
    <ele>4787.5</ele>
    <time>2026-06-22T22:18:21Z</time>
   </trkpt>
   <trkpt lat="-3.0961060" lon="37.3774670">
    <ele>4787.6</ele>
    <time>2026-06-22T22:18:22Z</time>
   </trkpt>
   <trkpt lat="-3.0961020" lon="37.3774700">
    <ele>4787.7</ele>
    <time>2026-06-22T22:18:23Z</time>
   </trkpt>
   <trkpt lat="-3.0961010" lon="37.3774720">
    <ele>4787.7</ele>
    <time>2026-06-22T22:18:24Z</time>
   </trkpt>
   <trkpt lat="-3.0961010" lon="37.3774740">
    <ele>4787.8</ele>
    <time>2026-06-22T22:18:25Z</time>
   </trkpt>
   <trkpt lat="-3.0961010" lon="37.3774770">
    <ele>4787.8</ele>
    <time>2026-06-22T22:18:26Z</time>
   </trkpt>
   <trkpt lat="-3.0960990" lon="37.3774790">
    <ele>4787.9</ele>
    <time>2026-06-22T22:18:27Z</time>
   </trkpt>
   <trkpt lat="-3.0961000" lon="37.3774820">
    <ele>4788.0</ele>
    <time>2026-06-22T22:18:28Z</time>
   </trkpt>
   <trkpt lat="-3.0960950" lon="37.3774810">
    <ele>4788.1</ele>
    <time>2026-06-22T22:18:29Z</time>
   </trkpt>
   <trkpt lat="-3.0960930" lon="37.3774860">
    <ele>4788.2</ele>
    <time>2026-06-22T22:18:30Z</time>
   </trkpt>
   <trkpt lat="-3.0960930" lon="37.3774860">
    <ele>4788.2</ele>
    <time>2026-06-22T22:18:31Z</time>
   </trkpt>
   <trkpt lat="-3.0960860" lon="37.3774850">
    <ele>4788.3</ele>
    <time>2026-06-22T22:18:32Z</time>
   </trkpt>
   <trkpt lat="-3.0960870" lon="37.3774870">
    <ele>4788.4</ele>
    <time>2026-06-22T22:18:33Z</time>
   </trkpt>
   <trkpt lat="-3.0960860" lon="37.3774860">
    <ele>4788.4</ele>
    <time>2026-06-22T22:18:34Z</time>
   </trkpt>
   <trkpt lat="-3.0960830" lon="37.3774840">
    <ele>4788.5</ele>
    <time>2026-06-22T22:18:35Z</time>
   </trkpt>
   <trkpt lat="-3.0960780" lon="37.3774830">
    <ele>4788.6</ele>
    <time>2026-06-22T22:18:36Z</time>
   </trkpt>
   <trkpt lat="-3.0960760" lon="37.3774820">
    <ele>4788.6</ele>
    <time>2026-06-22T22:18:37Z</time>
   </trkpt>
   <trkpt lat="-3.0960770" lon="37.3774790">
    <ele>4788.7</ele>
    <time>2026-06-22T22:18:38Z</time>
   </trkpt>
   <trkpt lat="-3.0960710" lon="37.3774740">
    <ele>4788.8</ele>
    <time>2026-06-22T22:18:39Z</time>
   </trkpt>
   <trkpt lat="-3.0960750" lon="37.3774720">
    <ele>4788.9</ele>
    <time>2026-06-22T22:18:40Z</time>
   </trkpt>
   <trkpt lat="-3.0960760" lon="37.3774690">
    <ele>4789.0</ele>
    <time>2026-06-22T22:18:41Z</time>
   </trkpt>
   <trkpt lat="-3.0960750" lon="37.3774670">
    <ele>4789.0</ele>
    <time>2026-06-22T22:18:42Z</time>
   </trkpt>
   <trkpt lat="-3.0960770" lon="37.3774630">
    <ele>4789.1</ele>
    <time>2026-06-22T22:18:43Z</time>
   </trkpt>
   <trkpt lat="-3.0960750" lon="37.3774600">
    <ele>4789.2</ele>
    <time>2026-06-22T22:18:44Z</time>
   </trkpt>
   <trkpt lat="-3.0960760" lon="37.3774590">
    <ele>4789.2</ele>
    <time>2026-06-22T22:18:45Z</time>
   </trkpt>
   <trkpt lat="-3.0960770" lon="37.3774550">
    <ele>4789.3</ele>
    <time>2026-06-22T22:18:46Z</time>
   </trkpt>
   <trkpt lat="-3.0960780" lon="37.3774540">
    <ele>4789.3</ele>
    <time>2026-06-22T22:18:47Z</time>
   </trkpt>
   <trkpt lat="-3.0960790" lon="37.3774530">
    <ele>4789.4</ele>
    <time>2026-06-22T22:18:48Z</time>
   </trkpt>
   <trkpt lat="-3.0960790" lon="37.3774510">
    <ele>4789.4</ele>
    <time>2026-06-22T22:18:49Z</time>
   </trkpt>
   <trkpt lat="-3.0960790" lon="37.3774480">
    <ele>4789.5</ele>
    <time>2026-06-22T22:18:50Z</time>
   </trkpt>
   <trkpt lat="-3.0960770" lon="37.3774480">
    <ele>4789.5</ele>
    <time>2026-06-22T22:18:51Z</time>
   </trkpt>
   <trkpt lat="-3.0960750" lon="37.3774480">
    <ele>4789.6</ele>
    <time>2026-06-22T22:18:52Z</time>
   </trkpt>
   <trkpt lat="-3.0960700" lon="37.3774460">
    <ele>4789.7</ele>
    <time>2026-06-22T22:18:53Z</time>
   </trkpt>
   <trkpt lat="-3.0960700" lon="37.3774470">
    <ele>4789.7</ele>
    <time>2026-06-22T22:18:54Z</time>
   </trkpt>
   <trkpt lat="-3.0960700" lon="37.3774500">
    <ele>4789.7</ele>
    <time>2026-06-22T22:18:55Z</time>
   </trkpt>
   <trkpt lat="-3.0960660" lon="37.3774520">
    <ele>4789.8</ele>
    <time>2026-06-22T22:18:56Z</time>
   </trkpt>
   <trkpt lat="-3.0960630" lon="37.3774560">
    <ele>4789.9</ele>
    <time>2026-06-22T22:18:57Z</time>
   </trkpt>
   <trkpt lat="-3.0960610" lon="37.3774580">
    <ele>4790.0</ele>
    <time>2026-06-22T22:18:58Z</time>
   </trkpt>
   <trkpt lat="-3.0960600" lon="37.3774600">
    <ele>4790.0</ele>
    <time>2026-06-22T22:18:59Z</time>
   </trkpt>
   <trkpt lat="-3.0960600" lon="37.3774620">
    <ele>4790.1</ele>
    <time>2026-06-22T22:19:00Z</time>
   </trkpt>
   <trkpt lat="-3.0960600" lon="37.3774660">
    <ele>4790.2</ele>
    <time>2026-06-22T22:19:01Z</time>
   </trkpt>
   <trkpt lat="-3.0960590" lon="37.3774700">
    <ele>4790.2</ele>
    <time>2026-06-22T22:19:02Z</time>
   </trkpt>
   <trkpt lat="-3.0960580" lon="37.3774730">
    <ele>4790.3</ele>
    <time>2026-06-22T22:19:03Z</time>
   </trkpt>
   <trkpt lat="-3.0960560" lon="37.3774750">
    <ele>4790.4</ele>
    <time>2026-06-22T22:19:04Z</time>
   </trkpt>
   <trkpt lat="-3.0960550" lon="37.3774790">
    <ele>4790.4</ele>
    <time>2026-06-22T22:19:05Z</time>
   </trkpt>
   <trkpt lat="-3.0960550" lon="37.3774800">
    <ele>4790.5</ele>
    <time>2026-06-22T22:19:06Z</time>
   </trkpt>
   <trkpt lat="-3.0960520" lon="37.3774810">
    <ele>4790.5</ele>
    <time>2026-06-22T22:19:07Z</time>
   </trkpt>
   <trkpt lat="-3.0960470" lon="37.3774820">
    <ele>4790.6</ele>
    <time>2026-06-22T22:19:08Z</time>
   </trkpt>
   <trkpt lat="-3.0960460" lon="37.3774820">
    <ele>4790.7</ele>
    <time>2026-06-22T22:19:09Z</time>
   </trkpt>
   <trkpt lat="-3.0960430" lon="37.3774810">
    <ele>4790.7</ele>
    <time>2026-06-22T22:19:10Z</time>
   </trkpt>
   <trkpt lat="-3.0960420" lon="37.3774790">
    <ele>4790.8</ele>
    <time>2026-06-22T22:19:11Z</time>
   </trkpt>
   <trkpt lat="-3.0960410" lon="37.3774750">
    <ele>4790.8</ele>
    <time>2026-06-22T22:19:12Z</time>
   </trkpt>
   <trkpt lat="-3.0960410" lon="37.3774690">
    <ele>4790.9</ele>
    <time>2026-06-22T22:19:13Z</time>
   </trkpt>
   <trkpt lat="-3.0960410" lon="37.3774700">
    <ele>4791.0</ele>
    <time>2026-06-22T22:19:14Z</time>
   </trkpt>
   <trkpt lat="-3.0960410" lon="37.3774670">
    <ele>4791.0</ele>
    <time>2026-06-22T22:19:15Z</time>
   </trkpt>
   <trkpt lat="-3.0960420" lon="37.3774620">
    <ele>4791.1</ele>
    <time>2026-06-22T22:19:16Z</time>
   </trkpt>
   <trkpt lat="-3.0960460" lon="37.3774610">
    <ele>4791.2</ele>
    <time>2026-06-22T22:19:17Z</time>
   </trkpt>
   <trkpt lat="-3.0960490" lon="37.3774610">
    <ele>4791.3</ele>
    <time>2026-06-22T22:19:19Z</time>
   </trkpt>
   <trkpt lat="-3.0960500" lon="37.3774560">
    <ele>4791.3</ele>
    <time>2026-06-22T22:19:20Z</time>
   </trkpt>
   <trkpt lat="-3.0960510" lon="37.3774550">
    <ele>4791.4</ele>
    <time>2026-06-22T22:19:21Z</time>
   </trkpt>
   <trkpt lat="-3.0960500" lon="37.3774540">
    <ele>4791.4</ele>
    <time>2026-06-22T22:19:22Z</time>
   </trkpt>
   <trkpt lat="-3.0960500" lon="37.3774500">
    <ele>4791.5</ele>
    <time>2026-06-22T22:19:23Z</time>
   </trkpt>
   <trkpt lat="-3.0960490" lon="37.3774480">
    <ele>4791.5</ele>
    <time>2026-06-22T22:19:24Z</time>
   </trkpt>
   <trkpt lat="-3.0960470" lon="37.3774460">
    <ele>4791.6</ele>
    <time>2026-06-22T22:19:25Z</time>
   </trkpt>
   <trkpt lat="-3.0960430" lon="37.3774450">
    <ele>4791.6</ele>
    <time>2026-06-22T22:19:26Z</time>
   </trkpt>
   <trkpt lat="-3.0960410" lon="37.3774450">
    <ele>4791.7</ele>
    <time>2026-06-22T22:19:27Z</time>
   </trkpt>
   <trkpt lat="-3.0960370" lon="37.3774470">
    <ele>4791.8</ele>
    <time>2026-06-22T22:19:28Z</time>
   </trkpt>
   <trkpt lat="-3.0960340" lon="37.3774450">
    <ele>4791.8</ele>
    <time>2026-06-22T22:19:29Z</time>
   </trkpt>
   <trkpt lat="-3.0960330" lon="37.3774460">
    <ele>4791.9</ele>
    <time>2026-06-22T22:19:30Z</time>
   </trkpt>
   <trkpt lat="-3.0960320" lon="37.3774430">
    <ele>4791.9</ele>
    <time>2026-06-22T22:19:31Z</time>
   </trkpt>
   <trkpt lat="-3.0960310" lon="37.3774430">
    <ele>4791.9</ele>
    <time>2026-06-22T22:19:32Z</time>
   </trkpt>
   <trkpt lat="-3.0960300" lon="37.3774400">
    <ele>4792.0</ele>
    <time>2026-06-22T22:19:33Z</time>
   </trkpt>
   <trkpt lat="-3.0960290" lon="37.3774390">
    <ele>4792.0</ele>
    <time>2026-06-22T22:19:34Z</time>
   </trkpt>
   <trkpt lat="-3.0960270" lon="37.3774360">
    <ele>4792.1</ele>
    <time>2026-06-22T22:19:35Z</time>
   </trkpt>
   <trkpt lat="-3.0960250" lon="37.3774350">
    <ele>4792.1</ele>
    <time>2026-06-22T22:19:36Z</time>
   </trkpt>
   <trkpt lat="-3.0960240" lon="37.3774330">
    <ele>4792.2</ele>
    <time>2026-06-22T22:19:37Z</time>
   </trkpt>
   <trkpt lat="-3.0960220" lon="37.3774300">
    <ele>4792.2</ele>
    <time>2026-06-22T22:19:38Z</time>
   </trkpt>
   <trkpt lat="-3.0960210" lon="37.3774310">
    <ele>4792.3</ele>
    <time>2026-06-22T22:19:39Z</time>
   </trkpt>
   <trkpt lat="-3.0960200" lon="37.3774270">
    <ele>4792.3</ele>
    <time>2026-06-22T22:19:40Z</time>
   </trkpt>
   <trkpt lat="-3.0960190" lon="37.3774240">
    <ele>4792.4</ele>
    <time>2026-06-22T22:19:41Z</time>
   </trkpt>
   <trkpt lat="-3.0960160" lon="37.3774210">
    <ele>4792.5</ele>
    <time>2026-06-22T22:19:42Z</time>
   </trkpt>
   <trkpt lat="-3.0960170" lon="37.3774170">
    <ele>4792.6</ele>
    <time>2026-06-22T22:19:43Z</time>
   </trkpt>
   <trkpt lat="-3.0960150" lon="37.3774140">
    <ele>4792.6</ele>
    <time>2026-06-22T22:19:44Z</time>
   </trkpt>
   <trkpt lat="-3.0960160" lon="37.3774150">
    <ele>4792.7</ele>
    <time>2026-06-22T22:19:45Z</time>
   </trkpt>
   <trkpt lat="-3.0960150" lon="37.3774150">
    <ele>4792.7</ele>
    <time>2026-06-22T22:19:46Z</time>
   </trkpt>
   <trkpt lat="-3.0960140" lon="37.3774150">
    <ele>4792.7</ele>
    <time>2026-06-22T22:19:47Z</time>
   </trkpt>
   <trkpt lat="-3.0960140" lon="37.3774150">
    <ele>4792.7</ele>
    <time>2026-06-22T22:19:48Z</time>
   </trkpt>
   <trkpt lat="-3.0960120" lon="37.3774140">
    <ele>4792.7</ele>
    <time>2026-06-22T22:19:49Z</time>
   </trkpt>
   <trkpt lat="-3.0960080" lon="37.3774140">
    <ele>4792.8</ele>
    <time>2026-06-22T22:19:50Z</time>
   </trkpt>
   <trkpt lat="-3.0960050" lon="37.3774140">
    <ele>4792.9</ele>
    <time>2026-06-22T22:19:51Z</time>
   </trkpt>
   <trkpt lat="-3.0960020" lon="37.3774170">
    <ele>4793.0</ele>
    <time>2026-06-22T22:19:52Z</time>
   </trkpt>
   <trkpt lat="-3.0959980" lon="37.3774200">
    <ele>4793.0</ele>
    <time>2026-06-22T22:19:53Z</time>
   </trkpt>
   <trkpt lat="-3.0959970" lon="37.3774250">
    <ele>4793.1</ele>
    <time>2026-06-22T22:19:54Z</time>
   </trkpt>
   <trkpt lat="-3.0959970" lon="37.3774280">
    <ele>4793.2</ele>
    <time>2026-06-22T22:19:55Z</time>
   </trkpt>
   <trkpt lat="-3.0959940" lon="37.3774320">
    <ele>4793.3</ele>
    <time>2026-06-22T22:19:56Z</time>
   </trkpt>
   <trkpt lat="-3.0959940" lon="37.3774340">
    <ele>4793.3</ele>
    <time>2026-06-22T22:19:57Z</time>
   </trkpt>
   <trkpt lat="-3.0959920" lon="37.3774380">
    <ele>4793.4</ele>
    <time>2026-06-22T22:19:58Z</time>
   </trkpt>
   <trkpt lat="-3.0959900" lon="37.3774410">
    <ele>4793.5</ele>
    <time>2026-06-22T22:19:59Z</time>
   </trkpt>
   <trkpt lat="-3.0959870" lon="37.3774410">
    <ele>4793.5</ele>
    <time>2026-06-22T22:20:00Z</time>
   </trkpt>
   <trkpt lat="-3.0959820" lon="37.3774400">
    <ele>4793.6</ele>
    <time>2026-06-22T22:20:01Z</time>
   </trkpt>
   <trkpt lat="-3.0959800" lon="37.3774420">
    <ele>4793.7</ele>
    <time>2026-06-22T22:20:02Z</time>
   </trkpt>
   <trkpt lat="-3.0959780" lon="37.3774430">
    <ele>4793.7</ele>
    <time>2026-06-22T22:20:03Z</time>
   </trkpt>
   <trkpt lat="-3.0959770" lon="37.3774440">
    <ele>4793.7</ele>
    <time>2026-06-22T22:20:04Z</time>
   </trkpt>
   <trkpt lat="-3.0959720" lon="37.3774440">
    <ele>4793.8</ele>
    <time>2026-06-22T22:20:05Z</time>
   </trkpt>
   <trkpt lat="-3.0959700" lon="37.3774440">
    <ele>4793.8</ele>
    <time>2026-06-22T22:20:06Z</time>
   </trkpt>
   <trkpt lat="-3.0959690" lon="37.3774440">
    <ele>4793.9</ele>
    <time>2026-06-22T22:20:07Z</time>
   </trkpt>
   <trkpt lat="-3.0959660" lon="37.3774430">
    <ele>4793.9</ele>
    <time>2026-06-22T22:20:08Z</time>
   </trkpt>
   <trkpt lat="-3.0959620" lon="37.3774410">
    <ele>4794.0</ele>
    <time>2026-06-22T22:20:09Z</time>
   </trkpt>
   <trkpt lat="-3.0959610" lon="37.3774410">
    <ele>4794.0</ele>
    <time>2026-06-22T22:20:10Z</time>
   </trkpt>
   <trkpt lat="-3.0959600" lon="37.3774410">
    <ele>4794.0</ele>
    <time>2026-06-22T22:20:11Z</time>
   </trkpt>
   <trkpt lat="-3.0959560" lon="37.3774390">
    <ele>4794.1</ele>
    <time>2026-06-22T22:20:12Z</time>
   </trkpt>
   <trkpt lat="-3.0959540" lon="37.3774400">
    <ele>4794.2</ele>
    <time>2026-06-22T22:20:13Z</time>
   </trkpt>
   <trkpt lat="-3.0959540" lon="37.3774390">
    <ele>4794.2</ele>
    <time>2026-06-22T22:20:14Z</time>
   </trkpt>
   <trkpt lat="-3.0959530" lon="37.3774350">
    <ele>4794.2</ele>
    <time>2026-06-22T22:20:15Z</time>
   </trkpt>
   <trkpt lat="-3.0959530" lon="37.3774320">
    <ele>4794.3</ele>
    <time>2026-06-22T22:20:16Z</time>
   </trkpt>
   <trkpt lat="-3.0959520" lon="37.3774330">
    <ele>4794.3</ele>
    <time>2026-06-22T22:20:17Z</time>
   </trkpt>
   <trkpt lat="-3.0959540" lon="37.3774280">
    <ele>4794.4</ele>
    <time>2026-06-22T22:20:18Z</time>
   </trkpt>
   <trkpt lat="-3.0959540" lon="37.3774270">
    <ele>4794.4</ele>
    <time>2026-06-22T22:20:19Z</time>
   </trkpt>
   <trkpt lat="-3.0959520" lon="37.3774230">
    <ele>4794.5</ele>
    <time>2026-06-22T22:20:20Z</time>
   </trkpt>
   <trkpt lat="-3.0959520" lon="37.3774210">
    <ele>4794.5</ele>
    <time>2026-06-22T22:20:21Z</time>
   </trkpt>
   <trkpt lat="-3.0959510" lon="37.3774190">
    <ele>4794.6</ele>
    <time>2026-06-22T22:20:22Z</time>
   </trkpt>
   <trkpt lat="-3.0959490" lon="37.3774210">
    <ele>4794.6</ele>
    <time>2026-06-22T22:20:23Z</time>
   </trkpt>
   <trkpt lat="-3.0959470" lon="37.3774190">
    <ele>4794.7</ele>
    <time>2026-06-22T22:20:24Z</time>
   </trkpt>
   <trkpt lat="-3.0959440" lon="37.3774190">
    <ele>4794.7</ele>
    <time>2026-06-22T22:20:25Z</time>
   </trkpt>
   <trkpt lat="-3.0959430" lon="37.3774200">
    <ele>4794.8</ele>
    <time>2026-06-22T22:20:26Z</time>
   </trkpt>
   <trkpt lat="-3.0959390" lon="37.3774180">
    <ele>4794.8</ele>
    <time>2026-06-22T22:20:27Z</time>
   </trkpt>
   <trkpt lat="-3.0959360" lon="37.3774180">
    <ele>4794.9</ele>
    <time>2026-06-22T22:20:28Z</time>
   </trkpt>
   <trkpt lat="-3.0959320" lon="37.3774160">
    <ele>4795.0</ele>
    <time>2026-06-22T22:20:29Z</time>
   </trkpt>
   <trkpt lat="-3.0959300" lon="37.3774140">
    <ele>4795.0</ele>
    <time>2026-06-22T22:20:30Z</time>
   </trkpt>
   <trkpt lat="-3.0959300" lon="37.3774140">
    <ele>4795.0</ele>
    <time>2026-06-22T22:20:31Z</time>
   </trkpt>
   <trkpt lat="-3.0959250" lon="37.3774080">
    <ele>4795.1</ele>
    <time>2026-06-22T22:20:32Z</time>
   </trkpt>
   <trkpt lat="-3.0959220" lon="37.3774090">
    <ele>4795.2</ele>
    <time>2026-06-22T22:20:33Z</time>
   </trkpt>
   <trkpt lat="-3.0959200" lon="37.3774060">
    <ele>4795.2</ele>
    <time>2026-06-22T22:20:34Z</time>
   </trkpt>
   <trkpt lat="-3.0959190" lon="37.3774000">
    <ele>4795.4</ele>
    <time>2026-06-22T22:20:35Z</time>
   </trkpt>
   <trkpt lat="-3.0959200" lon="37.3774010">
    <ele>4795.4</ele>
    <time>2026-06-22T22:20:36Z</time>
   </trkpt>
   <trkpt lat="-3.0959190" lon="37.3773990">
    <ele>4795.4</ele>
    <time>2026-06-22T22:20:37Z</time>
   </trkpt>
   <trkpt lat="-3.0959200" lon="37.3773960">
    <ele>4795.5</ele>
    <time>2026-06-22T22:20:38Z</time>
   </trkpt>
   <trkpt lat="-3.0959210" lon="37.3773940">
    <ele>4795.5</ele>
    <time>2026-06-22T22:20:39Z</time>
   </trkpt>
   <trkpt lat="-3.0959190" lon="37.3773920">
    <ele>4795.6</ele>
    <time>2026-06-22T22:20:40Z</time>
   </trkpt>
   <trkpt lat="-3.0959180" lon="37.3773930">
    <ele>4795.6</ele>
    <time>2026-06-22T22:20:41Z</time>
   </trkpt>
   <trkpt lat="-3.0959180" lon="37.3773940">
    <ele>4795.6</ele>
    <time>2026-06-22T22:20:42Z</time>
   </trkpt>
   <trkpt lat="-3.0959170" lon="37.3773910">
    <ele>4795.6</ele>
    <time>2026-06-22T22:20:43Z</time>
   </trkpt>
   <trkpt lat="-3.0959130" lon="37.3773910">
    <ele>4795.7</ele>
    <time>2026-06-22T22:20:44Z</time>
   </trkpt>
   <trkpt lat="-3.0959130" lon="37.3773900">
    <ele>4795.7</ele>
    <time>2026-06-22T22:20:45Z</time>
   </trkpt>
   <trkpt lat="-3.0959100" lon="37.3773890">
    <ele>4795.8</ele>
    <time>2026-06-22T22:20:46Z</time>
   </trkpt>
   <trkpt lat="-3.0959080" lon="37.3773890">
    <ele>4795.8</ele>
    <time>2026-06-22T22:20:47Z</time>
   </trkpt>
   <trkpt lat="-3.0959050" lon="37.3773920">
    <ele>4795.9</ele>
    <time>2026-06-22T22:20:48Z</time>
   </trkpt>
   <trkpt lat="-3.0959020" lon="37.3773920">
    <ele>4795.9</ele>
    <time>2026-06-22T22:20:49Z</time>
   </trkpt>
   <trkpt lat="-3.0958990" lon="37.3773950">
    <ele>4796.0</ele>
    <time>2026-06-22T22:20:50Z</time>
   </trkpt>
   <trkpt lat="-3.0958930" lon="37.3773920">
    <ele>4796.1</ele>
    <time>2026-06-22T22:20:51Z</time>
   </trkpt>
   <trkpt lat="-3.0958910" lon="37.3773900">
    <ele>4796.2</ele>
    <time>2026-06-22T22:20:52Z</time>
   </trkpt>
   <trkpt lat="-3.0958880" lon="37.3773870">
    <ele>4796.2</ele>
    <time>2026-06-22T22:20:53Z</time>
   </trkpt>
   <trkpt lat="-3.0958870" lon="37.3773850">
    <ele>4796.3</ele>
    <time>2026-06-22T22:20:54Z</time>
   </trkpt>
   <trkpt lat="-3.0958840" lon="37.3773810">
    <ele>4796.4</ele>
    <time>2026-06-22T22:20:55Z</time>
   </trkpt>
   <trkpt lat="-3.0958820" lon="37.3773800">
    <ele>4796.4</ele>
    <time>2026-06-22T22:20:56Z</time>
   </trkpt>
   <trkpt lat="-3.0958810" lon="37.3773810">
    <ele>4796.4</ele>
    <time>2026-06-22T22:20:57Z</time>
   </trkpt>
   <trkpt lat="-3.0958790" lon="37.3773800">
    <ele>4796.5</ele>
    <time>2026-06-22T22:20:58Z</time>
   </trkpt>
   <trkpt lat="-3.0958770" lon="37.3773820">
    <ele>4796.5</ele>
    <time>2026-06-22T22:20:59Z</time>
   </trkpt>
   <trkpt lat="-3.0958770" lon="37.3773820">
    <ele>4796.5</ele>
    <time>2026-06-22T22:21:00Z</time>
   </trkpt>
   <trkpt lat="-3.0958740" lon="37.3773790">
    <ele>4796.6</ele>
    <time>2026-06-22T22:21:01Z</time>
   </trkpt>
   <trkpt lat="-3.0958700" lon="37.3773770">
    <ele>4796.7</ele>
    <time>2026-06-22T22:21:02Z</time>
   </trkpt>
   <trkpt lat="-3.0958680" lon="37.3773760">
    <ele>4796.7</ele>
    <time>2026-06-22T22:21:03Z</time>
   </trkpt>
   <trkpt lat="-3.0958630" lon="37.3773780">
    <ele>4796.8</ele>
    <time>2026-06-22T22:21:04Z</time>
   </trkpt>
   <trkpt lat="-3.0958610" lon="37.3773790">
    <ele>4796.8</ele>
    <time>2026-06-22T22:21:05Z</time>
   </trkpt>
   <trkpt lat="-3.0958560" lon="37.3773770">
    <ele>4796.9</ele>
    <time>2026-06-22T22:21:06Z</time>
   </trkpt>
   <trkpt lat="-3.0958530" lon="37.3773790">
    <ele>4797.0</ele>
    <time>2026-06-22T22:21:07Z</time>
   </trkpt>
   <trkpt lat="-3.0958510" lon="37.3773800">
    <ele>4797.0</ele>
    <time>2026-06-22T22:21:08Z</time>
   </trkpt>
   <trkpt lat="-3.0958480" lon="37.3773810">
    <ele>4797.0</ele>
    <time>2026-06-22T22:21:09Z</time>
   </trkpt>
   <trkpt lat="-3.0958460" lon="37.3773810">
    <ele>4797.1</ele>
    <time>2026-06-22T22:21:10Z</time>
   </trkpt>
   <trkpt lat="-3.0958410" lon="37.3773810">
    <ele>4797.1</ele>
    <time>2026-06-22T22:21:11Z</time>
   </trkpt>
   <trkpt lat="-3.0958380" lon="37.3773800">
    <ele>4797.2</ele>
    <time>2026-06-22T22:21:12Z</time>
   </trkpt>
   <trkpt lat="-3.0958360" lon="37.3773800">
    <ele>4797.2</ele>
    <time>2026-06-22T22:21:13Z</time>
   </trkpt>
   <trkpt lat="-3.0958340" lon="37.3773770">
    <ele>4797.3</ele>
    <time>2026-06-22T22:21:14Z</time>
   </trkpt>
   <trkpt lat="-3.0958310" lon="37.3773760">
    <ele>4797.3</ele>
    <time>2026-06-22T22:21:15Z</time>
   </trkpt>
   <trkpt lat="-3.0958300" lon="37.3773700">
    <ele>4797.4</ele>
    <time>2026-06-22T22:21:16Z</time>
   </trkpt>
   <trkpt lat="-3.0958290" lon="37.3773710">
    <ele>4797.4</ele>
    <time>2026-06-22T22:21:17Z</time>
   </trkpt>
   <trkpt lat="-3.0958300" lon="37.3773670">
    <ele>4797.5</ele>
    <time>2026-06-22T22:21:18Z</time>
   </trkpt>
   <trkpt lat="-3.0958280" lon="37.3773640">
    <ele>4797.6</ele>
    <time>2026-06-22T22:21:19Z</time>
   </trkpt>
   <trkpt lat="-3.0958280" lon="37.3773600">
    <ele>4797.6</ele>
    <time>2026-06-22T22:21:20Z</time>
   </trkpt>
   <trkpt lat="-3.0958270" lon="37.3773590">
    <ele>4797.7</ele>
    <time>2026-06-22T22:21:21Z</time>
   </trkpt>
   <trkpt lat="-3.0958240" lon="37.3773560">
    <ele>4797.7</ele>
    <time>2026-06-22T22:21:22Z</time>
   </trkpt>
   <trkpt lat="-3.0958220" lon="37.3773560">
    <ele>4797.7</ele>
    <time>2026-06-22T22:21:23Z</time>
   </trkpt>
   <trkpt lat="-3.0958180" lon="37.3773540">
    <ele>4797.8</ele>
    <time>2026-06-22T22:21:25Z</time>
   </trkpt>
   <trkpt lat="-3.0958160" lon="37.3773550">
    <ele>4797.9</ele>
    <time>2026-06-22T22:21:26Z</time>
   </trkpt>
   <trkpt lat="-3.0958110" lon="37.3773580">
    <ele>4797.9</ele>
    <time>2026-06-22T22:21:27Z</time>
   </trkpt>
   <trkpt lat="-3.0958100" lon="37.3773590">
    <ele>4798.0</ele>
    <time>2026-06-22T22:21:28Z</time>
   </trkpt>
   <trkpt lat="-3.0958040" lon="37.3773590">
    <ele>4798.1</ele>
    <time>2026-06-22T22:21:29Z</time>
   </trkpt>
   <trkpt lat="-3.0958030" lon="37.3773580">
    <ele>4798.1</ele>
    <time>2026-06-22T22:21:30Z</time>
   </trkpt>
   <trkpt lat="-3.0957990" lon="37.3773600">
    <ele>4798.2</ele>
    <time>2026-06-22T22:21:31Z</time>
   </trkpt>
   <trkpt lat="-3.0957960" lon="37.3773600">
    <ele>4798.2</ele>
    <time>2026-06-22T22:21:32Z</time>
   </trkpt>
   <trkpt lat="-3.0957940" lon="37.3773620">
    <ele>4798.2</ele>
    <time>2026-06-22T22:21:33Z</time>
   </trkpt>
   <trkpt lat="-3.0957910" lon="37.3773600">
    <ele>4798.3</ele>
    <time>2026-06-22T22:21:34Z</time>
   </trkpt>
   <trkpt lat="-3.0957910" lon="37.3773600">
    <ele>4798.3</ele>
    <time>2026-06-22T22:21:35Z</time>
   </trkpt>
   <trkpt lat="-3.0957860" lon="37.3773590">
    <ele>4798.4</ele>
    <time>2026-06-22T22:21:36Z</time>
   </trkpt>
   <trkpt lat="-3.0957830" lon="37.3773580">
    <ele>4798.4</ele>
    <time>2026-06-22T22:21:37Z</time>
   </trkpt>
   <trkpt lat="-3.0957820" lon="37.3773580">
    <ele>4798.4</ele>
    <time>2026-06-22T22:21:38Z</time>
   </trkpt>
   <trkpt lat="-3.0957750" lon="37.3773560">
    <ele>4798.6</ele>
    <time>2026-06-22T22:21:39Z</time>
   </trkpt>
   <trkpt lat="-3.0957700" lon="37.3773560">
    <ele>4798.6</ele>
    <time>2026-06-22T22:21:40Z</time>
   </trkpt>
   <trkpt lat="-3.0957670" lon="37.3773570">
    <ele>4798.7</ele>
    <time>2026-06-22T22:21:41Z</time>
   </trkpt>
   <trkpt lat="-3.0957630" lon="37.3773570">
    <ele>4798.7</ele>
    <time>2026-06-22T22:21:42Z</time>
   </trkpt>
   <trkpt lat="-3.0957610" lon="37.3773590">
    <ele>4798.8</ele>
    <time>2026-06-22T22:21:43Z</time>
   </trkpt>
   <trkpt lat="-3.0957590" lon="37.3773610">
    <ele>4798.8</ele>
    <time>2026-06-22T22:21:44Z</time>
   </trkpt>
   <trkpt lat="-3.0957550" lon="37.3773590">
    <ele>4798.9</ele>
    <time>2026-06-22T22:21:45Z</time>
   </trkpt>
   <trkpt lat="-3.0957510" lon="37.3773600">
    <ele>4799.0</ele>
    <time>2026-06-22T22:21:46Z</time>
   </trkpt>
   <trkpt lat="-3.0957500" lon="37.3773620">
    <ele>4799.0</ele>
    <time>2026-06-22T22:21:47Z</time>
   </trkpt>
   <trkpt lat="-3.0957460" lon="37.3773640">
    <ele>4799.0</ele>
    <time>2026-06-22T22:21:48Z</time>
   </trkpt>
   <trkpt lat="-3.0957430" lon="37.3773630">
    <ele>4799.1</ele>
    <time>2026-06-22T22:21:49Z</time>
   </trkpt>
   <trkpt lat="-3.0957400" lon="37.3773650">
    <ele>4799.1</ele>
    <time>2026-06-22T22:21:50Z</time>
   </trkpt>
   <trkpt lat="-3.0957370" lon="37.3773650">
    <ele>4799.2</ele>
    <time>2026-06-22T22:21:51Z</time>
   </trkpt>
   <trkpt lat="-3.0957360" lon="37.3773660">
    <ele>4799.2</ele>
    <time>2026-06-22T22:21:52Z</time>
   </trkpt>
   <trkpt lat="-3.0957310" lon="37.3773620">
    <ele>4799.3</ele>
    <time>2026-06-22T22:21:53Z</time>
   </trkpt>
   <trkpt lat="-3.0957280" lon="37.3773630">
    <ele>4799.4</ele>
    <time>2026-06-22T22:21:54Z</time>
   </trkpt>
   <trkpt lat="-3.0957250" lon="37.3773590">
    <ele>4799.4</ele>
    <time>2026-06-22T22:21:55Z</time>
   </trkpt>
   <trkpt lat="-3.0957240" lon="37.3773580">
    <ele>4799.4</ele>
    <time>2026-06-22T22:21:56Z</time>
   </trkpt>
   <trkpt lat="-3.0957210" lon="37.3773570">
    <ele>4799.5</ele>
    <time>2026-06-22T22:21:57Z</time>
   </trkpt>
   <trkpt lat="-3.0957180" lon="37.3773580">
    <ele>4799.5</ele>
    <time>2026-06-22T22:21:58Z</time>
   </trkpt>
   <trkpt lat="-3.0957160" lon="37.3773590">
    <ele>4799.6</ele>
    <time>2026-06-22T22:21:59Z</time>
   </trkpt>
   <trkpt lat="-3.0957120" lon="37.3773570">
    <ele>4799.6</ele>
    <time>2026-06-22T22:22:00Z</time>
   </trkpt>
   <trkpt lat="-3.0957100" lon="37.3773580">
    <ele>4799.7</ele>
    <time>2026-06-22T22:22:01Z</time>
   </trkpt>
   <trkpt lat="-3.0957080" lon="37.3773560">
    <ele>4799.7</ele>
    <time>2026-06-22T22:22:02Z</time>
   </trkpt>
   <trkpt lat="-3.0956990" lon="37.3773540">
    <ele>4799.8</ele>
    <time>2026-06-22T22:22:03Z</time>
   </trkpt>
   <trkpt lat="-3.0956970" lon="37.3773530">
    <ele>4799.9</ele>
    <time>2026-06-22T22:22:04Z</time>
   </trkpt>
   <trkpt lat="-3.0956950" lon="37.3773520">
    <ele>4799.9</ele>
    <time>2026-06-22T22:22:05Z</time>
   </trkpt>
   <trkpt lat="-3.0956930" lon="37.3773510">
    <ele>4799.9</ele>
    <time>2026-06-22T22:22:06Z</time>
   </trkpt>
   <trkpt lat="-3.0956920" lon="37.3773500">
    <ele>4800.0</ele>
    <time>2026-06-22T22:22:07Z</time>
   </trkpt>
   <trkpt lat="-3.0956890" lon="37.3773470">
    <ele>4800.0</ele>
    <time>2026-06-22T22:22:08Z</time>
   </trkpt>
   <trkpt lat="-3.0956870" lon="37.3773460">
    <ele>4800.1</ele>
    <time>2026-06-22T22:22:09Z</time>
   </trkpt>
   <trkpt lat="-3.0956830" lon="37.3773440">
    <ele>4800.1</ele>
    <time>2026-06-22T22:22:10Z</time>
   </trkpt>
   <trkpt lat="-3.0956800" lon="37.3773430">
    <ele>4800.2</ele>
    <time>2026-06-22T22:22:11Z</time>
   </trkpt>
   <trkpt lat="-3.0956750" lon="37.3773400">
    <ele>4800.3</ele>
    <time>2026-06-22T22:22:12Z</time>
   </trkpt>
   <trkpt lat="-3.0956720" lon="37.3773410">
    <ele>4800.3</ele>
    <time>2026-06-22T22:22:13Z</time>
   </trkpt>
   <trkpt lat="-3.0956690" lon="37.3773410">
    <ele>4800.3</ele>
    <time>2026-06-22T22:22:14Z</time>
   </trkpt>
   <trkpt lat="-3.0956650" lon="37.3773430">
    <ele>4800.4</ele>
    <time>2026-06-22T22:22:15Z</time>
   </trkpt>
   <trkpt lat="-3.0956620" lon="37.3773440">
    <ele>4800.5</ele>
    <time>2026-06-22T22:22:16Z</time>
   </trkpt>
   <trkpt lat="-3.0956600" lon="37.3773460">
    <ele>4800.5</ele>
    <time>2026-06-22T22:22:17Z</time>
   </trkpt>
   <trkpt lat="-3.0956560" lon="37.3773480">
    <ele>4800.6</ele>
    <time>2026-06-22T22:22:18Z</time>
   </trkpt>
   <trkpt lat="-3.0956510" lon="37.3773470">
    <ele>4800.6</ele>
    <time>2026-06-22T22:22:19Z</time>
   </trkpt>
   <trkpt lat="-3.0956480" lon="37.3773470">
    <ele>4800.7</ele>
    <time>2026-06-22T22:22:20Z</time>
   </trkpt>
   <trkpt lat="-3.0956430" lon="37.3773460">
    <ele>4800.8</ele>
    <time>2026-06-22T22:22:21Z</time>
   </trkpt>
   <trkpt lat="-3.0956410" lon="37.3773440">
    <ele>4800.8</ele>
    <time>2026-06-22T22:22:22Z</time>
   </trkpt>
   <trkpt lat="-3.0956390" lon="37.3773410">
    <ele>4800.8</ele>
    <time>2026-06-22T22:22:23Z</time>
   </trkpt>
   <trkpt lat="-3.0956370" lon="37.3773390">
    <ele>4800.9</ele>
    <time>2026-06-22T22:22:24Z</time>
   </trkpt>
   <trkpt lat="-3.0956370" lon="37.3773350">
    <ele>4800.9</ele>
    <time>2026-06-22T22:22:25Z</time>
   </trkpt>
   <trkpt lat="-3.0956370" lon="37.3773320">
    <ele>4801.0</ele>
    <time>2026-06-22T22:22:26Z</time>
   </trkpt>
   <trkpt lat="-3.0956390" lon="37.3773280">
    <ele>4801.0</ele>
    <time>2026-06-22T22:22:27Z</time>
   </trkpt>
   <trkpt lat="-3.0956390" lon="37.3773270">
    <ele>4801.1</ele>
    <time>2026-06-22T22:22:28Z</time>
   </trkpt>
   <trkpt lat="-3.0956390" lon="37.3773250">
    <ele>4801.1</ele>
    <time>2026-06-22T22:22:29Z</time>
   </trkpt>
   <trkpt lat="-3.0956390" lon="37.3773220">
    <ele>4801.1</ele>
    <time>2026-06-22T22:22:30Z</time>
   </trkpt>
   <trkpt lat="-3.0956380" lon="37.3773200">
    <ele>4801.2</ele>
    <time>2026-06-22T22:22:31Z</time>
   </trkpt>
   <trkpt lat="-3.0956350" lon="37.3773150">
    <ele>4801.2</ele>
    <time>2026-06-22T22:22:32Z</time>
   </trkpt>
   <trkpt lat="-3.0956350" lon="37.3773140">
    <ele>4801.3</ele>
    <time>2026-06-22T22:22:33Z</time>
   </trkpt>
   <trkpt lat="-3.0956320" lon="37.3773110">
    <ele>4801.3</ele>
    <time>2026-06-22T22:22:34Z</time>
   </trkpt>
   <trkpt lat="-3.0956310" lon="37.3773100">
    <ele>4801.3</ele>
    <time>2026-06-22T22:22:35Z</time>
   </trkpt>
   <trkpt lat="-3.0956270" lon="37.3773040">
    <ele>4801.4</ele>
    <time>2026-06-22T22:22:36Z</time>
   </trkpt>
   <trkpt lat="-3.0956270" lon="37.3773000">
    <ele>4801.5</ele>
    <time>2026-06-22T22:22:37Z</time>
   </trkpt>
   <trkpt lat="-3.0956240" lon="37.3772980">
    <ele>4801.6</ele>
    <time>2026-06-22T22:22:38Z</time>
   </trkpt>
   <trkpt lat="-3.0956210" lon="37.3772950">
    <ele>4801.6</ele>
    <time>2026-06-22T22:22:39Z</time>
   </trkpt>
   <trkpt lat="-3.0956190" lon="37.3772930">
    <ele>4801.7</ele>
    <time>2026-06-22T22:22:40Z</time>
   </trkpt>
   <trkpt lat="-3.0956150" lon="37.3772930">
    <ele>4801.7</ele>
    <time>2026-06-22T22:22:41Z</time>
   </trkpt>
   <trkpt lat="-3.0956120" lon="37.3772930">
    <ele>4801.8</ele>
    <time>2026-06-22T22:22:42Z</time>
   </trkpt>
   <trkpt lat="-3.0956080" lon="37.3772940">
    <ele>4801.8</ele>
    <time>2026-06-22T22:22:43Z</time>
   </trkpt>
   <trkpt lat="-3.0956040" lon="37.3772920">
    <ele>4801.9</ele>
    <time>2026-06-22T22:22:44Z</time>
   </trkpt>
   <trkpt lat="-3.0956010" lon="37.3772900">
    <ele>4801.9</ele>
    <time>2026-06-22T22:22:45Z</time>
   </trkpt>
   <trkpt lat="-3.0956010" lon="37.3772890">
    <ele>4801.9</ele>
    <time>2026-06-22T22:22:46Z</time>
   </trkpt>
   <trkpt lat="-3.0955980" lon="37.3772870">
    <ele>4802.0</ele>
    <time>2026-06-22T22:22:47Z</time>
   </trkpt>
   <trkpt lat="-3.0955960" lon="37.3772860">
    <ele>4802.0</ele>
    <time>2026-06-22T22:22:48Z</time>
   </trkpt>
   <trkpt lat="-3.0955960" lon="37.3772850">
    <ele>4802.0</ele>
    <time>2026-06-22T22:22:49Z</time>
   </trkpt>
   <trkpt lat="-3.0955940" lon="37.3772800">
    <ele>4802.1</ele>
    <time>2026-06-22T22:22:50Z</time>
   </trkpt>
   <trkpt lat="-3.0955930" lon="37.3772810">
    <ele>4802.1</ele>
    <time>2026-06-22T22:22:51Z</time>
   </trkpt>
   <trkpt lat="-3.0955930" lon="37.3772770">
    <ele>4802.2</ele>
    <time>2026-06-22T22:22:52Z</time>
   </trkpt>
   <trkpt lat="-3.0955900" lon="37.3772770">
    <ele>4802.2</ele>
    <time>2026-06-22T22:22:53Z</time>
   </trkpt>
   <trkpt lat="-3.0955880" lon="37.3772740">
    <ele>4802.3</ele>
    <time>2026-06-22T22:22:54Z</time>
   </trkpt>
   <trkpt lat="-3.0955850" lon="37.3772720">
    <ele>4802.3</ele>
    <time>2026-06-22T22:22:55Z</time>
   </trkpt>
   <trkpt lat="-3.0955830" lon="37.3772720">
    <ele>4802.4</ele>
    <time>2026-06-22T22:22:56Z</time>
   </trkpt>
   <trkpt lat="-3.0955810" lon="37.3772700">
    <ele>4802.4</ele>
    <time>2026-06-22T22:22:57Z</time>
   </trkpt>
   <trkpt lat="-3.0955770" lon="37.3772670">
    <ele>4802.5</ele>
    <time>2026-06-22T22:22:58Z</time>
   </trkpt>
   <trkpt lat="-3.0955730" lon="37.3772650">
    <ele>4802.5</ele>
    <time>2026-06-22T22:22:59Z</time>
   </trkpt>
   <trkpt lat="-3.0955710" lon="37.3772640">
    <ele>4802.6</ele>
    <time>2026-06-22T22:23:00Z</time>
   </trkpt>
   <trkpt lat="-3.0955700" lon="37.3772640">
    <ele>4802.6</ele>
    <time>2026-06-22T22:23:01Z</time>
   </trkpt>
   <trkpt lat="-3.0955670" lon="37.3772580">
    <ele>4802.7</ele>
    <time>2026-06-22T22:23:02Z</time>
   </trkpt>
   <trkpt lat="-3.0955650" lon="37.3772570">
    <ele>4802.7</ele>
    <time>2026-06-22T22:23:03Z</time>
   </trkpt>
   <trkpt lat="-3.0955630" lon="37.3772550">
    <ele>4802.7</ele>
    <time>2026-06-22T22:23:04Z</time>
   </trkpt>
   <trkpt lat="-3.0955620" lon="37.3772560">
    <ele>4802.8</ele>
    <time>2026-06-22T22:23:05Z</time>
   </trkpt>
   <trkpt lat="-3.0955590" lon="37.3772540">
    <ele>4802.8</ele>
    <time>2026-06-22T22:23:06Z</time>
   </trkpt>
   <trkpt lat="-3.0955580" lon="37.3772580">
    <ele>4802.9</ele>
    <time>2026-06-22T22:23:07Z</time>
   </trkpt>
   <trkpt lat="-3.0955540" lon="37.3772570">
    <ele>4802.9</ele>
    <time>2026-06-22T22:23:08Z</time>
   </trkpt>
   <trkpt lat="-3.0955490" lon="37.3772580">
    <ele>4803.0</ele>
    <time>2026-06-22T22:23:09Z</time>
   </trkpt>
   <trkpt lat="-3.0955460" lon="37.3772570">
    <ele>4803.0</ele>
    <time>2026-06-22T22:23:10Z</time>
   </trkpt>
   <trkpt lat="-3.0955410" lon="37.3772580">
    <ele>4803.1</ele>
    <time>2026-06-22T22:23:11Z</time>
   </trkpt>
   <trkpt lat="-3.0955390" lon="37.3772590">
    <ele>4803.1</ele>
    <time>2026-06-22T22:23:12Z</time>
   </trkpt>
   <trkpt lat="-3.0955330" lon="37.3772600">
    <ele>4803.2</ele>
    <time>2026-06-22T22:23:13Z</time>
   </trkpt>
   <trkpt lat="-3.0955300" lon="37.3772620">
    <ele>4803.3</ele>
    <time>2026-06-22T22:23:14Z</time>
   </trkpt>
   <trkpt lat="-3.0955270" lon="37.3772640">
    <ele>4803.3</ele>
    <time>2026-06-22T22:23:15Z</time>
   </trkpt>
   <trkpt lat="-3.0955230" lon="37.3772640">
    <ele>4803.4</ele>
    <time>2026-06-22T22:23:16Z</time>
   </trkpt>
   <trkpt lat="-3.0955190" lon="37.3772650">
    <ele>4803.4</ele>
    <time>2026-06-22T22:23:17Z</time>
   </trkpt>
   <trkpt lat="-3.0955170" lon="37.3772660">
    <ele>4803.4</ele>
    <time>2026-06-22T22:23:18Z</time>
   </trkpt>
   <trkpt lat="-3.0955130" lon="37.3772660">
    <ele>4803.5</ele>
    <time>2026-06-22T22:23:19Z</time>
   </trkpt>
   <trkpt lat="-3.0955110" lon="37.3772660">
    <ele>4803.5</ele>
    <time>2026-06-22T22:23:20Z</time>
   </trkpt>
   <trkpt lat="-3.0955070" lon="37.3772660">
    <ele>4803.6</ele>
    <time>2026-06-22T22:23:21Z</time>
   </trkpt>
   <trkpt lat="-3.0955020" lon="37.3772660">
    <ele>4803.6</ele>
    <time>2026-06-22T22:23:22Z</time>
   </trkpt>
   <trkpt lat="-3.0955010" lon="37.3772670">
    <ele>4803.7</ele>
    <time>2026-06-22T22:23:23Z</time>
   </trkpt>
   <trkpt lat="-3.0954970" lon="37.3772690">
    <ele>4803.7</ele>
    <time>2026-06-22T22:23:24Z</time>
   </trkpt>
   <trkpt lat="-3.0954930" lon="37.3772700">
    <ele>4803.8</ele>
    <time>2026-06-22T22:23:25Z</time>
   </trkpt>
   <trkpt lat="-3.0954880" lon="37.3772720">
    <ele>4803.8</ele>
    <time>2026-06-22T22:23:26Z</time>
   </trkpt>
   <trkpt lat="-3.0954850" lon="37.3772700">
    <ele>4803.9</ele>
    <time>2026-06-22T22:23:27Z</time>
   </trkpt>
   <trkpt lat="-3.0954810" lon="37.3772670">
    <ele>4803.9</ele>
    <time>2026-06-22T22:23:28Z</time>
   </trkpt>
   <trkpt lat="-3.0954790" lon="37.3772660">
    <ele>4804.0</ele>
    <time>2026-06-22T22:23:30Z</time>
   </trkpt>
   <trkpt lat="-3.0954770" lon="37.3772630">
    <ele>4804.0</ele>
    <time>2026-06-22T22:23:31Z</time>
   </trkpt>
   <trkpt lat="-3.0954710" lon="37.3772610">
    <ele>4804.1</ele>
    <time>2026-06-22T22:23:32Z</time>
   </trkpt>
   <trkpt lat="-3.0954680" lon="37.3772610">
    <ele>4804.1</ele>
    <time>2026-06-22T22:23:33Z</time>
   </trkpt>
   <trkpt lat="-3.0954650" lon="37.3772640">
    <ele>4804.2</ele>
    <time>2026-06-22T22:23:34Z</time>
   </trkpt>
   <trkpt lat="-3.0954600" lon="37.3772650">
    <ele>4804.3</ele>
    <time>2026-06-22T22:23:35Z</time>
   </trkpt>
   <trkpt lat="-3.0954560" lon="37.3772670">
    <ele>4804.3</ele>
    <time>2026-06-22T22:23:36Z</time>
   </trkpt>
   <trkpt lat="-3.0954540" lon="37.3772690">
    <ele>4804.4</ele>
    <time>2026-06-22T22:23:37Z</time>
   </trkpt>
   <trkpt lat="-3.0954480" lon="37.3772660">
    <ele>4804.4</ele>
    <time>2026-06-22T22:23:38Z</time>
   </trkpt>
   <trkpt lat="-3.0954480" lon="37.3772680">
    <ele>4804.5</ele>
    <time>2026-06-22T22:23:39Z</time>
   </trkpt>
   <trkpt lat="-3.0954440" lon="37.3772670">
    <ele>4804.5</ele>
    <time>2026-06-22T22:23:40Z</time>
   </trkpt>
   <trkpt lat="-3.0954410" lon="37.3772660">
    <ele>4804.6</ele>
    <time>2026-06-22T22:23:41Z</time>
   </trkpt>
   <trkpt lat="-3.0954370" lon="37.3772650">
    <ele>4804.6</ele>
    <time>2026-06-22T22:23:42Z</time>
   </trkpt>
   <trkpt lat="-3.0954340" lon="37.3772680">
    <ele>4804.7</ele>
    <time>2026-06-22T22:23:43Z</time>
   </trkpt>
   <trkpt lat="-3.0954300" lon="37.3772650">
    <ele>4804.7</ele>
    <time>2026-06-22T22:23:44Z</time>
   </trkpt>
   <trkpt lat="-3.0954270" lon="37.3772660">
    <ele>4804.8</ele>
    <time>2026-06-22T22:23:45Z</time>
   </trkpt>
   <trkpt lat="-3.0954230" lon="37.3772630">
    <ele>4804.8</ele>
    <time>2026-06-22T22:23:46Z</time>
   </trkpt>
   <trkpt lat="-3.0954200" lon="37.3772630">
    <ele>4804.9</ele>
    <time>2026-06-22T22:23:47Z</time>
   </trkpt>
   <trkpt lat="-3.0954170" lon="37.3772640">
    <ele>4804.9</ele>
    <time>2026-06-22T22:23:48Z</time>
   </trkpt>
   <trkpt lat="-3.0954160" lon="37.3772680">
    <ele>4805.0</ele>
    <time>2026-06-22T22:23:49Z</time>
   </trkpt>
   <trkpt lat="-3.0954120" lon="37.3772650">
    <ele>4805.0</ele>
    <time>2026-06-22T22:23:50Z</time>
   </trkpt>
   <trkpt lat="-3.0954080" lon="37.3772650">
    <ele>4805.1</ele>
    <time>2026-06-22T22:23:51Z</time>
   </trkpt>
   <trkpt lat="-3.0954050" lon="37.3772650">
    <ele>4805.1</ele>
    <time>2026-06-22T22:23:52Z</time>
   </trkpt>
   <trkpt lat="-3.0954010" lon="37.3772660">
    <ele>4805.2</ele>
    <time>2026-06-22T22:23:53Z</time>
   </trkpt>
   <trkpt lat="-3.0953970" lon="37.3772670">
    <ele>4805.2</ele>
    <time>2026-06-22T22:23:54Z</time>
   </trkpt>
   <trkpt lat="-3.0953960" lon="37.3772680">
    <ele>4805.2</ele>
    <time>2026-06-22T22:23:55Z</time>
   </trkpt>
   <trkpt lat="-3.0953910" lon="37.3772670">
    <ele>4805.3</ele>
    <time>2026-06-22T22:23:56Z</time>
   </trkpt>
   <trkpt lat="-3.0953870" lon="37.3772670">
    <ele>4805.4</ele>
    <time>2026-06-22T22:23:57Z</time>
   </trkpt>
   <trkpt lat="-3.0953820" lon="37.3772650">
    <ele>4805.4</ele>
    <time>2026-06-22T22:23:58Z</time>
   </trkpt>
   <trkpt lat="-3.0953800" lon="37.3772650">
    <ele>4805.5</ele>
    <time>2026-06-22T22:23:59Z</time>
   </trkpt>
   <trkpt lat="-3.0953760" lon="37.3772640">
    <ele>4805.5</ele>
    <time>2026-06-22T22:24:00Z</time>
   </trkpt>
   <trkpt lat="-3.0953740" lon="37.3772650">
    <ele>4805.5</ele>
    <time>2026-06-22T22:24:01Z</time>
   </trkpt>
   <trkpt lat="-3.0953700" lon="37.3772620">
    <ele>4805.6</ele>
    <time>2026-06-22T22:24:02Z</time>
   </trkpt>
   <trkpt lat="-3.0953670" lon="37.3772630">
    <ele>4805.6</ele>
    <time>2026-06-22T22:24:03Z</time>
   </trkpt>
   <trkpt lat="-3.0953640" lon="37.3772610">
    <ele>4805.7</ele>
    <time>2026-06-22T22:24:04Z</time>
   </trkpt>
   <trkpt lat="-3.0953590" lon="37.3772590">
    <ele>4805.8</ele>
    <time>2026-06-22T22:24:05Z</time>
   </trkpt>
   <trkpt lat="-3.0953560" lon="37.3772590">
    <ele>4805.8</ele>
    <time>2026-06-22T22:24:06Z</time>
   </trkpt>
   <trkpt lat="-3.0953540" lon="37.3772580">
    <ele>4805.8</ele>
    <time>2026-06-22T22:24:07Z</time>
   </trkpt>
   <trkpt lat="-3.0953500" lon="37.3772580">
    <ele>4805.9</ele>
    <time>2026-06-22T22:24:08Z</time>
   </trkpt>
   <trkpt lat="-3.0953460" lon="37.3772560">
    <ele>4805.9</ele>
    <time>2026-06-22T22:24:09Z</time>
   </trkpt>
   <trkpt lat="-3.0953410" lon="37.3772570">
    <ele>4806.0</ele>
    <time>2026-06-22T22:24:10Z</time>
   </trkpt>
   <trkpt lat="-3.0953370" lon="37.3772550">
    <ele>4806.0</ele>
    <time>2026-06-22T22:24:11Z</time>
   </trkpt>
   <trkpt lat="-3.0953320" lon="37.3772530">
    <ele>4806.1</ele>
    <time>2026-06-22T22:24:12Z</time>
   </trkpt>
   <trkpt lat="-3.0953290" lon="37.3772510">
    <ele>4806.2</ele>
    <time>2026-06-22T22:24:13Z</time>
   </trkpt>
   <trkpt lat="-3.0953260" lon="37.3772510">
    <ele>4806.2</ele>
    <time>2026-06-22T22:24:14Z</time>
   </trkpt>
   <trkpt lat="-3.0953200" lon="37.3772490">
    <ele>4806.3</ele>
    <time>2026-06-22T22:24:15Z</time>
   </trkpt>
   <trkpt lat="-3.0953180" lon="37.3772490">
    <ele>4806.3</ele>
    <time>2026-06-22T22:24:16Z</time>
   </trkpt>
   <trkpt lat="-3.0953140" lon="37.3772490">
    <ele>4806.4</ele>
    <time>2026-06-22T22:24:17Z</time>
   </trkpt>
   <trkpt lat="-3.0953110" lon="37.3772490">
    <ele>4806.4</ele>
    <time>2026-06-22T22:24:18Z</time>
   </trkpt>
   <trkpt lat="-3.0953070" lon="37.3772480">
    <ele>4806.4</ele>
    <time>2026-06-22T22:24:19Z</time>
   </trkpt>
   <trkpt lat="-3.0953030" lon="37.3772490">
    <ele>4806.5</ele>
    <time>2026-06-22T22:24:20Z</time>
   </trkpt>
   <trkpt lat="-3.0953000" lon="37.3772470">
    <ele>4806.5</ele>
    <time>2026-06-22T22:24:21Z</time>
   </trkpt>
   <trkpt lat="-3.0952980" lon="37.3772470">
    <ele>4806.6</ele>
    <time>2026-06-22T22:24:22Z</time>
   </trkpt>
   <trkpt lat="-3.0952940" lon="37.3772450">
    <ele>4806.6</ele>
    <time>2026-06-22T22:24:23Z</time>
   </trkpt>
   <trkpt lat="-3.0952920" lon="37.3772460">
    <ele>4806.7</ele>
    <time>2026-06-22T22:24:24Z</time>
   </trkpt>
   <trkpt lat="-3.0952870" lon="37.3772440">
    <ele>4806.7</ele>
    <time>2026-06-22T22:24:25Z</time>
   </trkpt>
   <trkpt lat="-3.0952840" lon="37.3772450">
    <ele>4806.8</ele>
    <time>2026-06-22T22:24:26Z</time>
   </trkpt>
   <trkpt lat="-3.0952810" lon="37.3772440">
    <ele>4806.8</ele>
    <time>2026-06-22T22:24:27Z</time>
   </trkpt>
   <trkpt lat="-3.0952790" lon="37.3772430">
    <ele>4806.8</ele>
    <time>2026-06-22T22:24:28Z</time>
   </trkpt>
   <trkpt lat="-3.0952760" lon="37.3772430">
    <ele>4806.9</ele>
    <time>2026-06-22T22:24:29Z</time>
   </trkpt>
   <trkpt lat="-3.0952740" lon="37.3772410">
    <ele>4806.9</ele>
    <time>2026-06-22T22:24:30Z</time>
   </trkpt>
   <trkpt lat="-3.0952730" lon="37.3772410">
    <ele>4806.9</ele>
    <time>2026-06-22T22:24:31Z</time>
   </trkpt>
   <trkpt lat="-3.0952720" lon="37.3772360">
    <ele>4807.0</ele>
    <time>2026-06-22T22:24:32Z</time>
   </trkpt>
   <trkpt lat="-3.0952710" lon="37.3772360">
    <ele>4807.0</ele>
    <time>2026-06-22T22:24:33Z</time>
   </trkpt>
   <trkpt lat="-3.0952690" lon="37.3772320">
    <ele>4807.0</ele>
    <time>2026-06-22T22:24:34Z</time>
   </trkpt>
   <trkpt lat="-3.0952690" lon="37.3772290">
    <ele>4807.1</ele>
    <time>2026-06-22T22:24:35Z</time>
   </trkpt>
   <trkpt lat="-3.0952680" lon="37.3772290">
    <ele>4807.1</ele>
    <time>2026-06-22T22:24:36Z</time>
   </trkpt>
   <trkpt lat="-3.0952640" lon="37.3772270">
    <ele>4807.2</ele>
    <time>2026-06-22T22:24:37Z</time>
   </trkpt>
   <trkpt lat="-3.0952570" lon="37.3772280">
    <ele>4807.2</ele>
    <time>2026-06-22T22:24:38Z</time>
   </trkpt>
   <trkpt lat="-3.0952570" lon="37.3772310">
    <ele>4807.3</ele>
    <time>2026-06-22T22:24:39Z</time>
   </trkpt>
   <trkpt lat="-3.0952540" lon="37.3772300">
    <ele>4807.3</ele>
    <time>2026-06-22T22:24:40Z</time>
   </trkpt>
   <trkpt lat="-3.0952500" lon="37.3772320">
    <ele>4807.4</ele>
    <time>2026-06-22T22:24:41Z</time>
   </trkpt>
   <trkpt lat="-3.0952480" lon="37.3772340">
    <ele>4807.4</ele>
    <time>2026-06-22T22:24:42Z</time>
   </trkpt>
   <trkpt lat="-3.0952440" lon="37.3772360">
    <ele>4807.5</ele>
    <time>2026-06-22T22:24:43Z</time>
   </trkpt>
   <trkpt lat="-3.0952390" lon="37.3772380">
    <ele>4807.5</ele>
    <time>2026-06-22T22:24:44Z</time>
   </trkpt>
   <trkpt lat="-3.0952400" lon="37.3772410">
    <ele>4807.6</ele>
    <time>2026-06-22T22:24:45Z</time>
   </trkpt>
   <trkpt lat="-3.0952320" lon="37.3772400">
    <ele>4807.7</ele>
    <time>2026-06-22T22:24:46Z</time>
   </trkpt>
   <trkpt lat="-3.0952300" lon="37.3772430">
    <ele>4807.7</ele>
    <time>2026-06-22T22:24:47Z</time>
   </trkpt>
   <trkpt lat="-3.0952280" lon="37.3772430">
    <ele>4807.8</ele>
    <time>2026-06-22T22:24:48Z</time>
   </trkpt>
   <trkpt lat="-3.0952230" lon="37.3772440">
    <ele>4807.8</ele>
    <time>2026-06-22T22:24:49Z</time>
   </trkpt>
   <trkpt lat="-3.0952210" lon="37.3772450">
    <ele>4807.8</ele>
    <time>2026-06-22T22:24:50Z</time>
   </trkpt>
   <trkpt lat="-3.0952170" lon="37.3772470">
    <ele>4807.9</ele>
    <time>2026-06-22T22:24:51Z</time>
   </trkpt>
   <trkpt lat="-3.0952140" lon="37.3772470">
    <ele>4807.9</ele>
    <time>2026-06-22T22:24:52Z</time>
   </trkpt>
   <trkpt lat="-3.0952110" lon="37.3772490">
    <ele>4808.0</ele>
    <time>2026-06-22T22:24:53Z</time>
   </trkpt>
   <trkpt lat="-3.0952060" lon="37.3772480">
    <ele>4808.1</ele>
    <time>2026-06-22T22:24:54Z</time>
   </trkpt>
   <trkpt lat="-3.0952030" lon="37.3772500">
    <ele>4808.1</ele>
    <time>2026-06-22T22:24:55Z</time>
   </trkpt>
   <trkpt lat="-3.0952000" lon="37.3772490">
    <ele>4808.1</ele>
    <time>2026-06-22T22:24:56Z</time>
   </trkpt>
   <trkpt lat="-3.0951970" lon="37.3772500">
    <ele>4808.2</ele>
    <time>2026-06-22T22:24:57Z</time>
   </trkpt>
   <trkpt lat="-3.0951930" lon="37.3772490">
    <ele>4808.2</ele>
    <time>2026-06-22T22:24:58Z</time>
   </trkpt>
   <trkpt lat="-3.0951900" lon="37.3772500">
    <ele>4808.3</ele>
    <time>2026-06-22T22:24:59Z</time>
   </trkpt>
   <trkpt lat="-3.0951870" lon="37.3772510">
    <ele>4808.3</ele>
    <time>2026-06-22T22:25:00Z</time>
   </trkpt>
   <trkpt lat="-3.0951820" lon="37.3772490">
    <ele>4808.4</ele>
    <time>2026-06-22T22:25:01Z</time>
   </trkpt>
   <trkpt lat="-3.0951810" lon="37.3772510">
    <ele>4808.4</ele>
    <time>2026-06-22T22:25:02Z</time>
   </trkpt>
   <trkpt lat="-3.0951750" lon="37.3772490">
    <ele>4808.5</ele>
    <time>2026-06-22T22:25:03Z</time>
   </trkpt>
   <trkpt lat="-3.0951730" lon="37.3772490">
    <ele>4808.5</ele>
    <time>2026-06-22T22:25:04Z</time>
   </trkpt>
   <trkpt lat="-3.0951710" lon="37.3772490">
    <ele>4808.5</ele>
    <time>2026-06-22T22:25:05Z</time>
   </trkpt>
   <trkpt lat="-3.0951690" lon="37.3772500">
    <ele>4808.6</ele>
    <time>2026-06-22T22:25:06Z</time>
   </trkpt>
   <trkpt lat="-3.0951630" lon="37.3772460">
    <ele>4808.7</ele>
    <time>2026-06-22T22:25:07Z</time>
   </trkpt>
   <trkpt lat="-3.0951630" lon="37.3772470">
    <ele>4808.7</ele>
    <time>2026-06-22T22:25:08Z</time>
   </trkpt>
   <trkpt lat="-3.0951600" lon="37.3772460">
    <ele>4808.7</ele>
    <time>2026-06-22T22:25:09Z</time>
   </trkpt>
   <trkpt lat="-3.0951580" lon="37.3772460">
    <ele>4808.7</ele>
    <time>2026-06-22T22:25:10Z</time>
   </trkpt>
   <trkpt lat="-3.0951540" lon="37.3772440">
    <ele>4808.8</ele>
    <time>2026-06-22T22:25:11Z</time>
   </trkpt>
   <trkpt lat="-3.0951510" lon="37.3772410">
    <ele>4808.8</ele>
    <time>2026-06-22T22:25:12Z</time>
   </trkpt>
   <trkpt lat="-3.0951490" lon="37.3772400">
    <ele>4808.9</ele>
    <time>2026-06-22T22:25:13Z</time>
   </trkpt>
   <trkpt lat="-3.0951460" lon="37.3772390">
    <ele>4808.9</ele>
    <time>2026-06-22T22:25:14Z</time>
   </trkpt>
   <trkpt lat="-3.0951470" lon="37.3772400">
    <ele>4808.9</ele>
    <time>2026-06-22T22:25:15Z</time>
   </trkpt>
   <trkpt lat="-3.0951430" lon="37.3772360">
    <ele>4809.0</ele>
    <time>2026-06-22T22:25:16Z</time>
   </trkpt>
   <trkpt lat="-3.0951420" lon="37.3772350">
    <ele>4809.0</ele>
    <time>2026-06-22T22:25:17Z</time>
   </trkpt>
   <trkpt lat="-3.0951370" lon="37.3772190">
    <ele>4809.2</ele>
    <time>2026-06-22T22:25:18Z</time>
   </trkpt>
   <trkpt lat="-3.0951390" lon="37.3772270">
    <ele>4809.3</ele>
    <time>2026-06-22T22:25:19Z</time>
   </trkpt>
   <trkpt lat="-3.0951360" lon="37.3772220">
    <ele>4809.4</ele>
    <time>2026-06-22T22:25:20Z</time>
   </trkpt>
   <trkpt lat="-3.0951340" lon="37.3772230">
    <ele>4809.4</ele>
    <time>2026-06-22T22:25:21Z</time>
   </trkpt>
   <trkpt lat="-3.0951320" lon="37.3772200">
    <ele>4809.5</ele>
    <time>2026-06-22T22:25:22Z</time>
   </trkpt>
   <trkpt lat="-3.0951290" lon="37.3772200">
    <ele>4809.5</ele>
    <time>2026-06-22T22:25:23Z</time>
   </trkpt>
   <trkpt lat="-3.0951260" lon="37.3772180">
    <ele>4809.6</ele>
    <time>2026-06-22T22:25:24Z</time>
   </trkpt>
   <trkpt lat="-3.0951230" lon="37.3772170">
    <ele>4809.6</ele>
    <time>2026-06-22T22:25:25Z</time>
   </trkpt>
   <trkpt lat="-3.0951190" lon="37.3772150">
    <ele>4809.7</ele>
    <time>2026-06-22T22:25:26Z</time>
   </trkpt>
   <trkpt lat="-3.0951190" lon="37.3772150">
    <ele>4809.7</ele>
    <time>2026-06-22T22:25:27Z</time>
   </trkpt>
   <trkpt lat="-3.0951170" lon="37.3772160">
    <ele>4809.7</ele>
    <time>2026-06-22T22:25:28Z</time>
   </trkpt>
   <trkpt lat="-3.0951140" lon="37.3772150">
    <ele>4809.8</ele>
    <time>2026-06-22T22:25:29Z</time>
   </trkpt>
   <trkpt lat="-3.0951100" lon="37.3772130">
    <ele>4809.8</ele>
    <time>2026-06-22T22:25:30Z</time>
   </trkpt>
   <trkpt lat="-3.0951070" lon="37.3772110">
    <ele>4809.9</ele>
    <time>2026-06-22T22:25:31Z</time>
   </trkpt>
   <trkpt lat="-3.0951050" lon="37.3772120">
    <ele>4809.9</ele>
    <time>2026-06-22T22:25:32Z</time>
   </trkpt>
   <trkpt lat="-3.0951010" lon="37.3772090">
    <ele>4810.0</ele>
    <time>2026-06-22T22:25:33Z</time>
   </trkpt>
   <trkpt lat="-3.0950990" lon="37.3772090">
    <ele>4810.0</ele>
    <time>2026-06-22T22:25:34Z</time>
   </trkpt>
   <trkpt lat="-3.0950970" lon="37.3772070">
    <ele>4810.0</ele>
    <time>2026-06-22T22:25:36Z</time>
   </trkpt>
   <trkpt lat="-3.0950940" lon="37.3772060">
    <ele>4810.1</ele>
    <time>2026-06-22T22:25:37Z</time>
   </trkpt>
   <trkpt lat="-3.0950910" lon="37.3772040">
    <ele>4810.1</ele>
    <time>2026-06-22T22:25:38Z</time>
   </trkpt>
   <trkpt lat="-3.0950880" lon="37.3772040">
    <ele>4810.1</ele>
    <time>2026-06-22T22:25:39Z</time>
   </trkpt>
   <trkpt lat="-3.0950860" lon="37.3772020">
    <ele>4810.2</ele>
    <time>2026-06-22T22:25:40Z</time>
   </trkpt>
   <trkpt lat="-3.0950810" lon="37.3771980">
    <ele>4810.3</ele>
    <time>2026-06-22T22:25:41Z</time>
   </trkpt>
   <trkpt lat="-3.0950790" lon="37.3771980">
    <ele>4810.3</ele>
    <time>2026-06-22T22:25:42Z</time>
   </trkpt>
   <trkpt lat="-3.0950710" lon="37.3771940">
    <ele>4810.4</ele>
    <time>2026-06-22T22:25:43Z</time>
   </trkpt>
   <trkpt lat="-3.0950730" lon="37.3771950">
    <ele>4810.4</ele>
    <time>2026-06-22T22:25:44Z</time>
   </trkpt>
   <trkpt lat="-3.0950710" lon="37.3771940">
    <ele>4810.5</ele>
    <time>2026-06-22T22:25:45Z</time>
   </trkpt>
   <trkpt lat="-3.0950640" lon="37.3771950">
    <ele>4810.6</ele>
    <time>2026-06-22T22:25:46Z</time>
   </trkpt>
   <trkpt lat="-3.0950650" lon="37.3771930">
    <ele>4810.6</ele>
    <time>2026-06-22T22:25:47Z</time>
   </trkpt>
   <trkpt lat="-3.0950630" lon="37.3771940">
    <ele>4810.6</ele>
    <time>2026-06-22T22:25:48Z</time>
   </trkpt>
   <trkpt lat="-3.0950560" lon="37.3771920">
    <ele>4810.7</ele>
    <time>2026-06-22T22:25:49Z</time>
   </trkpt>
   <trkpt lat="-3.0950540" lon="37.3771920">
    <ele>4810.8</ele>
    <time>2026-06-22T22:25:50Z</time>
   </trkpt>
   <trkpt lat="-3.0950510" lon="37.3771920">
    <ele>4810.8</ele>
    <time>2026-06-22T22:25:51Z</time>
   </trkpt>
   <trkpt lat="-3.0950440" lon="37.3771920">
    <ele>4810.9</ele>
    <time>2026-06-22T22:25:52Z</time>
   </trkpt>
   <trkpt lat="-3.0950420" lon="37.3771910">
    <ele>4810.9</ele>
    <time>2026-06-22T22:25:53Z</time>
   </trkpt>
   <trkpt lat="-3.0950370" lon="37.3771910">
    <ele>4811.0</ele>
    <time>2026-06-22T22:25:54Z</time>
   </trkpt>
   <trkpt lat="-3.0950350" lon="37.3771900">
    <ele>4811.0</ele>
    <time>2026-06-22T22:25:55Z</time>
   </trkpt>
   <trkpt lat="-3.0950320" lon="37.3771920">
    <ele>4811.1</ele>
    <time>2026-06-22T22:25:56Z</time>
   </trkpt>
   <trkpt lat="-3.0950280" lon="37.3771900">
    <ele>4811.1</ele>
    <time>2026-06-22T22:25:57Z</time>
   </trkpt>
   <trkpt lat="-3.0950250" lon="37.3771910">
    <ele>4811.2</ele>
    <time>2026-06-22T22:25:58Z</time>
   </trkpt>
   <trkpt lat="-3.0950210" lon="37.3771900">
    <ele>4811.2</ele>
    <time>2026-06-22T22:25:59Z</time>
   </trkpt>
   <trkpt lat="-3.0950210" lon="37.3771900">
    <ele>4811.2</ele>
    <time>2026-06-22T22:26:00Z</time>
   </trkpt>
   <trkpt lat="-3.0950160" lon="37.3771870">
    <ele>4811.3</ele>
    <time>2026-06-22T22:26:01Z</time>
   </trkpt>
   <trkpt lat="-3.0950140" lon="37.3771870">
    <ele>4811.3</ele>
    <time>2026-06-22T22:26:02Z</time>
   </trkpt>
   <trkpt lat="-3.0950070" lon="37.3771860">
    <ele>4811.4</ele>
    <time>2026-06-22T22:26:03Z</time>
   </trkpt>
   <trkpt lat="-3.0950060" lon="37.3771870">
    <ele>4811.5</ele>
    <time>2026-06-22T22:26:04Z</time>
   </trkpt>
   <trkpt lat="-3.0949990" lon="37.3771860">
    <ele>4811.6</ele>
    <time>2026-06-22T22:26:05Z</time>
   </trkpt>
   <trkpt lat="-3.0949950" lon="37.3771860">
    <ele>4811.6</ele>
    <time>2026-06-22T22:26:06Z</time>
   </trkpt>
   <trkpt lat="-3.0949900" lon="37.3771860">
    <ele>4811.7</ele>
    <time>2026-06-22T22:26:07Z</time>
   </trkpt>
   <trkpt lat="-3.0949880" lon="37.3771850">
    <ele>4811.7</ele>
    <time>2026-06-22T22:26:08Z</time>
   </trkpt>
   <trkpt lat="-3.0949820" lon="37.3771880">
    <ele>4811.8</ele>
    <time>2026-06-22T22:26:09Z</time>
   </trkpt>
   <trkpt lat="-3.0949810" lon="37.3771910">
    <ele>4811.9</ele>
    <time>2026-06-22T22:26:10Z</time>
   </trkpt>
   <trkpt lat="-3.0949790" lon="37.3771910">
    <ele>4811.9</ele>
    <time>2026-06-22T22:26:11Z</time>
   </trkpt>
   <trkpt lat="-3.0949720" lon="37.3771920">
    <ele>4812.0</ele>
    <time>2026-06-22T22:26:12Z</time>
   </trkpt>
   <trkpt lat="-3.0949730" lon="37.3771920">
    <ele>4812.0</ele>
    <time>2026-06-22T22:26:13Z</time>
   </trkpt>
   <trkpt lat="-3.0949690" lon="37.3771930">
    <ele>4812.1</ele>
    <time>2026-06-22T22:26:14Z</time>
   </trkpt>
   <trkpt lat="-3.0949660" lon="37.3771920">
    <ele>4812.1</ele>
    <time>2026-06-22T22:26:15Z</time>
   </trkpt>
   <trkpt lat="-3.0949600" lon="37.3771910">
    <ele>4812.2</ele>
    <time>2026-06-22T22:26:16Z</time>
   </trkpt>
   <trkpt lat="-3.0949570" lon="37.3771900">
    <ele>4812.3</ele>
    <time>2026-06-22T22:26:17Z</time>
   </trkpt>
   <trkpt lat="-3.0949520" lon="37.3771890">
    <ele>4812.3</ele>
    <time>2026-06-22T22:26:18Z</time>
   </trkpt>
   <trkpt lat="-3.0949490" lon="37.3771880">
    <ele>4812.4</ele>
    <time>2026-06-22T22:26:19Z</time>
   </trkpt>
   <trkpt lat="-3.0949440" lon="37.3771870">
    <ele>4812.4</ele>
    <time>2026-06-22T22:26:20Z</time>
   </trkpt>
   <trkpt lat="-3.0949440" lon="37.3771870">
    <ele>4812.4</ele>
    <time>2026-06-22T22:26:21Z</time>
   </trkpt>
   <trkpt lat="-3.0949380" lon="37.3771870">
    <ele>4812.5</ele>
    <time>2026-06-22T22:26:22Z</time>
   </trkpt>
   <trkpt lat="-3.0949380" lon="37.3771850">
    <ele>4812.6</ele>
    <time>2026-06-22T22:26:23Z</time>
   </trkpt>
   <trkpt lat="-3.0949370" lon="37.3771850">
    <ele>4812.6</ele>
    <time>2026-06-22T22:26:24Z</time>
   </trkpt>
   <trkpt lat="-3.0949300" lon="37.3771840">
    <ele>4812.7</ele>
    <time>2026-06-22T22:26:25Z</time>
   </trkpt>
   <trkpt lat="-3.0949270" lon="37.3771840">
    <ele>4812.7</ele>
    <time>2026-06-22T22:26:26Z</time>
   </trkpt>
   <trkpt lat="-3.0949240" lon="37.3771820">
    <ele>4812.8</ele>
    <time>2026-06-22T22:26:27Z</time>
   </trkpt>
   <trkpt lat="-3.0949230" lon="37.3771800">
    <ele>4812.8</ele>
    <time>2026-06-22T22:26:28Z</time>
   </trkpt>
   <trkpt lat="-3.0949230" lon="37.3771800">
    <ele>4812.8</ele>
    <time>2026-06-22T22:26:29Z</time>
   </trkpt>
   <trkpt lat="-3.0949170" lon="37.3771770">
    <ele>4812.9</ele>
    <time>2026-06-22T22:26:30Z</time>
   </trkpt>
   <trkpt lat="-3.0949150" lon="37.3771760">
    <ele>4812.9</ele>
    <time>2026-06-22T22:26:31Z</time>
   </trkpt>
   <trkpt lat="-3.0949120" lon="37.3771740">
    <ele>4813.0</ele>
    <time>2026-06-22T22:26:32Z</time>
   </trkpt>
   <trkpt lat="-3.0949100" lon="37.3771730">
    <ele>4813.0</ele>
    <time>2026-06-22T22:26:33Z</time>
   </trkpt>
   <trkpt lat="-3.0949070" lon="37.3771710">
    <ele>4813.1</ele>
    <time>2026-06-22T22:26:34Z</time>
   </trkpt>
   <trkpt lat="-3.0949060" lon="37.3771700">
    <ele>4813.1</ele>
    <time>2026-06-22T22:26:35Z</time>
   </trkpt>
   <trkpt lat="-3.0949030" lon="37.3771670">
    <ele>4813.2</ele>
    <time>2026-06-22T22:26:36Z</time>
   </trkpt>
   <trkpt lat="-3.0949000" lon="37.3771670">
    <ele>4813.2</ele>
    <time>2026-06-22T22:26:37Z</time>
   </trkpt>
   <trkpt lat="-3.0948960" lon="37.3771650">
    <ele>4813.3</ele>
    <time>2026-06-22T22:26:38Z</time>
   </trkpt>
   <trkpt lat="-3.0948940" lon="37.3771650">
    <ele>4813.3</ele>
    <time>2026-06-22T22:26:39Z</time>
   </trkpt>
   <trkpt lat="-3.0948900" lon="37.3771610">
    <ele>4813.4</ele>
    <time>2026-06-22T22:26:40Z</time>
   </trkpt>
   <trkpt lat="-3.0948890" lon="37.3771600">
    <ele>4813.4</ele>
    <time>2026-06-22T22:26:41Z</time>
   </trkpt>
   <trkpt lat="-3.0948850" lon="37.3771570">
    <ele>4813.5</ele>
    <time>2026-06-22T22:26:42Z</time>
   </trkpt>
   <trkpt lat="-3.0948830" lon="37.3771580">
    <ele>4813.5</ele>
    <time>2026-06-22T22:26:43Z</time>
   </trkpt>
   <trkpt lat="-3.0948770" lon="37.3771570">
    <ele>4813.6</ele>
    <time>2026-06-22T22:26:44Z</time>
   </trkpt>
   <trkpt lat="-3.0948760" lon="37.3771570">
    <ele>4813.7</ele>
    <time>2026-06-22T22:26:45Z</time>
   </trkpt>
   <trkpt lat="-3.0948740" lon="37.3771570">
    <ele>4813.7</ele>
    <time>2026-06-22T22:26:46Z</time>
   </trkpt>
   <trkpt lat="-3.0948690" lon="37.3771550">
    <ele>4813.8</ele>
    <time>2026-06-22T22:26:47Z</time>
   </trkpt>
   <trkpt lat="-3.0948660" lon="37.3771500">
    <ele>4813.9</ele>
    <time>2026-06-22T22:26:48Z</time>
   </trkpt>
   <trkpt lat="-3.0948630" lon="37.3771560">
    <ele>4814.0</ele>
    <time>2026-06-22T22:26:49Z</time>
   </trkpt>
   <trkpt lat="-3.0948620" lon="37.3771550">
    <ele>4814.0</ele>
    <time>2026-06-22T22:26:50Z</time>
   </trkpt>
   <trkpt lat="-3.0948550" lon="37.3771540">
    <ele>4814.1</ele>
    <time>2026-06-22T22:26:51Z</time>
   </trkpt>
   <trkpt lat="-3.0948530" lon="37.3771550">
    <ele>4814.1</ele>
    <time>2026-06-22T22:26:52Z</time>
   </trkpt>
   <trkpt lat="-3.0948490" lon="37.3771520">
    <ele>4814.2</ele>
    <time>2026-06-22T22:26:53Z</time>
   </trkpt>
   <trkpt lat="-3.0948420" lon="37.3771510">
    <ele>4814.3</ele>
    <time>2026-06-22T22:26:54Z</time>
   </trkpt>
   <trkpt lat="-3.0948440" lon="37.3771510">
    <ele>4814.3</ele>
    <time>2026-06-22T22:26:55Z</time>
   </trkpt>
   <trkpt lat="-3.0948380" lon="37.3771510">
    <ele>4814.4</ele>
    <time>2026-06-22T22:26:56Z</time>
   </trkpt>
   <trkpt lat="-3.0948350" lon="37.3771480">
    <ele>4814.5</ele>
    <time>2026-06-22T22:26:57Z</time>
   </trkpt>
   <trkpt lat="-3.0948320" lon="37.3771500">
    <ele>4814.6</ele>
    <time>2026-06-22T22:26:58Z</time>
   </trkpt>
   <trkpt lat="-3.0948280" lon="37.3771490">
    <ele>4814.6</ele>
    <time>2026-06-22T22:26:59Z</time>
   </trkpt>
   <trkpt lat="-3.0948300" lon="37.3771480">
    <ele>4814.7</ele>
    <time>2026-06-22T22:27:00Z</time>
   </trkpt>
   <trkpt lat="-3.0948260" lon="37.3771480">
    <ele>4814.7</ele>
    <time>2026-06-22T22:27:01Z</time>
   </trkpt>
   <trkpt lat="-3.0948220" lon="37.3771480">
    <ele>4814.8</ele>
    <time>2026-06-22T22:27:02Z</time>
   </trkpt>
   <trkpt lat="-3.0948170" lon="37.3771480">
    <ele>4814.9</ele>
    <time>2026-06-22T22:27:03Z</time>
   </trkpt>
   <trkpt lat="-3.0948120" lon="37.3771470">
    <ele>4814.9</ele>
    <time>2026-06-22T22:27:04Z</time>
   </trkpt>
   <trkpt lat="-3.0948090" lon="37.3771460">
    <ele>4815.0</ele>
    <time>2026-06-22T22:27:05Z</time>
   </trkpt>
   <trkpt lat="-3.0948070" lon="37.3771460">
    <ele>4815.0</ele>
    <time>2026-06-22T22:27:06Z</time>
   </trkpt>
   <trkpt lat="-3.0948050" lon="37.3771450">
    <ele>4815.1</ele>
    <time>2026-06-22T22:27:07Z</time>
   </trkpt>
   <trkpt lat="-3.0948010" lon="37.3771440">
    <ele>4815.1</ele>
    <time>2026-06-22T22:27:08Z</time>
   </trkpt>
   <trkpt lat="-3.0947970" lon="37.3771400">
    <ele>4815.2</ele>
    <time>2026-06-22T22:27:09Z</time>
   </trkpt>
   <trkpt lat="-3.0947950" lon="37.3771410">
    <ele>4815.3</ele>
    <time>2026-06-22T22:27:10Z</time>
   </trkpt>
   <trkpt lat="-3.0947930" lon="37.3771400">
    <ele>4815.3</ele>
    <time>2026-06-22T22:27:11Z</time>
   </trkpt>
   <trkpt lat="-3.0947890" lon="37.3771390">
    <ele>4815.4</ele>
    <time>2026-06-22T22:27:12Z</time>
   </trkpt>
   <trkpt lat="-3.0947890" lon="37.3771380">
    <ele>4815.4</ele>
    <time>2026-06-22T22:27:13Z</time>
   </trkpt>
   <trkpt lat="-3.0947850" lon="37.3771370">
    <ele>4815.5</ele>
    <time>2026-06-22T22:27:14Z</time>
   </trkpt>
   <trkpt lat="-3.0947820" lon="37.3771360">
    <ele>4815.5</ele>
    <time>2026-06-22T22:27:15Z</time>
   </trkpt>
   <trkpt lat="-3.0947830" lon="37.3771350">
    <ele>4815.5</ele>
    <time>2026-06-22T22:27:16Z</time>
   </trkpt>
   <trkpt lat="-3.0947800" lon="37.3771350">
    <ele>4815.6</ele>
    <time>2026-06-22T22:27:17Z</time>
   </trkpt>
   <trkpt lat="-3.0947780" lon="37.3771340">
    <ele>4815.6</ele>
    <time>2026-06-22T22:27:18Z</time>
   </trkpt>
   <trkpt lat="-3.0947760" lon="37.3771330">
    <ele>4815.7</ele>
    <time>2026-06-22T22:27:19Z</time>
   </trkpt>
   <trkpt lat="-3.0947730" lon="37.3771330">
    <ele>4815.7</ele>
    <time>2026-06-22T22:27:20Z</time>
   </trkpt>
   <trkpt lat="-3.0947690" lon="37.3771310">
    <ele>4815.8</ele>
    <time>2026-06-22T22:27:21Z</time>
   </trkpt>
   <trkpt lat="-3.0947690" lon="37.3771320">
    <ele>4815.8</ele>
    <time>2026-06-22T22:27:22Z</time>
   </trkpt>
   <trkpt lat="-3.0947650" lon="37.3771310">
    <ele>4815.9</ele>
    <time>2026-06-22T22:27:23Z</time>
   </trkpt>
   <trkpt lat="-3.0947620" lon="37.3771310">
    <ele>4815.9</ele>
    <time>2026-06-22T22:27:24Z</time>
   </trkpt>
   <trkpt lat="-3.0947600" lon="37.3771280">
    <ele>4816.0</ele>
    <time>2026-06-22T22:27:25Z</time>
   </trkpt>
   <trkpt lat="-3.0947570" lon="37.3771280">
    <ele>4816.0</ele>
    <time>2026-06-22T22:27:26Z</time>
   </trkpt>
   <trkpt lat="-3.0947560" lon="37.3771250">
    <ele>4816.1</ele>
    <time>2026-06-22T22:27:27Z</time>
   </trkpt>
   <trkpt lat="-3.0947550" lon="37.3771240">
    <ele>4816.1</ele>
    <time>2026-06-22T22:27:28Z</time>
   </trkpt>
   <trkpt lat="-3.0947540" lon="37.3771250">
    <ele>4816.1</ele>
    <time>2026-06-22T22:27:29Z</time>
   </trkpt>
   <trkpt lat="-3.0947480" lon="37.3771260">
    <ele>4816.2</ele>
    <time>2026-06-22T22:27:30Z</time>
   </trkpt>
   <trkpt lat="-3.0947450" lon="37.3771230">
    <ele>4816.3</ele>
    <time>2026-06-22T22:27:31Z</time>
   </trkpt>
   <trkpt lat="-3.0947440" lon="37.3771220">
    <ele>4816.3</ele>
    <time>2026-06-22T22:27:32Z</time>
   </trkpt>
   <trkpt lat="-3.0947420" lon="37.3771210">
    <ele>4816.4</ele>
    <time>2026-06-22T22:27:33Z</time>
   </trkpt>
   <trkpt lat="-3.0947410" lon="37.3771230">
    <ele>4816.4</ele>
    <time>2026-06-22T22:27:34Z</time>
   </trkpt>
   <trkpt lat="-3.0947360" lon="37.3771230">
    <ele>4816.5</ele>
    <time>2026-06-22T22:27:35Z</time>
   </trkpt>
   <trkpt lat="-3.0947310" lon="37.3771220">
    <ele>4816.6</ele>
    <time>2026-06-22T22:27:36Z</time>
   </trkpt>
   <trkpt lat="-3.0947270" lon="37.3771210">
    <ele>4816.6</ele>
    <time>2026-06-22T22:27:37Z</time>
   </trkpt>
   <trkpt lat="-3.0947240" lon="37.3771210">
    <ele>4816.7</ele>
    <time>2026-06-22T22:27:38Z</time>
   </trkpt>
   <trkpt lat="-3.0947240" lon="37.3771200">
    <ele>4816.7</ele>
    <time>2026-06-22T22:27:39Z</time>
   </trkpt>
   <trkpt lat="-3.0947190" lon="37.3771200">
    <ele>4816.8</ele>
    <time>2026-06-22T22:27:40Z</time>
   </trkpt>
   <trkpt lat="-3.0947160" lon="37.3771190">
    <ele>4816.8</ele>
    <time>2026-06-22T22:27:42Z</time>
   </trkpt>
   <trkpt lat="-3.0947120" lon="37.3771180">
    <ele>4816.9</ele>
    <time>2026-06-22T22:27:43Z</time>
   </trkpt>
   <trkpt lat="-3.0947090" lon="37.3771170">
    <ele>4817.0</ele>
    <time>2026-06-22T22:27:44Z</time>
   </trkpt>
   <trkpt lat="-3.0947090" lon="37.3771150">
    <ele>4817.0</ele>
    <time>2026-06-22T22:27:45Z</time>
   </trkpt>
   <trkpt lat="-3.0947040" lon="37.3771130">
    <ele>4817.1</ele>
    <time>2026-06-22T22:27:46Z</time>
   </trkpt>
   <trkpt lat="-3.0947030" lon="37.3771120">
    <ele>4817.1</ele>
    <time>2026-06-22T22:27:47Z</time>
   </trkpt>
   <trkpt lat="-3.0947000" lon="37.3771100">
    <ele>4817.2</ele>
    <time>2026-06-22T22:27:48Z</time>
   </trkpt>
   <trkpt lat="-3.0946970" lon="37.3771080">
    <ele>4817.2</ele>
    <time>2026-06-22T22:27:49Z</time>
   </trkpt>
   <trkpt lat="-3.0946950" lon="37.3771090">
    <ele>4817.3</ele>
    <time>2026-06-22T22:27:50Z</time>
   </trkpt>
   <trkpt lat="-3.0946920" lon="37.3771060">
    <ele>4817.3</ele>
    <time>2026-06-22T22:27:51Z</time>
   </trkpt>
   <trkpt lat="-3.0946890" lon="37.3771070">
    <ele>4817.4</ele>
    <time>2026-06-22T22:27:52Z</time>
   </trkpt>
   <trkpt lat="-3.0946870" lon="37.3771050">
    <ele>4817.4</ele>
    <time>2026-06-22T22:27:53Z</time>
   </trkpt>
   <trkpt lat="-3.0946840" lon="37.3771060">
    <ele>4817.5</ele>
    <time>2026-06-22T22:27:54Z</time>
   </trkpt>
   <trkpt lat="-3.0946810" lon="37.3771050">
    <ele>4817.5</ele>
    <time>2026-06-22T22:27:55Z</time>
   </trkpt>
   <trkpt lat="-3.0946770" lon="37.3771030">
    <ele>4817.6</ele>
    <time>2026-06-22T22:27:56Z</time>
   </trkpt>
   <trkpt lat="-3.0946760" lon="37.3771000">
    <ele>4817.7</ele>
    <time>2026-06-22T22:27:57Z</time>
   </trkpt>
   <trkpt lat="-3.0946730" lon="37.3770980">
    <ele>4817.7</ele>
    <time>2026-06-22T22:27:58Z</time>
   </trkpt>
   <trkpt lat="-3.0946720" lon="37.3770970">
    <ele>4817.7</ele>
    <time>2026-06-22T22:27:59Z</time>
   </trkpt>
   <trkpt lat="-3.0946690" lon="37.3770940">
    <ele>4817.8</ele>
    <time>2026-06-22T22:28:00Z</time>
   </trkpt>
   <trkpt lat="-3.0946680" lon="37.3770920">
    <ele>4817.9</ele>
    <time>2026-06-22T22:28:01Z</time>
   </trkpt>
   <trkpt lat="-3.0946630" lon="37.3770900">
    <ele>4817.9</ele>
    <time>2026-06-22T22:28:02Z</time>
   </trkpt>
   <trkpt lat="-3.0946630" lon="37.3770900">
    <ele>4817.9</ele>
    <time>2026-06-22T22:28:03Z</time>
   </trkpt>
   <trkpt lat="-3.0946610" lon="37.3770870">
    <ele>4818.0</ele>
    <time>2026-06-22T22:28:04Z</time>
   </trkpt>
   <trkpt lat="-3.0946590" lon="37.3770870">
    <ele>4818.0</ele>
    <time>2026-06-22T22:28:05Z</time>
   </trkpt>
   <trkpt lat="-3.0946570" lon="37.3770850">
    <ele>4818.1</ele>
    <time>2026-06-22T22:28:06Z</time>
   </trkpt>
   <trkpt lat="-3.0946550" lon="37.3770840">
    <ele>4818.1</ele>
    <time>2026-06-22T22:28:07Z</time>
   </trkpt>
   <trkpt lat="-3.0946530" lon="37.3770810">
    <ele>4818.2</ele>
    <time>2026-06-22T22:28:08Z</time>
   </trkpt>
   <trkpt lat="-3.0946510" lon="37.3770800">
    <ele>4818.2</ele>
    <time>2026-06-22T22:28:09Z</time>
   </trkpt>
   <trkpt lat="-3.0946480" lon="37.3770770">
    <ele>4818.3</ele>
    <time>2026-06-22T22:28:10Z</time>
   </trkpt>
   <trkpt lat="-3.0946460" lon="37.3770760">
    <ele>4818.3</ele>
    <time>2026-06-22T22:28:11Z</time>
   </trkpt>
   <trkpt lat="-3.0946420" lon="37.3770730">
    <ele>4818.4</ele>
    <time>2026-06-22T22:28:12Z</time>
   </trkpt>
   <trkpt lat="-3.0946400" lon="37.3770720">
    <ele>4818.4</ele>
    <time>2026-06-22T22:28:13Z</time>
   </trkpt>
   <trkpt lat="-3.0946370" lon="37.3770700">
    <ele>4818.5</ele>
    <time>2026-06-22T22:28:14Z</time>
   </trkpt>
   <trkpt lat="-3.0946350" lon="37.3770680">
    <ele>4818.6</ele>
    <time>2026-06-22T22:28:15Z</time>
   </trkpt>
   <trkpt lat="-3.0946310" lon="37.3770660">
    <ele>4818.6</ele>
    <time>2026-06-22T22:28:16Z</time>
   </trkpt>
   <trkpt lat="-3.0946290" lon="37.3770650">
    <ele>4818.7</ele>
    <time>2026-06-22T22:28:17Z</time>
   </trkpt>
   <trkpt lat="-3.0946260" lon="37.3770620">
    <ele>4818.7</ele>
    <time>2026-06-22T22:28:18Z</time>
   </trkpt>
   <trkpt lat="-3.0946220" lon="37.3770600">
    <ele>4818.8</ele>
    <time>2026-06-22T22:28:19Z</time>
   </trkpt>
   <trkpt lat="-3.0946210" lon="37.3770610">
    <ele>4818.8</ele>
    <time>2026-06-22T22:28:20Z</time>
   </trkpt>
   <trkpt lat="-3.0946170" lon="37.3770610">
    <ele>4818.9</ele>
    <time>2026-06-22T22:28:21Z</time>
   </trkpt>
   <trkpt lat="-3.0946130" lon="37.3770600">
    <ele>4819.0</ele>
    <time>2026-06-22T22:28:22Z</time>
   </trkpt>
   <trkpt lat="-3.0946110" lon="37.3770600">
    <ele>4819.0</ele>
    <time>2026-06-22T22:28:23Z</time>
   </trkpt>
   <trkpt lat="-3.0946070" lon="37.3770590">
    <ele>4819.1</ele>
    <time>2026-06-22T22:28:24Z</time>
   </trkpt>
   <trkpt lat="-3.0946020" lon="37.3770560">
    <ele>4819.2</ele>
    <time>2026-06-22T22:28:25Z</time>
   </trkpt>
   <trkpt lat="-3.0946010" lon="37.3770590">
    <ele>4819.2</ele>
    <time>2026-06-22T22:28:26Z</time>
   </trkpt>
   <trkpt lat="-3.0946010" lon="37.3770560">
    <ele>4819.3</ele>
    <time>2026-06-22T22:28:27Z</time>
   </trkpt>
   <trkpt lat="-3.0945960" lon="37.3770550">
    <ele>4819.4</ele>
    <time>2026-06-22T22:28:28Z</time>
   </trkpt>
   <trkpt lat="-3.0945910" lon="37.3770570">
    <ele>4819.4</ele>
    <time>2026-06-22T22:28:29Z</time>
   </trkpt>
   <trkpt lat="-3.0945930" lon="37.3770610">
    <ele>4819.5</ele>
    <time>2026-06-22T22:28:30Z</time>
   </trkpt>
   <trkpt lat="-3.0945850" lon="37.3770550">
    <ele>4819.7</ele>
    <time>2026-06-22T22:28:31Z</time>
   </trkpt>
   <trkpt lat="-3.0945870" lon="37.3770540">
    <ele>4819.7</ele>
    <time>2026-06-22T22:28:32Z</time>
   </trkpt>
   <trkpt lat="-3.0945870" lon="37.3770530">
    <ele>4819.8</ele>
    <time>2026-06-22T22:28:33Z</time>
   </trkpt>
   <trkpt lat="-3.0945820" lon="37.3770520">
    <ele>4819.8</ele>
    <time>2026-06-22T22:28:34Z</time>
   </trkpt>
   <trkpt lat="-3.0945790" lon="37.3770530">
    <ele>4819.9</ele>
    <time>2026-06-22T22:28:35Z</time>
   </trkpt>
   <trkpt lat="-3.0945770" lon="37.3770520">
    <ele>4819.9</ele>
    <time>2026-06-22T22:28:36Z</time>
   </trkpt>
   <trkpt lat="-3.0945750" lon="37.3770510">
    <ele>4820.0</ele>
    <time>2026-06-22T22:28:37Z</time>
   </trkpt>
   <trkpt lat="-3.0945710" lon="37.3770500">
    <ele>4820.0</ele>
    <time>2026-06-22T22:28:38Z</time>
   </trkpt>
   <trkpt lat="-3.0945730" lon="37.3770500">
    <ele>4820.1</ele>
    <time>2026-06-22T22:28:39Z</time>
   </trkpt>
   <trkpt lat="-3.0945660" lon="37.3770470">
    <ele>4820.2</ele>
    <time>2026-06-22T22:28:40Z</time>
   </trkpt>
   <trkpt lat="-3.0945660" lon="37.3770470">
    <ele>4820.2</ele>
    <time>2026-06-22T22:28:41Z</time>
   </trkpt>
   <trkpt lat="-3.0945610" lon="37.3770450">
    <ele>4820.3</ele>
    <time>2026-06-22T22:28:42Z</time>
   </trkpt>
   <trkpt lat="-3.0945610" lon="37.3770470">
    <ele>4820.3</ele>
    <time>2026-06-22T22:28:43Z</time>
   </trkpt>
   <trkpt lat="-3.0945550" lon="37.3770440">
    <ele>4820.4</ele>
    <time>2026-06-22T22:28:44Z</time>
   </trkpt>
   <trkpt lat="-3.0945560" lon="37.3770440">
    <ele>4820.5</ele>
    <time>2026-06-22T22:28:45Z</time>
   </trkpt>
   <trkpt lat="-3.0945500" lon="37.3770410">
    <ele>4820.6</ele>
    <time>2026-06-22T22:28:46Z</time>
   </trkpt>
   <trkpt lat="-3.0945490" lon="37.3770420">
    <ele>4820.6</ele>
    <time>2026-06-22T22:28:47Z</time>
   </trkpt>
   <trkpt lat="-3.0945470" lon="37.3770410">
    <ele>4820.6</ele>
    <time>2026-06-22T22:28:48Z</time>
   </trkpt>
   <trkpt lat="-3.0945440" lon="37.3770420">
    <ele>4820.7</ele>
    <time>2026-06-22T22:28:49Z</time>
   </trkpt>
   <trkpt lat="-3.0945420" lon="37.3770400">
    <ele>4820.7</ele>
    <time>2026-06-22T22:28:50Z</time>
   </trkpt>
   <trkpt lat="-3.0945390" lon="37.3770400">
    <ele>4820.8</ele>
    <time>2026-06-22T22:28:51Z</time>
   </trkpt>
   <trkpt lat="-3.0945350" lon="37.3770390">
    <ele>4820.9</ele>
    <time>2026-06-22T22:28:52Z</time>
   </trkpt>
   <trkpt lat="-3.0945330" lon="37.3770390">
    <ele>4820.9</ele>
    <time>2026-06-22T22:28:53Z</time>
   </trkpt>
   <trkpt lat="-3.0945300" lon="37.3770380">
    <ele>4821.0</ele>
    <time>2026-06-22T22:28:54Z</time>
   </trkpt>
   <trkpt lat="-3.0945290" lon="37.3770390">
    <ele>4821.0</ele>
    <time>2026-06-22T22:28:55Z</time>
   </trkpt>
   <trkpt lat="-3.0945270" lon="37.3770380">
    <ele>4821.0</ele>
    <time>2026-06-22T22:28:56Z</time>
   </trkpt>
   <trkpt lat="-3.0945230" lon="37.3770370">
    <ele>4821.1</ele>
    <time>2026-06-22T22:28:57Z</time>
   </trkpt>
   <trkpt lat="-3.0945180" lon="37.3770330">
    <ele>4821.2</ele>
    <time>2026-06-22T22:28:58Z</time>
   </trkpt>
   <trkpt lat="-3.0945190" lon="37.3770350">
    <ele>4821.2</ele>
    <time>2026-06-22T22:28:59Z</time>
   </trkpt>
   <trkpt lat="-3.0945150" lon="37.3770330">
    <ele>4821.3</ele>
    <time>2026-06-22T22:29:00Z</time>
   </trkpt>
   <trkpt lat="-3.0945120" lon="37.3770310">
    <ele>4821.4</ele>
    <time>2026-06-22T22:29:01Z</time>
   </trkpt>
   <trkpt lat="-3.0945100" lon="37.3770290">
    <ele>4821.4</ele>
    <time>2026-06-22T22:29:02Z</time>
   </trkpt>
   <trkpt lat="-3.0945080" lon="37.3770280">
    <ele>4821.5</ele>
    <time>2026-06-22T22:29:03Z</time>
   </trkpt>
   <trkpt lat="-3.0945130" lon="37.3770310">
    <ele>4821.6</ele>
    <time>2026-06-22T22:29:04Z</time>
   </trkpt>
   <trkpt lat="-3.0945050" lon="37.3770310">
    <ele>4821.7</ele>
    <time>2026-06-22T22:29:05Z</time>
   </trkpt>
   <trkpt lat="-3.0945050" lon="37.3770310">
    <ele>4821.7</ele>
    <time>2026-06-22T22:29:06Z</time>
   </trkpt>
   <trkpt lat="-3.0945040" lon="37.3770320">
    <ele>4821.7</ele>
    <time>2026-06-22T22:29:07Z</time>
   </trkpt>
   <trkpt lat="-3.0945000" lon="37.3770310">
    <ele>4821.8</ele>
    <time>2026-06-22T22:29:08Z</time>
   </trkpt>
   <trkpt lat="-3.0945000" lon="37.3770320">
    <ele>4821.8</ele>
    <time>2026-06-22T22:29:09Z</time>
   </trkpt>
   <trkpt lat="-3.0944970" lon="37.3770310">
    <ele>4821.9</ele>
    <time>2026-06-22T22:29:10Z</time>
   </trkpt>
   <trkpt lat="-3.0944960" lon="37.3770310">
    <ele>4821.9</ele>
    <time>2026-06-22T22:29:11Z</time>
   </trkpt>
   <trkpt lat="-3.0944960" lon="37.3770300">
    <ele>4821.9</ele>
    <time>2026-06-22T22:29:12Z</time>
   </trkpt>
   <trkpt lat="-3.0944950" lon="37.3770310">
    <ele>4821.9</ele>
    <time>2026-06-22T22:29:13Z</time>
   </trkpt>
   <trkpt lat="-3.0944930" lon="37.3770290">
    <ele>4822.0</ele>
    <time>2026-06-22T22:29:14Z</time>
   </trkpt>
   <trkpt lat="-3.0944910" lon="37.3770300">
    <ele>4822.0</ele>
    <time>2026-06-22T22:29:15Z</time>
   </trkpt>
   <trkpt lat="-3.0944890" lon="37.3770280">
    <ele>4822.1</ele>
    <time>2026-06-22T22:29:16Z</time>
   </trkpt>
   <trkpt lat="-3.0944850" lon="37.3770290">
    <ele>4822.1</ele>
    <time>2026-06-22T22:29:17Z</time>
   </trkpt>
   <trkpt lat="-3.0944810" lon="37.3770280">
    <ele>4822.2</ele>
    <time>2026-06-22T22:29:18Z</time>
   </trkpt>
   <trkpt lat="-3.0944790" lon="37.3770280">
    <ele>4822.2</ele>
    <time>2026-06-22T22:29:19Z</time>
   </trkpt>
   <trkpt lat="-3.0944770" lon="37.3770280">
    <ele>4822.3</ele>
    <time>2026-06-22T22:29:20Z</time>
   </trkpt>
   <trkpt lat="-3.0944750" lon="37.3770270">
    <ele>4822.3</ele>
    <time>2026-06-22T22:29:21Z</time>
   </trkpt>
   <trkpt lat="-3.0944720" lon="37.3770240">
    <ele>4822.4</ele>
    <time>2026-06-22T22:29:22Z</time>
   </trkpt>
   <trkpt lat="-3.0944700" lon="37.3770240">
    <ele>4822.4</ele>
    <time>2026-06-22T22:29:23Z</time>
   </trkpt>
   <trkpt lat="-3.0944670" lon="37.3770230">
    <ele>4822.5</ele>
    <time>2026-06-22T22:29:24Z</time>
   </trkpt>
   <trkpt lat="-3.0944650" lon="37.3770240">
    <ele>4822.5</ele>
    <time>2026-06-22T22:29:25Z</time>
   </trkpt>
   <trkpt lat="-3.0944630" lon="37.3770240">
    <ele>4822.5</ele>
    <time>2026-06-22T22:29:26Z</time>
   </trkpt>
   <trkpt lat="-3.0944590" lon="37.3770230">
    <ele>4822.6</ele>
    <time>2026-06-22T22:29:27Z</time>
   </trkpt>
   <trkpt lat="-3.0944560" lon="37.3770220">
    <ele>4822.7</ele>
    <time>2026-06-22T22:29:28Z</time>
   </trkpt>
   <trkpt lat="-3.0944550" lon="37.3770230">
    <ele>4822.7</ele>
    <time>2026-06-22T22:29:29Z</time>
   </trkpt>
   <trkpt lat="-3.0944540" lon="37.3770230">
    <ele>4822.7</ele>
    <time>2026-06-22T22:29:30Z</time>
   </trkpt>
   <trkpt lat="-3.0944500" lon="37.3770210">
    <ele>4822.8</ele>
    <time>2026-06-22T22:29:31Z</time>
   </trkpt>
   <trkpt lat="-3.0944480" lon="37.3770200">
    <ele>4822.8</ele>
    <time>2026-06-22T22:29:32Z</time>
   </trkpt>
   <trkpt lat="-3.0944450" lon="37.3770230">
    <ele>4822.9</ele>
    <time>2026-06-22T22:29:33Z</time>
   </trkpt>
   <trkpt lat="-3.0944370" lon="37.3770250">
    <ele>4823.0</ele>
    <time>2026-06-22T22:29:34Z</time>
   </trkpt>
   <trkpt lat="-3.0944300" lon="37.3770170">
    <ele>4823.2</ele>
    <time>2026-06-22T22:29:35Z</time>
   </trkpt>
   <trkpt lat="-3.0944380" lon="37.3770220">
    <ele>4823.4</ele>
    <time>2026-06-22T22:29:36Z</time>
   </trkpt>
   <trkpt lat="-3.0944300" lon="37.3770150">
    <ele>4823.6</ele>
    <time>2026-06-22T22:29:37Z</time>
   </trkpt>
   <trkpt lat="-3.0944290" lon="37.3770160">
    <ele>4823.6</ele>
    <time>2026-06-22T22:29:38Z</time>
   </trkpt>
   <trkpt lat="-3.0944280" lon="37.3770170">
    <ele>4823.6</ele>
    <time>2026-06-22T22:29:39Z</time>
   </trkpt>
   <trkpt lat="-3.0944250" lon="37.3770150">
    <ele>4823.7</ele>
    <time>2026-06-22T22:29:40Z</time>
   </trkpt>
   <trkpt lat="-3.0944230" lon="37.3770140">
    <ele>4823.7</ele>
    <time>2026-06-22T22:29:41Z</time>
   </trkpt>
   <trkpt lat="-3.0944180" lon="37.3770110">
    <ele>4823.8</ele>
    <time>2026-06-22T22:29:42Z</time>
   </trkpt>
   <trkpt lat="-3.0944190" lon="37.3770110">
    <ele>4823.8</ele>
    <time>2026-06-22T22:29:43Z</time>
   </trkpt>
   <trkpt lat="-3.0944210" lon="37.3770130">
    <ele>4823.9</ele>
    <time>2026-06-22T22:29:44Z</time>
   </trkpt>
   <trkpt lat="-3.0944210" lon="37.3770130">
    <ele>4823.9</ele>
    <time>2026-06-22T22:29:45Z</time>
   </trkpt>
   <trkpt lat="-3.0944180" lon="37.3770130">
    <ele>4823.9</ele>
    <time>2026-06-22T22:29:46Z</time>
   </trkpt>
   <trkpt lat="-3.0944150" lon="37.3770110">
    <ele>4824.0</ele>
    <time>2026-06-22T22:29:48Z</time>
   </trkpt>
   <trkpt lat="-3.0944150" lon="37.3770110">
    <ele>4824.0</ele>
    <time>2026-06-22T22:29:49Z</time>
   </trkpt>
   <trkpt lat="-3.0944170" lon="37.3770120">
    <ele>4824.0</ele>
    <time>2026-06-22T22:29:50Z</time>
   </trkpt>
   <trkpt lat="-3.0944160" lon="37.3770120">
    <ele>4824.0</ele>
    <time>2026-06-22T22:29:51Z</time>
   </trkpt>
   <trkpt lat="-3.0944170" lon="37.3770120">
    <ele>4824.1</ele>
    <time>2026-06-22T22:29:52Z</time>
   </trkpt>
   <trkpt lat="-3.0944160" lon="37.3770130">
    <ele>4824.1</ele>
    <time>2026-06-22T22:29:53Z</time>
   </trkpt>
   <trkpt lat="-3.0944150" lon="37.3770130">
    <ele>4824.1</ele>
    <time>2026-06-22T22:29:54Z</time>
   </trkpt>
   <trkpt lat="-3.0944150" lon="37.3770120">
    <ele>4824.1</ele>
    <time>2026-06-22T22:29:55Z</time>
   </trkpt>
   <trkpt lat="-3.0944170" lon="37.3770140">
    <ele>4824.2</ele>
    <time>2026-06-22T22:29:56Z</time>
   </trkpt>
   <trkpt lat="-3.0944200" lon="37.3770140">
    <ele>4824.2</ele>
    <time>2026-06-22T22:29:57Z</time>
   </trkpt>
   <trkpt lat="-3.0944200" lon="37.3770150">
    <ele>4824.2</ele>
    <time>2026-06-22T22:29:58Z</time>
   </trkpt>
   <trkpt lat="-3.0944180" lon="37.3770140">
    <ele>4824.3</ele>
    <time>2026-06-22T22:29:59Z</time>
   </trkpt>
   <trkpt lat="-3.0944200" lon="37.3770140">
    <ele>4824.3</ele>
    <time>2026-06-22T22:30:00Z</time>
   </trkpt>
   <trkpt lat="-3.0944210" lon="37.3770140">
    <ele>4824.3</ele>
    <time>2026-06-22T22:30:01Z</time>
   </trkpt>
   <trkpt lat="-3.0944190" lon="37.3770150">
    <ele>4824.4</ele>
    <time>2026-06-22T22:30:02Z</time>
   </trkpt>
   <trkpt lat="-3.0944180" lon="37.3770150">
    <ele>4824.4</ele>
    <time>2026-06-22T22:30:03Z</time>
   </trkpt>
   <trkpt lat="-3.0944180" lon="37.3770170">
    <ele>4824.4</ele>
    <time>2026-06-22T22:30:04Z</time>
   </trkpt>
   <trkpt lat="-3.0944180" lon="37.3770170">
    <ele>4824.4</ele>
    <time>2026-06-22T22:30:05Z</time>
   </trkpt>
   <trkpt lat="-3.0944170" lon="37.3770180">
    <ele>4824.4</ele>
    <time>2026-06-22T22:30:06Z</time>
   </trkpt>
   <trkpt lat="-3.0944170" lon="37.3770180">
    <ele>4824.4</ele>
    <time>2026-06-22T22:30:07Z</time>
   </trkpt>
   <trkpt lat="-3.0944170" lon="37.3770180">
    <ele>4824.4</ele>
    <time>2026-06-22T22:30:08Z</time>
   </trkpt>
   <trkpt lat="-3.0944180" lon="37.3770200">
    <ele>4824.5</ele>
    <time>2026-06-22T22:30:09Z</time>
   </trkpt>
   <trkpt lat="-3.0944180" lon="37.3770210">
    <ele>4824.5</ele>
    <time>2026-06-22T22:30:10Z</time>
   </trkpt>
   <trkpt lat="-3.0944180" lon="37.3770220">
    <ele>4824.5</ele>
    <time>2026-06-22T22:30:11Z</time>
   </trkpt>
   <trkpt lat="-3.0944180" lon="37.3770220">
    <ele>4824.5</ele>
    <time>2026-06-22T22:30:12Z</time>
   </trkpt>
   <trkpt lat="-3.0944180" lon="37.3770220">
    <ele>4824.5</ele>
    <time>2026-06-22T22:30:13Z</time>
   </trkpt>
   <trkpt lat="-3.0944190" lon="37.3770240">
    <ele>4824.6</ele>
    <time>2026-06-22T22:30:14Z</time>
   </trkpt>
   <trkpt lat="-3.0944210" lon="37.3770240">
    <ele>4824.6</ele>
    <time>2026-06-22T22:30:15Z</time>
   </trkpt>
   <trkpt lat="-3.0944230" lon="37.3770240">
    <ele>4824.6</ele>
    <time>2026-06-22T22:30:16Z</time>
   </trkpt>
   <trkpt lat="-3.0944230" lon="37.3770240">
    <ele>4824.6</ele>
    <time>2026-06-22T22:30:17Z</time>
   </trkpt>
   <trkpt lat="-3.0944230" lon="37.3770230">
    <ele>4824.6</ele>
    <time>2026-06-22T22:30:18Z</time>
   </trkpt>
   <trkpt lat="-3.0944240" lon="37.3770220">
    <ele>4824.7</ele>
    <time>2026-06-22T22:30:19Z</time>
   </trkpt>
   <trkpt lat="-3.0944250" lon="37.3770220">
    <ele>4824.7</ele>
    <time>2026-06-22T22:30:20Z</time>
   </trkpt>
   <trkpt lat="-3.0944260" lon="37.3770230">
    <ele>4824.7</ele>
    <time>2026-06-22T22:30:21Z</time>
   </trkpt>
   <trkpt lat="-3.0944260" lon="37.3770210">
    <ele>4824.7</ele>
    <time>2026-06-22T22:30:22Z</time>
   </trkpt>
   <trkpt lat="-3.0944170" lon="37.3770160">
    <ele>4824.9</ele>
    <time>2026-06-22T22:30:23Z</time>
   </trkpt>
   <trkpt lat="-3.0944240" lon="37.3770210">
    <ele>4825.1</ele>
    <time>2026-06-22T22:30:24Z</time>
   </trkpt>
   <trkpt lat="-3.0944240" lon="37.3770210">
    <ele>4825.1</ele>
    <time>2026-06-22T22:30:25Z</time>
   </trkpt>
   <trkpt lat="-3.0944240" lon="37.3770200">
    <ele>4825.1</ele>
    <time>2026-06-22T22:30:26Z</time>
   </trkpt>
   <trkpt lat="-3.0944240" lon="37.3770210">
    <ele>4825.1</ele>
    <time>2026-06-22T22:30:27Z</time>
   </trkpt>
   <trkpt lat="-3.0944240" lon="37.3770210">
    <ele>4825.1</ele>
    <time>2026-06-22T22:30:28Z</time>
   </trkpt>
   <trkpt lat="-3.0944250" lon="37.3770220">
    <ele>4825.1</ele>
    <time>2026-06-22T22:30:29Z</time>
   </trkpt>
   <trkpt lat="-3.0944270" lon="37.3770240">
    <ele>4825.2</ele>
    <time>2026-06-22T22:30:30Z</time>
   </trkpt>
   <trkpt lat="-3.0944250" lon="37.3770220">
    <ele>4825.2</ele>
    <time>2026-06-22T22:30:31Z</time>
   </trkpt>
   <trkpt lat="-3.0944260" lon="37.3770230">
    <ele>4825.2</ele>
    <time>2026-06-22T22:30:32Z</time>
   </trkpt>
   <trkpt lat="-3.0944260" lon="37.3770240">
    <ele>4825.3</ele>
    <time>2026-06-22T22:30:33Z</time>
   </trkpt>
   <trkpt lat="-3.0944260" lon="37.3770250">
    <ele>4825.3</ele>
    <time>2026-06-22T22:30:34Z</time>
   </trkpt>
   <trkpt lat="-3.0944260" lon="37.3770250">
    <ele>4825.3</ele>
    <time>2026-06-22T22:30:35Z</time>
   </trkpt>
   <trkpt lat="-3.0944250" lon="37.3770240">
    <ele>4825.3</ele>
    <time>2026-06-22T22:30:36Z</time>
   </trkpt>
   <trkpt lat="-3.0944260" lon="37.3770250">
    <ele>4825.3</ele>
    <time>2026-06-22T22:30:37Z</time>
   </trkpt>
   <trkpt lat="-3.0944270" lon="37.3770250">
    <ele>4825.3</ele>
    <time>2026-06-22T22:30:38Z</time>
   </trkpt>
   <trkpt lat="-3.0944270" lon="37.3770260">
    <ele>4825.4</ele>
    <time>2026-06-22T22:30:39Z</time>
   </trkpt>
   <trkpt lat="-3.0944240" lon="37.3770240">
    <ele>4825.4</ele>
    <time>2026-06-22T22:30:40Z</time>
   </trkpt>
   <trkpt lat="-3.0944260" lon="37.3770270">
    <ele>4825.5</ele>
    <time>2026-06-22T22:30:41Z</time>
   </trkpt>
   <trkpt lat="-3.0944260" lon="37.3770270">
    <ele>4825.5</ele>
    <time>2026-06-22T22:30:42Z</time>
   </trkpt>
   <trkpt lat="-3.0944260" lon="37.3770270">
    <ele>4825.5</ele>
    <time>2026-06-22T22:30:43Z</time>
   </trkpt>
   <trkpt lat="-3.0944270" lon="37.3770260">
    <ele>4825.5</ele>
    <time>2026-06-22T22:30:44Z</time>
   </trkpt>
   <trkpt lat="-3.0944270" lon="37.3770260">
    <ele>4825.5</ele>
    <time>2026-06-22T22:30:45Z</time>
   </trkpt>
   <trkpt lat="-3.0944250" lon="37.3770240">
    <ele>4825.5</ele>
    <time>2026-06-22T22:30:46Z</time>
   </trkpt>
   <trkpt lat="-3.0944250" lon="37.3770250">
    <ele>4825.6</ele>
    <time>2026-06-22T22:30:47Z</time>
   </trkpt>
   <trkpt lat="-3.0944260" lon="37.3770240">
    <ele>4825.6</ele>
    <time>2026-06-22T22:30:48Z</time>
   </trkpt>
   <trkpt lat="-3.0944260" lon="37.3770240">
    <ele>4825.6</ele>
    <time>2026-06-22T22:30:49Z</time>
   </trkpt>
   <trkpt lat="-3.0944260" lon="37.3770240">
    <ele>4825.6</ele>
    <time>2026-06-22T22:30:50Z</time>
   </trkpt>
   <trkpt lat="-3.0944260" lon="37.3770240">
    <ele>4825.6</ele>
    <time>2026-06-22T22:30:51Z</time>
   </trkpt>
   <trkpt lat="-3.0944160" lon="37.3770230">
    <ele>4825.8</ele>
    <time>2026-06-22T22:30:52Z</time>
   </trkpt>
   <trkpt lat="-3.0944220" lon="37.3770250">
    <ele>4825.9</ele>
    <time>2026-06-22T22:30:53Z</time>
   </trkpt>
   <trkpt lat="-3.0944230" lon="37.3770260">
    <ele>4825.9</ele>
    <time>2026-06-22T22:30:54Z</time>
   </trkpt>
   <trkpt lat="-3.0944240" lon="37.3770240">
    <ele>4825.9</ele>
    <time>2026-06-22T22:30:55Z</time>
   </trkpt>
   <trkpt lat="-3.0944220" lon="37.3770190">
    <ele>4826.0</ele>
    <time>2026-06-22T22:30:56Z</time>
   </trkpt>
   <trkpt lat="-3.0944240" lon="37.3770230">
    <ele>4826.1</ele>
    <time>2026-06-22T22:30:57Z</time>
   </trkpt>
   <trkpt lat="-3.0944250" lon="37.3770230">
    <ele>4826.1</ele>
    <time>2026-06-22T22:30:58Z</time>
   </trkpt>
   <trkpt lat="-3.0944250" lon="37.3770230">
    <ele>4826.1</ele>
    <time>2026-06-22T22:30:59Z</time>
   </trkpt>
   <trkpt lat="-3.0944270" lon="37.3770230">
    <ele>4826.1</ele>
    <time>2026-06-22T22:31:00Z</time>
   </trkpt>
   <trkpt lat="-3.0944250" lon="37.3770220">
    <ele>4826.2</ele>
    <time>2026-06-22T22:31:01Z</time>
   </trkpt>
   <trkpt lat="-3.0944250" lon="37.3770240">
    <ele>4826.2</ele>
    <time>2026-06-22T22:31:02Z</time>
   </trkpt>
   <trkpt lat="-3.0944270" lon="37.3770240">
    <ele>4826.2</ele>
    <time>2026-06-22T22:31:03Z</time>
   </trkpt>
   <trkpt lat="-3.0944270" lon="37.3770240">
    <ele>4826.2</ele>
    <time>2026-06-22T22:31:04Z</time>
   </trkpt>
   <trkpt lat="-3.0944260" lon="37.3770240">
    <ele>4826.3</ele>
    <time>2026-06-22T22:31:05Z</time>
   </trkpt>
   <trkpt lat="-3.0944270" lon="37.3770250">
    <ele>4826.3</ele>
    <time>2026-06-22T22:31:06Z</time>
   </trkpt>
   <trkpt lat="-3.0944260" lon="37.3770230">
    <ele>4826.3</ele>
    <time>2026-06-22T22:31:07Z</time>
   </trkpt>
   <trkpt lat="-3.0944250" lon="37.3770240">
    <ele>4826.3</ele>
    <time>2026-06-22T22:31:08Z</time>
   </trkpt>
   <trkpt lat="-3.0944260" lon="37.3770240">
    <ele>4826.4</ele>
    <time>2026-06-22T22:31:09Z</time>
   </trkpt>
   <trkpt lat="-3.0944260" lon="37.3770250">
    <ele>4826.4</ele>
    <time>2026-06-22T22:31:10Z</time>
   </trkpt>
   <trkpt lat="-3.0944260" lon="37.3770250">
    <ele>4826.4</ele>
    <time>2026-06-22T22:31:11Z</time>
   </trkpt>
   <trkpt lat="-3.0944270" lon="37.3770250">
    <ele>4826.4</ele>
    <time>2026-06-22T22:31:12Z</time>
   </trkpt>
   <trkpt lat="-3.0944260" lon="37.3770240">
    <ele>4826.4</ele>
    <time>2026-06-22T22:31:13Z</time>
   </trkpt>
   <trkpt lat="-3.0944260" lon="37.3770230">
    <ele>4826.4</ele>
    <time>2026-06-22T22:31:14Z</time>
   </trkpt>
   <trkpt lat="-3.0944260" lon="37.3770240">
    <ele>4826.4</ele>
    <time>2026-06-22T22:31:15Z</time>
   </trkpt>
   <trkpt lat="-3.0944260" lon="37.3770230">
    <ele>4826.5</ele>
    <time>2026-06-22T22:31:16Z</time>
   </trkpt>
   <trkpt lat="-3.0944270" lon="37.3770170">
    <ele>4826.6</ele>
    <time>2026-06-22T22:31:17Z</time>
   </trkpt>
   <trkpt lat="-3.0944240" lon="37.3770190">
    <ele>4826.6</ele>
    <time>2026-06-22T22:31:18Z</time>
   </trkpt>
   <trkpt lat="-3.0944250" lon="37.3770190">
    <ele>4826.6</ele>
    <time>2026-06-22T22:31:19Z</time>
   </trkpt>
   <trkpt lat="-3.0944270" lon="37.3770190">
    <ele>4826.7</ele>
    <time>2026-06-22T22:31:20Z</time>
   </trkpt>
   <trkpt lat="-3.0944270" lon="37.3770190">
    <ele>4826.7</ele>
    <time>2026-06-22T22:31:21Z</time>
   </trkpt>
   <trkpt lat="-3.0944280" lon="37.3770180">
    <ele>4826.7</ele>
    <time>2026-06-22T22:31:22Z</time>
   </trkpt>
   <trkpt lat="-3.0944280" lon="37.3770180">
    <ele>4826.7</ele>
    <time>2026-06-22T22:31:23Z</time>
   </trkpt>
   <trkpt lat="-3.0944280" lon="37.3770180">
    <ele>4826.7</ele>
    <time>2026-06-22T22:31:24Z</time>
   </trkpt>
   <trkpt lat="-3.0944270" lon="37.3770190">
    <ele>4826.7</ele>
    <time>2026-06-22T22:31:25Z</time>
   </trkpt>
   <trkpt lat="-3.0944280" lon="37.3770190">
    <ele>4826.7</ele>
    <time>2026-06-22T22:31:26Z</time>
   </trkpt>
   <trkpt lat="-3.0944270" lon="37.3770200">
    <ele>4826.8</ele>
    <time>2026-06-22T22:31:27Z</time>
   </trkpt>
   <trkpt lat="-3.0944270" lon="37.3770200">
    <ele>4826.8</ele>
    <time>2026-06-22T22:31:28Z</time>
   </trkpt>
   <trkpt lat="-3.0944260" lon="37.3770200">
    <ele>4826.8</ele>
    <time>2026-06-22T22:31:29Z</time>
   </trkpt>
   <trkpt lat="-3.0944270" lon="37.3770200">
    <ele>4826.8</ele>
    <time>2026-06-22T22:31:30Z</time>
   </trkpt>
   <trkpt lat="-3.0944260" lon="37.3770200">
    <ele>4826.8</ele>
    <time>2026-06-22T22:31:31Z</time>
   </trkpt>
   <trkpt lat="-3.0944280" lon="37.3770210">
    <ele>4826.9</ele>
    <time>2026-06-22T22:31:32Z</time>
   </trkpt>
   <trkpt lat="-3.0944260" lon="37.3770210">
    <ele>4826.9</ele>
    <time>2026-06-22T22:31:33Z</time>
   </trkpt>
   <trkpt lat="-3.0944270" lon="37.3770210">
    <ele>4826.9</ele>
    <time>2026-06-22T22:31:34Z</time>
   </trkpt>
   <trkpt lat="-3.0944260" lon="37.3770210">
    <ele>4826.9</ele>
    <time>2026-06-22T22:31:35Z</time>
   </trkpt>
   <trkpt lat="-3.0944250" lon="37.3770220">
    <ele>4826.9</ele>
    <time>2026-06-22T22:31:36Z</time>
   </trkpt>
   <trkpt lat="-3.0944250" lon="37.3770210">
    <ele>4827.0</ele>
    <time>2026-06-22T22:31:37Z</time>
   </trkpt>
   <trkpt lat="-3.0944250" lon="37.3770220">
    <ele>4827.0</ele>
    <time>2026-06-22T22:31:38Z</time>
   </trkpt>
   <trkpt lat="-3.0944240" lon="37.3770240">
    <ele>4827.0</ele>
    <time>2026-06-22T22:31:39Z</time>
   </trkpt>
   <trkpt lat="-3.0944240" lon="37.3770250">
    <ele>4827.0</ele>
    <time>2026-06-22T22:31:40Z</time>
   </trkpt>
   <trkpt lat="-3.0944240" lon="37.3770250">
    <ele>4827.0</ele>
    <time>2026-06-22T22:31:41Z</time>
   </trkpt>
   <trkpt lat="-3.0944240" lon="37.3770230">
    <ele>4827.1</ele>
    <time>2026-06-22T22:31:42Z</time>
   </trkpt>
   <trkpt lat="-3.0944230" lon="37.3770240">
    <ele>4827.1</ele>
    <time>2026-06-22T22:31:43Z</time>
   </trkpt>
   <trkpt lat="-3.0944210" lon="37.3770220">
    <ele>4827.1</ele>
    <time>2026-06-22T22:31:44Z</time>
   </trkpt>
   <trkpt lat="-3.0944190" lon="37.3770210">
    <ele>4827.2</ele>
    <time>2026-06-22T22:31:45Z</time>
   </trkpt>
   <trkpt lat="-3.0944230" lon="37.3770230">
    <ele>4827.2</ele>
    <time>2026-06-22T22:31:46Z</time>
   </trkpt>
   <trkpt lat="-3.0944240" lon="37.3770230">
    <ele>4827.3</ele>
    <time>2026-06-22T22:31:47Z</time>
   </trkpt>
   <trkpt lat="-3.0944230" lon="37.3770230">
    <ele>4827.3</ele>
    <time>2026-06-22T22:31:48Z</time>
   </trkpt>
   <trkpt lat="-3.0944230" lon="37.3770230">
    <ele>4827.3</ele>
    <time>2026-06-22T22:31:49Z</time>
   </trkpt>
   <trkpt lat="-3.0944220" lon="37.3770220">
    <ele>4827.3</ele>
    <time>2026-06-22T22:31:50Z</time>
   </trkpt>
   <trkpt lat="-3.0944230" lon="37.3770220">
    <ele>4827.3</ele>
    <time>2026-06-22T22:31:51Z</time>
   </trkpt>
   <trkpt lat="-3.0944180" lon="37.3770230">
    <ele>4827.4</ele>
    <time>2026-06-22T22:31:52Z</time>
   </trkpt>
   <trkpt lat="-3.0944220" lon="37.3770230">
    <ele>4827.5</ele>
    <time>2026-06-22T22:31:54Z</time>
   </trkpt>
   <trkpt lat="-3.0944210" lon="37.3770230">
    <ele>4827.5</ele>
    <time>2026-06-22T22:31:55Z</time>
   </trkpt>
   <trkpt lat="-3.0944220" lon="37.3770220">
    <ele>4827.5</ele>
    <time>2026-06-22T22:31:56Z</time>
   </trkpt>
   <trkpt lat="-3.0944240" lon="37.3770230">
    <ele>4827.5</ele>
    <time>2026-06-22T22:31:57Z</time>
   </trkpt>
   <trkpt lat="-3.0944230" lon="37.3770220">
    <ele>4827.6</ele>
    <time>2026-06-22T22:31:58Z</time>
   </trkpt>
   <trkpt lat="-3.0944250" lon="37.3770230">
    <ele>4827.6</ele>
    <time>2026-06-22T22:31:59Z</time>
   </trkpt>
   <trkpt lat="-3.0944250" lon="37.3770230">
    <ele>4827.6</ele>
    <time>2026-06-22T22:32:00Z</time>
   </trkpt>
   <trkpt lat="-3.0944260" lon="37.3770220">
    <ele>4827.6</ele>
    <time>2026-06-22T22:32:01Z</time>
   </trkpt>
   <trkpt lat="-3.0944260" lon="37.3770220">
    <ele>4827.6</ele>
    <time>2026-06-22T22:32:02Z</time>
   </trkpt>
   <trkpt lat="-3.0944290" lon="37.3770200">
    <ele>4827.7</ele>
    <time>2026-06-22T22:32:03Z</time>
   </trkpt>
   <trkpt lat="-3.0944290" lon="37.3770220">
    <ele>4827.7</ele>
    <time>2026-06-22T22:32:04Z</time>
   </trkpt>
   <trkpt lat="-3.0944300" lon="37.3770220">
    <ele>4827.7</ele>
    <time>2026-06-22T22:32:05Z</time>
   </trkpt>
   <trkpt lat="-3.0944300" lon="37.3770220">
    <ele>4827.7</ele>
    <time>2026-06-22T22:32:06Z</time>
   </trkpt>
   <trkpt lat="-3.0944310" lon="37.3770210">
    <ele>4827.8</ele>
    <time>2026-06-22T22:32:07Z</time>
   </trkpt>
   <trkpt lat="-3.0944310" lon="37.3770210">
    <ele>4827.8</ele>
    <time>2026-06-22T22:32:08Z</time>
   </trkpt>
   <trkpt lat="-3.0944310" lon="37.3770210">
    <ele>4827.8</ele>
    <time>2026-06-22T22:32:09Z</time>
   </trkpt>
   <trkpt lat="-3.0944320" lon="37.3770210">
    <ele>4827.8</ele>
    <time>2026-06-22T22:32:10Z</time>
   </trkpt>
   <trkpt lat="-3.0944320" lon="37.3770210">
    <ele>4827.8</ele>
    <time>2026-06-22T22:32:11Z</time>
   </trkpt>
   <trkpt lat="-3.0944320" lon="37.3770210">
    <ele>4827.8</ele>
    <time>2026-06-22T22:32:12Z</time>
   </trkpt>
   <trkpt lat="-3.0944320" lon="37.3770210">
    <ele>4827.8</ele>
    <time>2026-06-22T22:32:13Z</time>
   </trkpt>
   <trkpt lat="-3.0944310" lon="37.3770190">
    <ele>4827.8</ele>
    <time>2026-06-22T22:32:14Z</time>
   </trkpt>
   <trkpt lat="-3.0944300" lon="37.3770200">
    <ele>4827.8</ele>
    <time>2026-06-22T22:32:15Z</time>
   </trkpt>
   <trkpt lat="-3.0944320" lon="37.3770210">
    <ele>4827.9</ele>
    <time>2026-06-22T22:32:16Z</time>
   </trkpt>
   <trkpt lat="-3.0944310" lon="37.3770230">
    <ele>4827.9</ele>
    <time>2026-06-22T22:32:17Z</time>
   </trkpt>
   <trkpt lat="-3.0944320" lon="37.3770210">
    <ele>4828.0</ele>
    <time>2026-06-22T22:32:18Z</time>
   </trkpt>
   <trkpt lat="-3.0944320" lon="37.3770190">
    <ele>4828.0</ele>
    <time>2026-06-22T22:32:19Z</time>
   </trkpt>
   <trkpt lat="-3.0944330" lon="37.3770170">
    <ele>4828.0</ele>
    <time>2026-06-22T22:32:20Z</time>
   </trkpt>
   <trkpt lat="-3.0944270" lon="37.3770100">
    <ele>4828.2</ele>
    <time>2026-06-22T22:32:21Z</time>
   </trkpt>
   <trkpt lat="-3.0944270" lon="37.3770110">
    <ele>4828.2</ele>
    <time>2026-06-22T22:32:22Z</time>
   </trkpt>
   <trkpt lat="-3.0944250" lon="37.3770090">
    <ele>4828.2</ele>
    <time>2026-06-22T22:32:23Z</time>
   </trkpt>
   <trkpt lat="-3.0944240" lon="37.3770100">
    <ele>4828.3</ele>
    <time>2026-06-22T22:32:24Z</time>
   </trkpt>
   <trkpt lat="-3.0944240" lon="37.3770140">
    <ele>4828.3</ele>
    <time>2026-06-22T22:32:25Z</time>
   </trkpt>
   <trkpt lat="-3.0944250" lon="37.3770150">
    <ele>4828.4</ele>
    <time>2026-06-22T22:32:26Z</time>
   </trkpt>
   <trkpt lat="-3.0944260" lon="37.3770150">
    <ele>4828.4</ele>
    <time>2026-06-22T22:32:27Z</time>
   </trkpt>
   <trkpt lat="-3.0944260" lon="37.3770160">
    <ele>4828.4</ele>
    <time>2026-06-22T22:32:28Z</time>
   </trkpt>
   <trkpt lat="-3.0944270" lon="37.3770170">
    <ele>4828.4</ele>
    <time>2026-06-22T22:32:29Z</time>
   </trkpt>
   <trkpt lat="-3.0944270" lon="37.3770170">
    <ele>4828.4</ele>
    <time>2026-06-22T22:32:30Z</time>
   </trkpt>
   <trkpt lat="-3.0944270" lon="37.3770170">
    <ele>4828.4</ele>
    <time>2026-06-22T22:32:31Z</time>
   </trkpt>
   <trkpt lat="-3.0944270" lon="37.3770180">
    <ele>4828.4</ele>
    <time>2026-06-22T22:32:32Z</time>
   </trkpt>
   <trkpt lat="-3.0944270" lon="37.3770180">
    <ele>4828.4</ele>
    <time>2026-06-22T22:32:33Z</time>
   </trkpt>
   <trkpt lat="-3.0944260" lon="37.3770190">
    <ele>4828.5</ele>
    <time>2026-06-22T22:32:34Z</time>
   </trkpt>
   <trkpt lat="-3.0944260" lon="37.3770190">
    <ele>4828.5</ele>
    <time>2026-06-22T22:32:35Z</time>
   </trkpt>
   <trkpt lat="-3.0944250" lon="37.3770190">
    <ele>4828.5</ele>
    <time>2026-06-22T22:32:36Z</time>
   </trkpt>
   <trkpt lat="-3.0944260" lon="37.3770190">
    <ele>4828.5</ele>
    <time>2026-06-22T22:32:37Z</time>
   </trkpt>
   <trkpt lat="-3.0944250" lon="37.3770180">
    <ele>4828.5</ele>
    <time>2026-06-22T22:32:38Z</time>
   </trkpt>
   <trkpt lat="-3.0944250" lon="37.3770180">
    <ele>4828.5</ele>
    <time>2026-06-22T22:32:39Z</time>
   </trkpt>
   <trkpt lat="-3.0944260" lon="37.3770170">
    <ele>4828.5</ele>
    <time>2026-06-22T22:32:40Z</time>
   </trkpt>
   <trkpt lat="-3.0944250" lon="37.3770160">
    <ele>4828.6</ele>
    <time>2026-06-22T22:32:41Z</time>
   </trkpt>
   <trkpt lat="-3.0944250" lon="37.3770160">
    <ele>4828.6</ele>
    <time>2026-06-22T22:32:42Z</time>
   </trkpt>
   <trkpt lat="-3.0944240" lon="37.3770160">
    <ele>4828.6</ele>
    <time>2026-06-22T22:32:43Z</time>
   </trkpt>
   <trkpt lat="-3.0944240" lon="37.3770170">
    <ele>4828.6</ele>
    <time>2026-06-22T22:32:44Z</time>
   </trkpt>
   <trkpt lat="-3.0944250" lon="37.3770180">
    <ele>4828.6</ele>
    <time>2026-06-22T22:32:45Z</time>
   </trkpt>
   <trkpt lat="-3.0944240" lon="37.3770200">
    <ele>4828.6</ele>
    <time>2026-06-22T22:32:46Z</time>
   </trkpt>
   <trkpt lat="-3.0944220" lon="37.3770190">
    <ele>4828.7</ele>
    <time>2026-06-22T22:32:47Z</time>
   </trkpt>
   <trkpt lat="-3.0944230" lon="37.3770200">
    <ele>4828.7</ele>
    <time>2026-06-22T22:32:48Z</time>
   </trkpt>
   <trkpt lat="-3.0944230" lon="37.3770200">
    <ele>4828.7</ele>
    <time>2026-06-22T22:32:49Z</time>
   </trkpt>
   <trkpt lat="-3.0944210" lon="37.3770200">
    <ele>4828.7</ele>
    <time>2026-06-22T22:32:50Z</time>
   </trkpt>
   <trkpt lat="-3.0944210" lon="37.3770190">
    <ele>4828.7</ele>
    <time>2026-06-22T22:32:51Z</time>
   </trkpt>
   <trkpt lat="-3.0944210" lon="37.3770190">
    <ele>4828.7</ele>
    <time>2026-06-22T22:32:52Z</time>
   </trkpt>
   <trkpt lat="-3.0944210" lon="37.3770180">
    <ele>4828.8</ele>
    <time>2026-06-22T22:32:53Z</time>
   </trkpt>
   <trkpt lat="-3.0944210" lon="37.3770180">
    <ele>4828.8</ele>
    <time>2026-06-22T22:32:54Z</time>
   </trkpt>
   <trkpt lat="-3.0944200" lon="37.3770170">
    <ele>4828.8</ele>
    <time>2026-06-22T22:32:55Z</time>
   </trkpt>
   <trkpt lat="-3.0944220" lon="37.3770150">
    <ele>4828.8</ele>
    <time>2026-06-22T22:32:56Z</time>
   </trkpt>
   <trkpt lat="-3.0944230" lon="37.3770160">
    <ele>4828.9</ele>
    <time>2026-06-22T22:32:57Z</time>
   </trkpt>
   <trkpt lat="-3.0944230" lon="37.3770160">
    <ele>4828.9</ele>
    <time>2026-06-22T22:32:58Z</time>
   </trkpt>
   <trkpt lat="-3.0944230" lon="37.3770170">
    <ele>4828.9</ele>
    <time>2026-06-22T22:32:59Z</time>
   </trkpt>
   <trkpt lat="-3.0944220" lon="37.3770170">
    <ele>4828.9</ele>
    <time>2026-06-22T22:33:00Z</time>
   </trkpt>
   <trkpt lat="-3.0944220" lon="37.3770170">
    <ele>4828.9</ele>
    <time>2026-06-22T22:33:01Z</time>
   </trkpt>
   <trkpt lat="-3.0944220" lon="37.3770180">
    <ele>4828.9</ele>
    <time>2026-06-22T22:33:02Z</time>
   </trkpt>
   <trkpt lat="-3.0944210" lon="37.3770200">
    <ele>4828.9</ele>
    <time>2026-06-22T22:33:03Z</time>
   </trkpt>
   <trkpt lat="-3.0944210" lon="37.3770200">
    <ele>4828.9</ele>
    <time>2026-06-22T22:33:04Z</time>
   </trkpt>
   <trkpt lat="-3.0944210" lon="37.3770200">
    <ele>4828.9</ele>
    <time>2026-06-22T22:33:05Z</time>
   </trkpt>
   <trkpt lat="-3.0944200" lon="37.3770190">
    <ele>4829.0</ele>
    <time>2026-06-22T22:33:06Z</time>
   </trkpt>
   <trkpt lat="-3.0944190" lon="37.3770180">
    <ele>4829.0</ele>
    <time>2026-06-22T22:33:07Z</time>
   </trkpt>
   <trkpt lat="-3.0944180" lon="37.3770180">
    <ele>4829.0</ele>
    <time>2026-06-22T22:33:08Z</time>
   </trkpt>
   <trkpt lat="-3.0944170" lon="37.3770170">
    <ele>4829.0</ele>
    <time>2026-06-22T22:33:09Z</time>
   </trkpt>
   <trkpt lat="-3.0944190" lon="37.3770160">
    <ele>4829.1</ele>
    <time>2026-06-22T22:33:10Z</time>
   </trkpt>
   <trkpt lat="-3.0944170" lon="37.3770160">
    <ele>4829.1</ele>
    <time>2026-06-22T22:33:11Z</time>
   </trkpt>
   <trkpt lat="-3.0944170" lon="37.3770170">
    <ele>4829.1</ele>
    <time>2026-06-22T22:33:12Z</time>
   </trkpt>
   <trkpt lat="-3.0944160" lon="37.3770160">
    <ele>4829.1</ele>
    <time>2026-06-22T22:33:13Z</time>
   </trkpt>
   <trkpt lat="-3.0944170" lon="37.3770170">
    <ele>4829.1</ele>
    <time>2026-06-22T22:33:14Z</time>
   </trkpt>
   <trkpt lat="-3.0944160" lon="37.3770170">
    <ele>4829.2</ele>
    <time>2026-06-22T22:33:15Z</time>
   </trkpt>
   <trkpt lat="-3.0944120" lon="37.3770160">
    <ele>4829.2</ele>
    <time>2026-06-22T22:33:16Z</time>
   </trkpt>
   <trkpt lat="-3.0944100" lon="37.3770170">
    <ele>4829.3</ele>
    <time>2026-06-22T22:33:17Z</time>
   </trkpt>
   <trkpt lat="-3.0944080" lon="37.3770160">
    <ele>4829.3</ele>
    <time>2026-06-22T22:33:18Z</time>
   </trkpt>
   <trkpt lat="-3.0944060" lon="37.3770160">
    <ele>4829.3</ele>
    <time>2026-06-22T22:33:19Z</time>
   </trkpt>
   <trkpt lat="-3.0944010" lon="37.3770160">
    <ele>4829.4</ele>
    <time>2026-06-22T22:33:20Z</time>
   </trkpt>
   <trkpt lat="-3.0943980" lon="37.3770160">
    <ele>4829.5</ele>
    <time>2026-06-22T22:33:21Z</time>
   </trkpt>
   <trkpt lat="-3.0943930" lon="37.3770150">
    <ele>4829.5</ele>
    <time>2026-06-22T22:33:22Z</time>
   </trkpt>
   <trkpt lat="-3.0943870" lon="37.3770130">
    <ele>4829.6</ele>
    <time>2026-06-22T22:33:23Z</time>
   </trkpt>
   <trkpt lat="-3.0943860" lon="37.3770130">
    <ele>4829.7</ele>
    <time>2026-06-22T22:33:24Z</time>
   </trkpt>
   <trkpt lat="-3.0943810" lon="37.3770140">
    <ele>4829.7</ele>
    <time>2026-06-22T22:33:25Z</time>
   </trkpt>
   <trkpt lat="-3.0943760" lon="37.3770100">
    <ele>4829.8</ele>
    <time>2026-06-22T22:33:26Z</time>
   </trkpt>
   <trkpt lat="-3.0943760" lon="37.3770130">
    <ele>4829.9</ele>
    <time>2026-06-22T22:33:27Z</time>
   </trkpt>
   <trkpt lat="-3.0943740" lon="37.3770100">
    <ele>4829.9</ele>
    <time>2026-06-22T22:33:28Z</time>
   </trkpt>
   <trkpt lat="-3.0943730" lon="37.3770120">
    <ele>4830.0</ele>
    <time>2026-06-22T22:33:29Z</time>
   </trkpt>
   <trkpt lat="-3.0943680" lon="37.3770100">
    <ele>4830.1</ele>
    <time>2026-06-22T22:33:30Z</time>
   </trkpt>
   <trkpt lat="-3.0943670" lon="37.3770110">
    <ele>4830.1</ele>
    <time>2026-06-22T22:33:31Z</time>
   </trkpt>
   <trkpt lat="-3.0943620" lon="37.3770100">
    <ele>4830.2</ele>
    <time>2026-06-22T22:33:32Z</time>
   </trkpt>
   <trkpt lat="-3.0943610" lon="37.3770110">
    <ele>4830.2</ele>
    <time>2026-06-22T22:33:33Z</time>
   </trkpt>
   <trkpt lat="-3.0943600" lon="37.3770090">
    <ele>4830.2</ele>
    <time>2026-06-22T22:33:34Z</time>
   </trkpt>
   <trkpt lat="-3.0943590" lon="37.3770080">
    <ele>4830.2</ele>
    <time>2026-06-22T22:33:35Z</time>
   </trkpt>
   <trkpt lat="-3.0943560" lon="37.3770050">
    <ele>4830.3</ele>
    <time>2026-06-22T22:33:36Z</time>
   </trkpt>
   <trkpt lat="-3.0943520" lon="37.3770010">
    <ele>4830.4</ele>
    <time>2026-06-22T22:33:37Z</time>
   </trkpt>
   <trkpt lat="-3.0943480" lon="37.3770000">
    <ele>4830.5</ele>
    <time>2026-06-22T22:33:38Z</time>
   </trkpt>
   <trkpt lat="-3.0943460" lon="37.3769980">
    <ele>4830.5</ele>
    <time>2026-06-22T22:33:39Z</time>
   </trkpt>
   <trkpt lat="-3.0943420" lon="37.3769980">
    <ele>4830.6</ele>
    <time>2026-06-22T22:33:40Z</time>
   </trkpt>
   <trkpt lat="-3.0943380" lon="37.3769960">
    <ele>4830.6</ele>
    <time>2026-06-22T22:33:41Z</time>
   </trkpt>
   <trkpt lat="-3.0943350" lon="37.3769940">
    <ele>4830.7</ele>
    <time>2026-06-22T22:33:42Z</time>
   </trkpt>
   <trkpt lat="-3.0943340" lon="37.3769950">
    <ele>4830.7</ele>
    <time>2026-06-22T22:33:43Z</time>
   </trkpt>
   <trkpt lat="-3.0943320" lon="37.3769930">
    <ele>4830.8</ele>
    <time>2026-06-22T22:33:44Z</time>
   </trkpt>
   <trkpt lat="-3.0943310" lon="37.3769930">
    <ele>4830.8</ele>
    <time>2026-06-22T22:33:45Z</time>
   </trkpt>
   <trkpt lat="-3.0943290" lon="37.3769930">
    <ele>4830.8</ele>
    <time>2026-06-22T22:33:46Z</time>
   </trkpt>
   <trkpt lat="-3.0943260" lon="37.3769930">
    <ele>4830.9</ele>
    <time>2026-06-22T22:33:47Z</time>
   </trkpt>
   <trkpt lat="-3.0943230" lon="37.3769910">
    <ele>4830.9</ele>
    <time>2026-06-22T22:33:48Z</time>
   </trkpt>
   <trkpt lat="-3.0943200" lon="37.3769910">
    <ele>4831.0</ele>
    <time>2026-06-22T22:33:49Z</time>
   </trkpt>
   <trkpt lat="-3.0943150" lon="37.3769890">
    <ele>4831.1</ele>
    <time>2026-06-22T22:33:50Z</time>
   </trkpt>
   <trkpt lat="-3.0943150" lon="37.3769890">
    <ele>4831.1</ele>
    <time>2026-06-22T22:33:51Z</time>
   </trkpt>
   <trkpt lat="-3.0943130" lon="37.3769890">
    <ele>4831.1</ele>
    <time>2026-06-22T22:33:52Z</time>
   </trkpt>
   <trkpt lat="-3.0943100" lon="37.3769870">
    <ele>4831.1</ele>
    <time>2026-06-22T22:33:53Z</time>
   </trkpt>
   <trkpt lat="-3.0943080" lon="37.3769870">
    <ele>4831.2</ele>
    <time>2026-06-22T22:33:54Z</time>
   </trkpt>
   <trkpt lat="-3.0943050" lon="37.3769870">
    <ele>4831.2</ele>
    <time>2026-06-22T22:33:55Z</time>
   </trkpt>
   <trkpt lat="-3.0943030" lon="37.3769870">
    <ele>4831.3</ele>
    <time>2026-06-22T22:33:56Z</time>
   </trkpt>
   <trkpt lat="-3.0943000" lon="37.3769850">
    <ele>4831.3</ele>
    <time>2026-06-22T22:33:57Z</time>
   </trkpt>
   <trkpt lat="-3.0942960" lon="37.3769840">
    <ele>4831.4</ele>
    <time>2026-06-22T22:33:58Z</time>
   </trkpt>
   <trkpt lat="-3.0942950" lon="37.3769840">
    <ele>4831.4</ele>
    <time>2026-06-22T22:34:00Z</time>
   </trkpt>
   <trkpt lat="-3.0942910" lon="37.3769840">
    <ele>4831.5</ele>
    <time>2026-06-22T22:34:01Z</time>
   </trkpt>
   <trkpt lat="-3.0942920" lon="37.3769850">
    <ele>4831.5</ele>
    <time>2026-06-22T22:34:02Z</time>
   </trkpt>
   <trkpt lat="-3.0942880" lon="37.3769840">
    <ele>4831.5</ele>
    <time>2026-06-22T22:34:03Z</time>
   </trkpt>
   <trkpt lat="-3.0942860" lon="37.3769820">
    <ele>4831.6</ele>
    <time>2026-06-22T22:34:04Z</time>
   </trkpt>
   <trkpt lat="-3.0942840" lon="37.3769820">
    <ele>4831.6</ele>
    <time>2026-06-22T22:34:05Z</time>
   </trkpt>
   <trkpt lat="-3.0942820" lon="37.3769810">
    <ele>4831.7</ele>
    <time>2026-06-22T22:34:06Z</time>
   </trkpt>
   <trkpt lat="-3.0942810" lon="37.3769830">
    <ele>4831.7</ele>
    <time>2026-06-22T22:34:07Z</time>
   </trkpt>
   <trkpt lat="-3.0942760" lon="37.3769810">
    <ele>4831.8</ele>
    <time>2026-06-22T22:34:08Z</time>
   </trkpt>
   <trkpt lat="-3.0942750" lon="37.3769820">
    <ele>4831.8</ele>
    <time>2026-06-22T22:34:09Z</time>
   </trkpt>
   <trkpt lat="-3.0942730" lon="37.3769820">
    <ele>4831.8</ele>
    <time>2026-06-22T22:34:10Z</time>
   </trkpt>
   <trkpt lat="-3.0942700" lon="37.3769800">
    <ele>4831.9</ele>
    <time>2026-06-22T22:34:11Z</time>
   </trkpt>
   <trkpt lat="-3.0942690" lon="37.3769800">
    <ele>4831.9</ele>
    <time>2026-06-22T22:34:12Z</time>
   </trkpt>
   <trkpt lat="-3.0942670" lon="37.3769800">
    <ele>4831.9</ele>
    <time>2026-06-22T22:34:13Z</time>
   </trkpt>
   <trkpt lat="-3.0942640" lon="37.3769800">
    <ele>4832.0</ele>
    <time>2026-06-22T22:34:14Z</time>
   </trkpt>
   <trkpt lat="-3.0942630" lon="37.3769800">
    <ele>4832.0</ele>
    <time>2026-06-22T22:34:15Z</time>
   </trkpt>
   <trkpt lat="-3.0942580" lon="37.3769800">
    <ele>4832.1</ele>
    <time>2026-06-22T22:34:16Z</time>
   </trkpt>
   <trkpt lat="-3.0942560" lon="37.3769790">
    <ele>4832.1</ele>
    <time>2026-06-22T22:34:17Z</time>
   </trkpt>
   <trkpt lat="-3.0942540" lon="37.3769790">
    <ele>4832.1</ele>
    <time>2026-06-22T22:34:18Z</time>
   </trkpt>
   <trkpt lat="-3.0942540" lon="37.3769780">
    <ele>4832.1</ele>
    <time>2026-06-22T22:34:19Z</time>
   </trkpt>
   <trkpt lat="-3.0942500" lon="37.3769790">
    <ele>4832.2</ele>
    <time>2026-06-22T22:34:20Z</time>
   </trkpt>
   <trkpt lat="-3.0942470" lon="37.3769790">
    <ele>4832.3</ele>
    <time>2026-06-22T22:34:21Z</time>
   </trkpt>
   <trkpt lat="-3.0942450" lon="37.3769790">
    <ele>4832.3</ele>
    <time>2026-06-22T22:34:22Z</time>
   </trkpt>
   <trkpt lat="-3.0942440" lon="37.3769800">
    <ele>4832.3</ele>
    <time>2026-06-22T22:34:23Z</time>
   </trkpt>
   <trkpt lat="-3.0942410" lon="37.3769790">
    <ele>4832.4</ele>
    <time>2026-06-22T22:34:24Z</time>
   </trkpt>
   <trkpt lat="-3.0942400" lon="37.3769790">
    <ele>4832.4</ele>
    <time>2026-06-22T22:34:25Z</time>
   </trkpt>
   <trkpt lat="-3.0942380" lon="37.3769780">
    <ele>4832.4</ele>
    <time>2026-06-22T22:34:26Z</time>
   </trkpt>
   <trkpt lat="-3.0942350" lon="37.3769750">
    <ele>4832.5</ele>
    <time>2026-06-22T22:34:27Z</time>
   </trkpt>
   <trkpt lat="-3.0942340" lon="37.3769740">
    <ele>4832.5</ele>
    <time>2026-06-22T22:34:28Z</time>
   </trkpt>
   <trkpt lat="-3.0942280" lon="37.3769710">
    <ele>4832.6</ele>
    <time>2026-06-22T22:34:29Z</time>
   </trkpt>
   <trkpt lat="-3.0942270" lon="37.3769710">
    <ele>4832.6</ele>
    <time>2026-06-22T22:34:30Z</time>
   </trkpt>
   <trkpt lat="-3.0942270" lon="37.3769720">
    <ele>4832.6</ele>
    <time>2026-06-22T22:34:31Z</time>
   </trkpt>
   <trkpt lat="-3.0942240" lon="37.3769700">
    <ele>4832.7</ele>
    <time>2026-06-22T22:34:32Z</time>
   </trkpt>
   <trkpt lat="-3.0942250" lon="37.3769700">
    <ele>4832.7</ele>
    <time>2026-06-22T22:34:33Z</time>
   </trkpt>
   <trkpt lat="-3.0942230" lon="37.3769700">
    <ele>4832.7</ele>
    <time>2026-06-22T22:34:34Z</time>
   </trkpt>
   <trkpt lat="-3.0942210" lon="37.3769680">
    <ele>4832.8</ele>
    <time>2026-06-22T22:34:35Z</time>
   </trkpt>
   <trkpt lat="-3.0942190" lon="37.3769670">
    <ele>4832.8</ele>
    <time>2026-06-22T22:34:36Z</time>
   </trkpt>
   <trkpt lat="-3.0942170" lon="37.3769660">
    <ele>4832.8</ele>
    <time>2026-06-22T22:34:37Z</time>
   </trkpt>
   <trkpt lat="-3.0942160" lon="37.3769650">
    <ele>4832.9</ele>
    <time>2026-06-22T22:34:38Z</time>
   </trkpt>
   <trkpt lat="-3.0942130" lon="37.3769640">
    <ele>4832.9</ele>
    <time>2026-06-22T22:34:39Z</time>
   </trkpt>
   <trkpt lat="-3.0942110" lon="37.3769630">
    <ele>4832.9</ele>
    <time>2026-06-22T22:34:40Z</time>
   </trkpt>
   <trkpt lat="-3.0942090" lon="37.3769610">
    <ele>4833.0</ele>
    <time>2026-06-22T22:34:41Z</time>
   </trkpt>
   <trkpt lat="-3.0942070" lon="37.3769600">
    <ele>4833.0</ele>
    <time>2026-06-22T22:34:42Z</time>
   </trkpt>
   <trkpt lat="-3.0942040" lon="37.3769590">
    <ele>4833.1</ele>
    <time>2026-06-22T22:34:43Z</time>
   </trkpt>
   <trkpt lat="-3.0942010" lon="37.3769570">
    <ele>4833.1</ele>
    <time>2026-06-22T22:34:44Z</time>
   </trkpt>
   <trkpt lat="-3.0942010" lon="37.3769570">
    <ele>4833.1</ele>
    <time>2026-06-22T22:34:45Z</time>
   </trkpt>
   <trkpt lat="-3.0941980" lon="37.3769560">
    <ele>4833.2</ele>
    <time>2026-06-22T22:34:46Z</time>
   </trkpt>
   <trkpt lat="-3.0941940" lon="37.3769540">
    <ele>4833.2</ele>
    <time>2026-06-22T22:34:47Z</time>
   </trkpt>
   <trkpt lat="-3.0941950" lon="37.3769550">
    <ele>4833.3</ele>
    <time>2026-06-22T22:34:48Z</time>
   </trkpt>
   <trkpt lat="-3.0941910" lon="37.3769540">
    <ele>4833.3</ele>
    <time>2026-06-22T22:34:49Z</time>
   </trkpt>
   <trkpt lat="-3.0941890" lon="37.3769530">
    <ele>4833.4</ele>
    <time>2026-06-22T22:34:50Z</time>
   </trkpt>
   <trkpt lat="-3.0941840" lon="37.3769510">
    <ele>4833.4</ele>
    <time>2026-06-22T22:34:51Z</time>
   </trkpt>
   <trkpt lat="-3.0941870" lon="37.3769520">
    <ele>4833.5</ele>
    <time>2026-06-22T22:34:52Z</time>
   </trkpt>
   <trkpt lat="-3.0941850" lon="37.3769500">
    <ele>4833.5</ele>
    <time>2026-06-22T22:34:53Z</time>
   </trkpt>
   <trkpt lat="-3.0941800" lon="37.3769480">
    <ele>4833.6</ele>
    <time>2026-06-22T22:34:54Z</time>
   </trkpt>
   <trkpt lat="-3.0941810" lon="37.3769490">
    <ele>4833.6</ele>
    <time>2026-06-22T22:34:55Z</time>
   </trkpt>
   <trkpt lat="-3.0941780" lon="37.3769460">
    <ele>4833.7</ele>
    <time>2026-06-22T22:34:56Z</time>
   </trkpt>
   <trkpt lat="-3.0941730" lon="37.3769450">
    <ele>4833.8</ele>
    <time>2026-06-22T22:34:57Z</time>
   </trkpt>
   <trkpt lat="-3.0941710" lon="37.3769440">
    <ele>4833.8</ele>
    <time>2026-06-22T22:34:58Z</time>
   </trkpt>
   <trkpt lat="-3.0941700" lon="37.3769440">
    <ele>4833.8</ele>
    <time>2026-06-22T22:34:59Z</time>
   </trkpt>
   <trkpt lat="-3.0941640" lon="37.3769430">
    <ele>4833.9</ele>
    <time>2026-06-22T22:35:00Z</time>
   </trkpt>
   <trkpt lat="-3.0941630" lon="37.3769440">
    <ele>4834.0</ele>
    <time>2026-06-22T22:35:01Z</time>
   </trkpt>
   <trkpt lat="-3.0941590" lon="37.3769440">
    <ele>4834.0</ele>
    <time>2026-06-22T22:35:02Z</time>
   </trkpt>
   <trkpt lat="-3.0941540" lon="37.3769420">
    <ele>4834.1</ele>
    <time>2026-06-22T22:35:03Z</time>
   </trkpt>
   <trkpt lat="-3.0941520" lon="37.3769430">
    <ele>4834.1</ele>
    <time>2026-06-22T22:35:04Z</time>
   </trkpt>
   <trkpt lat="-3.0941490" lon="37.3769430">
    <ele>4834.2</ele>
    <time>2026-06-22T22:35:05Z</time>
   </trkpt>
   <trkpt lat="-3.0941440" lon="37.3769430">
    <ele>4834.3</ele>
    <time>2026-06-22T22:35:06Z</time>
   </trkpt>
   <trkpt lat="-3.0941410" lon="37.3769420">
    <ele>4834.3</ele>
    <time>2026-06-22T22:35:07Z</time>
   </trkpt>
   <trkpt lat="-3.0941370" lon="37.3769410">
    <ele>4834.4</ele>
    <time>2026-06-22T22:35:08Z</time>
   </trkpt>
   <trkpt lat="-3.0941340" lon="37.3769390">
    <ele>4834.4</ele>
    <time>2026-06-22T22:35:09Z</time>
   </trkpt>
   <trkpt lat="-3.0941330" lon="37.3769380">
    <ele>4834.4</ele>
    <time>2026-06-22T22:35:10Z</time>
   </trkpt>
   <trkpt lat="-3.0941310" lon="37.3769380">
    <ele>4834.5</ele>
    <time>2026-06-22T22:35:11Z</time>
   </trkpt>
   <trkpt lat="-3.0941270" lon="37.3769370">
    <ele>4834.5</ele>
    <time>2026-06-22T22:35:12Z</time>
   </trkpt>
   <trkpt lat="-3.0941230" lon="37.3769360">
    <ele>4834.6</ele>
    <time>2026-06-22T22:35:13Z</time>
   </trkpt>
   <trkpt lat="-3.0941220" lon="37.3769370">
    <ele>4834.6</ele>
    <time>2026-06-22T22:35:14Z</time>
   </trkpt>
   <trkpt lat="-3.0941180" lon="37.3769360">
    <ele>4834.7</ele>
    <time>2026-06-22T22:35:15Z</time>
   </trkpt>
   <trkpt lat="-3.0941170" lon="37.3769370">
    <ele>4834.7</ele>
    <time>2026-06-22T22:35:16Z</time>
   </trkpt>
   <trkpt lat="-3.0941140" lon="37.3769360">
    <ele>4834.8</ele>
    <time>2026-06-22T22:35:17Z</time>
   </trkpt>
   <trkpt lat="-3.0941120" lon="37.3769360">
    <ele>4834.8</ele>
    <time>2026-06-22T22:35:18Z</time>
   </trkpt>
   <trkpt lat="-3.0941100" lon="37.3769360">
    <ele>4834.8</ele>
    <time>2026-06-22T22:35:19Z</time>
   </trkpt>
   <trkpt lat="-3.0941080" lon="37.3769360">
    <ele>4834.8</ele>
    <time>2026-06-22T22:35:20Z</time>
   </trkpt>
   <trkpt lat="-3.0941060" lon="37.3769350">
    <ele>4834.9</ele>
    <time>2026-06-22T22:35:21Z</time>
   </trkpt>
   <trkpt lat="-3.0941020" lon="37.3769340">
    <ele>4834.9</ele>
    <time>2026-06-22T22:35:22Z</time>
   </trkpt>
   <trkpt lat="-3.0941010" lon="37.3769330">
    <ele>4835.0</ele>
    <time>2026-06-22T22:35:23Z</time>
   </trkpt>
   <trkpt lat="-3.0940980" lon="37.3769320">
    <ele>4835.0</ele>
    <time>2026-06-22T22:35:24Z</time>
   </trkpt>
   <trkpt lat="-3.0940970" lon="37.3769340">
    <ele>4835.0</ele>
    <time>2026-06-22T22:35:25Z</time>
   </trkpt>
   <trkpt lat="-3.0940930" lon="37.3769310">
    <ele>4835.1</ele>
    <time>2026-06-22T22:35:26Z</time>
   </trkpt>
   <trkpt lat="-3.0940890" lon="37.3769310">
    <ele>4835.2</ele>
    <time>2026-06-22T22:35:27Z</time>
   </trkpt>
   <trkpt lat="-3.0940880" lon="37.3769300">
    <ele>4835.2</ele>
    <time>2026-06-22T22:35:28Z</time>
   </trkpt>
   <trkpt lat="-3.0940880" lon="37.3769310">
    <ele>4835.2</ele>
    <time>2026-06-22T22:35:29Z</time>
   </trkpt>
   <trkpt lat="-3.0940830" lon="37.3769290">
    <ele>4835.3</ele>
    <time>2026-06-22T22:35:30Z</time>
   </trkpt>
   <trkpt lat="-3.0940790" lon="37.3769280">
    <ele>4835.4</ele>
    <time>2026-06-22T22:35:31Z</time>
   </trkpt>
   <trkpt lat="-3.0940780" lon="37.3769270">
    <ele>4835.4</ele>
    <time>2026-06-22T22:35:32Z</time>
   </trkpt>
   <trkpt lat="-3.0940740" lon="37.3769260">
    <ele>4835.5</ele>
    <time>2026-06-22T22:35:33Z</time>
   </trkpt>
   <trkpt lat="-3.0940710" lon="37.3769260">
    <ele>4835.5</ele>
    <time>2026-06-22T22:35:34Z</time>
   </trkpt>
   <trkpt lat="-3.0940700" lon="37.3769270">
    <ele>4835.5</ele>
    <time>2026-06-22T22:35:35Z</time>
   </trkpt>
   <trkpt lat="-3.0940640" lon="37.3769240">
    <ele>4835.6</ele>
    <time>2026-06-22T22:35:36Z</time>
   </trkpt>
   <trkpt lat="-3.0940580" lon="37.3769230">
    <ele>4835.7</ele>
    <time>2026-06-22T22:35:37Z</time>
   </trkpt>
   <trkpt lat="-3.0940580" lon="37.3769240">
    <ele>4835.7</ele>
    <time>2026-06-22T22:35:38Z</time>
   </trkpt>
   <trkpt lat="-3.0940540" lon="37.3769230">
    <ele>4835.8</ele>
    <time>2026-06-22T22:35:39Z</time>
   </trkpt>
   <trkpt lat="-3.0940520" lon="37.3769230">
    <ele>4835.8</ele>
    <time>2026-06-22T22:35:40Z</time>
   </trkpt>
   <trkpt lat="-3.0940490" lon="37.3769240">
    <ele>4835.9</ele>
    <time>2026-06-22T22:35:41Z</time>
   </trkpt>
   <trkpt lat="-3.0940480" lon="37.3769250">
    <ele>4835.9</ele>
    <time>2026-06-22T22:35:42Z</time>
   </trkpt>
   <trkpt lat="-3.0940450" lon="37.3769250">
    <ele>4835.9</ele>
    <time>2026-06-22T22:35:43Z</time>
   </trkpt>
   <trkpt lat="-3.0940430" lon="37.3769240">
    <ele>4836.0</ele>
    <time>2026-06-22T22:35:44Z</time>
   </trkpt>
   <trkpt lat="-3.0940400" lon="37.3769230">
    <ele>4836.0</ele>
    <time>2026-06-22T22:35:45Z</time>
   </trkpt>
   <trkpt lat="-3.0940390" lon="37.3769210">
    <ele>4836.1</ele>
    <time>2026-06-22T22:35:46Z</time>
   </trkpt>
   <trkpt lat="-3.0940370" lon="37.3769220">
    <ele>4836.1</ele>
    <time>2026-06-22T22:35:47Z</time>
   </trkpt>
   <trkpt lat="-3.0940330" lon="37.3769210">
    <ele>4836.2</ele>
    <time>2026-06-22T22:35:48Z</time>
   </trkpt>
   <trkpt lat="-3.0940330" lon="37.3769210">
    <ele>4836.2</ele>
    <time>2026-06-22T22:35:49Z</time>
   </trkpt>
   <trkpt lat="-3.0940280" lon="37.3769210">
    <ele>4836.2</ele>
    <time>2026-06-22T22:35:50Z</time>
   </trkpt>
   <trkpt lat="-3.0940250" lon="37.3769210">
    <ele>4836.3</ele>
    <time>2026-06-22T22:35:51Z</time>
   </trkpt>
   <trkpt lat="-3.0940210" lon="37.3769200">
    <ele>4836.3</ele>
    <time>2026-06-22T22:35:52Z</time>
   </trkpt>
   <trkpt lat="-3.0940170" lon="37.3769190">
    <ele>4836.4</ele>
    <time>2026-06-22T22:35:53Z</time>
   </trkpt>
   <trkpt lat="-3.0940150" lon="37.3769200">
    <ele>4836.4</ele>
    <time>2026-06-22T22:35:54Z</time>
   </trkpt>
   <trkpt lat="-3.0940130" lon="37.3769220">
    <ele>4836.5</ele>
    <time>2026-06-22T22:35:55Z</time>
   </trkpt>
   <trkpt lat="-3.0940110" lon="37.3769230">
    <ele>4836.5</ele>
    <time>2026-06-22T22:35:56Z</time>
   </trkpt>
   <trkpt lat="-3.0940080" lon="37.3769230">
    <ele>4836.6</ele>
    <time>2026-06-22T22:35:57Z</time>
   </trkpt>
   <trkpt lat="-3.0940050" lon="37.3769240">
    <ele>4836.6</ele>
    <time>2026-06-22T22:35:58Z</time>
   </trkpt>
   <trkpt lat="-3.0940020" lon="37.3769240">
    <ele>4836.7</ele>
    <time>2026-06-22T22:35:59Z</time>
   </trkpt>
   <trkpt lat="-3.0940010" lon="37.3769260">
    <ele>4836.7</ele>
    <time>2026-06-22T22:36:00Z</time>
   </trkpt>
   <trkpt lat="-3.0939980" lon="37.3769240">
    <ele>4836.8</ele>
    <time>2026-06-22T22:36:01Z</time>
   </trkpt>
   <trkpt lat="-3.0939950" lon="37.3769240">
    <ele>4836.8</ele>
    <time>2026-06-22T22:36:02Z</time>
   </trkpt>
   <trkpt lat="-3.0939940" lon="37.3769230">
    <ele>4836.8</ele>
    <time>2026-06-22T22:36:03Z</time>
   </trkpt>
   <trkpt lat="-3.0939950" lon="37.3769230">
    <ele>4836.8</ele>
    <time>2026-06-22T22:36:04Z</time>
   </trkpt>
   <trkpt lat="-3.0939900" lon="37.3769210">
    <ele>4836.9</ele>
    <time>2026-06-22T22:36:06Z</time>
   </trkpt>
   <trkpt lat="-3.0939880" lon="37.3769190">
    <ele>4837.0</ele>
    <time>2026-06-22T22:36:07Z</time>
   </trkpt>
   <trkpt lat="-3.0939840" lon="37.3769190">
    <ele>4837.0</ele>
    <time>2026-06-22T22:36:08Z</time>
   </trkpt>
   <trkpt lat="-3.0939800" lon="37.3769170">
    <ele>4837.1</ele>
    <time>2026-06-22T22:36:09Z</time>
   </trkpt>
   <trkpt lat="-3.0939800" lon="37.3769180">
    <ele>4837.1</ele>
    <time>2026-06-22T22:36:10Z</time>
   </trkpt>
   <trkpt lat="-3.0939790" lon="37.3769170">
    <ele>4837.2</ele>
    <time>2026-06-22T22:36:11Z</time>
   </trkpt>
   <trkpt lat="-3.0939800" lon="37.3769170">
    <ele>4837.2</ele>
    <time>2026-06-22T22:36:12Z</time>
   </trkpt>
   <trkpt lat="-3.0939730" lon="37.3769140">
    <ele>4837.3</ele>
    <time>2026-06-22T22:36:13Z</time>
   </trkpt>
   <trkpt lat="-3.0939730" lon="37.3769140">
    <ele>4837.3</ele>
    <time>2026-06-22T22:36:14Z</time>
   </trkpt>
   <trkpt lat="-3.0939670" lon="37.3769120">
    <ele>4837.4</ele>
    <time>2026-06-22T22:36:15Z</time>
   </trkpt>
   <trkpt lat="-3.0939640" lon="37.3769120">
    <ele>4837.4</ele>
    <time>2026-06-22T22:36:16Z</time>
   </trkpt>
   <trkpt lat="-3.0939600" lon="37.3769110">
    <ele>4837.5</ele>
    <time>2026-06-22T22:36:17Z</time>
   </trkpt>
   <trkpt lat="-3.0939570" lon="37.3769100">
    <ele>4837.6</ele>
    <time>2026-06-22T22:36:18Z</time>
   </trkpt>
   <trkpt lat="-3.0939540" lon="37.3769100">
    <ele>4837.6</ele>
    <time>2026-06-22T22:36:19Z</time>
   </trkpt>
   <trkpt lat="-3.0939510" lon="37.3769090">
    <ele>4837.7</ele>
    <time>2026-06-22T22:36:20Z</time>
   </trkpt>
   <trkpt lat="-3.0939490" lon="37.3769090">
    <ele>4837.7</ele>
    <time>2026-06-22T22:36:21Z</time>
   </trkpt>
   <trkpt lat="-3.0939450" lon="37.3769080">
    <ele>4837.8</ele>
    <time>2026-06-22T22:36:22Z</time>
   </trkpt>
   <trkpt lat="-3.0939430" lon="37.3769070">
    <ele>4837.8</ele>
    <time>2026-06-22T22:36:23Z</time>
   </trkpt>
   <trkpt lat="-3.0939390" lon="37.3769060">
    <ele>4837.9</ele>
    <time>2026-06-22T22:36:24Z</time>
   </trkpt>
   <trkpt lat="-3.0939350" lon="37.3769060">
    <ele>4837.9</ele>
    <time>2026-06-22T22:36:25Z</time>
   </trkpt>
   <trkpt lat="-3.0939340" lon="37.3769060">
    <ele>4837.9</ele>
    <time>2026-06-22T22:36:26Z</time>
   </trkpt>
   <trkpt lat="-3.0939320" lon="37.3769070">
    <ele>4838.0</ele>
    <time>2026-06-22T22:36:27Z</time>
   </trkpt>
   <trkpt lat="-3.0939300" lon="37.3769070">
    <ele>4838.0</ele>
    <time>2026-06-22T22:36:28Z</time>
   </trkpt>
   <trkpt lat="-3.0939290" lon="37.3769090">
    <ele>4838.1</ele>
    <time>2026-06-22T22:36:29Z</time>
   </trkpt>
   <trkpt lat="-3.0939300" lon="37.3769100">
    <ele>4838.1</ele>
    <time>2026-06-22T22:36:30Z</time>
   </trkpt>
   <trkpt lat="-3.0939280" lon="37.3769090">
    <ele>4838.1</ele>
    <time>2026-06-22T22:36:31Z</time>
   </trkpt>
   <trkpt lat="-3.0939260" lon="37.3769050">
    <ele>4838.2</ele>
    <time>2026-06-22T22:36:32Z</time>
   </trkpt>
   <trkpt lat="-3.0939260" lon="37.3769050">
    <ele>4838.2</ele>
    <time>2026-06-22T22:36:33Z</time>
   </trkpt>
   <trkpt lat="-3.0939230" lon="37.3769030">
    <ele>4838.2</ele>
    <time>2026-06-22T22:36:34Z</time>
   </trkpt>
   <trkpt lat="-3.0939200" lon="37.3769030">
    <ele>4838.3</ele>
    <time>2026-06-22T22:36:35Z</time>
   </trkpt>
   <trkpt lat="-3.0939160" lon="37.3769000">
    <ele>4838.4</ele>
    <time>2026-06-22T22:36:36Z</time>
   </trkpt>
   <trkpt lat="-3.0939120" lon="37.3769010">
    <ele>4838.4</ele>
    <time>2026-06-22T22:36:37Z</time>
   </trkpt>
   <trkpt lat="-3.0939090" lon="37.3769010">
    <ele>4838.5</ele>
    <time>2026-06-22T22:36:38Z</time>
   </trkpt>
   <trkpt lat="-3.0939080" lon="37.3769010">
    <ele>4838.5</ele>
    <time>2026-06-22T22:36:39Z</time>
   </trkpt>
   <trkpt lat="-3.0939060" lon="37.3768990">
    <ele>4838.5</ele>
    <time>2026-06-22T22:36:40Z</time>
   </trkpt>
   <trkpt lat="-3.0939050" lon="37.3769000">
    <ele>4838.6</ele>
    <time>2026-06-22T22:36:41Z</time>
   </trkpt>
   <trkpt lat="-3.0938990" lon="37.3768970">
    <ele>4838.7</ele>
    <time>2026-06-22T22:36:42Z</time>
   </trkpt>
   <trkpt lat="-3.0938970" lon="37.3768970">
    <ele>4838.7</ele>
    <time>2026-06-22T22:36:43Z</time>
   </trkpt>
   <trkpt lat="-3.0938940" lon="37.3768960">
    <ele>4838.8</ele>
    <time>2026-06-22T22:36:44Z</time>
   </trkpt>
   <trkpt lat="-3.0938900" lon="37.3768950">
    <ele>4838.8</ele>
    <time>2026-06-22T22:36:45Z</time>
   </trkpt>
   <trkpt lat="-3.0938890" lon="37.3768940">
    <ele>4838.9</ele>
    <time>2026-06-22T22:36:46Z</time>
   </trkpt>
   <trkpt lat="-3.0938870" lon="37.3768930">
    <ele>4838.9</ele>
    <time>2026-06-22T22:36:47Z</time>
   </trkpt>
   <trkpt lat="-3.0938830" lon="37.3768920">
    <ele>4839.0</ele>
    <time>2026-06-22T22:36:48Z</time>
   </trkpt>
   <trkpt lat="-3.0938810" lon="37.3768910">
    <ele>4839.0</ele>
    <time>2026-06-22T22:36:49Z</time>
   </trkpt>
   <trkpt lat="-3.0938790" lon="37.3768910">
    <ele>4839.0</ele>
    <time>2026-06-22T22:36:50Z</time>
   </trkpt>
   <trkpt lat="-3.0938760" lon="37.3768910">
    <ele>4839.1</ele>
    <time>2026-06-22T22:36:51Z</time>
   </trkpt>
   <trkpt lat="-3.0938750" lon="37.3768910">
    <ele>4839.1</ele>
    <time>2026-06-22T22:36:52Z</time>
   </trkpt>
   <trkpt lat="-3.0938720" lon="37.3768900">
    <ele>4839.2</ele>
    <time>2026-06-22T22:36:53Z</time>
   </trkpt>
   <trkpt lat="-3.0938690" lon="37.3768890">
    <ele>4839.2</ele>
    <time>2026-06-22T22:36:54Z</time>
   </trkpt>
   <trkpt lat="-3.0938680" lon="37.3768880">
    <ele>4839.2</ele>
    <time>2026-06-22T22:36:55Z</time>
   </trkpt>
   <trkpt lat="-3.0938650" lon="37.3768870">
    <ele>4839.3</ele>
    <time>2026-06-22T22:36:56Z</time>
   </trkpt>
   <trkpt lat="-3.0938640" lon="37.3768860">
    <ele>4839.3</ele>
    <time>2026-06-22T22:36:57Z</time>
   </trkpt>
   <trkpt lat="-3.0938610" lon="37.3768850">
    <ele>4839.4</ele>
    <time>2026-06-22T22:36:58Z</time>
   </trkpt>
   <trkpt lat="-3.0938590" lon="37.3768840">
    <ele>4839.4</ele>
    <time>2026-06-22T22:36:59Z</time>
   </trkpt>
   <trkpt lat="-3.0938570" lon="37.3768820">
    <ele>4839.5</ele>
    <time>2026-06-22T22:37:00Z</time>
   </trkpt>
   <trkpt lat="-3.0938540" lon="37.3768810">
    <ele>4839.5</ele>
    <time>2026-06-22T22:37:01Z</time>
   </trkpt>
   <trkpt lat="-3.0938520" lon="37.3768790">
    <ele>4839.6</ele>
    <time>2026-06-22T22:37:02Z</time>
   </trkpt>
   <trkpt lat="-3.0938500" lon="37.3768800">
    <ele>4839.6</ele>
    <time>2026-06-22T22:37:03Z</time>
   </trkpt>
   <trkpt lat="-3.0938480" lon="37.3768790">
    <ele>4839.6</ele>
    <time>2026-06-22T22:37:04Z</time>
   </trkpt>
   <trkpt lat="-3.0938450" lon="37.3768780">
    <ele>4839.7</ele>
    <time>2026-06-22T22:37:05Z</time>
   </trkpt>
   <trkpt lat="-3.0938410" lon="37.3768780">
    <ele>4839.8</ele>
    <time>2026-06-22T22:37:06Z</time>
   </trkpt>
   <trkpt lat="-3.0938370" lon="37.3768770">
    <ele>4839.8</ele>
    <time>2026-06-22T22:37:07Z</time>
   </trkpt>
   <trkpt lat="-3.0938370" lon="37.3768770">
    <ele>4839.8</ele>
    <time>2026-06-22T22:37:08Z</time>
   </trkpt>
   <trkpt lat="-3.0938320" lon="37.3768780">
    <ele>4839.9</ele>
    <time>2026-06-22T22:37:09Z</time>
   </trkpt>
   <trkpt lat="-3.0938290" lon="37.3768770">
    <ele>4840.0</ele>
    <time>2026-06-22T22:37:10Z</time>
   </trkpt>
   <trkpt lat="-3.0938270" lon="37.3768760">
    <ele>4840.0</ele>
    <time>2026-06-22T22:37:11Z</time>
   </trkpt>
   <trkpt lat="-3.0938250" lon="37.3768750">
    <ele>4840.0</ele>
    <time>2026-06-22T22:37:12Z</time>
   </trkpt>
   <trkpt lat="-3.0938210" lon="37.3768770">
    <ele>4840.1</ele>
    <time>2026-06-22T22:37:13Z</time>
   </trkpt>
   <trkpt lat="-3.0938180" lon="37.3768760">
    <ele>4840.2</ele>
    <time>2026-06-22T22:37:14Z</time>
   </trkpt>
   <trkpt lat="-3.0938160" lon="37.3768770">
    <ele>4840.2</ele>
    <time>2026-06-22T22:37:15Z</time>
   </trkpt>
   <trkpt lat="-3.0938100" lon="37.3768750">
    <ele>4840.3</ele>
    <time>2026-06-22T22:37:16Z</time>
   </trkpt>
   <trkpt lat="-3.0938080" lon="37.3768740">
    <ele>4840.4</ele>
    <time>2026-06-22T22:37:17Z</time>
   </trkpt>
   <trkpt lat="-3.0938060" lon="37.3768740">
    <ele>4840.4</ele>
    <time>2026-06-22T22:37:18Z</time>
   </trkpt>
   <trkpt lat="-3.0938020" lon="37.3768710">
    <ele>4840.5</ele>
    <time>2026-06-22T22:37:19Z</time>
   </trkpt>
   <trkpt lat="-3.0937970" lon="37.3768700">
    <ele>4840.6</ele>
    <time>2026-06-22T22:37:20Z</time>
   </trkpt>
   <trkpt lat="-3.0937950" lon="37.3768720">
    <ele>4840.6</ele>
    <time>2026-06-22T22:37:21Z</time>
   </trkpt>
   <trkpt lat="-3.0937920" lon="37.3768700">
    <ele>4840.7</ele>
    <time>2026-06-22T22:37:22Z</time>
   </trkpt>
   <trkpt lat="-3.0937880" lon="37.3768710">
    <ele>4840.7</ele>
    <time>2026-06-22T22:37:23Z</time>
   </trkpt>
   <trkpt lat="-3.0937840" lon="37.3768710">
    <ele>4840.8</ele>
    <time>2026-06-22T22:37:24Z</time>
   </trkpt>
   <trkpt lat="-3.0937830" lon="37.3768710">
    <ele>4840.8</ele>
    <time>2026-06-22T22:37:25Z</time>
   </trkpt>
   <trkpt lat="-3.0937790" lon="37.3768720">
    <ele>4840.9</ele>
    <time>2026-06-22T22:37:26Z</time>
   </trkpt>
   <trkpt lat="-3.0937760" lon="37.3768730">
    <ele>4841.0</ele>
    <time>2026-06-22T22:37:27Z</time>
   </trkpt>
   <trkpt lat="-3.0937720" lon="37.3768730">
    <ele>4841.0</ele>
    <time>2026-06-22T22:37:28Z</time>
   </trkpt>
   <trkpt lat="-3.0937700" lon="37.3768740">
    <ele>4841.1</ele>
    <time>2026-06-22T22:37:29Z</time>
   </trkpt>
   <trkpt lat="-3.0937660" lon="37.3768740">
    <ele>4841.1</ele>
    <time>2026-06-22T22:37:30Z</time>
   </trkpt>
   <trkpt lat="-3.0937670" lon="37.3768750">
    <ele>4841.2</ele>
    <time>2026-06-22T22:37:31Z</time>
   </trkpt>
   <trkpt lat="-3.0937610" lon="37.3768750">
    <ele>4841.3</ele>
    <time>2026-06-22T22:37:32Z</time>
   </trkpt>
   <trkpt lat="-3.0937570" lon="37.3768770">
    <ele>4841.3</ele>
    <time>2026-06-22T22:37:33Z</time>
   </trkpt>
   <trkpt lat="-3.0937580" lon="37.3768770">
    <ele>4841.4</ele>
    <time>2026-06-22T22:37:34Z</time>
   </trkpt>
   <trkpt lat="-3.0937560" lon="37.3768780">
    <ele>4841.4</ele>
    <time>2026-06-22T22:37:35Z</time>
   </trkpt>
   <trkpt lat="-3.0937520" lon="37.3768770">
    <ele>4841.5</ele>
    <time>2026-06-22T22:37:36Z</time>
   </trkpt>
   <trkpt lat="-3.0937490" lon="37.3768760">
    <ele>4841.5</ele>
    <time>2026-06-22T22:37:37Z</time>
   </trkpt>
   <trkpt lat="-3.0937440" lon="37.3768770">
    <ele>4841.6</ele>
    <time>2026-06-22T22:37:38Z</time>
   </trkpt>
   <trkpt lat="-3.0937430" lon="37.3768780">
    <ele>4841.6</ele>
    <time>2026-06-22T22:37:39Z</time>
   </trkpt>
   <trkpt lat="-3.0937410" lon="37.3768790">
    <ele>4841.7</ele>
    <time>2026-06-22T22:37:40Z</time>
   </trkpt>
   <trkpt lat="-3.0937370" lon="37.3768770">
    <ele>4841.7</ele>
    <time>2026-06-22T22:37:41Z</time>
   </trkpt>
   <trkpt lat="-3.0937370" lon="37.3768790">
    <ele>4841.8</ele>
    <time>2026-06-22T22:37:42Z</time>
   </trkpt>
   <trkpt lat="-3.0937320" lon="37.3768780">
    <ele>4841.9</ele>
    <time>2026-06-22T22:37:43Z</time>
   </trkpt>
   <trkpt lat="-3.0937280" lon="37.3768730">
    <ele>4842.0</ele>
    <time>2026-06-22T22:37:44Z</time>
   </trkpt>
   <trkpt lat="-3.0937270" lon="37.3768690">
    <ele>4842.0</ele>
    <time>2026-06-22T22:37:45Z</time>
   </trkpt>
   <trkpt lat="-3.0937280" lon="37.3768710">
    <ele>4842.1</ele>
    <time>2026-06-22T22:37:46Z</time>
   </trkpt>
   <trkpt lat="-3.0937260" lon="37.3768680">
    <ele>4842.1</ele>
    <time>2026-06-22T22:37:47Z</time>
   </trkpt>
   <trkpt lat="-3.0937250" lon="37.3768690">
    <ele>4842.2</ele>
    <time>2026-06-22T22:37:48Z</time>
   </trkpt>
   <trkpt lat="-3.0937210" lon="37.3768680">
    <ele>4842.2</ele>
    <time>2026-06-22T22:37:49Z</time>
   </trkpt>
   <trkpt lat="-3.0937170" lon="37.3768690">
    <ele>4842.3</ele>
    <time>2026-06-22T22:37:50Z</time>
   </trkpt>
   <trkpt lat="-3.0937110" lon="37.3768660">
    <ele>4842.4</ele>
    <time>2026-06-22T22:37:51Z</time>
   </trkpt>
   <trkpt lat="-3.0937130" lon="37.3768650">
    <ele>4842.5</ele>
    <time>2026-06-22T22:37:52Z</time>
   </trkpt>
   <trkpt lat="-3.0937080" lon="37.3768640">
    <ele>4842.5</ele>
    <time>2026-06-22T22:37:53Z</time>
   </trkpt>
   <trkpt lat="-3.0937050" lon="37.3768640">
    <ele>4842.6</ele>
    <time>2026-06-22T22:37:54Z</time>
   </trkpt>
   <trkpt lat="-3.0937040" lon="37.3768650">
    <ele>4842.6</ele>
    <time>2026-06-22T22:37:55Z</time>
   </trkpt>
   <trkpt lat="-3.0937000" lon="37.3768620">
    <ele>4842.7</ele>
    <time>2026-06-22T22:37:56Z</time>
   </trkpt>
   <trkpt lat="-3.0936970" lon="37.3768620">
    <ele>4842.8</ele>
    <time>2026-06-22T22:37:57Z</time>
   </trkpt>
   <trkpt lat="-3.0936960" lon="37.3768600">
    <ele>4842.8</ele>
    <time>2026-06-22T22:37:58Z</time>
   </trkpt>
   <trkpt lat="-3.0936940" lon="37.3768610">
    <ele>4842.8</ele>
    <time>2026-06-22T22:37:59Z</time>
   </trkpt>
   <trkpt lat="-3.0936900" lon="37.3768620">
    <ele>4842.9</ele>
    <time>2026-06-22T22:38:00Z</time>
   </trkpt>
   <trkpt lat="-3.0936870" lon="37.3768620">
    <ele>4843.0</ele>
    <time>2026-06-22T22:38:01Z</time>
   </trkpt>
   <trkpt lat="-3.0936850" lon="37.3768610">
    <ele>4843.0</ele>
    <time>2026-06-22T22:38:02Z</time>
   </trkpt>
   <trkpt lat="-3.0936840" lon="37.3768630">
    <ele>4843.0</ele>
    <time>2026-06-22T22:38:03Z</time>
   </trkpt>
   <trkpt lat="-3.0936800" lon="37.3768630">
    <ele>4843.1</ele>
    <time>2026-06-22T22:38:04Z</time>
   </trkpt>
   <trkpt lat="-3.0936810" lon="37.3768670">
    <ele>4843.2</ele>
    <time>2026-06-22T22:38:05Z</time>
   </trkpt>
   <trkpt lat="-3.0936770" lon="37.3768640">
    <ele>4843.3</ele>
    <time>2026-06-22T22:38:06Z</time>
   </trkpt>
   <trkpt lat="-3.0936780" lon="37.3768690">
    <ele>4843.3</ele>
    <time>2026-06-22T22:38:07Z</time>
   </trkpt>
   <trkpt lat="-3.0936770" lon="37.3768720">
    <ele>4843.4</ele>
    <time>2026-06-22T22:38:08Z</time>
   </trkpt>
   <trkpt lat="-3.0936760" lon="37.3768730">
    <ele>4843.4</ele>
    <time>2026-06-22T22:38:09Z</time>
   </trkpt>
   <trkpt lat="-3.0936750" lon="37.3768740">
    <ele>4843.4</ele>
    <time>2026-06-22T22:38:10Z</time>
   </trkpt>
   <trkpt lat="-3.0936730" lon="37.3768740">
    <ele>4843.5</ele>
    <time>2026-06-22T22:38:12Z</time>
   </trkpt>
   <trkpt lat="-3.0936710" lon="37.3768740">
    <ele>4843.5</ele>
    <time>2026-06-22T22:38:13Z</time>
   </trkpt>
   <trkpt lat="-3.0936710" lon="37.3768760">
    <ele>4843.6</ele>
    <time>2026-06-22T22:38:14Z</time>
   </trkpt>
   <trkpt lat="-3.0936680" lon="37.3768760">
    <ele>4843.6</ele>
    <time>2026-06-22T22:38:15Z</time>
   </trkpt>
   <trkpt lat="-3.0936650" lon="37.3768740">
    <ele>4843.7</ele>
    <time>2026-06-22T22:38:16Z</time>
   </trkpt>
   <trkpt lat="-3.0936630" lon="37.3768760">
    <ele>4843.7</ele>
    <time>2026-06-22T22:38:17Z</time>
   </trkpt>
   <trkpt lat="-3.0936580" lon="37.3768750">
    <ele>4843.8</ele>
    <time>2026-06-22T22:38:18Z</time>
   </trkpt>
   <trkpt lat="-3.0936560" lon="37.3768750">
    <ele>4843.8</ele>
    <time>2026-06-22T22:38:19Z</time>
   </trkpt>
   <trkpt lat="-3.0936530" lon="37.3768760">
    <ele>4843.9</ele>
    <time>2026-06-22T22:38:20Z</time>
   </trkpt>
   <trkpt lat="-3.0936470" lon="37.3768760">
    <ele>4844.0</ele>
    <time>2026-06-22T22:38:21Z</time>
   </trkpt>
   <trkpt lat="-3.0936470" lon="37.3768770">
    <ele>4844.0</ele>
    <time>2026-06-22T22:38:22Z</time>
   </trkpt>
   <trkpt lat="-3.0936440" lon="37.3768780">
    <ele>4844.1</ele>
    <time>2026-06-22T22:38:23Z</time>
   </trkpt>
   <trkpt lat="-3.0936410" lon="37.3768770">
    <ele>4844.1</ele>
    <time>2026-06-22T22:38:24Z</time>
   </trkpt>
   <trkpt lat="-3.0936370" lon="37.3768770">
    <ele>4844.2</ele>
    <time>2026-06-22T22:38:25Z</time>
   </trkpt>
   <trkpt lat="-3.0936320" lon="37.3768770">
    <ele>4844.3</ele>
    <time>2026-06-22T22:38:26Z</time>
   </trkpt>
   <trkpt lat="-3.0936290" lon="37.3768760">
    <ele>4844.3</ele>
    <time>2026-06-22T22:38:27Z</time>
   </trkpt>
   <trkpt lat="-3.0936260" lon="37.3768750">
    <ele>4844.4</ele>
    <time>2026-06-22T22:38:28Z</time>
   </trkpt>
   <trkpt lat="-3.0936250" lon="37.3768730">
    <ele>4844.4</ele>
    <time>2026-06-22T22:38:29Z</time>
   </trkpt>
   <trkpt lat="-3.0936220" lon="37.3768700">
    <ele>4844.5</ele>
    <time>2026-06-22T22:38:30Z</time>
   </trkpt>
   <trkpt lat="-3.0936200" lon="37.3768700">
    <ele>4844.5</ele>
    <time>2026-06-22T22:38:31Z</time>
   </trkpt>
   <trkpt lat="-3.0936170" lon="37.3768680">
    <ele>4844.6</ele>
    <time>2026-06-22T22:38:32Z</time>
   </trkpt>
   <trkpt lat="-3.0936130" lon="37.3768640">
    <ele>4844.7</ele>
    <time>2026-06-22T22:38:33Z</time>
   </trkpt>
   <trkpt lat="-3.0936110" lon="37.3768640">
    <ele>4844.7</ele>
    <time>2026-06-22T22:38:34Z</time>
   </trkpt>
   <trkpt lat="-3.0936080" lon="37.3768620">
    <ele>4844.8</ele>
    <time>2026-06-22T22:38:35Z</time>
   </trkpt>
   <trkpt lat="-3.0936080" lon="37.3768630">
    <ele>4844.8</ele>
    <time>2026-06-22T22:38:36Z</time>
   </trkpt>
   <trkpt lat="-3.0936040" lon="37.3768620">
    <ele>4844.9</ele>
    <time>2026-06-22T22:38:37Z</time>
   </trkpt>
   <trkpt lat="-3.0936000" lon="37.3768600">
    <ele>4845.0</ele>
    <time>2026-06-22T22:38:38Z</time>
   </trkpt>
   <trkpt lat="-3.0935980" lon="37.3768600">
    <ele>4845.0</ele>
    <time>2026-06-22T22:38:39Z</time>
   </trkpt>
   <trkpt lat="-3.0935960" lon="37.3768590">
    <ele>4845.1</ele>
    <time>2026-06-22T22:38:40Z</time>
   </trkpt>
   <trkpt lat="-3.0935900" lon="37.3768560">
    <ele>4845.2</ele>
    <time>2026-06-22T22:38:41Z</time>
   </trkpt>
   <trkpt lat="-3.0935870" lon="37.3768560">
    <ele>4845.2</ele>
    <time>2026-06-22T22:38:42Z</time>
   </trkpt>
   <trkpt lat="-3.0935830" lon="37.3768530">
    <ele>4845.3</ele>
    <time>2026-06-22T22:38:43Z</time>
   </trkpt>
   <trkpt lat="-3.0935820" lon="37.3768540">
    <ele>4845.3</ele>
    <time>2026-06-22T22:38:44Z</time>
   </trkpt>
   <trkpt lat="-3.0935780" lon="37.3768500">
    <ele>4845.4</ele>
    <time>2026-06-22T22:38:45Z</time>
   </trkpt>
   <trkpt lat="-3.0935780" lon="37.3768500">
    <ele>4845.4</ele>
    <time>2026-06-22T22:38:46Z</time>
   </trkpt>
   <trkpt lat="-3.0935780" lon="37.3768500">
    <ele>4845.4</ele>
    <time>2026-06-22T22:38:47Z</time>
   </trkpt>
   <trkpt lat="-3.0935700" lon="37.3768460">
    <ele>4845.6</ele>
    <time>2026-06-22T22:38:48Z</time>
   </trkpt>
   <trkpt lat="-3.0935710" lon="37.3768470">
    <ele>4845.6</ele>
    <time>2026-06-22T22:38:49Z</time>
   </trkpt>
   <trkpt lat="-3.0935680" lon="37.3768460">
    <ele>4845.7</ele>
    <time>2026-06-22T22:38:50Z</time>
   </trkpt>
   <trkpt lat="-3.0935670" lon="37.3768470">
    <ele>4845.7</ele>
    <time>2026-06-22T22:38:51Z</time>
   </trkpt>
   <trkpt lat="-3.0935620" lon="37.3768480">
    <ele>4845.8</ele>
    <time>2026-06-22T22:38:52Z</time>
   </trkpt>
   <trkpt lat="-3.0935630" lon="37.3768480">
    <ele>4845.8</ele>
    <time>2026-06-22T22:38:53Z</time>
   </trkpt>
   <trkpt lat="-3.0935580" lon="37.3768470">
    <ele>4845.9</ele>
    <time>2026-06-22T22:38:54Z</time>
   </trkpt>
   <trkpt lat="-3.0935560" lon="37.3768470">
    <ele>4845.9</ele>
    <time>2026-06-22T22:38:55Z</time>
   </trkpt>
   <trkpt lat="-3.0935550" lon="37.3768490">
    <ele>4846.0</ele>
    <time>2026-06-22T22:38:56Z</time>
   </trkpt>
   <trkpt lat="-3.0935510" lon="37.3768470">
    <ele>4846.1</ele>
    <time>2026-06-22T22:38:57Z</time>
   </trkpt>
   <trkpt lat="-3.0935430" lon="37.3768460">
    <ele>4846.2</ele>
    <time>2026-06-22T22:38:58Z</time>
   </trkpt>
   <trkpt lat="-3.0935410" lon="37.3768440">
    <ele>4846.3</ele>
    <time>2026-06-22T22:38:59Z</time>
   </trkpt>
   <trkpt lat="-3.0935430" lon="37.3768470">
    <ele>4846.3</ele>
    <time>2026-06-22T22:39:00Z</time>
   </trkpt>
   <trkpt lat="-3.0935360" lon="37.3768410">
    <ele>4846.5</ele>
    <time>2026-06-22T22:39:01Z</time>
   </trkpt>
   <trkpt lat="-3.0935340" lon="37.3768400">
    <ele>4846.5</ele>
    <time>2026-06-22T22:39:02Z</time>
   </trkpt>
   <trkpt lat="-3.0935330" lon="37.3768380">
    <ele>4846.6</ele>
    <time>2026-06-22T22:39:03Z</time>
   </trkpt>
   <trkpt lat="-3.0935310" lon="37.3768370">
    <ele>4846.6</ele>
    <time>2026-06-22T22:39:04Z</time>
   </trkpt>
   <trkpt lat="-3.0935240" lon="37.3768330">
    <ele>4846.8</ele>
    <time>2026-06-22T22:39:05Z</time>
   </trkpt>
   <trkpt lat="-3.0935220" lon="37.3768340">
    <ele>4846.8</ele>
    <time>2026-06-22T22:39:06Z</time>
   </trkpt>
   <trkpt lat="-3.0935190" lon="37.3768330">
    <ele>4846.9</ele>
    <time>2026-06-22T22:39:07Z</time>
   </trkpt>
   <trkpt lat="-3.0935160" lon="37.3768330">
    <ele>4846.9</ele>
    <time>2026-06-22T22:39:08Z</time>
   </trkpt>
   <trkpt lat="-3.0935130" lon="37.3768330">
    <ele>4847.0</ele>
    <time>2026-06-22T22:39:09Z</time>
   </trkpt>
   <trkpt lat="-3.0935120" lon="37.3768340">
    <ele>4847.0</ele>
    <time>2026-06-22T22:39:10Z</time>
   </trkpt>
   <trkpt lat="-3.0935090" lon="37.3768340">
    <ele>4847.1</ele>
    <time>2026-06-22T22:39:11Z</time>
   </trkpt>
   <trkpt lat="-3.0935070" lon="37.3768340">
    <ele>4847.1</ele>
    <time>2026-06-22T22:39:12Z</time>
   </trkpt>
   <trkpt lat="-3.0935040" lon="37.3768350">
    <ele>4847.2</ele>
    <time>2026-06-22T22:39:13Z</time>
   </trkpt>
   <trkpt lat="-3.0935020" lon="37.3768370">
    <ele>4847.2</ele>
    <time>2026-06-22T22:39:14Z</time>
   </trkpt>
   <trkpt lat="-3.0934990" lon="37.3768400">
    <ele>4847.3</ele>
    <time>2026-06-22T22:39:15Z</time>
   </trkpt>
   <trkpt lat="-3.0934990" lon="37.3768420">
    <ele>4847.3</ele>
    <time>2026-06-22T22:39:16Z</time>
   </trkpt>
   <trkpt lat="-3.0934990" lon="37.3768420">
    <ele>4847.3</ele>
    <time>2026-06-22T22:39:17Z</time>
   </trkpt>
   <trkpt lat="-3.0934920" lon="37.3768450">
    <ele>4847.5</ele>
    <time>2026-06-22T22:39:18Z</time>
   </trkpt>
   <trkpt lat="-3.0934900" lon="37.3768430">
    <ele>4847.5</ele>
    <time>2026-06-22T22:39:19Z</time>
   </trkpt>
   <trkpt lat="-3.0934900" lon="37.3768450">
    <ele>4847.5</ele>
    <time>2026-06-22T22:39:20Z</time>
   </trkpt>
   <trkpt lat="-3.0934840" lon="37.3768390">
    <ele>4847.7</ele>
    <time>2026-06-22T22:39:21Z</time>
   </trkpt>
   <trkpt lat="-3.0934850" lon="37.3768420">
    <ele>4847.8</ele>
    <time>2026-06-22T22:39:22Z</time>
   </trkpt>
   <trkpt lat="-3.0934810" lon="37.3768400">
    <ele>4847.8</ele>
    <time>2026-06-22T22:39:23Z</time>
   </trkpt>
   <trkpt lat="-3.0934770" lon="37.3768370">
    <ele>4847.9</ele>
    <time>2026-06-22T22:39:24Z</time>
   </trkpt>
   <trkpt lat="-3.0934760" lon="37.3768390">
    <ele>4848.0</ele>
    <time>2026-06-22T22:39:25Z</time>
   </trkpt>
   <trkpt lat="-3.0934770" lon="37.3768400">
    <ele>4848.0</ele>
    <time>2026-06-22T22:39:26Z</time>
   </trkpt>
   <trkpt lat="-3.0934710" lon="37.3768400">
    <ele>4848.1</ele>
    <time>2026-06-22T22:39:27Z</time>
   </trkpt>
   <trkpt lat="-3.0934710" lon="37.3768400">
    <ele>4848.1</ele>
    <time>2026-06-22T22:39:28Z</time>
   </trkpt>
   <trkpt lat="-3.0934650" lon="37.3768410">
    <ele>4848.2</ele>
    <time>2026-06-22T22:39:29Z</time>
   </trkpt>
   <trkpt lat="-3.0934620" lon="37.3768430">
    <ele>4848.3</ele>
    <time>2026-06-22T22:39:30Z</time>
   </trkpt>
   <trkpt lat="-3.0934580" lon="37.3768420">
    <ele>4848.4</ele>
    <time>2026-06-22T22:39:31Z</time>
   </trkpt>
   <trkpt lat="-3.0934560" lon="37.3768450">
    <ele>4848.4</ele>
    <time>2026-06-22T22:39:32Z</time>
   </trkpt>
   <trkpt lat="-3.0934560" lon="37.3768450">
    <ele>4848.4</ele>
    <time>2026-06-22T22:39:33Z</time>
   </trkpt>
   <trkpt lat="-3.0934510" lon="37.3768450">
    <ele>4848.5</ele>
    <time>2026-06-22T22:39:34Z</time>
   </trkpt>
   <trkpt lat="-3.0934500" lon="37.3768450">
    <ele>4848.5</ele>
    <time>2026-06-22T22:39:35Z</time>
   </trkpt>
   <trkpt lat="-3.0934470" lon="37.3768430">
    <ele>4848.6</ele>
    <time>2026-06-22T22:39:36Z</time>
   </trkpt>
   <trkpt lat="-3.0934460" lon="37.3768430">
    <ele>4848.6</ele>
    <time>2026-06-22T22:39:37Z</time>
   </trkpt>
   <trkpt lat="-3.0934440" lon="37.3768420">
    <ele>4848.7</ele>
    <time>2026-06-22T22:39:38Z</time>
   </trkpt>
   <trkpt lat="-3.0934420" lon="37.3768410">
    <ele>4848.7</ele>
    <time>2026-06-22T22:39:39Z</time>
   </trkpt>
   <trkpt lat="-3.0934400" lon="37.3768400">
    <ele>4848.7</ele>
    <time>2026-06-22T22:39:40Z</time>
   </trkpt>
   <trkpt lat="-3.0934360" lon="37.3768360">
    <ele>4848.9</ele>
    <time>2026-06-22T22:39:41Z</time>
   </trkpt>
   <trkpt lat="-3.0934350" lon="37.3768360">
    <ele>4848.9</ele>
    <time>2026-06-22T22:39:42Z</time>
   </trkpt>
   <trkpt lat="-3.0934320" lon="37.3768390">
    <ele>4848.9</ele>
    <time>2026-06-22T22:39:43Z</time>
   </trkpt>
   <trkpt lat="-3.0934340" lon="37.3768410">
    <ele>4849.0</ele>
    <time>2026-06-22T22:39:44Z</time>
   </trkpt>
   <trkpt lat="-3.0934280" lon="37.3768370">
    <ele>4849.1</ele>
    <time>2026-06-22T22:39:45Z</time>
   </trkpt>
   <trkpt lat="-3.0934270" lon="37.3768360">
    <ele>4849.2</ele>
    <time>2026-06-22T22:39:46Z</time>
   </trkpt>
   <trkpt lat="-3.0934270" lon="37.3768390">
    <ele>4849.2</ele>
    <time>2026-06-22T22:39:47Z</time>
   </trkpt>
   <trkpt lat="-3.0934270" lon="37.3768420">
    <ele>4849.3</ele>
    <time>2026-06-22T22:39:48Z</time>
   </trkpt>
   <trkpt lat="-3.0934220" lon="37.3768410">
    <ele>4849.4</ele>
    <time>2026-06-22T22:39:49Z</time>
   </trkpt>
   <trkpt lat="-3.0934190" lon="37.3768430">
    <ele>4849.4</ele>
    <time>2026-06-22T22:39:50Z</time>
   </trkpt>
   <trkpt lat="-3.0934160" lon="37.3768420">
    <ele>4849.5</ele>
    <time>2026-06-22T22:39:51Z</time>
   </trkpt>
   <trkpt lat="-3.0934160" lon="37.3768430">
    <ele>4849.5</ele>
    <time>2026-06-22T22:39:52Z</time>
   </trkpt>
   <trkpt lat="-3.0934130" lon="37.3768420">
    <ele>4849.6</ele>
    <time>2026-06-22T22:39:53Z</time>
   </trkpt>
   <trkpt lat="-3.0934120" lon="37.3768410">
    <ele>4849.6</ele>
    <time>2026-06-22T22:39:54Z</time>
   </trkpt>
   <trkpt lat="-3.0934080" lon="37.3768370">
    <ele>4849.7</ele>
    <time>2026-06-22T22:39:55Z</time>
   </trkpt>
   <trkpt lat="-3.0934060" lon="37.3768300">
    <ele>4849.8</ele>
    <time>2026-06-22T22:39:56Z</time>
   </trkpt>
   <trkpt lat="-3.0934030" lon="37.3768250">
    <ele>4849.9</ele>
    <time>2026-06-22T22:39:57Z</time>
   </trkpt>
   <trkpt lat="-3.0934020" lon="37.3768220">
    <ele>4850.0</ele>
    <time>2026-06-22T22:39:58Z</time>
   </trkpt>
   <trkpt lat="-3.0934040" lon="37.3768220">
    <ele>4850.0</ele>
    <time>2026-06-22T22:39:59Z</time>
   </trkpt>
   <trkpt lat="-3.0934050" lon="37.3768230">
    <ele>4850.1</ele>
    <time>2026-06-22T22:40:00Z</time>
   </trkpt>
   <trkpt lat="-3.0934050" lon="37.3768250">
    <ele>4850.1</ele>
    <time>2026-06-22T22:40:01Z</time>
   </trkpt>
   <trkpt lat="-3.0934050" lon="37.3768260">
    <ele>4850.1</ele>
    <time>2026-06-22T22:40:02Z</time>
   </trkpt>
   <trkpt lat="-3.0934050" lon="37.3768270">
    <ele>4850.1</ele>
    <time>2026-06-22T22:40:03Z</time>
   </trkpt>
   <trkpt lat="-3.0934030" lon="37.3768280">
    <ele>4850.2</ele>
    <time>2026-06-22T22:40:04Z</time>
   </trkpt>
   <trkpt lat="-3.0933950" lon="37.3768200">
    <ele>4850.4</ele>
    <time>2026-06-22T22:40:05Z</time>
   </trkpt>
   <trkpt lat="-3.0933910" lon="37.3768180">
    <ele>4850.5</ele>
    <time>2026-06-22T22:40:06Z</time>
   </trkpt>
   <trkpt lat="-3.0933870" lon="37.3768170">
    <ele>4850.5</ele>
    <time>2026-06-22T22:40:07Z</time>
   </trkpt>
   <trkpt lat="-3.0933810" lon="37.3768160">
    <ele>4850.6</ele>
    <time>2026-06-22T22:40:08Z</time>
   </trkpt>
   <trkpt lat="-3.0933790" lon="37.3768140">
    <ele>4850.7</ele>
    <time>2026-06-22T22:40:09Z</time>
   </trkpt>
   <trkpt lat="-3.0933750" lon="37.3768140">
    <ele>4850.8</ele>
    <time>2026-06-22T22:40:10Z</time>
   </trkpt>
   <trkpt lat="-3.0933730" lon="37.3768150">
    <ele>4850.8</ele>
    <time>2026-06-22T22:40:11Z</time>
   </trkpt>
   <trkpt lat="-3.0933690" lon="37.3768170">
    <ele>4850.9</ele>
    <time>2026-06-22T22:40:12Z</time>
   </trkpt>
   <trkpt lat="-3.0933650" lon="37.3768150">
    <ele>4851.0</ele>
    <time>2026-06-22T22:40:13Z</time>
   </trkpt>
   <trkpt lat="-3.0933650" lon="37.3768160">
    <ele>4851.0</ele>
    <time>2026-06-22T22:40:14Z</time>
   </trkpt>
   <trkpt lat="-3.0933640" lon="37.3768150">
    <ele>4851.0</ele>
    <time>2026-06-22T22:40:15Z</time>
   </trkpt>
   <trkpt lat="-3.0933610" lon="37.3768140">
    <ele>4851.1</ele>
    <time>2026-06-22T22:40:16Z</time>
   </trkpt>
   <trkpt lat="-3.0933570" lon="37.3768120">
    <ele>4851.1</ele>
    <time>2026-06-22T22:40:18Z</time>
   </trkpt>
   <trkpt lat="-3.0933530" lon="37.3768080">
    <ele>4851.2</ele>
    <time>2026-06-22T22:40:19Z</time>
   </trkpt>
   <trkpt lat="-3.0933490" lon="37.3768070">
    <ele>4851.3</ele>
    <time>2026-06-22T22:40:20Z</time>
   </trkpt>
   <trkpt lat="-3.0933480" lon="37.3768080">
    <ele>4851.3</ele>
    <time>2026-06-22T22:40:21Z</time>
   </trkpt>
   <trkpt lat="-3.0933470" lon="37.3767980">
    <ele>4851.5</ele>
    <time>2026-06-22T22:40:22Z</time>
   </trkpt>
   <trkpt lat="-3.0933420" lon="37.3768000">
    <ele>4851.6</ele>
    <time>2026-06-22T22:40:23Z</time>
   </trkpt>
   <trkpt lat="-3.0933320" lon="37.3767950">
    <ele>4851.8</ele>
    <time>2026-06-22T22:40:24Z</time>
   </trkpt>
   <trkpt lat="-3.0933370" lon="37.3767980">
    <ele>4851.9</ele>
    <time>2026-06-22T22:40:25Z</time>
   </trkpt>
   <trkpt lat="-3.0933350" lon="37.3767970">
    <ele>4852.0</ele>
    <time>2026-06-22T22:40:26Z</time>
   </trkpt>
   <trkpt lat="-3.0933330" lon="37.3767960">
    <ele>4852.0</ele>
    <time>2026-06-22T22:40:27Z</time>
   </trkpt>
   <trkpt lat="-3.0933310" lon="37.3767950">
    <ele>4852.0</ele>
    <time>2026-06-22T22:40:28Z</time>
   </trkpt>
   <trkpt lat="-3.0933250" lon="37.3767950">
    <ele>4852.1</ele>
    <time>2026-06-22T22:40:29Z</time>
   </trkpt>
   <trkpt lat="-3.0933250" lon="37.3767940">
    <ele>4852.2</ele>
    <time>2026-06-22T22:40:30Z</time>
   </trkpt>
   <trkpt lat="-3.0933220" lon="37.3767920">
    <ele>4852.2</ele>
    <time>2026-06-22T22:40:31Z</time>
   </trkpt>
   <trkpt lat="-3.0933210" lon="37.3767900">
    <ele>4852.3</ele>
    <time>2026-06-22T22:40:32Z</time>
   </trkpt>
   <trkpt lat="-3.0933190" lon="37.3767880">
    <ele>4852.3</ele>
    <time>2026-06-22T22:40:33Z</time>
   </trkpt>
   <trkpt lat="-3.0933180" lon="37.3767860">
    <ele>4852.4</ele>
    <time>2026-06-22T22:40:34Z</time>
   </trkpt>
   <trkpt lat="-3.0933170" lon="37.3767840">
    <ele>4852.4</ele>
    <time>2026-06-22T22:40:35Z</time>
   </trkpt>
   <trkpt lat="-3.0933170" lon="37.3767810">
    <ele>4852.4</ele>
    <time>2026-06-22T22:40:36Z</time>
   </trkpt>
   <trkpt lat="-3.0933150" lon="37.3767790">
    <ele>4852.5</ele>
    <time>2026-06-22T22:40:37Z</time>
   </trkpt>
   <trkpt lat="-3.0933120" lon="37.3767770">
    <ele>4852.6</ele>
    <time>2026-06-22T22:40:38Z</time>
   </trkpt>
   <trkpt lat="-3.0933130" lon="37.3767750">
    <ele>4852.6</ele>
    <time>2026-06-22T22:40:39Z</time>
   </trkpt>
   <trkpt lat="-3.0933110" lon="37.3767770">
    <ele>4852.6</ele>
    <time>2026-06-22T22:40:40Z</time>
   </trkpt>
   <trkpt lat="-3.0933120" lon="37.3767760">
    <ele>4852.7</ele>
    <time>2026-06-22T22:40:41Z</time>
   </trkpt>
   <trkpt lat="-3.0933080" lon="37.3767730">
    <ele>4852.8</ele>
    <time>2026-06-22T22:40:42Z</time>
   </trkpt>
   <trkpt lat="-3.0933070" lon="37.3767700">
    <ele>4852.8</ele>
    <time>2026-06-22T22:40:43Z</time>
   </trkpt>
   <trkpt lat="-3.0933040" lon="37.3767670">
    <ele>4852.9</ele>
    <time>2026-06-22T22:40:44Z</time>
   </trkpt>
   <trkpt lat="-3.0933040" lon="37.3767650">
    <ele>4852.9</ele>
    <time>2026-06-22T22:40:45Z</time>
   </trkpt>
   <trkpt lat="-3.0933000" lon="37.3767640">
    <ele>4853.0</ele>
    <time>2026-06-22T22:40:46Z</time>
   </trkpt>
   <trkpt lat="-3.0932980" lon="37.3767630">
    <ele>4853.0</ele>
    <time>2026-06-22T22:40:47Z</time>
   </trkpt>
   <trkpt lat="-3.0932970" lon="37.3767640">
    <ele>4853.1</ele>
    <time>2026-06-22T22:40:48Z</time>
   </trkpt>
   <trkpt lat="-3.0932940" lon="37.3767640">
    <ele>4853.1</ele>
    <time>2026-06-22T22:40:49Z</time>
   </trkpt>
   <trkpt lat="-3.0932930" lon="37.3767630">
    <ele>4853.1</ele>
    <time>2026-06-22T22:40:50Z</time>
   </trkpt>
   <trkpt lat="-3.0932870" lon="37.3767620">
    <ele>4853.3</ele>
    <time>2026-06-22T22:40:51Z</time>
   </trkpt>
   <trkpt lat="-3.0932830" lon="37.3767630">
    <ele>4853.3</ele>
    <time>2026-06-22T22:40:52Z</time>
   </trkpt>
   <trkpt lat="-3.0932830" lon="37.3767640">
    <ele>4853.3</ele>
    <time>2026-06-22T22:40:53Z</time>
   </trkpt>
   <trkpt lat="-3.0932750" lon="37.3767650">
    <ele>4853.5</ele>
    <time>2026-06-22T22:40:54Z</time>
   </trkpt>
   <trkpt lat="-3.0932740" lon="37.3767650">
    <ele>4853.5</ele>
    <time>2026-06-22T22:40:55Z</time>
   </trkpt>
   <trkpt lat="-3.0932720" lon="37.3767680">
    <ele>4853.6</ele>
    <time>2026-06-22T22:40:56Z</time>
   </trkpt>
   <trkpt lat="-3.0932660" lon="37.3767690">
    <ele>4853.7</ele>
    <time>2026-06-22T22:40:57Z</time>
   </trkpt>
   <trkpt lat="-3.0932650" lon="37.3767690">
    <ele>4853.7</ele>
    <time>2026-06-22T22:40:58Z</time>
   </trkpt>
   <trkpt lat="-3.0932620" lon="37.3767710">
    <ele>4853.8</ele>
    <time>2026-06-22T22:40:59Z</time>
   </trkpt>
   <trkpt lat="-3.0932600" lon="37.3767720">
    <ele>4853.8</ele>
    <time>2026-06-22T22:41:00Z</time>
   </trkpt>
   <trkpt lat="-3.0932570" lon="37.3767710">
    <ele>4853.9</ele>
    <time>2026-06-22T22:41:01Z</time>
   </trkpt>
   <trkpt lat="-3.0932560" lon="37.3767720">
    <ele>4853.9</ele>
    <time>2026-06-22T22:41:02Z</time>
   </trkpt>
   <trkpt lat="-3.0932530" lon="37.3767720">
    <ele>4853.9</ele>
    <time>2026-06-22T22:41:03Z</time>
   </trkpt>
   <trkpt lat="-3.0932490" lon="37.3767700">
    <ele>4854.0</ele>
    <time>2026-06-22T22:41:04Z</time>
   </trkpt>
   <trkpt lat="-3.0932470" lon="37.3767710">
    <ele>4854.1</ele>
    <time>2026-06-22T22:41:05Z</time>
   </trkpt>
   <trkpt lat="-3.0932420" lon="37.3767690">
    <ele>4854.1</ele>
    <time>2026-06-22T22:41:06Z</time>
   </trkpt>
   <trkpt lat="-3.0932400" lon="37.3767680">
    <ele>4854.2</ele>
    <time>2026-06-22T22:41:07Z</time>
   </trkpt>
   <trkpt lat="-3.0932380" lon="37.3767680">
    <ele>4854.2</ele>
    <time>2026-06-22T22:41:08Z</time>
   </trkpt>
   <trkpt lat="-3.0932360" lon="37.3767690">
    <ele>4854.3</ele>
    <time>2026-06-22T22:41:09Z</time>
   </trkpt>
   <trkpt lat="-3.0932350" lon="37.3767680">
    <ele>4854.3</ele>
    <time>2026-06-22T22:41:10Z</time>
   </trkpt>
   <trkpt lat="-3.0932350" lon="37.3767670">
    <ele>4854.3</ele>
    <time>2026-06-22T22:41:11Z</time>
   </trkpt>
   <trkpt lat="-3.0932310" lon="37.3767670">
    <ele>4854.4</ele>
    <time>2026-06-22T22:41:12Z</time>
   </trkpt>
   <trkpt lat="-3.0932280" lon="37.3767660">
    <ele>4854.4</ele>
    <time>2026-06-22T22:41:13Z</time>
   </trkpt>
   <trkpt lat="-3.0932260" lon="37.3767680">
    <ele>4854.5</ele>
    <time>2026-06-22T22:41:14Z</time>
   </trkpt>
   <trkpt lat="-3.0932200" lon="37.3767650">
    <ele>4854.6</ele>
    <time>2026-06-22T22:41:15Z</time>
   </trkpt>
   <trkpt lat="-3.0932160" lon="37.3767640">
    <ele>4854.7</ele>
    <time>2026-06-22T22:41:16Z</time>
   </trkpt>
   <trkpt lat="-3.0932140" lon="37.3767620">
    <ele>4854.7</ele>
    <time>2026-06-22T22:41:17Z</time>
   </trkpt>
   <trkpt lat="-3.0932130" lon="37.3767610">
    <ele>4854.8</ele>
    <time>2026-06-22T22:41:18Z</time>
   </trkpt>
   <trkpt lat="-3.0932060" lon="37.3767580">
    <ele>4854.9</ele>
    <time>2026-06-22T22:41:19Z</time>
   </trkpt>
   <trkpt lat="-3.0932050" lon="37.3767570">
    <ele>4854.9</ele>
    <time>2026-06-22T22:41:20Z</time>
   </trkpt>
   <trkpt lat="-3.0932020" lon="37.3767550">
    <ele>4855.0</ele>
    <time>2026-06-22T22:41:21Z</time>
   </trkpt>
   <trkpt lat="-3.0931990" lon="37.3767520">
    <ele>4855.1</ele>
    <time>2026-06-22T22:41:22Z</time>
   </trkpt>
   <trkpt lat="-3.0931960" lon="37.3767470">
    <ele>4855.2</ele>
    <time>2026-06-22T22:41:23Z</time>
   </trkpt>
   <trkpt lat="-3.0931970" lon="37.3767470">
    <ele>4855.2</ele>
    <time>2026-06-22T22:41:24Z</time>
   </trkpt>
   <trkpt lat="-3.0931960" lon="37.3767440">
    <ele>4855.2</ele>
    <time>2026-06-22T22:41:25Z</time>
   </trkpt>
   <trkpt lat="-3.0931960" lon="37.3767440">
    <ele>4855.2</ele>
    <time>2026-06-22T22:41:26Z</time>
   </trkpt>
   <trkpt lat="-3.0931950" lon="37.3767400">
    <ele>4855.3</ele>
    <time>2026-06-22T22:41:27Z</time>
   </trkpt>
   <trkpt lat="-3.0931940" lon="37.3767390">
    <ele>4855.3</ele>
    <time>2026-06-22T22:41:28Z</time>
   </trkpt>
   <trkpt lat="-3.0931920" lon="37.3767360">
    <ele>4855.4</ele>
    <time>2026-06-22T22:41:29Z</time>
   </trkpt>
   <trkpt lat="-3.0931890" lon="37.3767340">
    <ele>4855.5</ele>
    <time>2026-06-22T22:41:30Z</time>
   </trkpt>
   <trkpt lat="-3.0931880" lon="37.3767310">
    <ele>4855.5</ele>
    <time>2026-06-22T22:41:31Z</time>
   </trkpt>
   <trkpt lat="-3.0931870" lon="37.3767290">
    <ele>4855.6</ele>
    <time>2026-06-22T22:41:32Z</time>
   </trkpt>
   <trkpt lat="-3.0931860" lon="37.3767260">
    <ele>4855.6</ele>
    <time>2026-06-22T22:41:33Z</time>
   </trkpt>
   <trkpt lat="-3.0931820" lon="37.3767240">
    <ele>4855.7</ele>
    <time>2026-06-22T22:41:34Z</time>
   </trkpt>
   <trkpt lat="-3.0931800" lon="37.3767220">
    <ele>4855.7</ele>
    <time>2026-06-22T22:41:35Z</time>
   </trkpt>
   <trkpt lat="-3.0931780" lon="37.3767210">
    <ele>4855.8</ele>
    <time>2026-06-22T22:41:36Z</time>
   </trkpt>
   <trkpt lat="-3.0931770" lon="37.3767180">
    <ele>4855.8</ele>
    <time>2026-06-22T22:41:37Z</time>
   </trkpt>
   <trkpt lat="-3.0931760" lon="37.3767180">
    <ele>4855.8</ele>
    <time>2026-06-22T22:41:38Z</time>
   </trkpt>
   <trkpt lat="-3.0931740" lon="37.3767160">
    <ele>4855.9</ele>
    <time>2026-06-22T22:41:39Z</time>
   </trkpt>
   <trkpt lat="-3.0931740" lon="37.3767160">
    <ele>4855.9</ele>
    <time>2026-06-22T22:41:40Z</time>
   </trkpt>
   <trkpt lat="-3.0931680" lon="37.3767130">
    <ele>4856.0</ele>
    <time>2026-06-22T22:41:41Z</time>
   </trkpt>
   <trkpt lat="-3.0931680" lon="37.3767130">
    <ele>4856.0</ele>
    <time>2026-06-22T22:41:42Z</time>
   </trkpt>
   <trkpt lat="-3.0931650" lon="37.3767130">
    <ele>4856.1</ele>
    <time>2026-06-22T22:41:43Z</time>
   </trkpt>
   <trkpt lat="-3.0931640" lon="37.3767110">
    <ele>4856.1</ele>
    <time>2026-06-22T22:41:44Z</time>
   </trkpt>
   <trkpt lat="-3.0931620" lon="37.3767110">
    <ele>4856.1</ele>
    <time>2026-06-22T22:41:45Z</time>
   </trkpt>
   <trkpt lat="-3.0931610" lon="37.3767110">
    <ele>4856.2</ele>
    <time>2026-06-22T22:41:46Z</time>
   </trkpt>
   <trkpt lat="-3.0931600" lon="37.3767100">
    <ele>4856.2</ele>
    <time>2026-06-22T22:41:47Z</time>
   </trkpt>
   <trkpt lat="-3.0931600" lon="37.3767100">
    <ele>4856.2</ele>
    <time>2026-06-22T22:41:48Z</time>
   </trkpt>
   <trkpt lat="-3.0931570" lon="37.3767110">
    <ele>4856.2</ele>
    <time>2026-06-22T22:41:49Z</time>
   </trkpt>
   <trkpt lat="-3.0931580" lon="37.3767120">
    <ele>4856.3</ele>
    <time>2026-06-22T22:41:50Z</time>
   </trkpt>
   <trkpt lat="-3.0931540" lon="37.3767120">
    <ele>4856.3</ele>
    <time>2026-06-22T22:41:51Z</time>
   </trkpt>
   <trkpt lat="-3.0931510" lon="37.3767100">
    <ele>4856.4</ele>
    <time>2026-06-22T22:41:52Z</time>
   </trkpt>
   <trkpt lat="-3.0931490" lon="37.3767110">
    <ele>4856.4</ele>
    <time>2026-06-22T22:41:53Z</time>
   </trkpt>
   <trkpt lat="-3.0931440" lon="37.3767100">
    <ele>4856.5</ele>
    <time>2026-06-22T22:41:54Z</time>
   </trkpt>
   <trkpt lat="-3.0931420" lon="37.3767090">
    <ele>4856.6</ele>
    <time>2026-06-22T22:41:55Z</time>
   </trkpt>
   <trkpt lat="-3.0931420" lon="37.3767110">
    <ele>4856.6</ele>
    <time>2026-06-22T22:41:56Z</time>
   </trkpt>
   <trkpt lat="-3.0931370" lon="37.3767100">
    <ele>4856.7</ele>
    <time>2026-06-22T22:41:57Z</time>
   </trkpt>
   <trkpt lat="-3.0931360" lon="37.3767110">
    <ele>4856.7</ele>
    <time>2026-06-22T22:41:58Z</time>
   </trkpt>
   <trkpt lat="-3.0931330" lon="37.3767120">
    <ele>4856.8</ele>
    <time>2026-06-22T22:41:59Z</time>
   </trkpt>
   <trkpt lat="-3.0931270" lon="37.3767110">
    <ele>4856.9</ele>
    <time>2026-06-22T22:42:00Z</time>
   </trkpt>
   <trkpt lat="-3.0931260" lon="37.3767120">
    <ele>4856.9</ele>
    <time>2026-06-22T22:42:01Z</time>
   </trkpt>
   <trkpt lat="-3.0931250" lon="37.3767120">
    <ele>4856.9</ele>
    <time>2026-06-22T22:42:02Z</time>
   </trkpt>
   <trkpt lat="-3.0931180" lon="37.3767120">
    <ele>4857.1</ele>
    <time>2026-06-22T22:42:03Z</time>
   </trkpt>
   <trkpt lat="-3.0931150" lon="37.3767120">
    <ele>4857.1</ele>
    <time>2026-06-22T22:42:04Z</time>
   </trkpt>
   <trkpt lat="-3.0931120" lon="37.3767130">
    <ele>4857.2</ele>
    <time>2026-06-22T22:42:05Z</time>
   </trkpt>
   <trkpt lat="-3.0931100" lon="37.3767130">
    <ele>4857.2</ele>
    <time>2026-06-22T22:42:06Z</time>
   </trkpt>
   <trkpt lat="-3.0931070" lon="37.3767140">
    <ele>4857.3</ele>
    <time>2026-06-22T22:42:07Z</time>
   </trkpt>
   <trkpt lat="-3.0931060" lon="37.3767150">
    <ele>4857.3</ele>
    <time>2026-06-22T22:42:08Z</time>
   </trkpt>
   <trkpt lat="-3.0931040" lon="37.3767140">
    <ele>4857.3</ele>
    <time>2026-06-22T22:42:09Z</time>
   </trkpt>
   <trkpt lat="-3.0931020" lon="37.3767160">
    <ele>4857.4</ele>
    <time>2026-06-22T22:42:10Z</time>
   </trkpt>
   <trkpt lat="-3.0930990" lon="37.3767160">
    <ele>4857.4</ele>
    <time>2026-06-22T22:42:11Z</time>
   </trkpt>
   <trkpt lat="-3.0930980" lon="37.3767180">
    <ele>4857.5</ele>
    <time>2026-06-22T22:42:12Z</time>
   </trkpt>
   <trkpt lat="-3.0930930" lon="37.3767180">
    <ele>4857.6</ele>
    <time>2026-06-22T22:42:13Z</time>
   </trkpt>
   <trkpt lat="-3.0930930" lon="37.3767190">
    <ele>4857.6</ele>
    <time>2026-06-22T22:42:14Z</time>
   </trkpt>
   <trkpt lat="-3.0930880" lon="37.3767200">
    <ele>4857.7</ele>
    <time>2026-06-22T22:42:15Z</time>
   </trkpt>
   <trkpt lat="-3.0930840" lon="37.3767210">
    <ele>4857.8</ele>
    <time>2026-06-22T22:42:16Z</time>
   </trkpt>
   <trkpt lat="-3.0930810" lon="37.3767210">
    <ele>4857.8</ele>
    <time>2026-06-22T22:42:17Z</time>
   </trkpt>
   <trkpt lat="-3.0930810" lon="37.3767220">
    <ele>4857.8</ele>
    <time>2026-06-22T22:42:18Z</time>
   </trkpt>
   <trkpt lat="-3.0930780" lon="37.3767190">
    <ele>4857.9</ele>
    <time>2026-06-22T22:42:19Z</time>
   </trkpt>
   <trkpt lat="-3.0930740" lon="37.3767190">
    <ele>4858.0</ele>
    <time>2026-06-22T22:42:20Z</time>
   </trkpt>
   <trkpt lat="-3.0930750" lon="37.3767170">
    <ele>4858.0</ele>
    <time>2026-06-22T22:42:21Z</time>
   </trkpt>
   <trkpt lat="-3.0930730" lon="37.3767160">
    <ele>4858.1</ele>
    <time>2026-06-22T22:42:22Z</time>
   </trkpt>
   <trkpt lat="-3.0930700" lon="37.3767130">
    <ele>4858.1</ele>
    <time>2026-06-22T22:42:24Z</time>
   </trkpt>
   <trkpt lat="-3.0930670" lon="37.3767130">
    <ele>4858.2</ele>
    <time>2026-06-22T22:42:25Z</time>
   </trkpt>
   <trkpt lat="-3.0930670" lon="37.3767110">
    <ele>4858.2</ele>
    <time>2026-06-22T22:42:26Z</time>
   </trkpt>
   <trkpt lat="-3.0930660" lon="37.3767090">
    <ele>4858.3</ele>
    <time>2026-06-22T22:42:27Z</time>
   </trkpt>
   <trkpt lat="-3.0930640" lon="37.3767070">
    <ele>4858.3</ele>
    <time>2026-06-22T22:42:28Z</time>
   </trkpt>
   <trkpt lat="-3.0930600" lon="37.3767040">
    <ele>4858.4</ele>
    <time>2026-06-22T22:42:29Z</time>
   </trkpt>
   <trkpt lat="-3.0930610" lon="37.3767030">
    <ele>4858.4</ele>
    <time>2026-06-22T22:42:30Z</time>
   </trkpt>
   <trkpt lat="-3.0930580" lon="37.3767010">
    <ele>4858.5</ele>
    <time>2026-06-22T22:42:31Z</time>
   </trkpt>
   <trkpt lat="-3.0930570" lon="37.3767000">
    <ele>4858.5</ele>
    <time>2026-06-22T22:42:32Z</time>
   </trkpt>
   <trkpt lat="-3.0930550" lon="37.3766970">
    <ele>4858.6</ele>
    <time>2026-06-22T22:42:33Z</time>
   </trkpt>
   <trkpt lat="-3.0930520" lon="37.3766940">
    <ele>4858.7</ele>
    <time>2026-06-22T22:42:34Z</time>
   </trkpt>
   <trkpt lat="-3.0930520" lon="37.3766920">
    <ele>4858.7</ele>
    <time>2026-06-22T22:42:35Z</time>
   </trkpt>
   <trkpt lat="-3.0930530" lon="37.3766920">
    <ele>4858.7</ele>
    <time>2026-06-22T22:42:36Z</time>
   </trkpt>
   <trkpt lat="-3.0930510" lon="37.3766880">
    <ele>4858.8</ele>
    <time>2026-06-22T22:42:37Z</time>
   </trkpt>
   <trkpt lat="-3.0930530" lon="37.3766890">
    <ele>4858.8</ele>
    <time>2026-06-22T22:42:38Z</time>
   </trkpt>
   <trkpt lat="-3.0930520" lon="37.3766870">
    <ele>4858.9</ele>
    <time>2026-06-22T22:42:39Z</time>
   </trkpt>
   <trkpt lat="-3.0930540" lon="37.3766780">
    <ele>4859.1</ele>
    <time>2026-06-22T22:42:40Z</time>
   </trkpt>
   <trkpt lat="-3.0930550" lon="37.3766840">
    <ele>4859.2</ele>
    <time>2026-06-22T22:42:41Z</time>
   </trkpt>
   <trkpt lat="-3.0930540" lon="37.3766810">
    <ele>4859.2</ele>
    <time>2026-06-22T22:42:42Z</time>
   </trkpt>
   <trkpt lat="-3.0930560" lon="37.3766770">
    <ele>4859.3</ele>
    <time>2026-06-22T22:42:43Z</time>
   </trkpt>
   <trkpt lat="-3.0930540" lon="37.3766760">
    <ele>4859.3</ele>
    <time>2026-06-22T22:42:44Z</time>
   </trkpt>
   <trkpt lat="-3.0930540" lon="37.3766730">
    <ele>4859.4</ele>
    <time>2026-06-22T22:42:45Z</time>
   </trkpt>
   <trkpt lat="-3.0930540" lon="37.3766690">
    <ele>4859.5</ele>
    <time>2026-06-22T22:42:46Z</time>
   </trkpt>
   <trkpt lat="-3.0930520" lon="37.3766690">
    <ele>4859.5</ele>
    <time>2026-06-22T22:42:47Z</time>
   </trkpt>
   <trkpt lat="-3.0930530" lon="37.3766660">
    <ele>4859.6</ele>
    <time>2026-06-22T22:42:48Z</time>
   </trkpt>
   <trkpt lat="-3.0930510" lon="37.3766620">
    <ele>4859.6</ele>
    <time>2026-06-22T22:42:49Z</time>
   </trkpt>
   <trkpt lat="-3.0930510" lon="37.3766600">
    <ele>4859.7</ele>
    <time>2026-06-22T22:42:50Z</time>
   </trkpt>
   <trkpt lat="-3.0930500" lon="37.3766560">
    <ele>4859.8</ele>
    <time>2026-06-22T22:42:51Z</time>
   </trkpt>
   <trkpt lat="-3.0930530" lon="37.3766530">
    <ele>4859.8</ele>
    <time>2026-06-22T22:42:52Z</time>
   </trkpt>
   <trkpt lat="-3.0930510" lon="37.3766480">
    <ele>4859.9</ele>
    <time>2026-06-22T22:42:53Z</time>
   </trkpt>
   <trkpt lat="-3.0930530" lon="37.3766440">
    <ele>4860.0</ele>
    <time>2026-06-22T22:42:54Z</time>
   </trkpt>
   <trkpt lat="-3.0930470" lon="37.3766410">
    <ele>4860.1</ele>
    <time>2026-06-22T22:42:55Z</time>
   </trkpt>
   <trkpt lat="-3.0930430" lon="37.3766400">
    <ele>4860.2</ele>
    <time>2026-06-22T22:42:56Z</time>
   </trkpt>
   <trkpt lat="-3.0930390" lon="37.3766400">
    <ele>4860.3</ele>
    <time>2026-06-22T22:42:57Z</time>
   </trkpt>
   <trkpt lat="-3.0930360" lon="37.3766380">
    <ele>4860.3</ele>
    <time>2026-06-22T22:42:58Z</time>
   </trkpt>
   <trkpt lat="-3.0930340" lon="37.3766380">
    <ele>4860.4</ele>
    <time>2026-06-22T22:42:59Z</time>
   </trkpt>
   <trkpt lat="-3.0930340" lon="37.3766340">
    <ele>4860.5</ele>
    <time>2026-06-22T22:43:00Z</time>
   </trkpt>
   <trkpt lat="-3.0930330" lon="37.3766310">
    <ele>4860.5</ele>
    <time>2026-06-22T22:43:01Z</time>
   </trkpt>
   <trkpt lat="-3.0930340" lon="37.3766290">
    <ele>4860.5</ele>
    <time>2026-06-22T22:43:02Z</time>
   </trkpt>
   <trkpt lat="-3.0930330" lon="37.3766280">
    <ele>4860.6</ele>
    <time>2026-06-22T22:43:03Z</time>
   </trkpt>
   <trkpt lat="-3.0930330" lon="37.3766230">
    <ele>4860.7</ele>
    <time>2026-06-22T22:43:04Z</time>
   </trkpt>
   <trkpt lat="-3.0930330" lon="37.3766240">
    <ele>4860.7</ele>
    <time>2026-06-22T22:43:05Z</time>
   </trkpt>
   <trkpt lat="-3.0930350" lon="37.3766240">
    <ele>4860.7</ele>
    <time>2026-06-22T22:43:06Z</time>
   </trkpt>
   <trkpt lat="-3.0930350" lon="37.3766240">
    <ele>4860.7</ele>
    <time>2026-06-22T22:43:07Z</time>
   </trkpt>
   <trkpt lat="-3.0930360" lon="37.3766220">
    <ele>4860.8</ele>
    <time>2026-06-22T22:43:08Z</time>
   </trkpt>
   <trkpt lat="-3.0930370" lon="37.3766150">
    <ele>4860.9</ele>
    <time>2026-06-22T22:43:09Z</time>
   </trkpt>
   <trkpt lat="-3.0930380" lon="37.3766120">
    <ele>4860.9</ele>
    <time>2026-06-22T22:43:10Z</time>
   </trkpt>
   <trkpt lat="-3.0930360" lon="37.3766100">
    <ele>4861.0</ele>
    <time>2026-06-22T22:43:11Z</time>
   </trkpt>
   <trkpt lat="-3.0930340" lon="37.3766090">
    <ele>4861.0</ele>
    <time>2026-06-22T22:43:12Z</time>
   </trkpt>
   <trkpt lat="-3.0930320" lon="37.3766100">
    <ele>4861.1</ele>
    <time>2026-06-22T22:43:13Z</time>
   </trkpt>
   <trkpt lat="-3.0930290" lon="37.3766080">
    <ele>4861.1</ele>
    <time>2026-06-22T22:43:14Z</time>
   </trkpt>
   <trkpt lat="-3.0930260" lon="37.3766070">
    <ele>4861.2</ele>
    <time>2026-06-22T22:43:15Z</time>
   </trkpt>
   <trkpt lat="-3.0930240" lon="37.3766060">
    <ele>4861.2</ele>
    <time>2026-06-22T22:43:16Z</time>
   </trkpt>
   <trkpt lat="-3.0930230" lon="37.3766040">
    <ele>4861.3</ele>
    <time>2026-06-22T22:43:17Z</time>
   </trkpt>
   <trkpt lat="-3.0930210" lon="37.3766000">
    <ele>4861.4</ele>
    <time>2026-06-22T22:43:18Z</time>
   </trkpt>
   <trkpt lat="-3.0930200" lon="37.3765980">
    <ele>4861.4</ele>
    <time>2026-06-22T22:43:19Z</time>
   </trkpt>
   <trkpt lat="-3.0930190" lon="37.3765970">
    <ele>4861.4</ele>
    <time>2026-06-22T22:43:20Z</time>
   </trkpt>
   <trkpt lat="-3.0930190" lon="37.3765970">
    <ele>4861.4</ele>
    <time>2026-06-22T22:43:21Z</time>
   </trkpt>
   <trkpt lat="-3.0930170" lon="37.3765910">
    <ele>4861.5</ele>
    <time>2026-06-22T22:43:22Z</time>
   </trkpt>
   <trkpt lat="-3.0930140" lon="37.3765900">
    <ele>4861.6</ele>
    <time>2026-06-22T22:43:23Z</time>
   </trkpt>
   <trkpt lat="-3.0930140" lon="37.3765850">
    <ele>4861.7</ele>
    <time>2026-06-22T22:43:24Z</time>
   </trkpt>
   <trkpt lat="-3.0930100" lon="37.3765840">
    <ele>4861.7</ele>
    <time>2026-06-22T22:43:25Z</time>
   </trkpt>
   <trkpt lat="-3.0930060" lon="37.3765840">
    <ele>4861.8</ele>
    <time>2026-06-22T22:43:26Z</time>
   </trkpt>
   <trkpt lat="-3.0930020" lon="37.3765860">
    <ele>4861.9</ele>
    <time>2026-06-22T22:43:27Z</time>
   </trkpt>
   <trkpt lat="-3.0929990" lon="37.3765850">
    <ele>4861.9</ele>
    <time>2026-06-22T22:43:28Z</time>
   </trkpt>
   <trkpt lat="-3.0929950" lon="37.3765870">
    <ele>4862.0</ele>
    <time>2026-06-22T22:43:29Z</time>
   </trkpt>
   <trkpt lat="-3.0929920" lon="37.3765860">
    <ele>4862.1</ele>
    <time>2026-06-22T22:43:30Z</time>
   </trkpt>
   <trkpt lat="-3.0929880" lon="37.3765880">
    <ele>4862.2</ele>
    <time>2026-06-22T22:43:31Z</time>
   </trkpt>
   <trkpt lat="-3.0929840" lon="37.3765860">
    <ele>4862.2</ele>
    <time>2026-06-22T22:43:32Z</time>
   </trkpt>
   <trkpt lat="-3.0929820" lon="37.3765880">
    <ele>4862.3</ele>
    <time>2026-06-22T22:43:33Z</time>
   </trkpt>
   <trkpt lat="-3.0929770" lon="37.3765860">
    <ele>4862.4</ele>
    <time>2026-06-22T22:43:34Z</time>
   </trkpt>
   <trkpt lat="-3.0929760" lon="37.3765870">
    <ele>4862.4</ele>
    <time>2026-06-22T22:43:35Z</time>
   </trkpt>
   <trkpt lat="-3.0929730" lon="37.3765870">
    <ele>4862.5</ele>
    <time>2026-06-22T22:43:36Z</time>
   </trkpt>
   <trkpt lat="-3.0929710" lon="37.3765860">
    <ele>4862.5</ele>
    <time>2026-06-22T22:43:37Z</time>
   </trkpt>
   <trkpt lat="-3.0929680" lon="37.3765860">
    <ele>4862.5</ele>
    <time>2026-06-22T22:43:38Z</time>
   </trkpt>
   <trkpt lat="-3.0929650" lon="37.3765830">
    <ele>4862.6</ele>
    <time>2026-06-22T22:43:39Z</time>
   </trkpt>
   <trkpt lat="-3.0929610" lon="37.3765830">
    <ele>4862.7</ele>
    <time>2026-06-22T22:43:40Z</time>
   </trkpt>
   <trkpt lat="-3.0929570" lon="37.3765810">
    <ele>4862.7</ele>
    <time>2026-06-22T22:43:41Z</time>
   </trkpt>
   <trkpt lat="-3.0929550" lon="37.3765820">
    <ele>4862.8</ele>
    <time>2026-06-22T22:43:42Z</time>
   </trkpt>
   <trkpt lat="-3.0929510" lon="37.3765800">
    <ele>4862.9</ele>
    <time>2026-06-22T22:43:43Z</time>
   </trkpt>
   <trkpt lat="-3.0929480" lon="37.3765830">
    <ele>4862.9</ele>
    <time>2026-06-22T22:43:44Z</time>
   </trkpt>
   <trkpt lat="-3.0929460" lon="37.3765780">
    <ele>4863.0</ele>
    <time>2026-06-22T22:43:45Z</time>
   </trkpt>
   <trkpt lat="-3.0929430" lon="37.3765790">
    <ele>4863.1</ele>
    <time>2026-06-22T22:43:46Z</time>
   </trkpt>
   <trkpt lat="-3.0929390" lon="37.3765780">
    <ele>4863.1</ele>
    <time>2026-06-22T22:43:47Z</time>
   </trkpt>
   <trkpt lat="-3.0929360" lon="37.3765810">
    <ele>4863.2</ele>
    <time>2026-06-22T22:43:48Z</time>
   </trkpt>
   <trkpt lat="-3.0929320" lon="37.3765800">
    <ele>4863.3</ele>
    <time>2026-06-22T22:43:49Z</time>
   </trkpt>
   <trkpt lat="-3.0929290" lon="37.3765840">
    <ele>4863.3</ele>
    <time>2026-06-22T22:43:50Z</time>
   </trkpt>
   <trkpt lat="-3.0929260" lon="37.3765850">
    <ele>4863.4</ele>
    <time>2026-06-22T22:43:51Z</time>
   </trkpt>
   <trkpt lat="-3.0929220" lon="37.3765840">
    <ele>4863.5</ele>
    <time>2026-06-22T22:43:52Z</time>
   </trkpt>
   <trkpt lat="-3.0929200" lon="37.3765810">
    <ele>4863.5</ele>
    <time>2026-06-22T22:43:53Z</time>
   </trkpt>
   <trkpt lat="-3.0929180" lon="37.3765820">
    <ele>4863.6</ele>
    <time>2026-06-22T22:43:54Z</time>
   </trkpt>
   <trkpt lat="-3.0929140" lon="37.3765790">
    <ele>4863.6</ele>
    <time>2026-06-22T22:43:55Z</time>
   </trkpt>
   <trkpt lat="-3.0929100" lon="37.3765770">
    <ele>4863.7</ele>
    <time>2026-06-22T22:43:56Z</time>
   </trkpt>
   <trkpt lat="-3.0929070" lon="37.3765780">
    <ele>4863.7</ele>
    <time>2026-06-22T22:43:57Z</time>
   </trkpt>
   <trkpt lat="-3.0929030" lon="37.3765790">
    <ele>4863.8</ele>
    <time>2026-06-22T22:43:58Z</time>
   </trkpt>
   <trkpt lat="-3.0929010" lon="37.3765800">
    <ele>4863.8</ele>
    <time>2026-06-22T22:43:59Z</time>
   </trkpt>
   <trkpt lat="-3.0928970" lon="37.3765830">
    <ele>4863.9</ele>
    <time>2026-06-22T22:44:00Z</time>
   </trkpt>
   <trkpt lat="-3.0928940" lon="37.3765840">
    <ele>4864.0</ele>
    <time>2026-06-22T22:44:01Z</time>
   </trkpt>
   <trkpt lat="-3.0928900" lon="37.3765840">
    <ele>4864.0</ele>
    <time>2026-06-22T22:44:02Z</time>
   </trkpt>
   <trkpt lat="-3.0928860" lon="37.3765860">
    <ele>4864.1</ele>
    <time>2026-06-22T22:44:03Z</time>
   </trkpt>
   <trkpt lat="-3.0928840" lon="37.3765850">
    <ele>4864.1</ele>
    <time>2026-06-22T22:44:04Z</time>
   </trkpt>
   <trkpt lat="-3.0928830" lon="37.3765860">
    <ele>4864.2</ele>
    <time>2026-06-22T22:44:05Z</time>
   </trkpt>
   <trkpt lat="-3.0928820" lon="37.3765850">
    <ele>4864.2</ele>
    <time>2026-06-22T22:44:06Z</time>
   </trkpt>
   <trkpt lat="-3.0928790" lon="37.3765830">
    <ele>4864.2</ele>
    <time>2026-06-22T22:44:07Z</time>
   </trkpt>
   <trkpt lat="-3.0928770" lon="37.3765830">
    <ele>4864.3</ele>
    <time>2026-06-22T22:44:08Z</time>
   </trkpt>
   <trkpt lat="-3.0928730" lon="37.3765830">
    <ele>4864.3</ele>
    <time>2026-06-22T22:44:09Z</time>
   </trkpt>
   <trkpt lat="-3.0928710" lon="37.3765820">
    <ele>4864.4</ele>
    <time>2026-06-22T22:44:10Z</time>
   </trkpt>
   <trkpt lat="-3.0928700" lon="37.3765830">
    <ele>4864.4</ele>
    <time>2026-06-22T22:44:11Z</time>
   </trkpt>
   <trkpt lat="-3.0928700" lon="37.3765830">
    <ele>4864.4</ele>
    <time>2026-06-22T22:44:12Z</time>
   </trkpt>
   <trkpt lat="-3.0928700" lon="37.3765830">
    <ele>4864.4</ele>
    <time>2026-06-22T22:44:13Z</time>
   </trkpt>
   <trkpt lat="-3.0928700" lon="37.3765830">
    <ele>4864.4</ele>
    <time>2026-06-22T22:44:14Z</time>
   </trkpt>
   <trkpt lat="-3.0928700" lon="37.3765830">
    <ele>4864.4</ele>
    <time>2026-06-22T22:44:15Z</time>
   </trkpt>
   <trkpt lat="-3.0928700" lon="37.3765820">
    <ele>4864.4</ele>
    <time>2026-06-22T22:44:16Z</time>
   </trkpt>
   <trkpt lat="-3.0928700" lon="37.3765820">
    <ele>4864.4</ele>
    <time>2026-06-22T22:44:17Z</time>
   </trkpt>
   <trkpt lat="-3.0928700" lon="37.3765820">
    <ele>4864.4</ele>
    <time>2026-06-22T22:44:18Z</time>
   </trkpt>
   <trkpt lat="-3.0928700" lon="37.3765820">
    <ele>4864.4</ele>
    <time>2026-06-22T22:44:19Z</time>
   </trkpt>
   <trkpt lat="-3.0928700" lon="37.3765820">
    <ele>4864.4</ele>
    <time>2026-06-22T22:44:20Z</time>
   </trkpt>
   <trkpt lat="-3.0928700" lon="37.3765820">
    <ele>4864.4</ele>
    <time>2026-06-22T22:44:21Z</time>
   </trkpt>
   <trkpt lat="-3.0928710" lon="37.3765820">
    <ele>4864.4</ele>
    <time>2026-06-22T22:44:22Z</time>
   </trkpt>
   <trkpt lat="-3.0928700" lon="37.3765820">
    <ele>4864.4</ele>
    <time>2026-06-22T22:44:23Z</time>
   </trkpt>
   <trkpt lat="-3.0928700" lon="37.3765820">
    <ele>4864.4</ele>
    <time>2026-06-22T22:44:24Z</time>
   </trkpt>
   <trkpt lat="-3.0928680" lon="37.3765800">
    <ele>4864.5</ele>
    <time>2026-06-22T22:44:25Z</time>
   </trkpt>
   <trkpt lat="-3.0928700" lon="37.3765820">
    <ele>4864.5</ele>
    <time>2026-06-22T22:44:26Z</time>
   </trkpt>
   <trkpt lat="-3.0928680" lon="37.3765810">
    <ele>4864.5</ele>
    <time>2026-06-22T22:44:27Z</time>
   </trkpt>
   <trkpt lat="-3.0928670" lon="37.3765820">
    <ele>4864.6</ele>
    <time>2026-06-22T22:44:28Z</time>
   </trkpt>
   <trkpt lat="-3.0928690" lon="37.3765810">
    <ele>4864.6</ele>
    <time>2026-06-22T22:44:30Z</time>
   </trkpt>
   <trkpt lat="-3.0928690" lon="37.3765820">
    <ele>4864.6</ele>
    <time>2026-06-22T22:44:31Z</time>
   </trkpt>
   <trkpt lat="-3.0928690" lon="37.3765810">
    <ele>4864.6</ele>
    <time>2026-06-22T22:44:32Z</time>
   </trkpt>
   <trkpt lat="-3.0928690" lon="37.3765810">
    <ele>4864.6</ele>
    <time>2026-06-22T22:44:33Z</time>
   </trkpt>
   <trkpt lat="-3.0928690" lon="37.3765810">
    <ele>4864.6</ele>
    <time>2026-06-22T22:44:34Z</time>
   </trkpt>
   <trkpt lat="-3.0928700" lon="37.3765820">
    <ele>4864.6</ele>
    <time>2026-06-22T22:44:35Z</time>
   </trkpt>
   <trkpt lat="-3.0928710" lon="37.3765810">
    <ele>4864.7</ele>
    <time>2026-06-22T22:44:36Z</time>
   </trkpt>
   <trkpt lat="-3.0928710" lon="37.3765780">
    <ele>4864.7</ele>
    <time>2026-06-22T22:44:37Z</time>
   </trkpt>
   <trkpt lat="-3.0928700" lon="37.3765760">
    <ele>4864.7</ele>
    <time>2026-06-22T22:44:38Z</time>
   </trkpt>
   <trkpt lat="-3.0928710" lon="37.3765780">
    <ele>4864.8</ele>
    <time>2026-06-22T22:44:39Z</time>
   </trkpt>
   <trkpt lat="-3.0928710" lon="37.3765790">
    <ele>4864.8</ele>
    <time>2026-06-22T22:44:40Z</time>
   </trkpt>
   <trkpt lat="-3.0928710" lon="37.3765780">
    <ele>4864.8</ele>
    <time>2026-06-22T22:44:41Z</time>
   </trkpt>
   <trkpt lat="-3.0928720" lon="37.3765780">
    <ele>4864.8</ele>
    <time>2026-06-22T22:44:42Z</time>
   </trkpt>
   <trkpt lat="-3.0928710" lon="37.3765790">
    <ele>4864.8</ele>
    <time>2026-06-22T22:44:43Z</time>
   </trkpt>
   <trkpt lat="-3.0928710" lon="37.3765790">
    <ele>4864.8</ele>
    <time>2026-06-22T22:44:44Z</time>
   </trkpt>
   <trkpt lat="-3.0928710" lon="37.3765800">
    <ele>4864.9</ele>
    <time>2026-06-22T22:44:45Z</time>
   </trkpt>
   <trkpt lat="-3.0928710" lon="37.3765800">
    <ele>4864.9</ele>
    <time>2026-06-22T22:44:46Z</time>
   </trkpt>
   <trkpt lat="-3.0928710" lon="37.3765800">
    <ele>4864.9</ele>
    <time>2026-06-22T22:44:47Z</time>
   </trkpt>
   <trkpt lat="-3.0928710" lon="37.3765810">
    <ele>4864.9</ele>
    <time>2026-06-22T22:44:48Z</time>
   </trkpt>
   <trkpt lat="-3.0928710" lon="37.3765800">
    <ele>4864.9</ele>
    <time>2026-06-22T22:44:49Z</time>
   </trkpt>
   <trkpt lat="-3.0928710" lon="37.3765810">
    <ele>4864.9</ele>
    <time>2026-06-22T22:44:50Z</time>
   </trkpt>
   <trkpt lat="-3.0928710" lon="37.3765810">
    <ele>4864.9</ele>
    <time>2026-06-22T22:44:51Z</time>
   </trkpt>
   <trkpt lat="-3.0928710" lon="37.3765780">
    <ele>4864.9</ele>
    <time>2026-06-22T22:44:52Z</time>
   </trkpt>
   <trkpt lat="-3.0928710" lon="37.3765790">
    <ele>4865.0</ele>
    <time>2026-06-22T22:44:53Z</time>
   </trkpt>
   <trkpt lat="-3.0928720" lon="37.3765790">
    <ele>4865.0</ele>
    <time>2026-06-22T22:44:54Z</time>
   </trkpt>
   <trkpt lat="-3.0928720" lon="37.3765790">
    <ele>4865.0</ele>
    <time>2026-06-22T22:44:55Z</time>
   </trkpt>
   <trkpt lat="-3.0928720" lon="37.3765790">
    <ele>4865.0</ele>
    <time>2026-06-22T22:44:56Z</time>
   </trkpt>
   <trkpt lat="-3.0928730" lon="37.3765790">
    <ele>4865.0</ele>
    <time>2026-06-22T22:44:57Z</time>
   </trkpt>
   <trkpt lat="-3.0928720" lon="37.3765790">
    <ele>4865.0</ele>
    <time>2026-06-22T22:44:58Z</time>
   </trkpt>
   <trkpt lat="-3.0928730" lon="37.3765780">
    <ele>4865.0</ele>
    <time>2026-06-22T22:44:59Z</time>
   </trkpt>
   <trkpt lat="-3.0928730" lon="37.3765780">
    <ele>4865.0</ele>
    <time>2026-06-22T22:45:00Z</time>
   </trkpt>
   <trkpt lat="-3.0928730" lon="37.3765780">
    <ele>4865.0</ele>
    <time>2026-06-22T22:45:01Z</time>
   </trkpt>
   <trkpt lat="-3.0928730" lon="37.3765780">
    <ele>4865.0</ele>
    <time>2026-06-22T22:45:02Z</time>
   </trkpt>
   <trkpt lat="-3.0928730" lon="37.3765790">
    <ele>4865.0</ele>
    <time>2026-06-22T22:45:03Z</time>
   </trkpt>
   <trkpt lat="-3.0928720" lon="37.3765790">
    <ele>4865.0</ele>
    <time>2026-06-22T22:45:04Z</time>
   </trkpt>
   <trkpt lat="-3.0928720" lon="37.3765790">
    <ele>4865.0</ele>
    <time>2026-06-22T22:45:05Z</time>
   </trkpt>
   <trkpt lat="-3.0928720" lon="37.3765790">
    <ele>4865.0</ele>
    <time>2026-06-22T22:45:06Z</time>
   </trkpt>
   <trkpt lat="-3.0928730" lon="37.3765790">
    <ele>4865.1</ele>
    <time>2026-06-22T22:45:07Z</time>
   </trkpt>
   <trkpt lat="-3.0928720" lon="37.3765790">
    <ele>4865.1</ele>
    <time>2026-06-22T22:45:08Z</time>
   </trkpt>
   <trkpt lat="-3.0928720" lon="37.3765790">
    <ele>4865.1</ele>
    <time>2026-06-22T22:45:09Z</time>
   </trkpt>
   <trkpt lat="-3.0928720" lon="37.3765790">
    <ele>4865.1</ele>
    <time>2026-06-22T22:45:10Z</time>
   </trkpt>
   <trkpt lat="-3.0928720" lon="37.3765790">
    <ele>4865.1</ele>
    <time>2026-06-22T22:45:11Z</time>
   </trkpt>
   <trkpt lat="-3.0928720" lon="37.3765790">
    <ele>4865.1</ele>
    <time>2026-06-22T22:45:12Z</time>
   </trkpt>
   <trkpt lat="-3.0928720" lon="37.3765790">
    <ele>4865.1</ele>
    <time>2026-06-22T22:45:13Z</time>
   </trkpt>
   <trkpt lat="-3.0928720" lon="37.3765790">
    <ele>4865.1</ele>
    <time>2026-06-22T22:45:14Z</time>
   </trkpt>
   <trkpt lat="-3.0928720" lon="37.3765790">
    <ele>4865.1</ele>
    <time>2026-06-22T22:45:15Z</time>
   </trkpt>
   <trkpt lat="-3.0928730" lon="37.3765800">
    <ele>4865.1</ele>
    <time>2026-06-22T22:45:16Z</time>
   </trkpt>
   <trkpt lat="-3.0928730" lon="37.3765800">
    <ele>4865.1</ele>
    <time>2026-06-22T22:45:17Z</time>
   </trkpt>
   <trkpt lat="-3.0928730" lon="37.3765800">
    <ele>4865.1</ele>
    <time>2026-06-22T22:45:18Z</time>
   </trkpt>
   <trkpt lat="-3.0928720" lon="37.3765810">
    <ele>4865.1</ele>
    <time>2026-06-22T22:45:19Z</time>
   </trkpt>
   <trkpt lat="-3.0928740" lon="37.3765810">
    <ele>4865.1</ele>
    <time>2026-06-22T22:45:20Z</time>
   </trkpt>
   <trkpt lat="-3.0928730" lon="37.3765790">
    <ele>4865.2</ele>
    <time>2026-06-22T22:45:21Z</time>
   </trkpt>
   <trkpt lat="-3.0928720" lon="37.3765810">
    <ele>4865.2</ele>
    <time>2026-06-22T22:45:22Z</time>
   </trkpt>
   <trkpt lat="-3.0928730" lon="37.3765810">
    <ele>4865.2</ele>
    <time>2026-06-22T22:45:23Z</time>
   </trkpt>
   <trkpt lat="-3.0928720" lon="37.3765800">
    <ele>4865.2</ele>
    <time>2026-06-22T22:45:24Z</time>
   </trkpt>
   <trkpt lat="-3.0928730" lon="37.3765810">
    <ele>4865.3</ele>
    <time>2026-06-22T22:45:25Z</time>
   </trkpt>
   <trkpt lat="-3.0928730" lon="37.3765800">
    <ele>4865.3</ele>
    <time>2026-06-22T22:45:26Z</time>
   </trkpt>
   <trkpt lat="-3.0928720" lon="37.3765820">
    <ele>4865.3</ele>
    <time>2026-06-22T22:45:27Z</time>
   </trkpt>
   <trkpt lat="-3.0928730" lon="37.3765820">
    <ele>4865.3</ele>
    <time>2026-06-22T22:45:28Z</time>
   </trkpt>
   <trkpt lat="-3.0928730" lon="37.3765820">
    <ele>4865.3</ele>
    <time>2026-06-22T22:45:29Z</time>
   </trkpt>
   <trkpt lat="-3.0928730" lon="37.3765800">
    <ele>4865.3</ele>
    <time>2026-06-22T22:45:30Z</time>
   </trkpt>
   <trkpt lat="-3.0928720" lon="37.3765800">
    <ele>4865.4</ele>
    <time>2026-06-22T22:45:31Z</time>
   </trkpt>
   <trkpt lat="-3.0928720" lon="37.3765790">
    <ele>4865.4</ele>
    <time>2026-06-22T22:45:32Z</time>
   </trkpt>
   <trkpt lat="-3.0928720" lon="37.3765790">
    <ele>4865.4</ele>
    <time>2026-06-22T22:45:33Z</time>
   </trkpt>
   <trkpt lat="-3.0928710" lon="37.3765800">
    <ele>4865.4</ele>
    <time>2026-06-22T22:45:34Z</time>
   </trkpt>
   <trkpt lat="-3.0928710" lon="37.3765800">
    <ele>4865.4</ele>
    <time>2026-06-22T22:45:35Z</time>
   </trkpt>
   <trkpt lat="-3.0928720" lon="37.3765810">
    <ele>4865.4</ele>
    <time>2026-06-22T22:45:36Z</time>
   </trkpt>
   <trkpt lat="-3.0928710" lon="37.3765800">
    <ele>4865.4</ele>
    <time>2026-06-22T22:45:37Z</time>
   </trkpt>
   <trkpt lat="-3.0928700" lon="37.3765810">
    <ele>4865.5</ele>
    <time>2026-06-22T22:45:38Z</time>
   </trkpt>
   <trkpt lat="-3.0928700" lon="37.3765800">
    <ele>4865.5</ele>
    <time>2026-06-22T22:45:39Z</time>
   </trkpt>
   <trkpt lat="-3.0928690" lon="37.3765800">
    <ele>4865.5</ele>
    <time>2026-06-22T22:45:40Z</time>
   </trkpt>
   <trkpt lat="-3.0928690" lon="37.3765800">
    <ele>4865.5</ele>
    <time>2026-06-22T22:45:41Z</time>
   </trkpt>
   <trkpt lat="-3.0928690" lon="37.3765800">
    <ele>4865.5</ele>
    <time>2026-06-22T22:45:42Z</time>
   </trkpt>
   <trkpt lat="-3.0928660" lon="37.3765770">
    <ele>4865.5</ele>
    <time>2026-06-22T22:45:43Z</time>
   </trkpt>
   <trkpt lat="-3.0928650" lon="37.3765810">
    <ele>4865.6</ele>
    <time>2026-06-22T22:45:44Z</time>
   </trkpt>
   <trkpt lat="-3.0928660" lon="37.3765810">
    <ele>4865.6</ele>
    <time>2026-06-22T22:45:45Z</time>
   </trkpt>
   <trkpt lat="-3.0928660" lon="37.3765810">
    <ele>4865.6</ele>
    <time>2026-06-22T22:45:46Z</time>
   </trkpt>
   <trkpt lat="-3.0928670" lon="37.3765810">
    <ele>4865.6</ele>
    <time>2026-06-22T22:45:47Z</time>
   </trkpt>
   <trkpt lat="-3.0928670" lon="37.3765820">
    <ele>4865.6</ele>
    <time>2026-06-22T22:45:48Z</time>
   </trkpt>
   <trkpt lat="-3.0928660" lon="37.3765830">
    <ele>4865.7</ele>
    <time>2026-06-22T22:45:49Z</time>
   </trkpt>
   <trkpt lat="-3.0928670" lon="37.3765830">
    <ele>4865.7</ele>
    <time>2026-06-22T22:45:50Z</time>
   </trkpt>
   <trkpt lat="-3.0928680" lon="37.3765810">
    <ele>4865.7</ele>
    <time>2026-06-22T22:45:51Z</time>
   </trkpt>
   <trkpt lat="-3.0928690" lon="37.3765800">
    <ele>4865.7</ele>
    <time>2026-06-22T22:45:52Z</time>
   </trkpt>
   <trkpt lat="-3.0928680" lon="37.3765790">
    <ele>4865.7</ele>
    <time>2026-06-22T22:45:53Z</time>
   </trkpt>
   <trkpt lat="-3.0928670" lon="37.3765800">
    <ele>4865.7</ele>
    <time>2026-06-22T22:45:54Z</time>
   </trkpt>
   <trkpt lat="-3.0928670" lon="37.3765810">
    <ele>4865.8</ele>
    <time>2026-06-22T22:45:55Z</time>
   </trkpt>
   <trkpt lat="-3.0928640" lon="37.3765810">
    <ele>4865.8</ele>
    <time>2026-06-22T22:45:56Z</time>
   </trkpt>
   <trkpt lat="-3.0928620" lon="37.3765810">
    <ele>4865.8</ele>
    <time>2026-06-22T22:45:57Z</time>
   </trkpt>
   <trkpt lat="-3.0928580" lon="37.3765810">
    <ele>4865.9</ele>
    <time>2026-06-22T22:45:58Z</time>
   </trkpt>
   <trkpt lat="-3.0928540" lon="37.3765810">
    <ele>4865.9</ele>
    <time>2026-06-22T22:45:59Z</time>
   </trkpt>
   <trkpt lat="-3.0928520" lon="37.3765800">
    <ele>4866.0</ele>
    <time>2026-06-22T22:46:00Z</time>
   </trkpt>
   <trkpt lat="-3.0928500" lon="37.3765810">
    <ele>4866.0</ele>
    <time>2026-06-22T22:46:01Z</time>
   </trkpt>
   <trkpt lat="-3.0928480" lon="37.3765820">
    <ele>4866.0</ele>
    <time>2026-06-22T22:46:02Z</time>
   </trkpt>
   <trkpt lat="-3.0928480" lon="37.3765820">
    <ele>4866.0</ele>
    <time>2026-06-22T22:46:03Z</time>
   </trkpt>
   <trkpt lat="-3.0928450" lon="37.3765830">
    <ele>4866.1</ele>
    <time>2026-06-22T22:46:04Z</time>
   </trkpt>
   <trkpt lat="-3.0928420" lon="37.3765850">
    <ele>4866.1</ele>
    <time>2026-06-22T22:46:05Z</time>
   </trkpt>
   <trkpt lat="-3.0928400" lon="37.3765810">
    <ele>4866.2</ele>
    <time>2026-06-22T22:46:06Z</time>
   </trkpt>
   <trkpt lat="-3.0928370" lon="37.3765820">
    <ele>4866.2</ele>
    <time>2026-06-22T22:46:07Z</time>
   </trkpt>
   <trkpt lat="-3.0928340" lon="37.3765800">
    <ele>4866.3</ele>
    <time>2026-06-22T22:46:08Z</time>
   </trkpt>
   <trkpt lat="-3.0928320" lon="37.3765800">
    <ele>4866.3</ele>
    <time>2026-06-22T22:46:09Z</time>
   </trkpt>
   <trkpt lat="-3.0928280" lon="37.3765810">
    <ele>4866.3</ele>
    <time>2026-06-22T22:46:10Z</time>
   </trkpt>
   <trkpt lat="-3.0928250" lon="37.3765810">
    <ele>4866.4</ele>
    <time>2026-06-22T22:46:11Z</time>
   </trkpt>
   <trkpt lat="-3.0928220" lon="37.3765830">
    <ele>4866.4</ele>
    <time>2026-06-22T22:46:12Z</time>
   </trkpt>
   <trkpt lat="-3.0928180" lon="37.3765840">
    <ele>4866.5</ele>
    <time>2026-06-22T22:46:13Z</time>
   </trkpt>
   <trkpt lat="-3.0928150" lon="37.3765850">
    <ele>4866.5</ele>
    <time>2026-06-22T22:46:14Z</time>
   </trkpt>
   <trkpt lat="-3.0928110" lon="37.3765830">
    <ele>4866.5</ele>
    <time>2026-06-22T22:46:15Z</time>
   </trkpt>
   <trkpt lat="-3.0928080" lon="37.3765810">
    <ele>4866.6</ele>
    <time>2026-06-22T22:46:16Z</time>
   </trkpt>
   <trkpt lat="-3.0928060" lon="37.3765800">
    <ele>4866.6</ele>
    <time>2026-06-22T22:46:17Z</time>
   </trkpt>
   <trkpt lat="-3.0928050" lon="37.3765770">
    <ele>4866.7</ele>
    <time>2026-06-22T22:46:18Z</time>
   </trkpt>
   <trkpt lat="-3.0928040" lon="37.3765700">
    <ele>4866.7</ele>
    <time>2026-06-22T22:46:19Z</time>
   </trkpt>
   <trkpt lat="-3.0928010" lon="37.3765690">
    <ele>4866.8</ele>
    <time>2026-06-22T22:46:20Z</time>
   </trkpt>
   <trkpt lat="-3.0927960" lon="37.3765640">
    <ele>4866.8</ele>
    <time>2026-06-22T22:46:21Z</time>
   </trkpt>
   <trkpt lat="-3.0927950" lon="37.3765660">
    <ele>4866.9</ele>
    <time>2026-06-22T22:46:22Z</time>
   </trkpt>
   <trkpt lat="-3.0927870" lon="37.3765690">
    <ele>4867.0</ele>
    <time>2026-06-22T22:46:23Z</time>
   </trkpt>
   <trkpt lat="-3.0927800" lon="37.3765690">
    <ele>4867.1</ele>
    <time>2026-06-22T22:46:24Z</time>
   </trkpt>
   <trkpt lat="-3.0927760" lon="37.3765740">
    <ele>4867.1</ele>
    <time>2026-06-22T22:46:25Z</time>
   </trkpt>
   <trkpt lat="-3.0927690" lon="37.3765750">
    <ele>4867.2</ele>
    <time>2026-06-22T22:46:26Z</time>
   </trkpt>
   <trkpt lat="-3.0927650" lon="37.3765770">
    <ele>4867.2</ele>
    <time>2026-06-22T22:46:27Z</time>
   </trkpt>
   <trkpt lat="-3.0927630" lon="37.3765800">
    <ele>4867.3</ele>
    <time>2026-06-22T22:46:28Z</time>
   </trkpt>
   <trkpt lat="-3.0927570" lon="37.3765820">
    <ele>4867.3</ele>
    <time>2026-06-22T22:46:29Z</time>
   </trkpt>
   <trkpt lat="-3.0927510" lon="37.3765820">
    <ele>4867.4</ele>
    <time>2026-06-22T22:46:30Z</time>
   </trkpt>
   <trkpt lat="-3.0927430" lon="37.3765810">
    <ele>4867.5</ele>
    <time>2026-06-22T22:46:31Z</time>
   </trkpt>
   <trkpt lat="-3.0927370" lon="37.3765800">
    <ele>4867.6</ele>
    <time>2026-06-22T22:46:32Z</time>
   </trkpt>
   <trkpt lat="-3.0927320" lon="37.3765810">
    <ele>4867.6</ele>
    <time>2026-06-22T22:46:33Z</time>
   </trkpt>
   <trkpt lat="-3.0927280" lon="37.3765780">
    <ele>4867.7</ele>
    <time>2026-06-22T22:46:35Z</time>
   </trkpt>
   <trkpt lat="-3.0927260" lon="37.3765750">
    <ele>4867.7</ele>
    <time>2026-06-22T22:46:36Z</time>
   </trkpt>
   <trkpt lat="-3.0927210" lon="37.3765660">
    <ele>4867.8</ele>
    <time>2026-06-22T22:46:37Z</time>
   </trkpt>
   <trkpt lat="-3.0927200" lon="37.3765540">
    <ele>4867.9</ele>
    <time>2026-06-22T22:46:38Z</time>
   </trkpt>
   <trkpt lat="-3.0927220" lon="37.3765460">
    <ele>4868.0</ele>
    <time>2026-06-22T22:46:39Z</time>
   </trkpt>
   <trkpt lat="-3.0927200" lon="37.3765390">
    <ele>4868.0</ele>
    <time>2026-06-22T22:46:40Z</time>
   </trkpt>
   <trkpt lat="-3.0927170" lon="37.3765330">
    <ele>4868.1</ele>
    <time>2026-06-22T22:46:41Z</time>
   </trkpt>
   <trkpt lat="-3.0927160" lon="37.3765220">
    <ele>4868.2</ele>
    <time>2026-06-22T22:46:42Z</time>
   </trkpt>
   <trkpt lat="-3.0927180" lon="37.3765150">
    <ele>4868.2</ele>
    <time>2026-06-22T22:46:43Z</time>
   </trkpt>
   <trkpt lat="-3.0927190" lon="37.3765120">
    <ele>4868.3</ele>
    <time>2026-06-22T22:46:44Z</time>
   </trkpt>
   <trkpt lat="-3.0927180" lon="37.3765100">
    <ele>4868.3</ele>
    <time>2026-06-22T22:46:45Z</time>
   </trkpt>
   <trkpt lat="-3.0927190" lon="37.3765060">
    <ele>4868.3</ele>
    <time>2026-06-22T22:46:46Z</time>
   </trkpt>
   <trkpt lat="-3.0927190" lon="37.3765080">
    <ele>4868.3</ele>
    <time>2026-06-22T22:46:47Z</time>
   </trkpt>
   <trkpt lat="-3.0927170" lon="37.3765060">
    <ele>4868.4</ele>
    <time>2026-06-22T22:46:48Z</time>
   </trkpt>
   <trkpt lat="-3.0927170" lon="37.3765060">
    <ele>4868.4</ele>
    <time>2026-06-22T22:46:49Z</time>
   </trkpt>
   <trkpt lat="-3.0927150" lon="37.3765060">
    <ele>4868.4</ele>
    <time>2026-06-22T22:46:50Z</time>
   </trkpt>
   <trkpt lat="-3.0927150" lon="37.3765050">
    <ele>4868.4</ele>
    <time>2026-06-22T22:46:51Z</time>
   </trkpt>
   <trkpt lat="-3.0927160" lon="37.3765030">
    <ele>4868.4</ele>
    <time>2026-06-22T22:46:52Z</time>
   </trkpt>
   <trkpt lat="-3.0927160" lon="37.3765040">
    <ele>4868.4</ele>
    <time>2026-06-22T22:46:53Z</time>
   </trkpt>
   <trkpt lat="-3.0927150" lon="37.3765020">
    <ele>4868.4</ele>
    <time>2026-06-22T22:46:54Z</time>
   </trkpt>
   <trkpt lat="-3.0927170" lon="37.3765010">
    <ele>4868.4</ele>
    <time>2026-06-22T22:46:55Z</time>
   </trkpt>
   <trkpt lat="-3.0927160" lon="37.3765020">
    <ele>4868.5</ele>
    <time>2026-06-22T22:46:56Z</time>
   </trkpt>
   <trkpt lat="-3.0927160" lon="37.3765020">
    <ele>4868.5</ele>
    <time>2026-06-22T22:46:57Z</time>
   </trkpt>
   <trkpt lat="-3.0927170" lon="37.3765020">
    <ele>4868.5</ele>
    <time>2026-06-22T22:46:58Z</time>
   </trkpt>
   <trkpt lat="-3.0927170" lon="37.3765050">
    <ele>4868.5</ele>
    <time>2026-06-22T22:46:59Z</time>
   </trkpt>
   <trkpt lat="-3.0927150" lon="37.3765040">
    <ele>4868.5</ele>
    <time>2026-06-22T22:47:00Z</time>
   </trkpt>
   <trkpt lat="-3.0927170" lon="37.3765030">
    <ele>4868.5</ele>
    <time>2026-06-22T22:47:01Z</time>
   </trkpt>
   <trkpt lat="-3.0927190" lon="37.3765050">
    <ele>4868.5</ele>
    <time>2026-06-22T22:47:02Z</time>
   </trkpt>
   <trkpt lat="-3.0927190" lon="37.3765060">
    <ele>4868.6</ele>
    <time>2026-06-22T22:47:03Z</time>
   </trkpt>
   <trkpt lat="-3.0927190" lon="37.3765060">
    <ele>4868.6</ele>
    <time>2026-06-22T22:47:04Z</time>
   </trkpt>
   <trkpt lat="-3.0927180" lon="37.3765050">
    <ele>4868.6</ele>
    <time>2026-06-22T22:47:05Z</time>
   </trkpt>
   <trkpt lat="-3.0927180" lon="37.3765030">
    <ele>4868.6</ele>
    <time>2026-06-22T22:47:06Z</time>
   </trkpt>
   <trkpt lat="-3.0927190" lon="37.3765050">
    <ele>4868.6</ele>
    <time>2026-06-22T22:47:07Z</time>
   </trkpt>
   <trkpt lat="-3.0927190" lon="37.3765050">
    <ele>4868.6</ele>
    <time>2026-06-22T22:47:08Z</time>
   </trkpt>
   <trkpt lat="-3.0927180" lon="37.3765040">
    <ele>4868.6</ele>
    <time>2026-06-22T22:47:09Z</time>
   </trkpt>
   <trkpt lat="-3.0927180" lon="37.3765040">
    <ele>4868.6</ele>
    <time>2026-06-22T22:47:10Z</time>
   </trkpt>
   <trkpt lat="-3.0927180" lon="37.3765020">
    <ele>4868.6</ele>
    <time>2026-06-22T22:47:11Z</time>
   </trkpt>
   <trkpt lat="-3.0927170" lon="37.3765030">
    <ele>4868.6</ele>
    <time>2026-06-22T22:47:12Z</time>
   </trkpt>
   <trkpt lat="-3.0927170" lon="37.3765030">
    <ele>4868.6</ele>
    <time>2026-06-22T22:47:13Z</time>
   </trkpt>
   <trkpt lat="-3.0927170" lon="37.3765030">
    <ele>4868.6</ele>
    <time>2026-06-22T22:47:14Z</time>
   </trkpt>
   <trkpt lat="-3.0927170" lon="37.3765030">
    <ele>4868.6</ele>
    <time>2026-06-22T22:47:15Z</time>
   </trkpt>
   <trkpt lat="-3.0927170" lon="37.3765030">
    <ele>4868.6</ele>
    <time>2026-06-22T22:47:16Z</time>
   </trkpt>
   <trkpt lat="-3.0927170" lon="37.3765030">
    <ele>4868.6</ele>
    <time>2026-06-22T22:47:17Z</time>
   </trkpt>
   <trkpt lat="-3.0927160" lon="37.3765030">
    <ele>4868.6</ele>
    <time>2026-06-22T22:47:18Z</time>
   </trkpt>
   <trkpt lat="-3.0927170" lon="37.3765020">
    <ele>4868.6</ele>
    <time>2026-06-22T22:47:19Z</time>
   </trkpt>
   <trkpt lat="-3.0927170" lon="37.3765020">
    <ele>4868.6</ele>
    <time>2026-06-22T22:47:20Z</time>
   </trkpt>
   <trkpt lat="-3.0927170" lon="37.3765020">
    <ele>4868.6</ele>
    <time>2026-06-22T22:47:21Z</time>
   </trkpt>
   <trkpt lat="-3.0927170" lon="37.3765020">
    <ele>4868.6</ele>
    <time>2026-06-22T22:47:22Z</time>
   </trkpt>
   <trkpt lat="-3.0927170" lon="37.3765020">
    <ele>4868.6</ele>
    <time>2026-06-22T22:47:23Z</time>
   </trkpt>
   <trkpt lat="-3.0927160" lon="37.3765010">
    <ele>4868.7</ele>
    <time>2026-06-22T22:47:24Z</time>
   </trkpt>
   <trkpt lat="-3.0927160" lon="37.3765010">
    <ele>4868.7</ele>
    <time>2026-06-22T22:47:25Z</time>
   </trkpt>
   <trkpt lat="-3.0927160" lon="37.3765010">
    <ele>4868.7</ele>
    <time>2026-06-22T22:47:26Z</time>
   </trkpt>
   <trkpt lat="-3.0927140" lon="37.3764980">
    <ele>4868.7</ele>
    <time>2026-06-22T22:47:27Z</time>
   </trkpt>
   <trkpt lat="-3.0927130" lon="37.3764970">
    <ele>4868.7</ele>
    <time>2026-06-22T22:47:28Z</time>
   </trkpt>
   <trkpt lat="-3.0927130" lon="37.3764960">
    <ele>4868.7</ele>
    <time>2026-06-22T22:47:29Z</time>
   </trkpt>
   <trkpt lat="-3.0927130" lon="37.3764950">
    <ele>4868.7</ele>
    <time>2026-06-22T22:47:30Z</time>
   </trkpt>
   <trkpt lat="-3.0927120" lon="37.3764960">
    <ele>4868.7</ele>
    <time>2026-06-22T22:47:31Z</time>
   </trkpt>
   <trkpt lat="-3.0927110" lon="37.3764960">
    <ele>4868.7</ele>
    <time>2026-06-22T22:47:32Z</time>
   </trkpt>
   <trkpt lat="-3.0927120" lon="37.3764970">
    <ele>4868.7</ele>
    <time>2026-06-22T22:47:33Z</time>
   </trkpt>
   <trkpt lat="-3.0927120" lon="37.3764970">
    <ele>4868.7</ele>
    <time>2026-06-22T22:47:34Z</time>
   </trkpt>
   <trkpt lat="-3.0927120" lon="37.3764980">
    <ele>4868.7</ele>
    <time>2026-06-22T22:47:35Z</time>
   </trkpt>
   <trkpt lat="-3.0927120" lon="37.3764970">
    <ele>4868.8</ele>
    <time>2026-06-22T22:47:36Z</time>
   </trkpt>
   <trkpt lat="-3.0927120" lon="37.3764970">
    <ele>4868.8</ele>
    <time>2026-06-22T22:47:37Z</time>
   </trkpt>
   <trkpt lat="-3.0927120" lon="37.3764980">
    <ele>4868.8</ele>
    <time>2026-06-22T22:47:38Z</time>
   </trkpt>
   <trkpt lat="-3.0927120" lon="37.3764980">
    <ele>4868.8</ele>
    <time>2026-06-22T22:47:39Z</time>
   </trkpt>
   <trkpt lat="-3.0927120" lon="37.3764970">
    <ele>4868.8</ele>
    <time>2026-06-22T22:47:40Z</time>
   </trkpt>
   <trkpt lat="-3.0927120" lon="37.3764990">
    <ele>4868.8</ele>
    <time>2026-06-22T22:47:41Z</time>
   </trkpt>
   <trkpt lat="-3.0927120" lon="37.3764980">
    <ele>4868.8</ele>
    <time>2026-06-22T22:47:42Z</time>
   </trkpt>
   <trkpt lat="-3.0927120" lon="37.3764990">
    <ele>4868.8</ele>
    <time>2026-06-22T22:47:43Z</time>
   </trkpt>
   <trkpt lat="-3.0927120" lon="37.3765000">
    <ele>4868.8</ele>
    <time>2026-06-22T22:47:44Z</time>
   </trkpt>
   <trkpt lat="-3.0927130" lon="37.3765000">
    <ele>4868.8</ele>
    <time>2026-06-22T22:47:45Z</time>
   </trkpt>
   <trkpt lat="-3.0927130" lon="37.3765010">
    <ele>4868.8</ele>
    <time>2026-06-22T22:47:46Z</time>
   </trkpt>
   <trkpt lat="-3.0927130" lon="37.3765010">
    <ele>4868.8</ele>
    <time>2026-06-22T22:47:47Z</time>
   </trkpt>
   <trkpt lat="-3.0927120" lon="37.3765010">
    <ele>4868.8</ele>
    <time>2026-06-22T22:47:48Z</time>
   </trkpt>
   <trkpt lat="-3.0927120" lon="37.3765010">
    <ele>4868.8</ele>
    <time>2026-06-22T22:47:49Z</time>
   </trkpt>
   <trkpt lat="-3.0927110" lon="37.3765010">
    <ele>4868.8</ele>
    <time>2026-06-22T22:47:50Z</time>
   </trkpt>
   <trkpt lat="-3.0927110" lon="37.3765000">
    <ele>4868.8</ele>
    <time>2026-06-22T22:47:51Z</time>
   </trkpt>
   <trkpt lat="-3.0927110" lon="37.3765000">
    <ele>4868.8</ele>
    <time>2026-06-22T22:47:52Z</time>
   </trkpt>
   <trkpt lat="-3.0927110" lon="37.3765000">
    <ele>4868.8</ele>
    <time>2026-06-22T22:47:53Z</time>
   </trkpt>
   <trkpt lat="-3.0927110" lon="37.3764990">
    <ele>4868.9</ele>
    <time>2026-06-22T22:47:54Z</time>
   </trkpt>
   <trkpt lat="-3.0927100" lon="37.3764990">
    <ele>4868.9</ele>
    <time>2026-06-22T22:47:55Z</time>
   </trkpt>
   <trkpt lat="-3.0927110" lon="37.3764980">
    <ele>4868.9</ele>
    <time>2026-06-22T22:47:56Z</time>
   </trkpt>
   <trkpt lat="-3.0927100" lon="37.3764990">
    <ele>4868.9</ele>
    <time>2026-06-22T22:47:57Z</time>
   </trkpt>
   <trkpt lat="-3.0927110" lon="37.3764980">
    <ele>4868.9</ele>
    <time>2026-06-22T22:47:58Z</time>
   </trkpt>
   <trkpt lat="-3.0927100" lon="37.3764970">
    <ele>4868.9</ele>
    <time>2026-06-22T22:47:59Z</time>
   </trkpt>
   <trkpt lat="-3.0927130" lon="37.3765010">
    <ele>4868.9</ele>
    <time>2026-06-22T22:48:00Z</time>
   </trkpt>
   <trkpt lat="-3.0927120" lon="37.3765050">
    <ele>4869.0</ele>
    <time>2026-06-22T22:48:01Z</time>
   </trkpt>
   <trkpt lat="-3.0927110" lon="37.3765080">
    <ele>4869.0</ele>
    <time>2026-06-22T22:48:02Z</time>
   </trkpt>
   <trkpt lat="-3.0927050" lon="37.3765150">
    <ele>4869.0</ele>
    <time>2026-06-22T22:48:03Z</time>
   </trkpt>
   <trkpt lat="-3.0926930" lon="37.3765220">
    <ele>4869.1</ele>
    <time>2026-06-22T22:48:04Z</time>
   </trkpt>
   <trkpt lat="-3.0926840" lon="37.3765240">
    <ele>4869.2</ele>
    <time>2026-06-22T22:48:05Z</time>
   </trkpt>
   <trkpt lat="-3.0926720" lon="37.3765300">
    <ele>4869.3</ele>
    <time>2026-06-22T22:48:06Z</time>
   </trkpt>
   <trkpt lat="-3.0926630" lon="37.3765370">
    <ele>4869.3</ele>
    <time>2026-06-22T22:48:07Z</time>
   </trkpt>
   <trkpt lat="-3.0926540" lon="37.3765410">
    <ele>4869.4</ele>
    <time>2026-06-22T22:48:08Z</time>
   </trkpt>
   <trkpt lat="-3.0926420" lon="37.3765440">
    <ele>4869.5</ele>
    <time>2026-06-22T22:48:09Z</time>
   </trkpt>
   <trkpt lat="-3.0926320" lon="37.3765490">
    <ele>4869.5</ele>
    <time>2026-06-22T22:48:10Z</time>
   </trkpt>
   <trkpt lat="-3.0926220" lon="37.3765540">
    <ele>4869.6</ele>
    <time>2026-06-22T22:48:11Z</time>
   </trkpt>
   <trkpt lat="-3.0926120" lon="37.3765560">
    <ele>4869.7</ele>
    <time>2026-06-22T22:48:12Z</time>
   </trkpt>
   <trkpt lat="-3.0926030" lon="37.3765610">
    <ele>4869.7</ele>
    <time>2026-06-22T22:48:13Z</time>
   </trkpt>
   <trkpt lat="-3.0925920" lon="37.3765660">
    <ele>4869.8</ele>
    <time>2026-06-22T22:48:14Z</time>
   </trkpt>
   <trkpt lat="-3.0925830" lon="37.3765680">
    <ele>4869.8</ele>
    <time>2026-06-22T22:48:15Z</time>
   </trkpt>
   <trkpt lat="-3.0925760" lon="37.3765670">
    <ele>4869.9</ele>
    <time>2026-06-22T22:48:16Z</time>
   </trkpt>
   <trkpt lat="-3.0925720" lon="37.3765680">
    <ele>4869.9</ele>
    <time>2026-06-22T22:48:17Z</time>
   </trkpt>
   <trkpt lat="-3.0925700" lon="37.3765660">
    <ele>4869.9</ele>
    <time>2026-06-22T22:48:18Z</time>
   </trkpt>
   <trkpt lat="-3.0925700" lon="37.3765680">
    <ele>4869.9</ele>
    <time>2026-06-22T22:48:19Z</time>
   </trkpt>
   <trkpt lat="-3.0925690" lon="37.3765680">
    <ele>4869.9</ele>
    <time>2026-06-22T22:48:20Z</time>
   </trkpt>
   <trkpt lat="-3.0925690" lon="37.3765680">
    <ele>4869.9</ele>
    <time>2026-06-22T22:48:21Z</time>
   </trkpt>
   <trkpt lat="-3.0925670" lon="37.3765670">
    <ele>4869.9</ele>
    <time>2026-06-22T22:48:22Z</time>
   </trkpt>
   <trkpt lat="-3.0925650" lon="37.3765650">
    <ele>4869.9</ele>
    <time>2026-06-22T22:48:23Z</time>
   </trkpt>
   <trkpt lat="-3.0925660" lon="37.3765670">
    <ele>4870.0</ele>
    <time>2026-06-22T22:48:24Z</time>
   </trkpt>
   <trkpt lat="-3.0925660" lon="37.3765680">
    <ele>4870.0</ele>
    <time>2026-06-22T22:48:25Z</time>
   </trkpt>
   <trkpt lat="-3.0925650" lon="37.3765680">
    <ele>4870.0</ele>
    <time>2026-06-22T22:48:26Z</time>
   </trkpt>
   <trkpt lat="-3.0925660" lon="37.3765680">
    <ele>4870.0</ele>
    <time>2026-06-22T22:48:27Z</time>
   </trkpt>
   <trkpt lat="-3.0925640" lon="37.3765690">
    <ele>4870.0</ele>
    <time>2026-06-22T22:48:28Z</time>
   </trkpt>
   <trkpt lat="-3.0925650" lon="37.3765700">
    <ele>4870.0</ele>
    <time>2026-06-22T22:48:29Z</time>
   </trkpt>
   <trkpt lat="-3.0925640" lon="37.3765680">
    <ele>4870.0</ele>
    <time>2026-06-22T22:48:30Z</time>
   </trkpt>
   <trkpt lat="-3.0925640" lon="37.3765670">
    <ele>4870.0</ele>
    <time>2026-06-22T22:48:31Z</time>
   </trkpt>
   <trkpt lat="-3.0925640" lon="37.3765670">
    <ele>4870.0</ele>
    <time>2026-06-22T22:48:32Z</time>
   </trkpt>
   <trkpt lat="-3.0925640" lon="37.3765670">
    <ele>4870.0</ele>
    <time>2026-06-22T22:48:33Z</time>
   </trkpt>
   <trkpt lat="-3.0925640" lon="37.3765670">
    <ele>4870.0</ele>
    <time>2026-06-22T22:48:34Z</time>
   </trkpt>
   <trkpt lat="-3.0925630" lon="37.3765680">
    <ele>4870.0</ele>
    <time>2026-06-22T22:48:35Z</time>
   </trkpt>
   <trkpt lat="-3.0925640" lon="37.3765670">
    <ele>4870.0</ele>
    <time>2026-06-22T22:48:36Z</time>
   </trkpt>
   <trkpt lat="-3.0925640" lon="37.3765680">
    <ele>4870.0</ele>
    <time>2026-06-22T22:48:37Z</time>
   </trkpt>
   <trkpt lat="-3.0925640" lon="37.3765660">
    <ele>4870.0</ele>
    <time>2026-06-22T22:48:38Z</time>
   </trkpt>
   <trkpt lat="-3.0925660" lon="37.3765590">
    <ele>4870.1</ele>
    <time>2026-06-22T22:48:39Z</time>
   </trkpt>
   <trkpt lat="-3.0925640" lon="37.3765650">
    <ele>4870.1</ele>
    <time>2026-06-22T22:48:41Z</time>
   </trkpt>
   <trkpt lat="-3.0925650" lon="37.3765640">
    <ele>4870.1</ele>
    <time>2026-06-22T22:48:42Z</time>
   </trkpt>
   <trkpt lat="-3.0925650" lon="37.3765640">
    <ele>4870.1</ele>
    <time>2026-06-22T22:48:43Z</time>
   </trkpt>
   <trkpt lat="-3.0925640" lon="37.3765630">
    <ele>4870.1</ele>
    <time>2026-06-22T22:48:44Z</time>
   </trkpt>
   <trkpt lat="-3.0925640" lon="37.3765640">
    <ele>4870.1</ele>
    <time>2026-06-22T22:48:45Z</time>
   </trkpt>
   <trkpt lat="-3.0925640" lon="37.3765650">
    <ele>4870.1</ele>
    <time>2026-06-22T22:48:46Z</time>
   </trkpt>
   <trkpt lat="-3.0925650" lon="37.3765650">
    <ele>4870.1</ele>
    <time>2026-06-22T22:48:47Z</time>
   </trkpt>
   <trkpt lat="-3.0925650" lon="37.3765650">
    <ele>4870.1</ele>
    <time>2026-06-22T22:48:48Z</time>
   </trkpt>
   <trkpt lat="-3.0925640" lon="37.3765650">
    <ele>4870.1</ele>
    <time>2026-06-22T22:48:49Z</time>
   </trkpt>
   <trkpt lat="-3.0925640" lon="37.3765660">
    <ele>4870.1</ele>
    <time>2026-06-22T22:48:50Z</time>
   </trkpt>
   <trkpt lat="-3.0925630" lon="37.3765660">
    <ele>4870.1</ele>
    <time>2026-06-22T22:48:51Z</time>
   </trkpt>
   <trkpt lat="-3.0925640" lon="37.3765670">
    <ele>4870.1</ele>
    <time>2026-06-22T22:48:52Z</time>
   </trkpt>
   <trkpt lat="-3.0925630" lon="37.3765670">
    <ele>4870.2</ele>
    <time>2026-06-22T22:48:53Z</time>
   </trkpt>
   <trkpt lat="-3.0925630" lon="37.3765670">
    <ele>4870.2</ele>
    <time>2026-06-22T22:48:54Z</time>
   </trkpt>
   <trkpt lat="-3.0925630" lon="37.3765670">
    <ele>4870.2</ele>
    <time>2026-06-22T22:48:55Z</time>
   </trkpt>
   <trkpt lat="-3.0925640" lon="37.3765680">
    <ele>4870.2</ele>
    <time>2026-06-22T22:48:56Z</time>
   </trkpt>
   <trkpt lat="-3.0925640" lon="37.3765680">
    <ele>4870.2</ele>
    <time>2026-06-22T22:48:57Z</time>
   </trkpt>
   <trkpt lat="-3.0925640" lon="37.3765680">
    <ele>4870.2</ele>
    <time>2026-06-22T22:48:58Z</time>
   </trkpt>
   <trkpt lat="-3.0925640" lon="37.3765680">
    <ele>4870.2</ele>
    <time>2026-06-22T22:48:59Z</time>
   </trkpt>
   <trkpt lat="-3.0925650" lon="37.3765690">
    <ele>4870.2</ele>
    <time>2026-06-22T22:49:00Z</time>
   </trkpt>
   <trkpt lat="-3.0925650" lon="37.3765700">
    <ele>4870.2</ele>
    <time>2026-06-22T22:49:01Z</time>
   </trkpt>
   <trkpt lat="-3.0925650" lon="37.3765700">
    <ele>4870.2</ele>
    <time>2026-06-22T22:49:02Z</time>
   </trkpt>
   <trkpt lat="-3.0925640" lon="37.3765700">
    <ele>4870.2</ele>
    <time>2026-06-22T22:49:03Z</time>
   </trkpt>
   <trkpt lat="-3.0925640" lon="37.3765710">
    <ele>4870.2</ele>
    <time>2026-06-22T22:49:04Z</time>
   </trkpt>
   <trkpt lat="-3.0925640" lon="37.3765700">
    <ele>4870.2</ele>
    <time>2026-06-22T22:49:05Z</time>
   </trkpt>
   <trkpt lat="-3.0925640" lon="37.3765700">
    <ele>4870.2</ele>
    <time>2026-06-22T22:49:06Z</time>
   </trkpt>
   <trkpt lat="-3.0925640" lon="37.3765700">
    <ele>4870.2</ele>
    <time>2026-06-22T22:49:07Z</time>
   </trkpt>
   <trkpt lat="-3.0925630" lon="37.3765720">
    <ele>4870.2</ele>
    <time>2026-06-22T22:49:08Z</time>
   </trkpt>
   <trkpt lat="-3.0925630" lon="37.3765710">
    <ele>4870.2</ele>
    <time>2026-06-22T22:49:09Z</time>
   </trkpt>
   <trkpt lat="-3.0925630" lon="37.3765710">
    <ele>4870.2</ele>
    <time>2026-06-22T22:49:10Z</time>
   </trkpt>
   <trkpt lat="-3.0925630" lon="37.3765720">
    <ele>4870.2</ele>
    <time>2026-06-22T22:49:11Z</time>
   </trkpt>
   <trkpt lat="-3.0925630" lon="37.3765710">
    <ele>4870.2</ele>
    <time>2026-06-22T22:49:12Z</time>
   </trkpt>
   <trkpt lat="-3.0925630" lon="37.3765710">
    <ele>4870.2</ele>
    <time>2026-06-22T22:49:13Z</time>
   </trkpt>
   <trkpt lat="-3.0925620" lon="37.3765690">
    <ele>4870.2</ele>
    <time>2026-06-22T22:49:14Z</time>
   </trkpt>
   <trkpt lat="-3.0925620" lon="37.3765670">
    <ele>4870.2</ele>
    <time>2026-06-22T22:49:15Z</time>
   </trkpt>
   <trkpt lat="-3.0925630" lon="37.3765660">
    <ele>4870.2</ele>
    <time>2026-06-22T22:49:16Z</time>
   </trkpt>
   <trkpt lat="-3.0925640" lon="37.3765650">
    <ele>4870.2</ele>
    <time>2026-06-22T22:49:17Z</time>
   </trkpt>
   <trkpt lat="-3.0925640" lon="37.3765650">
    <ele>4870.2</ele>
    <time>2026-06-22T22:49:18Z</time>
   </trkpt>
   <trkpt lat="-3.0925630" lon="37.3765650">
    <ele>4870.2</ele>
    <time>2026-06-22T22:49:19Z</time>
   </trkpt>
   <trkpt lat="-3.0925640" lon="37.3765660">
    <ele>4870.3</ele>
    <time>2026-06-22T22:49:20Z</time>
   </trkpt>
   <trkpt lat="-3.0925640" lon="37.3765670">
    <ele>4870.3</ele>
    <time>2026-06-22T22:49:21Z</time>
   </trkpt>
   <trkpt lat="-3.0925640" lon="37.3765670">
    <ele>4870.3</ele>
    <time>2026-06-22T22:49:22Z</time>
   </trkpt>
   <trkpt lat="-3.0925640" lon="37.3765670">
    <ele>4870.3</ele>
    <time>2026-06-22T22:49:23Z</time>
   </trkpt>
   <trkpt lat="-3.0925640" lon="37.3765670">
    <ele>4870.3</ele>
    <time>2026-06-22T22:49:24Z</time>
   </trkpt>
   <trkpt lat="-3.0925640" lon="37.3765670">
    <ele>4870.3</ele>
    <time>2026-06-22T22:49:25Z</time>
   </trkpt>
   <trkpt lat="-3.0925640" lon="37.3765670">
    <ele>4870.3</ele>
    <time>2026-06-22T22:49:26Z</time>
   </trkpt>
   <trkpt lat="-3.0925640" lon="37.3765670">
    <ele>4870.3</ele>
    <time>2026-06-22T22:49:27Z</time>
   </trkpt>
   <trkpt lat="-3.0925640" lon="37.3765670">
    <ele>4870.3</ele>
    <time>2026-06-22T22:49:28Z</time>
   </trkpt>
   <trkpt lat="-3.0925640" lon="37.3765670">
    <ele>4870.3</ele>
    <time>2026-06-22T22:49:29Z</time>
   </trkpt>
   <trkpt lat="-3.0925640" lon="37.3765670">
    <ele>4870.3</ele>
    <time>2026-06-22T22:49:30Z</time>
   </trkpt>
   <trkpt lat="-3.0925640" lon="37.3765670">
    <ele>4870.3</ele>
    <time>2026-06-22T22:49:31Z</time>
   </trkpt>
   <trkpt lat="-3.0925630" lon="37.3765650">
    <ele>4870.3</ele>
    <time>2026-06-22T22:49:32Z</time>
   </trkpt>
   <trkpt lat="-3.0925640" lon="37.3765650">
    <ele>4870.3</ele>
    <time>2026-06-22T22:49:33Z</time>
   </trkpt>
   <trkpt lat="-3.0925630" lon="37.3765650">
    <ele>4870.3</ele>
    <time>2026-06-22T22:49:34Z</time>
   </trkpt>
   <trkpt lat="-3.0925630" lon="37.3765670">
    <ele>4870.3</ele>
    <time>2026-06-22T22:49:35Z</time>
   </trkpt>
   <trkpt lat="-3.0925620" lon="37.3765650">
    <ele>4870.3</ele>
    <time>2026-06-22T22:49:36Z</time>
   </trkpt>
   <trkpt lat="-3.0925600" lon="37.3765650">
    <ele>4870.3</ele>
    <time>2026-06-22T22:49:37Z</time>
   </trkpt>
   <trkpt lat="-3.0925590" lon="37.3765650">
    <ele>4870.3</ele>
    <time>2026-06-22T22:49:38Z</time>
   </trkpt>
   <trkpt lat="-3.0925560" lon="37.3765640">
    <ele>4870.3</ele>
    <time>2026-06-22T22:49:39Z</time>
   </trkpt>
   <trkpt lat="-3.0925540" lon="37.3765630">
    <ele>4870.3</ele>
    <time>2026-06-22T22:49:40Z</time>
   </trkpt>
   <trkpt lat="-3.0925500" lon="37.3765620">
    <ele>4870.4</ele>
    <time>2026-06-22T22:49:41Z</time>
   </trkpt>
   <trkpt lat="-3.0925470" lon="37.3765620">
    <ele>4870.4</ele>
    <time>2026-06-22T22:49:42Z</time>
   </trkpt>
   <trkpt lat="-3.0925460" lon="37.3765620">
    <ele>4870.4</ele>
    <time>2026-06-22T22:49:43Z</time>
   </trkpt>
   <trkpt lat="-3.0925420" lon="37.3765610">
    <ele>4870.4</ele>
    <time>2026-06-22T22:49:44Z</time>
   </trkpt>
   <trkpt lat="-3.0925390" lon="37.3765590">
    <ele>4870.4</ele>
    <time>2026-06-22T22:49:45Z</time>
   </trkpt>
   <trkpt lat="-3.0925340" lon="37.3765590">
    <ele>4870.4</ele>
    <time>2026-06-22T22:49:46Z</time>
   </trkpt>
   <trkpt lat="-3.0925290" lon="37.3765570">
    <ele>4870.5</ele>
    <time>2026-06-22T22:49:47Z</time>
   </trkpt>
   <trkpt lat="-3.0925250" lon="37.3765580">
    <ele>4870.5</ele>
    <time>2026-06-22T22:49:48Z</time>
   </trkpt>
   <trkpt lat="-3.0925240" lon="37.3765560">
    <ele>4870.5</ele>
    <time>2026-06-22T22:49:49Z</time>
   </trkpt>
   <trkpt lat="-3.0925180" lon="37.3765560">
    <ele>4870.5</ele>
    <time>2026-06-22T22:49:50Z</time>
   </trkpt>
   <trkpt lat="-3.0925140" lon="37.3765560">
    <ele>4870.5</ele>
    <time>2026-06-22T22:49:51Z</time>
   </trkpt>
   <trkpt lat="-3.0925120" lon="37.3765570">
    <ele>4870.5</ele>
    <time>2026-06-22T22:49:52Z</time>
   </trkpt>
   <trkpt lat="-3.0925040" lon="37.3765560">
    <ele>4870.6</ele>
    <time>2026-06-22T22:49:53Z</time>
   </trkpt>
   <trkpt lat="-3.0925000" lon="37.3765560">
    <ele>4870.6</ele>
    <time>2026-06-22T22:49:54Z</time>
   </trkpt>
   <trkpt lat="-3.0925000" lon="37.3765560">
    <ele>4870.6</ele>
    <time>2026-06-22T22:49:55Z</time>
   </trkpt>
   <trkpt lat="-3.0924970" lon="37.3765550">
    <ele>4870.6</ele>
    <time>2026-06-22T22:49:56Z</time>
   </trkpt>
   <trkpt lat="-3.0924960" lon="37.3765540">
    <ele>4870.6</ele>
    <time>2026-06-22T22:49:57Z</time>
   </trkpt>
   <trkpt lat="-3.0924900" lon="37.3765560">
    <ele>4870.6</ele>
    <time>2026-06-22T22:49:58Z</time>
   </trkpt>
   <trkpt lat="-3.0924830" lon="37.3765550">
    <ele>4870.7</ele>
    <time>2026-06-22T22:49:59Z</time>
   </trkpt>
   <trkpt lat="-3.0924770" lon="37.3765540">
    <ele>4870.7</ele>
    <time>2026-06-22T22:50:00Z</time>
   </trkpt>
   <trkpt lat="-3.0924720" lon="37.3765550">
    <ele>4870.7</ele>
    <time>2026-06-22T22:50:01Z</time>
   </trkpt>
   <trkpt lat="-3.0924630" lon="37.3765570">
    <ele>4870.8</ele>
    <time>2026-06-22T22:50:02Z</time>
   </trkpt>
   <trkpt lat="-3.0924550" lon="37.3765610">
    <ele>4870.8</ele>
    <time>2026-06-22T22:50:03Z</time>
   </trkpt>
   <trkpt lat="-3.0924520" lon="37.3765580">
    <ele>4870.8</ele>
    <time>2026-06-22T22:50:04Z</time>
   </trkpt>
   <trkpt lat="-3.0924420" lon="37.3765590">
    <ele>4870.9</ele>
    <time>2026-06-22T22:50:05Z</time>
   </trkpt>
   <trkpt lat="-3.0924350" lon="37.3765570">
    <ele>4870.9</ele>
    <time>2026-06-22T22:50:06Z</time>
   </trkpt>
   <trkpt lat="-3.0924290" lon="37.3765570">
    <ele>4870.9</ele>
    <time>2026-06-22T22:50:07Z</time>
   </trkpt>
   <trkpt lat="-3.0924220" lon="37.3765580">
    <ele>4871.0</ele>
    <time>2026-06-22T22:50:08Z</time>
   </trkpt>
   <trkpt lat="-3.0924140" lon="37.3765580">
    <ele>4871.0</ele>
    <time>2026-06-22T22:50:09Z</time>
   </trkpt>
   <trkpt lat="-3.0924080" lon="37.3765560">
    <ele>4871.0</ele>
    <time>2026-06-22T22:50:10Z</time>
   </trkpt>
   <trkpt lat="-3.0924030" lon="37.3765540">
    <ele>4871.1</ele>
    <time>2026-06-22T22:50:11Z</time>
   </trkpt>
   <trkpt lat="-3.0923970" lon="37.3765510">
    <ele>4871.1</ele>
    <time>2026-06-22T22:50:12Z</time>
   </trkpt>
   <trkpt lat="-3.0923930" lon="37.3765510">
    <ele>4871.1</ele>
    <time>2026-06-22T22:50:13Z</time>
   </trkpt>
   <trkpt lat="-3.0923870" lon="37.3765490">
    <ele>4871.1</ele>
    <time>2026-06-22T22:50:14Z</time>
   </trkpt>
   <trkpt lat="-3.0923790" lon="37.3765460">
    <ele>4871.2</ele>
    <time>2026-06-22T22:50:15Z</time>
   </trkpt>
   <trkpt lat="-3.0923740" lon="37.3765440">
    <ele>4871.2</ele>
    <time>2026-06-22T22:50:16Z</time>
   </trkpt>
   <trkpt lat="-3.0923690" lon="37.3765400">
    <ele>4871.2</ele>
    <time>2026-06-22T22:50:17Z</time>
   </trkpt>
   <trkpt lat="-3.0923640" lon="37.3765380">
    <ele>4871.2</ele>
    <time>2026-06-22T22:50:18Z</time>
   </trkpt>
   <trkpt lat="-3.0923590" lon="37.3765350">
    <ele>4871.3</ele>
    <time>2026-06-22T22:50:19Z</time>
   </trkpt>
   <trkpt lat="-3.0923540" lon="37.3765340">
    <ele>4871.3</ele>
    <time>2026-06-22T22:50:20Z</time>
   </trkpt>
   <trkpt lat="-3.0923500" lon="37.3765320">
    <ele>4871.3</ele>
    <time>2026-06-22T22:50:21Z</time>
   </trkpt>
   <trkpt lat="-3.0923480" lon="37.3765280">
    <ele>4871.3</ele>
    <time>2026-06-22T22:50:22Z</time>
   </trkpt>
   <trkpt lat="-3.0923440" lon="37.3765250">
    <ele>4871.4</ele>
    <time>2026-06-22T22:50:23Z</time>
   </trkpt>
   <trkpt lat="-3.0923410" lon="37.3765220">
    <ele>4871.4</ele>
    <time>2026-06-22T22:50:24Z</time>
   </trkpt>
   <trkpt lat="-3.0923340" lon="37.3765180">
    <ele>4871.4</ele>
    <time>2026-06-22T22:50:25Z</time>
   </trkpt>
   <trkpt lat="-3.0923310" lon="37.3765160">
    <ele>4871.4</ele>
    <time>2026-06-22T22:50:26Z</time>
   </trkpt>
   <trkpt lat="-3.0923260" lon="37.3765130">
    <ele>4871.4</ele>
    <time>2026-06-22T22:50:27Z</time>
   </trkpt>
   <trkpt lat="-3.0923240" lon="37.3765110">
    <ele>4871.5</ele>
    <time>2026-06-22T22:50:28Z</time>
   </trkpt>
   <trkpt lat="-3.0923200" lon="37.3765060">
    <ele>4871.5</ele>
    <time>2026-06-22T22:50:29Z</time>
   </trkpt>
   <trkpt lat="-3.0923170" lon="37.3765050">
    <ele>4871.5</ele>
    <time>2026-06-22T22:50:30Z</time>
   </trkpt>
   <trkpt lat="-3.0923140" lon="37.3765000">
    <ele>4871.5</ele>
    <time>2026-06-22T22:50:31Z</time>
   </trkpt>
   <trkpt lat="-3.0923110" lon="37.3764960">
    <ele>4871.5</ele>
    <time>2026-06-22T22:50:32Z</time>
   </trkpt>
   <trkpt lat="-3.0923080" lon="37.3764940">
    <ele>4871.5</ele>
    <time>2026-06-22T22:50:33Z</time>
   </trkpt>
   <trkpt lat="-3.0923050" lon="37.3764910">
    <ele>4871.6</ele>
    <time>2026-06-22T22:50:34Z</time>
   </trkpt>
   <trkpt lat="-3.0923030" lon="37.3764880">
    <ele>4871.6</ele>
    <time>2026-06-22T22:50:35Z</time>
   </trkpt>
   <trkpt lat="-3.0923010" lon="37.3764840">
    <ele>4871.6</ele>
    <time>2026-06-22T22:50:36Z</time>
   </trkpt>
   <trkpt lat="-3.0922990" lon="37.3764810">
    <ele>4871.6</ele>
    <time>2026-06-22T22:50:37Z</time>
   </trkpt>
   <trkpt lat="-3.0922930" lon="37.3764750">
    <ele>4871.6</ele>
    <time>2026-06-22T22:50:38Z</time>
   </trkpt>
   <trkpt lat="-3.0922930" lon="37.3764720">
    <ele>4871.6</ele>
    <time>2026-06-22T22:50:39Z</time>
   </trkpt>
   <trkpt lat="-3.0922880" lon="37.3764670">
    <ele>4871.7</ele>
    <time>2026-06-22T22:50:40Z</time>
   </trkpt>
   <trkpt lat="-3.0922830" lon="37.3764610">
    <ele>4871.7</ele>
    <time>2026-06-22T22:50:41Z</time>
   </trkpt>
   <trkpt lat="-3.0922800" lon="37.3764590">
    <ele>4871.7</ele>
    <time>2026-06-22T22:50:42Z</time>
   </trkpt>
   <trkpt lat="-3.0922730" lon="37.3764590">
    <ele>4871.7</ele>
    <time>2026-06-22T22:50:43Z</time>
   </trkpt>
   <trkpt lat="-3.0922660" lon="37.3764570">
    <ele>4871.7</ele>
    <time>2026-06-22T22:50:44Z</time>
   </trkpt>
   <trkpt lat="-3.0922630" lon="37.3764560">
    <ele>4871.8</ele>
    <time>2026-06-22T22:50:45Z</time>
   </trkpt>
   <trkpt lat="-3.0922580" lon="37.3764530">
    <ele>4871.8</ele>
    <time>2026-06-22T22:50:47Z</time>
   </trkpt>
   <trkpt lat="-3.0922550" lon="37.3764510">
    <ele>4871.8</ele>
    <time>2026-06-22T22:50:48Z</time>
   </trkpt>
   <trkpt lat="-3.0922520" lon="37.3764470">
    <ele>4871.8</ele>
    <time>2026-06-22T22:50:49Z</time>
   </trkpt>
   <trkpt lat="-3.0922500" lon="37.3764450">
    <ele>4871.8</ele>
    <time>2026-06-22T22:50:50Z</time>
   </trkpt>
   <trkpt lat="-3.0922470" lon="37.3764440">
    <ele>4871.8</ele>
    <time>2026-06-22T22:50:51Z</time>
   </trkpt>
   <trkpt lat="-3.0922430" lon="37.3764420">
    <ele>4871.8</ele>
    <time>2026-06-22T22:50:52Z</time>
   </trkpt>
   <trkpt lat="-3.0922380" lon="37.3764410">
    <ele>4871.8</ele>
    <time>2026-06-22T22:50:53Z</time>
   </trkpt>
   <trkpt lat="-3.0922340" lon="37.3764390">
    <ele>4871.8</ele>
    <time>2026-06-22T22:50:54Z</time>
   </trkpt>
   <trkpt lat="-3.0922290" lon="37.3764380">
    <ele>4871.8</ele>
    <time>2026-06-22T22:50:55Z</time>
   </trkpt>
   <trkpt lat="-3.0922250" lon="37.3764360">
    <ele>4871.9</ele>
    <time>2026-06-22T22:50:56Z</time>
   </trkpt>
   <trkpt lat="-3.0922220" lon="37.3764350">
    <ele>4871.9</ele>
    <time>2026-06-22T22:50:57Z</time>
   </trkpt>
   <trkpt lat="-3.0922200" lon="37.3764350">
    <ele>4871.9</ele>
    <time>2026-06-22T22:50:58Z</time>
   </trkpt>
   <trkpt lat="-3.0922150" lon="37.3764350">
    <ele>4871.9</ele>
    <time>2026-06-22T22:50:59Z</time>
   </trkpt>
   <trkpt lat="-3.0922090" lon="37.3764340">
    <ele>4871.9</ele>
    <time>2026-06-22T22:51:00Z</time>
   </trkpt>
   <trkpt lat="-3.0922070" lon="37.3764350">
    <ele>4871.9</ele>
    <time>2026-06-22T22:51:01Z</time>
   </trkpt>
   <trkpt lat="-3.0922030" lon="37.3764340">
    <ele>4871.9</ele>
    <time>2026-06-22T22:51:02Z</time>
   </trkpt>
   <trkpt lat="-3.0922010" lon="37.3764340">
    <ele>4871.9</ele>
    <time>2026-06-22T22:51:03Z</time>
   </trkpt>
   <trkpt lat="-3.0921990" lon="37.3764360">
    <ele>4871.9</ele>
    <time>2026-06-22T22:51:04Z</time>
   </trkpt>
   <trkpt lat="-3.0921940" lon="37.3764360">
    <ele>4871.9</ele>
    <time>2026-06-22T22:51:05Z</time>
   </trkpt>
   <trkpt lat="-3.0921880" lon="37.3764380">
    <ele>4871.9</ele>
    <time>2026-06-22T22:51:06Z</time>
   </trkpt>
   <trkpt lat="-3.0921870" lon="37.3764390">
    <ele>4871.9</ele>
    <time>2026-06-22T22:51:07Z</time>
   </trkpt>
   <trkpt lat="-3.0921800" lon="37.3764370">
    <ele>4871.9</ele>
    <time>2026-06-22T22:51:08Z</time>
   </trkpt>
   <trkpt lat="-3.0921750" lon="37.3764390">
    <ele>4872.0</ele>
    <time>2026-06-22T22:51:09Z</time>
   </trkpt>
   <trkpt lat="-3.0921730" lon="37.3764410">
    <ele>4872.0</ele>
    <time>2026-06-22T22:51:10Z</time>
   </trkpt>
   <trkpt lat="-3.0921660" lon="37.3764420">
    <ele>4872.0</ele>
    <time>2026-06-22T22:51:11Z</time>
   </trkpt>
   <trkpt lat="-3.0921630" lon="37.3764390">
    <ele>4872.0</ele>
    <time>2026-06-22T22:51:12Z</time>
   </trkpt>
   <trkpt lat="-3.0921580" lon="37.3764340">
    <ele>4872.0</ele>
    <time>2026-06-22T22:51:13Z</time>
   </trkpt>
   <trkpt lat="-3.0921500" lon="37.3764290">
    <ele>4872.0</ele>
    <time>2026-06-22T22:51:14Z</time>
   </trkpt>
   <trkpt lat="-3.0921470" lon="37.3764270">
    <ele>4872.0</ele>
    <time>2026-06-22T22:51:15Z</time>
   </trkpt>
   <trkpt lat="-3.0921430" lon="37.3764290">
    <ele>4872.0</ele>
    <time>2026-06-22T22:51:16Z</time>
   </trkpt>
   <trkpt lat="-3.0921380" lon="37.3764280">
    <ele>4872.0</ele>
    <time>2026-06-22T22:51:17Z</time>
   </trkpt>
   <trkpt lat="-3.0921340" lon="37.3764280">
    <ele>4872.1</ele>
    <time>2026-06-22T22:51:18Z</time>
   </trkpt>
   <trkpt lat="-3.0921300" lon="37.3764270">
    <ele>4872.1</ele>
    <time>2026-06-22T22:51:19Z</time>
   </trkpt>
   <trkpt lat="-3.0921230" lon="37.3764260">
    <ele>4872.1</ele>
    <time>2026-06-22T22:51:20Z</time>
   </trkpt>
   <trkpt lat="-3.0921240" lon="37.3764300">
    <ele>4872.1</ele>
    <time>2026-06-22T22:51:21Z</time>
   </trkpt>
   <trkpt lat="-3.0921160" lon="37.3764320">
    <ele>4872.1</ele>
    <time>2026-06-22T22:51:22Z</time>
   </trkpt>
   <trkpt lat="-3.0921120" lon="37.3764360">
    <ele>4872.1</ele>
    <time>2026-06-22T22:51:23Z</time>
   </trkpt>
   <trkpt lat="-3.0921100" lon="37.3764370">
    <ele>4872.1</ele>
    <time>2026-06-22T22:51:24Z</time>
   </trkpt>
   <trkpt lat="-3.0921050" lon="37.3764370">
    <ele>4872.2</ele>
    <time>2026-06-22T22:51:25Z</time>
   </trkpt>
   <trkpt lat="-3.0920980" lon="37.3764360">
    <ele>4872.2</ele>
    <time>2026-06-22T22:51:26Z</time>
   </trkpt>
   <trkpt lat="-3.0920920" lon="37.3764370">
    <ele>4872.2</ele>
    <time>2026-06-22T22:51:27Z</time>
   </trkpt>
   <trkpt lat="-3.0920870" lon="37.3764380">
    <ele>4872.2</ele>
    <time>2026-06-22T22:51:28Z</time>
   </trkpt>
   <trkpt lat="-3.0920790" lon="37.3764380">
    <ele>4872.2</ele>
    <time>2026-06-22T22:51:29Z</time>
   </trkpt>
   <trkpt lat="-3.0920730" lon="37.3764370">
    <ele>4872.3</ele>
    <time>2026-06-22T22:51:30Z</time>
   </trkpt>
   <trkpt lat="-3.0920630" lon="37.3764370">
    <ele>4872.3</ele>
    <time>2026-06-22T22:51:31Z</time>
   </trkpt>
   <trkpt lat="-3.0920570" lon="37.3764330">
    <ele>4872.3</ele>
    <time>2026-06-22T22:51:32Z</time>
   </trkpt>
   <trkpt lat="-3.0920520" lon="37.3764300">
    <ele>4872.4</ele>
    <time>2026-06-22T22:51:33Z</time>
   </trkpt>
   <trkpt lat="-3.0920460" lon="37.3764270">
    <ele>4872.4</ele>
    <time>2026-06-22T22:51:34Z</time>
   </trkpt>
   <trkpt lat="-3.0920420" lon="37.3764270">
    <ele>4872.4</ele>
    <time>2026-06-22T22:51:35Z</time>
   </trkpt>
   <trkpt lat="-3.0920390" lon="37.3764250">
    <ele>4872.4</ele>
    <time>2026-06-22T22:51:36Z</time>
   </trkpt>
   <trkpt lat="-3.0920320" lon="37.3764240">
    <ele>4872.5</ele>
    <time>2026-06-22T22:51:37Z</time>
   </trkpt>
   <trkpt lat="-3.0920240" lon="37.3764240">
    <ele>4872.5</ele>
    <time>2026-06-22T22:51:38Z</time>
   </trkpt>
   <trkpt lat="-3.0920180" lon="37.3764240">
    <ele>4872.5</ele>
    <time>2026-06-22T22:51:39Z</time>
   </trkpt>
   <trkpt lat="-3.0920120" lon="37.3764250">
    <ele>4872.6</ele>
    <time>2026-06-22T22:51:40Z</time>
   </trkpt>
   <trkpt lat="-3.0920060" lon="37.3764260">
    <ele>4872.6</ele>
    <time>2026-06-22T22:51:41Z</time>
   </trkpt>
   <trkpt lat="-3.0920010" lon="37.3764260">
    <ele>4872.7</ele>
    <time>2026-06-22T22:51:42Z</time>
   </trkpt>
   <trkpt lat="-3.0919960" lon="37.3764250">
    <ele>4872.7</ele>
    <time>2026-06-22T22:51:43Z</time>
   </trkpt>
   <trkpt lat="-3.0919940" lon="37.3764220">
    <ele>4872.7</ele>
    <time>2026-06-22T22:51:44Z</time>
   </trkpt>
   <trkpt lat="-3.0919890" lon="37.3764130">
    <ele>4872.8</ele>
    <time>2026-06-22T22:51:45Z</time>
   </trkpt>
   <trkpt lat="-3.0919920" lon="37.3764070">
    <ele>4872.8</ele>
    <time>2026-06-22T22:51:46Z</time>
   </trkpt>
   <trkpt lat="-3.0919920" lon="37.3764040">
    <ele>4872.8</ele>
    <time>2026-06-22T22:51:47Z</time>
   </trkpt>
   <trkpt lat="-3.0919930" lon="37.3763980">
    <ele>4872.9</ele>
    <time>2026-06-22T22:51:48Z</time>
   </trkpt>
   <trkpt lat="-3.0919940" lon="37.3763940">
    <ele>4872.9</ele>
    <time>2026-06-22T22:51:49Z</time>
   </trkpt>
   <trkpt lat="-3.0919960" lon="37.3763900">
    <ele>4872.9</ele>
    <time>2026-06-22T22:51:50Z</time>
   </trkpt>
   <trkpt lat="-3.0919970" lon="37.3763880">
    <ele>4872.9</ele>
    <time>2026-06-22T22:51:51Z</time>
   </trkpt>
   <trkpt lat="-3.0920010" lon="37.3763840">
    <ele>4873.0</ele>
    <time>2026-06-22T22:51:52Z</time>
   </trkpt>
   <trkpt lat="-3.0920010" lon="37.3763840">
    <ele>4873.0</ele>
    <time>2026-06-22T22:51:53Z</time>
   </trkpt>
   <trkpt lat="-3.0920040" lon="37.3763810">
    <ele>4873.0</ele>
    <time>2026-06-22T22:51:54Z</time>
   </trkpt>
   <trkpt lat="-3.0920040" lon="37.3763790">
    <ele>4873.0</ele>
    <time>2026-06-22T22:51:55Z</time>
   </trkpt>
   <trkpt lat="-3.0920070" lon="37.3763770">
    <ele>4873.1</ele>
    <time>2026-06-22T22:51:56Z</time>
   </trkpt>
   <trkpt lat="-3.0920090" lon="37.3763730">
    <ele>4873.1</ele>
    <time>2026-06-22T22:51:57Z</time>
   </trkpt>
   <trkpt lat="-3.0920100" lon="37.3763700">
    <ele>4873.1</ele>
    <time>2026-06-22T22:51:58Z</time>
   </trkpt>
   <trkpt lat="-3.0920100" lon="37.3763700">
    <ele>4873.1</ele>
    <time>2026-06-22T22:51:59Z</time>
   </trkpt>
   <trkpt lat="-3.0920100" lon="37.3763630">
    <ele>4873.2</ele>
    <time>2026-06-22T22:52:00Z</time>
   </trkpt>
   <trkpt lat="-3.0920070" lon="37.3763600">
    <ele>4873.2</ele>
    <time>2026-06-22T22:52:01Z</time>
   </trkpt>
   <trkpt lat="-3.0920040" lon="37.3763600">
    <ele>4873.2</ele>
    <time>2026-06-22T22:52:02Z</time>
   </trkpt>
   <trkpt lat="-3.0919990" lon="37.3763550">
    <ele>4873.3</ele>
    <time>2026-06-22T22:52:03Z</time>
   </trkpt>
   <trkpt lat="-3.0919950" lon="37.3763520">
    <ele>4873.3</ele>
    <time>2026-06-22T22:52:04Z</time>
   </trkpt>
   <trkpt lat="-3.0919920" lon="37.3763490">
    <ele>4873.3</ele>
    <time>2026-06-22T22:52:05Z</time>
   </trkpt>
   <trkpt lat="-3.0919880" lon="37.3763500">
    <ele>4873.4</ele>
    <time>2026-06-22T22:52:06Z</time>
   </trkpt>
   <trkpt lat="-3.0919850" lon="37.3763460">
    <ele>4873.4</ele>
    <time>2026-06-22T22:52:07Z</time>
   </trkpt>
   <trkpt lat="-3.0919840" lon="37.3763430">
    <ele>4873.4</ele>
    <time>2026-06-22T22:52:08Z</time>
   </trkpt>
   <trkpt lat="-3.0919830" lon="37.3763360">
    <ele>4873.5</ele>
    <time>2026-06-22T22:52:09Z</time>
   </trkpt>
   <trkpt lat="-3.0919810" lon="37.3763320">
    <ele>4873.5</ele>
    <time>2026-06-22T22:52:10Z</time>
   </trkpt>
   <trkpt lat="-3.0919820" lon="37.3763270">
    <ele>4873.6</ele>
    <time>2026-06-22T22:52:11Z</time>
   </trkpt>
   <trkpt lat="-3.0919810" lon="37.3763250">
    <ele>4873.6</ele>
    <time>2026-06-22T22:52:12Z</time>
   </trkpt>
   <trkpt lat="-3.0919800" lon="37.3763200">
    <ele>4873.7</ele>
    <time>2026-06-22T22:52:13Z</time>
   </trkpt>
   <trkpt lat="-3.0919760" lon="37.3763180">
    <ele>4873.7</ele>
    <time>2026-06-22T22:52:14Z</time>
   </trkpt>
   <trkpt lat="-3.0919750" lon="37.3763110">
    <ele>4873.8</ele>
    <time>2026-06-22T22:52:15Z</time>
   </trkpt>
   <trkpt lat="-3.0919720" lon="37.3763090">
    <ele>4873.8</ele>
    <time>2026-06-22T22:52:16Z</time>
   </trkpt>
   <trkpt lat="-3.0919680" lon="37.3763070">
    <ele>4873.8</ele>
    <time>2026-06-22T22:52:17Z</time>
   </trkpt>
   <trkpt lat="-3.0919640" lon="37.3763010">
    <ele>4873.9</ele>
    <time>2026-06-22T22:52:18Z</time>
   </trkpt>
   <trkpt lat="-3.0919610" lon="37.3762970">
    <ele>4873.9</ele>
    <time>2026-06-22T22:52:19Z</time>
   </trkpt>
   <trkpt lat="-3.0919590" lon="37.3762920">
    <ele>4874.0</ele>
    <time>2026-06-22T22:52:20Z</time>
   </trkpt>
   <trkpt lat="-3.0919560" lon="37.3762910">
    <ele>4874.0</ele>
    <time>2026-06-22T22:52:21Z</time>
   </trkpt>
   <trkpt lat="-3.0919540" lon="37.3762860">
    <ele>4874.1</ele>
    <time>2026-06-22T22:52:22Z</time>
   </trkpt>
   <trkpt lat="-3.0919520" lon="37.3762870">
    <ele>4874.1</ele>
    <time>2026-06-22T22:52:23Z</time>
   </trkpt>
   <trkpt lat="-3.0919500" lon="37.3762820">
    <ele>4874.1</ele>
    <time>2026-06-22T22:52:24Z</time>
   </trkpt>
   <trkpt lat="-3.0919450" lon="37.3762790">
    <ele>4874.2</ele>
    <time>2026-06-22T22:52:25Z</time>
   </trkpt>
   <trkpt lat="-3.0919420" lon="37.3762780">
    <ele>4874.2</ele>
    <time>2026-06-22T22:52:26Z</time>
   </trkpt>
   <trkpt lat="-3.0919350" lon="37.3762760">
    <ele>4874.3</ele>
    <time>2026-06-22T22:52:27Z</time>
   </trkpt>
   <trkpt lat="-3.0919310" lon="37.3762750">
    <ele>4874.3</ele>
    <time>2026-06-22T22:52:28Z</time>
   </trkpt>
   <trkpt lat="-3.0919270" lon="37.3762730">
    <ele>4874.4</ele>
    <time>2026-06-22T22:52:29Z</time>
   </trkpt>
   <trkpt lat="-3.0919250" lon="37.3762720">
    <ele>4874.4</ele>
    <time>2026-06-22T22:52:30Z</time>
   </trkpt>
   <trkpt lat="-3.0919240" lon="37.3762700">
    <ele>4874.4</ele>
    <time>2026-06-22T22:52:31Z</time>
   </trkpt>
   <trkpt lat="-3.0919240" lon="37.3762670">
    <ele>4874.4</ele>
    <time>2026-06-22T22:52:32Z</time>
   </trkpt>
   <trkpt lat="-3.0919200" lon="37.3762650">
    <ele>4874.5</ele>
    <time>2026-06-22T22:52:33Z</time>
   </trkpt>
   <trkpt lat="-3.0919170" lon="37.3762640">
    <ele>4874.5</ele>
    <time>2026-06-22T22:52:34Z</time>
   </trkpt>
   <trkpt lat="-3.0919130" lon="37.3762610">
    <ele>4874.6</ele>
    <time>2026-06-22T22:52:35Z</time>
   </trkpt>
   <trkpt lat="-3.0919100" lon="37.3762590">
    <ele>4874.6</ele>
    <time>2026-06-22T22:52:36Z</time>
   </trkpt>
   <trkpt lat="-3.0919070" lon="37.3762520">
    <ele>4874.7</ele>
    <time>2026-06-22T22:52:37Z</time>
   </trkpt>
   <trkpt lat="-3.0919070" lon="37.3762530">
    <ele>4874.7</ele>
    <time>2026-06-22T22:52:38Z</time>
   </trkpt>
   <trkpt lat="-3.0919080" lon="37.3762460">
    <ele>4874.8</ele>
    <time>2026-06-22T22:52:39Z</time>
   </trkpt>
   <trkpt lat="-3.0919060" lon="37.3762450">
    <ele>4874.8</ele>
    <time>2026-06-22T22:52:40Z</time>
   </trkpt>
   <trkpt lat="-3.0919040" lon="37.3762420">
    <ele>4874.8</ele>
    <time>2026-06-22T22:52:41Z</time>
   </trkpt>
   <trkpt lat="-3.0919020" lon="37.3762390">
    <ele>4874.9</ele>
    <time>2026-06-22T22:52:42Z</time>
   </trkpt>
   <trkpt lat="-3.0919000" lon="37.3762370">
    <ele>4874.9</ele>
    <time>2026-06-22T22:52:43Z</time>
   </trkpt>
   <trkpt lat="-3.0918980" lon="37.3762310">
    <ele>4875.0</ele>
    <time>2026-06-22T22:52:44Z</time>
   </trkpt>
   <trkpt lat="-3.0918940" lon="37.3762230">
    <ele>4875.1</ele>
    <time>2026-06-22T22:52:45Z</time>
   </trkpt>
   <trkpt lat="-3.0918910" lon="37.3762220">
    <ele>4875.1</ele>
    <time>2026-06-22T22:52:46Z</time>
   </trkpt>
   <trkpt lat="-3.0918900" lon="37.3762200">
    <ele>4875.1</ele>
    <time>2026-06-22T22:52:47Z</time>
   </trkpt>
   <trkpt lat="-3.0918870" lon="37.3762170">
    <ele>4875.2</ele>
    <time>2026-06-22T22:52:48Z</time>
   </trkpt>
   <trkpt lat="-3.0918830" lon="37.3762160">
    <ele>4875.2</ele>
    <time>2026-06-22T22:52:49Z</time>
   </trkpt>
   <trkpt lat="-3.0918810" lon="37.3762160">
    <ele>4875.2</ele>
    <time>2026-06-22T22:52:50Z</time>
   </trkpt>
   <trkpt lat="-3.0918790" lon="37.3762160">
    <ele>4875.3</ele>
    <time>2026-06-22T22:52:51Z</time>
   </trkpt>
   <trkpt lat="-3.0918700" lon="37.3762140">
    <ele>4875.4</ele>
    <time>2026-06-22T22:52:52Z</time>
   </trkpt>
   <trkpt lat="-3.0918710" lon="37.3762130">
    <ele>4875.4</ele>
    <time>2026-06-22T22:52:53Z</time>
   </trkpt>
   <trkpt lat="-3.0918670" lon="37.3762100">
    <ele>4875.4</ele>
    <time>2026-06-22T22:52:54Z</time>
   </trkpt>
   <trkpt lat="-3.0918670" lon="37.3762080">
    <ele>4875.5</ele>
    <time>2026-06-22T22:52:55Z</time>
   </trkpt>
   <trkpt lat="-3.0918620" lon="37.3762050">
    <ele>4875.5</ele>
    <time>2026-06-22T22:52:56Z</time>
   </trkpt>
   <trkpt lat="-3.0918610" lon="37.3762040">
    <ele>4875.6</ele>
    <time>2026-06-22T22:52:57Z</time>
   </trkpt>
   <trkpt lat="-3.0918570" lon="37.3762000">
    <ele>4875.6</ele>
    <time>2026-06-22T22:52:59Z</time>
   </trkpt>
   <trkpt lat="-3.0918550" lon="37.3761970">
    <ele>4875.7</ele>
    <time>2026-06-22T22:53:01Z</time>
   </trkpt>
   <trkpt lat="-3.0918570" lon="37.3761960">
    <ele>4875.7</ele>
    <time>2026-06-22T22:53:02Z</time>
   </trkpt>
   <trkpt lat="-3.0918520" lon="37.3761920">
    <ele>4875.8</ele>
    <time>2026-06-22T22:53:03Z</time>
   </trkpt>
   <trkpt lat="-3.0918460" lon="37.3761910">
    <ele>4875.8</ele>
    <time>2026-06-22T22:53:04Z</time>
   </trkpt>
   <trkpt lat="-3.0918420" lon="37.3761890">
    <ele>4875.9</ele>
    <time>2026-06-22T22:53:05Z</time>
   </trkpt>
   <trkpt lat="-3.0918420" lon="37.3761900">
    <ele>4875.9</ele>
    <time>2026-06-22T22:53:06Z</time>
   </trkpt>
   <trkpt lat="-3.0918330" lon="37.3761800">
    <ele>4876.1</ele>
    <time>2026-06-22T22:53:07Z</time>
   </trkpt>
   <trkpt lat="-3.0918320" lon="37.3761790">
    <ele>4876.1</ele>
    <time>2026-06-22T22:53:08Z</time>
   </trkpt>
   <trkpt lat="-3.0918270" lon="37.3761760">
    <ele>4876.2</ele>
    <time>2026-06-22T22:53:09Z</time>
   </trkpt>
   <trkpt lat="-3.0918250" lon="37.3761730">
    <ele>4876.2</ele>
    <time>2026-06-22T22:53:10Z</time>
   </trkpt>
   <trkpt lat="-3.0918270" lon="37.3761720">
    <ele>4876.2</ele>
    <time>2026-06-22T22:53:11Z</time>
   </trkpt>
   <trkpt lat="-3.0918230" lon="37.3761690">
    <ele>4876.3</ele>
    <time>2026-06-22T22:53:12Z</time>
   </trkpt>
   <trkpt lat="-3.0918200" lon="37.3761660">
    <ele>4876.3</ele>
    <time>2026-06-22T22:53:13Z</time>
   </trkpt>
   <trkpt lat="-3.0918180" lon="37.3761640">
    <ele>4876.4</ele>
    <time>2026-06-22T22:53:14Z</time>
   </trkpt>
   <trkpt lat="-3.0918170" lon="37.3761620">
    <ele>4876.4</ele>
    <time>2026-06-22T22:53:15Z</time>
   </trkpt>
   <trkpt lat="-3.0918150" lon="37.3761630">
    <ele>4876.4</ele>
    <time>2026-06-22T22:53:16Z</time>
   </trkpt>
   <trkpt lat="-3.0918080" lon="37.3761620">
    <ele>4876.5</ele>
    <time>2026-06-22T22:53:17Z</time>
   </trkpt>
   <trkpt lat="-3.0918050" lon="37.3761610">
    <ele>4876.5</ele>
    <time>2026-06-22T22:53:18Z</time>
   </trkpt>
   <trkpt lat="-3.0918020" lon="37.3761560">
    <ele>4876.6</ele>
    <time>2026-06-22T22:53:19Z</time>
   </trkpt>
   <trkpt lat="-3.0917970" lon="37.3761550">
    <ele>4876.7</ele>
    <time>2026-06-22T22:53:20Z</time>
   </trkpt>
   <trkpt lat="-3.0917930" lon="37.3761540">
    <ele>4876.7</ele>
    <time>2026-06-22T22:53:21Z</time>
   </trkpt>
   <trkpt lat="-3.0917900" lon="37.3761530">
    <ele>4876.8</ele>
    <time>2026-06-22T22:53:22Z</time>
   </trkpt>
   <trkpt lat="-3.0917850" lon="37.3761500">
    <ele>4876.8</ele>
    <time>2026-06-22T22:53:23Z</time>
   </trkpt>
   <trkpt lat="-3.0917840" lon="37.3761460">
    <ele>4876.9</ele>
    <time>2026-06-22T22:53:24Z</time>
   </trkpt>
   <trkpt lat="-3.0917810" lon="37.3761460">
    <ele>4876.9</ele>
    <time>2026-06-22T22:53:25Z</time>
   </trkpt>
   <trkpt lat="-3.0917790" lon="37.3761450">
    <ele>4876.9</ele>
    <time>2026-06-22T22:53:26Z</time>
   </trkpt>
   <trkpt lat="-3.0917790" lon="37.3761410">
    <ele>4877.0</ele>
    <time>2026-06-22T22:53:27Z</time>
   </trkpt>
   <trkpt lat="-3.0917760" lon="37.3761370">
    <ele>4877.1</ele>
    <time>2026-06-22T22:53:28Z</time>
   </trkpt>
   <trkpt lat="-3.0917740" lon="37.3761320">
    <ele>4877.1</ele>
    <time>2026-06-22T22:53:29Z</time>
   </trkpt>
   <trkpt lat="-3.0917730" lon="37.3761300">
    <ele>4877.1</ele>
    <time>2026-06-22T22:53:30Z</time>
   </trkpt>
   <trkpt lat="-3.0917700" lon="37.3761220">
    <ele>4877.2</ele>
    <time>2026-06-22T22:53:31Z</time>
   </trkpt>
   <trkpt lat="-3.0917700" lon="37.3761190">
    <ele>4877.3</ele>
    <time>2026-06-22T22:53:32Z</time>
   </trkpt>
   <trkpt lat="-3.0917660" lon="37.3761170">
    <ele>4877.3</ele>
    <time>2026-06-22T22:53:33Z</time>
   </trkpt>
   <trkpt lat="-3.0917670" lon="37.3761130">
    <ele>4877.4</ele>
    <time>2026-06-22T22:53:34Z</time>
   </trkpt>
   <trkpt lat="-3.0917670" lon="37.3761090">
    <ele>4877.4</ele>
    <time>2026-06-22T22:53:35Z</time>
   </trkpt>
   <trkpt lat="-3.0917680" lon="37.3761060">
    <ele>4877.4</ele>
    <time>2026-06-22T22:53:36Z</time>
   </trkpt>
   <trkpt lat="-3.0917650" lon="37.3761020">
    <ele>4877.5</ele>
    <time>2026-06-22T22:53:37Z</time>
   </trkpt>
   <trkpt lat="-3.0917640" lon="37.3760990">
    <ele>4877.5</ele>
    <time>2026-06-22T22:53:38Z</time>
   </trkpt>
   <trkpt lat="-3.0917620" lon="37.3760960">
    <ele>4877.6</ele>
    <time>2026-06-22T22:53:39Z</time>
   </trkpt>
   <trkpt lat="-3.0917600" lon="37.3760940">
    <ele>4877.6</ele>
    <time>2026-06-22T22:53:40Z</time>
   </trkpt>
   <trkpt lat="-3.0917590" lon="37.3760900">
    <ele>4877.7</ele>
    <time>2026-06-22T22:53:41Z</time>
   </trkpt>
   <trkpt lat="-3.0917570" lon="37.3760860">
    <ele>4877.7</ele>
    <time>2026-06-22T22:53:42Z</time>
   </trkpt>
   <trkpt lat="-3.0917580" lon="37.3760810">
    <ele>4877.8</ele>
    <time>2026-06-22T22:53:43Z</time>
   </trkpt>
   <trkpt lat="-3.0917570" lon="37.3760780">
    <ele>4877.8</ele>
    <time>2026-06-22T22:53:44Z</time>
   </trkpt>
   <trkpt lat="-3.0917580" lon="37.3760740">
    <ele>4877.8</ele>
    <time>2026-06-22T22:53:45Z</time>
   </trkpt>
   <trkpt lat="-3.0917570" lon="37.3760720">
    <ele>4877.8</ele>
    <time>2026-06-22T22:53:46Z</time>
   </trkpt>
   <trkpt lat="-3.0917550" lon="37.3760680">
    <ele>4877.9</ele>
    <time>2026-06-22T22:53:47Z</time>
   </trkpt>
   <trkpt lat="-3.0917530" lon="37.3760650">
    <ele>4877.9</ele>
    <time>2026-06-22T22:53:48Z</time>
   </trkpt>
   <trkpt lat="-3.0917510" lon="37.3760630">
    <ele>4878.0</ele>
    <time>2026-06-22T22:53:49Z</time>
   </trkpt>
   <trkpt lat="-3.0917510" lon="37.3760610">
    <ele>4878.0</ele>
    <time>2026-06-22T22:53:50Z</time>
   </trkpt>
   <trkpt lat="-3.0917500" lon="37.3760570">
    <ele>4878.0</ele>
    <time>2026-06-22T22:53:51Z</time>
   </trkpt>
   <trkpt lat="-3.0917480" lon="37.3760550">
    <ele>4878.0</ele>
    <time>2026-06-22T22:53:52Z</time>
   </trkpt>
   <trkpt lat="-3.0917490" lon="37.3760520">
    <ele>4878.1</ele>
    <time>2026-06-22T22:53:53Z</time>
   </trkpt>
   <trkpt lat="-3.0917440" lon="37.3760480">
    <ele>4878.1</ele>
    <time>2026-06-22T22:53:54Z</time>
   </trkpt>
   <trkpt lat="-3.0917430" lon="37.3760460">
    <ele>4878.2</ele>
    <time>2026-06-22T22:53:55Z</time>
   </trkpt>
   <trkpt lat="-3.0917370" lon="37.3760430">
    <ele>4878.2</ele>
    <time>2026-06-22T22:53:56Z</time>
   </trkpt>
   <trkpt lat="-3.0917330" lon="37.3760430">
    <ele>4878.3</ele>
    <time>2026-06-22T22:53:57Z</time>
   </trkpt>
   <trkpt lat="-3.0917290" lon="37.3760440">
    <ele>4878.3</ele>
    <time>2026-06-22T22:53:58Z</time>
   </trkpt>
   <trkpt lat="-3.0917240" lon="37.3760450">
    <ele>4878.3</ele>
    <time>2026-06-22T22:53:59Z</time>
   </trkpt>
   <trkpt lat="-3.0917200" lon="37.3760470">
    <ele>4878.4</ele>
    <time>2026-06-22T22:54:00Z</time>
   </trkpt>
   <trkpt lat="-3.0917160" lon="37.3760470">
    <ele>4878.4</ele>
    <time>2026-06-22T22:54:01Z</time>
   </trkpt>
   <trkpt lat="-3.0917110" lon="37.3760500">
    <ele>4878.5</ele>
    <time>2026-06-22T22:54:02Z</time>
   </trkpt>
   <trkpt lat="-3.0917050" lon="37.3760490">
    <ele>4878.5</ele>
    <time>2026-06-22T22:54:03Z</time>
   </trkpt>
   <trkpt lat="-3.0917020" lon="37.3760490">
    <ele>4878.6</ele>
    <time>2026-06-22T22:54:04Z</time>
   </trkpt>
   <trkpt lat="-3.0916990" lon="37.3760460">
    <ele>4878.6</ele>
    <time>2026-06-22T22:54:05Z</time>
   </trkpt>
   <trkpt lat="-3.0916950" lon="37.3760430">
    <ele>4878.6</ele>
    <time>2026-06-22T22:54:06Z</time>
   </trkpt>
   <trkpt lat="-3.0916940" lon="37.3760420">
    <ele>4878.7</ele>
    <time>2026-06-22T22:54:07Z</time>
   </trkpt>
   <trkpt lat="-3.0916890" lon="37.3760390">
    <ele>4878.7</ele>
    <time>2026-06-22T22:54:08Z</time>
   </trkpt>
   <trkpt lat="-3.0916850" lon="37.3760360">
    <ele>4878.8</ele>
    <time>2026-06-22T22:54:09Z</time>
   </trkpt>
   <trkpt lat="-3.0916820" lon="37.3760350">
    <ele>4878.8</ele>
    <time>2026-06-22T22:54:10Z</time>
   </trkpt>
   <trkpt lat="-3.0916780" lon="37.3760310">
    <ele>4878.8</ele>
    <time>2026-06-22T22:54:11Z</time>
   </trkpt>
   <trkpt lat="-3.0916730" lon="37.3760270">
    <ele>4878.9</ele>
    <time>2026-06-22T22:54:12Z</time>
   </trkpt>
   <trkpt lat="-3.0916700" lon="37.3760250">
    <ele>4878.9</ele>
    <time>2026-06-22T22:54:13Z</time>
   </trkpt>
   <trkpt lat="-3.0916660" lon="37.3760250">
    <ele>4879.0</ele>
    <time>2026-06-22T22:54:14Z</time>
   </trkpt>
   <trkpt lat="-3.0916600" lon="37.3760240">
    <ele>4879.0</ele>
    <time>2026-06-22T22:54:15Z</time>
   </trkpt>
   <trkpt lat="-3.0916570" lon="37.3760220">
    <ele>4879.0</ele>
    <time>2026-06-22T22:54:16Z</time>
   </trkpt>
   <trkpt lat="-3.0916530" lon="37.3760190">
    <ele>4879.1</ele>
    <time>2026-06-22T22:54:17Z</time>
   </trkpt>
   <trkpt lat="-3.0916490" lon="37.3760170">
    <ele>4879.1</ele>
    <time>2026-06-22T22:54:18Z</time>
   </trkpt>
   <trkpt lat="-3.0916460" lon="37.3760180">
    <ele>4879.2</ele>
    <time>2026-06-22T22:54:19Z</time>
   </trkpt>
   <trkpt lat="-3.0916430" lon="37.3760160">
    <ele>4879.2</ele>
    <time>2026-06-22T22:54:20Z</time>
   </trkpt>
   <trkpt lat="-3.0916370" lon="37.3760140">
    <ele>4879.3</ele>
    <time>2026-06-22T22:54:21Z</time>
   </trkpt>
   <trkpt lat="-3.0916330" lon="37.3760130">
    <ele>4879.3</ele>
    <time>2026-06-22T22:54:22Z</time>
   </trkpt>
   <trkpt lat="-3.0916290" lon="37.3760120">
    <ele>4879.3</ele>
    <time>2026-06-22T22:54:23Z</time>
   </trkpt>
   <trkpt lat="-3.0916250" lon="37.3760100">
    <ele>4879.4</ele>
    <time>2026-06-22T22:54:24Z</time>
   </trkpt>
   <trkpt lat="-3.0916210" lon="37.3760090">
    <ele>4879.4</ele>
    <time>2026-06-22T22:54:25Z</time>
   </trkpt>
   <trkpt lat="-3.0916150" lon="37.3760060">
    <ele>4879.5</ele>
    <time>2026-06-22T22:54:26Z</time>
   </trkpt>
   <trkpt lat="-3.0916130" lon="37.3760050">
    <ele>4879.5</ele>
    <time>2026-06-22T22:54:27Z</time>
   </trkpt>
   <trkpt lat="-3.0916070" lon="37.3760040">
    <ele>4879.6</ele>
    <time>2026-06-22T22:54:28Z</time>
   </trkpt>
   <trkpt lat="-3.0916030" lon="37.3760020">
    <ele>4879.6</ele>
    <time>2026-06-22T22:54:29Z</time>
   </trkpt>
   <trkpt lat="-3.0916010" lon="37.3760020">
    <ele>4879.6</ele>
    <time>2026-06-22T22:54:30Z</time>
   </trkpt>
   <trkpt lat="-3.0915970" lon="37.3760000">
    <ele>4879.7</ele>
    <time>2026-06-22T22:54:31Z</time>
   </trkpt>
   <trkpt lat="-3.0915930" lon="37.3760000">
    <ele>4879.7</ele>
    <time>2026-06-22T22:54:32Z</time>
   </trkpt>
   <trkpt lat="-3.0915890" lon="37.3759980">
    <ele>4879.8</ele>
    <time>2026-06-22T22:54:33Z</time>
   </trkpt>
   <trkpt lat="-3.0915860" lon="37.3759970">
    <ele>4879.8</ele>
    <time>2026-06-22T22:54:34Z</time>
   </trkpt>
   <trkpt lat="-3.0915820" lon="37.3759940">
    <ele>4879.9</ele>
    <time>2026-06-22T22:54:35Z</time>
   </trkpt>
   <trkpt lat="-3.0915800" lon="37.3759930">
    <ele>4879.9</ele>
    <time>2026-06-22T22:54:36Z</time>
   </trkpt>
   <trkpt lat="-3.0915760" lon="37.3759900">
    <ele>4880.0</ele>
    <time>2026-06-22T22:54:37Z</time>
   </trkpt>
   <trkpt lat="-3.0915730" lon="37.3759890">
    <ele>4880.0</ele>
    <time>2026-06-22T22:54:38Z</time>
   </trkpt>
   <trkpt lat="-3.0915720" lon="37.3759860">
    <ele>4880.1</ele>
    <time>2026-06-22T22:54:39Z</time>
   </trkpt>
   <trkpt lat="-3.0915680" lon="37.3759840">
    <ele>4880.1</ele>
    <time>2026-06-22T22:54:40Z</time>
   </trkpt>
   <trkpt lat="-3.0915660" lon="37.3759830">
    <ele>4880.1</ele>
    <time>2026-06-22T22:54:41Z</time>
   </trkpt>
   <trkpt lat="-3.0915640" lon="37.3759800">
    <ele>4880.2</ele>
    <time>2026-06-22T22:54:42Z</time>
   </trkpt>
   <trkpt lat="-3.0915600" lon="37.3759790">
    <ele>4880.2</ele>
    <time>2026-06-22T22:54:43Z</time>
   </trkpt>
   <trkpt lat="-3.0915580" lon="37.3759770">
    <ele>4880.3</ele>
    <time>2026-06-22T22:54:44Z</time>
   </trkpt>
   <trkpt lat="-3.0915520" lon="37.3759740">
    <ele>4880.4</ele>
    <time>2026-06-22T22:54:45Z</time>
   </trkpt>
   <trkpt lat="-3.0915510" lon="37.3759720">
    <ele>4880.4</ele>
    <time>2026-06-22T22:54:46Z</time>
   </trkpt>
   <trkpt lat="-3.0915470" lon="37.3759690">
    <ele>4880.5</ele>
    <time>2026-06-22T22:54:47Z</time>
   </trkpt>
   <trkpt lat="-3.0915430" lon="37.3759680">
    <ele>4880.5</ele>
    <time>2026-06-22T22:54:48Z</time>
   </trkpt>
   <trkpt lat="-3.0915390" lon="37.3759660">
    <ele>4880.6</ele>
    <time>2026-06-22T22:54:49Z</time>
   </trkpt>
   <trkpt lat="-3.0915350" lon="37.3759650">
    <ele>4880.6</ele>
    <time>2026-06-22T22:54:50Z</time>
   </trkpt>
   <trkpt lat="-3.0915320" lon="37.3759630">
    <ele>4880.7</ele>
    <time>2026-06-22T22:54:51Z</time>
   </trkpt>
   <trkpt lat="-3.0915310" lon="37.3759620">
    <ele>4880.7</ele>
    <time>2026-06-22T22:54:52Z</time>
   </trkpt>
   <trkpt lat="-3.0915310" lon="37.3759590">
    <ele>4880.8</ele>
    <time>2026-06-22T22:54:53Z</time>
   </trkpt>
   <trkpt lat="-3.0915290" lon="37.3759560">
    <ele>4880.8</ele>
    <time>2026-06-22T22:54:54Z</time>
   </trkpt>
   <trkpt lat="-3.0915240" lon="37.3759530">
    <ele>4880.9</ele>
    <time>2026-06-22T22:54:55Z</time>
   </trkpt>
   <trkpt lat="-3.0915270" lon="37.3759520">
    <ele>4880.9</ele>
    <time>2026-06-22T22:54:56Z</time>
   </trkpt>
   <trkpt lat="-3.0915230" lon="37.3759490">
    <ele>4881.0</ele>
    <time>2026-06-22T22:54:58Z</time>
   </trkpt>
   <trkpt lat="-3.0915210" lon="37.3759470">
    <ele>4881.1</ele>
    <time>2026-06-22T22:54:59Z</time>
   </trkpt>
   <trkpt lat="-3.0915200" lon="37.3759430">
    <ele>4881.1</ele>
    <time>2026-06-22T22:55:00Z</time>
   </trkpt>
   <trkpt lat="-3.0915190" lon="37.3759430">
    <ele>4881.1</ele>
    <time>2026-06-22T22:55:01Z</time>
   </trkpt>
   <trkpt lat="-3.0915190" lon="37.3759390">
    <ele>4881.2</ele>
    <time>2026-06-22T22:55:02Z</time>
   </trkpt>
   <trkpt lat="-3.0915140" lon="37.3759360">
    <ele>4881.3</ele>
    <time>2026-06-22T22:55:03Z</time>
   </trkpt>
   <trkpt lat="-3.0915130" lon="37.3759330">
    <ele>4881.3</ele>
    <time>2026-06-22T22:55:04Z</time>
   </trkpt>
   <trkpt lat="-3.0915090" lon="37.3759300">
    <ele>4881.4</ele>
    <time>2026-06-22T22:55:05Z</time>
   </trkpt>
   <trkpt lat="-3.0915060" lon="37.3759290">
    <ele>4881.5</ele>
    <time>2026-06-22T22:55:07Z</time>
   </trkpt>
   <trkpt lat="-3.0915030" lon="37.3759270">
    <ele>4881.5</ele>
    <time>2026-06-22T22:55:08Z</time>
   </trkpt>
   <trkpt lat="-3.0914990" lon="37.3759240">
    <ele>4881.6</ele>
    <time>2026-06-22T22:55:10Z</time>
   </trkpt>
   <trkpt lat="-3.0914970" lon="37.3759210">
    <ele>4881.7</ele>
    <time>2026-06-22T22:55:11Z</time>
   </trkpt>
   <trkpt lat="-3.0914940" lon="37.3759190">
    <ele>4881.8</ele>
    <time>2026-06-22T22:55:12Z</time>
   </trkpt>
   <trkpt lat="-3.0914930" lon="37.3759170">
    <ele>4881.8</ele>
    <time>2026-06-22T22:55:13Z</time>
   </trkpt>
   <trkpt lat="-3.0914910" lon="37.3759160">
    <ele>4881.8</ele>
    <time>2026-06-22T22:55:14Z</time>
   </trkpt>
   <trkpt lat="-3.0914890" lon="37.3759130">
    <ele>4881.9</ele>
    <time>2026-06-22T22:55:15Z</time>
   </trkpt>
   <trkpt lat="-3.0914860" lon="37.3759130">
    <ele>4881.9</ele>
    <time>2026-06-22T22:55:16Z</time>
   </trkpt>
   <trkpt lat="-3.0914860" lon="37.3759110">
    <ele>4882.0</ele>
    <time>2026-06-22T22:55:17Z</time>
   </trkpt>
   <trkpt lat="-3.0914830" lon="37.3759080">
    <ele>4882.0</ele>
    <time>2026-06-22T22:55:18Z</time>
   </trkpt>
   <trkpt lat="-3.0914820" lon="37.3759070">
    <ele>4882.1</ele>
    <time>2026-06-22T22:55:19Z</time>
   </trkpt>
   <trkpt lat="-3.0914890" lon="37.3759110">
    <ele>4882.2</ele>
    <time>2026-06-22T22:55:20Z</time>
   </trkpt>
   <trkpt lat="-3.0914830" lon="37.3759050">
    <ele>4882.4</ele>
    <time>2026-06-22T22:55:21Z</time>
   </trkpt>
   <trkpt lat="-3.0914820" lon="37.3759030">
    <ele>4882.4</ele>
    <time>2026-06-22T22:55:22Z</time>
   </trkpt>
   <trkpt lat="-3.0914820" lon="37.3758990">
    <ele>4882.5</ele>
    <time>2026-06-22T22:55:23Z</time>
   </trkpt>
   <trkpt lat="-3.0914800" lon="37.3758970">
    <ele>4882.5</ele>
    <time>2026-06-22T22:55:24Z</time>
   </trkpt>
   <trkpt lat="-3.0914810" lon="37.3758930">
    <ele>4882.6</ele>
    <time>2026-06-22T22:55:25Z</time>
   </trkpt>
   <trkpt lat="-3.0914800" lon="37.3758920">
    <ele>4882.6</ele>
    <time>2026-06-22T22:55:26Z</time>
   </trkpt>
   <trkpt lat="-3.0914800" lon="37.3758890">
    <ele>4882.7</ele>
    <time>2026-06-22T22:55:27Z</time>
   </trkpt>
   <trkpt lat="-3.0914790" lon="37.3758880">
    <ele>4882.7</ele>
    <time>2026-06-22T22:55:28Z</time>
   </trkpt>
   <trkpt lat="-3.0914780" lon="37.3758850">
    <ele>4882.8</ele>
    <time>2026-06-22T22:55:29Z</time>
   </trkpt>
   <trkpt lat="-3.0914780" lon="37.3758830">
    <ele>4882.8</ele>
    <time>2026-06-22T22:55:30Z</time>
   </trkpt>
   <trkpt lat="-3.0914760" lon="37.3758800">
    <ele>4882.9</ele>
    <time>2026-06-22T22:55:31Z</time>
   </trkpt>
   <trkpt lat="-3.0914770" lon="37.3758780">
    <ele>4882.9</ele>
    <time>2026-06-22T22:55:32Z</time>
   </trkpt>
   <trkpt lat="-3.0914750" lon="37.3758760">
    <ele>4883.0</ele>
    <time>2026-06-22T22:55:33Z</time>
   </trkpt>
   <trkpt lat="-3.0914750" lon="37.3758730">
    <ele>4883.0</ele>
    <time>2026-06-22T22:55:34Z</time>
   </trkpt>
   <trkpt lat="-3.0914740" lon="37.3758700">
    <ele>4883.1</ele>
    <time>2026-06-22T22:55:35Z</time>
   </trkpt>
   <trkpt lat="-3.0914740" lon="37.3758690">
    <ele>4883.1</ele>
    <time>2026-06-22T22:55:36Z</time>
   </trkpt>
   <trkpt lat="-3.0914730" lon="37.3758670">
    <ele>4883.2</ele>
    <time>2026-06-22T22:55:37Z</time>
   </trkpt>
   <trkpt lat="-3.0914720" lon="37.3758650">
    <ele>4883.2</ele>
    <time>2026-06-22T22:55:38Z</time>
   </trkpt>
   <trkpt lat="-3.0914700" lon="37.3758620">
    <ele>4883.3</ele>
    <time>2026-06-22T22:55:39Z</time>
   </trkpt>
   <trkpt lat="-3.0914690" lon="37.3758610">
    <ele>4883.3</ele>
    <time>2026-06-22T22:55:40Z</time>
   </trkpt>
   <trkpt lat="-3.0914680" lon="37.3758580">
    <ele>4883.4</ele>
    <time>2026-06-22T22:55:41Z</time>
   </trkpt>
   <trkpt lat="-3.0914670" lon="37.3758550">
    <ele>4883.4</ele>
    <time>2026-06-22T22:55:42Z</time>
   </trkpt>
   <trkpt lat="-3.0914660" lon="37.3758520">
    <ele>4883.5</ele>
    <time>2026-06-22T22:55:43Z</time>
   </trkpt>
   <trkpt lat="-3.0914640" lon="37.3758500">
    <ele>4883.6</ele>
    <time>2026-06-22T22:55:44Z</time>
   </trkpt>
   <trkpt lat="-3.0914640" lon="37.3758480">
    <ele>4883.6</ele>
    <time>2026-06-22T22:55:45Z</time>
   </trkpt>
   <trkpt lat="-3.0914620" lon="37.3758470">
    <ele>4883.6</ele>
    <time>2026-06-22T22:55:46Z</time>
   </trkpt>
   <trkpt lat="-3.0914600" lon="37.3758440">
    <ele>4883.7</ele>
    <time>2026-06-22T22:55:47Z</time>
   </trkpt>
   <trkpt lat="-3.0914580" lon="37.3758430">
    <ele>4883.7</ele>
    <time>2026-06-22T22:55:48Z</time>
   </trkpt>
   <trkpt lat="-3.0914570" lon="37.3758400">
    <ele>4883.8</ele>
    <time>2026-06-22T22:55:49Z</time>
   </trkpt>
   <trkpt lat="-3.0914550" lon="37.3758400">
    <ele>4883.9</ele>
    <time>2026-06-22T22:55:50Z</time>
   </trkpt>
   <trkpt lat="-3.0914540" lon="37.3758370">
    <ele>4883.9</ele>
    <time>2026-06-22T22:55:51Z</time>
   </trkpt>
   <trkpt lat="-3.0914530" lon="37.3758350">
    <ele>4884.0</ele>
    <time>2026-06-22T22:55:52Z</time>
   </trkpt>
   <trkpt lat="-3.0914520" lon="37.3758330">
    <ele>4884.0</ele>
    <time>2026-06-22T22:55:53Z</time>
   </trkpt>
   <trkpt lat="-3.0914500" lon="37.3758300">
    <ele>4884.1</ele>
    <time>2026-06-22T22:55:54Z</time>
   </trkpt>
   <trkpt lat="-3.0914480" lon="37.3758270">
    <ele>4884.1</ele>
    <time>2026-06-22T22:55:55Z</time>
   </trkpt>
   <trkpt lat="-3.0914470" lon="37.3758260">
    <ele>4884.2</ele>
    <time>2026-06-22T22:55:56Z</time>
   </trkpt>
   <trkpt lat="-3.0914460" lon="37.3758210">
    <ele>4884.3</ele>
    <time>2026-06-22T22:55:57Z</time>
   </trkpt>
   <trkpt lat="-3.0914430" lon="37.3758140">
    <ele>4884.4</ele>
    <time>2026-06-22T22:55:58Z</time>
   </trkpt>
   <trkpt lat="-3.0914450" lon="37.3758130">
    <ele>4884.5</ele>
    <time>2026-06-22T22:55:59Z</time>
   </trkpt>
   <trkpt lat="-3.0914430" lon="37.3758120">
    <ele>4884.5</ele>
    <time>2026-06-22T22:56:00Z</time>
   </trkpt>
   <trkpt lat="-3.0914430" lon="37.3758070">
    <ele>4884.6</ele>
    <time>2026-06-22T22:56:01Z</time>
   </trkpt>
   <trkpt lat="-3.0914420" lon="37.3758060">
    <ele>4884.6</ele>
    <time>2026-06-22T22:56:02Z</time>
   </trkpt>
   <trkpt lat="-3.0914410" lon="37.3758030">
    <ele>4884.7</ele>
    <time>2026-06-22T22:56:03Z</time>
   </trkpt>
   <trkpt lat="-3.0914410" lon="37.3758020">
    <ele>4884.7</ele>
    <time>2026-06-22T22:56:04Z</time>
   </trkpt>
   <trkpt lat="-3.0914400" lon="37.3757990">
    <ele>4884.8</ele>
    <time>2026-06-22T22:56:05Z</time>
   </trkpt>
   <trkpt lat="-3.0914400" lon="37.3757960">
    <ele>4884.8</ele>
    <time>2026-06-22T22:56:06Z</time>
   </trkpt>
   <trkpt lat="-3.0914380" lon="37.3757930">
    <ele>4884.9</ele>
    <time>2026-06-22T22:56:07Z</time>
   </trkpt>
   <trkpt lat="-3.0914370" lon="37.3757910">
    <ele>4885.0</ele>
    <time>2026-06-22T22:56:08Z</time>
   </trkpt>
   <trkpt lat="-3.0914360" lon="37.3757900">
    <ele>4885.0</ele>
    <time>2026-06-22T22:56:09Z</time>
   </trkpt>
   <trkpt lat="-3.0914350" lon="37.3757870">
    <ele>4885.0</ele>
    <time>2026-06-22T22:56:10Z</time>
   </trkpt>
   <trkpt lat="-3.0914360" lon="37.3757870">
    <ele>4885.1</ele>
    <time>2026-06-22T22:56:11Z</time>
   </trkpt>
   <trkpt lat="-3.0914340" lon="37.3757850">
    <ele>4885.1</ele>
    <time>2026-06-22T22:56:12Z</time>
   </trkpt>
   <trkpt lat="-3.0914300" lon="37.3757820">
    <ele>4885.2</ele>
    <time>2026-06-22T22:56:13Z</time>
   </trkpt>
   <trkpt lat="-3.0914290" lon="37.3757800">
    <ele>4885.3</ele>
    <time>2026-06-22T22:56:14Z</time>
   </trkpt>
   <trkpt lat="-3.0914260" lon="37.3757780">
    <ele>4885.3</ele>
    <time>2026-06-22T22:56:15Z</time>
   </trkpt>
   <trkpt lat="-3.0914250" lon="37.3757750">
    <ele>4885.4</ele>
    <time>2026-06-22T22:56:16Z</time>
   </trkpt>
   <trkpt lat="-3.0914240" lon="37.3757740">
    <ele>4885.4</ele>
    <time>2026-06-22T22:56:17Z</time>
   </trkpt>
   <trkpt lat="-3.0914220" lon="37.3757720">
    <ele>4885.5</ele>
    <time>2026-06-22T22:56:18Z</time>
   </trkpt>
   <trkpt lat="-3.0914220" lon="37.3757710">
    <ele>4885.5</ele>
    <time>2026-06-22T22:56:19Z</time>
   </trkpt>
   <trkpt lat="-3.0914200" lon="37.3757690">
    <ele>4885.6</ele>
    <time>2026-06-22T22:56:20Z</time>
   </trkpt>
   <trkpt lat="-3.0914180" lon="37.3757670">
    <ele>4885.6</ele>
    <time>2026-06-22T22:56:21Z</time>
   </trkpt>
   <trkpt lat="-3.0914160" lon="37.3757660">
    <ele>4885.7</ele>
    <time>2026-06-22T22:56:22Z</time>
   </trkpt>
   <trkpt lat="-3.0914140" lon="37.3757630">
    <ele>4885.7</ele>
    <time>2026-06-22T22:56:23Z</time>
   </trkpt>
   <trkpt lat="-3.0914110" lon="37.3757620">
    <ele>4885.8</ele>
    <time>2026-06-22T22:56:24Z</time>
   </trkpt>
   <trkpt lat="-3.0914090" lon="37.3757590">
    <ele>4885.9</ele>
    <time>2026-06-22T22:56:25Z</time>
   </trkpt>
   <trkpt lat="-3.0914060" lon="37.3757580">
    <ele>4885.9</ele>
    <time>2026-06-22T22:56:26Z</time>
   </trkpt>
   <trkpt lat="-3.0914030" lon="37.3757570">
    <ele>4886.0</ele>
    <time>2026-06-22T22:56:27Z</time>
   </trkpt>
   <trkpt lat="-3.0914010" lon="37.3757550">
    <ele>4886.1</ele>
    <time>2026-06-22T22:56:28Z</time>
   </trkpt>
   <trkpt lat="-3.0913990" lon="37.3757540">
    <ele>4886.1</ele>
    <time>2026-06-22T22:56:29Z</time>
   </trkpt>
   <trkpt lat="-3.0913970" lon="37.3757530">
    <ele>4886.2</ele>
    <time>2026-06-22T22:56:30Z</time>
   </trkpt>
   <trkpt lat="-3.0913940" lon="37.3757510">
    <ele>4886.2</ele>
    <time>2026-06-22T22:56:31Z</time>
   </trkpt>
   <trkpt lat="-3.0913930" lon="37.3757500">
    <ele>4886.3</ele>
    <time>2026-06-22T22:56:32Z</time>
   </trkpt>
   <trkpt lat="-3.0913920" lon="37.3757490">
    <ele>4886.3</ele>
    <time>2026-06-22T22:56:33Z</time>
   </trkpt>
   <trkpt lat="-3.0913900" lon="37.3757470">
    <ele>4886.3</ele>
    <time>2026-06-22T22:56:34Z</time>
   </trkpt>
   <trkpt lat="-3.0913880" lon="37.3757450">
    <ele>4886.4</ele>
    <time>2026-06-22T22:56:35Z</time>
   </trkpt>
   <trkpt lat="-3.0913870" lon="37.3757450">
    <ele>4886.4</ele>
    <time>2026-06-22T22:56:36Z</time>
   </trkpt>
   <trkpt lat="-3.0913860" lon="37.3757420">
    <ele>4886.5</ele>
    <time>2026-06-22T22:56:37Z</time>
   </trkpt>
   <trkpt lat="-3.0913850" lon="37.3757380">
    <ele>4886.6</ele>
    <time>2026-06-22T22:56:38Z</time>
   </trkpt>
   <trkpt lat="-3.0913830" lon="37.3757380">
    <ele>4886.6</ele>
    <time>2026-06-22T22:56:39Z</time>
   </trkpt>
   <trkpt lat="-3.0913820" lon="37.3757350">
    <ele>4886.7</ele>
    <time>2026-06-22T22:56:40Z</time>
   </trkpt>
   <trkpt lat="-3.0913820" lon="37.3757320">
    <ele>4886.7</ele>
    <time>2026-06-22T22:56:41Z</time>
   </trkpt>
   <trkpt lat="-3.0913840" lon="37.3757290">
    <ele>4886.8</ele>
    <time>2026-06-22T22:56:42Z</time>
   </trkpt>
   <trkpt lat="-3.0913840" lon="37.3757240">
    <ele>4886.9</ele>
    <time>2026-06-22T22:56:43Z</time>
   </trkpt>
   <trkpt lat="-3.0913820" lon="37.3757230">
    <ele>4887.0</ele>
    <time>2026-06-22T22:56:44Z</time>
   </trkpt>
   <trkpt lat="-3.0913810" lon="37.3757200">
    <ele>4887.0</ele>
    <time>2026-06-22T22:56:45Z</time>
   </trkpt>
   <trkpt lat="-3.0913790" lon="37.3757180">
    <ele>4887.1</ele>
    <time>2026-06-22T22:56:46Z</time>
   </trkpt>
   <trkpt lat="-3.0913810" lon="37.3757150">
    <ele>4887.2</ele>
    <time>2026-06-22T22:56:47Z</time>
   </trkpt>
   <trkpt lat="-3.0913810" lon="37.3757130">
    <ele>4887.2</ele>
    <time>2026-06-22T22:56:48Z</time>
   </trkpt>
   <trkpt lat="-3.0913830" lon="37.3757100">
    <ele>4887.3</ele>
    <time>2026-06-22T22:56:49Z</time>
   </trkpt>
   <trkpt lat="-3.0913810" lon="37.3757070">
    <ele>4887.3</ele>
    <time>2026-06-22T22:56:50Z</time>
   </trkpt>
   <trkpt lat="-3.0913820" lon="37.3757050">
    <ele>4887.4</ele>
    <time>2026-06-22T22:56:51Z</time>
   </trkpt>
   <trkpt lat="-3.0913800" lon="37.3757020">
    <ele>4887.5</ele>
    <time>2026-06-22T22:56:52Z</time>
   </trkpt>
   <trkpt lat="-3.0913790" lon="37.3756990">
    <ele>4887.5</ele>
    <time>2026-06-22T22:56:53Z</time>
   </trkpt>
   <trkpt lat="-3.0913780" lon="37.3756970">
    <ele>4887.6</ele>
    <time>2026-06-22T22:56:54Z</time>
   </trkpt>
   <trkpt lat="-3.0913780" lon="37.3756930">
    <ele>4887.6</ele>
    <time>2026-06-22T22:56:55Z</time>
   </trkpt>
   <trkpt lat="-3.0913760" lon="37.3756930">
    <ele>4887.7</ele>
    <time>2026-06-22T22:56:56Z</time>
   </trkpt>
   <trkpt lat="-3.0913760" lon="37.3756900">
    <ele>4887.7</ele>
    <time>2026-06-22T22:56:57Z</time>
   </trkpt>
   <trkpt lat="-3.0913740" lon="37.3756900">
    <ele>4887.8</ele>
    <time>2026-06-22T22:56:58Z</time>
   </trkpt>
   <trkpt lat="-3.0913740" lon="37.3756870">
    <ele>4887.8</ele>
    <time>2026-06-22T22:56:59Z</time>
   </trkpt>
   <trkpt lat="-3.0913730" lon="37.3756870">
    <ele>4887.9</ele>
    <time>2026-06-22T22:57:00Z</time>
   </trkpt>
   <trkpt lat="-3.0913700" lon="37.3756840">
    <ele>4888.0</ele>
    <time>2026-06-22T22:57:01Z</time>
   </trkpt>
   <trkpt lat="-3.0913680" lon="37.3756860">
    <ele>4888.0</ele>
    <time>2026-06-22T22:57:02Z</time>
   </trkpt>
   <trkpt lat="-3.0913650" lon="37.3756840">
    <ele>4888.1</ele>
    <time>2026-06-22T22:57:03Z</time>
   </trkpt>
   <trkpt lat="-3.0913630" lon="37.3756820">
    <ele>4888.1</ele>
    <time>2026-06-22T22:57:04Z</time>
   </trkpt>
   <trkpt lat="-3.0913610" lon="37.3756790">
    <ele>4888.2</ele>
    <time>2026-06-22T22:57:05Z</time>
   </trkpt>
   <trkpt lat="-3.0913580" lon="37.3756790">
    <ele>4888.3</ele>
    <time>2026-06-22T22:57:06Z</time>
   </trkpt>
   <trkpt lat="-3.0913550" lon="37.3756780">
    <ele>4888.3</ele>
    <time>2026-06-22T22:57:07Z</time>
   </trkpt>
   <trkpt lat="-3.0913510" lon="37.3756760">
    <ele>4888.4</ele>
    <time>2026-06-22T22:57:08Z</time>
   </trkpt>
   <trkpt lat="-3.0913490" lon="37.3756740">
    <ele>4888.5</ele>
    <time>2026-06-22T22:57:09Z</time>
   </trkpt>
   <trkpt lat="-3.0913460" lon="37.3756750">
    <ele>4888.6</ele>
    <time>2026-06-22T22:57:10Z</time>
   </trkpt>
   <trkpt lat="-3.0913420" lon="37.3756730">
    <ele>4888.6</ele>
    <time>2026-06-22T22:57:11Z</time>
   </trkpt>
   <trkpt lat="-3.0913390" lon="37.3756730">
    <ele>4888.7</ele>
    <time>2026-06-22T22:57:12Z</time>
   </trkpt>
   <trkpt lat="-3.0913340" lon="37.3756720">
    <ele>4888.8</ele>
    <time>2026-06-22T22:57:13Z</time>
   </trkpt>
   <trkpt lat="-3.0913310" lon="37.3756710">
    <ele>4888.9</ele>
    <time>2026-06-22T22:57:14Z</time>
   </trkpt>
   <trkpt lat="-3.0913270" lon="37.3756700">
    <ele>4889.0</ele>
    <time>2026-06-22T22:57:15Z</time>
   </trkpt>
   <trkpt lat="-3.0913240" lon="37.3756700">
    <ele>4889.0</ele>
    <time>2026-06-22T22:57:16Z</time>
   </trkpt>
   <trkpt lat="-3.0913200" lon="37.3756710">
    <ele>4889.1</ele>
    <time>2026-06-22T22:57:17Z</time>
   </trkpt>
   <trkpt lat="-3.0913160" lon="37.3756690">
    <ele>4889.2</ele>
    <time>2026-06-22T22:57:18Z</time>
   </trkpt>
   <trkpt lat="-3.0913120" lon="37.3756690">
    <ele>4889.3</ele>
    <time>2026-06-22T22:57:19Z</time>
   </trkpt>
   <trkpt lat="-3.0913100" lon="37.3756690">
    <ele>4889.3</ele>
    <time>2026-06-22T22:57:20Z</time>
   </trkpt>
   <trkpt lat="-3.0913070" lon="37.3756690">
    <ele>4889.4</ele>
    <time>2026-06-22T22:57:21Z</time>
   </trkpt>
   <trkpt lat="-3.0913040" lon="37.3756700">
    <ele>4889.4</ele>
    <time>2026-06-22T22:57:22Z</time>
   </trkpt>
   <trkpt lat="-3.0912990" lon="37.3756700">
    <ele>4889.5</ele>
    <time>2026-06-22T22:57:23Z</time>
   </trkpt>
   <trkpt lat="-3.0912960" lon="37.3756710">
    <ele>4889.6</ele>
    <time>2026-06-22T22:57:24Z</time>
   </trkpt>
   <trkpt lat="-3.0912920" lon="37.3756710">
    <ele>4889.7</ele>
    <time>2026-06-22T22:57:25Z</time>
   </trkpt>
   <trkpt lat="-3.0912900" lon="37.3756730">
    <ele>4889.7</ele>
    <time>2026-06-22T22:57:26Z</time>
   </trkpt>
   <trkpt lat="-3.0912860" lon="37.3756730">
    <ele>4889.8</ele>
    <time>2026-06-22T22:57:27Z</time>
   </trkpt>
   <trkpt lat="-3.0912820" lon="37.3756720">
    <ele>4889.9</ele>
    <time>2026-06-22T22:57:28Z</time>
   </trkpt>
   <trkpt lat="-3.0912770" lon="37.3756720">
    <ele>4890.0</ele>
    <time>2026-06-22T22:57:29Z</time>
   </trkpt>
   <trkpt lat="-3.0912740" lon="37.3756750">
    <ele>4890.1</ele>
    <time>2026-06-22T22:57:30Z</time>
   </trkpt>
   <trkpt lat="-3.0912710" lon="37.3756800">
    <ele>4890.2</ele>
    <time>2026-06-22T22:57:31Z</time>
   </trkpt>
   <trkpt lat="-3.0912670" lon="37.3756770">
    <ele>4890.3</ele>
    <time>2026-06-22T22:57:32Z</time>
   </trkpt>
   <trkpt lat="-3.0912650" lon="37.3756770">
    <ele>4890.4</ele>
    <time>2026-06-22T22:57:33Z</time>
   </trkpt>
   <trkpt lat="-3.0912620" lon="37.3756770">
    <ele>4890.4</ele>
    <time>2026-06-22T22:57:34Z</time>
   </trkpt>
   <trkpt lat="-3.0912590" lon="37.3756750">
    <ele>4890.5</ele>
    <time>2026-06-22T22:57:35Z</time>
   </trkpt>
   <trkpt lat="-3.0912570" lon="37.3756750">
    <ele>4890.5</ele>
    <time>2026-06-22T22:57:36Z</time>
   </trkpt>
   <trkpt lat="-3.0912540" lon="37.3756730">
    <ele>4890.6</ele>
    <time>2026-06-22T22:57:37Z</time>
   </trkpt>
   <trkpt lat="-3.0912510" lon="37.3756730">
    <ele>4890.7</ele>
    <time>2026-06-22T22:57:38Z</time>
   </trkpt>
   <trkpt lat="-3.0912490" lon="37.3756720">
    <ele>4890.7</ele>
    <time>2026-06-22T22:57:39Z</time>
   </trkpt>
   <trkpt lat="-3.0912470" lon="37.3756720">
    <ele>4890.8</ele>
    <time>2026-06-22T22:57:40Z</time>
   </trkpt>
   <trkpt lat="-3.0912440" lon="37.3756700">
    <ele>4890.8</ele>
    <time>2026-06-22T22:57:41Z</time>
   </trkpt>
   <trkpt lat="-3.0912420" lon="37.3756670">
    <ele>4890.9</ele>
    <time>2026-06-22T22:57:42Z</time>
   </trkpt>
   <trkpt lat="-3.0912400" lon="37.3756660">
    <ele>4891.0</ele>
    <time>2026-06-22T22:57:43Z</time>
   </trkpt>
   <trkpt lat="-3.0912370" lon="37.3756650">
    <ele>4891.0</ele>
    <time>2026-06-22T22:57:44Z</time>
   </trkpt>
   <trkpt lat="-3.0912340" lon="37.3756640">
    <ele>4891.1</ele>
    <time>2026-06-22T22:57:45Z</time>
   </trkpt>
   <trkpt lat="-3.0912320" lon="37.3756640">
    <ele>4891.1</ele>
    <time>2026-06-22T22:57:46Z</time>
   </trkpt>
   <trkpt lat="-3.0912300" lon="37.3756600">
    <ele>4891.2</ele>
    <time>2026-06-22T22:57:47Z</time>
   </trkpt>
   <trkpt lat="-3.0912270" lon="37.3756590">
    <ele>4891.3</ele>
    <time>2026-06-22T22:57:48Z</time>
   </trkpt>
   <trkpt lat="-3.0912240" lon="37.3756570">
    <ele>4891.4</ele>
    <time>2026-06-22T22:57:49Z</time>
   </trkpt>
   <trkpt lat="-3.0912210" lon="37.3756570">
    <ele>4891.5</ele>
    <time>2026-06-22T22:57:50Z</time>
   </trkpt>
   <trkpt lat="-3.0912200" lon="37.3756540">
    <ele>4891.5</ele>
    <time>2026-06-22T22:57:51Z</time>
   </trkpt>
   <trkpt lat="-3.0912170" lon="37.3756530">
    <ele>4891.6</ele>
    <time>2026-06-22T22:57:52Z</time>
   </trkpt>
   <trkpt lat="-3.0912160" lon="37.3756510">
    <ele>4891.6</ele>
    <time>2026-06-22T22:57:53Z</time>
   </trkpt>
   <trkpt lat="-3.0912130" lon="37.3756500">
    <ele>4891.7</ele>
    <time>2026-06-22T22:57:54Z</time>
   </trkpt>
   <trkpt lat="-3.0912110" lon="37.3756480">
    <ele>4891.8</ele>
    <time>2026-06-22T22:57:55Z</time>
   </trkpt>
   <trkpt lat="-3.0912090" lon="37.3756480">
    <ele>4891.8</ele>
    <time>2026-06-22T22:57:56Z</time>
   </trkpt>
   <trkpt lat="-3.0912070" lon="37.3756440">
    <ele>4891.9</ele>
    <time>2026-06-22T22:57:57Z</time>
   </trkpt>
   <trkpt lat="-3.0912050" lon="37.3756450">
    <ele>4891.9</ele>
    <time>2026-06-22T22:57:58Z</time>
   </trkpt>
   <trkpt lat="-3.0912040" lon="37.3756410">
    <ele>4892.0</ele>
    <time>2026-06-22T22:57:59Z</time>
   </trkpt>
   <trkpt lat="-3.0912020" lon="37.3756410">
    <ele>4892.1</ele>
    <time>2026-06-22T22:58:00Z</time>
   </trkpt>
   <trkpt lat="-3.0912010" lon="37.3756380">
    <ele>4892.1</ele>
    <time>2026-06-22T22:58:01Z</time>
   </trkpt>
   <trkpt lat="-3.0911990" lon="37.3756370">
    <ele>4892.2</ele>
    <time>2026-06-22T22:58:02Z</time>
   </trkpt>
   <trkpt lat="-3.0911980" lon="37.3756340">
    <ele>4892.3</ele>
    <time>2026-06-22T22:58:03Z</time>
   </trkpt>
   <trkpt lat="-3.0911960" lon="37.3756330">
    <ele>4892.3</ele>
    <time>2026-06-22T22:58:04Z</time>
   </trkpt>
   <trkpt lat="-3.0911970" lon="37.3756310">
    <ele>4892.4</ele>
    <time>2026-06-22T22:58:05Z</time>
   </trkpt>
   <trkpt lat="-3.0911950" lon="37.3756300">
    <ele>4892.4</ele>
    <time>2026-06-22T22:58:06Z</time>
   </trkpt>
   <trkpt lat="-3.0911940" lon="37.3756270">
    <ele>4892.5</ele>
    <time>2026-06-22T22:58:07Z</time>
   </trkpt>
   <trkpt lat="-3.0911940" lon="37.3756260">
    <ele>4892.5</ele>
    <time>2026-06-22T22:58:08Z</time>
   </trkpt>
   <trkpt lat="-3.0911920" lon="37.3756240">
    <ele>4892.6</ele>
    <time>2026-06-22T22:58:09Z</time>
   </trkpt>
   <trkpt lat="-3.0911920" lon="37.3756220">
    <ele>4892.6</ele>
    <time>2026-06-22T22:58:10Z</time>
   </trkpt>
   <trkpt lat="-3.0911920" lon="37.3756200">
    <ele>4892.7</ele>
    <time>2026-06-22T22:58:11Z</time>
   </trkpt>
   <trkpt lat="-3.0911920" lon="37.3756170">
    <ele>4892.7</ele>
    <time>2026-06-22T22:58:12Z</time>
   </trkpt>
   <trkpt lat="-3.0911900" lon="37.3756150">
    <ele>4892.8</ele>
    <time>2026-06-22T22:58:13Z</time>
   </trkpt>
   <trkpt lat="-3.0911900" lon="37.3756120">
    <ele>4892.9</ele>
    <time>2026-06-22T22:58:14Z</time>
   </trkpt>
   <trkpt lat="-3.0911880" lon="37.3756100">
    <ele>4892.9</ele>
    <time>2026-06-22T22:58:15Z</time>
   </trkpt>
   <trkpt lat="-3.0911880" lon="37.3756070">
    <ele>4893.0</ele>
    <time>2026-06-22T22:58:16Z</time>
   </trkpt>
   <trkpt lat="-3.0911870" lon="37.3756050">
    <ele>4893.0</ele>
    <time>2026-06-22T22:58:17Z</time>
   </trkpt>
   <trkpt lat="-3.0911870" lon="37.3756020">
    <ele>4893.1</ele>
    <time>2026-06-22T22:58:18Z</time>
   </trkpt>
   <trkpt lat="-3.0911850" lon="37.3756010">
    <ele>4893.2</ele>
    <time>2026-06-22T22:58:19Z</time>
   </trkpt>
   <trkpt lat="-3.0911850" lon="37.3755990">
    <ele>4893.2</ele>
    <time>2026-06-22T22:58:20Z</time>
   </trkpt>
   <trkpt lat="-3.0911830" lon="37.3755970">
    <ele>4893.3</ele>
    <time>2026-06-22T22:58:21Z</time>
   </trkpt>
   <trkpt lat="-3.0911820" lon="37.3755950">
    <ele>4893.3</ele>
    <time>2026-06-22T22:58:22Z</time>
   </trkpt>
   <trkpt lat="-3.0911810" lon="37.3755940">
    <ele>4893.4</ele>
    <time>2026-06-22T22:58:23Z</time>
   </trkpt>
   <trkpt lat="-3.0911800" lon="37.3755920">
    <ele>4893.4</ele>
    <time>2026-06-22T22:58:24Z</time>
   </trkpt>
   <trkpt lat="-3.0911790" lon="37.3755890">
    <ele>4893.5</ele>
    <time>2026-06-22T22:58:25Z</time>
   </trkpt>
   <trkpt lat="-3.0911770" lon="37.3755850">
    <ele>4893.6</ele>
    <time>2026-06-22T22:58:26Z</time>
   </trkpt>
   <trkpt lat="-3.0911770" lon="37.3755830">
    <ele>4893.6</ele>
    <time>2026-06-22T22:58:27Z</time>
   </trkpt>
   <trkpt lat="-3.0911760" lon="37.3755830">
    <ele>4893.7</ele>
    <time>2026-06-22T22:58:28Z</time>
   </trkpt>
   <trkpt lat="-3.0911740" lon="37.3755820">
    <ele>4893.7</ele>
    <time>2026-06-22T22:58:29Z</time>
   </trkpt>
   <trkpt lat="-3.0911730" lon="37.3755780">
    <ele>4893.8</ele>
    <time>2026-06-22T22:58:30Z</time>
   </trkpt>
   <trkpt lat="-3.0911710" lon="37.3755750">
    <ele>4893.9</ele>
    <time>2026-06-22T22:58:31Z</time>
   </trkpt>
   <trkpt lat="-3.0911700" lon="37.3755730">
    <ele>4893.9</ele>
    <time>2026-06-22T22:58:32Z</time>
   </trkpt>
   <trkpt lat="-3.0911690" lon="37.3755720">
    <ele>4894.0</ele>
    <time>2026-06-22T22:58:33Z</time>
   </trkpt>
   <trkpt lat="-3.0911680" lon="37.3755710">
    <ele>4894.0</ele>
    <time>2026-06-22T22:58:34Z</time>
   </trkpt>
   <trkpt lat="-3.0911670" lon="37.3755700">
    <ele>4894.0</ele>
    <time>2026-06-22T22:58:35Z</time>
   </trkpt>
   <trkpt lat="-3.0911650" lon="37.3755660">
    <ele>4894.1</ele>
    <time>2026-06-22T22:58:36Z</time>
   </trkpt>
   <trkpt lat="-3.0911640" lon="37.3755640">
    <ele>4894.2</ele>
    <time>2026-06-22T22:58:37Z</time>
   </trkpt>
   <trkpt lat="-3.0911640" lon="37.3755640">
    <ele>4894.2</ele>
    <time>2026-06-22T22:58:38Z</time>
   </trkpt>
   <trkpt lat="-3.0911620" lon="37.3755640">
    <ele>4894.2</ele>
    <time>2026-06-22T22:58:39Z</time>
   </trkpt>
   <trkpt lat="-3.0911610" lon="37.3755630">
    <ele>4894.3</ele>
    <time>2026-06-22T22:58:40Z</time>
   </trkpt>
   <trkpt lat="-3.0911580" lon="37.3755630">
    <ele>4894.3</ele>
    <time>2026-06-22T22:58:41Z</time>
   </trkpt>
   <trkpt lat="-3.0911560" lon="37.3755610">
    <ele>4894.4</ele>
    <time>2026-06-22T22:58:42Z</time>
   </trkpt>
   <trkpt lat="-3.0911560" lon="37.3755580">
    <ele>4894.5</ele>
    <time>2026-06-22T22:58:43Z</time>
   </trkpt>
   <trkpt lat="-3.0911520" lon="37.3755540">
    <ele>4894.6</ele>
    <time>2026-06-22T22:58:44Z</time>
   </trkpt>
   <trkpt lat="-3.0911500" lon="37.3755540">
    <ele>4894.6</ele>
    <time>2026-06-22T22:58:45Z</time>
   </trkpt>
   <trkpt lat="-3.0911480" lon="37.3755520">
    <ele>4894.7</ele>
    <time>2026-06-22T22:58:46Z</time>
   </trkpt>
   <trkpt lat="-3.0911460" lon="37.3755500">
    <ele>4894.8</ele>
    <time>2026-06-22T22:58:47Z</time>
   </trkpt>
   <trkpt lat="-3.0911450" lon="37.3755460">
    <ele>4894.9</ele>
    <time>2026-06-22T22:58:48Z</time>
   </trkpt>
   <trkpt lat="-3.0911440" lon="37.3755430">
    <ele>4895.0</ele>
    <time>2026-06-22T22:58:49Z</time>
   </trkpt>
   <trkpt lat="-3.0911440" lon="37.3755400">
    <ele>4895.0</ele>
    <time>2026-06-22T22:58:50Z</time>
   </trkpt>
   <trkpt lat="-3.0911430" lon="37.3755390">
    <ele>4895.1</ele>
    <time>2026-06-22T22:58:51Z</time>
   </trkpt>
   <trkpt lat="-3.0911430" lon="37.3755330">
    <ele>4895.2</ele>
    <time>2026-06-22T22:58:52Z</time>
   </trkpt>
   <trkpt lat="-3.0911430" lon="37.3755320">
    <ele>4895.2</ele>
    <time>2026-06-22T22:58:53Z</time>
   </trkpt>
   <trkpt lat="-3.0911430" lon="37.3755300">
    <ele>4895.3</ele>
    <time>2026-06-22T22:58:54Z</time>
   </trkpt>
   <trkpt lat="-3.0911430" lon="37.3755270">
    <ele>4895.4</ele>
    <time>2026-06-22T22:58:55Z</time>
   </trkpt>
   <trkpt lat="-3.0911440" lon="37.3755250">
    <ele>4895.4</ele>
    <time>2026-06-22T22:58:56Z</time>
   </trkpt>
   <trkpt lat="-3.0911440" lon="37.3755220">
    <ele>4895.5</ele>
    <time>2026-06-22T22:58:57Z</time>
   </trkpt>
   <trkpt lat="-3.0911440" lon="37.3755200">
    <ele>4895.5</ele>
    <time>2026-06-22T22:58:58Z</time>
   </trkpt>
   <trkpt lat="-3.0911430" lon="37.3755170">
    <ele>4895.6</ele>
    <time>2026-06-22T22:58:59Z</time>
   </trkpt>
   <trkpt lat="-3.0911430" lon="37.3755140">
    <ele>4895.7</ele>
    <time>2026-06-22T22:59:00Z</time>
   </trkpt>
   <trkpt lat="-3.0911430" lon="37.3755110">
    <ele>4895.8</ele>
    <time>2026-06-22T22:59:01Z</time>
   </trkpt>
   <trkpt lat="-3.0911420" lon="37.3755090">
    <ele>4895.8</ele>
    <time>2026-06-22T22:59:02Z</time>
   </trkpt>
   <trkpt lat="-3.0911420" lon="37.3755080">
    <ele>4895.8</ele>
    <time>2026-06-22T22:59:03Z</time>
   </trkpt>
   <trkpt lat="-3.0911410" lon="37.3755040">
    <ele>4895.9</ele>
    <time>2026-06-22T22:59:04Z</time>
   </trkpt>
   <trkpt lat="-3.0911390" lon="37.3755080">
    <ele>4896.0</ele>
    <time>2026-06-22T22:59:05Z</time>
   </trkpt>
   <trkpt lat="-3.0911410" lon="37.3755040">
    <ele>4896.2</ele>
    <time>2026-06-22T22:59:06Z</time>
   </trkpt>
   <trkpt lat="-3.0911410" lon="37.3755010">
    <ele>4896.2</ele>
    <time>2026-06-22T22:59:07Z</time>
   </trkpt>
   <trkpt lat="-3.0911400" lon="37.3755000">
    <ele>4896.3</ele>
    <time>2026-06-22T22:59:08Z</time>
   </trkpt>
   <trkpt lat="-3.0911410" lon="37.3754970">
    <ele>4896.3</ele>
    <time>2026-06-22T22:59:10Z</time>
   </trkpt>
   <trkpt lat="-3.0911430" lon="37.3754930">
    <ele>4896.5</ele>
    <time>2026-06-22T22:59:11Z</time>
   </trkpt>
   <trkpt lat="-3.0911420" lon="37.3754890">
    <ele>4896.6</ele>
    <time>2026-06-22T22:59:12Z</time>
   </trkpt>
   <trkpt lat="-3.0911440" lon="37.3754860">
    <ele>4896.6</ele>
    <time>2026-06-22T22:59:13Z</time>
   </trkpt>
   <trkpt lat="-3.0911470" lon="37.3754790">
    <ele>4896.8</ele>
    <time>2026-06-22T22:59:14Z</time>
   </trkpt>
   <trkpt lat="-3.0911470" lon="37.3754760">
    <ele>4896.9</ele>
    <time>2026-06-22T22:59:16Z</time>
   </trkpt>
   <trkpt lat="-3.0911510" lon="37.3754730">
    <ele>4897.0</ele>
    <time>2026-06-22T22:59:17Z</time>
   </trkpt>
   <trkpt lat="-3.0911530" lon="37.3754700">
    <ele>4897.1</ele>
    <time>2026-06-22T22:59:18Z</time>
   </trkpt>
   <trkpt lat="-3.0911560" lon="37.3754650">
    <ele>4897.3</ele>
    <time>2026-06-22T22:59:19Z</time>
   </trkpt>
   <trkpt lat="-3.0911580" lon="37.3754620">
    <ele>4897.3</ele>
    <time>2026-06-22T22:59:20Z</time>
   </trkpt>
   <trkpt lat="-3.0911590" lon="37.3754590">
    <ele>4897.4</ele>
    <time>2026-06-22T22:59:21Z</time>
   </trkpt>
   <trkpt lat="-3.0911620" lon="37.3754550">
    <ele>4897.5</ele>
    <time>2026-06-22T22:59:22Z</time>
   </trkpt>
   <trkpt lat="-3.0911630" lon="37.3754540">
    <ele>4897.6</ele>
    <time>2026-06-22T22:59:23Z</time>
   </trkpt>
   <trkpt lat="-3.0911640" lon="37.3754500">
    <ele>4897.7</ele>
    <time>2026-06-22T22:59:24Z</time>
   </trkpt>
   <trkpt lat="-3.0911660" lon="37.3754470">
    <ele>4897.8</ele>
    <time>2026-06-22T22:59:25Z</time>
   </trkpt>
   <trkpt lat="-3.0911670" lon="37.3754450">
    <ele>4897.8</ele>
    <time>2026-06-22T22:59:26Z</time>
   </trkpt>
   <trkpt lat="-3.0911660" lon="37.3754430">
    <ele>4897.9</ele>
    <time>2026-06-22T22:59:27Z</time>
   </trkpt>
   <trkpt lat="-3.0911670" lon="37.3754410">
    <ele>4897.9</ele>
    <time>2026-06-22T22:59:28Z</time>
   </trkpt>
   <trkpt lat="-3.0911680" lon="37.3754390">
    <ele>4898.0</ele>
    <time>2026-06-22T22:59:29Z</time>
   </trkpt>
   <trkpt lat="-3.0911670" lon="37.3754340">
    <ele>4898.1</ele>
    <time>2026-06-22T22:59:30Z</time>
   </trkpt>
   <trkpt lat="-3.0911660" lon="37.3754320">
    <ele>4898.2</ele>
    <time>2026-06-22T22:59:31Z</time>
   </trkpt>
   <trkpt lat="-3.0911630" lon="37.3754340">
    <ele>4898.3</ele>
    <time>2026-06-22T22:59:32Z</time>
   </trkpt>
   <trkpt lat="-3.0911600" lon="37.3754300">
    <ele>4898.4</ele>
    <time>2026-06-22T22:59:33Z</time>
   </trkpt>
   <trkpt lat="-3.0911560" lon="37.3754290">
    <ele>4898.5</ele>
    <time>2026-06-22T22:59:34Z</time>
   </trkpt>
   <trkpt lat="-3.0911530" lon="37.3754290">
    <ele>4898.6</ele>
    <time>2026-06-22T22:59:35Z</time>
   </trkpt>
   <trkpt lat="-3.0911510" lon="37.3754260">
    <ele>4898.6</ele>
    <time>2026-06-22T22:59:36Z</time>
   </trkpt>
   <trkpt lat="-3.0911490" lon="37.3754240">
    <ele>4898.7</ele>
    <time>2026-06-22T22:59:37Z</time>
   </trkpt>
   <trkpt lat="-3.0911480" lon="37.3754230">
    <ele>4898.7</ele>
    <time>2026-06-22T22:59:38Z</time>
   </trkpt>
   <trkpt lat="-3.0911450" lon="37.3754220">
    <ele>4898.8</ele>
    <time>2026-06-22T22:59:39Z</time>
   </trkpt>
   <trkpt lat="-3.0911410" lon="37.3754220">
    <ele>4898.9</ele>
    <time>2026-06-22T22:59:40Z</time>
   </trkpt>
   <trkpt lat="-3.0911380" lon="37.3754220">
    <ele>4899.0</ele>
    <time>2026-06-22T22:59:41Z</time>
   </trkpt>
   <trkpt lat="-3.0911380" lon="37.3754200">
    <ele>4899.0</ele>
    <time>2026-06-22T22:59:42Z</time>
   </trkpt>
   <trkpt lat="-3.0911340" lon="37.3754200">
    <ele>4899.1</ele>
    <time>2026-06-22T22:59:43Z</time>
   </trkpt>
   <trkpt lat="-3.0911340" lon="37.3754190">
    <ele>4899.1</ele>
    <time>2026-06-22T22:59:44Z</time>
   </trkpt>
   <trkpt lat="-3.0911320" lon="37.3754200">
    <ele>4899.2</ele>
    <time>2026-06-22T22:59:45Z</time>
   </trkpt>
   <trkpt lat="-3.0911300" lon="37.3754190">
    <ele>4899.3</ele>
    <time>2026-06-22T22:59:46Z</time>
   </trkpt>
   <trkpt lat="-3.0911270" lon="37.3754210">
    <ele>4899.3</ele>
    <time>2026-06-22T22:59:47Z</time>
   </trkpt>
   <trkpt lat="-3.0911240" lon="37.3754200">
    <ele>4899.4</ele>
    <time>2026-06-22T22:59:48Z</time>
   </trkpt>
   <trkpt lat="-3.0911220" lon="37.3754210">
    <ele>4899.5</ele>
    <time>2026-06-22T22:59:49Z</time>
   </trkpt>
   <trkpt lat="-3.0911200" lon="37.3754200">
    <ele>4899.5</ele>
    <time>2026-06-22T22:59:50Z</time>
   </trkpt>
   <trkpt lat="-3.0911160" lon="37.3754200">
    <ele>4899.6</ele>
    <time>2026-06-22T22:59:51Z</time>
   </trkpt>
   <trkpt lat="-3.0911160" lon="37.3754190">
    <ele>4899.6</ele>
    <time>2026-06-22T22:59:52Z</time>
   </trkpt>
   <trkpt lat="-3.0911130" lon="37.3754180">
    <ele>4899.7</ele>
    <time>2026-06-22T22:59:53Z</time>
   </trkpt>
   <trkpt lat="-3.0911100" lon="37.3754190">
    <ele>4899.8</ele>
    <time>2026-06-22T22:59:54Z</time>
   </trkpt>
   <trkpt lat="-3.0911100" lon="37.3754160">
    <ele>4899.9</ele>
    <time>2026-06-22T22:59:55Z</time>
   </trkpt>
   <trkpt lat="-3.0911070" lon="37.3754170">
    <ele>4899.9</ele>
    <time>2026-06-22T22:59:56Z</time>
   </trkpt>
   <trkpt lat="-3.0911040" lon="37.3754150">
    <ele>4900.0</ele>
    <time>2026-06-22T22:59:57Z</time>
   </trkpt>
   <trkpt lat="-3.0911020" lon="37.3754140">
    <ele>4900.1</ele>
    <time>2026-06-22T22:59:58Z</time>
   </trkpt>
   <trkpt lat="-3.0911020" lon="37.3754090">
    <ele>4900.2</ele>
    <time>2026-06-22T22:59:59Z</time>
   </trkpt>
   <trkpt lat="-3.0911010" lon="37.3754070">
    <ele>4900.2</ele>
    <time>2026-06-22T23:00:00Z</time>
   </trkpt>
   <trkpt lat="-3.0911000" lon="37.3754050">
    <ele>4900.3</ele>
    <time>2026-06-22T23:00:01Z</time>
   </trkpt>
   <trkpt lat="-3.0910970" lon="37.3754040">
    <ele>4900.4</ele>
    <time>2026-06-22T23:00:02Z</time>
   </trkpt>
   <trkpt lat="-3.0910940" lon="37.3754010">
    <ele>4900.5</ele>
    <time>2026-06-22T23:00:03Z</time>
   </trkpt>
   <trkpt lat="-3.0910910" lon="37.3754000">
    <ele>4900.5</ele>
    <time>2026-06-22T23:00:04Z</time>
   </trkpt>
   <trkpt lat="-3.0910890" lon="37.3753970">
    <ele>4900.6</ele>
    <time>2026-06-22T23:00:05Z</time>
   </trkpt>
   <trkpt lat="-3.0910870" lon="37.3753940">
    <ele>4900.7</ele>
    <time>2026-06-22T23:00:06Z</time>
   </trkpt>
   <trkpt lat="-3.0910850" lon="37.3753930">
    <ele>4900.8</ele>
    <time>2026-06-22T23:00:07Z</time>
   </trkpt>
   <trkpt lat="-3.0910850" lon="37.3753900">
    <ele>4900.8</ele>
    <time>2026-06-22T23:00:08Z</time>
   </trkpt>
   <trkpt lat="-3.0910820" lon="37.3753880">
    <ele>4900.9</ele>
    <time>2026-06-22T23:00:09Z</time>
   </trkpt>
   <trkpt lat="-3.0910820" lon="37.3753870">
    <ele>4900.9</ele>
    <time>2026-06-22T23:00:10Z</time>
   </trkpt>
   <trkpt lat="-3.0910800" lon="37.3753830">
    <ele>4901.1</ele>
    <time>2026-06-22T23:00:11Z</time>
   </trkpt>
   <trkpt lat="-3.0910810" lon="37.3753810">
    <ele>4901.1</ele>
    <time>2026-06-22T23:00:12Z</time>
   </trkpt>
   <trkpt lat="-3.0910800" lon="37.3753780">
    <ele>4901.2</ele>
    <time>2026-06-22T23:00:13Z</time>
   </trkpt>
   <trkpt lat="-3.0910780" lon="37.3753750">
    <ele>4901.3</ele>
    <time>2026-06-22T23:00:14Z</time>
   </trkpt>
   <trkpt lat="-3.0910790" lon="37.3753710">
    <ele>4901.4</ele>
    <time>2026-06-22T23:00:15Z</time>
   </trkpt>
   <trkpt lat="-3.0910780" lon="37.3753680">
    <ele>4901.4</ele>
    <time>2026-06-22T23:00:16Z</time>
   </trkpt>
   <trkpt lat="-3.0910780" lon="37.3753660">
    <ele>4901.5</ele>
    <time>2026-06-22T23:00:17Z</time>
   </trkpt>
   <trkpt lat="-3.0910740" lon="37.3753670">
    <ele>4901.6</ele>
    <time>2026-06-22T23:00:18Z</time>
   </trkpt>
   <trkpt lat="-3.0910740" lon="37.3753660">
    <ele>4901.6</ele>
    <time>2026-06-22T23:00:19Z</time>
   </trkpt>
   <trkpt lat="-3.0910750" lon="37.3753660">
    <ele>4901.6</ele>
    <time>2026-06-22T23:00:20Z</time>
   </trkpt>
   <trkpt lat="-3.0910740" lon="37.3753650">
    <ele>4901.7</ele>
    <time>2026-06-22T23:00:21Z</time>
   </trkpt>
   <trkpt lat="-3.0910760" lon="37.3753630">
    <ele>4901.7</ele>
    <time>2026-06-22T23:00:22Z</time>
   </trkpt>
   <trkpt lat="-3.0910750" lon="37.3753610">
    <ele>4901.8</ele>
    <time>2026-06-22T23:00:23Z</time>
   </trkpt>
   <trkpt lat="-3.0910750" lon="37.3753580">
    <ele>4901.8</ele>
    <time>2026-06-22T23:00:24Z</time>
   </trkpt>
   <trkpt lat="-3.0910730" lon="37.3753550">
    <ele>4901.9</ele>
    <time>2026-06-22T23:00:25Z</time>
   </trkpt>
   <trkpt lat="-3.0910720" lon="37.3753530">
    <ele>4902.0</ele>
    <time>2026-06-22T23:00:26Z</time>
   </trkpt>
   <trkpt lat="-3.0910740" lon="37.3753490">
    <ele>4902.1</ele>
    <time>2026-06-22T23:00:27Z</time>
   </trkpt>
   <trkpt lat="-3.0910730" lon="37.3753460">
    <ele>4902.1</ele>
    <time>2026-06-22T23:00:28Z</time>
   </trkpt>
   <trkpt lat="-3.0910710" lon="37.3753430">
    <ele>4902.2</ele>
    <time>2026-06-22T23:00:29Z</time>
   </trkpt>
   <trkpt lat="-3.0910720" lon="37.3753390">
    <ele>4902.3</ele>
    <time>2026-06-22T23:00:30Z</time>
   </trkpt>
   <trkpt lat="-3.0910710" lon="37.3753370">
    <ele>4902.4</ele>
    <time>2026-06-22T23:00:31Z</time>
   </trkpt>
   <trkpt lat="-3.0910710" lon="37.3753340">
    <ele>4902.4</ele>
    <time>2026-06-22T23:00:32Z</time>
   </trkpt>
   <trkpt lat="-3.0910700" lon="37.3753300">
    <ele>4902.5</ele>
    <time>2026-06-22T23:00:33Z</time>
   </trkpt>
   <trkpt lat="-3.0910670" lon="37.3753300">
    <ele>4902.6</ele>
    <time>2026-06-22T23:00:34Z</time>
   </trkpt>
   <trkpt lat="-3.0910670" lon="37.3753270">
    <ele>4902.7</ele>
    <time>2026-06-22T23:00:35Z</time>
   </trkpt>
   <trkpt lat="-3.0910660" lon="37.3753210">
    <ele>4902.8</ele>
    <time>2026-06-22T23:00:36Z</time>
   </trkpt>
   <trkpt lat="-3.0910660" lon="37.3753180">
    <ele>4902.9</ele>
    <time>2026-06-22T23:00:37Z</time>
   </trkpt>
   <trkpt lat="-3.0910670" lon="37.3753180">
    <ele>4902.9</ele>
    <time>2026-06-22T23:00:38Z</time>
   </trkpt>
   <trkpt lat="-3.0910670" lon="37.3753140">
    <ele>4903.0</ele>
    <time>2026-06-22T23:00:39Z</time>
   </trkpt>
   <trkpt lat="-3.0910660" lon="37.3753130">
    <ele>4903.0</ele>
    <time>2026-06-22T23:00:40Z</time>
   </trkpt>
   <trkpt lat="-3.0910680" lon="37.3753090">
    <ele>4903.1</ele>
    <time>2026-06-22T23:00:41Z</time>
   </trkpt>
   <trkpt lat="-3.0910690" lon="37.3753060">
    <ele>4903.2</ele>
    <time>2026-06-22T23:00:42Z</time>
   </trkpt>
   <trkpt lat="-3.0910720" lon="37.3753060">
    <ele>4903.3</ele>
    <time>2026-06-22T23:00:43Z</time>
   </trkpt>
   <trkpt lat="-3.0910710" lon="37.3753030">
    <ele>4903.3</ele>
    <time>2026-06-22T23:00:44Z</time>
   </trkpt>
   <trkpt lat="-3.0910740" lon="37.3753010">
    <ele>4903.4</ele>
    <time>2026-06-22T23:00:45Z</time>
   </trkpt>
   <trkpt lat="-3.0910740" lon="37.3753010">
    <ele>4903.4</ele>
    <time>2026-06-22T23:00:46Z</time>
   </trkpt>
   <trkpt lat="-3.0910740" lon="37.3752990">
    <ele>4903.5</ele>
    <time>2026-06-22T23:00:47Z</time>
   </trkpt>
   <trkpt lat="-3.0910730" lon="37.3752930">
    <ele>4903.6</ele>
    <time>2026-06-22T23:00:48Z</time>
   </trkpt>
   <trkpt lat="-3.0910750" lon="37.3752920">
    <ele>4903.7</ele>
    <time>2026-06-22T23:00:49Z</time>
   </trkpt>
   <trkpt lat="-3.0910740" lon="37.3752880">
    <ele>4903.8</ele>
    <time>2026-06-22T23:00:50Z</time>
   </trkpt>
   <trkpt lat="-3.0910730" lon="37.3752870">
    <ele>4903.8</ele>
    <time>2026-06-22T23:00:51Z</time>
   </trkpt>
   <trkpt lat="-3.0910710" lon="37.3752850">
    <ele>4903.9</ele>
    <time>2026-06-22T23:00:52Z</time>
   </trkpt>
   <trkpt lat="-3.0910720" lon="37.3752830">
    <ele>4903.9</ele>
    <time>2026-06-22T23:00:53Z</time>
   </trkpt>
   <trkpt lat="-3.0910660" lon="37.3752800">
    <ele>4904.1</ele>
    <time>2026-06-22T23:00:54Z</time>
   </trkpt>
   <trkpt lat="-3.0910650" lon="37.3752740">
    <ele>4904.2</ele>
    <time>2026-06-22T23:00:55Z</time>
   </trkpt>
   <trkpt lat="-3.0910630" lon="37.3752730">
    <ele>4904.2</ele>
    <time>2026-06-22T23:00:56Z</time>
   </trkpt>
   <trkpt lat="-3.0910630" lon="37.3752710">
    <ele>4904.3</ele>
    <time>2026-06-22T23:00:57Z</time>
   </trkpt>
   <trkpt lat="-3.0910630" lon="37.3752690">
    <ele>4904.3</ele>
    <time>2026-06-22T23:00:58Z</time>
   </trkpt>
   <trkpt lat="-3.0910600" lon="37.3752640">
    <ele>4904.5</ele>
    <time>2026-06-22T23:00:59Z</time>
   </trkpt>
   <trkpt lat="-3.0910580" lon="37.3752630">
    <ele>4904.5</ele>
    <time>2026-06-22T23:01:00Z</time>
   </trkpt>
   <trkpt lat="-3.0910580" lon="37.3752640">
    <ele>4904.5</ele>
    <time>2026-06-22T23:01:01Z</time>
   </trkpt>
   <trkpt lat="-3.0910540" lon="37.3752620">
    <ele>4904.6</ele>
    <time>2026-06-22T23:01:02Z</time>
   </trkpt>
   <trkpt lat="-3.0910520" lon="37.3752590">
    <ele>4904.7</ele>
    <time>2026-06-22T23:01:03Z</time>
   </trkpt>
   <trkpt lat="-3.0910490" lon="37.3752590">
    <ele>4904.8</ele>
    <time>2026-06-22T23:01:04Z</time>
   </trkpt>
   <trkpt lat="-3.0910460" lon="37.3752560">
    <ele>4904.9</ele>
    <time>2026-06-22T23:01:05Z</time>
   </trkpt>
   <trkpt lat="-3.0910440" lon="37.3752550">
    <ele>4904.9</ele>
    <time>2026-06-22T23:01:06Z</time>
   </trkpt>
   <trkpt lat="-3.0910410" lon="37.3752520">
    <ele>4905.0</ele>
    <time>2026-06-22T23:01:07Z</time>
   </trkpt>
   <trkpt lat="-3.0910400" lon="37.3752520">
    <ele>4905.1</ele>
    <time>2026-06-22T23:01:08Z</time>
   </trkpt>
   <trkpt lat="-3.0910390" lon="37.3752500">
    <ele>4905.1</ele>
    <time>2026-06-22T23:01:09Z</time>
   </trkpt>
   <trkpt lat="-3.0910370" lon="37.3752490">
    <ele>4905.2</ele>
    <time>2026-06-22T23:01:10Z</time>
   </trkpt>
   <trkpt lat="-3.0910370" lon="37.3752460">
    <ele>4905.2</ele>
    <time>2026-06-22T23:01:11Z</time>
   </trkpt>
   <trkpt lat="-3.0910350" lon="37.3752440">
    <ele>4905.3</ele>
    <time>2026-06-22T23:01:12Z</time>
   </trkpt>
   <trkpt lat="-3.0910350" lon="37.3752410">
    <ele>4905.4</ele>
    <time>2026-06-22T23:01:13Z</time>
   </trkpt>
   <trkpt lat="-3.0910340" lon="37.3752400">
    <ele>4905.4</ele>
    <time>2026-06-22T23:01:14Z</time>
   </trkpt>
   <trkpt lat="-3.0910330" lon="37.3752350">
    <ele>4905.5</ele>
    <time>2026-06-22T23:01:16Z</time>
   </trkpt>
   <trkpt lat="-3.0910310" lon="37.3752300">
    <ele>4905.6</ele>
    <time>2026-06-22T23:01:17Z</time>
   </trkpt>
   <trkpt lat="-3.0910310" lon="37.3752290">
    <ele>4905.7</ele>
    <time>2026-06-22T23:01:19Z</time>
   </trkpt>
   <trkpt lat="-3.0910270" lon="37.3752230">
    <ele>4905.8</ele>
    <time>2026-06-22T23:01:20Z</time>
   </trkpt>
   <trkpt lat="-3.0910270" lon="37.3752210">
    <ele>4905.9</ele>
    <time>2026-06-22T23:01:21Z</time>
   </trkpt>
   <trkpt lat="-3.0910240" lon="37.3752170">
    <ele>4906.0</ele>
    <time>2026-06-22T23:01:23Z</time>
   </trkpt>
   <trkpt lat="-3.0910230" lon="37.3752150">
    <ele>4906.0</ele>
    <time>2026-06-22T23:01:24Z</time>
   </trkpt>
   <trkpt lat="-3.0910210" lon="37.3752110">
    <ele>4906.1</ele>
    <time>2026-06-22T23:01:25Z</time>
   </trkpt>
   <trkpt lat="-3.0910200" lon="37.3752090">
    <ele>4906.2</ele>
    <time>2026-06-22T23:01:26Z</time>
   </trkpt>
   <trkpt lat="-3.0910190" lon="37.3752070">
    <ele>4906.2</ele>
    <time>2026-06-22T23:01:27Z</time>
   </trkpt>
   <trkpt lat="-3.0910180" lon="37.3752050">
    <ele>4906.3</ele>
    <time>2026-06-22T23:01:28Z</time>
   </trkpt>
   <trkpt lat="-3.0910170" lon="37.3752010">
    <ele>4906.4</ele>
    <time>2026-06-22T23:01:29Z</time>
   </trkpt>
   <trkpt lat="-3.0910160" lon="37.3752010">
    <ele>4906.4</ele>
    <time>2026-06-22T23:01:30Z</time>
   </trkpt>
   <trkpt lat="-3.0910150" lon="37.3751990">
    <ele>4906.5</ele>
    <time>2026-06-22T23:01:31Z</time>
   </trkpt>
   <trkpt lat="-3.0910140" lon="37.3751970">
    <ele>4906.5</ele>
    <time>2026-06-22T23:01:32Z</time>
   </trkpt>
   <trkpt lat="-3.0910120" lon="37.3751950">
    <ele>4906.6</ele>
    <time>2026-06-22T23:01:33Z</time>
   </trkpt>
   <trkpt lat="-3.0910120" lon="37.3751930">
    <ele>4906.6</ele>
    <time>2026-06-22T23:01:34Z</time>
   </trkpt>
   <trkpt lat="-3.0910090" lon="37.3751910">
    <ele>4906.7</ele>
    <time>2026-06-22T23:01:35Z</time>
   </trkpt>
   <trkpt lat="-3.0910100" lon="37.3751910">
    <ele>4906.7</ele>
    <time>2026-06-22T23:01:36Z</time>
   </trkpt>
   <trkpt lat="-3.0910090" lon="37.3751880">
    <ele>4906.8</ele>
    <time>2026-06-22T23:01:37Z</time>
   </trkpt>
   <trkpt lat="-3.0910080" lon="37.3751870">
    <ele>4906.8</ele>
    <time>2026-06-22T23:01:38Z</time>
   </trkpt>
   <trkpt lat="-3.0910070" lon="37.3751860">
    <ele>4906.9</ele>
    <time>2026-06-22T23:01:39Z</time>
   </trkpt>
   <trkpt lat="-3.0910050" lon="37.3751840">
    <ele>4906.9</ele>
    <time>2026-06-22T23:01:40Z</time>
   </trkpt>
   <trkpt lat="-3.0910040" lon="37.3751840">
    <ele>4907.0</ele>
    <time>2026-06-22T23:01:41Z</time>
   </trkpt>
   <trkpt lat="-3.0910010" lon="37.3751810">
    <ele>4907.1</ele>
    <time>2026-06-22T23:01:42Z</time>
   </trkpt>
   <trkpt lat="-3.0909990" lon="37.3751820">
    <ele>4907.1</ele>
    <time>2026-06-22T23:01:43Z</time>
   </trkpt>
   <trkpt lat="-3.0909990" lon="37.3751810">
    <ele>4907.1</ele>
    <time>2026-06-22T23:01:44Z</time>
   </trkpt>
   <trkpt lat="-3.0909940" lon="37.3751780">
    <ele>4907.3</ele>
    <time>2026-06-22T23:01:45Z</time>
   </trkpt>
   <trkpt lat="-3.0909940" lon="37.3751750">
    <ele>4907.3</ele>
    <time>2026-06-22T23:01:46Z</time>
   </trkpt>
   <trkpt lat="-3.0909940" lon="37.3751770">
    <ele>4907.4</ele>
    <time>2026-06-22T23:01:47Z</time>
   </trkpt>
   <trkpt lat="-3.0909920" lon="37.3751720">
    <ele>4907.5</ele>
    <time>2026-06-22T23:01:48Z</time>
   </trkpt>
   <trkpt lat="-3.0909900" lon="37.3751700">
    <ele>4907.6</ele>
    <time>2026-06-22T23:01:49Z</time>
   </trkpt>
   <trkpt lat="-3.0909900" lon="37.3751680">
    <ele>4907.6</ele>
    <time>2026-06-22T23:01:50Z</time>
   </trkpt>
   <trkpt lat="-3.0909870" lon="37.3751680">
    <ele>4907.7</ele>
    <time>2026-06-22T23:01:51Z</time>
   </trkpt>
   <trkpt lat="-3.0909840" lon="37.3751640">
    <ele>4907.8</ele>
    <time>2026-06-22T23:01:52Z</time>
   </trkpt>
   <trkpt lat="-3.0909830" lon="37.3751630">
    <ele>4907.8</ele>
    <time>2026-06-22T23:01:53Z</time>
   </trkpt>
   <trkpt lat="-3.0909790" lon="37.3751610">
    <ele>4907.9</ele>
    <time>2026-06-22T23:01:54Z</time>
   </trkpt>
   <trkpt lat="-3.0909760" lon="37.3751600">
    <ele>4908.0</ele>
    <time>2026-06-22T23:01:55Z</time>
   </trkpt>
   <trkpt lat="-3.0909730" lon="37.3751570">
    <ele>4908.1</ele>
    <time>2026-06-22T23:01:56Z</time>
   </trkpt>
   <trkpt lat="-3.0909710" lon="37.3751560">
    <ele>4908.1</ele>
    <time>2026-06-22T23:01:57Z</time>
   </trkpt>
   <trkpt lat="-3.0909700" lon="37.3751540">
    <ele>4908.2</ele>
    <time>2026-06-22T23:01:58Z</time>
   </trkpt>
   <trkpt lat="-3.0909690" lon="37.3751530">
    <ele>4908.2</ele>
    <time>2026-06-22T23:01:59Z</time>
   </trkpt>
   <trkpt lat="-3.0909670" lon="37.3751510">
    <ele>4908.3</ele>
    <time>2026-06-22T23:02:00Z</time>
   </trkpt>
   <trkpt lat="-3.0909670" lon="37.3751490">
    <ele>4908.3</ele>
    <time>2026-06-22T23:02:01Z</time>
   </trkpt>
   <trkpt lat="-3.0909670" lon="37.3751490">
    <ele>4908.3</ele>
    <time>2026-06-22T23:02:02Z</time>
   </trkpt>
   <trkpt lat="-3.0909650" lon="37.3751480">
    <ele>4908.4</ele>
    <time>2026-06-22T23:02:03Z</time>
   </trkpt>
   <trkpt lat="-3.0909650" lon="37.3751450">
    <ele>4908.4</ele>
    <time>2026-06-22T23:02:04Z</time>
   </trkpt>
   <trkpt lat="-3.0909630" lon="37.3751440">
    <ele>4908.5</ele>
    <time>2026-06-22T23:02:05Z</time>
   </trkpt>
   <trkpt lat="-3.0909640" lon="37.3751430">
    <ele>4908.5</ele>
    <time>2026-06-22T23:02:06Z</time>
   </trkpt>
   <trkpt lat="-3.0909620" lon="37.3751400">
    <ele>4908.6</ele>
    <time>2026-06-22T23:02:07Z</time>
   </trkpt>
   <trkpt lat="-3.0909630" lon="37.3751360">
    <ele>4908.7</ele>
    <time>2026-06-22T23:02:08Z</time>
   </trkpt>
   <trkpt lat="-3.0909620" lon="37.3751320">
    <ele>4908.8</ele>
    <time>2026-06-22T23:02:09Z</time>
   </trkpt>
   <trkpt lat="-3.0909600" lon="37.3751290">
    <ele>4908.9</ele>
    <time>2026-06-22T23:02:10Z</time>
   </trkpt>
   <trkpt lat="-3.0909590" lon="37.3751260">
    <ele>4908.9</ele>
    <time>2026-06-22T23:02:11Z</time>
   </trkpt>
   <trkpt lat="-3.0909570" lon="37.3751240">
    <ele>4909.0</ele>
    <time>2026-06-22T23:02:12Z</time>
   </trkpt>
   <trkpt lat="-3.0909560" lon="37.3751200">
    <ele>4909.1</ele>
    <time>2026-06-22T23:02:13Z</time>
   </trkpt>
   <trkpt lat="-3.0909550" lon="37.3751170">
    <ele>4909.2</ele>
    <time>2026-06-22T23:02:14Z</time>
   </trkpt>
   <trkpt lat="-3.0909560" lon="37.3751120">
    <ele>4909.3</ele>
    <time>2026-06-22T23:02:15Z</time>
   </trkpt>
   <trkpt lat="-3.0909550" lon="37.3751060">
    <ele>4909.4</ele>
    <time>2026-06-22T23:02:16Z</time>
   </trkpt>
   <trkpt lat="-3.0909560" lon="37.3751060">
    <ele>4909.4</ele>
    <time>2026-06-22T23:02:17Z</time>
   </trkpt>
   <trkpt lat="-3.0909580" lon="37.3751050">
    <ele>4909.5</ele>
    <time>2026-06-22T23:02:18Z</time>
   </trkpt>
   <trkpt lat="-3.0909600" lon="37.3751040">
    <ele>4909.5</ele>
    <time>2026-06-22T23:02:19Z</time>
   </trkpt>
   <trkpt lat="-3.0909610" lon="37.3750980">
    <ele>4909.7</ele>
    <time>2026-06-22T23:02:20Z</time>
   </trkpt>
   <trkpt lat="-3.0909620" lon="37.3750970">
    <ele>4909.7</ele>
    <time>2026-06-22T23:02:21Z</time>
   </trkpt>
   <trkpt lat="-3.0909600" lon="37.3750930">
    <ele>4909.8</ele>
    <time>2026-06-22T23:02:22Z</time>
   </trkpt>
   <trkpt lat="-3.0909600" lon="37.3750890">
    <ele>4909.9</ele>
    <time>2026-06-22T23:02:23Z</time>
   </trkpt>
   <trkpt lat="-3.0909580" lon="37.3750860">
    <ele>4910.0</ele>
    <time>2026-06-22T23:02:24Z</time>
   </trkpt>
   <trkpt lat="-3.0909580" lon="37.3750810">
    <ele>4910.1</ele>
    <time>2026-06-22T23:02:25Z</time>
   </trkpt>
   <trkpt lat="-3.0909550" lon="37.3750780">
    <ele>4910.2</ele>
    <time>2026-06-22T23:02:26Z</time>
   </trkpt>
   <trkpt lat="-3.0909540" lon="37.3750730">
    <ele>4910.3</ele>
    <time>2026-06-22T23:02:27Z</time>
   </trkpt>
   <trkpt lat="-3.0909550" lon="37.3750710">
    <ele>4910.3</ele>
    <time>2026-06-22T23:02:28Z</time>
   </trkpt>
   <trkpt lat="-3.0909540" lon="37.3750680">
    <ele>4910.4</ele>
    <time>2026-06-22T23:02:29Z</time>
   </trkpt>
   <trkpt lat="-3.0909510" lon="37.3750670">
    <ele>4910.5</ele>
    <time>2026-06-22T23:02:30Z</time>
   </trkpt>
   <trkpt lat="-3.0909510" lon="37.3750640">
    <ele>4910.5</ele>
    <time>2026-06-22T23:02:31Z</time>
   </trkpt>
   <trkpt lat="-3.0909470" lon="37.3750650">
    <ele>4910.6</ele>
    <time>2026-06-22T23:02:32Z</time>
   </trkpt>
   <trkpt lat="-3.0909450" lon="37.3750630">
    <ele>4910.7</ele>
    <time>2026-06-22T23:02:33Z</time>
   </trkpt>
   <trkpt lat="-3.0909430" lon="37.3750640">
    <ele>4910.7</ele>
    <time>2026-06-22T23:02:34Z</time>
   </trkpt>
   <trkpt lat="-3.0909400" lon="37.3750620">
    <ele>4910.8</ele>
    <time>2026-06-22T23:02:35Z</time>
   </trkpt>
   <trkpt lat="-3.0909370" lon="37.3750620">
    <ele>4910.9</ele>
    <time>2026-06-22T23:02:36Z</time>
   </trkpt>
   <trkpt lat="-3.0909320" lon="37.3750610">
    <ele>4911.0</ele>
    <time>2026-06-22T23:02:37Z</time>
   </trkpt>
   <trkpt lat="-3.0909290" lon="37.3750610">
    <ele>4911.1</ele>
    <time>2026-06-22T23:02:38Z</time>
   </trkpt>
   <trkpt lat="-3.0909240" lon="37.3750620">
    <ele>4911.2</ele>
    <time>2026-06-22T23:02:39Z</time>
   </trkpt>
   <trkpt lat="-3.0909210" lon="37.3750630">
    <ele>4911.3</ele>
    <time>2026-06-22T23:02:40Z</time>
   </trkpt>
   <trkpt lat="-3.0909170" lon="37.3750630">
    <ele>4911.3</ele>
    <time>2026-06-22T23:02:41Z</time>
   </trkpt>
   <trkpt lat="-3.0909150" lon="37.3750630">
    <ele>4911.4</ele>
    <time>2026-06-22T23:02:42Z</time>
   </trkpt>
   <trkpt lat="-3.0909110" lon="37.3750610">
    <ele>4911.5</ele>
    <time>2026-06-22T23:02:43Z</time>
   </trkpt>
   <trkpt lat="-3.0909080" lon="37.3750610">
    <ele>4911.5</ele>
    <time>2026-06-22T23:02:44Z</time>
   </trkpt>
   <trkpt lat="-3.0909060" lon="37.3750610">
    <ele>4911.6</ele>
    <time>2026-06-22T23:02:45Z</time>
   </trkpt>
   <trkpt lat="-3.0909010" lon="37.3750590">
    <ele>4911.7</ele>
    <time>2026-06-22T23:02:46Z</time>
   </trkpt>
   <trkpt lat="-3.0908990" lon="37.3750580">
    <ele>4911.8</ele>
    <time>2026-06-22T23:02:47Z</time>
   </trkpt>
   <trkpt lat="-3.0908980" lon="37.3750590">
    <ele>4911.8</ele>
    <time>2026-06-22T23:02:48Z</time>
   </trkpt>
   <trkpt lat="-3.0908950" lon="37.3750560">
    <ele>4911.9</ele>
    <time>2026-06-22T23:02:49Z</time>
   </trkpt>
   <trkpt lat="-3.0908960" lon="37.3750560">
    <ele>4911.9</ele>
    <time>2026-06-22T23:02:50Z</time>
   </trkpt>
   <trkpt lat="-3.0908940" lon="37.3750540">
    <ele>4912.0</ele>
    <time>2026-06-22T23:02:51Z</time>
   </trkpt>
   <trkpt lat="-3.0908930" lon="37.3750530">
    <ele>4912.0</ele>
    <time>2026-06-22T23:02:52Z</time>
   </trkpt>
   <trkpt lat="-3.0908900" lon="37.3750510">
    <ele>4912.1</ele>
    <time>2026-06-22T23:02:53Z</time>
   </trkpt>
   <trkpt lat="-3.0908890" lon="37.3750520">
    <ele>4912.1</ele>
    <time>2026-06-22T23:02:54Z</time>
   </trkpt>
   <trkpt lat="-3.0908850" lon="37.3750480">
    <ele>4912.2</ele>
    <time>2026-06-22T23:02:55Z</time>
   </trkpt>
   <trkpt lat="-3.0908820" lon="37.3750480">
    <ele>4912.2</ele>
    <time>2026-06-22T23:02:56Z</time>
   </trkpt>
   <trkpt lat="-3.0908800" lon="37.3750460">
    <ele>4912.3</ele>
    <time>2026-06-22T23:02:57Z</time>
   </trkpt>
   <trkpt lat="-3.0908760" lon="37.3750440">
    <ele>4912.4</ele>
    <time>2026-06-22T23:02:58Z</time>
   </trkpt>
   <trkpt lat="-3.0908740" lon="37.3750430">
    <ele>4912.4</ele>
    <time>2026-06-22T23:02:59Z</time>
   </trkpt>
   <trkpt lat="-3.0908700" lon="37.3750360">
    <ele>4912.6</ele>
    <time>2026-06-22T23:03:00Z</time>
   </trkpt>
   <trkpt lat="-3.0908690" lon="37.3750370">
    <ele>4912.6</ele>
    <time>2026-06-22T23:03:01Z</time>
   </trkpt>
   <trkpt lat="-3.0908670" lon="37.3750330">
    <ele>4912.7</ele>
    <time>2026-06-22T23:03:02Z</time>
   </trkpt>
   <trkpt lat="-3.0908640" lon="37.3750320">
    <ele>4912.7</ele>
    <time>2026-06-22T23:03:03Z</time>
   </trkpt>
   <trkpt lat="-3.0908630" lon="37.3750300">
    <ele>4912.8</ele>
    <time>2026-06-22T23:03:04Z</time>
   </trkpt>
   <trkpt lat="-3.0908620" lon="37.3750270">
    <ele>4912.8</ele>
    <time>2026-06-22T23:03:05Z</time>
   </trkpt>
   <trkpt lat="-3.0908600" lon="37.3750230">
    <ele>4912.9</ele>
    <time>2026-06-22T23:03:06Z</time>
   </trkpt>
   <trkpt lat="-3.0908580" lon="37.3750210">
    <ele>4912.9</ele>
    <time>2026-06-22T23:03:07Z</time>
   </trkpt>
   <trkpt lat="-3.0908560" lon="37.3750190">
    <ele>4913.0</ele>
    <time>2026-06-22T23:03:08Z</time>
   </trkpt>
   <trkpt lat="-3.0908550" lon="37.3750160">
    <ele>4913.0</ele>
    <time>2026-06-22T23:03:09Z</time>
   </trkpt>
   <trkpt lat="-3.0908540" lon="37.3750120">
    <ele>4913.1</ele>
    <time>2026-06-22T23:03:10Z</time>
   </trkpt>
   <trkpt lat="-3.0908560" lon="37.3750090">
    <ele>4913.2</ele>
    <time>2026-06-22T23:03:11Z</time>
   </trkpt>
   <trkpt lat="-3.0908570" lon="37.3750060">
    <ele>4913.2</ele>
    <time>2026-06-22T23:03:12Z</time>
   </trkpt>
   <trkpt lat="-3.0908550" lon="37.3750020">
    <ele>4913.3</ele>
    <time>2026-06-22T23:03:13Z</time>
   </trkpt>
   <trkpt lat="-3.0908550" lon="37.3750000">
    <ele>4913.4</ele>
    <time>2026-06-22T23:03:14Z</time>
   </trkpt>
   <trkpt lat="-3.0908540" lon="37.3750000">
    <ele>4913.4</ele>
    <time>2026-06-22T23:03:15Z</time>
   </trkpt>
   <trkpt lat="-3.0908490" lon="37.3749980">
    <ele>4913.5</ele>
    <time>2026-06-22T23:03:16Z</time>
   </trkpt>
   <trkpt lat="-3.0908450" lon="37.3749970">
    <ele>4913.5</ele>
    <time>2026-06-22T23:03:17Z</time>
   </trkpt>
   <trkpt lat="-3.0908440" lon="37.3749980">
    <ele>4913.6</ele>
    <time>2026-06-22T23:03:18Z</time>
   </trkpt>
   <trkpt lat="-3.0908400" lon="37.3749970">
    <ele>4913.6</ele>
    <time>2026-06-22T23:03:19Z</time>
   </trkpt>
   <trkpt lat="-3.0908350" lon="37.3749960">
    <ele>4913.7</ele>
    <time>2026-06-22T23:03:20Z</time>
   </trkpt>
   <trkpt lat="-3.0908320" lon="37.3749930">
    <ele>4913.8</ele>
    <time>2026-06-22T23:03:21Z</time>
   </trkpt>
   <trkpt lat="-3.0908300" lon="37.3749910">
    <ele>4913.9</ele>
    <time>2026-06-22T23:03:22Z</time>
   </trkpt>
   <trkpt lat="-3.0908290" lon="37.3749870">
    <ele>4913.9</ele>
    <time>2026-06-22T23:03:23Z</time>
   </trkpt>
   <trkpt lat="-3.0908290" lon="37.3749880">
    <ele>4914.0</ele>
    <time>2026-06-22T23:03:24Z</time>
   </trkpt>
   <trkpt lat="-3.0908290" lon="37.3749860">
    <ele>4914.0</ele>
    <time>2026-06-22T23:03:25Z</time>
   </trkpt>
   <trkpt lat="-3.0908270" lon="37.3749840">
    <ele>4914.0</ele>
    <time>2026-06-22T23:03:26Z</time>
   </trkpt>
   <trkpt lat="-3.0908260" lon="37.3749800">
    <ele>4914.1</ele>
    <time>2026-06-22T23:03:27Z</time>
   </trkpt>
   <trkpt lat="-3.0908260" lon="37.3749760">
    <ele>4914.2</ele>
    <time>2026-06-22T23:03:28Z</time>
   </trkpt>
   <trkpt lat="-3.0908250" lon="37.3749730">
    <ele>4914.2</ele>
    <time>2026-06-22T23:03:29Z</time>
   </trkpt>
   <trkpt lat="-3.0908250" lon="37.3749700">
    <ele>4914.3</ele>
    <time>2026-06-22T23:03:30Z</time>
   </trkpt>
   <trkpt lat="-3.0908230" lon="37.3749680">
    <ele>4914.3</ele>
    <time>2026-06-22T23:03:31Z</time>
   </trkpt>
   <trkpt lat="-3.0908220" lon="37.3749650">
    <ele>4914.4</ele>
    <time>2026-06-22T23:03:32Z</time>
   </trkpt>
   <trkpt lat="-3.0908210" lon="37.3749630">
    <ele>4914.4</ele>
    <time>2026-06-22T23:03:33Z</time>
   </trkpt>
   <trkpt lat="-3.0908210" lon="37.3749600">
    <ele>4914.5</ele>
    <time>2026-06-22T23:03:34Z</time>
   </trkpt>
   <trkpt lat="-3.0908190" lon="37.3749560">
    <ele>4914.6</ele>
    <time>2026-06-22T23:03:35Z</time>
   </trkpt>
   <trkpt lat="-3.0908170" lon="37.3749520">
    <ele>4914.6</ele>
    <time>2026-06-22T23:03:36Z</time>
   </trkpt>
   <trkpt lat="-3.0908160" lon="37.3749480">
    <ele>4914.7</ele>
    <time>2026-06-22T23:03:37Z</time>
   </trkpt>
   <trkpt lat="-3.0908170" lon="37.3749460">
    <ele>4914.8</ele>
    <time>2026-06-22T23:03:38Z</time>
   </trkpt>
   <trkpt lat="-3.0908160" lon="37.3749420">
    <ele>4914.8</ele>
    <time>2026-06-22T23:03:39Z</time>
   </trkpt>
   <trkpt lat="-3.0908160" lon="37.3749400">
    <ele>4914.9</ele>
    <time>2026-06-22T23:03:40Z</time>
   </trkpt>
   <trkpt lat="-3.0908160" lon="37.3749370">
    <ele>4914.9</ele>
    <time>2026-06-22T23:03:41Z</time>
   </trkpt>
   <trkpt lat="-3.0908160" lon="37.3749340">
    <ele>4915.0</ele>
    <time>2026-06-22T23:03:42Z</time>
   </trkpt>
   <trkpt lat="-3.0908150" lon="37.3749310">
    <ele>4915.0</ele>
    <time>2026-06-22T23:03:43Z</time>
   </trkpt>
   <trkpt lat="-3.0908170" lon="37.3749300">
    <ele>4915.1</ele>
    <time>2026-06-22T23:03:44Z</time>
   </trkpt>
   <trkpt lat="-3.0908160" lon="37.3749260">
    <ele>4915.1</ele>
    <time>2026-06-22T23:03:45Z</time>
   </trkpt>
   <trkpt lat="-3.0908160" lon="37.3749210">
    <ele>4915.2</ele>
    <time>2026-06-22T23:03:46Z</time>
   </trkpt>
   <trkpt lat="-3.0908160" lon="37.3749180">
    <ele>4915.3</ele>
    <time>2026-06-22T23:03:47Z</time>
   </trkpt>
   <trkpt lat="-3.0908160" lon="37.3749160">
    <ele>4915.3</ele>
    <time>2026-06-22T23:03:48Z</time>
   </trkpt>
   <trkpt lat="-3.0908120" lon="37.3749120">
    <ele>4915.4</ele>
    <time>2026-06-22T23:03:49Z</time>
   </trkpt>
   <trkpt lat="-3.0908120" lon="37.3749090">
    <ele>4915.5</ele>
    <time>2026-06-22T23:03:50Z</time>
   </trkpt>
   <trkpt lat="-3.0908140" lon="37.3749070">
    <ele>4915.5</ele>
    <time>2026-06-22T23:03:51Z</time>
   </trkpt>
   <trkpt lat="-3.0908150" lon="37.3749030">
    <ele>4915.6</ele>
    <time>2026-06-22T23:03:52Z</time>
   </trkpt>
   <trkpt lat="-3.0908160" lon="37.3749010">
    <ele>4915.7</ele>
    <time>2026-06-22T23:03:53Z</time>
   </trkpt>
   <trkpt lat="-3.0908180" lon="37.3749010">
    <ele>4915.7</ele>
    <time>2026-06-22T23:03:54Z</time>
   </trkpt>
   <trkpt lat="-3.0908200" lon="37.3748970">
    <ele>4915.8</ele>
    <time>2026-06-22T23:03:55Z</time>
   </trkpt>
   <trkpt lat="-3.0908210" lon="37.3748970">
    <ele>4915.8</ele>
    <time>2026-06-22T23:03:56Z</time>
   </trkpt>
   <trkpt lat="-3.0908230" lon="37.3748940">
    <ele>4915.9</ele>
    <time>2026-06-22T23:03:57Z</time>
   </trkpt>
   <trkpt lat="-3.0908250" lon="37.3748880">
    <ele>4916.0</ele>
    <time>2026-06-22T23:03:58Z</time>
   </trkpt>
   <trkpt lat="-3.0908260" lon="37.3748860">
    <ele>4916.0</ele>
    <time>2026-06-22T23:03:59Z</time>
   </trkpt>
   <trkpt lat="-3.0908250" lon="37.3748820">
    <ele>4916.1</ele>
    <time>2026-06-22T23:04:00Z</time>
   </trkpt>
   <trkpt lat="-3.0908240" lon="37.3748770">
    <ele>4916.2</ele>
    <time>2026-06-22T23:04:01Z</time>
   </trkpt>
   <trkpt lat="-3.0908220" lon="37.3748740">
    <ele>4916.2</ele>
    <time>2026-06-22T23:04:02Z</time>
   </trkpt>
   <trkpt lat="-3.0908220" lon="37.3748710">
    <ele>4916.3</ele>
    <time>2026-06-22T23:04:03Z</time>
   </trkpt>
   <trkpt lat="-3.0908220" lon="37.3748680">
    <ele>4916.3</ele>
    <time>2026-06-22T23:04:04Z</time>
   </trkpt>
   <trkpt lat="-3.0908220" lon="37.3748640">
    <ele>4916.4</ele>
    <time>2026-06-22T23:04:05Z</time>
   </trkpt>
   <trkpt lat="-3.0908220" lon="37.3748620">
    <ele>4916.5</ele>
    <time>2026-06-22T23:04:06Z</time>
   </trkpt>
   <trkpt lat="-3.0908230" lon="37.3748590">
    <ele>4916.5</ele>
    <time>2026-06-22T23:04:07Z</time>
   </trkpt>
   <trkpt lat="-3.0908230" lon="37.3748580">
    <ele>4916.5</ele>
    <time>2026-06-22T23:04:08Z</time>
   </trkpt>
   <trkpt lat="-3.0908250" lon="37.3748540">
    <ele>4916.6</ele>
    <time>2026-06-22T23:04:09Z</time>
   </trkpt>
   <trkpt lat="-3.0908240" lon="37.3748500">
    <ele>4916.7</ele>
    <time>2026-06-22T23:04:10Z</time>
   </trkpt>
   <trkpt lat="-3.0908240" lon="37.3748490">
    <ele>4916.7</ele>
    <time>2026-06-22T23:04:11Z</time>
   </trkpt>
   <trkpt lat="-3.0908210" lon="37.3748450">
    <ele>4916.8</ele>
    <time>2026-06-22T23:04:12Z</time>
   </trkpt>
   <trkpt lat="-3.0908210" lon="37.3748410">
    <ele>4916.9</ele>
    <time>2026-06-22T23:04:13Z</time>
   </trkpt>
   <trkpt lat="-3.0908190" lon="37.3748370">
    <ele>4917.0</ele>
    <time>2026-06-22T23:04:14Z</time>
   </trkpt>
   <trkpt lat="-3.0908170" lon="37.3748350">
    <ele>4917.0</ele>
    <time>2026-06-22T23:04:15Z</time>
   </trkpt>
   <trkpt lat="-3.0908160" lon="37.3748320">
    <ele>4917.1</ele>
    <time>2026-06-22T23:04:16Z</time>
   </trkpt>
   <trkpt lat="-3.0908150" lon="37.3748310">
    <ele>4917.1</ele>
    <time>2026-06-22T23:04:17Z</time>
   </trkpt>
   <trkpt lat="-3.0908100" lon="37.3748240">
    <ele>4917.2</ele>
    <time>2026-06-22T23:04:18Z</time>
   </trkpt>
   <trkpt lat="-3.0908090" lon="37.3748240">
    <ele>4917.3</ele>
    <time>2026-06-22T23:04:19Z</time>
   </trkpt>
   <trkpt lat="-3.0908080" lon="37.3748230">
    <ele>4917.3</ele>
    <time>2026-06-22T23:04:20Z</time>
   </trkpt>
   <trkpt lat="-3.0908060" lon="37.3748220">
    <ele>4917.3</ele>
    <time>2026-06-22T23:04:21Z</time>
   </trkpt>
   <trkpt lat="-3.0908040" lon="37.3748190">
    <ele>4917.4</ele>
    <time>2026-06-22T23:04:22Z</time>
   </trkpt>
   <trkpt lat="-3.0908010" lon="37.3748150">
    <ele>4917.5</ele>
    <time>2026-06-22T23:04:23Z</time>
   </trkpt>
   <trkpt lat="-3.0907990" lon="37.3748130">
    <ele>4917.5</ele>
    <time>2026-06-22T23:04:24Z</time>
   </trkpt>
   <trkpt lat="-3.0907980" lon="37.3748110">
    <ele>4917.6</ele>
    <time>2026-06-22T23:04:25Z</time>
   </trkpt>
   <trkpt lat="-3.0907950" lon="37.3748070">
    <ele>4917.7</ele>
    <time>2026-06-22T23:04:26Z</time>
   </trkpt>
   <trkpt lat="-3.0907930" lon="37.3748060">
    <ele>4917.7</ele>
    <time>2026-06-22T23:04:27Z</time>
   </trkpt>
   <trkpt lat="-3.0907920" lon="37.3748040">
    <ele>4917.8</ele>
    <time>2026-06-22T23:04:28Z</time>
   </trkpt>
   <trkpt lat="-3.0907890" lon="37.3748000">
    <ele>4917.9</ele>
    <time>2026-06-22T23:04:29Z</time>
   </trkpt>
   <trkpt lat="-3.0907900" lon="37.3747980">
    <ele>4917.9</ele>
    <time>2026-06-22T23:04:30Z</time>
   </trkpt>
   <trkpt lat="-3.0907880" lon="37.3747950">
    <ele>4918.0</ele>
    <time>2026-06-22T23:04:31Z</time>
   </trkpt>
   <trkpt lat="-3.0907880" lon="37.3747920">
    <ele>4918.0</ele>
    <time>2026-06-22T23:04:32Z</time>
   </trkpt>
   <trkpt lat="-3.0907870" lon="37.3747890">
    <ele>4918.1</ele>
    <time>2026-06-22T23:04:33Z</time>
   </trkpt>
   <trkpt lat="-3.0907870" lon="37.3747860">
    <ele>4918.1</ele>
    <time>2026-06-22T23:04:34Z</time>
   </trkpt>
   <trkpt lat="-3.0907840" lon="37.3747820">
    <ele>4918.2</ele>
    <time>2026-06-22T23:04:35Z</time>
   </trkpt>
   <trkpt lat="-3.0907840" lon="37.3747800">
    <ele>4918.3</ele>
    <time>2026-06-22T23:04:36Z</time>
   </trkpt>
   <trkpt lat="-3.0907840" lon="37.3747800">
    <ele>4918.3</ele>
    <time>2026-06-22T23:04:37Z</time>
   </trkpt>
   <trkpt lat="-3.0907790" lon="37.3747780">
    <ele>4918.4</ele>
    <time>2026-06-22T23:04:38Z</time>
   </trkpt>
   <trkpt lat="-3.0907780" lon="37.3747790">
    <ele>4918.4</ele>
    <time>2026-06-22T23:04:39Z</time>
   </trkpt>
   <trkpt lat="-3.0907740" lon="37.3747790">
    <ele>4918.5</ele>
    <time>2026-06-22T23:04:40Z</time>
   </trkpt>
   <trkpt lat="-3.0907710" lon="37.3747780">
    <ele>4918.5</ele>
    <time>2026-06-22T23:04:41Z</time>
   </trkpt>
   <trkpt lat="-3.0907690" lon="37.3747790">
    <ele>4918.6</ele>
    <time>2026-06-22T23:04:42Z</time>
   </trkpt>
   <trkpt lat="-3.0907670" lon="37.3747790">
    <ele>4918.6</ele>
    <time>2026-06-22T23:04:43Z</time>
   </trkpt>
   <trkpt lat="-3.0907630" lon="37.3747790">
    <ele>4918.7</ele>
    <time>2026-06-22T23:04:44Z</time>
   </trkpt>
   <trkpt lat="-3.0907600" lon="37.3747810">
    <ele>4918.8</ele>
    <time>2026-06-22T23:04:45Z</time>
   </trkpt>
   <trkpt lat="-3.0907570" lon="37.3747810">
    <ele>4918.8</ele>
    <time>2026-06-22T23:04:46Z</time>
   </trkpt>
   <trkpt lat="-3.0907550" lon="37.3747820">
    <ele>4918.9</ele>
    <time>2026-06-22T23:04:47Z</time>
   </trkpt>
   <trkpt lat="-3.0907530" lon="37.3747810">
    <ele>4918.9</ele>
    <time>2026-06-22T23:04:48Z</time>
   </trkpt>
   <trkpt lat="-3.0907520" lon="37.3747830">
    <ele>4919.0</ele>
    <time>2026-06-22T23:04:49Z</time>
   </trkpt>
   <trkpt lat="-3.0907490" lon="37.3747820">
    <ele>4919.0</ele>
    <time>2026-06-22T23:04:50Z</time>
   </trkpt>
   <trkpt lat="-3.0907450" lon="37.3747810">
    <ele>4919.1</ele>
    <time>2026-06-22T23:04:51Z</time>
   </trkpt>
   <trkpt lat="-3.0907420" lon="37.3747780">
    <ele>4919.2</ele>
    <time>2026-06-22T23:04:52Z</time>
   </trkpt>
   <trkpt lat="-3.0907400" lon="37.3747760">
    <ele>4919.2</ele>
    <time>2026-06-22T23:04:53Z</time>
   </trkpt>
   <trkpt lat="-3.0907390" lon="37.3747730">
    <ele>4919.3</ele>
    <time>2026-06-22T23:04:54Z</time>
   </trkpt>
   <trkpt lat="-3.0907390" lon="37.3747710">
    <ele>4919.3</ele>
    <time>2026-06-22T23:04:55Z</time>
   </trkpt>
   <trkpt lat="-3.0907400" lon="37.3747700">
    <ele>4919.4</ele>
    <time>2026-06-22T23:04:56Z</time>
   </trkpt>
   <trkpt lat="-3.0907400" lon="37.3747670">
    <ele>4919.4</ele>
    <time>2026-06-22T23:04:57Z</time>
   </trkpt>
   <trkpt lat="-3.0907400" lon="37.3747640">
    <ele>4919.5</ele>
    <time>2026-06-22T23:04:58Z</time>
   </trkpt>
   <trkpt lat="-3.0907390" lon="37.3747620">
    <ele>4919.5</ele>
    <time>2026-06-22T23:04:59Z</time>
   </trkpt>
   <trkpt lat="-3.0907380" lon="37.3747600">
    <ele>4919.6</ele>
    <time>2026-06-22T23:05:00Z</time>
   </trkpt>
   <trkpt lat="-3.0907360" lon="37.3747540">
    <ele>4919.7</ele>
    <time>2026-06-22T23:05:01Z</time>
   </trkpt>
   <trkpt lat="-3.0907360" lon="37.3747520">
    <ele>4919.7</ele>
    <time>2026-06-22T23:05:02Z</time>
   </trkpt>
   <trkpt lat="-3.0907350" lon="37.3747490">
    <ele>4919.8</ele>
    <time>2026-06-22T23:05:03Z</time>
   </trkpt>
   <trkpt lat="-3.0907330" lon="37.3747480">
    <ele>4919.8</ele>
    <time>2026-06-22T23:05:04Z</time>
   </trkpt>
   <trkpt lat="-3.0907320" lon="37.3747460">
    <ele>4919.9</ele>
    <time>2026-06-22T23:05:05Z</time>
   </trkpt>
   <trkpt lat="-3.0907300" lon="37.3747430">
    <ele>4919.9</ele>
    <time>2026-06-22T23:05:06Z</time>
   </trkpt>
   <trkpt lat="-3.0907290" lon="37.3747390">
    <ele>4920.0</ele>
    <time>2026-06-22T23:05:07Z</time>
   </trkpt>
   <trkpt lat="-3.0907280" lon="37.3747390">
    <ele>4920.0</ele>
    <time>2026-06-22T23:05:08Z</time>
   </trkpt>
   <trkpt lat="-3.0907270" lon="37.3747340">
    <ele>4920.1</ele>
    <time>2026-06-22T23:05:09Z</time>
   </trkpt>
   <trkpt lat="-3.0907270" lon="37.3747350">
    <ele>4920.1</ele>
    <time>2026-06-22T23:05:10Z</time>
   </trkpt>
   <trkpt lat="-3.0907270" lon="37.3747350">
    <ele>4920.1</ele>
    <time>2026-06-22T23:05:11Z</time>
   </trkpt>
   <trkpt lat="-3.0907260" lon="37.3747350">
    <ele>4920.2</ele>
    <time>2026-06-22T23:05:12Z</time>
   </trkpt>
   <trkpt lat="-3.0907240" lon="37.3747360">
    <ele>4920.2</ele>
    <time>2026-06-22T23:05:13Z</time>
   </trkpt>
   <trkpt lat="-3.0907230" lon="37.3747350">
    <ele>4920.2</ele>
    <time>2026-06-22T23:05:14Z</time>
   </trkpt>
   <trkpt lat="-3.0907230" lon="37.3747360">
    <ele>4920.3</ele>
    <time>2026-06-22T23:05:15Z</time>
   </trkpt>
   <trkpt lat="-3.0907220" lon="37.3747360">
    <ele>4920.3</ele>
    <time>2026-06-22T23:05:16Z</time>
   </trkpt>
   <trkpt lat="-3.0907220" lon="37.3747360">
    <ele>4920.3</ele>
    <time>2026-06-22T23:05:17Z</time>
   </trkpt>
   <trkpt lat="-3.0907220" lon="37.3747350">
    <ele>4920.3</ele>
    <time>2026-06-22T23:05:18Z</time>
   </trkpt>
   <trkpt lat="-3.0907220" lon="37.3747340">
    <ele>4920.3</ele>
    <time>2026-06-22T23:05:19Z</time>
   </trkpt>
   <trkpt lat="-3.0907240" lon="37.3747320">
    <ele>4920.4</ele>
    <time>2026-06-22T23:05:20Z</time>
   </trkpt>
   <trkpt lat="-3.0907260" lon="37.3747290">
    <ele>4920.4</ele>
    <time>2026-06-22T23:05:21Z</time>
   </trkpt>
   <trkpt lat="-3.0907280" lon="37.3747280">
    <ele>4920.5</ele>
    <time>2026-06-22T23:05:22Z</time>
   </trkpt>
   <trkpt lat="-3.0907290" lon="37.3747280">
    <ele>4920.5</ele>
    <time>2026-06-22T23:05:23Z</time>
   </trkpt>
   <trkpt lat="-3.0907290" lon="37.3747290">
    <ele>4920.5</ele>
    <time>2026-06-22T23:05:24Z</time>
   </trkpt>
   <trkpt lat="-3.0907280" lon="37.3747280">
    <ele>4920.5</ele>
    <time>2026-06-22T23:05:25Z</time>
   </trkpt>
   <trkpt lat="-3.0907280" lon="37.3747280">
    <ele>4920.5</ele>
    <time>2026-06-22T23:05:26Z</time>
   </trkpt>
   <trkpt lat="-3.0907280" lon="37.3747290">
    <ele>4920.6</ele>
    <time>2026-06-22T23:05:27Z</time>
   </trkpt>
   <trkpt lat="-3.0907290" lon="37.3747280">
    <ele>4920.6</ele>
    <time>2026-06-22T23:05:28Z</time>
   </trkpt>
   <trkpt lat="-3.0907290" lon="37.3747280">
    <ele>4920.6</ele>
    <time>2026-06-22T23:05:29Z</time>
   </trkpt>
   <trkpt lat="-3.0907280" lon="37.3747290">
    <ele>4920.6</ele>
    <time>2026-06-22T23:05:30Z</time>
   </trkpt>
   <trkpt lat="-3.0907240" lon="37.3747310">
    <ele>4920.7</ele>
    <time>2026-06-22T23:05:31Z</time>
   </trkpt>
   <trkpt lat="-3.0907230" lon="37.3747360">
    <ele>4920.8</ele>
    <time>2026-06-22T23:05:32Z</time>
   </trkpt>
   <trkpt lat="-3.0907230" lon="37.3747310">
    <ele>4920.9</ele>
    <time>2026-06-22T23:05:33Z</time>
   </trkpt>
   <trkpt lat="-3.0907240" lon="37.3747310">
    <ele>4920.9</ele>
    <time>2026-06-22T23:05:34Z</time>
   </trkpt>
   <trkpt lat="-3.0907240" lon="37.3747350">
    <ele>4921.0</ele>
    <time>2026-06-22T23:05:35Z</time>
   </trkpt>
   <trkpt lat="-3.0907230" lon="37.3747340">
    <ele>4921.0</ele>
    <time>2026-06-22T23:05:36Z</time>
   </trkpt>
   <trkpt lat="-3.0907240" lon="37.3747340">
    <ele>4921.0</ele>
    <time>2026-06-22T23:05:37Z</time>
   </trkpt>
   <trkpt lat="-3.0907240" lon="37.3747350">
    <ele>4921.1</ele>
    <time>2026-06-22T23:05:38Z</time>
   </trkpt>
   <trkpt lat="-3.0907240" lon="37.3747340">
    <ele>4921.1</ele>
    <time>2026-06-22T23:05:39Z</time>
   </trkpt>
   <trkpt lat="-3.0907230" lon="37.3747320">
    <ele>4921.1</ele>
    <time>2026-06-22T23:05:40Z</time>
   </trkpt>
   <trkpt lat="-3.0907240" lon="37.3747330">
    <ele>4921.1</ele>
    <time>2026-06-22T23:05:41Z</time>
   </trkpt>
   <trkpt lat="-3.0907210" lon="37.3747330">
    <ele>4921.2</ele>
    <time>2026-06-22T23:05:42Z</time>
   </trkpt>
   <trkpt lat="-3.0907220" lon="37.3747350">
    <ele>4921.2</ele>
    <time>2026-06-22T23:05:43Z</time>
   </trkpt>
   <trkpt lat="-3.0907230" lon="37.3747360">
    <ele>4921.3</ele>
    <time>2026-06-22T23:05:44Z</time>
   </trkpt>
   <trkpt lat="-3.0907230" lon="37.3747340">
    <ele>4921.3</ele>
    <time>2026-06-22T23:05:45Z</time>
   </trkpt>
   <trkpt lat="-3.0907230" lon="37.3747340">
    <ele>4921.3</ele>
    <time>2026-06-22T23:05:46Z</time>
   </trkpt>
   <trkpt lat="-3.0907230" lon="37.3747340">
    <ele>4921.3</ele>
    <time>2026-06-22T23:05:47Z</time>
   </trkpt>
   <trkpt lat="-3.0907230" lon="37.3747340">
    <ele>4921.3</ele>
    <time>2026-06-22T23:05:48Z</time>
   </trkpt>
   <trkpt lat="-3.0907240" lon="37.3747350">
    <ele>4921.3</ele>
    <time>2026-06-22T23:05:49Z</time>
   </trkpt>
   <trkpt lat="-3.0907240" lon="37.3747350">
    <ele>4921.3</ele>
    <time>2026-06-22T23:05:50Z</time>
   </trkpt>
   <trkpt lat="-3.0907240" lon="37.3747340">
    <ele>4921.4</ele>
    <time>2026-06-22T23:05:51Z</time>
   </trkpt>
   <trkpt lat="-3.0907220" lon="37.3747300">
    <ele>4921.4</ele>
    <time>2026-06-22T23:05:52Z</time>
   </trkpt>
   <trkpt lat="-3.0907240" lon="37.3747330">
    <ele>4921.5</ele>
    <time>2026-06-22T23:05:53Z</time>
   </trkpt>
   <trkpt lat="-3.0907240" lon="37.3747330">
    <ele>4921.5</ele>
    <time>2026-06-22T23:05:54Z</time>
   </trkpt>
   <trkpt lat="-3.0907250" lon="37.3747320">
    <ele>4921.5</ele>
    <time>2026-06-22T23:05:55Z</time>
   </trkpt>
   <trkpt lat="-3.0907250" lon="37.3747320">
    <ele>4921.5</ele>
    <time>2026-06-22T23:05:56Z</time>
   </trkpt>
   <trkpt lat="-3.0907270" lon="37.3747320">
    <ele>4921.6</ele>
    <time>2026-06-22T23:05:57Z</time>
   </trkpt>
   <trkpt lat="-3.0907270" lon="37.3747320">
    <ele>4921.6</ele>
    <time>2026-06-22T23:05:58Z</time>
   </trkpt>
   <trkpt lat="-3.0907270" lon="37.3747310">
    <ele>4921.6</ele>
    <time>2026-06-22T23:05:59Z</time>
   </trkpt>
   <trkpt lat="-3.0907270" lon="37.3747320">
    <ele>4921.6</ele>
    <time>2026-06-22T23:06:00Z</time>
   </trkpt>
   <trkpt lat="-3.0907270" lon="37.3747310">
    <ele>4921.6</ele>
    <time>2026-06-22T23:06:01Z</time>
   </trkpt>
   <trkpt lat="-3.0907280" lon="37.3747310">
    <ele>4921.7</ele>
    <time>2026-06-22T23:06:02Z</time>
   </trkpt>
   <trkpt lat="-3.0907280" lon="37.3747310">
    <ele>4921.7</ele>
    <time>2026-06-22T23:06:03Z</time>
   </trkpt>
   <trkpt lat="-3.0907280" lon="37.3747310">
    <ele>4921.7</ele>
    <time>2026-06-22T23:06:04Z</time>
   </trkpt>
   <trkpt lat="-3.0907270" lon="37.3747310">
    <ele>4921.7</ele>
    <time>2026-06-22T23:06:05Z</time>
   </trkpt>
   <trkpt lat="-3.0907270" lon="37.3747310">
    <ele>4921.7</ele>
    <time>2026-06-22T23:06:06Z</time>
   </trkpt>
   <trkpt lat="-3.0907270" lon="37.3747310">
    <ele>4921.7</ele>
    <time>2026-06-22T23:06:07Z</time>
   </trkpt>
   <trkpt lat="-3.0907240" lon="37.3747300">
    <ele>4921.7</ele>
    <time>2026-06-22T23:06:08Z</time>
   </trkpt>
   <trkpt lat="-3.0907240" lon="37.3747300">
    <ele>4921.7</ele>
    <time>2026-06-22T23:06:09Z</time>
   </trkpt>
   <trkpt lat="-3.0907240" lon="37.3747290">
    <ele>4921.8</ele>
    <time>2026-06-22T23:06:10Z</time>
   </trkpt>
   <trkpt lat="-3.0907240" lon="37.3747290">
    <ele>4921.8</ele>
    <time>2026-06-22T23:06:11Z</time>
   </trkpt>
   <trkpt lat="-3.0907240" lon="37.3747290">
    <ele>4921.8</ele>
    <time>2026-06-22T23:06:12Z</time>
   </trkpt>
   <trkpt lat="-3.0907240" lon="37.3747280">
    <ele>4921.8</ele>
    <time>2026-06-22T23:06:13Z</time>
   </trkpt>
   <trkpt lat="-3.0907240" lon="37.3747290">
    <ele>4921.8</ele>
    <time>2026-06-22T23:06:14Z</time>
   </trkpt>
   <trkpt lat="-3.0907240" lon="37.3747290">
    <ele>4921.8</ele>
    <time>2026-06-22T23:06:15Z</time>
   </trkpt>
   <trkpt lat="-3.0907240" lon="37.3747290">
    <ele>4921.8</ele>
    <time>2026-06-22T23:06:16Z</time>
   </trkpt>
   <trkpt lat="-3.0907240" lon="37.3747300">
    <ele>4921.8</ele>
    <time>2026-06-22T23:06:17Z</time>
   </trkpt>
   <trkpt lat="-3.0907240" lon="37.3747300">
    <ele>4921.8</ele>
    <time>2026-06-22T23:06:18Z</time>
   </trkpt>
   <trkpt lat="-3.0907240" lon="37.3747300">
    <ele>4921.8</ele>
    <time>2026-06-22T23:06:19Z</time>
   </trkpt>
   <trkpt lat="-3.0907250" lon="37.3747290">
    <ele>4921.8</ele>
    <time>2026-06-22T23:06:20Z</time>
   </trkpt>
   <trkpt lat="-3.0907240" lon="37.3747280">
    <ele>4921.9</ele>
    <time>2026-06-22T23:06:21Z</time>
   </trkpt>
   <trkpt lat="-3.0907240" lon="37.3747280">
    <ele>4921.9</ele>
    <time>2026-06-22T23:06:22Z</time>
   </trkpt>
   <trkpt lat="-3.0907230" lon="37.3747280">
    <ele>4921.9</ele>
    <time>2026-06-22T23:06:23Z</time>
   </trkpt>
   <trkpt lat="-3.0907230" lon="37.3747280">
    <ele>4921.9</ele>
    <time>2026-06-22T23:06:24Z</time>
   </trkpt>
   <trkpt lat="-3.0907240" lon="37.3747290">
    <ele>4921.9</ele>
    <time>2026-06-22T23:06:25Z</time>
   </trkpt>
   <trkpt lat="-3.0907240" lon="37.3747290">
    <ele>4921.9</ele>
    <time>2026-06-22T23:06:26Z</time>
   </trkpt>
   <trkpt lat="-3.0907230" lon="37.3747290">
    <ele>4921.9</ele>
    <time>2026-06-22T23:06:27Z</time>
   </trkpt>
   <trkpt lat="-3.0907230" lon="37.3747290">
    <ele>4921.9</ele>
    <time>2026-06-22T23:06:28Z</time>
   </trkpt>
   <trkpt lat="-3.0907250" lon="37.3747290">
    <ele>4922.0</ele>
    <time>2026-06-22T23:06:29Z</time>
   </trkpt>
   <trkpt lat="-3.0907260" lon="37.3747300">
    <ele>4922.0</ele>
    <time>2026-06-22T23:06:30Z</time>
   </trkpt>
   <trkpt lat="-3.0907260" lon="37.3747300">
    <ele>4922.0</ele>
    <time>2026-06-22T23:06:31Z</time>
   </trkpt>
   <trkpt lat="-3.0907270" lon="37.3747300">
    <ele>4922.0</ele>
    <time>2026-06-22T23:06:32Z</time>
   </trkpt>
   <trkpt lat="-3.0907270" lon="37.3747300">
    <ele>4922.0</ele>
    <time>2026-06-22T23:06:33Z</time>
   </trkpt>
   <trkpt lat="-3.0907270" lon="37.3747310">
    <ele>4922.0</ele>
    <time>2026-06-22T23:06:34Z</time>
   </trkpt>
   <trkpt lat="-3.0907270" lon="37.3747300">
    <ele>4922.1</ele>
    <time>2026-06-22T23:06:35Z</time>
   </trkpt>
   <trkpt lat="-3.0907260" lon="37.3747290">
    <ele>4922.1</ele>
    <time>2026-06-22T23:06:36Z</time>
   </trkpt>
   <trkpt lat="-3.0907260" lon="37.3747290">
    <ele>4922.1</ele>
    <time>2026-06-22T23:06:37Z</time>
   </trkpt>
   <trkpt lat="-3.0907250" lon="37.3747310">
    <ele>4922.1</ele>
    <time>2026-06-22T23:06:38Z</time>
   </trkpt>
   <trkpt lat="-3.0907250" lon="37.3747290">
    <ele>4922.2</ele>
    <time>2026-06-22T23:06:39Z</time>
   </trkpt>
   <trkpt lat="-3.0907260" lon="37.3747300">
    <ele>4922.2</ele>
    <time>2026-06-22T23:06:40Z</time>
   </trkpt>
   <trkpt lat="-3.0907250" lon="37.3747290">
    <ele>4922.2</ele>
    <time>2026-06-22T23:06:41Z</time>
   </trkpt>
   <trkpt lat="-3.0907260" lon="37.3747290">
    <ele>4922.2</ele>
    <time>2026-06-22T23:06:42Z</time>
   </trkpt>
   <trkpt lat="-3.0907260" lon="37.3747290">
    <ele>4922.2</ele>
    <time>2026-06-22T23:06:43Z</time>
   </trkpt>
   <trkpt lat="-3.0907260" lon="37.3747290">
    <ele>4922.2</ele>
    <time>2026-06-22T23:06:44Z</time>
   </trkpt>
   <trkpt lat="-3.0907250" lon="37.3747280">
    <ele>4922.3</ele>
    <time>2026-06-22T23:06:45Z</time>
   </trkpt>
   <trkpt lat="-3.0907270" lon="37.3747300">
    <ele>4922.3</ele>
    <time>2026-06-22T23:06:46Z</time>
   </trkpt>
   <trkpt lat="-3.0907270" lon="37.3747290">
    <ele>4922.3</ele>
    <time>2026-06-22T23:06:47Z</time>
   </trkpt>
   <trkpt lat="-3.0907250" lon="37.3747290">
    <ele>4922.4</ele>
    <time>2026-06-22T23:06:48Z</time>
   </trkpt>
   <trkpt lat="-3.0907250" lon="37.3747320">
    <ele>4922.4</ele>
    <time>2026-06-22T23:06:49Z</time>
   </trkpt>
   <trkpt lat="-3.0907250" lon="37.3747300">
    <ele>4922.5</ele>
    <time>2026-06-22T23:06:50Z</time>
   </trkpt>
   <trkpt lat="-3.0907270" lon="37.3747310">
    <ele>4922.5</ele>
    <time>2026-06-22T23:06:51Z</time>
   </trkpt>
   <trkpt lat="-3.0907260" lon="37.3747320">
    <ele>4922.5</ele>
    <time>2026-06-22T23:06:52Z</time>
   </trkpt>
   <trkpt lat="-3.0907250" lon="37.3747300">
    <ele>4922.6</ele>
    <time>2026-06-22T23:06:53Z</time>
   </trkpt>
   <trkpt lat="-3.0907250" lon="37.3747300">
    <ele>4922.6</ele>
    <time>2026-06-22T23:06:54Z</time>
   </trkpt>
   <trkpt lat="-3.0907250" lon="37.3747310">
    <ele>4922.6</ele>
    <time>2026-06-22T23:06:55Z</time>
   </trkpt>
   <trkpt lat="-3.0907250" lon="37.3747310">
    <ele>4922.6</ele>
    <time>2026-06-22T23:06:56Z</time>
   </trkpt>
   <trkpt lat="-3.0907250" lon="37.3747310">
    <ele>4922.6</ele>
    <time>2026-06-22T23:06:57Z</time>
   </trkpt>
   <trkpt lat="-3.0907250" lon="37.3747320">
    <ele>4922.6</ele>
    <time>2026-06-22T23:06:58Z</time>
   </trkpt>
   <trkpt lat="-3.0907250" lon="37.3747320">
    <ele>4922.6</ele>
    <time>2026-06-22T23:06:59Z</time>
   </trkpt>
   <trkpt lat="-3.0907250" lon="37.3747320">
    <ele>4922.6</ele>
    <time>2026-06-22T23:07:00Z</time>
   </trkpt>
   <trkpt lat="-3.0907250" lon="37.3747330">
    <ele>4922.6</ele>
    <time>2026-06-22T23:07:01Z</time>
   </trkpt>
   <trkpt lat="-3.0907260" lon="37.3747330">
    <ele>4922.7</ele>
    <time>2026-06-22T23:07:02Z</time>
   </trkpt>
   <trkpt lat="-3.0907250" lon="37.3747330">
    <ele>4922.7</ele>
    <time>2026-06-22T23:07:03Z</time>
   </trkpt>
   <trkpt lat="-3.0907250" lon="37.3747330">
    <ele>4922.7</ele>
    <time>2026-06-22T23:07:04Z</time>
   </trkpt>
   <trkpt lat="-3.0907250" lon="37.3747330">
    <ele>4922.7</ele>
    <time>2026-06-22T23:07:05Z</time>
   </trkpt>
   <trkpt lat="-3.0907250" lon="37.3747330">
    <ele>4922.7</ele>
    <time>2026-06-22T23:07:06Z</time>
   </trkpt>
   <trkpt lat="-3.0907250" lon="37.3747320">
    <ele>4922.7</ele>
    <time>2026-06-22T23:07:07Z</time>
   </trkpt>
   <trkpt lat="-3.0907250" lon="37.3747330">
    <ele>4922.7</ele>
    <time>2026-06-22T23:07:08Z</time>
   </trkpt>
   <trkpt lat="-3.0907250" lon="37.3747320">
    <ele>4922.7</ele>
    <time>2026-06-22T23:07:09Z</time>
   </trkpt>
   <trkpt lat="-3.0907250" lon="37.3747320">
    <ele>4922.7</ele>
    <time>2026-06-22T23:07:10Z</time>
   </trkpt>
   <trkpt lat="-3.0907250" lon="37.3747320">
    <ele>4922.7</ele>
    <time>2026-06-22T23:07:11Z</time>
   </trkpt>
   <trkpt lat="-3.0907240" lon="37.3747320">
    <ele>4922.8</ele>
    <time>2026-06-22T23:07:12Z</time>
   </trkpt>
   <trkpt lat="-3.0907240" lon="37.3747310">
    <ele>4922.8</ele>
    <time>2026-06-22T23:07:13Z</time>
   </trkpt>
   <trkpt lat="-3.0907240" lon="37.3747320">
    <ele>4922.8</ele>
    <time>2026-06-22T23:07:14Z</time>
   </trkpt>
   <trkpt lat="-3.0907240" lon="37.3747320">
    <ele>4922.8</ele>
    <time>2026-06-22T23:07:15Z</time>
   </trkpt>
   <trkpt lat="-3.0907240" lon="37.3747320">
    <ele>4922.8</ele>
    <time>2026-06-22T23:07:16Z</time>
   </trkpt>
   <trkpt lat="-3.0907230" lon="37.3747320">
    <ele>4922.8</ele>
    <time>2026-06-22T23:07:17Z</time>
   </trkpt>
   <trkpt lat="-3.0907230" lon="37.3747320">
    <ele>4922.8</ele>
    <time>2026-06-22T23:07:18Z</time>
   </trkpt>
   <trkpt lat="-3.0907220" lon="37.3747320">
    <ele>4922.8</ele>
    <time>2026-06-22T23:07:19Z</time>
   </trkpt>
   <trkpt lat="-3.0907220" lon="37.3747320">
    <ele>4922.8</ele>
    <time>2026-06-22T23:07:20Z</time>
   </trkpt>
   <trkpt lat="-3.0907210" lon="37.3747290">
    <ele>4922.9</ele>
    <time>2026-06-22T23:07:21Z</time>
   </trkpt>
   <trkpt lat="-3.0907200" lon="37.3747210">
    <ele>4923.0</ele>
    <time>2026-06-22T23:07:22Z</time>
   </trkpt>
   <trkpt lat="-3.0907180" lon="37.3747170">
    <ele>4923.1</ele>
    <time>2026-06-22T23:07:23Z</time>
   </trkpt>
   <trkpt lat="-3.0907160" lon="37.3747100">
    <ele>4923.3</ele>
    <time>2026-06-22T23:07:24Z</time>
   </trkpt>
   <trkpt lat="-3.0907160" lon="37.3747090">
    <ele>4923.3</ele>
    <time>2026-06-22T23:07:25Z</time>
   </trkpt>
   <trkpt lat="-3.0907130" lon="37.3747050">
    <ele>4923.4</ele>
    <time>2026-06-22T23:07:26Z</time>
   </trkpt>
   <trkpt lat="-3.0907100" lon="37.3747030">
    <ele>4923.5</ele>
    <time>2026-06-22T23:07:27Z</time>
   </trkpt>
   <trkpt lat="-3.0907070" lon="37.3746980">
    <ele>4923.6</ele>
    <time>2026-06-22T23:07:28Z</time>
   </trkpt>
   <trkpt lat="-3.0907050" lon="37.3746950">
    <ele>4923.6</ele>
    <time>2026-06-22T23:07:29Z</time>
   </trkpt>
   <trkpt lat="-3.0907020" lon="37.3746940">
    <ele>4923.7</ele>
    <time>2026-06-22T23:07:30Z</time>
   </trkpt>
   <trkpt lat="-3.0906980" lon="37.3746920">
    <ele>4923.8</ele>
    <time>2026-06-22T23:07:31Z</time>
   </trkpt>
   <trkpt lat="-3.0906930" lon="37.3746910">
    <ele>4923.9</ele>
    <time>2026-06-22T23:07:32Z</time>
   </trkpt>
   <trkpt lat="-3.0906920" lon="37.3746880">
    <ele>4924.0</ele>
    <time>2026-06-22T23:07:33Z</time>
   </trkpt>
   <trkpt lat="-3.0906900" lon="37.3746860">
    <ele>4924.0</ele>
    <time>2026-06-22T23:07:34Z</time>
   </trkpt>
   <trkpt lat="-3.0906890" lon="37.3746860">
    <ele>4924.0</ele>
    <time>2026-06-22T23:07:35Z</time>
   </trkpt>
   <trkpt lat="-3.0906870" lon="37.3746840">
    <ele>4924.1</ele>
    <time>2026-06-22T23:07:36Z</time>
   </trkpt>
   <trkpt lat="-3.0906830" lon="37.3746820">
    <ele>4924.2</ele>
    <time>2026-06-22T23:07:37Z</time>
   </trkpt>
   <trkpt lat="-3.0906830" lon="37.3746810">
    <ele>4924.2</ele>
    <time>2026-06-22T23:07:38Z</time>
   </trkpt>
   <trkpt lat="-3.0906790" lon="37.3746790">
    <ele>4924.3</ele>
    <time>2026-06-22T23:07:39Z</time>
   </trkpt>
   <trkpt lat="-3.0906780" lon="37.3746750">
    <ele>4924.4</ele>
    <time>2026-06-22T23:07:40Z</time>
   </trkpt>
   <trkpt lat="-3.0906770" lon="37.3746730">
    <ele>4924.4</ele>
    <time>2026-06-22T23:07:41Z</time>
   </trkpt>
   <trkpt lat="-3.0906740" lon="37.3746700">
    <ele>4924.5</ele>
    <time>2026-06-22T23:07:42Z</time>
   </trkpt>
   <trkpt lat="-3.0906720" lon="37.3746680">
    <ele>4924.6</ele>
    <time>2026-06-22T23:07:43Z</time>
   </trkpt>
   <trkpt lat="-3.0906710" lon="37.3746680">
    <ele>4924.6</ele>
    <time>2026-06-22T23:07:44Z</time>
   </trkpt>
   <trkpt lat="-3.0906670" lon="37.3746650">
    <ele>4924.7</ele>
    <time>2026-06-22T23:07:45Z</time>
   </trkpt>
   <trkpt lat="-3.0906660" lon="37.3746660">
    <ele>4924.7</ele>
    <time>2026-06-22T23:07:46Z</time>
   </trkpt>
   <trkpt lat="-3.0906630" lon="37.3746660">
    <ele>4924.8</ele>
    <time>2026-06-22T23:07:47Z</time>
   </trkpt>
   <trkpt lat="-3.0906630" lon="37.3746660">
    <ele>4924.8</ele>
    <time>2026-06-22T23:07:48Z</time>
   </trkpt>
   <trkpt lat="-3.0906610" lon="37.3746670">
    <ele>4924.8</ele>
    <time>2026-06-22T23:07:49Z</time>
   </trkpt>
   <trkpt lat="-3.0906600" lon="37.3746670">
    <ele>4924.9</ele>
    <time>2026-06-22T23:07:50Z</time>
   </trkpt>
   <trkpt lat="-3.0906570" lon="37.3746650">
    <ele>4924.9</ele>
    <time>2026-06-22T23:07:51Z</time>
   </trkpt>
   <trkpt lat="-3.0906540" lon="37.3746640">
    <ele>4925.0</ele>
    <time>2026-06-22T23:07:52Z</time>
   </trkpt>
   <trkpt lat="-3.0906510" lon="37.3746610">
    <ele>4925.1</ele>
    <time>2026-06-22T23:07:53Z</time>
   </trkpt>
   <trkpt lat="-3.0906510" lon="37.3746610">
    <ele>4925.1</ele>
    <time>2026-06-22T23:07:54Z</time>
   </trkpt>
   <trkpt lat="-3.0906480" lon="37.3746580">
    <ele>4925.2</ele>
    <time>2026-06-22T23:07:55Z</time>
   </trkpt>
   <trkpt lat="-3.0906470" lon="37.3746580">
    <ele>4925.2</ele>
    <time>2026-06-22T23:07:56Z</time>
   </trkpt>
   <trkpt lat="-3.0906440" lon="37.3746540">
    <ele>4925.3</ele>
    <time>2026-06-22T23:07:57Z</time>
   </trkpt>
   <trkpt lat="-3.0906420" lon="37.3746540">
    <ele>4925.3</ele>
    <time>2026-06-22T23:07:58Z</time>
   </trkpt>
   <trkpt lat="-3.0906380" lon="37.3746500">
    <ele>4925.4</ele>
    <time>2026-06-22T23:07:59Z</time>
   </trkpt>
   <trkpt lat="-3.0906380" lon="37.3746500">
    <ele>4925.4</ele>
    <time>2026-06-22T23:08:00Z</time>
   </trkpt>
   <trkpt lat="-3.0906360" lon="37.3746470">
    <ele>4925.5</ele>
    <time>2026-06-22T23:08:01Z</time>
   </trkpt>
   <trkpt lat="-3.0906350" lon="37.3746460">
    <ele>4925.5</ele>
    <time>2026-06-22T23:08:02Z</time>
   </trkpt>
   <trkpt lat="-3.0906330" lon="37.3746450">
    <ele>4925.6</ele>
    <time>2026-06-22T23:08:03Z</time>
   </trkpt>
   <trkpt lat="-3.0906290" lon="37.3746380">
    <ele>4925.8</ele>
    <time>2026-06-22T23:08:04Z</time>
   </trkpt>
   <trkpt lat="-3.0906290" lon="37.3746390">
    <ele>4925.8</ele>
    <time>2026-06-22T23:08:05Z</time>
   </trkpt>
   <trkpt lat="-3.0906270" lon="37.3746370">
    <ele>4925.8</ele>
    <time>2026-06-22T23:08:06Z</time>
   </trkpt>
   <trkpt lat="-3.0906260" lon="37.3746370">
    <ele>4925.8</ele>
    <time>2026-06-22T23:08:07Z</time>
   </trkpt>
   <trkpt lat="-3.0906240" lon="37.3746330">
    <ele>4925.9</ele>
    <time>2026-06-22T23:08:08Z</time>
   </trkpt>
   <trkpt lat="-3.0906230" lon="37.3746310">
    <ele>4926.0</ele>
    <time>2026-06-22T23:08:09Z</time>
   </trkpt>
   <trkpt lat="-3.0906220" lon="37.3746270">
    <ele>4926.1</ele>
    <time>2026-06-22T23:08:10Z</time>
   </trkpt>
   <trkpt lat="-3.0906220" lon="37.3746270">
    <ele>4926.1</ele>
    <time>2026-06-22T23:08:11Z</time>
   </trkpt>
   <trkpt lat="-3.0906210" lon="37.3746270">
    <ele>4926.1</ele>
    <time>2026-06-22T23:08:12Z</time>
   </trkpt>
   <trkpt lat="-3.0906200" lon="37.3746230">
    <ele>4926.2</ele>
    <time>2026-06-22T23:08:13Z</time>
   </trkpt>
   <trkpt lat="-3.0906150" lon="37.3746200">
    <ele>4926.3</ele>
    <time>2026-06-22T23:08:14Z</time>
   </trkpt>
   <trkpt lat="-3.0906130" lon="37.3746170">
    <ele>4926.4</ele>
    <time>2026-06-22T23:08:15Z</time>
   </trkpt>
   <trkpt lat="-3.0906110" lon="37.3746170">
    <ele>4926.4</ele>
    <time>2026-06-22T23:08:16Z</time>
   </trkpt>
   <trkpt lat="-3.0906110" lon="37.3746160">
    <ele>4926.5</ele>
    <time>2026-06-22T23:08:17Z</time>
   </trkpt>
   <trkpt lat="-3.0906100" lon="37.3746140">
    <ele>4926.5</ele>
    <time>2026-06-22T23:08:18Z</time>
   </trkpt>
   <trkpt lat="-3.0906040" lon="37.3746090">
    <ele>4926.7</ele>
    <time>2026-06-22T23:08:19Z</time>
   </trkpt>
   <trkpt lat="-3.0906030" lon="37.3746090">
    <ele>4926.7</ele>
    <time>2026-06-22T23:08:20Z</time>
   </trkpt>
   <trkpt lat="-3.0906000" lon="37.3746080">
    <ele>4926.8</ele>
    <time>2026-06-22T23:08:21Z</time>
   </trkpt>
   <trkpt lat="-3.0905980" lon="37.3746030">
    <ele>4926.9</ele>
    <time>2026-06-22T23:08:22Z</time>
   </trkpt>
   <trkpt lat="-3.0905970" lon="37.3746030">
    <ele>4926.9</ele>
    <time>2026-06-22T23:08:23Z</time>
   </trkpt>
   <trkpt lat="-3.0905910" lon="37.3746010">
    <ele>4927.0</ele>
    <time>2026-06-22T23:08:24Z</time>
   </trkpt>
   <trkpt lat="-3.0905880" lon="37.3746010">
    <ele>4927.1</ele>
    <time>2026-06-22T23:08:25Z</time>
   </trkpt>
   <trkpt lat="-3.0905880" lon="37.3745990">
    <ele>4927.1</ele>
    <time>2026-06-22T23:08:26Z</time>
   </trkpt>
   <trkpt lat="-3.0905840" lon="37.3745950">
    <ele>4927.3</ele>
    <time>2026-06-22T23:08:27Z</time>
   </trkpt>
   <trkpt lat="-3.0905850" lon="37.3745900">
    <ele>4927.4</ele>
    <time>2026-06-22T23:08:28Z</time>
   </trkpt>
   <trkpt lat="-3.0905850" lon="37.3745890">
    <ele>4927.4</ele>
    <time>2026-06-22T23:08:29Z</time>
   </trkpt>
   <trkpt lat="-3.0905840" lon="37.3745860">
    <ele>4927.5</ele>
    <time>2026-06-22T23:08:30Z</time>
   </trkpt>
   <trkpt lat="-3.0905840" lon="37.3745850">
    <ele>4927.5</ele>
    <time>2026-06-22T23:08:31Z</time>
   </trkpt>
   <trkpt lat="-3.0905840" lon="37.3745800">
    <ele>4927.6</ele>
    <time>2026-06-22T23:08:32Z</time>
   </trkpt>
   <trkpt lat="-3.0905850" lon="37.3745800">
    <ele>4927.6</ele>
    <time>2026-06-22T23:08:33Z</time>
   </trkpt>
   <trkpt lat="-3.0905850" lon="37.3745790">
    <ele>4927.6</ele>
    <time>2026-06-22T23:08:34Z</time>
   </trkpt>
   <trkpt lat="-3.0905840" lon="37.3745760">
    <ele>4927.7</ele>
    <time>2026-06-22T23:08:35Z</time>
   </trkpt>
   <trkpt lat="-3.0905840" lon="37.3745730">
    <ele>4927.8</ele>
    <time>2026-06-22T23:08:36Z</time>
   </trkpt>
   <trkpt lat="-3.0905850" lon="37.3745710">
    <ele>4927.8</ele>
    <time>2026-06-22T23:08:37Z</time>
   </trkpt>
   <trkpt lat="-3.0905840" lon="37.3745700">
    <ele>4927.8</ele>
    <time>2026-06-22T23:08:38Z</time>
   </trkpt>
   <trkpt lat="-3.0905820" lon="37.3745660">
    <ele>4927.9</ele>
    <time>2026-06-22T23:08:39Z</time>
   </trkpt>
   <trkpt lat="-3.0905830" lon="37.3745660">
    <ele>4927.9</ele>
    <time>2026-06-22T23:08:40Z</time>
   </trkpt>
   <trkpt lat="-3.0905830" lon="37.3745620">
    <ele>4928.0</ele>
    <time>2026-06-22T23:08:41Z</time>
   </trkpt>
   <trkpt lat="-3.0905820" lon="37.3745610">
    <ele>4928.1</ele>
    <time>2026-06-22T23:08:42Z</time>
   </trkpt>
   <trkpt lat="-3.0905810" lon="37.3745600">
    <ele>4928.1</ele>
    <time>2026-06-22T23:08:43Z</time>
   </trkpt>
   <trkpt lat="-3.0905800" lon="37.3745550">
    <ele>4928.2</ele>
    <time>2026-06-22T23:08:44Z</time>
   </trkpt>
   <trkpt lat="-3.0905790" lon="37.3745540">
    <ele>4928.2</ele>
    <time>2026-06-22T23:08:45Z</time>
   </trkpt>
   <trkpt lat="-3.0905760" lon="37.3745530">
    <ele>4928.3</ele>
    <time>2026-06-22T23:08:46Z</time>
   </trkpt>
   <trkpt lat="-3.0905770" lon="37.3745520">
    <ele>4928.3</ele>
    <time>2026-06-22T23:08:47Z</time>
   </trkpt>
   <trkpt lat="-3.0905760" lon="37.3745500">
    <ele>4928.4</ele>
    <time>2026-06-22T23:08:48Z</time>
   </trkpt>
   <trkpt lat="-3.0905750" lon="37.3745480">
    <ele>4928.4</ele>
    <time>2026-06-22T23:08:49Z</time>
   </trkpt>
   <trkpt lat="-3.0905740" lon="37.3745490">
    <ele>4928.5</ele>
    <time>2026-06-22T23:08:50Z</time>
   </trkpt>
   <trkpt lat="-3.0905740" lon="37.3745430">
    <ele>4928.6</ele>
    <time>2026-06-22T23:08:51Z</time>
   </trkpt>
   <trkpt lat="-3.0905750" lon="37.3745410">
    <ele>4928.6</ele>
    <time>2026-06-22T23:08:52Z</time>
   </trkpt>
   <trkpt lat="-3.0905750" lon="37.3745400">
    <ele>4928.7</ele>
    <time>2026-06-22T23:08:53Z</time>
   </trkpt>
   <trkpt lat="-3.0905750" lon="37.3745390">
    <ele>4928.7</ele>
    <time>2026-06-22T23:08:54Z</time>
   </trkpt>
   <trkpt lat="-3.0905740" lon="37.3745350">
    <ele>4928.8</ele>
    <time>2026-06-22T23:08:55Z</time>
   </trkpt>
   <trkpt lat="-3.0905740" lon="37.3745330">
    <ele>4928.8</ele>
    <time>2026-06-22T23:08:56Z</time>
   </trkpt>
   <trkpt lat="-3.0905730" lon="37.3745300">
    <ele>4928.9</ele>
    <time>2026-06-22T23:08:57Z</time>
   </trkpt>
   <trkpt lat="-3.0905730" lon="37.3745310">
    <ele>4928.9</ele>
    <time>2026-06-22T23:08:58Z</time>
   </trkpt>
   <trkpt lat="-3.0905720" lon="37.3745250">
    <ele>4929.0</ele>
    <time>2026-06-22T23:08:59Z</time>
   </trkpt>
   <trkpt lat="-3.0905710" lon="37.3745240">
    <ele>4929.1</ele>
    <time>2026-06-22T23:09:00Z</time>
   </trkpt>
   <trkpt lat="-3.0905700" lon="37.3745200">
    <ele>4929.1</ele>
    <time>2026-06-22T23:09:01Z</time>
   </trkpt>
   <trkpt lat="-3.0905680" lon="37.3745190">
    <ele>4929.2</ele>
    <time>2026-06-22T23:09:02Z</time>
   </trkpt>
   <trkpt lat="-3.0905690" lon="37.3745170">
    <ele>4929.2</ele>
    <time>2026-06-22T23:09:03Z</time>
   </trkpt>
   <trkpt lat="-3.0905690" lon="37.3745160">
    <ele>4929.3</ele>
    <time>2026-06-22T23:09:04Z</time>
   </trkpt>
   <trkpt lat="-3.0905690" lon="37.3745130">
    <ele>4929.3</ele>
    <time>2026-06-22T23:09:05Z</time>
   </trkpt>
   <trkpt lat="-3.0905680" lon="37.3745110">
    <ele>4929.4</ele>
    <time>2026-06-22T23:09:06Z</time>
   </trkpt>
   <trkpt lat="-3.0905670" lon="37.3745080">
    <ele>4929.4</ele>
    <time>2026-06-22T23:09:07Z</time>
   </trkpt>
   <trkpt lat="-3.0905670" lon="37.3745070">
    <ele>4929.5</ele>
    <time>2026-06-22T23:09:08Z</time>
   </trkpt>
   <trkpt lat="-3.0905660" lon="37.3745040">
    <ele>4929.5</ele>
    <time>2026-06-22T23:09:09Z</time>
   </trkpt>
   <trkpt lat="-3.0905670" lon="37.3745020">
    <ele>4929.6</ele>
    <time>2026-06-22T23:09:10Z</time>
   </trkpt>
   <trkpt lat="-3.0905660" lon="37.3745000">
    <ele>4929.6</ele>
    <time>2026-06-22T23:09:11Z</time>
   </trkpt>
   <trkpt lat="-3.0905640" lon="37.3744960">
    <ele>4929.7</ele>
    <time>2026-06-22T23:09:12Z</time>
   </trkpt>
   <trkpt lat="-3.0905630" lon="37.3744930">
    <ele>4929.8</ele>
    <time>2026-06-22T23:09:13Z</time>
   </trkpt>
   <trkpt lat="-3.0905630" lon="37.3744900">
    <ele>4929.8</ele>
    <time>2026-06-22T23:09:14Z</time>
   </trkpt>
   <trkpt lat="-3.0905630" lon="37.3744860">
    <ele>4929.9</ele>
    <time>2026-06-22T23:09:15Z</time>
   </trkpt>
   <trkpt lat="-3.0905610" lon="37.3744830">
    <ele>4930.0</ele>
    <time>2026-06-22T23:09:16Z</time>
   </trkpt>
   <trkpt lat="-3.0905600" lon="37.3744800">
    <ele>4930.1</ele>
    <time>2026-06-22T23:09:17Z</time>
   </trkpt>
   <trkpt lat="-3.0905590" lon="37.3744790">
    <ele>4930.1</ele>
    <time>2026-06-22T23:09:18Z</time>
   </trkpt>
   <trkpt lat="-3.0905580" lon="37.3744780">
    <ele>4930.1</ele>
    <time>2026-06-22T23:09:19Z</time>
   </trkpt>
   <trkpt lat="-3.0905560" lon="37.3744750">
    <ele>4930.2</ele>
    <time>2026-06-22T23:09:20Z</time>
   </trkpt>
   <trkpt lat="-3.0905550" lon="37.3744750">
    <ele>4930.2</ele>
    <time>2026-06-22T23:09:21Z</time>
   </trkpt>
   <trkpt lat="-3.0905530" lon="37.3744720">
    <ele>4930.3</ele>
    <time>2026-06-22T23:09:22Z</time>
   </trkpt>
   <trkpt lat="-3.0905510" lon="37.3744740">
    <ele>4930.4</ele>
    <time>2026-06-22T23:09:23Z</time>
   </trkpt>
   <trkpt lat="-3.0905480" lon="37.3744710">
    <ele>4930.5</ele>
    <time>2026-06-22T23:09:24Z</time>
   </trkpt>
   <trkpt lat="-3.0905460" lon="37.3744720">
    <ele>4930.5</ele>
    <time>2026-06-22T23:09:25Z</time>
   </trkpt>
   <trkpt lat="-3.0905430" lon="37.3744690">
    <ele>4930.6</ele>
    <time>2026-06-22T23:09:26Z</time>
   </trkpt>
   <trkpt lat="-3.0905420" lon="37.3744710">
    <ele>4930.7</ele>
    <time>2026-06-22T23:09:27Z</time>
   </trkpt>
   <trkpt lat="-3.0905370" lon="37.3744670">
    <ele>4930.8</ele>
    <time>2026-06-22T23:09:28Z</time>
   </trkpt>
   <trkpt lat="-3.0905360" lon="37.3744670">
    <ele>4930.8</ele>
    <time>2026-06-22T23:09:29Z</time>
   </trkpt>
   <trkpt lat="-3.0905330" lon="37.3744650">
    <ele>4930.9</ele>
    <time>2026-06-22T23:09:30Z</time>
   </trkpt>
   <trkpt lat="-3.0905290" lon="37.3744630">
    <ele>4931.0</ele>
    <time>2026-06-22T23:09:31Z</time>
   </trkpt>
   <trkpt lat="-3.0905300" lon="37.3744620">
    <ele>4931.0</ele>
    <time>2026-06-22T23:09:32Z</time>
   </trkpt>
   <trkpt lat="-3.0905280" lon="37.3744600">
    <ele>4931.1</ele>
    <time>2026-06-22T23:09:33Z</time>
   </trkpt>
   <trkpt lat="-3.0905260" lon="37.3744570">
    <ele>4931.2</ele>
    <time>2026-06-22T23:09:34Z</time>
   </trkpt>
   <trkpt lat="-3.0905250" lon="37.3744570">
    <ele>4931.2</ele>
    <time>2026-06-22T23:09:35Z</time>
   </trkpt>
   <trkpt lat="-3.0905240" lon="37.3744540">
    <ele>4931.3</ele>
    <time>2026-06-22T23:09:36Z</time>
   </trkpt>
   <trkpt lat="-3.0905210" lon="37.3744520">
    <ele>4931.4</ele>
    <time>2026-06-22T23:09:37Z</time>
   </trkpt>
   <trkpt lat="-3.0905210" lon="37.3744500">
    <ele>4931.4</ele>
    <time>2026-06-22T23:09:38Z</time>
   </trkpt>
   <trkpt lat="-3.0905200" lon="37.3744490">
    <ele>4931.4</ele>
    <time>2026-06-22T23:09:39Z</time>
   </trkpt>
   <trkpt lat="-3.0905200" lon="37.3744460">
    <ele>4931.5</ele>
    <time>2026-06-22T23:09:40Z</time>
   </trkpt>
   <trkpt lat="-3.0905200" lon="37.3744460">
    <ele>4931.5</ele>
    <time>2026-06-22T23:09:41Z</time>
   </trkpt>
   <trkpt lat="-3.0905200" lon="37.3744460">
    <ele>4931.5</ele>
    <time>2026-06-22T23:09:42Z</time>
   </trkpt>
   <trkpt lat="-3.0905170" lon="37.3744430">
    <ele>4931.6</ele>
    <time>2026-06-22T23:09:43Z</time>
   </trkpt>
   <trkpt lat="-3.0905160" lon="37.3744410">
    <ele>4931.6</ele>
    <time>2026-06-22T23:09:44Z</time>
   </trkpt>
   <trkpt lat="-3.0905140" lon="37.3744390">
    <ele>4931.7</ele>
    <time>2026-06-22T23:09:45Z</time>
   </trkpt>
   <trkpt lat="-3.0905160" lon="37.3744370">
    <ele>4931.8</ele>
    <time>2026-06-22T23:09:46Z</time>
   </trkpt>
   <trkpt lat="-3.0905130" lon="37.3744340">
    <ele>4931.8</ele>
    <time>2026-06-22T23:09:47Z</time>
   </trkpt>
   <trkpt lat="-3.0905130" lon="37.3744320">
    <ele>4931.9</ele>
    <time>2026-06-22T23:09:48Z</time>
   </trkpt>
   <trkpt lat="-3.0905110" lon="37.3744310">
    <ele>4931.9</ele>
    <time>2026-06-22T23:09:49Z</time>
   </trkpt>
   <trkpt lat="-3.0905100" lon="37.3744290">
    <ele>4932.0</ele>
    <time>2026-06-22T23:09:50Z</time>
   </trkpt>
   <trkpt lat="-3.0905100" lon="37.3744270">
    <ele>4932.0</ele>
    <time>2026-06-22T23:09:51Z</time>
   </trkpt>
   <trkpt lat="-3.0905080" lon="37.3744250">
    <ele>4932.1</ele>
    <time>2026-06-22T23:09:52Z</time>
   </trkpt>
   <trkpt lat="-3.0905080" lon="37.3744230">
    <ele>4932.1</ele>
    <time>2026-06-22T23:09:53Z</time>
   </trkpt>
   <trkpt lat="-3.0905060" lon="37.3744210">
    <ele>4932.2</ele>
    <time>2026-06-22T23:09:54Z</time>
   </trkpt>
   <trkpt lat="-3.0905060" lon="37.3744180">
    <ele>4932.3</ele>
    <time>2026-06-22T23:09:55Z</time>
   </trkpt>
   <trkpt lat="-3.0905050" lon="37.3744160">
    <ele>4932.3</ele>
    <time>2026-06-22T23:09:56Z</time>
   </trkpt>
   <trkpt lat="-3.0905050" lon="37.3744140">
    <ele>4932.4</ele>
    <time>2026-06-22T23:09:57Z</time>
   </trkpt>
   <trkpt lat="-3.0905040" lon="37.3744120">
    <ele>4932.4</ele>
    <time>2026-06-22T23:09:58Z</time>
   </trkpt>
   <trkpt lat="-3.0905020" lon="37.3744100">
    <ele>4932.5</ele>
    <time>2026-06-22T23:09:59Z</time>
   </trkpt>
   <trkpt lat="-3.0905020" lon="37.3744080">
    <ele>4932.5</ele>
    <time>2026-06-22T23:10:00Z</time>
   </trkpt>
   <trkpt lat="-3.0905000" lon="37.3744060">
    <ele>4932.6</ele>
    <time>2026-06-22T23:10:01Z</time>
   </trkpt>
   <trkpt lat="-3.0905000" lon="37.3744030">
    <ele>4932.6</ele>
    <time>2026-06-22T23:10:02Z</time>
   </trkpt>
   <trkpt lat="-3.0904980" lon="37.3744000">
    <ele>4932.7</ele>
    <time>2026-06-22T23:10:03Z</time>
   </trkpt>
   <trkpt lat="-3.0904980" lon="37.3743970">
    <ele>4932.8</ele>
    <time>2026-06-22T23:10:04Z</time>
   </trkpt>
   <trkpt lat="-3.0904980" lon="37.3743940">
    <ele>4932.9</ele>
    <time>2026-06-22T23:10:05Z</time>
   </trkpt>
   <trkpt lat="-3.0904970" lon="37.3743910">
    <ele>4933.0</ele>
    <time>2026-06-22T23:10:06Z</time>
   </trkpt>
   <trkpt lat="-3.0904980" lon="37.3743910">
    <ele>4933.0</ele>
    <time>2026-06-22T23:10:07Z</time>
   </trkpt>
   <trkpt lat="-3.0904980" lon="37.3743920">
    <ele>4933.0</ele>
    <time>2026-06-22T23:10:08Z</time>
   </trkpt>
   <trkpt lat="-3.0904960" lon="37.3743890">
    <ele>4933.1</ele>
    <time>2026-06-22T23:10:09Z</time>
   </trkpt>
   <trkpt lat="-3.0904930" lon="37.3743880">
    <ele>4933.2</ele>
    <time>2026-06-22T23:10:10Z</time>
   </trkpt>
   <trkpt lat="-3.0904920" lon="37.3743850">
    <ele>4933.2</ele>
    <time>2026-06-22T23:10:11Z</time>
   </trkpt>
   <trkpt lat="-3.0904900" lon="37.3743850">
    <ele>4933.3</ele>
    <time>2026-06-22T23:10:12Z</time>
   </trkpt>
   <trkpt lat="-3.0904870" lon="37.3743830">
    <ele>4933.4</ele>
    <time>2026-06-22T23:10:13Z</time>
   </trkpt>
   <trkpt lat="-3.0904860" lon="37.3743820">
    <ele>4933.4</ele>
    <time>2026-06-22T23:10:14Z</time>
   </trkpt>
   <trkpt lat="-3.0904830" lon="37.3743820">
    <ele>4933.5</ele>
    <time>2026-06-22T23:10:15Z</time>
   </trkpt>
   <trkpt lat="-3.0904800" lon="37.3743790">
    <ele>4933.6</ele>
    <time>2026-06-22T23:10:16Z</time>
   </trkpt>
   <trkpt lat="-3.0904790" lon="37.3743800">
    <ele>4933.6</ele>
    <time>2026-06-22T23:10:17Z</time>
   </trkpt>
   <trkpt lat="-3.0904770" lon="37.3743770">
    <ele>4933.7</ele>
    <time>2026-06-22T23:10:18Z</time>
   </trkpt>
   <trkpt lat="-3.0904760" lon="37.3743780">
    <ele>4933.7</ele>
    <time>2026-06-22T23:10:19Z</time>
   </trkpt>
   <trkpt lat="-3.0904740" lon="37.3743760">
    <ele>4933.8</ele>
    <time>2026-06-22T23:10:20Z</time>
   </trkpt>
   <trkpt lat="-3.0904720" lon="37.3743760">
    <ele>4933.8</ele>
    <time>2026-06-22T23:10:21Z</time>
   </trkpt>
   <trkpt lat="-3.0904700" lon="37.3743750">
    <ele>4933.9</ele>
    <time>2026-06-22T23:10:22Z</time>
   </trkpt>
   <trkpt lat="-3.0904680" lon="37.3743740">
    <ele>4934.0</ele>
    <time>2026-06-22T23:10:23Z</time>
   </trkpt>
   <trkpt lat="-3.0904660" lon="37.3743740">
    <ele>4934.0</ele>
    <time>2026-06-22T23:10:24Z</time>
   </trkpt>
   <trkpt lat="-3.0904650" lon="37.3743730">
    <ele>4934.0</ele>
    <time>2026-06-22T23:10:25Z</time>
   </trkpt>
   <trkpt lat="-3.0904620" lon="37.3743740">
    <ele>4934.1</ele>
    <time>2026-06-22T23:10:26Z</time>
   </trkpt>
   <trkpt lat="-3.0904600" lon="37.3743730">
    <ele>4934.2</ele>
    <time>2026-06-22T23:10:27Z</time>
   </trkpt>
   <trkpt lat="-3.0904590" lon="37.3743740">
    <ele>4934.2</ele>
    <time>2026-06-22T23:10:28Z</time>
   </trkpt>
   <trkpt lat="-3.0904590" lon="37.3743740">
    <ele>4934.2</ele>
    <time>2026-06-22T23:10:29Z</time>
   </trkpt>
   <trkpt lat="-3.0904590" lon="37.3743740">
    <ele>4934.2</ele>
    <time>2026-06-22T23:10:30Z</time>
   </trkpt>
   <trkpt lat="-3.0904590" lon="37.3743740">
    <ele>4934.2</ele>
    <time>2026-06-22T23:10:31Z</time>
   </trkpt>
   <trkpt lat="-3.0904590" lon="37.3743740">
    <ele>4934.2</ele>
    <time>2026-06-22T23:10:32Z</time>
   </trkpt>
   <trkpt lat="-3.0904590" lon="37.3743740">
    <ele>4934.2</ele>
    <time>2026-06-22T23:10:33Z</time>
   </trkpt>
   <trkpt lat="-3.0904590" lon="37.3743720">
    <ele>4934.2</ele>
    <time>2026-06-22T23:10:34Z</time>
   </trkpt>
   <trkpt lat="-3.0904590" lon="37.3743720">
    <ele>4934.2</ele>
    <time>2026-06-22T23:10:35Z</time>
   </trkpt>
   <trkpt lat="-3.0904590" lon="37.3743720">
    <ele>4934.2</ele>
    <time>2026-06-22T23:10:36Z</time>
   </trkpt>
   <trkpt lat="-3.0904560" lon="37.3743710">
    <ele>4934.3</ele>
    <time>2026-06-22T23:10:37Z</time>
   </trkpt>
   <trkpt lat="-3.0904520" lon="37.3743680">
    <ele>4934.4</ele>
    <time>2026-06-22T23:10:38Z</time>
   </trkpt>
   <trkpt lat="-3.0904490" lon="37.3743670">
    <ele>4934.5</ele>
    <time>2026-06-22T23:10:39Z</time>
   </trkpt>
   <trkpt lat="-3.0904460" lon="37.3743630">
    <ele>4934.6</ele>
    <time>2026-06-22T23:10:40Z</time>
   </trkpt>
   <trkpt lat="-3.0904410" lon="37.3743590">
    <ele>4934.8</ele>
    <time>2026-06-22T23:10:41Z</time>
   </trkpt>
   <trkpt lat="-3.0904400" lon="37.3743560">
    <ele>4934.9</ele>
    <time>2026-06-22T23:10:42Z</time>
   </trkpt>
   <trkpt lat="-3.0904400" lon="37.3743540">
    <ele>4934.9</ele>
    <time>2026-06-22T23:10:43Z</time>
   </trkpt>
   <trkpt lat="-3.0904370" lon="37.3743490">
    <ele>4935.0</ele>
    <time>2026-06-22T23:10:44Z</time>
   </trkpt>
   <trkpt lat="-3.0904360" lon="37.3743500">
    <ele>4935.1</ele>
    <time>2026-06-22T23:10:45Z</time>
   </trkpt>
   <trkpt lat="-3.0904340" lon="37.3743470">
    <ele>4935.2</ele>
    <time>2026-06-22T23:10:46Z</time>
   </trkpt>
   <trkpt lat="-3.0904330" lon="37.3743470">
    <ele>4935.2</ele>
    <time>2026-06-22T23:10:47Z</time>
   </trkpt>
   <trkpt lat="-3.0904300" lon="37.3743460">
    <ele>4935.3</ele>
    <time>2026-06-22T23:10:48Z</time>
   </trkpt>
   <trkpt lat="-3.0904300" lon="37.3743460">
    <ele>4935.3</ele>
    <time>2026-06-22T23:10:49Z</time>
   </trkpt>
   <trkpt lat="-3.0904290" lon="37.3743470">
    <ele>4935.3</ele>
    <time>2026-06-22T23:10:50Z</time>
   </trkpt>
   <trkpt lat="-3.0904290" lon="37.3743460">
    <ele>4935.3</ele>
    <time>2026-06-22T23:10:51Z</time>
   </trkpt>
   <trkpt lat="-3.0904280" lon="37.3743440">
    <ele>4935.4</ele>
    <time>2026-06-22T23:10:52Z</time>
   </trkpt>
   <trkpt lat="-3.0904280" lon="37.3743430">
    <ele>4935.4</ele>
    <time>2026-06-22T23:10:53Z</time>
   </trkpt>
   <trkpt lat="-3.0904270" lon="37.3743420">
    <ele>4935.4</ele>
    <time>2026-06-22T23:10:54Z</time>
   </trkpt>
   <trkpt lat="-3.0904260" lon="37.3743430">
    <ele>4935.5</ele>
    <time>2026-06-22T23:10:55Z</time>
   </trkpt>
   <trkpt lat="-3.0904230" lon="37.3743420">
    <ele>4935.5</ele>
    <time>2026-06-22T23:10:56Z</time>
   </trkpt>
   <trkpt lat="-3.0904210" lon="37.3743390">
    <ele>4935.6</ele>
    <time>2026-06-22T23:10:57Z</time>
   </trkpt>
   <trkpt lat="-3.0904200" lon="37.3743390">
    <ele>4935.7</ele>
    <time>2026-06-22T23:10:58Z</time>
   </trkpt>
   <trkpt lat="-3.0904190" lon="37.3743380">
    <ele>4935.7</ele>
    <time>2026-06-22T23:10:59Z</time>
   </trkpt>
   <trkpt lat="-3.0904180" lon="37.3743360">
    <ele>4935.8</ele>
    <time>2026-06-22T23:11:00Z</time>
   </trkpt>
   <trkpt lat="-3.0904160" lon="37.3743340">
    <ele>4935.8</ele>
    <time>2026-06-22T23:11:01Z</time>
   </trkpt>
   <trkpt lat="-3.0904150" lon="37.3743310">
    <ele>4935.9</ele>
    <time>2026-06-22T23:11:02Z</time>
   </trkpt>
   <trkpt lat="-3.0904130" lon="37.3743290">
    <ele>4936.0</ele>
    <time>2026-06-22T23:11:03Z</time>
   </trkpt>
   <trkpt lat="-3.0904120" lon="37.3743280">
    <ele>4936.0</ele>
    <time>2026-06-22T23:11:04Z</time>
   </trkpt>
   <trkpt lat="-3.0904100" lon="37.3743260">
    <ele>4936.1</ele>
    <time>2026-06-22T23:11:05Z</time>
   </trkpt>
   <trkpt lat="-3.0904100" lon="37.3743260">
    <ele>4936.1</ele>
    <time>2026-06-22T23:11:06Z</time>
   </trkpt>
   <trkpt lat="-3.0904100" lon="37.3743260">
    <ele>4936.1</ele>
    <time>2026-06-22T23:11:07Z</time>
   </trkpt>
   <trkpt lat="-3.0904100" lon="37.3743250">
    <ele>4936.1</ele>
    <time>2026-06-22T23:11:08Z</time>
   </trkpt>
   <trkpt lat="-3.0904070" lon="37.3743250">
    <ele>4936.2</ele>
    <time>2026-06-22T23:11:09Z</time>
   </trkpt>
   <trkpt lat="-3.0904050" lon="37.3743230">
    <ele>4936.2</ele>
    <time>2026-06-22T23:11:10Z</time>
   </trkpt>
   <trkpt lat="-3.0904030" lon="37.3743210">
    <ele>4936.3</ele>
    <time>2026-06-22T23:11:11Z</time>
   </trkpt>
   <trkpt lat="-3.0904010" lon="37.3743210">
    <ele>4936.4</ele>
    <time>2026-06-22T23:11:12Z</time>
   </trkpt>
   <trkpt lat="-3.0903980" lon="37.3743200">
    <ele>4936.4</ele>
    <time>2026-06-22T23:11:13Z</time>
   </trkpt>
   <trkpt lat="-3.0903970" lon="37.3743190">
    <ele>4936.5</ele>
    <time>2026-06-22T23:11:14Z</time>
   </trkpt>
   <trkpt lat="-3.0903970" lon="37.3743190">
    <ele>4936.5</ele>
    <time>2026-06-22T23:11:15Z</time>
   </trkpt>
   <trkpt lat="-3.0903950" lon="37.3743170">
    <ele>4936.6</ele>
    <time>2026-06-22T23:11:16Z</time>
   </trkpt>
   <trkpt lat="-3.0903920" lon="37.3743140">
    <ele>4936.7</ele>
    <time>2026-06-22T23:11:17Z</time>
   </trkpt>
   <trkpt lat="-3.0903900" lon="37.3743130">
    <ele>4936.7</ele>
    <time>2026-06-22T23:11:18Z</time>
   </trkpt>
   <trkpt lat="-3.0903880" lon="37.3743130">
    <ele>4936.8</ele>
    <time>2026-06-22T23:11:19Z</time>
   </trkpt>
   <trkpt lat="-3.0903860" lon="37.3743130">
    <ele>4936.8</ele>
    <time>2026-06-22T23:11:20Z</time>
   </trkpt>
   <trkpt lat="-3.0903840" lon="37.3743120">
    <ele>4936.9</ele>
    <time>2026-06-22T23:11:21Z</time>
   </trkpt>
   <trkpt lat="-3.0903810" lon="37.3743090">
    <ele>4937.0</ele>
    <time>2026-06-22T23:11:22Z</time>
   </trkpt>
   <trkpt lat="-3.0903800" lon="37.3743080">
    <ele>4937.0</ele>
    <time>2026-06-22T23:11:23Z</time>
   </trkpt>
   <trkpt lat="-3.0903770" lon="37.3743060">
    <ele>4937.1</ele>
    <time>2026-06-22T23:11:24Z</time>
   </trkpt>
   <trkpt lat="-3.0903760" lon="37.3743060">
    <ele>4937.1</ele>
    <time>2026-06-22T23:11:25Z</time>
   </trkpt>
   <trkpt lat="-3.0903750" lon="37.3743040">
    <ele>4937.2</ele>
    <time>2026-06-22T23:11:26Z</time>
   </trkpt>
   <trkpt lat="-3.0903720" lon="37.3743030">
    <ele>4937.3</ele>
    <time>2026-06-22T23:11:27Z</time>
   </trkpt>
   <trkpt lat="-3.0903720" lon="37.3743030">
    <ele>4937.3</ele>
    <time>2026-06-22T23:11:28Z</time>
   </trkpt>
   <trkpt lat="-3.0903700" lon="37.3743000">
    <ele>4937.4</ele>
    <time>2026-06-22T23:11:29Z</time>
   </trkpt>
   <trkpt lat="-3.0903700" lon="37.3743010">
    <ele>4937.4</ele>
    <time>2026-06-22T23:11:30Z</time>
   </trkpt>
   <trkpt lat="-3.0903680" lon="37.3743000">
    <ele>4937.4</ele>
    <time>2026-06-22T23:11:31Z</time>
   </trkpt>
   <trkpt lat="-3.0903660" lon="37.3742980">
    <ele>4937.5</ele>
    <time>2026-06-22T23:11:32Z</time>
   </trkpt>
   <trkpt lat="-3.0903640" lon="37.3742970">
    <ele>4937.6</ele>
    <time>2026-06-22T23:11:33Z</time>
   </trkpt>
   <trkpt lat="-3.0903640" lon="37.3742950">
    <ele>4937.6</ele>
    <time>2026-06-22T23:11:34Z</time>
   </trkpt>
   <trkpt lat="-3.0903620" lon="37.3742930">
    <ele>4937.7</ele>
    <time>2026-06-22T23:11:35Z</time>
   </trkpt>
   <trkpt lat="-3.0903620" lon="37.3742900">
    <ele>4937.8</ele>
    <time>2026-06-22T23:11:36Z</time>
   </trkpt>
   <trkpt lat="-3.0903610" lon="37.3742880">
    <ele>4937.8</ele>
    <time>2026-06-22T23:11:37Z</time>
   </trkpt>
   <trkpt lat="-3.0903600" lon="37.3742850">
    <ele>4937.9</ele>
    <time>2026-06-22T23:11:38Z</time>
   </trkpt>
   <trkpt lat="-3.0903580" lon="37.3742840">
    <ele>4937.9</ele>
    <time>2026-06-22T23:11:39Z</time>
   </trkpt>
   <trkpt lat="-3.0903580" lon="37.3742820">
    <ele>4938.0</ele>
    <time>2026-06-22T23:11:40Z</time>
   </trkpt>
   <trkpt lat="-3.0903580" lon="37.3742800">
    <ele>4938.0</ele>
    <time>2026-06-22T23:11:41Z</time>
   </trkpt>
   <trkpt lat="-3.0903570" lon="37.3742780">
    <ele>4938.1</ele>
    <time>2026-06-22T23:11:42Z</time>
   </trkpt>
   <trkpt lat="-3.0903580" lon="37.3742760">
    <ele>4938.2</ele>
    <time>2026-06-22T23:11:43Z</time>
   </trkpt>
   <trkpt lat="-3.0903570" lon="37.3742750">
    <ele>4938.2</ele>
    <time>2026-06-22T23:11:44Z</time>
   </trkpt>
   <trkpt lat="-3.0903570" lon="37.3742730">
    <ele>4938.2</ele>
    <time>2026-06-22T23:11:45Z</time>
   </trkpt>
   <trkpt lat="-3.0903570" lon="37.3742730">
    <ele>4938.2</ele>
    <time>2026-06-22T23:11:46Z</time>
   </trkpt>
   <trkpt lat="-3.0903570" lon="37.3742730">
    <ele>4938.2</ele>
    <time>2026-06-22T23:11:47Z</time>
   </trkpt>
   <trkpt lat="-3.0903540" lon="37.3742690">
    <ele>4938.4</ele>
    <time>2026-06-22T23:11:48Z</time>
   </trkpt>
   <trkpt lat="-3.0903550" lon="37.3742670">
    <ele>4938.4</ele>
    <time>2026-06-22T23:11:49Z</time>
   </trkpt>
   <trkpt lat="-3.0903530" lon="37.3742630">
    <ele>4938.5</ele>
    <time>2026-06-22T23:11:50Z</time>
   </trkpt>
   <trkpt lat="-3.0903530" lon="37.3742610">
    <ele>4938.6</ele>
    <time>2026-06-22T23:11:51Z</time>
   </trkpt>
   <trkpt lat="-3.0903500" lon="37.3742580">
    <ele>4938.7</ele>
    <time>2026-06-22T23:11:52Z</time>
   </trkpt>
   <trkpt lat="-3.0903510" lon="37.3742570">
    <ele>4938.7</ele>
    <time>2026-06-22T23:11:53Z</time>
   </trkpt>
   <trkpt lat="-3.0903510" lon="37.3742570">
    <ele>4938.7</ele>
    <time>2026-06-22T23:11:54Z</time>
   </trkpt>
   <trkpt lat="-3.0903510" lon="37.3742550">
    <ele>4938.8</ele>
    <time>2026-06-22T23:11:55Z</time>
   </trkpt>
   <trkpt lat="-3.0903510" lon="37.3742560">
    <ele>4938.8</ele>
    <time>2026-06-22T23:11:56Z</time>
   </trkpt>
   <trkpt lat="-3.0903510" lon="37.3742550">
    <ele>4938.8</ele>
    <time>2026-06-22T23:11:57Z</time>
   </trkpt>
   <trkpt lat="-3.0903500" lon="37.3742540">
    <ele>4938.9</ele>
    <time>2026-06-22T23:11:58Z</time>
   </trkpt>
   <trkpt lat="-3.0903500" lon="37.3742500">
    <ele>4939.0</ele>
    <time>2026-06-22T23:11:59Z</time>
   </trkpt>
   <trkpt lat="-3.0903490" lon="37.3742480">
    <ele>4939.0</ele>
    <time>2026-06-22T23:12:00Z</time>
   </trkpt>
   <trkpt lat="-3.0903470" lon="37.3742440">
    <ele>4939.1</ele>
    <time>2026-06-22T23:12:01Z</time>
   </trkpt>
   <trkpt lat="-3.0903460" lon="37.3742430">
    <ele>4939.2</ele>
    <time>2026-06-22T23:12:02Z</time>
   </trkpt>
   <trkpt lat="-3.0903440" lon="37.3742390">
    <ele>4939.3</ele>
    <time>2026-06-22T23:12:03Z</time>
   </trkpt>
   <trkpt lat="-3.0903430" lon="37.3742370">
    <ele>4939.3</ele>
    <time>2026-06-22T23:12:04Z</time>
   </trkpt>
   <trkpt lat="-3.0903430" lon="37.3742350">
    <ele>4939.4</ele>
    <time>2026-06-22T23:12:05Z</time>
   </trkpt>
   <trkpt lat="-3.0903400" lon="37.3742340">
    <ele>4939.5</ele>
    <time>2026-06-22T23:12:06Z</time>
   </trkpt>
   <trkpt lat="-3.0903390" lon="37.3742320">
    <ele>4939.5</ele>
    <time>2026-06-22T23:12:07Z</time>
   </trkpt>
   <trkpt lat="-3.0903360" lon="37.3742320">
    <ele>4939.6</ele>
    <time>2026-06-22T23:12:08Z</time>
   </trkpt>
   <trkpt lat="-3.0903370" lon="37.3742300">
    <ele>4939.7</ele>
    <time>2026-06-22T23:12:09Z</time>
   </trkpt>
   <trkpt lat="-3.0903350" lon="37.3742300">
    <ele>4939.7</ele>
    <time>2026-06-22T23:12:10Z</time>
   </trkpt>
   <trkpt lat="-3.0903340" lon="37.3742270">
    <ele>4939.8</ele>
    <time>2026-06-22T23:12:11Z</time>
   </trkpt>
   <trkpt lat="-3.0903320" lon="37.3742270">
    <ele>4939.8</ele>
    <time>2026-06-22T23:12:12Z</time>
   </trkpt>
   <trkpt lat="-3.0903300" lon="37.3742260">
    <ele>4939.9</ele>
    <time>2026-06-22T23:12:13Z</time>
   </trkpt>
   <trkpt lat="-3.0903290" lon="37.3742240">
    <ele>4939.9</ele>
    <time>2026-06-22T23:12:14Z</time>
   </trkpt>
   <trkpt lat="-3.0903280" lon="37.3742210">
    <ele>4940.0</ele>
    <time>2026-06-22T23:12:15Z</time>
   </trkpt>
   <trkpt lat="-3.0903280" lon="37.3742190">
    <ele>4940.1</ele>
    <time>2026-06-22T23:12:16Z</time>
   </trkpt>
   <trkpt lat="-3.0903290" lon="37.3742180">
    <ele>4940.1</ele>
    <time>2026-06-22T23:12:17Z</time>
   </trkpt>
   <trkpt lat="-3.0903280" lon="37.3742160">
    <ele>4940.2</ele>
    <time>2026-06-22T23:12:18Z</time>
   </trkpt>
   <trkpt lat="-3.0903290" lon="37.3742140">
    <ele>4940.2</ele>
    <time>2026-06-22T23:12:19Z</time>
   </trkpt>
   <trkpt lat="-3.0903280" lon="37.3742120">
    <ele>4940.3</ele>
    <time>2026-06-22T23:12:20Z</time>
   </trkpt>
   <trkpt lat="-3.0903270" lon="37.3742080">
    <ele>4940.4</ele>
    <time>2026-06-22T23:12:21Z</time>
   </trkpt>
   <trkpt lat="-3.0903280" lon="37.3742090">
    <ele>4940.4</ele>
    <time>2026-06-22T23:12:22Z</time>
   </trkpt>
   <trkpt lat="-3.0903270" lon="37.3742050">
    <ele>4940.5</ele>
    <time>2026-06-22T23:12:23Z</time>
   </trkpt>
   <trkpt lat="-3.0903260" lon="37.3742040">
    <ele>4940.5</ele>
    <time>2026-06-22T23:12:24Z</time>
   </trkpt>
   <trkpt lat="-3.0903270" lon="37.3742010">
    <ele>4940.6</ele>
    <time>2026-06-22T23:12:25Z</time>
   </trkpt>
   <trkpt lat="-3.0903260" lon="37.3741990">
    <ele>4940.7</ele>
    <time>2026-06-22T23:12:26Z</time>
   </trkpt>
   <trkpt lat="-3.0903270" lon="37.3741970">
    <ele>4940.7</ele>
    <time>2026-06-22T23:12:27Z</time>
   </trkpt>
   <trkpt lat="-3.0903270" lon="37.3741960">
    <ele>4940.8</ele>
    <time>2026-06-22T23:12:28Z</time>
   </trkpt>
   <trkpt lat="-3.0903270" lon="37.3741940">
    <ele>4940.8</ele>
    <time>2026-06-22T23:12:29Z</time>
   </trkpt>
   <trkpt lat="-3.0903270" lon="37.3741930">
    <ele>4940.8</ele>
    <time>2026-06-22T23:12:30Z</time>
   </trkpt>
   <trkpt lat="-3.0903270" lon="37.3741920">
    <ele>4940.8</ele>
    <time>2026-06-22T23:12:31Z</time>
   </trkpt>
   <trkpt lat="-3.0903260" lon="37.3741900">
    <ele>4940.9</ele>
    <time>2026-06-22T23:12:32Z</time>
   </trkpt>
   <trkpt lat="-3.0903260" lon="37.3741880">
    <ele>4941.0</ele>
    <time>2026-06-22T23:12:33Z</time>
   </trkpt>
   <trkpt lat="-3.0903250" lon="37.3741860">
    <ele>4941.0</ele>
    <time>2026-06-22T23:12:34Z</time>
   </trkpt>
   <trkpt lat="-3.0903250" lon="37.3741830">
    <ele>4941.1</ele>
    <time>2026-06-22T23:12:35Z</time>
   </trkpt>
   <trkpt lat="-3.0903240" lon="37.3741800">
    <ele>4941.2</ele>
    <time>2026-06-22T23:12:36Z</time>
   </trkpt>
   <trkpt lat="-3.0903230" lon="37.3741800">
    <ele>4941.2</ele>
    <time>2026-06-22T23:12:37Z</time>
   </trkpt>
   <trkpt lat="-3.0903230" lon="37.3741780">
    <ele>4941.2</ele>
    <time>2026-06-22T23:12:38Z</time>
   </trkpt>
   <trkpt lat="-3.0903230" lon="37.3741760">
    <ele>4941.3</ele>
    <time>2026-06-22T23:12:39Z</time>
   </trkpt>
   <trkpt lat="-3.0903220" lon="37.3741730">
    <ele>4941.4</ele>
    <time>2026-06-22T23:12:40Z</time>
   </trkpt>
   <trkpt lat="-3.0903230" lon="37.3741730">
    <ele>4941.4</ele>
    <time>2026-06-22T23:12:41Z</time>
   </trkpt>
   <trkpt lat="-3.0903230" lon="37.3741730">
    <ele>4941.4</ele>
    <time>2026-06-22T23:12:42Z</time>
   </trkpt>
   <trkpt lat="-3.0903230" lon="37.3741690">
    <ele>4941.5</ele>
    <time>2026-06-22T23:12:43Z</time>
   </trkpt>
   <trkpt lat="-3.0903230" lon="37.3741680">
    <ele>4941.5</ele>
    <time>2026-06-22T23:12:44Z</time>
   </trkpt>
   <trkpt lat="-3.0903230" lon="37.3741660">
    <ele>4941.6</ele>
    <time>2026-06-22T23:12:45Z</time>
   </trkpt>
   <trkpt lat="-3.0903230" lon="37.3741640">
    <ele>4941.6</ele>
    <time>2026-06-22T23:12:46Z</time>
   </trkpt>
   <trkpt lat="-3.0903230" lon="37.3741630">
    <ele>4941.6</ele>
    <time>2026-06-22T23:12:47Z</time>
   </trkpt>
   <trkpt lat="-3.0903230" lon="37.3741620">
    <ele>4941.6</ele>
    <time>2026-06-22T23:12:48Z</time>
   </trkpt>
   <trkpt lat="-3.0903240" lon="37.3741610">
    <ele>4941.7</ele>
    <time>2026-06-22T23:12:49Z</time>
   </trkpt>
   <trkpt lat="-3.0903250" lon="37.3741590">
    <ele>4941.7</ele>
    <time>2026-06-22T23:12:50Z</time>
   </trkpt>
   <trkpt lat="-3.0903240" lon="37.3741570">
    <ele>4941.8</ele>
    <time>2026-06-22T23:12:51Z</time>
   </trkpt>
   <trkpt lat="-3.0903240" lon="37.3741560">
    <ele>4941.8</ele>
    <time>2026-06-22T23:12:52Z</time>
   </trkpt>
   <trkpt lat="-3.0903230" lon="37.3741540">
    <ele>4941.9</ele>
    <time>2026-06-22T23:12:53Z</time>
   </trkpt>
   <trkpt lat="-3.0903220" lon="37.3741520">
    <ele>4941.9</ele>
    <time>2026-06-22T23:12:54Z</time>
   </trkpt>
   <trkpt lat="-3.0903220" lon="37.3741510">
    <ele>4941.9</ele>
    <time>2026-06-22T23:12:55Z</time>
   </trkpt>
   <trkpt lat="-3.0903220" lon="37.3741490">
    <ele>4942.0</ele>
    <time>2026-06-22T23:12:56Z</time>
   </trkpt>
   <trkpt lat="-3.0903220" lon="37.3741460">
    <ele>4942.1</ele>
    <time>2026-06-22T23:12:57Z</time>
   </trkpt>
   <trkpt lat="-3.0903210" lon="37.3741450">
    <ele>4942.1</ele>
    <time>2026-06-22T23:12:58Z</time>
   </trkpt>
   <trkpt lat="-3.0903200" lon="37.3741420">
    <ele>4942.2</ele>
    <time>2026-06-22T23:12:59Z</time>
   </trkpt>
   <trkpt lat="-3.0903200" lon="37.3741400">
    <ele>4942.2</ele>
    <time>2026-06-22T23:13:00Z</time>
   </trkpt>
   <trkpt lat="-3.0903200" lon="37.3741410">
    <ele>4942.3</ele>
    <time>2026-06-22T23:13:01Z</time>
   </trkpt>
   <trkpt lat="-3.0903190" lon="37.3741380">
    <ele>4942.3</ele>
    <time>2026-06-22T23:13:02Z</time>
   </trkpt>
   <trkpt lat="-3.0903190" lon="37.3741360">
    <ele>4942.4</ele>
    <time>2026-06-22T23:13:03Z</time>
   </trkpt>
   <trkpt lat="-3.0903180" lon="37.3741340">
    <ele>4942.4</ele>
    <time>2026-06-22T23:13:04Z</time>
   </trkpt>
   <trkpt lat="-3.0903180" lon="37.3741350">
    <ele>4942.5</ele>
    <time>2026-06-22T23:13:05Z</time>
   </trkpt>
   <trkpt lat="-3.0903170" lon="37.3741340">
    <ele>4942.5</ele>
    <time>2026-06-22T23:13:06Z</time>
   </trkpt>
   <trkpt lat="-3.0903160" lon="37.3741310">
    <ele>4942.6</ele>
    <time>2026-06-22T23:13:07Z</time>
   </trkpt>
   <trkpt lat="-3.0903150" lon="37.3741280">
    <ele>4942.6</ele>
    <time>2026-06-22T23:13:08Z</time>
   </trkpt>
   <trkpt lat="-3.0903140" lon="37.3741270">
    <ele>4942.7</ele>
    <time>2026-06-22T23:13:09Z</time>
   </trkpt>
   <trkpt lat="-3.0903100" lon="37.3741240">
    <ele>4942.8</ele>
    <time>2026-06-22T23:13:10Z</time>
   </trkpt>
   <trkpt lat="-3.0903110" lon="37.3741240">
    <ele>4942.8</ele>
    <time>2026-06-22T23:13:11Z</time>
   </trkpt>
   <trkpt lat="-3.0903100" lon="37.3741230">
    <ele>4942.9</ele>
    <time>2026-06-22T23:13:12Z</time>
   </trkpt>
   <trkpt lat="-3.0903090" lon="37.3741220">
    <ele>4942.9</ele>
    <time>2026-06-22T23:13:13Z</time>
   </trkpt>
   <trkpt lat="-3.0903080" lon="37.3741200">
    <ele>4943.0</ele>
    <time>2026-06-22T23:13:14Z</time>
   </trkpt>
   <trkpt lat="-3.0903080" lon="37.3741170">
    <ele>4943.0</ele>
    <time>2026-06-22T23:13:15Z</time>
   </trkpt>
   <trkpt lat="-3.0903070" lon="37.3741160">
    <ele>4943.1</ele>
    <time>2026-06-22T23:13:16Z</time>
   </trkpt>
   <trkpt lat="-3.0903050" lon="37.3741160">
    <ele>4943.1</ele>
    <time>2026-06-22T23:13:17Z</time>
   </trkpt>
   <trkpt lat="-3.0903050" lon="37.3741130">
    <ele>4943.2</ele>
    <time>2026-06-22T23:13:18Z</time>
   </trkpt>
   <trkpt lat="-3.0903030" lon="37.3741110">
    <ele>4943.3</ele>
    <time>2026-06-22T23:13:19Z</time>
   </trkpt>
   <trkpt lat="-3.0903030" lon="37.3741090">
    <ele>4943.3</ele>
    <time>2026-06-22T23:13:20Z</time>
   </trkpt>
   <trkpt lat="-3.0903010" lon="37.3741080">
    <ele>4943.4</ele>
    <time>2026-06-22T23:13:21Z</time>
   </trkpt>
   <trkpt lat="-3.0903010" lon="37.3741070">
    <ele>4943.4</ele>
    <time>2026-06-22T23:13:22Z</time>
   </trkpt>
   <trkpt lat="-3.0902990" lon="37.3741050">
    <ele>4943.4</ele>
    <time>2026-06-22T23:13:23Z</time>
   </trkpt>
   <trkpt lat="-3.0902980" lon="37.3741040">
    <ele>4943.5</ele>
    <time>2026-06-22T23:13:24Z</time>
   </trkpt>
   <trkpt lat="-3.0902970" lon="37.3741030">
    <ele>4943.5</ele>
    <time>2026-06-22T23:13:25Z</time>
   </trkpt>
   <trkpt lat="-3.0902970" lon="37.3740990">
    <ele>4943.6</ele>
    <time>2026-06-22T23:13:26Z</time>
   </trkpt>
   <trkpt lat="-3.0902950" lon="37.3740990">
    <ele>4943.7</ele>
    <time>2026-06-22T23:13:27Z</time>
   </trkpt>
   <trkpt lat="-3.0902920" lon="37.3740980">
    <ele>4943.7</ele>
    <time>2026-06-22T23:13:28Z</time>
   </trkpt>
   <trkpt lat="-3.0902900" lon="37.3740960">
    <ele>4943.8</ele>
    <time>2026-06-22T23:13:29Z</time>
   </trkpt>
   <trkpt lat="-3.0902880" lon="37.3740950">
    <ele>4943.9</ele>
    <time>2026-06-22T23:13:30Z</time>
   </trkpt>
   <trkpt lat="-3.0902860" lon="37.3740930">
    <ele>4943.9</ele>
    <time>2026-06-22T23:13:31Z</time>
   </trkpt>
   <trkpt lat="-3.0902850" lon="37.3740920">
    <ele>4944.0</ele>
    <time>2026-06-22T23:13:32Z</time>
   </trkpt>
   <trkpt lat="-3.0902830" lon="37.3740900">
    <ele>4944.0</ele>
    <time>2026-06-22T23:13:33Z</time>
   </trkpt>
   <trkpt lat="-3.0902820" lon="37.3740900">
    <ele>4944.1</ele>
    <time>2026-06-22T23:13:34Z</time>
   </trkpt>
   <trkpt lat="-3.0902790" lon="37.3740890">
    <ele>4944.1</ele>
    <time>2026-06-22T23:13:35Z</time>
   </trkpt>
   <trkpt lat="-3.0902780" lon="37.3740890">
    <ele>4944.2</ele>
    <time>2026-06-22T23:13:36Z</time>
   </trkpt>
   <trkpt lat="-3.0902760" lon="37.3740880">
    <ele>4944.2</ele>
    <time>2026-06-22T23:13:37Z</time>
   </trkpt>
   <trkpt lat="-3.0902740" lon="37.3740890">
    <ele>4944.3</ele>
    <time>2026-06-22T23:13:38Z</time>
   </trkpt>
   <trkpt lat="-3.0902720" lon="37.3740860">
    <ele>4944.4</ele>
    <time>2026-06-22T23:13:39Z</time>
   </trkpt>
   <trkpt lat="-3.0902710" lon="37.3740870">
    <ele>4944.4</ele>
    <time>2026-06-22T23:13:40Z</time>
   </trkpt>
   <trkpt lat="-3.0902680" lon="37.3740850">
    <ele>4944.5</ele>
    <time>2026-06-22T23:13:41Z</time>
   </trkpt>
   <trkpt lat="-3.0902670" lon="37.3740810">
    <ele>4944.6</ele>
    <time>2026-06-22T23:13:42Z</time>
   </trkpt>
   <trkpt lat="-3.0902660" lon="37.3740840">
    <ele>4944.7</ele>
    <time>2026-06-22T23:13:43Z</time>
   </trkpt>
   <trkpt lat="-3.0902660" lon="37.3740790">
    <ele>4944.8</ele>
    <time>2026-06-22T23:13:44Z</time>
   </trkpt>
   <trkpt lat="-3.0902650" lon="37.3740780">
    <ele>4944.8</ele>
    <time>2026-06-22T23:13:45Z</time>
   </trkpt>
   <trkpt lat="-3.0902650" lon="37.3740740">
    <ele>4944.9</ele>
    <time>2026-06-22T23:13:46Z</time>
   </trkpt>
   <trkpt lat="-3.0902640" lon="37.3740720">
    <ele>4945.0</ele>
    <time>2026-06-22T23:13:47Z</time>
   </trkpt>
   <trkpt lat="-3.0902650" lon="37.3740690">
    <ele>4945.0</ele>
    <time>2026-06-22T23:13:48Z</time>
   </trkpt>
   <trkpt lat="-3.0902650" lon="37.3740650">
    <ele>4945.1</ele>
    <time>2026-06-22T23:13:49Z</time>
   </trkpt>
   <trkpt lat="-3.0902650" lon="37.3740630">
    <ele>4945.2</ele>
    <time>2026-06-22T23:13:50Z</time>
   </trkpt>
   <trkpt lat="-3.0902630" lon="37.3740610">
    <ele>4945.3</ele>
    <time>2026-06-22T23:13:51Z</time>
   </trkpt>
   <trkpt lat="-3.0902620" lon="37.3740590">
    <ele>4945.3</ele>
    <time>2026-06-22T23:13:52Z</time>
   </trkpt>
   <trkpt lat="-3.0902620" lon="37.3740570">
    <ele>4945.4</ele>
    <time>2026-06-22T23:13:53Z</time>
   </trkpt>
   <trkpt lat="-3.0902610" lon="37.3740550">
    <ele>4945.4</ele>
    <time>2026-06-22T23:13:54Z</time>
   </trkpt>
   <trkpt lat="-3.0902590" lon="37.3740530">
    <ele>4945.5</ele>
    <time>2026-06-22T23:13:55Z</time>
   </trkpt>
   <trkpt lat="-3.0902580" lon="37.3740520">
    <ele>4945.5</ele>
    <time>2026-06-22T23:13:56Z</time>
   </trkpt>
   <trkpt lat="-3.0902560" lon="37.3740510">
    <ele>4945.6</ele>
    <time>2026-06-22T23:13:57Z</time>
   </trkpt>
   <trkpt lat="-3.0902560" lon="37.3740500">
    <ele>4945.6</ele>
    <time>2026-06-22T23:13:58Z</time>
   </trkpt>
   <trkpt lat="-3.0902520" lon="37.3740500">
    <ele>4945.7</ele>
    <time>2026-06-22T23:13:59Z</time>
   </trkpt>
   <trkpt lat="-3.0902510" lon="37.3740480">
    <ele>4945.8</ele>
    <time>2026-06-22T23:14:00Z</time>
   </trkpt>
   <trkpt lat="-3.0902480" lon="37.3740480">
    <ele>4945.8</ele>
    <time>2026-06-22T23:14:01Z</time>
   </trkpt>
   <trkpt lat="-3.0902460" lon="37.3740490">
    <ele>4945.9</ele>
    <time>2026-06-22T23:14:02Z</time>
   </trkpt>
   <trkpt lat="-3.0902440" lon="37.3740500">
    <ele>4945.9</ele>
    <time>2026-06-22T23:14:03Z</time>
   </trkpt>
   <trkpt lat="-3.0902430" lon="37.3740500">
    <ele>4946.0</ele>
    <time>2026-06-22T23:14:04Z</time>
   </trkpt>
   <trkpt lat="-3.0902400" lon="37.3740510">
    <ele>4946.0</ele>
    <time>2026-06-22T23:14:05Z</time>
   </trkpt>
   <trkpt lat="-3.0902370" lon="37.3740500">
    <ele>4946.1</ele>
    <time>2026-06-22T23:14:06Z</time>
   </trkpt>
   <trkpt lat="-3.0902350" lon="37.3740510">
    <ele>4946.2</ele>
    <time>2026-06-22T23:14:07Z</time>
   </trkpt>
   <trkpt lat="-3.0902300" lon="37.3740500">
    <ele>4946.3</ele>
    <time>2026-06-22T23:14:08Z</time>
   </trkpt>
   <trkpt lat="-3.0902280" lon="37.3740510">
    <ele>4946.4</ele>
    <time>2026-06-22T23:14:09Z</time>
   </trkpt>
   <trkpt lat="-3.0902260" lon="37.3740510">
    <ele>4946.4</ele>
    <time>2026-06-22T23:14:10Z</time>
   </trkpt>
   <trkpt lat="-3.0902230" lon="37.3740510">
    <ele>4946.5</ele>
    <time>2026-06-22T23:14:11Z</time>
   </trkpt>
   <trkpt lat="-3.0902210" lon="37.3740520">
    <ele>4946.5</ele>
    <time>2026-06-22T23:14:12Z</time>
   </trkpt>
   <trkpt lat="-3.0902190" lon="37.3740530">
    <ele>4946.6</ele>
    <time>2026-06-22T23:14:13Z</time>
   </trkpt>
   <trkpt lat="-3.0902180" lon="37.3740520">
    <ele>4946.6</ele>
    <time>2026-06-22T23:14:14Z</time>
   </trkpt>
   <trkpt lat="-3.0902160" lon="37.3740510">
    <ele>4946.7</ele>
    <time>2026-06-22T23:14:15Z</time>
   </trkpt>
   <trkpt lat="-3.0902130" lon="37.3740500">
    <ele>4946.8</ele>
    <time>2026-06-22T23:14:16Z</time>
   </trkpt>
   <trkpt lat="-3.0902120" lon="37.3740470">
    <ele>4946.8</ele>
    <time>2026-06-22T23:14:17Z</time>
   </trkpt>
   <trkpt lat="-3.0902110" lon="37.3740480">
    <ele>4946.9</ele>
    <time>2026-06-22T23:14:18Z</time>
   </trkpt>
   <trkpt lat="-3.0902100" lon="37.3740450">
    <ele>4947.0</ele>
    <time>2026-06-22T23:14:19Z</time>
   </trkpt>
   <trkpt lat="-3.0902070" lon="37.3740440">
    <ele>4947.0</ele>
    <time>2026-06-22T23:14:20Z</time>
   </trkpt>
   <trkpt lat="-3.0902060" lon="37.3740420">
    <ele>4947.1</ele>
    <time>2026-06-22T23:14:21Z</time>
   </trkpt>
   <trkpt lat="-3.0902050" lon="37.3740410">
    <ele>4947.1</ele>
    <time>2026-06-22T23:14:22Z</time>
   </trkpt>
   <trkpt lat="-3.0902040" lon="37.3740390">
    <ele>4947.2</ele>
    <time>2026-06-22T23:14:23Z</time>
   </trkpt>
   <trkpt lat="-3.0902030" lon="37.3740370">
    <ele>4947.2</ele>
    <time>2026-06-22T23:14:24Z</time>
   </trkpt>
   <trkpt lat="-3.0902020" lon="37.3740360">
    <ele>4947.3</ele>
    <time>2026-06-22T23:14:25Z</time>
   </trkpt>
   <trkpt lat="-3.0902010" lon="37.3740340">
    <ele>4947.3</ele>
    <time>2026-06-22T23:14:26Z</time>
   </trkpt>
   <trkpt lat="-3.0902010" lon="37.3740330">
    <ele>4947.4</ele>
    <time>2026-06-22T23:14:27Z</time>
   </trkpt>
   <trkpt lat="-3.0902010" lon="37.3740310">
    <ele>4947.4</ele>
    <time>2026-06-22T23:14:28Z</time>
   </trkpt>
   <trkpt lat="-3.0902000" lon="37.3740290">
    <ele>4947.5</ele>
    <time>2026-06-22T23:14:29Z</time>
   </trkpt>
   <trkpt lat="-3.0902000" lon="37.3740270">
    <ele>4947.5</ele>
    <time>2026-06-22T23:14:30Z</time>
   </trkpt>
   <trkpt lat="-3.0901990" lon="37.3740260">
    <ele>4947.6</ele>
    <time>2026-06-22T23:14:31Z</time>
   </trkpt>
   <trkpt lat="-3.0901990" lon="37.3740240">
    <ele>4947.6</ele>
    <time>2026-06-22T23:14:32Z</time>
   </trkpt>
   <trkpt lat="-3.0901990" lon="37.3740210">
    <ele>4947.7</ele>
    <time>2026-06-22T23:14:33Z</time>
   </trkpt>
   <trkpt lat="-3.0901980" lon="37.3740190">
    <ele>4947.7</ele>
    <time>2026-06-22T23:14:34Z</time>
   </trkpt>
   <trkpt lat="-3.0901980" lon="37.3740180">
    <ele>4947.8</ele>
    <time>2026-06-22T23:14:35Z</time>
   </trkpt>
   <trkpt lat="-3.0901950" lon="37.3740140">
    <ele>4947.9</ele>
    <time>2026-06-22T23:14:36Z</time>
   </trkpt>
   <trkpt lat="-3.0901900" lon="37.3740210">
    <ele>4948.1</ele>
    <time>2026-06-22T23:14:37Z</time>
   </trkpt>
   <trkpt lat="-3.0901900" lon="37.3740110">
    <ele>4948.4</ele>
    <time>2026-06-22T23:14:38Z</time>
   </trkpt>
   <trkpt lat="-3.0901880" lon="37.3740100">
    <ele>4948.4</ele>
    <time>2026-06-22T23:14:39Z</time>
   </trkpt>
   <trkpt lat="-3.0901860" lon="37.3740080">
    <ele>4948.5</ele>
    <time>2026-06-22T23:14:40Z</time>
   </trkpt>
   <trkpt lat="-3.0901830" lon="37.3740070">
    <ele>4948.6</ele>
    <time>2026-06-22T23:14:41Z</time>
   </trkpt>
   <trkpt lat="-3.0901830" lon="37.3740080">
    <ele>4948.6</ele>
    <time>2026-06-22T23:14:42Z</time>
   </trkpt>
   <trkpt lat="-3.0901800" lon="37.3740060">
    <ele>4948.7</ele>
    <time>2026-06-22T23:14:43Z</time>
   </trkpt>
   <trkpt lat="-3.0901790" lon="37.3740060">
    <ele>4948.7</ele>
    <time>2026-06-22T23:14:44Z</time>
   </trkpt>
   <trkpt lat="-3.0901740" lon="37.3740030">
    <ele>4948.8</ele>
    <time>2026-06-22T23:14:45Z</time>
   </trkpt>
   <trkpt lat="-3.0901750" lon="37.3740030">
    <ele>4948.9</ele>
    <time>2026-06-22T23:14:46Z</time>
   </trkpt>
   <trkpt lat="-3.0901730" lon="37.3740020">
    <ele>4948.9</ele>
    <time>2026-06-22T23:14:47Z</time>
   </trkpt>
   <trkpt lat="-3.0901700" lon="37.3740020">
    <ele>4949.0</ele>
    <time>2026-06-22T23:14:48Z</time>
   </trkpt>
   <trkpt lat="-3.0901680" lon="37.3740010">
    <ele>4949.1</ele>
    <time>2026-06-22T23:14:49Z</time>
   </trkpt>
   <trkpt lat="-3.0901660" lon="37.3740000">
    <ele>4949.1</ele>
    <time>2026-06-22T23:14:50Z</time>
   </trkpt>
   <trkpt lat="-3.0901640" lon="37.3740000">
    <ele>4949.2</ele>
    <time>2026-06-22T23:14:51Z</time>
   </trkpt>
   <trkpt lat="-3.0901610" lon="37.3739980">
    <ele>4949.3</ele>
    <time>2026-06-22T23:14:52Z</time>
   </trkpt>
   <trkpt lat="-3.0901600" lon="37.3739960">
    <ele>4949.3</ele>
    <time>2026-06-22T23:14:53Z</time>
   </trkpt>
   <trkpt lat="-3.0901550" lon="37.3739940">
    <ele>4949.5</ele>
    <time>2026-06-22T23:14:54Z</time>
   </trkpt>
   <trkpt lat="-3.0901540" lon="37.3739920">
    <ele>4949.5</ele>
    <time>2026-06-22T23:14:55Z</time>
   </trkpt>
   <trkpt lat="-3.0901550" lon="37.3739900">
    <ele>4949.6</ele>
    <time>2026-06-22T23:14:56Z</time>
   </trkpt>
   <trkpt lat="-3.0901550" lon="37.3739880">
    <ele>4949.6</ele>
    <time>2026-06-22T23:14:57Z</time>
   </trkpt>
   <trkpt lat="-3.0901570" lon="37.3739870">
    <ele>4949.7</ele>
    <time>2026-06-22T23:14:58Z</time>
   </trkpt>
   <trkpt lat="-3.0901580" lon="37.3739860">
    <ele>4949.7</ele>
    <time>2026-06-22T23:14:59Z</time>
   </trkpt>
   <trkpt lat="-3.0901580" lon="37.3739820">
    <ele>4949.8</ele>
    <time>2026-06-22T23:15:00Z</time>
   </trkpt>
   <trkpt lat="-3.0901590" lon="37.3739780">
    <ele>4949.9</ele>
    <time>2026-06-22T23:15:01Z</time>
   </trkpt>
   <trkpt lat="-3.0901600" lon="37.3739770">
    <ele>4949.9</ele>
    <time>2026-06-22T23:15:02Z</time>
   </trkpt>
   <trkpt lat="-3.0901620" lon="37.3739750">
    <ele>4950.0</ele>
    <time>2026-06-22T23:15:03Z</time>
   </trkpt>
   <trkpt lat="-3.0901620" lon="37.3739710">
    <ele>4950.1</ele>
    <time>2026-06-22T23:15:04Z</time>
   </trkpt>
   <trkpt lat="-3.0901640" lon="37.3739710">
    <ele>4950.2</ele>
    <time>2026-06-22T23:15:05Z</time>
   </trkpt>
   <trkpt lat="-3.0901660" lon="37.3739680">
    <ele>4950.3</ele>
    <time>2026-06-22T23:15:06Z</time>
   </trkpt>
   <trkpt lat="-3.0901670" lon="37.3739650">
    <ele>4950.3</ele>
    <time>2026-06-22T23:15:07Z</time>
   </trkpt>
   <trkpt lat="-3.0901690" lon="37.3739630">
    <ele>4950.4</ele>
    <time>2026-06-22T23:15:08Z</time>
   </trkpt>
   <trkpt lat="-3.0901690" lon="37.3739600">
    <ele>4950.5</ele>
    <time>2026-06-22T23:15:09Z</time>
   </trkpt>
   <trkpt lat="-3.0901710" lon="37.3739580">
    <ele>4950.6</ele>
    <time>2026-06-22T23:15:10Z</time>
   </trkpt>
   <trkpt lat="-3.0901710" lon="37.3739560">
    <ele>4950.6</ele>
    <time>2026-06-22T23:15:11Z</time>
   </trkpt>
   <trkpt lat="-3.0901710" lon="37.3739540">
    <ele>4950.7</ele>
    <time>2026-06-22T23:15:12Z</time>
   </trkpt>
   <trkpt lat="-3.0901700" lon="37.3739520">
    <ele>4950.7</ele>
    <time>2026-06-22T23:15:13Z</time>
   </trkpt>
   <trkpt lat="-3.0901710" lon="37.3739500">
    <ele>4950.8</ele>
    <time>2026-06-22T23:15:14Z</time>
   </trkpt>
   <trkpt lat="-3.0901690" lon="37.3739480">
    <ele>4950.8</ele>
    <time>2026-06-22T23:15:15Z</time>
   </trkpt>
   <trkpt lat="-3.0901680" lon="37.3739460">
    <ele>4950.9</ele>
    <time>2026-06-22T23:15:16Z</time>
   </trkpt>
   <trkpt lat="-3.0901670" lon="37.3739430">
    <ele>4951.0</ele>
    <time>2026-06-22T23:15:17Z</time>
   </trkpt>
   <trkpt lat="-3.0901660" lon="37.3739410">
    <ele>4951.0</ele>
    <time>2026-06-22T23:15:18Z</time>
   </trkpt>
   <trkpt lat="-3.0901670" lon="37.3739390">
    <ele>4951.1</ele>
    <time>2026-06-22T23:15:19Z</time>
   </trkpt>
   <trkpt lat="-3.0901660" lon="37.3739370">
    <ele>4951.1</ele>
    <time>2026-06-22T23:15:20Z</time>
   </trkpt>
   <trkpt lat="-3.0901660" lon="37.3739340">
    <ele>4951.2</ele>
    <time>2026-06-22T23:15:21Z</time>
   </trkpt>
   <trkpt lat="-3.0901650" lon="37.3739320">
    <ele>4951.3</ele>
    <time>2026-06-22T23:15:22Z</time>
   </trkpt>
   <trkpt lat="-3.0901660" lon="37.3739300">
    <ele>4951.3</ele>
    <time>2026-06-22T23:15:23Z</time>
   </trkpt>
   <trkpt lat="-3.0901660" lon="37.3739280">
    <ele>4951.4</ele>
    <time>2026-06-22T23:15:24Z</time>
   </trkpt>
   <trkpt lat="-3.0901640" lon="37.3739250">
    <ele>4951.5</ele>
    <time>2026-06-22T23:15:25Z</time>
   </trkpt>
   <trkpt lat="-3.0901660" lon="37.3739240">
    <ele>4951.5</ele>
    <time>2026-06-22T23:15:26Z</time>
   </trkpt>
   <trkpt lat="-3.0901670" lon="37.3739220">
    <ele>4951.6</ele>
    <time>2026-06-22T23:15:27Z</time>
   </trkpt>
   <trkpt lat="-3.0901650" lon="37.3739190">
    <ele>4951.7</ele>
    <time>2026-06-22T23:15:28Z</time>
   </trkpt>
   <trkpt lat="-3.0901660" lon="37.3739180">
    <ele>4951.7</ele>
    <time>2026-06-22T23:15:29Z</time>
   </trkpt>
   <trkpt lat="-3.0901650" lon="37.3739160">
    <ele>4951.8</ele>
    <time>2026-06-22T23:15:30Z</time>
   </trkpt>
   <trkpt lat="-3.0901650" lon="37.3739150">
    <ele>4951.8</ele>
    <time>2026-06-22T23:15:31Z</time>
   </trkpt>
   <trkpt lat="-3.0901620" lon="37.3739120">
    <ele>4951.9</ele>
    <time>2026-06-22T23:15:32Z</time>
   </trkpt>
   <trkpt lat="-3.0901610" lon="37.3739090">
    <ele>4952.0</ele>
    <time>2026-06-22T23:15:33Z</time>
   </trkpt>
   <trkpt lat="-3.0901600" lon="37.3739090">
    <ele>4952.0</ele>
    <time>2026-06-22T23:15:34Z</time>
   </trkpt>
   <trkpt lat="-3.0901580" lon="37.3739070">
    <ele>4952.1</ele>
    <time>2026-06-22T23:15:35Z</time>
   </trkpt>
   <trkpt lat="-3.0901540" lon="37.3739040">
    <ele>4952.2</ele>
    <time>2026-06-22T23:15:36Z</time>
   </trkpt>
   <trkpt lat="-3.0901530" lon="37.3739030">
    <ele>4952.2</ele>
    <time>2026-06-22T23:15:37Z</time>
   </trkpt>
   <trkpt lat="-3.0901510" lon="37.3739000">
    <ele>4952.3</ele>
    <time>2026-06-22T23:15:38Z</time>
   </trkpt>
   <trkpt lat="-3.0901500" lon="37.3738990">
    <ele>4952.4</ele>
    <time>2026-06-22T23:15:39Z</time>
   </trkpt>
   <trkpt lat="-3.0901470" lon="37.3738980">
    <ele>4952.4</ele>
    <time>2026-06-22T23:15:40Z</time>
   </trkpt>
   <trkpt lat="-3.0901450" lon="37.3738990">
    <ele>4952.5</ele>
    <time>2026-06-22T23:15:41Z</time>
   </trkpt>
   <trkpt lat="-3.0901420" lon="37.3738990">
    <ele>4952.6</ele>
    <time>2026-06-22T23:15:42Z</time>
   </trkpt>
   <trkpt lat="-3.0901420" lon="37.3739010">
    <ele>4952.6</ele>
    <time>2026-06-22T23:15:43Z</time>
   </trkpt>
   <trkpt lat="-3.0901420" lon="37.3739010">
    <ele>4952.6</ele>
    <time>2026-06-22T23:15:44Z</time>
   </trkpt>
   <trkpt lat="-3.0901410" lon="37.3739010">
    <ele>4952.6</ele>
    <time>2026-06-22T23:15:45Z</time>
   </trkpt>
   <trkpt lat="-3.0901390" lon="37.3739020">
    <ele>4952.7</ele>
    <time>2026-06-22T23:15:46Z</time>
   </trkpt>
   <trkpt lat="-3.0901340" lon="37.3739010">
    <ele>4952.8</ele>
    <time>2026-06-22T23:15:47Z</time>
   </trkpt>
   <trkpt lat="-3.0901300" lon="37.3739000">
    <ele>4952.9</ele>
    <time>2026-06-22T23:15:48Z</time>
   </trkpt>
   <trkpt lat="-3.0901270" lon="37.3739030">
    <ele>4953.0</ele>
    <time>2026-06-22T23:15:49Z</time>
   </trkpt>
   <trkpt lat="-3.0901240" lon="37.3739030">
    <ele>4953.1</ele>
    <time>2026-06-22T23:15:50Z</time>
   </trkpt>
   <trkpt lat="-3.0901230" lon="37.3739040">
    <ele>4953.2</ele>
    <time>2026-06-22T23:15:51Z</time>
   </trkpt>
   <trkpt lat="-3.0901210" lon="37.3739030">
    <ele>4953.2</ele>
    <time>2026-06-22T23:15:52Z</time>
   </trkpt>
   <trkpt lat="-3.0901200" lon="37.3739030">
    <ele>4953.2</ele>
    <time>2026-06-22T23:15:53Z</time>
   </trkpt>
   <trkpt lat="-3.0901180" lon="37.3739010">
    <ele>4953.3</ele>
    <time>2026-06-22T23:15:54Z</time>
   </trkpt>
   <trkpt lat="-3.0901150" lon="37.3739000">
    <ele>4953.4</ele>
    <time>2026-06-22T23:15:55Z</time>
   </trkpt>
   <trkpt lat="-3.0901150" lon="37.3739010">
    <ele>4953.4</ele>
    <time>2026-06-22T23:15:56Z</time>
   </trkpt>
   <trkpt lat="-3.0901140" lon="37.3738970">
    <ele>4953.5</ele>
    <time>2026-06-22T23:15:57Z</time>
   </trkpt>
   <trkpt lat="-3.0901130" lon="37.3738970">
    <ele>4953.5</ele>
    <time>2026-06-22T23:15:58Z</time>
   </trkpt>
   <trkpt lat="-3.0901120" lon="37.3738930">
    <ele>4953.6</ele>
    <time>2026-06-22T23:15:59Z</time>
   </trkpt>
   <trkpt lat="-3.0901110" lon="37.3738900">
    <ele>4953.7</ele>
    <time>2026-06-22T23:16:00Z</time>
   </trkpt>
   <trkpt lat="-3.0901120" lon="37.3738900">
    <ele>4953.7</ele>
    <time>2026-06-22T23:16:01Z</time>
   </trkpt>
   <trkpt lat="-3.0901120" lon="37.3738900">
    <ele>4953.7</ele>
    <time>2026-06-22T23:16:02Z</time>
   </trkpt>
   <trkpt lat="-3.0901080" lon="37.3738840">
    <ele>4953.9</ele>
    <time>2026-06-22T23:16:03Z</time>
   </trkpt>
   <trkpt lat="-3.0901070" lon="37.3738840">
    <ele>4954.0</ele>
    <time>2026-06-22T23:16:04Z</time>
   </trkpt>
   <trkpt lat="-3.0901060" lon="37.3738820">
    <ele>4954.0</ele>
    <time>2026-06-22T23:16:05Z</time>
   </trkpt>
   <trkpt lat="-3.0901050" lon="37.3738800">
    <ele>4954.1</ele>
    <time>2026-06-22T23:16:06Z</time>
   </trkpt>
   <trkpt lat="-3.0901050" lon="37.3738800">
    <ele>4954.1</ele>
    <time>2026-06-22T23:16:07Z</time>
   </trkpt>
   <trkpt lat="-3.0901060" lon="37.3738800">
    <ele>4954.1</ele>
    <time>2026-06-22T23:16:08Z</time>
   </trkpt>
   <trkpt lat="-3.0901070" lon="37.3738810">
    <ele>4954.1</ele>
    <time>2026-06-22T23:16:09Z</time>
   </trkpt>
   <trkpt lat="-3.0901050" lon="37.3738790">
    <ele>4954.2</ele>
    <time>2026-06-22T23:16:10Z</time>
   </trkpt>
   <trkpt lat="-3.0901020" lon="37.3738760">
    <ele>4954.3</ele>
    <time>2026-06-22T23:16:11Z</time>
   </trkpt>
   <trkpt lat="-3.0901010" lon="37.3738740">
    <ele>4954.4</ele>
    <time>2026-06-22T23:16:12Z</time>
   </trkpt>
   <trkpt lat="-3.0901000" lon="37.3738720">
    <ele>4954.4</ele>
    <time>2026-06-22T23:16:13Z</time>
   </trkpt>
   <trkpt lat="-3.0900980" lon="37.3738690">
    <ele>4954.5</ele>
    <time>2026-06-22T23:16:14Z</time>
   </trkpt>
   <trkpt lat="-3.0900960" lon="37.3738660">
    <ele>4954.6</ele>
    <time>2026-06-22T23:16:15Z</time>
   </trkpt>
   <trkpt lat="-3.0900950" lon="37.3738640">
    <ele>4954.7</ele>
    <time>2026-06-22T23:16:16Z</time>
   </trkpt>
   <trkpt lat="-3.0900950" lon="37.3738610">
    <ele>4954.7</ele>
    <time>2026-06-22T23:16:17Z</time>
   </trkpt>
   <trkpt lat="-3.0900950" lon="37.3738600">
    <ele>4954.8</ele>
    <time>2026-06-22T23:16:18Z</time>
   </trkpt>
   <trkpt lat="-3.0900950" lon="37.3738570">
    <ele>4954.8</ele>
    <time>2026-06-22T23:16:19Z</time>
   </trkpt>
   <trkpt lat="-3.0900940" lon="37.3738580">
    <ele>4954.9</ele>
    <time>2026-06-22T23:16:20Z</time>
   </trkpt>
   <trkpt lat="-3.0900930" lon="37.3738580">
    <ele>4954.9</ele>
    <time>2026-06-22T23:16:21Z</time>
   </trkpt>
   <trkpt lat="-3.0900940" lon="37.3738550">
    <ele>4955.0</ele>
    <time>2026-06-22T23:16:22Z</time>
   </trkpt>
   <trkpt lat="-3.0900920" lon="37.3738530">
    <ele>4955.0</ele>
    <time>2026-06-22T23:16:23Z</time>
   </trkpt>
   <trkpt lat="-3.0900930" lon="37.3738500">
    <ele>4955.1</ele>
    <time>2026-06-22T23:16:24Z</time>
   </trkpt>
   <trkpt lat="-3.0900910" lon="37.3738490">
    <ele>4955.2</ele>
    <time>2026-06-22T23:16:25Z</time>
   </trkpt>
   <trkpt lat="-3.0900920" lon="37.3738480">
    <ele>4955.2</ele>
    <time>2026-06-22T23:16:26Z</time>
   </trkpt>
   <trkpt lat="-3.0900900" lon="37.3738440">
    <ele>4955.3</ele>
    <time>2026-06-22T23:16:27Z</time>
   </trkpt>
   <trkpt lat="-3.0900910" lon="37.3738460">
    <ele>4955.4</ele>
    <time>2026-06-22T23:16:28Z</time>
   </trkpt>
   <trkpt lat="-3.0900920" lon="37.3738440">
    <ele>4955.4</ele>
    <time>2026-06-22T23:16:29Z</time>
   </trkpt>
   <trkpt lat="-3.0900900" lon="37.3738420">
    <ele>4955.5</ele>
    <time>2026-06-22T23:16:30Z</time>
   </trkpt>
   <trkpt lat="-3.0900910" lon="37.3738400">
    <ele>4955.6</ele>
    <time>2026-06-22T23:16:31Z</time>
   </trkpt>
   <trkpt lat="-3.0900900" lon="37.3738380">
    <ele>4955.6</ele>
    <time>2026-06-22T23:16:32Z</time>
   </trkpt>
   <trkpt lat="-3.0900890" lon="37.3738350">
    <ele>4955.7</ele>
    <time>2026-06-22T23:16:33Z</time>
   </trkpt>
   <trkpt lat="-3.0900870" lon="37.3738320">
    <ele>4955.8</ele>
    <time>2026-06-22T23:16:34Z</time>
   </trkpt>
   <trkpt lat="-3.0900880" lon="37.3738310">
    <ele>4955.8</ele>
    <time>2026-06-22T23:16:35Z</time>
   </trkpt>
   <trkpt lat="-3.0900860" lon="37.3738290">
    <ele>4955.9</ele>
    <time>2026-06-22T23:16:36Z</time>
   </trkpt>
   <trkpt lat="-3.0900870" lon="37.3738270">
    <ele>4956.0</ele>
    <time>2026-06-22T23:16:37Z</time>
   </trkpt>
   <trkpt lat="-3.0900870" lon="37.3738260">
    <ele>4956.0</ele>
    <time>2026-06-22T23:16:38Z</time>
   </trkpt>
   <trkpt lat="-3.0900860" lon="37.3738240">
    <ele>4956.0</ele>
    <time>2026-06-22T23:16:39Z</time>
   </trkpt>
   <trkpt lat="-3.0900870" lon="37.3738230">
    <ele>4956.1</ele>
    <time>2026-06-22T23:16:40Z</time>
   </trkpt>
   <trkpt lat="-3.0900850" lon="37.3738210">
    <ele>4956.1</ele>
    <time>2026-06-22T23:16:41Z</time>
   </trkpt>
   <trkpt lat="-3.0900850" lon="37.3738190">
    <ele>4956.2</ele>
    <time>2026-06-22T23:16:42Z</time>
   </trkpt>
   <trkpt lat="-3.0900850" lon="37.3738180">
    <ele>4956.2</ele>
    <time>2026-06-22T23:16:43Z</time>
   </trkpt>
   <trkpt lat="-3.0900850" lon="37.3738160">
    <ele>4956.3</ele>
    <time>2026-06-22T23:16:44Z</time>
   </trkpt>
   <trkpt lat="-3.0900830" lon="37.3738140">
    <ele>4956.3</ele>
    <time>2026-06-22T23:16:45Z</time>
   </trkpt>
   <trkpt lat="-3.0900820" lon="37.3738110">
    <ele>4956.4</ele>
    <time>2026-06-22T23:16:46Z</time>
   </trkpt>
   <trkpt lat="-3.0900800" lon="37.3738100">
    <ele>4956.5</ele>
    <time>2026-06-22T23:16:47Z</time>
   </trkpt>
   <trkpt lat="-3.0900780" lon="37.3738080">
    <ele>4956.5</ele>
    <time>2026-06-22T23:16:48Z</time>
   </trkpt>
   <trkpt lat="-3.0900750" lon="37.3738070">
    <ele>4956.6</ele>
    <time>2026-06-22T23:16:49Z</time>
   </trkpt>
   <trkpt lat="-3.0900740" lon="37.3738050">
    <ele>4956.7</ele>
    <time>2026-06-22T23:16:50Z</time>
   </trkpt>
   <trkpt lat="-3.0900720" lon="37.3738050">
    <ele>4956.7</ele>
    <time>2026-06-22T23:16:51Z</time>
   </trkpt>
   <trkpt lat="-3.0900700" lon="37.3738030">
    <ele>4956.8</ele>
    <time>2026-06-22T23:16:52Z</time>
   </trkpt>
   <trkpt lat="-3.0900680" lon="37.3738030">
    <ele>4956.9</ele>
    <time>2026-06-22T23:16:53Z</time>
   </trkpt>
   <trkpt lat="-3.0900660" lon="37.3738030">
    <ele>4956.9</ele>
    <time>2026-06-22T23:16:54Z</time>
   </trkpt>
   <trkpt lat="-3.0900650" lon="37.3738030">
    <ele>4956.9</ele>
    <time>2026-06-22T23:16:55Z</time>
   </trkpt>
   <trkpt lat="-3.0900620" lon="37.3738020">
    <ele>4957.0</ele>
    <time>2026-06-22T23:16:56Z</time>
   </trkpt>
   <trkpt lat="-3.0900600" lon="37.3738000">
    <ele>4957.1</ele>
    <time>2026-06-22T23:16:57Z</time>
   </trkpt>
   <trkpt lat="-3.0900580" lon="37.3737990">
    <ele>4957.1</ele>
    <time>2026-06-22T23:16:58Z</time>
   </trkpt>
   <trkpt lat="-3.0900560" lon="37.3737960">
    <ele>4957.2</ele>
    <time>2026-06-22T23:16:59Z</time>
   </trkpt>
   <trkpt lat="-3.0900550" lon="37.3737960">
    <ele>4957.3</ele>
    <time>2026-06-22T23:17:00Z</time>
   </trkpt>
   <trkpt lat="-3.0900530" lon="37.3737930">
    <ele>4957.3</ele>
    <time>2026-06-22T23:17:01Z</time>
   </trkpt>
   <trkpt lat="-3.0900520" lon="37.3737930">
    <ele>4957.4</ele>
    <time>2026-06-22T23:17:02Z</time>
   </trkpt>
   <trkpt lat="-3.0900510" lon="37.3737920">
    <ele>4957.4</ele>
    <time>2026-06-22T23:17:03Z</time>
   </trkpt>
   <trkpt lat="-3.0900500" lon="37.3737900">
    <ele>4957.5</ele>
    <time>2026-06-22T23:17:04Z</time>
   </trkpt>
   <trkpt lat="-3.0900490" lon="37.3737900">
    <ele>4957.5</ele>
    <time>2026-06-22T23:17:05Z</time>
   </trkpt>
   <trkpt lat="-3.0900490" lon="37.3737890">
    <ele>4957.5</ele>
    <time>2026-06-22T23:17:06Z</time>
   </trkpt>
   <trkpt lat="-3.0900490" lon="37.3737890">
    <ele>4957.5</ele>
    <time>2026-06-22T23:17:07Z</time>
   </trkpt>
   <trkpt lat="-3.0900490" lon="37.3737890">
    <ele>4957.5</ele>
    <time>2026-06-22T23:17:08Z</time>
   </trkpt>
   <trkpt lat="-3.0900480" lon="37.3737890">
    <ele>4957.5</ele>
    <time>2026-06-22T23:17:09Z</time>
   </trkpt>
   <trkpt lat="-3.0900460" lon="37.3737860">
    <ele>4957.6</ele>
    <time>2026-06-22T23:17:10Z</time>
   </trkpt>
   <trkpt lat="-3.0900440" lon="37.3737840">
    <ele>4957.7</ele>
    <time>2026-06-22T23:17:11Z</time>
   </trkpt>
   <trkpt lat="-3.0900420" lon="37.3737830">
    <ele>4957.8</ele>
    <time>2026-06-22T23:17:12Z</time>
   </trkpt>
   <trkpt lat="-3.0900400" lon="37.3737820">
    <ele>4957.8</ele>
    <time>2026-06-22T23:17:13Z</time>
   </trkpt>
   <trkpt lat="-3.0900380" lon="37.3737790">
    <ele>4957.9</ele>
    <time>2026-06-22T23:17:14Z</time>
   </trkpt>
   <trkpt lat="-3.0900360" lon="37.3737770">
    <ele>4958.0</ele>
    <time>2026-06-22T23:17:15Z</time>
   </trkpt>
   <trkpt lat="-3.0900350" lon="37.3737740">
    <ele>4958.1</ele>
    <time>2026-06-22T23:17:16Z</time>
   </trkpt>
   <trkpt lat="-3.0900330" lon="37.3737720">
    <ele>4958.1</ele>
    <time>2026-06-22T23:17:17Z</time>
   </trkpt>
   <trkpt lat="-3.0900340" lon="37.3737690">
    <ele>4958.2</ele>
    <time>2026-06-22T23:17:18Z</time>
   </trkpt>
   <trkpt lat="-3.0900330" lon="37.3737680">
    <ele>4958.2</ele>
    <time>2026-06-22T23:17:19Z</time>
   </trkpt>
   <trkpt lat="-3.0900340" lon="37.3737640">
    <ele>4958.3</ele>
    <time>2026-06-22T23:17:20Z</time>
   </trkpt>
   <trkpt lat="-3.0900340" lon="37.3737620">
    <ele>4958.4</ele>
    <time>2026-06-22T23:17:21Z</time>
   </trkpt>
   <trkpt lat="-3.0900360" lon="37.3737600">
    <ele>4958.5</ele>
    <time>2026-06-22T23:17:22Z</time>
   </trkpt>
   <trkpt lat="-3.0900350" lon="37.3737580">
    <ele>4958.5</ele>
    <time>2026-06-22T23:17:23Z</time>
   </trkpt>
   <trkpt lat="-3.0900360" lon="37.3737570">
    <ele>4958.6</ele>
    <time>2026-06-22T23:17:24Z</time>
   </trkpt>
   <trkpt lat="-3.0900360" lon="37.3737540">
    <ele>4958.6</ele>
    <time>2026-06-22T23:17:25Z</time>
   </trkpt>
   <trkpt lat="-3.0900370" lon="37.3737530">
    <ele>4958.7</ele>
    <time>2026-06-22T23:17:26Z</time>
   </trkpt>
   <trkpt lat="-3.0900370" lon="37.3737510">
    <ele>4958.7</ele>
    <time>2026-06-22T23:17:27Z</time>
   </trkpt>
   <trkpt lat="-3.0900370" lon="37.3737520">
    <ele>4958.7</ele>
    <time>2026-06-22T23:17:28Z</time>
   </trkpt>
   <trkpt lat="-3.0900380" lon="37.3737500">
    <ele>4958.8</ele>
    <time>2026-06-22T23:17:29Z</time>
   </trkpt>
   <trkpt lat="-3.0900380" lon="37.3737470">
    <ele>4958.9</ele>
    <time>2026-06-22T23:17:30Z</time>
   </trkpt>
   <trkpt lat="-3.0900390" lon="37.3737440">
    <ele>4959.0</ele>
    <time>2026-06-22T23:17:31Z</time>
   </trkpt>
   <trkpt lat="-3.0900400" lon="37.3737410">
    <ele>4959.0</ele>
    <time>2026-06-22T23:17:32Z</time>
   </trkpt>
   <trkpt lat="-3.0900390" lon="37.3737380">
    <ele>4959.1</ele>
    <time>2026-06-22T23:17:33Z</time>
   </trkpt>
   <trkpt lat="-3.0900420" lon="37.3737350">
    <ele>4959.2</ele>
    <time>2026-06-22T23:17:34Z</time>
   </trkpt>
   <trkpt lat="-3.0900420" lon="37.3737340">
    <ele>4959.2</ele>
    <time>2026-06-22T23:17:35Z</time>
   </trkpt>
   <trkpt lat="-3.0900430" lon="37.3737310">
    <ele>4959.3</ele>
    <time>2026-06-22T23:17:36Z</time>
   </trkpt>
   <trkpt lat="-3.0900430" lon="37.3737310">
    <ele>4959.3</ele>
    <time>2026-06-22T23:17:37Z</time>
   </trkpt>
   <trkpt lat="-3.0900440" lon="37.3737290">
    <ele>4959.4</ele>
    <time>2026-06-22T23:17:38Z</time>
   </trkpt>
   <trkpt lat="-3.0900430" lon="37.3737260">
    <ele>4959.5</ele>
    <time>2026-06-22T23:17:39Z</time>
   </trkpt>
   <trkpt lat="-3.0900440" lon="37.3737240">
    <ele>4959.5</ele>
    <time>2026-06-22T23:17:40Z</time>
   </trkpt>
   <trkpt lat="-3.0900440" lon="37.3737230">
    <ele>4959.5</ele>
    <time>2026-06-22T23:17:41Z</time>
   </trkpt>
   <trkpt lat="-3.0900450" lon="37.3737200">
    <ele>4959.6</ele>
    <time>2026-06-22T23:17:42Z</time>
   </trkpt>
   <trkpt lat="-3.0900450" lon="37.3737180">
    <ele>4959.7</ele>
    <time>2026-06-22T23:17:43Z</time>
   </trkpt>
   <trkpt lat="-3.0900450" lon="37.3737160">
    <ele>4959.7</ele>
    <time>2026-06-22T23:17:44Z</time>
   </trkpt>
   <trkpt lat="-3.0900450" lon="37.3737160">
    <ele>4959.7</ele>
    <time>2026-06-22T23:17:45Z</time>
   </trkpt>
   <trkpt lat="-3.0900440" lon="37.3737140">
    <ele>4959.8</ele>
    <time>2026-06-22T23:17:46Z</time>
   </trkpt>
   <trkpt lat="-3.0900440" lon="37.3737150">
    <ele>4959.8</ele>
    <time>2026-06-22T23:17:47Z</time>
   </trkpt>
   <trkpt lat="-3.0900440" lon="37.3737150">
    <ele>4959.8</ele>
    <time>2026-06-22T23:17:48Z</time>
   </trkpt>
   <trkpt lat="-3.0900440" lon="37.3737150">
    <ele>4959.8</ele>
    <time>2026-06-22T23:17:49Z</time>
   </trkpt>
   <trkpt lat="-3.0900450" lon="37.3737100">
    <ele>4959.9</ele>
    <time>2026-06-22T23:17:50Z</time>
   </trkpt>
   <trkpt lat="-3.0900450" lon="37.3737070">
    <ele>4960.0</ele>
    <time>2026-06-22T23:17:51Z</time>
   </trkpt>
   <trkpt lat="-3.0900450" lon="37.3737050">
    <ele>4960.1</ele>
    <time>2026-06-22T23:17:52Z</time>
   </trkpt>
   <trkpt lat="-3.0900450" lon="37.3737020">
    <ele>4960.1</ele>
    <time>2026-06-22T23:17:53Z</time>
   </trkpt>
   <trkpt lat="-3.0900450" lon="37.3737020">
    <ele>4960.1</ele>
    <time>2026-06-22T23:17:54Z</time>
   </trkpt>
   <trkpt lat="-3.0900450" lon="37.3737000">
    <ele>4960.2</ele>
    <time>2026-06-22T23:17:55Z</time>
   </trkpt>
   <trkpt lat="-3.0900440" lon="37.3736980">
    <ele>4960.2</ele>
    <time>2026-06-22T23:17:56Z</time>
   </trkpt>
   <trkpt lat="-3.0900440" lon="37.3736960">
    <ele>4960.3</ele>
    <time>2026-06-22T23:17:57Z</time>
   </trkpt>
   <trkpt lat="-3.0900440" lon="37.3736950">
    <ele>4960.3</ele>
    <time>2026-06-22T23:17:58Z</time>
   </trkpt>
   <trkpt lat="-3.0900440" lon="37.3736920">
    <ele>4960.4</ele>
    <time>2026-06-22T23:17:59Z</time>
   </trkpt>
   <trkpt lat="-3.0900440" lon="37.3736900">
    <ele>4960.4</ele>
    <time>2026-06-22T23:18:00Z</time>
   </trkpt>
   <trkpt lat="-3.0900420" lon="37.3736870">
    <ele>4960.5</ele>
    <time>2026-06-22T23:18:01Z</time>
   </trkpt>
   <trkpt lat="-3.0900420" lon="37.3736850">
    <ele>4960.6</ele>
    <time>2026-06-22T23:18:02Z</time>
   </trkpt>
   <trkpt lat="-3.0900400" lon="37.3736840">
    <ele>4960.6</ele>
    <time>2026-06-22T23:18:03Z</time>
   </trkpt>
   <trkpt lat="-3.0900380" lon="37.3736810">
    <ele>4960.7</ele>
    <time>2026-06-22T23:18:04Z</time>
   </trkpt>
   <trkpt lat="-3.0900370" lon="37.3736800">
    <ele>4960.7</ele>
    <time>2026-06-22T23:18:05Z</time>
   </trkpt>
   <trkpt lat="-3.0900360" lon="37.3736780">
    <ele>4960.8</ele>
    <time>2026-06-22T23:18:06Z</time>
   </trkpt>
   <trkpt lat="-3.0900340" lon="37.3736760">
    <ele>4960.8</ele>
    <time>2026-06-22T23:18:07Z</time>
   </trkpt>
   <trkpt lat="-3.0900330" lon="37.3736750">
    <ele>4960.9</ele>
    <time>2026-06-22T23:18:08Z</time>
   </trkpt>
   <trkpt lat="-3.0900320" lon="37.3736760">
    <ele>4960.9</ele>
    <time>2026-06-22T23:18:09Z</time>
   </trkpt>
   <trkpt lat="-3.0900300" lon="37.3736740">
    <ele>4961.0</ele>
    <time>2026-06-22T23:18:10Z</time>
   </trkpt>
   <trkpt lat="-3.0900280" lon="37.3736740">
    <ele>4961.0</ele>
    <time>2026-06-22T23:18:11Z</time>
   </trkpt>
   <trkpt lat="-3.0900270" lon="37.3736730">
    <ele>4961.1</ele>
    <time>2026-06-22T23:18:12Z</time>
   </trkpt>
   <trkpt lat="-3.0900260" lon="37.3736740">
    <ele>4961.1</ele>
    <time>2026-06-22T23:18:13Z</time>
   </trkpt>
   <trkpt lat="-3.0900260" lon="37.3736740">
    <ele>4961.1</ele>
    <time>2026-06-22T23:18:14Z</time>
   </trkpt>
   <trkpt lat="-3.0900260" lon="37.3736740">
    <ele>4961.1</ele>
    <time>2026-06-22T23:18:15Z</time>
   </trkpt>
   <trkpt lat="-3.0900260" lon="37.3736750">
    <ele>4961.1</ele>
    <time>2026-06-22T23:18:16Z</time>
   </trkpt>
   <trkpt lat="-3.0900260" lon="37.3736750">
    <ele>4961.1</ele>
    <time>2026-06-22T23:18:17Z</time>
   </trkpt>
   <trkpt lat="-3.0900250" lon="37.3736740">
    <ele>4961.1</ele>
    <time>2026-06-22T23:18:18Z</time>
   </trkpt>
   <trkpt lat="-3.0900220" lon="37.3736740">
    <ele>4961.2</ele>
    <time>2026-06-22T23:18:19Z</time>
   </trkpt>
   <trkpt lat="-3.0900200" lon="37.3736730">
    <ele>4961.3</ele>
    <time>2026-06-22T23:18:20Z</time>
   </trkpt>
   <trkpt lat="-3.0900160" lon="37.3736720">
    <ele>4961.4</ele>
    <time>2026-06-22T23:18:21Z</time>
   </trkpt>
   <trkpt lat="-3.0900140" lon="37.3736700">
    <ele>4961.4</ele>
    <time>2026-06-22T23:18:22Z</time>
   </trkpt>
   <trkpt lat="-3.0900120" lon="37.3736680">
    <ele>4961.5</ele>
    <time>2026-06-22T23:18:23Z</time>
   </trkpt>
   <trkpt lat="-3.0900100" lon="37.3736670">
    <ele>4961.6</ele>
    <time>2026-06-22T23:18:24Z</time>
   </trkpt>
   <trkpt lat="-3.0900100" lon="37.3736650">
    <ele>4961.6</ele>
    <time>2026-06-22T23:18:25Z</time>
   </trkpt>
   <trkpt lat="-3.0900100" lon="37.3736640">
    <ele>4961.6</ele>
    <time>2026-06-22T23:18:26Z</time>
   </trkpt>
   <trkpt lat="-3.0900100" lon="37.3736610">
    <ele>4961.7</ele>
    <time>2026-06-22T23:18:27Z</time>
   </trkpt>
   <trkpt lat="-3.0900100" lon="37.3736590">
    <ele>4961.7</ele>
    <time>2026-06-22T23:18:28Z</time>
   </trkpt>
   <trkpt lat="-3.0900090" lon="37.3736580">
    <ele>4961.8</ele>
    <time>2026-06-22T23:18:29Z</time>
   </trkpt>
   <trkpt lat="-3.0900100" lon="37.3736580">
    <ele>4961.8</ele>
    <time>2026-06-22T23:18:30Z</time>
   </trkpt>
   <trkpt lat="-3.0900090" lon="37.3736580">
    <ele>4961.8</ele>
    <time>2026-06-22T23:18:31Z</time>
   </trkpt>
   <trkpt lat="-3.0900100" lon="37.3736570">
    <ele>4961.9</ele>
    <time>2026-06-22T23:18:32Z</time>
   </trkpt>
   <trkpt lat="-3.0900090" lon="37.3736540">
    <ele>4961.9</ele>
    <time>2026-06-22T23:18:33Z</time>
   </trkpt>
   <trkpt lat="-3.0900090" lon="37.3736520">
    <ele>4962.0</ele>
    <time>2026-06-22T23:18:34Z</time>
   </trkpt>
   <trkpt lat="-3.0900080" lon="37.3736490">
    <ele>4962.1</ele>
    <time>2026-06-22T23:18:35Z</time>
   </trkpt>
   <trkpt lat="-3.0900070" lon="37.3736460">
    <ele>4962.1</ele>
    <time>2026-06-22T23:18:36Z</time>
   </trkpt>
   <trkpt lat="-3.0900060" lon="37.3736430">
    <ele>4962.2</ele>
    <time>2026-06-22T23:18:37Z</time>
   </trkpt>
   <trkpt lat="-3.0900040" lon="37.3736420">
    <ele>4962.3</ele>
    <time>2026-06-22T23:18:38Z</time>
   </trkpt>
   <trkpt lat="-3.0900030" lon="37.3736400">
    <ele>4962.3</ele>
    <time>2026-06-22T23:18:39Z</time>
   </trkpt>
   <trkpt lat="-3.0900020" lon="37.3736400">
    <ele>4962.3</ele>
    <time>2026-06-22T23:18:40Z</time>
   </trkpt>
   <trkpt lat="-3.0900020" lon="37.3736390">
    <ele>4962.4</ele>
    <time>2026-06-22T23:18:41Z</time>
   </trkpt>
   <trkpt lat="-3.0900000" lon="37.3736390">
    <ele>4962.4</ele>
    <time>2026-06-22T23:18:42Z</time>
   </trkpt>
   <trkpt lat="-3.0899980" lon="37.3736380">
    <ele>4962.5</ele>
    <time>2026-06-22T23:18:43Z</time>
   </trkpt>
   <trkpt lat="-3.0899950" lon="37.3736360">
    <ele>4962.5</ele>
    <time>2026-06-22T23:18:44Z</time>
   </trkpt>
   <trkpt lat="-3.0899940" lon="37.3736360">
    <ele>4962.6</ele>
    <time>2026-06-22T23:18:45Z</time>
   </trkpt>
   <trkpt lat="-3.0899930" lon="37.3736340">
    <ele>4962.6</ele>
    <time>2026-06-22T23:18:46Z</time>
   </trkpt>
   <trkpt lat="-3.0899920" lon="37.3736340">
    <ele>4962.6</ele>
    <time>2026-06-22T23:18:47Z</time>
   </trkpt>
   <trkpt lat="-3.0899910" lon="37.3736330">
    <ele>4962.7</ele>
    <time>2026-06-22T23:18:48Z</time>
   </trkpt>
   <trkpt lat="-3.0899890" lon="37.3736320">
    <ele>4962.7</ele>
    <time>2026-06-22T23:18:49Z</time>
   </trkpt>
   <trkpt lat="-3.0899870" lon="37.3736310">
    <ele>4962.8</ele>
    <time>2026-06-22T23:18:50Z</time>
   </trkpt>
   <trkpt lat="-3.0899840" lon="37.3736290">
    <ele>4962.9</ele>
    <time>2026-06-22T23:18:51Z</time>
   </trkpt>
   <trkpt lat="-3.0899820" lon="37.3736290">
    <ele>4962.9</ele>
    <time>2026-06-22T23:18:52Z</time>
   </trkpt>
   <trkpt lat="-3.0899810" lon="37.3736270">
    <ele>4963.0</ele>
    <time>2026-06-22T23:18:53Z</time>
   </trkpt>
   <trkpt lat="-3.0899790" lon="37.3736260">
    <ele>4963.0</ele>
    <time>2026-06-22T23:18:54Z</time>
   </trkpt>
   <trkpt lat="-3.0899780" lon="37.3736240">
    <ele>4963.1</ele>
    <time>2026-06-22T23:18:55Z</time>
   </trkpt>
   <trkpt lat="-3.0899760" lon="37.3736230">
    <ele>4963.1</ele>
    <time>2026-06-22T23:18:56Z</time>
   </trkpt>
   <trkpt lat="-3.0899740" lon="37.3736210">
    <ele>4963.2</ele>
    <time>2026-06-22T23:18:57Z</time>
   </trkpt>
   <trkpt lat="-3.0899720" lon="37.3736200">
    <ele>4963.2</ele>
    <time>2026-06-22T23:18:58Z</time>
   </trkpt>
   <trkpt lat="-3.0899690" lon="37.3736190">
    <ele>4963.3</ele>
    <time>2026-06-22T23:18:59Z</time>
   </trkpt>
   <trkpt lat="-3.0899660" lon="37.3736180">
    <ele>4963.4</ele>
    <time>2026-06-22T23:19:00Z</time>
   </trkpt>
   <trkpt lat="-3.0899640" lon="37.3736190">
    <ele>4963.4</ele>
    <time>2026-06-22T23:19:01Z</time>
   </trkpt>
   <trkpt lat="-3.0899610" lon="37.3736160">
    <ele>4963.5</ele>
    <time>2026-06-22T23:19:02Z</time>
   </trkpt>
   <trkpt lat="-3.0899600" lon="37.3736150">
    <ele>4963.6</ele>
    <time>2026-06-22T23:19:03Z</time>
   </trkpt>
   <trkpt lat="-3.0899590" lon="37.3736130">
    <ele>4963.6</ele>
    <time>2026-06-22T23:19:04Z</time>
   </trkpt>
   <trkpt lat="-3.0899580" lon="37.3736100">
    <ele>4963.7</ele>
    <time>2026-06-22T23:19:05Z</time>
   </trkpt>
   <trkpt lat="-3.0899590" lon="37.3736090">
    <ele>4963.7</ele>
    <time>2026-06-22T23:19:06Z</time>
   </trkpt>
   <trkpt lat="-3.0899590" lon="37.3736060">
    <ele>4963.8</ele>
    <time>2026-06-22T23:19:07Z</time>
   </trkpt>
   <trkpt lat="-3.0899600" lon="37.3736040">
    <ele>4963.8</ele>
    <time>2026-06-22T23:19:08Z</time>
   </trkpt>
   <trkpt lat="-3.0899610" lon="37.3736040">
    <ele>4963.9</ele>
    <time>2026-06-22T23:19:09Z</time>
   </trkpt>
   <trkpt lat="-3.0899610" lon="37.3736020">
    <ele>4963.9</ele>
    <time>2026-06-22T23:19:10Z</time>
   </trkpt>
   <trkpt lat="-3.0899610" lon="37.3736000">
    <ele>4964.0</ele>
    <time>2026-06-22T23:19:11Z</time>
   </trkpt>
   <trkpt lat="-3.0899610" lon="37.3735980">
    <ele>4964.0</ele>
    <time>2026-06-22T23:19:12Z</time>
   </trkpt>
   <trkpt lat="-3.0899610" lon="37.3735950">
    <ele>4964.1</ele>
    <time>2026-06-22T23:19:13Z</time>
   </trkpt>
   <trkpt lat="-3.0899600" lon="37.3735940">
    <ele>4964.1</ele>
    <time>2026-06-22T23:19:14Z</time>
   </trkpt>
   <trkpt lat="-3.0899600" lon="37.3735920">
    <ele>4964.1</ele>
    <time>2026-06-22T23:19:15Z</time>
   </trkpt>
   <trkpt lat="-3.0899590" lon="37.3735900">
    <ele>4964.2</ele>
    <time>2026-06-22T23:19:16Z</time>
   </trkpt>
   <trkpt lat="-3.0899590" lon="37.3735880">
    <ele>4964.2</ele>
    <time>2026-06-22T23:19:17Z</time>
   </trkpt>
   <trkpt lat="-3.0899570" lon="37.3735860">
    <ele>4964.3</ele>
    <time>2026-06-22T23:19:18Z</time>
   </trkpt>
   <trkpt lat="-3.0899570" lon="37.3735840">
    <ele>4964.4</ele>
    <time>2026-06-22T23:19:19Z</time>
   </trkpt>
   <trkpt lat="-3.0899570" lon="37.3735820">
    <ele>4964.4</ele>
    <time>2026-06-22T23:19:20Z</time>
   </trkpt>
   <trkpt lat="-3.0899580" lon="37.3735800">
    <ele>4964.5</ele>
    <time>2026-06-22T23:19:21Z</time>
   </trkpt>
   <trkpt lat="-3.0899580" lon="37.3735780">
    <ele>4964.5</ele>
    <time>2026-06-22T23:19:22Z</time>
   </trkpt>
   <trkpt lat="-3.0899600" lon="37.3735770">
    <ele>4964.5</ele>
    <time>2026-06-22T23:19:23Z</time>
   </trkpt>
   <trkpt lat="-3.0899600" lon="37.3735740">
    <ele>4964.6</ele>
    <time>2026-06-22T23:19:24Z</time>
   </trkpt>
   <trkpt lat="-3.0899610" lon="37.3735730">
    <ele>4964.6</ele>
    <time>2026-06-22T23:19:25Z</time>
   </trkpt>
   <trkpt lat="-3.0899600" lon="37.3735700">
    <ele>4964.7</ele>
    <time>2026-06-22T23:19:26Z</time>
   </trkpt>
   <trkpt lat="-3.0899600" lon="37.3735680">
    <ele>4964.8</ele>
    <time>2026-06-22T23:19:27Z</time>
   </trkpt>
   <trkpt lat="-3.0899600" lon="37.3735670">
    <ele>4964.8</ele>
    <time>2026-06-22T23:19:28Z</time>
   </trkpt>
   <trkpt lat="-3.0899580" lon="37.3735650">
    <ele>4964.9</ele>
    <time>2026-06-22T23:19:29Z</time>
   </trkpt>
   <trkpt lat="-3.0899570" lon="37.3735620">
    <ele>4964.9</ele>
    <time>2026-06-22T23:19:30Z</time>
   </trkpt>
   <trkpt lat="-3.0899560" lon="37.3735610">
    <ele>4965.0</ele>
    <time>2026-06-22T23:19:31Z</time>
   </trkpt>
   <trkpt lat="-3.0899550" lon="37.3735590">
    <ele>4965.0</ele>
    <time>2026-06-22T23:19:32Z</time>
   </trkpt>
   <trkpt lat="-3.0899540" lon="37.3735600">
    <ele>4965.0</ele>
    <time>2026-06-22T23:19:33Z</time>
   </trkpt>
   <trkpt lat="-3.0899530" lon="37.3735580">
    <ele>4965.1</ele>
    <time>2026-06-22T23:19:34Z</time>
   </trkpt>
   <trkpt lat="-3.0899520" lon="37.3735590">
    <ele>4965.1</ele>
    <time>2026-06-22T23:19:35Z</time>
   </trkpt>
   <trkpt lat="-3.0899490" lon="37.3735590">
    <ele>4965.2</ele>
    <time>2026-06-22T23:19:36Z</time>
   </trkpt>
   <trkpt lat="-3.0899480" lon="37.3735580">
    <ele>4965.2</ele>
    <time>2026-06-22T23:19:37Z</time>
   </trkpt>
   <trkpt lat="-3.0899440" lon="37.3735580">
    <ele>4965.3</ele>
    <time>2026-06-22T23:19:38Z</time>
   </trkpt>
   <trkpt lat="-3.0899410" lon="37.3735560">
    <ele>4965.4</ele>
    <time>2026-06-22T23:19:39Z</time>
   </trkpt>
   <trkpt lat="-3.0899400" lon="37.3735570">
    <ele>4965.4</ele>
    <time>2026-06-22T23:19:40Z</time>
   </trkpt>
   <trkpt lat="-3.0899370" lon="37.3735550">
    <ele>4965.5</ele>
    <time>2026-06-22T23:19:41Z</time>
   </trkpt>
   <trkpt lat="-3.0899350" lon="37.3735550">
    <ele>4965.6</ele>
    <time>2026-06-22T23:19:42Z</time>
   </trkpt>
   <trkpt lat="-3.0899350" lon="37.3735530">
    <ele>4965.6</ele>
    <time>2026-06-22T23:19:43Z</time>
   </trkpt>
   <trkpt lat="-3.0899330" lon="37.3735540">
    <ele>4965.7</ele>
    <time>2026-06-22T23:19:44Z</time>
   </trkpt>
   <trkpt lat="-3.0899300" lon="37.3735520">
    <ele>4965.7</ele>
    <time>2026-06-22T23:19:45Z</time>
   </trkpt>
   <trkpt lat="-3.0899280" lon="37.3735510">
    <ele>4965.8</ele>
    <time>2026-06-22T23:19:46Z</time>
   </trkpt>
   <trkpt lat="-3.0899270" lon="37.3735500">
    <ele>4965.8</ele>
    <time>2026-06-22T23:19:47Z</time>
   </trkpt>
   <trkpt lat="-3.0899260" lon="37.3735470">
    <ele>4965.9</ele>
    <time>2026-06-22T23:19:48Z</time>
   </trkpt>
   <trkpt lat="-3.0899250" lon="37.3735450">
    <ele>4966.0</ele>
    <time>2026-06-22T23:19:49Z</time>
   </trkpt>
   <trkpt lat="-3.0899260" lon="37.3735410">
    <ele>4966.0</ele>
    <time>2026-06-22T23:19:50Z</time>
   </trkpt>
   <trkpt lat="-3.0899250" lon="37.3735390">
    <ele>4966.1</ele>
    <time>2026-06-22T23:19:51Z</time>
   </trkpt>
   <trkpt lat="-3.0899270" lon="37.3735380">
    <ele>4966.2</ele>
    <time>2026-06-22T23:19:52Z</time>
   </trkpt>
   <trkpt lat="-3.0899270" lon="37.3735350">
    <ele>4966.2</ele>
    <time>2026-06-22T23:19:53Z</time>
   </trkpt>
   <trkpt lat="-3.0899280" lon="37.3735330">
    <ele>4966.3</ele>
    <time>2026-06-22T23:19:54Z</time>
   </trkpt>
   <trkpt lat="-3.0899280" lon="37.3735300">
    <ele>4966.3</ele>
    <time>2026-06-22T23:19:55Z</time>
   </trkpt>
   <trkpt lat="-3.0899290" lon="37.3735270">
    <ele>4966.4</ele>
    <time>2026-06-22T23:19:56Z</time>
   </trkpt>
   <trkpt lat="-3.0899290" lon="37.3735240">
    <ele>4966.5</ele>
    <time>2026-06-22T23:19:57Z</time>
   </trkpt>
   <trkpt lat="-3.0899290" lon="37.3735220">
    <ele>4966.5</ele>
    <time>2026-06-22T23:19:58Z</time>
   </trkpt>
   <trkpt lat="-3.0899280" lon="37.3735200">
    <ele>4966.6</ele>
    <time>2026-06-22T23:19:59Z</time>
   </trkpt>
   <trkpt lat="-3.0899270" lon="37.3735180">
    <ele>4966.6</ele>
    <time>2026-06-22T23:20:00Z</time>
   </trkpt>
   <trkpt lat="-3.0899270" lon="37.3735170">
    <ele>4966.7</ele>
    <time>2026-06-22T23:20:01Z</time>
   </trkpt>
   <trkpt lat="-3.0899260" lon="37.3735160">
    <ele>4966.7</ele>
    <time>2026-06-22T23:20:02Z</time>
   </trkpt>
   <trkpt lat="-3.0899250" lon="37.3735140">
    <ele>4966.7</ele>
    <time>2026-06-22T23:20:03Z</time>
   </trkpt>
   <trkpt lat="-3.0899240" lon="37.3735110">
    <ele>4966.8</ele>
    <time>2026-06-22T23:20:04Z</time>
   </trkpt>
   <trkpt lat="-3.0899220" lon="37.3735100">
    <ele>4966.9</ele>
    <time>2026-06-22T23:20:05Z</time>
   </trkpt>
   <trkpt lat="-3.0899200" lon="37.3735070">
    <ele>4966.9</ele>
    <time>2026-06-22T23:20:06Z</time>
   </trkpt>
   <trkpt lat="-3.0899180" lon="37.3735050">
    <ele>4967.0</ele>
    <time>2026-06-22T23:20:07Z</time>
   </trkpt>
   <trkpt lat="-3.0899170" lon="37.3735030">
    <ele>4967.1</ele>
    <time>2026-06-22T23:20:08Z</time>
   </trkpt>
   <trkpt lat="-3.0899150" lon="37.3735010">
    <ele>4967.1</ele>
    <time>2026-06-22T23:20:09Z</time>
   </trkpt>
   <trkpt lat="-3.0899140" lon="37.3734990">
    <ele>4967.2</ele>
    <time>2026-06-22T23:20:10Z</time>
   </trkpt>
   <trkpt lat="-3.0899140" lon="37.3734940">
    <ele>4967.3</ele>
    <time>2026-06-22T23:20:11Z</time>
   </trkpt>
   <trkpt lat="-3.0899120" lon="37.3734910">
    <ele>4967.4</ele>
    <time>2026-06-22T23:20:12Z</time>
   </trkpt>
   <trkpt lat="-3.0899150" lon="37.3734880">
    <ele>4967.5</ele>
    <time>2026-06-22T23:20:13Z</time>
   </trkpt>
   <trkpt lat="-3.0899130" lon="37.3734850">
    <ele>4967.5</ele>
    <time>2026-06-22T23:20:14Z</time>
   </trkpt>
   <trkpt lat="-3.0899130" lon="37.3734830">
    <ele>4967.6</ele>
    <time>2026-06-22T23:20:15Z</time>
   </trkpt>
   <trkpt lat="-3.0899110" lon="37.3734790">
    <ele>4967.7</ele>
    <time>2026-06-22T23:20:16Z</time>
   </trkpt>
   <trkpt lat="-3.0899100" lon="37.3734770">
    <ele>4967.7</ele>
    <time>2026-06-22T23:20:17Z</time>
   </trkpt>
   <trkpt lat="-3.0899080" lon="37.3734760">
    <ele>4967.8</ele>
    <time>2026-06-22T23:20:18Z</time>
   </trkpt>
   <trkpt lat="-3.0899050" lon="37.3734740">
    <ele>4967.9</ele>
    <time>2026-06-22T23:20:19Z</time>
   </trkpt>
   <trkpt lat="-3.0899020" lon="37.3734720">
    <ele>4967.9</ele>
    <time>2026-06-22T23:20:20Z</time>
   </trkpt>
   <trkpt lat="-3.0899000" lon="37.3734700">
    <ele>4968.0</ele>
    <time>2026-06-22T23:20:21Z</time>
   </trkpt>
   <trkpt lat="-3.0898970" lon="37.3734710">
    <ele>4968.1</ele>
    <time>2026-06-22T23:20:22Z</time>
   </trkpt>
   <trkpt lat="-3.0898950" lon="37.3734710">
    <ele>4968.1</ele>
    <time>2026-06-22T23:20:23Z</time>
   </trkpt>
   <trkpt lat="-3.0898910" lon="37.3734700">
    <ele>4968.2</ele>
    <time>2026-06-22T23:20:24Z</time>
   </trkpt>
   <trkpt lat="-3.0898880" lon="37.3734690">
    <ele>4968.3</ele>
    <time>2026-06-22T23:20:25Z</time>
   </trkpt>
   <trkpt lat="-3.0898880" lon="37.3734670">
    <ele>4968.3</ele>
    <time>2026-06-22T23:20:26Z</time>
   </trkpt>
   <trkpt lat="-3.0898860" lon="37.3734660">
    <ele>4968.4</ele>
    <time>2026-06-22T23:20:27Z</time>
   </trkpt>
   <trkpt lat="-3.0898850" lon="37.3734660">
    <ele>4968.4</ele>
    <time>2026-06-22T23:20:28Z</time>
   </trkpt>
   <trkpt lat="-3.0898850" lon="37.3734660">
    <ele>4968.4</ele>
    <time>2026-06-22T23:20:29Z</time>
   </trkpt>
   <trkpt lat="-3.0898840" lon="37.3734660">
    <ele>4968.4</ele>
    <time>2026-06-22T23:20:30Z</time>
   </trkpt>
   <trkpt lat="-3.0898830" lon="37.3734660">
    <ele>4968.4</ele>
    <time>2026-06-22T23:20:31Z</time>
   </trkpt>
   <trkpt lat="-3.0898840" lon="37.3734660">
    <ele>4968.5</ele>
    <time>2026-06-22T23:20:32Z</time>
   </trkpt>
   <trkpt lat="-3.0898830" lon="37.3734660">
    <ele>4968.5</ele>
    <time>2026-06-22T23:20:33Z</time>
   </trkpt>
   <trkpt lat="-3.0898830" lon="37.3734650">
    <ele>4968.5</ele>
    <time>2026-06-22T23:20:34Z</time>
   </trkpt>
   <trkpt lat="-3.0898840" lon="37.3734650">
    <ele>4968.5</ele>
    <time>2026-06-22T23:20:35Z</time>
   </trkpt>
   <trkpt lat="-3.0898840" lon="37.3734650">
    <ele>4968.5</ele>
    <time>2026-06-22T23:20:36Z</time>
   </trkpt>
   <trkpt lat="-3.0898830" lon="37.3734660">
    <ele>4968.5</ele>
    <time>2026-06-22T23:20:37Z</time>
   </trkpt>
   <trkpt lat="-3.0898830" lon="37.3734660">
    <ele>4968.5</ele>
    <time>2026-06-22T23:20:38Z</time>
   </trkpt>
   <trkpt lat="-3.0898830" lon="37.3734640">
    <ele>4968.6</ele>
    <time>2026-06-22T23:20:39Z</time>
   </trkpt>
   <trkpt lat="-3.0898830" lon="37.3734640">
    <ele>4968.6</ele>
    <time>2026-06-22T23:20:40Z</time>
   </trkpt>
   <trkpt lat="-3.0898820" lon="37.3734620">
    <ele>4968.6</ele>
    <time>2026-06-22T23:20:41Z</time>
   </trkpt>
   <trkpt lat="-3.0898820" lon="37.3734640">
    <ele>4968.7</ele>
    <time>2026-06-22T23:20:42Z</time>
   </trkpt>
   <trkpt lat="-3.0898820" lon="37.3734620">
    <ele>4968.7</ele>
    <time>2026-06-22T23:20:43Z</time>
   </trkpt>
   <trkpt lat="-3.0898820" lon="37.3734630">
    <ele>4968.7</ele>
    <time>2026-06-22T23:20:44Z</time>
   </trkpt>
   <trkpt lat="-3.0898820" lon="37.3734630">
    <ele>4968.7</ele>
    <time>2026-06-22T23:20:45Z</time>
   </trkpt>
   <trkpt lat="-3.0898820" lon="37.3734630">
    <ele>4968.7</ele>
    <time>2026-06-22T23:20:46Z</time>
   </trkpt>
   <trkpt lat="-3.0898820" lon="37.3734630">
    <ele>4968.7</ele>
    <time>2026-06-22T23:20:47Z</time>
   </trkpt>
   <trkpt lat="-3.0898820" lon="37.3734630">
    <ele>4968.7</ele>
    <time>2026-06-22T23:20:48Z</time>
   </trkpt>
   <trkpt lat="-3.0898820" lon="37.3734620">
    <ele>4968.8</ele>
    <time>2026-06-22T23:20:49Z</time>
   </trkpt>
   <trkpt lat="-3.0898820" lon="37.3734620">
    <ele>4968.8</ele>
    <time>2026-06-22T23:20:50Z</time>
   </trkpt>
   <trkpt lat="-3.0898810" lon="37.3734620">
    <ele>4968.8</ele>
    <time>2026-06-22T23:20:51Z</time>
   </trkpt>
   <trkpt lat="-3.0898820" lon="37.3734600">
    <ele>4968.8</ele>
    <time>2026-06-22T23:20:52Z</time>
   </trkpt>
   <trkpt lat="-3.0898800" lon="37.3734600">
    <ele>4968.9</ele>
    <time>2026-06-22T23:20:53Z</time>
   </trkpt>
   <trkpt lat="-3.0898810" lon="37.3734590">
    <ele>4968.9</ele>
    <time>2026-06-22T23:20:54Z</time>
   </trkpt>
   <trkpt lat="-3.0898800" lon="37.3734590">
    <ele>4968.9</ele>
    <time>2026-06-22T23:20:55Z</time>
   </trkpt>
   <trkpt lat="-3.0898810" lon="37.3734590">
    <ele>4969.0</ele>
    <time>2026-06-22T23:20:56Z</time>
   </trkpt>
   <trkpt lat="-3.0898810" lon="37.3734600">
    <ele>4969.0</ele>
    <time>2026-06-22T23:20:57Z</time>
   </trkpt>
   <trkpt lat="-3.0898820" lon="37.3734610">
    <ele>4969.0</ele>
    <time>2026-06-22T23:20:58Z</time>
   </trkpt>
   <trkpt lat="-3.0898820" lon="37.3734630">
    <ele>4969.1</ele>
    <time>2026-06-22T23:20:59Z</time>
   </trkpt>
   <trkpt lat="-3.0898820" lon="37.3734630">
    <ele>4969.1</ele>
    <time>2026-06-22T23:21:00Z</time>
   </trkpt>
   <trkpt lat="-3.0898820" lon="37.3734620">
    <ele>4969.1</ele>
    <time>2026-06-22T23:21:01Z</time>
   </trkpt>
   <trkpt lat="-3.0898820" lon="37.3734620">
    <ele>4969.1</ele>
    <time>2026-06-22T23:21:02Z</time>
   </trkpt>
   <trkpt lat="-3.0898800" lon="37.3734610">
    <ele>4969.1</ele>
    <time>2026-06-22T23:21:03Z</time>
   </trkpt>
   <trkpt lat="-3.0898790" lon="37.3734600">
    <ele>4969.2</ele>
    <time>2026-06-22T23:21:04Z</time>
   </trkpt>
   <trkpt lat="-3.0898800" lon="37.3734600">
    <ele>4969.2</ele>
    <time>2026-06-22T23:21:05Z</time>
   </trkpt>
   <trkpt lat="-3.0898800" lon="37.3734600">
    <ele>4969.2</ele>
    <time>2026-06-22T23:21:06Z</time>
   </trkpt>
   <trkpt lat="-3.0898810" lon="37.3734610">
    <ele>4969.2</ele>
    <time>2026-06-22T23:21:07Z</time>
   </trkpt>
   <trkpt lat="-3.0898810" lon="37.3734640">
    <ele>4969.3</ele>
    <time>2026-06-22T23:21:08Z</time>
   </trkpt>
   <trkpt lat="-3.0898800" lon="37.3734630">
    <ele>4969.3</ele>
    <time>2026-06-22T23:21:09Z</time>
   </trkpt>
   <trkpt lat="-3.0898810" lon="37.3734640">
    <ele>4969.3</ele>
    <time>2026-06-22T23:21:10Z</time>
   </trkpt>
   <trkpt lat="-3.0898810" lon="37.3734630">
    <ele>4969.4</ele>
    <time>2026-06-22T23:21:11Z</time>
   </trkpt>
   <trkpt lat="-3.0898800" lon="37.3734630">
    <ele>4969.4</ele>
    <time>2026-06-22T23:21:12Z</time>
   </trkpt>
   <trkpt lat="-3.0898800" lon="37.3734640">
    <ele>4969.4</ele>
    <time>2026-06-22T23:21:13Z</time>
   </trkpt>
   <trkpt lat="-3.0898800" lon="37.3734630">
    <ele>4969.4</ele>
    <time>2026-06-22T23:21:14Z</time>
   </trkpt>
   <trkpt lat="-3.0898790" lon="37.3734640">
    <ele>4969.5</ele>
    <time>2026-06-22T23:21:15Z</time>
   </trkpt>
   <trkpt lat="-3.0898790" lon="37.3734640">
    <ele>4969.5</ele>
    <time>2026-06-22T23:21:16Z</time>
   </trkpt>
   <trkpt lat="-3.0898790" lon="37.3734650">
    <ele>4969.5</ele>
    <time>2026-06-22T23:21:17Z</time>
   </trkpt>
   <trkpt lat="-3.0898780" lon="37.3734650">
    <ele>4969.5</ele>
    <time>2026-06-22T23:21:18Z</time>
   </trkpt>
   <trkpt lat="-3.0898790" lon="37.3734640">
    <ele>4969.5</ele>
    <time>2026-06-22T23:21:19Z</time>
   </trkpt>
   <trkpt lat="-3.0898800" lon="37.3734640">
    <ele>4969.6</ele>
    <time>2026-06-22T23:21:20Z</time>
   </trkpt>
   <trkpt lat="-3.0898800" lon="37.3734640">
    <ele>4969.6</ele>
    <time>2026-06-22T23:21:21Z</time>
   </trkpt>
   <trkpt lat="-3.0898800" lon="37.3734640">
    <ele>4969.6</ele>
    <time>2026-06-22T23:21:22Z</time>
   </trkpt>
   <trkpt lat="-3.0898800" lon="37.3734640">
    <ele>4969.6</ele>
    <time>2026-06-22T23:21:23Z</time>
   </trkpt>
   <trkpt lat="-3.0898800" lon="37.3734640">
    <ele>4969.6</ele>
    <time>2026-06-22T23:21:24Z</time>
   </trkpt>
   <trkpt lat="-3.0898790" lon="37.3734650">
    <ele>4969.6</ele>
    <time>2026-06-22T23:21:25Z</time>
   </trkpt>
   <trkpt lat="-3.0898790" lon="37.3734650">
    <ele>4969.6</ele>
    <time>2026-06-22T23:21:26Z</time>
   </trkpt>
   <trkpt lat="-3.0898780" lon="37.3734640">
    <ele>4969.6</ele>
    <time>2026-06-22T23:21:27Z</time>
   </trkpt>
   <trkpt lat="-3.0898780" lon="37.3734630">
    <ele>4969.6</ele>
    <time>2026-06-22T23:21:28Z</time>
   </trkpt>
   <trkpt lat="-3.0898790" lon="37.3734640">
    <ele>4969.7</ele>
    <time>2026-06-22T23:21:29Z</time>
   </trkpt>
   <trkpt lat="-3.0898790" lon="37.3734640">
    <ele>4969.7</ele>
    <time>2026-06-22T23:21:30Z</time>
   </trkpt>
   <trkpt lat="-3.0898790" lon="37.3734640">
    <ele>4969.7</ele>
    <time>2026-06-22T23:21:31Z</time>
   </trkpt>
   <trkpt lat="-3.0898790" lon="37.3734650">
    <ele>4969.7</ele>
    <time>2026-06-22T23:21:32Z</time>
   </trkpt>
   <trkpt lat="-3.0898790" lon="37.3734650">
    <ele>4969.7</ele>
    <time>2026-06-22T23:21:33Z</time>
   </trkpt>
   <trkpt lat="-3.0898790" lon="37.3734650">
    <ele>4969.7</ele>
    <time>2026-06-22T23:21:34Z</time>
   </trkpt>
   <trkpt lat="-3.0898790" lon="37.3734650">
    <ele>4969.7</ele>
    <time>2026-06-22T23:21:35Z</time>
   </trkpt>
   <trkpt lat="-3.0898800" lon="37.3734650">
    <ele>4969.7</ele>
    <time>2026-06-22T23:21:36Z</time>
   </trkpt>
   <trkpt lat="-3.0898800" lon="37.3734660">
    <ele>4969.7</ele>
    <time>2026-06-22T23:21:37Z</time>
   </trkpt>
   <trkpt lat="-3.0898790" lon="37.3734650">
    <ele>4969.8</ele>
    <time>2026-06-22T23:21:38Z</time>
   </trkpt>
   <trkpt lat="-3.0898790" lon="37.3734650">
    <ele>4969.8</ele>
    <time>2026-06-22T23:21:39Z</time>
   </trkpt>
   <trkpt lat="-3.0898790" lon="37.3734650">
    <ele>4969.8</ele>
    <time>2026-06-22T23:21:40Z</time>
   </trkpt>
   <trkpt lat="-3.0898790" lon="37.3734670">
    <ele>4969.8</ele>
    <time>2026-06-22T23:21:41Z</time>
   </trkpt>
   <trkpt lat="-3.0898790" lon="37.3734670">
    <ele>4969.8</ele>
    <time>2026-06-22T23:21:42Z</time>
   </trkpt>
   <trkpt lat="-3.0898790" lon="37.3734670">
    <ele>4969.8</ele>
    <time>2026-06-22T23:21:43Z</time>
   </trkpt>
   <trkpt lat="-3.0898790" lon="37.3734690">
    <ele>4969.9</ele>
    <time>2026-06-22T23:21:44Z</time>
   </trkpt>
   <trkpt lat="-3.0898790" lon="37.3734690">
    <ele>4969.9</ele>
    <time>2026-06-22T23:21:45Z</time>
   </trkpt>
   <trkpt lat="-3.0898780" lon="37.3734670">
    <ele>4969.9</ele>
    <time>2026-06-22T23:21:46Z</time>
   </trkpt>
   <trkpt lat="-3.0898790" lon="37.3734660">
    <ele>4969.9</ele>
    <time>2026-06-22T23:21:47Z</time>
   </trkpt>
   <trkpt lat="-3.0898790" lon="37.3734660">
    <ele>4969.9</ele>
    <time>2026-06-22T23:21:48Z</time>
   </trkpt>
   <trkpt lat="-3.0898790" lon="37.3734660">
    <ele>4969.9</ele>
    <time>2026-06-22T23:21:49Z</time>
   </trkpt>
   <trkpt lat="-3.0898780" lon="37.3734670">
    <ele>4970.0</ele>
    <time>2026-06-22T23:21:50Z</time>
   </trkpt>
   <trkpt lat="-3.0898780" lon="37.3734660">
    <ele>4970.0</ele>
    <time>2026-06-22T23:21:51Z</time>
   </trkpt>
   <trkpt lat="-3.0898790" lon="37.3734670">
    <ele>4970.0</ele>
    <time>2026-06-22T23:21:52Z</time>
   </trkpt>
   <trkpt lat="-3.0898800" lon="37.3734680">
    <ele>4970.0</ele>
    <time>2026-06-22T23:21:53Z</time>
   </trkpt>
   <trkpt lat="-3.0898800" lon="37.3734690">
    <ele>4970.1</ele>
    <time>2026-06-22T23:21:54Z</time>
   </trkpt>
   <trkpt lat="-3.0898770" lon="37.3734740">
    <ele>4970.2</ele>
    <time>2026-06-22T23:21:55Z</time>
   </trkpt>
   <trkpt lat="-3.0898740" lon="37.3734750">
    <ele>4970.3</ele>
    <time>2026-06-22T23:21:56Z</time>
   </trkpt>
   <trkpt lat="-3.0898720" lon="37.3734760">
    <ele>4970.3</ele>
    <time>2026-06-22T23:21:57Z</time>
   </trkpt>
   <trkpt lat="-3.0898670" lon="37.3734770">
    <ele>4970.4</ele>
    <time>2026-06-22T23:21:58Z</time>
   </trkpt>
   <trkpt lat="-3.0898590" lon="37.3734770">
    <ele>4970.6</ele>
    <time>2026-06-22T23:21:59Z</time>
   </trkpt>
   <trkpt lat="-3.0898560" lon="37.3734770">
    <ele>4970.7</ele>
    <time>2026-06-22T23:22:00Z</time>
   </trkpt>
   <trkpt lat="-3.0898510" lon="37.3734750">
    <ele>4970.8</ele>
    <time>2026-06-22T23:22:01Z</time>
   </trkpt>
   <trkpt lat="-3.0898480" lon="37.3734720">
    <ele>4970.9</ele>
    <time>2026-06-22T23:22:02Z</time>
   </trkpt>
   <trkpt lat="-3.0898480" lon="37.3734700">
    <ele>4970.9</ele>
    <time>2026-06-22T23:22:03Z</time>
   </trkpt>
   <trkpt lat="-3.0898470" lon="37.3734680">
    <ele>4971.0</ele>
    <time>2026-06-22T23:22:04Z</time>
   </trkpt>
   <trkpt lat="-3.0898440" lon="37.3734640">
    <ele>4971.1</ele>
    <time>2026-06-22T23:22:05Z</time>
   </trkpt>
   <trkpt lat="-3.0898440" lon="37.3734610">
    <ele>4971.1</ele>
    <time>2026-06-22T23:22:06Z</time>
   </trkpt>
   <trkpt lat="-3.0898450" lon="37.3734580">
    <ele>4971.2</ele>
    <time>2026-06-22T23:22:07Z</time>
   </trkpt>
   <trkpt lat="-3.0898470" lon="37.3734570">
    <ele>4971.3</ele>
    <time>2026-06-22T23:22:08Z</time>
   </trkpt>
   <trkpt lat="-3.0898460" lon="37.3734590">
    <ele>4971.3</ele>
    <time>2026-06-22T23:22:09Z</time>
   </trkpt>
   <trkpt lat="-3.0898460" lon="37.3734590">
    <ele>4971.3</ele>
    <time>2026-06-22T23:22:10Z</time>
   </trkpt>
   <trkpt lat="-3.0898470" lon="37.3734600">
    <ele>4971.3</ele>
    <time>2026-06-22T23:22:11Z</time>
   </trkpt>
   <trkpt lat="-3.0898480" lon="37.3734600">
    <ele>4971.4</ele>
    <time>2026-06-22T23:22:12Z</time>
   </trkpt>
   <trkpt lat="-3.0898490" lon="37.3734610">
    <ele>4971.4</ele>
    <time>2026-06-22T23:22:13Z</time>
   </trkpt>
   <trkpt lat="-3.0898480" lon="37.3734610">
    <ele>4971.4</ele>
    <time>2026-06-22T23:22:14Z</time>
   </trkpt>
   <trkpt lat="-3.0898480" lon="37.3734600">
    <ele>4971.4</ele>
    <time>2026-06-22T23:22:16Z</time>
   </trkpt>
   <trkpt lat="-3.0898480" lon="37.3734600">
    <ele>4971.4</ele>
    <time>2026-06-22T23:22:17Z</time>
   </trkpt>
   <trkpt lat="-3.0898480" lon="37.3734610">
    <ele>4971.5</ele>
    <time>2026-06-22T23:22:18Z</time>
   </trkpt>
   <trkpt lat="-3.0898480" lon="37.3734610">
    <ele>4971.5</ele>
    <time>2026-06-22T23:22:19Z</time>
   </trkpt>
   <trkpt lat="-3.0898510" lon="37.3734590">
    <ele>4971.5</ele>
    <time>2026-06-22T23:22:20Z</time>
   </trkpt>
   <trkpt lat="-3.0898520" lon="37.3734590">
    <ele>4971.6</ele>
    <time>2026-06-22T23:22:21Z</time>
   </trkpt>
   <trkpt lat="-3.0898500" lon="37.3734580">
    <ele>4971.6</ele>
    <time>2026-06-22T23:22:22Z</time>
   </trkpt>
   <trkpt lat="-3.0898520" lon="37.3734580">
    <ele>4971.7</ele>
    <time>2026-06-22T23:22:23Z</time>
   </trkpt>
   <trkpt lat="-3.0898520" lon="37.3734570">
    <ele>4971.7</ele>
    <time>2026-06-22T23:22:24Z</time>
   </trkpt>
   <trkpt lat="-3.0898530" lon="37.3734570">
    <ele>4971.7</ele>
    <time>2026-06-22T23:22:25Z</time>
   </trkpt>
   <trkpt lat="-3.0898530" lon="37.3734570">
    <ele>4971.7</ele>
    <time>2026-06-22T23:22:26Z</time>
   </trkpt>
   <trkpt lat="-3.0898530" lon="37.3734570">
    <ele>4971.7</ele>
    <time>2026-06-22T23:22:27Z</time>
   </trkpt>
   <trkpt lat="-3.0898540" lon="37.3734570">
    <ele>4971.7</ele>
    <time>2026-06-22T23:22:28Z</time>
   </trkpt>
   <trkpt lat="-3.0898540" lon="37.3734580">
    <ele>4971.7</ele>
    <time>2026-06-22T23:22:29Z</time>
   </trkpt>
   <trkpt lat="-3.0898540" lon="37.3734580">
    <ele>4971.7</ele>
    <time>2026-06-22T23:22:30Z</time>
   </trkpt>
   <trkpt lat="-3.0898550" lon="37.3734590">
    <ele>4971.8</ele>
    <time>2026-06-22T23:22:31Z</time>
   </trkpt>
   <trkpt lat="-3.0898550" lon="37.3734590">
    <ele>4971.8</ele>
    <time>2026-06-22T23:22:32Z</time>
   </trkpt>
   <trkpt lat="-3.0898540" lon="37.3734590">
    <ele>4971.8</ele>
    <time>2026-06-22T23:22:33Z</time>
   </trkpt>
   <trkpt lat="-3.0898540" lon="37.3734590">
    <ele>4971.8</ele>
    <time>2026-06-22T23:22:34Z</time>
   </trkpt>
   <trkpt lat="-3.0898550" lon="37.3734600">
    <ele>4971.8</ele>
    <time>2026-06-22T23:22:35Z</time>
   </trkpt>
   <trkpt lat="-3.0898550" lon="37.3734600">
    <ele>4971.8</ele>
    <time>2026-06-22T23:22:36Z</time>
   </trkpt>
   <trkpt lat="-3.0898550" lon="37.3734610">
    <ele>4971.8</ele>
    <time>2026-06-22T23:22:37Z</time>
   </trkpt>
   <trkpt lat="-3.0898540" lon="37.3734610">
    <ele>4971.9</ele>
    <time>2026-06-22T23:22:38Z</time>
   </trkpt>
   <trkpt lat="-3.0898540" lon="37.3734610">
    <ele>4971.9</ele>
    <time>2026-06-22T23:22:39Z</time>
   </trkpt>
   <trkpt lat="-3.0898540" lon="37.3734610">
    <ele>4971.9</ele>
    <time>2026-06-22T23:22:40Z</time>
   </trkpt>
   <trkpt lat="-3.0898540" lon="37.3734610">
    <ele>4971.9</ele>
    <time>2026-06-22T23:22:41Z</time>
   </trkpt>
   <trkpt lat="-3.0898540" lon="37.3734610">
    <ele>4971.9</ele>
    <time>2026-06-22T23:22:42Z</time>
   </trkpt>
   <trkpt lat="-3.0898550" lon="37.3734620">
    <ele>4971.9</ele>
    <time>2026-06-22T23:22:43Z</time>
   </trkpt>
   <trkpt lat="-3.0898550" lon="37.3734620">
    <ele>4971.9</ele>
    <time>2026-06-22T23:22:44Z</time>
   </trkpt>
   <trkpt lat="-3.0898550" lon="37.3734620">
    <ele>4971.9</ele>
    <time>2026-06-22T23:22:45Z</time>
   </trkpt>
   <trkpt lat="-3.0898560" lon="37.3734640">
    <ele>4971.9</ele>
    <time>2026-06-22T23:22:46Z</time>
   </trkpt>
   <trkpt lat="-3.0898550" lon="37.3734640">
    <ele>4972.0</ele>
    <time>2026-06-22T23:22:47Z</time>
   </trkpt>
   <trkpt lat="-3.0898550" lon="37.3734630">
    <ele>4972.0</ele>
    <time>2026-06-22T23:22:48Z</time>
   </trkpt>
   <trkpt lat="-3.0898570" lon="37.3734640">
    <ele>4972.0</ele>
    <time>2026-06-22T23:22:49Z</time>
   </trkpt>
   <trkpt lat="-3.0898570" lon="37.3734640">
    <ele>4972.0</ele>
    <time>2026-06-22T23:22:50Z</time>
   </trkpt>
   <trkpt lat="-3.0898570" lon="37.3734640">
    <ele>4972.0</ele>
    <time>2026-06-22T23:22:51Z</time>
   </trkpt>
   <trkpt lat="-3.0898570" lon="37.3734630">
    <ele>4972.1</ele>
    <time>2026-06-22T23:22:52Z</time>
   </trkpt>
   <trkpt lat="-3.0898570" lon="37.3734630">
    <ele>4972.1</ele>
    <time>2026-06-22T23:22:53Z</time>
   </trkpt>
   <trkpt lat="-3.0898570" lon="37.3734630">
    <ele>4972.1</ele>
    <time>2026-06-22T23:22:54Z</time>
   </trkpt>
   <trkpt lat="-3.0898570" lon="37.3734630">
    <ele>4972.1</ele>
    <time>2026-06-22T23:22:55Z</time>
   </trkpt>
   <trkpt lat="-3.0898570" lon="37.3734630">
    <ele>4972.1</ele>
    <time>2026-06-22T23:22:56Z</time>
   </trkpt>
   <trkpt lat="-3.0898570" lon="37.3734630">
    <ele>4972.1</ele>
    <time>2026-06-22T23:22:57Z</time>
   </trkpt>
   <trkpt lat="-3.0898560" lon="37.3734610">
    <ele>4972.1</ele>
    <time>2026-06-22T23:22:58Z</time>
   </trkpt>
   <trkpt lat="-3.0898560" lon="37.3734600">
    <ele>4972.1</ele>
    <time>2026-06-22T23:22:59Z</time>
   </trkpt>
   <trkpt lat="-3.0898560" lon="37.3734590">
    <ele>4972.2</ele>
    <time>2026-06-22T23:23:00Z</time>
   </trkpt>
   <trkpt lat="-3.0898550" lon="37.3734570">
    <ele>4972.2</ele>
    <time>2026-06-22T23:23:01Z</time>
   </trkpt>
   <trkpt lat="-3.0898550" lon="37.3734570">
    <ele>4972.2</ele>
    <time>2026-06-22T23:23:02Z</time>
   </trkpt>
   <trkpt lat="-3.0898550" lon="37.3734570">
    <ele>4972.2</ele>
    <time>2026-06-22T23:23:03Z</time>
   </trkpt>
   <trkpt lat="-3.0898550" lon="37.3734570">
    <ele>4972.2</ele>
    <time>2026-06-22T23:23:04Z</time>
   </trkpt>
   <trkpt lat="-3.0898530" lon="37.3734560">
    <ele>4972.3</ele>
    <time>2026-06-22T23:23:05Z</time>
   </trkpt>
   <trkpt lat="-3.0898530" lon="37.3734550">
    <ele>4972.3</ele>
    <time>2026-06-22T23:23:06Z</time>
   </trkpt>
   <trkpt lat="-3.0898520" lon="37.3734550">
    <ele>4972.3</ele>
    <time>2026-06-22T23:23:07Z</time>
   </trkpt>
   <trkpt lat="-3.0898520" lon="37.3734540">
    <ele>4972.3</ele>
    <time>2026-06-22T23:23:08Z</time>
   </trkpt>
   <trkpt lat="-3.0898520" lon="37.3734540">
    <ele>4972.3</ele>
    <time>2026-06-22T23:23:09Z</time>
   </trkpt>
   <trkpt lat="-3.0898500" lon="37.3734530">
    <ele>4972.4</ele>
    <time>2026-06-22T23:23:10Z</time>
   </trkpt>
   <trkpt lat="-3.0898510" lon="37.3734530">
    <ele>4972.4</ele>
    <time>2026-06-22T23:23:11Z</time>
   </trkpt>
   <trkpt lat="-3.0898510" lon="37.3734520">
    <ele>4972.4</ele>
    <time>2026-06-22T23:23:12Z</time>
   </trkpt>
   <trkpt lat="-3.0898510" lon="37.3734520">
    <ele>4972.4</ele>
    <time>2026-06-22T23:23:13Z</time>
   </trkpt>
   <trkpt lat="-3.0898500" lon="37.3734520">
    <ele>4972.4</ele>
    <time>2026-06-22T23:23:14Z</time>
   </trkpt>
   <trkpt lat="-3.0898470" lon="37.3734490">
    <ele>4972.5</ele>
    <time>2026-06-22T23:23:15Z</time>
   </trkpt>
   <trkpt lat="-3.0898480" lon="37.3734490">
    <ele>4972.5</ele>
    <time>2026-06-22T23:23:16Z</time>
   </trkpt>
   <trkpt lat="-3.0898480" lon="37.3734490">
    <ele>4972.5</ele>
    <time>2026-06-22T23:23:17Z</time>
   </trkpt>
   <trkpt lat="-3.0898470" lon="37.3734470">
    <ele>4972.6</ele>
    <time>2026-06-22T23:23:18Z</time>
   </trkpt>
   <trkpt lat="-3.0898480" lon="37.3734470">
    <ele>4972.6</ele>
    <time>2026-06-22T23:23:19Z</time>
   </trkpt>
   <trkpt lat="-3.0898480" lon="37.3734460">
    <ele>4972.6</ele>
    <time>2026-06-22T23:23:20Z</time>
   </trkpt>
   <trkpt lat="-3.0898480" lon="37.3734460">
    <ele>4972.6</ele>
    <time>2026-06-22T23:23:21Z</time>
   </trkpt>
   <trkpt lat="-3.0898480" lon="37.3734460">
    <ele>4972.6</ele>
    <time>2026-06-22T23:23:22Z</time>
   </trkpt>
   <trkpt lat="-3.0898490" lon="37.3734450">
    <ele>4972.7</ele>
    <time>2026-06-22T23:23:23Z</time>
   </trkpt>
   <trkpt lat="-3.0898500" lon="37.3734460">
    <ele>4972.7</ele>
    <time>2026-06-22T23:23:24Z</time>
   </trkpt>
   <trkpt lat="-3.0898500" lon="37.3734460">
    <ele>4972.7</ele>
    <time>2026-06-22T23:23:25Z</time>
   </trkpt>
   <trkpt lat="-3.0898490" lon="37.3734460">
    <ele>4972.7</ele>
    <time>2026-06-22T23:23:26Z</time>
   </trkpt>
   <trkpt lat="-3.0898500" lon="37.3734460">
    <ele>4972.7</ele>
    <time>2026-06-22T23:23:27Z</time>
   </trkpt>
   <trkpt lat="-3.0898500" lon="37.3734470">
    <ele>4972.8</ele>
    <time>2026-06-22T23:23:28Z</time>
   </trkpt>
   <trkpt lat="-3.0898500" lon="37.3734470">
    <ele>4972.8</ele>
    <time>2026-06-22T23:23:29Z</time>
   </trkpt>
   <trkpt lat="-3.0898500" lon="37.3734470">
    <ele>4972.8</ele>
    <time>2026-06-22T23:23:30Z</time>
   </trkpt>
   <trkpt lat="-3.0898500" lon="37.3734470">
    <ele>4972.8</ele>
    <time>2026-06-22T23:23:31Z</time>
   </trkpt>
   <trkpt lat="-3.0898500" lon="37.3734470">
    <ele>4972.8</ele>
    <time>2026-06-22T23:23:32Z</time>
   </trkpt>
   <trkpt lat="-3.0898500" lon="37.3734470">
    <ele>4972.8</ele>
    <time>2026-06-22T23:23:33Z</time>
   </trkpt>
   <trkpt lat="-3.0898510" lon="37.3734460">
    <ele>4972.8</ele>
    <time>2026-06-22T23:23:34Z</time>
   </trkpt>
   <trkpt lat="-3.0898510" lon="37.3734460">
    <ele>4972.8</ele>
    <time>2026-06-22T23:23:35Z</time>
   </trkpt>
   <trkpt lat="-3.0898500" lon="37.3734460">
    <ele>4972.8</ele>
    <time>2026-06-22T23:23:36Z</time>
   </trkpt>
   <trkpt lat="-3.0898500" lon="37.3734470">
    <ele>4972.8</ele>
    <time>2026-06-22T23:23:37Z</time>
   </trkpt>
   <trkpt lat="-3.0898500" lon="37.3734470">
    <ele>4972.8</ele>
    <time>2026-06-22T23:23:38Z</time>
   </trkpt>
   <trkpt lat="-3.0898490" lon="37.3734470">
    <ele>4972.9</ele>
    <time>2026-06-22T23:23:39Z</time>
   </trkpt>
   <trkpt lat="-3.0898490" lon="37.3734470">
    <ele>4972.9</ele>
    <time>2026-06-22T23:23:40Z</time>
   </trkpt>
   <trkpt lat="-3.0898490" lon="37.3734460">
    <ele>4972.9</ele>
    <time>2026-06-22T23:23:41Z</time>
   </trkpt>
   <trkpt lat="-3.0898490" lon="37.3734460">
    <ele>4972.9</ele>
    <time>2026-06-22T23:23:42Z</time>
   </trkpt>
   <trkpt lat="-3.0898490" lon="37.3734480">
    <ele>4972.9</ele>
    <time>2026-06-22T23:23:43Z</time>
   </trkpt>
   <trkpt lat="-3.0898490" lon="37.3734480">
    <ele>4972.9</ele>
    <time>2026-06-22T23:23:44Z</time>
   </trkpt>
   <trkpt lat="-3.0898490" lon="37.3734480">
    <ele>4972.9</ele>
    <time>2026-06-22T23:23:45Z</time>
   </trkpt>
   <trkpt lat="-3.0898490" lon="37.3734480">
    <ele>4972.9</ele>
    <time>2026-06-22T23:23:46Z</time>
   </trkpt>
   <trkpt lat="-3.0898490" lon="37.3734480">
    <ele>4972.9</ele>
    <time>2026-06-22T23:23:47Z</time>
   </trkpt>
   <trkpt lat="-3.0898490" lon="37.3734470">
    <ele>4973.0</ele>
    <time>2026-06-22T23:23:48Z</time>
   </trkpt>
   <trkpt lat="-3.0898490" lon="37.3734490">
    <ele>4973.0</ele>
    <time>2026-06-22T23:23:49Z</time>
   </trkpt>
   <trkpt lat="-3.0898490" lon="37.3734490">
    <ele>4973.0</ele>
    <time>2026-06-22T23:23:50Z</time>
   </trkpt>
   <trkpt lat="-3.0898490" lon="37.3734490">
    <ele>4973.0</ele>
    <time>2026-06-22T23:23:51Z</time>
   </trkpt>
   <trkpt lat="-3.0898490" lon="37.3734500">
    <ele>4973.0</ele>
    <time>2026-06-22T23:23:52Z</time>
   </trkpt>
   <trkpt lat="-3.0898490" lon="37.3734500">
    <ele>4973.0</ele>
    <time>2026-06-22T23:23:53Z</time>
   </trkpt>
   <trkpt lat="-3.0898490" lon="37.3734500">
    <ele>4973.0</ele>
    <time>2026-06-22T23:23:54Z</time>
   </trkpt>
   <trkpt lat="-3.0898490" lon="37.3734500">
    <ele>4973.0</ele>
    <time>2026-06-22T23:23:55Z</time>
   </trkpt>
   <trkpt lat="-3.0898490" lon="37.3734490">
    <ele>4973.0</ele>
    <time>2026-06-22T23:23:56Z</time>
   </trkpt>
   <trkpt lat="-3.0898490" lon="37.3734480">
    <ele>4973.1</ele>
    <time>2026-06-22T23:23:57Z</time>
   </trkpt>
   <trkpt lat="-3.0898500" lon="37.3734490">
    <ele>4973.1</ele>
    <time>2026-06-22T23:23:58Z</time>
   </trkpt>
   <trkpt lat="-3.0898500" lon="37.3734490">
    <ele>4973.1</ele>
    <time>2026-06-22T23:23:59Z</time>
   </trkpt>
   <trkpt lat="-3.0898500" lon="37.3734490">
    <ele>4973.1</ele>
    <time>2026-06-22T23:24:00Z</time>
   </trkpt>
   <trkpt lat="-3.0898520" lon="37.3734510">
    <ele>4973.2</ele>
    <time>2026-06-22T23:24:01Z</time>
   </trkpt>
   <trkpt lat="-3.0898510" lon="37.3734520">
    <ele>4973.2</ele>
    <time>2026-06-22T23:24:02Z</time>
   </trkpt>
   <trkpt lat="-3.0898510" lon="37.3734510">
    <ele>4973.2</ele>
    <time>2026-06-22T23:24:03Z</time>
   </trkpt>
   <trkpt lat="-3.0898510" lon="37.3734510">
    <ele>4973.2</ele>
    <time>2026-06-22T23:24:04Z</time>
   </trkpt>
   <trkpt lat="-3.0898510" lon="37.3734510">
    <ele>4973.2</ele>
    <time>2026-06-22T23:24:05Z</time>
   </trkpt>
   <trkpt lat="-3.0898500" lon="37.3734520">
    <ele>4973.2</ele>
    <time>2026-06-22T23:24:06Z</time>
   </trkpt>
   <trkpt lat="-3.0898490" lon="37.3734500">
    <ele>4973.3</ele>
    <time>2026-06-22T23:24:07Z</time>
   </trkpt>
   <trkpt lat="-3.0898490" lon="37.3734500">
    <ele>4973.3</ele>
    <time>2026-06-22T23:24:08Z</time>
   </trkpt>
   <trkpt lat="-3.0898490" lon="37.3734510">
    <ele>4973.3</ele>
    <time>2026-06-22T23:24:09Z</time>
   </trkpt>
   <trkpt lat="-3.0898490" lon="37.3734510">
    <ele>4973.3</ele>
    <time>2026-06-22T23:24:10Z</time>
   </trkpt>
   <trkpt lat="-3.0898510" lon="37.3734530">
    <ele>4973.4</ele>
    <time>2026-06-22T23:24:11Z</time>
   </trkpt>
   <trkpt lat="-3.0898500" lon="37.3734520">
    <ele>4973.4</ele>
    <time>2026-06-22T23:24:12Z</time>
   </trkpt>
   <trkpt lat="-3.0898510" lon="37.3734520">
    <ele>4973.4</ele>
    <time>2026-06-22T23:24:13Z</time>
   </trkpt>
   <trkpt lat="-3.0898510" lon="37.3734520">
    <ele>4973.4</ele>
    <time>2026-06-22T23:24:14Z</time>
   </trkpt>
   <trkpt lat="-3.0898510" lon="37.3734520">
    <ele>4973.4</ele>
    <time>2026-06-22T23:24:15Z</time>
   </trkpt>
   <trkpt lat="-3.0898510" lon="37.3734530">
    <ele>4973.4</ele>
    <time>2026-06-22T23:24:16Z</time>
   </trkpt>
   <trkpt lat="-3.0898510" lon="37.3734530">
    <ele>4973.4</ele>
    <time>2026-06-22T23:24:17Z</time>
   </trkpt>
   <trkpt lat="-3.0898500" lon="37.3734540">
    <ele>4973.5</ele>
    <time>2026-06-22T23:24:18Z</time>
   </trkpt>
   <trkpt lat="-3.0898500" lon="37.3734540">
    <ele>4973.5</ele>
    <time>2026-06-22T23:24:19Z</time>
   </trkpt>
   <trkpt lat="-3.0898500" lon="37.3734550">
    <ele>4973.5</ele>
    <time>2026-06-22T23:24:20Z</time>
   </trkpt>
   <trkpt lat="-3.0898490" lon="37.3734560">
    <ele>4973.5</ele>
    <time>2026-06-22T23:24:22Z</time>
   </trkpt>
   <trkpt lat="-3.0898490" lon="37.3734560">
    <ele>4973.5</ele>
    <time>2026-06-22T23:24:23Z</time>
   </trkpt>
   <trkpt lat="-3.0898460" lon="37.3734570">
    <ele>4973.6</ele>
    <time>2026-06-22T23:24:24Z</time>
   </trkpt>
   <trkpt lat="-3.0898470" lon="37.3734570">
    <ele>4973.6</ele>
    <time>2026-06-22T23:24:25Z</time>
   </trkpt>
   <trkpt lat="-3.0898440" lon="37.3734580">
    <ele>4973.7</ele>
    <time>2026-06-22T23:24:26Z</time>
   </trkpt>
   <trkpt lat="-3.0898440" lon="37.3734580">
    <ele>4973.7</ele>
    <time>2026-06-22T23:24:27Z</time>
   </trkpt>
   <trkpt lat="-3.0898430" lon="37.3734580">
    <ele>4973.7</ele>
    <time>2026-06-22T23:24:29Z</time>
   </trkpt>
   <trkpt lat="-3.0898430" lon="37.3734580">
    <ele>4973.7</ele>
    <time>2026-06-22T23:24:30Z</time>
   </trkpt>
   <trkpt lat="-3.0898410" lon="37.3734610">
    <ele>4973.8</ele>
    <time>2026-06-22T23:24:31Z</time>
   </trkpt>
   <trkpt lat="-3.0898420" lon="37.3734610">
    <ele>4973.8</ele>
    <time>2026-06-22T23:24:32Z</time>
   </trkpt>
   <trkpt lat="-3.0898420" lon="37.3734610">
    <ele>4973.8</ele>
    <time>2026-06-22T23:24:33Z</time>
   </trkpt>
   <trkpt lat="-3.0898410" lon="37.3734620">
    <ele>4973.8</ele>
    <time>2026-06-22T23:24:34Z</time>
   </trkpt>
   <trkpt lat="-3.0898430" lon="37.3734630">
    <ele>4973.9</ele>
    <time>2026-06-22T23:24:35Z</time>
   </trkpt>
   <trkpt lat="-3.0898420" lon="37.3734670">
    <ele>4974.0</ele>
    <time>2026-06-22T23:24:36Z</time>
   </trkpt>
   <trkpt lat="-3.0898440" lon="37.3734700">
    <ele>4974.1</ele>
    <time>2026-06-22T23:24:37Z</time>
   </trkpt>
   <trkpt lat="-3.0898480" lon="37.3734740">
    <ele>4974.2</ele>
    <time>2026-06-22T23:24:38Z</time>
   </trkpt>
   <trkpt lat="-3.0898500" lon="37.3734780">
    <ele>4974.3</ele>
    <time>2026-06-22T23:24:39Z</time>
   </trkpt>
   <trkpt lat="-3.0898470" lon="37.3734840">
    <ele>4974.4</ele>
    <time>2026-06-22T23:24:40Z</time>
   </trkpt>
   <trkpt lat="-3.0898450" lon="37.3734860">
    <ele>4974.5</ele>
    <time>2026-06-22T23:24:41Z</time>
   </trkpt>
   <trkpt lat="-3.0898460" lon="37.3734860">
    <ele>4974.5</ele>
    <time>2026-06-22T23:24:42Z</time>
   </trkpt>
   <trkpt lat="-3.0898460" lon="37.3734860">
    <ele>4974.5</ele>
    <time>2026-06-22T23:24:43Z</time>
   </trkpt>
   <trkpt lat="-3.0898470" lon="37.3734870">
    <ele>4974.5</ele>
    <time>2026-06-22T23:24:44Z</time>
   </trkpt>
   <trkpt lat="-3.0898450" lon="37.3734850">
    <ele>4974.6</ele>
    <time>2026-06-22T23:24:45Z</time>
   </trkpt>
   <trkpt lat="-3.0898440" lon="37.3734840">
    <ele>4974.6</ele>
    <time>2026-06-22T23:24:46Z</time>
   </trkpt>
   <trkpt lat="-3.0898410" lon="37.3734850">
    <ele>4974.7</ele>
    <time>2026-06-22T23:24:47Z</time>
   </trkpt>
   <trkpt lat="-3.0898390" lon="37.3734830">
    <ele>4974.8</ele>
    <time>2026-06-22T23:24:48Z</time>
   </trkpt>
   <trkpt lat="-3.0898380" lon="37.3734840">
    <ele>4974.8</ele>
    <time>2026-06-22T23:24:49Z</time>
   </trkpt>
   <trkpt lat="-3.0898380" lon="37.3734840">
    <ele>4974.8</ele>
    <time>2026-06-22T23:24:50Z</time>
   </trkpt>
   <trkpt lat="-3.0898360" lon="37.3734820">
    <ele>4974.9</ele>
    <time>2026-06-22T23:24:51Z</time>
   </trkpt>
   <trkpt lat="-3.0898340" lon="37.3734820">
    <ele>4974.9</ele>
    <time>2026-06-22T23:24:52Z</time>
   </trkpt>
   <trkpt lat="-3.0898330" lon="37.3734810">
    <ele>4974.9</ele>
    <time>2026-06-22T23:24:53Z</time>
   </trkpt>
   <trkpt lat="-3.0898320" lon="37.3734800">
    <ele>4975.0</ele>
    <time>2026-06-22T23:24:54Z</time>
   </trkpt>
   <trkpt lat="-3.0898290" lon="37.3734800">
    <ele>4975.0</ele>
    <time>2026-06-22T23:24:55Z</time>
   </trkpt>
   <trkpt lat="-3.0898260" lon="37.3734780">
    <ele>4975.1</ele>
    <time>2026-06-22T23:24:56Z</time>
   </trkpt>
   <trkpt lat="-3.0898260" lon="37.3734780">
    <ele>4975.1</ele>
    <time>2026-06-22T23:24:57Z</time>
   </trkpt>
   <trkpt lat="-3.0898230" lon="37.3734760">
    <ele>4975.2</ele>
    <time>2026-06-22T23:24:58Z</time>
   </trkpt>
   <trkpt lat="-3.0898210" lon="37.3734740">
    <ele>4975.3</ele>
    <time>2026-06-22T23:24:59Z</time>
   </trkpt>
   <trkpt lat="-3.0898180" lon="37.3734730">
    <ele>4975.3</ele>
    <time>2026-06-22T23:25:00Z</time>
   </trkpt>
   <trkpt lat="-3.0898170" lon="37.3734710">
    <ele>4975.4</ele>
    <time>2026-06-22T23:25:01Z</time>
   </trkpt>
   <trkpt lat="-3.0898160" lon="37.3734710">
    <ele>4975.4</ele>
    <time>2026-06-22T23:25:02Z</time>
   </trkpt>
   <trkpt lat="-3.0898160" lon="37.3734680">
    <ele>4975.4</ele>
    <time>2026-06-22T23:25:03Z</time>
   </trkpt>
   <trkpt lat="-3.0898150" lon="37.3734660">
    <ele>4975.5</ele>
    <time>2026-06-22T23:25:04Z</time>
   </trkpt>
   <trkpt lat="-3.0898160" lon="37.3734650">
    <ele>4975.5</ele>
    <time>2026-06-22T23:25:05Z</time>
   </trkpt>
   <trkpt lat="-3.0898150" lon="37.3734620">
    <ele>4975.5</ele>
    <time>2026-06-22T23:25:06Z</time>
   </trkpt>
   <trkpt lat="-3.0898140" lon="37.3734580">
    <ele>4975.6</ele>
    <time>2026-06-22T23:25:07Z</time>
   </trkpt>
   <trkpt lat="-3.0898160" lon="37.3734550">
    <ele>4975.7</ele>
    <time>2026-06-22T23:25:08Z</time>
   </trkpt>
   <trkpt lat="-3.0898150" lon="37.3734530">
    <ele>4975.7</ele>
    <time>2026-06-22T23:25:09Z</time>
   </trkpt>
   <trkpt lat="-3.0898140" lon="37.3734490">
    <ele>4975.8</ele>
    <time>2026-06-22T23:25:10Z</time>
   </trkpt>
   <trkpt lat="-3.0898140" lon="37.3734480">
    <ele>4975.8</ele>
    <time>2026-06-22T23:25:11Z</time>
   </trkpt>
   <trkpt lat="-3.0898130" lon="37.3734460">
    <ele>4975.9</ele>
    <time>2026-06-22T23:25:12Z</time>
   </trkpt>
   <trkpt lat="-3.0898140" lon="37.3734460">
    <ele>4975.9</ele>
    <time>2026-06-22T23:25:13Z</time>
   </trkpt>
   <trkpt lat="-3.0898130" lon="37.3734460">
    <ele>4975.9</ele>
    <time>2026-06-22T23:25:14Z</time>
   </trkpt>
   <trkpt lat="-3.0898110" lon="37.3734450">
    <ele>4976.0</ele>
    <time>2026-06-22T23:25:15Z</time>
   </trkpt>
   <trkpt lat="-3.0898090" lon="37.3734420">
    <ele>4976.0</ele>
    <time>2026-06-22T23:25:16Z</time>
   </trkpt>
   <trkpt lat="-3.0898080" lon="37.3734390">
    <ele>4976.1</ele>
    <time>2026-06-22T23:25:17Z</time>
   </trkpt>
   <trkpt lat="-3.0898100" lon="37.3734360">
    <ele>4976.2</ele>
    <time>2026-06-22T23:25:18Z</time>
   </trkpt>
   <trkpt lat="-3.0898130" lon="37.3734340">
    <ele>4976.2</ele>
    <time>2026-06-22T23:25:19Z</time>
   </trkpt>
   <trkpt lat="-3.0898140" lon="37.3734320">
    <ele>4976.3</ele>
    <time>2026-06-22T23:25:20Z</time>
   </trkpt>
   <trkpt lat="-3.0898160" lon="37.3734320">
    <ele>4976.3</ele>
    <time>2026-06-22T23:25:21Z</time>
   </trkpt>
   <trkpt lat="-3.0898180" lon="37.3734290">
    <ele>4976.4</ele>
    <time>2026-06-22T23:25:22Z</time>
   </trkpt>
   <trkpt lat="-3.0898200" lon="37.3734290">
    <ele>4976.4</ele>
    <time>2026-06-22T23:25:23Z</time>
   </trkpt>
   <trkpt lat="-3.0898240" lon="37.3734250">
    <ele>4976.5</ele>
    <time>2026-06-22T23:25:24Z</time>
   </trkpt>
   <trkpt lat="-3.0898260" lon="37.3734250">
    <ele>4976.6</ele>
    <time>2026-06-22T23:25:25Z</time>
   </trkpt>
   <trkpt lat="-3.0898270" lon="37.3734230">
    <ele>4976.6</ele>
    <time>2026-06-22T23:25:26Z</time>
   </trkpt>
   <trkpt lat="-3.0898290" lon="37.3734250">
    <ele>4976.7</ele>
    <time>2026-06-22T23:25:27Z</time>
   </trkpt>
   <trkpt lat="-3.0898290" lon="37.3734230">
    <ele>4976.7</ele>
    <time>2026-06-22T23:25:28Z</time>
   </trkpt>
   <trkpt lat="-3.0898310" lon="37.3734220">
    <ele>4976.8</ele>
    <time>2026-06-22T23:25:29Z</time>
   </trkpt>
   <trkpt lat="-3.0898330" lon="37.3734200">
    <ele>4976.8</ele>
    <time>2026-06-22T23:25:30Z</time>
   </trkpt>
   <trkpt lat="-3.0898350" lon="37.3734190">
    <ele>4976.9</ele>
    <time>2026-06-22T23:25:31Z</time>
   </trkpt>
   <trkpt lat="-3.0898340" lon="37.3734140">
    <ele>4977.0</ele>
    <time>2026-06-22T23:25:32Z</time>
   </trkpt>
   <trkpt lat="-3.0898350" lon="37.3734120">
    <ele>4977.0</ele>
    <time>2026-06-22T23:25:33Z</time>
   </trkpt>
   <trkpt lat="-3.0898350" lon="37.3734080">
    <ele>4977.1</ele>
    <time>2026-06-22T23:25:34Z</time>
   </trkpt>
   <trkpt lat="-3.0898350" lon="37.3734050">
    <ele>4977.2</ele>
    <time>2026-06-22T23:25:35Z</time>
   </trkpt>
   <trkpt lat="-3.0898350" lon="37.3734030">
    <ele>4977.2</ele>
    <time>2026-06-22T23:25:36Z</time>
   </trkpt>
   <trkpt lat="-3.0898320" lon="37.3733990">
    <ele>4977.3</ele>
    <time>2026-06-22T23:25:37Z</time>
   </trkpt>
   <trkpt lat="-3.0898310" lon="37.3733990">
    <ele>4977.3</ele>
    <time>2026-06-22T23:25:38Z</time>
   </trkpt>
   <trkpt lat="-3.0898310" lon="37.3733980">
    <ele>4977.3</ele>
    <time>2026-06-22T23:25:39Z</time>
   </trkpt>
   <trkpt lat="-3.0898310" lon="37.3733990">
    <ele>4977.4</ele>
    <time>2026-06-22T23:25:40Z</time>
   </trkpt>
   <trkpt lat="-3.0898310" lon="37.3733990">
    <ele>4977.4</ele>
    <time>2026-06-22T23:25:41Z</time>
   </trkpt>
   <trkpt lat="-3.0898280" lon="37.3733990">
    <ele>4977.4</ele>
    <time>2026-06-22T23:25:42Z</time>
   </trkpt>
   <trkpt lat="-3.0898240" lon="37.3733960">
    <ele>4977.5</ele>
    <time>2026-06-22T23:25:43Z</time>
   </trkpt>
   <trkpt lat="-3.0898200" lon="37.3733950">
    <ele>4977.6</ele>
    <time>2026-06-22T23:25:44Z</time>
   </trkpt>
   <trkpt lat="-3.0898200" lon="37.3733930">
    <ele>4977.6</ele>
    <time>2026-06-22T23:25:45Z</time>
   </trkpt>
   <trkpt lat="-3.0898170" lon="37.3733900">
    <ele>4977.7</ele>
    <time>2026-06-22T23:25:46Z</time>
   </trkpt>
   <trkpt lat="-3.0898160" lon="37.3733880">
    <ele>4977.8</ele>
    <time>2026-06-22T23:25:47Z</time>
   </trkpt>
   <trkpt lat="-3.0898120" lon="37.3733850">
    <ele>4977.9</ele>
    <time>2026-06-22T23:25:48Z</time>
   </trkpt>
   <trkpt lat="-3.0898120" lon="37.3733850">
    <ele>4977.9</ele>
    <time>2026-06-22T23:25:49Z</time>
   </trkpt>
   <trkpt lat="-3.0898100" lon="37.3733830">
    <ele>4977.9</ele>
    <time>2026-06-22T23:25:50Z</time>
   </trkpt>
   <trkpt lat="-3.0898090" lon="37.3733790">
    <ele>4978.0</ele>
    <time>2026-06-22T23:25:51Z</time>
   </trkpt>
   <trkpt lat="-3.0898080" lon="37.3733780">
    <ele>4978.0</ele>
    <time>2026-06-22T23:25:52Z</time>
   </trkpt>
   <trkpt lat="-3.0898070" lon="37.3733750">
    <ele>4978.1</ele>
    <time>2026-06-22T23:25:53Z</time>
   </trkpt>
   <trkpt lat="-3.0898070" lon="37.3733740">
    <ele>4978.1</ele>
    <time>2026-06-22T23:25:54Z</time>
   </trkpt>
   <trkpt lat="-3.0898070" lon="37.3733720">
    <ele>4978.1</ele>
    <time>2026-06-22T23:25:55Z</time>
   </trkpt>
   <trkpt lat="-3.0898070" lon="37.3733710">
    <ele>4978.2</ele>
    <time>2026-06-22T23:25:56Z</time>
   </trkpt>
   <trkpt lat="-3.0898040" lon="37.3733690">
    <ele>4978.2</ele>
    <time>2026-06-22T23:25:57Z</time>
   </trkpt>
   <trkpt lat="-3.0898040" lon="37.3733660">
    <ele>4978.3</ele>
    <time>2026-06-22T23:25:58Z</time>
   </trkpt>
   <trkpt lat="-3.0898040" lon="37.3733640">
    <ele>4978.3</ele>
    <time>2026-06-22T23:25:59Z</time>
   </trkpt>
   <trkpt lat="-3.0898060" lon="37.3733610">
    <ele>4978.4</ele>
    <time>2026-06-22T23:26:00Z</time>
   </trkpt>
   <trkpt lat="-3.0898040" lon="37.3733570">
    <ele>4978.5</ele>
    <time>2026-06-22T23:26:01Z</time>
   </trkpt>
   <trkpt lat="-3.0898060" lon="37.3733560">
    <ele>4978.5</ele>
    <time>2026-06-22T23:26:02Z</time>
   </trkpt>
   <trkpt lat="-3.0898050" lon="37.3733550">
    <ele>4978.6</ele>
    <time>2026-06-22T23:26:03Z</time>
   </trkpt>
   <trkpt lat="-3.0898050" lon="37.3733520">
    <ele>4978.6</ele>
    <time>2026-06-22T23:26:04Z</time>
   </trkpt>
   <trkpt lat="-3.0898030" lon="37.3733500">
    <ele>4978.7</ele>
    <time>2026-06-22T23:26:05Z</time>
   </trkpt>
   <trkpt lat="-3.0898030" lon="37.3733480">
    <ele>4978.7</ele>
    <time>2026-06-22T23:26:06Z</time>
   </trkpt>
   <trkpt lat="-3.0898010" lon="37.3733470">
    <ele>4978.8</ele>
    <time>2026-06-22T23:26:07Z</time>
   </trkpt>
   <trkpt lat="-3.0897990" lon="37.3733470">
    <ele>4978.8</ele>
    <time>2026-06-22T23:26:08Z</time>
   </trkpt>
   <trkpt lat="-3.0897970" lon="37.3733470">
    <ele>4978.8</ele>
    <time>2026-06-22T23:26:09Z</time>
   </trkpt>
   <trkpt lat="-3.0897950" lon="37.3733480">
    <ele>4978.9</ele>
    <time>2026-06-22T23:26:10Z</time>
   </trkpt>
   <trkpt lat="-3.0897910" lon="37.3733480">
    <ele>4979.0</ele>
    <time>2026-06-22T23:26:11Z</time>
   </trkpt>
   <trkpt lat="-3.0897900" lon="37.3733490">
    <ele>4979.0</ele>
    <time>2026-06-22T23:26:12Z</time>
   </trkpt>
   <trkpt lat="-3.0897880" lon="37.3733490">
    <ele>4979.0</ele>
    <time>2026-06-22T23:26:13Z</time>
   </trkpt>
   <trkpt lat="-3.0897860" lon="37.3733500">
    <ele>4979.1</ele>
    <time>2026-06-22T23:26:14Z</time>
   </trkpt>
   <trkpt lat="-3.0897840" lon="37.3733490">
    <ele>4979.1</ele>
    <time>2026-06-22T23:26:15Z</time>
   </trkpt>
   <trkpt lat="-3.0897820" lon="37.3733500">
    <ele>4979.2</ele>
    <time>2026-06-22T23:26:16Z</time>
   </trkpt>
   <trkpt lat="-3.0897810" lon="37.3733490">
    <ele>4979.2</ele>
    <time>2026-06-22T23:26:17Z</time>
   </trkpt>
   <trkpt lat="-3.0897790" lon="37.3733480">
    <ele>4979.2</ele>
    <time>2026-06-22T23:26:18Z</time>
   </trkpt>
   <trkpt lat="-3.0897750" lon="37.3733470">
    <ele>4979.3</ele>
    <time>2026-06-22T23:26:19Z</time>
   </trkpt>
   <trkpt lat="-3.0897730" lon="37.3733450">
    <ele>4979.4</ele>
    <time>2026-06-22T23:26:20Z</time>
   </trkpt>
   <trkpt lat="-3.0897720" lon="37.3733450">
    <ele>4979.4</ele>
    <time>2026-06-22T23:26:21Z</time>
   </trkpt>
   <trkpt lat="-3.0897700" lon="37.3733440">
    <ele>4979.4</ele>
    <time>2026-06-22T23:26:22Z</time>
   </trkpt>
   <trkpt lat="-3.0897670" lon="37.3733420">
    <ele>4979.5</ele>
    <time>2026-06-22T23:26:23Z</time>
   </trkpt>
   <trkpt lat="-3.0897650" lon="37.3733430">
    <ele>4979.5</ele>
    <time>2026-06-22T23:26:24Z</time>
   </trkpt>
   <trkpt lat="-3.0897630" lon="37.3733400">
    <ele>4979.6</ele>
    <time>2026-06-22T23:26:25Z</time>
   </trkpt>
   <trkpt lat="-3.0897630" lon="37.3733400">
    <ele>4979.6</ele>
    <time>2026-06-22T23:26:26Z</time>
   </trkpt>
   <trkpt lat="-3.0897600" lon="37.3733390">
    <ele>4979.7</ele>
    <time>2026-06-22T23:26:27Z</time>
   </trkpt>
   <trkpt lat="-3.0897600" lon="37.3733380">
    <ele>4979.7</ele>
    <time>2026-06-22T23:26:28Z</time>
   </trkpt>
   <trkpt lat="-3.0897590" lon="37.3733400">
    <ele>4979.7</ele>
    <time>2026-06-22T23:26:29Z</time>
   </trkpt>
   <trkpt lat="-3.0897540" lon="37.3733400">
    <ele>4979.8</ele>
    <time>2026-06-22T23:26:30Z</time>
   </trkpt>
   <trkpt lat="-3.0897510" lon="37.3733410">
    <ele>4979.9</ele>
    <time>2026-06-22T23:26:31Z</time>
   </trkpt>
   <trkpt lat="-3.0897510" lon="37.3733420">
    <ele>4979.9</ele>
    <time>2026-06-22T23:26:32Z</time>
   </trkpt>
   <trkpt lat="-3.0897490" lon="37.3733360">
    <ele>4980.1</ele>
    <time>2026-06-22T23:26:33Z</time>
   </trkpt>
   <trkpt lat="-3.0897450" lon="37.3733360">
    <ele>4980.1</ele>
    <time>2026-06-22T23:26:34Z</time>
   </trkpt>
   <trkpt lat="-3.0897460" lon="37.3733380">
    <ele>4980.2</ele>
    <time>2026-06-22T23:26:35Z</time>
   </trkpt>
   <trkpt lat="-3.0897440" lon="37.3733360">
    <ele>4980.2</ele>
    <time>2026-06-22T23:26:36Z</time>
   </trkpt>
   <trkpt lat="-3.0897420" lon="37.3733350">
    <ele>4980.3</ele>
    <time>2026-06-22T23:26:37Z</time>
   </trkpt>
   <trkpt lat="-3.0897420" lon="37.3733320">
    <ele>4980.3</ele>
    <time>2026-06-22T23:26:38Z</time>
   </trkpt>
   <trkpt lat="-3.0897390" lon="37.3733300">
    <ele>4980.4</ele>
    <time>2026-06-22T23:26:39Z</time>
   </trkpt>
   <trkpt lat="-3.0897390" lon="37.3733300">
    <ele>4980.4</ele>
    <time>2026-06-22T23:26:40Z</time>
   </trkpt>
   <trkpt lat="-3.0897380" lon="37.3733290">
    <ele>4980.4</ele>
    <time>2026-06-22T23:26:41Z</time>
   </trkpt>
   <trkpt lat="-3.0897380" lon="37.3733280">
    <ele>4980.5</ele>
    <time>2026-06-22T23:26:42Z</time>
   </trkpt>
   <trkpt lat="-3.0897380" lon="37.3733270">
    <ele>4980.5</ele>
    <time>2026-06-22T23:26:43Z</time>
   </trkpt>
   <trkpt lat="-3.0897360" lon="37.3733250">
    <ele>4980.5</ele>
    <time>2026-06-22T23:26:44Z</time>
   </trkpt>
   <trkpt lat="-3.0897360" lon="37.3733220">
    <ele>4980.6</ele>
    <time>2026-06-22T23:26:45Z</time>
   </trkpt>
   <trkpt lat="-3.0897340" lon="37.3733190">
    <ele>4980.7</ele>
    <time>2026-06-22T23:26:46Z</time>
   </trkpt>
   <trkpt lat="-3.0897330" lon="37.3733160">
    <ele>4980.7</ele>
    <time>2026-06-22T23:26:47Z</time>
   </trkpt>
   <trkpt lat="-3.0897310" lon="37.3733160">
    <ele>4980.8</ele>
    <time>2026-06-22T23:26:48Z</time>
   </trkpt>
   <trkpt lat="-3.0897300" lon="37.3733130">
    <ele>4980.8</ele>
    <time>2026-06-22T23:26:49Z</time>
   </trkpt>
   <trkpt lat="-3.0897290" lon="37.3733140">
    <ele>4980.8</ele>
    <time>2026-06-22T23:26:50Z</time>
   </trkpt>
   <trkpt lat="-3.0897280" lon="37.3733130">
    <ele>4980.9</ele>
    <time>2026-06-22T23:26:51Z</time>
   </trkpt>
   <trkpt lat="-3.0897260" lon="37.3733140">
    <ele>4980.9</ele>
    <time>2026-06-22T23:26:52Z</time>
   </trkpt>
   <trkpt lat="-3.0897230" lon="37.3733150">
    <ele>4981.0</ele>
    <time>2026-06-22T23:26:53Z</time>
   </trkpt>
   <trkpt lat="-3.0897200" lon="37.3733180">
    <ele>4981.1</ele>
    <time>2026-06-22T23:26:54Z</time>
   </trkpt>
   <trkpt lat="-3.0897170" lon="37.3733190">
    <ele>4981.1</ele>
    <time>2026-06-22T23:26:55Z</time>
   </trkpt>
   <trkpt lat="-3.0897160" lon="37.3733200">
    <ele>4981.2</ele>
    <time>2026-06-22T23:26:56Z</time>
   </trkpt>
   <trkpt lat="-3.0897130" lon="37.3733220">
    <ele>4981.2</ele>
    <time>2026-06-22T23:26:57Z</time>
   </trkpt>
   <trkpt lat="-3.0897110" lon="37.3733200">
    <ele>4981.3</ele>
    <time>2026-06-22T23:26:58Z</time>
   </trkpt>
   <trkpt lat="-3.0897090" lon="37.3733210">
    <ele>4981.3</ele>
    <time>2026-06-22T23:26:59Z</time>
   </trkpt>
   <trkpt lat="-3.0897060" lon="37.3733180">
    <ele>4981.4</ele>
    <time>2026-06-22T23:27:00Z</time>
   </trkpt>
   <trkpt lat="-3.0897050" lon="37.3733180">
    <ele>4981.4</ele>
    <time>2026-06-22T23:27:01Z</time>
   </trkpt>
   <trkpt lat="-3.0897040" lon="37.3733170">
    <ele>4981.5</ele>
    <time>2026-06-22T23:27:02Z</time>
   </trkpt>
   <trkpt lat="-3.0897030" lon="37.3733150">
    <ele>4981.5</ele>
    <time>2026-06-22T23:27:03Z</time>
   </trkpt>
   <trkpt lat="-3.0897020" lon="37.3733130">
    <ele>4981.5</ele>
    <time>2026-06-22T23:27:04Z</time>
   </trkpt>
   <trkpt lat="-3.0897000" lon="37.3733130">
    <ele>4981.6</ele>
    <time>2026-06-22T23:27:05Z</time>
   </trkpt>
   <trkpt lat="-3.0897000" lon="37.3733100">
    <ele>4981.6</ele>
    <time>2026-06-22T23:27:06Z</time>
   </trkpt>
   <trkpt lat="-3.0896980" lon="37.3733090">
    <ele>4981.7</ele>
    <time>2026-06-22T23:27:07Z</time>
   </trkpt>
   <trkpt lat="-3.0896980" lon="37.3733070">
    <ele>4981.7</ele>
    <time>2026-06-22T23:27:08Z</time>
   </trkpt>
   <trkpt lat="-3.0896960" lon="37.3733060">
    <ele>4981.8</ele>
    <time>2026-06-22T23:27:09Z</time>
   </trkpt>
   <trkpt lat="-3.0896940" lon="37.3733080">
    <ele>4981.8</ele>
    <time>2026-06-22T23:27:10Z</time>
   </trkpt>
   <trkpt lat="-3.0896900" lon="37.3733080">
    <ele>4981.9</ele>
    <time>2026-06-22T23:27:11Z</time>
   </trkpt>
   <trkpt lat="-3.0896890" lon="37.3733110">
    <ele>4982.0</ele>
    <time>2026-06-22T23:27:12Z</time>
   </trkpt>
   <trkpt lat="-3.0896880" lon="37.3733130">
    <ele>4982.0</ele>
    <time>2026-06-22T23:27:13Z</time>
   </trkpt>
   <trkpt lat="-3.0896860" lon="37.3733150">
    <ele>4982.1</ele>
    <time>2026-06-22T23:27:14Z</time>
   </trkpt>
   <trkpt lat="-3.0896860" lon="37.3733170">
    <ele>4982.1</ele>
    <time>2026-06-22T23:27:15Z</time>
   </trkpt>
   <trkpt lat="-3.0896840" lon="37.3733200">
    <ele>4982.2</ele>
    <time>2026-06-22T23:27:16Z</time>
   </trkpt>
   <trkpt lat="-3.0896840" lon="37.3733220">
    <ele>4982.2</ele>
    <time>2026-06-22T23:27:17Z</time>
   </trkpt>
   <trkpt lat="-3.0896810" lon="37.3733230">
    <ele>4982.3</ele>
    <time>2026-06-22T23:27:18Z</time>
   </trkpt>
   <trkpt lat="-3.0896780" lon="37.3733250">
    <ele>4982.4</ele>
    <time>2026-06-22T23:27:19Z</time>
   </trkpt>
   <trkpt lat="-3.0896740" lon="37.3733270">
    <ele>4982.4</ele>
    <time>2026-06-22T23:27:20Z</time>
   </trkpt>
   <trkpt lat="-3.0896740" lon="37.3733270">
    <ele>4982.4</ele>
    <time>2026-06-22T23:27:21Z</time>
   </trkpt>
   <trkpt lat="-3.0896710" lon="37.3733270">
    <ele>4982.5</ele>
    <time>2026-06-22T23:27:22Z</time>
   </trkpt>
   <trkpt lat="-3.0896710" lon="37.3733290">
    <ele>4982.5</ele>
    <time>2026-06-22T23:27:23Z</time>
   </trkpt>
   <trkpt lat="-3.0896710" lon="37.3733300">
    <ele>4982.6</ele>
    <time>2026-06-22T23:27:24Z</time>
   </trkpt>
   <trkpt lat="-3.0896690" lon="37.3733320">
    <ele>4982.6</ele>
    <time>2026-06-22T23:27:25Z</time>
   </trkpt>
   <trkpt lat="-3.0896660" lon="37.3733320">
    <ele>4982.7</ele>
    <time>2026-06-22T23:27:26Z</time>
   </trkpt>
   <trkpt lat="-3.0896610" lon="37.3733330">
    <ele>4982.8</ele>
    <time>2026-06-22T23:27:27Z</time>
   </trkpt>
   <trkpt lat="-3.0896580" lon="37.3733320">
    <ele>4982.8</ele>
    <time>2026-06-22T23:27:28Z</time>
   </trkpt>
   <trkpt lat="-3.0896550" lon="37.3733330">
    <ele>4982.9</ele>
    <time>2026-06-22T23:27:29Z</time>
   </trkpt>
   <trkpt lat="-3.0896530" lon="37.3733320">
    <ele>4982.9</ele>
    <time>2026-06-22T23:27:30Z</time>
   </trkpt>
   <trkpt lat="-3.0896520" lon="37.3733340">
    <ele>4983.0</ele>
    <time>2026-06-22T23:27:31Z</time>
   </trkpt>
   <trkpt lat="-3.0896500" lon="37.3733340">
    <ele>4983.0</ele>
    <time>2026-06-22T23:27:32Z</time>
   </trkpt>
   <trkpt lat="-3.0896480" lon="37.3733350">
    <ele>4983.1</ele>
    <time>2026-06-22T23:27:33Z</time>
   </trkpt>
   <trkpt lat="-3.0896450" lon="37.3733350">
    <ele>4983.1</ele>
    <time>2026-06-22T23:27:34Z</time>
   </trkpt>
   <trkpt lat="-3.0896430" lon="37.3733370">
    <ele>4983.2</ele>
    <time>2026-06-22T23:27:35Z</time>
   </trkpt>
   <trkpt lat="-3.0896400" lon="37.3733370">
    <ele>4983.2</ele>
    <time>2026-06-22T23:27:36Z</time>
   </trkpt>
   <trkpt lat="-3.0896380" lon="37.3733380">
    <ele>4983.3</ele>
    <time>2026-06-22T23:27:37Z</time>
   </trkpt>
   <trkpt lat="-3.0896360" lon="37.3733370">
    <ele>4983.3</ele>
    <time>2026-06-22T23:27:38Z</time>
   </trkpt>
   <trkpt lat="-3.0896340" lon="37.3733370">
    <ele>4983.4</ele>
    <time>2026-06-22T23:27:39Z</time>
   </trkpt>
   <trkpt lat="-3.0896310" lon="37.3733370">
    <ele>4983.4</ele>
    <time>2026-06-22T23:27:40Z</time>
   </trkpt>
   <trkpt lat="-3.0896280" lon="37.3733390">
    <ele>4983.5</ele>
    <time>2026-06-22T23:27:41Z</time>
   </trkpt>
   <trkpt lat="-3.0896280" lon="37.3733400">
    <ele>4983.5</ele>
    <time>2026-06-22T23:27:42Z</time>
   </trkpt>
   <trkpt lat="-3.0896250" lon="37.3733420">
    <ele>4983.6</ele>
    <time>2026-06-22T23:27:43Z</time>
   </trkpt>
   <trkpt lat="-3.0896230" lon="37.3733420">
    <ele>4983.6</ele>
    <time>2026-06-22T23:27:44Z</time>
   </trkpt>
   <trkpt lat="-3.0896190" lon="37.3733410">
    <ele>4983.7</ele>
    <time>2026-06-22T23:27:45Z</time>
   </trkpt>
   <trkpt lat="-3.0896180" lon="37.3733400">
    <ele>4983.7</ele>
    <time>2026-06-22T23:27:46Z</time>
   </trkpt>
   <trkpt lat="-3.0896160" lon="37.3733390">
    <ele>4983.8</ele>
    <time>2026-06-22T23:27:47Z</time>
   </trkpt>
   <trkpt lat="-3.0896150" lon="37.3733400">
    <ele>4983.8</ele>
    <time>2026-06-22T23:27:48Z</time>
   </trkpt>
   <trkpt lat="-3.0896110" lon="37.3733390">
    <ele>4983.9</ele>
    <time>2026-06-22T23:27:49Z</time>
   </trkpt>
   <trkpt lat="-3.0896090" lon="37.3733380">
    <ele>4983.9</ele>
    <time>2026-06-22T23:27:50Z</time>
   </trkpt>
   <trkpt lat="-3.0896050" lon="37.3733380">
    <ele>4984.0</ele>
    <time>2026-06-22T23:27:51Z</time>
   </trkpt>
   <trkpt lat="-3.0896030" lon="37.3733370">
    <ele>4984.1</ele>
    <time>2026-06-22T23:27:52Z</time>
   </trkpt>
   <trkpt lat="-3.0896010" lon="37.3733350">
    <ele>4984.1</ele>
    <time>2026-06-22T23:27:53Z</time>
   </trkpt>
   <trkpt lat="-3.0895980" lon="37.3733350">
    <ele>4984.2</ele>
    <time>2026-06-22T23:27:54Z</time>
   </trkpt>
   <trkpt lat="-3.0895970" lon="37.3733330">
    <ele>4984.2</ele>
    <time>2026-06-22T23:27:55Z</time>
   </trkpt>
   <trkpt lat="-3.0895950" lon="37.3733330">
    <ele>4984.3</ele>
    <time>2026-06-22T23:27:56Z</time>
   </trkpt>
   <trkpt lat="-3.0895950" lon="37.3733340">
    <ele>4984.3</ele>
    <time>2026-06-22T23:27:57Z</time>
   </trkpt>
   <trkpt lat="-3.0895910" lon="37.3733360">
    <ele>4984.4</ele>
    <time>2026-06-22T23:27:58Z</time>
   </trkpt>
   <trkpt lat="-3.0895900" lon="37.3733390">
    <ele>4984.4</ele>
    <time>2026-06-22T23:27:59Z</time>
   </trkpt>
   <trkpt lat="-3.0895870" lon="37.3733410">
    <ele>4984.5</ele>
    <time>2026-06-22T23:28:00Z</time>
   </trkpt>
   <trkpt lat="-3.0895850" lon="37.3733420">
    <ele>4984.5</ele>
    <time>2026-06-22T23:28:01Z</time>
   </trkpt>
   <trkpt lat="-3.0895800" lon="37.3733410">
    <ele>4984.6</ele>
    <time>2026-06-22T23:28:02Z</time>
   </trkpt>
   <trkpt lat="-3.0895780" lon="37.3733410">
    <ele>4984.7</ele>
    <time>2026-06-22T23:28:03Z</time>
   </trkpt>
   <trkpt lat="-3.0895760" lon="37.3733400">
    <ele>4984.7</ele>
    <time>2026-06-22T23:28:04Z</time>
   </trkpt>
   <trkpt lat="-3.0895740" lon="37.3733420">
    <ele>4984.8</ele>
    <time>2026-06-22T23:28:05Z</time>
   </trkpt>
   <trkpt lat="-3.0895720" lon="37.3733420">
    <ele>4984.8</ele>
    <time>2026-06-22T23:28:06Z</time>
   </trkpt>
   <trkpt lat="-3.0895700" lon="37.3733430">
    <ele>4984.9</ele>
    <time>2026-06-22T23:28:07Z</time>
   </trkpt>
   <trkpt lat="-3.0895690" lon="37.3733450">
    <ele>4984.9</ele>
    <time>2026-06-22T23:28:08Z</time>
   </trkpt>
   <trkpt lat="-3.0895680" lon="37.3733470">
    <ele>4985.0</ele>
    <time>2026-06-22T23:28:09Z</time>
   </trkpt>
   <trkpt lat="-3.0895660" lon="37.3733480">
    <ele>4985.0</ele>
    <time>2026-06-22T23:28:10Z</time>
   </trkpt>
   <trkpt lat="-3.0895640" lon="37.3733490">
    <ele>4985.0</ele>
    <time>2026-06-22T23:28:11Z</time>
   </trkpt>
   <trkpt lat="-3.0895620" lon="37.3733480">
    <ele>4985.1</ele>
    <time>2026-06-22T23:28:12Z</time>
   </trkpt>
   <trkpt lat="-3.0895600" lon="37.3733480">
    <ele>4985.1</ele>
    <time>2026-06-22T23:28:13Z</time>
   </trkpt>
   <trkpt lat="-3.0895580" lon="37.3733470">
    <ele>4985.2</ele>
    <time>2026-06-22T23:28:14Z</time>
   </trkpt>
   <trkpt lat="-3.0895570" lon="37.3733460">
    <ele>4985.2</ele>
    <time>2026-06-22T23:28:15Z</time>
   </trkpt>
   <trkpt lat="-3.0895570" lon="37.3733460">
    <ele>4985.2</ele>
    <time>2026-06-22T23:28:16Z</time>
   </trkpt>
   <trkpt lat="-3.0895550" lon="37.3733460">
    <ele>4985.2</ele>
    <time>2026-06-22T23:28:17Z</time>
   </trkpt>
   <trkpt lat="-3.0895530" lon="37.3733450">
    <ele>4985.3</ele>
    <time>2026-06-22T23:28:18Z</time>
   </trkpt>
   <trkpt lat="-3.0895510" lon="37.3733440">
    <ele>4985.3</ele>
    <time>2026-06-22T23:28:19Z</time>
   </trkpt>
   <trkpt lat="-3.0895480" lon="37.3733410">
    <ele>4985.4</ele>
    <time>2026-06-22T23:28:20Z</time>
   </trkpt>
   <trkpt lat="-3.0895450" lon="37.3733400">
    <ele>4985.5</ele>
    <time>2026-06-22T23:28:21Z</time>
   </trkpt>
   <trkpt lat="-3.0895430" lon="37.3733380">
    <ele>4985.5</ele>
    <time>2026-06-22T23:28:22Z</time>
   </trkpt>
   <trkpt lat="-3.0895420" lon="37.3733360">
    <ele>4985.6</ele>
    <time>2026-06-22T23:28:23Z</time>
   </trkpt>
   <trkpt lat="-3.0895410" lon="37.3733330">
    <ele>4985.6</ele>
    <time>2026-06-22T23:28:24Z</time>
   </trkpt>
   <trkpt lat="-3.0895400" lon="37.3733310">
    <ele>4985.7</ele>
    <time>2026-06-22T23:28:25Z</time>
   </trkpt>
   <trkpt lat="-3.0895400" lon="37.3733270">
    <ele>4985.8</ele>
    <time>2026-06-22T23:28:26Z</time>
   </trkpt>
   <trkpt lat="-3.0895390" lon="37.3733240">
    <ele>4985.8</ele>
    <time>2026-06-22T23:28:27Z</time>
   </trkpt>
   <trkpt lat="-3.0895400" lon="37.3733220">
    <ele>4985.9</ele>
    <time>2026-06-22T23:28:28Z</time>
   </trkpt>
   <trkpt lat="-3.0895400" lon="37.3733200">
    <ele>4985.9</ele>
    <time>2026-06-22T23:28:29Z</time>
   </trkpt>
   <trkpt lat="-3.0895420" lon="37.3733170">
    <ele>4986.0</ele>
    <time>2026-06-22T23:28:30Z</time>
   </trkpt>
   <trkpt lat="-3.0895430" lon="37.3733150">
    <ele>4986.0</ele>
    <time>2026-06-22T23:28:31Z</time>
   </trkpt>
   <trkpt lat="-3.0895450" lon="37.3733130">
    <ele>4986.1</ele>
    <time>2026-06-22T23:28:32Z</time>
   </trkpt>
   <trkpt lat="-3.0895460" lon="37.3733120">
    <ele>4986.1</ele>
    <time>2026-06-22T23:28:33Z</time>
   </trkpt>
   <trkpt lat="-3.0895480" lon="37.3733080">
    <ele>4986.2</ele>
    <time>2026-06-22T23:28:34Z</time>
   </trkpt>
   <trkpt lat="-3.0895490" lon="37.3733070">
    <ele>4986.2</ele>
    <time>2026-06-22T23:28:35Z</time>
   </trkpt>
   <trkpt lat="-3.0895500" lon="37.3733040">
    <ele>4986.3</ele>
    <time>2026-06-22T23:28:36Z</time>
   </trkpt>
   <trkpt lat="-3.0895510" lon="37.3733000">
    <ele>4986.4</ele>
    <time>2026-06-22T23:28:37Z</time>
   </trkpt>
   <trkpt lat="-3.0895530" lon="37.3732990">
    <ele>4986.4</ele>
    <time>2026-06-22T23:28:38Z</time>
   </trkpt>
   <trkpt lat="-3.0895530" lon="37.3732970">
    <ele>4986.4</ele>
    <time>2026-06-22T23:28:39Z</time>
   </trkpt>
   <trkpt lat="-3.0895530" lon="37.3732960">
    <ele>4986.5</ele>
    <time>2026-06-22T23:28:40Z</time>
   </trkpt>
   <trkpt lat="-3.0895540" lon="37.3732930">
    <ele>4986.5</ele>
    <time>2026-06-22T23:28:41Z</time>
   </trkpt>
   <trkpt lat="-3.0895540" lon="37.3732910">
    <ele>4986.6</ele>
    <time>2026-06-22T23:28:42Z</time>
   </trkpt>
   <trkpt lat="-3.0895540" lon="37.3732870">
    <ele>4986.6</ele>
    <time>2026-06-22T23:28:43Z</time>
   </trkpt>
   <trkpt lat="-3.0895550" lon="37.3732850">
    <ele>4986.7</ele>
    <time>2026-06-22T23:28:44Z</time>
   </trkpt>
   <trkpt lat="-3.0895560" lon="37.3732830">
    <ele>4986.7</ele>
    <time>2026-06-22T23:28:45Z</time>
   </trkpt>
   <trkpt lat="-3.0895570" lon="37.3732820">
    <ele>4986.8</ele>
    <time>2026-06-22T23:28:46Z</time>
   </trkpt>
   <trkpt lat="-3.0895570" lon="37.3732790">
    <ele>4986.8</ele>
    <time>2026-06-22T23:28:47Z</time>
   </trkpt>
   <trkpt lat="-3.0895570" lon="37.3732760">
    <ele>4986.9</ele>
    <time>2026-06-22T23:28:48Z</time>
   </trkpt>
   <trkpt lat="-3.0895570" lon="37.3732740">
    <ele>4986.9</ele>
    <time>2026-06-22T23:28:49Z</time>
   </trkpt>
   <trkpt lat="-3.0895570" lon="37.3732710">
    <ele>4987.0</ele>
    <time>2026-06-22T23:28:50Z</time>
   </trkpt>
   <trkpt lat="-3.0895570" lon="37.3732690">
    <ele>4987.0</ele>
    <time>2026-06-22T23:28:51Z</time>
   </trkpt>
   <trkpt lat="-3.0895560" lon="37.3732690">
    <ele>4987.0</ele>
    <time>2026-06-22T23:28:52Z</time>
   </trkpt>
   <trkpt lat="-3.0895560" lon="37.3732640">
    <ele>4987.1</ele>
    <time>2026-06-22T23:28:53Z</time>
   </trkpt>
   <trkpt lat="-3.0895570" lon="37.3732620">
    <ele>4987.2</ele>
    <time>2026-06-22T23:28:54Z</time>
   </trkpt>
   <trkpt lat="-3.0895570" lon="37.3732590">
    <ele>4987.2</ele>
    <time>2026-06-22T23:28:55Z</time>
   </trkpt>
   <trkpt lat="-3.0895560" lon="37.3732570">
    <ele>4987.3</ele>
    <time>2026-06-22T23:28:56Z</time>
   </trkpt>
   <trkpt lat="-3.0895550" lon="37.3732560">
    <ele>4987.3</ele>
    <time>2026-06-22T23:28:57Z</time>
   </trkpt>
   <trkpt lat="-3.0895530" lon="37.3732550">
    <ele>4987.4</ele>
    <time>2026-06-22T23:28:58Z</time>
   </trkpt>
   <trkpt lat="-3.0895520" lon="37.3732540">
    <ele>4987.4</ele>
    <time>2026-06-22T23:28:59Z</time>
   </trkpt>
   <trkpt lat="-3.0895520" lon="37.3732540">
    <ele>4987.4</ele>
    <time>2026-06-22T23:29:00Z</time>
   </trkpt>
   <trkpt lat="-3.0895550" lon="37.3732490">
    <ele>4987.5</ele>
    <time>2026-06-22T23:29:01Z</time>
   </trkpt>
   <trkpt lat="-3.0895580" lon="37.3732460">
    <ele>4987.6</ele>
    <time>2026-06-22T23:29:02Z</time>
   </trkpt>
   <trkpt lat="-3.0895570" lon="37.3732430">
    <ele>4987.6</ele>
    <time>2026-06-22T23:29:03Z</time>
   </trkpt>
   <trkpt lat="-3.0895580" lon="37.3732400">
    <ele>4987.7</ele>
    <time>2026-06-22T23:29:04Z</time>
   </trkpt>
   <trkpt lat="-3.0895580" lon="37.3732360">
    <ele>4987.8</ele>
    <time>2026-06-22T23:29:05Z</time>
   </trkpt>
   <trkpt lat="-3.0895590" lon="37.3732350">
    <ele>4987.8</ele>
    <time>2026-06-22T23:29:06Z</time>
   </trkpt>
   <trkpt lat="-3.0895590" lon="37.3732300">
    <ele>4987.9</ele>
    <time>2026-06-22T23:29:07Z</time>
   </trkpt>
   <trkpt lat="-3.0895610" lon="37.3732290">
    <ele>4988.0</ele>
    <time>2026-06-22T23:29:08Z</time>
   </trkpt>
   <trkpt lat="-3.0895620" lon="37.3732260">
    <ele>4988.0</ele>
    <time>2026-06-22T23:29:09Z</time>
   </trkpt>
   <trkpt lat="-3.0895610" lon="37.3732230">
    <ele>4988.1</ele>
    <time>2026-06-22T23:29:10Z</time>
   </trkpt>
   <trkpt lat="-3.0895610" lon="37.3732200">
    <ele>4988.1</ele>
    <time>2026-06-22T23:29:11Z</time>
   </trkpt>
   <trkpt lat="-3.0895620" lon="37.3732170">
    <ele>4988.2</ele>
    <time>2026-06-22T23:29:12Z</time>
   </trkpt>
   <trkpt lat="-3.0895610" lon="37.3732160">
    <ele>4988.2</ele>
    <time>2026-06-22T23:29:13Z</time>
   </trkpt>
   <trkpt lat="-3.0895610" lon="37.3732150">
    <ele>4988.2</ele>
    <time>2026-06-22T23:29:14Z</time>
   </trkpt>
   <trkpt lat="-3.0895600" lon="37.3732140">
    <ele>4988.3</ele>
    <time>2026-06-22T23:29:15Z</time>
   </trkpt>
   <trkpt lat="-3.0895610" lon="37.3732130">
    <ele>4988.3</ele>
    <time>2026-06-22T23:29:16Z</time>
   </trkpt>
   <trkpt lat="-3.0895610" lon="37.3732110">
    <ele>4988.3</ele>
    <time>2026-06-22T23:29:17Z</time>
   </trkpt>
   <trkpt lat="-3.0895620" lon="37.3732080">
    <ele>4988.4</ele>
    <time>2026-06-22T23:29:18Z</time>
   </trkpt>
   <trkpt lat="-3.0895610" lon="37.3732060">
    <ele>4988.5</ele>
    <time>2026-06-22T23:29:19Z</time>
   </trkpt>
   <trkpt lat="-3.0895610" lon="37.3732030">
    <ele>4988.5</ele>
    <time>2026-06-22T23:29:20Z</time>
   </trkpt>
   <trkpt lat="-3.0895590" lon="37.3732050">
    <ele>4988.6</ele>
    <time>2026-06-22T23:29:21Z</time>
   </trkpt>
   <trkpt lat="-3.0895580" lon="37.3732030">
    <ele>4988.6</ele>
    <time>2026-06-22T23:29:22Z</time>
   </trkpt>
   <trkpt lat="-3.0895580" lon="37.3732000">
    <ele>4988.7</ele>
    <time>2026-06-22T23:29:23Z</time>
   </trkpt>
   <trkpt lat="-3.0895570" lon="37.3731970">
    <ele>4988.7</ele>
    <time>2026-06-22T23:29:24Z</time>
   </trkpt>
   <trkpt lat="-3.0895570" lon="37.3731970">
    <ele>4988.7</ele>
    <time>2026-06-22T23:29:25Z</time>
   </trkpt>
   <trkpt lat="-3.0895530" lon="37.3731930">
    <ele>4988.8</ele>
    <time>2026-06-22T23:29:26Z</time>
   </trkpt>
   <trkpt lat="-3.0895530" lon="37.3731920">
    <ele>4988.9</ele>
    <time>2026-06-22T23:29:27Z</time>
   </trkpt>
   <trkpt lat="-3.0895530" lon="37.3731900">
    <ele>4988.9</ele>
    <time>2026-06-22T23:29:28Z</time>
   </trkpt>
   <trkpt lat="-3.0895510" lon="37.3731880">
    <ele>4989.0</ele>
    <time>2026-06-22T23:29:29Z</time>
   </trkpt>
   <trkpt lat="-3.0895490" lon="37.3731870">
    <ele>4989.0</ele>
    <time>2026-06-22T23:29:30Z</time>
   </trkpt>
   <trkpt lat="-3.0895460" lon="37.3731870">
    <ele>4989.1</ele>
    <time>2026-06-22T23:29:31Z</time>
   </trkpt>
   <trkpt lat="-3.0895450" lon="37.3731850">
    <ele>4989.1</ele>
    <time>2026-06-22T23:29:32Z</time>
   </trkpt>
   <trkpt lat="-3.0895440" lon="37.3731820">
    <ele>4989.2</ele>
    <time>2026-06-22T23:29:33Z</time>
   </trkpt>
   <trkpt lat="-3.0895440" lon="37.3731780">
    <ele>4989.2</ele>
    <time>2026-06-22T23:29:34Z</time>
   </trkpt>
   <trkpt lat="-3.0895440" lon="37.3731770">
    <ele>4989.3</ele>
    <time>2026-06-22T23:29:35Z</time>
   </trkpt>
   <trkpt lat="-3.0895430" lon="37.3731740">
    <ele>4989.3</ele>
    <time>2026-06-22T23:29:36Z</time>
   </trkpt>
   <trkpt lat="-3.0895450" lon="37.3731700">
    <ele>4989.4</ele>
    <time>2026-06-22T23:29:37Z</time>
   </trkpt>
   <trkpt lat="-3.0895430" lon="37.3731690">
    <ele>4989.5</ele>
    <time>2026-06-22T23:29:38Z</time>
   </trkpt>
   <trkpt lat="-3.0895430" lon="37.3731660">
    <ele>4989.5</ele>
    <time>2026-06-22T23:29:39Z</time>
   </trkpt>
   <trkpt lat="-3.0895420" lon="37.3731650">
    <ele>4989.5</ele>
    <time>2026-06-22T23:29:40Z</time>
   </trkpt>
   <trkpt lat="-3.0895420" lon="37.3731650">
    <ele>4989.5</ele>
    <time>2026-06-22T23:29:41Z</time>
   </trkpt>
   <trkpt lat="-3.0895410" lon="37.3731650">
    <ele>4989.6</ele>
    <time>2026-06-22T23:29:42Z</time>
   </trkpt>
   <trkpt lat="-3.0895410" lon="37.3731650">
    <ele>4989.6</ele>
    <time>2026-06-22T23:29:43Z</time>
   </trkpt>
   <trkpt lat="-3.0895410" lon="37.3731640">
    <ele>4989.6</ele>
    <time>2026-06-22T23:29:44Z</time>
   </trkpt>
   <trkpt lat="-3.0895410" lon="37.3731630">
    <ele>4989.6</ele>
    <time>2026-06-22T23:29:45Z</time>
   </trkpt>
   <trkpt lat="-3.0895380" lon="37.3731610">
    <ele>4989.7</ele>
    <time>2026-06-22T23:29:46Z</time>
   </trkpt>
   <trkpt lat="-3.0895380" lon="37.3731590">
    <ele>4989.7</ele>
    <time>2026-06-22T23:29:47Z</time>
   </trkpt>
   <trkpt lat="-3.0895360" lon="37.3731550">
    <ele>4989.8</ele>
    <time>2026-06-22T23:29:48Z</time>
   </trkpt>
   <trkpt lat="-3.0895340" lon="37.3731520">
    <ele>4989.9</ele>
    <time>2026-06-22T23:29:49Z</time>
   </trkpt>
   <trkpt lat="-3.0895320" lon="37.3731490">
    <ele>4990.0</ele>
    <time>2026-06-22T23:29:50Z</time>
   </trkpt>
   <trkpt lat="-3.0895300" lon="37.3731470">
    <ele>4990.0</ele>
    <time>2026-06-22T23:29:51Z</time>
   </trkpt>
   <trkpt lat="-3.0895270" lon="37.3731470">
    <ele>4990.1</ele>
    <time>2026-06-22T23:29:52Z</time>
   </trkpt>
   <trkpt lat="-3.0895250" lon="37.3731460">
    <ele>4990.1</ele>
    <time>2026-06-22T23:29:53Z</time>
   </trkpt>
   <trkpt lat="-3.0895230" lon="37.3731470">
    <ele>4990.2</ele>
    <time>2026-06-22T23:29:54Z</time>
   </trkpt>
   <trkpt lat="-3.0895210" lon="37.3731470">
    <ele>4990.2</ele>
    <time>2026-06-22T23:29:55Z</time>
   </trkpt>
   <trkpt lat="-3.0895210" lon="37.3731470">
    <ele>4990.2</ele>
    <time>2026-06-22T23:29:56Z</time>
   </trkpt>
   <trkpt lat="-3.0895210" lon="37.3731470">
    <ele>4990.2</ele>
    <time>2026-06-22T23:29:57Z</time>
   </trkpt>
   <trkpt lat="-3.0895200" lon="37.3731480">
    <ele>4990.2</ele>
    <time>2026-06-22T23:29:58Z</time>
   </trkpt>
   <trkpt lat="-3.0895190" lon="37.3731480">
    <ele>4990.3</ele>
    <time>2026-06-22T23:29:59Z</time>
   </trkpt>
   <trkpt lat="-3.0895190" lon="37.3731490">
    <ele>4990.3</ele>
    <time>2026-06-22T23:30:00Z</time>
   </trkpt>
   <trkpt lat="-3.0895170" lon="37.3731470">
    <ele>4990.3</ele>
    <time>2026-06-22T23:30:01Z</time>
   </trkpt>
   <trkpt lat="-3.0895150" lon="37.3731480">
    <ele>4990.4</ele>
    <time>2026-06-22T23:30:02Z</time>
   </trkpt>
   <trkpt lat="-3.0895110" lon="37.3731460">
    <ele>4990.5</ele>
    <time>2026-06-22T23:30:03Z</time>
   </trkpt>
   <trkpt lat="-3.0895140" lon="37.3731430">
    <ele>4990.6</ele>
    <time>2026-06-22T23:30:04Z</time>
   </trkpt>
   <trkpt lat="-3.0895080" lon="37.3731450">
    <ele>4990.7</ele>
    <time>2026-06-22T23:30:05Z</time>
   </trkpt>
   <trkpt lat="-3.0895070" lon="37.3731430">
    <ele>4990.7</ele>
    <time>2026-06-22T23:30:06Z</time>
   </trkpt>
   <trkpt lat="-3.0895060" lon="37.3731450">
    <ele>4990.8</ele>
    <time>2026-06-22T23:30:07Z</time>
   </trkpt>
   <trkpt lat="-3.0895030" lon="37.3731450">
    <ele>4990.8</ele>
    <time>2026-06-22T23:30:08Z</time>
   </trkpt>
   <trkpt lat="-3.0895010" lon="37.3731480">
    <ele>4990.9</ele>
    <time>2026-06-22T23:30:09Z</time>
   </trkpt>
   <trkpt lat="-3.0894990" lon="37.3731480">
    <ele>4990.9</ele>
    <time>2026-06-22T23:30:10Z</time>
   </trkpt>
   <trkpt lat="-3.0894970" lon="37.3731490">
    <ele>4991.0</ele>
    <time>2026-06-22T23:30:11Z</time>
   </trkpt>
   <trkpt lat="-3.0894950" lon="37.3731510">
    <ele>4991.0</ele>
    <time>2026-06-22T23:30:12Z</time>
   </trkpt>
   <trkpt lat="-3.0894930" lon="37.3731520">
    <ele>4991.1</ele>
    <time>2026-06-22T23:30:13Z</time>
   </trkpt>
   <trkpt lat="-3.0894910" lon="37.3731530">
    <ele>4991.1</ele>
    <time>2026-06-22T23:30:14Z</time>
   </trkpt>
   <trkpt lat="-3.0894910" lon="37.3731550">
    <ele>4991.2</ele>
    <time>2026-06-22T23:30:15Z</time>
   </trkpt>
   <trkpt lat="-3.0894880" lon="37.3731570">
    <ele>4991.3</ele>
    <time>2026-06-22T23:30:16Z</time>
   </trkpt>
   <trkpt lat="-3.0894860" lon="37.3731590">
    <ele>4991.3</ele>
    <time>2026-06-22T23:30:17Z</time>
   </trkpt>
   <trkpt lat="-3.0894820" lon="37.3731580">
    <ele>4991.4</ele>
    <time>2026-06-22T23:30:18Z</time>
   </trkpt>
   <trkpt lat="-3.0894800" lon="37.3731570">
    <ele>4991.4</ele>
    <time>2026-06-22T23:30:19Z</time>
   </trkpt>
   <trkpt lat="-3.0894810" lon="37.3731530">
    <ele>4991.5</ele>
    <time>2026-06-22T23:30:20Z</time>
   </trkpt>
   <trkpt lat="-3.0894800" lon="37.3731500">
    <ele>4991.6</ele>
    <time>2026-06-22T23:30:21Z</time>
   </trkpt>
   <trkpt lat="-3.0894820" lon="37.3731490">
    <ele>4991.6</ele>
    <time>2026-06-22T23:30:22Z</time>
   </trkpt>
   <trkpt lat="-3.0894830" lon="37.3731460">
    <ele>4991.7</ele>
    <time>2026-06-22T23:30:23Z</time>
   </trkpt>
   <trkpt lat="-3.0894820" lon="37.3731450">
    <ele>4991.7</ele>
    <time>2026-06-22T23:30:24Z</time>
   </trkpt>
   <trkpt lat="-3.0894830" lon="37.3731430">
    <ele>4991.8</ele>
    <time>2026-06-22T23:30:25Z</time>
   </trkpt>
   <trkpt lat="-3.0894840" lon="37.3731390">
    <ele>4991.9</ele>
    <time>2026-06-22T23:30:26Z</time>
   </trkpt>
   <trkpt lat="-3.0894860" lon="37.3731340">
    <ele>4992.0</ele>
    <time>2026-06-22T23:30:27Z</time>
   </trkpt>
   <trkpt lat="-3.0894870" lon="37.3731300">
    <ele>4992.0</ele>
    <time>2026-06-22T23:30:28Z</time>
   </trkpt>
   <trkpt lat="-3.0894880" lon="37.3731290">
    <ele>4992.1</ele>
    <time>2026-06-22T23:30:29Z</time>
   </trkpt>
   <trkpt lat="-3.0894850" lon="37.3731270">
    <ele>4992.1</ele>
    <time>2026-06-22T23:30:30Z</time>
   </trkpt>
   <trkpt lat="-3.0894870" lon="37.3731260">
    <ele>4992.2</ele>
    <time>2026-06-22T23:30:31Z</time>
   </trkpt>
   <trkpt lat="-3.0894850" lon="37.3731250">
    <ele>4992.2</ele>
    <time>2026-06-22T23:30:32Z</time>
   </trkpt>
   <trkpt lat="-3.0894840" lon="37.3731250">
    <ele>4992.3</ele>
    <time>2026-06-22T23:30:33Z</time>
   </trkpt>
   <trkpt lat="-3.0894820" lon="37.3731220">
    <ele>4992.3</ele>
    <time>2026-06-22T23:30:34Z</time>
   </trkpt>
   <trkpt lat="-3.0894800" lon="37.3731220">
    <ele>4992.4</ele>
    <time>2026-06-22T23:30:35Z</time>
   </trkpt>
   <trkpt lat="-3.0894770" lon="37.3731230">
    <ele>4992.4</ele>
    <time>2026-06-22T23:30:36Z</time>
   </trkpt>
   <trkpt lat="-3.0894740" lon="37.3731260">
    <ele>4992.5</ele>
    <time>2026-06-22T23:30:37Z</time>
   </trkpt>
   <trkpt lat="-3.0894730" lon="37.3731260">
    <ele>4992.5</ele>
    <time>2026-06-22T23:30:38Z</time>
   </trkpt>
   <trkpt lat="-3.0894730" lon="37.3731260">
    <ele>4992.5</ele>
    <time>2026-06-22T23:30:39Z</time>
   </trkpt>
   <trkpt lat="-3.0894730" lon="37.3731290">
    <ele>4992.6</ele>
    <time>2026-06-22T23:30:40Z</time>
   </trkpt>
   <trkpt lat="-3.0894730" lon="37.3731270">
    <ele>4992.6</ele>
    <time>2026-06-22T23:30:41Z</time>
   </trkpt>
   <trkpt lat="-3.0894700" lon="37.3731290">
    <ele>4992.7</ele>
    <time>2026-06-22T23:30:42Z</time>
   </trkpt>
   <trkpt lat="-3.0894670" lon="37.3731290">
    <ele>4992.8</ele>
    <time>2026-06-22T23:30:43Z</time>
   </trkpt>
   <trkpt lat="-3.0894640" lon="37.3731290">
    <ele>4992.8</ele>
    <time>2026-06-22T23:30:44Z</time>
   </trkpt>
   <trkpt lat="-3.0894620" lon="37.3731290">
    <ele>4992.9</ele>
    <time>2026-06-22T23:30:45Z</time>
   </trkpt>
   <trkpt lat="-3.0894600" lon="37.3731290">
    <ele>4992.9</ele>
    <time>2026-06-22T23:30:46Z</time>
   </trkpt>
   <trkpt lat="-3.0894560" lon="37.3731300">
    <ele>4993.0</ele>
    <time>2026-06-22T23:30:47Z</time>
   </trkpt>
   <trkpt lat="-3.0894530" lon="37.3731320">
    <ele>4993.1</ele>
    <time>2026-06-22T23:30:48Z</time>
   </trkpt>
   <trkpt lat="-3.0894520" lon="37.3731330">
    <ele>4993.1</ele>
    <time>2026-06-22T23:30:49Z</time>
   </trkpt>
   <trkpt lat="-3.0894490" lon="37.3731350">
    <ele>4993.2</ele>
    <time>2026-06-22T23:30:50Z</time>
   </trkpt>
   <trkpt lat="-3.0894480" lon="37.3731370">
    <ele>4993.2</ele>
    <time>2026-06-22T23:30:51Z</time>
   </trkpt>
   <trkpt lat="-3.0894470" lon="37.3731380">
    <ele>4993.3</ele>
    <time>2026-06-22T23:30:52Z</time>
   </trkpt>
   <trkpt lat="-3.0894470" lon="37.3731380">
    <ele>4993.3</ele>
    <time>2026-06-22T23:30:53Z</time>
   </trkpt>
   <trkpt lat="-3.0894450" lon="37.3731380">
    <ele>4993.3</ele>
    <time>2026-06-22T23:30:54Z</time>
   </trkpt>
   <trkpt lat="-3.0894430" lon="37.3731400">
    <ele>4993.3</ele>
    <time>2026-06-22T23:30:55Z</time>
   </trkpt>
   <trkpt lat="-3.0894390" lon="37.3731410">
    <ele>4993.4</ele>
    <time>2026-06-22T23:30:56Z</time>
   </trkpt>
   <trkpt lat="-3.0894370" lon="37.3731430">
    <ele>4993.5</ele>
    <time>2026-06-22T23:30:57Z</time>
   </trkpt>
   <trkpt lat="-3.0894330" lon="37.3731420">
    <ele>4993.6</ele>
    <time>2026-06-22T23:30:58Z</time>
   </trkpt>
   <trkpt lat="-3.0894330" lon="37.3731420">
    <ele>4993.6</ele>
    <time>2026-06-22T23:30:59Z</time>
   </trkpt>
   <trkpt lat="-3.0894330" lon="37.3731420">
    <ele>4993.6</ele>
    <time>2026-06-22T23:31:00Z</time>
   </trkpt>
   <trkpt lat="-3.0894310" lon="37.3731430">
    <ele>4993.6</ele>
    <time>2026-06-22T23:31:01Z</time>
   </trkpt>
   <trkpt lat="-3.0894270" lon="37.3731450">
    <ele>4993.7</ele>
    <time>2026-06-22T23:31:02Z</time>
   </trkpt>
   <trkpt lat="-3.0894240" lon="37.3731440">
    <ele>4993.8</ele>
    <time>2026-06-22T23:31:03Z</time>
   </trkpt>
   <trkpt lat="-3.0894210" lon="37.3731440">
    <ele>4993.8</ele>
    <time>2026-06-22T23:31:04Z</time>
   </trkpt>
   <trkpt lat="-3.0894210" lon="37.3731420">
    <ele>4993.9</ele>
    <time>2026-06-22T23:31:05Z</time>
   </trkpt>
   <trkpt lat="-3.0894200" lon="37.3731390">
    <ele>4993.9</ele>
    <time>2026-06-22T23:31:06Z</time>
   </trkpt>
   <trkpt lat="-3.0894200" lon="37.3731350">
    <ele>4994.0</ele>
    <time>2026-06-22T23:31:07Z</time>
   </trkpt>
   <trkpt lat="-3.0894190" lon="37.3731320">
    <ele>4994.1</ele>
    <time>2026-06-22T23:31:08Z</time>
   </trkpt>
   <trkpt lat="-3.0894180" lon="37.3731320">
    <ele>4994.1</ele>
    <time>2026-06-22T23:31:09Z</time>
   </trkpt>
   <trkpt lat="-3.0894180" lon="37.3731310">
    <ele>4994.1</ele>
    <time>2026-06-22T23:31:10Z</time>
   </trkpt>
   <trkpt lat="-3.0894180" lon="37.3731300">
    <ele>4994.1</ele>
    <time>2026-06-22T23:31:11Z</time>
   </trkpt>
   <trkpt lat="-3.0894170" lon="37.3731300">
    <ele>4994.2</ele>
    <time>2026-06-22T23:31:12Z</time>
   </trkpt>
   <trkpt lat="-3.0894170" lon="37.3731290">
    <ele>4994.2</ele>
    <time>2026-06-22T23:31:13Z</time>
   </trkpt>
   <trkpt lat="-3.0894180" lon="37.3731290">
    <ele>4994.2</ele>
    <time>2026-06-22T23:31:14Z</time>
   </trkpt>
   <trkpt lat="-3.0894180" lon="37.3731290">
    <ele>4994.2</ele>
    <time>2026-06-22T23:31:15Z</time>
   </trkpt>
   <trkpt lat="-3.0894180" lon="37.3731290">
    <ele>4994.2</ele>
    <time>2026-06-22T23:31:16Z</time>
   </trkpt>
   <trkpt lat="-3.0894160" lon="37.3731260">
    <ele>4994.3</ele>
    <time>2026-06-22T23:31:17Z</time>
   </trkpt>
   <trkpt lat="-3.0894150" lon="37.3731220">
    <ele>4994.4</ele>
    <time>2026-06-22T23:31:18Z</time>
   </trkpt>
   <trkpt lat="-3.0894130" lon="37.3731190">
    <ele>4994.4</ele>
    <time>2026-06-22T23:31:19Z</time>
   </trkpt>
   <trkpt lat="-3.0894120" lon="37.3731160">
    <ele>4994.5</ele>
    <time>2026-06-22T23:31:20Z</time>
   </trkpt>
   <trkpt lat="-3.0894110" lon="37.3731120">
    <ele>4994.6</ele>
    <time>2026-06-22T23:31:21Z</time>
   </trkpt>
   <trkpt lat="-3.0894100" lon="37.3731090">
    <ele>4994.7</ele>
    <time>2026-06-22T23:31:22Z</time>
   </trkpt>
   <trkpt lat="-3.0894090" lon="37.3731080">
    <ele>4994.7</ele>
    <time>2026-06-22T23:31:23Z</time>
   </trkpt>
   <trkpt lat="-3.0894060" lon="37.3731040">
    <ele>4994.8</ele>
    <time>2026-06-22T23:31:24Z</time>
   </trkpt>
   <trkpt lat="-3.0894060" lon="37.3731030">
    <ele>4994.8</ele>
    <time>2026-06-22T23:31:25Z</time>
   </trkpt>
   <trkpt lat="-3.0894050" lon="37.3731020">
    <ele>4994.8</ele>
    <time>2026-06-22T23:31:26Z</time>
   </trkpt>
   <trkpt lat="-3.0894040" lon="37.3731010">
    <ele>4994.9</ele>
    <time>2026-06-22T23:31:27Z</time>
   </trkpt>
   <trkpt lat="-3.0894040" lon="37.3731010">
    <ele>4994.9</ele>
    <time>2026-06-22T23:31:28Z</time>
   </trkpt>
   <trkpt lat="-3.0894030" lon="37.3731000">
    <ele>4994.9</ele>
    <time>2026-06-22T23:31:29Z</time>
   </trkpt>
   <trkpt lat="-3.0894020" lon="37.3731010">
    <ele>4994.9</ele>
    <time>2026-06-22T23:31:30Z</time>
   </trkpt>
   <trkpt lat="-3.0894020" lon="37.3730990">
    <ele>4995.0</ele>
    <time>2026-06-22T23:31:31Z</time>
   </trkpt>
   <trkpt lat="-3.0894030" lon="37.3730990">
    <ele>4995.0</ele>
    <time>2026-06-22T23:31:32Z</time>
   </trkpt>
   <trkpt lat="-3.0894040" lon="37.3730990">
    <ele>4995.0</ele>
    <time>2026-06-22T23:31:33Z</time>
   </trkpt>
   <trkpt lat="-3.0894030" lon="37.3730990">
    <ele>4995.0</ele>
    <time>2026-06-22T23:31:34Z</time>
   </trkpt>
   <trkpt lat="-3.0894020" lon="37.3730990">
    <ele>4995.1</ele>
    <time>2026-06-22T23:31:35Z</time>
   </trkpt>
   <trkpt lat="-3.0894020" lon="37.3730980">
    <ele>4995.1</ele>
    <time>2026-06-22T23:31:36Z</time>
   </trkpt>
   <trkpt lat="-3.0894010" lon="37.3730960">
    <ele>4995.1</ele>
    <time>2026-06-22T23:31:37Z</time>
   </trkpt>
   <trkpt lat="-3.0894010" lon="37.3730960">
    <ele>4995.1</ele>
    <time>2026-06-22T23:31:38Z</time>
   </trkpt>
   <trkpt lat="-3.0894010" lon="37.3730960">
    <ele>4995.1</ele>
    <time>2026-06-22T23:31:39Z</time>
   </trkpt>
   <trkpt lat="-3.0894020" lon="37.3730950">
    <ele>4995.2</ele>
    <time>2026-06-22T23:31:40Z</time>
   </trkpt>
   <trkpt lat="-3.0894020" lon="37.3730950">
    <ele>4995.2</ele>
    <time>2026-06-22T23:31:41Z</time>
   </trkpt>
   <trkpt lat="-3.0894030" lon="37.3730950">
    <ele>4995.2</ele>
    <time>2026-06-22T23:31:42Z</time>
   </trkpt>
   <trkpt lat="-3.0894030" lon="37.3730950">
    <ele>4995.2</ele>
    <time>2026-06-22T23:31:43Z</time>
   </trkpt>
   <trkpt lat="-3.0894030" lon="37.3730950">
    <ele>4995.2</ele>
    <time>2026-06-22T23:31:44Z</time>
   </trkpt>
   <trkpt lat="-3.0894030" lon="37.3730970">
    <ele>4995.2</ele>
    <time>2026-06-22T23:31:45Z</time>
   </trkpt>
   <trkpt lat="-3.0894030" lon="37.3730970">
    <ele>4995.2</ele>
    <time>2026-06-22T23:31:46Z</time>
   </trkpt>
   <trkpt lat="-3.0894030" lon="37.3730970">
    <ele>4995.2</ele>
    <time>2026-06-22T23:31:47Z</time>
   </trkpt>
   <trkpt lat="-3.0894050" lon="37.3730970">
    <ele>4995.3</ele>
    <time>2026-06-22T23:31:48Z</time>
   </trkpt>
   <trkpt lat="-3.0894050" lon="37.3730960">
    <ele>4995.3</ele>
    <time>2026-06-22T23:31:49Z</time>
   </trkpt>
   <trkpt lat="-3.0894060" lon="37.3730980">
    <ele>4995.3</ele>
    <time>2026-06-22T23:31:50Z</time>
   </trkpt>
   <trkpt lat="-3.0894060" lon="37.3730980">
    <ele>4995.3</ele>
    <time>2026-06-22T23:31:51Z</time>
   </trkpt>
   <trkpt lat="-3.0894060" lon="37.3730980">
    <ele>4995.3</ele>
    <time>2026-06-22T23:31:52Z</time>
   </trkpt>
   <trkpt lat="-3.0894060" lon="37.3730980">
    <ele>4995.3</ele>
    <time>2026-06-22T23:31:53Z</time>
   </trkpt>
   <trkpt lat="-3.0894070" lon="37.3730980">
    <ele>4995.4</ele>
    <time>2026-06-22T23:31:54Z</time>
   </trkpt>
   <trkpt lat="-3.0894070" lon="37.3730980">
    <ele>4995.4</ele>
    <time>2026-06-22T23:31:55Z</time>
   </trkpt>
   <trkpt lat="-3.0894070" lon="37.3730990">
    <ele>4995.4</ele>
    <time>2026-06-22T23:31:56Z</time>
   </trkpt>
   <trkpt lat="-3.0894070" lon="37.3730990">
    <ele>4995.4</ele>
    <time>2026-06-22T23:31:57Z</time>
   </trkpt>
   <trkpt lat="-3.0894070" lon="37.3731000">
    <ele>4995.4</ele>
    <time>2026-06-22T23:31:58Z</time>
   </trkpt>
   <trkpt lat="-3.0894060" lon="37.3731010">
    <ele>4995.4</ele>
    <time>2026-06-22T23:31:59Z</time>
   </trkpt>
   <trkpt lat="-3.0894060" lon="37.3731010">
    <ele>4995.4</ele>
    <time>2026-06-22T23:32:00Z</time>
   </trkpt>
   <trkpt lat="-3.0894070" lon="37.3731020">
    <ele>4995.5</ele>
    <time>2026-06-22T23:32:01Z</time>
   </trkpt>
   <trkpt lat="-3.0894060" lon="37.3731010">
    <ele>4995.5</ele>
    <time>2026-06-22T23:32:02Z</time>
   </trkpt>
   <trkpt lat="-3.0894070" lon="37.3731000">
    <ele>4995.5</ele>
    <time>2026-06-22T23:32:03Z</time>
   </trkpt>
   <trkpt lat="-3.0894070" lon="37.3731000">
    <ele>4995.5</ele>
    <time>2026-06-22T23:32:04Z</time>
   </trkpt>
   <trkpt lat="-3.0894070" lon="37.3731000">
    <ele>4995.5</ele>
    <time>2026-06-22T23:32:05Z</time>
   </trkpt>
   <trkpt lat="-3.0894070" lon="37.3731000">
    <ele>4995.5</ele>
    <time>2026-06-22T23:32:06Z</time>
   </trkpt>
   <trkpt lat="-3.0894070" lon="37.3731000">
    <ele>4995.5</ele>
    <time>2026-06-22T23:32:07Z</time>
   </trkpt>
   <trkpt lat="-3.0894070" lon="37.3731000">
    <ele>4995.5</ele>
    <time>2026-06-22T23:32:08Z</time>
   </trkpt>
   <trkpt lat="-3.0894070" lon="37.3731000">
    <ele>4995.5</ele>
    <time>2026-06-22T23:32:09Z</time>
   </trkpt>
   <trkpt lat="-3.0894070" lon="37.3731000">
    <ele>4995.5</ele>
    <time>2026-06-22T23:32:10Z</time>
   </trkpt>
   <trkpt lat="-3.0894070" lon="37.3731000">
    <ele>4995.5</ele>
    <time>2026-06-22T23:32:11Z</time>
   </trkpt>
   <trkpt lat="-3.0894070" lon="37.3731000">
    <ele>4995.5</ele>
    <time>2026-06-22T23:32:12Z</time>
   </trkpt>
   <trkpt lat="-3.0894070" lon="37.3731000">
    <ele>4995.5</ele>
    <time>2026-06-22T23:32:13Z</time>
   </trkpt>
   <trkpt lat="-3.0894080" lon="37.3730980">
    <ele>4995.6</ele>
    <time>2026-06-22T23:32:14Z</time>
   </trkpt>
   <trkpt lat="-3.0894080" lon="37.3730980">
    <ele>4995.6</ele>
    <time>2026-06-22T23:32:15Z</time>
   </trkpt>
   <trkpt lat="-3.0894080" lon="37.3730980">
    <ele>4995.6</ele>
    <time>2026-06-22T23:32:16Z</time>
   </trkpt>
   <trkpt lat="-3.0894080" lon="37.3730980">
    <ele>4995.6</ele>
    <time>2026-06-22T23:32:17Z</time>
   </trkpt>
   <trkpt lat="-3.0894070" lon="37.3730980">
    <ele>4995.6</ele>
    <time>2026-06-22T23:32:18Z</time>
   </trkpt>
   <trkpt lat="-3.0894070" lon="37.3730980">
    <ele>4995.6</ele>
    <time>2026-06-22T23:32:19Z</time>
   </trkpt>
   <trkpt lat="-3.0894080" lon="37.3730980">
    <ele>4995.6</ele>
    <time>2026-06-22T23:32:20Z</time>
   </trkpt>
   <trkpt lat="-3.0894080" lon="37.3730980">
    <ele>4995.6</ele>
    <time>2026-06-22T23:32:21Z</time>
   </trkpt>
   <trkpt lat="-3.0894080" lon="37.3730970">
    <ele>4995.6</ele>
    <time>2026-06-22T23:32:22Z</time>
   </trkpt>
   <trkpt lat="-3.0894070" lon="37.3730970">
    <ele>4995.7</ele>
    <time>2026-06-22T23:32:23Z</time>
   </trkpt>
   <trkpt lat="-3.0894070" lon="37.3730970">
    <ele>4995.7</ele>
    <time>2026-06-22T23:32:24Z</time>
   </trkpt>
   <trkpt lat="-3.0894070" lon="37.3730970">
    <ele>4995.7</ele>
    <time>2026-06-22T23:32:25Z</time>
   </trkpt>
   <trkpt lat="-3.0894070" lon="37.3730970">
    <ele>4995.7</ele>
    <time>2026-06-22T23:32:26Z</time>
   </trkpt>
   <trkpt lat="-3.0894070" lon="37.3730950">
    <ele>4995.7</ele>
    <time>2026-06-22T23:32:27Z</time>
   </trkpt>
   <trkpt lat="-3.0894070" lon="37.3730950">
    <ele>4995.7</ele>
    <time>2026-06-22T23:32:28Z</time>
   </trkpt>
   <trkpt lat="-3.0894060" lon="37.3730950">
    <ele>4995.7</ele>
    <time>2026-06-22T23:32:29Z</time>
   </trkpt>
   <trkpt lat="-3.0894060" lon="37.3730950">
    <ele>4995.7</ele>
    <time>2026-06-22T23:32:30Z</time>
   </trkpt>
   <trkpt lat="-3.0894060" lon="37.3730950">
    <ele>4995.7</ele>
    <time>2026-06-22T23:32:31Z</time>
   </trkpt>
   <trkpt lat="-3.0894060" lon="37.3730940">
    <ele>4995.7</ele>
    <time>2026-06-22T23:32:32Z</time>
   </trkpt>
   <trkpt lat="-3.0894050" lon="37.3730940">
    <ele>4995.8</ele>
    <time>2026-06-22T23:32:33Z</time>
   </trkpt>
   <trkpt lat="-3.0894060" lon="37.3730940">
    <ele>4995.8</ele>
    <time>2026-06-22T23:32:34Z</time>
   </trkpt>
   <trkpt lat="-3.0894070" lon="37.3730940">
    <ele>4995.8</ele>
    <time>2026-06-22T23:32:35Z</time>
   </trkpt>
   <trkpt lat="-3.0894070" lon="37.3730940">
    <ele>4995.8</ele>
    <time>2026-06-22T23:32:36Z</time>
   </trkpt>
   <trkpt lat="-3.0894060" lon="37.3730930">
    <ele>4995.8</ele>
    <time>2026-06-22T23:32:37Z</time>
   </trkpt>
   <trkpt lat="-3.0894060" lon="37.3730930">
    <ele>4995.8</ele>
    <time>2026-06-22T23:32:38Z</time>
   </trkpt>
   <trkpt lat="-3.0894060" lon="37.3730930">
    <ele>4995.8</ele>
    <time>2026-06-22T23:32:39Z</time>
   </trkpt>
   <trkpt lat="-3.0894060" lon="37.3730930">
    <ele>4995.8</ele>
    <time>2026-06-22T23:32:40Z</time>
   </trkpt>
   <trkpt lat="-3.0894060" lon="37.3730930">
    <ele>4995.8</ele>
    <time>2026-06-22T23:32:41Z</time>
   </trkpt>
   <trkpt lat="-3.0894060" lon="37.3730930">
    <ele>4995.8</ele>
    <time>2026-06-22T23:32:42Z</time>
   </trkpt>
   <trkpt lat="-3.0894070" lon="37.3730930">
    <ele>4995.9</ele>
    <time>2026-06-22T23:32:43Z</time>
   </trkpt>
   <trkpt lat="-3.0894070" lon="37.3730930">
    <ele>4995.9</ele>
    <time>2026-06-22T23:32:44Z</time>
   </trkpt>
   <trkpt lat="-3.0894070" lon="37.3730930">
    <ele>4995.9</ele>
    <time>2026-06-22T23:32:45Z</time>
   </trkpt>
   <trkpt lat="-3.0894070" lon="37.3730930">
    <ele>4995.9</ele>
    <time>2026-06-22T23:32:46Z</time>
   </trkpt>
   <trkpt lat="-3.0894070" lon="37.3730930">
    <ele>4995.9</ele>
    <time>2026-06-22T23:32:47Z</time>
   </trkpt>
   <trkpt lat="-3.0894070" lon="37.3730930">
    <ele>4995.9</ele>
    <time>2026-06-22T23:32:48Z</time>
   </trkpt>
   <trkpt lat="-3.0894070" lon="37.3730930">
    <ele>4995.9</ele>
    <time>2026-06-22T23:32:49Z</time>
   </trkpt>
   <trkpt lat="-3.0894070" lon="37.3730930">
    <ele>4995.9</ele>
    <time>2026-06-22T23:32:50Z</time>
   </trkpt>
   <trkpt lat="-3.0894070" lon="37.3730930">
    <ele>4995.9</ele>
    <time>2026-06-22T23:32:51Z</time>
   </trkpt>
   <trkpt lat="-3.0894070" lon="37.3730930">
    <ele>4995.9</ele>
    <time>2026-06-22T23:32:52Z</time>
   </trkpt>
   <trkpt lat="-3.0894080" lon="37.3730940">
    <ele>4995.9</ele>
    <time>2026-06-22T23:32:53Z</time>
   </trkpt>
   <trkpt lat="-3.0894080" lon="37.3730940">
    <ele>4995.9</ele>
    <time>2026-06-22T23:32:54Z</time>
   </trkpt>
   <trkpt lat="-3.0894080" lon="37.3730940">
    <ele>4995.9</ele>
    <time>2026-06-22T23:32:55Z</time>
   </trkpt>
   <trkpt lat="-3.0894080" lon="37.3730940">
    <ele>4995.9</ele>
    <time>2026-06-22T23:32:56Z</time>
   </trkpt>
   <trkpt lat="-3.0894080" lon="37.3730940">
    <ele>4995.9</ele>
    <time>2026-06-22T23:32:57Z</time>
   </trkpt>
   <trkpt lat="-3.0894090" lon="37.3730930">
    <ele>4995.9</ele>
    <time>2026-06-22T23:32:58Z</time>
   </trkpt>
   <trkpt lat="-3.0894090" lon="37.3730940">
    <ele>4995.9</ele>
    <time>2026-06-22T23:32:59Z</time>
   </trkpt>
   <trkpt lat="-3.0894090" lon="37.3730940">
    <ele>4995.9</ele>
    <time>2026-06-22T23:33:00Z</time>
   </trkpt>
   <trkpt lat="-3.0894090" lon="37.3730940">
    <ele>4995.9</ele>
    <time>2026-06-22T23:33:01Z</time>
   </trkpt>
   <trkpt lat="-3.0894090" lon="37.3730940">
    <ele>4995.9</ele>
    <time>2026-06-22T23:33:02Z</time>
   </trkpt>
   <trkpt lat="-3.0894090" lon="37.3730940">
    <ele>4995.9</ele>
    <time>2026-06-22T23:33:03Z</time>
   </trkpt>
   <trkpt lat="-3.0894090" lon="37.3730940">
    <ele>4995.9</ele>
    <time>2026-06-22T23:33:04Z</time>
   </trkpt>
   <trkpt lat="-3.0894090" lon="37.3730940">
    <ele>4995.9</ele>
    <time>2026-06-22T23:33:05Z</time>
   </trkpt>
   <trkpt lat="-3.0894090" lon="37.3730950">
    <ele>4996.0</ele>
    <time>2026-06-22T23:33:06Z</time>
   </trkpt>
   <trkpt lat="-3.0894090" lon="37.3730950">
    <ele>4996.0</ele>
    <time>2026-06-22T23:33:07Z</time>
   </trkpt>
   <trkpt lat="-3.0894090" lon="37.3730950">
    <ele>4996.0</ele>
    <time>2026-06-22T23:33:08Z</time>
   </trkpt>
   <trkpt lat="-3.0894090" lon="37.3730950">
    <ele>4996.0</ele>
    <time>2026-06-22T23:33:09Z</time>
   </trkpt>
   <trkpt lat="-3.0894090" lon="37.3730950">
    <ele>4996.0</ele>
    <time>2026-06-22T23:33:10Z</time>
   </trkpt>
   <trkpt lat="-3.0894090" lon="37.3730950">
    <ele>4996.0</ele>
    <time>2026-06-22T23:33:11Z</time>
   </trkpt>
   <trkpt lat="-3.0894080" lon="37.3730960">
    <ele>4996.0</ele>
    <time>2026-06-22T23:33:12Z</time>
   </trkpt>
   <trkpt lat="-3.0894080" lon="37.3730940">
    <ele>4996.0</ele>
    <time>2026-06-22T23:33:13Z</time>
   </trkpt>
   <trkpt lat="-3.0894080" lon="37.3730940">
    <ele>4996.0</ele>
    <time>2026-06-22T23:33:14Z</time>
   </trkpt>
   <trkpt lat="-3.0894080" lon="37.3730940">
    <ele>4996.0</ele>
    <time>2026-06-22T23:33:15Z</time>
   </trkpt>
   <trkpt lat="-3.0894080" lon="37.3730940">
    <ele>4996.0</ele>
    <time>2026-06-22T23:33:16Z</time>
   </trkpt>
   <trkpt lat="-3.0894080" lon="37.3730940">
    <ele>4996.0</ele>
    <time>2026-06-22T23:33:17Z</time>
   </trkpt>
   <trkpt lat="-3.0894080" lon="37.3730940">
    <ele>4996.0</ele>
    <time>2026-06-22T23:33:18Z</time>
   </trkpt>
   <trkpt lat="-3.0894080" lon="37.3730940">
    <ele>4996.0</ele>
    <time>2026-06-22T23:33:19Z</time>
   </trkpt>
   <trkpt lat="-3.0894080" lon="37.3730940">
    <ele>4996.0</ele>
    <time>2026-06-22T23:33:20Z</time>
   </trkpt>
   <trkpt lat="-3.0894090" lon="37.3730960">
    <ele>4996.1</ele>
    <time>2026-06-22T23:33:21Z</time>
   </trkpt>
   <trkpt lat="-3.0894090" lon="37.3730960">
    <ele>4996.1</ele>
    <time>2026-06-22T23:33:22Z</time>
   </trkpt>
   <trkpt lat="-3.0894090" lon="37.3730960">
    <ele>4996.1</ele>
    <time>2026-06-22T23:33:23Z</time>
   </trkpt>
   <trkpt lat="-3.0894090" lon="37.3730960">
    <ele>4996.1</ele>
    <time>2026-06-22T23:33:24Z</time>
   </trkpt>
   <trkpt lat="-3.0894090" lon="37.3730960">
    <ele>4996.1</ele>
    <time>2026-06-22T23:33:25Z</time>
   </trkpt>
   <trkpt lat="-3.0894090" lon="37.3730950">
    <ele>4996.1</ele>
    <time>2026-06-22T23:33:26Z</time>
   </trkpt>
   <trkpt lat="-3.0894090" lon="37.3730950">
    <ele>4996.1</ele>
    <time>2026-06-22T23:33:27Z</time>
   </trkpt>
   <trkpt lat="-3.0894090" lon="37.3730960">
    <ele>4996.1</ele>
    <time>2026-06-22T23:33:28Z</time>
   </trkpt>
   <trkpt lat="-3.0894100" lon="37.3730960">
    <ele>4996.1</ele>
    <time>2026-06-22T23:33:29Z</time>
   </trkpt>
   <trkpt lat="-3.0894100" lon="37.3730960">
    <ele>4996.1</ele>
    <time>2026-06-22T23:33:30Z</time>
   </trkpt>
   <trkpt lat="-3.0894100" lon="37.3730970">
    <ele>4996.2</ele>
    <time>2026-06-22T23:33:31Z</time>
   </trkpt>
   <trkpt lat="-3.0894100" lon="37.3730960">
    <ele>4996.2</ele>
    <time>2026-06-22T23:33:32Z</time>
   </trkpt>
   <trkpt lat="-3.0894100" lon="37.3730970">
    <ele>4996.2</ele>
    <time>2026-06-22T23:33:33Z</time>
   </trkpt>
   <trkpt lat="-3.0894100" lon="37.3730970">
    <ele>4996.2</ele>
    <time>2026-06-22T23:33:34Z</time>
   </trkpt>
   <trkpt lat="-3.0894100" lon="37.3730970">
    <ele>4996.2</ele>
    <time>2026-06-22T23:33:35Z</time>
   </trkpt>
   <trkpt lat="-3.0894100" lon="37.3730970">
    <ele>4996.2</ele>
    <time>2026-06-22T23:33:36Z</time>
   </trkpt>
   <trkpt lat="-3.0894100" lon="37.3730970">
    <ele>4996.2</ele>
    <time>2026-06-22T23:33:37Z</time>
   </trkpt>
   <trkpt lat="-3.0894100" lon="37.3730970">
    <ele>4996.2</ele>
    <time>2026-06-22T23:33:38Z</time>
   </trkpt>
   <trkpt lat="-3.0894100" lon="37.3730970">
    <ele>4996.2</ele>
    <time>2026-06-22T23:33:39Z</time>
   </trkpt>
   <trkpt lat="-3.0894100" lon="37.3730970">
    <ele>4996.2</ele>
    <time>2026-06-22T23:33:40Z</time>
   </trkpt>
   <trkpt lat="-3.0894100" lon="37.3730970">
    <ele>4996.2</ele>
    <time>2026-06-22T23:33:41Z</time>
   </trkpt>
   <trkpt lat="-3.0894110" lon="37.3730970">
    <ele>4996.2</ele>
    <time>2026-06-22T23:33:42Z</time>
   </trkpt>
   <trkpt lat="-3.0894110" lon="37.3730970">
    <ele>4996.2</ele>
    <time>2026-06-22T23:33:43Z</time>
   </trkpt>
   <trkpt lat="-3.0894110" lon="37.3730970">
    <ele>4996.2</ele>
    <time>2026-06-22T23:33:44Z</time>
   </trkpt>
   <trkpt lat="-3.0894100" lon="37.3730970">
    <ele>4996.3</ele>
    <time>2026-06-22T23:33:45Z</time>
   </trkpt>
   <trkpt lat="-3.0894100" lon="37.3730970">
    <ele>4996.3</ele>
    <time>2026-06-22T23:33:46Z</time>
   </trkpt>
   <trkpt lat="-3.0894100" lon="37.3730970">
    <ele>4996.3</ele>
    <time>2026-06-22T23:33:47Z</time>
   </trkpt>
   <trkpt lat="-3.0894100" lon="37.3730970">
    <ele>4996.3</ele>
    <time>2026-06-22T23:33:48Z</time>
   </trkpt>
   <trkpt lat="-3.0894110" lon="37.3730960">
    <ele>4996.3</ele>
    <time>2026-06-22T23:33:49Z</time>
   </trkpt>
   <trkpt lat="-3.0894110" lon="37.3730960">
    <ele>4996.3</ele>
    <time>2026-06-22T23:33:50Z</time>
   </trkpt>
   <trkpt lat="-3.0894110" lon="37.3730960">
    <ele>4996.3</ele>
    <time>2026-06-22T23:33:51Z</time>
   </trkpt>
   <trkpt lat="-3.0894110" lon="37.3730960">
    <ele>4996.3</ele>
    <time>2026-06-22T23:33:52Z</time>
   </trkpt>
   <trkpt lat="-3.0894110" lon="37.3730960">
    <ele>4996.3</ele>
    <time>2026-06-22T23:33:53Z</time>
   </trkpt>
   <trkpt lat="-3.0894120" lon="37.3730970">
    <ele>4996.3</ele>
    <time>2026-06-22T23:33:54Z</time>
   </trkpt>
   <trkpt lat="-3.0894120" lon="37.3730980">
    <ele>4996.3</ele>
    <time>2026-06-22T23:33:55Z</time>
   </trkpt>
   <trkpt lat="-3.0894120" lon="37.3730980">
    <ele>4996.3</ele>
    <time>2026-06-22T23:33:56Z</time>
   </trkpt>
   <trkpt lat="-3.0894120" lon="37.3730980">
    <ele>4996.3</ele>
    <time>2026-06-22T23:33:57Z</time>
   </trkpt>
   <trkpt lat="-3.0894120" lon="37.3730980">
    <ele>4996.3</ele>
    <time>2026-06-22T23:33:58Z</time>
   </trkpt>
   <trkpt lat="-3.0894120" lon="37.3730980">
    <ele>4996.3</ele>
    <time>2026-06-22T23:33:59Z</time>
   </trkpt>
   <trkpt lat="-3.0894130" lon="37.3730950">
    <ele>4996.4</ele>
    <time>2026-06-22T23:34:00Z</time>
   </trkpt>
   <trkpt lat="-3.0894120" lon="37.3730960">
    <ele>4996.4</ele>
    <time>2026-06-22T23:34:01Z</time>
   </trkpt>
   <trkpt lat="-3.0894130" lon="37.3730950">
    <ele>4996.5</ele>
    <time>2026-06-22T23:34:02Z</time>
   </trkpt>
   <trkpt lat="-3.0894120" lon="37.3730960">
    <ele>4996.5</ele>
    <time>2026-06-22T23:34:03Z</time>
   </trkpt>
   <trkpt lat="-3.0894130" lon="37.3730960">
    <ele>4996.5</ele>
    <time>2026-06-22T23:34:04Z</time>
   </trkpt>
   <trkpt lat="-3.0894120" lon="37.3730960">
    <ele>4996.5</ele>
    <time>2026-06-22T23:34:05Z</time>
   </trkpt>
   <trkpt lat="-3.0894120" lon="37.3730960">
    <ele>4996.5</ele>
    <time>2026-06-22T23:34:06Z</time>
   </trkpt>
   <trkpt lat="-3.0894120" lon="37.3730960">
    <ele>4996.5</ele>
    <time>2026-06-22T23:34:07Z</time>
   </trkpt>
   <trkpt lat="-3.0894110" lon="37.3730970">
    <ele>4996.6</ele>
    <time>2026-06-22T23:34:08Z</time>
   </trkpt>
   <trkpt lat="-3.0894110" lon="37.3730960">
    <ele>4996.6</ele>
    <time>2026-06-22T23:34:09Z</time>
   </trkpt>
   <trkpt lat="-3.0894100" lon="37.3730960">
    <ele>4996.6</ele>
    <time>2026-06-22T23:34:10Z</time>
   </trkpt>
   <trkpt lat="-3.0894090" lon="37.3730940">
    <ele>4996.7</ele>
    <time>2026-06-22T23:34:11Z</time>
   </trkpt>
   <trkpt lat="-3.0894090" lon="37.3730930">
    <ele>4996.7</ele>
    <time>2026-06-22T23:34:12Z</time>
   </trkpt>
   <trkpt lat="-3.0894090" lon="37.3730930">
    <ele>4996.7</ele>
    <time>2026-06-22T23:34:13Z</time>
   </trkpt>
   <trkpt lat="-3.0894090" lon="37.3730940">
    <ele>4996.7</ele>
    <time>2026-06-22T23:34:14Z</time>
   </trkpt>
   <trkpt lat="-3.0894100" lon="37.3730960">
    <ele>4996.7</ele>
    <time>2026-06-22T23:34:15Z</time>
   </trkpt>
   <trkpt lat="-3.0894100" lon="37.3730960">
    <ele>4996.7</ele>
    <time>2026-06-22T23:34:16Z</time>
   </trkpt>
   <trkpt lat="-3.0894110" lon="37.3730970">
    <ele>4996.8</ele>
    <time>2026-06-22T23:34:17Z</time>
   </trkpt>
   <trkpt lat="-3.0894110" lon="37.3730980">
    <ele>4996.8</ele>
    <time>2026-06-22T23:34:18Z</time>
   </trkpt>
   <trkpt lat="-3.0894110" lon="37.3730980">
    <ele>4996.8</ele>
    <time>2026-06-22T23:34:19Z</time>
   </trkpt>
   <trkpt lat="-3.0894120" lon="37.3730990">
    <ele>4996.8</ele>
    <time>2026-06-22T23:34:20Z</time>
   </trkpt>
   <trkpt lat="-3.0894120" lon="37.3730990">
    <ele>4996.8</ele>
    <time>2026-06-22T23:34:21Z</time>
   </trkpt>
   <trkpt lat="-3.0894120" lon="37.3731000">
    <ele>4996.9</ele>
    <time>2026-06-22T23:34:22Z</time>
   </trkpt>
   <trkpt lat="-3.0894120" lon="37.3731000">
    <ele>4996.9</ele>
    <time>2026-06-22T23:34:23Z</time>
   </trkpt>
   <trkpt lat="-3.0894120" lon="37.3730990">
    <ele>4996.9</ele>
    <time>2026-06-22T23:34:24Z</time>
   </trkpt>
   <trkpt lat="-3.0894120" lon="37.3730990">
    <ele>4996.9</ele>
    <time>2026-06-22T23:34:25Z</time>
   </trkpt>
   <trkpt lat="-3.0894120" lon="37.3731000">
    <ele>4996.9</ele>
    <time>2026-06-22T23:34:26Z</time>
   </trkpt>
   <trkpt lat="-3.0894120" lon="37.3731000">
    <ele>4996.9</ele>
    <time>2026-06-22T23:34:27Z</time>
   </trkpt>
   <trkpt lat="-3.0894120" lon="37.3731000">
    <ele>4996.9</ele>
    <time>2026-06-22T23:34:28Z</time>
   </trkpt>
   <trkpt lat="-3.0894120" lon="37.3731000">
    <ele>4996.9</ele>
    <time>2026-06-22T23:34:29Z</time>
   </trkpt>
   <trkpt lat="-3.0894120" lon="37.3731000">
    <ele>4996.9</ele>
    <time>2026-06-22T23:34:30Z</time>
   </trkpt>
   <trkpt lat="-3.0894120" lon="37.3731000">
    <ele>4996.9</ele>
    <time>2026-06-22T23:34:31Z</time>
   </trkpt>
   <trkpt lat="-3.0894130" lon="37.3730990">
    <ele>4996.9</ele>
    <time>2026-06-22T23:34:32Z</time>
   </trkpt>
   <trkpt lat="-3.0894130" lon="37.3730990">
    <ele>4996.9</ele>
    <time>2026-06-22T23:34:33Z</time>
   </trkpt>
   <trkpt lat="-3.0894130" lon="37.3730990">
    <ele>4996.9</ele>
    <time>2026-06-22T23:34:34Z</time>
   </trkpt>
   <trkpt lat="-3.0894130" lon="37.3731000">
    <ele>4996.9</ele>
    <time>2026-06-22T23:34:35Z</time>
   </trkpt>
   <trkpt lat="-3.0894130" lon="37.3731000">
    <ele>4996.9</ele>
    <time>2026-06-22T23:34:36Z</time>
   </trkpt>
   <trkpt lat="-3.0894130" lon="37.3731000">
    <ele>4996.9</ele>
    <time>2026-06-22T23:34:37Z</time>
   </trkpt>
   <trkpt lat="-3.0894130" lon="37.3731000">
    <ele>4996.9</ele>
    <time>2026-06-22T23:34:38Z</time>
   </trkpt>
   <trkpt lat="-3.0894140" lon="37.3730990">
    <ele>4997.0</ele>
    <time>2026-06-22T23:34:39Z</time>
   </trkpt>
   <trkpt lat="-3.0894140" lon="37.3730990">
    <ele>4997.0</ele>
    <time>2026-06-22T23:34:40Z</time>
   </trkpt>
   <trkpt lat="-3.0894130" lon="37.3730990">
    <ele>4997.0</ele>
    <time>2026-06-22T23:34:41Z</time>
   </trkpt>
   <trkpt lat="-3.0894130" lon="37.3730990">
    <ele>4997.0</ele>
    <time>2026-06-22T23:34:42Z</time>
   </trkpt>
   <trkpt lat="-3.0894130" lon="37.3730980">
    <ele>4997.0</ele>
    <time>2026-06-22T23:34:43Z</time>
   </trkpt>
   <trkpt lat="-3.0894130" lon="37.3730970">
    <ele>4997.0</ele>
    <time>2026-06-22T23:34:44Z</time>
   </trkpt>
   <trkpt lat="-3.0894130" lon="37.3730970">
    <ele>4997.0</ele>
    <time>2026-06-22T23:34:45Z</time>
   </trkpt>
   <trkpt lat="-3.0894130" lon="37.3730970">
    <ele>4997.0</ele>
    <time>2026-06-22T23:34:46Z</time>
   </trkpt>
   <trkpt lat="-3.0894130" lon="37.3730970">
    <ele>4997.0</ele>
    <time>2026-06-22T23:34:47Z</time>
   </trkpt>
   <trkpt lat="-3.0894130" lon="37.3730970">
    <ele>4997.0</ele>
    <time>2026-06-22T23:34:48Z</time>
   </trkpt>
   <trkpt lat="-3.0894130" lon="37.3730970">
    <ele>4997.0</ele>
    <time>2026-06-22T23:34:49Z</time>
   </trkpt>
   <trkpt lat="-3.0894130" lon="37.3730970">
    <ele>4997.0</ele>
    <time>2026-06-22T23:34:50Z</time>
   </trkpt>
   <trkpt lat="-3.0894130" lon="37.3730970">
    <ele>4997.0</ele>
    <time>2026-06-22T23:34:51Z</time>
   </trkpt>
   <trkpt lat="-3.0894130" lon="37.3730970">
    <ele>4997.0</ele>
    <time>2026-06-22T23:34:52Z</time>
   </trkpt>
   <trkpt lat="-3.0894120" lon="37.3730940">
    <ele>4997.1</ele>
    <time>2026-06-22T23:34:53Z</time>
   </trkpt>
   <trkpt lat="-3.0894120" lon="37.3730930">
    <ele>4997.1</ele>
    <time>2026-06-22T23:34:54Z</time>
   </trkpt>
   <trkpt lat="-3.0894120" lon="37.3730930">
    <ele>4997.1</ele>
    <time>2026-06-22T23:34:55Z</time>
   </trkpt>
   <trkpt lat="-3.0894120" lon="37.3730930">
    <ele>4997.1</ele>
    <time>2026-06-22T23:34:56Z</time>
   </trkpt>
   <trkpt lat="-3.0894120" lon="37.3730930">
    <ele>4997.1</ele>
    <time>2026-06-22T23:34:57Z</time>
   </trkpt>
   <trkpt lat="-3.0894120" lon="37.3730930">
    <ele>4997.1</ele>
    <time>2026-06-22T23:34:58Z</time>
   </trkpt>
   <trkpt lat="-3.0894120" lon="37.3730930">
    <ele>4997.1</ele>
    <time>2026-06-22T23:34:59Z</time>
   </trkpt>
   <trkpt lat="-3.0894120" lon="37.3730930">
    <ele>4997.1</ele>
    <time>2026-06-22T23:35:00Z</time>
   </trkpt>
   <trkpt lat="-3.0894120" lon="37.3730930">
    <ele>4997.1</ele>
    <time>2026-06-22T23:35:01Z</time>
   </trkpt>
   <trkpt lat="-3.0894120" lon="37.3730930">
    <ele>4997.1</ele>
    <time>2026-06-22T23:35:02Z</time>
   </trkpt>
   <trkpt lat="-3.0894120" lon="37.3730930">
    <ele>4997.1</ele>
    <time>2026-06-22T23:35:03Z</time>
   </trkpt>
   <trkpt lat="-3.0894120" lon="37.3730930">
    <ele>4997.1</ele>
    <time>2026-06-22T23:35:04Z</time>
   </trkpt>
   <trkpt lat="-3.0894120" lon="37.3730930">
    <ele>4997.1</ele>
    <time>2026-06-22T23:35:05Z</time>
   </trkpt>
   <trkpt lat="-3.0894120" lon="37.3730930">
    <ele>4997.1</ele>
    <time>2026-06-22T23:35:06Z</time>
   </trkpt>
   <trkpt lat="-3.0894120" lon="37.3730930">
    <ele>4997.1</ele>
    <time>2026-06-22T23:35:07Z</time>
   </trkpt>
   <trkpt lat="-3.0894120" lon="37.3730930">
    <ele>4997.1</ele>
    <time>2026-06-22T23:35:08Z</time>
   </trkpt>
   <trkpt lat="-3.0894120" lon="37.3730930">
    <ele>4997.1</ele>
    <time>2026-06-22T23:35:09Z</time>
   </trkpt>
   <trkpt lat="-3.0894120" lon="37.3730930">
    <ele>4997.1</ele>
    <time>2026-06-22T23:35:10Z</time>
   </trkpt>
   <trkpt lat="-3.0894120" lon="37.3730930">
    <ele>4997.1</ele>
    <time>2026-06-22T23:35:11Z</time>
   </trkpt>
   <trkpt lat="-3.0894130" lon="37.3730890">
    <ele>4997.2</ele>
    <time>2026-06-22T23:35:12Z</time>
   </trkpt>
   <trkpt lat="-3.0894130" lon="37.3730890">
    <ele>4997.2</ele>
    <time>2026-06-22T23:35:13Z</time>
   </trkpt>
   <trkpt lat="-3.0894130" lon="37.3730880">
    <ele>4997.2</ele>
    <time>2026-06-22T23:35:14Z</time>
   </trkpt>
   <trkpt lat="-3.0894130" lon="37.3730880">
    <ele>4997.2</ele>
    <time>2026-06-22T23:35:15Z</time>
   </trkpt>
   <trkpt lat="-3.0894120" lon="37.3730880">
    <ele>4997.3</ele>
    <time>2026-06-22T23:35:16Z</time>
   </trkpt>
   <trkpt lat="-3.0894120" lon="37.3730880">
    <ele>4997.3</ele>
    <time>2026-06-22T23:35:17Z</time>
   </trkpt>
   <trkpt lat="-3.0894120" lon="37.3730880">
    <ele>4997.3</ele>
    <time>2026-06-22T23:35:18Z</time>
   </trkpt>
   <trkpt lat="-3.0894120" lon="37.3730880">
    <ele>4997.3</ele>
    <time>2026-06-22T23:35:19Z</time>
   </trkpt>
   <trkpt lat="-3.0894110" lon="37.3730890">
    <ele>4997.3</ele>
    <time>2026-06-22T23:35:20Z</time>
   </trkpt>
   <trkpt lat="-3.0894110" lon="37.3730900">
    <ele>4997.3</ele>
    <time>2026-06-22T23:35:21Z</time>
   </trkpt>
   <trkpt lat="-3.0894110" lon="37.3730900">
    <ele>4997.3</ele>
    <time>2026-06-22T23:35:22Z</time>
   </trkpt>
   <trkpt lat="-3.0894100" lon="37.3730900">
    <ele>4997.3</ele>
    <time>2026-06-22T23:35:23Z</time>
   </trkpt>
   <trkpt lat="-3.0894100" lon="37.3730890">
    <ele>4997.4</ele>
    <time>2026-06-22T23:35:24Z</time>
   </trkpt>
   <trkpt lat="-3.0894110" lon="37.3730890">
    <ele>4997.4</ele>
    <time>2026-06-22T23:35:25Z</time>
   </trkpt>
   <trkpt lat="-3.0894110" lon="37.3730890">
    <ele>4997.4</ele>
    <time>2026-06-22T23:35:26Z</time>
   </trkpt>
   <trkpt lat="-3.0894100" lon="37.3730920">
    <ele>4997.4</ele>
    <time>2026-06-22T23:35:27Z</time>
   </trkpt>
   <trkpt lat="-3.0894100" lon="37.3730920">
    <ele>4997.4</ele>
    <time>2026-06-22T23:35:28Z</time>
   </trkpt>
   <trkpt lat="-3.0894090" lon="37.3730930">
    <ele>4997.5</ele>
    <time>2026-06-22T23:35:29Z</time>
   </trkpt>
   <trkpt lat="-3.0894090" lon="37.3730960">
    <ele>4997.5</ele>
    <time>2026-06-22T23:35:30Z</time>
   </trkpt>
   <trkpt lat="-3.0894090" lon="37.3730960">
    <ele>4997.5</ele>
    <time>2026-06-22T23:35:31Z</time>
   </trkpt>
   <trkpt lat="-3.0894090" lon="37.3730940">
    <ele>4997.6</ele>
    <time>2026-06-22T23:35:32Z</time>
   </trkpt>
   <trkpt lat="-3.0894090" lon="37.3730950">
    <ele>4997.6</ele>
    <time>2026-06-22T23:35:33Z</time>
   </trkpt>
   <trkpt lat="-3.0894090" lon="37.3730950">
    <ele>4997.6</ele>
    <time>2026-06-22T23:35:34Z</time>
   </trkpt>
   <trkpt lat="-3.0894100" lon="37.3730940">
    <ele>4997.6</ele>
    <time>2026-06-22T23:35:35Z</time>
   </trkpt>
   <trkpt lat="-3.0894120" lon="37.3730940">
    <ele>4997.7</ele>
    <time>2026-06-22T23:35:36Z</time>
   </trkpt>
   <trkpt lat="-3.0894130" lon="37.3730950">
    <ele>4997.7</ele>
    <time>2026-06-22T23:35:37Z</time>
   </trkpt>
   <trkpt lat="-3.0894140" lon="37.3730950">
    <ele>4997.7</ele>
    <time>2026-06-22T23:35:38Z</time>
   </trkpt>
   <trkpt lat="-3.0894140" lon="37.3730940">
    <ele>4997.7</ele>
    <time>2026-06-22T23:35:39Z</time>
   </trkpt>
   <trkpt lat="-3.0894140" lon="37.3730940">
    <ele>4997.7</ele>
    <time>2026-06-22T23:35:40Z</time>
   </trkpt>
   <trkpt lat="-3.0894150" lon="37.3730950">
    <ele>4997.8</ele>
    <time>2026-06-22T23:35:41Z</time>
   </trkpt>
   <trkpt lat="-3.0894150" lon="37.3730950">
    <ele>4997.8</ele>
    <time>2026-06-22T23:35:42Z</time>
   </trkpt>
   <trkpt lat="-3.0894150" lon="37.3730950">
    <ele>4997.8</ele>
    <time>2026-06-22T23:35:43Z</time>
   </trkpt>
   <trkpt lat="-3.0894150" lon="37.3730940">
    <ele>4997.8</ele>
    <time>2026-06-22T23:35:44Z</time>
   </trkpt>
   <trkpt lat="-3.0894150" lon="37.3730940">
    <ele>4997.8</ele>
    <time>2026-06-22T23:35:45Z</time>
   </trkpt>
   <trkpt lat="-3.0894150" lon="37.3730940">
    <ele>4997.8</ele>
    <time>2026-06-22T23:35:46Z</time>
   </trkpt>
   <trkpt lat="-3.0894150" lon="37.3730940">
    <ele>4997.8</ele>
    <time>2026-06-22T23:35:47Z</time>
   </trkpt>
   <trkpt lat="-3.0894160" lon="37.3730930">
    <ele>4997.8</ele>
    <time>2026-06-22T23:35:48Z</time>
   </trkpt>
   <trkpt lat="-3.0894160" lon="37.3730930">
    <ele>4997.8</ele>
    <time>2026-06-22T23:35:49Z</time>
   </trkpt>
   <trkpt lat="-3.0894170" lon="37.3730930">
    <ele>4997.9</ele>
    <time>2026-06-22T23:35:50Z</time>
   </trkpt>
   <trkpt lat="-3.0894170" lon="37.3730930">
    <ele>4997.9</ele>
    <time>2026-06-22T23:35:51Z</time>
   </trkpt>
   <trkpt lat="-3.0894170" lon="37.3730930">
    <ele>4997.9</ele>
    <time>2026-06-22T23:35:52Z</time>
   </trkpt>
   <trkpt lat="-3.0894170" lon="37.3730930">
    <ele>4997.9</ele>
    <time>2026-06-22T23:35:53Z</time>
   </trkpt>
   <trkpt lat="-3.0894170" lon="37.3730930">
    <ele>4997.9</ele>
    <time>2026-06-22T23:35:54Z</time>
   </trkpt>
   <trkpt lat="-3.0894170" lon="37.3730950">
    <ele>4997.9</ele>
    <time>2026-06-22T23:35:55Z</time>
   </trkpt>
   <trkpt lat="-3.0894170" lon="37.3730960">
    <ele>4997.9</ele>
    <time>2026-06-22T23:35:56Z</time>
   </trkpt>
   <trkpt lat="-3.0894170" lon="37.3730950">
    <ele>4997.9</ele>
    <time>2026-06-22T23:35:57Z</time>
   </trkpt>
   <trkpt lat="-3.0894170" lon="37.3730950">
    <ele>4997.9</ele>
    <time>2026-06-22T23:35:58Z</time>
   </trkpt>
   <trkpt lat="-3.0894170" lon="37.3730950">
    <ele>4997.9</ele>
    <time>2026-06-22T23:35:59Z</time>
   </trkpt>
   <trkpt lat="-3.0894170" lon="37.3730950">
    <ele>4997.9</ele>
    <time>2026-06-22T23:36:00Z</time>
   </trkpt>
   <trkpt lat="-3.0894170" lon="37.3730950">
    <ele>4997.9</ele>
    <time>2026-06-22T23:36:01Z</time>
   </trkpt>
   <trkpt lat="-3.0894170" lon="37.3730950">
    <ele>4997.9</ele>
    <time>2026-06-22T23:36:02Z</time>
   </trkpt>
   <trkpt lat="-3.0894170" lon="37.3730980">
    <ele>4998.0</ele>
    <time>2026-06-22T23:36:03Z</time>
   </trkpt>
   <trkpt lat="-3.0894170" lon="37.3730980">
    <ele>4998.0</ele>
    <time>2026-06-22T23:36:04Z</time>
   </trkpt>
   <trkpt lat="-3.0894170" lon="37.3730980">
    <ele>4998.0</ele>
    <time>2026-06-22T23:36:05Z</time>
   </trkpt>
   <trkpt lat="-3.0894170" lon="37.3730990">
    <ele>4998.0</ele>
    <time>2026-06-22T23:36:06Z</time>
   </trkpt>
   <trkpt lat="-3.0894170" lon="37.3730990">
    <ele>4998.0</ele>
    <time>2026-06-22T23:36:07Z</time>
   </trkpt>
   <trkpt lat="-3.0894170" lon="37.3730990">
    <ele>4998.0</ele>
    <time>2026-06-22T23:36:08Z</time>
   </trkpt>
   <trkpt lat="-3.0894170" lon="37.3730990">
    <ele>4998.0</ele>
    <time>2026-06-22T23:36:09Z</time>
   </trkpt>
   <trkpt lat="-3.0894170" lon="37.3731000">
    <ele>4998.0</ele>
    <time>2026-06-22T23:36:10Z</time>
   </trkpt>
   <trkpt lat="-3.0894170" lon="37.3731000">
    <ele>4998.0</ele>
    <time>2026-06-22T23:36:11Z</time>
   </trkpt>
   <trkpt lat="-3.0894160" lon="37.3731000">
    <ele>4998.1</ele>
    <time>2026-06-22T23:36:12Z</time>
   </trkpt>
   <trkpt lat="-3.0894170" lon="37.3731000">
    <ele>4998.1</ele>
    <time>2026-06-22T23:36:13Z</time>
   </trkpt>
   <trkpt lat="-3.0894170" lon="37.3731010">
    <ele>4998.1</ele>
    <time>2026-06-22T23:36:14Z</time>
   </trkpt>
   <trkpt lat="-3.0894170" lon="37.3731010">
    <ele>4998.1</ele>
    <time>2026-06-22T23:36:15Z</time>
   </trkpt>
   <trkpt lat="-3.0894170" lon="37.3731010">
    <ele>4998.1</ele>
    <time>2026-06-22T23:36:16Z</time>
   </trkpt>
   <trkpt lat="-3.0894170" lon="37.3731010">
    <ele>4998.1</ele>
    <time>2026-06-22T23:36:17Z</time>
   </trkpt>
   <trkpt lat="-3.0894170" lon="37.3731020">
    <ele>4998.1</ele>
    <time>2026-06-22T23:36:18Z</time>
   </trkpt>
   <trkpt lat="-3.0894170" lon="37.3731020">
    <ele>4998.1</ele>
    <time>2026-06-22T23:36:19Z</time>
   </trkpt>
   <trkpt lat="-3.0894170" lon="37.3731020">
    <ele>4998.1</ele>
    <time>2026-06-22T23:36:20Z</time>
   </trkpt>
   <trkpt lat="-3.0894170" lon="37.3731020">
    <ele>4998.1</ele>
    <time>2026-06-22T23:36:21Z</time>
   </trkpt>
   <trkpt lat="-3.0894170" lon="37.3731020">
    <ele>4998.1</ele>
    <time>2026-06-22T23:36:22Z</time>
   </trkpt>
   <trkpt lat="-3.0894170" lon="37.3731020">
    <ele>4998.1</ele>
    <time>2026-06-22T23:36:23Z</time>
   </trkpt>
   <trkpt lat="-3.0894170" lon="37.3731020">
    <ele>4998.1</ele>
    <time>2026-06-22T23:36:24Z</time>
   </trkpt>
   <trkpt lat="-3.0894170" lon="37.3731020">
    <ele>4998.1</ele>
    <time>2026-06-22T23:36:25Z</time>
   </trkpt>
   <trkpt lat="-3.0894160" lon="37.3731020">
    <ele>4998.2</ele>
    <time>2026-06-22T23:36:26Z</time>
   </trkpt>
   <trkpt lat="-3.0894170" lon="37.3731020">
    <ele>4998.2</ele>
    <time>2026-06-22T23:36:27Z</time>
   </trkpt>
   <trkpt lat="-3.0894160" lon="37.3731020">
    <ele>4998.2</ele>
    <time>2026-06-22T23:36:28Z</time>
   </trkpt>
   <trkpt lat="-3.0894170" lon="37.3731020">
    <ele>4998.2</ele>
    <time>2026-06-22T23:36:29Z</time>
   </trkpt>
   <trkpt lat="-3.0894160" lon="37.3731030">
    <ele>4998.2</ele>
    <time>2026-06-22T23:36:30Z</time>
   </trkpt>
   <trkpt lat="-3.0894160" lon="37.3731030">
    <ele>4998.2</ele>
    <time>2026-06-22T23:36:31Z</time>
   </trkpt>
   <trkpt lat="-3.0894160" lon="37.3731020">
    <ele>4998.3</ele>
    <time>2026-06-22T23:36:32Z</time>
   </trkpt>
   <trkpt lat="-3.0894160" lon="37.3731020">
    <ele>4998.3</ele>
    <time>2026-06-22T23:36:33Z</time>
   </trkpt>
   <trkpt lat="-3.0894170" lon="37.3731020">
    <ele>4998.3</ele>
    <time>2026-06-22T23:36:34Z</time>
   </trkpt>
   <trkpt lat="-3.0894170" lon="37.3731020">
    <ele>4998.3</ele>
    <time>2026-06-22T23:36:35Z</time>
   </trkpt>
   <trkpt lat="-3.0894170" lon="37.3731020">
    <ele>4998.3</ele>
    <time>2026-06-22T23:36:36Z</time>
   </trkpt>
   <trkpt lat="-3.0894170" lon="37.3731020">
    <ele>4998.3</ele>
    <time>2026-06-22T23:36:37Z</time>
   </trkpt>
   <trkpt lat="-3.0894170" lon="37.3731020">
    <ele>4998.3</ele>
    <time>2026-06-22T23:36:38Z</time>
   </trkpt>
   <trkpt lat="-3.0894170" lon="37.3731020">
    <ele>4998.3</ele>
    <time>2026-06-22T23:36:39Z</time>
   </trkpt>
   <trkpt lat="-3.0894170" lon="37.3731020">
    <ele>4998.3</ele>
    <time>2026-06-22T23:36:40Z</time>
   </trkpt>
   <trkpt lat="-3.0894170" lon="37.3731020">
    <ele>4998.3</ele>
    <time>2026-06-22T23:36:41Z</time>
   </trkpt>
   <trkpt lat="-3.0894170" lon="37.3731020">
    <ele>4998.3</ele>
    <time>2026-06-22T23:36:42Z</time>
   </trkpt>
   <trkpt lat="-3.0894170" lon="37.3731020">
    <ele>4998.3</ele>
    <time>2026-06-22T23:36:43Z</time>
   </trkpt>
   <trkpt lat="-3.0894190" lon="37.3730990">
    <ele>4998.4</ele>
    <time>2026-06-22T23:36:44Z</time>
   </trkpt>
   <trkpt lat="-3.0894190" lon="37.3730990">
    <ele>4998.4</ele>
    <time>2026-06-22T23:36:45Z</time>
   </trkpt>
   <trkpt lat="-3.0894190" lon="37.3730990">
    <ele>4998.4</ele>
    <time>2026-06-22T23:36:46Z</time>
   </trkpt>
   <trkpt lat="-3.0894190" lon="37.3730990">
    <ele>4998.4</ele>
    <time>2026-06-22T23:36:47Z</time>
   </trkpt>
   <trkpt lat="-3.0894180" lon="37.3730980">
    <ele>4998.4</ele>
    <time>2026-06-22T23:36:48Z</time>
   </trkpt>
   <trkpt lat="-3.0894170" lon="37.3730980">
    <ele>4998.4</ele>
    <time>2026-06-22T23:36:49Z</time>
   </trkpt>
   <trkpt lat="-3.0894170" lon="37.3730980">
    <ele>4998.4</ele>
    <time>2026-06-22T23:36:50Z</time>
   </trkpt>
   <trkpt lat="-3.0894170" lon="37.3730980">
    <ele>4998.4</ele>
    <time>2026-06-22T23:36:51Z</time>
   </trkpt>
   <trkpt lat="-3.0894170" lon="37.3730980">
    <ele>4998.4</ele>
    <time>2026-06-22T23:36:52Z</time>
   </trkpt>
   <trkpt lat="-3.0894170" lon="37.3730970">
    <ele>4998.4</ele>
    <time>2026-06-22T23:36:53Z</time>
   </trkpt>
   <trkpt lat="-3.0894170" lon="37.3730970">
    <ele>4998.4</ele>
    <time>2026-06-22T23:36:54Z</time>
   </trkpt>
   <trkpt lat="-3.0894170" lon="37.3730970">
    <ele>4998.4</ele>
    <time>2026-06-22T23:36:55Z</time>
   </trkpt>
   <trkpt lat="-3.0894160" lon="37.3730970">
    <ele>4998.5</ele>
    <time>2026-06-22T23:36:56Z</time>
   </trkpt>
   <trkpt lat="-3.0894170" lon="37.3730990">
    <ele>4998.5</ele>
    <time>2026-06-22T23:36:57Z</time>
   </trkpt>
   <trkpt lat="-3.0894170" lon="37.3730990">
    <ele>4998.5</ele>
    <time>2026-06-22T23:36:58Z</time>
   </trkpt>
   <trkpt lat="-3.0894170" lon="37.3730980">
    <ele>4998.5</ele>
    <time>2026-06-22T23:36:59Z</time>
   </trkpt>
   <trkpt lat="-3.0894170" lon="37.3730970">
    <ele>4998.6</ele>
    <time>2026-06-22T23:37:00Z</time>
   </trkpt>
   <trkpt lat="-3.0894160" lon="37.3730960">
    <ele>4998.6</ele>
    <time>2026-06-22T23:37:01Z</time>
   </trkpt>
   <trkpt lat="-3.0894160" lon="37.3730960">
    <ele>4998.6</ele>
    <time>2026-06-22T23:37:02Z</time>
   </trkpt>
   <trkpt lat="-3.0894160" lon="37.3730970">
    <ele>4998.6</ele>
    <time>2026-06-22T23:37:03Z</time>
   </trkpt>
   <trkpt lat="-3.0894160" lon="37.3730970">
    <ele>4998.6</ele>
    <time>2026-06-22T23:37:04Z</time>
   </trkpt>
   <trkpt lat="-3.0894170" lon="37.3730980">
    <ele>4998.6</ele>
    <time>2026-06-22T23:37:05Z</time>
   </trkpt>
   <trkpt lat="-3.0894170" lon="37.3730980">
    <ele>4998.6</ele>
    <time>2026-06-22T23:37:06Z</time>
   </trkpt>
   <trkpt lat="-3.0894160" lon="37.3730980">
    <ele>4998.7</ele>
    <time>2026-06-22T23:37:07Z</time>
   </trkpt>
   <trkpt lat="-3.0894160" lon="37.3730980">
    <ele>4998.7</ele>
    <time>2026-06-22T23:37:08Z</time>
   </trkpt>
   <trkpt lat="-3.0894160" lon="37.3730980">
    <ele>4998.7</ele>
    <time>2026-06-22T23:37:09Z</time>
   </trkpt>
   <trkpt lat="-3.0894170" lon="37.3730970">
    <ele>4998.7</ele>
    <time>2026-06-22T23:37:10Z</time>
   </trkpt>
   <trkpt lat="-3.0894170" lon="37.3730970">
    <ele>4998.7</ele>
    <time>2026-06-22T23:37:11Z</time>
   </trkpt>
   <trkpt lat="-3.0894170" lon="37.3730960">
    <ele>4998.7</ele>
    <time>2026-06-22T23:37:12Z</time>
   </trkpt>
   <trkpt lat="-3.0894160" lon="37.3730940">
    <ele>4998.8</ele>
    <time>2026-06-22T23:37:13Z</time>
   </trkpt>
   <trkpt lat="-3.0894170" lon="37.3730930">
    <ele>4998.8</ele>
    <time>2026-06-22T23:37:14Z</time>
   </trkpt>
   <trkpt lat="-3.0894180" lon="37.3730930">
    <ele>4998.8</ele>
    <time>2026-06-22T23:37:15Z</time>
   </trkpt>
   <trkpt lat="-3.0894190" lon="37.3730920">
    <ele>4998.8</ele>
    <time>2026-06-22T23:37:16Z</time>
   </trkpt>
   <trkpt lat="-3.0894180" lon="37.3730910">
    <ele>4998.9</ele>
    <time>2026-06-22T23:37:17Z</time>
   </trkpt>
   <trkpt lat="-3.0894180" lon="37.3730910">
    <ele>4998.9</ele>
    <time>2026-06-22T23:37:18Z</time>
   </trkpt>
   <trkpt lat="-3.0894180" lon="37.3730910">
    <ele>4998.9</ele>
    <time>2026-06-22T23:37:19Z</time>
   </trkpt>
   <trkpt lat="-3.0894170" lon="37.3730920">
    <ele>4998.9</ele>
    <time>2026-06-22T23:37:20Z</time>
   </trkpt>
   <trkpt lat="-3.0894170" lon="37.3730920">
    <ele>4998.9</ele>
    <time>2026-06-22T23:37:21Z</time>
   </trkpt>
   <trkpt lat="-3.0894170" lon="37.3730920">
    <ele>4998.9</ele>
    <time>2026-06-22T23:37:22Z</time>
   </trkpt>
   <trkpt lat="-3.0894160" lon="37.3730940">
    <ele>4998.9</ele>
    <time>2026-06-22T23:37:23Z</time>
   </trkpt>
   <trkpt lat="-3.0894140" lon="37.3730930">
    <ele>4999.0</ele>
    <time>2026-06-22T23:37:24Z</time>
   </trkpt>
   <trkpt lat="-3.0894130" lon="37.3730930">
    <ele>4999.0</ele>
    <time>2026-06-22T23:37:25Z</time>
   </trkpt>
   <trkpt lat="-3.0894110" lon="37.3730920">
    <ele>4999.1</ele>
    <time>2026-06-22T23:37:26Z</time>
   </trkpt>
   <trkpt lat="-3.0894110" lon="37.3730930">
    <ele>4999.1</ele>
    <time>2026-06-22T23:37:27Z</time>
   </trkpt>
   <trkpt lat="-3.0894130" lon="37.3730920">
    <ele>4999.1</ele>
    <time>2026-06-22T23:37:28Z</time>
   </trkpt>
   <trkpt lat="-3.0894120" lon="37.3730940">
    <ele>4999.2</ele>
    <time>2026-06-22T23:37:29Z</time>
   </trkpt>
   <trkpt lat="-3.0894120" lon="37.3730940">
    <ele>4999.2</ele>
    <time>2026-06-22T23:37:30Z</time>
   </trkpt>
   <trkpt lat="-3.0894130" lon="37.3730960">
    <ele>4999.2</ele>
    <time>2026-06-22T23:37:31Z</time>
   </trkpt>
   <trkpt lat="-3.0894140" lon="37.3730960">
    <ele>4999.2</ele>
    <time>2026-06-22T23:37:32Z</time>
   </trkpt>
   <trkpt lat="-3.0894110" lon="37.3730970">
    <ele>4999.3</ele>
    <time>2026-06-22T23:37:33Z</time>
   </trkpt>
   <trkpt lat="-3.0894100" lon="37.3730980">
    <ele>4999.3</ele>
    <time>2026-06-22T23:37:34Z</time>
   </trkpt>
   <trkpt lat="-3.0894100" lon="37.3730980">
    <ele>4999.3</ele>
    <time>2026-06-22T23:37:35Z</time>
   </trkpt>
   <trkpt lat="-3.0894100" lon="37.3730960">
    <ele>4999.4</ele>
    <time>2026-06-22T23:37:36Z</time>
   </trkpt>
   <trkpt lat="-3.0894100" lon="37.3730960">
    <ele>4999.4</ele>
    <time>2026-06-22T23:37:37Z</time>
   </trkpt>
   <trkpt lat="-3.0894130" lon="37.3730960">
    <ele>4999.5</ele>
    <time>2026-06-22T23:37:38Z</time>
   </trkpt>
   <trkpt lat="-3.0894120" lon="37.3730960">
    <ele>4999.5</ele>
    <time>2026-06-22T23:37:39Z</time>
   </trkpt>
   <trkpt lat="-3.0894130" lon="37.3730970">
    <ele>4999.5</ele>
    <time>2026-06-22T23:37:40Z</time>
   </trkpt>
   <trkpt lat="-3.0894120" lon="37.3730960">
    <ele>4999.5</ele>
    <time>2026-06-22T23:37:41Z</time>
   </trkpt>
   <trkpt lat="-3.0894090" lon="37.3730980">
    <ele>4999.6</ele>
    <time>2026-06-22T23:37:42Z</time>
   </trkpt>
   <trkpt lat="-3.0894080" lon="37.3730960">
    <ele>4999.7</ele>
    <time>2026-06-22T23:37:43Z</time>
   </trkpt>
   <trkpt lat="-3.0894060" lon="37.3730950">
    <ele>4999.7</ele>
    <time>2026-06-22T23:37:44Z</time>
   </trkpt>
   <trkpt lat="-3.0894070" lon="37.3730950">
    <ele>4999.7</ele>
    <time>2026-06-22T23:37:45Z</time>
   </trkpt>
   <trkpt lat="-3.0894070" lon="37.3730950">
    <ele>4999.7</ele>
    <time>2026-06-22T23:37:46Z</time>
   </trkpt>
   <trkpt lat="-3.0894070" lon="37.3730940">
    <ele>4999.8</ele>
    <time>2026-06-22T23:37:47Z</time>
   </trkpt>
   <trkpt lat="-3.0894070" lon="37.3730950">
    <ele>4999.8</ele>
    <time>2026-06-22T23:37:48Z</time>
   </trkpt>
   <trkpt lat="-3.0894080" lon="37.3730950">
    <ele>4999.8</ele>
    <time>2026-06-22T23:37:49Z</time>
   </trkpt>
   <trkpt lat="-3.0894080" lon="37.3730950">
    <ele>4999.8</ele>
    <time>2026-06-22T23:37:50Z</time>
   </trkpt>
   <trkpt lat="-3.0894080" lon="37.3730960">
    <ele>4999.8</ele>
    <time>2026-06-22T23:37:51Z</time>
   </trkpt>
   <trkpt lat="-3.0894090" lon="37.3730960">
    <ele>4999.8</ele>
    <time>2026-06-22T23:37:52Z</time>
   </trkpt>
   <trkpt lat="-3.0894090" lon="37.3730970">
    <ele>4999.9</ele>
    <time>2026-06-22T23:37:53Z</time>
   </trkpt>
   <trkpt lat="-3.0894100" lon="37.3730970">
    <ele>4999.9</ele>
    <time>2026-06-22T23:37:54Z</time>
   </trkpt>
   <trkpt lat="-3.0894100" lon="37.3730980">
    <ele>4999.9</ele>
    <time>2026-06-22T23:37:55Z</time>
   </trkpt>
   <trkpt lat="-3.0894090" lon="37.3731010">
    <ele>5000.0</ele>
    <time>2026-06-22T23:37:56Z</time>
   </trkpt>
   <trkpt lat="-3.0894090" lon="37.3731010">
    <ele>5000.0</ele>
    <time>2026-06-22T23:37:57Z</time>
   </trkpt>
   <trkpt lat="-3.0894100" lon="37.3731010">
    <ele>5000.0</ele>
    <time>2026-06-22T23:37:58Z</time>
   </trkpt>
   <trkpt lat="-3.0894100" lon="37.3731010">
    <ele>5000.0</ele>
    <time>2026-06-22T23:37:59Z</time>
   </trkpt>
   <trkpt lat="-3.0894100" lon="37.3731020">
    <ele>5000.0</ele>
    <time>2026-06-22T23:38:00Z</time>
   </trkpt>
   <trkpt lat="-3.0894110" lon="37.3731020">
    <ele>5000.0</ele>
    <time>2026-06-22T23:38:01Z</time>
   </trkpt>
   <trkpt lat="-3.0894110" lon="37.3731020">
    <ele>5000.0</ele>
    <time>2026-06-22T23:38:02Z</time>
   </trkpt>
   <trkpt lat="-3.0894120" lon="37.3731020">
    <ele>5000.1</ele>
    <time>2026-06-22T23:38:03Z</time>
   </trkpt>
   <trkpt lat="-3.0894120" lon="37.3731020">
    <ele>5000.1</ele>
    <time>2026-06-22T23:38:04Z</time>
   </trkpt>
   <trkpt lat="-3.0894120" lon="37.3731020">
    <ele>5000.1</ele>
    <time>2026-06-22T23:38:05Z</time>
   </trkpt>
   <trkpt lat="-3.0894130" lon="37.3731040">
    <ele>5000.1</ele>
    <time>2026-06-22T23:38:06Z</time>
   </trkpt>
   <trkpt lat="-3.0894140" lon="37.3731030">
    <ele>5000.1</ele>
    <time>2026-06-22T23:38:07Z</time>
   </trkpt>
   <trkpt lat="-3.0894140" lon="37.3731030">
    <ele>5000.1</ele>
    <time>2026-06-22T23:38:08Z</time>
   </trkpt>
   <trkpt lat="-3.0894140" lon="37.3731020">
    <ele>5000.2</ele>
    <time>2026-06-22T23:38:09Z</time>
   </trkpt>
   <trkpt lat="-3.0894160" lon="37.3731030">
    <ele>5000.2</ele>
    <time>2026-06-22T23:38:10Z</time>
   </trkpt>
   <trkpt lat="-3.0894160" lon="37.3731020">
    <ele>5000.2</ele>
    <time>2026-06-22T23:38:11Z</time>
   </trkpt>
   <trkpt lat="-3.0894170" lon="37.3731030">
    <ele>5000.3</ele>
    <time>2026-06-22T23:38:12Z</time>
   </trkpt>
   <trkpt lat="-3.0894180" lon="37.3731020">
    <ele>5000.3</ele>
    <time>2026-06-22T23:38:13Z</time>
   </trkpt>
   <trkpt lat="-3.0894180" lon="37.3731020">
    <ele>5000.3</ele>
    <time>2026-06-22T23:38:14Z</time>
   </trkpt>
   <trkpt lat="-3.0894180" lon="37.3731020">
    <ele>5000.3</ele>
    <time>2026-06-22T23:38:15Z</time>
   </trkpt>
   <trkpt lat="-3.0894180" lon="37.3731010">
    <ele>5000.3</ele>
    <time>2026-06-22T23:38:16Z</time>
   </trkpt>
   <trkpt lat="-3.0894190" lon="37.3731020">
    <ele>5000.3</ele>
    <time>2026-06-22T23:38:17Z</time>
   </trkpt>
   <trkpt lat="-3.0894180" lon="37.3731010">
    <ele>5000.4</ele>
    <time>2026-06-22T23:38:18Z</time>
   </trkpt>
   <trkpt lat="-3.0894190" lon="37.3731010">
    <ele>5000.4</ele>
    <time>2026-06-22T23:38:19Z</time>
   </trkpt>
   <trkpt lat="-3.0894190" lon="37.3731010">
    <ele>5000.4</ele>
    <time>2026-06-22T23:38:20Z</time>
   </trkpt>
   <trkpt lat="-3.0894170" lon="37.3731030">
    <ele>5000.4</ele>
    <time>2026-06-22T23:38:21Z</time>
   </trkpt>
   <trkpt lat="-3.0894170" lon="37.3731030">
    <ele>5000.4</ele>
    <time>2026-06-22T23:38:22Z</time>
   </trkpt>
   <trkpt lat="-3.0894180" lon="37.3731050">
    <ele>5000.5</ele>
    <time>2026-06-22T23:38:23Z</time>
   </trkpt>
   <trkpt lat="-3.0894180" lon="37.3731050">
    <ele>5000.5</ele>
    <time>2026-06-22T23:38:24Z</time>
   </trkpt>
   <trkpt lat="-3.0894180" lon="37.3731040">
    <ele>5000.5</ele>
    <time>2026-06-22T23:38:25Z</time>
   </trkpt>
   <trkpt lat="-3.0894220" lon="37.3731030">
    <ele>5000.6</ele>
    <time>2026-06-22T23:38:26Z</time>
   </trkpt>
   <trkpt lat="-3.0894230" lon="37.3731020">
    <ele>5000.6</ele>
    <time>2026-06-22T23:38:27Z</time>
   </trkpt>
   <trkpt lat="-3.0894230" lon="37.3730980">
    <ele>5000.7</ele>
    <time>2026-06-22T23:38:28Z</time>
   </trkpt>
   <trkpt lat="-3.0894230" lon="37.3730980">
    <ele>5000.7</ele>
    <time>2026-06-22T23:38:29Z</time>
   </trkpt>
   <trkpt lat="-3.0894230" lon="37.3730980">
    <ele>5000.7</ele>
    <time>2026-06-22T23:38:30Z</time>
   </trkpt>
   <trkpt lat="-3.0894250" lon="37.3730960">
    <ele>5000.8</ele>
    <time>2026-06-22T23:38:31Z</time>
   </trkpt>
   <trkpt lat="-3.0894260" lon="37.3730930">
    <ele>5000.9</ele>
    <time>2026-06-22T23:38:32Z</time>
   </trkpt>
   <trkpt lat="-3.0894280" lon="37.3730930">
    <ele>5000.9</ele>
    <time>2026-06-22T23:38:33Z</time>
   </trkpt>
   <trkpt lat="-3.0894310" lon="37.3730920">
    <ele>5001.0</ele>
    <time>2026-06-22T23:38:34Z</time>
   </trkpt>
   <trkpt lat="-3.0894310" lon="37.3730870">
    <ele>5001.1</ele>
    <time>2026-06-22T23:38:35Z</time>
   </trkpt>
   <trkpt lat="-3.0894300" lon="37.3730850">
    <ele>5001.1</ele>
    <time>2026-06-22T23:38:36Z</time>
   </trkpt>
   <trkpt lat="-3.0894320" lon="37.3730830">
    <ele>5001.2</ele>
    <time>2026-06-22T23:38:37Z</time>
   </trkpt>
   <trkpt lat="-3.0894330" lon="37.3730820">
    <ele>5001.2</ele>
    <time>2026-06-22T23:38:38Z</time>
   </trkpt>
   <trkpt lat="-3.0894300" lon="37.3730810">
    <ele>5001.3</ele>
    <time>2026-06-22T23:38:39Z</time>
   </trkpt>
   <trkpt lat="-3.0894290" lon="37.3730790">
    <ele>5001.3</ele>
    <time>2026-06-22T23:38:40Z</time>
   </trkpt>
   <trkpt lat="-3.0894290" lon="37.3730800">
    <ele>5001.3</ele>
    <time>2026-06-22T23:38:41Z</time>
   </trkpt>
   <trkpt lat="-3.0894290" lon="37.3730790">
    <ele>5001.4</ele>
    <time>2026-06-22T23:38:42Z</time>
   </trkpt>
   <trkpt lat="-3.0894290" lon="37.3730780">
    <ele>5001.4</ele>
    <time>2026-06-22T23:38:43Z</time>
   </trkpt>
   <trkpt lat="-3.0894290" lon="37.3730780">
    <ele>5001.4</ele>
    <time>2026-06-22T23:38:44Z</time>
   </trkpt>
   <trkpt lat="-3.0894280" lon="37.3730770">
    <ele>5001.4</ele>
    <time>2026-06-22T23:38:45Z</time>
   </trkpt>
   <trkpt lat="-3.0894270" lon="37.3730760">
    <ele>5001.4</ele>
    <time>2026-06-22T23:38:46Z</time>
   </trkpt>
   <trkpt lat="-3.0894270" lon="37.3730750">
    <ele>5001.5</ele>
    <time>2026-06-22T23:38:47Z</time>
   </trkpt>
   <trkpt lat="-3.0894270" lon="37.3730740">
    <ele>5001.5</ele>
    <time>2026-06-22T23:38:48Z</time>
   </trkpt>
   <trkpt lat="-3.0894260" lon="37.3730740">
    <ele>5001.5</ele>
    <time>2026-06-22T23:38:49Z</time>
   </trkpt>
   <trkpt lat="-3.0894260" lon="37.3730740">
    <ele>5001.5</ele>
    <time>2026-06-22T23:38:50Z</time>
   </trkpt>
   <trkpt lat="-3.0894260" lon="37.3730740">
    <ele>5001.5</ele>
    <time>2026-06-22T23:38:51Z</time>
   </trkpt>
   <trkpt lat="-3.0894260" lon="37.3730740">
    <ele>5001.5</ele>
    <time>2026-06-22T23:38:52Z</time>
   </trkpt>
   <trkpt lat="-3.0894240" lon="37.3730740">
    <ele>5001.6</ele>
    <time>2026-06-22T23:38:53Z</time>
   </trkpt>
   <trkpt lat="-3.0894240" lon="37.3730750">
    <ele>5001.6</ele>
    <time>2026-06-22T23:38:54Z</time>
   </trkpt>
   <trkpt lat="-3.0894240" lon="37.3730740">
    <ele>5001.6</ele>
    <time>2026-06-22T23:38:55Z</time>
   </trkpt>
   <trkpt lat="-3.0894240" lon="37.3730750">
    <ele>5001.6</ele>
    <time>2026-06-22T23:38:56Z</time>
   </trkpt>
   <trkpt lat="-3.0894240" lon="37.3730750">
    <ele>5001.6</ele>
    <time>2026-06-22T23:38:57Z</time>
   </trkpt>
   <trkpt lat="-3.0894230" lon="37.3730750">
    <ele>5001.6</ele>
    <time>2026-06-22T23:38:58Z</time>
   </trkpt>
   <trkpt lat="-3.0894230" lon="37.3730750">
    <ele>5001.6</ele>
    <time>2026-06-22T23:38:59Z</time>
   </trkpt>
   <trkpt lat="-3.0894230" lon="37.3730750">
    <ele>5001.6</ele>
    <time>2026-06-22T23:39:00Z</time>
   </trkpt>
   <trkpt lat="-3.0894230" lon="37.3730760">
    <ele>5001.7</ele>
    <time>2026-06-22T23:39:01Z</time>
   </trkpt>
   <trkpt lat="-3.0894220" lon="37.3730760">
    <ele>5001.7</ele>
    <time>2026-06-22T23:39:02Z</time>
   </trkpt>
   <trkpt lat="-3.0894220" lon="37.3730760">
    <ele>5001.7</ele>
    <time>2026-06-22T23:39:03Z</time>
   </trkpt>
   <trkpt lat="-3.0894220" lon="37.3730760">
    <ele>5001.7</ele>
    <time>2026-06-22T23:39:04Z</time>
   </trkpt>
   <trkpt lat="-3.0894220" lon="37.3730760">
    <ele>5001.7</ele>
    <time>2026-06-22T23:39:05Z</time>
   </trkpt>
   <trkpt lat="-3.0894220" lon="37.3730760">
    <ele>5001.7</ele>
    <time>2026-06-22T23:39:06Z</time>
   </trkpt>
   <trkpt lat="-3.0894220" lon="37.3730770">
    <ele>5001.7</ele>
    <time>2026-06-22T23:39:07Z</time>
   </trkpt>
   <trkpt lat="-3.0894210" lon="37.3730770">
    <ele>5001.7</ele>
    <time>2026-06-22T23:39:08Z</time>
   </trkpt>
   <trkpt lat="-3.0894210" lon="37.3730770">
    <ele>5001.7</ele>
    <time>2026-06-22T23:39:09Z</time>
   </trkpt>
   <trkpt lat="-3.0894200" lon="37.3730760">
    <ele>5001.8</ele>
    <time>2026-06-22T23:39:10Z</time>
   </trkpt>
   <trkpt lat="-3.0894200" lon="37.3730730">
    <ele>5001.8</ele>
    <time>2026-06-22T23:39:11Z</time>
   </trkpt>
   <trkpt lat="-3.0894200" lon="37.3730740">
    <ele>5001.8</ele>
    <time>2026-06-22T23:39:12Z</time>
   </trkpt>
   <trkpt lat="-3.0894180" lon="37.3730740">
    <ele>5001.9</ele>
    <time>2026-06-22T23:39:13Z</time>
   </trkpt>
   <trkpt lat="-3.0894180" lon="37.3730740">
    <ele>5001.9</ele>
    <time>2026-06-22T23:39:14Z</time>
   </trkpt>
   <trkpt lat="-3.0894180" lon="37.3730730">
    <ele>5001.9</ele>
    <time>2026-06-22T23:39:15Z</time>
   </trkpt>
   <trkpt lat="-3.0894160" lon="37.3730710">
    <ele>5002.0</ele>
    <time>2026-06-22T23:39:16Z</time>
   </trkpt>
   <trkpt lat="-3.0894140" lon="37.3730700">
    <ele>5002.0</ele>
    <time>2026-06-22T23:39:17Z</time>
   </trkpt>
   <trkpt lat="-3.0894110" lon="37.3730700">
    <ele>5002.1</ele>
    <time>2026-06-22T23:39:18Z</time>
   </trkpt>
   <trkpt lat="-3.0894080" lon="37.3730700">
    <ele>5002.1</ele>
    <time>2026-06-22T23:39:19Z</time>
   </trkpt>
   <trkpt lat="-3.0894060" lon="37.3730710">
    <ele>5002.2</ele>
    <time>2026-06-22T23:39:20Z</time>
   </trkpt>
   <trkpt lat="-3.0894030" lon="37.3730730">
    <ele>5002.3</ele>
    <time>2026-06-22T23:39:21Z</time>
   </trkpt>
   <trkpt lat="-3.0894020" lon="37.3730710">
    <ele>5002.3</ele>
    <time>2026-06-22T23:39:22Z</time>
   </trkpt>
   <trkpt lat="-3.0894000" lon="37.3730710">
    <ele>5002.4</ele>
    <time>2026-06-22T23:39:23Z</time>
   </trkpt>
   <trkpt lat="-3.0893970" lon="37.3730720">
    <ele>5002.4</ele>
    <time>2026-06-22T23:39:24Z</time>
   </trkpt>
   <trkpt lat="-3.0893950" lon="37.3730720">
    <ele>5002.5</ele>
    <time>2026-06-22T23:39:25Z</time>
   </trkpt>
   <trkpt lat="-3.0893930" lon="37.3730730">
    <ele>5002.5</ele>
    <time>2026-06-22T23:39:26Z</time>
   </trkpt>
   <trkpt lat="-3.0893910" lon="37.3730750">
    <ele>5002.6</ele>
    <time>2026-06-22T23:39:27Z</time>
   </trkpt>
   <trkpt lat="-3.0893900" lon="37.3730760">
    <ele>5002.6</ele>
    <time>2026-06-22T23:39:28Z</time>
   </trkpt>
   <trkpt lat="-3.0893860" lon="37.3730730">
    <ele>5002.7</ele>
    <time>2026-06-22T23:39:29Z</time>
   </trkpt>
   <trkpt lat="-3.0893830" lon="37.3730730">
    <ele>5002.8</ele>
    <time>2026-06-22T23:39:30Z</time>
   </trkpt>
   <trkpt lat="-3.0893800" lon="37.3730720">
    <ele>5002.8</ele>
    <time>2026-06-22T23:39:31Z</time>
   </trkpt>
   <trkpt lat="-3.0893770" lon="37.3730720">
    <ele>5002.9</ele>
    <time>2026-06-22T23:39:32Z</time>
   </trkpt>
   <trkpt lat="-3.0893750" lon="37.3730730">
    <ele>5003.0</ele>
    <time>2026-06-22T23:39:33Z</time>
   </trkpt>
   <trkpt lat="-3.0893730" lon="37.3730710">
    <ele>5003.0</ele>
    <time>2026-06-22T23:39:34Z</time>
   </trkpt>
   <trkpt lat="-3.0893680" lon="37.3730740">
    <ele>5003.1</ele>
    <time>2026-06-22T23:39:35Z</time>
   </trkpt>
   <trkpt lat="-3.0893670" lon="37.3730720">
    <ele>5003.2</ele>
    <time>2026-06-22T23:39:36Z</time>
   </trkpt>
   <trkpt lat="-3.0893640" lon="37.3730730">
    <ele>5003.3</ele>
    <time>2026-06-22T23:39:37Z</time>
   </trkpt>
   <trkpt lat="-3.0893630" lon="37.3730730">
    <ele>5003.3</ele>
    <time>2026-06-22T23:39:38Z</time>
   </trkpt>
   <trkpt lat="-3.0893590" lon="37.3730730">
    <ele>5003.4</ele>
    <time>2026-06-22T23:39:39Z</time>
   </trkpt>
   <trkpt lat="-3.0893560" lon="37.3730730">
    <ele>5003.4</ele>
    <time>2026-06-22T23:39:40Z</time>
   </trkpt>
   <trkpt lat="-3.0893540" lon="37.3730770">
    <ele>5003.5</ele>
    <time>2026-06-22T23:39:41Z</time>
   </trkpt>
   <trkpt lat="-3.0893530" lon="37.3730750">
    <ele>5003.6</ele>
    <time>2026-06-22T23:39:42Z</time>
   </trkpt>
   <trkpt lat="-3.0893510" lon="37.3730790">
    <ele>5003.7</ele>
    <time>2026-06-22T23:39:43Z</time>
   </trkpt>
   <trkpt lat="-3.0893480" lon="37.3730800">
    <ele>5003.7</ele>
    <time>2026-06-22T23:39:44Z</time>
   </trkpt>
   <trkpt lat="-3.0893450" lon="37.3730830">
    <ele>5003.8</ele>
    <time>2026-06-22T23:39:45Z</time>
   </trkpt>
   <trkpt lat="-3.0893440" lon="37.3730840">
    <ele>5003.9</ele>
    <time>2026-06-22T23:39:46Z</time>
   </trkpt>
   <trkpt lat="-3.0893420" lon="37.3730870">
    <ele>5003.9</ele>
    <time>2026-06-22T23:39:47Z</time>
   </trkpt>
   <trkpt lat="-3.0893400" lon="37.3730870">
    <ele>5004.0</ele>
    <time>2026-06-22T23:39:48Z</time>
   </trkpt>
   <trkpt lat="-3.0893370" lon="37.3730910">
    <ele>5004.1</ele>
    <time>2026-06-22T23:39:49Z</time>
   </trkpt>
   <trkpt lat="-3.0893350" lon="37.3730900">
    <ele>5004.1</ele>
    <time>2026-06-22T23:39:50Z</time>
   </trkpt>
   <trkpt lat="-3.0893320" lon="37.3730910">
    <ele>5004.2</ele>
    <time>2026-06-22T23:39:51Z</time>
   </trkpt>
   <trkpt lat="-3.0893280" lon="37.3730890">
    <ele>5004.3</ele>
    <time>2026-06-22T23:39:52Z</time>
   </trkpt>
   <trkpt lat="-3.0893250" lon="37.3730890">
    <ele>5004.4</ele>
    <time>2026-06-22T23:39:53Z</time>
   </trkpt>
   <trkpt lat="-3.0893260" lon="37.3730890">
    <ele>5004.4</ele>
    <time>2026-06-22T23:39:54Z</time>
   </trkpt>
   <trkpt lat="-3.0893240" lon="37.3730870">
    <ele>5004.4</ele>
    <time>2026-06-22T23:39:55Z</time>
   </trkpt>
   <trkpt lat="-3.0893240" lon="37.3730820">
    <ele>5004.6</ele>
    <time>2026-06-22T23:39:56Z</time>
   </trkpt>
   <trkpt lat="-3.0893240" lon="37.3730800">
    <ele>5004.6</ele>
    <time>2026-06-22T23:39:57Z</time>
   </trkpt>
   <trkpt lat="-3.0893240" lon="37.3730770">
    <ele>5004.7</ele>
    <time>2026-06-22T23:39:58Z</time>
   </trkpt>
   <trkpt lat="-3.0893250" lon="37.3730770">
    <ele>5004.7</ele>
    <time>2026-06-22T23:39:59Z</time>
   </trkpt>
   <trkpt lat="-3.0893250" lon="37.3730730">
    <ele>5004.8</ele>
    <time>2026-06-22T23:40:00Z</time>
   </trkpt>
   <trkpt lat="-3.0893270" lon="37.3730700">
    <ele>5004.8</ele>
    <time>2026-06-22T23:40:01Z</time>
   </trkpt>
   <trkpt lat="-3.0893270" lon="37.3730670">
    <ele>5004.9</ele>
    <time>2026-06-22T23:40:02Z</time>
   </trkpt>
   <trkpt lat="-3.0893280" lon="37.3730650">
    <ele>5005.0</ele>
    <time>2026-06-22T23:40:03Z</time>
   </trkpt>
   <trkpt lat="-3.0893270" lon="37.3730630">
    <ele>5005.0</ele>
    <time>2026-06-22T23:40:04Z</time>
   </trkpt>
   <trkpt lat="-3.0893290" lon="37.3730620">
    <ele>5005.1</ele>
    <time>2026-06-22T23:40:05Z</time>
   </trkpt>
   <trkpt lat="-3.0893280" lon="37.3730590">
    <ele>5005.1</ele>
    <time>2026-06-22T23:40:06Z</time>
   </trkpt>
   <trkpt lat="-3.0893280" lon="37.3730560">
    <ele>5005.2</ele>
    <time>2026-06-22T23:40:07Z</time>
   </trkpt>
   <trkpt lat="-3.0893280" lon="37.3730530">
    <ele>5005.2</ele>
    <time>2026-06-22T23:40:08Z</time>
   </trkpt>
   <trkpt lat="-3.0893290" lon="37.3730490">
    <ele>5005.3</ele>
    <time>2026-06-22T23:40:09Z</time>
   </trkpt>
   <trkpt lat="-3.0893280" lon="37.3730470">
    <ele>5005.4</ele>
    <time>2026-06-22T23:40:10Z</time>
   </trkpt>
   <trkpt lat="-3.0893290" lon="37.3730430">
    <ele>5005.5</ele>
    <time>2026-06-22T23:40:11Z</time>
   </trkpt>
   <trkpt lat="-3.0893280" lon="37.3730410">
    <ele>5005.5</ele>
    <time>2026-06-22T23:40:12Z</time>
   </trkpt>
   <trkpt lat="-3.0893270" lon="37.3730410">
    <ele>5005.5</ele>
    <time>2026-06-22T23:40:13Z</time>
   </trkpt>
   <trkpt lat="-3.0893240" lon="37.3730400">
    <ele>5005.6</ele>
    <time>2026-06-22T23:40:14Z</time>
   </trkpt>
   <trkpt lat="-3.0893210" lon="37.3730400">
    <ele>5005.7</ele>
    <time>2026-06-22T23:40:15Z</time>
   </trkpt>
   <trkpt lat="-3.0893190" lon="37.3730400">
    <ele>5005.7</ele>
    <time>2026-06-22T23:40:16Z</time>
   </trkpt>
   <trkpt lat="-3.0893180" lon="37.3730400">
    <ele>5005.7</ele>
    <time>2026-06-22T23:40:17Z</time>
   </trkpt>
   <trkpt lat="-3.0893160" lon="37.3730410">
    <ele>5005.8</ele>
    <time>2026-06-22T23:40:18Z</time>
   </trkpt>
   <trkpt lat="-3.0893130" lon="37.3730410">
    <ele>5005.9</ele>
    <time>2026-06-22T23:40:19Z</time>
   </trkpt>
   <trkpt lat="-3.0893120" lon="37.3730440">
    <ele>5005.9</ele>
    <time>2026-06-22T23:40:20Z</time>
   </trkpt>
   <trkpt lat="-3.0893100" lon="37.3730440">
    <ele>5006.0</ele>
    <time>2026-06-22T23:40:21Z</time>
   </trkpt>
   <trkpt lat="-3.0893080" lon="37.3730470">
    <ele>5006.0</ele>
    <time>2026-06-22T23:40:22Z</time>
   </trkpt>
   <trkpt lat="-3.0893060" lon="37.3730470">
    <ele>5006.1</ele>
    <time>2026-06-22T23:40:23Z</time>
   </trkpt>
   <trkpt lat="-3.0893040" lon="37.3730480">
    <ele>5006.1</ele>
    <time>2026-06-22T23:40:24Z</time>
   </trkpt>
   <trkpt lat="-3.0893030" lon="37.3730480">
    <ele>5006.2</ele>
    <time>2026-06-22T23:40:25Z</time>
   </trkpt>
   <trkpt lat="-3.0893000" lon="37.3730500">
    <ele>5006.2</ele>
    <time>2026-06-22T23:40:26Z</time>
   </trkpt>
   <trkpt lat="-3.0892990" lon="37.3730500">
    <ele>5006.2</ele>
    <time>2026-06-22T23:40:27Z</time>
   </trkpt>
   <trkpt lat="-3.0892970" lon="37.3730510">
    <ele>5006.3</ele>
    <time>2026-06-22T23:40:28Z</time>
   </trkpt>
   <trkpt lat="-3.0892970" lon="37.3730510">
    <ele>5006.3</ele>
    <time>2026-06-22T23:40:29Z</time>
   </trkpt>
   <trkpt lat="-3.0892930" lon="37.3730520">
    <ele>5006.4</ele>
    <time>2026-06-22T23:40:30Z</time>
   </trkpt>
   <trkpt lat="-3.0892900" lon="37.3730530">
    <ele>5006.5</ele>
    <time>2026-06-22T23:40:31Z</time>
   </trkpt>
   <trkpt lat="-3.0892890" lon="37.3730530">
    <ele>5006.5</ele>
    <time>2026-06-22T23:40:32Z</time>
   </trkpt>
   <trkpt lat="-3.0892860" lon="37.3730500">
    <ele>5006.6</ele>
    <time>2026-06-22T23:40:33Z</time>
   </trkpt>
   <trkpt lat="-3.0892850" lon="37.3730510">
    <ele>5006.6</ele>
    <time>2026-06-22T23:40:34Z</time>
   </trkpt>
   <trkpt lat="-3.0892850" lon="37.3730500">
    <ele>5006.6</ele>
    <time>2026-06-22T23:40:35Z</time>
   </trkpt>
   <trkpt lat="-3.0892840" lon="37.3730480">
    <ele>5006.7</ele>
    <time>2026-06-22T23:40:36Z</time>
   </trkpt>
   <trkpt lat="-3.0892800" lon="37.3730470">
    <ele>5006.8</ele>
    <time>2026-06-22T23:40:37Z</time>
   </trkpt>
   <trkpt lat="-3.0892810" lon="37.3730450">
    <ele>5006.8</ele>
    <time>2026-06-22T23:40:38Z</time>
   </trkpt>
   <trkpt lat="-3.0892790" lon="37.3730430">
    <ele>5006.9</ele>
    <time>2026-06-22T23:40:39Z</time>
   </trkpt>
   <trkpt lat="-3.0892790" lon="37.3730400">
    <ele>5006.9</ele>
    <time>2026-06-22T23:40:40Z</time>
   </trkpt>
   <trkpt lat="-3.0892790" lon="37.3730390">
    <ele>5006.9</ele>
    <time>2026-06-22T23:40:41Z</time>
   </trkpt>
   <trkpt lat="-3.0892780" lon="37.3730370">
    <ele>5007.0</ele>
    <time>2026-06-22T23:40:42Z</time>
   </trkpt>
   <trkpt lat="-3.0892770" lon="37.3730330">
    <ele>5007.1</ele>
    <time>2026-06-22T23:40:43Z</time>
   </trkpt>
   <trkpt lat="-3.0892760" lon="37.3730310">
    <ele>5007.1</ele>
    <time>2026-06-22T23:40:44Z</time>
   </trkpt>
   <trkpt lat="-3.0892760" lon="37.3730300">
    <ele>5007.2</ele>
    <time>2026-06-22T23:40:45Z</time>
   </trkpt>
   <trkpt lat="-3.0892750" lon="37.3730260">
    <ele>5007.2</ele>
    <time>2026-06-22T23:40:46Z</time>
   </trkpt>
   <trkpt lat="-3.0892750" lon="37.3730220">
    <ele>5007.3</ele>
    <time>2026-06-22T23:40:47Z</time>
   </trkpt>
   <trkpt lat="-3.0892740" lon="37.3730220">
    <ele>5007.3</ele>
    <time>2026-06-22T23:40:48Z</time>
   </trkpt>
   <trkpt lat="-3.0892750" lon="37.3730190">
    <ele>5007.4</ele>
    <time>2026-06-22T23:40:49Z</time>
   </trkpt>
   <trkpt lat="-3.0892750" lon="37.3730170">
    <ele>5007.5</ele>
    <time>2026-06-22T23:40:50Z</time>
   </trkpt>
   <trkpt lat="-3.0892740" lon="37.3730130">
    <ele>5007.5</ele>
    <time>2026-06-22T23:40:51Z</time>
   </trkpt>
   <trkpt lat="-3.0892740" lon="37.3730130">
    <ele>5007.5</ele>
    <time>2026-06-22T23:40:52Z</time>
   </trkpt>
   <trkpt lat="-3.0892760" lon="37.3730080">
    <ele>5007.7</ele>
    <time>2026-06-22T23:40:53Z</time>
   </trkpt>
   <trkpt lat="-3.0892750" lon="37.3730090">
    <ele>5007.7</ele>
    <time>2026-06-22T23:40:54Z</time>
   </trkpt>
   <trkpt lat="-3.0892750" lon="37.3730050">
    <ele>5007.8</ele>
    <time>2026-06-22T23:40:55Z</time>
   </trkpt>
   <trkpt lat="-3.0892740" lon="37.3730020">
    <ele>5007.8</ele>
    <time>2026-06-22T23:40:56Z</time>
   </trkpt>
   <trkpt lat="-3.0892740" lon="37.3730010">
    <ele>5007.9</ele>
    <time>2026-06-22T23:40:57Z</time>
   </trkpt>
   <trkpt lat="-3.0892730" lon="37.3729980">
    <ele>5007.9</ele>
    <time>2026-06-22T23:40:58Z</time>
   </trkpt>
   <trkpt lat="-3.0892720" lon="37.3729970">
    <ele>5008.0</ele>
    <time>2026-06-22T23:40:59Z</time>
   </trkpt>
   <trkpt lat="-3.0892700" lon="37.3729940">
    <ele>5008.0</ele>
    <time>2026-06-22T23:41:00Z</time>
   </trkpt>
   <trkpt lat="-3.0892680" lon="37.3729920">
    <ele>5008.1</ele>
    <time>2026-06-22T23:41:01Z</time>
   </trkpt>
   <trkpt lat="-3.0892680" lon="37.3729920">
    <ele>5008.1</ele>
    <time>2026-06-22T23:41:02Z</time>
   </trkpt>
   <trkpt lat="-3.0892650" lon="37.3729900">
    <ele>5008.2</ele>
    <time>2026-06-22T23:41:03Z</time>
   </trkpt>
   <trkpt lat="-3.0892640" lon="37.3729880">
    <ele>5008.2</ele>
    <time>2026-06-22T23:41:04Z</time>
   </trkpt>
   <trkpt lat="-3.0892620" lon="37.3729850">
    <ele>5008.3</ele>
    <time>2026-06-22T23:41:05Z</time>
   </trkpt>
   <trkpt lat="-3.0892610" lon="37.3729820">
    <ele>5008.4</ele>
    <time>2026-06-22T23:41:06Z</time>
   </trkpt>
   <trkpt lat="-3.0892590" lon="37.3729800">
    <ele>5008.4</ele>
    <time>2026-06-22T23:41:07Z</time>
   </trkpt>
   <trkpt lat="-3.0892580" lon="37.3729790">
    <ele>5008.5</ele>
    <time>2026-06-22T23:41:08Z</time>
   </trkpt>
   <trkpt lat="-3.0892560" lon="37.3729760">
    <ele>5008.5</ele>
    <time>2026-06-22T23:41:09Z</time>
   </trkpt>
   <trkpt lat="-3.0892540" lon="37.3729770">
    <ele>5008.6</ele>
    <time>2026-06-22T23:41:10Z</time>
   </trkpt>
   <trkpt lat="-3.0892520" lon="37.3729750">
    <ele>5008.6</ele>
    <time>2026-06-22T23:41:11Z</time>
   </trkpt>
   <trkpt lat="-3.0892490" lon="37.3729750">
    <ele>5008.7</ele>
    <time>2026-06-22T23:41:12Z</time>
   </trkpt>
   <trkpt lat="-3.0892470" lon="37.3729740">
    <ele>5008.8</ele>
    <time>2026-06-22T23:41:13Z</time>
   </trkpt>
   <trkpt lat="-3.0892450" lon="37.3729750">
    <ele>5008.8</ele>
    <time>2026-06-22T23:41:14Z</time>
   </trkpt>
   <trkpt lat="-3.0892430" lon="37.3729750">
    <ele>5008.9</ele>
    <time>2026-06-22T23:41:15Z</time>
   </trkpt>
   <trkpt lat="-3.0892420" lon="37.3729780">
    <ele>5008.9</ele>
    <time>2026-06-22T23:41:16Z</time>
   </trkpt>
   <trkpt lat="-3.0892390" lon="37.3729790">
    <ele>5009.0</ele>
    <time>2026-06-22T23:41:17Z</time>
   </trkpt>
   <trkpt lat="-3.0892370" lon="37.3729780">
    <ele>5009.0</ele>
    <time>2026-06-22T23:41:18Z</time>
   </trkpt>
   <trkpt lat="-3.0892340" lon="37.3729770">
    <ele>5009.1</ele>
    <time>2026-06-22T23:41:19Z</time>
   </trkpt>
   <trkpt lat="-3.0892320" lon="37.3729780">
    <ele>5009.2</ele>
    <time>2026-06-22T23:41:20Z</time>
   </trkpt>
   <trkpt lat="-3.0892300" lon="37.3729750">
    <ele>5009.2</ele>
    <time>2026-06-22T23:41:21Z</time>
   </trkpt>
   <trkpt lat="-3.0892290" lon="37.3729740">
    <ele>5009.3</ele>
    <time>2026-06-22T23:41:22Z</time>
   </trkpt>
   <trkpt lat="-3.0892270" lon="37.3729750">
    <ele>5009.3</ele>
    <time>2026-06-22T23:41:23Z</time>
   </trkpt>
   <trkpt lat="-3.0892250" lon="37.3729750">
    <ele>5009.3</ele>
    <time>2026-06-22T23:41:24Z</time>
   </trkpt>
   <trkpt lat="-3.0892220" lon="37.3729730">
    <ele>5009.4</ele>
    <time>2026-06-22T23:41:25Z</time>
   </trkpt>
   <trkpt lat="-3.0892200" lon="37.3729730">
    <ele>5009.5</ele>
    <time>2026-06-22T23:41:26Z</time>
   </trkpt>
   <trkpt lat="-3.0892190" lon="37.3729700">
    <ele>5009.5</ele>
    <time>2026-06-22T23:41:27Z</time>
   </trkpt>
   <trkpt lat="-3.0892180" lon="37.3729670">
    <ele>5009.6</ele>
    <time>2026-06-22T23:41:28Z</time>
   </trkpt>
   <trkpt lat="-3.0892180" lon="37.3729650">
    <ele>5009.6</ele>
    <time>2026-06-22T23:41:29Z</time>
   </trkpt>
   <trkpt lat="-3.0892190" lon="37.3729660">
    <ele>5009.7</ele>
    <time>2026-06-22T23:41:30Z</time>
   </trkpt>
   <trkpt lat="-3.0892200" lon="37.3729620">
    <ele>5009.8</ele>
    <time>2026-06-22T23:41:31Z</time>
   </trkpt>
   <trkpt lat="-3.0892190" lon="37.3729570">
    <ele>5009.9</ele>
    <time>2026-06-22T23:41:32Z</time>
   </trkpt>
   <trkpt lat="-3.0892200" lon="37.3729550">
    <ele>5009.9</ele>
    <time>2026-06-22T23:41:33Z</time>
   </trkpt>
   <trkpt lat="-3.0892200" lon="37.3729520">
    <ele>5010.0</ele>
    <time>2026-06-22T23:41:34Z</time>
   </trkpt>
   <trkpt lat="-3.0892210" lon="37.3729500">
    <ele>5010.0</ele>
    <time>2026-06-22T23:41:35Z</time>
   </trkpt>
   <trkpt lat="-3.0892200" lon="37.3729470">
    <ele>5010.1</ele>
    <time>2026-06-22T23:41:36Z</time>
   </trkpt>
   <trkpt lat="-3.0892190" lon="37.3729450">
    <ele>5010.2</ele>
    <time>2026-06-22T23:41:37Z</time>
   </trkpt>
   <trkpt lat="-3.0892180" lon="37.3729440">
    <ele>5010.2</ele>
    <time>2026-06-22T23:41:38Z</time>
   </trkpt>
   <trkpt lat="-3.0892160" lon="37.3729410">
    <ele>5010.3</ele>
    <time>2026-06-22T23:41:39Z</time>
   </trkpt>
   <trkpt lat="-3.0892150" lon="37.3729420">
    <ele>5010.3</ele>
    <time>2026-06-22T23:41:40Z</time>
   </trkpt>
   <trkpt lat="-3.0892110" lon="37.3729410">
    <ele>5010.4</ele>
    <time>2026-06-22T23:41:41Z</time>
   </trkpt>
   <trkpt lat="-3.0892090" lon="37.3729420">
    <ele>5010.4</ele>
    <time>2026-06-22T23:41:42Z</time>
   </trkpt>
   <trkpt lat="-3.0892080" lon="37.3729440">
    <ele>5010.5</ele>
    <time>2026-06-22T23:41:43Z</time>
   </trkpt>
   <trkpt lat="-3.0892060" lon="37.3729460">
    <ele>5010.5</ele>
    <time>2026-06-22T23:41:44Z</time>
   </trkpt>
   <trkpt lat="-3.0892040" lon="37.3729450">
    <ele>5010.6</ele>
    <time>2026-06-22T23:41:45Z</time>
   </trkpt>
   <trkpt lat="-3.0892010" lon="37.3729470">
    <ele>5010.7</ele>
    <time>2026-06-22T23:41:46Z</time>
   </trkpt>
   <trkpt lat="-3.0891990" lon="37.3729490">
    <ele>5010.7</ele>
    <time>2026-06-22T23:41:47Z</time>
   </trkpt>
   <trkpt lat="-3.0891950" lon="37.3729500">
    <ele>5010.8</ele>
    <time>2026-06-22T23:41:48Z</time>
   </trkpt>
   <trkpt lat="-3.0891930" lon="37.3729500">
    <ele>5010.9</ele>
    <time>2026-06-22T23:41:49Z</time>
   </trkpt>
   <trkpt lat="-3.0891930" lon="37.3729500">
    <ele>5010.9</ele>
    <time>2026-06-22T23:41:50Z</time>
   </trkpt>
   <trkpt lat="-3.0891910" lon="37.3729520">
    <ele>5010.9</ele>
    <time>2026-06-22T23:41:51Z</time>
   </trkpt>
   <trkpt lat="-3.0891900" lon="37.3729530">
    <ele>5010.9</ele>
    <time>2026-06-22T23:41:52Z</time>
   </trkpt>
   <trkpt lat="-3.0891890" lon="37.3729540">
    <ele>5011.0</ele>
    <time>2026-06-22T23:41:53Z</time>
   </trkpt>
   <trkpt lat="-3.0891890" lon="37.3729550">
    <ele>5011.0</ele>
    <time>2026-06-22T23:41:54Z</time>
   </trkpt>
   <trkpt lat="-3.0891870" lon="37.3729550">
    <ele>5011.0</ele>
    <time>2026-06-22T23:41:55Z</time>
   </trkpt>
   <trkpt lat="-3.0891880" lon="37.3729560">
    <ele>5011.1</ele>
    <time>2026-06-22T23:41:56Z</time>
   </trkpt>
   <trkpt lat="-3.0891880" lon="37.3729560">
    <ele>5011.1</ele>
    <time>2026-06-22T23:41:57Z</time>
   </trkpt>
   <trkpt lat="-3.0891880" lon="37.3729560">
    <ele>5011.1</ele>
    <time>2026-06-22T23:41:58Z</time>
   </trkpt>
   <trkpt lat="-3.0891880" lon="37.3729560">
    <ele>5011.1</ele>
    <time>2026-06-22T23:41:59Z</time>
   </trkpt>
   <trkpt lat="-3.0891880" lon="37.3729560">
    <ele>5011.1</ele>
    <time>2026-06-22T23:42:00Z</time>
   </trkpt>
   <trkpt lat="-3.0891880" lon="37.3729560">
    <ele>5011.1</ele>
    <time>2026-06-22T23:42:01Z</time>
   </trkpt>
   <trkpt lat="-3.0891880" lon="37.3729560">
    <ele>5011.1</ele>
    <time>2026-06-22T23:42:02Z</time>
   </trkpt>
   <trkpt lat="-3.0891890" lon="37.3729570">
    <ele>5011.1</ele>
    <time>2026-06-22T23:42:03Z</time>
   </trkpt>
   <trkpt lat="-3.0891880" lon="37.3729580">
    <ele>5011.1</ele>
    <time>2026-06-22T23:42:04Z</time>
   </trkpt>
   <trkpt lat="-3.0891880" lon="37.3729580">
    <ele>5011.1</ele>
    <time>2026-06-22T23:42:05Z</time>
   </trkpt>
   <trkpt lat="-3.0891880" lon="37.3729580">
    <ele>5011.1</ele>
    <time>2026-06-22T23:42:06Z</time>
   </trkpt>
   <trkpt lat="-3.0891850" lon="37.3729590">
    <ele>5011.2</ele>
    <time>2026-06-22T23:42:07Z</time>
   </trkpt>
   <trkpt lat="-3.0891830" lon="37.3729630">
    <ele>5011.3</ele>
    <time>2026-06-22T23:42:08Z</time>
   </trkpt>
   <trkpt lat="-3.0891800" lon="37.3729640">
    <ele>5011.4</ele>
    <time>2026-06-22T23:42:09Z</time>
   </trkpt>
   <trkpt lat="-3.0891810" lon="37.3729660">
    <ele>5011.4</ele>
    <time>2026-06-22T23:42:10Z</time>
   </trkpt>
   <trkpt lat="-3.0891770" lon="37.3729680">
    <ele>5011.5</ele>
    <time>2026-06-22T23:42:11Z</time>
   </trkpt>
   <trkpt lat="-3.0891760" lon="37.3729700">
    <ele>5011.5</ele>
    <time>2026-06-22T23:42:12Z</time>
   </trkpt>
   <trkpt lat="-3.0891730" lon="37.3729710">
    <ele>5011.6</ele>
    <time>2026-06-22T23:42:13Z</time>
   </trkpt>
   <trkpt lat="-3.0891710" lon="37.3729720">
    <ele>5011.7</ele>
    <time>2026-06-22T23:42:14Z</time>
   </trkpt>
   <trkpt lat="-3.0891690" lon="37.3729730">
    <ele>5011.7</ele>
    <time>2026-06-22T23:42:15Z</time>
   </trkpt>
   <trkpt lat="-3.0891660" lon="37.3729750">
    <ele>5011.8</ele>
    <time>2026-06-22T23:42:16Z</time>
   </trkpt>
   <trkpt lat="-3.0891630" lon="37.3729760">
    <ele>5011.9</ele>
    <time>2026-06-22T23:42:17Z</time>
   </trkpt>
   <trkpt lat="-3.0891600" lon="37.3729780">
    <ele>5011.9</ele>
    <time>2026-06-22T23:42:18Z</time>
   </trkpt>
   <trkpt lat="-3.0891570" lon="37.3729780">
    <ele>5012.0</ele>
    <time>2026-06-22T23:42:19Z</time>
   </trkpt>
   <trkpt lat="-3.0891550" lon="37.3729790">
    <ele>5012.1</ele>
    <time>2026-06-22T23:42:20Z</time>
   </trkpt>
   <trkpt lat="-3.0891530" lon="37.3729790">
    <ele>5012.1</ele>
    <time>2026-06-22T23:42:21Z</time>
   </trkpt>
   <trkpt lat="-3.0891520" lon="37.3729810">
    <ele>5012.1</ele>
    <time>2026-06-22T23:42:22Z</time>
   </trkpt>
   <trkpt lat="-3.0891500" lon="37.3729810">
    <ele>5012.2</ele>
    <time>2026-06-22T23:42:23Z</time>
   </trkpt>
   <trkpt lat="-3.0891480" lon="37.3729800">
    <ele>5012.2</ele>
    <time>2026-06-22T23:42:24Z</time>
   </trkpt>
   <trkpt lat="-3.0891470" lon="37.3729830">
    <ele>5012.3</ele>
    <time>2026-06-22T23:42:25Z</time>
   </trkpt>
   <trkpt lat="-3.0891450" lon="37.3729830">
    <ele>5012.4</ele>
    <time>2026-06-22T23:42:26Z</time>
   </trkpt>
   <trkpt lat="-3.0891410" lon="37.3729800">
    <ele>5012.5</ele>
    <time>2026-06-22T23:42:27Z</time>
   </trkpt>
   <trkpt lat="-3.0891380" lon="37.3729770">
    <ele>5012.6</ele>
    <time>2026-06-22T23:42:28Z</time>
   </trkpt>
   <trkpt lat="-3.0891350" lon="37.3729730">
    <ele>5012.7</ele>
    <time>2026-06-22T23:42:29Z</time>
   </trkpt>
   <trkpt lat="-3.0891330" lon="37.3729700">
    <ele>5012.8</ele>
    <time>2026-06-22T23:42:30Z</time>
   </trkpt>
   <trkpt lat="-3.0891320" lon="37.3729670">
    <ele>5012.8</ele>
    <time>2026-06-22T23:42:31Z</time>
   </trkpt>
   <trkpt lat="-3.0891330" lon="37.3729640">
    <ele>5012.9</ele>
    <time>2026-06-22T23:42:32Z</time>
   </trkpt>
   <trkpt lat="-3.0891320" lon="37.3729590">
    <ele>5013.0</ele>
    <time>2026-06-22T23:42:33Z</time>
   </trkpt>
   <trkpt lat="-3.0891310" lon="37.3729570">
    <ele>5013.1</ele>
    <time>2026-06-22T23:42:34Z</time>
   </trkpt>
   <trkpt lat="-3.0891320" lon="37.3729560">
    <ele>5013.1</ele>
    <time>2026-06-22T23:42:35Z</time>
   </trkpt>
   <trkpt lat="-3.0891310" lon="37.3729550">
    <ele>5013.1</ele>
    <time>2026-06-22T23:42:36Z</time>
   </trkpt>
   <trkpt lat="-3.0891330" lon="37.3729540">
    <ele>5013.2</ele>
    <time>2026-06-22T23:42:37Z</time>
   </trkpt>
   <trkpt lat="-3.0891330" lon="37.3729490">
    <ele>5013.3</ele>
    <time>2026-06-22T23:42:38Z</time>
   </trkpt>
   <trkpt lat="-3.0891340" lon="37.3729490">
    <ele>5013.3</ele>
    <time>2026-06-22T23:42:39Z</time>
   </trkpt>
   <trkpt lat="-3.0891340" lon="37.3729480">
    <ele>5013.3</ele>
    <time>2026-06-22T23:42:40Z</time>
   </trkpt>
   <trkpt lat="-3.0891360" lon="37.3729450">
    <ele>5013.4</ele>
    <time>2026-06-22T23:42:41Z</time>
   </trkpt>
   <trkpt lat="-3.0891340" lon="37.3729440">
    <ele>5013.5</ele>
    <time>2026-06-22T23:42:42Z</time>
   </trkpt>
   <trkpt lat="-3.0891340" lon="37.3729400">
    <ele>5013.6</ele>
    <time>2026-06-22T23:42:43Z</time>
   </trkpt>
   <trkpt lat="-3.0891330" lon="37.3729370">
    <ele>5013.6</ele>
    <time>2026-06-22T23:42:44Z</time>
   </trkpt>
   <trkpt lat="-3.0891330" lon="37.3729340">
    <ele>5013.7</ele>
    <time>2026-06-22T23:42:45Z</time>
   </trkpt>
   <trkpt lat="-3.0891310" lon="37.3729320">
    <ele>5013.8</ele>
    <time>2026-06-22T23:42:46Z</time>
   </trkpt>
   <trkpt lat="-3.0891320" lon="37.3729300">
    <ele>5013.8</ele>
    <time>2026-06-22T23:42:47Z</time>
   </trkpt>
   <trkpt lat="-3.0891320" lon="37.3729300">
    <ele>5013.8</ele>
    <time>2026-06-22T23:42:48Z</time>
   </trkpt>
   <trkpt lat="-3.0891320" lon="37.3729300">
    <ele>5013.8</ele>
    <time>2026-06-22T23:42:49Z</time>
   </trkpt>
   <trkpt lat="-3.0891310" lon="37.3729290">
    <ele>5013.8</ele>
    <time>2026-06-22T23:42:50Z</time>
   </trkpt>
   <trkpt lat="-3.0891300" lon="37.3729270">
    <ele>5013.9</ele>
    <time>2026-06-22T23:42:51Z</time>
   </trkpt>
   <trkpt lat="-3.0891280" lon="37.3729250">
    <ele>5013.9</ele>
    <time>2026-06-22T23:42:52Z</time>
   </trkpt>
   <trkpt lat="-3.0891270" lon="37.3729220">
    <ele>5014.0</ele>
    <time>2026-06-22T23:42:53Z</time>
   </trkpt>
   <trkpt lat="-3.0891260" lon="37.3729190">
    <ele>5014.1</ele>
    <time>2026-06-22T23:42:54Z</time>
   </trkpt>
   <trkpt lat="-3.0891240" lon="37.3729170">
    <ele>5014.1</ele>
    <time>2026-06-22T23:42:55Z</time>
   </trkpt>
   <trkpt lat="-3.0891230" lon="37.3729140">
    <ele>5014.2</ele>
    <time>2026-06-22T23:42:56Z</time>
   </trkpt>
   <trkpt lat="-3.0891230" lon="37.3729130">
    <ele>5014.2</ele>
    <time>2026-06-22T23:42:57Z</time>
   </trkpt>
   <trkpt lat="-3.0891220" lon="37.3729080">
    <ele>5014.4</ele>
    <time>2026-06-22T23:42:58Z</time>
   </trkpt>
   <trkpt lat="-3.0891230" lon="37.3729050">
    <ele>5014.4</ele>
    <time>2026-06-22T23:42:59Z</time>
   </trkpt>
   <trkpt lat="-3.0891230" lon="37.3729020">
    <ele>5014.5</ele>
    <time>2026-06-22T23:43:00Z</time>
   </trkpt>
   <trkpt lat="-3.0891230" lon="37.3728980">
    <ele>5014.6</ele>
    <time>2026-06-22T23:43:01Z</time>
   </trkpt>
   <trkpt lat="-3.0891230" lon="37.3728960">
    <ele>5014.6</ele>
    <time>2026-06-22T23:43:02Z</time>
   </trkpt>
   <trkpt lat="-3.0891250" lon="37.3728940">
    <ele>5014.7</ele>
    <time>2026-06-22T23:43:03Z</time>
   </trkpt>
   <trkpt lat="-3.0891250" lon="37.3728910">
    <ele>5014.8</ele>
    <time>2026-06-22T23:43:04Z</time>
   </trkpt>
   <trkpt lat="-3.0891250" lon="37.3728880">
    <ele>5014.8</ele>
    <time>2026-06-22T23:43:05Z</time>
   </trkpt>
   <trkpt lat="-3.0891260" lon="37.3728870">
    <ele>5014.9</ele>
    <time>2026-06-22T23:43:06Z</time>
   </trkpt>
   <trkpt lat="-3.0891270" lon="37.3728830">
    <ele>5014.9</ele>
    <time>2026-06-22T23:43:07Z</time>
   </trkpt>
   <trkpt lat="-3.0891300" lon="37.3728820">
    <ele>5015.0</ele>
    <time>2026-06-22T23:43:08Z</time>
   </trkpt>
   <trkpt lat="-3.0891320" lon="37.3728800">
    <ele>5015.1</ele>
    <time>2026-06-22T23:43:09Z</time>
   </trkpt>
   <trkpt lat="-3.0891310" lon="37.3728770">
    <ele>5015.2</ele>
    <time>2026-06-22T23:43:10Z</time>
   </trkpt>
   <trkpt lat="-3.0891320" lon="37.3728760">
    <ele>5015.2</ele>
    <time>2026-06-22T23:43:11Z</time>
   </trkpt>
   <trkpt lat="-3.0891330" lon="37.3728750">
    <ele>5015.2</ele>
    <time>2026-06-22T23:43:12Z</time>
   </trkpt>
   <trkpt lat="-3.0891330" lon="37.3728750">
    <ele>5015.2</ele>
    <time>2026-06-22T23:43:13Z</time>
   </trkpt>
   <trkpt lat="-3.0891320" lon="37.3728760">
    <ele>5015.2</ele>
    <time>2026-06-22T23:43:14Z</time>
   </trkpt>
   <trkpt lat="-3.0891300" lon="37.3728750">
    <ele>5015.3</ele>
    <time>2026-06-22T23:43:15Z</time>
   </trkpt>
   <trkpt lat="-3.0891280" lon="37.3728770">
    <ele>5015.4</ele>
    <time>2026-06-22T23:43:16Z</time>
   </trkpt>
   <trkpt lat="-3.0891260" lon="37.3728750">
    <ele>5015.4</ele>
    <time>2026-06-22T23:43:17Z</time>
   </trkpt>
   <trkpt lat="-3.0891230" lon="37.3728770">
    <ele>5015.5</ele>
    <time>2026-06-22T23:43:18Z</time>
   </trkpt>
   <trkpt lat="-3.0891200" lon="37.3728750">
    <ele>5015.6</ele>
    <time>2026-06-22T23:43:19Z</time>
   </trkpt>
   <trkpt lat="-3.0891170" lon="37.3728730">
    <ele>5015.7</ele>
    <time>2026-06-22T23:43:20Z</time>
   </trkpt>
   <trkpt lat="-3.0891160" lon="37.3728710">
    <ele>5015.7</ele>
    <time>2026-06-22T23:43:21Z</time>
   </trkpt>
   <trkpt lat="-3.0891140" lon="37.3728720">
    <ele>5015.8</ele>
    <time>2026-06-22T23:43:22Z</time>
   </trkpt>
   <trkpt lat="-3.0891130" lon="37.3728700">
    <ele>5015.8</ele>
    <time>2026-06-22T23:43:23Z</time>
   </trkpt>
   <trkpt lat="-3.0891110" lon="37.3728720">
    <ele>5015.9</ele>
    <time>2026-06-22T23:43:24Z</time>
   </trkpt>
   <trkpt lat="-3.0891090" lon="37.3728710">
    <ele>5015.9</ele>
    <time>2026-06-22T23:43:25Z</time>
   </trkpt>
   <trkpt lat="-3.0891100" lon="37.3728690">
    <ele>5016.0</ele>
    <time>2026-06-22T23:43:26Z</time>
   </trkpt>
   <trkpt lat="-3.0891070" lon="37.3728710">
    <ele>5016.1</ele>
    <time>2026-06-22T23:43:27Z</time>
   </trkpt>
   <trkpt lat="-3.0891040" lon="37.3728710">
    <ele>5016.1</ele>
    <time>2026-06-22T23:43:28Z</time>
   </trkpt>
   <trkpt lat="-3.0891000" lon="37.3728690">
    <ele>5016.2</ele>
    <time>2026-06-22T23:43:29Z</time>
   </trkpt>
   <trkpt lat="-3.0890990" lon="37.3728690">
    <ele>5016.3</ele>
    <time>2026-06-22T23:43:30Z</time>
   </trkpt>
   <trkpt lat="-3.0890970" lon="37.3728700">
    <ele>5016.3</ele>
    <time>2026-06-22T23:43:31Z</time>
   </trkpt>
   <trkpt lat="-3.0890930" lon="37.3728760">
    <ele>5016.5</ele>
    <time>2026-06-22T23:43:32Z</time>
   </trkpt>
   <trkpt lat="-3.0890950" lon="37.3728830">
    <ele>5016.7</ele>
    <time>2026-06-22T23:43:33Z</time>
   </trkpt>
   <trkpt lat="-3.0890900" lon="37.3728770">
    <ele>5016.8</ele>
    <time>2026-06-22T23:43:34Z</time>
   </trkpt>
   <trkpt lat="-3.0890870" lon="37.3728750">
    <ele>5016.9</ele>
    <time>2026-06-22T23:43:35Z</time>
   </trkpt>
   <trkpt lat="-3.0890850" lon="37.3728760">
    <ele>5017.0</ele>
    <time>2026-06-22T23:43:36Z</time>
   </trkpt>
   <trkpt lat="-3.0890830" lon="37.3728750">
    <ele>5017.0</ele>
    <time>2026-06-22T23:43:37Z</time>
   </trkpt>
   <trkpt lat="-3.0890800" lon="37.3728740">
    <ele>5017.1</ele>
    <time>2026-06-22T23:43:38Z</time>
   </trkpt>
   <trkpt lat="-3.0890780" lon="37.3728710">
    <ele>5017.2</ele>
    <time>2026-06-22T23:43:39Z</time>
   </trkpt>
   <trkpt lat="-3.0890770" lon="37.3728690">
    <ele>5017.2</ele>
    <time>2026-06-22T23:43:40Z</time>
   </trkpt>
   <trkpt lat="-3.0890750" lon="37.3728670">
    <ele>5017.3</ele>
    <time>2026-06-22T23:43:41Z</time>
   </trkpt>
   <trkpt lat="-3.0890720" lon="37.3728640">
    <ele>5017.4</ele>
    <time>2026-06-22T23:43:42Z</time>
   </trkpt>
   <trkpt lat="-3.0890680" lon="37.3728640">
    <ele>5017.5</ele>
    <time>2026-06-22T23:43:43Z</time>
   </trkpt>
   <trkpt lat="-3.0890670" lon="37.3728630">
    <ele>5017.5</ele>
    <time>2026-06-22T23:43:44Z</time>
   </trkpt>
   <trkpt lat="-3.0890640" lon="37.3728640">
    <ele>5017.6</ele>
    <time>2026-06-22T23:43:45Z</time>
   </trkpt>
   <trkpt lat="-3.0890630" lon="37.3728620">
    <ele>5017.6</ele>
    <time>2026-06-22T23:43:46Z</time>
   </trkpt>
   <trkpt lat="-3.0890600" lon="37.3728650">
    <ele>5017.7</ele>
    <time>2026-06-22T23:43:47Z</time>
   </trkpt>
   <trkpt lat="-3.0890580" lon="37.3728660">
    <ele>5017.8</ele>
    <time>2026-06-22T23:43:48Z</time>
   </trkpt>
   <trkpt lat="-3.0890560" lon="37.3728700">
    <ele>5017.9</ele>
    <time>2026-06-22T23:43:49Z</time>
   </trkpt>
   <trkpt lat="-3.0890540" lon="37.3728720">
    <ele>5018.0</ele>
    <time>2026-06-22T23:43:50Z</time>
   </trkpt>
   <trkpt lat="-3.0890520" lon="37.3728730">
    <ele>5018.0</ele>
    <time>2026-06-22T23:43:51Z</time>
   </trkpt>
   <trkpt lat="-3.0890520" lon="37.3728760">
    <ele>5018.1</ele>
    <time>2026-06-22T23:43:52Z</time>
   </trkpt>
   <trkpt lat="-3.0890480" lon="37.3728780">
    <ele>5018.2</ele>
    <time>2026-06-22T23:43:53Z</time>
   </trkpt>
   <trkpt lat="-3.0890460" lon="37.3728800">
    <ele>5018.2</ele>
    <time>2026-06-22T23:43:54Z</time>
   </trkpt>
   <trkpt lat="-3.0890430" lon="37.3728810">
    <ele>5018.3</ele>
    <time>2026-06-22T23:43:55Z</time>
   </trkpt>
   <trkpt lat="-3.0890420" lon="37.3728820">
    <ele>5018.4</ele>
    <time>2026-06-22T23:43:56Z</time>
   </trkpt>
   <trkpt lat="-3.0890410" lon="37.3728830">
    <ele>5018.4</ele>
    <time>2026-06-22T23:43:57Z</time>
   </trkpt>
   <trkpt lat="-3.0890380" lon="37.3728870">
    <ele>5018.5</ele>
    <time>2026-06-22T23:43:58Z</time>
   </trkpt>
   <trkpt lat="-3.0890350" lon="37.3728890">
    <ele>5018.6</ele>
    <time>2026-06-22T23:43:59Z</time>
   </trkpt>
   <trkpt lat="-3.0890320" lon="37.3728880">
    <ele>5018.7</ele>
    <time>2026-06-22T23:44:00Z</time>
   </trkpt>
   <trkpt lat="-3.0890290" lon="37.3728870">
    <ele>5018.7</ele>
    <time>2026-06-22T23:44:01Z</time>
   </trkpt>
   <trkpt lat="-3.0890280" lon="37.3728870">
    <ele>5018.8</ele>
    <time>2026-06-22T23:44:02Z</time>
   </trkpt>
   <trkpt lat="-3.0890280" lon="37.3728850">
    <ele>5018.8</ele>
    <time>2026-06-22T23:44:03Z</time>
   </trkpt>
   <trkpt lat="-3.0890270" lon="37.3728840">
    <ele>5018.8</ele>
    <time>2026-06-22T23:44:04Z</time>
   </trkpt>
   <trkpt lat="-3.0890250" lon="37.3728840">
    <ele>5018.9</ele>
    <time>2026-06-22T23:44:05Z</time>
   </trkpt>
   <trkpt lat="-3.0890220" lon="37.3728810">
    <ele>5019.0</ele>
    <time>2026-06-22T23:44:06Z</time>
   </trkpt>
   <trkpt lat="-3.0890210" lon="37.3728810">
    <ele>5019.0</ele>
    <time>2026-06-22T23:44:07Z</time>
   </trkpt>
   <trkpt lat="-3.0890190" lon="37.3728790">
    <ele>5019.1</ele>
    <time>2026-06-22T23:44:08Z</time>
   </trkpt>
   <trkpt lat="-3.0890190" lon="37.3728780">
    <ele>5019.1</ele>
    <time>2026-06-22T23:44:09Z</time>
   </trkpt>
   <trkpt lat="-3.0890160" lon="37.3728770">
    <ele>5019.2</ele>
    <time>2026-06-22T23:44:10Z</time>
   </trkpt>
   <trkpt lat="-3.0890160" lon="37.3728780">
    <ele>5019.2</ele>
    <time>2026-06-22T23:44:11Z</time>
   </trkpt>
   <trkpt lat="-3.0890160" lon="37.3728760">
    <ele>5019.3</ele>
    <time>2026-06-22T23:44:12Z</time>
   </trkpt>
   <trkpt lat="-3.0890150" lon="37.3728740">
    <ele>5019.3</ele>
    <time>2026-06-22T23:44:13Z</time>
   </trkpt>
   <trkpt lat="-3.0890160" lon="37.3728720">
    <ele>5019.4</ele>
    <time>2026-06-22T23:44:14Z</time>
   </trkpt>
   <trkpt lat="-3.0890150" lon="37.3728710">
    <ele>5019.4</ele>
    <time>2026-06-22T23:44:15Z</time>
   </trkpt>
   <trkpt lat="-3.0890160" lon="37.3728690">
    <ele>5019.5</ele>
    <time>2026-06-22T23:44:16Z</time>
   </trkpt>
   <trkpt lat="-3.0890150" lon="37.3728660">
    <ele>5019.5</ele>
    <time>2026-06-22T23:44:17Z</time>
   </trkpt>
   <trkpt lat="-3.0890150" lon="37.3728630">
    <ele>5019.6</ele>
    <time>2026-06-22T23:44:18Z</time>
   </trkpt>
   <trkpt lat="-3.0890140" lon="37.3728600">
    <ele>5019.7</ele>
    <time>2026-06-22T23:44:19Z</time>
   </trkpt>
   <trkpt lat="-3.0890140" lon="37.3728570">
    <ele>5019.8</ele>
    <time>2026-06-22T23:44:20Z</time>
   </trkpt>
   <trkpt lat="-3.0890120" lon="37.3728550">
    <ele>5019.8</ele>
    <time>2026-06-22T23:44:21Z</time>
   </trkpt>
   <trkpt lat="-3.0890110" lon="37.3728530">
    <ele>5019.9</ele>
    <time>2026-06-22T23:44:22Z</time>
   </trkpt>
   <trkpt lat="-3.0890110" lon="37.3728520">
    <ele>5019.9</ele>
    <time>2026-06-22T23:44:23Z</time>
   </trkpt>
   <trkpt lat="-3.0890090" lon="37.3728500">
    <ele>5020.0</ele>
    <time>2026-06-22T23:44:24Z</time>
   </trkpt>
   <trkpt lat="-3.0890090" lon="37.3728460">
    <ele>5020.1</ele>
    <time>2026-06-22T23:44:25Z</time>
   </trkpt>
   <trkpt lat="-3.0890080" lon="37.3728450">
    <ele>5020.1</ele>
    <time>2026-06-22T23:44:26Z</time>
   </trkpt>
   <trkpt lat="-3.0890100" lon="37.3728420">
    <ele>5020.2</ele>
    <time>2026-06-22T23:44:27Z</time>
   </trkpt>
   <trkpt lat="-3.0890090" lon="37.3728400">
    <ele>5020.2</ele>
    <time>2026-06-22T23:44:28Z</time>
   </trkpt>
   <trkpt lat="-3.0890100" lon="37.3728390">
    <ele>5020.3</ele>
    <time>2026-06-22T23:44:29Z</time>
   </trkpt>
   <trkpt lat="-3.0890100" lon="37.3728370">
    <ele>5020.3</ele>
    <time>2026-06-22T23:44:30Z</time>
   </trkpt>
   <trkpt lat="-3.0890110" lon="37.3728350">
    <ele>5020.4</ele>
    <time>2026-06-22T23:44:31Z</time>
   </trkpt>
   <trkpt lat="-3.0890110" lon="37.3728350">
    <ele>5020.4</ele>
    <time>2026-06-22T23:44:32Z</time>
   </trkpt>
   <trkpt lat="-3.0890110" lon="37.3728350">
    <ele>5020.4</ele>
    <time>2026-06-22T23:44:33Z</time>
   </trkpt>
   <trkpt lat="-3.0890130" lon="37.3728320">
    <ele>5020.5</ele>
    <time>2026-06-22T23:44:34Z</time>
   </trkpt>
   <trkpt lat="-3.0890150" lon="37.3728320">
    <ele>5020.5</ele>
    <time>2026-06-22T23:44:35Z</time>
   </trkpt>
   <trkpt lat="-3.0890160" lon="37.3728290">
    <ele>5020.6</ele>
    <time>2026-06-22T23:44:36Z</time>
   </trkpt>
   <trkpt lat="-3.0890180" lon="37.3728250">
    <ele>5020.7</ele>
    <time>2026-06-22T23:44:37Z</time>
   </trkpt>
   <trkpt lat="-3.0890210" lon="37.3728190">
    <ele>5020.8</ele>
    <time>2026-06-22T23:44:38Z</time>
   </trkpt>
   <trkpt lat="-3.0890200" lon="37.3728170">
    <ele>5020.9</ele>
    <time>2026-06-22T23:44:39Z</time>
   </trkpt>
   <trkpt lat="-3.0890210" lon="37.3728140">
    <ele>5021.0</ele>
    <time>2026-06-22T23:44:40Z</time>
   </trkpt>
   <trkpt lat="-3.0890220" lon="37.3728100">
    <ele>5021.1</ele>
    <time>2026-06-22T23:44:41Z</time>
   </trkpt>
   <trkpt lat="-3.0890210" lon="37.3728080">
    <ele>5021.1</ele>
    <time>2026-06-22T23:44:42Z</time>
   </trkpt>
   <trkpt lat="-3.0890210" lon="37.3728060">
    <ele>5021.2</ele>
    <time>2026-06-22T23:44:43Z</time>
   </trkpt>
   <trkpt lat="-3.0890210" lon="37.3728060">
    <ele>5021.2</ele>
    <time>2026-06-22T23:44:44Z</time>
   </trkpt>
   <trkpt lat="-3.0890200" lon="37.3728060">
    <ele>5021.2</ele>
    <time>2026-06-22T23:44:45Z</time>
   </trkpt>
   <trkpt lat="-3.0890180" lon="37.3728060">
    <ele>5021.2</ele>
    <time>2026-06-22T23:44:46Z</time>
   </trkpt>
   <trkpt lat="-3.0890170" lon="37.3728040">
    <ele>5021.3</ele>
    <time>2026-06-22T23:44:47Z</time>
   </trkpt>
   <trkpt lat="-3.0890130" lon="37.3728040">
    <ele>5021.4</ele>
    <time>2026-06-22T23:44:48Z</time>
   </trkpt>
   <trkpt lat="-3.0890100" lon="37.3728050">
    <ele>5021.5</ele>
    <time>2026-06-22T23:44:49Z</time>
   </trkpt>
   <trkpt lat="-3.0890090" lon="37.3728030">
    <ele>5021.5</ele>
    <time>2026-06-22T23:44:50Z</time>
   </trkpt>
   <trkpt lat="-3.0890070" lon="37.3728010">
    <ele>5021.6</ele>
    <time>2026-06-22T23:44:51Z</time>
   </trkpt>
   <trkpt lat="-3.0890060" lon="37.3727990">
    <ele>5021.6</ele>
    <time>2026-06-22T23:44:52Z</time>
   </trkpt>
   <trkpt lat="-3.0890050" lon="37.3727950">
    <ele>5021.7</ele>
    <time>2026-06-22T23:44:53Z</time>
   </trkpt>
   <trkpt lat="-3.0890050" lon="37.3727940">
    <ele>5021.7</ele>
    <time>2026-06-22T23:44:54Z</time>
   </trkpt>
   <trkpt lat="-3.0890050" lon="37.3727910">
    <ele>5021.8</ele>
    <time>2026-06-22T23:44:55Z</time>
   </trkpt>
   <trkpt lat="-3.0890050" lon="37.3727880">
    <ele>5021.9</ele>
    <time>2026-06-22T23:44:56Z</time>
   </trkpt>
   <trkpt lat="-3.0890060" lon="37.3727860">
    <ele>5021.9</ele>
    <time>2026-06-22T23:44:57Z</time>
   </trkpt>
   <trkpt lat="-3.0890060" lon="37.3727820">
    <ele>5022.0</ele>
    <time>2026-06-22T23:44:58Z</time>
   </trkpt>
   <trkpt lat="-3.0890050" lon="37.3727820">
    <ele>5022.1</ele>
    <time>2026-06-22T23:44:59Z</time>
   </trkpt>
   <trkpt lat="-3.0890040" lon="37.3727790">
    <ele>5022.1</ele>
    <time>2026-06-22T23:45:00Z</time>
   </trkpt>
   <trkpt lat="-3.0890010" lon="37.3727800">
    <ele>5022.2</ele>
    <time>2026-06-22T23:45:01Z</time>
   </trkpt>
   <trkpt lat="-3.0890000" lon="37.3727790">
    <ele>5022.2</ele>
    <time>2026-06-22T23:45:02Z</time>
   </trkpt>
   <trkpt lat="-3.0889990" lon="37.3727770">
    <ele>5022.3</ele>
    <time>2026-06-22T23:45:03Z</time>
   </trkpt>
   <trkpt lat="-3.0889950" lon="37.3727780">
    <ele>5022.4</ele>
    <time>2026-06-22T23:45:04Z</time>
   </trkpt>
   <trkpt lat="-3.0889960" lon="37.3727790">
    <ele>5022.4</ele>
    <time>2026-06-22T23:45:05Z</time>
   </trkpt>
   <trkpt lat="-3.0889940" lon="37.3727790">
    <ele>5022.5</ele>
    <time>2026-06-22T23:45:06Z</time>
   </trkpt>
   <trkpt lat="-3.0889920" lon="37.3727800">
    <ele>5022.5</ele>
    <time>2026-06-22T23:45:07Z</time>
   </trkpt>
   <trkpt lat="-3.0889890" lon="37.3727790">
    <ele>5022.6</ele>
    <time>2026-06-22T23:45:08Z</time>
   </trkpt>
   <trkpt lat="-3.0889860" lon="37.3727810">
    <ele>5022.7</ele>
    <time>2026-06-22T23:45:09Z</time>
   </trkpt>
   <trkpt lat="-3.0889840" lon="37.3727790">
    <ele>5022.8</ele>
    <time>2026-06-22T23:45:10Z</time>
   </trkpt>
   <trkpt lat="-3.0889830" lon="37.3727800">
    <ele>5022.8</ele>
    <time>2026-06-22T23:45:11Z</time>
   </trkpt>
   <trkpt lat="-3.0889810" lon="37.3727800">
    <ele>5022.8</ele>
    <time>2026-06-22T23:45:12Z</time>
   </trkpt>
   <trkpt lat="-3.0889770" lon="37.3727810">
    <ele>5022.9</ele>
    <time>2026-06-22T23:45:13Z</time>
   </trkpt>
   <trkpt lat="-3.0889750" lon="37.3727800">
    <ele>5023.0</ele>
    <time>2026-06-22T23:45:14Z</time>
   </trkpt>
   <trkpt lat="-3.0889730" lon="37.3727820">
    <ele>5023.1</ele>
    <time>2026-06-22T23:45:15Z</time>
   </trkpt>
   <trkpt lat="-3.0889710" lon="37.3727800">
    <ele>5023.1</ele>
    <time>2026-06-22T23:45:16Z</time>
   </trkpt>
   <trkpt lat="-3.0889690" lon="37.3727800">
    <ele>5023.2</ele>
    <time>2026-06-22T23:45:17Z</time>
   </trkpt>
   <trkpt lat="-3.0889670" lon="37.3727800">
    <ele>5023.2</ele>
    <time>2026-06-22T23:45:18Z</time>
   </trkpt>
   <trkpt lat="-3.0889680" lon="37.3727820">
    <ele>5023.3</ele>
    <time>2026-06-22T23:45:19Z</time>
   </trkpt>
   <trkpt lat="-3.0889670" lon="37.3727820">
    <ele>5023.3</ele>
    <time>2026-06-22T23:45:20Z</time>
   </trkpt>
   <trkpt lat="-3.0889640" lon="37.3727840">
    <ele>5023.4</ele>
    <time>2026-06-22T23:45:21Z</time>
   </trkpt>
   <trkpt lat="-3.0889610" lon="37.3727860">
    <ele>5023.5</ele>
    <time>2026-06-22T23:45:22Z</time>
   </trkpt>
   <trkpt lat="-3.0889580" lon="37.3727880">
    <ele>5023.5</ele>
    <time>2026-06-22T23:45:23Z</time>
   </trkpt>
   <trkpt lat="-3.0889540" lon="37.3727890">
    <ele>5023.6</ele>
    <time>2026-06-22T23:45:24Z</time>
   </trkpt>
   <trkpt lat="-3.0889530" lon="37.3727900">
    <ele>5023.7</ele>
    <time>2026-06-22T23:45:25Z</time>
   </trkpt>
   <trkpt lat="-3.0889520" lon="37.3727900">
    <ele>5023.7</ele>
    <time>2026-06-22T23:45:26Z</time>
   </trkpt>
   <trkpt lat="-3.0889520" lon="37.3727910">
    <ele>5023.7</ele>
    <time>2026-06-22T23:45:27Z</time>
   </trkpt>
   <trkpt lat="-3.0889500" lon="37.3727890">
    <ele>5023.8</ele>
    <time>2026-06-22T23:45:28Z</time>
   </trkpt>
   <trkpt lat="-3.0889480" lon="37.3727890">
    <ele>5023.8</ele>
    <time>2026-06-22T23:45:29Z</time>
   </trkpt>
   <trkpt lat="-3.0889460" lon="37.3727890">
    <ele>5023.9</ele>
    <time>2026-06-22T23:45:30Z</time>
   </trkpt>
   <trkpt lat="-3.0889450" lon="37.3727870">
    <ele>5023.9</ele>
    <time>2026-06-22T23:45:31Z</time>
   </trkpt>
   <trkpt lat="-3.0889430" lon="37.3727880">
    <ele>5024.0</ele>
    <time>2026-06-22T23:45:32Z</time>
   </trkpt>
   <trkpt lat="-3.0889420" lon="37.3727870">
    <ele>5024.0</ele>
    <time>2026-06-22T23:45:33Z</time>
   </trkpt>
   <trkpt lat="-3.0889410" lon="37.3727860">
    <ele>5024.0</ele>
    <time>2026-06-22T23:45:34Z</time>
   </trkpt>
   <trkpt lat="-3.0889410" lon="37.3727830">
    <ele>5024.1</ele>
    <time>2026-06-22T23:45:35Z</time>
   </trkpt>
   <trkpt lat="-3.0889410" lon="37.3727810">
    <ele>5024.2</ele>
    <time>2026-06-22T23:45:36Z</time>
   </trkpt>
   <trkpt lat="-3.0889400" lon="37.3727780">
    <ele>5024.2</ele>
    <time>2026-06-22T23:45:37Z</time>
   </trkpt>
   <trkpt lat="-3.0889390" lon="37.3727750">
    <ele>5024.3</ele>
    <time>2026-06-22T23:45:38Z</time>
   </trkpt>
   <trkpt lat="-3.0889390" lon="37.3727710">
    <ele>5024.4</ele>
    <time>2026-06-22T23:45:39Z</time>
   </trkpt>
   <trkpt lat="-3.0889390" lon="37.3727710">
    <ele>5024.4</ele>
    <time>2026-06-22T23:45:40Z</time>
   </trkpt>
   <trkpt lat="-3.0889390" lon="37.3727680">
    <ele>5024.5</ele>
    <time>2026-06-22T23:45:41Z</time>
   </trkpt>
   <trkpt lat="-3.0889370" lon="37.3727660">
    <ele>5024.5</ele>
    <time>2026-06-22T23:45:42Z</time>
   </trkpt>
   <trkpt lat="-3.0889380" lon="37.3727660">
    <ele>5024.5</ele>
    <time>2026-06-22T23:45:43Z</time>
   </trkpt>
   <trkpt lat="-3.0889370" lon="37.3727630">
    <ele>5024.6</ele>
    <time>2026-06-22T23:45:44Z</time>
   </trkpt>
   <trkpt lat="-3.0889370" lon="37.3727610">
    <ele>5024.7</ele>
    <time>2026-06-22T23:45:45Z</time>
   </trkpt>
   <trkpt lat="-3.0889370" lon="37.3727570">
    <ele>5024.8</ele>
    <time>2026-06-22T23:45:46Z</time>
   </trkpt>
   <trkpt lat="-3.0889340" lon="37.3727560">
    <ele>5024.8</ele>
    <time>2026-06-22T23:45:47Z</time>
   </trkpt>
   <trkpt lat="-3.0889360" lon="37.3727540">
    <ele>5024.9</ele>
    <time>2026-06-22T23:45:48Z</time>
   </trkpt>
   <trkpt lat="-3.0889320" lon="37.3727500">
    <ele>5025.0</ele>
    <time>2026-06-22T23:45:49Z</time>
   </trkpt>
   <trkpt lat="-3.0889300" lon="37.3727480">
    <ele>5025.1</ele>
    <time>2026-06-22T23:45:50Z</time>
   </trkpt>
   <trkpt lat="-3.0889310" lon="37.3727460">
    <ele>5025.1</ele>
    <time>2026-06-22T23:45:51Z</time>
   </trkpt>
   <trkpt lat="-3.0889290" lon="37.3727430">
    <ele>5025.2</ele>
    <time>2026-06-22T23:45:52Z</time>
   </trkpt>
   <trkpt lat="-3.0889300" lon="37.3727410">
    <ele>5025.3</ele>
    <time>2026-06-22T23:45:53Z</time>
   </trkpt>
   <trkpt lat="-3.0889320" lon="37.3727390">
    <ele>5025.3</ele>
    <time>2026-06-22T23:45:54Z</time>
   </trkpt>
   <trkpt lat="-3.0889310" lon="37.3727390">
    <ele>5025.4</ele>
    <time>2026-06-22T23:45:55Z</time>
   </trkpt>
   <trkpt lat="-3.0889320" lon="37.3727360">
    <ele>5025.4</ele>
    <time>2026-06-22T23:45:56Z</time>
   </trkpt>
   <trkpt lat="-3.0889330" lon="37.3727340">
    <ele>5025.5</ele>
    <time>2026-06-22T23:45:57Z</time>
   </trkpt>
   <trkpt lat="-3.0889320" lon="37.3727320">
    <ele>5025.5</ele>
    <time>2026-06-22T23:45:58Z</time>
   </trkpt>
   <trkpt lat="-3.0889320" lon="37.3727300">
    <ele>5025.6</ele>
    <time>2026-06-22T23:45:59Z</time>
   </trkpt>
   <trkpt lat="-3.0889310" lon="37.3727300">
    <ele>5025.6</ele>
    <time>2026-06-22T23:46:00Z</time>
   </trkpt>
   <trkpt lat="-3.0889280" lon="37.3727270">
    <ele>5025.7</ele>
    <time>2026-06-22T23:46:01Z</time>
   </trkpt>
   <trkpt lat="-3.0889240" lon="37.3727300">
    <ele>5025.8</ele>
    <time>2026-06-22T23:46:02Z</time>
   </trkpt>
   <trkpt lat="-3.0889240" lon="37.3727270">
    <ele>5025.9</ele>
    <time>2026-06-22T23:46:03Z</time>
   </trkpt>
   <trkpt lat="-3.0889210" lon="37.3727260">
    <ele>5025.9</ele>
    <time>2026-06-22T23:46:04Z</time>
   </trkpt>
   <trkpt lat="-3.0889170" lon="37.3727270">
    <ele>5026.0</ele>
    <time>2026-06-22T23:46:05Z</time>
   </trkpt>
   <trkpt lat="-3.0889140" lon="37.3727310">
    <ele>5026.1</ele>
    <time>2026-06-22T23:46:06Z</time>
   </trkpt>
   <trkpt lat="-3.0889130" lon="37.3727290">
    <ele>5026.2</ele>
    <time>2026-06-22T23:46:07Z</time>
   </trkpt>
   <trkpt lat="-3.0889110" lon="37.3727280">
    <ele>5026.2</ele>
    <time>2026-06-22T23:46:08Z</time>
   </trkpt>
   <trkpt lat="-3.0889090" lon="37.3727300">
    <ele>5026.3</ele>
    <time>2026-06-22T23:46:09Z</time>
   </trkpt>
   <trkpt lat="-3.0889050" lon="37.3727320">
    <ele>5026.4</ele>
    <time>2026-06-22T23:46:10Z</time>
   </trkpt>
   <trkpt lat="-3.0889030" lon="37.3727340">
    <ele>5026.4</ele>
    <time>2026-06-22T23:46:11Z</time>
   </trkpt>
   <trkpt lat="-3.0889000" lon="37.3727340">
    <ele>5026.5</ele>
    <time>2026-06-22T23:46:12Z</time>
   </trkpt>
   <trkpt lat="-3.0888970" lon="37.3727370">
    <ele>5026.6</ele>
    <time>2026-06-22T23:46:13Z</time>
   </trkpt>
   <trkpt lat="-3.0888940" lon="37.3727380">
    <ele>5026.7</ele>
    <time>2026-06-22T23:46:14Z</time>
   </trkpt>
   <trkpt lat="-3.0888890" lon="37.3727420">
    <ele>5026.8</ele>
    <time>2026-06-22T23:46:15Z</time>
   </trkpt>
   <trkpt lat="-3.0888870" lon="37.3727430">
    <ele>5026.9</ele>
    <time>2026-06-22T23:46:16Z</time>
   </trkpt>
   <trkpt lat="-3.0888850" lon="37.3727450">
    <ele>5026.9</ele>
    <time>2026-06-22T23:46:17Z</time>
   </trkpt>
   <trkpt lat="-3.0888830" lon="37.3727470">
    <ele>5027.0</ele>
    <time>2026-06-22T23:46:18Z</time>
   </trkpt>
   <trkpt lat="-3.0888790" lon="37.3727510">
    <ele>5027.1</ele>
    <time>2026-06-22T23:46:19Z</time>
   </trkpt>
   <trkpt lat="-3.0888780" lon="37.3727500">
    <ele>5027.1</ele>
    <time>2026-06-22T23:46:20Z</time>
   </trkpt>
   <trkpt lat="-3.0888760" lon="37.3727500">
    <ele>5027.2</ele>
    <time>2026-06-22T23:46:21Z</time>
   </trkpt>
   <trkpt lat="-3.0888740" lon="37.3727520">
    <ele>5027.2</ele>
    <time>2026-06-22T23:46:22Z</time>
   </trkpt>
   <trkpt lat="-3.0888720" lon="37.3727520">
    <ele>5027.3</ele>
    <time>2026-06-22T23:46:23Z</time>
   </trkpt>
   <trkpt lat="-3.0888680" lon="37.3727530">
    <ele>5027.4</ele>
    <time>2026-06-22T23:46:24Z</time>
   </trkpt>
   <trkpt lat="-3.0888660" lon="37.3727520">
    <ele>5027.4</ele>
    <time>2026-06-22T23:46:25Z</time>
   </trkpt>
   <trkpt lat="-3.0888630" lon="37.3727530">
    <ele>5027.5</ele>
    <time>2026-06-22T23:46:26Z</time>
   </trkpt>
   <trkpt lat="-3.0888610" lon="37.3727520">
    <ele>5027.5</ele>
    <time>2026-06-22T23:46:27Z</time>
   </trkpt>
   <trkpt lat="-3.0888590" lon="37.3727510">
    <ele>5027.6</ele>
    <time>2026-06-22T23:46:28Z</time>
   </trkpt>
   <trkpt lat="-3.0888550" lon="37.3727500">
    <ele>5027.7</ele>
    <time>2026-06-22T23:46:29Z</time>
   </trkpt>
   <trkpt lat="-3.0888540" lon="37.3727480">
    <ele>5027.7</ele>
    <time>2026-06-22T23:46:30Z</time>
   </trkpt>
   <trkpt lat="-3.0888500" lon="37.3727480">
    <ele>5027.8</ele>
    <time>2026-06-22T23:46:31Z</time>
   </trkpt>
   <trkpt lat="-3.0888490" lon="37.3727470">
    <ele>5027.8</ele>
    <time>2026-06-22T23:46:32Z</time>
   </trkpt>
   <trkpt lat="-3.0888470" lon="37.3727470">
    <ele>5027.9</ele>
    <time>2026-06-22T23:46:33Z</time>
   </trkpt>
   <trkpt lat="-3.0888470" lon="37.3727470">
    <ele>5027.9</ele>
    <time>2026-06-22T23:46:34Z</time>
   </trkpt>
   <trkpt lat="-3.0888450" lon="37.3727460">
    <ele>5027.9</ele>
    <time>2026-06-22T23:46:35Z</time>
   </trkpt>
   <trkpt lat="-3.0888420" lon="37.3727470">
    <ele>5028.0</ele>
    <time>2026-06-22T23:46:36Z</time>
   </trkpt>
   <trkpt lat="-3.0888380" lon="37.3727460">
    <ele>5028.1</ele>
    <time>2026-06-22T23:46:37Z</time>
   </trkpt>
   <trkpt lat="-3.0888360" lon="37.3727460">
    <ele>5028.1</ele>
    <time>2026-06-22T23:46:38Z</time>
   </trkpt>
   <trkpt lat="-3.0888310" lon="37.3727430">
    <ele>5028.2</ele>
    <time>2026-06-22T23:46:39Z</time>
   </trkpt>
   <trkpt lat="-3.0888290" lon="37.3727420">
    <ele>5028.3</ele>
    <time>2026-06-22T23:46:40Z</time>
   </trkpt>
   <trkpt lat="-3.0888270" lon="37.3727420">
    <ele>5028.3</ele>
    <time>2026-06-22T23:46:41Z</time>
   </trkpt>
   <trkpt lat="-3.0888270" lon="37.3727410">
    <ele>5028.3</ele>
    <time>2026-06-22T23:46:42Z</time>
   </trkpt>
   <trkpt lat="-3.0888260" lon="37.3727410">
    <ele>5028.4</ele>
    <time>2026-06-22T23:46:43Z</time>
   </trkpt>
   <trkpt lat="-3.0888260" lon="37.3727390">
    <ele>5028.4</ele>
    <time>2026-06-22T23:46:44Z</time>
   </trkpt>
   <trkpt lat="-3.0888270" lon="37.3727380">
    <ele>5028.4</ele>
    <time>2026-06-22T23:46:45Z</time>
   </trkpt>
   <trkpt lat="-3.0888260" lon="37.3727350">
    <ele>5028.5</ele>
    <time>2026-06-22T23:46:46Z</time>
   </trkpt>
   <trkpt lat="-3.0888270" lon="37.3727350">
    <ele>5028.5</ele>
    <time>2026-06-22T23:46:47Z</time>
   </trkpt>
   <trkpt lat="-3.0888280" lon="37.3727360">
    <ele>5028.6</ele>
    <time>2026-06-22T23:46:48Z</time>
   </trkpt>
   <trkpt lat="-3.0888270" lon="37.3727310">
    <ele>5028.7</ele>
    <time>2026-06-22T23:46:49Z</time>
   </trkpt>
   <trkpt lat="-3.0888250" lon="37.3727260">
    <ele>5028.8</ele>
    <time>2026-06-22T23:46:50Z</time>
   </trkpt>
   <trkpt lat="-3.0888270" lon="37.3727240">
    <ele>5028.8</ele>
    <time>2026-06-22T23:46:51Z</time>
   </trkpt>
   <trkpt lat="-3.0888270" lon="37.3727220">
    <ele>5028.9</ele>
    <time>2026-06-22T23:46:52Z</time>
   </trkpt>
   <trkpt lat="-3.0888280" lon="37.3727210">
    <ele>5028.9</ele>
    <time>2026-06-22T23:46:53Z</time>
   </trkpt>
   <trkpt lat="-3.0888310" lon="37.3727190">
    <ele>5029.0</ele>
    <time>2026-06-22T23:46:54Z</time>
   </trkpt>
   <trkpt lat="-3.0888340" lon="37.3727170">
    <ele>5029.1</ele>
    <time>2026-06-22T23:46:55Z</time>
   </trkpt>
   <trkpt lat="-3.0888360" lon="37.3727170">
    <ele>5029.1</ele>
    <time>2026-06-22T23:46:56Z</time>
   </trkpt>
   <trkpt lat="-3.0888380" lon="37.3727150">
    <ele>5029.2</ele>
    <time>2026-06-22T23:46:57Z</time>
   </trkpt>
   <trkpt lat="-3.0888420" lon="37.3727140">
    <ele>5029.3</ele>
    <time>2026-06-22T23:46:58Z</time>
   </trkpt>
   <trkpt lat="-3.0888450" lon="37.3727120">
    <ele>5029.3</ele>
    <time>2026-06-22T23:46:59Z</time>
   </trkpt>
   <trkpt lat="-3.0888480" lon="37.3727100">
    <ele>5029.4</ele>
    <time>2026-06-22T23:47:00Z</time>
   </trkpt>
   <trkpt lat="-3.0888500" lon="37.3727070">
    <ele>5029.5</ele>
    <time>2026-06-22T23:47:01Z</time>
   </trkpt>
   <trkpt lat="-3.0888530" lon="37.3727050">
    <ele>5029.6</ele>
    <time>2026-06-22T23:47:02Z</time>
   </trkpt>
   <trkpt lat="-3.0888540" lon="37.3727020">
    <ele>5029.6</ele>
    <time>2026-06-22T23:47:03Z</time>
   </trkpt>
   <trkpt lat="-3.0888560" lon="37.3727000">
    <ele>5029.7</ele>
    <time>2026-06-22T23:47:04Z</time>
   </trkpt>
   <trkpt lat="-3.0888560" lon="37.3726990">
    <ele>5029.7</ele>
    <time>2026-06-22T23:47:05Z</time>
   </trkpt>
   <trkpt lat="-3.0888560" lon="37.3726970">
    <ele>5029.7</ele>
    <time>2026-06-22T23:47:06Z</time>
   </trkpt>
   <trkpt lat="-3.0888560" lon="37.3726950">
    <ele>5029.8</ele>
    <time>2026-06-22T23:47:07Z</time>
   </trkpt>
   <trkpt lat="-3.0888550" lon="37.3726920">
    <ele>5029.9</ele>
    <time>2026-06-22T23:47:08Z</time>
   </trkpt>
   <trkpt lat="-3.0888540" lon="37.3726900">
    <ele>5029.9</ele>
    <time>2026-06-22T23:47:09Z</time>
   </trkpt>
   <trkpt lat="-3.0888510" lon="37.3726880">
    <ele>5030.0</ele>
    <time>2026-06-22T23:47:10Z</time>
   </trkpt>
   <trkpt lat="-3.0888480" lon="37.3726870">
    <ele>5030.0</ele>
    <time>2026-06-22T23:47:11Z</time>
   </trkpt>
   <trkpt lat="-3.0888470" lon="37.3726870">
    <ele>5030.1</ele>
    <time>2026-06-22T23:47:12Z</time>
   </trkpt>
   <trkpt lat="-3.0888460" lon="37.3726870">
    <ele>5030.1</ele>
    <time>2026-06-22T23:47:13Z</time>
   </trkpt>
   <trkpt lat="-3.0888410" lon="37.3726860">
    <ele>5030.2</ele>
    <time>2026-06-22T23:47:14Z</time>
   </trkpt>
   <trkpt lat="-3.0888390" lon="37.3726870">
    <ele>5030.2</ele>
    <time>2026-06-22T23:47:15Z</time>
   </trkpt>
   <trkpt lat="-3.0888360" lon="37.3726860">
    <ele>5030.3</ele>
    <time>2026-06-22T23:47:16Z</time>
   </trkpt>
   <trkpt lat="-3.0888340" lon="37.3726860">
    <ele>5030.4</ele>
    <time>2026-06-22T23:47:17Z</time>
   </trkpt>
   <trkpt lat="-3.0888320" lon="37.3726870">
    <ele>5030.4</ele>
    <time>2026-06-22T23:47:18Z</time>
   </trkpt>
   <trkpt lat="-3.0888310" lon="37.3726870">
    <ele>5030.4</ele>
    <time>2026-06-22T23:47:19Z</time>
   </trkpt>
   <trkpt lat="-3.0888290" lon="37.3726880">
    <ele>5030.5</ele>
    <time>2026-06-22T23:47:20Z</time>
   </trkpt>
   <trkpt lat="-3.0888270" lon="37.3726880">
    <ele>5030.5</ele>
    <time>2026-06-22T23:47:21Z</time>
   </trkpt>
   <trkpt lat="-3.0888250" lon="37.3726900">
    <ele>5030.6</ele>
    <time>2026-06-22T23:47:22Z</time>
   </trkpt>
   <trkpt lat="-3.0888250" lon="37.3726900">
    <ele>5030.6</ele>
    <time>2026-06-22T23:47:23Z</time>
   </trkpt>
   <trkpt lat="-3.0888200" lon="37.3726900">
    <ele>5030.7</ele>
    <time>2026-06-22T23:47:24Z</time>
   </trkpt>
   <trkpt lat="-3.0888180" lon="37.3726910">
    <ele>5030.7</ele>
    <time>2026-06-22T23:47:25Z</time>
   </trkpt>
   <trkpt lat="-3.0888150" lon="37.3726930">
    <ele>5030.8</ele>
    <time>2026-06-22T23:47:26Z</time>
   </trkpt>
   <trkpt lat="-3.0888130" lon="37.3726930">
    <ele>5030.8</ele>
    <time>2026-06-22T23:47:27Z</time>
   </trkpt>
   <trkpt lat="-3.0888090" lon="37.3726910">
    <ele>5030.9</ele>
    <time>2026-06-22T23:47:28Z</time>
   </trkpt>
   <trkpt lat="-3.0888070" lon="37.3726910">
    <ele>5031.0</ele>
    <time>2026-06-22T23:47:29Z</time>
   </trkpt>
   <trkpt lat="-3.0888070" lon="37.3726920">
    <ele>5031.0</ele>
    <time>2026-06-22T23:47:30Z</time>
   </trkpt>
   <trkpt lat="-3.0888020" lon="37.3726910">
    <ele>5031.1</ele>
    <time>2026-06-22T23:47:31Z</time>
   </trkpt>
   <trkpt lat="-3.0887980" lon="37.3726900">
    <ele>5031.2</ele>
    <time>2026-06-22T23:47:32Z</time>
   </trkpt>
   <trkpt lat="-3.0887960" lon="37.3726910">
    <ele>5031.3</ele>
    <time>2026-06-22T23:47:33Z</time>
   </trkpt>
   <trkpt lat="-3.0887940" lon="37.3726880">
    <ele>5031.3</ele>
    <time>2026-06-22T23:47:34Z</time>
   </trkpt>
   <trkpt lat="-3.0887960" lon="37.3726860">
    <ele>5031.4</ele>
    <time>2026-06-22T23:47:35Z</time>
   </trkpt>
   <trkpt lat="-3.0887970" lon="37.3726810">
    <ele>5031.5</ele>
    <time>2026-06-22T23:47:36Z</time>
   </trkpt>
   <trkpt lat="-3.0887970" lon="37.3726790">
    <ele>5031.5</ele>
    <time>2026-06-22T23:47:37Z</time>
   </trkpt>
   <trkpt lat="-3.0887980" lon="37.3726760">
    <ele>5031.6</ele>
    <time>2026-06-22T23:47:38Z</time>
   </trkpt>
   <trkpt lat="-3.0887980" lon="37.3726740">
    <ele>5031.6</ele>
    <time>2026-06-22T23:47:39Z</time>
   </trkpt>
   <trkpt lat="-3.0888010" lon="37.3726720">
    <ele>5031.7</ele>
    <time>2026-06-22T23:47:40Z</time>
   </trkpt>
   <trkpt lat="-3.0888030" lon="37.3726700">
    <ele>5031.8</ele>
    <time>2026-06-22T23:47:41Z</time>
   </trkpt>
   <trkpt lat="-3.0888060" lon="37.3726690">
    <ele>5031.9</ele>
    <time>2026-06-22T23:47:42Z</time>
   </trkpt>
   <trkpt lat="-3.0888080" lon="37.3726660">
    <ele>5031.9</ele>
    <time>2026-06-22T23:47:43Z</time>
   </trkpt>
   <trkpt lat="-3.0888110" lon="37.3726640">
    <ele>5032.0</ele>
    <time>2026-06-22T23:47:44Z</time>
   </trkpt>
   <trkpt lat="-3.0888110" lon="37.3726610">
    <ele>5032.1</ele>
    <time>2026-06-22T23:47:45Z</time>
   </trkpt>
   <trkpt lat="-3.0888140" lon="37.3726590">
    <ele>5032.1</ele>
    <time>2026-06-22T23:47:46Z</time>
   </trkpt>
   <trkpt lat="-3.0888160" lon="37.3726590">
    <ele>5032.2</ele>
    <time>2026-06-22T23:47:47Z</time>
   </trkpt>
   <trkpt lat="-3.0888180" lon="37.3726560">
    <ele>5032.3</ele>
    <time>2026-06-22T23:47:48Z</time>
   </trkpt>
   <trkpt lat="-3.0888190" lon="37.3726520">
    <ele>5032.3</ele>
    <time>2026-06-22T23:47:49Z</time>
   </trkpt>
   <trkpt lat="-3.0888210" lon="37.3726500">
    <ele>5032.4</ele>
    <time>2026-06-22T23:47:50Z</time>
   </trkpt>
   <trkpt lat="-3.0888220" lon="37.3726490">
    <ele>5032.4</ele>
    <time>2026-06-22T23:47:51Z</time>
   </trkpt>
   <trkpt lat="-3.0888230" lon="37.3726450">
    <ele>5032.5</ele>
    <time>2026-06-22T23:47:52Z</time>
   </trkpt>
   <trkpt lat="-3.0888250" lon="37.3726420">
    <ele>5032.6</ele>
    <time>2026-06-22T23:47:53Z</time>
   </trkpt>
   <trkpt lat="-3.0888240" lon="37.3726410">
    <ele>5032.6</ele>
    <time>2026-06-22T23:47:54Z</time>
   </trkpt>
   <trkpt lat="-3.0888250" lon="37.3726390">
    <ele>5032.7</ele>
    <time>2026-06-22T23:47:55Z</time>
   </trkpt>
   <trkpt lat="-3.0888260" lon="37.3726380">
    <ele>5032.7</ele>
    <time>2026-06-22T23:47:56Z</time>
   </trkpt>
   <trkpt lat="-3.0888270" lon="37.3726350">
    <ele>5032.8</ele>
    <time>2026-06-22T23:47:57Z</time>
   </trkpt>
   <trkpt lat="-3.0888280" lon="37.3726330">
    <ele>5032.8</ele>
    <time>2026-06-22T23:47:58Z</time>
   </trkpt>
   <trkpt lat="-3.0888270" lon="37.3726310">
    <ele>5032.9</ele>
    <time>2026-06-22T23:47:59Z</time>
   </trkpt>
   <trkpt lat="-3.0888250" lon="37.3726290">
    <ele>5032.9</ele>
    <time>2026-06-22T23:48:00Z</time>
   </trkpt>
   <trkpt lat="-3.0888250" lon="37.3726270">
    <ele>5033.0</ele>
    <time>2026-06-22T23:48:01Z</time>
   </trkpt>
   <trkpt lat="-3.0888220" lon="37.3726250">
    <ele>5033.0</ele>
    <time>2026-06-22T23:48:02Z</time>
   </trkpt>
   <trkpt lat="-3.0888120" lon="37.3726240">
    <ele>5033.2</ele>
    <time>2026-06-22T23:48:03Z</time>
   </trkpt>
   <trkpt lat="-3.0888140" lon="37.3726240">
    <ele>5033.3</ele>
    <time>2026-06-22T23:48:04Z</time>
   </trkpt>
   <trkpt lat="-3.0888110" lon="37.3726250">
    <ele>5033.4</ele>
    <time>2026-06-22T23:48:05Z</time>
   </trkpt>
   <trkpt lat="-3.0888080" lon="37.3726260">
    <ele>5033.4</ele>
    <time>2026-06-22T23:48:06Z</time>
   </trkpt>
   <trkpt lat="-3.0888060" lon="37.3726260">
    <ele>5033.5</ele>
    <time>2026-06-22T23:48:07Z</time>
   </trkpt>
   <trkpt lat="-3.0888020" lon="37.3726270">
    <ele>5033.5</ele>
    <time>2026-06-22T23:48:08Z</time>
   </trkpt>
   <trkpt lat="-3.0888010" lon="37.3726260">
    <ele>5033.6</ele>
    <time>2026-06-22T23:48:09Z</time>
   </trkpt>
   <trkpt lat="-3.0887980" lon="37.3726260">
    <ele>5033.6</ele>
    <time>2026-06-22T23:48:10Z</time>
   </trkpt>
   <trkpt lat="-3.0887940" lon="37.3726260">
    <ele>5033.7</ele>
    <time>2026-06-22T23:48:11Z</time>
   </trkpt>
   <trkpt lat="-3.0887910" lon="37.3726260">
    <ele>5033.8</ele>
    <time>2026-06-22T23:48:12Z</time>
   </trkpt>
   <trkpt lat="-3.0887890" lon="37.3726260">
    <ele>5033.8</ele>
    <time>2026-06-22T23:48:13Z</time>
   </trkpt>
   <trkpt lat="-3.0887840" lon="37.3726250">
    <ele>5033.9</ele>
    <time>2026-06-22T23:48:14Z</time>
   </trkpt>
   <trkpt lat="-3.0887820" lon="37.3726240">
    <ele>5034.0</ele>
    <time>2026-06-22T23:48:15Z</time>
   </trkpt>
   <trkpt lat="-3.0887790" lon="37.3726230">
    <ele>5034.0</ele>
    <time>2026-06-22T23:48:16Z</time>
   </trkpt>
   <trkpt lat="-3.0887770" lon="37.3726210">
    <ele>5034.1</ele>
    <time>2026-06-22T23:48:17Z</time>
   </trkpt>
   <trkpt lat="-3.0887740" lon="37.3726210">
    <ele>5034.2</ele>
    <time>2026-06-22T23:48:18Z</time>
   </trkpt>
   <trkpt lat="-3.0887740" lon="37.3726200">
    <ele>5034.2</ele>
    <time>2026-06-22T23:48:19Z</time>
   </trkpt>
   <trkpt lat="-3.0887740" lon="37.3726180">
    <ele>5034.2</ele>
    <time>2026-06-22T23:48:20Z</time>
   </trkpt>
   <trkpt lat="-3.0887720" lon="37.3726160">
    <ele>5034.3</ele>
    <time>2026-06-22T23:48:21Z</time>
   </trkpt>
   <trkpt lat="-3.0887710" lon="37.3726130">
    <ele>5034.3</ele>
    <time>2026-06-22T23:48:22Z</time>
   </trkpt>
   <trkpt lat="-3.0887710" lon="37.3726100">
    <ele>5034.4</ele>
    <time>2026-06-22T23:48:23Z</time>
   </trkpt>
   <trkpt lat="-3.0887720" lon="37.3726080">
    <ele>5034.5</ele>
    <time>2026-06-22T23:48:24Z</time>
   </trkpt>
   <trkpt lat="-3.0887730" lon="37.3726050">
    <ele>5034.5</ele>
    <time>2026-06-22T23:48:25Z</time>
   </trkpt>
   <trkpt lat="-3.0887750" lon="37.3726020">
    <ele>5034.6</ele>
    <time>2026-06-22T23:48:26Z</time>
   </trkpt>
   <trkpt lat="-3.0887770" lon="37.3725980">
    <ele>5034.7</ele>
    <time>2026-06-22T23:48:27Z</time>
   </trkpt>
   <trkpt lat="-3.0887800" lon="37.3725960">
    <ele>5034.8</ele>
    <time>2026-06-22T23:48:28Z</time>
   </trkpt>
   <trkpt lat="-3.0887810" lon="37.3725940">
    <ele>5034.8</ele>
    <time>2026-06-22T23:48:29Z</time>
   </trkpt>
   <trkpt lat="-3.0887830" lon="37.3725910">
    <ele>5034.9</ele>
    <time>2026-06-22T23:48:30Z</time>
   </trkpt>
   <trkpt lat="-3.0887850" lon="37.3725880">
    <ele>5035.0</ele>
    <time>2026-06-22T23:48:31Z</time>
   </trkpt>
   <trkpt lat="-3.0887860" lon="37.3725860">
    <ele>5035.0</ele>
    <time>2026-06-22T23:48:32Z</time>
   </trkpt>
   <trkpt lat="-3.0887870" lon="37.3725830">
    <ele>5035.1</ele>
    <time>2026-06-22T23:48:33Z</time>
   </trkpt>
   <trkpt lat="-3.0887910" lon="37.3725830">
    <ele>5035.2</ele>
    <time>2026-06-22T23:48:34Z</time>
   </trkpt>
   <trkpt lat="-3.0887910" lon="37.3725790">
    <ele>5035.2</ele>
    <time>2026-06-22T23:48:35Z</time>
   </trkpt>
   <trkpt lat="-3.0887950" lon="37.3725780">
    <ele>5035.3</ele>
    <time>2026-06-22T23:48:36Z</time>
   </trkpt>
   <trkpt lat="-3.0887970" lon="37.3725760">
    <ele>5035.4</ele>
    <time>2026-06-22T23:48:37Z</time>
   </trkpt>
   <trkpt lat="-3.0887990" lon="37.3725730">
    <ele>5035.5</ele>
    <time>2026-06-22T23:48:38Z</time>
   </trkpt>
   <trkpt lat="-3.0887990" lon="37.3725710">
    <ele>5035.5</ele>
    <time>2026-06-22T23:48:39Z</time>
   </trkpt>
   <trkpt lat="-3.0888010" lon="37.3725690">
    <ele>5035.6</ele>
    <time>2026-06-22T23:48:40Z</time>
   </trkpt>
   <trkpt lat="-3.0888030" lon="37.3725670">
    <ele>5035.6</ele>
    <time>2026-06-22T23:48:41Z</time>
   </trkpt>
   <trkpt lat="-3.0888030" lon="37.3725670">
    <ele>5035.6</ele>
    <time>2026-06-22T23:48:42Z</time>
   </trkpt>
   <trkpt lat="-3.0888050" lon="37.3725640">
    <ele>5035.7</ele>
    <time>2026-06-22T23:48:43Z</time>
   </trkpt>
   <trkpt lat="-3.0888070" lon="37.3725640">
    <ele>5035.7</ele>
    <time>2026-06-22T23:48:44Z</time>
   </trkpt>
   <trkpt lat="-3.0888080" lon="37.3725610">
    <ele>5035.8</ele>
    <time>2026-06-22T23:48:45Z</time>
   </trkpt>
   <trkpt lat="-3.0888090" lon="37.3725590">
    <ele>5035.8</ele>
    <time>2026-06-22T23:48:46Z</time>
   </trkpt>
   <trkpt lat="-3.0888090" lon="37.3725580">
    <ele>5035.9</ele>
    <time>2026-06-22T23:48:47Z</time>
   </trkpt>
   <trkpt lat="-3.0888080" lon="37.3725550">
    <ele>5035.9</ele>
    <time>2026-06-22T23:48:48Z</time>
   </trkpt>
   <trkpt lat="-3.0888070" lon="37.3725530">
    <ele>5036.0</ele>
    <time>2026-06-22T23:48:49Z</time>
   </trkpt>
   <trkpt lat="-3.0888070" lon="37.3725510">
    <ele>5036.0</ele>
    <time>2026-06-22T23:48:50Z</time>
   </trkpt>
   <trkpt lat="-3.0888080" lon="37.3725470">
    <ele>5036.1</ele>
    <time>2026-06-22T23:48:51Z</time>
   </trkpt>
   <trkpt lat="-3.0888110" lon="37.3725460">
    <ele>5036.2</ele>
    <time>2026-06-22T23:48:52Z</time>
   </trkpt>
   <trkpt lat="-3.0888120" lon="37.3725440">
    <ele>5036.2</ele>
    <time>2026-06-22T23:48:53Z</time>
   </trkpt>
   <trkpt lat="-3.0888130" lon="37.3725400">
    <ele>5036.3</ele>
    <time>2026-06-22T23:48:54Z</time>
   </trkpt>
   <trkpt lat="-3.0888130" lon="37.3725380">
    <ele>5036.3</ele>
    <time>2026-06-22T23:48:55Z</time>
   </trkpt>
   <trkpt lat="-3.0888140" lon="37.3725360">
    <ele>5036.4</ele>
    <time>2026-06-22T23:48:56Z</time>
   </trkpt>
   <trkpt lat="-3.0888130" lon="37.3725330">
    <ele>5036.4</ele>
    <time>2026-06-22T23:48:57Z</time>
   </trkpt>
   <trkpt lat="-3.0888140" lon="37.3725300">
    <ele>5036.5</ele>
    <time>2026-06-22T23:48:58Z</time>
   </trkpt>
   <trkpt lat="-3.0888120" lon="37.3725280">
    <ele>5036.6</ele>
    <time>2026-06-22T23:48:59Z</time>
   </trkpt>
   <trkpt lat="-3.0888110" lon="37.3725240">
    <ele>5036.6</ele>
    <time>2026-06-22T23:49:00Z</time>
   </trkpt>
   <trkpt lat="-3.0888090" lon="37.3725220">
    <ele>5036.7</ele>
    <time>2026-06-22T23:49:01Z</time>
   </trkpt>
   <trkpt lat="-3.0888070" lon="37.3725200">
    <ele>5036.8</ele>
    <time>2026-06-22T23:49:02Z</time>
   </trkpt>
   <trkpt lat="-3.0888060" lon="37.3725190">
    <ele>5036.8</ele>
    <time>2026-06-22T23:49:03Z</time>
   </trkpt>
   <trkpt lat="-3.0888050" lon="37.3725190">
    <ele>5036.8</ele>
    <time>2026-06-22T23:49:04Z</time>
   </trkpt>
   <trkpt lat="-3.0888020" lon="37.3725180">
    <ele>5036.9</ele>
    <time>2026-06-22T23:49:05Z</time>
   </trkpt>
   <trkpt lat="-3.0887980" lon="37.3725180">
    <ele>5036.9</ele>
    <time>2026-06-22T23:49:06Z</time>
   </trkpt>
   <trkpt lat="-3.0887960" lon="37.3725180">
    <ele>5037.0</ele>
    <time>2026-06-22T23:49:07Z</time>
   </trkpt>
   <trkpt lat="-3.0887930" lon="37.3725190">
    <ele>5037.0</ele>
    <time>2026-06-22T23:49:08Z</time>
   </trkpt>
   <trkpt lat="-3.0887890" lon="37.3725180">
    <ele>5037.1</ele>
    <time>2026-06-22T23:49:09Z</time>
   </trkpt>
   <trkpt lat="-3.0887870" lon="37.3725180">
    <ele>5037.2</ele>
    <time>2026-06-22T23:49:10Z</time>
   </trkpt>
   <trkpt lat="-3.0887840" lon="37.3725170">
    <ele>5037.2</ele>
    <time>2026-06-22T23:49:11Z</time>
   </trkpt>
   <trkpt lat="-3.0887820" lon="37.3725170">
    <ele>5037.3</ele>
    <time>2026-06-22T23:49:12Z</time>
   </trkpt>
   <trkpt lat="-3.0887790" lon="37.3725160">
    <ele>5037.3</ele>
    <time>2026-06-22T23:49:13Z</time>
   </trkpt>
   <trkpt lat="-3.0887780" lon="37.3725150">
    <ele>5037.4</ele>
    <time>2026-06-22T23:49:14Z</time>
   </trkpt>
   <trkpt lat="-3.0887750" lon="37.3725170">
    <ele>5037.4</ele>
    <time>2026-06-22T23:49:15Z</time>
   </trkpt>
   <trkpt lat="-3.0887740" lon="37.3725160">
    <ele>5037.5</ele>
    <time>2026-06-22T23:49:16Z</time>
   </trkpt>
   <trkpt lat="-3.0887730" lon="37.3725160">
    <ele>5037.5</ele>
    <time>2026-06-22T23:49:17Z</time>
   </trkpt>
   <trkpt lat="-3.0887710" lon="37.3725150">
    <ele>5037.5</ele>
    <time>2026-06-22T23:49:18Z</time>
   </trkpt>
   <trkpt lat="-3.0887660" lon="37.3725130">
    <ele>5037.6</ele>
    <time>2026-06-22T23:49:19Z</time>
   </trkpt>
   <trkpt lat="-3.0887640" lon="37.3725150">
    <ele>5037.7</ele>
    <time>2026-06-22T23:49:20Z</time>
   </trkpt>
   <trkpt lat="-3.0887580" lon="37.3725130">
    <ele>5037.8</ele>
    <time>2026-06-22T23:49:21Z</time>
   </trkpt>
   <trkpt lat="-3.0887600" lon="37.3725130">
    <ele>5037.8</ele>
    <time>2026-06-22T23:49:22Z</time>
   </trkpt>
   <trkpt lat="-3.0887570" lon="37.3725120">
    <ele>5037.9</ele>
    <time>2026-06-22T23:49:23Z</time>
   </trkpt>
   <trkpt lat="-3.0887540" lon="37.3725120">
    <ele>5038.0</ele>
    <time>2026-06-22T23:49:24Z</time>
   </trkpt>
   <trkpt lat="-3.0887510" lon="37.3725100">
    <ele>5038.0</ele>
    <time>2026-06-22T23:49:25Z</time>
   </trkpt>
   <trkpt lat="-3.0887490" lon="37.3725100">
    <ele>5038.1</ele>
    <time>2026-06-22T23:49:26Z</time>
   </trkpt>
   <trkpt lat="-3.0887480" lon="37.3725090">
    <ele>5038.1</ele>
    <time>2026-06-22T23:49:27Z</time>
   </trkpt>
   <trkpt lat="-3.0887460" lon="37.3725080">
    <ele>5038.1</ele>
    <time>2026-06-22T23:49:28Z</time>
   </trkpt>
   <trkpt lat="-3.0887460" lon="37.3725070">
    <ele>5038.2</ele>
    <time>2026-06-22T23:49:29Z</time>
   </trkpt>
   <trkpt lat="-3.0887460" lon="37.3725070">
    <ele>5038.2</ele>
    <time>2026-06-22T23:49:30Z</time>
   </trkpt>
   <trkpt lat="-3.0887440" lon="37.3725050">
    <ele>5038.2</ele>
    <time>2026-06-22T23:49:31Z</time>
   </trkpt>
   <trkpt lat="-3.0887420" lon="37.3725050">
    <ele>5038.3</ele>
    <time>2026-06-22T23:49:32Z</time>
   </trkpt>
   <trkpt lat="-3.0887400" lon="37.3725030">
    <ele>5038.3</ele>
    <time>2026-06-22T23:49:33Z</time>
   </trkpt>
   <trkpt lat="-3.0887370" lon="37.3724990">
    <ele>5038.4</ele>
    <time>2026-06-22T23:49:34Z</time>
   </trkpt>
   <trkpt lat="-3.0887340" lon="37.3724970">
    <ele>5038.5</ele>
    <time>2026-06-22T23:49:35Z</time>
   </trkpt>
   <trkpt lat="-3.0887320" lon="37.3724940">
    <ele>5038.6</ele>
    <time>2026-06-22T23:49:36Z</time>
   </trkpt>
   <trkpt lat="-3.0887310" lon="37.3724940">
    <ele>5038.6</ele>
    <time>2026-06-22T23:49:37Z</time>
   </trkpt>
   <trkpt lat="-3.0887310" lon="37.3724920">
    <ele>5038.6</ele>
    <time>2026-06-22T23:49:38Z</time>
   </trkpt>
   <trkpt lat="-3.0887280" lon="37.3724900">
    <ele>5038.7</ele>
    <time>2026-06-22T23:49:39Z</time>
   </trkpt>
   <trkpt lat="-3.0887290" lon="37.3724890">
    <ele>5038.7</ele>
    <time>2026-06-22T23:49:40Z</time>
   </trkpt>
   <trkpt lat="-3.0887290" lon="37.3724870">
    <ele>5038.8</ele>
    <time>2026-06-22T23:49:41Z</time>
   </trkpt>
   <trkpt lat="-3.0887310" lon="37.3724840">
    <ele>5038.8</ele>
    <time>2026-06-22T23:49:42Z</time>
   </trkpt>
   <trkpt lat="-3.0887310" lon="37.3724820">
    <ele>5038.9</ele>
    <time>2026-06-22T23:49:43Z</time>
   </trkpt>
   <trkpt lat="-3.0887330" lon="37.3724800">
    <ele>5038.9</ele>
    <time>2026-06-22T23:49:44Z</time>
   </trkpt>
   <trkpt lat="-3.0887320" lon="37.3724760">
    <ele>5039.0</ele>
    <time>2026-06-22T23:49:45Z</time>
   </trkpt>
   <trkpt lat="-3.0887330" lon="37.3724750">
    <ele>5039.0</ele>
    <time>2026-06-22T23:49:46Z</time>
   </trkpt>
   <trkpt lat="-3.0887320" lon="37.3724710">
    <ele>5039.1</ele>
    <time>2026-06-22T23:49:47Z</time>
   </trkpt>
   <trkpt lat="-3.0887300" lon="37.3724710">
    <ele>5039.1</ele>
    <time>2026-06-22T23:49:48Z</time>
   </trkpt>
   <trkpt lat="-3.0887280" lon="37.3724690">
    <ele>5039.2</ele>
    <time>2026-06-22T23:49:49Z</time>
   </trkpt>
   <trkpt lat="-3.0887270" lon="37.3724690">
    <ele>5039.2</ele>
    <time>2026-06-22T23:49:50Z</time>
   </trkpt>
   <trkpt lat="-3.0887240" lon="37.3724680">
    <ele>5039.3</ele>
    <time>2026-06-22T23:49:51Z</time>
   </trkpt>
   <trkpt lat="-3.0887220" lon="37.3724690">
    <ele>5039.3</ele>
    <time>2026-06-22T23:49:52Z</time>
   </trkpt>
   <trkpt lat="-3.0887210" lon="37.3724700">
    <ele>5039.4</ele>
    <time>2026-06-22T23:49:53Z</time>
   </trkpt>
   <trkpt lat="-3.0887200" lon="37.3724710">
    <ele>5039.4</ele>
    <time>2026-06-22T23:49:54Z</time>
   </trkpt>
   <trkpt lat="-3.0887190" lon="37.3724700">
    <ele>5039.4</ele>
    <time>2026-06-22T23:49:55Z</time>
   </trkpt>
   <trkpt lat="-3.0887180" lon="37.3724700">
    <ele>5039.4</ele>
    <time>2026-06-22T23:49:56Z</time>
   </trkpt>
   <trkpt lat="-3.0887150" lon="37.3724700">
    <ele>5039.5</ele>
    <time>2026-06-22T23:49:57Z</time>
   </trkpt>
   <trkpt lat="-3.0887130" lon="37.3724690">
    <ele>5039.5</ele>
    <time>2026-06-22T23:49:58Z</time>
   </trkpt>
   <trkpt lat="-3.0887090" lon="37.3724690">
    <ele>5039.6</ele>
    <time>2026-06-22T23:49:59Z</time>
   </trkpt>
   <trkpt lat="-3.0887070" lon="37.3724680">
    <ele>5039.7</ele>
    <time>2026-06-22T23:50:00Z</time>
   </trkpt>
   <trkpt lat="-3.0887050" lon="37.3724700">
    <ele>5039.7</ele>
    <time>2026-06-22T23:50:01Z</time>
   </trkpt>
   <trkpt lat="-3.0887020" lon="37.3724680">
    <ele>5039.8</ele>
    <time>2026-06-22T23:50:02Z</time>
   </trkpt>
   <trkpt lat="-3.0886990" lon="37.3724700">
    <ele>5039.9</ele>
    <time>2026-06-22T23:50:03Z</time>
   </trkpt>
   <trkpt lat="-3.0886960" lon="37.3724690">
    <ele>5039.9</ele>
    <time>2026-06-22T23:50:04Z</time>
   </trkpt>
   <trkpt lat="-3.0886930" lon="37.3724690">
    <ele>5040.0</ele>
    <time>2026-06-22T23:50:05Z</time>
   </trkpt>
   <trkpt lat="-3.0886900" lon="37.3724690">
    <ele>5040.0</ele>
    <time>2026-06-22T23:50:06Z</time>
   </trkpt>
   <trkpt lat="-3.0886870" lon="37.3724680">
    <ele>5040.1</ele>
    <time>2026-06-22T23:50:07Z</time>
   </trkpt>
   <trkpt lat="-3.0886850" lon="37.3724680">
    <ele>5040.1</ele>
    <time>2026-06-22T23:50:08Z</time>
   </trkpt>
   <trkpt lat="-3.0886830" lon="37.3724670">
    <ele>5040.2</ele>
    <time>2026-06-22T23:50:09Z</time>
   </trkpt>
   <trkpt lat="-3.0886820" lon="37.3724690">
    <ele>5040.2</ele>
    <time>2026-06-22T23:50:10Z</time>
   </trkpt>
   <trkpt lat="-3.0886790" lon="37.3724680">
    <ele>5040.3</ele>
    <time>2026-06-22T23:50:11Z</time>
   </trkpt>
   <trkpt lat="-3.0886760" lon="37.3724690">
    <ele>5040.4</ele>
    <time>2026-06-22T23:50:12Z</time>
   </trkpt>
   <trkpt lat="-3.0886730" lon="37.3724700">
    <ele>5040.4</ele>
    <time>2026-06-22T23:50:13Z</time>
   </trkpt>
   <trkpt lat="-3.0886710" lon="37.3724710">
    <ele>5040.5</ele>
    <time>2026-06-22T23:50:14Z</time>
   </trkpt>
   <trkpt lat="-3.0886690" lon="37.3724710">
    <ele>5040.5</ele>
    <time>2026-06-22T23:50:15Z</time>
   </trkpt>
   <trkpt lat="-3.0886660" lon="37.3724720">
    <ele>5040.6</ele>
    <time>2026-06-22T23:50:16Z</time>
   </trkpt>
   <trkpt lat="-3.0886630" lon="37.3724720">
    <ele>5040.6</ele>
    <time>2026-06-22T23:50:17Z</time>
   </trkpt>
   <trkpt lat="-3.0886580" lon="37.3724710">
    <ele>5040.7</ele>
    <time>2026-06-22T23:50:18Z</time>
   </trkpt>
   <trkpt lat="-3.0886570" lon="37.3724720">
    <ele>5040.7</ele>
    <time>2026-06-22T23:50:19Z</time>
   </trkpt>
   <trkpt lat="-3.0886520" lon="37.3724740">
    <ele>5040.9</ele>
    <time>2026-06-22T23:50:20Z</time>
   </trkpt>
   <trkpt lat="-3.0886490" lon="37.3724720">
    <ele>5040.9</ele>
    <time>2026-06-22T23:50:21Z</time>
   </trkpt>
   <trkpt lat="-3.0886490" lon="37.3724670">
    <ele>5041.0</ele>
    <time>2026-06-22T23:50:22Z</time>
   </trkpt>
   <trkpt lat="-3.0886510" lon="37.3724630">
    <ele>5041.1</ele>
    <time>2026-06-22T23:50:23Z</time>
   </trkpt>
   <trkpt lat="-3.0886510" lon="37.3724600">
    <ele>5041.2</ele>
    <time>2026-06-22T23:50:24Z</time>
   </trkpt>
   <trkpt lat="-3.0886490" lon="37.3724590">
    <ele>5041.2</ele>
    <time>2026-06-22T23:50:25Z</time>
   </trkpt>
   <trkpt lat="-3.0886460" lon="37.3724580">
    <ele>5041.3</ele>
    <time>2026-06-22T23:50:26Z</time>
   </trkpt>
   <trkpt lat="-3.0886450" lon="37.3724570">
    <ele>5041.3</ele>
    <time>2026-06-22T23:50:27Z</time>
   </trkpt>
   <trkpt lat="-3.0886440" lon="37.3724580">
    <ele>5041.3</ele>
    <time>2026-06-22T23:50:28Z</time>
   </trkpt>
   <trkpt lat="-3.0886400" lon="37.3724580">
    <ele>5041.4</ele>
    <time>2026-06-22T23:50:29Z</time>
   </trkpt>
   <trkpt lat="-3.0886370" lon="37.3724600">
    <ele>5041.5</ele>
    <time>2026-06-22T23:50:30Z</time>
   </trkpt>
   <trkpt lat="-3.0886340" lon="37.3724590">
    <ele>5041.5</ele>
    <time>2026-06-22T23:50:31Z</time>
   </trkpt>
   <trkpt lat="-3.0886300" lon="37.3724580">
    <ele>5041.6</ele>
    <time>2026-06-22T23:50:32Z</time>
   </trkpt>
   <trkpt lat="-3.0886280" lon="37.3724570">
    <ele>5041.7</ele>
    <time>2026-06-22T23:50:33Z</time>
   </trkpt>
   <trkpt lat="-3.0886280" lon="37.3724540">
    <ele>5041.7</ele>
    <time>2026-06-22T23:50:34Z</time>
   </trkpt>
   <trkpt lat="-3.0886280" lon="37.3724520">
    <ele>5041.8</ele>
    <time>2026-06-22T23:50:35Z</time>
   </trkpt>
   <trkpt lat="-3.0886270" lon="37.3724510">
    <ele>5041.8</ele>
    <time>2026-06-22T23:50:36Z</time>
   </trkpt>
   <trkpt lat="-3.0886270" lon="37.3724480">
    <ele>5041.9</ele>
    <time>2026-06-22T23:50:37Z</time>
   </trkpt>
   <trkpt lat="-3.0886260" lon="37.3724460">
    <ele>5041.9</ele>
    <time>2026-06-22T23:50:38Z</time>
   </trkpt>
   <trkpt lat="-3.0886270" lon="37.3724430">
    <ele>5042.0</ele>
    <time>2026-06-22T23:50:39Z</time>
   </trkpt>
   <trkpt lat="-3.0886270" lon="37.3724410">
    <ele>5042.0</ele>
    <time>2026-06-22T23:50:40Z</time>
   </trkpt>
   <trkpt lat="-3.0886280" lon="37.3724380">
    <ele>5042.1</ele>
    <time>2026-06-22T23:50:41Z</time>
   </trkpt>
   <trkpt lat="-3.0886290" lon="37.3724360">
    <ele>5042.1</ele>
    <time>2026-06-22T23:50:42Z</time>
   </trkpt>
   <trkpt lat="-3.0886280" lon="37.3724350">
    <ele>5042.1</ele>
    <time>2026-06-22T23:50:43Z</time>
   </trkpt>
   <trkpt lat="-3.0886290" lon="37.3724320">
    <ele>5042.2</ele>
    <time>2026-06-22T23:50:44Z</time>
   </trkpt>
   <trkpt lat="-3.0886280" lon="37.3724290">
    <ele>5042.3</ele>
    <time>2026-06-22T23:50:45Z</time>
   </trkpt>
   <trkpt lat="-3.0886290" lon="37.3724260">
    <ele>5042.3</ele>
    <time>2026-06-22T23:50:46Z</time>
   </trkpt>
   <trkpt lat="-3.0886290" lon="37.3724260">
    <ele>5042.3</ele>
    <time>2026-06-22T23:50:47Z</time>
   </trkpt>
   <trkpt lat="-3.0886310" lon="37.3724250">
    <ele>5042.4</ele>
    <time>2026-06-22T23:50:48Z</time>
   </trkpt>
   <trkpt lat="-3.0886310" lon="37.3724220">
    <ele>5042.4</ele>
    <time>2026-06-22T23:50:49Z</time>
   </trkpt>
   <trkpt lat="-3.0886340" lon="37.3724200">
    <ele>5042.5</ele>
    <time>2026-06-22T23:50:50Z</time>
   </trkpt>
   <trkpt lat="-3.0886360" lon="37.3724190">
    <ele>5042.5</ele>
    <time>2026-06-22T23:50:51Z</time>
   </trkpt>
   <trkpt lat="-3.0886370" lon="37.3724170">
    <ele>5042.6</ele>
    <time>2026-06-22T23:50:52Z</time>
   </trkpt>
   <trkpt lat="-3.0886390" lon="37.3724130">
    <ele>5042.7</ele>
    <time>2026-06-22T23:50:53Z</time>
   </trkpt>
   <trkpt lat="-3.0886390" lon="37.3724100">
    <ele>5042.7</ele>
    <time>2026-06-22T23:50:54Z</time>
   </trkpt>
   <trkpt lat="-3.0886380" lon="37.3724100">
    <ele>5042.7</ele>
    <time>2026-06-22T23:50:55Z</time>
   </trkpt>
   <trkpt lat="-3.0886400" lon="37.3724080">
    <ele>5042.8</ele>
    <time>2026-06-22T23:50:56Z</time>
   </trkpt>
   <trkpt lat="-3.0886450" lon="37.3724110">
    <ele>5042.9</ele>
    <time>2026-06-22T23:50:57Z</time>
   </trkpt>
   <trkpt lat="-3.0886460" lon="37.3724090">
    <ele>5043.0</ele>
    <time>2026-06-22T23:50:58Z</time>
   </trkpt>
   <trkpt lat="-3.0886470" lon="37.3724090">
    <ele>5043.0</ele>
    <time>2026-06-22T23:50:59Z</time>
   </trkpt>
   <trkpt lat="-3.0886490" lon="37.3724100">
    <ele>5043.0</ele>
    <time>2026-06-22T23:51:00Z</time>
   </trkpt>
   <trkpt lat="-3.0886510" lon="37.3724090">
    <ele>5043.1</ele>
    <time>2026-06-22T23:51:01Z</time>
   </trkpt>
   <trkpt lat="-3.0886560" lon="37.3724080">
    <ele>5043.2</ele>
    <time>2026-06-22T23:51:02Z</time>
   </trkpt>
   <trkpt lat="-3.0886560" lon="37.3724060">
    <ele>5043.2</ele>
    <time>2026-06-22T23:51:03Z</time>
   </trkpt>
   <trkpt lat="-3.0886570" lon="37.3724060">
    <ele>5043.2</ele>
    <time>2026-06-22T23:51:04Z</time>
   </trkpt>
   <trkpt lat="-3.0886580" lon="37.3724070">
    <ele>5043.3</ele>
    <time>2026-06-22T23:51:05Z</time>
   </trkpt>
   <trkpt lat="-3.0886580" lon="37.3724050">
    <ele>5043.3</ele>
    <time>2026-06-22T23:51:06Z</time>
   </trkpt>
   <trkpt lat="-3.0886590" lon="37.3724040">
    <ele>5043.3</ele>
    <time>2026-06-22T23:51:07Z</time>
   </trkpt>
   <trkpt lat="-3.0886600" lon="37.3724010">
    <ele>5043.4</ele>
    <time>2026-06-22T23:51:08Z</time>
   </trkpt>
   <trkpt lat="-3.0886610" lon="37.3724010">
    <ele>5043.4</ele>
    <time>2026-06-22T23:51:09Z</time>
   </trkpt>
   <trkpt lat="-3.0886620" lon="37.3723990">
    <ele>5043.4</ele>
    <time>2026-06-22T23:51:10Z</time>
   </trkpt>
   <trkpt lat="-3.0886640" lon="37.3723970">
    <ele>5043.5</ele>
    <time>2026-06-22T23:51:11Z</time>
   </trkpt>
   <trkpt lat="-3.0886640" lon="37.3723960">
    <ele>5043.5</ele>
    <time>2026-06-22T23:51:12Z</time>
   </trkpt>
   <trkpt lat="-3.0886610" lon="37.3723950">
    <ele>5043.6</ele>
    <time>2026-06-22T23:51:13Z</time>
   </trkpt>
   <trkpt lat="-3.0886580" lon="37.3723920">
    <ele>5043.7</ele>
    <time>2026-06-22T23:51:14Z</time>
   </trkpt>
   <trkpt lat="-3.0886580" lon="37.3723920">
    <ele>5043.7</ele>
    <time>2026-06-22T23:51:15Z</time>
   </trkpt>
   <trkpt lat="-3.0886540" lon="37.3723920">
    <ele>5043.7</ele>
    <time>2026-06-22T23:51:16Z</time>
   </trkpt>
   <trkpt lat="-3.0886530" lon="37.3723920">
    <ele>5043.8</ele>
    <time>2026-06-22T23:51:17Z</time>
   </trkpt>
   <trkpt lat="-3.0886500" lon="37.3723920">
    <ele>5043.8</ele>
    <time>2026-06-22T23:51:18Z</time>
   </trkpt>
   <trkpt lat="-3.0886480" lon="37.3723920">
    <ele>5043.9</ele>
    <time>2026-06-22T23:51:19Z</time>
   </trkpt>
   <trkpt lat="-3.0886460" lon="37.3723930">
    <ele>5043.9</ele>
    <time>2026-06-22T23:51:20Z</time>
   </trkpt>
   <trkpt lat="-3.0886460" lon="37.3723930">
    <ele>5043.9</ele>
    <time>2026-06-22T23:51:21Z</time>
   </trkpt>
   <trkpt lat="-3.0886440" lon="37.3723930">
    <ele>5043.9</ele>
    <time>2026-06-22T23:51:22Z</time>
   </trkpt>
   <trkpt lat="-3.0886410" lon="37.3723920">
    <ele>5044.0</ele>
    <time>2026-06-22T23:51:23Z</time>
   </trkpt>
   <trkpt lat="-3.0886400" lon="37.3723940">
    <ele>5044.1</ele>
    <time>2026-06-22T23:51:24Z</time>
   </trkpt>
   <trkpt lat="-3.0886360" lon="37.3723960">
    <ele>5044.1</ele>
    <time>2026-06-22T23:51:25Z</time>
   </trkpt>
   <trkpt lat="-3.0886320" lon="37.3723950">
    <ele>5044.2</ele>
    <time>2026-06-22T23:51:26Z</time>
   </trkpt>
   <trkpt lat="-3.0886280" lon="37.3723960">
    <ele>5044.3</ele>
    <time>2026-06-22T23:51:27Z</time>
   </trkpt>
   <trkpt lat="-3.0886290" lon="37.3723940">
    <ele>5044.4</ele>
    <time>2026-06-22T23:51:28Z</time>
   </trkpt>
   <trkpt lat="-3.0886270" lon="37.3723940">
    <ele>5044.4</ele>
    <time>2026-06-22T23:51:29Z</time>
   </trkpt>
   <trkpt lat="-3.0886260" lon="37.3723920">
    <ele>5044.4</ele>
    <time>2026-06-22T23:51:30Z</time>
   </trkpt>
   <trkpt lat="-3.0886270" lon="37.3723900">
    <ele>5044.5</ele>
    <time>2026-06-22T23:51:31Z</time>
   </trkpt>
   <trkpt lat="-3.0886270" lon="37.3723900">
    <ele>5044.5</ele>
    <time>2026-06-22T23:51:32Z</time>
   </trkpt>
   <trkpt lat="-3.0886270" lon="37.3723900">
    <ele>5044.5</ele>
    <time>2026-06-22T23:51:33Z</time>
   </trkpt>
   <trkpt lat="-3.0886280" lon="37.3723870">
    <ele>5044.6</ele>
    <time>2026-06-22T23:51:34Z</time>
   </trkpt>
   <trkpt lat="-3.0886290" lon="37.3723830">
    <ele>5044.6</ele>
    <time>2026-06-22T23:51:35Z</time>
   </trkpt>
   <trkpt lat="-3.0886320" lon="37.3723820">
    <ele>5044.7</ele>
    <time>2026-06-22T23:51:36Z</time>
   </trkpt>
   <trkpt lat="-3.0886360" lon="37.3723800">
    <ele>5044.8</ele>
    <time>2026-06-22T23:51:37Z</time>
   </trkpt>
   <trkpt lat="-3.0886390" lon="37.3723800">
    <ele>5044.9</ele>
    <time>2026-06-22T23:51:38Z</time>
   </trkpt>
   <trkpt lat="-3.0886400" lon="37.3723780">
    <ele>5044.9</ele>
    <time>2026-06-22T23:51:39Z</time>
   </trkpt>
   <trkpt lat="-3.0886430" lon="37.3723770">
    <ele>5045.0</ele>
    <time>2026-06-22T23:51:40Z</time>
   </trkpt>
   <trkpt lat="-3.0886470" lon="37.3723740">
    <ele>5045.1</ele>
    <time>2026-06-22T23:51:41Z</time>
   </trkpt>
   <trkpt lat="-3.0886500" lon="37.3723730">
    <ele>5045.1</ele>
    <time>2026-06-22T23:51:42Z</time>
   </trkpt>
   <trkpt lat="-3.0886530" lon="37.3723710">
    <ele>5045.2</ele>
    <time>2026-06-22T23:51:43Z</time>
   </trkpt>
   <trkpt lat="-3.0886540" lon="37.3723690">
    <ele>5045.3</ele>
    <time>2026-06-22T23:51:44Z</time>
   </trkpt>
   <trkpt lat="-3.0886570" lon="37.3723710">
    <ele>5045.3</ele>
    <time>2026-06-22T23:51:45Z</time>
   </trkpt>
   <trkpt lat="-3.0886580" lon="37.3723680">
    <ele>5045.4</ele>
    <time>2026-06-22T23:51:46Z</time>
   </trkpt>
   <trkpt lat="-3.0886600" lon="37.3723650">
    <ele>5045.5</ele>
    <time>2026-06-22T23:51:47Z</time>
   </trkpt>
   <trkpt lat="-3.0886630" lon="37.3723630">
    <ele>5045.5</ele>
    <time>2026-06-22T23:51:48Z</time>
   </trkpt>
   <trkpt lat="-3.0886650" lon="37.3723630">
    <ele>5045.6</ele>
    <time>2026-06-22T23:51:49Z</time>
   </trkpt>
   <trkpt lat="-3.0886660" lon="37.3723620">
    <ele>5045.6</ele>
    <time>2026-06-22T23:51:50Z</time>
   </trkpt>
   <trkpt lat="-3.0886660" lon="37.3723620">
    <ele>5045.6</ele>
    <time>2026-06-22T23:51:51Z</time>
   </trkpt>
   <trkpt lat="-3.0886680" lon="37.3723610">
    <ele>5045.7</ele>
    <time>2026-06-22T23:51:52Z</time>
   </trkpt>
   <trkpt lat="-3.0886720" lon="37.3723600">
    <ele>5045.7</ele>
    <time>2026-06-22T23:51:53Z</time>
   </trkpt>
   <trkpt lat="-3.0886740" lon="37.3723570">
    <ele>5045.8</ele>
    <time>2026-06-22T23:51:54Z</time>
   </trkpt>
   <trkpt lat="-3.0886740" lon="37.3723540">
    <ele>5045.9</ele>
    <time>2026-06-22T23:51:55Z</time>
   </trkpt>
   <trkpt lat="-3.0886760" lon="37.3723520">
    <ele>5045.9</ele>
    <time>2026-06-22T23:51:56Z</time>
   </trkpt>
   <trkpt lat="-3.0886760" lon="37.3723480">
    <ele>5046.0</ele>
    <time>2026-06-22T23:51:57Z</time>
   </trkpt>
   <trkpt lat="-3.0886750" lon="37.3723490">
    <ele>5046.0</ele>
    <time>2026-06-22T23:51:58Z</time>
   </trkpt>
   <trkpt lat="-3.0886760" lon="37.3723460">
    <ele>5046.1</ele>
    <time>2026-06-22T23:51:59Z</time>
   </trkpt>
   <trkpt lat="-3.0886730" lon="37.3723460">
    <ele>5046.2</ele>
    <time>2026-06-22T23:52:00Z</time>
   </trkpt>
   <trkpt lat="-3.0886720" lon="37.3723440">
    <ele>5046.2</ele>
    <time>2026-06-22T23:52:01Z</time>
   </trkpt>
   <trkpt lat="-3.0886720" lon="37.3723450">
    <ele>5046.2</ele>
    <time>2026-06-22T23:52:02Z</time>
   </trkpt>
   <trkpt lat="-3.0886680" lon="37.3723430">
    <ele>5046.3</ele>
    <time>2026-06-22T23:52:03Z</time>
   </trkpt>
   <trkpt lat="-3.0886670" lon="37.3723430">
    <ele>5046.3</ele>
    <time>2026-06-22T23:52:04Z</time>
   </trkpt>
   <trkpt lat="-3.0886660" lon="37.3723420">
    <ele>5046.4</ele>
    <time>2026-06-22T23:52:05Z</time>
   </trkpt>
   <trkpt lat="-3.0886650" lon="37.3723420">
    <ele>5046.4</ele>
    <time>2026-06-22T23:52:06Z</time>
   </trkpt>
   <trkpt lat="-3.0886610" lon="37.3723400">
    <ele>5046.5</ele>
    <time>2026-06-22T23:52:07Z</time>
   </trkpt>
   <trkpt lat="-3.0886610" lon="37.3723410">
    <ele>5046.5</ele>
    <time>2026-06-22T23:52:08Z</time>
   </trkpt>
   <trkpt lat="-3.0886620" lon="37.3723400">
    <ele>5046.5</ele>
    <time>2026-06-22T23:52:09Z</time>
   </trkpt>
   <trkpt lat="-3.0886590" lon="37.3723390">
    <ele>5046.6</ele>
    <time>2026-06-22T23:52:10Z</time>
   </trkpt>
   <trkpt lat="-3.0886560" lon="37.3723380">
    <ele>5046.7</ele>
    <time>2026-06-22T23:52:11Z</time>
   </trkpt>
   <trkpt lat="-3.0886520" lon="37.3723410">
    <ele>5046.8</ele>
    <time>2026-06-22T23:52:12Z</time>
   </trkpt>
   <trkpt lat="-3.0886500" lon="37.3723390">
    <ele>5046.8</ele>
    <time>2026-06-22T23:52:13Z</time>
   </trkpt>
   <trkpt lat="-3.0886460" lon="37.3723400">
    <ele>5046.9</ele>
    <time>2026-06-22T23:52:14Z</time>
   </trkpt>
   <trkpt lat="-3.0886440" lon="37.3723390">
    <ele>5047.0</ele>
    <time>2026-06-22T23:52:15Z</time>
   </trkpt>
   <trkpt lat="-3.0886410" lon="37.3723390">
    <ele>5047.0</ele>
    <time>2026-06-22T23:52:16Z</time>
   </trkpt>
   <trkpt lat="-3.0886380" lon="37.3723380">
    <ele>5047.1</ele>
    <time>2026-06-22T23:52:17Z</time>
   </trkpt>
   <trkpt lat="-3.0886350" lon="37.3723380">
    <ele>5047.1</ele>
    <time>2026-06-22T23:52:18Z</time>
   </trkpt>
   <trkpt lat="-3.0886330" lon="37.3723390">
    <ele>5047.2</ele>
    <time>2026-06-22T23:52:19Z</time>
   </trkpt>
   <trkpt lat="-3.0886330" lon="37.3723390">
    <ele>5047.2</ele>
    <time>2026-06-22T23:52:20Z</time>
   </trkpt>
   <trkpt lat="-3.0886310" lon="37.3723400">
    <ele>5047.2</ele>
    <time>2026-06-22T23:52:21Z</time>
   </trkpt>
   <trkpt lat="-3.0886280" lon="37.3723400">
    <ele>5047.3</ele>
    <time>2026-06-22T23:52:22Z</time>
   </trkpt>
   <trkpt lat="-3.0886250" lon="37.3723410">
    <ele>5047.4</ele>
    <time>2026-06-22T23:52:23Z</time>
   </trkpt>
   <trkpt lat="-3.0886210" lon="37.3723400">
    <ele>5047.4</ele>
    <time>2026-06-22T23:52:24Z</time>
   </trkpt>
   <trkpt lat="-3.0886190" lon="37.3723420">
    <ele>5047.5</ele>
    <time>2026-06-22T23:52:25Z</time>
   </trkpt>
   <trkpt lat="-3.0886160" lon="37.3723420">
    <ele>5047.6</ele>
    <time>2026-06-22T23:52:26Z</time>
   </trkpt>
   <trkpt lat="-3.0886130" lon="37.3723440">
    <ele>5047.6</ele>
    <time>2026-06-22T23:52:27Z</time>
   </trkpt>
   <trkpt lat="-3.0886100" lon="37.3723440">
    <ele>5047.7</ele>
    <time>2026-06-22T23:52:28Z</time>
   </trkpt>
   <trkpt lat="-3.0886080" lon="37.3723450">
    <ele>5047.7</ele>
    <time>2026-06-22T23:52:29Z</time>
   </trkpt>
   <trkpt lat="-3.0886030" lon="37.3723440">
    <ele>5047.9</ele>
    <time>2026-06-22T23:52:30Z</time>
   </trkpt>
   <trkpt lat="-3.0886010" lon="37.3723450">
    <ele>5047.9</ele>
    <time>2026-06-22T23:52:31Z</time>
   </trkpt>
   <trkpt lat="-3.0885990" lon="37.3723430">
    <ele>5048.0</ele>
    <time>2026-06-22T23:52:32Z</time>
   </trkpt>
   <trkpt lat="-3.0885950" lon="37.3723440">
    <ele>5048.0</ele>
    <time>2026-06-22T23:52:33Z</time>
   </trkpt>
   <trkpt lat="-3.0885930" lon="37.3723440">
    <ele>5048.1</ele>
    <time>2026-06-22T23:52:34Z</time>
   </trkpt>
   <trkpt lat="-3.0885890" lon="37.3723450">
    <ele>5048.2</ele>
    <time>2026-06-22T23:52:35Z</time>
   </trkpt>
   <trkpt lat="-3.0885850" lon="37.3723440">
    <ele>5048.2</ele>
    <time>2026-06-22T23:52:36Z</time>
   </trkpt>
   <trkpt lat="-3.0885830" lon="37.3723440">
    <ele>5048.3</ele>
    <time>2026-06-22T23:52:37Z</time>
   </trkpt>
   <trkpt lat="-3.0885800" lon="37.3723440">
    <ele>5048.3</ele>
    <time>2026-06-22T23:52:38Z</time>
   </trkpt>
   <trkpt lat="-3.0885770" lon="37.3723450">
    <ele>5048.4</ele>
    <time>2026-06-22T23:52:39Z</time>
   </trkpt>
   <trkpt lat="-3.0885750" lon="37.3723430">
    <ele>5048.5</ele>
    <time>2026-06-22T23:52:40Z</time>
   </trkpt>
   <trkpt lat="-3.0885730" lon="37.3723450">
    <ele>5048.5</ele>
    <time>2026-06-22T23:52:41Z</time>
   </trkpt>
   <trkpt lat="-3.0885690" lon="37.3723440">
    <ele>5048.6</ele>
    <time>2026-06-22T23:52:42Z</time>
   </trkpt>
   <trkpt lat="-3.0885670" lon="37.3723450">
    <ele>5048.7</ele>
    <time>2026-06-22T23:52:43Z</time>
   </trkpt>
   <trkpt lat="-3.0885640" lon="37.3723440">
    <ele>5048.7</ele>
    <time>2026-06-22T23:52:44Z</time>
   </trkpt>
   <trkpt lat="-3.0885620" lon="37.3723470">
    <ele>5048.8</ele>
    <time>2026-06-22T23:52:45Z</time>
   </trkpt>
   <trkpt lat="-3.0885600" lon="37.3723460">
    <ele>5048.8</ele>
    <time>2026-06-22T23:52:46Z</time>
   </trkpt>
   <trkpt lat="-3.0885590" lon="37.3723470">
    <ele>5048.9</ele>
    <time>2026-06-22T23:52:47Z</time>
   </trkpt>
   <trkpt lat="-3.0885580" lon="37.3723460">
    <ele>5048.9</ele>
    <time>2026-06-22T23:52:48Z</time>
   </trkpt>
   <trkpt lat="-3.0885550" lon="37.3723480">
    <ele>5049.0</ele>
    <time>2026-06-22T23:52:49Z</time>
   </trkpt>
   <trkpt lat="-3.0885510" lon="37.3723480">
    <ele>5049.1</ele>
    <time>2026-06-22T23:52:50Z</time>
   </trkpt>
   <trkpt lat="-3.0885480" lon="37.3723480">
    <ele>5049.1</ele>
    <time>2026-06-22T23:52:51Z</time>
   </trkpt>
   <trkpt lat="-3.0885450" lon="37.3723460">
    <ele>5049.2</ele>
    <time>2026-06-22T23:52:52Z</time>
   </trkpt>
   <trkpt lat="-3.0885430" lon="37.3723440">
    <ele>5049.2</ele>
    <time>2026-06-22T23:52:53Z</time>
   </trkpt>
   <trkpt lat="-3.0885410" lon="37.3723410">
    <ele>5049.3</ele>
    <time>2026-06-22T23:52:54Z</time>
   </trkpt>
   <trkpt lat="-3.0885410" lon="37.3723390">
    <ele>5049.4</ele>
    <time>2026-06-22T23:52:55Z</time>
   </trkpt>
   <trkpt lat="-3.0885400" lon="37.3723360">
    <ele>5049.4</ele>
    <time>2026-06-22T23:52:56Z</time>
   </trkpt>
   <trkpt lat="-3.0885420" lon="37.3723350">
    <ele>5049.5</ele>
    <time>2026-06-22T23:52:57Z</time>
   </trkpt>
   <trkpt lat="-3.0885410" lon="37.3723310">
    <ele>5049.6</ele>
    <time>2026-06-22T23:52:58Z</time>
   </trkpt>
   <trkpt lat="-3.0885430" lon="37.3723290">
    <ele>5049.6</ele>
    <time>2026-06-22T23:52:59Z</time>
   </trkpt>
   <trkpt lat="-3.0885430" lon="37.3723270">
    <ele>5049.7</ele>
    <time>2026-06-22T23:53:00Z</time>
   </trkpt>
   <trkpt lat="-3.0885450" lon="37.3723280">
    <ele>5049.7</ele>
    <time>2026-06-22T23:53:01Z</time>
   </trkpt>
   <trkpt lat="-3.0885450" lon="37.3723280">
    <ele>5049.7</ele>
    <time>2026-06-22T23:53:02Z</time>
   </trkpt>
   <trkpt lat="-3.0885470" lon="37.3723270">
    <ele>5049.7</ele>
    <time>2026-06-22T23:53:03Z</time>
   </trkpt>
   <trkpt lat="-3.0885480" lon="37.3723230">
    <ele>5049.8</ele>
    <time>2026-06-22T23:53:04Z</time>
   </trkpt>
   <trkpt lat="-3.0885500" lon="37.3723200">
    <ele>5049.9</ele>
    <time>2026-06-22T23:53:05Z</time>
   </trkpt>
   <trkpt lat="-3.0885500" lon="37.3723160">
    <ele>5050.0</ele>
    <time>2026-06-22T23:53:06Z</time>
   </trkpt>
   <trkpt lat="-3.0885520" lon="37.3723160">
    <ele>5050.0</ele>
    <time>2026-06-22T23:53:07Z</time>
   </trkpt>
   <trkpt lat="-3.0885530" lon="37.3723130">
    <ele>5050.1</ele>
    <time>2026-06-22T23:53:08Z</time>
   </trkpt>
   <trkpt lat="-3.0885530" lon="37.3723120">
    <ele>5050.1</ele>
    <time>2026-06-22T23:53:09Z</time>
   </trkpt>
   <trkpt lat="-3.0885550" lon="37.3723090">
    <ele>5050.2</ele>
    <time>2026-06-22T23:53:10Z</time>
   </trkpt>
   <trkpt lat="-3.0885550" lon="37.3723060">
    <ele>5050.2</ele>
    <time>2026-06-22T23:53:11Z</time>
   </trkpt>
   <trkpt lat="-3.0885560" lon="37.3723030">
    <ele>5050.3</ele>
    <time>2026-06-22T23:53:12Z</time>
   </trkpt>
   <trkpt lat="-3.0885570" lon="37.3723020">
    <ele>5050.3</ele>
    <time>2026-06-22T23:53:13Z</time>
   </trkpt>
   <trkpt lat="-3.0885570" lon="37.3722970">
    <ele>5050.4</ele>
    <time>2026-06-22T23:53:14Z</time>
   </trkpt>
   <trkpt lat="-3.0885580" lon="37.3722960">
    <ele>5050.5</ele>
    <time>2026-06-22T23:53:15Z</time>
   </trkpt>
   <trkpt lat="-3.0885590" lon="37.3722930">
    <ele>5050.5</ele>
    <time>2026-06-22T23:53:16Z</time>
   </trkpt>
   <trkpt lat="-3.0885620" lon="37.3722910">
    <ele>5050.6</ele>
    <time>2026-06-22T23:53:17Z</time>
   </trkpt>
   <trkpt lat="-3.0885660" lon="37.3722880">
    <ele>5050.7</ele>
    <time>2026-06-22T23:53:18Z</time>
   </trkpt>
   <trkpt lat="-3.0885670" lon="37.3722850">
    <ele>5050.8</ele>
    <time>2026-06-22T23:53:19Z</time>
   </trkpt>
   <trkpt lat="-3.0885680" lon="37.3722840">
    <ele>5050.8</ele>
    <time>2026-06-22T23:53:20Z</time>
   </trkpt>
   <trkpt lat="-3.0885690" lon="37.3722800">
    <ele>5050.9</ele>
    <time>2026-06-22T23:53:21Z</time>
   </trkpt>
   <trkpt lat="-3.0885690" lon="37.3722800">
    <ele>5050.9</ele>
    <time>2026-06-22T23:53:22Z</time>
   </trkpt>
   <trkpt lat="-3.0885710" lon="37.3722780">
    <ele>5050.9</ele>
    <time>2026-06-22T23:53:23Z</time>
   </trkpt>
   <trkpt lat="-3.0885710" lon="37.3722750">
    <ele>5051.0</ele>
    <time>2026-06-22T23:53:24Z</time>
   </trkpt>
   <trkpt lat="-3.0885720" lon="37.3722720">
    <ele>5051.1</ele>
    <time>2026-06-22T23:53:25Z</time>
   </trkpt>
   <trkpt lat="-3.0885710" lon="37.3722680">
    <ele>5051.2</ele>
    <time>2026-06-22T23:53:26Z</time>
   </trkpt>
   <trkpt lat="-3.0885710" lon="37.3722650">
    <ele>5051.2</ele>
    <time>2026-06-22T23:53:27Z</time>
   </trkpt>
   <trkpt lat="-3.0885690" lon="37.3722620">
    <ele>5051.3</ele>
    <time>2026-06-22T23:53:28Z</time>
   </trkpt>
   <trkpt lat="-3.0885710" lon="37.3722600">
    <ele>5051.4</ele>
    <time>2026-06-22T23:53:29Z</time>
   </trkpt>
   <trkpt lat="-3.0885730" lon="37.3722590">
    <ele>5051.4</ele>
    <time>2026-06-22T23:53:30Z</time>
   </trkpt>
   <trkpt lat="-3.0885740" lon="37.3722540">
    <ele>5051.5</ele>
    <time>2026-06-22T23:53:31Z</time>
   </trkpt>
   <trkpt lat="-3.0885750" lon="37.3722510">
    <ele>5051.6</ele>
    <time>2026-06-22T23:53:32Z</time>
   </trkpt>
   <trkpt lat="-3.0885780" lon="37.3722490">
    <ele>5051.6</ele>
    <time>2026-06-22T23:53:33Z</time>
   </trkpt>
   <trkpt lat="-3.0885790" lon="37.3722460">
    <ele>5051.7</ele>
    <time>2026-06-22T23:53:34Z</time>
   </trkpt>
   <trkpt lat="-3.0885810" lon="37.3722450">
    <ele>5051.7</ele>
    <time>2026-06-22T23:53:35Z</time>
   </trkpt>
   <trkpt lat="-3.0885760" lon="37.3722530">
    <ele>5051.9</ele>
    <time>2026-06-22T23:53:36Z</time>
   </trkpt>
   <trkpt lat="-3.0885830" lon="37.3722440">
    <ele>5052.2</ele>
    <time>2026-06-22T23:53:37Z</time>
   </trkpt>
   <trkpt lat="-3.0885840" lon="37.3722410">
    <ele>5052.2</ele>
    <time>2026-06-22T23:53:38Z</time>
   </trkpt>
   <trkpt lat="-3.0885830" lon="37.3722410">
    <ele>5052.2</ele>
    <time>2026-06-22T23:53:39Z</time>
   </trkpt>
   <trkpt lat="-3.0885830" lon="37.3722360">
    <ele>5052.3</ele>
    <time>2026-06-22T23:53:40Z</time>
   </trkpt>
   <trkpt lat="-3.0885820" lon="37.3722370">
    <ele>5052.4</ele>
    <time>2026-06-22T23:53:41Z</time>
   </trkpt>
   <trkpt lat="-3.0885830" lon="37.3722310">
    <ele>5052.5</ele>
    <time>2026-06-22T23:53:42Z</time>
   </trkpt>
   <trkpt lat="-3.0885810" lon="37.3722300">
    <ele>5052.6</ele>
    <time>2026-06-22T23:53:43Z</time>
   </trkpt>
   <trkpt lat="-3.0885800" lon="37.3722270">
    <ele>5052.7</ele>
    <time>2026-06-22T23:53:44Z</time>
   </trkpt>
   <trkpt lat="-3.0885780" lon="37.3722260">
    <ele>5052.8</ele>
    <time>2026-06-22T23:53:45Z</time>
   </trkpt>
   <trkpt lat="-3.0885750" lon="37.3722230">
    <ele>5052.9</ele>
    <time>2026-06-22T23:53:46Z</time>
   </trkpt>
   <trkpt lat="-3.0885740" lon="37.3722220">
    <ele>5053.0</ele>
    <time>2026-06-22T23:53:47Z</time>
   </trkpt>
   <trkpt lat="-3.0885720" lon="37.3722200">
    <ele>5053.1</ele>
    <time>2026-06-22T23:53:48Z</time>
   </trkpt>
   <trkpt lat="-3.0885720" lon="37.3722160">
    <ele>5053.3</ele>
    <time>2026-06-22T23:53:49Z</time>
   </trkpt>
   <trkpt lat="-3.0885720" lon="37.3722160">
    <ele>5053.3</ele>
    <time>2026-06-22T23:53:50Z</time>
   </trkpt>
   <trkpt lat="-3.0885730" lon="37.3722120">
    <ele>5053.3</ele>
    <time>2026-06-22T23:53:51Z</time>
   </trkpt>
   <trkpt lat="-3.0885730" lon="37.3722100">
    <ele>5053.5</ele>
    <time>2026-06-22T23:53:52Z</time>
   </trkpt>
   <trkpt lat="-3.0885760" lon="37.3722060">
    <ele>5053.6</ele>
    <time>2026-06-22T23:53:53Z</time>
   </trkpt>
   <trkpt lat="-3.0885780" lon="37.3722050">
    <ele>5053.7</ele>
    <time>2026-06-22T23:53:54Z</time>
   </trkpt>
   <trkpt lat="-3.0885780" lon="37.3722020">
    <ele>5053.8</ele>
    <time>2026-06-22T23:53:55Z</time>
   </trkpt>
   <trkpt lat="-3.0885800" lon="37.3721970">
    <ele>5054.0</ele>
    <time>2026-06-22T23:53:56Z</time>
   </trkpt>
   <trkpt lat="-3.0885820" lon="37.3721960">
    <ele>5054.0</ele>
    <time>2026-06-22T23:53:57Z</time>
   </trkpt>
   <trkpt lat="-3.0885850" lon="37.3721960">
    <ele>5054.2</ele>
    <time>2026-06-22T23:53:58Z</time>
   </trkpt>
   <trkpt lat="-3.0885870" lon="37.3721950">
    <ele>5054.2</ele>
    <time>2026-06-22T23:53:59Z</time>
   </trkpt>
   <trkpt lat="-3.0885890" lon="37.3721940">
    <ele>5054.4</ele>
    <time>2026-06-22T23:54:00Z</time>
   </trkpt>
   <trkpt lat="-3.0885910" lon="37.3721930">
    <ele>5054.4</ele>
    <time>2026-06-22T23:54:01Z</time>
   </trkpt>
   <trkpt lat="-3.0885940" lon="37.3721930">
    <ele>5054.5</ele>
    <time>2026-06-22T23:54:02Z</time>
   </trkpt>
   <trkpt lat="-3.0885960" lon="37.3721900">
    <ele>5054.6</ele>
    <time>2026-06-22T23:54:03Z</time>
   </trkpt>
   <trkpt lat="-3.0885990" lon="37.3721870">
    <ele>5054.7</ele>
    <time>2026-06-22T23:54:04Z</time>
   </trkpt>
   <trkpt lat="-3.0886020" lon="37.3721850">
    <ele>5054.9</ele>
    <time>2026-06-22T23:54:05Z</time>
   </trkpt>
   <trkpt lat="-3.0886040" lon="37.3721820">
    <ele>5054.9</ele>
    <time>2026-06-22T23:54:06Z</time>
   </trkpt>
   <trkpt lat="-3.0886060" lon="37.3721790">
    <ele>5055.1</ele>
    <time>2026-06-22T23:54:07Z</time>
   </trkpt>
   <trkpt lat="-3.0886070" lon="37.3721760">
    <ele>5055.2</ele>
    <time>2026-06-22T23:54:08Z</time>
   </trkpt>
   <trkpt lat="-3.0886100" lon="37.3721730">
    <ele>5055.3</ele>
    <time>2026-06-22T23:54:09Z</time>
   </trkpt>
   <trkpt lat="-3.0886110" lon="37.3721710">
    <ele>5055.4</ele>
    <time>2026-06-22T23:54:10Z</time>
   </trkpt>
   <trkpt lat="-3.0886140" lon="37.3721690">
    <ele>5055.5</ele>
    <time>2026-06-22T23:54:11Z</time>
   </trkpt>
   <trkpt lat="-3.0886150" lon="37.3721660">
    <ele>5055.6</ele>
    <time>2026-06-22T23:54:12Z</time>
   </trkpt>
   <trkpt lat="-3.0886170" lon="37.3721620">
    <ele>5055.7</ele>
    <time>2026-06-22T23:54:13Z</time>
   </trkpt>
   <trkpt lat="-3.0886190" lon="37.3721590">
    <ele>5055.9</ele>
    <time>2026-06-22T23:54:14Z</time>
   </trkpt>
   <trkpt lat="-3.0886200" lon="37.3721570">
    <ele>5055.9</ele>
    <time>2026-06-22T23:54:15Z</time>
   </trkpt>
   <trkpt lat="-3.0886210" lon="37.3721540">
    <ele>5056.1</ele>
    <time>2026-06-22T23:54:16Z</time>
   </trkpt>
   <trkpt lat="-3.0886220" lon="37.3721530">
    <ele>5056.1</ele>
    <time>2026-06-22T23:54:17Z</time>
   </trkpt>
   <trkpt lat="-3.0886240" lon="37.3721510">
    <ele>5056.3</ele>
    <time>2026-06-22T23:54:18Z</time>
   </trkpt>
   <trkpt lat="-3.0886260" lon="37.3721480">
    <ele>5056.3</ele>
    <time>2026-06-22T23:54:19Z</time>
   </trkpt>
   <trkpt lat="-3.0886290" lon="37.3721430">
    <ele>5056.5</ele>
    <time>2026-06-22T23:54:20Z</time>
   </trkpt>
   <trkpt lat="-3.0886290" lon="37.3721450">
    <ele>5056.6</ele>
    <time>2026-06-22T23:54:21Z</time>
   </trkpt>
   <trkpt lat="-3.0886300" lon="37.3721390">
    <ele>5056.7</ele>
    <time>2026-06-22T23:54:22Z</time>
   </trkpt>
   <trkpt lat="-3.0886330" lon="37.3721380">
    <ele>5056.8</ele>
    <time>2026-06-22T23:54:23Z</time>
   </trkpt>
   <trkpt lat="-3.0886350" lon="37.3721420">
    <ele>5056.9</ele>
    <time>2026-06-22T23:54:24Z</time>
   </trkpt>
   <trkpt lat="-3.0886360" lon="37.3721360">
    <ele>5057.1</ele>
    <time>2026-06-22T23:54:25Z</time>
   </trkpt>
   <trkpt lat="-3.0886380" lon="37.3721350">
    <ele>5057.2</ele>
    <time>2026-06-22T23:54:26Z</time>
   </trkpt>
   <trkpt lat="-3.0886390" lon="37.3721300">
    <ele>5057.3</ele>
    <time>2026-06-22T23:54:27Z</time>
   </trkpt>
   <trkpt lat="-3.0886400" lon="37.3721270">
    <ele>5057.5</ele>
    <time>2026-06-22T23:54:28Z</time>
   </trkpt>
   <trkpt lat="-3.0886420" lon="37.3721230">
    <ele>5057.6</ele>
    <time>2026-06-22T23:54:29Z</time>
   </trkpt>
   <trkpt lat="-3.0886420" lon="37.3721270">
    <ele>5057.7</ele>
    <time>2026-06-22T23:54:30Z</time>
   </trkpt>
   <trkpt lat="-3.0886460" lon="37.3721290">
    <ele>5057.8</ele>
    <time>2026-06-22T23:54:31Z</time>
   </trkpt>
   <trkpt lat="-3.0886480" lon="37.3721270">
    <ele>5057.9</ele>
    <time>2026-06-22T23:54:32Z</time>
   </trkpt>
   <trkpt lat="-3.0886500" lon="37.3721320">
    <ele>5058.1</ele>
    <time>2026-06-22T23:54:33Z</time>
   </trkpt>
   <trkpt lat="-3.0886530" lon="37.3721330">
    <ele>5058.1</ele>
    <time>2026-06-22T23:54:34Z</time>
   </trkpt>
   <trkpt lat="-3.0886560" lon="37.3721340">
    <ele>5058.3</ele>
    <time>2026-06-22T23:54:35Z</time>
   </trkpt>
   <trkpt lat="-3.0886570" lon="37.3721350">
    <ele>5058.3</ele>
    <time>2026-06-22T23:54:36Z</time>
   </trkpt>
   <trkpt lat="-3.0886600" lon="37.3721340">
    <ele>5058.4</ele>
    <time>2026-06-22T23:54:37Z</time>
   </trkpt>
   <trkpt lat="-3.0886640" lon="37.3721330">
    <ele>5058.5</ele>
    <time>2026-06-22T23:54:38Z</time>
   </trkpt>
   <trkpt lat="-3.0886660" lon="37.3721350">
    <ele>5058.7</ele>
    <time>2026-06-22T23:54:39Z</time>
   </trkpt>
   <trkpt lat="-3.0886690" lon="37.3721380">
    <ele>5058.8</ele>
    <time>2026-06-22T23:54:40Z</time>
   </trkpt>
   <trkpt lat="-3.0886680" lon="37.3721340">
    <ele>5058.8</ele>
    <time>2026-06-22T23:54:41Z</time>
   </trkpt>
   <trkpt lat="-3.0886700" lon="37.3721350">
    <ele>5059.0</ele>
    <time>2026-06-22T23:54:42Z</time>
   </trkpt>
   <trkpt lat="-3.0886730" lon="37.3721360">
    <ele>5059.0</ele>
    <time>2026-06-22T23:54:43Z</time>
   </trkpt>
   <trkpt lat="-3.0886730" lon="37.3721380">
    <ele>5059.2</ele>
    <time>2026-06-22T23:54:44Z</time>
   </trkpt>
   <trkpt lat="-3.0886740" lon="37.3721380">
    <ele>5059.2</ele>
    <time>2026-06-22T23:54:45Z</time>
   </trkpt>
   <trkpt lat="-3.0886780" lon="37.3721390">
    <ele>5059.3</ele>
    <time>2026-06-22T23:54:46Z</time>
   </trkpt>
   <trkpt lat="-3.0886790" lon="37.3721380">
    <ele>5059.4</ele>
    <time>2026-06-22T23:54:47Z</time>
   </trkpt>
   <trkpt lat="-3.0886820" lon="37.3721370">
    <ele>5059.4</ele>
    <time>2026-06-22T23:54:48Z</time>
   </trkpt>
   <trkpt lat="-3.0886860" lon="37.3721330">
    <ele>5059.6</ele>
    <time>2026-06-22T23:54:49Z</time>
   </trkpt>
   <trkpt lat="-3.0886870" lon="37.3721310">
    <ele>5059.7</ele>
    <time>2026-06-22T23:54:50Z</time>
   </trkpt>
   <trkpt lat="-3.0886880" lon="37.3721270">
    <ele>5059.8</ele>
    <time>2026-06-22T23:54:51Z</time>
   </trkpt>
   <trkpt lat="-3.0886890" lon="37.3721260">
    <ele>5059.9</ele>
    <time>2026-06-22T23:54:52Z</time>
   </trkpt>
   <trkpt lat="-3.0886900" lon="37.3721250">
    <ele>5060.0</ele>
    <time>2026-06-22T23:54:53Z</time>
   </trkpt>
   <trkpt lat="-3.0886910" lon="37.3721200">
    <ele>5060.1</ele>
    <time>2026-06-22T23:54:54Z</time>
   </trkpt>
   <trkpt lat="-3.0886920" lon="37.3721180">
    <ele>5060.2</ele>
    <time>2026-06-22T23:54:55Z</time>
   </trkpt>
   <trkpt lat="-3.0886940" lon="37.3721170">
    <ele>5060.2</ele>
    <time>2026-06-22T23:54:56Z</time>
   </trkpt>
   <trkpt lat="-3.0886970" lon="37.3721170">
    <ele>5060.3</ele>
    <time>2026-06-22T23:54:57Z</time>
   </trkpt>
   <trkpt lat="-3.0886990" lon="37.3721170">
    <ele>5060.4</ele>
    <time>2026-06-22T23:54:58Z</time>
   </trkpt>
   <trkpt lat="-3.0886980" lon="37.3721190">
    <ele>5060.5</ele>
    <time>2026-06-22T23:54:59Z</time>
   </trkpt>
   <trkpt lat="-3.0887010" lon="37.3721210">
    <ele>5060.6</ele>
    <time>2026-06-22T23:55:00Z</time>
   </trkpt>
   <trkpt lat="-3.0887000" lon="37.3721220">
    <ele>5060.6</ele>
    <time>2026-06-22T23:55:01Z</time>
   </trkpt>
   <trkpt lat="-3.0887010" lon="37.3721200">
    <ele>5060.8</ele>
    <time>2026-06-22T23:55:02Z</time>
   </trkpt>
   <trkpt lat="-3.0887010" lon="37.3721200">
    <ele>5060.8</ele>
    <time>2026-06-22T23:55:03Z</time>
   </trkpt>
   <trkpt lat="-3.0887020" lon="37.3721230">
    <ele>5060.9</ele>
    <time>2026-06-22T23:55:04Z</time>
   </trkpt>
   <trkpt lat="-3.0887060" lon="37.3721210">
    <ele>5061.0</ele>
    <time>2026-06-22T23:55:05Z</time>
   </trkpt>
   <trkpt lat="-3.0887110" lon="37.3721160">
    <ele>5061.2</ele>
    <time>2026-06-22T23:55:06Z</time>
   </trkpt>
   <trkpt lat="-3.0887110" lon="37.3721110">
    <ele>5061.3</ele>
    <time>2026-06-22T23:55:07Z</time>
   </trkpt>
   <trkpt lat="-3.0887130" lon="37.3721090">
    <ele>5061.4</ele>
    <time>2026-06-22T23:55:08Z</time>
   </trkpt>
   <trkpt lat="-3.0887150" lon="37.3721040">
    <ele>5061.5</ele>
    <time>2026-06-22T23:55:09Z</time>
   </trkpt>
   <trkpt lat="-3.0887130" lon="37.3721040">
    <ele>5061.6</ele>
    <time>2026-06-22T23:55:10Z</time>
   </trkpt>
   <trkpt lat="-3.0887130" lon="37.3721010">
    <ele>5061.7</ele>
    <time>2026-06-22T23:55:11Z</time>
   </trkpt>
   <trkpt lat="-3.0887120" lon="37.3720970">
    <ele>5061.8</ele>
    <time>2026-06-22T23:55:12Z</time>
   </trkpt>
   <trkpt lat="-3.0887130" lon="37.3720940">
    <ele>5061.9</ele>
    <time>2026-06-22T23:55:13Z</time>
   </trkpt>
   <trkpt lat="-3.0887140" lon="37.3720930">
    <ele>5062.0</ele>
    <time>2026-06-22T23:55:14Z</time>
   </trkpt>
   <trkpt lat="-3.0887130" lon="37.3720900">
    <ele>5062.0</ele>
    <time>2026-06-22T23:55:15Z</time>
   </trkpt>
   <trkpt lat="-3.0887140" lon="37.3720850">
    <ele>5062.2</ele>
    <time>2026-06-22T23:55:16Z</time>
   </trkpt>
   <trkpt lat="-3.0887140" lon="37.3720820">
    <ele>5062.3</ele>
    <time>2026-06-22T23:55:17Z</time>
   </trkpt>
   <trkpt lat="-3.0887150" lon="37.3720780">
    <ele>5062.4</ele>
    <time>2026-06-22T23:55:18Z</time>
   </trkpt>
   <trkpt lat="-3.0887160" lon="37.3720760">
    <ele>5062.5</ele>
    <time>2026-06-22T23:55:19Z</time>
   </trkpt>
   <trkpt lat="-3.0887160" lon="37.3720720">
    <ele>5062.6</ele>
    <time>2026-06-22T23:55:20Z</time>
   </trkpt>
   <trkpt lat="-3.0887170" lon="37.3720690">
    <ele>5062.7</ele>
    <time>2026-06-22T23:55:21Z</time>
   </trkpt>
   <trkpt lat="-3.0887170" lon="37.3720660">
    <ele>5062.7</ele>
    <time>2026-06-22T23:55:22Z</time>
   </trkpt>
   <trkpt lat="-3.0887160" lon="37.3720650">
    <ele>5062.8</ele>
    <time>2026-06-22T23:55:23Z</time>
   </trkpt>
   <trkpt lat="-3.0887160" lon="37.3720660">
    <ele>5062.8</ele>
    <time>2026-06-22T23:55:24Z</time>
   </trkpt>
   <trkpt lat="-3.0887140" lon="37.3720610">
    <ele>5062.9</ele>
    <time>2026-06-22T23:55:25Z</time>
   </trkpt>
   <trkpt lat="-3.0887130" lon="37.3720600">
    <ele>5062.9</ele>
    <time>2026-06-22T23:55:26Z</time>
   </trkpt>
   <trkpt lat="-3.0887130" lon="37.3720560">
    <ele>5063.0</ele>
    <time>2026-06-22T23:55:27Z</time>
   </trkpt>
   <trkpt lat="-3.0887110" lon="37.3720540">
    <ele>5063.0</ele>
    <time>2026-06-22T23:55:28Z</time>
   </trkpt>
   <trkpt lat="-3.0887080" lon="37.3720520">
    <ele>5063.1</ele>
    <time>2026-06-22T23:55:29Z</time>
   </trkpt>
   <trkpt lat="-3.0887040" lon="37.3720500">
    <ele>5063.1</ele>
    <time>2026-06-22T23:55:30Z</time>
   </trkpt>
   <trkpt lat="-3.0887030" lon="37.3720370">
    <ele>5063.4</ele>
    <time>2026-06-22T23:55:31Z</time>
   </trkpt>
   <trkpt lat="-3.0886940" lon="37.3720480">
    <ele>5063.6</ele>
    <time>2026-06-22T23:55:32Z</time>
   </trkpt>
   <trkpt lat="-3.0886910" lon="37.3720460">
    <ele>5063.7</ele>
    <time>2026-06-22T23:55:33Z</time>
   </trkpt>
   <trkpt lat="-3.0886920" lon="37.3720480">
    <ele>5063.7</ele>
    <time>2026-06-22T23:55:34Z</time>
   </trkpt>
   <trkpt lat="-3.0886890" lon="37.3720460">
    <ele>5063.7</ele>
    <time>2026-06-22T23:55:35Z</time>
   </trkpt>
   <trkpt lat="-3.0886860" lon="37.3720470">
    <ele>5063.8</ele>
    <time>2026-06-22T23:55:36Z</time>
   </trkpt>
   <trkpt lat="-3.0886840" lon="37.3720460">
    <ele>5063.8</ele>
    <time>2026-06-22T23:55:37Z</time>
   </trkpt>
   <trkpt lat="-3.0886800" lon="37.3720460">
    <ele>5063.9</ele>
    <time>2026-06-22T23:55:38Z</time>
   </trkpt>
   <trkpt lat="-3.0886800" lon="37.3720470">
    <ele>5063.9</ele>
    <time>2026-06-22T23:55:39Z</time>
   </trkpt>
   <trkpt lat="-3.0886770" lon="37.3720480">
    <ele>5064.0</ele>
    <time>2026-06-22T23:55:40Z</time>
   </trkpt>
   <trkpt lat="-3.0886740" lon="37.3720480">
    <ele>5064.0</ele>
    <time>2026-06-22T23:55:41Z</time>
   </trkpt>
   <trkpt lat="-3.0886710" lon="37.3720500">
    <ele>5064.1</ele>
    <time>2026-06-22T23:55:42Z</time>
   </trkpt>
   <trkpt lat="-3.0886670" lon="37.3720470">
    <ele>5064.2</ele>
    <time>2026-06-22T23:55:43Z</time>
   </trkpt>
   <trkpt lat="-3.0886670" lon="37.3720490">
    <ele>5064.2</ele>
    <time>2026-06-22T23:55:44Z</time>
   </trkpt>
   <trkpt lat="-3.0886650" lon="37.3720480">
    <ele>5064.2</ele>
    <time>2026-06-22T23:55:45Z</time>
   </trkpt>
   <trkpt lat="-3.0886630" lon="37.3720480">
    <ele>5064.3</ele>
    <time>2026-06-22T23:55:46Z</time>
   </trkpt>
   <trkpt lat="-3.0886570" lon="37.3720460">
    <ele>5064.4</ele>
    <time>2026-06-22T23:55:47Z</time>
   </trkpt>
   <trkpt lat="-3.0886570" lon="37.3720470">
    <ele>5064.4</ele>
    <time>2026-06-22T23:55:48Z</time>
   </trkpt>
   <trkpt lat="-3.0886540" lon="37.3720450">
    <ele>5064.5</ele>
    <time>2026-06-22T23:55:49Z</time>
   </trkpt>
   <trkpt lat="-3.0886520" lon="37.3720460">
    <ele>5064.5</ele>
    <time>2026-06-22T23:55:50Z</time>
   </trkpt>
   <trkpt lat="-3.0886510" lon="37.3720440">
    <ele>5064.5</ele>
    <time>2026-06-22T23:55:51Z</time>
   </trkpt>
   <trkpt lat="-3.0886520" lon="37.3720430">
    <ele>5064.6</ele>
    <time>2026-06-22T23:55:52Z</time>
   </trkpt>
   <trkpt lat="-3.0886520" lon="37.3720430">
    <ele>5064.6</ele>
    <time>2026-06-22T23:55:53Z</time>
   </trkpt>
   <trkpt lat="-3.0886480" lon="37.3720410">
    <ele>5064.6</ele>
    <time>2026-06-22T23:55:54Z</time>
   </trkpt>
   <trkpt lat="-3.0886460" lon="37.3720380">
    <ele>5064.7</ele>
    <time>2026-06-22T23:55:55Z</time>
   </trkpt>
   <trkpt lat="-3.0886410" lon="37.3720360">
    <ele>5064.8</ele>
    <time>2026-06-22T23:55:56Z</time>
   </trkpt>
   <trkpt lat="-3.0886420" lon="37.3720320">
    <ele>5064.8</ele>
    <time>2026-06-22T23:55:57Z</time>
   </trkpt>
   <trkpt lat="-3.0886400" lon="37.3720290">
    <ele>5064.9</ele>
    <time>2026-06-22T23:55:58Z</time>
   </trkpt>
   <trkpt lat="-3.0886410" lon="37.3720280">
    <ele>5064.9</ele>
    <time>2026-06-22T23:55:59Z</time>
   </trkpt>
   <trkpt lat="-3.0886420" lon="37.3720260">
    <ele>5065.0</ele>
    <time>2026-06-22T23:56:00Z</time>
   </trkpt>
   <trkpt lat="-3.0886420" lon="37.3720240">
    <ele>5065.0</ele>
    <time>2026-06-22T23:56:01Z</time>
   </trkpt>
   <trkpt lat="-3.0886420" lon="37.3720220">
    <ele>5065.0</ele>
    <time>2026-06-22T23:56:02Z</time>
   </trkpt>
   <trkpt lat="-3.0886380" lon="37.3720190">
    <ele>5065.1</ele>
    <time>2026-06-22T23:56:03Z</time>
   </trkpt>
   <trkpt lat="-3.0886360" lon="37.3720180">
    <ele>5065.2</ele>
    <time>2026-06-22T23:56:04Z</time>
   </trkpt>
   <trkpt lat="-3.0886320" lon="37.3720190">
    <ele>5065.2</ele>
    <time>2026-06-22T23:56:05Z</time>
   </trkpt>
   <trkpt lat="-3.0886300" lon="37.3720200">
    <ele>5065.3</ele>
    <time>2026-06-22T23:56:06Z</time>
   </trkpt>
   <trkpt lat="-3.0886280" lon="37.3720220">
    <ele>5065.3</ele>
    <time>2026-06-22T23:56:07Z</time>
   </trkpt>
   <trkpt lat="-3.0886240" lon="37.3720230">
    <ele>5065.4</ele>
    <time>2026-06-22T23:56:08Z</time>
   </trkpt>
   <trkpt lat="-3.0886230" lon="37.3720260">
    <ele>5065.5</ele>
    <time>2026-06-22T23:56:09Z</time>
   </trkpt>
   <trkpt lat="-3.0886210" lon="37.3720270">
    <ele>5065.5</ele>
    <time>2026-06-22T23:56:10Z</time>
   </trkpt>
   <trkpt lat="-3.0886200" lon="37.3720290">
    <ele>5065.5</ele>
    <time>2026-06-22T23:56:11Z</time>
   </trkpt>
   <trkpt lat="-3.0886150" lon="37.3720310">
    <ele>5065.6</ele>
    <time>2026-06-22T23:56:12Z</time>
   </trkpt>
   <trkpt lat="-3.0886120" lon="37.3720310">
    <ele>5065.7</ele>
    <time>2026-06-22T23:56:13Z</time>
   </trkpt>
   <trkpt lat="-3.0886100" lon="37.3720310">
    <ele>5065.7</ele>
    <time>2026-06-22T23:56:14Z</time>
   </trkpt>
   <trkpt lat="-3.0886090" lon="37.3720300">
    <ele>5065.7</ele>
    <time>2026-06-22T23:56:15Z</time>
   </trkpt>
   <trkpt lat="-3.0886080" lon="37.3720250">
    <ele>5065.8</ele>
    <time>2026-06-22T23:56:16Z</time>
   </trkpt>
   <trkpt lat="-3.0886070" lon="37.3720200">
    <ele>5065.9</ele>
    <time>2026-06-22T23:56:17Z</time>
   </trkpt>
   <trkpt lat="-3.0886130" lon="37.3720180">
    <ele>5066.0</ele>
    <time>2026-06-22T23:56:18Z</time>
   </trkpt>
   <trkpt lat="-3.0886160" lon="37.3720160">
    <ele>5066.1</ele>
    <time>2026-06-22T23:56:19Z</time>
   </trkpt>
   <trkpt lat="-3.0886190" lon="37.3720130">
    <ele>5066.2</ele>
    <time>2026-06-22T23:56:20Z</time>
   </trkpt>
   <trkpt lat="-3.0886210" lon="37.3720100">
    <ele>5066.2</ele>
    <time>2026-06-22T23:56:21Z</time>
   </trkpt>
   <trkpt lat="-3.0886230" lon="37.3720090">
    <ele>5066.3</ele>
    <time>2026-06-22T23:56:22Z</time>
   </trkpt>
   <trkpt lat="-3.0886220" lon="37.3720050">
    <ele>5066.4</ele>
    <time>2026-06-22T23:56:23Z</time>
   </trkpt>
   <trkpt lat="-3.0886220" lon="37.3720040">
    <ele>5066.4</ele>
    <time>2026-06-22T23:56:24Z</time>
   </trkpt>
   <trkpt lat="-3.0886200" lon="37.3720000">
    <ele>5066.5</ele>
    <time>2026-06-22T23:56:25Z</time>
   </trkpt>
   <trkpt lat="-3.0886180" lon="37.3719990">
    <ele>5066.5</ele>
    <time>2026-06-22T23:56:26Z</time>
   </trkpt>
   <trkpt lat="-3.0886180" lon="37.3719990">
    <ele>5066.5</ele>
    <time>2026-06-22T23:56:27Z</time>
   </trkpt>
   <trkpt lat="-3.0886150" lon="37.3719970">
    <ele>5066.6</ele>
    <time>2026-06-22T23:56:28Z</time>
   </trkpt>
   <trkpt lat="-3.0886140" lon="37.3719960">
    <ele>5066.6</ele>
    <time>2026-06-22T23:56:29Z</time>
   </trkpt>
   <trkpt lat="-3.0886110" lon="37.3719950">
    <ele>5066.6</ele>
    <time>2026-06-22T23:56:30Z</time>
   </trkpt>
   <trkpt lat="-3.0886090" lon="37.3719930">
    <ele>5066.7</ele>
    <time>2026-06-22T23:56:31Z</time>
   </trkpt>
   <trkpt lat="-3.0886070" lon="37.3719930">
    <ele>5066.7</ele>
    <time>2026-06-22T23:56:32Z</time>
   </trkpt>
   <trkpt lat="-3.0886050" lon="37.3719900">
    <ele>5066.8</ele>
    <time>2026-06-22T23:56:33Z</time>
   </trkpt>
   <trkpt lat="-3.0886020" lon="37.3719880">
    <ele>5066.9</ele>
    <time>2026-06-22T23:56:34Z</time>
   </trkpt>
   <trkpt lat="-3.0886000" lon="37.3719870">
    <ele>5066.9</ele>
    <time>2026-06-22T23:56:35Z</time>
   </trkpt>
   <trkpt lat="-3.0885980" lon="37.3719840">
    <ele>5067.0</ele>
    <time>2026-06-22T23:56:36Z</time>
   </trkpt>
   <trkpt lat="-3.0885960" lon="37.3719830">
    <ele>5067.0</ele>
    <time>2026-06-22T23:56:37Z</time>
   </trkpt>
   <trkpt lat="-3.0885950" lon="37.3719820">
    <ele>5067.1</ele>
    <time>2026-06-22T23:56:38Z</time>
   </trkpt>
   <trkpt lat="-3.0885920" lon="37.3719780">
    <ele>5067.2</ele>
    <time>2026-06-22T23:56:39Z</time>
   </trkpt>
   <trkpt lat="-3.0885900" lon="37.3719780">
    <ele>5067.2</ele>
    <time>2026-06-22T23:56:40Z</time>
   </trkpt>
   <trkpt lat="-3.0885880" lon="37.3719780">
    <ele>5067.2</ele>
    <time>2026-06-22T23:56:41Z</time>
   </trkpt>
   <trkpt lat="-3.0885850" lon="37.3719760">
    <ele>5067.3</ele>
    <time>2026-06-22T23:56:42Z</time>
   </trkpt>
   <trkpt lat="-3.0885820" lon="37.3719760">
    <ele>5067.4</ele>
    <time>2026-06-22T23:56:43Z</time>
   </trkpt>
   <trkpt lat="-3.0885790" lon="37.3719730">
    <ele>5067.4</ele>
    <time>2026-06-22T23:56:44Z</time>
   </trkpt>
   <trkpt lat="-3.0885770" lon="37.3719710">
    <ele>5067.5</ele>
    <time>2026-06-22T23:56:45Z</time>
   </trkpt>
   <trkpt lat="-3.0885770" lon="37.3719700">
    <ele>5067.5</ele>
    <time>2026-06-22T23:56:46Z</time>
   </trkpt>
   <trkpt lat="-3.0885740" lon="37.3719680">
    <ele>5067.6</ele>
    <time>2026-06-22T23:56:47Z</time>
   </trkpt>
   <trkpt lat="-3.0885710" lon="37.3719680">
    <ele>5067.6</ele>
    <time>2026-06-22T23:56:48Z</time>
   </trkpt>
   <trkpt lat="-3.0885690" lon="37.3719690">
    <ele>5067.7</ele>
    <time>2026-06-22T23:56:49Z</time>
   </trkpt>
   <trkpt lat="-3.0885640" lon="37.3719710">
    <ele>5067.8</ele>
    <time>2026-06-22T23:56:50Z</time>
   </trkpt>
   <trkpt lat="-3.0885600" lon="37.3719720">
    <ele>5067.9</ele>
    <time>2026-06-22T23:56:51Z</time>
   </trkpt>
   <trkpt lat="-3.0885550" lon="37.3719740">
    <ele>5068.0</ele>
    <time>2026-06-22T23:56:52Z</time>
   </trkpt>
   <trkpt lat="-3.0885520" lon="37.3719760">
    <ele>5068.0</ele>
    <time>2026-06-22T23:56:53Z</time>
   </trkpt>
   <trkpt lat="-3.0885470" lon="37.3719790">
    <ele>5068.2</ele>
    <time>2026-06-22T23:56:54Z</time>
   </trkpt>
   <trkpt lat="-3.0885430" lon="37.3719790">
    <ele>5068.2</ele>
    <time>2026-06-22T23:56:55Z</time>
   </trkpt>
   <trkpt lat="-3.0885380" lon="37.3719800">
    <ele>5068.3</ele>
    <time>2026-06-22T23:56:56Z</time>
   </trkpt>
   <trkpt lat="-3.0885350" lon="37.3719810">
    <ele>5068.4</ele>
    <time>2026-06-22T23:56:57Z</time>
   </trkpt>
   <trkpt lat="-3.0885320" lon="37.3719820">
    <ele>5068.5</ele>
    <time>2026-06-22T23:56:58Z</time>
   </trkpt>
   <trkpt lat="-3.0885280" lon="37.3719810">
    <ele>5068.5</ele>
    <time>2026-06-22T23:56:59Z</time>
   </trkpt>
   <trkpt lat="-3.0885240" lon="37.3719830">
    <ele>5068.6</ele>
    <time>2026-06-22T23:57:00Z</time>
   </trkpt>
   <trkpt lat="-3.0885210" lon="37.3719810">
    <ele>5068.7</ele>
    <time>2026-06-22T23:57:01Z</time>
   </trkpt>
   <trkpt lat="-3.0885160" lon="37.3719820">
    <ele>5068.8</ele>
    <time>2026-06-22T23:57:02Z</time>
   </trkpt>
   <trkpt lat="-3.0885130" lon="37.3719820">
    <ele>5068.9</ele>
    <time>2026-06-22T23:57:03Z</time>
   </trkpt>
   <trkpt lat="-3.0885110" lon="37.3719820">
    <ele>5068.9</ele>
    <time>2026-06-22T23:57:04Z</time>
   </trkpt>
   <trkpt lat="-3.0885090" lon="37.3719820">
    <ele>5068.9</ele>
    <time>2026-06-22T23:57:05Z</time>
   </trkpt>
   <trkpt lat="-3.0885060" lon="37.3719800">
    <ele>5069.0</ele>
    <time>2026-06-22T23:57:06Z</time>
   </trkpt>
   <trkpt lat="-3.0885050" lon="37.3719790">
    <ele>5069.0</ele>
    <time>2026-06-22T23:57:07Z</time>
   </trkpt>
   <trkpt lat="-3.0885060" lon="37.3719800">
    <ele>5069.1</ele>
    <time>2026-06-22T23:57:08Z</time>
   </trkpt>
   <trkpt lat="-3.0885020" lon="37.3719750">
    <ele>5069.2</ele>
    <time>2026-06-22T23:57:09Z</time>
   </trkpt>
   <trkpt lat="-3.0884980" lon="37.3719740">
    <ele>5069.3</ele>
    <time>2026-06-22T23:57:10Z</time>
   </trkpt>
   <trkpt lat="-3.0884960" lon="37.3719710">
    <ele>5069.4</ele>
    <time>2026-06-22T23:57:11Z</time>
   </trkpt>
   <trkpt lat="-3.0884950" lon="37.3719690">
    <ele>5069.4</ele>
    <time>2026-06-22T23:57:12Z</time>
   </trkpt>
   <trkpt lat="-3.0884940" lon="37.3719670">
    <ele>5069.5</ele>
    <time>2026-06-22T23:57:13Z</time>
   </trkpt>
   <trkpt lat="-3.0884910" lon="37.3719630">
    <ele>5069.6</ele>
    <time>2026-06-22T23:57:14Z</time>
   </trkpt>
   <trkpt lat="-3.0884890" lon="37.3719620">
    <ele>5069.6</ele>
    <time>2026-06-22T23:57:15Z</time>
   </trkpt>
   <trkpt lat="-3.0884870" lon="37.3719610">
    <ele>5069.6</ele>
    <time>2026-06-22T23:57:16Z</time>
   </trkpt>
   <trkpt lat="-3.0884850" lon="37.3719620">
    <ele>5069.7</ele>
    <time>2026-06-22T23:57:17Z</time>
   </trkpt>
   <trkpt lat="-3.0884770" lon="37.3719590">
    <ele>5069.9</ele>
    <time>2026-06-22T23:57:18Z</time>
   </trkpt>
   <trkpt lat="-3.0884760" lon="37.3719610">
    <ele>5069.9</ele>
    <time>2026-06-22T23:57:19Z</time>
   </trkpt>
   <trkpt lat="-3.0884690" lon="37.3719640">
    <ele>5070.1</ele>
    <time>2026-06-22T23:57:20Z</time>
   </trkpt>
   <trkpt lat="-3.0884650" lon="37.3719610">
    <ele>5070.2</ele>
    <time>2026-06-22T23:57:21Z</time>
   </trkpt>
   <trkpt lat="-3.0884600" lon="37.3719610">
    <ele>5070.3</ele>
    <time>2026-06-22T23:57:22Z</time>
   </trkpt>
   <trkpt lat="-3.0884570" lon="37.3719620">
    <ele>5070.3</ele>
    <time>2026-06-22T23:57:23Z</time>
   </trkpt>
   <trkpt lat="-3.0884560" lon="37.3719630">
    <ele>5070.4</ele>
    <time>2026-06-22T23:57:24Z</time>
   </trkpt>
   <trkpt lat="-3.0884530" lon="37.3719640">
    <ele>5070.4</ele>
    <time>2026-06-22T23:57:25Z</time>
   </trkpt>
   <trkpt lat="-3.0884510" lon="37.3719650">
    <ele>5070.5</ele>
    <time>2026-06-22T23:57:26Z</time>
   </trkpt>
   <trkpt lat="-3.0884480" lon="37.3719650">
    <ele>5070.5</ele>
    <time>2026-06-22T23:57:27Z</time>
   </trkpt>
   <trkpt lat="-3.0884440" lon="37.3719650">
    <ele>5070.6</ele>
    <time>2026-06-22T23:57:28Z</time>
   </trkpt>
   <trkpt lat="-3.0884420" lon="37.3719680">
    <ele>5070.7</ele>
    <time>2026-06-22T23:57:29Z</time>
   </trkpt>
   <trkpt lat="-3.0884400" lon="37.3719680">
    <ele>5070.7</ele>
    <time>2026-06-22T23:57:30Z</time>
   </trkpt>
   <trkpt lat="-3.0884370" lon="37.3719700">
    <ele>5070.8</ele>
    <time>2026-06-22T23:57:31Z</time>
   </trkpt>
   <trkpt lat="-3.0884370" lon="37.3719690">
    <ele>5070.8</ele>
    <time>2026-06-22T23:57:32Z</time>
   </trkpt>
   <trkpt lat="-3.0884330" lon="37.3719700">
    <ele>5070.9</ele>
    <time>2026-06-22T23:57:33Z</time>
   </trkpt>
   <trkpt lat="-3.0884340" lon="37.3719700">
    <ele>5070.9</ele>
    <time>2026-06-22T23:57:34Z</time>
   </trkpt>
   <trkpt lat="-3.0884320" lon="37.3719710">
    <ele>5071.0</ele>
    <time>2026-06-22T23:57:35Z</time>
   </trkpt>
   <trkpt lat="-3.0884280" lon="37.3719680">
    <ele>5071.1</ele>
    <time>2026-06-22T23:57:36Z</time>
   </trkpt>
   <trkpt lat="-3.0884260" lon="37.3719640">
    <ele>5071.1</ele>
    <time>2026-06-22T23:57:37Z</time>
   </trkpt>
   <trkpt lat="-3.0884280" lon="37.3719630">
    <ele>5071.2</ele>
    <time>2026-06-22T23:57:38Z</time>
   </trkpt>
   <trkpt lat="-3.0884290" lon="37.3719620">
    <ele>5071.2</ele>
    <time>2026-06-22T23:57:39Z</time>
   </trkpt>
   <trkpt lat="-3.0884310" lon="37.3719610">
    <ele>5071.3</ele>
    <time>2026-06-22T23:57:40Z</time>
   </trkpt>
   <trkpt lat="-3.0884290" lon="37.3719590">
    <ele>5071.3</ele>
    <time>2026-06-22T23:57:41Z</time>
   </trkpt>
   <trkpt lat="-3.0884300" lon="37.3719580">
    <ele>5071.3</ele>
    <time>2026-06-22T23:57:42Z</time>
   </trkpt>
   <trkpt lat="-3.0884300" lon="37.3719580">
    <ele>5071.3</ele>
    <time>2026-06-22T23:57:43Z</time>
   </trkpt>
   <trkpt lat="-3.0884300" lon="37.3719580">
    <ele>5071.3</ele>
    <time>2026-06-22T23:57:44Z</time>
   </trkpt>
   <trkpt lat="-3.0884310" lon="37.3719580">
    <ele>5071.4</ele>
    <time>2026-06-22T23:57:45Z</time>
   </trkpt>
   <trkpt lat="-3.0884300" lon="37.3719570">
    <ele>5071.4</ele>
    <time>2026-06-22T23:57:46Z</time>
   </trkpt>
   <trkpt lat="-3.0884310" lon="37.3719570">
    <ele>5071.4</ele>
    <time>2026-06-22T23:57:47Z</time>
   </trkpt>
   <trkpt lat="-3.0884300" lon="37.3719550">
    <ele>5071.5</ele>
    <time>2026-06-22T23:57:48Z</time>
   </trkpt>
   <trkpt lat="-3.0884320" lon="37.3719550">
    <ele>5071.5</ele>
    <time>2026-06-22T23:57:49Z</time>
   </trkpt>
   <trkpt lat="-3.0884310" lon="37.3719550">
    <ele>5071.5</ele>
    <time>2026-06-22T23:57:50Z</time>
   </trkpt>
   <trkpt lat="-3.0884310" lon="37.3719550">
    <ele>5071.5</ele>
    <time>2026-06-22T23:57:51Z</time>
   </trkpt>
   <trkpt lat="-3.0884330" lon="37.3719580">
    <ele>5071.6</ele>
    <time>2026-06-22T23:57:52Z</time>
   </trkpt>
   <trkpt lat="-3.0884340" lon="37.3719590">
    <ele>5071.6</ele>
    <time>2026-06-22T23:57:53Z</time>
   </trkpt>
   <trkpt lat="-3.0884340" lon="37.3719590">
    <ele>5071.6</ele>
    <time>2026-06-22T23:57:54Z</time>
   </trkpt>
   <trkpt lat="-3.0884320" lon="37.3719530">
    <ele>5071.8</ele>
    <time>2026-06-22T23:57:55Z</time>
   </trkpt>
   <trkpt lat="-3.0884320" lon="37.3719520">
    <ele>5071.8</ele>
    <time>2026-06-22T23:57:56Z</time>
   </trkpt>
   <trkpt lat="-3.0884320" lon="37.3719520">
    <ele>5071.8</ele>
    <time>2026-06-22T23:57:57Z</time>
   </trkpt>
   <trkpt lat="-3.0884320" lon="37.3719510">
    <ele>5071.8</ele>
    <time>2026-06-22T23:57:58Z</time>
   </trkpt>
   <trkpt lat="-3.0884310" lon="37.3719530">
    <ele>5071.8</ele>
    <time>2026-06-22T23:57:59Z</time>
   </trkpt>
   <trkpt lat="-3.0884320" lon="37.3719540">
    <ele>5071.9</ele>
    <time>2026-06-22T23:58:00Z</time>
   </trkpt>
   <trkpt lat="-3.0884310" lon="37.3719510">
    <ele>5071.9</ele>
    <time>2026-06-22T23:58:01Z</time>
   </trkpt>
   <trkpt lat="-3.0884320" lon="37.3719500">
    <ele>5072.0</ele>
    <time>2026-06-22T23:58:02Z</time>
   </trkpt>
   <trkpt lat="-3.0884310" lon="37.3719490">
    <ele>5072.0</ele>
    <time>2026-06-22T23:58:03Z</time>
   </trkpt>
   <trkpt lat="-3.0884310" lon="37.3719490">
    <ele>5072.0</ele>
    <time>2026-06-22T23:58:04Z</time>
   </trkpt>
   <trkpt lat="-3.0884320" lon="37.3719490">
    <ele>5072.0</ele>
    <time>2026-06-22T23:58:05Z</time>
   </trkpt>
   <trkpt lat="-3.0884300" lon="37.3719490">
    <ele>5072.0</ele>
    <time>2026-06-22T23:58:06Z</time>
   </trkpt>
   <trkpt lat="-3.0884310" lon="37.3719490">
    <ele>5072.1</ele>
    <time>2026-06-22T23:58:07Z</time>
   </trkpt>
   <trkpt lat="-3.0884310" lon="37.3719490">
    <ele>5072.1</ele>
    <time>2026-06-22T23:58:08Z</time>
   </trkpt>
   <trkpt lat="-3.0884310" lon="37.3719490">
    <ele>5072.1</ele>
    <time>2026-06-22T23:58:09Z</time>
   </trkpt>
   <trkpt lat="-3.0884310" lon="37.3719490">
    <ele>5072.1</ele>
    <time>2026-06-22T23:58:10Z</time>
   </trkpt>
   <trkpt lat="-3.0884310" lon="37.3719480">
    <ele>5072.1</ele>
    <time>2026-06-22T23:58:11Z</time>
   </trkpt>
   <trkpt lat="-3.0884320" lon="37.3719460">
    <ele>5072.1</ele>
    <time>2026-06-22T23:58:12Z</time>
   </trkpt>
   <trkpt lat="-3.0884330" lon="37.3719420">
    <ele>5072.2</ele>
    <time>2026-06-22T23:58:13Z</time>
   </trkpt>
   <trkpt lat="-3.0884320" lon="37.3719360">
    <ele>5072.3</ele>
    <time>2026-06-22T23:58:14Z</time>
   </trkpt>
   <trkpt lat="-3.0884300" lon="37.3719270">
    <ele>5072.5</ele>
    <time>2026-06-22T23:58:15Z</time>
   </trkpt>
   <trkpt lat="-3.0884350" lon="37.3719240">
    <ele>5072.6</ele>
    <time>2026-06-22T23:58:16Z</time>
   </trkpt>
   <trkpt lat="-3.0884370" lon="37.3719190">
    <ele>5072.7</ele>
    <time>2026-06-22T23:58:17Z</time>
   </trkpt>
   <trkpt lat="-3.0884420" lon="37.3719210">
    <ele>5072.9</ele>
    <time>2026-06-22T23:58:18Z</time>
   </trkpt>
   <trkpt lat="-3.0884400" lon="37.3719180">
    <ele>5072.9</ele>
    <time>2026-06-22T23:58:19Z</time>
   </trkpt>
   <trkpt lat="-3.0884410" lon="37.3719180">
    <ele>5072.9</ele>
    <time>2026-06-22T23:58:20Z</time>
   </trkpt>
   <trkpt lat="-3.0884410" lon="37.3719180">
    <ele>5072.9</ele>
    <time>2026-06-22T23:58:21Z</time>
   </trkpt>
   <trkpt lat="-3.0884440" lon="37.3719190">
    <ele>5073.0</ele>
    <time>2026-06-22T23:58:22Z</time>
   </trkpt>
   <trkpt lat="-3.0884440" lon="37.3719190">
    <ele>5073.0</ele>
    <time>2026-06-22T23:58:23Z</time>
   </trkpt>
   <trkpt lat="-3.0884420" lon="37.3719180">
    <ele>5073.1</ele>
    <time>2026-06-22T23:58:24Z</time>
   </trkpt>
   <trkpt lat="-3.0884430" lon="37.3719180">
    <ele>5073.1</ele>
    <time>2026-06-22T23:58:25Z</time>
   </trkpt>
   <trkpt lat="-3.0884420" lon="37.3719170">
    <ele>5073.1</ele>
    <time>2026-06-22T23:58:26Z</time>
   </trkpt>
   <trkpt lat="-3.0884430" lon="37.3719170">
    <ele>5073.1</ele>
    <time>2026-06-22T23:58:27Z</time>
   </trkpt>
   <trkpt lat="-3.0884430" lon="37.3719170">
    <ele>5073.1</ele>
    <time>2026-06-22T23:58:28Z</time>
   </trkpt>
   <trkpt lat="-3.0884430" lon="37.3719170">
    <ele>5073.1</ele>
    <time>2026-06-22T23:58:29Z</time>
   </trkpt>
   <trkpt lat="-3.0884430" lon="37.3719170">
    <ele>5073.1</ele>
    <time>2026-06-22T23:58:30Z</time>
   </trkpt>
   <trkpt lat="-3.0884400" lon="37.3719150">
    <ele>5073.2</ele>
    <time>2026-06-22T23:58:31Z</time>
   </trkpt>
   <trkpt lat="-3.0884400" lon="37.3719160">
    <ele>5073.2</ele>
    <time>2026-06-22T23:58:32Z</time>
   </trkpt>
   <trkpt lat="-3.0884400" lon="37.3719150">
    <ele>5073.2</ele>
    <time>2026-06-22T23:58:33Z</time>
   </trkpt>
   <trkpt lat="-3.0884400" lon="37.3719160">
    <ele>5073.3</ele>
    <time>2026-06-22T23:58:34Z</time>
   </trkpt>
   <trkpt lat="-3.0884410" lon="37.3719160">
    <ele>5073.3</ele>
    <time>2026-06-22T23:58:35Z</time>
   </trkpt>
   <trkpt lat="-3.0884400" lon="37.3719160">
    <ele>5073.3</ele>
    <time>2026-06-22T23:58:36Z</time>
   </trkpt>
   <trkpt lat="-3.0884400" lon="37.3719160">
    <ele>5073.3</ele>
    <time>2026-06-22T23:58:37Z</time>
   </trkpt>
   <trkpt lat="-3.0884390" lon="37.3719170">
    <ele>5073.3</ele>
    <time>2026-06-22T23:58:38Z</time>
   </trkpt>
   <trkpt lat="-3.0884400" lon="37.3719170">
    <ele>5073.3</ele>
    <time>2026-06-22T23:58:39Z</time>
   </trkpt>
   <trkpt lat="-3.0884390" lon="37.3719180">
    <ele>5073.4</ele>
    <time>2026-06-22T23:58:40Z</time>
   </trkpt>
   <trkpt lat="-3.0884400" lon="37.3719180">
    <ele>5073.4</ele>
    <time>2026-06-22T23:58:41Z</time>
   </trkpt>
   <trkpt lat="-3.0884410" lon="37.3719170">
    <ele>5073.4</ele>
    <time>2026-06-22T23:58:42Z</time>
   </trkpt>
   <trkpt lat="-3.0884410" lon="37.3719170">
    <ele>5073.4</ele>
    <time>2026-06-22T23:58:43Z</time>
   </trkpt>
   <trkpt lat="-3.0884400" lon="37.3719170">
    <ele>5073.4</ele>
    <time>2026-06-22T23:58:44Z</time>
   </trkpt>
   <trkpt lat="-3.0884400" lon="37.3719170">
    <ele>5073.4</ele>
    <time>2026-06-22T23:58:45Z</time>
   </trkpt>
   <trkpt lat="-3.0884400" lon="37.3719170">
    <ele>5073.4</ele>
    <time>2026-06-22T23:58:46Z</time>
   </trkpt>
   <trkpt lat="-3.0884400" lon="37.3719170">
    <ele>5073.4</ele>
    <time>2026-06-22T23:58:47Z</time>
   </trkpt>
   <trkpt lat="-3.0884400" lon="37.3719170">
    <ele>5073.4</ele>
    <time>2026-06-22T23:58:48Z</time>
   </trkpt>
   <trkpt lat="-3.0884400" lon="37.3719170">
    <ele>5073.4</ele>
    <time>2026-06-22T23:58:49Z</time>
   </trkpt>
   <trkpt lat="-3.0884400" lon="37.3719170">
    <ele>5073.4</ele>
    <time>2026-06-22T23:58:50Z</time>
   </trkpt>
   <trkpt lat="-3.0884390" lon="37.3719180">
    <ele>5073.5</ele>
    <time>2026-06-22T23:58:51Z</time>
   </trkpt>
   <trkpt lat="-3.0884400" lon="37.3719180">
    <ele>5073.5</ele>
    <time>2026-06-22T23:58:52Z</time>
   </trkpt>
   <trkpt lat="-3.0884400" lon="37.3719180">
    <ele>5073.5</ele>
    <time>2026-06-22T23:58:53Z</time>
   </trkpt>
   <trkpt lat="-3.0884400" lon="37.3719170">
    <ele>5073.5</ele>
    <time>2026-06-22T23:58:54Z</time>
   </trkpt>
   <trkpt lat="-3.0884400" lon="37.3719170">
    <ele>5073.5</ele>
    <time>2026-06-22T23:58:55Z</time>
   </trkpt>
   <trkpt lat="-3.0884400" lon="37.3719170">
    <ele>5073.5</ele>
    <time>2026-06-22T23:58:56Z</time>
   </trkpt>
   <trkpt lat="-3.0884400" lon="37.3719170">
    <ele>5073.5</ele>
    <time>2026-06-22T23:58:57Z</time>
   </trkpt>
   <trkpt lat="-3.0884400" lon="37.3719170">
    <ele>5073.5</ele>
    <time>2026-06-22T23:58:58Z</time>
   </trkpt>
   <trkpt lat="-3.0884410" lon="37.3719170">
    <ele>5073.5</ele>
    <time>2026-06-22T23:58:59Z</time>
   </trkpt>
   <trkpt lat="-3.0884410" lon="37.3719180">
    <ele>5073.6</ele>
    <time>2026-06-22T23:59:00Z</time>
   </trkpt>
   <trkpt lat="-3.0884400" lon="37.3719170">
    <ele>5073.6</ele>
    <time>2026-06-22T23:59:01Z</time>
   </trkpt>
   <trkpt lat="-3.0884400" lon="37.3719170">
    <ele>5073.6</ele>
    <time>2026-06-22T23:59:02Z</time>
   </trkpt>
   <trkpt lat="-3.0884420" lon="37.3719180">
    <ele>5073.6</ele>
    <time>2026-06-22T23:59:03Z</time>
   </trkpt>
   <trkpt lat="-3.0884420" lon="37.3719180">
    <ele>5073.6</ele>
    <time>2026-06-22T23:59:04Z</time>
   </trkpt>
   <trkpt lat="-3.0884430" lon="37.3719180">
    <ele>5073.6</ele>
    <time>2026-06-22T23:59:05Z</time>
   </trkpt>
   <trkpt lat="-3.0884440" lon="37.3719180">
    <ele>5073.7</ele>
    <time>2026-06-22T23:59:06Z</time>
   </trkpt>
   <trkpt lat="-3.0884440" lon="37.3719180">
    <ele>5073.7</ele>
    <time>2026-06-22T23:59:07Z</time>
   </trkpt>
   <trkpt lat="-3.0884440" lon="37.3719180">
    <ele>5073.7</ele>
    <time>2026-06-22T23:59:08Z</time>
   </trkpt>
   <trkpt lat="-3.0884440" lon="37.3719180">
    <ele>5073.7</ele>
    <time>2026-06-22T23:59:09Z</time>
   </trkpt>
   <trkpt lat="-3.0884440" lon="37.3719180">
    <ele>5073.7</ele>
    <time>2026-06-22T23:59:10Z</time>
   </trkpt>
   <trkpt lat="-3.0884440" lon="37.3719180">
    <ele>5073.7</ele>
    <time>2026-06-22T23:59:11Z</time>
   </trkpt>
   <trkpt lat="-3.0884440" lon="37.3719180">
    <ele>5073.7</ele>
    <time>2026-06-22T23:59:12Z</time>
   </trkpt>
   <trkpt lat="-3.0884440" lon="37.3719180">
    <ele>5073.7</ele>
    <time>2026-06-22T23:59:13Z</time>
   </trkpt>
   <trkpt lat="-3.0884420" lon="37.3719180">
    <ele>5073.7</ele>
    <time>2026-06-22T23:59:14Z</time>
   </trkpt>
   <trkpt lat="-3.0884420" lon="37.3719190">
    <ele>5073.7</ele>
    <time>2026-06-22T23:59:15Z</time>
   </trkpt>
   <trkpt lat="-3.0884410" lon="37.3719180">
    <ele>5073.8</ele>
    <time>2026-06-22T23:59:16Z</time>
   </trkpt>
   <trkpt lat="-3.0884400" lon="37.3719180">
    <ele>5073.8</ele>
    <time>2026-06-22T23:59:17Z</time>
   </trkpt>
   <trkpt lat="-3.0884380" lon="37.3719190">
    <ele>5073.8</ele>
    <time>2026-06-22T23:59:18Z</time>
   </trkpt>
   <trkpt lat="-3.0884410" lon="37.3719190">
    <ele>5073.9</ele>
    <time>2026-06-22T23:59:19Z</time>
   </trkpt>
   <trkpt lat="-3.0884390" lon="37.3719200">
    <ele>5073.9</ele>
    <time>2026-06-22T23:59:20Z</time>
   </trkpt>
   <trkpt lat="-3.0884390" lon="37.3719210">
    <ele>5073.9</ele>
    <time>2026-06-22T23:59:21Z</time>
   </trkpt>
   <trkpt lat="-3.0884400" lon="37.3719210">
    <ele>5074.0</ele>
    <time>2026-06-22T23:59:22Z</time>
   </trkpt>
   <trkpt lat="-3.0884400" lon="37.3719210">
    <ele>5074.0</ele>
    <time>2026-06-22T23:59:23Z</time>
   </trkpt>
   <trkpt lat="-3.0884390" lon="37.3719210">
    <ele>5074.0</ele>
    <time>2026-06-22T23:59:24Z</time>
   </trkpt>
   <trkpt lat="-3.0884400" lon="37.3719210">
    <ele>5074.0</ele>
    <time>2026-06-22T23:59:25Z</time>
   </trkpt>
   <trkpt lat="-3.0884400" lon="37.3719210">
    <ele>5074.0</ele>
    <time>2026-06-22T23:59:26Z</time>
   </trkpt>
   <trkpt lat="-3.0884400" lon="37.3719200">
    <ele>5074.0</ele>
    <time>2026-06-22T23:59:27Z</time>
   </trkpt>
   <trkpt lat="-3.0884390" lon="37.3719200">
    <ele>5074.0</ele>
    <time>2026-06-22T23:59:28Z</time>
   </trkpt>
   <trkpt lat="-3.0884410" lon="37.3719200">
    <ele>5074.1</ele>
    <time>2026-06-22T23:59:29Z</time>
   </trkpt>
   <trkpt lat="-3.0884390" lon="37.3719200">
    <ele>5074.1</ele>
    <time>2026-06-22T23:59:30Z</time>
   </trkpt>
   <trkpt lat="-3.0884400" lon="37.3719200">
    <ele>5074.1</ele>
    <time>2026-06-22T23:59:31Z</time>
   </trkpt>
   <trkpt lat="-3.0884400" lon="37.3719190">
    <ele>5074.2</ele>
    <time>2026-06-22T23:59:32Z</time>
   </trkpt>
   <trkpt lat="-3.0884400" lon="37.3719190">
    <ele>5074.2</ele>
    <time>2026-06-22T23:59:33Z</time>
   </trkpt>
   <trkpt lat="-3.0884400" lon="37.3719190">
    <ele>5074.2</ele>
    <time>2026-06-22T23:59:34Z</time>
   </trkpt>
   <trkpt lat="-3.0884400" lon="37.3719190">
    <ele>5074.2</ele>
    <time>2026-06-22T23:59:35Z</time>
   </trkpt>
   <trkpt lat="-3.0884400" lon="37.3719180">
    <ele>5074.2</ele>
    <time>2026-06-22T23:59:36Z</time>
   </trkpt>
   <trkpt lat="-3.0884400" lon="37.3719180">
    <ele>5074.2</ele>
    <time>2026-06-22T23:59:37Z</time>
   </trkpt>
   <trkpt lat="-3.0884410" lon="37.3719180">
    <ele>5074.2</ele>
    <time>2026-06-22T23:59:38Z</time>
   </trkpt>
   <trkpt lat="-3.0884410" lon="37.3719180">
    <ele>5074.2</ele>
    <time>2026-06-22T23:59:39Z</time>
   </trkpt>
   <trkpt lat="-3.0884410" lon="37.3719180">
    <ele>5074.2</ele>
    <time>2026-06-22T23:59:40Z</time>
   </trkpt>
   <trkpt lat="-3.0884410" lon="37.3719180">
    <ele>5074.2</ele>
    <time>2026-06-22T23:59:41Z</time>
   </trkpt>
   <trkpt lat="-3.0884420" lon="37.3719180">
    <ele>5074.2</ele>
    <time>2026-06-22T23:59:42Z</time>
   </trkpt>
   <trkpt lat="-3.0884420" lon="37.3719170">
    <ele>5074.2</ele>
    <time>2026-06-22T23:59:43Z</time>
   </trkpt>
   <trkpt lat="-3.0884420" lon="37.3719180">
    <ele>5074.3</ele>
    <time>2026-06-22T23:59:44Z</time>
   </trkpt>
   <trkpt lat="-3.0884430" lon="37.3719170">
    <ele>5074.3</ele>
    <time>2026-06-22T23:59:45Z</time>
   </trkpt>
   <trkpt lat="-3.0884420" lon="37.3719170">
    <ele>5074.3</ele>
    <time>2026-06-22T23:59:46Z</time>
   </trkpt>
   <trkpt lat="-3.0884430" lon="37.3719170">
    <ele>5074.3</ele>
    <time>2026-06-22T23:59:47Z</time>
   </trkpt>
   <trkpt lat="-3.0884420" lon="37.3719140">
    <ele>5074.4</ele>
    <time>2026-06-22T23:59:48Z</time>
   </trkpt>
   <trkpt lat="-3.0884450" lon="37.3719140">
    <ele>5074.5</ele>
    <time>2026-06-22T23:59:49Z</time>
   </trkpt>
   <trkpt lat="-3.0884480" lon="37.3719110">
    <ele>5074.5</ele>
    <time>2026-06-22T23:59:50Z</time>
   </trkpt>
   <trkpt lat="-3.0884510" lon="37.3719080">
    <ele>5074.6</ele>
    <time>2026-06-22T23:59:51Z</time>
   </trkpt>
   <trkpt lat="-3.0884530" lon="37.3719080">
    <ele>5074.7</ele>
    <time>2026-06-22T23:59:52Z</time>
   </trkpt>
   <trkpt lat="-3.0884560" lon="37.3719030">
    <ele>5074.8</ele>
    <time>2026-06-22T23:59:53Z</time>
   </trkpt>
   <trkpt lat="-3.0884590" lon="37.3719010">
    <ele>5074.9</ele>
    <time>2026-06-22T23:59:54Z</time>
   </trkpt>
   <trkpt lat="-3.0884600" lon="37.3718980">
    <ele>5074.9</ele>
    <time>2026-06-22T23:59:55Z</time>
   </trkpt>
   <trkpt lat="-3.0884630" lon="37.3718970">
    <ele>5075.0</ele>
    <time>2026-06-22T23:59:56Z</time>
   </trkpt>
   <trkpt lat="-3.0884650" lon="37.3718950">
    <ele>5075.0</ele>
    <time>2026-06-22T23:59:57Z</time>
   </trkpt>
   <trkpt lat="-3.0884640" lon="37.3718910">
    <ele>5075.1</ele>
    <time>2026-06-22T23:59:58Z</time>
   </trkpt>
   <trkpt lat="-3.0884680" lon="37.3718900">
    <ele>5075.2</ele>
    <time>2026-06-22T23:59:59Z</time>
   </trkpt>
   <trkpt lat="-3.0884690" lon="37.3718870">
    <ele>5075.3</ele>
    <time>2026-06-23T00:00:00Z</time>
   </trkpt>
   <trkpt lat="-3.0884720" lon="37.3718840">
    <ele>5075.4</ele>
    <time>2026-06-23T00:00:01Z</time>
   </trkpt>
   <trkpt lat="-3.0884720" lon="37.3718820">
    <ele>5075.4</ele>
    <time>2026-06-23T00:00:02Z</time>
   </trkpt>
   <trkpt lat="-3.0884750" lon="37.3718800">
    <ele>5075.5</ele>
    <time>2026-06-23T00:00:03Z</time>
   </trkpt>
   <trkpt lat="-3.0884760" lon="37.3718770">
    <ele>5075.5</ele>
    <time>2026-06-23T00:00:04Z</time>
   </trkpt>
   <trkpt lat="-3.0884800" lon="37.3718740">
    <ele>5075.6</ele>
    <time>2026-06-23T00:00:05Z</time>
   </trkpt>
   <trkpt lat="-3.0884810" lon="37.3718710">
    <ele>5075.7</ele>
    <time>2026-06-23T00:00:06Z</time>
   </trkpt>
   <trkpt lat="-3.0884840" lon="37.3718690">
    <ele>5075.8</ele>
    <time>2026-06-23T00:00:07Z</time>
   </trkpt>
   <trkpt lat="-3.0884860" lon="37.3718650">
    <ele>5075.9</ele>
    <time>2026-06-23T00:00:08Z</time>
   </trkpt>
   <trkpt lat="-3.0884860" lon="37.3718620">
    <ele>5075.9</ele>
    <time>2026-06-23T00:00:09Z</time>
   </trkpt>
   <trkpt lat="-3.0884890" lon="37.3718600">
    <ele>5076.0</ele>
    <time>2026-06-23T00:00:10Z</time>
   </trkpt>
   <trkpt lat="-3.0884920" lon="37.3718570">
    <ele>5076.1</ele>
    <time>2026-06-23T00:00:11Z</time>
   </trkpt>
   <trkpt lat="-3.0884950" lon="37.3718560">
    <ele>5076.1</ele>
    <time>2026-06-23T00:00:12Z</time>
   </trkpt>
   <trkpt lat="-3.0884940" lon="37.3718540">
    <ele>5076.2</ele>
    <time>2026-06-23T00:00:13Z</time>
   </trkpt>
   <trkpt lat="-3.0884960" lon="37.3718510">
    <ele>5076.3</ele>
    <time>2026-06-23T00:00:14Z</time>
   </trkpt>
   <trkpt lat="-3.0884980" lon="37.3718500">
    <ele>5076.3</ele>
    <time>2026-06-23T00:00:15Z</time>
   </trkpt>
   <trkpt lat="-3.0885010" lon="37.3718500">
    <ele>5076.4</ele>
    <time>2026-06-23T00:00:16Z</time>
   </trkpt>
   <trkpt lat="-3.0884990" lon="37.3718460">
    <ele>5076.5</ele>
    <time>2026-06-23T00:00:17Z</time>
   </trkpt>
   <trkpt lat="-3.0884940" lon="37.3718410">
    <ele>5076.6</ele>
    <time>2026-06-23T00:00:18Z</time>
   </trkpt>
   <trkpt lat="-3.0884980" lon="37.3718400">
    <ele>5076.7</ele>
    <time>2026-06-23T00:00:19Z</time>
   </trkpt>
   <trkpt lat="-3.0884980" lon="37.3718360">
    <ele>5076.8</ele>
    <time>2026-06-23T00:00:20Z</time>
   </trkpt>
   <trkpt lat="-3.0884970" lon="37.3718330">
    <ele>5076.8</ele>
    <time>2026-06-23T00:00:21Z</time>
   </trkpt>
   <trkpt lat="-3.0884960" lon="37.3718320">
    <ele>5076.9</ele>
    <time>2026-06-23T00:00:22Z</time>
   </trkpt>
   <trkpt lat="-3.0884970" lon="37.3718310">
    <ele>5076.9</ele>
    <time>2026-06-23T00:00:23Z</time>
   </trkpt>
   <trkpt lat="-3.0884940" lon="37.3718260">
    <ele>5077.0</ele>
    <time>2026-06-23T00:00:24Z</time>
   </trkpt>
   <trkpt lat="-3.0884930" lon="37.3718250">
    <ele>5077.0</ele>
    <time>2026-06-23T00:00:25Z</time>
   </trkpt>
   <trkpt lat="-3.0884920" lon="37.3718270">
    <ele>5077.1</ele>
    <time>2026-06-23T00:00:26Z</time>
   </trkpt>
   <trkpt lat="-3.0884890" lon="37.3718270">
    <ele>5077.1</ele>
    <time>2026-06-23T00:00:27Z</time>
   </trkpt>
   <trkpt lat="-3.0884860" lon="37.3718280">
    <ele>5077.2</ele>
    <time>2026-06-23T00:00:28Z</time>
   </trkpt>
   <trkpt lat="-3.0884870" lon="37.3718280">
    <ele>5077.2</ele>
    <time>2026-06-23T00:00:29Z</time>
   </trkpt>
   <trkpt lat="-3.0884840" lon="37.3718290">
    <ele>5077.3</ele>
    <time>2026-06-23T00:00:30Z</time>
   </trkpt>
   <trkpt lat="-3.0884810" lon="37.3718290">
    <ele>5077.3</ele>
    <time>2026-06-23T00:00:31Z</time>
   </trkpt>
   <trkpt lat="-3.0884790" lon="37.3718300">
    <ele>5077.4</ele>
    <time>2026-06-23T00:00:32Z</time>
   </trkpt>
   <trkpt lat="-3.0884730" lon="37.3718300">
    <ele>5077.5</ele>
    <time>2026-06-23T00:00:33Z</time>
   </trkpt>
   <trkpt lat="-3.0884730" lon="37.3718320">
    <ele>5077.6</ele>
    <time>2026-06-23T00:00:34Z</time>
   </trkpt>
   <trkpt lat="-3.0884680" lon="37.3718310">
    <ele>5077.7</ele>
    <time>2026-06-23T00:00:35Z</time>
   </trkpt>
   <trkpt lat="-3.0884660" lon="37.3718310">
    <ele>5077.7</ele>
    <time>2026-06-23T00:00:36Z</time>
   </trkpt>
   <trkpt lat="-3.0884640" lon="37.3718310">
    <ele>5077.7</ele>
    <time>2026-06-23T00:00:37Z</time>
   </trkpt>
   <trkpt lat="-3.0884600" lon="37.3718310">
    <ele>5077.8</ele>
    <time>2026-06-23T00:00:38Z</time>
   </trkpt>
   <trkpt lat="-3.0884580" lon="37.3718300">
    <ele>5077.9</ele>
    <time>2026-06-23T00:00:39Z</time>
   </trkpt>
   <trkpt lat="-3.0884560" lon="37.3718300">
    <ele>5077.9</ele>
    <time>2026-06-23T00:00:40Z</time>
   </trkpt>
   <trkpt lat="-3.0884530" lon="37.3718280">
    <ele>5078.0</ele>
    <time>2026-06-23T00:00:41Z</time>
   </trkpt>
   <trkpt lat="-3.0884500" lon="37.3718290">
    <ele>5078.0</ele>
    <time>2026-06-23T00:00:42Z</time>
   </trkpt>
   <trkpt lat="-3.0884460" lon="37.3718270">
    <ele>5078.1</ele>
    <time>2026-06-23T00:00:43Z</time>
   </trkpt>
   <trkpt lat="-3.0884440" lon="37.3718270">
    <ele>5078.2</ele>
    <time>2026-06-23T00:00:44Z</time>
   </trkpt>
   <trkpt lat="-3.0884420" lon="37.3718260">
    <ele>5078.2</ele>
    <time>2026-06-23T00:00:45Z</time>
   </trkpt>
   <trkpt lat="-3.0884420" lon="37.3718260">
    <ele>5078.2</ele>
    <time>2026-06-23T00:00:46Z</time>
   </trkpt>
   <trkpt lat="-3.0884390" lon="37.3718230">
    <ele>5078.3</ele>
    <time>2026-06-23T00:00:47Z</time>
   </trkpt>
   <trkpt lat="-3.0884380" lon="37.3718230">
    <ele>5078.3</ele>
    <time>2026-06-23T00:00:48Z</time>
   </trkpt>
   <trkpt lat="-3.0884360" lon="37.3718220">
    <ele>5078.4</ele>
    <time>2026-06-23T00:00:49Z</time>
   </trkpt>
   <trkpt lat="-3.0884340" lon="37.3718220">
    <ele>5078.4</ele>
    <time>2026-06-23T00:00:50Z</time>
   </trkpt>
   <trkpt lat="-3.0884300" lon="37.3718220">
    <ele>5078.5</ele>
    <time>2026-06-23T00:00:51Z</time>
   </trkpt>
   <trkpt lat="-3.0884290" lon="37.3718250">
    <ele>5078.5</ele>
    <time>2026-06-23T00:00:52Z</time>
   </trkpt>
   <trkpt lat="-3.0884250" lon="37.3718250">
    <ele>5078.6</ele>
    <time>2026-06-23T00:00:53Z</time>
   </trkpt>
   <trkpt lat="-3.0884240" lon="37.3718250">
    <ele>5078.7</ele>
    <time>2026-06-23T00:00:54Z</time>
   </trkpt>
   <trkpt lat="-3.0884210" lon="37.3718240">
    <ele>5078.7</ele>
    <time>2026-06-23T00:00:55Z</time>
   </trkpt>
   <trkpt lat="-3.0884190" lon="37.3718240">
    <ele>5078.8</ele>
    <time>2026-06-23T00:00:56Z</time>
   </trkpt>
   <trkpt lat="-3.0884190" lon="37.3718230">
    <ele>5078.8</ele>
    <time>2026-06-23T00:00:57Z</time>
   </trkpt>
   <trkpt lat="-3.0884180" lon="37.3718230">
    <ele>5078.8</ele>
    <time>2026-06-23T00:00:58Z</time>
   </trkpt>
   <trkpt lat="-3.0884170" lon="37.3718190">
    <ele>5078.9</ele>
    <time>2026-06-23T00:00:59Z</time>
   </trkpt>
   <trkpt lat="-3.0884170" lon="37.3718180">
    <ele>5078.9</ele>
    <time>2026-06-23T00:01:00Z</time>
   </trkpt>
   <trkpt lat="-3.0884160" lon="37.3718150">
    <ele>5079.0</ele>
    <time>2026-06-23T00:01:01Z</time>
   </trkpt>
   <trkpt lat="-3.0884160" lon="37.3718120">
    <ele>5079.0</ele>
    <time>2026-06-23T00:01:02Z</time>
   </trkpt>
   <trkpt lat="-3.0884160" lon="37.3718130">
    <ele>5079.0</ele>
    <time>2026-06-23T00:01:03Z</time>
   </trkpt>
   <trkpt lat="-3.0884160" lon="37.3718090">
    <ele>5079.1</ele>
    <time>2026-06-23T00:01:04Z</time>
   </trkpt>
   <trkpt lat="-3.0884190" lon="37.3718090">
    <ele>5079.2</ele>
    <time>2026-06-23T00:01:05Z</time>
   </trkpt>
   <trkpt lat="-3.0884200" lon="37.3718070">
    <ele>5079.2</ele>
    <time>2026-06-23T00:01:06Z</time>
   </trkpt>
   <trkpt lat="-3.0884210" lon="37.3718060">
    <ele>5079.3</ele>
    <time>2026-06-23T00:01:07Z</time>
   </trkpt>
   <trkpt lat="-3.0884210" lon="37.3718030">
    <ele>5079.3</ele>
    <time>2026-06-23T00:01:08Z</time>
   </trkpt>
   <trkpt lat="-3.0884210" lon="37.3718010">
    <ele>5079.4</ele>
    <time>2026-06-23T00:01:09Z</time>
   </trkpt>
   <trkpt lat="-3.0884200" lon="37.3718000">
    <ele>5079.4</ele>
    <time>2026-06-23T00:01:10Z</time>
   </trkpt>
   <trkpt lat="-3.0884190" lon="37.3717970">
    <ele>5079.4</ele>
    <time>2026-06-23T00:01:11Z</time>
   </trkpt>
   <trkpt lat="-3.0884190" lon="37.3717930">
    <ele>5079.5</ele>
    <time>2026-06-23T00:01:12Z</time>
   </trkpt>
   <trkpt lat="-3.0884200" lon="37.3717930">
    <ele>5079.5</ele>
    <time>2026-06-23T00:01:13Z</time>
   </trkpt>
   <trkpt lat="-3.0884230" lon="37.3717880">
    <ele>5079.7</ele>
    <time>2026-06-23T00:01:14Z</time>
   </trkpt>
   <trkpt lat="-3.0884250" lon="37.3717890">
    <ele>5079.7</ele>
    <time>2026-06-23T00:01:15Z</time>
   </trkpt>
   <trkpt lat="-3.0884260" lon="37.3717850">
    <ele>5079.8</ele>
    <time>2026-06-23T00:01:16Z</time>
   </trkpt>
   <trkpt lat="-3.0884280" lon="37.3717840">
    <ele>5079.8</ele>
    <time>2026-06-23T00:01:17Z</time>
   </trkpt>
   <trkpt lat="-3.0884300" lon="37.3717820">
    <ele>5079.9</ele>
    <time>2026-06-23T00:01:18Z</time>
   </trkpt>
   <trkpt lat="-3.0884300" lon="37.3717800">
    <ele>5079.9</ele>
    <time>2026-06-23T00:01:19Z</time>
   </trkpt>
   <trkpt lat="-3.0884330" lon="37.3717790">
    <ele>5080.0</ele>
    <time>2026-06-23T00:01:20Z</time>
   </trkpt>
   <trkpt lat="-3.0884380" lon="37.3717780">
    <ele>5080.1</ele>
    <time>2026-06-23T00:01:21Z</time>
   </trkpt>
   <trkpt lat="-3.0884400" lon="37.3717770">
    <ele>5080.1</ele>
    <time>2026-06-23T00:01:22Z</time>
   </trkpt>
   <trkpt lat="-3.0884420" lon="37.3717750">
    <ele>5080.2</ele>
    <time>2026-06-23T00:01:23Z</time>
   </trkpt>
   <trkpt lat="-3.0884450" lon="37.3717730">
    <ele>5080.3</ele>
    <time>2026-06-23T00:01:24Z</time>
   </trkpt>
   <trkpt lat="-3.0884480" lon="37.3717710">
    <ele>5080.4</ele>
    <time>2026-06-23T00:01:25Z</time>
   </trkpt>
   <trkpt lat="-3.0884510" lon="37.3717690">
    <ele>5080.4</ele>
    <time>2026-06-23T00:01:26Z</time>
   </trkpt>
   <trkpt lat="-3.0884530" lon="37.3717680">
    <ele>5080.5</ele>
    <time>2026-06-23T00:01:27Z</time>
   </trkpt>
   <trkpt lat="-3.0884550" lon="37.3717650">
    <ele>5080.5</ele>
    <time>2026-06-23T00:01:28Z</time>
   </trkpt>
   <trkpt lat="-3.0884570" lon="37.3717590">
    <ele>5080.7</ele>
    <time>2026-06-23T00:01:29Z</time>
   </trkpt>
   <trkpt lat="-3.0884570" lon="37.3717600">
    <ele>5080.7</ele>
    <time>2026-06-23T00:01:30Z</time>
   </trkpt>
   <trkpt lat="-3.0884570" lon="37.3717590">
    <ele>5080.7</ele>
    <time>2026-06-23T00:01:31Z</time>
   </trkpt>
   <trkpt lat="-3.0884570" lon="37.3717600">
    <ele>5080.7</ele>
    <time>2026-06-23T00:01:32Z</time>
   </trkpt>
   <trkpt lat="-3.0884560" lon="37.3717530">
    <ele>5080.9</ele>
    <time>2026-06-23T00:01:33Z</time>
   </trkpt>
   <trkpt lat="-3.0884560" lon="37.3717520">
    <ele>5080.9</ele>
    <time>2026-06-23T00:01:34Z</time>
   </trkpt>
   <trkpt lat="-3.0884520" lon="37.3717490">
    <ele>5081.0</ele>
    <time>2026-06-23T00:01:35Z</time>
   </trkpt>
   <trkpt lat="-3.0884520" lon="37.3717500">
    <ele>5081.0</ele>
    <time>2026-06-23T00:01:36Z</time>
   </trkpt>
   <trkpt lat="-3.0884480" lon="37.3717500">
    <ele>5081.1</ele>
    <time>2026-06-23T00:01:37Z</time>
   </trkpt>
   <trkpt lat="-3.0884460" lon="37.3717510">
    <ele>5081.2</ele>
    <time>2026-06-23T00:01:38Z</time>
   </trkpt>
   <trkpt lat="-3.0884430" lon="37.3717520">
    <ele>5081.2</ele>
    <time>2026-06-23T00:01:39Z</time>
   </trkpt>
   <trkpt lat="-3.0884400" lon="37.3717540">
    <ele>5081.3</ele>
    <time>2026-06-23T00:01:40Z</time>
   </trkpt>
   <trkpt lat="-3.0884390" lon="37.3717540">
    <ele>5081.3</ele>
    <time>2026-06-23T00:01:41Z</time>
   </trkpt>
   <trkpt lat="-3.0884370" lon="37.3717550">
    <ele>5081.4</ele>
    <time>2026-06-23T00:01:42Z</time>
   </trkpt>
   <trkpt lat="-3.0884330" lon="37.3717540">
    <ele>5081.4</ele>
    <time>2026-06-23T00:01:43Z</time>
   </trkpt>
   <trkpt lat="-3.0884330" lon="37.3717560">
    <ele>5081.5</ele>
    <time>2026-06-23T00:01:44Z</time>
   </trkpt>
   <trkpt lat="-3.0884310" lon="37.3717540">
    <ele>5081.5</ele>
    <time>2026-06-23T00:01:45Z</time>
   </trkpt>
   <trkpt lat="-3.0884310" lon="37.3717530">
    <ele>5081.6</ele>
    <time>2026-06-23T00:01:46Z</time>
   </trkpt>
   <trkpt lat="-3.0884320" lon="37.3717540">
    <ele>5081.6</ele>
    <time>2026-06-23T00:01:47Z</time>
   </trkpt>
   <trkpt lat="-3.0884260" lon="37.3717530">
    <ele>5081.7</ele>
    <time>2026-06-23T00:01:48Z</time>
   </trkpt>
   <trkpt lat="-3.0884220" lon="37.3717490">
    <ele>5081.8</ele>
    <time>2026-06-23T00:01:49Z</time>
   </trkpt>
   <trkpt lat="-3.0884200" lon="37.3717500">
    <ele>5081.9</ele>
    <time>2026-06-23T00:01:50Z</time>
   </trkpt>
   <trkpt lat="-3.0884170" lon="37.3717480">
    <ele>5082.0</ele>
    <time>2026-06-23T00:01:51Z</time>
   </trkpt>
   <trkpt lat="-3.0884150" lon="37.3717470">
    <ele>5082.0</ele>
    <time>2026-06-23T00:01:52Z</time>
   </trkpt>
   <trkpt lat="-3.0884130" lon="37.3717450">
    <ele>5082.1</ele>
    <time>2026-06-23T00:01:53Z</time>
   </trkpt>
   <trkpt lat="-3.0884110" lon="37.3717430">
    <ele>5082.1</ele>
    <time>2026-06-23T00:01:54Z</time>
   </trkpt>
   <trkpt lat="-3.0884080" lon="37.3717410">
    <ele>5082.2</ele>
    <time>2026-06-23T00:01:55Z</time>
   </trkpt>
   <trkpt lat="-3.0884060" lon="37.3717430">
    <ele>5082.3</ele>
    <time>2026-06-23T00:01:56Z</time>
   </trkpt>
   <trkpt lat="-3.0884010" lon="37.3717420">
    <ele>5082.4</ele>
    <time>2026-06-23T00:01:57Z</time>
   </trkpt>
   <trkpt lat="-3.0883990" lon="37.3717440">
    <ele>5082.4</ele>
    <time>2026-06-23T00:01:58Z</time>
   </trkpt>
   <trkpt lat="-3.0883970" lon="37.3717410">
    <ele>5082.5</ele>
    <time>2026-06-23T00:01:59Z</time>
   </trkpt>
   <trkpt lat="-3.0883940" lon="37.3717420">
    <ele>5082.6</ele>
    <time>2026-06-23T00:02:00Z</time>
   </trkpt>
   <trkpt lat="-3.0883900" lon="37.3717390">
    <ele>5082.7</ele>
    <time>2026-06-23T00:02:01Z</time>
   </trkpt>
   <trkpt lat="-3.0883900" lon="37.3717360">
    <ele>5082.7</ele>
    <time>2026-06-23T00:02:02Z</time>
   </trkpt>
   <trkpt lat="-3.0883900" lon="37.3717340">
    <ele>5082.8</ele>
    <time>2026-06-23T00:02:03Z</time>
   </trkpt>
   <trkpt lat="-3.0883880" lon="37.3717300">
    <ele>5082.9</ele>
    <time>2026-06-23T00:02:04Z</time>
   </trkpt>
   <trkpt lat="-3.0883870" lon="37.3717280">
    <ele>5082.9</ele>
    <time>2026-06-23T00:02:05Z</time>
   </trkpt>
   <trkpt lat="-3.0883860" lon="37.3717240">
    <ele>5083.0</ele>
    <time>2026-06-23T00:02:06Z</time>
   </trkpt>
   <trkpt lat="-3.0883880" lon="37.3717220">
    <ele>5083.1</ele>
    <time>2026-06-23T00:02:07Z</time>
   </trkpt>
   <trkpt lat="-3.0883910" lon="37.3717200">
    <ele>5083.1</ele>
    <time>2026-06-23T00:02:08Z</time>
   </trkpt>
   <trkpt lat="-3.0883920" lon="37.3717190">
    <ele>5083.2</ele>
    <time>2026-06-23T00:02:09Z</time>
   </trkpt>
   <trkpt lat="-3.0883980" lon="37.3717190">
    <ele>5083.3</ele>
    <time>2026-06-23T00:02:10Z</time>
   </trkpt>
   <trkpt lat="-3.0883990" lon="37.3717160">
    <ele>5083.4</ele>
    <time>2026-06-23T00:02:11Z</time>
   </trkpt>
   <trkpt lat="-3.0884010" lon="37.3717120">
    <ele>5083.4</ele>
    <time>2026-06-23T00:02:12Z</time>
   </trkpt>
   <trkpt lat="-3.0884020" lon="37.3717100">
    <ele>5083.5</ele>
    <time>2026-06-23T00:02:13Z</time>
   </trkpt>
   <trkpt lat="-3.0884010" lon="37.3717090">
    <ele>5083.5</ele>
    <time>2026-06-23T00:02:14Z</time>
   </trkpt>
   <trkpt lat="-3.0884020" lon="37.3717040">
    <ele>5083.6</ele>
    <time>2026-06-23T00:02:15Z</time>
   </trkpt>
   <trkpt lat="-3.0884030" lon="37.3717010">
    <ele>5083.7</ele>
    <time>2026-06-23T00:02:16Z</time>
   </trkpt>
   <trkpt lat="-3.0884060" lon="37.3717000">
    <ele>5083.8</ele>
    <time>2026-06-23T00:02:17Z</time>
   </trkpt>
   <trkpt lat="-3.0884100" lon="37.3717010">
    <ele>5083.8</ele>
    <time>2026-06-23T00:02:18Z</time>
   </trkpt>
   <trkpt lat="-3.0884130" lon="37.3716970">
    <ele>5083.9</ele>
    <time>2026-06-23T00:02:19Z</time>
   </trkpt>
   <trkpt lat="-3.0884130" lon="37.3716960">
    <ele>5084.0</ele>
    <time>2026-06-23T00:02:20Z</time>
   </trkpt>
   <trkpt lat="-3.0884160" lon="37.3716950">
    <ele>5084.0</ele>
    <time>2026-06-23T00:02:21Z</time>
   </trkpt>
   <trkpt lat="-3.0884170" lon="37.3716930">
    <ele>5084.1</ele>
    <time>2026-06-23T00:02:22Z</time>
   </trkpt>
   <trkpt lat="-3.0884180" lon="37.3716900">
    <ele>5084.1</ele>
    <time>2026-06-23T00:02:23Z</time>
   </trkpt>
   <trkpt lat="-3.0884150" lon="37.3716860">
    <ele>5084.2</ele>
    <time>2026-06-23T00:02:24Z</time>
   </trkpt>
   <trkpt lat="-3.0884140" lon="37.3716850">
    <ele>5084.3</ele>
    <time>2026-06-23T00:02:25Z</time>
   </trkpt>
   <trkpt lat="-3.0884120" lon="37.3716840">
    <ele>5084.3</ele>
    <time>2026-06-23T00:02:26Z</time>
   </trkpt>
   <trkpt lat="-3.0884110" lon="37.3716810">
    <ele>5084.4</ele>
    <time>2026-06-23T00:02:27Z</time>
   </trkpt>
   <trkpt lat="-3.0884100" lon="37.3716800">
    <ele>5084.4</ele>
    <time>2026-06-23T00:02:28Z</time>
   </trkpt>
   <trkpt lat="-3.0884070" lon="37.3716790">
    <ele>5084.5</ele>
    <time>2026-06-23T00:02:29Z</time>
   </trkpt>
   <trkpt lat="-3.0884040" lon="37.3716780">
    <ele>5084.6</ele>
    <time>2026-06-23T00:02:30Z</time>
   </trkpt>
   <trkpt lat="-3.0884030" lon="37.3716780">
    <ele>5084.6</ele>
    <time>2026-06-23T00:02:31Z</time>
   </trkpt>
   <trkpt lat="-3.0884000" lon="37.3716740">
    <ele>5084.7</ele>
    <time>2026-06-23T00:02:32Z</time>
   </trkpt>
   <trkpt lat="-3.0884000" lon="37.3716710">
    <ele>5084.7</ele>
    <time>2026-06-23T00:02:33Z</time>
   </trkpt>
   <trkpt lat="-3.0883970" lon="37.3716670">
    <ele>5084.8</ele>
    <time>2026-06-23T00:02:34Z</time>
   </trkpt>
   <trkpt lat="-3.0884000" lon="37.3716660">
    <ele>5084.9</ele>
    <time>2026-06-23T00:02:35Z</time>
   </trkpt>
   <trkpt lat="-3.0884000" lon="37.3716640">
    <ele>5085.0</ele>
    <time>2026-06-23T00:02:36Z</time>
   </trkpt>
   <trkpt lat="-3.0884000" lon="37.3716650">
    <ele>5085.0</ele>
    <time>2026-06-23T00:02:37Z</time>
   </trkpt>
   <trkpt lat="-3.0884020" lon="37.3716600">
    <ele>5085.1</ele>
    <time>2026-06-23T00:02:38Z</time>
   </trkpt>
   <trkpt lat="-3.0884040" lon="37.3716580">
    <ele>5085.1</ele>
    <time>2026-06-23T00:02:39Z</time>
   </trkpt>
   <trkpt lat="-3.0884040" lon="37.3716590">
    <ele>5085.2</ele>
    <time>2026-06-23T00:02:40Z</time>
   </trkpt>
   <trkpt lat="-3.0884050" lon="37.3716570">
    <ele>5085.2</ele>
    <time>2026-06-23T00:02:41Z</time>
   </trkpt>
   <trkpt lat="-3.0884050" lon="37.3716560">
    <ele>5085.2</ele>
    <time>2026-06-23T00:02:42Z</time>
   </trkpt>
   <trkpt lat="-3.0884050" lon="37.3716520">
    <ele>5085.3</ele>
    <time>2026-06-23T00:02:43Z</time>
   </trkpt>
   <trkpt lat="-3.0884040" lon="37.3716510">
    <ele>5085.3</ele>
    <time>2026-06-23T00:02:44Z</time>
   </trkpt>
   <trkpt lat="-3.0884010" lon="37.3716480">
    <ele>5085.4</ele>
    <time>2026-06-23T00:02:45Z</time>
   </trkpt>
   <trkpt lat="-3.0883980" lon="37.3716460">
    <ele>5085.5</ele>
    <time>2026-06-23T00:02:46Z</time>
   </trkpt>
   <trkpt lat="-3.0883960" lon="37.3716470">
    <ele>5085.6</ele>
    <time>2026-06-23T00:02:47Z</time>
   </trkpt>
   <trkpt lat="-3.0883940" lon="37.3716460">
    <ele>5085.6</ele>
    <time>2026-06-23T00:02:48Z</time>
   </trkpt>
   <trkpt lat="-3.0883900" lon="37.3716410">
    <ele>5085.7</ele>
    <time>2026-06-23T00:02:49Z</time>
   </trkpt>
   <trkpt lat="-3.0883900" lon="37.3716390">
    <ele>5085.8</ele>
    <time>2026-06-23T00:02:50Z</time>
   </trkpt>
   <trkpt lat="-3.0883900" lon="37.3716370">
    <ele>5085.8</ele>
    <time>2026-06-23T00:02:51Z</time>
   </trkpt>
   <trkpt lat="-3.0883900" lon="37.3716350">
    <ele>5085.9</ele>
    <time>2026-06-23T00:02:52Z</time>
   </trkpt>
   <trkpt lat="-3.0883920" lon="37.3716340">
    <ele>5085.9</ele>
    <time>2026-06-23T00:02:53Z</time>
   </trkpt>
   <trkpt lat="-3.0883920" lon="37.3716310">
    <ele>5086.0</ele>
    <time>2026-06-23T00:02:54Z</time>
   </trkpt>
   <trkpt lat="-3.0883930" lon="37.3716260">
    <ele>5086.1</ele>
    <time>2026-06-23T00:02:55Z</time>
   </trkpt>
   <trkpt lat="-3.0883940" lon="37.3716260">
    <ele>5086.1</ele>
    <time>2026-06-23T00:02:56Z</time>
   </trkpt>
   <trkpt lat="-3.0883940" lon="37.3716220">
    <ele>5086.2</ele>
    <time>2026-06-23T00:02:57Z</time>
   </trkpt>
   <trkpt lat="-3.0883940" lon="37.3716200">
    <ele>5086.2</ele>
    <time>2026-06-23T00:02:58Z</time>
   </trkpt>
   <trkpt lat="-3.0883940" lon="37.3716170">
    <ele>5086.3</ele>
    <time>2026-06-23T00:02:59Z</time>
   </trkpt>
   <trkpt lat="-3.0883930" lon="37.3716150">
    <ele>5086.3</ele>
    <time>2026-06-23T00:03:00Z</time>
   </trkpt>
   <trkpt lat="-3.0883930" lon="37.3716110">
    <ele>5086.4</ele>
    <time>2026-06-23T00:03:01Z</time>
   </trkpt>
   <trkpt lat="-3.0883920" lon="37.3716090">
    <ele>5086.5</ele>
    <time>2026-06-23T00:03:02Z</time>
   </trkpt>
   <trkpt lat="-3.0883890" lon="37.3716080">
    <ele>5086.5</ele>
    <time>2026-06-23T00:03:03Z</time>
   </trkpt>
   <trkpt lat="-3.0883870" lon="37.3716080">
    <ele>5086.6</ele>
    <time>2026-06-23T00:03:04Z</time>
   </trkpt>
   <trkpt lat="-3.0883850" lon="37.3716090">
    <ele>5086.6</ele>
    <time>2026-06-23T00:03:05Z</time>
   </trkpt>
   <trkpt lat="-3.0883820" lon="37.3716090">
    <ele>5086.7</ele>
    <time>2026-06-23T00:03:06Z</time>
   </trkpt>
   <trkpt lat="-3.0883810" lon="37.3716110">
    <ele>5086.7</ele>
    <time>2026-06-23T00:03:07Z</time>
   </trkpt>
   <trkpt lat="-3.0883770" lon="37.3716110">
    <ele>5086.8</ele>
    <time>2026-06-23T00:03:08Z</time>
   </trkpt>
   <trkpt lat="-3.0883760" lon="37.3716140">
    <ele>5086.9</ele>
    <time>2026-06-23T00:03:09Z</time>
   </trkpt>
   <trkpt lat="-3.0883730" lon="37.3716150">
    <ele>5086.9</ele>
    <time>2026-06-23T00:03:10Z</time>
   </trkpt>
   <trkpt lat="-3.0883710" lon="37.3716190">
    <ele>5087.0</ele>
    <time>2026-06-23T00:03:11Z</time>
   </trkpt>
   <trkpt lat="-3.0883670" lon="37.3716190">
    <ele>5087.1</ele>
    <time>2026-06-23T00:03:12Z</time>
   </trkpt>
   <trkpt lat="-3.0883650" lon="37.3716210">
    <ele>5087.2</ele>
    <time>2026-06-23T00:03:13Z</time>
   </trkpt>
   <trkpt lat="-3.0883640" lon="37.3716220">
    <ele>5087.2</ele>
    <time>2026-06-23T00:03:14Z</time>
   </trkpt>
   <trkpt lat="-3.0883620" lon="37.3716230">
    <ele>5087.2</ele>
    <time>2026-06-23T00:03:15Z</time>
   </trkpt>
   <trkpt lat="-3.0883590" lon="37.3716250">
    <ele>5087.3</ele>
    <time>2026-06-23T00:03:16Z</time>
   </trkpt>
   <trkpt lat="-3.0883570" lon="37.3716260">
    <ele>5087.4</ele>
    <time>2026-06-23T00:03:17Z</time>
   </trkpt>
   <trkpt lat="-3.0883550" lon="37.3716280">
    <ele>5087.4</ele>
    <time>2026-06-23T00:03:18Z</time>
   </trkpt>
   <trkpt lat="-3.0883530" lon="37.3716270">
    <ele>5087.5</ele>
    <time>2026-06-23T00:03:19Z</time>
   </trkpt>
   <trkpt lat="-3.0883500" lon="37.3716300">
    <ele>5087.6</ele>
    <time>2026-06-23T00:03:20Z</time>
   </trkpt>
   <trkpt lat="-3.0883480" lon="37.3716290">
    <ele>5087.6</ele>
    <time>2026-06-23T00:03:21Z</time>
   </trkpt>
   <trkpt lat="-3.0883460" lon="37.3716320">
    <ele>5087.7</ele>
    <time>2026-06-23T00:03:22Z</time>
   </trkpt>
   <trkpt lat="-3.0883440" lon="37.3716340">
    <ele>5087.7</ele>
    <time>2026-06-23T00:03:23Z</time>
   </trkpt>
   <trkpt lat="-3.0883430" lon="37.3716360">
    <ele>5087.8</ele>
    <time>2026-06-23T00:03:24Z</time>
   </trkpt>
   <trkpt lat="-3.0883400" lon="37.3716390">
    <ele>5087.9</ele>
    <time>2026-06-23T00:03:25Z</time>
   </trkpt>
   <trkpt lat="-3.0883370" lon="37.3716400">
    <ele>5087.9</ele>
    <time>2026-06-23T00:03:26Z</time>
   </trkpt>
   <trkpt lat="-3.0883340" lon="37.3716400">
    <ele>5088.0</ele>
    <time>2026-06-23T00:03:27Z</time>
   </trkpt>
   <trkpt lat="-3.0883320" lon="37.3716410">
    <ele>5088.0</ele>
    <time>2026-06-23T00:03:28Z</time>
   </trkpt>
   <trkpt lat="-3.0883290" lon="37.3716380">
    <ele>5088.1</ele>
    <time>2026-06-23T00:03:29Z</time>
   </trkpt>
   <trkpt lat="-3.0883260" lon="37.3716370">
    <ele>5088.2</ele>
    <time>2026-06-23T00:03:30Z</time>
   </trkpt>
   <trkpt lat="-3.0883250" lon="37.3716350">
    <ele>5088.3</ele>
    <time>2026-06-23T00:03:31Z</time>
   </trkpt>
   <trkpt lat="-3.0883240" lon="37.3716320">
    <ele>5088.3</ele>
    <time>2026-06-23T00:03:32Z</time>
   </trkpt>
   <trkpt lat="-3.0883220" lon="37.3716300">
    <ele>5088.4</ele>
    <time>2026-06-23T00:03:33Z</time>
   </trkpt>
   <trkpt lat="-3.0883190" lon="37.3716260">
    <ele>5088.5</ele>
    <time>2026-06-23T00:03:34Z</time>
   </trkpt>
   <trkpt lat="-3.0883190" lon="37.3716240">
    <ele>5088.5</ele>
    <time>2026-06-23T00:03:35Z</time>
   </trkpt>
   <trkpt lat="-3.0883190" lon="37.3716220">
    <ele>5088.6</ele>
    <time>2026-06-23T00:03:36Z</time>
   </trkpt>
   <trkpt lat="-3.0883180" lon="37.3716200">
    <ele>5088.6</ele>
    <time>2026-06-23T00:03:37Z</time>
   </trkpt>
   <trkpt lat="-3.0883170" lon="37.3716180">
    <ele>5088.7</ele>
    <time>2026-06-23T00:03:38Z</time>
   </trkpt>
   <trkpt lat="-3.0883190" lon="37.3716140">
    <ele>5088.8</ele>
    <time>2026-06-23T00:03:39Z</time>
   </trkpt>
   <trkpt lat="-3.0883180" lon="37.3716110">
    <ele>5088.8</ele>
    <time>2026-06-23T00:03:40Z</time>
   </trkpt>
   <trkpt lat="-3.0883200" lon="37.3716080">
    <ele>5088.9</ele>
    <time>2026-06-23T00:03:41Z</time>
   </trkpt>
   <trkpt lat="-3.0883200" lon="37.3716060">
    <ele>5089.0</ele>
    <time>2026-06-23T00:03:42Z</time>
   </trkpt>
   <trkpt lat="-3.0883220" lon="37.3716030">
    <ele>5089.0</ele>
    <time>2026-06-23T00:03:43Z</time>
   </trkpt>
   <trkpt lat="-3.0883220" lon="37.3715990">
    <ele>5089.1</ele>
    <time>2026-06-23T00:03:44Z</time>
   </trkpt>
   <trkpt lat="-3.0883240" lon="37.3715960">
    <ele>5089.2</ele>
    <time>2026-06-23T00:03:45Z</time>
   </trkpt>
   <trkpt lat="-3.0883230" lon="37.3715920">
    <ele>5089.3</ele>
    <time>2026-06-23T00:03:46Z</time>
   </trkpt>
   <trkpt lat="-3.0883220" lon="37.3715890">
    <ele>5089.4</ele>
    <time>2026-06-23T00:03:47Z</time>
   </trkpt>
   <trkpt lat="-3.0883200" lon="37.3715900">
    <ele>5089.4</ele>
    <time>2026-06-23T00:03:48Z</time>
   </trkpt>
   <trkpt lat="-3.0883190" lon="37.3715860">
    <ele>5089.5</ele>
    <time>2026-06-23T00:03:49Z</time>
   </trkpt>
   <trkpt lat="-3.0883140" lon="37.3715880">
    <ele>5089.6</ele>
    <time>2026-06-23T00:03:50Z</time>
   </trkpt>
   <trkpt lat="-3.0883130" lon="37.3715900">
    <ele>5089.7</ele>
    <time>2026-06-23T00:03:51Z</time>
   </trkpt>
   <trkpt lat="-3.0883100" lon="37.3715910">
    <ele>5089.7</ele>
    <time>2026-06-23T00:03:52Z</time>
   </trkpt>
   <trkpt lat="-3.0883080" lon="37.3715930">
    <ele>5089.8</ele>
    <time>2026-06-23T00:03:53Z</time>
   </trkpt>
   <trkpt lat="-3.0883050" lon="37.3715940">
    <ele>5089.8</ele>
    <time>2026-06-23T00:03:54Z</time>
   </trkpt>
   <trkpt lat="-3.0883030" lon="37.3715950">
    <ele>5089.9</ele>
    <time>2026-06-23T00:03:55Z</time>
   </trkpt>
   <trkpt lat="-3.0883000" lon="37.3715970">
    <ele>5090.0</ele>
    <time>2026-06-23T00:03:56Z</time>
   </trkpt>
   <trkpt lat="-3.0882970" lon="37.3716010">
    <ele>5090.1</ele>
    <time>2026-06-23T00:03:57Z</time>
   </trkpt>
   <trkpt lat="-3.0882960" lon="37.3716050">
    <ele>5090.2</ele>
    <time>2026-06-23T00:03:58Z</time>
   </trkpt>
   <trkpt lat="-3.0882930" lon="37.3716070">
    <ele>5090.2</ele>
    <time>2026-06-23T00:03:59Z</time>
   </trkpt>
   <trkpt lat="-3.0882920" lon="37.3716100">
    <ele>5090.3</ele>
    <time>2026-06-23T00:04:00Z</time>
   </trkpt>
   <trkpt lat="-3.0882900" lon="37.3716130">
    <ele>5090.4</ele>
    <time>2026-06-23T00:04:01Z</time>
   </trkpt>
   <trkpt lat="-3.0882890" lon="37.3716150">
    <ele>5090.4</ele>
    <time>2026-06-23T00:04:02Z</time>
   </trkpt>
   <trkpt lat="-3.0882850" lon="37.3716150">
    <ele>5090.5</ele>
    <time>2026-06-23T00:04:03Z</time>
   </trkpt>
   <trkpt lat="-3.0882810" lon="37.3716140">
    <ele>5090.6</ele>
    <time>2026-06-23T00:04:04Z</time>
   </trkpt>
   <trkpt lat="-3.0882790" lon="37.3716120">
    <ele>5090.7</ele>
    <time>2026-06-23T00:04:05Z</time>
   </trkpt>
   <trkpt lat="-3.0882750" lon="37.3716120">
    <ele>5090.8</ele>
    <time>2026-06-23T00:04:06Z</time>
   </trkpt>
   <trkpt lat="-3.0882720" lon="37.3716130">
    <ele>5090.8</ele>
    <time>2026-06-23T00:04:07Z</time>
   </trkpt>
   <trkpt lat="-3.0882710" lon="37.3716090">
    <ele>5090.9</ele>
    <time>2026-06-23T00:04:08Z</time>
   </trkpt>
   <trkpt lat="-3.0882710" lon="37.3716070">
    <ele>5091.0</ele>
    <time>2026-06-23T00:04:09Z</time>
   </trkpt>
   <trkpt lat="-3.0882700" lon="37.3716030">
    <ele>5091.0</ele>
    <time>2026-06-23T00:04:10Z</time>
   </trkpt>
   <trkpt lat="-3.0882710" lon="37.3715990">
    <ele>5091.1</ele>
    <time>2026-06-23T00:04:11Z</time>
   </trkpt>
   <trkpt lat="-3.0882720" lon="37.3715970">
    <ele>5091.2</ele>
    <time>2026-06-23T00:04:12Z</time>
   </trkpt>
   <trkpt lat="-3.0882750" lon="37.3715940">
    <ele>5091.3</ele>
    <time>2026-06-23T00:04:13Z</time>
   </trkpt>
   <trkpt lat="-3.0882770" lon="37.3715900">
    <ele>5091.4</ele>
    <time>2026-06-23T00:04:14Z</time>
   </trkpt>
   <trkpt lat="-3.0882810" lon="37.3715880">
    <ele>5091.5</ele>
    <time>2026-06-23T00:04:15Z</time>
   </trkpt>
   <trkpt lat="-3.0882850" lon="37.3715880">
    <ele>5091.6</ele>
    <time>2026-06-23T00:04:16Z</time>
   </trkpt>
   <trkpt lat="-3.0882860" lon="37.3715830">
    <ele>5091.7</ele>
    <time>2026-06-23T00:04:17Z</time>
   </trkpt>
   <trkpt lat="-3.0882860" lon="37.3715800">
    <ele>5091.7</ele>
    <time>2026-06-23T00:04:18Z</time>
   </trkpt>
   <trkpt lat="-3.0882890" lon="37.3715780">
    <ele>5091.8</ele>
    <time>2026-06-23T00:04:19Z</time>
   </trkpt>
   <trkpt lat="-3.0882910" lon="37.3715730">
    <ele>5091.9</ele>
    <time>2026-06-23T00:04:20Z</time>
   </trkpt>
   <trkpt lat="-3.0882920" lon="37.3715670">
    <ele>5092.1</ele>
    <time>2026-06-23T00:04:21Z</time>
   </trkpt>
   <trkpt lat="-3.0882930" lon="37.3715660">
    <ele>5092.1</ele>
    <time>2026-06-23T00:04:22Z</time>
   </trkpt>
   <trkpt lat="-3.0882940" lon="37.3715610">
    <ele>5092.2</ele>
    <time>2026-06-23T00:04:23Z</time>
   </trkpt>
   <trkpt lat="-3.0882960" lon="37.3715570">
    <ele>5092.3</ele>
    <time>2026-06-23T00:04:24Z</time>
   </trkpt>
   <trkpt lat="-3.0882950" lon="37.3715520">
    <ele>5092.4</ele>
    <time>2026-06-23T00:04:25Z</time>
   </trkpt>
   <trkpt lat="-3.0882940" lon="37.3715480">
    <ele>5092.5</ele>
    <time>2026-06-23T00:04:26Z</time>
   </trkpt>
   <trkpt lat="-3.0882930" lon="37.3715470">
    <ele>5092.5</ele>
    <time>2026-06-23T00:04:27Z</time>
   </trkpt>
   <trkpt lat="-3.0882910" lon="37.3715480">
    <ele>5092.6</ele>
    <time>2026-06-23T00:04:28Z</time>
   </trkpt>
   <trkpt lat="-3.0882860" lon="37.3715480">
    <ele>5092.7</ele>
    <time>2026-06-23T00:04:29Z</time>
   </trkpt>
   <trkpt lat="-3.0882840" lon="37.3715510">
    <ele>5092.8</ele>
    <time>2026-06-23T00:04:30Z</time>
   </trkpt>
   <trkpt lat="-3.0882790" lon="37.3715520">
    <ele>5092.9</ele>
    <time>2026-06-23T00:04:31Z</time>
   </trkpt>
   <trkpt lat="-3.0882770" lon="37.3715550">
    <ele>5093.0</ele>
    <time>2026-06-23T00:04:32Z</time>
   </trkpt>
   <trkpt lat="-3.0882750" lon="37.3715560">
    <ele>5093.0</ele>
    <time>2026-06-23T00:04:33Z</time>
   </trkpt>
   <trkpt lat="-3.0882720" lon="37.3715600">
    <ele>5093.1</ele>
    <time>2026-06-23T00:04:34Z</time>
   </trkpt>
   <trkpt lat="-3.0882700" lon="37.3715620">
    <ele>5093.2</ele>
    <time>2026-06-23T00:04:35Z</time>
   </trkpt>
   <trkpt lat="-3.0882670" lon="37.3715650">
    <ele>5093.3</ele>
    <time>2026-06-23T00:04:36Z</time>
   </trkpt>
   <trkpt lat="-3.0882670" lon="37.3715660">
    <ele>5093.3</ele>
    <time>2026-06-23T00:04:37Z</time>
   </trkpt>
   <trkpt lat="-3.0882650" lon="37.3715670">
    <ele>5093.4</ele>
    <time>2026-06-23T00:04:38Z</time>
   </trkpt>
   <trkpt lat="-3.0882640" lon="37.3715680">
    <ele>5093.4</ele>
    <time>2026-06-23T00:04:39Z</time>
   </trkpt>
   <trkpt lat="-3.0882600" lon="37.3715670">
    <ele>5093.5</ele>
    <time>2026-06-23T00:04:40Z</time>
   </trkpt>
   <trkpt lat="-3.0882580" lon="37.3715710">
    <ele>5093.6</ele>
    <time>2026-06-23T00:04:41Z</time>
   </trkpt>
   <trkpt lat="-3.0882550" lon="37.3715700">
    <ele>5093.7</ele>
    <time>2026-06-23T00:04:42Z</time>
   </trkpt>
   <trkpt lat="-3.0882540" lon="37.3715710">
    <ele>5093.7</ele>
    <time>2026-06-23T00:04:43Z</time>
   </trkpt>
   <trkpt lat="-3.0882520" lon="37.3715700">
    <ele>5093.7</ele>
    <time>2026-06-23T00:04:44Z</time>
   </trkpt>
   <trkpt lat="-3.0882490" lon="37.3715710">
    <ele>5093.8</ele>
    <time>2026-06-23T00:04:45Z</time>
   </trkpt>
   <trkpt lat="-3.0882470" lon="37.3715690">
    <ele>5093.9</ele>
    <time>2026-06-23T00:04:46Z</time>
   </trkpt>
   <trkpt lat="-3.0882440" lon="37.3715710">
    <ele>5094.0</ele>
    <time>2026-06-23T00:04:47Z</time>
   </trkpt>
   <trkpt lat="-3.0882420" lon="37.3715700">
    <ele>5094.0</ele>
    <time>2026-06-23T00:04:48Z</time>
   </trkpt>
   <trkpt lat="-3.0882400" lon="37.3715720">
    <ele>5094.1</ele>
    <time>2026-06-23T00:04:49Z</time>
   </trkpt>
   <trkpt lat="-3.0882380" lon="37.3715740">
    <ele>5094.2</ele>
    <time>2026-06-23T00:04:50Z</time>
   </trkpt>
   <trkpt lat="-3.0882370" lon="37.3715750">
    <ele>5094.2</ele>
    <time>2026-06-23T00:04:51Z</time>
   </trkpt>
   <trkpt lat="-3.0882350" lon="37.3715760">
    <ele>5094.2</ele>
    <time>2026-06-23T00:04:52Z</time>
   </trkpt>
   <trkpt lat="-3.0882310" lon="37.3715780">
    <ele>5094.3</ele>
    <time>2026-06-23T00:04:53Z</time>
   </trkpt>
   <trkpt lat="-3.0882270" lon="37.3715770">
    <ele>5094.4</ele>
    <time>2026-06-23T00:04:54Z</time>
   </trkpt>
   <trkpt lat="-3.0882240" lon="37.3715730">
    <ele>5094.6</ele>
    <time>2026-06-23T00:04:55Z</time>
   </trkpt>
   <trkpt lat="-3.0882230" lon="37.3715730">
    <ele>5094.6</ele>
    <time>2026-06-23T00:04:56Z</time>
   </trkpt>
   <trkpt lat="-3.0882240" lon="37.3715680">
    <ele>5094.7</ele>
    <time>2026-06-23T00:04:57Z</time>
   </trkpt>
   <trkpt lat="-3.0882200" lon="37.3715670">
    <ele>5094.8</ele>
    <time>2026-06-23T00:04:58Z</time>
   </trkpt>
   <trkpt lat="-3.0882200" lon="37.3715660">
    <ele>5094.8</ele>
    <time>2026-06-23T00:04:59Z</time>
   </trkpt>
   <trkpt lat="-3.0882180" lon="37.3715650">
    <ele>5094.9</ele>
    <time>2026-06-23T00:05:00Z</time>
   </trkpt>
   <trkpt lat="-3.0882160" lon="37.3715670">
    <ele>5095.0</ele>
    <time>2026-06-23T00:05:01Z</time>
   </trkpt>
   <trkpt lat="-3.0882140" lon="37.3715680">
    <ele>5095.0</ele>
    <time>2026-06-23T00:05:02Z</time>
   </trkpt>
   <trkpt lat="-3.0882100" lon="37.3715680">
    <ele>5095.1</ele>
    <time>2026-06-23T00:05:03Z</time>
   </trkpt>
   <trkpt lat="-3.0882080" lon="37.3715680">
    <ele>5095.2</ele>
    <time>2026-06-23T00:05:04Z</time>
   </trkpt>
   <trkpt lat="-3.0882090" lon="37.3715710">
    <ele>5095.2</ele>
    <time>2026-06-23T00:05:05Z</time>
   </trkpt>
   <trkpt lat="-3.0882070" lon="37.3715740">
    <ele>5095.3</ele>
    <time>2026-06-23T00:05:06Z</time>
   </trkpt>
   <trkpt lat="-3.0882050" lon="37.3715780">
    <ele>5095.4</ele>
    <time>2026-06-23T00:05:07Z</time>
   </trkpt>
   <trkpt lat="-3.0882030" lon="37.3715800">
    <ele>5095.5</ele>
    <time>2026-06-23T00:05:08Z</time>
   </trkpt>
   <trkpt lat="-3.0882010" lon="37.3715830">
    <ele>5095.6</ele>
    <time>2026-06-23T00:05:09Z</time>
   </trkpt>
   <trkpt lat="-3.0882000" lon="37.3715850">
    <ele>5095.6</ele>
    <time>2026-06-23T00:05:10Z</time>
   </trkpt>
   <trkpt lat="-3.0881970" lon="37.3715860">
    <ele>5095.7</ele>
    <time>2026-06-23T00:05:11Z</time>
   </trkpt>
   <trkpt lat="-3.0881930" lon="37.3715860">
    <ele>5095.8</ele>
    <time>2026-06-23T00:05:12Z</time>
   </trkpt>
   <trkpt lat="-3.0881890" lon="37.3715850">
    <ele>5095.9</ele>
    <time>2026-06-23T00:05:13Z</time>
   </trkpt>
   <trkpt lat="-3.0881870" lon="37.3715850">
    <ele>5095.9</ele>
    <time>2026-06-23T00:05:14Z</time>
   </trkpt>
   <trkpt lat="-3.0881840" lon="37.3715850">
    <ele>5096.0</ele>
    <time>2026-06-23T00:05:15Z</time>
   </trkpt>
   <trkpt lat="-3.0881810" lon="37.3715820">
    <ele>5096.1</ele>
    <time>2026-06-23T00:05:16Z</time>
   </trkpt>
   <trkpt lat="-3.0881790" lon="37.3715820">
    <ele>5096.2</ele>
    <time>2026-06-23T00:05:17Z</time>
   </trkpt>
   <trkpt lat="-3.0881790" lon="37.3715780">
    <ele>5096.3</ele>
    <time>2026-06-23T00:05:18Z</time>
   </trkpt>
   <trkpt lat="-3.0881800" lon="37.3715780">
    <ele>5096.3</ele>
    <time>2026-06-23T00:05:19Z</time>
   </trkpt>
   <trkpt lat="-3.0881790" lon="37.3715730">
    <ele>5096.4</ele>
    <time>2026-06-23T00:05:20Z</time>
   </trkpt>
   <trkpt lat="-3.0881790" lon="37.3715690">
    <ele>5096.5</ele>
    <time>2026-06-23T00:05:21Z</time>
   </trkpt>
   <trkpt lat="-3.0881790" lon="37.3715650">
    <ele>5096.6</ele>
    <time>2026-06-23T00:05:22Z</time>
   </trkpt>
   <trkpt lat="-3.0881800" lon="37.3715640">
    <ele>5096.6</ele>
    <time>2026-06-23T00:05:23Z</time>
   </trkpt>
   <trkpt lat="-3.0881810" lon="37.3715640">
    <ele>5096.7</ele>
    <time>2026-06-23T00:05:24Z</time>
   </trkpt>
   <trkpt lat="-3.0881810" lon="37.3715620">
    <ele>5096.7</ele>
    <time>2026-06-23T00:05:25Z</time>
   </trkpt>
   <trkpt lat="-3.0881820" lon="37.3715600">
    <ele>5096.8</ele>
    <time>2026-06-23T00:05:26Z</time>
   </trkpt>
   <trkpt lat="-3.0881810" lon="37.3715550">
    <ele>5096.9</ele>
    <time>2026-06-23T00:05:27Z</time>
   </trkpt>
   <trkpt lat="-3.0881820" lon="37.3715540">
    <ele>5096.9</ele>
    <time>2026-06-23T00:05:28Z</time>
   </trkpt>
   <trkpt lat="-3.0881810" lon="37.3715510">
    <ele>5097.0</ele>
    <time>2026-06-23T00:05:29Z</time>
   </trkpt>
   <trkpt lat="-3.0881820" lon="37.3715480">
    <ele>5097.1</ele>
    <time>2026-06-23T00:05:30Z</time>
   </trkpt>
   <trkpt lat="-3.0881810" lon="37.3715470">
    <ele>5097.1</ele>
    <time>2026-06-23T00:05:31Z</time>
   </trkpt>
   <trkpt lat="-3.0881820" lon="37.3715470">
    <ele>5097.1</ele>
    <time>2026-06-23T00:05:32Z</time>
   </trkpt>
   <trkpt lat="-3.0881820" lon="37.3715450">
    <ele>5097.2</ele>
    <time>2026-06-23T00:05:33Z</time>
   </trkpt>
   <trkpt lat="-3.0881820" lon="37.3715410">
    <ele>5097.3</ele>
    <time>2026-06-23T00:05:34Z</time>
   </trkpt>
   <trkpt lat="-3.0881830" lon="37.3715390">
    <ele>5097.3</ele>
    <time>2026-06-23T00:05:35Z</time>
   </trkpt>
   <trkpt lat="-3.0881810" lon="37.3715350">
    <ele>5097.4</ele>
    <time>2026-06-23T00:05:36Z</time>
   </trkpt>
   <trkpt lat="-3.0881820" lon="37.3715300">
    <ele>5097.6</ele>
    <time>2026-06-23T00:05:37Z</time>
   </trkpt>
   <trkpt lat="-3.0881810" lon="37.3715260">
    <ele>5097.7</ele>
    <time>2026-06-23T00:05:38Z</time>
   </trkpt>
   <trkpt lat="-3.0881790" lon="37.3715230">
    <ele>5097.7</ele>
    <time>2026-06-23T00:05:39Z</time>
   </trkpt>
   <trkpt lat="-3.0881770" lon="37.3715210">
    <ele>5097.8</ele>
    <time>2026-06-23T00:05:40Z</time>
   </trkpt>
   <trkpt lat="-3.0881760" lon="37.3715220">
    <ele>5097.8</ele>
    <time>2026-06-23T00:05:41Z</time>
   </trkpt>
   <trkpt lat="-3.0881740" lon="37.3715180">
    <ele>5097.9</ele>
    <time>2026-06-23T00:05:42Z</time>
   </trkpt>
   <trkpt lat="-3.0881740" lon="37.3715160">
    <ele>5098.0</ele>
    <time>2026-06-23T00:05:43Z</time>
   </trkpt>
   <trkpt lat="-3.0881740" lon="37.3715140">
    <ele>5098.0</ele>
    <time>2026-06-23T00:05:44Z</time>
   </trkpt>
   <trkpt lat="-3.0881720" lon="37.3715120">
    <ele>5098.1</ele>
    <time>2026-06-23T00:05:45Z</time>
   </trkpt>
   <trkpt lat="-3.0881730" lon="37.3715100">
    <ele>5098.2</ele>
    <time>2026-06-23T00:05:46Z</time>
   </trkpt>
   <trkpt lat="-3.0881720" lon="37.3715070">
    <ele>5098.2</ele>
    <time>2026-06-23T00:05:47Z</time>
   </trkpt>
   <trkpt lat="-3.0881720" lon="37.3715060">
    <ele>5098.3</ele>
    <time>2026-06-23T00:05:48Z</time>
   </trkpt>
   <trkpt lat="-3.0881730" lon="37.3715040">
    <ele>5098.3</ele>
    <time>2026-06-23T00:05:49Z</time>
   </trkpt>
   <trkpt lat="-3.0881730" lon="37.3715030">
    <ele>5098.3</ele>
    <time>2026-06-23T00:05:50Z</time>
   </trkpt>
   <trkpt lat="-3.0881740" lon="37.3715040">
    <ele>5098.4</ele>
    <time>2026-06-23T00:05:51Z</time>
   </trkpt>
   <trkpt lat="-3.0881750" lon="37.3715030">
    <ele>5098.4</ele>
    <time>2026-06-23T00:05:52Z</time>
   </trkpt>
   <trkpt lat="-3.0881760" lon="37.3715040">
    <ele>5098.4</ele>
    <time>2026-06-23T00:05:53Z</time>
   </trkpt>
   <trkpt lat="-3.0881760" lon="37.3715010">
    <ele>5098.5</ele>
    <time>2026-06-23T00:05:54Z</time>
   </trkpt>
   <trkpt lat="-3.0881780" lon="37.3714990">
    <ele>5098.6</ele>
    <time>2026-06-23T00:05:55Z</time>
   </trkpt>
   <trkpt lat="-3.0881790" lon="37.3714970">
    <ele>5098.6</ele>
    <time>2026-06-23T00:05:56Z</time>
   </trkpt>
   <trkpt lat="-3.0881800" lon="37.3714940">
    <ele>5098.7</ele>
    <time>2026-06-23T00:05:57Z</time>
   </trkpt>
   <trkpt lat="-3.0881820" lon="37.3714930">
    <ele>5098.8</ele>
    <time>2026-06-23T00:05:58Z</time>
   </trkpt>
   <trkpt lat="-3.0881810" lon="37.3714890">
    <ele>5098.9</ele>
    <time>2026-06-23T00:05:59Z</time>
   </trkpt>
   <trkpt lat="-3.0881840" lon="37.3714900">
    <ele>5098.9</ele>
    <time>2026-06-23T00:06:00Z</time>
   </trkpt>
   <trkpt lat="-3.0881840" lon="37.3714860">
    <ele>5099.0</ele>
    <time>2026-06-23T00:06:01Z</time>
   </trkpt>
   <trkpt lat="-3.0881860" lon="37.3714850">
    <ele>5099.1</ele>
    <time>2026-06-23T00:06:02Z</time>
   </trkpt>
   <trkpt lat="-3.0881860" lon="37.3714840">
    <ele>5099.1</ele>
    <time>2026-06-23T00:06:03Z</time>
   </trkpt>
   <trkpt lat="-3.0881870" lon="37.3714810">
    <ele>5099.2</ele>
    <time>2026-06-23T00:06:04Z</time>
   </trkpt>
   <trkpt lat="-3.0881870" lon="37.3714790">
    <ele>5099.2</ele>
    <time>2026-06-23T00:06:05Z</time>
   </trkpt>
   <trkpt lat="-3.0881870" lon="37.3714770">
    <ele>5099.3</ele>
    <time>2026-06-23T00:06:06Z</time>
   </trkpt>
   <trkpt lat="-3.0881880" lon="37.3714760">
    <ele>5099.3</ele>
    <time>2026-06-23T00:06:07Z</time>
   </trkpt>
   <trkpt lat="-3.0881880" lon="37.3714730">
    <ele>5099.4</ele>
    <time>2026-06-23T00:06:08Z</time>
   </trkpt>
   <trkpt lat="-3.0881890" lon="37.3714710">
    <ele>5099.4</ele>
    <time>2026-06-23T00:06:09Z</time>
   </trkpt>
   <trkpt lat="-3.0881880" lon="37.3714710">
    <ele>5099.5</ele>
    <time>2026-06-23T00:06:10Z</time>
   </trkpt>
   <trkpt lat="-3.0881880" lon="37.3714710">
    <ele>5099.5</ele>
    <time>2026-06-23T00:06:11Z</time>
   </trkpt>
   <trkpt lat="-3.0881910" lon="37.3714660">
    <ele>5099.6</ele>
    <time>2026-06-23T00:06:12Z</time>
   </trkpt>
   <trkpt lat="-3.0881910" lon="37.3714630">
    <ele>5099.7</ele>
    <time>2026-06-23T00:06:13Z</time>
   </trkpt>
   <trkpt lat="-3.0881920" lon="37.3714620">
    <ele>5099.7</ele>
    <time>2026-06-23T00:06:14Z</time>
   </trkpt>
   <trkpt lat="-3.0881920" lon="37.3714590">
    <ele>5099.8</ele>
    <time>2026-06-23T00:06:15Z</time>
   </trkpt>
   <trkpt lat="-3.0881920" lon="37.3714560">
    <ele>5099.9</ele>
    <time>2026-06-23T00:06:16Z</time>
   </trkpt>
   <trkpt lat="-3.0881920" lon="37.3714540">
    <ele>5099.9</ele>
    <time>2026-06-23T00:06:17Z</time>
   </trkpt>
   <trkpt lat="-3.0881920" lon="37.3714510">
    <ele>5100.0</ele>
    <time>2026-06-23T00:06:18Z</time>
   </trkpt>
   <trkpt lat="-3.0881880" lon="37.3714480">
    <ele>5100.1</ele>
    <time>2026-06-23T00:06:19Z</time>
   </trkpt>
   <trkpt lat="-3.0881870" lon="37.3714480">
    <ele>5100.1</ele>
    <time>2026-06-23T00:06:20Z</time>
   </trkpt>
   <trkpt lat="-3.0881850" lon="37.3714470">
    <ele>5100.2</ele>
    <time>2026-06-23T00:06:21Z</time>
   </trkpt>
   <trkpt lat="-3.0881820" lon="37.3714480">
    <ele>5100.3</ele>
    <time>2026-06-23T00:06:22Z</time>
   </trkpt>
   <trkpt lat="-3.0881800" lon="37.3714490">
    <ele>5100.3</ele>
    <time>2026-06-23T00:06:23Z</time>
   </trkpt>
   <trkpt lat="-3.0881760" lon="37.3714490">
    <ele>5100.4</ele>
    <time>2026-06-23T00:06:24Z</time>
   </trkpt>
   <trkpt lat="-3.0881740" lon="37.3714490">
    <ele>5100.5</ele>
    <time>2026-06-23T00:06:25Z</time>
   </trkpt>
   <trkpt lat="-3.0881710" lon="37.3714480">
    <ele>5100.5</ele>
    <time>2026-06-23T00:06:26Z</time>
   </trkpt>
   <trkpt lat="-3.0881700" lon="37.3714470">
    <ele>5100.6</ele>
    <time>2026-06-23T00:06:27Z</time>
   </trkpt>
   <trkpt lat="-3.0881680" lon="37.3714480">
    <ele>5100.6</ele>
    <time>2026-06-23T00:06:28Z</time>
   </trkpt>
   <trkpt lat="-3.0881640" lon="37.3714460">
    <ele>5100.7</ele>
    <time>2026-06-23T00:06:29Z</time>
   </trkpt>
   <trkpt lat="-3.0881640" lon="37.3714460">
    <ele>5100.7</ele>
    <time>2026-06-23T00:06:30Z</time>
   </trkpt>
   <trkpt lat="-3.0881610" lon="37.3714430">
    <ele>5100.8</ele>
    <time>2026-06-23T00:06:31Z</time>
   </trkpt>
   <trkpt lat="-3.0881590" lon="37.3714450">
    <ele>5100.9</ele>
    <time>2026-06-23T00:06:32Z</time>
   </trkpt>
   <trkpt lat="-3.0881570" lon="37.3714430">
    <ele>5101.0</ele>
    <time>2026-06-23T00:06:33Z</time>
   </trkpt>
   <trkpt lat="-3.0881550" lon="37.3714440">
    <ele>5101.0</ele>
    <time>2026-06-23T00:06:34Z</time>
   </trkpt>
   <trkpt lat="-3.0881510" lon="37.3714420">
    <ele>5101.1</ele>
    <time>2026-06-23T00:06:35Z</time>
   </trkpt>
   <trkpt lat="-3.0881490" lon="37.3714420">
    <ele>5101.2</ele>
    <time>2026-06-23T00:06:36Z</time>
   </trkpt>
   <trkpt lat="-3.0881490" lon="37.3714390">
    <ele>5101.2</ele>
    <time>2026-06-23T00:06:37Z</time>
   </trkpt>
   <trkpt lat="-3.0881480" lon="37.3714360">
    <ele>5101.3</ele>
    <time>2026-06-23T00:06:38Z</time>
   </trkpt>
   <trkpt lat="-3.0881490" lon="37.3714340">
    <ele>5101.4</ele>
    <time>2026-06-23T00:06:39Z</time>
   </trkpt>
   <trkpt lat="-3.0881480" lon="37.3714340">
    <ele>5101.4</ele>
    <time>2026-06-23T00:06:40Z</time>
   </trkpt>
   <trkpt lat="-3.0881500" lon="37.3714330">
    <ele>5101.4</ele>
    <time>2026-06-23T00:06:41Z</time>
   </trkpt>
   <trkpt lat="-3.0881500" lon="37.3714330">
    <ele>5101.4</ele>
    <time>2026-06-23T00:06:42Z</time>
   </trkpt>
   <trkpt lat="-3.0881510" lon="37.3714330">
    <ele>5101.5</ele>
    <time>2026-06-23T00:06:43Z</time>
   </trkpt>
   <trkpt lat="-3.0881520" lon="37.3714330">
    <ele>5101.5</ele>
    <time>2026-06-23T00:06:44Z</time>
   </trkpt>
   <trkpt lat="-3.0881520" lon="37.3714340">
    <ele>5101.5</ele>
    <time>2026-06-23T00:06:45Z</time>
   </trkpt>
   <trkpt lat="-3.0881530" lon="37.3714330">
    <ele>5101.6</ele>
    <time>2026-06-23T00:06:46Z</time>
   </trkpt>
   <trkpt lat="-3.0881530" lon="37.3714330">
    <ele>5101.6</ele>
    <time>2026-06-23T00:06:47Z</time>
   </trkpt>
   <trkpt lat="-3.0881540" lon="37.3714330">
    <ele>5101.6</ele>
    <time>2026-06-23T00:06:48Z</time>
   </trkpt>
   <trkpt lat="-3.0881540" lon="37.3714330">
    <ele>5101.6</ele>
    <time>2026-06-23T00:06:49Z</time>
   </trkpt>
   <trkpt lat="-3.0881540" lon="37.3714330">
    <ele>5101.6</ele>
    <time>2026-06-23T00:06:50Z</time>
   </trkpt>
   <trkpt lat="-3.0881540" lon="37.3714330">
    <ele>5101.6</ele>
    <time>2026-06-23T00:06:51Z</time>
   </trkpt>
   <trkpt lat="-3.0881540" lon="37.3714330">
    <ele>5101.6</ele>
    <time>2026-06-23T00:06:52Z</time>
   </trkpt>
   <trkpt lat="-3.0881550" lon="37.3714330">
    <ele>5101.6</ele>
    <time>2026-06-23T00:06:53Z</time>
   </trkpt>
   <trkpt lat="-3.0881540" lon="37.3714330">
    <ele>5101.6</ele>
    <time>2026-06-23T00:06:54Z</time>
   </trkpt>
   <trkpt lat="-3.0881540" lon="37.3714330">
    <ele>5101.6</ele>
    <time>2026-06-23T00:06:55Z</time>
   </trkpt>
   <trkpt lat="-3.0881540" lon="37.3714330">
    <ele>5101.6</ele>
    <time>2026-06-23T00:06:56Z</time>
   </trkpt>
   <trkpt lat="-3.0881540" lon="37.3714330">
    <ele>5101.6</ele>
    <time>2026-06-23T00:06:57Z</time>
   </trkpt>
   <trkpt lat="-3.0881530" lon="37.3714330">
    <ele>5101.6</ele>
    <time>2026-06-23T00:06:58Z</time>
   </trkpt>
   <trkpt lat="-3.0881530" lon="37.3714330">
    <ele>5101.6</ele>
    <time>2026-06-23T00:06:59Z</time>
   </trkpt>
   <trkpt lat="-3.0881530" lon="37.3714330">
    <ele>5101.6</ele>
    <time>2026-06-23T00:07:00Z</time>
   </trkpt>
   <trkpt lat="-3.0881540" lon="37.3714330">
    <ele>5101.7</ele>
    <time>2026-06-23T00:07:01Z</time>
   </trkpt>
   <trkpt lat="-3.0881540" lon="37.3714330">
    <ele>5101.7</ele>
    <time>2026-06-23T00:07:02Z</time>
   </trkpt>
   <trkpt lat="-3.0881540" lon="37.3714330">
    <ele>5101.7</ele>
    <time>2026-06-23T00:07:03Z</time>
   </trkpt>
   <trkpt lat="-3.0881530" lon="37.3714340">
    <ele>5101.7</ele>
    <time>2026-06-23T00:07:04Z</time>
   </trkpt>
   <trkpt lat="-3.0881530" lon="37.3714340">
    <ele>5101.7</ele>
    <time>2026-06-23T00:07:05Z</time>
   </trkpt>
   <trkpt lat="-3.0881530" lon="37.3714350">
    <ele>5101.7</ele>
    <time>2026-06-23T00:07:06Z</time>
   </trkpt>
   <trkpt lat="-3.0881530" lon="37.3714340">
    <ele>5101.8</ele>
    <time>2026-06-23T00:07:07Z</time>
   </trkpt>
   <trkpt lat="-3.0881530" lon="37.3714340">
    <ele>5101.8</ele>
    <time>2026-06-23T00:07:08Z</time>
   </trkpt>
   <trkpt lat="-3.0881540" lon="37.3714350">
    <ele>5101.8</ele>
    <time>2026-06-23T00:07:09Z</time>
   </trkpt>
   <trkpt lat="-3.0881540" lon="37.3714340">
    <ele>5101.8</ele>
    <time>2026-06-23T00:07:10Z</time>
   </trkpt>
   <trkpt lat="-3.0881540" lon="37.3714340">
    <ele>5101.8</ele>
    <time>2026-06-23T00:07:11Z</time>
   </trkpt>
   <trkpt lat="-3.0881550" lon="37.3714350">
    <ele>5101.8</ele>
    <time>2026-06-23T00:07:12Z</time>
   </trkpt>
   <trkpt lat="-3.0881550" lon="37.3714350">
    <ele>5101.8</ele>
    <time>2026-06-23T00:07:13Z</time>
   </trkpt>
   <trkpt lat="-3.0881550" lon="37.3714350">
    <ele>5101.8</ele>
    <time>2026-06-23T00:07:14Z</time>
   </trkpt>
   <trkpt lat="-3.0881550" lon="37.3714350">
    <ele>5101.8</ele>
    <time>2026-06-23T00:07:15Z</time>
   </trkpt>
   <trkpt lat="-3.0881550" lon="37.3714350">
    <ele>5101.8</ele>
    <time>2026-06-23T00:07:16Z</time>
   </trkpt>
   <trkpt lat="-3.0881540" lon="37.3714350">
    <ele>5101.9</ele>
    <time>2026-06-23T00:07:17Z</time>
   </trkpt>
   <trkpt lat="-3.0881540" lon="37.3714320">
    <ele>5101.9</ele>
    <time>2026-06-23T00:07:18Z</time>
   </trkpt>
   <trkpt lat="-3.0881540" lon="37.3714330">
    <ele>5102.0</ele>
    <time>2026-06-23T00:07:19Z</time>
   </trkpt>
   <trkpt lat="-3.0881540" lon="37.3714320">
    <ele>5102.0</ele>
    <time>2026-06-23T00:07:20Z</time>
   </trkpt>
   <trkpt lat="-3.0881540" lon="37.3714330">
    <ele>5102.0</ele>
    <time>2026-06-23T00:07:21Z</time>
   </trkpt>
   <trkpt lat="-3.0881540" lon="37.3714330">
    <ele>5102.0</ele>
    <time>2026-06-23T00:07:22Z</time>
   </trkpt>
   <trkpt lat="-3.0881540" lon="37.3714330">
    <ele>5102.0</ele>
    <time>2026-06-23T00:07:23Z</time>
   </trkpt>
   <trkpt lat="-3.0881540" lon="37.3714320">
    <ele>5102.0</ele>
    <time>2026-06-23T00:07:24Z</time>
   </trkpt>
   <trkpt lat="-3.0881540" lon="37.3714320">
    <ele>5102.0</ele>
    <time>2026-06-23T00:07:25Z</time>
   </trkpt>
   <trkpt lat="-3.0881530" lon="37.3714320">
    <ele>5102.1</ele>
    <time>2026-06-23T00:07:26Z</time>
   </trkpt>
   <trkpt lat="-3.0881540" lon="37.3714320">
    <ele>5102.1</ele>
    <time>2026-06-23T00:07:27Z</time>
   </trkpt>
   <trkpt lat="-3.0881540" lon="37.3714320">
    <ele>5102.1</ele>
    <time>2026-06-23T00:07:28Z</time>
   </trkpt>
   <trkpt lat="-3.0881540" lon="37.3714320">
    <ele>5102.1</ele>
    <time>2026-06-23T00:07:29Z</time>
   </trkpt>
   <trkpt lat="-3.0881540" lon="37.3714320">
    <ele>5102.1</ele>
    <time>2026-06-23T00:07:30Z</time>
   </trkpt>
   <trkpt lat="-3.0881540" lon="37.3714320">
    <ele>5102.1</ele>
    <time>2026-06-23T00:07:31Z</time>
   </trkpt>
   <trkpt lat="-3.0881530" lon="37.3714320">
    <ele>5102.1</ele>
    <time>2026-06-23T00:07:32Z</time>
   </trkpt>
   <trkpt lat="-3.0881530" lon="37.3714320">
    <ele>5102.1</ele>
    <time>2026-06-23T00:07:33Z</time>
   </trkpt>
   <trkpt lat="-3.0881530" lon="37.3714320">
    <ele>5102.1</ele>
    <time>2026-06-23T00:07:34Z</time>
   </trkpt>
   <trkpt lat="-3.0881530" lon="37.3714310">
    <ele>5102.1</ele>
    <time>2026-06-23T00:07:35Z</time>
   </trkpt>
   <trkpt lat="-3.0881530" lon="37.3714310">
    <ele>5102.1</ele>
    <time>2026-06-23T00:07:36Z</time>
   </trkpt>
   <trkpt lat="-3.0881520" lon="37.3714320">
    <ele>5102.2</ele>
    <time>2026-06-23T00:07:37Z</time>
   </trkpt>
   <trkpt lat="-3.0881520" lon="37.3714320">
    <ele>5102.2</ele>
    <time>2026-06-23T00:07:38Z</time>
   </trkpt>
   <trkpt lat="-3.0881520" lon="37.3714320">
    <ele>5102.2</ele>
    <time>2026-06-23T00:07:39Z</time>
   </trkpt>
   <trkpt lat="-3.0881520" lon="37.3714320">
    <ele>5102.2</ele>
    <time>2026-06-23T00:07:40Z</time>
   </trkpt>
   <trkpt lat="-3.0881520" lon="37.3714320">
    <ele>5102.2</ele>
    <time>2026-06-23T00:07:41Z</time>
   </trkpt>
   <trkpt lat="-3.0881530" lon="37.3714320">
    <ele>5102.2</ele>
    <time>2026-06-23T00:07:42Z</time>
   </trkpt>
   <trkpt lat="-3.0881530" lon="37.3714320">
    <ele>5102.2</ele>
    <time>2026-06-23T00:07:43Z</time>
   </trkpt>
   <trkpt lat="-3.0881530" lon="37.3714330">
    <ele>5102.2</ele>
    <time>2026-06-23T00:07:44Z</time>
   </trkpt>
   <trkpt lat="-3.0881520" lon="37.3714320">
    <ele>5102.2</ele>
    <time>2026-06-23T00:07:45Z</time>
   </trkpt>
   <trkpt lat="-3.0881510" lon="37.3714310">
    <ele>5102.3</ele>
    <time>2026-06-23T00:07:46Z</time>
   </trkpt>
   <trkpt lat="-3.0881510" lon="37.3714320">
    <ele>5102.3</ele>
    <time>2026-06-23T00:07:47Z</time>
   </trkpt>
   <trkpt lat="-3.0881510" lon="37.3714320">
    <ele>5102.3</ele>
    <time>2026-06-23T00:07:48Z</time>
   </trkpt>
   <trkpt lat="-3.0881500" lon="37.3714330">
    <ele>5102.3</ele>
    <time>2026-06-23T00:07:49Z</time>
   </trkpt>
   <trkpt lat="-3.0881500" lon="37.3714330">
    <ele>5102.3</ele>
    <time>2026-06-23T00:07:50Z</time>
   </trkpt>
   <trkpt lat="-3.0881500" lon="37.3714330">
    <ele>5102.3</ele>
    <time>2026-06-23T00:07:51Z</time>
   </trkpt>
   <trkpt lat="-3.0881500" lon="37.3714310">
    <ele>5102.4</ele>
    <time>2026-06-23T00:07:52Z</time>
   </trkpt>
   <trkpt lat="-3.0881490" lon="37.3714300">
    <ele>5102.4</ele>
    <time>2026-06-23T00:07:53Z</time>
   </trkpt>
   <trkpt lat="-3.0881510" lon="37.3714320">
    <ele>5102.5</ele>
    <time>2026-06-23T00:07:54Z</time>
   </trkpt>
   <trkpt lat="-3.0881510" lon="37.3714320">
    <ele>5102.5</ele>
    <time>2026-06-23T00:07:55Z</time>
   </trkpt>
   <trkpt lat="-3.0881500" lon="37.3714310">
    <ele>5102.5</ele>
    <time>2026-06-23T00:07:56Z</time>
   </trkpt>
   <trkpt lat="-3.0881500" lon="37.3714300">
    <ele>5102.5</ele>
    <time>2026-06-23T00:07:57Z</time>
   </trkpt>
   <trkpt lat="-3.0881500" lon="37.3714300">
    <ele>5102.5</ele>
    <time>2026-06-23T00:07:58Z</time>
   </trkpt>
   <trkpt lat="-3.0881500" lon="37.3714300">
    <ele>5102.5</ele>
    <time>2026-06-23T00:07:59Z</time>
   </trkpt>
   <trkpt lat="-3.0881500" lon="37.3714310">
    <ele>5102.6</ele>
    <time>2026-06-23T00:08:00Z</time>
   </trkpt>
   <trkpt lat="-3.0881500" lon="37.3714310">
    <ele>5102.6</ele>
    <time>2026-06-23T00:08:01Z</time>
   </trkpt>
   <trkpt lat="-3.0881490" lon="37.3714290">
    <ele>5102.6</ele>
    <time>2026-06-23T00:08:02Z</time>
   </trkpt>
   <trkpt lat="-3.0881490" lon="37.3714290">
    <ele>5102.6</ele>
    <time>2026-06-23T00:08:03Z</time>
   </trkpt>
   <trkpt lat="-3.0881490" lon="37.3714290">
    <ele>5102.6</ele>
    <time>2026-06-23T00:08:04Z</time>
   </trkpt>
   <trkpt lat="-3.0881500" lon="37.3714280">
    <ele>5102.6</ele>
    <time>2026-06-23T00:08:05Z</time>
   </trkpt>
   <trkpt lat="-3.0881500" lon="37.3714280">
    <ele>5102.6</ele>
    <time>2026-06-23T00:08:06Z</time>
   </trkpt>
   <trkpt lat="-3.0881500" lon="37.3714280">
    <ele>5102.6</ele>
    <time>2026-06-23T00:08:07Z</time>
   </trkpt>
   <trkpt lat="-3.0881500" lon="37.3714280">
    <ele>5102.6</ele>
    <time>2026-06-23T00:08:08Z</time>
   </trkpt>
   <trkpt lat="-3.0881500" lon="37.3714280">
    <ele>5102.6</ele>
    <time>2026-06-23T00:08:09Z</time>
   </trkpt>
   <trkpt lat="-3.0881500" lon="37.3714280">
    <ele>5102.6</ele>
    <time>2026-06-23T00:08:10Z</time>
   </trkpt>
   <trkpt lat="-3.0881500" lon="37.3714280">
    <ele>5102.6</ele>
    <time>2026-06-23T00:08:11Z</time>
   </trkpt>
   <trkpt lat="-3.0881500" lon="37.3714290">
    <ele>5102.7</ele>
    <time>2026-06-23T00:08:12Z</time>
   </trkpt>
   <trkpt lat="-3.0881500" lon="37.3714290">
    <ele>5102.7</ele>
    <time>2026-06-23T00:08:13Z</time>
   </trkpt>
   <trkpt lat="-3.0881500" lon="37.3714290">
    <ele>5102.7</ele>
    <time>2026-06-23T00:08:14Z</time>
   </trkpt>
   <trkpt lat="-3.0881500" lon="37.3714270">
    <ele>5102.7</ele>
    <time>2026-06-23T00:08:15Z</time>
   </trkpt>
   <trkpt lat="-3.0881500" lon="37.3714280">
    <ele>5102.7</ele>
    <time>2026-06-23T00:08:16Z</time>
   </trkpt>
   <trkpt lat="-3.0881500" lon="37.3714290">
    <ele>5102.8</ele>
    <time>2026-06-23T00:08:17Z</time>
   </trkpt>
   <trkpt lat="-3.0881500" lon="37.3714290">
    <ele>5102.8</ele>
    <time>2026-06-23T00:08:18Z</time>
   </trkpt>
   <trkpt lat="-3.0881500" lon="37.3714290">
    <ele>5102.8</ele>
    <time>2026-06-23T00:08:19Z</time>
   </trkpt>
   <trkpt lat="-3.0881490" lon="37.3714270">
    <ele>5102.8</ele>
    <time>2026-06-23T00:08:20Z</time>
   </trkpt>
   <trkpt lat="-3.0881490" lon="37.3714270">
    <ele>5102.8</ele>
    <time>2026-06-23T00:08:21Z</time>
   </trkpt>
   <trkpt lat="-3.0881490" lon="37.3714270">
    <ele>5102.8</ele>
    <time>2026-06-23T00:08:22Z</time>
   </trkpt>
   <trkpt lat="-3.0881490" lon="37.3714270">
    <ele>5102.8</ele>
    <time>2026-06-23T00:08:23Z</time>
   </trkpt>
   <trkpt lat="-3.0881490" lon="37.3714270">
    <ele>5102.8</ele>
    <time>2026-06-23T00:08:24Z</time>
   </trkpt>
   <trkpt lat="-3.0881490" lon="37.3714270">
    <ele>5102.8</ele>
    <time>2026-06-23T00:08:25Z</time>
   </trkpt>
   <trkpt lat="-3.0881490" lon="37.3714290">
    <ele>5102.9</ele>
    <time>2026-06-23T00:08:26Z</time>
   </trkpt>
   <trkpt lat="-3.0881490" lon="37.3714290">
    <ele>5102.9</ele>
    <time>2026-06-23T00:08:27Z</time>
   </trkpt>
   <trkpt lat="-3.0881490" lon="37.3714290">
    <ele>5102.9</ele>
    <time>2026-06-23T00:08:28Z</time>
   </trkpt>
   <trkpt lat="-3.0881490" lon="37.3714290">
    <ele>5102.9</ele>
    <time>2026-06-23T00:08:29Z</time>
   </trkpt>
   <trkpt lat="-3.0881500" lon="37.3714290">
    <ele>5102.9</ele>
    <time>2026-06-23T00:08:30Z</time>
   </trkpt>
   <trkpt lat="-3.0881500" lon="37.3714290">
    <ele>5102.9</ele>
    <time>2026-06-23T00:08:31Z</time>
   </trkpt>
   <trkpt lat="-3.0881510" lon="37.3714250">
    <ele>5103.0</ele>
    <time>2026-06-23T00:08:32Z</time>
   </trkpt>
   <trkpt lat="-3.0881510" lon="37.3714260">
    <ele>5103.0</ele>
    <time>2026-06-23T00:08:33Z</time>
   </trkpt>
   <trkpt lat="-3.0881510" lon="37.3714250">
    <ele>5103.0</ele>
    <time>2026-06-23T00:08:34Z</time>
   </trkpt>
   <trkpt lat="-3.0881470" lon="37.3714200">
    <ele>5103.2</ele>
    <time>2026-06-23T00:08:35Z</time>
   </trkpt>
   <trkpt lat="-3.0881460" lon="37.3714210">
    <ele>5103.2</ele>
    <time>2026-06-23T00:08:36Z</time>
   </trkpt>
   <trkpt lat="-3.0881440" lon="37.3714210">
    <ele>5103.3</ele>
    <time>2026-06-23T00:08:37Z</time>
   </trkpt>
   <trkpt lat="-3.0881420" lon="37.3714230">
    <ele>5103.3</ele>
    <time>2026-06-23T00:08:38Z</time>
   </trkpt>
   <trkpt lat="-3.0881410" lon="37.3714220">
    <ele>5103.4</ele>
    <time>2026-06-23T00:08:39Z</time>
   </trkpt>
   <trkpt lat="-3.0881380" lon="37.3714240">
    <ele>5103.4</ele>
    <time>2026-06-23T00:08:40Z</time>
   </trkpt>
   <trkpt lat="-3.0881360" lon="37.3714260">
    <ele>5103.5</ele>
    <time>2026-06-23T00:08:41Z</time>
   </trkpt>
   <trkpt lat="-3.0881340" lon="37.3714300">
    <ele>5103.6</ele>
    <time>2026-06-23T00:08:42Z</time>
   </trkpt>
   <trkpt lat="-3.0881310" lon="37.3714320">
    <ele>5103.7</ele>
    <time>2026-06-23T00:08:43Z</time>
   </trkpt>
   <trkpt lat="-3.0881280" lon="37.3714330">
    <ele>5103.8</ele>
    <time>2026-06-23T00:08:44Z</time>
   </trkpt>
   <trkpt lat="-3.0881250" lon="37.3714340">
    <ele>5103.8</ele>
    <time>2026-06-23T00:08:45Z</time>
   </trkpt>
   <trkpt lat="-3.0881230" lon="37.3714360">
    <ele>5103.9</ele>
    <time>2026-06-23T00:08:46Z</time>
   </trkpt>
   <trkpt lat="-3.0881190" lon="37.3714360">
    <ele>5104.0</ele>
    <time>2026-06-23T00:08:47Z</time>
   </trkpt>
   <trkpt lat="-3.0881170" lon="37.3714370">
    <ele>5104.0</ele>
    <time>2026-06-23T00:08:48Z</time>
   </trkpt>
   <trkpt lat="-3.0881130" lon="37.3714360">
    <ele>5104.1</ele>
    <time>2026-06-23T00:08:49Z</time>
   </trkpt>
   <trkpt lat="-3.0881110" lon="37.3714340">
    <ele>5104.2</ele>
    <time>2026-06-23T00:08:50Z</time>
   </trkpt>
   <trkpt lat="-3.0881100" lon="37.3714330">
    <ele>5104.2</ele>
    <time>2026-06-23T00:08:51Z</time>
   </trkpt>
   <trkpt lat="-3.0881090" lon="37.3714290">
    <ele>5104.3</ele>
    <time>2026-06-23T00:08:52Z</time>
   </trkpt>
   <trkpt lat="-3.0881100" lon="37.3714270">
    <ele>5104.4</ele>
    <time>2026-06-23T00:08:53Z</time>
   </trkpt>
   <trkpt lat="-3.0881100" lon="37.3714240">
    <ele>5104.5</ele>
    <time>2026-06-23T00:08:54Z</time>
   </trkpt>
   <trkpt lat="-3.0881080" lon="37.3714230">
    <ele>5104.5</ele>
    <time>2026-06-23T00:08:55Z</time>
   </trkpt>
   <trkpt lat="-3.0881090" lon="37.3714220">
    <ele>5104.5</ele>
    <time>2026-06-23T00:08:56Z</time>
   </trkpt>
   <trkpt lat="-3.0881060" lon="37.3714200">
    <ele>5104.6</ele>
    <time>2026-06-23T00:08:57Z</time>
   </trkpt>
   <trkpt lat="-3.0881040" lon="37.3714180">
    <ele>5104.7</ele>
    <time>2026-06-23T00:08:58Z</time>
   </trkpt>
   <trkpt lat="-3.0881020" lon="37.3714200">
    <ele>5104.8</ele>
    <time>2026-06-23T00:08:59Z</time>
   </trkpt>
   <trkpt lat="-3.0880990" lon="37.3714190">
    <ele>5104.8</ele>
    <time>2026-06-23T00:09:00Z</time>
   </trkpt>
   <trkpt lat="-3.0880990" lon="37.3714230">
    <ele>5104.9</ele>
    <time>2026-06-23T00:09:01Z</time>
   </trkpt>
   <trkpt lat="-3.0880970" lon="37.3714210">
    <ele>5105.0</ele>
    <time>2026-06-23T00:09:02Z</time>
   </trkpt>
   <trkpt lat="-3.0880950" lon="37.3714220">
    <ele>5105.0</ele>
    <time>2026-06-23T00:09:03Z</time>
   </trkpt>
   <trkpt lat="-3.0880920" lon="37.3714250">
    <ele>5105.1</ele>
    <time>2026-06-23T00:09:04Z</time>
   </trkpt>
   <trkpt lat="-3.0880900" lon="37.3714240">
    <ele>5105.2</ele>
    <time>2026-06-23T00:09:05Z</time>
   </trkpt>
   <trkpt lat="-3.0880880" lon="37.3714260">
    <ele>5105.3</ele>
    <time>2026-06-23T00:09:06Z</time>
   </trkpt>
   <trkpt lat="-3.0880860" lon="37.3714260">
    <ele>5105.3</ele>
    <time>2026-06-23T00:09:07Z</time>
   </trkpt>
   <trkpt lat="-3.0880830" lon="37.3714280">
    <ele>5105.4</ele>
    <time>2026-06-23T00:09:08Z</time>
   </trkpt>
   <trkpt lat="-3.0880790" lon="37.3714250">
    <ele>5105.5</ele>
    <time>2026-06-23T00:09:09Z</time>
   </trkpt>
   <trkpt lat="-3.0880760" lon="37.3714250">
    <ele>5105.6</ele>
    <time>2026-06-23T00:09:10Z</time>
   </trkpt>
   <trkpt lat="-3.0880750" lon="37.3714240">
    <ele>5105.6</ele>
    <time>2026-06-23T00:09:11Z</time>
   </trkpt>
   <trkpt lat="-3.0880740" lon="37.3714220">
    <ele>5105.7</ele>
    <time>2026-06-23T00:09:12Z</time>
   </trkpt>
   <trkpt lat="-3.0880700" lon="37.3714210">
    <ele>5105.8</ele>
    <time>2026-06-23T00:09:13Z</time>
   </trkpt>
   <trkpt lat="-3.0880680" lon="37.3714200">
    <ele>5105.8</ele>
    <time>2026-06-23T00:09:14Z</time>
   </trkpt>
   <trkpt lat="-3.0880690" lon="37.3714200">
    <ele>5105.8</ele>
    <time>2026-06-23T00:09:15Z</time>
   </trkpt>
   <trkpt lat="-3.0880680" lon="37.3714160">
    <ele>5105.9</ele>
    <time>2026-06-23T00:09:16Z</time>
   </trkpt>
   <trkpt lat="-3.0880690" lon="37.3714150">
    <ele>5106.0</ele>
    <time>2026-06-23T00:09:17Z</time>
   </trkpt>
   <trkpt lat="-3.0880690" lon="37.3714120">
    <ele>5106.0</ele>
    <time>2026-06-23T00:09:18Z</time>
   </trkpt>
   <trkpt lat="-3.0880690" lon="37.3714130">
    <ele>5106.0</ele>
    <time>2026-06-23T00:09:19Z</time>
   </trkpt>
   <trkpt lat="-3.0880680" lon="37.3714080">
    <ele>5106.2</ele>
    <time>2026-06-23T00:09:20Z</time>
   </trkpt>
   <trkpt lat="-3.0880660" lon="37.3714060">
    <ele>5106.2</ele>
    <time>2026-06-23T00:09:21Z</time>
   </trkpt>
   <trkpt lat="-3.0880660" lon="37.3714020">
    <ele>5106.3</ele>
    <time>2026-06-23T00:09:22Z</time>
   </trkpt>
   <trkpt lat="-3.0880650" lon="37.3714030">
    <ele>5106.4</ele>
    <time>2026-06-23T00:09:23Z</time>
   </trkpt>
   <trkpt lat="-3.0880660" lon="37.3713990">
    <ele>5106.4</ele>
    <time>2026-06-23T00:09:24Z</time>
   </trkpt>
   <trkpt lat="-3.0880650" lon="37.3714000">
    <ele>5106.5</ele>
    <time>2026-06-23T00:09:25Z</time>
   </trkpt>
   <trkpt lat="-3.0880670" lon="37.3713970">
    <ele>5106.6</ele>
    <time>2026-06-23T00:09:26Z</time>
   </trkpt>
   <trkpt lat="-3.0880670" lon="37.3713960">
    <ele>5106.6</ele>
    <time>2026-06-23T00:09:27Z</time>
   </trkpt>
   <trkpt lat="-3.0880680" lon="37.3713930">
    <ele>5106.6</ele>
    <time>2026-06-23T00:09:28Z</time>
   </trkpt>
   <trkpt lat="-3.0880680" lon="37.3713910">
    <ele>5106.7</ele>
    <time>2026-06-23T00:09:29Z</time>
   </trkpt>
   <trkpt lat="-3.0880680" lon="37.3713910">
    <ele>5106.7</ele>
    <time>2026-06-23T00:09:30Z</time>
   </trkpt>
   <trkpt lat="-3.0880670" lon="37.3713880">
    <ele>5106.8</ele>
    <time>2026-06-23T00:09:31Z</time>
   </trkpt>
   <trkpt lat="-3.0880670" lon="37.3713850">
    <ele>5106.8</ele>
    <time>2026-06-23T00:09:32Z</time>
   </trkpt>
   <trkpt lat="-3.0880660" lon="37.3713800">
    <ele>5106.9</ele>
    <time>2026-06-23T00:09:33Z</time>
   </trkpt>
   <trkpt lat="-3.0880660" lon="37.3713780">
    <ele>5107.0</ele>
    <time>2026-06-23T00:09:34Z</time>
   </trkpt>
   <trkpt lat="-3.0880670" lon="37.3713760">
    <ele>5107.0</ele>
    <time>2026-06-23T00:09:35Z</time>
   </trkpt>
   <trkpt lat="-3.0880690" lon="37.3713750">
    <ele>5107.1</ele>
    <time>2026-06-23T00:09:36Z</time>
   </trkpt>
   <trkpt lat="-3.0880700" lon="37.3713720">
    <ele>5107.2</ele>
    <time>2026-06-23T00:09:37Z</time>
   </trkpt>
   <trkpt lat="-3.0880730" lon="37.3713710">
    <ele>5107.2</ele>
    <time>2026-06-23T00:09:38Z</time>
   </trkpt>
   <trkpt lat="-3.0880710" lon="37.3713700">
    <ele>5107.3</ele>
    <time>2026-06-23T00:09:39Z</time>
   </trkpt>
   <trkpt lat="-3.0880730" lon="37.3713670">
    <ele>5107.3</ele>
    <time>2026-06-23T00:09:40Z</time>
   </trkpt>
   <trkpt lat="-3.0880730" lon="37.3713640">
    <ele>5107.4</ele>
    <time>2026-06-23T00:09:41Z</time>
   </trkpt>
   <trkpt lat="-3.0880750" lon="37.3713650">
    <ele>5107.5</ele>
    <time>2026-06-23T00:09:42Z</time>
   </trkpt>
   <trkpt lat="-3.0880740" lon="37.3713630">
    <ele>5107.5</ele>
    <time>2026-06-23T00:09:43Z</time>
   </trkpt>
   <trkpt lat="-3.0880760" lon="37.3713630">
    <ele>5107.6</ele>
    <time>2026-06-23T00:09:44Z</time>
   </trkpt>
   <trkpt lat="-3.0880760" lon="37.3713610">
    <ele>5107.6</ele>
    <time>2026-06-23T00:09:45Z</time>
   </trkpt>
   <trkpt lat="-3.0880780" lon="37.3713600">
    <ele>5107.6</ele>
    <time>2026-06-23T00:09:46Z</time>
   </trkpt>
   <trkpt lat="-3.0880780" lon="37.3713590">
    <ele>5107.7</ele>
    <time>2026-06-23T00:09:47Z</time>
   </trkpt>
   <trkpt lat="-3.0880810" lon="37.3713530">
    <ele>5107.8</ele>
    <time>2026-06-23T00:09:48Z</time>
   </trkpt>
   <trkpt lat="-3.0880830" lon="37.3713500">
    <ele>5107.9</ele>
    <time>2026-06-23T00:09:49Z</time>
   </trkpt>
   <trkpt lat="-3.0880850" lon="37.3713510">
    <ele>5107.9</ele>
    <time>2026-06-23T00:09:50Z</time>
   </trkpt>
   <trkpt lat="-3.0880860" lon="37.3713460">
    <ele>5108.1</ele>
    <time>2026-06-23T00:09:51Z</time>
   </trkpt>
   <trkpt lat="-3.0880880" lon="37.3713440">
    <ele>5108.1</ele>
    <time>2026-06-23T00:09:52Z</time>
   </trkpt>
   <trkpt lat="-3.0880890" lon="37.3713410">
    <ele>5108.2</ele>
    <time>2026-06-23T00:09:53Z</time>
   </trkpt>
   <trkpt lat="-3.0880890" lon="37.3713390">
    <ele>5108.2</ele>
    <time>2026-06-23T00:09:54Z</time>
   </trkpt>
   <trkpt lat="-3.0880890" lon="37.3713370">
    <ele>5108.3</ele>
    <time>2026-06-23T00:09:55Z</time>
   </trkpt>
   <trkpt lat="-3.0880880" lon="37.3713370">
    <ele>5108.3</ele>
    <time>2026-06-23T00:09:56Z</time>
   </trkpt>
   <trkpt lat="-3.0880880" lon="37.3713350">
    <ele>5108.3</ele>
    <time>2026-06-23T00:09:57Z</time>
   </trkpt>
   <trkpt lat="-3.0880860" lon="37.3713340">
    <ele>5108.4</ele>
    <time>2026-06-23T00:09:58Z</time>
   </trkpt>
   <trkpt lat="-3.0880850" lon="37.3713300">
    <ele>5108.5</ele>
    <time>2026-06-23T00:09:59Z</time>
   </trkpt>
   <trkpt lat="-3.0880830" lon="37.3713300">
    <ele>5108.5</ele>
    <time>2026-06-23T00:10:00Z</time>
   </trkpt>
   <trkpt lat="-3.0880810" lon="37.3713260">
    <ele>5108.6</ele>
    <time>2026-06-23T00:10:01Z</time>
   </trkpt>
   <trkpt lat="-3.0880800" lon="37.3713260">
    <ele>5108.6</ele>
    <time>2026-06-23T00:10:02Z</time>
   </trkpt>
   <trkpt lat="-3.0880780" lon="37.3713220">
    <ele>5108.7</ele>
    <time>2026-06-23T00:10:03Z</time>
   </trkpt>
   <trkpt lat="-3.0880770" lon="37.3713210">
    <ele>5108.8</ele>
    <time>2026-06-23T00:10:04Z</time>
   </trkpt>
   <trkpt lat="-3.0880780" lon="37.3713210">
    <ele>5108.8</ele>
    <time>2026-06-23T00:10:05Z</time>
   </trkpt>
   <trkpt lat="-3.0880770" lon="37.3713160">
    <ele>5108.9</ele>
    <time>2026-06-23T00:10:06Z</time>
   </trkpt>
   <trkpt lat="-3.0880760" lon="37.3713130">
    <ele>5109.0</ele>
    <time>2026-06-23T00:10:07Z</time>
   </trkpt>
   <trkpt lat="-3.0880770" lon="37.3713100">
    <ele>5109.0</ele>
    <time>2026-06-23T00:10:08Z</time>
   </trkpt>
   <trkpt lat="-3.0880760" lon="37.3713070">
    <ele>5109.1</ele>
    <time>2026-06-23T00:10:09Z</time>
   </trkpt>
   <trkpt lat="-3.0880780" lon="37.3713040">
    <ele>5109.2</ele>
    <time>2026-06-23T00:10:10Z</time>
   </trkpt>
   <trkpt lat="-3.0880780" lon="37.3712990">
    <ele>5109.3</ele>
    <time>2026-06-23T00:10:11Z</time>
   </trkpt>
   <trkpt lat="-3.0880770" lon="37.3712940">
    <ele>5109.4</ele>
    <time>2026-06-23T00:10:12Z</time>
   </trkpt>
   <trkpt lat="-3.0880790" lon="37.3712950">
    <ele>5109.5</ele>
    <time>2026-06-23T00:10:13Z</time>
   </trkpt>
   <trkpt lat="-3.0880790" lon="37.3712910">
    <ele>5109.6</ele>
    <time>2026-06-23T00:10:14Z</time>
   </trkpt>
   <trkpt lat="-3.0880800" lon="37.3712900">
    <ele>5109.6</ele>
    <time>2026-06-23T00:10:15Z</time>
   </trkpt>
   <trkpt lat="-3.0880780" lon="37.3712860">
    <ele>5109.7</ele>
    <time>2026-06-23T00:10:16Z</time>
   </trkpt>
   <trkpt lat="-3.0880790" lon="37.3712850">
    <ele>5109.7</ele>
    <time>2026-06-23T00:10:17Z</time>
   </trkpt>
   <trkpt lat="-3.0880770" lon="37.3712820">
    <ele>5109.8</ele>
    <time>2026-06-23T00:10:18Z</time>
   </trkpt>
   <trkpt lat="-3.0880780" lon="37.3712800">
    <ele>5109.8</ele>
    <time>2026-06-23T00:10:19Z</time>
   </trkpt>
   <trkpt lat="-3.0880730" lon="37.3712740">
    <ele>5110.0</ele>
    <time>2026-06-23T00:10:20Z</time>
   </trkpt>
   <trkpt lat="-3.0880750" lon="37.3712720">
    <ele>5110.1</ele>
    <time>2026-06-23T00:10:21Z</time>
   </trkpt>
   <trkpt lat="-3.0880770" lon="37.3712710">
    <ele>5110.1</ele>
    <time>2026-06-23T00:10:22Z</time>
   </trkpt>
   <trkpt lat="-3.0880760" lon="37.3712650">
    <ele>5110.3</ele>
    <time>2026-06-23T00:10:23Z</time>
   </trkpt>
   <trkpt lat="-3.0880790" lon="37.3712640">
    <ele>5110.3</ele>
    <time>2026-06-23T00:10:24Z</time>
   </trkpt>
   <trkpt lat="-3.0880790" lon="37.3712610">
    <ele>5110.4</ele>
    <time>2026-06-23T00:10:25Z</time>
   </trkpt>
   <trkpt lat="-3.0880820" lon="37.3712580">
    <ele>5110.5</ele>
    <time>2026-06-23T00:10:26Z</time>
   </trkpt>
   <trkpt lat="-3.0880820" lon="37.3712560">
    <ele>5110.5</ele>
    <time>2026-06-23T00:10:27Z</time>
   </trkpt>
   <trkpt lat="-3.0880850" lon="37.3712530">
    <ele>5110.6</ele>
    <time>2026-06-23T00:10:28Z</time>
   </trkpt>
   <trkpt lat="-3.0880860" lon="37.3712520">
    <ele>5110.7</ele>
    <time>2026-06-23T00:10:29Z</time>
   </trkpt>
   <trkpt lat="-3.0880890" lon="37.3712490">
    <ele>5110.7</ele>
    <time>2026-06-23T00:10:30Z</time>
   </trkpt>
   <trkpt lat="-3.0880880" lon="37.3712450">
    <ele>5110.8</ele>
    <time>2026-06-23T00:10:31Z</time>
   </trkpt>
   <trkpt lat="-3.0880880" lon="37.3712450">
    <ele>5110.8</ele>
    <time>2026-06-23T00:10:32Z</time>
   </trkpt>
   <trkpt lat="-3.0880900" lon="37.3712390">
    <ele>5111.0</ele>
    <time>2026-06-23T00:10:33Z</time>
   </trkpt>
   <trkpt lat="-3.0880890" lon="37.3712370">
    <ele>5111.0</ele>
    <time>2026-06-23T00:10:34Z</time>
   </trkpt>
   <trkpt lat="-3.0880910" lon="37.3712350">
    <ele>5111.1</ele>
    <time>2026-06-23T00:10:35Z</time>
   </trkpt>
   <trkpt lat="-3.0880900" lon="37.3712320">
    <ele>5111.2</ele>
    <time>2026-06-23T00:10:36Z</time>
   </trkpt>
   <trkpt lat="-3.0880920" lon="37.3712310">
    <ele>5111.2</ele>
    <time>2026-06-23T00:10:37Z</time>
   </trkpt>
   <trkpt lat="-3.0880890" lon="37.3712250">
    <ele>5111.4</ele>
    <time>2026-06-23T00:10:38Z</time>
   </trkpt>
   <trkpt lat="-3.0880920" lon="37.3712270">
    <ele>5111.4</ele>
    <time>2026-06-23T00:10:39Z</time>
   </trkpt>
   <trkpt lat="-3.0880920" lon="37.3712240">
    <ele>5111.5</ele>
    <time>2026-06-23T00:10:40Z</time>
   </trkpt>
   <trkpt lat="-3.0880920" lon="37.3712230">
    <ele>5111.5</ele>
    <time>2026-06-23T00:10:41Z</time>
   </trkpt>
   <trkpt lat="-3.0880910" lon="37.3712210">
    <ele>5111.6</ele>
    <time>2026-06-23T00:10:42Z</time>
   </trkpt>
   <trkpt lat="-3.0880930" lon="37.3712200">
    <ele>5111.6</ele>
    <time>2026-06-23T00:10:43Z</time>
   </trkpt>
   <trkpt lat="-3.0880920" lon="37.3712160">
    <ele>5111.7</ele>
    <time>2026-06-23T00:10:44Z</time>
   </trkpt>
   <trkpt lat="-3.0880920" lon="37.3712130">
    <ele>5111.8</ele>
    <time>2026-06-23T00:10:45Z</time>
   </trkpt>
   <trkpt lat="-3.0880890" lon="37.3712100">
    <ele>5111.9</ele>
    <time>2026-06-23T00:10:46Z</time>
   </trkpt>
   <trkpt lat="-3.0880840" lon="37.3712050">
    <ele>5112.0</ele>
    <time>2026-06-23T00:10:47Z</time>
   </trkpt>
   <trkpt lat="-3.0880840" lon="37.3712090">
    <ele>5112.1</ele>
    <time>2026-06-23T00:10:48Z</time>
   </trkpt>
   <trkpt lat="-3.0880800" lon="37.3712080">
    <ele>5112.2</ele>
    <time>2026-06-23T00:10:49Z</time>
   </trkpt>
   <trkpt lat="-3.0880780" lon="37.3712070">
    <ele>5112.2</ele>
    <time>2026-06-23T00:10:50Z</time>
   </trkpt>
   <trkpt lat="-3.0880750" lon="37.3712070">
    <ele>5112.3</ele>
    <time>2026-06-23T00:10:51Z</time>
   </trkpt>
   <trkpt lat="-3.0880710" lon="37.3712060">
    <ele>5112.4</ele>
    <time>2026-06-23T00:10:52Z</time>
   </trkpt>
   <trkpt lat="-3.0880700" lon="37.3712070">
    <ele>5112.4</ele>
    <time>2026-06-23T00:10:53Z</time>
   </trkpt>
   <trkpt lat="-3.0880680" lon="37.3712050">
    <ele>5112.5</ele>
    <time>2026-06-23T00:10:54Z</time>
   </trkpt>
   <trkpt lat="-3.0880660" lon="37.3712040">
    <ele>5112.5</ele>
    <time>2026-06-23T00:10:55Z</time>
   </trkpt>
   <trkpt lat="-3.0880640" lon="37.3712020">
    <ele>5112.6</ele>
    <time>2026-06-23T00:10:56Z</time>
   </trkpt>
   <trkpt lat="-3.0880620" lon="37.3712020">
    <ele>5112.6</ele>
    <time>2026-06-23T00:10:57Z</time>
   </trkpt>
   <trkpt lat="-3.0880610" lon="37.3712040">
    <ele>5112.7</ele>
    <time>2026-06-23T00:10:58Z</time>
   </trkpt>
   <trkpt lat="-3.0880560" lon="37.3712040">
    <ele>5112.8</ele>
    <time>2026-06-23T00:10:59Z</time>
   </trkpt>
   <trkpt lat="-3.0880530" lon="37.3712060">
    <ele>5112.9</ele>
    <time>2026-06-23T00:11:00Z</time>
   </trkpt>
   <trkpt lat="-3.0880530" lon="37.3712090">
    <ele>5112.9</ele>
    <time>2026-06-23T00:11:01Z</time>
   </trkpt>
   <trkpt lat="-3.0880500" lon="37.3712090">
    <ele>5113.0</ele>
    <time>2026-06-23T00:11:02Z</time>
   </trkpt>
   <trkpt lat="-3.0880480" lon="37.3712110">
    <ele>5113.1</ele>
    <time>2026-06-23T00:11:03Z</time>
   </trkpt>
   <trkpt lat="-3.0880480" lon="37.3712130">
    <ele>5113.1</ele>
    <time>2026-06-23T00:11:04Z</time>
   </trkpt>
   <trkpt lat="-3.0880460" lon="37.3712120">
    <ele>5113.1</ele>
    <time>2026-06-23T00:11:05Z</time>
   </trkpt>
   <trkpt lat="-3.0880450" lon="37.3712140">
    <ele>5113.2</ele>
    <time>2026-06-23T00:11:06Z</time>
   </trkpt>
   <trkpt lat="-3.0880420" lon="37.3712170">
    <ele>5113.3</ele>
    <time>2026-06-23T00:11:07Z</time>
   </trkpt>
   <trkpt lat="-3.0880410" lon="37.3712170">
    <ele>5113.3</ele>
    <time>2026-06-23T00:11:08Z</time>
   </trkpt>
   <trkpt lat="-3.0880380" lon="37.3712200">
    <ele>5113.4</ele>
    <time>2026-06-23T00:11:09Z</time>
   </trkpt>
   <trkpt lat="-3.0880360" lon="37.3712200">
    <ele>5113.4</ele>
    <time>2026-06-23T00:11:10Z</time>
   </trkpt>
   <trkpt lat="-3.0880320" lon="37.3712210">
    <ele>5113.5</ele>
    <time>2026-06-23T00:11:11Z</time>
   </trkpt>
   <trkpt lat="-3.0880310" lon="37.3712230">
    <ele>5113.6</ele>
    <time>2026-06-23T00:11:12Z</time>
   </trkpt>
   <trkpt lat="-3.0880290" lon="37.3712250">
    <ele>5113.6</ele>
    <time>2026-06-23T00:11:13Z</time>
   </trkpt>
   <trkpt lat="-3.0880290" lon="37.3712260">
    <ele>5113.7</ele>
    <time>2026-06-23T00:11:14Z</time>
   </trkpt>
   <trkpt lat="-3.0880260" lon="37.3712260">
    <ele>5113.7</ele>
    <time>2026-06-23T00:11:15Z</time>
   </trkpt>
   <trkpt lat="-3.0880240" lon="37.3712280">
    <ele>5113.8</ele>
    <time>2026-06-23T00:11:16Z</time>
   </trkpt>
   <trkpt lat="-3.0880220" lon="37.3712290">
    <ele>5113.8</ele>
    <time>2026-06-23T00:11:17Z</time>
   </trkpt>
   <trkpt lat="-3.0880210" lon="37.3712310">
    <ele>5113.9</ele>
    <time>2026-06-23T00:11:18Z</time>
   </trkpt>
   <trkpt lat="-3.0880180" lon="37.3712300">
    <ele>5113.9</ele>
    <time>2026-06-23T00:11:19Z</time>
   </trkpt>
   <trkpt lat="-3.0880140" lon="37.3712300">
    <ele>5114.0</ele>
    <time>2026-06-23T00:11:20Z</time>
   </trkpt>
   <trkpt lat="-3.0880130" lon="37.3712300">
    <ele>5114.1</ele>
    <time>2026-06-23T00:11:21Z</time>
   </trkpt>
   <trkpt lat="-3.0880110" lon="37.3712290">
    <ele>5114.1</ele>
    <time>2026-06-23T00:11:22Z</time>
   </trkpt>
   <trkpt lat="-3.0880070" lon="37.3712300">
    <ele>5114.2</ele>
    <time>2026-06-23T00:11:23Z</time>
   </trkpt>
   <trkpt lat="-3.0880030" lon="37.3712280">
    <ele>5114.3</ele>
    <time>2026-06-23T00:11:24Z</time>
   </trkpt>
   <trkpt lat="-3.0880020" lon="37.3712290">
    <ele>5114.3</ele>
    <time>2026-06-23T00:11:25Z</time>
   </trkpt>
   <trkpt lat="-3.0879980" lon="37.3712300">
    <ele>5114.4</ele>
    <time>2026-06-23T00:11:26Z</time>
   </trkpt>
   <trkpt lat="-3.0880000" lon="37.3712310">
    <ele>5114.4</ele>
    <time>2026-06-23T00:11:27Z</time>
   </trkpt>
   <trkpt lat="-3.0879970" lon="37.3712330">
    <ele>5114.5</ele>
    <time>2026-06-23T00:11:28Z</time>
   </trkpt>
   <trkpt lat="-3.0879940" lon="37.3712340">
    <ele>5114.6</ele>
    <time>2026-06-23T00:11:29Z</time>
   </trkpt>
   <trkpt lat="-3.0879930" lon="37.3712370">
    <ele>5114.7</ele>
    <time>2026-06-23T00:11:30Z</time>
   </trkpt>
   <trkpt lat="-3.0879920" lon="37.3712390">
    <ele>5114.7</ele>
    <time>2026-06-23T00:11:31Z</time>
   </trkpt>
   <trkpt lat="-3.0879900" lon="37.3712410">
    <ele>5114.8</ele>
    <time>2026-06-23T00:11:32Z</time>
   </trkpt>
   <trkpt lat="-3.0879860" lon="37.3712440">
    <ele>5114.9</ele>
    <time>2026-06-23T00:11:33Z</time>
   </trkpt>
   <trkpt lat="-3.0879820" lon="37.3712450">
    <ele>5115.0</ele>
    <time>2026-06-23T00:11:34Z</time>
   </trkpt>
   <trkpt lat="-3.0879790" lon="37.3712440">
    <ele>5115.0</ele>
    <time>2026-06-23T00:11:35Z</time>
   </trkpt>
   <trkpt lat="-3.0879780" lon="37.3712440">
    <ele>5115.0</ele>
    <time>2026-06-23T00:11:36Z</time>
   </trkpt>
   <trkpt lat="-3.0879750" lon="37.3712430">
    <ele>5115.1</ele>
    <time>2026-06-23T00:11:37Z</time>
   </trkpt>
   <trkpt lat="-3.0879730" lon="37.3712390">
    <ele>5115.2</ele>
    <time>2026-06-23T00:11:38Z</time>
   </trkpt>
   <trkpt lat="-3.0879730" lon="37.3712370">
    <ele>5115.3</ele>
    <time>2026-06-23T00:11:39Z</time>
   </trkpt>
   <trkpt lat="-3.0879720" lon="37.3712330">
    <ele>5115.3</ele>
    <time>2026-06-23T00:11:40Z</time>
   </trkpt>
   <trkpt lat="-3.0879740" lon="37.3712320">
    <ele>5115.4</ele>
    <time>2026-06-23T00:11:41Z</time>
   </trkpt>
   <trkpt lat="-3.0879730" lon="37.3712290">
    <ele>5115.5</ele>
    <time>2026-06-23T00:11:42Z</time>
   </trkpt>
   <trkpt lat="-3.0879720" lon="37.3712270">
    <ele>5115.5</ele>
    <time>2026-06-23T00:11:43Z</time>
   </trkpt>
   <trkpt lat="-3.0879720" lon="37.3712240">
    <ele>5115.6</ele>
    <time>2026-06-23T00:11:44Z</time>
   </trkpt>
   <trkpt lat="-3.0879730" lon="37.3712210">
    <ele>5115.6</ele>
    <time>2026-06-23T00:11:45Z</time>
   </trkpt>
   <trkpt lat="-3.0879740" lon="37.3712210">
    <ele>5115.7</ele>
    <time>2026-06-23T00:11:46Z</time>
   </trkpt>
   <trkpt lat="-3.0879750" lon="37.3712170">
    <ele>5115.7</ele>
    <time>2026-06-23T00:11:47Z</time>
   </trkpt>
   <trkpt lat="-3.0879750" lon="37.3712150">
    <ele>5115.8</ele>
    <time>2026-06-23T00:11:48Z</time>
   </trkpt>
   <trkpt lat="-3.0879760" lon="37.3712110">
    <ele>5115.9</ele>
    <time>2026-06-23T00:11:49Z</time>
   </trkpt>
   <trkpt lat="-3.0879760" lon="37.3712090">
    <ele>5115.9</ele>
    <time>2026-06-23T00:11:50Z</time>
   </trkpt>
   <trkpt lat="-3.0879770" lon="37.3712060">
    <ele>5116.0</ele>
    <time>2026-06-23T00:11:51Z</time>
   </trkpt>
   <trkpt lat="-3.0879750" lon="37.3712040">
    <ele>5116.0</ele>
    <time>2026-06-23T00:11:52Z</time>
   </trkpt>
   <trkpt lat="-3.0879740" lon="37.3712020">
    <ele>5116.1</ele>
    <time>2026-06-23T00:11:53Z</time>
   </trkpt>
   <trkpt lat="-3.0879710" lon="37.3712010">
    <ele>5116.2</ele>
    <time>2026-06-23T00:11:54Z</time>
   </trkpt>
   <trkpt lat="-3.0879700" lon="37.3712010">
    <ele>5116.2</ele>
    <time>2026-06-23T00:11:55Z</time>
   </trkpt>
   <trkpt lat="-3.0879680" lon="37.3712020">
    <ele>5116.2</ele>
    <time>2026-06-23T00:11:56Z</time>
   </trkpt>
   <trkpt lat="-3.0879650" lon="37.3712020">
    <ele>5116.3</ele>
    <time>2026-06-23T00:11:57Z</time>
   </trkpt>
   <trkpt lat="-3.0879620" lon="37.3712030">
    <ele>5116.4</ele>
    <time>2026-06-23T00:11:58Z</time>
   </trkpt>
   <trkpt lat="-3.0879610" lon="37.3712030">
    <ele>5116.4</ele>
    <time>2026-06-23T00:11:59Z</time>
   </trkpt>
   <trkpt lat="-3.0879610" lon="37.3712060">
    <ele>5116.4</ele>
    <time>2026-06-23T00:12:00Z</time>
   </trkpt>
   <trkpt lat="-3.0879570" lon="37.3712060">
    <ele>5116.5</ele>
    <time>2026-06-23T00:12:01Z</time>
   </trkpt>
   <trkpt lat="-3.0879560" lon="37.3712100">
    <ele>5116.6</ele>
    <time>2026-06-23T00:12:02Z</time>
   </trkpt>
   <trkpt lat="-3.0879530" lon="37.3712110">
    <ele>5116.7</ele>
    <time>2026-06-23T00:12:03Z</time>
   </trkpt>
   <trkpt lat="-3.0879500" lon="37.3712150">
    <ele>5116.8</ele>
    <time>2026-06-23T00:12:04Z</time>
   </trkpt>
   <trkpt lat="-3.0879450" lon="37.3712150">
    <ele>5116.9</ele>
    <time>2026-06-23T00:12:05Z</time>
   </trkpt>
   <trkpt lat="-3.0879430" lon="37.3712160">
    <ele>5116.9</ele>
    <time>2026-06-23T00:12:06Z</time>
   </trkpt>
   <trkpt lat="-3.0879410" lon="37.3712180">
    <ele>5117.0</ele>
    <time>2026-06-23T00:12:07Z</time>
   </trkpt>
   <trkpt lat="-3.0879380" lon="37.3712200">
    <ele>5117.1</ele>
    <time>2026-06-23T00:12:08Z</time>
   </trkpt>
   <trkpt lat="-3.0879370" lon="37.3712220">
    <ele>5117.1</ele>
    <time>2026-06-23T00:12:09Z</time>
   </trkpt>
   <trkpt lat="-3.0879350" lon="37.3712230">
    <ele>5117.2</ele>
    <time>2026-06-23T00:12:10Z</time>
   </trkpt>
   <trkpt lat="-3.0879360" lon="37.3712270">
    <ele>5117.3</ele>
    <time>2026-06-23T00:12:11Z</time>
   </trkpt>
   <trkpt lat="-3.0879310" lon="37.3712280">
    <ele>5117.4</ele>
    <time>2026-06-23T00:12:12Z</time>
   </trkpt>
   <trkpt lat="-3.0879320" lon="37.3712280">
    <ele>5117.4</ele>
    <time>2026-06-23T00:12:13Z</time>
   </trkpt>
   <trkpt lat="-3.0879320" lon="37.3712290">
    <ele>5117.4</ele>
    <time>2026-06-23T00:12:14Z</time>
   </trkpt>
   <trkpt lat="-3.0879280" lon="37.3712280">
    <ele>5117.5</ele>
    <time>2026-06-23T00:12:15Z</time>
   </trkpt>
   <trkpt lat="-3.0879260" lon="37.3712290">
    <ele>5117.5</ele>
    <time>2026-06-23T00:12:16Z</time>
   </trkpt>
   <trkpt lat="-3.0879240" lon="37.3712270">
    <ele>5117.6</ele>
    <time>2026-06-23T00:12:17Z</time>
   </trkpt>
   <trkpt lat="-3.0879230" lon="37.3712240">
    <ele>5117.7</ele>
    <time>2026-06-23T00:12:18Z</time>
   </trkpt>
   <trkpt lat="-3.0879250" lon="37.3712200">
    <ele>5117.8</ele>
    <time>2026-06-23T00:12:19Z</time>
   </trkpt>
   <trkpt lat="-3.0879240" lon="37.3712160">
    <ele>5117.9</ele>
    <time>2026-06-23T00:12:20Z</time>
   </trkpt>
   <trkpt lat="-3.0879230" lon="37.3712150">
    <ele>5117.9</ele>
    <time>2026-06-23T00:12:21Z</time>
   </trkpt>
   <trkpt lat="-3.0879240" lon="37.3712130">
    <ele>5117.9</ele>
    <time>2026-06-23T00:12:22Z</time>
   </trkpt>
   <trkpt lat="-3.0879240" lon="37.3712100">
    <ele>5118.0</ele>
    <time>2026-06-23T00:12:23Z</time>
   </trkpt>
   <trkpt lat="-3.0879210" lon="37.3712070">
    <ele>5118.1</ele>
    <time>2026-06-23T00:12:24Z</time>
   </trkpt>
   <trkpt lat="-3.0879200" lon="37.3712060">
    <ele>5118.1</ele>
    <time>2026-06-23T00:12:25Z</time>
   </trkpt>
   <trkpt lat="-3.0879200" lon="37.3712050">
    <ele>5118.1</ele>
    <time>2026-06-23T00:12:26Z</time>
   </trkpt>
   <trkpt lat="-3.0879180" lon="37.3712010">
    <ele>5118.2</ele>
    <time>2026-06-23T00:12:27Z</time>
   </trkpt>
   <trkpt lat="-3.0879200" lon="37.3711990">
    <ele>5118.3</ele>
    <time>2026-06-23T00:12:28Z</time>
   </trkpt>
   <trkpt lat="-3.0879190" lon="37.3711970">
    <ele>5118.3</ele>
    <time>2026-06-23T00:12:29Z</time>
   </trkpt>
   <trkpt lat="-3.0879200" lon="37.3711940">
    <ele>5118.4</ele>
    <time>2026-06-23T00:12:30Z</time>
   </trkpt>
   <trkpt lat="-3.0879190" lon="37.3711940">
    <ele>5118.4</ele>
    <time>2026-06-23T00:12:31Z</time>
   </trkpt>
   <trkpt lat="-3.0879190" lon="37.3711940">
    <ele>5118.4</ele>
    <time>2026-06-23T00:12:32Z</time>
   </trkpt>
   <trkpt lat="-3.0879200" lon="37.3711890">
    <ele>5118.5</ele>
    <time>2026-06-23T00:12:33Z</time>
   </trkpt>
   <trkpt lat="-3.0879210" lon="37.3711860">
    <ele>5118.6</ele>
    <time>2026-06-23T00:12:34Z</time>
   </trkpt>
   <trkpt lat="-3.0879210" lon="37.3711830">
    <ele>5118.7</ele>
    <time>2026-06-23T00:12:35Z</time>
   </trkpt>
   <trkpt lat="-3.0879220" lon="37.3711810">
    <ele>5118.7</ele>
    <time>2026-06-23T00:12:36Z</time>
   </trkpt>
   <trkpt lat="-3.0879230" lon="37.3711790">
    <ele>5118.8</ele>
    <time>2026-06-23T00:12:37Z</time>
   </trkpt>
   <trkpt lat="-3.0879220" lon="37.3711770">
    <ele>5118.8</ele>
    <time>2026-06-23T00:12:38Z</time>
   </trkpt>
   <trkpt lat="-3.0879220" lon="37.3711750">
    <ele>5118.9</ele>
    <time>2026-06-23T00:12:39Z</time>
   </trkpt>
   <trkpt lat="-3.0879200" lon="37.3711720">
    <ele>5118.9</ele>
    <time>2026-06-23T00:12:40Z</time>
   </trkpt>
   <trkpt lat="-3.0879190" lon="37.3711700">
    <ele>5119.0</ele>
    <time>2026-06-23T00:12:41Z</time>
   </trkpt>
   <trkpt lat="-3.0879170" lon="37.3711680">
    <ele>5119.0</ele>
    <time>2026-06-23T00:12:42Z</time>
   </trkpt>
   <trkpt lat="-3.0879170" lon="37.3711690">
    <ele>5119.1</ele>
    <time>2026-06-23T00:12:43Z</time>
   </trkpt>
   <trkpt lat="-3.0879170" lon="37.3711700">
    <ele>5119.1</ele>
    <time>2026-06-23T00:12:44Z</time>
   </trkpt>
   <trkpt lat="-3.0879130" lon="37.3711700">
    <ele>5119.2</ele>
    <time>2026-06-23T00:12:45Z</time>
   </trkpt>
   <trkpt lat="-3.0879100" lon="37.3711700">
    <ele>5119.2</ele>
    <time>2026-06-23T00:12:46Z</time>
   </trkpt>
   <trkpt lat="-3.0879080" lon="37.3711720">
    <ele>5119.3</ele>
    <time>2026-06-23T00:12:47Z</time>
   </trkpt>
   <trkpt lat="-3.0879030" lon="37.3711720">
    <ele>5119.4</ele>
    <time>2026-06-23T00:12:48Z</time>
   </trkpt>
   <trkpt lat="-3.0879030" lon="37.3711740">
    <ele>5119.4</ele>
    <time>2026-06-23T00:12:49Z</time>
   </trkpt>
   <trkpt lat="-3.0878990" lon="37.3711750">
    <ele>5119.5</ele>
    <time>2026-06-23T00:12:50Z</time>
   </trkpt>
   <trkpt lat="-3.0878970" lon="37.3711770">
    <ele>5119.6</ele>
    <time>2026-06-23T00:12:51Z</time>
   </trkpt>
   <trkpt lat="-3.0878940" lon="37.3711780">
    <ele>5119.7</ele>
    <time>2026-06-23T00:12:52Z</time>
   </trkpt>
   <trkpt lat="-3.0878920" lon="37.3711810">
    <ele>5119.7</ele>
    <time>2026-06-23T00:12:53Z</time>
   </trkpt>
   <trkpt lat="-3.0878890" lon="37.3711840">
    <ele>5119.8</ele>
    <time>2026-06-23T00:12:54Z</time>
   </trkpt>
   <trkpt lat="-3.0878860" lon="37.3711860">
    <ele>5119.9</ele>
    <time>2026-06-23T00:12:55Z</time>
   </trkpt>
   <trkpt lat="-3.0878850" lon="37.3711880">
    <ele>5120.0</ele>
    <time>2026-06-23T00:12:56Z</time>
   </trkpt>
   <trkpt lat="-3.0878840" lon="37.3711890">
    <ele>5120.0</ele>
    <time>2026-06-23T00:12:57Z</time>
   </trkpt>
   <trkpt lat="-3.0878810" lon="37.3711930">
    <ele>5120.1</ele>
    <time>2026-06-23T00:12:58Z</time>
   </trkpt>
   <trkpt lat="-3.0878790" lon="37.3711950">
    <ele>5120.1</ele>
    <time>2026-06-23T00:12:59Z</time>
   </trkpt>
   <trkpt lat="-3.0878750" lon="37.3711960">
    <ele>5120.2</ele>
    <time>2026-06-23T00:13:00Z</time>
   </trkpt>
   <trkpt lat="-3.0878730" lon="37.3711950">
    <ele>5120.3</ele>
    <time>2026-06-23T00:13:01Z</time>
   </trkpt>
   <trkpt lat="-3.0878720" lon="37.3711960">
    <ele>5120.3</ele>
    <time>2026-06-23T00:13:02Z</time>
   </trkpt>
   <trkpt lat="-3.0878670" lon="37.3711950">
    <ele>5120.4</ele>
    <time>2026-06-23T00:13:03Z</time>
   </trkpt>
   <trkpt lat="-3.0878650" lon="37.3711950">
    <ele>5120.5</ele>
    <time>2026-06-23T00:13:04Z</time>
   </trkpt>
   <trkpt lat="-3.0878620" lon="37.3711920">
    <ele>5120.6</ele>
    <time>2026-06-23T00:13:05Z</time>
   </trkpt>
   <trkpt lat="-3.0878610" lon="37.3711920">
    <ele>5120.6</ele>
    <time>2026-06-23T00:13:06Z</time>
   </trkpt>
   <trkpt lat="-3.0878610" lon="37.3711870">
    <ele>5120.7</ele>
    <time>2026-06-23T00:13:07Z</time>
   </trkpt>
   <trkpt lat="-3.0878610" lon="37.3711850">
    <ele>5120.7</ele>
    <time>2026-06-23T00:13:08Z</time>
   </trkpt>
   <trkpt lat="-3.0878620" lon="37.3711830">
    <ele>5120.8</ele>
    <time>2026-06-23T00:13:09Z</time>
   </trkpt>
   <trkpt lat="-3.0878630" lon="37.3711800">
    <ele>5120.8</ele>
    <time>2026-06-23T00:13:10Z</time>
   </trkpt>
   <trkpt lat="-3.0878630" lon="37.3711780">
    <ele>5120.9</ele>
    <time>2026-06-23T00:13:11Z</time>
   </trkpt>
   <trkpt lat="-3.0878660" lon="37.3711750">
    <ele>5121.0</ele>
    <time>2026-06-23T00:13:12Z</time>
   </trkpt>
   <trkpt lat="-3.0878650" lon="37.3711720">
    <ele>5121.0</ele>
    <time>2026-06-23T00:13:13Z</time>
   </trkpt>
   <trkpt lat="-3.0878650" lon="37.3711710">
    <ele>5121.1</ele>
    <time>2026-06-23T00:13:14Z</time>
   </trkpt>
   <trkpt lat="-3.0878640" lon="37.3711710">
    <ele>5121.1</ele>
    <time>2026-06-23T00:13:15Z</time>
   </trkpt>
   <trkpt lat="-3.0878600" lon="37.3711680">
    <ele>5121.2</ele>
    <time>2026-06-23T00:13:16Z</time>
   </trkpt>
   <trkpt lat="-3.0878580" lon="37.3711670">
    <ele>5121.2</ele>
    <time>2026-06-23T00:13:17Z</time>
   </trkpt>
   <trkpt lat="-3.0878560" lon="37.3711660">
    <ele>5121.3</ele>
    <time>2026-06-23T00:13:18Z</time>
   </trkpt>
   <trkpt lat="-3.0878520" lon="37.3711640">
    <ele>5121.4</ele>
    <time>2026-06-23T00:13:19Z</time>
   </trkpt>
   <trkpt lat="-3.0878480" lon="37.3711600">
    <ele>5121.5</ele>
    <time>2026-06-23T00:13:20Z</time>
   </trkpt>
   <trkpt lat="-3.0878460" lon="37.3711620">
    <ele>5121.6</ele>
    <time>2026-06-23T00:13:21Z</time>
   </trkpt>
   <trkpt lat="-3.0878420" lon="37.3711650">
    <ele>5121.7</ele>
    <time>2026-06-23T00:13:22Z</time>
   </trkpt>
   <trkpt lat="-3.0878400" lon="37.3711680">
    <ele>5121.8</ele>
    <time>2026-06-23T00:13:23Z</time>
   </trkpt>
   <trkpt lat="-3.0878390" lon="37.3711710">
    <ele>5121.8</ele>
    <time>2026-06-23T00:13:24Z</time>
   </trkpt>
   <trkpt lat="-3.0878410" lon="37.3711740">
    <ele>5121.9</ele>
    <time>2026-06-23T00:13:25Z</time>
   </trkpt>
   <trkpt lat="-3.0878430" lon="37.3711740">
    <ele>5121.9</ele>
    <time>2026-06-23T00:13:26Z</time>
   </trkpt>
   <trkpt lat="-3.0878370" lon="37.3711790">
    <ele>5122.1</ele>
    <time>2026-06-23T00:13:27Z</time>
   </trkpt>
   <trkpt lat="-3.0878370" lon="37.3711790">
    <ele>5122.1</ele>
    <time>2026-06-23T00:13:28Z</time>
   </trkpt>
   <trkpt lat="-3.0878350" lon="37.3711790">
    <ele>5122.2</ele>
    <time>2026-06-23T00:13:29Z</time>
   </trkpt>
   <trkpt lat="-3.0878330" lon="37.3711790">
    <ele>5122.2</ele>
    <time>2026-06-23T00:13:30Z</time>
   </trkpt>
   <trkpt lat="-3.0878250" lon="37.3711790">
    <ele>5122.4</ele>
    <time>2026-06-23T00:13:31Z</time>
   </trkpt>
   <trkpt lat="-3.0878290" lon="37.3711740">
    <ele>5122.5</ele>
    <time>2026-06-23T00:13:32Z</time>
   </trkpt>
   <trkpt lat="-3.0878280" lon="37.3711700">
    <ele>5122.6</ele>
    <time>2026-06-23T00:13:33Z</time>
   </trkpt>
   <trkpt lat="-3.0878290" lon="37.3711700">
    <ele>5122.6</ele>
    <time>2026-06-23T00:13:34Z</time>
   </trkpt>
   <trkpt lat="-3.0878300" lon="37.3711650">
    <ele>5122.7</ele>
    <time>2026-06-23T00:13:35Z</time>
   </trkpt>
   <trkpt lat="-3.0878310" lon="37.3711630">
    <ele>5122.8</ele>
    <time>2026-06-23T00:13:36Z</time>
   </trkpt>
   <trkpt lat="-3.0878330" lon="37.3711620">
    <ele>5122.8</ele>
    <time>2026-06-23T00:13:37Z</time>
   </trkpt>
   <trkpt lat="-3.0878330" lon="37.3711600">
    <ele>5122.9</ele>
    <time>2026-06-23T00:13:38Z</time>
   </trkpt>
   <trkpt lat="-3.0878330" lon="37.3711570">
    <ele>5122.9</ele>
    <time>2026-06-23T00:13:39Z</time>
   </trkpt>
   <trkpt lat="-3.0878320" lon="37.3711550">
    <ele>5123.0</ele>
    <time>2026-06-23T00:13:40Z</time>
   </trkpt>
   <trkpt lat="-3.0878350" lon="37.3711530">
    <ele>5123.1</ele>
    <time>2026-06-23T00:13:41Z</time>
   </trkpt>
   <trkpt lat="-3.0878350" lon="37.3711500">
    <ele>5123.1</ele>
    <time>2026-06-23T00:13:42Z</time>
   </trkpt>
   <trkpt lat="-3.0878350" lon="37.3711480">
    <ele>5123.2</ele>
    <time>2026-06-23T00:13:43Z</time>
   </trkpt>
   <trkpt lat="-3.0878340" lon="37.3711450">
    <ele>5123.2</ele>
    <time>2026-06-23T00:13:44Z</time>
   </trkpt>
   <trkpt lat="-3.0878360" lon="37.3711440">
    <ele>5123.3</ele>
    <time>2026-06-23T00:13:45Z</time>
   </trkpt>
   <trkpt lat="-3.0878350" lon="37.3711400">
    <ele>5123.4</ele>
    <time>2026-06-23T00:13:46Z</time>
   </trkpt>
   <trkpt lat="-3.0878380" lon="37.3711390">
    <ele>5123.4</ele>
    <time>2026-06-23T00:13:47Z</time>
   </trkpt>
   <trkpt lat="-3.0878380" lon="37.3711360">
    <ele>5123.5</ele>
    <time>2026-06-23T00:13:48Z</time>
   </trkpt>
   <trkpt lat="-3.0878380" lon="37.3711330">
    <ele>5123.6</ele>
    <time>2026-06-23T00:13:49Z</time>
   </trkpt>
   <trkpt lat="-3.0878370" lon="37.3711310">
    <ele>5123.6</ele>
    <time>2026-06-23T00:13:50Z</time>
   </trkpt>
   <trkpt lat="-3.0878380" lon="37.3711280">
    <ele>5123.7</ele>
    <time>2026-06-23T00:13:51Z</time>
   </trkpt>
   <trkpt lat="-3.0878390" lon="37.3711260">
    <ele>5123.7</ele>
    <time>2026-06-23T00:13:52Z</time>
   </trkpt>
   <trkpt lat="-3.0878410" lon="37.3711240">
    <ele>5123.8</ele>
    <time>2026-06-23T00:13:53Z</time>
   </trkpt>
   <trkpt lat="-3.0878430" lon="37.3711210">
    <ele>5123.9</ele>
    <time>2026-06-23T00:13:54Z</time>
   </trkpt>
   <trkpt lat="-3.0878430" lon="37.3711190">
    <ele>5123.9</ele>
    <time>2026-06-23T00:13:55Z</time>
   </trkpt>
   <trkpt lat="-3.0878430" lon="37.3711170">
    <ele>5124.0</ele>
    <time>2026-06-23T00:13:56Z</time>
   </trkpt>
   <trkpt lat="-3.0878440" lon="37.3711140">
    <ele>5124.1</ele>
    <time>2026-06-23T00:13:57Z</time>
   </trkpt>
   <trkpt lat="-3.0878440" lon="37.3711130">
    <ele>5124.1</ele>
    <time>2026-06-23T00:13:58Z</time>
   </trkpt>
   <trkpt lat="-3.0878440" lon="37.3711110">
    <ele>5124.1</ele>
    <time>2026-06-23T00:13:59Z</time>
   </trkpt>
   <trkpt lat="-3.0878440" lon="37.3711080">
    <ele>5124.2</ele>
    <time>2026-06-23T00:14:00Z</time>
   </trkpt>
   <trkpt lat="-3.0878430" lon="37.3711060">
    <ele>5124.3</ele>
    <time>2026-06-23T00:14:01Z</time>
   </trkpt>
   <trkpt lat="-3.0878440" lon="37.3711030">
    <ele>5124.3</ele>
    <time>2026-06-23T00:14:02Z</time>
   </trkpt>
   <trkpt lat="-3.0878440" lon="37.3711020">
    <ele>5124.4</ele>
    <time>2026-06-23T00:14:03Z</time>
   </trkpt>
   <trkpt lat="-3.0878460" lon="37.3710990">
    <ele>5124.4</ele>
    <time>2026-06-23T00:14:04Z</time>
   </trkpt>
   <trkpt lat="-3.0878450" lon="37.3710970">
    <ele>5124.5</ele>
    <time>2026-06-23T00:14:05Z</time>
   </trkpt>
   <trkpt lat="-3.0878470" lon="37.3710940">
    <ele>5124.6</ele>
    <time>2026-06-23T00:14:06Z</time>
   </trkpt>
   <trkpt lat="-3.0878490" lon="37.3710920">
    <ele>5124.6</ele>
    <time>2026-06-23T00:14:07Z</time>
   </trkpt>
   <trkpt lat="-3.0878500" lon="37.3710880">
    <ele>5124.7</ele>
    <time>2026-06-23T00:14:08Z</time>
   </trkpt>
   <trkpt lat="-3.0878490" lon="37.3710860">
    <ele>5124.8</ele>
    <time>2026-06-23T00:14:09Z</time>
   </trkpt>
   <trkpt lat="-3.0878500" lon="37.3710840">
    <ele>5124.8</ele>
    <time>2026-06-23T00:14:10Z</time>
   </trkpt>
   <trkpt lat="-3.0878480" lon="37.3710810">
    <ele>5124.9</ele>
    <time>2026-06-23T00:14:11Z</time>
   </trkpt>
   <trkpt lat="-3.0878480" lon="37.3710790">
    <ele>5125.0</ele>
    <time>2026-06-23T00:14:12Z</time>
   </trkpt>
   <trkpt lat="-3.0878450" lon="37.3710780">
    <ele>5125.0</ele>
    <time>2026-06-23T00:14:13Z</time>
   </trkpt>
   <trkpt lat="-3.0878450" lon="37.3710770">
    <ele>5125.1</ele>
    <time>2026-06-23T00:14:14Z</time>
   </trkpt>
   <trkpt lat="-3.0878400" lon="37.3710770">
    <ele>5125.2</ele>
    <time>2026-06-23T00:14:15Z</time>
   </trkpt>
   <trkpt lat="-3.0878390" lon="37.3710770">
    <ele>5125.2</ele>
    <time>2026-06-23T00:14:16Z</time>
   </trkpt>
   <trkpt lat="-3.0878340" lon="37.3710750">
    <ele>5125.3</ele>
    <time>2026-06-23T00:14:17Z</time>
   </trkpt>
   <trkpt lat="-3.0878320" lon="37.3710730">
    <ele>5125.4</ele>
    <time>2026-06-23T00:14:18Z</time>
   </trkpt>
   <trkpt lat="-3.0878290" lon="37.3710700">
    <ele>5125.5</ele>
    <time>2026-06-23T00:14:19Z</time>
   </trkpt>
   <trkpt lat="-3.0878280" lon="37.3710700">
    <ele>5125.5</ele>
    <time>2026-06-23T00:14:20Z</time>
   </trkpt>
   <trkpt lat="-3.0878270" lon="37.3710700">
    <ele>5125.5</ele>
    <time>2026-06-23T00:14:21Z</time>
   </trkpt>
   <trkpt lat="-3.0878240" lon="37.3710690">
    <ele>5125.6</ele>
    <time>2026-06-23T00:14:22Z</time>
   </trkpt>
   <trkpt lat="-3.0878230" lon="37.3710700">
    <ele>5125.6</ele>
    <time>2026-06-23T00:14:23Z</time>
   </trkpt>
   <trkpt lat="-3.0878190" lon="37.3710710">
    <ele>5125.7</ele>
    <time>2026-06-23T00:14:24Z</time>
   </trkpt>
   <trkpt lat="-3.0878170" lon="37.3710720">
    <ele>5125.8</ele>
    <time>2026-06-23T00:14:25Z</time>
   </trkpt>
   <trkpt lat="-3.0878140" lon="37.3710720">
    <ele>5125.9</ele>
    <time>2026-06-23T00:14:26Z</time>
   </trkpt>
   <trkpt lat="-3.0878120" lon="37.3710740">
    <ele>5125.9</ele>
    <time>2026-06-23T00:14:27Z</time>
   </trkpt>
   <trkpt lat="-3.0878080" lon="37.3710730">
    <ele>5126.0</ele>
    <time>2026-06-23T00:14:28Z</time>
   </trkpt>
   <trkpt lat="-3.0878050" lon="37.3710750">
    <ele>5126.1</ele>
    <time>2026-06-23T00:14:29Z</time>
   </trkpt>
   <trkpt lat="-3.0878030" lon="37.3710760">
    <ele>5126.2</ele>
    <time>2026-06-23T00:14:30Z</time>
   </trkpt>
   <trkpt lat="-3.0878030" lon="37.3710780">
    <ele>5126.2</ele>
    <time>2026-06-23T00:14:31Z</time>
   </trkpt>
   <trkpt lat="-3.0878000" lon="37.3710810">
    <ele>5126.3</ele>
    <time>2026-06-23T00:14:32Z</time>
   </trkpt>
   <trkpt lat="-3.0877980" lon="37.3710850">
    <ele>5126.4</ele>
    <time>2026-06-23T00:14:33Z</time>
   </trkpt>
   <trkpt lat="-3.0877970" lon="37.3710860">
    <ele>5126.4</ele>
    <time>2026-06-23T00:14:34Z</time>
   </trkpt>
   <trkpt lat="-3.0877960" lon="37.3710890">
    <ele>5126.5</ele>
    <time>2026-06-23T00:14:35Z</time>
   </trkpt>
   <trkpt lat="-3.0877950" lon="37.3710920">
    <ele>5126.6</ele>
    <time>2026-06-23T00:14:36Z</time>
   </trkpt>
   <trkpt lat="-3.0877920" lon="37.3710940">
    <ele>5126.7</ele>
    <time>2026-06-23T00:14:37Z</time>
   </trkpt>
   <trkpt lat="-3.0877900" lon="37.3710950">
    <ele>5126.7</ele>
    <time>2026-06-23T00:14:38Z</time>
   </trkpt>
   <trkpt lat="-3.0877890" lon="37.3710960">
    <ele>5126.7</ele>
    <time>2026-06-23T00:14:39Z</time>
   </trkpt>
   <trkpt lat="-3.0877840" lon="37.3710960">
    <ele>5126.9</ele>
    <time>2026-06-23T00:14:40Z</time>
   </trkpt>
   <trkpt lat="-3.0877840" lon="37.3710970">
    <ele>5126.9</ele>
    <time>2026-06-23T00:14:41Z</time>
   </trkpt>
   <trkpt lat="-3.0877810" lon="37.3710970">
    <ele>5127.0</ele>
    <time>2026-06-23T00:14:42Z</time>
   </trkpt>
   <trkpt lat="-3.0877790" lon="37.3711000">
    <ele>5127.0</ele>
    <time>2026-06-23T00:14:43Z</time>
   </trkpt>
   <trkpt lat="-3.0877770" lon="37.3711010">
    <ele>5127.1</ele>
    <time>2026-06-23T00:14:44Z</time>
   </trkpt>
   <trkpt lat="-3.0877760" lon="37.3711020">
    <ele>5127.1</ele>
    <time>2026-06-23T00:14:45Z</time>
   </trkpt>
   <trkpt lat="-3.0877710" lon="37.3711030">
    <ele>5127.2</ele>
    <time>2026-06-23T00:14:46Z</time>
   </trkpt>
   <trkpt lat="-3.0877710" lon="37.3711070">
    <ele>5127.3</ele>
    <time>2026-06-23T00:14:47Z</time>
   </trkpt>
   <trkpt lat="-3.0877690" lon="37.3711090">
    <ele>5127.4</ele>
    <time>2026-06-23T00:14:48Z</time>
   </trkpt>
   <trkpt lat="-3.0877670" lon="37.3711100">
    <ele>5127.5</ele>
    <time>2026-06-23T00:14:49Z</time>
   </trkpt>
   <trkpt lat="-3.0877650" lon="37.3711130">
    <ele>5127.5</ele>
    <time>2026-06-23T00:14:50Z</time>
   </trkpt>
   <trkpt lat="-3.0877620" lon="37.3711130">
    <ele>5127.6</ele>
    <time>2026-06-23T00:14:51Z</time>
   </trkpt>
   <trkpt lat="-3.0877610" lon="37.3711140">
    <ele>5127.6</ele>
    <time>2026-06-23T00:14:52Z</time>
   </trkpt>
   <trkpt lat="-3.0877590" lon="37.3711140">
    <ele>5127.7</ele>
    <time>2026-06-23T00:14:53Z</time>
   </trkpt>
   <trkpt lat="-3.0877570" lon="37.3711120">
    <ele>5127.7</ele>
    <time>2026-06-23T00:14:54Z</time>
   </trkpt>
   <trkpt lat="-3.0877550" lon="37.3711100">
    <ele>5127.8</ele>
    <time>2026-06-23T00:14:55Z</time>
   </trkpt>
   <trkpt lat="-3.0877540" lon="37.3711060">
    <ele>5127.9</ele>
    <time>2026-06-23T00:14:56Z</time>
   </trkpt>
   <trkpt lat="-3.0877540" lon="37.3711040">
    <ele>5128.0</ele>
    <time>2026-06-23T00:14:57Z</time>
   </trkpt>
   <trkpt lat="-3.0877550" lon="37.3711020">
    <ele>5128.0</ele>
    <time>2026-06-23T00:14:58Z</time>
   </trkpt>
   <trkpt lat="-3.0877540" lon="37.3710990">
    <ele>5128.1</ele>
    <time>2026-06-23T00:14:59Z</time>
   </trkpt>
   <trkpt lat="-3.0877540" lon="37.3710950">
    <ele>5128.2</ele>
    <time>2026-06-23T00:15:00Z</time>
   </trkpt>
   <trkpt lat="-3.0877550" lon="37.3710930">
    <ele>5128.2</ele>
    <time>2026-06-23T00:15:01Z</time>
   </trkpt>
   <trkpt lat="-3.0877540" lon="37.3710890">
    <ele>5128.3</ele>
    <time>2026-06-23T00:15:02Z</time>
   </trkpt>
   <trkpt lat="-3.0877520" lon="37.3710870">
    <ele>5128.4</ele>
    <time>2026-06-23T00:15:03Z</time>
   </trkpt>
   <trkpt lat="-3.0877510" lon="37.3710840">
    <ele>5128.5</ele>
    <time>2026-06-23T00:15:04Z</time>
   </trkpt>
   <trkpt lat="-3.0877520" lon="37.3710850">
    <ele>5128.5</ele>
    <time>2026-06-23T00:15:05Z</time>
   </trkpt>
   <trkpt lat="-3.0877510" lon="37.3710830">
    <ele>5128.5</ele>
    <time>2026-06-23T00:15:06Z</time>
   </trkpt>
   <trkpt lat="-3.0877520" lon="37.3710820">
    <ele>5128.6</ele>
    <time>2026-06-23T00:15:07Z</time>
   </trkpt>
   <trkpt lat="-3.0877500" lon="37.3710780">
    <ele>5128.7</ele>
    <time>2026-06-23T00:15:08Z</time>
   </trkpt>
   <trkpt lat="-3.0877470" lon="37.3710720">
    <ele>5128.8</ele>
    <time>2026-06-23T00:15:09Z</time>
   </trkpt>
   <trkpt lat="-3.0877500" lon="37.3710700">
    <ele>5128.9</ele>
    <time>2026-06-23T00:15:10Z</time>
   </trkpt>
   <trkpt lat="-3.0877490" lon="37.3710670">
    <ele>5129.0</ele>
    <time>2026-06-23T00:15:11Z</time>
   </trkpt>
   <trkpt lat="-3.0877480" lon="37.3710660">
    <ele>5129.0</ele>
    <time>2026-06-23T00:15:12Z</time>
   </trkpt>
   <trkpt lat="-3.0877470" lon="37.3710670">
    <ele>5129.1</ele>
    <time>2026-06-23T00:15:13Z</time>
   </trkpt>
   <trkpt lat="-3.0877450" lon="37.3710660">
    <ele>5129.1</ele>
    <time>2026-06-23T00:15:14Z</time>
   </trkpt>
   <trkpt lat="-3.0877440" lon="37.3710680">
    <ele>5129.2</ele>
    <time>2026-06-23T00:15:15Z</time>
   </trkpt>
   <trkpt lat="-3.0877410" lon="37.3710670">
    <ele>5129.2</ele>
    <time>2026-06-23T00:15:16Z</time>
   </trkpt>
   <trkpt lat="-3.0877400" lon="37.3710680">
    <ele>5129.3</ele>
    <time>2026-06-23T00:15:17Z</time>
   </trkpt>
   <trkpt lat="-3.0877390" lon="37.3710720">
    <ele>5129.4</ele>
    <time>2026-06-23T00:15:18Z</time>
   </trkpt>
   <trkpt lat="-3.0877370" lon="37.3710740">
    <ele>5129.4</ele>
    <time>2026-06-23T00:15:19Z</time>
   </trkpt>
   <trkpt lat="-3.0877340" lon="37.3710760">
    <ele>5129.5</ele>
    <time>2026-06-23T00:15:20Z</time>
   </trkpt>
   <trkpt lat="-3.0877340" lon="37.3710780">
    <ele>5129.6</ele>
    <time>2026-06-23T00:15:21Z</time>
   </trkpt>
   <trkpt lat="-3.0877290" lon="37.3710780">
    <ele>5129.7</ele>
    <time>2026-06-23T00:15:22Z</time>
   </trkpt>
   <trkpt lat="-3.0877270" lon="37.3710800">
    <ele>5129.7</ele>
    <time>2026-06-23T00:15:23Z</time>
   </trkpt>
   <trkpt lat="-3.0877230" lon="37.3710780">
    <ele>5129.8</ele>
    <time>2026-06-23T00:15:24Z</time>
   </trkpt>
   <trkpt lat="-3.0877220" lon="37.3710760">
    <ele>5129.9</ele>
    <time>2026-06-23T00:15:25Z</time>
   </trkpt>
   <trkpt lat="-3.0877220" lon="37.3710760">
    <ele>5129.9</ele>
    <time>2026-06-23T00:15:26Z</time>
   </trkpt>
   <trkpt lat="-3.0877230" lon="37.3710760">
    <ele>5129.9</ele>
    <time>2026-06-23T00:15:27Z</time>
   </trkpt>
   <trkpt lat="-3.0877200" lon="37.3710730">
    <ele>5130.0</ele>
    <time>2026-06-23T00:15:28Z</time>
   </trkpt>
   <trkpt lat="-3.0877190" lon="37.3710730">
    <ele>5130.0</ele>
    <time>2026-06-23T00:15:29Z</time>
   </trkpt>
   <trkpt lat="-3.0877170" lon="37.3710720">
    <ele>5130.1</ele>
    <time>2026-06-23T00:15:30Z</time>
   </trkpt>
   <trkpt lat="-3.0877160" lon="37.3710740">
    <ele>5130.1</ele>
    <time>2026-06-23T00:15:31Z</time>
   </trkpt>
   <trkpt lat="-3.0877160" lon="37.3710760">
    <ele>5130.2</ele>
    <time>2026-06-23T00:15:32Z</time>
   </trkpt>
   <trkpt lat="-3.0877140" lon="37.3710760">
    <ele>5130.2</ele>
    <time>2026-06-23T00:15:33Z</time>
   </trkpt>
   <trkpt lat="-3.0877130" lon="37.3710760">
    <ele>5130.3</ele>
    <time>2026-06-23T00:15:34Z</time>
   </trkpt>
   <trkpt lat="-3.0877130" lon="37.3710770">
    <ele>5130.3</ele>
    <time>2026-06-23T00:15:35Z</time>
   </trkpt>
   <trkpt lat="-3.0877130" lon="37.3710770">
    <ele>5130.3</ele>
    <time>2026-06-23T00:15:36Z</time>
   </trkpt>
   <trkpt lat="-3.0877130" lon="37.3710770">
    <ele>5130.3</ele>
    <time>2026-06-23T00:15:37Z</time>
   </trkpt>
   <trkpt lat="-3.0877080" lon="37.3710790">
    <ele>5130.4</ele>
    <time>2026-06-23T00:15:38Z</time>
   </trkpt>
   <trkpt lat="-3.0877080" lon="37.3710790">
    <ele>5130.4</ele>
    <time>2026-06-23T00:15:39Z</time>
   </trkpt>
   <trkpt lat="-3.0877060" lon="37.3710800">
    <ele>5130.5</ele>
    <time>2026-06-23T00:15:40Z</time>
   </trkpt>
   <trkpt lat="-3.0877030" lon="37.3710790">
    <ele>5130.5</ele>
    <time>2026-06-23T00:15:41Z</time>
   </trkpt>
   <trkpt lat="-3.0877040" lon="37.3710810">
    <ele>5130.6</ele>
    <time>2026-06-23T00:15:42Z</time>
   </trkpt>
   <trkpt lat="-3.0877040" lon="37.3710810">
    <ele>5130.6</ele>
    <time>2026-06-23T00:15:43Z</time>
   </trkpt>
   <trkpt lat="-3.0877040" lon="37.3710820">
    <ele>5130.6</ele>
    <time>2026-06-23T00:15:44Z</time>
   </trkpt>
   <trkpt lat="-3.0877030" lon="37.3710830">
    <ele>5130.6</ele>
    <time>2026-06-23T00:15:45Z</time>
   </trkpt>
   <trkpt lat="-3.0877040" lon="37.3710840">
    <ele>5130.7</ele>
    <time>2026-06-23T00:15:46Z</time>
   </trkpt>
   <trkpt lat="-3.0877020" lon="37.3710830">
    <ele>5130.7</ele>
    <time>2026-06-23T00:15:47Z</time>
   </trkpt>
   <trkpt lat="-3.0877030" lon="37.3710830">
    <ele>5130.7</ele>
    <time>2026-06-23T00:15:48Z</time>
   </trkpt>
   <trkpt lat="-3.0877020" lon="37.3710820">
    <ele>5130.8</ele>
    <time>2026-06-23T00:15:49Z</time>
   </trkpt>
   <trkpt lat="-3.0877020" lon="37.3710810">
    <ele>5130.8</ele>
    <time>2026-06-23T00:15:50Z</time>
   </trkpt>
   <trkpt lat="-3.0877040" lon="37.3710820">
    <ele>5130.9</ele>
    <time>2026-06-23T00:15:51Z</time>
   </trkpt>
   <trkpt lat="-3.0877040" lon="37.3710820">
    <ele>5130.9</ele>
    <time>2026-06-23T00:15:52Z</time>
   </trkpt>
   <trkpt lat="-3.0877040" lon="37.3710820">
    <ele>5130.9</ele>
    <time>2026-06-23T00:15:53Z</time>
   </trkpt>
   <trkpt lat="-3.0877040" lon="37.3710820">
    <ele>5130.9</ele>
    <time>2026-06-23T00:15:54Z</time>
   </trkpt>
   <trkpt lat="-3.0877040" lon="37.3710820">
    <ele>5130.9</ele>
    <time>2026-06-23T00:15:55Z</time>
   </trkpt>
   <trkpt lat="-3.0877050" lon="37.3710830">
    <ele>5130.9</ele>
    <time>2026-06-23T00:15:56Z</time>
   </trkpt>
   <trkpt lat="-3.0877050" lon="37.3710830">
    <ele>5130.9</ele>
    <time>2026-06-23T00:15:57Z</time>
   </trkpt>
   <trkpt lat="-3.0877050" lon="37.3710830">
    <ele>5130.9</ele>
    <time>2026-06-23T00:15:58Z</time>
   </trkpt>
   <trkpt lat="-3.0877040" lon="37.3710830">
    <ele>5130.9</ele>
    <time>2026-06-23T00:15:59Z</time>
   </trkpt>
   <trkpt lat="-3.0877040" lon="37.3710820">
    <ele>5130.9</ele>
    <time>2026-06-23T00:16:00Z</time>
   </trkpt>
   <trkpt lat="-3.0877030" lon="37.3710820">
    <ele>5131.0</ele>
    <time>2026-06-23T00:16:01Z</time>
   </trkpt>
   <trkpt lat="-3.0877030" lon="37.3710830">
    <ele>5131.0</ele>
    <time>2026-06-23T00:16:02Z</time>
   </trkpt>
   <trkpt lat="-3.0877030" lon="37.3710830">
    <ele>5131.0</ele>
    <time>2026-06-23T00:16:03Z</time>
   </trkpt>
   <trkpt lat="-3.0877030" lon="37.3710820">
    <ele>5131.0</ele>
    <time>2026-06-23T00:16:04Z</time>
   </trkpt>
   <trkpt lat="-3.0877030" lon="37.3710830">
    <ele>5131.0</ele>
    <time>2026-06-23T00:16:05Z</time>
   </trkpt>
   <trkpt lat="-3.0877030" lon="37.3710830">
    <ele>5131.0</ele>
    <time>2026-06-23T00:16:06Z</time>
   </trkpt>
   <trkpt lat="-3.0877040" lon="37.3710830">
    <ele>5131.0</ele>
    <time>2026-06-23T00:16:07Z</time>
   </trkpt>
   <trkpt lat="-3.0877040" lon="37.3710830">
    <ele>5131.0</ele>
    <time>2026-06-23T00:16:08Z</time>
   </trkpt>
   <trkpt lat="-3.0877040" lon="37.3710830">
    <ele>5131.0</ele>
    <time>2026-06-23T00:16:09Z</time>
   </trkpt>
   <trkpt lat="-3.0877030" lon="37.3710820">
    <ele>5131.1</ele>
    <time>2026-06-23T00:16:10Z</time>
   </trkpt>
   <trkpt lat="-3.0877050" lon="37.3710830">
    <ele>5131.1</ele>
    <time>2026-06-23T00:16:11Z</time>
   </trkpt>
   <trkpt lat="-3.0877050" lon="37.3710830">
    <ele>5131.1</ele>
    <time>2026-06-23T00:16:12Z</time>
   </trkpt>
   <trkpt lat="-3.0877050" lon="37.3710830">
    <ele>5131.1</ele>
    <time>2026-06-23T00:16:13Z</time>
   </trkpt>
   <trkpt lat="-3.0877050" lon="37.3710830">
    <ele>5131.1</ele>
    <time>2026-06-23T00:16:14Z</time>
   </trkpt>
   <trkpt lat="-3.0877050" lon="37.3710830">
    <ele>5131.1</ele>
    <time>2026-06-23T00:16:15Z</time>
   </trkpt>
   <trkpt lat="-3.0877050" lon="37.3710830">
    <ele>5131.1</ele>
    <time>2026-06-23T00:16:16Z</time>
   </trkpt>
   <trkpt lat="-3.0877050" lon="37.3710830">
    <ele>5131.1</ele>
    <time>2026-06-23T00:16:17Z</time>
   </trkpt>
   <trkpt lat="-3.0877050" lon="37.3710830">
    <ele>5131.1</ele>
    <time>2026-06-23T00:16:18Z</time>
   </trkpt>
   <trkpt lat="-3.0877050" lon="37.3710830">
    <ele>5131.1</ele>
    <time>2026-06-23T00:16:19Z</time>
   </trkpt>
   <trkpt lat="-3.0877050" lon="37.3710830">
    <ele>5131.1</ele>
    <time>2026-06-23T00:16:20Z</time>
   </trkpt>
   <trkpt lat="-3.0877050" lon="37.3710830">
    <ele>5131.1</ele>
    <time>2026-06-23T00:16:21Z</time>
   </trkpt>
   <trkpt lat="-3.0877050" lon="37.3710830">
    <ele>5131.1</ele>
    <time>2026-06-23T00:16:22Z</time>
   </trkpt>
   <trkpt lat="-3.0877050" lon="37.3710830">
    <ele>5131.1</ele>
    <time>2026-06-23T00:16:23Z</time>
   </trkpt>
   <trkpt lat="-3.0877050" lon="37.3710830">
    <ele>5131.1</ele>
    <time>2026-06-23T00:16:24Z</time>
   </trkpt>
   <trkpt lat="-3.0877050" lon="37.3710830">
    <ele>5131.1</ele>
    <time>2026-06-23T00:16:25Z</time>
   </trkpt>
   <trkpt lat="-3.0877050" lon="37.3710840">
    <ele>5131.2</ele>
    <time>2026-06-23T00:16:26Z</time>
   </trkpt>
   <trkpt lat="-3.0877050" lon="37.3710850">
    <ele>5131.2</ele>
    <time>2026-06-23T00:16:27Z</time>
   </trkpt>
   <trkpt lat="-3.0877050" lon="37.3710850">
    <ele>5131.2</ele>
    <time>2026-06-23T00:16:28Z</time>
   </trkpt>
   <trkpt lat="-3.0877040" lon="37.3710840">
    <ele>5131.2</ele>
    <time>2026-06-23T00:16:29Z</time>
   </trkpt>
   <trkpt lat="-3.0877050" lon="37.3710850">
    <ele>5131.2</ele>
    <time>2026-06-23T00:16:30Z</time>
   </trkpt>
   <trkpt lat="-3.0877050" lon="37.3710850">
    <ele>5131.2</ele>
    <time>2026-06-23T00:16:31Z</time>
   </trkpt>
   <trkpt lat="-3.0877040" lon="37.3710850">
    <ele>5131.3</ele>
    <time>2026-06-23T00:16:32Z</time>
   </trkpt>
   <trkpt lat="-3.0877000" lon="37.3710820">
    <ele>5131.4</ele>
    <time>2026-06-23T00:16:33Z</time>
   </trkpt>
   <trkpt lat="-3.0876990" lon="37.3710830">
    <ele>5131.4</ele>
    <time>2026-06-23T00:16:34Z</time>
   </trkpt>
   <trkpt lat="-3.0876970" lon="37.3710830">
    <ele>5131.5</ele>
    <time>2026-06-23T00:16:35Z</time>
   </trkpt>
   <trkpt lat="-3.0876940" lon="37.3710850">
    <ele>5131.5</ele>
    <time>2026-06-23T00:16:36Z</time>
   </trkpt>
   <trkpt lat="-3.0876940" lon="37.3710870">
    <ele>5131.6</ele>
    <time>2026-06-23T00:16:37Z</time>
   </trkpt>
   <trkpt lat="-3.0876910" lon="37.3710890">
    <ele>5131.7</ele>
    <time>2026-06-23T00:16:38Z</time>
   </trkpt>
   <trkpt lat="-3.0876920" lon="37.3710890">
    <ele>5131.7</ele>
    <time>2026-06-23T00:16:39Z</time>
   </trkpt>
   <trkpt lat="-3.0876890" lon="37.3710910">
    <ele>5131.8</ele>
    <time>2026-06-23T00:16:40Z</time>
   </trkpt>
   <trkpt lat="-3.0876880" lon="37.3710940">
    <ele>5131.8</ele>
    <time>2026-06-23T00:16:41Z</time>
   </trkpt>
   <trkpt lat="-3.0876870" lon="37.3710960">
    <ele>5131.9</ele>
    <time>2026-06-23T00:16:42Z</time>
   </trkpt>
   <trkpt lat="-3.0876860" lon="37.3710980">
    <ele>5131.9</ele>
    <time>2026-06-23T00:16:43Z</time>
   </trkpt>
   <trkpt lat="-3.0876820" lon="37.3711000">
    <ele>5132.0</ele>
    <time>2026-06-23T00:16:44Z</time>
   </trkpt>
   <trkpt lat="-3.0876780" lon="37.3710970">
    <ele>5132.2</ele>
    <time>2026-06-23T00:16:45Z</time>
   </trkpt>
   <trkpt lat="-3.0876780" lon="37.3711010">
    <ele>5132.2</ele>
    <time>2026-06-23T00:16:46Z</time>
   </trkpt>
   <trkpt lat="-3.0876760" lon="37.3711010">
    <ele>5132.3</ele>
    <time>2026-06-23T00:16:47Z</time>
   </trkpt>
   <trkpt lat="-3.0876700" lon="37.3711010">
    <ele>5132.4</ele>
    <time>2026-06-23T00:16:48Z</time>
   </trkpt>
   <trkpt lat="-3.0876670" lon="37.3711030">
    <ele>5132.5</ele>
    <time>2026-06-23T00:16:49Z</time>
   </trkpt>
   <trkpt lat="-3.0876640" lon="37.3711050">
    <ele>5132.6</ele>
    <time>2026-06-23T00:16:50Z</time>
   </trkpt>
   <trkpt lat="-3.0876610" lon="37.3711050">
    <ele>5132.6</ele>
    <time>2026-06-23T00:16:51Z</time>
   </trkpt>
   <trkpt lat="-3.0876590" lon="37.3711080">
    <ele>5132.7</ele>
    <time>2026-06-23T00:16:52Z</time>
   </trkpt>
   <trkpt lat="-3.0876560" lon="37.3711110">
    <ele>5132.8</ele>
    <time>2026-06-23T00:16:53Z</time>
   </trkpt>
   <trkpt lat="-3.0876550" lon="37.3711150">
    <ele>5132.9</ele>
    <time>2026-06-23T00:16:54Z</time>
   </trkpt>
   <trkpt lat="-3.0876560" lon="37.3711190">
    <ele>5133.0</ele>
    <time>2026-06-23T00:16:55Z</time>
   </trkpt>
   <trkpt lat="-3.0876560" lon="37.3711210">
    <ele>5133.0</ele>
    <time>2026-06-23T00:16:56Z</time>
   </trkpt>
   <trkpt lat="-3.0876570" lon="37.3711260">
    <ele>5133.2</ele>
    <time>2026-06-23T00:16:57Z</time>
   </trkpt>
   <trkpt lat="-3.0876560" lon="37.3711290">
    <ele>5133.2</ele>
    <time>2026-06-23T00:16:58Z</time>
   </trkpt>
   <trkpt lat="-3.0876560" lon="37.3711320">
    <ele>5133.3</ele>
    <time>2026-06-23T00:16:59Z</time>
   </trkpt>
   <trkpt lat="-3.0876550" lon="37.3711340">
    <ele>5133.3</ele>
    <time>2026-06-23T00:17:00Z</time>
   </trkpt>
   <trkpt lat="-3.0876540" lon="37.3711360">
    <ele>5133.4</ele>
    <time>2026-06-23T00:17:01Z</time>
   </trkpt>
   <trkpt lat="-3.0876500" lon="37.3711380">
    <ele>5133.5</ele>
    <time>2026-06-23T00:17:02Z</time>
   </trkpt>
   <trkpt lat="-3.0876470" lon="37.3711390">
    <ele>5133.6</ele>
    <time>2026-06-23T00:17:03Z</time>
   </trkpt>
   <trkpt lat="-3.0876430" lon="37.3711410">
    <ele>5133.7</ele>
    <time>2026-06-23T00:17:04Z</time>
   </trkpt>
   <trkpt lat="-3.0876430" lon="37.3711430">
    <ele>5133.7</ele>
    <time>2026-06-23T00:17:05Z</time>
   </trkpt>
   <trkpt lat="-3.0876380" lon="37.3711440">
    <ele>5133.8</ele>
    <time>2026-06-23T00:17:06Z</time>
   </trkpt>
   <trkpt lat="-3.0876370" lon="37.3711450">
    <ele>5133.9</ele>
    <time>2026-06-23T00:17:07Z</time>
   </trkpt>
   <trkpt lat="-3.0876360" lon="37.3711470">
    <ele>5133.9</ele>
    <time>2026-06-23T00:17:08Z</time>
   </trkpt>
   <trkpt lat="-3.0876330" lon="37.3711440">
    <ele>5134.0</ele>
    <time>2026-06-23T00:17:09Z</time>
   </trkpt>
   <trkpt lat="-3.0876320" lon="37.3711460">
    <ele>5134.1</ele>
    <time>2026-06-23T00:17:10Z</time>
   </trkpt>
   <trkpt lat="-3.0876290" lon="37.3711460">
    <ele>5134.1</ele>
    <time>2026-06-23T00:17:11Z</time>
   </trkpt>
   <trkpt lat="-3.0876280" lon="37.3711490">
    <ele>5134.2</ele>
    <time>2026-06-23T00:17:12Z</time>
   </trkpt>
   <trkpt lat="-3.0876270" lon="37.3711480">
    <ele>5134.2</ele>
    <time>2026-06-23T00:17:13Z</time>
   </trkpt>
   <trkpt lat="-3.0876260" lon="37.3711500">
    <ele>5134.3</ele>
    <time>2026-06-23T00:17:14Z</time>
   </trkpt>
   <trkpt lat="-3.0876200" lon="37.3711490">
    <ele>5134.4</ele>
    <time>2026-06-23T00:17:15Z</time>
   </trkpt>
   <trkpt lat="-3.0876190" lon="37.3711510">
    <ele>5134.5</ele>
    <time>2026-06-23T00:17:16Z</time>
   </trkpt>
   <trkpt lat="-3.0876170" lon="37.3711520">
    <ele>5134.5</ele>
    <time>2026-06-23T00:17:17Z</time>
   </trkpt>
   <trkpt lat="-3.0876130" lon="37.3711530">
    <ele>5134.6</ele>
    <time>2026-06-23T00:17:18Z</time>
   </trkpt>
   <trkpt lat="-3.0876100" lon="37.3711540">
    <ele>5134.7</ele>
    <time>2026-06-23T00:17:19Z</time>
   </trkpt>
   <trkpt lat="-3.0876060" lon="37.3711550">
    <ele>5134.8</ele>
    <time>2026-06-23T00:17:20Z</time>
   </trkpt>
   <trkpt lat="-3.0876050" lon="37.3711560">
    <ele>5134.8</ele>
    <time>2026-06-23T00:17:21Z</time>
   </trkpt>
   <trkpt lat="-3.0876040" lon="37.3711590">
    <ele>5134.9</ele>
    <time>2026-06-23T00:17:22Z</time>
   </trkpt>
   <trkpt lat="-3.0876020" lon="37.3711610">
    <ele>5134.9</ele>
    <time>2026-06-23T00:17:23Z</time>
   </trkpt>
   <trkpt lat="-3.0875990" lon="37.3711570">
    <ele>5135.0</ele>
    <time>2026-06-23T00:17:24Z</time>
   </trkpt>
   <trkpt lat="-3.0876000" lon="37.3711580">
    <ele>5135.1</ele>
    <time>2026-06-23T00:17:25Z</time>
   </trkpt>
   <trkpt lat="-3.0876000" lon="37.3711580">
    <ele>5135.1</ele>
    <time>2026-06-23T00:17:26Z</time>
   </trkpt>
   <trkpt lat="-3.0876000" lon="37.3711580">
    <ele>5135.1</ele>
    <time>2026-06-23T00:17:27Z</time>
   </trkpt>
   <trkpt lat="-3.0875990" lon="37.3711610">
    <ele>5135.1</ele>
    <time>2026-06-23T00:17:28Z</time>
   </trkpt>
   <trkpt lat="-3.0875950" lon="37.3711600">
    <ele>5135.2</ele>
    <time>2026-06-23T00:17:29Z</time>
   </trkpt>
   <trkpt lat="-3.0875940" lon="37.3711610">
    <ele>5135.3</ele>
    <time>2026-06-23T00:17:30Z</time>
   </trkpt>
   <trkpt lat="-3.0875900" lon="37.3711570">
    <ele>5135.4</ele>
    <time>2026-06-23T00:17:31Z</time>
   </trkpt>
   <trkpt lat="-3.0875880" lon="37.3711560">
    <ele>5135.4</ele>
    <time>2026-06-23T00:17:32Z</time>
   </trkpt>
   <trkpt lat="-3.0876030" lon="37.3711540">
    <ele>5135.8</ele>
    <time>2026-06-23T00:17:33Z</time>
   </trkpt>
   <trkpt lat="-3.0875890" lon="37.3711530">
    <ele>5136.0</ele>
    <time>2026-06-23T00:17:34Z</time>
   </trkpt>
   <trkpt lat="-3.0875860" lon="37.3711520">
    <ele>5136.1</ele>
    <time>2026-06-23T00:17:35Z</time>
   </trkpt>
   <trkpt lat="-3.0875860" lon="37.3711540">
    <ele>5136.2</ele>
    <time>2026-06-23T00:17:36Z</time>
   </trkpt>
   <trkpt lat="-3.0875800" lon="37.3711550">
    <ele>5136.3</ele>
    <time>2026-06-23T00:17:37Z</time>
   </trkpt>
   <trkpt lat="-3.0875780" lon="37.3711550">
    <ele>5136.3</ele>
    <time>2026-06-23T00:17:38Z</time>
   </trkpt>
   <trkpt lat="-3.0875750" lon="37.3711550">
    <ele>5136.4</ele>
    <time>2026-06-23T00:17:39Z</time>
   </trkpt>
   <trkpt lat="-3.0875720" lon="37.3711550">
    <ele>5136.5</ele>
    <time>2026-06-23T00:17:40Z</time>
   </trkpt>
   <trkpt lat="-3.0875700" lon="37.3711570">
    <ele>5136.5</ele>
    <time>2026-06-23T00:17:41Z</time>
   </trkpt>
   <trkpt lat="-3.0875650" lon="37.3711550">
    <ele>5136.6</ele>
    <time>2026-06-23T00:17:42Z</time>
   </trkpt>
   <trkpt lat="-3.0875640" lon="37.3711550">
    <ele>5136.6</ele>
    <time>2026-06-23T00:17:43Z</time>
   </trkpt>
   <trkpt lat="-3.0875620" lon="37.3711540">
    <ele>5136.7</ele>
    <time>2026-06-23T00:17:44Z</time>
   </trkpt>
   <trkpt lat="-3.0875620" lon="37.3711500">
    <ele>5136.8</ele>
    <time>2026-06-23T00:17:45Z</time>
   </trkpt>
   <trkpt lat="-3.0875610" lon="37.3711480">
    <ele>5136.8</ele>
    <time>2026-06-23T00:17:46Z</time>
   </trkpt>
   <trkpt lat="-3.0875620" lon="37.3711460">
    <ele>5136.9</ele>
    <time>2026-06-23T00:17:47Z</time>
   </trkpt>
   <trkpt lat="-3.0875620" lon="37.3711450">
    <ele>5136.9</ele>
    <time>2026-06-23T00:17:48Z</time>
   </trkpt>
   <trkpt lat="-3.0875610" lon="37.3711440">
    <ele>5136.9</ele>
    <time>2026-06-23T00:17:49Z</time>
   </trkpt>
   <trkpt lat="-3.0875590" lon="37.3711420">
    <ele>5137.0</ele>
    <time>2026-06-23T00:17:50Z</time>
   </trkpt>
   <trkpt lat="-3.0875580" lon="37.3711380">
    <ele>5137.1</ele>
    <time>2026-06-23T00:17:51Z</time>
   </trkpt>
   <trkpt lat="-3.0875560" lon="37.3711370">
    <ele>5137.1</ele>
    <time>2026-06-23T00:17:52Z</time>
   </trkpt>
   <trkpt lat="-3.0875570" lon="37.3711350">
    <ele>5137.2</ele>
    <time>2026-06-23T00:17:53Z</time>
   </trkpt>
   <trkpt lat="-3.0875560" lon="37.3711320">
    <ele>5137.2</ele>
    <time>2026-06-23T00:17:54Z</time>
   </trkpt>
   <trkpt lat="-3.0875550" lon="37.3711300">
    <ele>5137.3</ele>
    <time>2026-06-23T00:17:55Z</time>
   </trkpt>
   <trkpt lat="-3.0875560" lon="37.3711270">
    <ele>5137.3</ele>
    <time>2026-06-23T00:17:56Z</time>
   </trkpt>
   <trkpt lat="-3.0875540" lon="37.3711240">
    <ele>5137.4</ele>
    <time>2026-06-23T00:17:57Z</time>
   </trkpt>
   <trkpt lat="-3.0875540" lon="37.3711210">
    <ele>5137.5</ele>
    <time>2026-06-23T00:17:58Z</time>
   </trkpt>
   <trkpt lat="-3.0875540" lon="37.3711190">
    <ele>5137.5</ele>
    <time>2026-06-23T00:17:59Z</time>
   </trkpt>
   <trkpt lat="-3.0875520" lon="37.3711150">
    <ele>5137.6</ele>
    <time>2026-06-23T00:18:00Z</time>
   </trkpt>
   <trkpt lat="-3.0875540" lon="37.3711150">
    <ele>5137.6</ele>
    <time>2026-06-23T00:18:01Z</time>
   </trkpt>
   <trkpt lat="-3.0875530" lon="37.3711110">
    <ele>5137.7</ele>
    <time>2026-06-23T00:18:02Z</time>
   </trkpt>
   <trkpt lat="-3.0875540" lon="37.3711070">
    <ele>5137.8</ele>
    <time>2026-06-23T00:18:03Z</time>
   </trkpt>
   <trkpt lat="-3.0875560" lon="37.3711030">
    <ele>5137.9</ele>
    <time>2026-06-23T00:18:04Z</time>
   </trkpt>
   <trkpt lat="-3.0875550" lon="37.3711020">
    <ele>5137.9</ele>
    <time>2026-06-23T00:18:05Z</time>
   </trkpt>
   <trkpt lat="-3.0875540" lon="37.3710990">
    <ele>5138.0</ele>
    <time>2026-06-23T00:18:06Z</time>
   </trkpt>
   <trkpt lat="-3.0875550" lon="37.3710960">
    <ele>5138.0</ele>
    <time>2026-06-23T00:18:07Z</time>
   </trkpt>
   <trkpt lat="-3.0875540" lon="37.3710940">
    <ele>5138.1</ele>
    <time>2026-06-23T00:18:08Z</time>
   </trkpt>
   <trkpt lat="-3.0875540" lon="37.3710920">
    <ele>5138.1</ele>
    <time>2026-06-23T00:18:09Z</time>
   </trkpt>
   <trkpt lat="-3.0875530" lon="37.3710900">
    <ele>5138.2</ele>
    <time>2026-06-23T00:18:10Z</time>
   </trkpt>
   <trkpt lat="-3.0875520" lon="37.3710870">
    <ele>5138.2</ele>
    <time>2026-06-23T00:18:11Z</time>
   </trkpt>
   <trkpt lat="-3.0875540" lon="37.3710850">
    <ele>5138.3</ele>
    <time>2026-06-23T00:18:12Z</time>
   </trkpt>
   <trkpt lat="-3.0875490" lon="37.3710820">
    <ele>5138.4</ele>
    <time>2026-06-23T00:18:13Z</time>
   </trkpt>
   <trkpt lat="-3.0875510" lon="37.3710810">
    <ele>5138.4</ele>
    <time>2026-06-23T00:18:14Z</time>
   </trkpt>
   <trkpt lat="-3.0875510" lon="37.3710780">
    <ele>5138.5</ele>
    <time>2026-06-23T00:18:15Z</time>
   </trkpt>
   <trkpt lat="-3.0875520" lon="37.3710770">
    <ele>5138.5</ele>
    <time>2026-06-23T00:18:16Z</time>
   </trkpt>
   <trkpt lat="-3.0875510" lon="37.3710740">
    <ele>5138.6</ele>
    <time>2026-06-23T00:18:17Z</time>
   </trkpt>
   <trkpt lat="-3.0875510" lon="37.3710730">
    <ele>5138.6</ele>
    <time>2026-06-23T00:18:18Z</time>
   </trkpt>
   <trkpt lat="-3.0875480" lon="37.3710710">
    <ele>5138.7</ele>
    <time>2026-06-23T00:18:19Z</time>
   </trkpt>
   <trkpt lat="-3.0875500" lon="37.3710710">
    <ele>5138.7</ele>
    <time>2026-06-23T00:18:20Z</time>
   </trkpt>
   <trkpt lat="-3.0875460" lon="37.3710670">
    <ele>5138.8</ele>
    <time>2026-06-23T00:18:21Z</time>
   </trkpt>
   <trkpt lat="-3.0875460" lon="37.3710640">
    <ele>5138.9</ele>
    <time>2026-06-23T00:18:22Z</time>
   </trkpt>
   <trkpt lat="-3.0875470" lon="37.3710610">
    <ele>5139.0</ele>
    <time>2026-06-23T00:18:23Z</time>
   </trkpt>
   <trkpt lat="-3.0875450" lon="37.3710610">
    <ele>5139.0</ele>
    <time>2026-06-23T00:18:24Z</time>
   </trkpt>
   <trkpt lat="-3.0875450" lon="37.3710590">
    <ele>5139.0</ele>
    <time>2026-06-23T00:18:25Z</time>
   </trkpt>
   <trkpt lat="-3.0875410" lon="37.3710560">
    <ele>5139.1</ele>
    <time>2026-06-23T00:18:26Z</time>
   </trkpt>
   <trkpt lat="-3.0875420" lon="37.3710570">
    <ele>5139.2</ele>
    <time>2026-06-23T00:18:27Z</time>
   </trkpt>
   <trkpt lat="-3.0875380" lon="37.3710530">
    <ele>5139.3</ele>
    <time>2026-06-23T00:18:28Z</time>
   </trkpt>
   <trkpt lat="-3.0875350" lon="37.3710530">
    <ele>5139.3</ele>
    <time>2026-06-23T00:18:29Z</time>
   </trkpt>
   <trkpt lat="-3.0875340" lon="37.3710530">
    <ele>5139.3</ele>
    <time>2026-06-23T00:18:30Z</time>
   </trkpt>
   <trkpt lat="-3.0875310" lon="37.3710530">
    <ele>5139.4</ele>
    <time>2026-06-23T00:18:31Z</time>
   </trkpt>
   <trkpt lat="-3.0875290" lon="37.3710520">
    <ele>5139.4</ele>
    <time>2026-06-23T00:18:32Z</time>
   </trkpt>
   <trkpt lat="-3.0875270" lon="37.3710520">
    <ele>5139.5</ele>
    <time>2026-06-23T00:18:33Z</time>
   </trkpt>
   <trkpt lat="-3.0875260" lon="37.3710530">
    <ele>5139.5</ele>
    <time>2026-06-23T00:18:34Z</time>
   </trkpt>
   <trkpt lat="-3.0875230" lon="37.3710520">
    <ele>5139.6</ele>
    <time>2026-06-23T00:18:35Z</time>
   </trkpt>
   <trkpt lat="-3.0875220" lon="37.3710520">
    <ele>5139.6</ele>
    <time>2026-06-23T00:18:36Z</time>
   </trkpt>
   <trkpt lat="-3.0875190" lon="37.3710500">
    <ele>5139.6</ele>
    <time>2026-06-23T00:18:37Z</time>
   </trkpt>
   <trkpt lat="-3.0875210" lon="37.3710500">
    <ele>5139.7</ele>
    <time>2026-06-23T00:18:38Z</time>
   </trkpt>
   <trkpt lat="-3.0875210" lon="37.3710500">
    <ele>5139.7</ele>
    <time>2026-06-23T00:18:39Z</time>
   </trkpt>
   <trkpt lat="-3.0875200" lon="37.3710500">
    <ele>5139.7</ele>
    <time>2026-06-23T00:18:40Z</time>
   </trkpt>
   <trkpt lat="-3.0875170" lon="37.3710490">
    <ele>5139.8</ele>
    <time>2026-06-23T00:18:41Z</time>
   </trkpt>
   <trkpt lat="-3.0875140" lon="37.3710490">
    <ele>5139.8</ele>
    <time>2026-06-23T00:18:42Z</time>
   </trkpt>
   <trkpt lat="-3.0875100" lon="37.3710460">
    <ele>5139.9</ele>
    <time>2026-06-23T00:18:43Z</time>
   </trkpt>
   <trkpt lat="-3.0875130" lon="37.3710440">
    <ele>5140.0</ele>
    <time>2026-06-23T00:18:44Z</time>
   </trkpt>
   <trkpt lat="-3.0875130" lon="37.3710410">
    <ele>5140.0</ele>
    <time>2026-06-23T00:18:45Z</time>
   </trkpt>
   <trkpt lat="-3.0875130" lon="37.3710400">
    <ele>5140.1</ele>
    <time>2026-06-23T00:18:46Z</time>
   </trkpt>
   <trkpt lat="-3.0875150" lon="37.3710380">
    <ele>5140.1</ele>
    <time>2026-06-23T00:18:47Z</time>
   </trkpt>
   <trkpt lat="-3.0875120" lon="37.3710360">
    <ele>5140.2</ele>
    <time>2026-06-23T00:18:48Z</time>
   </trkpt>
   <trkpt lat="-3.0875120" lon="37.3710330">
    <ele>5140.2</ele>
    <time>2026-06-23T00:18:49Z</time>
   </trkpt>
   <trkpt lat="-3.0875110" lon="37.3710300">
    <ele>5140.3</ele>
    <time>2026-06-23T00:18:50Z</time>
   </trkpt>
   <trkpt lat="-3.0875110" lon="37.3710270">
    <ele>5140.3</ele>
    <time>2026-06-23T00:18:51Z</time>
   </trkpt>
   <trkpt lat="-3.0875120" lon="37.3710260">
    <ele>5140.4</ele>
    <time>2026-06-23T00:18:52Z</time>
   </trkpt>
   <trkpt lat="-3.0875110" lon="37.3710240">
    <ele>5140.4</ele>
    <time>2026-06-23T00:18:53Z</time>
   </trkpt>
   <trkpt lat="-3.0875120" lon="37.3710220">
    <ele>5140.5</ele>
    <time>2026-06-23T00:18:54Z</time>
   </trkpt>
   <trkpt lat="-3.0875090" lon="37.3710200">
    <ele>5140.5</ele>
    <time>2026-06-23T00:18:55Z</time>
   </trkpt>
   <trkpt lat="-3.0875090" lon="37.3710180">
    <ele>5140.6</ele>
    <time>2026-06-23T00:18:56Z</time>
   </trkpt>
   <trkpt lat="-3.0875070" lon="37.3710160">
    <ele>5140.6</ele>
    <time>2026-06-23T00:18:57Z</time>
   </trkpt>
   <trkpt lat="-3.0875070" lon="37.3710130">
    <ele>5140.7</ele>
    <time>2026-06-23T00:18:58Z</time>
   </trkpt>
   <trkpt lat="-3.0875080" lon="37.3710120">
    <ele>5140.7</ele>
    <time>2026-06-23T00:18:59Z</time>
   </trkpt>
   <trkpt lat="-3.0875070" lon="37.3710120">
    <ele>5140.7</ele>
    <time>2026-06-23T00:19:00Z</time>
   </trkpt>
   <trkpt lat="-3.0875060" lon="37.3710120">
    <ele>5140.7</ele>
    <time>2026-06-23T00:19:01Z</time>
   </trkpt>
   <trkpt lat="-3.0875040" lon="37.3710100">
    <ele>5140.8</ele>
    <time>2026-06-23T00:19:02Z</time>
   </trkpt>
   <trkpt lat="-3.0875030" lon="37.3710070">
    <ele>5140.8</ele>
    <time>2026-06-23T00:19:03Z</time>
   </trkpt>
   <trkpt lat="-3.0875010" lon="37.3710020">
    <ele>5140.9</ele>
    <time>2026-06-23T00:19:04Z</time>
   </trkpt>
   <trkpt lat="-3.0875040" lon="37.3710000">
    <ele>5141.0</ele>
    <time>2026-06-23T00:19:05Z</time>
   </trkpt>
   <trkpt lat="-3.0875020" lon="37.3709970">
    <ele>5141.0</ele>
    <time>2026-06-23T00:19:06Z</time>
   </trkpt>
   <trkpt lat="-3.0875010" lon="37.3709950">
    <ele>5141.1</ele>
    <time>2026-06-23T00:19:07Z</time>
   </trkpt>
   <trkpt lat="-3.0875000" lon="37.3709940">
    <ele>5141.1</ele>
    <time>2026-06-23T00:19:08Z</time>
   </trkpt>
   <trkpt lat="-3.0874970" lon="37.3709950">
    <ele>5141.2</ele>
    <time>2026-06-23T00:19:09Z</time>
   </trkpt>
   <trkpt lat="-3.0874950" lon="37.3709940">
    <ele>5141.2</ele>
    <time>2026-06-23T00:19:10Z</time>
   </trkpt>
   <trkpt lat="-3.0874930" lon="37.3709960">
    <ele>5141.2</ele>
    <time>2026-06-23T00:19:11Z</time>
   </trkpt>
   <trkpt lat="-3.0874910" lon="37.3709970">
    <ele>5141.3</ele>
    <time>2026-06-23T00:19:12Z</time>
   </trkpt>
   <trkpt lat="-3.0874870" lon="37.3709980">
    <ele>5141.4</ele>
    <time>2026-06-23T00:19:13Z</time>
   </trkpt>
   <trkpt lat="-3.0874860" lon="37.3710000">
    <ele>5141.4</ele>
    <time>2026-06-23T00:19:14Z</time>
   </trkpt>
   <trkpt lat="-3.0874830" lon="37.3710010">
    <ele>5141.4</ele>
    <time>2026-06-23T00:19:15Z</time>
   </trkpt>
   <trkpt lat="-3.0874820" lon="37.3710030">
    <ele>5141.5</ele>
    <time>2026-06-23T00:19:16Z</time>
   </trkpt>
   <trkpt lat="-3.0874800" lon="37.3710060">
    <ele>5141.5</ele>
    <time>2026-06-23T00:19:17Z</time>
   </trkpt>
   <trkpt lat="-3.0874790" lon="37.3710080">
    <ele>5141.6</ele>
    <time>2026-06-23T00:19:18Z</time>
   </trkpt>
   <trkpt lat="-3.0874770" lon="37.3710100">
    <ele>5141.6</ele>
    <time>2026-06-23T00:19:19Z</time>
   </trkpt>
   <trkpt lat="-3.0874760" lon="37.3710130">
    <ele>5141.7</ele>
    <time>2026-06-23T00:19:20Z</time>
   </trkpt>
   <trkpt lat="-3.0874710" lon="37.3710140">
    <ele>5141.8</ele>
    <time>2026-06-23T00:19:21Z</time>
   </trkpt>
   <trkpt lat="-3.0874720" lon="37.3710150">
    <ele>5141.8</ele>
    <time>2026-06-23T00:19:22Z</time>
   </trkpt>
   <trkpt lat="-3.0874700" lon="37.3710150">
    <ele>5141.8</ele>
    <time>2026-06-23T00:19:23Z</time>
   </trkpt>
   <trkpt lat="-3.0874670" lon="37.3710160">
    <ele>5141.9</ele>
    <time>2026-06-23T00:19:24Z</time>
   </trkpt>
   <trkpt lat="-3.0874680" lon="37.3710160">
    <ele>5141.9</ele>
    <time>2026-06-23T00:19:25Z</time>
   </trkpt>
   <trkpt lat="-3.0874660" lon="37.3710140">
    <ele>5141.9</ele>
    <time>2026-06-23T00:19:26Z</time>
   </trkpt>
   <trkpt lat="-3.0874640" lon="37.3710120">
    <ele>5142.0</ele>
    <time>2026-06-23T00:19:27Z</time>
   </trkpt>
   <trkpt lat="-3.0874650" lon="37.3710110">
    <ele>5142.0</ele>
    <time>2026-06-23T00:19:28Z</time>
   </trkpt>
   <trkpt lat="-3.0874630" lon="37.3710090">
    <ele>5142.1</ele>
    <time>2026-06-23T00:19:29Z</time>
   </trkpt>
   <trkpt lat="-3.0874640" lon="37.3710060">
    <ele>5142.1</ele>
    <time>2026-06-23T00:19:30Z</time>
   </trkpt>
   <trkpt lat="-3.0874640" lon="37.3710050">
    <ele>5142.1</ele>
    <time>2026-06-23T00:19:31Z</time>
   </trkpt>
   <trkpt lat="-3.0874630" lon="37.3710020">
    <ele>5142.2</ele>
    <time>2026-06-23T00:19:32Z</time>
   </trkpt>
   <trkpt lat="-3.0874630" lon="37.3710000">
    <ele>5142.2</ele>
    <time>2026-06-23T00:19:33Z</time>
   </trkpt>
   <trkpt lat="-3.0874610" lon="37.3709980">
    <ele>5142.3</ele>
    <time>2026-06-23T00:19:34Z</time>
   </trkpt>
   <trkpt lat="-3.0874600" lon="37.3709960">
    <ele>5142.3</ele>
    <time>2026-06-23T00:19:35Z</time>
   </trkpt>
   <trkpt lat="-3.0874600" lon="37.3709940">
    <ele>5142.3</ele>
    <time>2026-06-23T00:19:36Z</time>
   </trkpt>
   <trkpt lat="-3.0874570" lon="37.3709930">
    <ele>5142.4</ele>
    <time>2026-06-23T00:19:37Z</time>
   </trkpt>
   <trkpt lat="-3.0874590" lon="37.3709920">
    <ele>5142.4</ele>
    <time>2026-06-23T00:19:38Z</time>
   </trkpt>
   <trkpt lat="-3.0874580" lon="37.3709890">
    <ele>5142.5</ele>
    <time>2026-06-23T00:19:39Z</time>
   </trkpt>
   <trkpt lat="-3.0874560" lon="37.3709880">
    <ele>5142.5</ele>
    <time>2026-06-23T00:19:40Z</time>
   </trkpt>
   <trkpt lat="-3.0874540" lon="37.3709860">
    <ele>5142.6</ele>
    <time>2026-06-23T00:19:41Z</time>
   </trkpt>
   <trkpt lat="-3.0874520" lon="37.3709850">
    <ele>5142.6</ele>
    <time>2026-06-23T00:19:42Z</time>
   </trkpt>
   <trkpt lat="-3.0874500" lon="37.3709830">
    <ele>5142.7</ele>
    <time>2026-06-23T00:19:43Z</time>
   </trkpt>
   <trkpt lat="-3.0874500" lon="37.3709810">
    <ele>5142.7</ele>
    <time>2026-06-23T00:19:44Z</time>
   </trkpt>
   <trkpt lat="-3.0874480" lon="37.3709780">
    <ele>5142.7</ele>
    <time>2026-06-23T00:19:45Z</time>
   </trkpt>
   <trkpt lat="-3.0874460" lon="37.3709770">
    <ele>5142.8</ele>
    <time>2026-06-23T00:19:46Z</time>
   </trkpt>
   <trkpt lat="-3.0874440" lon="37.3709760">
    <ele>5142.8</ele>
    <time>2026-06-23T00:19:47Z</time>
   </trkpt>
   <trkpt lat="-3.0874420" lon="37.3709750">
    <ele>5142.9</ele>
    <time>2026-06-23T00:19:48Z</time>
   </trkpt>
   <trkpt lat="-3.0874420" lon="37.3709740">
    <ele>5142.9</ele>
    <time>2026-06-23T00:19:49Z</time>
   </trkpt>
   <trkpt lat="-3.0874410" lon="37.3709730">
    <ele>5142.9</ele>
    <time>2026-06-23T00:19:50Z</time>
   </trkpt>
   <trkpt lat="-3.0874390" lon="37.3709710">
    <ele>5143.0</ele>
    <time>2026-06-23T00:19:51Z</time>
   </trkpt>
   <trkpt lat="-3.0874370" lon="37.3709690">
    <ele>5143.0</ele>
    <time>2026-06-23T00:19:52Z</time>
   </trkpt>
   <trkpt lat="-3.0874350" lon="37.3709680">
    <ele>5143.0</ele>
    <time>2026-06-23T00:19:53Z</time>
   </trkpt>
   <trkpt lat="-3.0874370" lon="37.3709680">
    <ele>5143.1</ele>
    <time>2026-06-23T00:19:54Z</time>
   </trkpt>
   <trkpt lat="-3.0874340" lon="37.3709680">
    <ele>5143.1</ele>
    <time>2026-06-23T00:19:55Z</time>
   </trkpt>
   <trkpt lat="-3.0874320" lon="37.3709670">
    <ele>5143.2</ele>
    <time>2026-06-23T00:19:56Z</time>
   </trkpt>
   <trkpt lat="-3.0874290" lon="37.3709670">
    <ele>5143.2</ele>
    <time>2026-06-23T00:19:57Z</time>
   </trkpt>
   <trkpt lat="-3.0874260" lon="37.3709650">
    <ele>5143.3</ele>
    <time>2026-06-23T00:19:58Z</time>
   </trkpt>
   <trkpt lat="-3.0874230" lon="37.3709640">
    <ele>5143.3</ele>
    <time>2026-06-23T00:19:59Z</time>
   </trkpt>
   <trkpt lat="-3.0874230" lon="37.3709620">
    <ele>5143.4</ele>
    <time>2026-06-23T00:20:00Z</time>
   </trkpt>
   <trkpt lat="-3.0874200" lon="37.3709610">
    <ele>5143.4</ele>
    <time>2026-06-23T00:20:01Z</time>
   </trkpt>
   <trkpt lat="-3.0874200" lon="37.3709590">
    <ele>5143.4</ele>
    <time>2026-06-23T00:20:02Z</time>
   </trkpt>
   <trkpt lat="-3.0874190" lon="37.3709580">
    <ele>5143.5</ele>
    <time>2026-06-23T00:20:03Z</time>
   </trkpt>
   <trkpt lat="-3.0874170" lon="37.3709550">
    <ele>5143.5</ele>
    <time>2026-06-23T00:20:04Z</time>
   </trkpt>
   <trkpt lat="-3.0874170" lon="37.3709540">
    <ele>5143.5</ele>
    <time>2026-06-23T00:20:05Z</time>
   </trkpt>
   <trkpt lat="-3.0874150" lon="37.3709530">
    <ele>5143.6</ele>
    <time>2026-06-23T00:20:06Z</time>
   </trkpt>
   <trkpt lat="-3.0874150" lon="37.3709520">
    <ele>5143.6</ele>
    <time>2026-06-23T00:20:07Z</time>
   </trkpt>
   <trkpt lat="-3.0874150" lon="37.3709510">
    <ele>5143.6</ele>
    <time>2026-06-23T00:20:08Z</time>
   </trkpt>
   <trkpt lat="-3.0874130" lon="37.3709510">
    <ele>5143.7</ele>
    <time>2026-06-23T00:20:09Z</time>
   </trkpt>
   <trkpt lat="-3.0874110" lon="37.3709500">
    <ele>5143.7</ele>
    <time>2026-06-23T00:20:10Z</time>
   </trkpt>
   <trkpt lat="-3.0874070" lon="37.3709470">
    <ele>5143.8</ele>
    <time>2026-06-23T00:20:11Z</time>
   </trkpt>
   <trkpt lat="-3.0874070" lon="37.3709460">
    <ele>5143.8</ele>
    <time>2026-06-23T00:20:12Z</time>
   </trkpt>
   <trkpt lat="-3.0874060" lon="37.3709450">
    <ele>5143.8</ele>
    <time>2026-06-23T00:20:13Z</time>
   </trkpt>
   <trkpt lat="-3.0874060" lon="37.3709430">
    <ele>5143.8</ele>
    <time>2026-06-23T00:20:14Z</time>
   </trkpt>
   <trkpt lat="-3.0874060" lon="37.3709400">
    <ele>5143.9</ele>
    <time>2026-06-23T00:20:15Z</time>
   </trkpt>
   <trkpt lat="-3.0874050" lon="37.3709360">
    <ele>5143.9</ele>
    <time>2026-06-23T00:20:16Z</time>
   </trkpt>
   <trkpt lat="-3.0874070" lon="37.3709350">
    <ele>5144.0</ele>
    <time>2026-06-23T00:20:17Z</time>
   </trkpt>
   <trkpt lat="-3.0874080" lon="37.3709340">
    <ele>5144.0</ele>
    <time>2026-06-23T00:20:18Z</time>
   </trkpt>
   <trkpt lat="-3.0874080" lon="37.3709340">
    <ele>5144.0</ele>
    <time>2026-06-23T00:20:19Z</time>
   </trkpt>
   <trkpt lat="-3.0874120" lon="37.3709300">
    <ele>5144.1</ele>
    <time>2026-06-23T00:20:20Z</time>
   </trkpt>
   <trkpt lat="-3.0874130" lon="37.3709280">
    <ele>5144.1</ele>
    <time>2026-06-23T00:20:21Z</time>
   </trkpt>
   <trkpt lat="-3.0874150" lon="37.3709270">
    <ele>5144.2</ele>
    <time>2026-06-23T00:20:22Z</time>
   </trkpt>
   <trkpt lat="-3.0874180" lon="37.3709230">
    <ele>5144.2</ele>
    <time>2026-06-23T00:20:23Z</time>
   </trkpt>
   <trkpt lat="-3.0874200" lon="37.3709220">
    <ele>5144.3</ele>
    <time>2026-06-23T00:20:24Z</time>
   </trkpt>
   <trkpt lat="-3.0874200" lon="37.3709190">
    <ele>5144.3</ele>
    <time>2026-06-23T00:20:25Z</time>
   </trkpt>
   <trkpt lat="-3.0874210" lon="37.3709170">
    <ele>5144.3</ele>
    <time>2026-06-23T00:20:26Z</time>
   </trkpt>
   <trkpt lat="-3.0874190" lon="37.3709140">
    <ele>5144.4</ele>
    <time>2026-06-23T00:20:27Z</time>
   </trkpt>
   <trkpt lat="-3.0874200" lon="37.3709110">
    <ele>5144.4</ele>
    <time>2026-06-23T00:20:28Z</time>
   </trkpt>
   <trkpt lat="-3.0874200" lon="37.3709100">
    <ele>5144.5</ele>
    <time>2026-06-23T00:20:29Z</time>
   </trkpt>
   <trkpt lat="-3.0874170" lon="37.3709060">
    <ele>5144.5</ele>
    <time>2026-06-23T00:20:30Z</time>
   </trkpt>
   <trkpt lat="-3.0874170" lon="37.3709030">
    <ele>5144.6</ele>
    <time>2026-06-23T00:20:31Z</time>
   </trkpt>
   <trkpt lat="-3.0874190" lon="37.3709010">
    <ele>5144.6</ele>
    <time>2026-06-23T00:20:32Z</time>
   </trkpt>
   <trkpt lat="-3.0874180" lon="37.3708990">
    <ele>5144.7</ele>
    <time>2026-06-23T00:20:33Z</time>
   </trkpt>
   <trkpt lat="-3.0874200" lon="37.3708960">
    <ele>5144.7</ele>
    <time>2026-06-23T00:20:34Z</time>
   </trkpt>
   <trkpt lat="-3.0874230" lon="37.3708930">
    <ele>5144.8</ele>
    <time>2026-06-23T00:20:35Z</time>
   </trkpt>
   <trkpt lat="-3.0874250" lon="37.3708930">
    <ele>5144.8</ele>
    <time>2026-06-23T00:20:36Z</time>
   </trkpt>
   <trkpt lat="-3.0874290" lon="37.3708910">
    <ele>5144.9</ele>
    <time>2026-06-23T00:20:37Z</time>
   </trkpt>
   <trkpt lat="-3.0874290" lon="37.3708890">
    <ele>5144.9</ele>
    <time>2026-06-23T00:20:38Z</time>
   </trkpt>
   <trkpt lat="-3.0874290" lon="37.3708860">
    <ele>5145.0</ele>
    <time>2026-06-23T00:20:39Z</time>
   </trkpt>
   <trkpt lat="-3.0874270" lon="37.3708820">
    <ele>5145.0</ele>
    <time>2026-06-23T00:20:40Z</time>
   </trkpt>
   <trkpt lat="-3.0874270" lon="37.3708800">
    <ele>5145.0</ele>
    <time>2026-06-23T00:20:41Z</time>
   </trkpt>
   <trkpt lat="-3.0874240" lon="37.3708770">
    <ele>5145.1</ele>
    <time>2026-06-23T00:20:42Z</time>
   </trkpt>
   <trkpt lat="-3.0874250" lon="37.3708750">
    <ele>5145.1</ele>
    <time>2026-06-23T00:20:43Z</time>
   </trkpt>
   <trkpt lat="-3.0874230" lon="37.3708730">
    <ele>5145.2</ele>
    <time>2026-06-23T00:20:44Z</time>
   </trkpt>
   <trkpt lat="-3.0874220" lon="37.3708700">
    <ele>5145.2</ele>
    <time>2026-06-23T00:20:45Z</time>
   </trkpt>
   <trkpt lat="-3.0874200" lon="37.3708690">
    <ele>5145.3</ele>
    <time>2026-06-23T00:20:46Z</time>
   </trkpt>
   <trkpt lat="-3.0874180" lon="37.3708650">
    <ele>5145.3</ele>
    <time>2026-06-23T00:20:47Z</time>
   </trkpt>
   <trkpt lat="-3.0874180" lon="37.3708630">
    <ele>5145.4</ele>
    <time>2026-06-23T00:20:48Z</time>
   </trkpt>
   <trkpt lat="-3.0874160" lon="37.3708600">
    <ele>5145.4</ele>
    <time>2026-06-23T00:20:49Z</time>
   </trkpt>
   <trkpt lat="-3.0874160" lon="37.3708570">
    <ele>5145.4</ele>
    <time>2026-06-23T00:20:50Z</time>
   </trkpt>
   <trkpt lat="-3.0874150" lon="37.3708560">
    <ele>5145.5</ele>
    <time>2026-06-23T00:20:51Z</time>
   </trkpt>
   <trkpt lat="-3.0874160" lon="37.3708530">
    <ele>5145.5</ele>
    <time>2026-06-23T00:20:52Z</time>
   </trkpt>
   <trkpt lat="-3.0874150" lon="37.3708500">
    <ele>5145.6</ele>
    <time>2026-06-23T00:20:53Z</time>
   </trkpt>
   <trkpt lat="-3.0874150" lon="37.3708460">
    <ele>5145.6</ele>
    <time>2026-06-23T00:20:54Z</time>
   </trkpt>
   <trkpt lat="-3.0874140" lon="37.3708440">
    <ele>5145.6</ele>
    <time>2026-06-23T00:20:55Z</time>
   </trkpt>
   <trkpt lat="-3.0874140" lon="37.3708410">
    <ele>5145.7</ele>
    <time>2026-06-23T00:20:56Z</time>
   </trkpt>
   <trkpt lat="-3.0874130" lon="37.3708360">
    <ele>5145.8</ele>
    <time>2026-06-23T00:20:57Z</time>
   </trkpt>
   <trkpt lat="-3.0874130" lon="37.3708340">
    <ele>5145.8</ele>
    <time>2026-06-23T00:20:58Z</time>
   </trkpt>
   <trkpt lat="-3.0874130" lon="37.3708310">
    <ele>5145.8</ele>
    <time>2026-06-23T00:20:59Z</time>
   </trkpt>
   <trkpt lat="-3.0874130" lon="37.3708300">
    <ele>5145.8</ele>
    <time>2026-06-23T00:21:00Z</time>
   </trkpt>
   <trkpt lat="-3.0874140" lon="37.3708280">
    <ele>5145.9</ele>
    <time>2026-06-23T00:21:01Z</time>
   </trkpt>
   <trkpt lat="-3.0874130" lon="37.3708250">
    <ele>5145.9</ele>
    <time>2026-06-23T00:21:02Z</time>
   </trkpt>
   <trkpt lat="-3.0874140" lon="37.3708230">
    <ele>5146.0</ele>
    <time>2026-06-23T00:21:03Z</time>
   </trkpt>
   <trkpt lat="-3.0874140" lon="37.3708200">
    <ele>5146.0</ele>
    <time>2026-06-23T00:21:04Z</time>
   </trkpt>
   <trkpt lat="-3.0874130" lon="37.3708210">
    <ele>5146.0</ele>
    <time>2026-06-23T00:21:05Z</time>
   </trkpt>
   <trkpt lat="-3.0874140" lon="37.3708170">
    <ele>5146.1</ele>
    <time>2026-06-23T00:21:06Z</time>
   </trkpt>
   <trkpt lat="-3.0874150" lon="37.3708150">
    <ele>5146.1</ele>
    <time>2026-06-23T00:21:07Z</time>
   </trkpt>
   <trkpt lat="-3.0874160" lon="37.3708130">
    <ele>5146.1</ele>
    <time>2026-06-23T00:21:08Z</time>
   </trkpt>
   <trkpt lat="-3.0874150" lon="37.3708100">
    <ele>5146.2</ele>
    <time>2026-06-23T00:21:09Z</time>
   </trkpt>
   <trkpt lat="-3.0874170" lon="37.3708070">
    <ele>5146.2</ele>
    <time>2026-06-23T00:21:10Z</time>
   </trkpt>
   <trkpt lat="-3.0874160" lon="37.3708040">
    <ele>5146.3</ele>
    <time>2026-06-23T00:21:11Z</time>
   </trkpt>
   <trkpt lat="-3.0874160" lon="37.3708030">
    <ele>5146.3</ele>
    <time>2026-06-23T00:21:12Z</time>
   </trkpt>
   <trkpt lat="-3.0874160" lon="37.3708010">
    <ele>5146.3</ele>
    <time>2026-06-23T00:21:13Z</time>
   </trkpt>
   <trkpt lat="-3.0874170" lon="37.3707990">
    <ele>5146.4</ele>
    <time>2026-06-23T00:21:14Z</time>
   </trkpt>
   <trkpt lat="-3.0874180" lon="37.3707970">
    <ele>5146.4</ele>
    <time>2026-06-23T00:21:15Z</time>
   </trkpt>
   <trkpt lat="-3.0874170" lon="37.3707940">
    <ele>5146.4</ele>
    <time>2026-06-23T00:21:16Z</time>
   </trkpt>
   <trkpt lat="-3.0874170" lon="37.3707900">
    <ele>5146.5</ele>
    <time>2026-06-23T00:21:17Z</time>
   </trkpt>
   <trkpt lat="-3.0874160" lon="37.3707880">
    <ele>5146.5</ele>
    <time>2026-06-23T00:21:18Z</time>
   </trkpt>
   <trkpt lat="-3.0874140" lon="37.3707860">
    <ele>5146.6</ele>
    <time>2026-06-23T00:21:19Z</time>
   </trkpt>
   <trkpt lat="-3.0874150" lon="37.3707830">
    <ele>5146.6</ele>
    <time>2026-06-23T00:21:20Z</time>
   </trkpt>
   <trkpt lat="-3.0874160" lon="37.3707830">
    <ele>5146.6</ele>
    <time>2026-06-23T00:21:21Z</time>
   </trkpt>
   <trkpt lat="-3.0874130" lon="37.3707810">
    <ele>5146.7</ele>
    <time>2026-06-23T00:21:22Z</time>
   </trkpt>
   <trkpt lat="-3.0874130" lon="37.3707810">
    <ele>5146.7</ele>
    <time>2026-06-23T00:21:23Z</time>
   </trkpt>
   <trkpt lat="-3.0874110" lon="37.3707800">
    <ele>5146.7</ele>
    <time>2026-06-23T00:21:24Z</time>
   </trkpt>
   <trkpt lat="-3.0874090" lon="37.3707770">
    <ele>5146.8</ele>
    <time>2026-06-23T00:21:25Z</time>
   </trkpt>
   <trkpt lat="-3.0874080" lon="37.3707740">
    <ele>5146.8</ele>
    <time>2026-06-23T00:21:26Z</time>
   </trkpt>
   <trkpt lat="-3.0874070" lon="37.3707730">
    <ele>5146.8</ele>
    <time>2026-06-23T00:21:27Z</time>
   </trkpt>
   <trkpt lat="-3.0874040" lon="37.3707710">
    <ele>5146.9</ele>
    <time>2026-06-23T00:21:28Z</time>
   </trkpt>
   <trkpt lat="-3.0874020" lon="37.3707710">
    <ele>5146.9</ele>
    <time>2026-06-23T00:21:29Z</time>
   </trkpt>
   <trkpt lat="-3.0873990" lon="37.3707690">
    <ele>5147.0</ele>
    <time>2026-06-23T00:21:30Z</time>
   </trkpt>
   <trkpt lat="-3.0873970" lon="37.3707690">
    <ele>5147.0</ele>
    <time>2026-06-23T00:21:31Z</time>
   </trkpt>
   <trkpt lat="-3.0873950" lon="37.3707660">
    <ele>5147.0</ele>
    <time>2026-06-23T00:21:32Z</time>
   </trkpt>
   <trkpt lat="-3.0873920" lon="37.3707650">
    <ele>5147.1</ele>
    <time>2026-06-23T00:21:33Z</time>
   </trkpt>
   <trkpt lat="-3.0873900" lon="37.3707630">
    <ele>5147.1</ele>
    <time>2026-06-23T00:21:34Z</time>
   </trkpt>
   <trkpt lat="-3.0873890" lon="37.3707620">
    <ele>5147.1</ele>
    <time>2026-06-23T00:21:35Z</time>
   </trkpt>
   <trkpt lat="-3.0873890" lon="37.3707590">
    <ele>5147.2</ele>
    <time>2026-06-23T00:21:36Z</time>
   </trkpt>
   <trkpt lat="-3.0873850" lon="37.3707570">
    <ele>5147.3</ele>
    <time>2026-06-23T00:21:37Z</time>
   </trkpt>
   <trkpt lat="-3.0873860" lon="37.3707540">
    <ele>5147.3</ele>
    <time>2026-06-23T00:21:38Z</time>
   </trkpt>
   <trkpt lat="-3.0873860" lon="37.3707540">
    <ele>5147.3</ele>
    <time>2026-06-23T00:21:39Z</time>
   </trkpt>
   <trkpt lat="-3.0873850" lon="37.3707500">
    <ele>5147.4</ele>
    <time>2026-06-23T00:21:40Z</time>
   </trkpt>
   <trkpt lat="-3.0873840" lon="37.3707470">
    <ele>5147.4</ele>
    <time>2026-06-23T00:21:41Z</time>
   </trkpt>
   <trkpt lat="-3.0873860" lon="37.3707450">
    <ele>5147.4</ele>
    <time>2026-06-23T00:21:42Z</time>
   </trkpt>
   <trkpt lat="-3.0873820" lon="37.3707420">
    <ele>5147.5</ele>
    <time>2026-06-23T00:21:43Z</time>
   </trkpt>
   <trkpt lat="-3.0873820" lon="37.3707400">
    <ele>5147.5</ele>
    <time>2026-06-23T00:21:44Z</time>
   </trkpt>
   <trkpt lat="-3.0873780" lon="37.3707370">
    <ele>5147.6</ele>
    <time>2026-06-23T00:21:45Z</time>
   </trkpt>
   <trkpt lat="-3.0873760" lon="37.3707390">
    <ele>5147.7</ele>
    <time>2026-06-23T00:21:46Z</time>
   </trkpt>
   <trkpt lat="-3.0873740" lon="37.3707390">
    <ele>5147.7</ele>
    <time>2026-06-23T00:21:47Z</time>
   </trkpt>
   <trkpt lat="-3.0873710" lon="37.3707390">
    <ele>5147.7</ele>
    <time>2026-06-23T00:21:48Z</time>
   </trkpt>
   <trkpt lat="-3.0873690" lon="37.3707370">
    <ele>5147.8</ele>
    <time>2026-06-23T00:21:49Z</time>
   </trkpt>
   <trkpt lat="-3.0873670" lon="37.3707380">
    <ele>5147.8</ele>
    <time>2026-06-23T00:21:50Z</time>
   </trkpt>
   <trkpt lat="-3.0873640" lon="37.3707370">
    <ele>5147.8</ele>
    <time>2026-06-23T00:21:51Z</time>
   </trkpt>
   <trkpt lat="-3.0873630" lon="37.3707370">
    <ele>5147.9</ele>
    <time>2026-06-23T00:21:52Z</time>
   </trkpt>
   <trkpt lat="-3.0873590" lon="37.3707370">
    <ele>5147.9</ele>
    <time>2026-06-23T00:21:53Z</time>
   </trkpt>
   <trkpt lat="-3.0873570" lon="37.3707380">
    <ele>5147.9</ele>
    <time>2026-06-23T00:21:54Z</time>
   </trkpt>
   <trkpt lat="-3.0873540" lon="37.3707390">
    <ele>5148.0</ele>
    <time>2026-06-23T00:21:55Z</time>
   </trkpt>
   <trkpt lat="-3.0873500" lon="37.3707420">
    <ele>5148.1</ele>
    <time>2026-06-23T00:21:56Z</time>
   </trkpt>
   <trkpt lat="-3.0873490" lon="37.3707430">
    <ele>5148.1</ele>
    <time>2026-06-23T00:21:57Z</time>
   </trkpt>
   <trkpt lat="-3.0873460" lon="37.3707450">
    <ele>5148.1</ele>
    <time>2026-06-23T00:21:58Z</time>
   </trkpt>
   <trkpt lat="-3.0873450" lon="37.3707420">
    <ele>5148.2</ele>
    <time>2026-06-23T00:21:59Z</time>
   </trkpt>
   <trkpt lat="-3.0873390" lon="37.3707470">
    <ele>5148.3</ele>
    <time>2026-06-23T00:22:00Z</time>
   </trkpt>
   <trkpt lat="-3.0873380" lon="37.3707490">
    <ele>5148.3</ele>
    <time>2026-06-23T00:22:01Z</time>
   </trkpt>
   <trkpt lat="-3.0873350" lon="37.3707520">
    <ele>5148.4</ele>
    <time>2026-06-23T00:22:02Z</time>
   </trkpt>
   <trkpt lat="-3.0873320" lon="37.3707530">
    <ele>5148.4</ele>
    <time>2026-06-23T00:22:03Z</time>
   </trkpt>
   <trkpt lat="-3.0873320" lon="37.3707540">
    <ele>5148.4</ele>
    <time>2026-06-23T00:22:04Z</time>
   </trkpt>
   <trkpt lat="-3.0873300" lon="37.3707570">
    <ele>5148.5</ele>
    <time>2026-06-23T00:22:05Z</time>
   </trkpt>
   <trkpt lat="-3.0873250" lon="37.3707600">
    <ele>5148.6</ele>
    <time>2026-06-23T00:22:06Z</time>
   </trkpt>
   <trkpt lat="-3.0873220" lon="37.3707620">
    <ele>5148.6</ele>
    <time>2026-06-23T00:22:07Z</time>
   </trkpt>
   <trkpt lat="-3.0873210" lon="37.3707620">
    <ele>5148.6</ele>
    <time>2026-06-23T00:22:08Z</time>
   </trkpt>
   <trkpt lat="-3.0873190" lon="37.3707620">
    <ele>5148.7</ele>
    <time>2026-06-23T00:22:09Z</time>
   </trkpt>
   <trkpt lat="-3.0873150" lon="37.3707640">
    <ele>5148.7</ele>
    <time>2026-06-23T00:22:10Z</time>
   </trkpt>
   <trkpt lat="-3.0873150" lon="37.3707650">
    <ele>5148.8</ele>
    <time>2026-06-23T00:22:11Z</time>
   </trkpt>
   <trkpt lat="-3.0873130" lon="37.3707660">
    <ele>5148.8</ele>
    <time>2026-06-23T00:22:12Z</time>
   </trkpt>
   <trkpt lat="-3.0873100" lon="37.3707670">
    <ele>5148.8</ele>
    <time>2026-06-23T00:22:13Z</time>
   </trkpt>
   <trkpt lat="-3.0873070" lon="37.3707700">
    <ele>5148.9</ele>
    <time>2026-06-23T00:22:14Z</time>
   </trkpt>
   <trkpt lat="-3.0873050" lon="37.3707720">
    <ele>5148.9</ele>
    <time>2026-06-23T00:22:15Z</time>
   </trkpt>
   <trkpt lat="-3.0873010" lon="37.3707750">
    <ele>5149.0</ele>
    <time>2026-06-23T00:22:16Z</time>
   </trkpt>
   <trkpt lat="-3.0873010" lon="37.3707740">
    <ele>5149.0</ele>
    <time>2026-06-23T00:22:17Z</time>
   </trkpt>
   <trkpt lat="-3.0872960" lon="37.3707750">
    <ele>5149.1</ele>
    <time>2026-06-23T00:22:18Z</time>
   </trkpt>
   <trkpt lat="-3.0872930" lon="37.3707760">
    <ele>5149.2</ele>
    <time>2026-06-23T00:22:19Z</time>
   </trkpt>
   <trkpt lat="-3.0872900" lon="37.3707780">
    <ele>5149.2</ele>
    <time>2026-06-23T00:22:20Z</time>
   </trkpt>
   <trkpt lat="-3.0872860" lon="37.3707780">
    <ele>5149.3</ele>
    <time>2026-06-23T00:22:21Z</time>
   </trkpt>
   <trkpt lat="-3.0872840" lon="37.3707790">
    <ele>5149.3</ele>
    <time>2026-06-23T00:22:22Z</time>
   </trkpt>
   <trkpt lat="-3.0872790" lon="37.3707790">
    <ele>5149.4</ele>
    <time>2026-06-23T00:22:23Z</time>
   </trkpt>
   <trkpt lat="-3.0872770" lon="37.3707790">
    <ele>5149.4</ele>
    <time>2026-06-23T00:22:24Z</time>
   </trkpt>
   <trkpt lat="-3.0872760" lon="37.3707810">
    <ele>5149.4</ele>
    <time>2026-06-23T00:22:25Z</time>
   </trkpt>
   <trkpt lat="-3.0872700" lon="37.3707820">
    <ele>5149.5</ele>
    <time>2026-06-23T00:22:26Z</time>
   </trkpt>
   <trkpt lat="-3.0872700" lon="37.3707830">
    <ele>5149.5</ele>
    <time>2026-06-23T00:22:27Z</time>
   </trkpt>
   <trkpt lat="-3.0872670" lon="37.3707820">
    <ele>5149.6</ele>
    <time>2026-06-23T00:22:28Z</time>
   </trkpt>
   <trkpt lat="-3.0872640" lon="37.3707850">
    <ele>5149.7</ele>
    <time>2026-06-23T00:22:29Z</time>
   </trkpt>
   <trkpt lat="-3.0872620" lon="37.3707840">
    <ele>5149.7</ele>
    <time>2026-06-23T00:22:30Z</time>
   </trkpt>
   <trkpt lat="-3.0872600" lon="37.3707870">
    <ele>5149.8</ele>
    <time>2026-06-23T00:22:31Z</time>
   </trkpt>
   <trkpt lat="-3.0872590" lon="37.3707880">
    <ele>5149.8</ele>
    <time>2026-06-23T00:22:32Z</time>
   </trkpt>
   <trkpt lat="-3.0872590" lon="37.3707880">
    <ele>5149.8</ele>
    <time>2026-06-23T00:22:33Z</time>
   </trkpt>
   <trkpt lat="-3.0872570" lon="37.3707900">
    <ele>5149.8</ele>
    <time>2026-06-23T00:22:34Z</time>
   </trkpt>
   <trkpt lat="-3.0872570" lon="37.3707920">
    <ele>5149.8</ele>
    <time>2026-06-23T00:22:35Z</time>
   </trkpt>
   <trkpt lat="-3.0872540" lon="37.3707940">
    <ele>5149.9</ele>
    <time>2026-06-23T00:22:36Z</time>
   </trkpt>
   <trkpt lat="-3.0872530" lon="37.3707960">
    <ele>5149.9</ele>
    <time>2026-06-23T00:22:37Z</time>
   </trkpt>
   <trkpt lat="-3.0872500" lon="37.3707970">
    <ele>5150.0</ele>
    <time>2026-06-23T00:22:38Z</time>
   </trkpt>
   <trkpt lat="-3.0872470" lon="37.3707990">
    <ele>5150.0</ele>
    <time>2026-06-23T00:22:39Z</time>
   </trkpt>
   <trkpt lat="-3.0872440" lon="37.3708000">
    <ele>5150.1</ele>
    <time>2026-06-23T00:22:40Z</time>
   </trkpt>
   <trkpt lat="-3.0872410" lon="37.3708010">
    <ele>5150.1</ele>
    <time>2026-06-23T00:22:41Z</time>
   </trkpt>
   <trkpt lat="-3.0872410" lon="37.3708000">
    <ele>5150.1</ele>
    <time>2026-06-23T00:22:42Z</time>
   </trkpt>
   <trkpt lat="-3.0872370" lon="37.3708020">
    <ele>5150.2</ele>
    <time>2026-06-23T00:22:43Z</time>
   </trkpt>
   <trkpt lat="-3.0872350" lon="37.3708020">
    <ele>5150.2</ele>
    <time>2026-06-23T00:22:44Z</time>
   </trkpt>
   <trkpt lat="-3.0872340" lon="37.3708020">
    <ele>5150.3</ele>
    <time>2026-06-23T00:22:45Z</time>
   </trkpt>
   <trkpt lat="-3.0872310" lon="37.3708040">
    <ele>5150.3</ele>
    <time>2026-06-23T00:22:46Z</time>
   </trkpt>
   <trkpt lat="-3.0872290" lon="37.3708030">
    <ele>5150.3</ele>
    <time>2026-06-23T00:22:47Z</time>
   </trkpt>
   <trkpt lat="-3.0872250" lon="37.3708040">
    <ele>5150.4</ele>
    <time>2026-06-23T00:22:48Z</time>
   </trkpt>
   <trkpt lat="-3.0872220" lon="37.3708060">
    <ele>5150.5</ele>
    <time>2026-06-23T00:22:49Z</time>
   </trkpt>
   <trkpt lat="-3.0872240" lon="37.3708050">
    <ele>5150.5</ele>
    <time>2026-06-23T00:22:50Z</time>
   </trkpt>
   <trkpt lat="-3.0872200" lon="37.3708060">
    <ele>5150.6</ele>
    <time>2026-06-23T00:22:51Z</time>
   </trkpt>
   <trkpt lat="-3.0872160" lon="37.3708040">
    <ele>5150.6</ele>
    <time>2026-06-23T00:22:52Z</time>
   </trkpt>
   <trkpt lat="-3.0872160" lon="37.3708030">
    <ele>5150.6</ele>
    <time>2026-06-23T00:22:53Z</time>
   </trkpt>
   <trkpt lat="-3.0872150" lon="37.3708020">
    <ele>5150.7</ele>
    <time>2026-06-23T00:22:54Z</time>
   </trkpt>
   <trkpt lat="-3.0872170" lon="37.3707990">
    <ele>5150.7</ele>
    <time>2026-06-23T00:22:55Z</time>
   </trkpt>
   <trkpt lat="-3.0872160" lon="37.3707960">
    <ele>5150.8</ele>
    <time>2026-06-23T00:22:56Z</time>
   </trkpt>
   <trkpt lat="-3.0872170" lon="37.3707920">
    <ele>5150.8</ele>
    <time>2026-06-23T00:22:57Z</time>
   </trkpt>
   <trkpt lat="-3.0872160" lon="37.3707900">
    <ele>5150.9</ele>
    <time>2026-06-23T00:22:58Z</time>
   </trkpt>
   <trkpt lat="-3.0872150" lon="37.3707880">
    <ele>5150.9</ele>
    <time>2026-06-23T00:22:59Z</time>
   </trkpt>
   <trkpt lat="-3.0872120" lon="37.3707870">
    <ele>5150.9</ele>
    <time>2026-06-23T00:23:00Z</time>
   </trkpt>
   <trkpt lat="-3.0872090" lon="37.3707830">
    <ele>5151.0</ele>
    <time>2026-06-23T00:23:01Z</time>
   </trkpt>
   <trkpt lat="-3.0872050" lon="37.3707820">
    <ele>5151.1</ele>
    <time>2026-06-23T00:23:02Z</time>
   </trkpt>
   <trkpt lat="-3.0872020" lon="37.3707810">
    <ele>5151.1</ele>
    <time>2026-06-23T00:23:03Z</time>
   </trkpt>
   <trkpt lat="-3.0871990" lon="37.3707820">
    <ele>5151.2</ele>
    <time>2026-06-23T00:23:04Z</time>
   </trkpt>
   <trkpt lat="-3.0871980" lon="37.3707800">
    <ele>5151.2</ele>
    <time>2026-06-23T00:23:05Z</time>
   </trkpt>
   <trkpt lat="-3.0871960" lon="37.3707790">
    <ele>5151.2</ele>
    <time>2026-06-23T00:23:06Z</time>
   </trkpt>
   <trkpt lat="-3.0871950" lon="37.3707760">
    <ele>5151.3</ele>
    <time>2026-06-23T00:23:07Z</time>
   </trkpt>
   <trkpt lat="-3.0871910" lon="37.3707760">
    <ele>5151.4</ele>
    <time>2026-06-23T00:23:08Z</time>
   </trkpt>
   <trkpt lat="-3.0871880" lon="37.3707730">
    <ele>5151.4</ele>
    <time>2026-06-23T00:23:09Z</time>
   </trkpt>
   <trkpt lat="-3.0871850" lon="37.3707740">
    <ele>5151.5</ele>
    <time>2026-06-23T00:23:10Z</time>
   </trkpt>
   <trkpt lat="-3.0871830" lon="37.3707740">
    <ele>5151.5</ele>
    <time>2026-06-23T00:23:11Z</time>
   </trkpt>
   <trkpt lat="-3.0871810" lon="37.3707760">
    <ele>5151.5</ele>
    <time>2026-06-23T00:23:12Z</time>
   </trkpt>
   <trkpt lat="-3.0871760" lon="37.3707770">
    <ele>5151.6</ele>
    <time>2026-06-23T00:23:13Z</time>
   </trkpt>
   <trkpt lat="-3.0871740" lon="37.3707780">
    <ele>5151.6</ele>
    <time>2026-06-23T00:23:14Z</time>
   </trkpt>
   <trkpt lat="-3.0871720" lon="37.3707770">
    <ele>5151.7</ele>
    <time>2026-06-23T00:23:15Z</time>
   </trkpt>
   <trkpt lat="-3.0871700" lon="37.3707770">
    <ele>5151.7</ele>
    <time>2026-06-23T00:23:16Z</time>
   </trkpt>
   <trkpt lat="-3.0871670" lon="37.3707770">
    <ele>5151.8</ele>
    <time>2026-06-23T00:23:17Z</time>
   </trkpt>
   <trkpt lat="-3.0871640" lon="37.3707770">
    <ele>5151.8</ele>
    <time>2026-06-23T00:23:18Z</time>
   </trkpt>
   <trkpt lat="-3.0871610" lon="37.3707760">
    <ele>5151.9</ele>
    <time>2026-06-23T00:23:19Z</time>
   </trkpt>
   <trkpt lat="-3.0871580" lon="37.3707740">
    <ele>5151.9</ele>
    <time>2026-06-23T00:23:20Z</time>
   </trkpt>
   <trkpt lat="-3.0871560" lon="37.3707740">
    <ele>5151.9</ele>
    <time>2026-06-23T00:23:21Z</time>
   </trkpt>
   <trkpt lat="-3.0871530" lon="37.3707740">
    <ele>5152.0</ele>
    <time>2026-06-23T00:23:22Z</time>
   </trkpt>
   <trkpt lat="-3.0871510" lon="37.3707730">
    <ele>5152.0</ele>
    <time>2026-06-23T00:23:23Z</time>
   </trkpt>
   <trkpt lat="-3.0871470" lon="37.3707730">
    <ele>5152.1</ele>
    <time>2026-06-23T00:23:24Z</time>
   </trkpt>
   <trkpt lat="-3.0871430" lon="37.3707730">
    <ele>5152.1</ele>
    <time>2026-06-23T00:23:25Z</time>
   </trkpt>
   <trkpt lat="-3.0871430" lon="37.3707730">
    <ele>5152.1</ele>
    <time>2026-06-23T00:23:26Z</time>
   </trkpt>
   <trkpt lat="-3.0871400" lon="37.3707730">
    <ele>5152.2</ele>
    <time>2026-06-23T00:23:27Z</time>
   </trkpt>
   <trkpt lat="-3.0871370" lon="37.3707740">
    <ele>5152.2</ele>
    <time>2026-06-23T00:23:28Z</time>
   </trkpt>
   <trkpt lat="-3.0871320" lon="37.3707740">
    <ele>5152.3</ele>
    <time>2026-06-23T00:23:29Z</time>
   </trkpt>
   <trkpt lat="-3.0871300" lon="37.3707740">
    <ele>5152.3</ele>
    <time>2026-06-23T00:23:30Z</time>
   </trkpt>
   <trkpt lat="-3.0871260" lon="37.3707720">
    <ele>5152.4</ele>
    <time>2026-06-23T00:23:31Z</time>
   </trkpt>
   <trkpt lat="-3.0871260" lon="37.3707720">
    <ele>5152.4</ele>
    <time>2026-06-23T00:23:32Z</time>
   </trkpt>
   <trkpt lat="-3.0871220" lon="37.3707720">
    <ele>5152.5</ele>
    <time>2026-06-23T00:23:33Z</time>
   </trkpt>
   <trkpt lat="-3.0871190" lon="37.3707730">
    <ele>5152.5</ele>
    <time>2026-06-23T00:23:34Z</time>
   </trkpt>
   <trkpt lat="-3.0871170" lon="37.3707730">
    <ele>5152.5</ele>
    <time>2026-06-23T00:23:35Z</time>
   </trkpt>
   <trkpt lat="-3.0871120" lon="37.3707740">
    <ele>5152.6</ele>
    <time>2026-06-23T00:23:36Z</time>
   </trkpt>
   <trkpt lat="-3.0871100" lon="37.3707740">
    <ele>5152.6</ele>
    <time>2026-06-23T00:23:37Z</time>
   </trkpt>
   <trkpt lat="-3.0871100" lon="37.3707740">
    <ele>5152.6</ele>
    <time>2026-06-23T00:23:38Z</time>
   </trkpt>
   <trkpt lat="-3.0871050" lon="37.3707730">
    <ele>5152.7</ele>
    <time>2026-06-23T00:23:39Z</time>
   </trkpt>
   <trkpt lat="-3.0871050" lon="37.3707730">
    <ele>5152.7</ele>
    <time>2026-06-23T00:23:40Z</time>
   </trkpt>
   <trkpt lat="-3.0870990" lon="37.3707720">
    <ele>5152.8</ele>
    <time>2026-06-23T00:23:41Z</time>
   </trkpt>
   <trkpt lat="-3.0870990" lon="37.3707700">
    <ele>5152.8</ele>
    <time>2026-06-23T00:23:42Z</time>
   </trkpt>
   <trkpt lat="-3.0870960" lon="37.3707690">
    <ele>5152.9</ele>
    <time>2026-06-23T00:23:43Z</time>
   </trkpt>
   <trkpt lat="-3.0870930" lon="37.3707660">
    <ele>5153.0</ele>
    <time>2026-06-23T00:23:44Z</time>
   </trkpt>
   <trkpt lat="-3.0870930" lon="37.3707620">
    <ele>5153.0</ele>
    <time>2026-06-23T00:23:45Z</time>
   </trkpt>
   <trkpt lat="-3.0870960" lon="37.3707580">
    <ele>5153.1</ele>
    <time>2026-06-23T00:23:46Z</time>
   </trkpt>
   <trkpt lat="-3.0870970" lon="37.3707550">
    <ele>5153.2</ele>
    <time>2026-06-23T00:23:47Z</time>
   </trkpt>
   <trkpt lat="-3.0871000" lon="37.3707520">
    <ele>5153.2</ele>
    <time>2026-06-23T00:23:48Z</time>
   </trkpt>
   <trkpt lat="-3.0871010" lon="37.3707480">
    <ele>5153.3</ele>
    <time>2026-06-23T00:23:49Z</time>
   </trkpt>
   <trkpt lat="-3.0871020" lon="37.3707460">
    <ele>5153.3</ele>
    <time>2026-06-23T00:23:50Z</time>
   </trkpt>
   <trkpt lat="-3.0871030" lon="37.3707440">
    <ele>5153.4</ele>
    <time>2026-06-23T00:23:51Z</time>
   </trkpt>
   <trkpt lat="-3.0871050" lon="37.3707420">
    <ele>5153.4</ele>
    <time>2026-06-23T00:23:52Z</time>
   </trkpt>
   <trkpt lat="-3.0871070" lon="37.3707400">
    <ele>5153.5</ele>
    <time>2026-06-23T00:23:53Z</time>
   </trkpt>
   <trkpt lat="-3.0871110" lon="37.3707370">
    <ele>5153.5</ele>
    <time>2026-06-23T00:23:54Z</time>
   </trkpt>
   <trkpt lat="-3.0871110" lon="37.3707360">
    <ele>5153.5</ele>
    <time>2026-06-23T00:23:55Z</time>
   </trkpt>
   <trkpt lat="-3.0871140" lon="37.3707330">
    <ele>5153.6</ele>
    <time>2026-06-23T00:23:56Z</time>
   </trkpt>
   <trkpt lat="-3.0871150" lon="37.3707300">
    <ele>5153.7</ele>
    <time>2026-06-23T00:23:57Z</time>
   </trkpt>
   <trkpt lat="-3.0871160" lon="37.3707270">
    <ele>5153.7</ele>
    <time>2026-06-23T00:23:58Z</time>
   </trkpt>
   <trkpt lat="-3.0871170" lon="37.3707240">
    <ele>5153.8</ele>
    <time>2026-06-23T00:23:59Z</time>
   </trkpt>
   <trkpt lat="-3.0871160" lon="37.3707230">
    <ele>5153.8</ele>
    <time>2026-06-23T00:24:00Z</time>
   </trkpt>
   <trkpt lat="-3.0871180" lon="37.3707220">
    <ele>5153.8</ele>
    <time>2026-06-23T00:24:01Z</time>
   </trkpt>
   <trkpt lat="-3.0871150" lon="37.3707200">
    <ele>5153.9</ele>
    <time>2026-06-23T00:24:02Z</time>
   </trkpt>
   <trkpt lat="-3.0871120" lon="37.3707160">
    <ele>5154.0</ele>
    <time>2026-06-23T00:24:03Z</time>
   </trkpt>
   <trkpt lat="-3.0871100" lon="37.3707160">
    <ele>5154.0</ele>
    <time>2026-06-23T00:24:04Z</time>
   </trkpt>
   <trkpt lat="-3.0871080" lon="37.3707150">
    <ele>5154.0</ele>
    <time>2026-06-23T00:24:05Z</time>
   </trkpt>
   <trkpt lat="-3.0871040" lon="37.3707130">
    <ele>5154.1</ele>
    <time>2026-06-23T00:24:06Z</time>
   </trkpt>
   <trkpt lat="-3.0871020" lon="37.3707110">
    <ele>5154.1</ele>
    <time>2026-06-23T00:24:07Z</time>
   </trkpt>
   <trkpt lat="-3.0870990" lon="37.3707110">
    <ele>5154.2</ele>
    <time>2026-06-23T00:24:08Z</time>
   </trkpt>
   <trkpt lat="-3.0870960" lon="37.3707080">
    <ele>5154.3</ele>
    <time>2026-06-23T00:24:09Z</time>
   </trkpt>
   <trkpt lat="-3.0870930" lon="37.3707070">
    <ele>5154.3</ele>
    <time>2026-06-23T00:24:10Z</time>
   </trkpt>
   <trkpt lat="-3.0870900" lon="37.3707060">
    <ele>5154.4</ele>
    <time>2026-06-23T00:24:11Z</time>
   </trkpt>
   <trkpt lat="-3.0870890" lon="37.3707070">
    <ele>5154.4</ele>
    <time>2026-06-23T00:24:12Z</time>
   </trkpt>
   <trkpt lat="-3.0870870" lon="37.3707060">
    <ele>5154.4</ele>
    <time>2026-06-23T00:24:13Z</time>
   </trkpt>
   <trkpt lat="-3.0870840" lon="37.3707090">
    <ele>5154.5</ele>
    <time>2026-06-23T00:24:14Z</time>
   </trkpt>
   <trkpt lat="-3.0870820" lon="37.3707110">
    <ele>5154.5</ele>
    <time>2026-06-23T00:24:15Z</time>
   </trkpt>
   <trkpt lat="-3.0870780" lon="37.3707110">
    <ele>5154.6</ele>
    <time>2026-06-23T00:24:16Z</time>
   </trkpt>
   <trkpt lat="-3.0870760" lon="37.3707150">
    <ele>5154.7</ele>
    <time>2026-06-23T00:24:17Z</time>
   </trkpt>
   <trkpt lat="-3.0870730" lon="37.3707180">
    <ele>5154.7</ele>
    <time>2026-06-23T00:24:18Z</time>
   </trkpt>
   <trkpt lat="-3.0870680" lon="37.3707210">
    <ele>5154.8</ele>
    <time>2026-06-23T00:24:19Z</time>
   </trkpt>
   <trkpt lat="-3.0870640" lon="37.3707220">
    <ele>5154.9</ele>
    <time>2026-06-23T00:24:20Z</time>
   </trkpt>
   <trkpt lat="-3.0870620" lon="37.3707230">
    <ele>5154.9</ele>
    <time>2026-06-23T00:24:21Z</time>
   </trkpt>
   <trkpt lat="-3.0870600" lon="37.3707210">
    <ele>5155.0</ele>
    <time>2026-06-23T00:24:22Z</time>
   </trkpt>
   <trkpt lat="-3.0870560" lon="37.3707210">
    <ele>5155.0</ele>
    <time>2026-06-23T00:24:23Z</time>
   </trkpt>
   <trkpt lat="-3.0870540" lon="37.3707170">
    <ele>5155.1</ele>
    <time>2026-06-23T00:24:24Z</time>
   </trkpt>
   <trkpt lat="-3.0870530" lon="37.3707150">
    <ele>5155.1</ele>
    <time>2026-06-23T00:24:25Z</time>
   </trkpt>
   <trkpt lat="-3.0870500" lon="37.3707110">
    <ele>5155.2</ele>
    <time>2026-06-23T00:24:26Z</time>
   </trkpt>
   <trkpt lat="-3.0870510" lon="37.3707070">
    <ele>5155.3</ele>
    <time>2026-06-23T00:24:27Z</time>
   </trkpt>
   <trkpt lat="-3.0870520" lon="37.3707050">
    <ele>5155.3</ele>
    <time>2026-06-23T00:24:28Z</time>
   </trkpt>
   <trkpt lat="-3.0870530" lon="37.3707020">
    <ele>5155.4</ele>
    <time>2026-06-23T00:24:29Z</time>
   </trkpt>
   <trkpt lat="-3.0870540" lon="37.3706980">
    <ele>5155.4</ele>
    <time>2026-06-23T00:24:30Z</time>
   </trkpt>
   <trkpt lat="-3.0870530" lon="37.3706960">
    <ele>5155.5</ele>
    <time>2026-06-23T00:24:31Z</time>
   </trkpt>
   <trkpt lat="-3.0870530" lon="37.3706910">
    <ele>5155.5</ele>
    <time>2026-06-23T00:24:32Z</time>
   </trkpt>
   <trkpt lat="-3.0870530" lon="37.3706890">
    <ele>5155.6</ele>
    <time>2026-06-23T00:24:33Z</time>
   </trkpt>
   <trkpt lat="-3.0870520" lon="37.3706880">
    <ele>5155.6</ele>
    <time>2026-06-23T00:24:34Z</time>
   </trkpt>
   <trkpt lat="-3.0870530" lon="37.3706830">
    <ele>5155.7</ele>
    <time>2026-06-23T00:24:35Z</time>
   </trkpt>
   <trkpt lat="-3.0870520" lon="37.3706810">
    <ele>5155.7</ele>
    <time>2026-06-23T00:24:36Z</time>
   </trkpt>
   <trkpt lat="-3.0870500" lon="37.3706770">
    <ele>5155.8</ele>
    <time>2026-06-23T00:24:37Z</time>
   </trkpt>
   <trkpt lat="-3.0870500" lon="37.3706740">
    <ele>5155.8</ele>
    <time>2026-06-23T00:24:38Z</time>
   </trkpt>
   <trkpt lat="-3.0870510" lon="37.3706710">
    <ele>5155.9</ele>
    <time>2026-06-23T00:24:39Z</time>
   </trkpt>
   <trkpt lat="-3.0870480" lon="37.3706680">
    <ele>5156.0</ele>
    <time>2026-06-23T00:24:40Z</time>
   </trkpt>
   <trkpt lat="-3.0870490" lon="37.3706650">
    <ele>5156.0</ele>
    <time>2026-06-23T00:24:41Z</time>
   </trkpt>
   <trkpt lat="-3.0870490" lon="37.3706620">
    <ele>5156.1</ele>
    <time>2026-06-23T00:24:42Z</time>
   </trkpt>
   <trkpt lat="-3.0870470" lon="37.3706610">
    <ele>5156.1</ele>
    <time>2026-06-23T00:24:43Z</time>
   </trkpt>
   <trkpt lat="-3.0870450" lon="37.3706580">
    <ele>5156.1</ele>
    <time>2026-06-23T00:24:44Z</time>
   </trkpt>
   <trkpt lat="-3.0870410" lon="37.3706590">
    <ele>5156.2</ele>
    <time>2026-06-23T00:24:45Z</time>
   </trkpt>
   <trkpt lat="-3.0870390" lon="37.3706600">
    <ele>5156.3</ele>
    <time>2026-06-23T00:24:46Z</time>
   </trkpt>
   <trkpt lat="-3.0870330" lon="37.3706620">
    <ele>5156.4</ele>
    <time>2026-06-23T00:24:47Z</time>
   </trkpt>
   <trkpt lat="-3.0870310" lon="37.3706610">
    <ele>5156.4</ele>
    <time>2026-06-23T00:24:48Z</time>
   </trkpt>
   <trkpt lat="-3.0870280" lon="37.3706610">
    <ele>5156.4</ele>
    <time>2026-06-23T00:24:49Z</time>
   </trkpt>
   <trkpt lat="-3.0870230" lon="37.3706600">
    <ele>5156.5</ele>
    <time>2026-06-23T00:24:50Z</time>
   </trkpt>
   <trkpt lat="-3.0870200" lon="37.3706610">
    <ele>5156.6</ele>
    <time>2026-06-23T00:24:51Z</time>
   </trkpt>
   <trkpt lat="-3.0870190" lon="37.3706600">
    <ele>5156.6</ele>
    <time>2026-06-23T00:24:52Z</time>
   </trkpt>
   <trkpt lat="-3.0870180" lon="37.3706610">
    <ele>5156.6</ele>
    <time>2026-06-23T00:24:53Z</time>
   </trkpt>
   <trkpt lat="-3.0870160" lon="37.3706630">
    <ele>5156.7</ele>
    <time>2026-06-23T00:24:54Z</time>
   </trkpt>
   <trkpt lat="-3.0870150" lon="37.3706620">
    <ele>5156.7</ele>
    <time>2026-06-23T00:24:55Z</time>
   </trkpt>
   <trkpt lat="-3.0870140" lon="37.3706620">
    <ele>5156.7</ele>
    <time>2026-06-23T00:24:56Z</time>
   </trkpt>
   <trkpt lat="-3.0870140" lon="37.3706630">
    <ele>5156.7</ele>
    <time>2026-06-23T00:24:57Z</time>
   </trkpt>
   <trkpt lat="-3.0870130" lon="37.3706630">
    <ele>5156.7</ele>
    <time>2026-06-23T00:24:58Z</time>
   </trkpt>
   <trkpt lat="-3.0870130" lon="37.3706630">
    <ele>5156.7</ele>
    <time>2026-06-23T00:24:59Z</time>
   </trkpt>
   <trkpt lat="-3.0870130" lon="37.3706630">
    <ele>5156.7</ele>
    <time>2026-06-23T00:25:00Z</time>
   </trkpt>
   <trkpt lat="-3.0870120" lon="37.3706630">
    <ele>5156.8</ele>
    <time>2026-06-23T00:25:01Z</time>
   </trkpt>
   <trkpt lat="-3.0870100" lon="37.3706640">
    <ele>5156.8</ele>
    <time>2026-06-23T00:25:02Z</time>
   </trkpt>
   <trkpt lat="-3.0870090" lon="37.3706640">
    <ele>5156.8</ele>
    <time>2026-06-23T00:25:03Z</time>
   </trkpt>
   <trkpt lat="-3.0870090" lon="37.3706650">
    <ele>5156.8</ele>
    <time>2026-06-23T00:25:04Z</time>
   </trkpt>
   <trkpt lat="-3.0870080" lon="37.3706650">
    <ele>5156.8</ele>
    <time>2026-06-23T00:25:05Z</time>
   </trkpt>
   <trkpt lat="-3.0870020" lon="37.3706680">
    <ele>5156.9</ele>
    <time>2026-06-23T00:25:06Z</time>
   </trkpt>
   <trkpt lat="-3.0869970" lon="37.3706700">
    <ele>5157.0</ele>
    <time>2026-06-23T00:25:07Z</time>
   </trkpt>
   <trkpt lat="-3.0869850" lon="37.3706700">
    <ele>5157.2</ele>
    <time>2026-06-23T00:25:08Z</time>
   </trkpt>
   <trkpt lat="-3.0869820" lon="37.3706670">
    <ele>5157.3</ele>
    <time>2026-06-23T00:25:09Z</time>
   </trkpt>
   <trkpt lat="-3.0869760" lon="37.3706640">
    <ele>5157.4</ele>
    <time>2026-06-23T00:25:10Z</time>
   </trkpt>
   <trkpt lat="-3.0869730" lon="37.3706620">
    <ele>5157.5</ele>
    <time>2026-06-23T00:25:11Z</time>
   </trkpt>
   <trkpt lat="-3.0869700" lon="37.3706600">
    <ele>5157.5</ele>
    <time>2026-06-23T00:25:12Z</time>
   </trkpt>
   <trkpt lat="-3.0869670" lon="37.3706570">
    <ele>5157.6</ele>
    <time>2026-06-23T00:25:13Z</time>
   </trkpt>
   <trkpt lat="-3.0869680" lon="37.3706570">
    <ele>5157.6</ele>
    <time>2026-06-23T00:25:14Z</time>
   </trkpt>
   <trkpt lat="-3.0869670" lon="37.3706550">
    <ele>5157.6</ele>
    <time>2026-06-23T00:25:15Z</time>
   </trkpt>
   <trkpt lat="-3.0869680" lon="37.3706560">
    <ele>5157.7</ele>
    <time>2026-06-23T00:25:16Z</time>
   </trkpt>
   <trkpt lat="-3.0869680" lon="37.3706560">
    <ele>5157.7</ele>
    <time>2026-06-23T00:25:17Z</time>
   </trkpt>
   <trkpt lat="-3.0869660" lon="37.3706550">
    <ele>5157.7</ele>
    <time>2026-06-23T00:25:18Z</time>
   </trkpt>
   <trkpt lat="-3.0869640" lon="37.3706520">
    <ele>5157.8</ele>
    <time>2026-06-23T00:25:19Z</time>
   </trkpt>
   <trkpt lat="-3.0869640" lon="37.3706490">
    <ele>5157.8</ele>
    <time>2026-06-23T00:25:20Z</time>
   </trkpt>
   <trkpt lat="-3.0869650" lon="37.3706460">
    <ele>5157.9</ele>
    <time>2026-06-23T00:25:21Z</time>
   </trkpt>
   <trkpt lat="-3.0869650" lon="37.3706430">
    <ele>5157.9</ele>
    <time>2026-06-23T00:25:22Z</time>
   </trkpt>
   <trkpt lat="-3.0869630" lon="37.3706400">
    <ele>5158.0</ele>
    <time>2026-06-23T00:25:23Z</time>
   </trkpt>
   <trkpt lat="-3.0869650" lon="37.3706390">
    <ele>5158.0</ele>
    <time>2026-06-23T00:25:24Z</time>
   </trkpt>
   <trkpt lat="-3.0869640" lon="37.3706370">
    <ele>5158.0</ele>
    <time>2026-06-23T00:25:25Z</time>
   </trkpt>
   <trkpt lat="-3.0869640" lon="37.3706340">
    <ele>5158.1</ele>
    <time>2026-06-23T00:25:26Z</time>
   </trkpt>
   <trkpt lat="-3.0869630" lon="37.3706320">
    <ele>5158.1</ele>
    <time>2026-06-23T00:25:27Z</time>
   </trkpt>
   <trkpt lat="-3.0869630" lon="37.3706290">
    <ele>5158.2</ele>
    <time>2026-06-23T00:25:28Z</time>
   </trkpt>
   <trkpt lat="-3.0869640" lon="37.3706260">
    <ele>5158.2</ele>
    <time>2026-06-23T00:25:29Z</time>
   </trkpt>
   <trkpt lat="-3.0869620" lon="37.3706240">
    <ele>5158.3</ele>
    <time>2026-06-23T00:25:30Z</time>
   </trkpt>
   <trkpt lat="-3.0869640" lon="37.3706210">
    <ele>5158.3</ele>
    <time>2026-06-23T00:25:31Z</time>
   </trkpt>
   <trkpt lat="-3.0869630" lon="37.3706190">
    <ele>5158.4</ele>
    <time>2026-06-23T00:25:32Z</time>
   </trkpt>
   <trkpt lat="-3.0869640" lon="37.3706180">
    <ele>5158.4</ele>
    <time>2026-06-23T00:25:33Z</time>
   </trkpt>
   <trkpt lat="-3.0869630" lon="37.3706160">
    <ele>5158.4</ele>
    <time>2026-06-23T00:25:34Z</time>
   </trkpt>
   <trkpt lat="-3.0869630" lon="37.3706130">
    <ele>5158.5</ele>
    <time>2026-06-23T00:25:35Z</time>
   </trkpt>
   <trkpt lat="-3.0869620" lon="37.3706120">
    <ele>5158.5</ele>
    <time>2026-06-23T00:25:36Z</time>
   </trkpt>
   <trkpt lat="-3.0869630" lon="37.3706100">
    <ele>5158.5</ele>
    <time>2026-06-23T00:25:37Z</time>
   </trkpt>
   <trkpt lat="-3.0869610" lon="37.3706100">
    <ele>5158.6</ele>
    <time>2026-06-23T00:25:38Z</time>
   </trkpt>
   <trkpt lat="-3.0869630" lon="37.3706080">
    <ele>5158.6</ele>
    <time>2026-06-23T00:25:39Z</time>
   </trkpt>
   <trkpt lat="-3.0869610" lon="37.3706050">
    <ele>5158.7</ele>
    <time>2026-06-23T00:25:40Z</time>
   </trkpt>
   <trkpt lat="-3.0869620" lon="37.3706020">
    <ele>5158.7</ele>
    <time>2026-06-23T00:25:41Z</time>
   </trkpt>
   <trkpt lat="-3.0869610" lon="37.3705990">
    <ele>5158.8</ele>
    <time>2026-06-23T00:25:42Z</time>
   </trkpt>
   <trkpt lat="-3.0869620" lon="37.3705970">
    <ele>5158.8</ele>
    <time>2026-06-23T00:25:43Z</time>
   </trkpt>
   <trkpt lat="-3.0869620" lon="37.3705950">
    <ele>5158.8</ele>
    <time>2026-06-23T00:25:44Z</time>
   </trkpt>
   <trkpt lat="-3.0869630" lon="37.3705930">
    <ele>5158.9</ele>
    <time>2026-06-23T00:25:45Z</time>
   </trkpt>
   <trkpt lat="-3.0869610" lon="37.3705900">
    <ele>5158.9</ele>
    <time>2026-06-23T00:25:46Z</time>
   </trkpt>
   <trkpt lat="-3.0869610" lon="37.3705880">
    <ele>5159.0</ele>
    <time>2026-06-23T00:25:47Z</time>
   </trkpt>
   <trkpt lat="-3.0869590" lon="37.3705860">
    <ele>5159.0</ele>
    <time>2026-06-23T00:25:48Z</time>
   </trkpt>
   <trkpt lat="-3.0869600" lon="37.3705830">
    <ele>5159.1</ele>
    <time>2026-06-23T00:25:49Z</time>
   </trkpt>
   <trkpt lat="-3.0869590" lon="37.3705810">
    <ele>5159.1</ele>
    <time>2026-06-23T00:25:50Z</time>
   </trkpt>
   <trkpt lat="-3.0869600" lon="37.3705780">
    <ele>5159.2</ele>
    <time>2026-06-23T00:25:51Z</time>
   </trkpt>
   <trkpt lat="-3.0869580" lon="37.3705750">
    <ele>5159.2</ele>
    <time>2026-06-23T00:25:52Z</time>
   </trkpt>
   <trkpt lat="-3.0869570" lon="37.3705730">
    <ele>5159.2</ele>
    <time>2026-06-23T00:25:53Z</time>
   </trkpt>
   <trkpt lat="-3.0869560" lon="37.3705710">
    <ele>5159.3</ele>
    <time>2026-06-23T00:25:54Z</time>
   </trkpt>
   <trkpt lat="-3.0869550" lon="37.3705690">
    <ele>5159.3</ele>
    <time>2026-06-23T00:25:55Z</time>
   </trkpt>
   <trkpt lat="-3.0869540" lon="37.3705660">
    <ele>5159.4</ele>
    <time>2026-06-23T00:25:56Z</time>
   </trkpt>
   <trkpt lat="-3.0869530" lon="37.3705640">
    <ele>5159.4</ele>
    <time>2026-06-23T00:25:57Z</time>
   </trkpt>
   <trkpt lat="-3.0869520" lon="37.3705610">
    <ele>5159.5</ele>
    <time>2026-06-23T00:25:58Z</time>
   </trkpt>
   <trkpt lat="-3.0869500" lon="37.3705580">
    <ele>5159.5</ele>
    <time>2026-06-23T00:25:59Z</time>
   </trkpt>
   <trkpt lat="-3.0869490" lon="37.3705550">
    <ele>5159.6</ele>
    <time>2026-06-23T00:26:00Z</time>
   </trkpt>
   <trkpt lat="-3.0869490" lon="37.3705540">
    <ele>5159.6</ele>
    <time>2026-06-23T00:26:01Z</time>
   </trkpt>
   <trkpt lat="-3.0869500" lon="37.3705510">
    <ele>5159.6</ele>
    <time>2026-06-23T00:26:02Z</time>
   </trkpt>
   <trkpt lat="-3.0869480" lon="37.3705470">
    <ele>5159.7</ele>
    <time>2026-06-23T00:26:03Z</time>
   </trkpt>
   <trkpt lat="-3.0869500" lon="37.3705450">
    <ele>5159.8</ele>
    <time>2026-06-23T00:26:04Z</time>
   </trkpt>
   <trkpt lat="-3.0869500" lon="37.3705430">
    <ele>5159.8</ele>
    <time>2026-06-23T00:26:05Z</time>
   </trkpt>
   <trkpt lat="-3.0869520" lon="37.3705400">
    <ele>5159.8</ele>
    <time>2026-06-23T00:26:06Z</time>
   </trkpt>
   <trkpt lat="-3.0869510" lon="37.3705390">
    <ele>5159.9</ele>
    <time>2026-06-23T00:26:07Z</time>
   </trkpt>
   <trkpt lat="-3.0869530" lon="37.3705370">
    <ele>5159.9</ele>
    <time>2026-06-23T00:26:08Z</time>
   </trkpt>
   <trkpt lat="-3.0869580" lon="37.3705350">
    <ele>5160.0</ele>
    <time>2026-06-23T00:26:09Z</time>
   </trkpt>
   <trkpt lat="-3.0869610" lon="37.3705340">
    <ele>5160.0</ele>
    <time>2026-06-23T00:26:10Z</time>
   </trkpt>
   <trkpt lat="-3.0869640" lon="37.3705340">
    <ele>5160.1</ele>
    <time>2026-06-23T00:26:11Z</time>
   </trkpt>
   <trkpt lat="-3.0869670" lon="37.3705350">
    <ele>5160.1</ele>
    <time>2026-06-23T00:26:12Z</time>
   </trkpt>
   <trkpt lat="-3.0869710" lon="37.3705350">
    <ele>5160.2</ele>
    <time>2026-06-23T00:26:13Z</time>
   </trkpt>
   <trkpt lat="-3.0869740" lon="37.3705370">
    <ele>5160.3</ele>
    <time>2026-06-23T00:26:14Z</time>
   </trkpt>
   <trkpt lat="-3.0869780" lon="37.3705380">
    <ele>5160.3</ele>
    <time>2026-06-23T00:26:15Z</time>
   </trkpt>
   <trkpt lat="-3.0869800" lon="37.3705360">
    <ele>5160.4</ele>
    <time>2026-06-23T00:26:16Z</time>
   </trkpt>
   <trkpt lat="-3.0869820" lon="37.3705360">
    <ele>5160.4</ele>
    <time>2026-06-23T00:26:17Z</time>
   </trkpt>
   <trkpt lat="-3.0869830" lon="37.3705360">
    <ele>5160.4</ele>
    <time>2026-06-23T00:26:18Z</time>
   </trkpt>
   <trkpt lat="-3.0869870" lon="37.3705350">
    <ele>5160.5</ele>
    <time>2026-06-23T00:26:19Z</time>
   </trkpt>
   <trkpt lat="-3.0869900" lon="37.3705330">
    <ele>5160.6</ele>
    <time>2026-06-23T00:26:20Z</time>
   </trkpt>
   <trkpt lat="-3.0869910" lon="37.3705310">
    <ele>5160.6</ele>
    <time>2026-06-23T00:26:21Z</time>
   </trkpt>
   <trkpt lat="-3.0869940" lon="37.3705290">
    <ele>5160.7</ele>
    <time>2026-06-23T00:26:22Z</time>
   </trkpt>
   <trkpt lat="-3.0869930" lon="37.3705260">
    <ele>5160.7</ele>
    <time>2026-06-23T00:26:23Z</time>
   </trkpt>
   <trkpt lat="-3.0869960" lon="37.3705240">
    <ele>5160.8</ele>
    <time>2026-06-23T00:26:24Z</time>
   </trkpt>
   <trkpt lat="-3.0869960" lon="37.3705190">
    <ele>5160.8</ele>
    <time>2026-06-23T00:26:25Z</time>
   </trkpt>
   <trkpt lat="-3.0869970" lon="37.3705170">
    <ele>5160.9</ele>
    <time>2026-06-23T00:26:26Z</time>
   </trkpt>
   <trkpt lat="-3.0869990" lon="37.3705150">
    <ele>5160.9</ele>
    <time>2026-06-23T00:26:27Z</time>
   </trkpt>
   <trkpt lat="-3.0870010" lon="37.3705130">
    <ele>5161.0</ele>
    <time>2026-06-23T00:26:28Z</time>
   </trkpt>
   <trkpt lat="-3.0870030" lon="37.3705110">
    <ele>5161.0</ele>
    <time>2026-06-23T00:26:29Z</time>
   </trkpt>
   <trkpt lat="-3.0870050" lon="37.3705080">
    <ele>5161.1</ele>
    <time>2026-06-23T00:26:30Z</time>
   </trkpt>
   <trkpt lat="-3.0870070" lon="37.3705070">
    <ele>5161.1</ele>
    <time>2026-06-23T00:26:31Z</time>
   </trkpt>
   <trkpt lat="-3.0870070" lon="37.3705040">
    <ele>5161.2</ele>
    <time>2026-06-23T00:26:32Z</time>
   </trkpt>
   <trkpt lat="-3.0870080" lon="37.3705010">
    <ele>5161.2</ele>
    <time>2026-06-23T00:26:33Z</time>
   </trkpt>
   <trkpt lat="-3.0870060" lon="37.3704970">
    <ele>5161.3</ele>
    <time>2026-06-23T00:26:34Z</time>
   </trkpt>
   <trkpt lat="-3.0870070" lon="37.3704940">
    <ele>5161.3</ele>
    <time>2026-06-23T00:26:35Z</time>
   </trkpt>
   <trkpt lat="-3.0870060" lon="37.3704910">
    <ele>5161.4</ele>
    <time>2026-06-23T00:26:36Z</time>
   </trkpt>
   <trkpt lat="-3.0870050" lon="37.3704870">
    <ele>5161.5</ele>
    <time>2026-06-23T00:26:37Z</time>
   </trkpt>
   <trkpt lat="-3.0870040" lon="37.3704870">
    <ele>5161.5</ele>
    <time>2026-06-23T00:26:38Z</time>
   </trkpt>
   <trkpt lat="-3.0870010" lon="37.3704830">
    <ele>5161.5</ele>
    <time>2026-06-23T00:26:39Z</time>
   </trkpt>
   <trkpt lat="-3.0870000" lon="37.3704820">
    <ele>5161.6</ele>
    <time>2026-06-23T00:26:40Z</time>
   </trkpt>
   <trkpt lat="-3.0869960" lon="37.3704780">
    <ele>5161.7</ele>
    <time>2026-06-23T00:26:41Z</time>
   </trkpt>
   <trkpt lat="-3.0869970" lon="37.3704760">
    <ele>5161.7</ele>
    <time>2026-06-23T00:26:42Z</time>
   </trkpt>
   <trkpt lat="-3.0869960" lon="37.3704740">
    <ele>5161.7</ele>
    <time>2026-06-23T00:26:43Z</time>
   </trkpt>
   <trkpt lat="-3.0869970" lon="37.3704710">
    <ele>5161.8</ele>
    <time>2026-06-23T00:26:44Z</time>
   </trkpt>
   <trkpt lat="-3.0869960" lon="37.3704680">
    <ele>5161.8</ele>
    <time>2026-06-23T00:26:45Z</time>
   </trkpt>
   <trkpt lat="-3.0869960" lon="37.3704650">
    <ele>5161.9</ele>
    <time>2026-06-23T00:26:46Z</time>
   </trkpt>
   <trkpt lat="-3.0869960" lon="37.3704620">
    <ele>5161.9</ele>
    <time>2026-06-23T00:26:47Z</time>
   </trkpt>
   <trkpt lat="-3.0869960" lon="37.3704580">
    <ele>5162.0</ele>
    <time>2026-06-23T00:26:48Z</time>
   </trkpt>
   <trkpt lat="-3.0869970" lon="37.3704560">
    <ele>5162.0</ele>
    <time>2026-06-23T00:26:49Z</time>
   </trkpt>
   <trkpt lat="-3.0869960" lon="37.3704510">
    <ele>5162.1</ele>
    <time>2026-06-23T00:26:50Z</time>
   </trkpt>
   <trkpt lat="-3.0869970" lon="37.3704470">
    <ele>5162.2</ele>
    <time>2026-06-23T00:26:51Z</time>
   </trkpt>
   <trkpt lat="-3.0869960" lon="37.3704440">
    <ele>5162.2</ele>
    <time>2026-06-23T00:26:52Z</time>
   </trkpt>
   <trkpt lat="-3.0869990" lon="37.3704420">
    <ele>5162.3</ele>
    <time>2026-06-23T00:26:53Z</time>
   </trkpt>
   <trkpt lat="-3.0869970" lon="37.3704380">
    <ele>5162.3</ele>
    <time>2026-06-23T00:26:54Z</time>
   </trkpt>
   <trkpt lat="-3.0869960" lon="37.3704360">
    <ele>5162.4</ele>
    <time>2026-06-23T00:26:55Z</time>
   </trkpt>
   <trkpt lat="-3.0869950" lon="37.3704310">
    <ele>5162.5</ele>
    <time>2026-06-23T00:26:56Z</time>
   </trkpt>
   <trkpt lat="-3.0869920" lon="37.3704300">
    <ele>5162.5</ele>
    <time>2026-06-23T00:26:57Z</time>
   </trkpt>
   <trkpt lat="-3.0869910" lon="37.3704270">
    <ele>5162.6</ele>
    <time>2026-06-23T00:26:58Z</time>
   </trkpt>
   <trkpt lat="-3.0869890" lon="37.3704250">
    <ele>5162.6</ele>
    <time>2026-06-23T00:26:59Z</time>
   </trkpt>
   <trkpt lat="-3.0869860" lon="37.3704230">
    <ele>5162.7</ele>
    <time>2026-06-23T00:27:00Z</time>
   </trkpt>
   <trkpt lat="-3.0869840" lon="37.3704220">
    <ele>5162.7</ele>
    <time>2026-06-23T00:27:01Z</time>
   </trkpt>
   <trkpt lat="-3.0869810" lon="37.3704190">
    <ele>5162.8</ele>
    <time>2026-06-23T00:27:02Z</time>
   </trkpt>
   <trkpt lat="-3.0869790" lon="37.3704180">
    <ele>5162.8</ele>
    <time>2026-06-23T00:27:03Z</time>
   </trkpt>
   <trkpt lat="-3.0869760" lon="37.3704170">
    <ele>5162.8</ele>
    <time>2026-06-23T00:27:04Z</time>
   </trkpt>
   <trkpt lat="-3.0869720" lon="37.3704150">
    <ele>5162.9</ele>
    <time>2026-06-23T00:27:05Z</time>
   </trkpt>
   <trkpt lat="-3.0869670" lon="37.3704150">
    <ele>5163.0</ele>
    <time>2026-06-23T00:27:06Z</time>
   </trkpt>
   <trkpt lat="-3.0869660" lon="37.3704150">
    <ele>5163.0</ele>
    <time>2026-06-23T00:27:07Z</time>
   </trkpt>
   <trkpt lat="-3.0869630" lon="37.3704170">
    <ele>5163.1</ele>
    <time>2026-06-23T00:27:08Z</time>
   </trkpt>
   <trkpt lat="-3.0869580" lon="37.3704150">
    <ele>5163.1</ele>
    <time>2026-06-23T00:27:09Z</time>
   </trkpt>
   <trkpt lat="-3.0869550" lon="37.3704150">
    <ele>5163.2</ele>
    <time>2026-06-23T00:27:10Z</time>
   </trkpt>
   <trkpt lat="-3.0869500" lon="37.3704140">
    <ele>5163.3</ele>
    <time>2026-06-23T00:27:11Z</time>
   </trkpt>
   <trkpt lat="-3.0869490" lon="37.3704160">
    <ele>5163.3</ele>
    <time>2026-06-23T00:27:12Z</time>
   </trkpt>
   <trkpt lat="-3.0869430" lon="37.3704140">
    <ele>5163.4</ele>
    <time>2026-06-23T00:27:13Z</time>
   </trkpt>
   <trkpt lat="-3.0869400" lon="37.3704150">
    <ele>5163.5</ele>
    <time>2026-06-23T00:27:14Z</time>
   </trkpt>
   <trkpt lat="-3.0869370" lon="37.3704140">
    <ele>5163.5</ele>
    <time>2026-06-23T00:27:15Z</time>
   </trkpt>
   <trkpt lat="-3.0869320" lon="37.3704130">
    <ele>5163.6</ele>
    <time>2026-06-23T00:27:16Z</time>
   </trkpt>
   <trkpt lat="-3.0869280" lon="37.3704100">
    <ele>5163.7</ele>
    <time>2026-06-23T00:27:17Z</time>
   </trkpt>
   <trkpt lat="-3.0869260" lon="37.3704090">
    <ele>5163.7</ele>
    <time>2026-06-23T00:27:18Z</time>
   </trkpt>
   <trkpt lat="-3.0869240" lon="37.3704080">
    <ele>5163.7</ele>
    <time>2026-06-23T00:27:19Z</time>
   </trkpt>
   <trkpt lat="-3.0869220" lon="37.3704040">
    <ele>5163.8</ele>
    <time>2026-06-23T00:27:20Z</time>
   </trkpt>
   <trkpt lat="-3.0869190" lon="37.3704040">
    <ele>5163.9</ele>
    <time>2026-06-23T00:27:21Z</time>
   </trkpt>
   <trkpt lat="-3.0869160" lon="37.3704010">
    <ele>5163.9</ele>
    <time>2026-06-23T00:27:22Z</time>
   </trkpt>
   <trkpt lat="-3.0869150" lon="37.3704000">
    <ele>5163.9</ele>
    <time>2026-06-23T00:27:23Z</time>
   </trkpt>
   <trkpt lat="-3.0869110" lon="37.3703970">
    <ele>5164.0</ele>
    <time>2026-06-23T00:27:24Z</time>
   </trkpt>
   <trkpt lat="-3.0869070" lon="37.3703970">
    <ele>5164.1</ele>
    <time>2026-06-23T00:27:25Z</time>
   </trkpt>
   <trkpt lat="-3.0869040" lon="37.3703950">
    <ele>5164.1</ele>
    <time>2026-06-23T00:27:26Z</time>
   </trkpt>
   <trkpt lat="-3.0869000" lon="37.3703960">
    <ele>5164.2</ele>
    <time>2026-06-23T00:27:27Z</time>
   </trkpt>
   <trkpt lat="-3.0868950" lon="37.3703940">
    <ele>5164.3</ele>
    <time>2026-06-23T00:27:28Z</time>
   </trkpt>
   <trkpt lat="-3.0868920" lon="37.3703930">
    <ele>5164.3</ele>
    <time>2026-06-23T00:27:29Z</time>
   </trkpt>
   <trkpt lat="-3.0868880" lon="37.3703930">
    <ele>5164.4</ele>
    <time>2026-06-23T00:27:30Z</time>
   </trkpt>
   <trkpt lat="-3.0868860" lon="37.3703920">
    <ele>5164.4</ele>
    <time>2026-06-23T00:27:31Z</time>
   </trkpt>
   <trkpt lat="-3.0868850" lon="37.3703920">
    <ele>5164.5</ele>
    <time>2026-06-23T00:27:32Z</time>
   </trkpt>
   <trkpt lat="-3.0868810" lon="37.3703890">
    <ele>5164.5</ele>
    <time>2026-06-23T00:27:33Z</time>
   </trkpt>
   <trkpt lat="-3.0868770" lon="37.3703870">
    <ele>5164.6</ele>
    <time>2026-06-23T00:27:34Z</time>
   </trkpt>
   <trkpt lat="-3.0868760" lon="37.3703840">
    <ele>5164.7</ele>
    <time>2026-06-23T00:27:35Z</time>
   </trkpt>
   <trkpt lat="-3.0868720" lon="37.3703810">
    <ele>5164.7</ele>
    <time>2026-06-23T00:27:36Z</time>
   </trkpt>
   <trkpt lat="-3.0868700" lon="37.3703790">
    <ele>5164.8</ele>
    <time>2026-06-23T00:27:37Z</time>
   </trkpt>
   <trkpt lat="-3.0868670" lon="37.3703780">
    <ele>5164.8</ele>
    <time>2026-06-23T00:27:38Z</time>
   </trkpt>
   <trkpt lat="-3.0868630" lon="37.3703760">
    <ele>5164.9</ele>
    <time>2026-06-23T00:27:39Z</time>
   </trkpt>
   <trkpt lat="-3.0868610" lon="37.3703770">
    <ele>5164.9</ele>
    <time>2026-06-23T00:27:40Z</time>
   </trkpt>
   <trkpt lat="-3.0868570" lon="37.3703770">
    <ele>5165.0</ele>
    <time>2026-06-23T00:27:41Z</time>
   </trkpt>
   <trkpt lat="-3.0868550" lon="37.3703770">
    <ele>5165.0</ele>
    <time>2026-06-23T00:27:42Z</time>
   </trkpt>
   <trkpt lat="-3.0868510" lon="37.3703750">
    <ele>5165.1</ele>
    <time>2026-06-23T00:27:43Z</time>
   </trkpt>
   <trkpt lat="-3.0868490" lon="37.3703750">
    <ele>5165.1</ele>
    <time>2026-06-23T00:27:44Z</time>
   </trkpt>
   <trkpt lat="-3.0868470" lon="37.3703740">
    <ele>5165.2</ele>
    <time>2026-06-23T00:27:45Z</time>
   </trkpt>
   <trkpt lat="-3.0868430" lon="37.3703730">
    <ele>5165.2</ele>
    <time>2026-06-23T00:27:46Z</time>
   </trkpt>
   <trkpt lat="-3.0868420" lon="37.3703710">
    <ele>5165.3</ele>
    <time>2026-06-23T00:27:47Z</time>
   </trkpt>
   <trkpt lat="-3.0868390" lon="37.3703700">
    <ele>5165.3</ele>
    <time>2026-06-23T00:27:48Z</time>
   </trkpt>
   <trkpt lat="-3.0868360" lon="37.3703680">
    <ele>5165.4</ele>
    <time>2026-06-23T00:27:49Z</time>
   </trkpt>
   <trkpt lat="-3.0868340" lon="37.3703660">
    <ele>5165.4</ele>
    <time>2026-06-23T00:27:50Z</time>
   </trkpt>
   <trkpt lat="-3.0868300" lon="37.3703650">
    <ele>5165.5</ele>
    <time>2026-06-23T00:27:51Z</time>
   </trkpt>
   <trkpt lat="-3.0868270" lon="37.3703630">
    <ele>5165.5</ele>
    <time>2026-06-23T00:27:52Z</time>
   </trkpt>
   <trkpt lat="-3.0868260" lon="37.3703610">
    <ele>5165.6</ele>
    <time>2026-06-23T00:27:53Z</time>
   </trkpt>
   <trkpt lat="-3.0868230" lon="37.3703580">
    <ele>5165.6</ele>
    <time>2026-06-23T00:27:54Z</time>
   </trkpt>
   <trkpt lat="-3.0868210" lon="37.3703550">
    <ele>5165.7</ele>
    <time>2026-06-23T00:27:55Z</time>
   </trkpt>
   <trkpt lat="-3.0868230" lon="37.3703540">
    <ele>5165.7</ele>
    <time>2026-06-23T00:27:56Z</time>
   </trkpt>
   <trkpt lat="-3.0868220" lon="37.3703500">
    <ele>5165.8</ele>
    <time>2026-06-23T00:27:57Z</time>
   </trkpt>
   <trkpt lat="-3.0868240" lon="37.3703490">
    <ele>5165.8</ele>
    <time>2026-06-23T00:27:58Z</time>
   </trkpt>
   <trkpt lat="-3.0868230" lon="37.3703460">
    <ele>5165.9</ele>
    <time>2026-06-23T00:27:59Z</time>
   </trkpt>
   <trkpt lat="-3.0868240" lon="37.3703440">
    <ele>5165.9</ele>
    <time>2026-06-23T00:28:00Z</time>
   </trkpt>
   <trkpt lat="-3.0868240" lon="37.3703420">
    <ele>5165.9</ele>
    <time>2026-06-23T00:28:01Z</time>
   </trkpt>
   <trkpt lat="-3.0868250" lon="37.3703380">
    <ele>5166.0</ele>
    <time>2026-06-23T00:28:02Z</time>
   </trkpt>
   <trkpt lat="-3.0868260" lon="37.3703360">
    <ele>5166.0</ele>
    <time>2026-06-23T00:28:03Z</time>
   </trkpt>
   <trkpt lat="-3.0868280" lon="37.3703340">
    <ele>5166.1</ele>
    <time>2026-06-23T00:28:04Z</time>
   </trkpt>
   <trkpt lat="-3.0868270" lon="37.3703320">
    <ele>5166.1</ele>
    <time>2026-06-23T00:28:05Z</time>
   </trkpt>
   <trkpt lat="-3.0868270" lon="37.3703270">
    <ele>5166.2</ele>
    <time>2026-06-23T00:28:06Z</time>
   </trkpt>
   <trkpt lat="-3.0868260" lon="37.3703250">
    <ele>5166.2</ele>
    <time>2026-06-23T00:28:07Z</time>
   </trkpt>
   <trkpt lat="-3.0868290" lon="37.3703220">
    <ele>5166.3</ele>
    <time>2026-06-23T00:28:08Z</time>
   </trkpt>
   <trkpt lat="-3.0868300" lon="37.3703200">
    <ele>5166.3</ele>
    <time>2026-06-23T00:28:09Z</time>
   </trkpt>
   <trkpt lat="-3.0868320" lon="37.3703170">
    <ele>5166.4</ele>
    <time>2026-06-23T00:28:10Z</time>
   </trkpt>
   <trkpt lat="-3.0868320" lon="37.3703150">
    <ele>5166.4</ele>
    <time>2026-06-23T00:28:11Z</time>
   </trkpt>
   <trkpt lat="-3.0868350" lon="37.3703140">
    <ele>5166.5</ele>
    <time>2026-06-23T00:28:12Z</time>
   </trkpt>
   <trkpt lat="-3.0868340" lon="37.3703100">
    <ele>5166.5</ele>
    <time>2026-06-23T00:28:13Z</time>
   </trkpt>
   <trkpt lat="-3.0868370" lon="37.3703080">
    <ele>5166.6</ele>
    <time>2026-06-23T00:28:14Z</time>
   </trkpt>
   <trkpt lat="-3.0868350" lon="37.3703040">
    <ele>5166.7</ele>
    <time>2026-06-23T00:28:15Z</time>
   </trkpt>
   <trkpt lat="-3.0868360" lon="37.3703010">
    <ele>5166.7</ele>
    <time>2026-06-23T00:28:16Z</time>
   </trkpt>
   <trkpt lat="-3.0868360" lon="37.3702990">
    <ele>5166.7</ele>
    <time>2026-06-23T00:28:17Z</time>
   </trkpt>
   <trkpt lat="-3.0868350" lon="37.3702970">
    <ele>5166.8</ele>
    <time>2026-06-23T00:28:18Z</time>
   </trkpt>
   <trkpt lat="-3.0868340" lon="37.3702940">
    <ele>5166.8</ele>
    <time>2026-06-23T00:28:19Z</time>
   </trkpt>
   <trkpt lat="-3.0868330" lon="37.3702920">
    <ele>5166.9</ele>
    <time>2026-06-23T00:28:20Z</time>
   </trkpt>
   <trkpt lat="-3.0868320" lon="37.3702910">
    <ele>5166.9</ele>
    <time>2026-06-23T00:28:21Z</time>
   </trkpt>
   <trkpt lat="-3.0868310" lon="37.3702890">
    <ele>5166.9</ele>
    <time>2026-06-23T00:28:22Z</time>
   </trkpt>
   <trkpt lat="-3.0868290" lon="37.3702870">
    <ele>5167.0</ele>
    <time>2026-06-23T00:28:23Z</time>
   </trkpt>
   <trkpt lat="-3.0868280" lon="37.3702870">
    <ele>5167.0</ele>
    <time>2026-06-23T00:28:24Z</time>
   </trkpt>
   <trkpt lat="-3.0868220" lon="37.3702870">
    <ele>5167.1</ele>
    <time>2026-06-23T00:28:25Z</time>
   </trkpt>
   <trkpt lat="-3.0868210" lon="37.3702870">
    <ele>5167.1</ele>
    <time>2026-06-23T00:28:26Z</time>
   </trkpt>
   <trkpt lat="-3.0868160" lon="37.3702860">
    <ele>5167.2</ele>
    <time>2026-06-23T00:28:27Z</time>
   </trkpt>
   <trkpt lat="-3.0868140" lon="37.3702870">
    <ele>5167.2</ele>
    <time>2026-06-23T00:28:28Z</time>
   </trkpt>
   <trkpt lat="-3.0868110" lon="37.3702860">
    <ele>5167.3</ele>
    <time>2026-06-23T00:28:29Z</time>
   </trkpt>
   <trkpt lat="-3.0868070" lon="37.3702880">
    <ele>5167.4</ele>
    <time>2026-06-23T00:28:30Z</time>
   </trkpt>
   <trkpt lat="-3.0868030" lon="37.3702880">
    <ele>5167.4</ele>
    <time>2026-06-23T00:28:31Z</time>
   </trkpt>
   <trkpt lat="-3.0868000" lon="37.3702900">
    <ele>5167.5</ele>
    <time>2026-06-23T00:28:32Z</time>
   </trkpt>
   <trkpt lat="-3.0867950" lon="37.3702910">
    <ele>5167.6</ele>
    <time>2026-06-23T00:28:33Z</time>
   </trkpt>
   <trkpt lat="-3.0867900" lon="37.3702920">
    <ele>5167.7</ele>
    <time>2026-06-23T00:28:34Z</time>
   </trkpt>
   <trkpt lat="-3.0867860" lon="37.3702890">
    <ele>5167.7</ele>
    <time>2026-06-23T00:28:35Z</time>
   </trkpt>
   <trkpt lat="-3.0867850" lon="37.3702890">
    <ele>5167.8</ele>
    <time>2026-06-23T00:28:36Z</time>
   </trkpt>
   <trkpt lat="-3.0867830" lon="37.3702870">
    <ele>5167.8</ele>
    <time>2026-06-23T00:28:37Z</time>
   </trkpt>
   <trkpt lat="-3.0867830" lon="37.3702850">
    <ele>5167.8</ele>
    <time>2026-06-23T00:28:38Z</time>
   </trkpt>
   <trkpt lat="-3.0867800" lon="37.3702820">
    <ele>5167.9</ele>
    <time>2026-06-23T00:28:39Z</time>
   </trkpt>
   <trkpt lat="-3.0867800" lon="37.3702800">
    <ele>5167.9</ele>
    <time>2026-06-23T00:28:40Z</time>
   </trkpt>
   <trkpt lat="-3.0867770" lon="37.3702780">
    <ele>5168.0</ele>
    <time>2026-06-23T00:28:41Z</time>
   </trkpt>
   <trkpt lat="-3.0867770" lon="37.3702760">
    <ele>5168.0</ele>
    <time>2026-06-23T00:28:42Z</time>
   </trkpt>
   <trkpt lat="-3.0867750" lon="37.3702750">
    <ele>5168.1</ele>
    <time>2026-06-23T00:28:43Z</time>
   </trkpt>
   <trkpt lat="-3.0867740" lon="37.3702720">
    <ele>5168.1</ele>
    <time>2026-06-23T00:28:44Z</time>
   </trkpt>
   <trkpt lat="-3.0867730" lon="37.3702710">
    <ele>5168.1</ele>
    <time>2026-06-23T00:28:45Z</time>
   </trkpt>
   <trkpt lat="-3.0867730" lon="37.3702680">
    <ele>5168.2</ele>
    <time>2026-06-23T00:28:46Z</time>
   </trkpt>
   <trkpt lat="-3.0867740" lon="37.3702640">
    <ele>5168.3</ele>
    <time>2026-06-23T00:28:47Z</time>
   </trkpt>
   <trkpt lat="-3.0867730" lon="37.3702640">
    <ele>5168.3</ele>
    <time>2026-06-23T00:28:48Z</time>
   </trkpt>
   <trkpt lat="-3.0867740" lon="37.3702590">
    <ele>5168.4</ele>
    <time>2026-06-23T00:28:49Z</time>
   </trkpt>
   <trkpt lat="-3.0867750" lon="37.3702570">
    <ele>5168.4</ele>
    <time>2026-06-23T00:28:50Z</time>
   </trkpt>
   <trkpt lat="-3.0867760" lon="37.3702530">
    <ele>5168.5</ele>
    <time>2026-06-23T00:28:51Z</time>
   </trkpt>
   <trkpt lat="-3.0867750" lon="37.3702500">
    <ele>5168.5</ele>
    <time>2026-06-23T00:28:52Z</time>
   </trkpt>
   <trkpt lat="-3.0867740" lon="37.3702470">
    <ele>5168.6</ele>
    <time>2026-06-23T00:28:53Z</time>
   </trkpt>
   <trkpt lat="-3.0867740" lon="37.3702430">
    <ele>5168.7</ele>
    <time>2026-06-23T00:28:54Z</time>
   </trkpt>
   <trkpt lat="-3.0867720" lon="37.3702400">
    <ele>5168.7</ele>
    <time>2026-06-23T00:28:55Z</time>
   </trkpt>
   <trkpt lat="-3.0867730" lon="37.3702390">
    <ele>5168.7</ele>
    <time>2026-06-23T00:28:56Z</time>
   </trkpt>
   <trkpt lat="-3.0867710" lon="37.3702370">
    <ele>5168.8</ele>
    <time>2026-06-23T00:28:57Z</time>
   </trkpt>
   <trkpt lat="-3.0867710" lon="37.3702350">
    <ele>5168.8</ele>
    <time>2026-06-23T00:28:58Z</time>
   </trkpt>
   <trkpt lat="-3.0867700" lon="37.3702320">
    <ele>5168.9</ele>
    <time>2026-06-23T00:28:59Z</time>
   </trkpt>
   <trkpt lat="-3.0867690" lon="37.3702290">
    <ele>5168.9</ele>
    <time>2026-06-23T00:29:00Z</time>
   </trkpt>
   <trkpt lat="-3.0867670" lon="37.3702270">
    <ele>5169.0</ele>
    <time>2026-06-23T00:29:01Z</time>
   </trkpt>
   <trkpt lat="-3.0867640" lon="37.3702250">
    <ele>5169.0</ele>
    <time>2026-06-23T00:29:02Z</time>
   </trkpt>
   <trkpt lat="-3.0867620" lon="37.3702240">
    <ele>5169.1</ele>
    <time>2026-06-23T00:29:03Z</time>
   </trkpt>
   <trkpt lat="-3.0867600" lon="37.3702250">
    <ele>5169.1</ele>
    <time>2026-06-23T00:29:04Z</time>
   </trkpt>
   <trkpt lat="-3.0867560" lon="37.3702250">
    <ele>5169.2</ele>
    <time>2026-06-23T00:29:05Z</time>
   </trkpt>
   <trkpt lat="-3.0867530" lon="37.3702260">
    <ele>5169.2</ele>
    <time>2026-06-23T00:29:06Z</time>
   </trkpt>
   <trkpt lat="-3.0867520" lon="37.3702250">
    <ele>5169.3</ele>
    <time>2026-06-23T00:29:07Z</time>
   </trkpt>
   <trkpt lat="-3.0867520" lon="37.3702270">
    <ele>5169.3</ele>
    <time>2026-06-23T00:29:08Z</time>
   </trkpt>
   <trkpt lat="-3.0867480" lon="37.3702260">
    <ele>5169.4</ele>
    <time>2026-06-23T00:29:09Z</time>
   </trkpt>
   <trkpt lat="-3.0867470" lon="37.3702260">
    <ele>5169.4</ele>
    <time>2026-06-23T00:29:10Z</time>
   </trkpt>
   <trkpt lat="-3.0867430" lon="37.3702260">
    <ele>5169.5</ele>
    <time>2026-06-23T00:29:11Z</time>
   </trkpt>
   <trkpt lat="-3.0867430" lon="37.3702280">
    <ele>5169.5</ele>
    <time>2026-06-23T00:29:12Z</time>
   </trkpt>
   <trkpt lat="-3.0867410" lon="37.3702260">
    <ele>5169.6</ele>
    <time>2026-06-23T00:29:13Z</time>
   </trkpt>
   <trkpt lat="-3.0867360" lon="37.3702260">
    <ele>5169.6</ele>
    <time>2026-06-23T00:29:14Z</time>
   </trkpt>
   <trkpt lat="-3.0867310" lon="37.3702260">
    <ele>5169.7</ele>
    <time>2026-06-23T00:29:15Z</time>
   </trkpt>
   <trkpt lat="-3.0867290" lon="37.3702250">
    <ele>5169.8</ele>
    <time>2026-06-23T00:29:16Z</time>
   </trkpt>
   <trkpt lat="-3.0867260" lon="37.3702260">
    <ele>5169.8</ele>
    <time>2026-06-23T00:29:17Z</time>
   </trkpt>
   <trkpt lat="-3.0867230" lon="37.3702230">
    <ele>5169.9</ele>
    <time>2026-06-23T00:29:18Z</time>
   </trkpt>
   <trkpt lat="-3.0867190" lon="37.3702240">
    <ele>5170.0</ele>
    <time>2026-06-23T00:29:19Z</time>
   </trkpt>
   <trkpt lat="-3.0867170" lon="37.3702220">
    <ele>5170.0</ele>
    <time>2026-06-23T00:29:20Z</time>
   </trkpt>
   <trkpt lat="-3.0867150" lon="37.3702210">
    <ele>5170.1</ele>
    <time>2026-06-23T00:29:21Z</time>
   </trkpt>
   <trkpt lat="-3.0867110" lon="37.3702200">
    <ele>5170.1</ele>
    <time>2026-06-23T00:29:22Z</time>
   </trkpt>
   <trkpt lat="-3.0867080" lon="37.3702190">
    <ele>5170.2</ele>
    <time>2026-06-23T00:29:23Z</time>
   </trkpt>
   <trkpt lat="-3.0867070" lon="37.3702200">
    <ele>5170.2</ele>
    <time>2026-06-23T00:29:24Z</time>
   </trkpt>
   <trkpt lat="-3.0867040" lon="37.3702190">
    <ele>5170.3</ele>
    <time>2026-06-23T00:29:25Z</time>
   </trkpt>
   <trkpt lat="-3.0867030" lon="37.3702190">
    <ele>5170.3</ele>
    <time>2026-06-23T00:29:26Z</time>
   </trkpt>
   <trkpt lat="-3.0866990" lon="37.3702170">
    <ele>5170.4</ele>
    <time>2026-06-23T00:29:27Z</time>
   </trkpt>
   <trkpt lat="-3.0866970" lon="37.3702180">
    <ele>5170.4</ele>
    <time>2026-06-23T00:29:28Z</time>
   </trkpt>
   <trkpt lat="-3.0866950" lon="37.3702150">
    <ele>5170.5</ele>
    <time>2026-06-23T00:29:29Z</time>
   </trkpt>
   <trkpt lat="-3.0866940" lon="37.3702150">
    <ele>5170.5</ele>
    <time>2026-06-23T00:29:30Z</time>
   </trkpt>
   <trkpt lat="-3.0866920" lon="37.3702140">
    <ele>5170.6</ele>
    <time>2026-06-23T00:29:31Z</time>
   </trkpt>
   <trkpt lat="-3.0866900" lon="37.3702130">
    <ele>5170.6</ele>
    <time>2026-06-23T00:29:32Z</time>
   </trkpt>
   <trkpt lat="-3.0866880" lon="37.3702110">
    <ele>5170.7</ele>
    <time>2026-06-23T00:29:33Z</time>
   </trkpt>
   <trkpt lat="-3.0866840" lon="37.3702110">
    <ele>5170.7</ele>
    <time>2026-06-23T00:29:34Z</time>
   </trkpt>
   <trkpt lat="-3.0866820" lon="37.3702090">
    <ele>5170.8</ele>
    <time>2026-06-23T00:29:35Z</time>
   </trkpt>
   <trkpt lat="-3.0866800" lon="37.3702090">
    <ele>5170.8</ele>
    <time>2026-06-23T00:29:36Z</time>
   </trkpt>
   <trkpt lat="-3.0866750" lon="37.3702060">
    <ele>5170.9</ele>
    <time>2026-06-23T00:29:37Z</time>
   </trkpt>
   <trkpt lat="-3.0866720" lon="37.3702050">
    <ele>5171.0</ele>
    <time>2026-06-23T00:29:38Z</time>
   </trkpt>
   <trkpt lat="-3.0866700" lon="37.3702030">
    <ele>5171.0</ele>
    <time>2026-06-23T00:29:39Z</time>
   </trkpt>
   <trkpt lat="-3.0866690" lon="37.3702030">
    <ele>5171.1</ele>
    <time>2026-06-23T00:29:40Z</time>
   </trkpt>
   <trkpt lat="-3.0866650" lon="37.3702020">
    <ele>5171.1</ele>
    <time>2026-06-23T00:29:41Z</time>
   </trkpt>
   <trkpt lat="-3.0866610" lon="37.3701990">
    <ele>5171.2</ele>
    <time>2026-06-23T00:29:42Z</time>
   </trkpt>
   <trkpt lat="-3.0866620" lon="37.3701990">
    <ele>5171.3</ele>
    <time>2026-06-23T00:29:43Z</time>
   </trkpt>
   <trkpt lat="-3.0866600" lon="37.3701960">
    <ele>5171.3</ele>
    <time>2026-06-23T00:29:44Z</time>
   </trkpt>
   <trkpt lat="-3.0866580" lon="37.3701960">
    <ele>5171.4</ele>
    <time>2026-06-23T00:29:45Z</time>
   </trkpt>
   <trkpt lat="-3.0866560" lon="37.3701960">
    <ele>5171.4</ele>
    <time>2026-06-23T00:29:46Z</time>
   </trkpt>
   <trkpt lat="-3.0866530" lon="37.3701950">
    <ele>5171.5</ele>
    <time>2026-06-23T00:29:47Z</time>
   </trkpt>
   <trkpt lat="-3.0866540" lon="37.3701950">
    <ele>5171.5</ele>
    <time>2026-06-23T00:29:48Z</time>
   </trkpt>
   <trkpt lat="-3.0866510" lon="37.3701970">
    <ele>5171.5</ele>
    <time>2026-06-23T00:29:49Z</time>
   </trkpt>
   <trkpt lat="-3.0866470" lon="37.3701980">
    <ele>5171.6</ele>
    <time>2026-06-23T00:29:50Z</time>
   </trkpt>
   <trkpt lat="-3.0866460" lon="37.3702000">
    <ele>5171.7</ele>
    <time>2026-06-23T00:29:51Z</time>
   </trkpt>
   <trkpt lat="-3.0866430" lon="37.3702020">
    <ele>5171.7</ele>
    <time>2026-06-23T00:29:52Z</time>
   </trkpt>
   <trkpt lat="-3.0866410" lon="37.3702030">
    <ele>5171.8</ele>
    <time>2026-06-23T00:29:53Z</time>
   </trkpt>
   <trkpt lat="-3.0866400" lon="37.3702020">
    <ele>5171.8</ele>
    <time>2026-06-23T00:29:54Z</time>
   </trkpt>
   <trkpt lat="-3.0866400" lon="37.3702020">
    <ele>5171.8</ele>
    <time>2026-06-23T00:29:55Z</time>
   </trkpt>
   <trkpt lat="-3.0866410" lon="37.3702020">
    <ele>5171.8</ele>
    <time>2026-06-23T00:29:56Z</time>
   </trkpt>
   <trkpt lat="-3.0866410" lon="37.3702020">
    <ele>5171.8</ele>
    <time>2026-06-23T00:29:57Z</time>
   </trkpt>
   <trkpt lat="-3.0866410" lon="37.3702020">
    <ele>5171.8</ele>
    <time>2026-06-23T00:29:58Z</time>
   </trkpt>
   <trkpt lat="-3.0866400" lon="37.3702020">
    <ele>5171.8</ele>
    <time>2026-06-23T00:29:59Z</time>
   </trkpt>
   <trkpt lat="-3.0866360" lon="37.3701990">
    <ele>5171.9</ele>
    <time>2026-06-23T00:30:00Z</time>
   </trkpt>
   <trkpt lat="-3.0866340" lon="37.3701970">
    <ele>5172.0</ele>
    <time>2026-06-23T00:30:01Z</time>
   </trkpt>
   <trkpt lat="-3.0866330" lon="37.3701930">
    <ele>5172.1</ele>
    <time>2026-06-23T00:30:02Z</time>
   </trkpt>
   <trkpt lat="-3.0866310" lon="37.3701920">
    <ele>5172.1</ele>
    <time>2026-06-23T00:30:03Z</time>
   </trkpt>
   <trkpt lat="-3.0866290" lon="37.3701880">
    <ele>5172.2</ele>
    <time>2026-06-23T00:30:04Z</time>
   </trkpt>
   <trkpt lat="-3.0866290" lon="37.3701850">
    <ele>5172.2</ele>
    <time>2026-06-23T00:30:05Z</time>
   </trkpt>
   <trkpt lat="-3.0866300" lon="37.3701810">
    <ele>5172.3</ele>
    <time>2026-06-23T00:30:06Z</time>
   </trkpt>
   <trkpt lat="-3.0866300" lon="37.3701780">
    <ele>5172.4</ele>
    <time>2026-06-23T00:30:07Z</time>
   </trkpt>
   <trkpt lat="-3.0866310" lon="37.3701750">
    <ele>5172.4</ele>
    <time>2026-06-23T00:30:08Z</time>
   </trkpt>
   <trkpt lat="-3.0866280" lon="37.3701720">
    <ele>5172.5</ele>
    <time>2026-06-23T00:30:09Z</time>
   </trkpt>
   <trkpt lat="-3.0866280" lon="37.3701680">
    <ele>5172.6</ele>
    <time>2026-06-23T00:30:10Z</time>
   </trkpt>
   <trkpt lat="-3.0866270" lon="37.3701650">
    <ele>5172.7</ele>
    <time>2026-06-23T00:30:11Z</time>
   </trkpt>
   <trkpt lat="-3.0866260" lon="37.3701610">
    <ele>5172.7</ele>
    <time>2026-06-23T00:30:12Z</time>
   </trkpt>
   <trkpt lat="-3.0866240" lon="37.3701590">
    <ele>5172.8</ele>
    <time>2026-06-23T00:30:13Z</time>
   </trkpt>
   <trkpt lat="-3.0866240" lon="37.3701580">
    <ele>5172.8</ele>
    <time>2026-06-23T00:30:14Z</time>
   </trkpt>
   <trkpt lat="-3.0866220" lon="37.3701590">
    <ele>5172.8</ele>
    <time>2026-06-23T00:30:15Z</time>
   </trkpt>
   <trkpt lat="-3.0866230" lon="37.3701580">
    <ele>5172.9</ele>
    <time>2026-06-23T00:30:16Z</time>
   </trkpt>
   <trkpt lat="-3.0866220" lon="37.3701580">
    <ele>5172.9</ele>
    <time>2026-06-23T00:30:17Z</time>
   </trkpt>
   <trkpt lat="-3.0866200" lon="37.3701590">
    <ele>5172.9</ele>
    <time>2026-06-23T00:30:18Z</time>
   </trkpt>
   <trkpt lat="-3.0866160" lon="37.3701580">
    <ele>5173.0</ele>
    <time>2026-06-23T00:30:19Z</time>
   </trkpt>
   <trkpt lat="-3.0866140" lon="37.3701580">
    <ele>5173.1</ele>
    <time>2026-06-23T00:30:20Z</time>
   </trkpt>
   <trkpt lat="-3.0866110" lon="37.3701570">
    <ele>5173.1</ele>
    <time>2026-06-23T00:30:21Z</time>
   </trkpt>
   <trkpt lat="-3.0866110" lon="37.3701570">
    <ele>5173.1</ele>
    <time>2026-06-23T00:30:22Z</time>
   </trkpt>
   <trkpt lat="-3.0866090" lon="37.3701550">
    <ele>5173.2</ele>
    <time>2026-06-23T00:30:23Z</time>
   </trkpt>
   <trkpt lat="-3.0866080" lon="37.3701530">
    <ele>5173.2</ele>
    <time>2026-06-23T00:30:24Z</time>
   </trkpt>
   <trkpt lat="-3.0866070" lon="37.3701510">
    <ele>5173.3</ele>
    <time>2026-06-23T00:30:25Z</time>
   </trkpt>
   <trkpt lat="-3.0866060" lon="37.3701490">
    <ele>5173.3</ele>
    <time>2026-06-23T00:30:26Z</time>
   </trkpt>
   <trkpt lat="-3.0866040" lon="37.3701470">
    <ele>5173.4</ele>
    <time>2026-06-23T00:30:27Z</time>
   </trkpt>
   <trkpt lat="-3.0866040" lon="37.3701440">
    <ele>5173.4</ele>
    <time>2026-06-23T00:30:28Z</time>
   </trkpt>
   <trkpt lat="-3.0866050" lon="37.3701420">
    <ele>5173.5</ele>
    <time>2026-06-23T00:30:29Z</time>
   </trkpt>
   <trkpt lat="-3.0866050" lon="37.3701410">
    <ele>5173.5</ele>
    <time>2026-06-23T00:30:30Z</time>
   </trkpt>
   <trkpt lat="-3.0866060" lon="37.3701420">
    <ele>5173.5</ele>
    <time>2026-06-23T00:30:31Z</time>
   </trkpt>
   <trkpt lat="-3.0866070" lon="37.3701430">
    <ele>5173.5</ele>
    <time>2026-06-23T00:30:32Z</time>
   </trkpt>
   <trkpt lat="-3.0866060" lon="37.3701440">
    <ele>5173.6</ele>
    <time>2026-06-23T00:30:33Z</time>
   </trkpt>
   <trkpt lat="-3.0866050" lon="37.3701450">
    <ele>5173.6</ele>
    <time>2026-06-23T00:30:34Z</time>
   </trkpt>
   <trkpt lat="-3.0866050" lon="37.3701440">
    <ele>5173.6</ele>
    <time>2026-06-23T00:30:35Z</time>
   </trkpt>
   <trkpt lat="-3.0866060" lon="37.3701440">
    <ele>5173.6</ele>
    <time>2026-06-23T00:30:36Z</time>
   </trkpt>
   <trkpt lat="-3.0866060" lon="37.3701440">
    <ele>5173.6</ele>
    <time>2026-06-23T00:30:37Z</time>
   </trkpt>
   <trkpt lat="-3.0866060" lon="37.3701440">
    <ele>5173.6</ele>
    <time>2026-06-23T00:30:38Z</time>
   </trkpt>
   <trkpt lat="-3.0866050" lon="37.3701450">
    <ele>5173.6</ele>
    <time>2026-06-23T00:30:39Z</time>
   </trkpt>
   <trkpt lat="-3.0866040" lon="37.3701460">
    <ele>5173.7</ele>
    <time>2026-06-23T00:30:40Z</time>
   </trkpt>
   <trkpt lat="-3.0866020" lon="37.3701450">
    <ele>5173.7</ele>
    <time>2026-06-23T00:30:41Z</time>
   </trkpt>
   <trkpt lat="-3.0865980" lon="37.3701440">
    <ele>5173.8</ele>
    <time>2026-06-23T00:30:42Z</time>
   </trkpt>
   <trkpt lat="-3.0865950" lon="37.3701430">
    <ele>5173.9</ele>
    <time>2026-06-23T00:30:43Z</time>
   </trkpt>
   <trkpt lat="-3.0865920" lon="37.3701410">
    <ele>5173.9</ele>
    <time>2026-06-23T00:30:44Z</time>
   </trkpt>
   <trkpt lat="-3.0865910" lon="37.3701390">
    <ele>5174.0</ele>
    <time>2026-06-23T00:30:45Z</time>
   </trkpt>
   <trkpt lat="-3.0865880" lon="37.3701370">
    <ele>5174.0</ele>
    <time>2026-06-23T00:30:46Z</time>
   </trkpt>
   <trkpt lat="-3.0865870" lon="37.3701340">
    <ele>5174.1</ele>
    <time>2026-06-23T00:30:47Z</time>
   </trkpt>
   <trkpt lat="-3.0865870" lon="37.3701340">
    <ele>5174.1</ele>
    <time>2026-06-23T00:30:48Z</time>
   </trkpt>
   <trkpt lat="-3.0865850" lon="37.3701340">
    <ele>5174.1</ele>
    <time>2026-06-23T00:30:49Z</time>
   </trkpt>
   <trkpt lat="-3.0865810" lon="37.3701310">
    <ele>5174.2</ele>
    <time>2026-06-23T00:30:50Z</time>
   </trkpt>
   <trkpt lat="-3.0865810" lon="37.3701310">
    <ele>5174.2</ele>
    <time>2026-06-23T00:30:51Z</time>
   </trkpt>
   <trkpt lat="-3.0865780" lon="37.3701300">
    <ele>5174.3</ele>
    <time>2026-06-23T00:30:52Z</time>
   </trkpt>
   <trkpt lat="-3.0865750" lon="37.3701260">
    <ele>5174.4</ele>
    <time>2026-06-23T00:30:53Z</time>
   </trkpt>
   <trkpt lat="-3.0865740" lon="37.3701230">
    <ele>5174.5</ele>
    <time>2026-06-23T00:30:54Z</time>
   </trkpt>
   <trkpt lat="-3.0865740" lon="37.3701210">
    <ele>5174.5</ele>
    <time>2026-06-23T00:30:55Z</time>
   </trkpt>
   <trkpt lat="-3.0865740" lon="37.3701180">
    <ele>5174.6</ele>
    <time>2026-06-23T00:30:56Z</time>
   </trkpt>
   <trkpt lat="-3.0865750" lon="37.3701180">
    <ele>5174.6</ele>
    <time>2026-06-23T00:30:57Z</time>
   </trkpt>
   <trkpt lat="-3.0865760" lon="37.3701180">
    <ele>5174.6</ele>
    <time>2026-06-23T00:30:58Z</time>
   </trkpt>
   <trkpt lat="-3.0865750" lon="37.3701170">
    <ele>5174.6</ele>
    <time>2026-06-23T00:30:59Z</time>
   </trkpt>
   <trkpt lat="-3.0865760" lon="37.3701140">
    <ele>5174.7</ele>
    <time>2026-06-23T00:31:00Z</time>
   </trkpt>
   <trkpt lat="-3.0865770" lon="37.3701130">
    <ele>5174.7</ele>
    <time>2026-06-23T00:31:01Z</time>
   </trkpt>
   <trkpt lat="-3.0865770" lon="37.3701130">
    <ele>5174.7</ele>
    <time>2026-06-23T00:31:02Z</time>
   </trkpt>
   <trkpt lat="-3.0865780" lon="37.3701110">
    <ele>5174.8</ele>
    <time>2026-06-23T00:31:03Z</time>
   </trkpt>
   <trkpt lat="-3.0865770" lon="37.3701090">
    <ele>5174.8</ele>
    <time>2026-06-23T00:31:04Z</time>
   </trkpt>
   <trkpt lat="-3.0865780" lon="37.3701070">
    <ele>5174.8</ele>
    <time>2026-06-23T00:31:05Z</time>
   </trkpt>
   <trkpt lat="-3.0865760" lon="37.3701050">
    <ele>5174.9</ele>
    <time>2026-06-23T00:31:06Z</time>
   </trkpt>
   <trkpt lat="-3.0865790" lon="37.3701020">
    <ele>5175.0</ele>
    <time>2026-06-23T00:31:07Z</time>
   </trkpt>
   <trkpt lat="-3.0865790" lon="37.3701000">
    <ele>5175.0</ele>
    <time>2026-06-23T00:31:08Z</time>
   </trkpt>
   <trkpt lat="-3.0865810" lon="37.3701000">
    <ele>5175.1</ele>
    <time>2026-06-23T00:31:09Z</time>
   </trkpt>
   <trkpt lat="-3.0865800" lon="37.3701000">
    <ele>5175.1</ele>
    <time>2026-06-23T00:31:10Z</time>
   </trkpt>
   <trkpt lat="-3.0865800" lon="37.3701000">
    <ele>5175.1</ele>
    <time>2026-06-23T00:31:11Z</time>
   </trkpt>
   <trkpt lat="-3.0865810" lon="37.3700990">
    <ele>5175.1</ele>
    <time>2026-06-23T00:31:12Z</time>
   </trkpt>
   <trkpt lat="-3.0865800" lon="37.3701000">
    <ele>5175.1</ele>
    <time>2026-06-23T00:31:13Z</time>
   </trkpt>
   <trkpt lat="-3.0865800" lon="37.3700980">
    <ele>5175.2</ele>
    <time>2026-06-23T00:31:14Z</time>
   </trkpt>
   <trkpt lat="-3.0865800" lon="37.3700990">
    <ele>5175.2</ele>
    <time>2026-06-23T00:31:15Z</time>
   </trkpt>
   <trkpt lat="-3.0865800" lon="37.3700980">
    <ele>5175.2</ele>
    <time>2026-06-23T00:31:16Z</time>
   </trkpt>
   <trkpt lat="-3.0865800" lon="37.3700980">
    <ele>5175.2</ele>
    <time>2026-06-23T00:31:17Z</time>
   </trkpt>
   <trkpt lat="-3.0865810" lon="37.3700980">
    <ele>5175.2</ele>
    <time>2026-06-23T00:31:18Z</time>
   </trkpt>
   <trkpt lat="-3.0865810" lon="37.3700970">
    <ele>5175.2</ele>
    <time>2026-06-23T00:31:19Z</time>
   </trkpt>
   <trkpt lat="-3.0865810" lon="37.3700970">
    <ele>5175.2</ele>
    <time>2026-06-23T00:31:20Z</time>
   </trkpt>
   <trkpt lat="-3.0865810" lon="37.3700960">
    <ele>5175.3</ele>
    <time>2026-06-23T00:31:21Z</time>
   </trkpt>
   <trkpt lat="-3.0865810" lon="37.3700960">
    <ele>5175.3</ele>
    <time>2026-06-23T00:31:22Z</time>
   </trkpt>
   <trkpt lat="-3.0865810" lon="37.3700960">
    <ele>5175.3</ele>
    <time>2026-06-23T00:31:23Z</time>
   </trkpt>
   <trkpt lat="-3.0865810" lon="37.3700960">
    <ele>5175.3</ele>
    <time>2026-06-23T00:31:24Z</time>
   </trkpt>
   <trkpt lat="-3.0865810" lon="37.3700960">
    <ele>5175.3</ele>
    <time>2026-06-23T00:31:25Z</time>
   </trkpt>
   <trkpt lat="-3.0865810" lon="37.3700960">
    <ele>5175.3</ele>
    <time>2026-06-23T00:31:26Z</time>
   </trkpt>
   <trkpt lat="-3.0865820" lon="37.3700960">
    <ele>5175.3</ele>
    <time>2026-06-23T00:31:27Z</time>
   </trkpt>
   <trkpt lat="-3.0865830" lon="37.3700960">
    <ele>5175.3</ele>
    <time>2026-06-23T00:31:28Z</time>
   </trkpt>
   <trkpt lat="-3.0865830" lon="37.3700960">
    <ele>5175.3</ele>
    <time>2026-06-23T00:31:29Z</time>
   </trkpt>
   <trkpt lat="-3.0865810" lon="37.3700950">
    <ele>5175.4</ele>
    <time>2026-06-23T00:31:30Z</time>
   </trkpt>
   <trkpt lat="-3.0865820" lon="37.3700950">
    <ele>5175.4</ele>
    <time>2026-06-23T00:31:31Z</time>
   </trkpt>
   <trkpt lat="-3.0865830" lon="37.3700940">
    <ele>5175.4</ele>
    <time>2026-06-23T00:31:32Z</time>
   </trkpt>
   <trkpt lat="-3.0865820" lon="37.3700950">
    <ele>5175.4</ele>
    <time>2026-06-23T00:31:33Z</time>
   </trkpt>
   <trkpt lat="-3.0865780" lon="37.3700930">
    <ele>5175.5</ele>
    <time>2026-06-23T00:31:34Z</time>
   </trkpt>
   <trkpt lat="-3.0865780" lon="37.3700920">
    <ele>5175.5</ele>
    <time>2026-06-23T00:31:35Z</time>
   </trkpt>
   <trkpt lat="-3.0865780" lon="37.3700910">
    <ele>5175.6</ele>
    <time>2026-06-23T00:31:36Z</time>
   </trkpt>
   <trkpt lat="-3.0865780" lon="37.3700910">
    <ele>5175.6</ele>
    <time>2026-06-23T00:31:37Z</time>
   </trkpt>
   <trkpt lat="-3.0865780" lon="37.3700920">
    <ele>5175.6</ele>
    <time>2026-06-23T00:31:38Z</time>
   </trkpt>
   <trkpt lat="-3.0865780" lon="37.3700920">
    <ele>5175.6</ele>
    <time>2026-06-23T00:31:39Z</time>
   </trkpt>
   <trkpt lat="-3.0865780" lon="37.3700930">
    <ele>5175.6</ele>
    <time>2026-06-23T00:31:40Z</time>
   </trkpt>
   <trkpt lat="-3.0865790" lon="37.3700930">
    <ele>5175.6</ele>
    <time>2026-06-23T00:31:41Z</time>
   </trkpt>
   <trkpt lat="-3.0865770" lon="37.3700940">
    <ele>5175.7</ele>
    <time>2026-06-23T00:31:42Z</time>
   </trkpt>
   <trkpt lat="-3.0865780" lon="37.3700950">
    <ele>5175.7</ele>
    <time>2026-06-23T00:31:43Z</time>
   </trkpt>
   <trkpt lat="-3.0865780" lon="37.3700950">
    <ele>5175.7</ele>
    <time>2026-06-23T00:31:44Z</time>
   </trkpt>
   <trkpt lat="-3.0865780" lon="37.3700960">
    <ele>5175.7</ele>
    <time>2026-06-23T00:31:45Z</time>
   </trkpt>
   <trkpt lat="-3.0865780" lon="37.3700960">
    <ele>5175.7</ele>
    <time>2026-06-23T00:31:46Z</time>
   </trkpt>
   <trkpt lat="-3.0865790" lon="37.3700980">
    <ele>5175.7</ele>
    <time>2026-06-23T00:31:47Z</time>
   </trkpt>
   <trkpt lat="-3.0865790" lon="37.3700980">
    <ele>5175.7</ele>
    <time>2026-06-23T00:31:48Z</time>
   </trkpt>
   <trkpt lat="-3.0865790" lon="37.3700980">
    <ele>5175.7</ele>
    <time>2026-06-23T00:31:49Z</time>
   </trkpt>
   <trkpt lat="-3.0865790" lon="37.3700970">
    <ele>5175.8</ele>
    <time>2026-06-23T00:31:50Z</time>
   </trkpt>
   <trkpt lat="-3.0865770" lon="37.3700980">
    <ele>5175.8</ele>
    <time>2026-06-23T00:31:51Z</time>
   </trkpt>
   <trkpt lat="-3.0865800" lon="37.3700960">
    <ele>5175.9</ele>
    <time>2026-06-23T00:31:52Z</time>
   </trkpt>
   <trkpt lat="-3.0865770" lon="37.3700970">
    <ele>5175.9</ele>
    <time>2026-06-23T00:31:53Z</time>
   </trkpt>
   <trkpt lat="-3.0865780" lon="37.3700960">
    <ele>5176.0</ele>
    <time>2026-06-23T00:31:54Z</time>
   </trkpt>
   <trkpt lat="-3.0865780" lon="37.3700970">
    <ele>5176.0</ele>
    <time>2026-06-23T00:31:55Z</time>
   </trkpt>
   <trkpt lat="-3.0865780" lon="37.3700970">
    <ele>5176.0</ele>
    <time>2026-06-23T00:31:56Z</time>
   </trkpt>
   <trkpt lat="-3.0865790" lon="37.3700960">
    <ele>5176.0</ele>
    <time>2026-06-23T00:31:57Z</time>
   </trkpt>
   <trkpt lat="-3.0865790" lon="37.3700960">
    <ele>5176.0</ele>
    <time>2026-06-23T00:31:58Z</time>
   </trkpt>
   <trkpt lat="-3.0865790" lon="37.3700960">
    <ele>5176.0</ele>
    <time>2026-06-23T00:31:59Z</time>
   </trkpt>
   <trkpt lat="-3.0865780" lon="37.3700960">
    <ele>5176.0</ele>
    <time>2026-06-23T00:32:00Z</time>
   </trkpt>
   <trkpt lat="-3.0865780" lon="37.3700960">
    <ele>5176.0</ele>
    <time>2026-06-23T00:32:01Z</time>
   </trkpt>
   <trkpt lat="-3.0865780" lon="37.3700950">
    <ele>5176.0</ele>
    <time>2026-06-23T00:32:02Z</time>
   </trkpt>
   <trkpt lat="-3.0865780" lon="37.3700950">
    <ele>5176.0</ele>
    <time>2026-06-23T00:32:03Z</time>
   </trkpt>
   <trkpt lat="-3.0865780" lon="37.3700950">
    <ele>5176.0</ele>
    <time>2026-06-23T00:32:04Z</time>
   </trkpt>
   <trkpt lat="-3.0865770" lon="37.3700940">
    <ele>5176.1</ele>
    <time>2026-06-23T00:32:05Z</time>
   </trkpt>
   <trkpt lat="-3.0865780" lon="37.3700940">
    <ele>5176.1</ele>
    <time>2026-06-23T00:32:06Z</time>
   </trkpt>
   <trkpt lat="-3.0865780" lon="37.3700920">
    <ele>5176.1</ele>
    <time>2026-06-23T00:32:07Z</time>
   </trkpt>
   <trkpt lat="-3.0865770" lon="37.3700920">
    <ele>5176.2</ele>
    <time>2026-06-23T00:32:08Z</time>
   </trkpt>
   <trkpt lat="-3.0865780" lon="37.3700910">
    <ele>5176.2</ele>
    <time>2026-06-23T00:32:09Z</time>
   </trkpt>
   <trkpt lat="-3.0865770" lon="37.3700920">
    <ele>5176.2</ele>
    <time>2026-06-23T00:32:10Z</time>
   </trkpt>
   <trkpt lat="-3.0865770" lon="37.3700920">
    <ele>5176.2</ele>
    <time>2026-06-23T00:32:11Z</time>
   </trkpt>
   <trkpt lat="-3.0865780" lon="37.3700910">
    <ele>5176.2</ele>
    <time>2026-06-23T00:32:12Z</time>
   </trkpt>
   <trkpt lat="-3.0865780" lon="37.3700920">
    <ele>5176.3</ele>
    <time>2026-06-23T00:32:13Z</time>
   </trkpt>
   <trkpt lat="-3.0865780" lon="37.3700920">
    <ele>5176.3</ele>
    <time>2026-06-23T00:32:14Z</time>
   </trkpt>
   <trkpt lat="-3.0865790" lon="37.3700920">
    <ele>5176.3</ele>
    <time>2026-06-23T00:32:15Z</time>
   </trkpt>
   <trkpt lat="-3.0865790" lon="37.3700930">
    <ele>5176.3</ele>
    <time>2026-06-23T00:32:16Z</time>
   </trkpt>
   <trkpt lat="-3.0865800" lon="37.3700920">
    <ele>5176.3</ele>
    <time>2026-06-23T00:32:17Z</time>
   </trkpt>
   <trkpt lat="-3.0865800" lon="37.3700930">
    <ele>5176.3</ele>
    <time>2026-06-23T00:32:18Z</time>
   </trkpt>
   <trkpt lat="-3.0865800" lon="37.3700920">
    <ele>5176.4</ele>
    <time>2026-06-23T00:32:19Z</time>
   </trkpt>
   <trkpt lat="-3.0865790" lon="37.3700930">
    <ele>5176.4</ele>
    <time>2026-06-23T00:32:20Z</time>
   </trkpt>
   <trkpt lat="-3.0865790" lon="37.3700930">
    <ele>5176.4</ele>
    <time>2026-06-23T00:32:21Z</time>
   </trkpt>
   <trkpt lat="-3.0865800" lon="37.3700930">
    <ele>5176.4</ele>
    <time>2026-06-23T00:32:22Z</time>
   </trkpt>
   <trkpt lat="-3.0865800" lon="37.3700930">
    <ele>5176.4</ele>
    <time>2026-06-23T00:32:23Z</time>
   </trkpt>
   <trkpt lat="-3.0865800" lon="37.3700940">
    <ele>5176.4</ele>
    <time>2026-06-23T00:32:24Z</time>
   </trkpt>
   <trkpt lat="-3.0865800" lon="37.3700940">
    <ele>5176.4</ele>
    <time>2026-06-23T00:32:25Z</time>
   </trkpt>
   <trkpt lat="-3.0865800" lon="37.3700940">
    <ele>5176.4</ele>
    <time>2026-06-23T00:32:26Z</time>
   </trkpt>
   <trkpt lat="-3.0865800" lon="37.3700940">
    <ele>5176.4</ele>
    <time>2026-06-23T00:32:27Z</time>
   </trkpt>
   <trkpt lat="-3.0865800" lon="37.3700940">
    <ele>5176.4</ele>
    <time>2026-06-23T00:32:28Z</time>
   </trkpt>
   <trkpt lat="-3.0865800" lon="37.3700930">
    <ele>5176.4</ele>
    <time>2026-06-23T00:32:29Z</time>
   </trkpt>
   <trkpt lat="-3.0865800" lon="37.3700930">
    <ele>5176.4</ele>
    <time>2026-06-23T00:32:30Z</time>
   </trkpt>
   <trkpt lat="-3.0865800" lon="37.3700930">
    <ele>5176.4</ele>
    <time>2026-06-23T00:32:31Z</time>
   </trkpt>
   <trkpt lat="-3.0865800" lon="37.3700940">
    <ele>5176.5</ele>
    <time>2026-06-23T00:32:32Z</time>
   </trkpt>
   <trkpt lat="-3.0865810" lon="37.3700940">
    <ele>5176.5</ele>
    <time>2026-06-23T00:32:33Z</time>
   </trkpt>
   <trkpt lat="-3.0865800" lon="37.3700940">
    <ele>5176.5</ele>
    <time>2026-06-23T00:32:34Z</time>
   </trkpt>
   <trkpt lat="-3.0865780" lon="37.3700930">
    <ele>5176.5</ele>
    <time>2026-06-23T00:32:35Z</time>
   </trkpt>
   <trkpt lat="-3.0865780" lon="37.3700940">
    <ele>5176.6</ele>
    <time>2026-06-23T00:32:36Z</time>
   </trkpt>
   <trkpt lat="-3.0865780" lon="37.3700930">
    <ele>5176.6</ele>
    <time>2026-06-23T00:32:37Z</time>
   </trkpt>
   <trkpt lat="-3.0865770" lon="37.3700930">
    <ele>5176.6</ele>
    <time>2026-06-23T00:32:38Z</time>
   </trkpt>
   <trkpt lat="-3.0865770" lon="37.3700930">
    <ele>5176.6</ele>
    <time>2026-06-23T00:32:39Z</time>
   </trkpt>
   <trkpt lat="-3.0865770" lon="37.3700930">
    <ele>5176.6</ele>
    <time>2026-06-23T00:32:40Z</time>
   </trkpt>
   <trkpt lat="-3.0865780" lon="37.3700930">
    <ele>5176.6</ele>
    <time>2026-06-23T00:32:41Z</time>
   </trkpt>
   <trkpt lat="-3.0865780" lon="37.3700920">
    <ele>5176.6</ele>
    <time>2026-06-23T00:32:42Z</time>
   </trkpt>
   <trkpt lat="-3.0865770" lon="37.3700920">
    <ele>5176.7</ele>
    <time>2026-06-23T00:32:43Z</time>
   </trkpt>
   <trkpt lat="-3.0865770" lon="37.3700930">
    <ele>5176.7</ele>
    <time>2026-06-23T00:32:44Z</time>
   </trkpt>
   <trkpt lat="-3.0865770" lon="37.3700930">
    <ele>5176.7</ele>
    <time>2026-06-23T00:32:45Z</time>
   </trkpt>
   <trkpt lat="-3.0865770" lon="37.3700930">
    <ele>5176.7</ele>
    <time>2026-06-23T00:32:46Z</time>
   </trkpt>
   <trkpt lat="-3.0865760" lon="37.3700930">
    <ele>5176.7</ele>
    <time>2026-06-23T00:32:47Z</time>
   </trkpt>
   <trkpt lat="-3.0865760" lon="37.3700930">
    <ele>5176.7</ele>
    <time>2026-06-23T00:32:48Z</time>
   </trkpt>
   <trkpt lat="-3.0865760" lon="37.3700930">
    <ele>5176.7</ele>
    <time>2026-06-23T00:32:49Z</time>
   </trkpt>
   <trkpt lat="-3.0865760" lon="37.3700930">
    <ele>5176.7</ele>
    <time>2026-06-23T00:32:50Z</time>
   </trkpt>
   <trkpt lat="-3.0865750" lon="37.3700920">
    <ele>5176.7</ele>
    <time>2026-06-23T00:32:51Z</time>
   </trkpt>
   <trkpt lat="-3.0865760" lon="37.3700920">
    <ele>5176.8</ele>
    <time>2026-06-23T00:32:52Z</time>
   </trkpt>
   <trkpt lat="-3.0865760" lon="37.3700910">
    <ele>5176.8</ele>
    <time>2026-06-23T00:32:53Z</time>
   </trkpt>
   <trkpt lat="-3.0865750" lon="37.3700910">
    <ele>5176.8</ele>
    <time>2026-06-23T00:32:54Z</time>
   </trkpt>
   <trkpt lat="-3.0865750" lon="37.3700920">
    <ele>5176.8</ele>
    <time>2026-06-23T00:32:55Z</time>
   </trkpt>
   <trkpt lat="-3.0865760" lon="37.3700920">
    <ele>5176.8</ele>
    <time>2026-06-23T00:32:56Z</time>
   </trkpt>
   <trkpt lat="-3.0865760" lon="37.3700920">
    <ele>5176.8</ele>
    <time>2026-06-23T00:32:57Z</time>
   </trkpt>
   <trkpt lat="-3.0865730" lon="37.3700900">
    <ele>5176.9</ele>
    <time>2026-06-23T00:32:58Z</time>
   </trkpt>
   <trkpt lat="-3.0865730" lon="37.3700890">
    <ele>5176.9</ele>
    <time>2026-06-23T00:32:59Z</time>
   </trkpt>
   <trkpt lat="-3.0865730" lon="37.3700890">
    <ele>5176.9</ele>
    <time>2026-06-23T00:33:00Z</time>
   </trkpt>
   <trkpt lat="-3.0865730" lon="37.3700890">
    <ele>5176.9</ele>
    <time>2026-06-23T00:33:01Z</time>
   </trkpt>
   <trkpt lat="-3.0865730" lon="37.3700890">
    <ele>5176.9</ele>
    <time>2026-06-23T00:33:02Z</time>
   </trkpt>
   <trkpt lat="-3.0865730" lon="37.3700890">
    <ele>5176.9</ele>
    <time>2026-06-23T00:33:03Z</time>
   </trkpt>
   <trkpt lat="-3.0865730" lon="37.3700880">
    <ele>5176.9</ele>
    <time>2026-06-23T00:33:04Z</time>
   </trkpt>
   <trkpt lat="-3.0865730" lon="37.3700880">
    <ele>5176.9</ele>
    <time>2026-06-23T00:33:05Z</time>
   </trkpt>
   <trkpt lat="-3.0865730" lon="37.3700880">
    <ele>5176.9</ele>
    <time>2026-06-23T00:33:06Z</time>
   </trkpt>
   <trkpt lat="-3.0865730" lon="37.3700880">
    <ele>5176.9</ele>
    <time>2026-06-23T00:33:07Z</time>
   </trkpt>
   <trkpt lat="-3.0865720" lon="37.3700890">
    <ele>5177.0</ele>
    <time>2026-06-23T00:33:08Z</time>
   </trkpt>
   <trkpt lat="-3.0865730" lon="37.3700890">
    <ele>5177.0</ele>
    <time>2026-06-23T00:33:09Z</time>
   </trkpt>
   <trkpt lat="-3.0865730" lon="37.3700900">
    <ele>5177.0</ele>
    <time>2026-06-23T00:33:10Z</time>
   </trkpt>
   <trkpt lat="-3.0865740" lon="37.3700910">
    <ele>5177.0</ele>
    <time>2026-06-23T00:33:11Z</time>
   </trkpt>
   <trkpt lat="-3.0865750" lon="37.3700910">
    <ele>5177.1</ele>
    <time>2026-06-23T00:33:12Z</time>
   </trkpt>
   <trkpt lat="-3.0865750" lon="37.3700910">
    <ele>5177.1</ele>
    <time>2026-06-23T00:33:13Z</time>
   </trkpt>
   <trkpt lat="-3.0865770" lon="37.3700920">
    <ele>5177.1</ele>
    <time>2026-06-23T00:33:14Z</time>
   </trkpt>
   <trkpt lat="-3.0865770" lon="37.3700920">
    <ele>5177.1</ele>
    <time>2026-06-23T00:33:15Z</time>
   </trkpt>
   <trkpt lat="-3.0865770" lon="37.3700930">
    <ele>5177.1</ele>
    <time>2026-06-23T00:33:16Z</time>
   </trkpt>
   <trkpt lat="-3.0865780" lon="37.3700940">
    <ele>5177.1</ele>
    <time>2026-06-23T00:33:17Z</time>
   </trkpt>
   <trkpt lat="-3.0865780" lon="37.3700940">
    <ele>5177.1</ele>
    <time>2026-06-23T00:33:18Z</time>
   </trkpt>
   <trkpt lat="-3.0865790" lon="37.3700950">
    <ele>5177.2</ele>
    <time>2026-06-23T00:33:19Z</time>
   </trkpt>
   <trkpt lat="-3.0865790" lon="37.3700950">
    <ele>5177.2</ele>
    <time>2026-06-23T00:33:20Z</time>
   </trkpt>
   <trkpt lat="-3.0865790" lon="37.3700950">
    <ele>5177.2</ele>
    <time>2026-06-23T00:33:21Z</time>
   </trkpt>
   <trkpt lat="-3.0865800" lon="37.3700960">
    <ele>5177.2</ele>
    <time>2026-06-23T00:33:22Z</time>
   </trkpt>
   <trkpt lat="-3.0865800" lon="37.3700960">
    <ele>5177.2</ele>
    <time>2026-06-23T00:33:23Z</time>
   </trkpt>
   <trkpt lat="-3.0865790" lon="37.3700960">
    <ele>5177.2</ele>
    <time>2026-06-23T00:33:24Z</time>
   </trkpt>
   <trkpt lat="-3.0865770" lon="37.3700970">
    <ele>5177.3</ele>
    <time>2026-06-23T00:33:25Z</time>
   </trkpt>
   <trkpt lat="-3.0865770" lon="37.3700970">
    <ele>5177.3</ele>
    <time>2026-06-23T00:33:26Z</time>
   </trkpt>
   <trkpt lat="-3.0865750" lon="37.3700970">
    <ele>5177.3</ele>
    <time>2026-06-23T00:33:27Z</time>
   </trkpt>
   <trkpt lat="-3.0865740" lon="37.3700980">
    <ele>5177.3</ele>
    <time>2026-06-23T00:33:28Z</time>
   </trkpt>
   <trkpt lat="-3.0865730" lon="37.3701010">
    <ele>5177.4</ele>
    <time>2026-06-23T00:33:29Z</time>
   </trkpt>
   <trkpt lat="-3.0865720" lon="37.3701010">
    <ele>5177.4</ele>
    <time>2026-06-23T00:33:30Z</time>
   </trkpt>
   <trkpt lat="-3.0865690" lon="37.3700990">
    <ele>5177.5</ele>
    <time>2026-06-23T00:33:31Z</time>
   </trkpt>
   <trkpt lat="-3.0865690" lon="37.3700990">
    <ele>5177.5</ele>
    <time>2026-06-23T00:33:32Z</time>
   </trkpt>
   <trkpt lat="-3.0865700" lon="37.3700990">
    <ele>5177.5</ele>
    <time>2026-06-23T00:33:33Z</time>
   </trkpt>
   <trkpt lat="-3.0865690" lon="37.3701000">
    <ele>5177.5</ele>
    <time>2026-06-23T00:33:34Z</time>
   </trkpt>
   <trkpt lat="-3.0865690" lon="37.3701000">
    <ele>5177.5</ele>
    <time>2026-06-23T00:33:35Z</time>
   </trkpt>
   <trkpt lat="-3.0865690" lon="37.3701000">
    <ele>5177.5</ele>
    <time>2026-06-23T00:33:36Z</time>
   </trkpt>
   <trkpt lat="-3.0865690" lon="37.3701000">
    <ele>5177.5</ele>
    <time>2026-06-23T00:33:37Z</time>
   </trkpt>
   <trkpt lat="-3.0865690" lon="37.3701000">
    <ele>5177.5</ele>
    <time>2026-06-23T00:33:38Z</time>
   </trkpt>
   <trkpt lat="-3.0865680" lon="37.3701000">
    <ele>5177.5</ele>
    <time>2026-06-23T00:33:39Z</time>
   </trkpt>
   <trkpt lat="-3.0865680" lon="37.3701000">
    <ele>5177.5</ele>
    <time>2026-06-23T00:33:40Z</time>
   </trkpt>
   <trkpt lat="-3.0865670" lon="37.3701000">
    <ele>5177.6</ele>
    <time>2026-06-23T00:33:41Z</time>
   </trkpt>
   <trkpt lat="-3.0865670" lon="37.3700980">
    <ele>5177.6</ele>
    <time>2026-06-23T00:33:42Z</time>
   </trkpt>
   <trkpt lat="-3.0865660" lon="37.3700980">
    <ele>5177.6</ele>
    <time>2026-06-23T00:33:43Z</time>
   </trkpt>
   <trkpt lat="-3.0865650" lon="37.3700980">
    <ele>5177.6</ele>
    <time>2026-06-23T00:33:44Z</time>
   </trkpt>
   <trkpt lat="-3.0865650" lon="37.3700960">
    <ele>5177.7</ele>
    <time>2026-06-23T00:33:45Z</time>
   </trkpt>
   <trkpt lat="-3.0865640" lon="37.3700980">
    <ele>5177.7</ele>
    <time>2026-06-23T00:33:46Z</time>
   </trkpt>
   <trkpt lat="-3.0865650" lon="37.3700980">
    <ele>5177.7</ele>
    <time>2026-06-23T00:33:47Z</time>
   </trkpt>
   <trkpt lat="-3.0865650" lon="37.3700990">
    <ele>5177.8</ele>
    <time>2026-06-23T00:33:48Z</time>
   </trkpt>
   <trkpt lat="-3.0865650" lon="37.3700990">
    <ele>5177.8</ele>
    <time>2026-06-23T00:33:49Z</time>
   </trkpt>
   <trkpt lat="-3.0865650" lon="37.3700980">
    <ele>5177.8</ele>
    <time>2026-06-23T00:33:50Z</time>
   </trkpt>
   <trkpt lat="-3.0865650" lon="37.3700980">
    <ele>5177.8</ele>
    <time>2026-06-23T00:33:51Z</time>
   </trkpt>
   <trkpt lat="-3.0865640" lon="37.3700970">
    <ele>5177.8</ele>
    <time>2026-06-23T00:33:52Z</time>
   </trkpt>
   <trkpt lat="-3.0865640" lon="37.3700970">
    <ele>5177.8</ele>
    <time>2026-06-23T00:33:53Z</time>
   </trkpt>
   <trkpt lat="-3.0865640" lon="37.3700970">
    <ele>5177.8</ele>
    <time>2026-06-23T00:33:54Z</time>
   </trkpt>
   <trkpt lat="-3.0865640" lon="37.3700980">
    <ele>5177.8</ele>
    <time>2026-06-23T00:33:55Z</time>
   </trkpt>
   <trkpt lat="-3.0865630" lon="37.3700970">
    <ele>5177.9</ele>
    <time>2026-06-23T00:33:56Z</time>
   </trkpt>
   <trkpt lat="-3.0865570" lon="37.3700950">
    <ele>5178.0</ele>
    <time>2026-06-23T00:33:57Z</time>
   </trkpt>
   <trkpt lat="-3.0865570" lon="37.3700950">
    <ele>5178.0</ele>
    <time>2026-06-23T00:33:58Z</time>
   </trkpt>
   <trkpt lat="-3.0865510" lon="37.3700970">
    <ele>5178.1</ele>
    <time>2026-06-23T00:33:59Z</time>
   </trkpt>
   <trkpt lat="-3.0865500" lon="37.3700990">
    <ele>5178.1</ele>
    <time>2026-06-23T00:34:00Z</time>
   </trkpt>
   <trkpt lat="-3.0865460" lon="37.3701000">
    <ele>5178.2</ele>
    <time>2026-06-23T00:34:01Z</time>
   </trkpt>
   <trkpt lat="-3.0865450" lon="37.3701010">
    <ele>5178.3</ele>
    <time>2026-06-23T00:34:02Z</time>
   </trkpt>
   <trkpt lat="-3.0865420" lon="37.3701010">
    <ele>5178.3</ele>
    <time>2026-06-23T00:34:03Z</time>
   </trkpt>
   <trkpt lat="-3.0865370" lon="37.3701010">
    <ele>5178.4</ele>
    <time>2026-06-23T00:34:04Z</time>
   </trkpt>
   <trkpt lat="-3.0865360" lon="37.3701010">
    <ele>5178.4</ele>
    <time>2026-06-23T00:34:05Z</time>
   </trkpt>
   <trkpt lat="-3.0865330" lon="37.3701000">
    <ele>5178.5</ele>
    <time>2026-06-23T00:34:06Z</time>
   </trkpt>
   <trkpt lat="-3.0865300" lon="37.3700980">
    <ele>5178.6</ele>
    <time>2026-06-23T00:34:07Z</time>
   </trkpt>
   <trkpt lat="-3.0865290" lon="37.3700980">
    <ele>5178.6</ele>
    <time>2026-06-23T00:34:08Z</time>
   </trkpt>
   <trkpt lat="-3.0865260" lon="37.3700980">
    <ele>5178.6</ele>
    <time>2026-06-23T00:34:09Z</time>
   </trkpt>
   <trkpt lat="-3.0865240" lon="37.3700980">
    <ele>5178.7</ele>
    <time>2026-06-23T00:34:10Z</time>
   </trkpt>
   <trkpt lat="-3.0865250" lon="37.3700960">
    <ele>5178.7</ele>
    <time>2026-06-23T00:34:11Z</time>
   </trkpt>
   <trkpt lat="-3.0865240" lon="37.3700960">
    <ele>5178.7</ele>
    <time>2026-06-23T00:34:12Z</time>
   </trkpt>
   <trkpt lat="-3.0865200" lon="37.3700930">
    <ele>5178.8</ele>
    <time>2026-06-23T00:34:13Z</time>
   </trkpt>
   <trkpt lat="-3.0865180" lon="37.3700920">
    <ele>5178.9</ele>
    <time>2026-06-23T00:34:14Z</time>
   </trkpt>
   <trkpt lat="-3.0865160" lon="37.3700890">
    <ele>5178.9</ele>
    <time>2026-06-23T00:34:15Z</time>
   </trkpt>
   <trkpt lat="-3.0865120" lon="37.3700870">
    <ele>5179.0</ele>
    <time>2026-06-23T00:34:16Z</time>
   </trkpt>
   <trkpt lat="-3.0865110" lon="37.3700870">
    <ele>5179.0</ele>
    <time>2026-06-23T00:34:17Z</time>
   </trkpt>
   <trkpt lat="-3.0865040" lon="37.3700870">
    <ele>5179.2</ele>
    <time>2026-06-23T00:34:18Z</time>
   </trkpt>
   <trkpt lat="-3.0865010" lon="37.3700870">
    <ele>5179.2</ele>
    <time>2026-06-23T00:34:19Z</time>
   </trkpt>
   <trkpt lat="-3.0864970" lon="37.3700860">
    <ele>5179.3</ele>
    <time>2026-06-23T00:34:20Z</time>
   </trkpt>
   <trkpt lat="-3.0864960" lon="37.3700850">
    <ele>5179.3</ele>
    <time>2026-06-23T00:34:21Z</time>
   </trkpt>
   <trkpt lat="-3.0864940" lon="37.3700820">
    <ele>5179.4</ele>
    <time>2026-06-23T00:34:22Z</time>
   </trkpt>
   <trkpt lat="-3.0864910" lon="37.3700820">
    <ele>5179.5</ele>
    <time>2026-06-23T00:34:23Z</time>
   </trkpt>
   <trkpt lat="-3.0864890" lon="37.3700810">
    <ele>5179.5</ele>
    <time>2026-06-23T00:34:24Z</time>
   </trkpt>
   <trkpt lat="-3.0864870" lon="37.3700810">
    <ele>5179.5</ele>
    <time>2026-06-23T00:34:25Z</time>
   </trkpt>
   <trkpt lat="-3.0864840" lon="37.3700800">
    <ele>5179.6</ele>
    <time>2026-06-23T00:34:26Z</time>
   </trkpt>
   <trkpt lat="-3.0864830" lon="37.3700810">
    <ele>5179.6</ele>
    <time>2026-06-23T00:34:27Z</time>
   </trkpt>
   <trkpt lat="-3.0864820" lon="37.3700790">
    <ele>5179.7</ele>
    <time>2026-06-23T00:34:28Z</time>
   </trkpt>
   <trkpt lat="-3.0864800" lon="37.3700790">
    <ele>5179.7</ele>
    <time>2026-06-23T00:34:29Z</time>
   </trkpt>
   <trkpt lat="-3.0864790" lon="37.3700780">
    <ele>5179.7</ele>
    <time>2026-06-23T00:34:30Z</time>
   </trkpt>
   <trkpt lat="-3.0864750" lon="37.3700770">
    <ele>5179.8</ele>
    <time>2026-06-23T00:34:31Z</time>
   </trkpt>
   <trkpt lat="-3.0864730" lon="37.3700760">
    <ele>5179.9</ele>
    <time>2026-06-23T00:34:32Z</time>
   </trkpt>
   <trkpt lat="-3.0864710" lon="37.3700750">
    <ele>5179.9</ele>
    <time>2026-06-23T00:34:33Z</time>
   </trkpt>
   <trkpt lat="-3.0864700" lon="37.3700740">
    <ele>5179.9</ele>
    <time>2026-06-23T00:34:34Z</time>
   </trkpt>
   <trkpt lat="-3.0864670" lon="37.3700730">
    <ele>5180.0</ele>
    <time>2026-06-23T00:34:35Z</time>
   </trkpt>
   <trkpt lat="-3.0864650" lon="37.3700730">
    <ele>5180.0</ele>
    <time>2026-06-23T00:34:36Z</time>
   </trkpt>
   <trkpt lat="-3.0864640" lon="37.3700730">
    <ele>5180.0</ele>
    <time>2026-06-23T00:34:37Z</time>
   </trkpt>
   <trkpt lat="-3.0864610" lon="37.3700720">
    <ele>5180.1</ele>
    <time>2026-06-23T00:34:38Z</time>
   </trkpt>
   <trkpt lat="-3.0864570" lon="37.3700690">
    <ele>5180.2</ele>
    <time>2026-06-23T00:34:39Z</time>
   </trkpt>
   <trkpt lat="-3.0864550" lon="37.3700680">
    <ele>5180.2</ele>
    <time>2026-06-23T00:34:40Z</time>
   </trkpt>
   <trkpt lat="-3.0864550" lon="37.3700660">
    <ele>5180.3</ele>
    <time>2026-06-23T00:34:41Z</time>
   </trkpt>
   <trkpt lat="-3.0864530" lon="37.3700650">
    <ele>5180.3</ele>
    <time>2026-06-23T00:34:42Z</time>
   </trkpt>
   <trkpt lat="-3.0864520" lon="37.3700610">
    <ele>5180.4</ele>
    <time>2026-06-23T00:34:43Z</time>
   </trkpt>
   <trkpt lat="-3.0864510" lon="37.3700590">
    <ele>5180.4</ele>
    <time>2026-06-23T00:34:44Z</time>
   </trkpt>
   <trkpt lat="-3.0864530" lon="37.3700550">
    <ele>5180.5</ele>
    <time>2026-06-23T00:34:45Z</time>
   </trkpt>
   <trkpt lat="-3.0864520" lon="37.3700540">
    <ele>5180.6</ele>
    <time>2026-06-23T00:34:46Z</time>
   </trkpt>
   <trkpt lat="-3.0864490" lon="37.3700510">
    <ele>5180.6</ele>
    <time>2026-06-23T00:34:47Z</time>
   </trkpt>
   <trkpt lat="-3.0864480" lon="37.3700500">
    <ele>5180.7</ele>
    <time>2026-06-23T00:34:48Z</time>
   </trkpt>
   <trkpt lat="-3.0864430" lon="37.3700490">
    <ele>5180.8</ele>
    <time>2026-06-23T00:34:49Z</time>
   </trkpt>
   <trkpt lat="-3.0864410" lon="37.3700490">
    <ele>5180.8</ele>
    <time>2026-06-23T00:34:50Z</time>
   </trkpt>
   <trkpt lat="-3.0864390" lon="37.3700480">
    <ele>5180.8</ele>
    <time>2026-06-23T00:34:51Z</time>
   </trkpt>
   <trkpt lat="-3.0864360" lon="37.3700470">
    <ele>5180.9</ele>
    <time>2026-06-23T00:34:52Z</time>
   </trkpt>
   <trkpt lat="-3.0864370" lon="37.3700470">
    <ele>5180.9</ele>
    <time>2026-06-23T00:34:53Z</time>
   </trkpt>
   <trkpt lat="-3.0864310" lon="37.3700470">
    <ele>5181.0</ele>
    <time>2026-06-23T00:34:54Z</time>
   </trkpt>
   <trkpt lat="-3.0864280" lon="37.3700450">
    <ele>5181.1</ele>
    <time>2026-06-23T00:34:55Z</time>
   </trkpt>
   <trkpt lat="-3.0864280" lon="37.3700440">
    <ele>5181.1</ele>
    <time>2026-06-23T00:34:56Z</time>
   </trkpt>
   <trkpt lat="-3.0864260" lon="37.3700400">
    <ele>5181.2</ele>
    <time>2026-06-23T00:34:57Z</time>
   </trkpt>
   <trkpt lat="-3.0864240" lon="37.3700390">
    <ele>5181.2</ele>
    <time>2026-06-23T00:34:58Z</time>
   </trkpt>
   <trkpt lat="-3.0864220" lon="37.3700350">
    <ele>5181.3</ele>
    <time>2026-06-23T00:34:59Z</time>
   </trkpt>
   <trkpt lat="-3.0864200" lon="37.3700340">
    <ele>5181.4</ele>
    <time>2026-06-23T00:35:00Z</time>
   </trkpt>
   <trkpt lat="-3.0864180" lon="37.3700320">
    <ele>5181.4</ele>
    <time>2026-06-23T00:35:01Z</time>
   </trkpt>
   <trkpt lat="-3.0864160" lon="37.3700320">
    <ele>5181.5</ele>
    <time>2026-06-23T00:35:02Z</time>
   </trkpt>
   <trkpt lat="-3.0864160" lon="37.3700330">
    <ele>5181.5</ele>
    <time>2026-06-23T00:35:03Z</time>
   </trkpt>
   <trkpt lat="-3.0864130" lon="37.3700330">
    <ele>5181.5</ele>
    <time>2026-06-23T00:35:04Z</time>
   </trkpt>
   <trkpt lat="-3.0864100" lon="37.3700320">
    <ele>5181.6</ele>
    <time>2026-06-23T00:35:05Z</time>
   </trkpt>
   <trkpt lat="-3.0864080" lon="37.3700310">
    <ele>5181.6</ele>
    <time>2026-06-23T00:35:06Z</time>
   </trkpt>
   <trkpt lat="-3.0864060" lon="37.3700290">
    <ele>5181.7</ele>
    <time>2026-06-23T00:35:07Z</time>
   </trkpt>
   <trkpt lat="-3.0864050" lon="37.3700280">
    <ele>5181.7</ele>
    <time>2026-06-23T00:35:08Z</time>
   </trkpt>
   <trkpt lat="-3.0864000" lon="37.3700290">
    <ele>5181.8</ele>
    <time>2026-06-23T00:35:09Z</time>
   </trkpt>
   <trkpt lat="-3.0863990" lon="37.3700270">
    <ele>5181.9</ele>
    <time>2026-06-23T00:35:10Z</time>
   </trkpt>
   <trkpt lat="-3.0863960" lon="37.3700280">
    <ele>5181.9</ele>
    <time>2026-06-23T00:35:11Z</time>
   </trkpt>
   <trkpt lat="-3.0863950" lon="37.3700270">
    <ele>5182.0</ele>
    <time>2026-06-23T00:35:12Z</time>
   </trkpt>
   <trkpt lat="-3.0863930" lon="37.3700280">
    <ele>5182.0</ele>
    <time>2026-06-23T00:35:13Z</time>
   </trkpt>
   <trkpt lat="-3.0863910" lon="37.3700280">
    <ele>5182.0</ele>
    <time>2026-06-23T00:35:14Z</time>
   </trkpt>
   <trkpt lat="-3.0863900" lon="37.3700270">
    <ele>5182.1</ele>
    <time>2026-06-23T00:35:15Z</time>
   </trkpt>
   <trkpt lat="-3.0863880" lon="37.3700250">
    <ele>5182.1</ele>
    <time>2026-06-23T00:35:16Z</time>
   </trkpt>
   <trkpt lat="-3.0863880" lon="37.3700250">
    <ele>5182.1</ele>
    <time>2026-06-23T00:35:17Z</time>
   </trkpt>
   <trkpt lat="-3.0863840" lon="37.3700240">
    <ele>5182.2</ele>
    <time>2026-06-23T00:35:18Z</time>
   </trkpt>
   <trkpt lat="-3.0863810" lon="37.3700260">
    <ele>5182.3</ele>
    <time>2026-06-23T00:35:19Z</time>
   </trkpt>
   <trkpt lat="-3.0863790" lon="37.3700260">
    <ele>5182.3</ele>
    <time>2026-06-23T00:35:20Z</time>
   </trkpt>
   <trkpt lat="-3.0863750" lon="37.3700240">
    <ele>5182.4</ele>
    <time>2026-06-23T00:35:21Z</time>
   </trkpt>
   <trkpt lat="-3.0863730" lon="37.3700240">
    <ele>5182.4</ele>
    <time>2026-06-23T00:35:22Z</time>
   </trkpt>
   <trkpt lat="-3.0863700" lon="37.3700250">
    <ele>5182.5</ele>
    <time>2026-06-23T00:35:23Z</time>
   </trkpt>
   <trkpt lat="-3.0863680" lon="37.3700220">
    <ele>5182.5</ele>
    <time>2026-06-23T00:35:24Z</time>
   </trkpt>
   <trkpt lat="-3.0863660" lon="37.3700210">
    <ele>5182.6</ele>
    <time>2026-06-23T00:35:25Z</time>
   </trkpt>
   <trkpt lat="-3.0863660" lon="37.3700170">
    <ele>5182.7</ele>
    <time>2026-06-23T00:35:26Z</time>
   </trkpt>
   <trkpt lat="-3.0863640" lon="37.3700170">
    <ele>5182.7</ele>
    <time>2026-06-23T00:35:27Z</time>
   </trkpt>
   <trkpt lat="-3.0863630" lon="37.3700150">
    <ele>5182.7</ele>
    <time>2026-06-23T00:35:28Z</time>
   </trkpt>
   <trkpt lat="-3.0863620" lon="37.3700150">
    <ele>5182.8</ele>
    <time>2026-06-23T00:35:29Z</time>
   </trkpt>
   <trkpt lat="-3.0863600" lon="37.3700140">
    <ele>5182.8</ele>
    <time>2026-06-23T00:35:30Z</time>
   </trkpt>
   <trkpt lat="-3.0863590" lon="37.3700140">
    <ele>5182.8</ele>
    <time>2026-06-23T00:35:31Z</time>
   </trkpt>
   <trkpt lat="-3.0863580" lon="37.3700140">
    <ele>5182.8</ele>
    <time>2026-06-23T00:35:32Z</time>
   </trkpt>
   <trkpt lat="-3.0863540" lon="37.3700140">
    <ele>5182.9</ele>
    <time>2026-06-23T00:35:33Z</time>
   </trkpt>
   <trkpt lat="-3.0863510" lon="37.3700160">
    <ele>5183.0</ele>
    <time>2026-06-23T00:35:34Z</time>
   </trkpt>
   <trkpt lat="-3.0863480" lon="37.3700130">
    <ele>5183.1</ele>
    <time>2026-06-23T00:35:35Z</time>
   </trkpt>
   <trkpt lat="-3.0863460" lon="37.3700120">
    <ele>5183.1</ele>
    <time>2026-06-23T00:35:36Z</time>
   </trkpt>
   <trkpt lat="-3.0863470" lon="37.3700120">
    <ele>5183.1</ele>
    <time>2026-06-23T00:35:37Z</time>
   </trkpt>
   <trkpt lat="-3.0863460" lon="37.3700110">
    <ele>5183.2</ele>
    <time>2026-06-23T00:35:38Z</time>
   </trkpt>
   <trkpt lat="-3.0863460" lon="37.3700110">
    <ele>5183.2</ele>
    <time>2026-06-23T00:35:39Z</time>
   </trkpt>
   <trkpt lat="-3.0863440" lon="37.3700100">
    <ele>5183.2</ele>
    <time>2026-06-23T00:35:41Z</time>
   </trkpt>
   <trkpt lat="-3.0863400" lon="37.3700100">
    <ele>5183.3</ele>
    <time>2026-06-23T00:35:42Z</time>
   </trkpt>
   <trkpt lat="-3.0863340" lon="37.3700080">
    <ele>5183.4</ele>
    <time>2026-06-23T00:35:43Z</time>
   </trkpt>
   <trkpt lat="-3.0863290" lon="37.3700070">
    <ele>5183.5</ele>
    <time>2026-06-23T00:35:44Z</time>
   </trkpt>
   <trkpt lat="-3.0863230" lon="37.3700040">
    <ele>5183.6</ele>
    <time>2026-06-23T00:35:45Z</time>
   </trkpt>
   <trkpt lat="-3.0863230" lon="37.3700040">
    <ele>5183.6</ele>
    <time>2026-06-23T00:35:46Z</time>
   </trkpt>
   <trkpt lat="-3.0863180" lon="37.3700040">
    <ele>5183.7</ele>
    <time>2026-06-23T00:35:47Z</time>
   </trkpt>
   <trkpt lat="-3.0863180" lon="37.3700030">
    <ele>5183.8</ele>
    <time>2026-06-23T00:35:48Z</time>
   </trkpt>
   <trkpt lat="-3.0863180" lon="37.3700030">
    <ele>5183.8</ele>
    <time>2026-06-23T00:35:49Z</time>
   </trkpt>
   <trkpt lat="-3.0863140" lon="37.3700040">
    <ele>5183.8</ele>
    <time>2026-06-23T00:35:50Z</time>
   </trkpt>
   <trkpt lat="-3.0863100" lon="37.3700050">
    <ele>5183.9</ele>
    <time>2026-06-23T00:35:51Z</time>
   </trkpt>
   <trkpt lat="-3.0863070" lon="37.3700060">
    <ele>5184.0</ele>
    <time>2026-06-23T00:35:52Z</time>
   </trkpt>
   <trkpt lat="-3.0863080" lon="37.3700060">
    <ele>5184.0</ele>
    <time>2026-06-23T00:35:53Z</time>
   </trkpt>
   <trkpt lat="-3.0863030" lon="37.3700050">
    <ele>5184.1</ele>
    <time>2026-06-23T00:35:54Z</time>
   </trkpt>
   <trkpt lat="-3.0863010" lon="37.3700050">
    <ele>5184.1</ele>
    <time>2026-06-23T00:35:55Z</time>
   </trkpt>
   <trkpt lat="-3.0862990" lon="37.3700030">
    <ele>5184.2</ele>
    <time>2026-06-23T00:35:56Z</time>
   </trkpt>
   <trkpt lat="-3.0862960" lon="37.3700000">
    <ele>5184.3</ele>
    <time>2026-06-23T00:35:57Z</time>
   </trkpt>
   <trkpt lat="-3.0862930" lon="37.3699990">
    <ele>5184.3</ele>
    <time>2026-06-23T00:35:58Z</time>
   </trkpt>
   <trkpt lat="-3.0862900" lon="37.3699970">
    <ele>5184.4</ele>
    <time>2026-06-23T00:35:59Z</time>
   </trkpt>
   <trkpt lat="-3.0862890" lon="37.3699960">
    <ele>5184.4</ele>
    <time>2026-06-23T00:36:00Z</time>
   </trkpt>
   <trkpt lat="-3.0862870" lon="37.3699950">
    <ele>5184.5</ele>
    <time>2026-06-23T00:36:01Z</time>
   </trkpt>
   <trkpt lat="-3.0862880" lon="37.3699950">
    <ele>5184.5</ele>
    <time>2026-06-23T00:36:02Z</time>
   </trkpt>
   <trkpt lat="-3.0862880" lon="37.3699950">
    <ele>5184.5</ele>
    <time>2026-06-23T00:36:03Z</time>
   </trkpt>
   <trkpt lat="-3.0862850" lon="37.3699960">
    <ele>5184.6</ele>
    <time>2026-06-23T00:36:04Z</time>
   </trkpt>
   <trkpt lat="-3.0862830" lon="37.3699960">
    <ele>5184.6</ele>
    <time>2026-06-23T00:36:05Z</time>
   </trkpt>
   <trkpt lat="-3.0862790" lon="37.3699970">
    <ele>5184.7</ele>
    <time>2026-06-23T00:36:06Z</time>
   </trkpt>
   <trkpt lat="-3.0862800" lon="37.3699970">
    <ele>5184.7</ele>
    <time>2026-06-23T00:36:07Z</time>
   </trkpt>
   <trkpt lat="-3.0862770" lon="37.3699990">
    <ele>5184.8</ele>
    <time>2026-06-23T00:36:08Z</time>
   </trkpt>
   <trkpt lat="-3.0862730" lon="37.3699990">
    <ele>5184.9</ele>
    <time>2026-06-23T00:36:09Z</time>
   </trkpt>
   <trkpt lat="-3.0862720" lon="37.3699980">
    <ele>5184.9</ele>
    <time>2026-06-23T00:36:10Z</time>
   </trkpt>
   <trkpt lat="-3.0862680" lon="37.3699970">
    <ele>5185.0</ele>
    <time>2026-06-23T00:36:11Z</time>
   </trkpt>
   <trkpt lat="-3.0862650" lon="37.3699950">
    <ele>5185.0</ele>
    <time>2026-06-23T00:36:12Z</time>
   </trkpt>
   <trkpt lat="-3.0862640" lon="37.3699940">
    <ele>5185.1</ele>
    <time>2026-06-23T00:36:13Z</time>
   </trkpt>
   <trkpt lat="-3.0862600" lon="37.3699920">
    <ele>5185.2</ele>
    <time>2026-06-23T00:36:14Z</time>
   </trkpt>
   <trkpt lat="-3.0862590" lon="37.3699920">
    <ele>5185.2</ele>
    <time>2026-06-23T00:36:15Z</time>
   </trkpt>
   <trkpt lat="-3.0862600" lon="37.3699900">
    <ele>5185.2</ele>
    <time>2026-06-23T00:36:16Z</time>
   </trkpt>
   <trkpt lat="-3.0862550" lon="37.3699890">
    <ele>5185.3</ele>
    <time>2026-06-23T00:36:17Z</time>
   </trkpt>
   <trkpt lat="-3.0862550" lon="37.3699850">
    <ele>5185.4</ele>
    <time>2026-06-23T00:36:18Z</time>
   </trkpt>
   <trkpt lat="-3.0862540" lon="37.3699850">
    <ele>5185.4</ele>
    <time>2026-06-23T00:36:19Z</time>
   </trkpt>
   <trkpt lat="-3.0862500" lon="37.3699840">
    <ele>5185.5</ele>
    <time>2026-06-23T00:36:20Z</time>
   </trkpt>
   <trkpt lat="-3.0862510" lon="37.3699820">
    <ele>5185.6</ele>
    <time>2026-06-23T00:36:21Z</time>
   </trkpt>
   <trkpt lat="-3.0862510" lon="37.3699820">
    <ele>5185.6</ele>
    <time>2026-06-23T00:36:22Z</time>
   </trkpt>
   <trkpt lat="-3.0862520" lon="37.3699810">
    <ele>5185.6</ele>
    <time>2026-06-23T00:36:23Z</time>
   </trkpt>
   <trkpt lat="-3.0862510" lon="37.3699820">
    <ele>5185.6</ele>
    <time>2026-06-23T00:36:24Z</time>
   </trkpt>
   <trkpt lat="-3.0862490" lon="37.3699820">
    <ele>5185.6</ele>
    <time>2026-06-23T00:36:25Z</time>
   </trkpt>
   <trkpt lat="-3.0862470" lon="37.3699800">
    <ele>5185.7</ele>
    <time>2026-06-23T00:36:26Z</time>
   </trkpt>
   <trkpt lat="-3.0862470" lon="37.3699790">
    <ele>5185.7</ele>
    <time>2026-06-23T00:36:27Z</time>
   </trkpt>
   <trkpt lat="-3.0862460" lon="37.3699780">
    <ele>5185.8</ele>
    <time>2026-06-23T00:36:28Z</time>
   </trkpt>
   <trkpt lat="-3.0862450" lon="37.3699770">
    <ele>5185.8</ele>
    <time>2026-06-23T00:36:29Z</time>
   </trkpt>
   <trkpt lat="-3.0862430" lon="37.3699740">
    <ele>5185.9</ele>
    <time>2026-06-23T00:36:30Z</time>
   </trkpt>
   <trkpt lat="-3.0862440" lon="37.3699720">
    <ele>5185.9</ele>
    <time>2026-06-23T00:36:31Z</time>
   </trkpt>
   <trkpt lat="-3.0862450" lon="37.3699720">
    <ele>5185.9</ele>
    <time>2026-06-23T00:36:32Z</time>
   </trkpt>
   <trkpt lat="-3.0862420" lon="37.3699710">
    <ele>5186.0</ele>
    <time>2026-06-23T00:36:33Z</time>
   </trkpt>
   <trkpt lat="-3.0862420" lon="37.3699710">
    <ele>5186.0</ele>
    <time>2026-06-23T00:36:34Z</time>
   </trkpt>
   <trkpt lat="-3.0862390" lon="37.3699670">
    <ele>5186.1</ele>
    <time>2026-06-23T00:36:35Z</time>
   </trkpt>
   <trkpt lat="-3.0862370" lon="37.3699660">
    <ele>5186.1</ele>
    <time>2026-06-23T00:36:36Z</time>
   </trkpt>
   <trkpt lat="-3.0862390" lon="37.3699600">
    <ele>5186.2</ele>
    <time>2026-06-23T00:36:37Z</time>
   </trkpt>
   <trkpt lat="-3.0862380" lon="37.3699580">
    <ele>5186.3</ele>
    <time>2026-06-23T00:36:38Z</time>
   </trkpt>
   <trkpt lat="-3.0862370" lon="37.3699560">
    <ele>5186.3</ele>
    <time>2026-06-23T00:36:39Z</time>
   </trkpt>
   <trkpt lat="-3.0862380" lon="37.3699540">
    <ele>5186.4</ele>
    <time>2026-06-23T00:36:40Z</time>
   </trkpt>
   <trkpt lat="-3.0862350" lon="37.3699530">
    <ele>5186.4</ele>
    <time>2026-06-23T00:36:41Z</time>
   </trkpt>
   <trkpt lat="-3.0862350" lon="37.3699470">
    <ele>5186.6</ele>
    <time>2026-06-23T00:36:42Z</time>
   </trkpt>
   <trkpt lat="-3.0862350" lon="37.3699450">
    <ele>5186.6</ele>
    <time>2026-06-23T00:36:43Z</time>
   </trkpt>
   <trkpt lat="-3.0862380" lon="37.3699440">
    <ele>5186.7</ele>
    <time>2026-06-23T00:36:44Z</time>
   </trkpt>
   <trkpt lat="-3.0862380" lon="37.3699440">
    <ele>5186.7</ele>
    <time>2026-06-23T00:36:45Z</time>
   </trkpt>
   <trkpt lat="-3.0862370" lon="37.3699540">
    <ele>5186.9</ele>
    <time>2026-06-23T00:36:46Z</time>
   </trkpt>
   <trkpt lat="-3.0862410" lon="37.3699460">
    <ele>5187.0</ele>
    <time>2026-06-23T00:36:47Z</time>
   </trkpt>
   <trkpt lat="-3.0862440" lon="37.3699440">
    <ele>5187.1</ele>
    <time>2026-06-23T00:36:48Z</time>
   </trkpt>
   <trkpt lat="-3.0862440" lon="37.3699450">
    <ele>5187.1</ele>
    <time>2026-06-23T00:36:49Z</time>
   </trkpt>
   <trkpt lat="-3.0862440" lon="37.3699450">
    <ele>5187.1</ele>
    <time>2026-06-23T00:36:50Z</time>
   </trkpt>
   <trkpt lat="-3.0862440" lon="37.3699450">
    <ele>5187.1</ele>
    <time>2026-06-23T00:36:51Z</time>
   </trkpt>
   <trkpt lat="-3.0862490" lon="37.3699430">
    <ele>5187.2</ele>
    <time>2026-06-23T00:36:52Z</time>
   </trkpt>
   <trkpt lat="-3.0862530" lon="37.3699420">
    <ele>5187.3</ele>
    <time>2026-06-23T00:36:53Z</time>
   </trkpt>
   <trkpt lat="-3.0862540" lon="37.3699410">
    <ele>5187.3</ele>
    <time>2026-06-23T00:36:54Z</time>
   </trkpt>
   <trkpt lat="-3.0862550" lon="37.3699400">
    <ele>5187.4</ele>
    <time>2026-06-23T00:36:55Z</time>
   </trkpt>
   <trkpt lat="-3.0862550" lon="37.3699380">
    <ele>5187.4</ele>
    <time>2026-06-23T00:36:56Z</time>
   </trkpt>
   <trkpt lat="-3.0862560" lon="37.3699360">
    <ele>5187.5</ele>
    <time>2026-06-23T00:36:57Z</time>
   </trkpt>
   <trkpt lat="-3.0862560" lon="37.3699360">
    <ele>5187.5</ele>
    <time>2026-06-23T00:36:58Z</time>
   </trkpt>
   <trkpt lat="-3.0862560" lon="37.3699330">
    <ele>5187.5</ele>
    <time>2026-06-23T00:36:59Z</time>
   </trkpt>
   <trkpt lat="-3.0862550" lon="37.3699310">
    <ele>5187.6</ele>
    <time>2026-06-23T00:37:00Z</time>
   </trkpt>
   <trkpt lat="-3.0862570" lon="37.3699280">
    <ele>5187.6</ele>
    <time>2026-06-23T00:37:01Z</time>
   </trkpt>
   <trkpt lat="-3.0862560" lon="37.3699270">
    <ele>5187.7</ele>
    <time>2026-06-23T00:37:02Z</time>
   </trkpt>
   <trkpt lat="-3.0862550" lon="37.3699260">
    <ele>5187.7</ele>
    <time>2026-06-23T00:37:03Z</time>
   </trkpt>
   <trkpt lat="-3.0862530" lon="37.3699240">
    <ele>5187.7</ele>
    <time>2026-06-23T00:37:04Z</time>
   </trkpt>
   <trkpt lat="-3.0862530" lon="37.3699210">
    <ele>5187.8</ele>
    <time>2026-06-23T00:37:05Z</time>
   </trkpt>
   <trkpt lat="-3.0862520" lon="37.3699200">
    <ele>5187.8</ele>
    <time>2026-06-23T00:37:06Z</time>
   </trkpt>
   <trkpt lat="-3.0862530" lon="37.3699170">
    <ele>5187.9</ele>
    <time>2026-06-23T00:37:07Z</time>
   </trkpt>
   <trkpt lat="-3.0862540" lon="37.3699160">
    <ele>5187.9</ele>
    <time>2026-06-23T00:37:08Z</time>
   </trkpt>
   <trkpt lat="-3.0862560" lon="37.3699140">
    <ele>5188.0</ele>
    <time>2026-06-23T00:37:09Z</time>
   </trkpt>
   <trkpt lat="-3.0862570" lon="37.3699100">
    <ele>5188.1</ele>
    <time>2026-06-23T00:37:10Z</time>
   </trkpt>
   <trkpt lat="-3.0862590" lon="37.3699080">
    <ele>5188.1</ele>
    <time>2026-06-23T00:37:11Z</time>
   </trkpt>
   <trkpt lat="-3.0862610" lon="37.3699100">
    <ele>5188.2</ele>
    <time>2026-06-23T00:37:12Z</time>
   </trkpt>
   <trkpt lat="-3.0862640" lon="37.3699100">
    <ele>5188.2</ele>
    <time>2026-06-23T00:37:13Z</time>
   </trkpt>
   <trkpt lat="-3.0862680" lon="37.3699090">
    <ele>5188.3</ele>
    <time>2026-06-23T00:37:14Z</time>
   </trkpt>
   <trkpt lat="-3.0862720" lon="37.3699090">
    <ele>5188.4</ele>
    <time>2026-06-23T00:37:15Z</time>
   </trkpt>
   <trkpt lat="-3.0862750" lon="37.3699090">
    <ele>5188.5</ele>
    <time>2026-06-23T00:37:16Z</time>
   </trkpt>
   <trkpt lat="-3.0862770" lon="37.3699100">
    <ele>5188.5</ele>
    <time>2026-06-23T00:37:17Z</time>
   </trkpt>
   <trkpt lat="-3.0862770" lon="37.3699080">
    <ele>5188.5</ele>
    <time>2026-06-23T00:37:18Z</time>
   </trkpt>
   <trkpt lat="-3.0862780" lon="37.3699070">
    <ele>5188.6</ele>
    <time>2026-06-23T00:37:19Z</time>
   </trkpt>
   <trkpt lat="-3.0862810" lon="37.3699090">
    <ele>5188.6</ele>
    <time>2026-06-23T00:37:20Z</time>
   </trkpt>
   <trkpt lat="-3.0862830" lon="37.3699080">
    <ele>5188.7</ele>
    <time>2026-06-23T00:37:21Z</time>
   </trkpt>
   <trkpt lat="-3.0862870" lon="37.3699080">
    <ele>5188.8</ele>
    <time>2026-06-23T00:37:22Z</time>
   </trkpt>
   <trkpt lat="-3.0862890" lon="37.3699060">
    <ele>5188.8</ele>
    <time>2026-06-23T00:37:23Z</time>
   </trkpt>
   <trkpt lat="-3.0862920" lon="37.3699040">
    <ele>5188.9</ele>
    <time>2026-06-23T00:37:24Z</time>
   </trkpt>
   <trkpt lat="-3.0862950" lon="37.3699010">
    <ele>5189.0</ele>
    <time>2026-06-23T00:37:25Z</time>
   </trkpt>
   <trkpt lat="-3.0862960" lon="37.3699000">
    <ele>5189.0</ele>
    <time>2026-06-23T00:37:26Z</time>
   </trkpt>
   <trkpt lat="-3.0862970" lon="37.3698960">
    <ele>5189.1</ele>
    <time>2026-06-23T00:37:27Z</time>
   </trkpt>
   <trkpt lat="-3.0863000" lon="37.3698950">
    <ele>5189.1</ele>
    <time>2026-06-23T00:37:28Z</time>
   </trkpt>
   <trkpt lat="-3.0862980" lon="37.3698940">
    <ele>5189.2</ele>
    <time>2026-06-23T00:37:29Z</time>
   </trkpt>
   <trkpt lat="-3.0862960" lon="37.3698910">
    <ele>5189.3</ele>
    <time>2026-06-23T00:37:30Z</time>
   </trkpt>
   <trkpt lat="-3.0862950" lon="37.3698900">
    <ele>5189.3</ele>
    <time>2026-06-23T00:37:31Z</time>
   </trkpt>
   <trkpt lat="-3.0862930" lon="37.3698870">
    <ele>5189.4</ele>
    <time>2026-06-23T00:37:32Z</time>
   </trkpt>
   <trkpt lat="-3.0862920" lon="37.3698860">
    <ele>5189.4</ele>
    <time>2026-06-23T00:37:33Z</time>
   </trkpt>
   <trkpt lat="-3.0862910" lon="37.3698830">
    <ele>5189.5</ele>
    <time>2026-06-23T00:37:34Z</time>
   </trkpt>
   <trkpt lat="-3.0862910" lon="37.3698800">
    <ele>5189.5</ele>
    <time>2026-06-23T00:37:35Z</time>
   </trkpt>
   <trkpt lat="-3.0862920" lon="37.3698760">
    <ele>5189.6</ele>
    <time>2026-06-23T00:37:36Z</time>
   </trkpt>
   <trkpt lat="-3.0862950" lon="37.3698730">
    <ele>5189.7</ele>
    <time>2026-06-23T00:37:37Z</time>
   </trkpt>
   <trkpt lat="-3.0862970" lon="37.3698710">
    <ele>5189.7</ele>
    <time>2026-06-23T00:37:38Z</time>
   </trkpt>
   <trkpt lat="-3.0862960" lon="37.3698670">
    <ele>5189.8</ele>
    <time>2026-06-23T00:37:39Z</time>
   </trkpt>
   <trkpt lat="-3.0862970" lon="37.3698640">
    <ele>5189.9</ele>
    <time>2026-06-23T00:37:40Z</time>
   </trkpt>
   <trkpt lat="-3.0862990" lon="37.3698620">
    <ele>5189.9</ele>
    <time>2026-06-23T00:37:41Z</time>
   </trkpt>
   <trkpt lat="-3.0862990" lon="37.3698600">
    <ele>5190.0</ele>
    <time>2026-06-23T00:37:42Z</time>
   </trkpt>
   <trkpt lat="-3.0862990" lon="37.3698560">
    <ele>5190.1</ele>
    <time>2026-06-23T00:37:43Z</time>
   </trkpt>
   <trkpt lat="-3.0863020" lon="37.3698540">
    <ele>5190.1</ele>
    <time>2026-06-23T00:37:44Z</time>
   </trkpt>
   <trkpt lat="-3.0863010" lon="37.3698530">
    <ele>5190.2</ele>
    <time>2026-06-23T00:37:45Z</time>
   </trkpt>
   <trkpt lat="-3.0863040" lon="37.3698490">
    <ele>5190.2</ele>
    <time>2026-06-23T00:37:47Z</time>
   </trkpt>
   <trkpt lat="-3.0863030" lon="37.3698460">
    <ele>5190.3</ele>
    <time>2026-06-23T00:37:48Z</time>
   </trkpt>
   <trkpt lat="-3.0863020" lon="37.3698420">
    <ele>5190.4</ele>
    <time>2026-06-23T00:37:49Z</time>
   </trkpt>
   <trkpt lat="-3.0863010" lon="37.3698400">
    <ele>5190.4</ele>
    <time>2026-06-23T00:37:50Z</time>
   </trkpt>
   <trkpt lat="-3.0862980" lon="37.3698350">
    <ele>5190.5</ele>
    <time>2026-06-23T00:37:51Z</time>
   </trkpt>
   <trkpt lat="-3.0862980" lon="37.3698330">
    <ele>5190.6</ele>
    <time>2026-06-23T00:37:52Z</time>
   </trkpt>
   <trkpt lat="-3.0863000" lon="37.3698300">
    <ele>5190.6</ele>
    <time>2026-06-23T00:37:53Z</time>
   </trkpt>
   <trkpt lat="-3.0863000" lon="37.3698260">
    <ele>5190.7</ele>
    <time>2026-06-23T00:37:54Z</time>
   </trkpt>
   <trkpt lat="-3.0863000" lon="37.3698240">
    <ele>5190.7</ele>
    <time>2026-06-23T00:37:55Z</time>
   </trkpt>
   <trkpt lat="-3.0863010" lon="37.3698190">
    <ele>5190.8</ele>
    <time>2026-06-23T00:37:56Z</time>
   </trkpt>
   <trkpt lat="-3.0863010" lon="37.3698170">
    <ele>5190.9</ele>
    <time>2026-06-23T00:37:57Z</time>
   </trkpt>
   <trkpt lat="-3.0863020" lon="37.3698140">
    <ele>5190.9</ele>
    <time>2026-06-23T00:37:58Z</time>
   </trkpt>
   <trkpt lat="-3.0863040" lon="37.3698150">
    <ele>5191.0</ele>
    <time>2026-06-23T00:37:59Z</time>
   </trkpt>
   <trkpt lat="-3.0863040" lon="37.3698100">
    <ele>5191.1</ele>
    <time>2026-06-23T00:38:00Z</time>
   </trkpt>
   <trkpt lat="-3.0863050" lon="37.3698070">
    <ele>5191.1</ele>
    <time>2026-06-23T00:38:01Z</time>
   </trkpt>
   <trkpt lat="-3.0863040" lon="37.3698040">
    <ele>5191.2</ele>
    <time>2026-06-23T00:38:02Z</time>
   </trkpt>
   <trkpt lat="-3.0863040" lon="37.3698010">
    <ele>5191.2</ele>
    <time>2026-06-23T00:38:03Z</time>
   </trkpt>
   <trkpt lat="-3.0863030" lon="37.3698010">
    <ele>5191.2</ele>
    <time>2026-06-23T00:38:04Z</time>
   </trkpt>
   <trkpt lat="-3.0863010" lon="37.3697990">
    <ele>5191.3</ele>
    <time>2026-06-23T00:38:05Z</time>
   </trkpt>
   <trkpt lat="-3.0862990" lon="37.3697990">
    <ele>5191.3</ele>
    <time>2026-06-23T00:38:06Z</time>
   </trkpt>
   <trkpt lat="-3.0862960" lon="37.3697970">
    <ele>5191.4</ele>
    <time>2026-06-23T00:38:07Z</time>
   </trkpt>
   <trkpt lat="-3.0862940" lon="37.3697940">
    <ele>5191.5</ele>
    <time>2026-06-23T00:38:08Z</time>
   </trkpt>
   <trkpt lat="-3.0862910" lon="37.3697930">
    <ele>5191.5</ele>
    <time>2026-06-23T00:38:09Z</time>
   </trkpt>
   <trkpt lat="-3.0862860" lon="37.3697920">
    <ele>5191.6</ele>
    <time>2026-06-23T00:38:10Z</time>
   </trkpt>
   <trkpt lat="-3.0862850" lon="37.3697930">
    <ele>5191.6</ele>
    <time>2026-06-23T00:38:11Z</time>
   </trkpt>
   <trkpt lat="-3.0862820" lon="37.3697930">
    <ele>5191.7</ele>
    <time>2026-06-23T00:38:12Z</time>
   </trkpt>
   <trkpt lat="-3.0862800" lon="37.3697940">
    <ele>5191.7</ele>
    <time>2026-06-23T00:38:13Z</time>
   </trkpt>
   <trkpt lat="-3.0862760" lon="37.3697940">
    <ele>5191.8</ele>
    <time>2026-06-23T00:38:14Z</time>
   </trkpt>
   <trkpt lat="-3.0862760" lon="37.3697950">
    <ele>5191.8</ele>
    <time>2026-06-23T00:38:15Z</time>
   </trkpt>
   <trkpt lat="-3.0862710" lon="37.3697940">
    <ele>5191.9</ele>
    <time>2026-06-23T00:38:16Z</time>
   </trkpt>
   <trkpt lat="-3.0862680" lon="37.3697970">
    <ele>5192.0</ele>
    <time>2026-06-23T00:38:17Z</time>
   </trkpt>
   <trkpt lat="-3.0862650" lon="37.3697960">
    <ele>5192.0</ele>
    <time>2026-06-23T00:38:18Z</time>
   </trkpt>
   <trkpt lat="-3.0862640" lon="37.3698010">
    <ele>5192.1</ele>
    <time>2026-06-23T00:38:19Z</time>
   </trkpt>
   <trkpt lat="-3.0862630" lon="37.3698020">
    <ele>5192.1</ele>
    <time>2026-06-23T00:38:20Z</time>
   </trkpt>
   <trkpt lat="-3.0862610" lon="37.3698030">
    <ele>5192.2</ele>
    <time>2026-06-23T00:38:21Z</time>
   </trkpt>
   <trkpt lat="-3.0862590" lon="37.3698070">
    <ele>5192.3</ele>
    <time>2026-06-23T00:38:22Z</time>
   </trkpt>
   <trkpt lat="-3.0862570" lon="37.3698080">
    <ele>5192.3</ele>
    <time>2026-06-23T00:38:23Z</time>
   </trkpt>
   <trkpt lat="-3.0862580" lon="37.3698110">
    <ele>5192.4</ele>
    <time>2026-06-23T00:38:24Z</time>
   </trkpt>
   <trkpt lat="-3.0862570" lon="37.3698120">
    <ele>5192.4</ele>
    <time>2026-06-23T00:38:25Z</time>
   </trkpt>
   <trkpt lat="-3.0862580" lon="37.3698180">
    <ele>5192.5</ele>
    <time>2026-06-23T00:38:26Z</time>
   </trkpt>
   <trkpt lat="-3.0862540" lon="37.3698190">
    <ele>5192.6</ele>
    <time>2026-06-23T00:38:27Z</time>
   </trkpt>
   <trkpt lat="-3.0862540" lon="37.3698220">
    <ele>5192.6</ele>
    <time>2026-06-23T00:38:28Z</time>
   </trkpt>
   <trkpt lat="-3.0862530" lon="37.3698240">
    <ele>5192.7</ele>
    <time>2026-06-23T00:38:29Z</time>
   </trkpt>
   <trkpt lat="-3.0862520" lon="37.3698270">
    <ele>5192.7</ele>
    <time>2026-06-23T00:38:30Z</time>
   </trkpt>
   <trkpt lat="-3.0862500" lon="37.3698280">
    <ele>5192.7</ele>
    <time>2026-06-23T00:38:31Z</time>
   </trkpt>
   <trkpt lat="-3.0862500" lon="37.3698270">
    <ele>5192.8</ele>
    <time>2026-06-23T00:38:32Z</time>
   </trkpt>
   <trkpt lat="-3.0862480" lon="37.3698300">
    <ele>5192.8</ele>
    <time>2026-06-23T00:38:33Z</time>
   </trkpt>
   <trkpt lat="-3.0862470" lon="37.3698320">
    <ele>5192.9</ele>
    <time>2026-06-23T00:38:34Z</time>
   </trkpt>
   <trkpt lat="-3.0862450" lon="37.3698340">
    <ele>5192.9</ele>
    <time>2026-06-23T00:38:35Z</time>
   </trkpt>
   <trkpt lat="-3.0862430" lon="37.3698350">
    <ele>5193.0</ele>
    <time>2026-06-23T00:38:36Z</time>
   </trkpt>
   <trkpt lat="-3.0862420" lon="37.3698380">
    <ele>5193.0</ele>
    <time>2026-06-23T00:38:37Z</time>
   </trkpt>
   <trkpt lat="-3.0862400" lon="37.3698380">
    <ele>5193.0</ele>
    <time>2026-06-23T00:38:38Z</time>
   </trkpt>
   <trkpt lat="-3.0862370" lon="37.3698410">
    <ele>5193.1</ele>
    <time>2026-06-23T00:38:39Z</time>
   </trkpt>
   <trkpt lat="-3.0862360" lon="37.3698380">
    <ele>5193.2</ele>
    <time>2026-06-23T00:38:40Z</time>
   </trkpt>
   <trkpt lat="-3.0862340" lon="37.3698380">
    <ele>5193.2</ele>
    <time>2026-06-23T00:38:41Z</time>
   </trkpt>
   <trkpt lat="-3.0862280" lon="37.3698330">
    <ele>5193.3</ele>
    <time>2026-06-23T00:38:42Z</time>
   </trkpt>
   <trkpt lat="-3.0862270" lon="37.3698330">
    <ele>5193.4</ele>
    <time>2026-06-23T00:38:43Z</time>
   </trkpt>
   <trkpt lat="-3.0862210" lon="37.3698330">
    <ele>5193.5</ele>
    <time>2026-06-23T00:38:44Z</time>
   </trkpt>
   <trkpt lat="-3.0862200" lon="37.3698350">
    <ele>5193.5</ele>
    <time>2026-06-23T00:38:45Z</time>
   </trkpt>
   <trkpt lat="-3.0862180" lon="37.3698320">
    <ele>5193.6</ele>
    <time>2026-06-23T00:38:46Z</time>
   </trkpt>
   <trkpt lat="-3.0862170" lon="37.3698320">
    <ele>5193.6</ele>
    <time>2026-06-23T00:38:47Z</time>
   </trkpt>
   <trkpt lat="-3.0862130" lon="37.3698340">
    <ele>5193.7</ele>
    <time>2026-06-23T00:38:48Z</time>
   </trkpt>
   <trkpt lat="-3.0862110" lon="37.3698330">
    <ele>5193.7</ele>
    <time>2026-06-23T00:38:49Z</time>
   </trkpt>
   <trkpt lat="-3.0862040" lon="37.3698330">
    <ele>5193.8</ele>
    <time>2026-06-23T00:38:50Z</time>
   </trkpt>
   <trkpt lat="-3.0862000" lon="37.3698320">
    <ele>5193.9</ele>
    <time>2026-06-23T00:38:51Z</time>
   </trkpt>
   <trkpt lat="-3.0861970" lon="37.3698320">
    <ele>5193.9</ele>
    <time>2026-06-23T00:38:52Z</time>
   </trkpt>
   <trkpt lat="-3.0861960" lon="37.3698340">
    <ele>5194.0</ele>
    <time>2026-06-23T00:38:53Z</time>
   </trkpt>
   <trkpt lat="-3.0861930" lon="37.3698330">
    <ele>5194.0</ele>
    <time>2026-06-23T00:38:54Z</time>
   </trkpt>
   <trkpt lat="-3.0861900" lon="37.3698340">
    <ele>5194.1</ele>
    <time>2026-06-23T00:38:55Z</time>
   </trkpt>
   <trkpt lat="-3.0861860" lon="37.3698320">
    <ele>5194.2</ele>
    <time>2026-06-23T00:38:56Z</time>
   </trkpt>
   <trkpt lat="-3.0861820" lon="37.3698330">
    <ele>5194.2</ele>
    <time>2026-06-23T00:38:57Z</time>
   </trkpt>
   <trkpt lat="-3.0861790" lon="37.3698330">
    <ele>5194.3</ele>
    <time>2026-06-23T00:38:58Z</time>
   </trkpt>
   <trkpt lat="-3.0861780" lon="37.3698320">
    <ele>5194.3</ele>
    <time>2026-06-23T00:38:59Z</time>
   </trkpt>
   <trkpt lat="-3.0861760" lon="37.3698320">
    <ele>5194.3</ele>
    <time>2026-06-23T00:39:00Z</time>
   </trkpt>
   <trkpt lat="-3.0861750" lon="37.3698330">
    <ele>5194.4</ele>
    <time>2026-06-23T00:39:01Z</time>
   </trkpt>
   <trkpt lat="-3.0861720" lon="37.3698320">
    <ele>5194.4</ele>
    <time>2026-06-23T00:39:02Z</time>
   </trkpt>
   <trkpt lat="-3.0861710" lon="37.3698320">
    <ele>5194.4</ele>
    <time>2026-06-23T00:39:03Z</time>
   </trkpt>
   <trkpt lat="-3.0861690" lon="37.3698340">
    <ele>5194.5</ele>
    <time>2026-06-23T00:39:04Z</time>
   </trkpt>
   <trkpt lat="-3.0861660" lon="37.3698340">
    <ele>5194.5</ele>
    <time>2026-06-23T00:39:05Z</time>
   </trkpt>
   <trkpt lat="-3.0861620" lon="37.3698340">
    <ele>5194.6</ele>
    <time>2026-06-23T00:39:06Z</time>
   </trkpt>
   <trkpt lat="-3.0861600" lon="37.3698300">
    <ele>5194.7</ele>
    <time>2026-06-23T00:39:07Z</time>
   </trkpt>
   <trkpt lat="-3.0861570" lon="37.3698300">
    <ele>5194.7</ele>
    <time>2026-06-23T00:39:08Z</time>
   </trkpt>
   <trkpt lat="-3.0861560" lon="37.3698270">
    <ele>5194.8</ele>
    <time>2026-06-23T00:39:09Z</time>
   </trkpt>
   <trkpt lat="-3.0861550" lon="37.3698270">
    <ele>5194.8</ele>
    <time>2026-06-23T00:39:10Z</time>
   </trkpt>
   <trkpt lat="-3.0861530" lon="37.3698260">
    <ele>5194.9</ele>
    <time>2026-06-23T00:39:11Z</time>
   </trkpt>
   <trkpt lat="-3.0861490" lon="37.3698260">
    <ele>5194.9</ele>
    <time>2026-06-23T00:39:12Z</time>
   </trkpt>
   <trkpt lat="-3.0861470" lon="37.3698270">
    <ele>5195.0</ele>
    <time>2026-06-23T00:39:13Z</time>
   </trkpt>
   <trkpt lat="-3.0861450" lon="37.3698280">
    <ele>5195.0</ele>
    <time>2026-06-23T00:39:14Z</time>
   </trkpt>
   <trkpt lat="-3.0861430" lon="37.3698280">
    <ele>5195.0</ele>
    <time>2026-06-23T00:39:15Z</time>
   </trkpt>
   <trkpt lat="-3.0861410" lon="37.3698280">
    <ele>5195.1</ele>
    <time>2026-06-23T00:39:16Z</time>
   </trkpt>
   <trkpt lat="-3.0861370" lon="37.3698290">
    <ele>5195.1</ele>
    <time>2026-06-23T00:39:17Z</time>
   </trkpt>
   <trkpt lat="-3.0861350" lon="37.3698290">
    <ele>5195.2</ele>
    <time>2026-06-23T00:39:18Z</time>
   </trkpt>
   <trkpt lat="-3.0861320" lon="37.3698290">
    <ele>5195.2</ele>
    <time>2026-06-23T00:39:19Z</time>
   </trkpt>
   <trkpt lat="-3.0861290" lon="37.3698270">
    <ele>5195.3</ele>
    <time>2026-06-23T00:39:20Z</time>
   </trkpt>
   <trkpt lat="-3.0861280" lon="37.3698280">
    <ele>5195.3</ele>
    <time>2026-06-23T00:39:21Z</time>
   </trkpt>
   <trkpt lat="-3.0861250" lon="37.3698260">
    <ele>5195.4</ele>
    <time>2026-06-23T00:39:22Z</time>
   </trkpt>
   <trkpt lat="-3.0861230" lon="37.3698280">
    <ele>5195.4</ele>
    <time>2026-06-23T00:39:23Z</time>
   </trkpt>
   <trkpt lat="-3.0861200" lon="37.3698260">
    <ele>5195.5</ele>
    <time>2026-06-23T00:39:24Z</time>
   </trkpt>
   <trkpt lat="-3.0861170" lon="37.3698270">
    <ele>5195.5</ele>
    <time>2026-06-23T00:39:25Z</time>
   </trkpt>
   <trkpt lat="-3.0861140" lon="37.3698250">
    <ele>5195.6</ele>
    <time>2026-06-23T00:39:26Z</time>
   </trkpt>
   <trkpt lat="-3.0861140" lon="37.3698260">
    <ele>5195.6</ele>
    <time>2026-06-23T00:39:27Z</time>
   </trkpt>
   <trkpt lat="-3.0861100" lon="37.3698240">
    <ele>5195.7</ele>
    <time>2026-06-23T00:39:28Z</time>
   </trkpt>
   <trkpt lat="-3.0861090" lon="37.3698220">
    <ele>5195.7</ele>
    <time>2026-06-23T00:39:29Z</time>
   </trkpt>
   <trkpt lat="-3.0861080" lon="37.3698190">
    <ele>5195.8</ele>
    <time>2026-06-23T00:39:30Z</time>
   </trkpt>
   <trkpt lat="-3.0861080" lon="37.3698190">
    <ele>5195.8</ele>
    <time>2026-06-23T00:39:31Z</time>
   </trkpt>
   <trkpt lat="-3.0861080" lon="37.3698170">
    <ele>5195.8</ele>
    <time>2026-06-23T00:39:32Z</time>
   </trkpt>
   <trkpt lat="-3.0861120" lon="37.3698160">
    <ele>5195.9</ele>
    <time>2026-06-23T00:39:33Z</time>
   </trkpt>
   <trkpt lat="-3.0861120" lon="37.3698140">
    <ele>5195.9</ele>
    <time>2026-06-23T00:39:34Z</time>
   </trkpt>
   <trkpt lat="-3.0861140" lon="37.3698120">
    <ele>5196.0</ele>
    <time>2026-06-23T00:39:35Z</time>
   </trkpt>
   <trkpt lat="-3.0861170" lon="37.3698110">
    <ele>5196.0</ele>
    <time>2026-06-23T00:39:36Z</time>
   </trkpt>
   <trkpt lat="-3.0861170" lon="37.3698090">
    <ele>5196.1</ele>
    <time>2026-06-23T00:39:37Z</time>
   </trkpt>
   <trkpt lat="-3.0861180" lon="37.3698060">
    <ele>5196.1</ele>
    <time>2026-06-23T00:39:38Z</time>
   </trkpt>
   <trkpt lat="-3.0861190" lon="37.3698040">
    <ele>5196.2</ele>
    <time>2026-06-23T00:39:39Z</time>
   </trkpt>
   <trkpt lat="-3.0861190" lon="37.3698010">
    <ele>5196.2</ele>
    <time>2026-06-23T00:39:40Z</time>
   </trkpt>
   <trkpt lat="-3.0861180" lon="37.3698000">
    <ele>5196.2</ele>
    <time>2026-06-23T00:39:41Z</time>
   </trkpt>
   <trkpt lat="-3.0861190" lon="37.3697970">
    <ele>5196.3</ele>
    <time>2026-06-23T00:39:42Z</time>
   </trkpt>
   <trkpt lat="-3.0861180" lon="37.3697960">
    <ele>5196.3</ele>
    <time>2026-06-23T00:39:43Z</time>
   </trkpt>
   <trkpt lat="-3.0861200" lon="37.3697930">
    <ele>5196.4</ele>
    <time>2026-06-23T00:39:44Z</time>
   </trkpt>
   <trkpt lat="-3.0861210" lon="37.3697910">
    <ele>5196.4</ele>
    <time>2026-06-23T00:39:45Z</time>
   </trkpt>
   <trkpt lat="-3.0861240" lon="37.3697890">
    <ele>5196.5</ele>
    <time>2026-06-23T00:39:46Z</time>
   </trkpt>
   <trkpt lat="-3.0861250" lon="37.3697880">
    <ele>5196.5</ele>
    <time>2026-06-23T00:39:47Z</time>
   </trkpt>
   <trkpt lat="-3.0861260" lon="37.3697840">
    <ele>5196.6</ele>
    <time>2026-06-23T00:39:48Z</time>
   </trkpt>
   <trkpt lat="-3.0861270" lon="37.3697820">
    <ele>5196.6</ele>
    <time>2026-06-23T00:39:49Z</time>
   </trkpt>
   <trkpt lat="-3.0861290" lon="37.3697790">
    <ele>5196.7</ele>
    <time>2026-06-23T00:39:50Z</time>
   </trkpt>
   <trkpt lat="-3.0861310" lon="37.3697770">
    <ele>5196.7</ele>
    <time>2026-06-23T00:39:51Z</time>
   </trkpt>
   <trkpt lat="-3.0861330" lon="37.3697770">
    <ele>5196.8</ele>
    <time>2026-06-23T00:39:53Z</time>
   </trkpt>
   <trkpt lat="-3.0861340" lon="37.3697750">
    <ele>5196.8</ele>
    <time>2026-06-23T00:39:54Z</time>
   </trkpt>
   <trkpt lat="-3.0861350" lon="37.3697750">
    <ele>5196.8</ele>
    <time>2026-06-23T00:39:55Z</time>
   </trkpt>
   <trkpt lat="-3.0861360" lon="37.3697740">
    <ele>5196.9</ele>
    <time>2026-06-23T00:39:56Z</time>
   </trkpt>
   <trkpt lat="-3.0861370" lon="37.3697720">
    <ele>5196.9</ele>
    <time>2026-06-23T00:39:57Z</time>
   </trkpt>
   <trkpt lat="-3.0861370" lon="37.3697690">
    <ele>5196.9</ele>
    <time>2026-06-23T00:39:58Z</time>
   </trkpt>
   <trkpt lat="-3.0861390" lon="37.3697650">
    <ele>5197.0</ele>
    <time>2026-06-23T00:39:59Z</time>
   </trkpt>
   <trkpt lat="-3.0861380" lon="37.3697630">
    <ele>5197.1</ele>
    <time>2026-06-23T00:40:00Z</time>
   </trkpt>
   <trkpt lat="-3.0861380" lon="37.3697610">
    <ele>5197.1</ele>
    <time>2026-06-23T00:40:01Z</time>
   </trkpt>
   <trkpt lat="-3.0861370" lon="37.3697600">
    <ele>5197.1</ele>
    <time>2026-06-23T00:40:02Z</time>
   </trkpt>
   <trkpt lat="-3.0861340" lon="37.3697580">
    <ele>5197.2</ele>
    <time>2026-06-23T00:40:03Z</time>
   </trkpt>
   <trkpt lat="-3.0861320" lon="37.3697570">
    <ele>5197.2</ele>
    <time>2026-06-23T00:40:04Z</time>
   </trkpt>
   <trkpt lat="-3.0861320" lon="37.3697570">
    <ele>5197.2</ele>
    <time>2026-06-23T00:40:05Z</time>
   </trkpt>
   <trkpt lat="-3.0861300" lon="37.3697540">
    <ele>5197.3</ele>
    <time>2026-06-23T00:40:06Z</time>
   </trkpt>
   <trkpt lat="-3.0861310" lon="37.3697510">
    <ele>5197.3</ele>
    <time>2026-06-23T00:40:07Z</time>
   </trkpt>
   <trkpt lat="-3.0861330" lon="37.3697500">
    <ele>5197.4</ele>
    <time>2026-06-23T00:40:08Z</time>
   </trkpt>
   <trkpt lat="-3.0861340" lon="37.3697480">
    <ele>5197.4</ele>
    <time>2026-06-23T00:40:09Z</time>
   </trkpt>
   <trkpt lat="-3.0861350" lon="37.3697470">
    <ele>5197.4</ele>
    <time>2026-06-23T00:40:10Z</time>
   </trkpt>
   <trkpt lat="-3.0861350" lon="37.3697450">
    <ele>5197.5</ele>
    <time>2026-06-23T00:40:11Z</time>
   </trkpt>
   <trkpt lat="-3.0861350" lon="37.3697450">
    <ele>5197.5</ele>
    <time>2026-06-23T00:40:12Z</time>
   </trkpt>
   <trkpt lat="-3.0861360" lon="37.3697450">
    <ele>5197.5</ele>
    <time>2026-06-23T00:40:13Z</time>
   </trkpt>
   <trkpt lat="-3.0861360" lon="37.3697430">
    <ele>5197.5</ele>
    <time>2026-06-23T00:40:14Z</time>
   </trkpt>
   <trkpt lat="-3.0861350" lon="37.3697420">
    <ele>5197.6</ele>
    <time>2026-06-23T00:40:15Z</time>
   </trkpt>
   <trkpt lat="-3.0861370" lon="37.3697410">
    <ele>5197.6</ele>
    <time>2026-06-23T00:40:16Z</time>
   </trkpt>
   <trkpt lat="-3.0861390" lon="37.3697390">
    <ele>5197.6</ele>
    <time>2026-06-23T00:40:17Z</time>
   </trkpt>
   <trkpt lat="-3.0861400" lon="37.3697380">
    <ele>5197.7</ele>
    <time>2026-06-23T00:40:18Z</time>
   </trkpt>
   <trkpt lat="-3.0861420" lon="37.3697370">
    <ele>5197.7</ele>
    <time>2026-06-23T00:40:19Z</time>
   </trkpt>
   <trkpt lat="-3.0861440" lon="37.3697340">
    <ele>5197.8</ele>
    <time>2026-06-23T00:40:20Z</time>
   </trkpt>
   <trkpt lat="-3.0861450" lon="37.3697290">
    <ele>5197.9</ele>
    <time>2026-06-23T00:40:21Z</time>
   </trkpt>
   <trkpt lat="-3.0861440" lon="37.3697270">
    <ele>5197.9</ele>
    <time>2026-06-23T00:40:22Z</time>
   </trkpt>
   <trkpt lat="-3.0861420" lon="37.3697240">
    <ele>5198.0</ele>
    <time>2026-06-23T00:40:23Z</time>
   </trkpt>
   <trkpt lat="-3.0861410" lon="37.3697230">
    <ele>5198.0</ele>
    <time>2026-06-23T00:40:24Z</time>
   </trkpt>
   <trkpt lat="-3.0861400" lon="37.3697230">
    <ele>5198.0</ele>
    <time>2026-06-23T00:40:25Z</time>
   </trkpt>
   <trkpt lat="-3.0861380" lon="37.3697210">
    <ele>5198.1</ele>
    <time>2026-06-23T00:40:26Z</time>
   </trkpt>
   <trkpt lat="-3.0861350" lon="37.3697200">
    <ele>5198.2</ele>
    <time>2026-06-23T00:40:27Z</time>
   </trkpt>
   <trkpt lat="-3.0861360" lon="37.3697210">
    <ele>5198.2</ele>
    <time>2026-06-23T00:40:28Z</time>
   </trkpt>
   <trkpt lat="-3.0861340" lon="37.3697190">
    <ele>5198.3</ele>
    <time>2026-06-23T00:40:29Z</time>
   </trkpt>
   <trkpt lat="-3.0861340" lon="37.3697200">
    <ele>5198.3</ele>
    <time>2026-06-23T00:40:30Z</time>
   </trkpt>
   <trkpt lat="-3.0861320" lon="37.3697210">
    <ele>5198.4</ele>
    <time>2026-06-23T00:40:31Z</time>
   </trkpt>
   <trkpt lat="-3.0861310" lon="37.3697220">
    <ele>5198.4</ele>
    <time>2026-06-23T00:40:32Z</time>
   </trkpt>
   <trkpt lat="-3.0861290" lon="37.3697230">
    <ele>5198.4</ele>
    <time>2026-06-23T00:40:33Z</time>
   </trkpt>
   <trkpt lat="-3.0861280" lon="37.3697220">
    <ele>5198.5</ele>
    <time>2026-06-23T00:40:34Z</time>
   </trkpt>
   <trkpt lat="-3.0861260" lon="37.3697220">
    <ele>5198.5</ele>
    <time>2026-06-23T00:40:35Z</time>
   </trkpt>
   <trkpt lat="-3.0861230" lon="37.3697250">
    <ele>5198.6</ele>
    <time>2026-06-23T00:40:36Z</time>
   </trkpt>
   <trkpt lat="-3.0861220" lon="37.3697240">
    <ele>5198.6</ele>
    <time>2026-06-23T00:40:37Z</time>
   </trkpt>
   <trkpt lat="-3.0861200" lon="37.3697260">
    <ele>5198.7</ele>
    <time>2026-06-23T00:40:38Z</time>
   </trkpt>
   <trkpt lat="-3.0861180" lon="37.3697260">
    <ele>5198.8</ele>
    <time>2026-06-23T00:40:39Z</time>
   </trkpt>
   <trkpt lat="-3.0861160" lon="37.3697270">
    <ele>5198.8</ele>
    <time>2026-06-23T00:40:40Z</time>
   </trkpt>
   <trkpt lat="-3.0861140" lon="37.3697250">
    <ele>5198.9</ele>
    <time>2026-06-23T00:40:41Z</time>
   </trkpt>
   <trkpt lat="-3.0861130" lon="37.3697240">
    <ele>5198.9</ele>
    <time>2026-06-23T00:40:42Z</time>
   </trkpt>
   <trkpt lat="-3.0861110" lon="37.3697240">
    <ele>5199.0</ele>
    <time>2026-06-23T00:40:43Z</time>
   </trkpt>
   <trkpt lat="-3.0861100" lon="37.3697230">
    <ele>5199.0</ele>
    <time>2026-06-23T00:40:44Z</time>
   </trkpt>
   <trkpt lat="-3.0861080" lon="37.3697220">
    <ele>5199.0</ele>
    <time>2026-06-23T00:40:45Z</time>
   </trkpt>
   <trkpt lat="-3.0861050" lon="37.3697260">
    <ele>5199.1</ele>
    <time>2026-06-23T00:40:46Z</time>
   </trkpt>
   <trkpt lat="-3.0861000" lon="37.3697250">
    <ele>5199.3</ele>
    <time>2026-06-23T00:40:47Z</time>
   </trkpt>
   <trkpt lat="-3.0860970" lon="37.3697260">
    <ele>5199.3</ele>
    <time>2026-06-23T00:40:48Z</time>
   </trkpt>
   <trkpt lat="-3.0860890" lon="37.3697230">
    <ele>5199.5</ele>
    <time>2026-06-23T00:40:49Z</time>
   </trkpt>
   <trkpt lat="-3.0860860" lon="37.3697220">
    <ele>5199.6</ele>
    <time>2026-06-23T00:40:50Z</time>
   </trkpt>
   <trkpt lat="-3.0860830" lon="37.3697210">
    <ele>5199.7</ele>
    <time>2026-06-23T00:40:51Z</time>
   </trkpt>
   <trkpt lat="-3.0860800" lon="37.3697200">
    <ele>5199.8</ele>
    <time>2026-06-23T00:40:52Z</time>
   </trkpt>
   <trkpt lat="-3.0860790" lon="37.3697190">
    <ele>5199.8</ele>
    <time>2026-06-23T00:40:53Z</time>
   </trkpt>
   <trkpt lat="-3.0860770" lon="37.3697190">
    <ele>5199.8</ele>
    <time>2026-06-23T00:40:54Z</time>
   </trkpt>
   <trkpt lat="-3.0860760" lon="37.3697190">
    <ele>5199.9</ele>
    <time>2026-06-23T00:40:55Z</time>
   </trkpt>
   <trkpt lat="-3.0860740" lon="37.3697180">
    <ele>5199.9</ele>
    <time>2026-06-23T00:40:56Z</time>
   </trkpt>
   <trkpt lat="-3.0860720" lon="37.3697180">
    <ele>5199.9</ele>
    <time>2026-06-23T00:40:57Z</time>
   </trkpt>
   <trkpt lat="-3.0860680" lon="37.3697160">
    <ele>5200.1</ele>
    <time>2026-06-23T00:40:58Z</time>
   </trkpt>
   <trkpt lat="-3.0860670" lon="37.3697170">
    <ele>5200.1</ele>
    <time>2026-06-23T00:40:59Z</time>
   </trkpt>
   <trkpt lat="-3.0860640" lon="37.3697160">
    <ele>5200.2</ele>
    <time>2026-06-23T00:41:00Z</time>
   </trkpt>
   <trkpt lat="-3.0860620" lon="37.3697170">
    <ele>5200.2</ele>
    <time>2026-06-23T00:41:01Z</time>
   </trkpt>
   <trkpt lat="-3.0860620" lon="37.3697170">
    <ele>5200.2</ele>
    <time>2026-06-23T00:41:02Z</time>
   </trkpt>
   <trkpt lat="-3.0860600" lon="37.3697180">
    <ele>5200.3</ele>
    <time>2026-06-23T00:41:03Z</time>
   </trkpt>
   <trkpt lat="-3.0860590" lon="37.3697200">
    <ele>5200.3</ele>
    <time>2026-06-23T00:41:04Z</time>
   </trkpt>
   <trkpt lat="-3.0860560" lon="37.3697200">
    <ele>5200.4</ele>
    <time>2026-06-23T00:41:05Z</time>
   </trkpt>
   <trkpt lat="-3.0860550" lon="37.3697210">
    <ele>5200.4</ele>
    <time>2026-06-23T00:41:06Z</time>
   </trkpt>
   <trkpt lat="-3.0860520" lon="37.3697210">
    <ele>5200.5</ele>
    <time>2026-06-23T00:41:07Z</time>
   </trkpt>
   <trkpt lat="-3.0860500" lon="37.3697210">
    <ele>5200.5</ele>
    <time>2026-06-23T00:41:08Z</time>
   </trkpt>
   <trkpt lat="-3.0860470" lon="37.3697200">
    <ele>5200.6</ele>
    <time>2026-06-23T00:41:09Z</time>
   </trkpt>
   <trkpt lat="-3.0860460" lon="37.3697200">
    <ele>5200.6</ele>
    <time>2026-06-23T00:41:10Z</time>
   </trkpt>
   <trkpt lat="-3.0860420" lon="37.3697170">
    <ele>5200.7</ele>
    <time>2026-06-23T00:41:11Z</time>
   </trkpt>
   <trkpt lat="-3.0860400" lon="37.3697170">
    <ele>5200.8</ele>
    <time>2026-06-23T00:41:12Z</time>
   </trkpt>
   <trkpt lat="-3.0860380" lon="37.3697150">
    <ele>5200.8</ele>
    <time>2026-06-23T00:41:13Z</time>
   </trkpt>
   <trkpt lat="-3.0860350" lon="37.3697140">
    <ele>5200.9</ele>
    <time>2026-06-23T00:41:14Z</time>
   </trkpt>
   <trkpt lat="-3.0860290" lon="37.3697170">
    <ele>5201.1</ele>
    <time>2026-06-23T00:41:15Z</time>
   </trkpt>
   <trkpt lat="-3.0860310" lon="37.3697130">
    <ele>5201.2</ele>
    <time>2026-06-23T00:41:16Z</time>
   </trkpt>
   <trkpt lat="-3.0860270" lon="37.3697110">
    <ele>5201.3</ele>
    <time>2026-06-23T00:41:17Z</time>
   </trkpt>
   <trkpt lat="-3.0860260" lon="37.3697110">
    <ele>5201.3</ele>
    <time>2026-06-23T00:41:18Z</time>
   </trkpt>
   <trkpt lat="-3.0860260" lon="37.3697110">
    <ele>5201.3</ele>
    <time>2026-06-23T00:41:19Z</time>
   </trkpt>
   <trkpt lat="-3.0860250" lon="37.3697110">
    <ele>5201.3</ele>
    <time>2026-06-23T00:41:20Z</time>
   </trkpt>
   <trkpt lat="-3.0860260" lon="37.3697110">
    <ele>5201.3</ele>
    <time>2026-06-23T00:41:21Z</time>
   </trkpt>
   <trkpt lat="-3.0860230" lon="37.3697100">
    <ele>5201.4</ele>
    <time>2026-06-23T00:41:22Z</time>
   </trkpt>
   <trkpt lat="-3.0860220" lon="37.3697110">
    <ele>5201.4</ele>
    <time>2026-06-23T00:41:23Z</time>
   </trkpt>
   <trkpt lat="-3.0860180" lon="37.3697110">
    <ele>5201.5</ele>
    <time>2026-06-23T00:41:24Z</time>
   </trkpt>
   <trkpt lat="-3.0860170" lon="37.3697120">
    <ele>5201.6</ele>
    <time>2026-06-23T00:41:25Z</time>
   </trkpt>
   <trkpt lat="-3.0860140" lon="37.3697090">
    <ele>5201.7</ele>
    <time>2026-06-23T00:41:26Z</time>
   </trkpt>
   <trkpt lat="-3.0860120" lon="37.3697070">
    <ele>5201.7</ele>
    <time>2026-06-23T00:41:27Z</time>
   </trkpt>
   <trkpt lat="-3.0860140" lon="37.3697040">
    <ele>5201.8</ele>
    <time>2026-06-23T00:41:28Z</time>
   </trkpt>
   <trkpt lat="-3.0860140" lon="37.3697040">
    <ele>5201.8</ele>
    <time>2026-06-23T00:41:29Z</time>
   </trkpt>
   <trkpt lat="-3.0860170" lon="37.3697000">
    <ele>5201.9</ele>
    <time>2026-06-23T00:41:30Z</time>
   </trkpt>
   <trkpt lat="-3.0860160" lon="37.3696980">
    <ele>5202.0</ele>
    <time>2026-06-23T00:41:31Z</time>
   </trkpt>
   <trkpt lat="-3.0860170" lon="37.3696950">
    <ele>5202.1</ele>
    <time>2026-06-23T00:41:32Z</time>
   </trkpt>
   <trkpt lat="-3.0860170" lon="37.3696900">
    <ele>5202.2</ele>
    <time>2026-06-23T00:41:33Z</time>
   </trkpt>
   <trkpt lat="-3.0860180" lon="37.3696900">
    <ele>5202.2</ele>
    <time>2026-06-23T00:41:34Z</time>
   </trkpt>
   <trkpt lat="-3.0860200" lon="37.3696890">
    <ele>5202.2</ele>
    <time>2026-06-23T00:41:35Z</time>
   </trkpt>
   <trkpt lat="-3.0860220" lon="37.3696870">
    <ele>5202.3</ele>
    <time>2026-06-23T00:41:36Z</time>
   </trkpt>
   <trkpt lat="-3.0860190" lon="37.3696840">
    <ele>5202.4</ele>
    <time>2026-06-23T00:41:37Z</time>
   </trkpt>
   <trkpt lat="-3.0860220" lon="37.3696810">
    <ele>5202.5</ele>
    <time>2026-06-23T00:41:38Z</time>
   </trkpt>
   <trkpt lat="-3.0860200" lon="37.3696790">
    <ele>5202.6</ele>
    <time>2026-06-23T00:41:39Z</time>
   </trkpt>
   <trkpt lat="-3.0860180" lon="37.3696770">
    <ele>5202.6</ele>
    <time>2026-06-23T00:41:40Z</time>
   </trkpt>
   <trkpt lat="-3.0860170" lon="37.3696760">
    <ele>5202.7</ele>
    <time>2026-06-23T00:41:41Z</time>
   </trkpt>
   <trkpt lat="-3.0860160" lon="37.3696750">
    <ele>5202.7</ele>
    <time>2026-06-23T00:41:42Z</time>
   </trkpt>
   <trkpt lat="-3.0860150" lon="37.3696750">
    <ele>5202.7</ele>
    <time>2026-06-23T00:41:43Z</time>
   </trkpt>
   <trkpt lat="-3.0860140" lon="37.3696750">
    <ele>5202.7</ele>
    <time>2026-06-23T00:41:44Z</time>
   </trkpt>
   <trkpt lat="-3.0860140" lon="37.3696740">
    <ele>5202.8</ele>
    <time>2026-06-23T00:41:45Z</time>
   </trkpt>
   <trkpt lat="-3.0860090" lon="37.3696740">
    <ele>5202.9</ele>
    <time>2026-06-23T00:41:46Z</time>
   </trkpt>
   <trkpt lat="-3.0860080" lon="37.3696720">
    <ele>5202.9</ele>
    <time>2026-06-23T00:41:47Z</time>
   </trkpt>
   <trkpt lat="-3.0860050" lon="37.3696730">
    <ele>5203.0</ele>
    <time>2026-06-23T00:41:48Z</time>
   </trkpt>
   <trkpt lat="-3.0860030" lon="37.3696720">
    <ele>5203.0</ele>
    <time>2026-06-23T00:41:49Z</time>
   </trkpt>
   <trkpt lat="-3.0860010" lon="37.3696740">
    <ele>5203.1</ele>
    <time>2026-06-23T00:41:50Z</time>
   </trkpt>
   <trkpt lat="-3.0859990" lon="37.3696720">
    <ele>5203.2</ele>
    <time>2026-06-23T00:41:51Z</time>
   </trkpt>
   <trkpt lat="-3.0859970" lon="37.3696740">
    <ele>5203.2</ele>
    <time>2026-06-23T00:41:52Z</time>
   </trkpt>
   <trkpt lat="-3.0859940" lon="37.3696740">
    <ele>5203.3</ele>
    <time>2026-06-23T00:41:53Z</time>
   </trkpt>
   <trkpt lat="-3.0859920" lon="37.3696750">
    <ele>5203.3</ele>
    <time>2026-06-23T00:41:54Z</time>
   </trkpt>
   <trkpt lat="-3.0859910" lon="37.3696760">
    <ele>5203.4</ele>
    <time>2026-06-23T00:41:55Z</time>
   </trkpt>
   <trkpt lat="-3.0859900" lon="37.3696770">
    <ele>5203.4</ele>
    <time>2026-06-23T00:41:56Z</time>
   </trkpt>
   <trkpt lat="-3.0859880" lon="37.3696770">
    <ele>5203.4</ele>
    <time>2026-06-23T00:41:57Z</time>
   </trkpt>
   <trkpt lat="-3.0859870" lon="37.3696780">
    <ele>5203.5</ele>
    <time>2026-06-23T00:41:59Z</time>
   </trkpt>
   <trkpt lat="-3.0859860" lon="37.3696810">
    <ele>5203.5</ele>
    <time>2026-06-23T00:42:00Z</time>
   </trkpt>
   <trkpt lat="-3.0859850" lon="37.3696810">
    <ele>5203.6</ele>
    <time>2026-06-23T00:42:01Z</time>
   </trkpt>
   <trkpt lat="-3.0859850" lon="37.3696810">
    <ele>5203.6</ele>
    <time>2026-06-23T00:42:02Z</time>
   </trkpt>
   <trkpt lat="-3.0859830" lon="37.3696800">
    <ele>5203.6</ele>
    <time>2026-06-23T00:42:03Z</time>
   </trkpt>
   <trkpt lat="-3.0859830" lon="37.3696820">
    <ele>5203.7</ele>
    <time>2026-06-23T00:42:04Z</time>
   </trkpt>
   <trkpt lat="-3.0859790" lon="37.3696830">
    <ele>5203.7</ele>
    <time>2026-06-23T00:42:05Z</time>
   </trkpt>
   <trkpt lat="-3.0859780" lon="37.3696850">
    <ele>5203.8</ele>
    <time>2026-06-23T00:42:06Z</time>
   </trkpt>
   <trkpt lat="-3.0859740" lon="37.3696850">
    <ele>5203.9</ele>
    <time>2026-06-23T00:42:07Z</time>
   </trkpt>
   <trkpt lat="-3.0859740" lon="37.3696830">
    <ele>5203.9</ele>
    <time>2026-06-23T00:42:08Z</time>
   </trkpt>
   <trkpt lat="-3.0859710" lon="37.3696810">
    <ele>5204.0</ele>
    <time>2026-06-23T00:42:09Z</time>
   </trkpt>
   <trkpt lat="-3.0859700" lon="37.3696810">
    <ele>5204.0</ele>
    <time>2026-06-23T00:42:10Z</time>
   </trkpt>
   <trkpt lat="-3.0859690" lon="37.3696790">
    <ele>5204.1</ele>
    <time>2026-06-23T00:42:11Z</time>
   </trkpt>
   <trkpt lat="-3.0859680" lon="37.3696780">
    <ele>5204.1</ele>
    <time>2026-06-23T00:42:12Z</time>
   </trkpt>
   <trkpt lat="-3.0859690" lon="37.3696750">
    <ele>5204.2</ele>
    <time>2026-06-23T00:42:13Z</time>
   </trkpt>
   <trkpt lat="-3.0859700" lon="37.3696730">
    <ele>5204.2</ele>
    <time>2026-06-23T00:42:14Z</time>
   </trkpt>
   <trkpt lat="-3.0859710" lon="37.3696690">
    <ele>5204.3</ele>
    <time>2026-06-23T00:42:15Z</time>
   </trkpt>
   <trkpt lat="-3.0859690" lon="37.3696670">
    <ele>5204.4</ele>
    <time>2026-06-23T00:42:16Z</time>
   </trkpt>
   <trkpt lat="-3.0859680" lon="37.3696640">
    <ele>5204.4</ele>
    <time>2026-06-23T00:42:17Z</time>
   </trkpt>
   <trkpt lat="-3.0859680" lon="37.3696630">
    <ele>5204.5</ele>
    <time>2026-06-23T00:42:18Z</time>
   </trkpt>
   <trkpt lat="-3.0859660" lon="37.3696610">
    <ele>5204.5</ele>
    <time>2026-06-23T00:42:19Z</time>
   </trkpt>
   <trkpt lat="-3.0859650" lon="37.3696580">
    <ele>5204.6</ele>
    <time>2026-06-23T00:42:20Z</time>
   </trkpt>
   <trkpt lat="-3.0859620" lon="37.3696570">
    <ele>5204.7</ele>
    <time>2026-06-23T00:42:21Z</time>
   </trkpt>
   <trkpt lat="-3.0859630" lon="37.3696570">
    <ele>5204.7</ele>
    <time>2026-06-23T00:42:22Z</time>
   </trkpt>
   <trkpt lat="-3.0859630" lon="37.3696570">
    <ele>5204.7</ele>
    <time>2026-06-23T00:42:23Z</time>
   </trkpt>
   <trkpt lat="-3.0859620" lon="37.3696560">
    <ele>5204.7</ele>
    <time>2026-06-23T00:42:24Z</time>
   </trkpt>
   <trkpt lat="-3.0859630" lon="37.3696550">
    <ele>5204.8</ele>
    <time>2026-06-23T00:42:25Z</time>
   </trkpt>
   <trkpt lat="-3.0859630" lon="37.3696560">
    <ele>5204.8</ele>
    <time>2026-06-23T00:42:26Z</time>
   </trkpt>
   <trkpt lat="-3.0859620" lon="37.3696550">
    <ele>5204.8</ele>
    <time>2026-06-23T00:42:27Z</time>
   </trkpt>
   <trkpt lat="-3.0859630" lon="37.3696550">
    <ele>5204.8</ele>
    <time>2026-06-23T00:42:28Z</time>
   </trkpt>
   <trkpt lat="-3.0859620" lon="37.3696530">
    <ele>5204.9</ele>
    <time>2026-06-23T00:42:29Z</time>
   </trkpt>
   <trkpt lat="-3.0859610" lon="37.3696520">
    <ele>5204.9</ele>
    <time>2026-06-23T00:42:30Z</time>
   </trkpt>
   <trkpt lat="-3.0859590" lon="37.3696480">
    <ele>5205.0</ele>
    <time>2026-06-23T00:42:31Z</time>
   </trkpt>
   <trkpt lat="-3.0859580" lon="37.3696440">
    <ele>5205.1</ele>
    <time>2026-06-23T00:42:32Z</time>
   </trkpt>
   <trkpt lat="-3.0859580" lon="37.3696410">
    <ele>5205.2</ele>
    <time>2026-06-23T00:42:33Z</time>
   </trkpt>
   <trkpt lat="-3.0859590" lon="37.3696380">
    <ele>5205.2</ele>
    <time>2026-06-23T00:42:34Z</time>
   </trkpt>
   <trkpt lat="-3.0859600" lon="37.3696390">
    <ele>5205.3</ele>
    <time>2026-06-23T00:42:35Z</time>
   </trkpt>
   <trkpt lat="-3.0859600" lon="37.3696400">
    <ele>5205.3</ele>
    <time>2026-06-23T00:42:36Z</time>
   </trkpt>
   <trkpt lat="-3.0859600" lon="37.3696400">
    <ele>5205.3</ele>
    <time>2026-06-23T00:42:37Z</time>
   </trkpt>
   <trkpt lat="-3.0859620" lon="37.3696390">
    <ele>5205.3</ele>
    <time>2026-06-23T00:42:38Z</time>
   </trkpt>
   <trkpt lat="-3.0859620" lon="37.3696390">
    <ele>5205.3</ele>
    <time>2026-06-23T00:42:39Z</time>
   </trkpt>
   <trkpt lat="-3.0859630" lon="37.3696380">
    <ele>5205.4</ele>
    <time>2026-06-23T00:42:40Z</time>
   </trkpt>
   <trkpt lat="-3.0859650" lon="37.3696360">
    <ele>5205.4</ele>
    <time>2026-06-23T00:42:41Z</time>
   </trkpt>
   <trkpt lat="-3.0859680" lon="37.3696350">
    <ele>5205.5</ele>
    <time>2026-06-23T00:42:42Z</time>
   </trkpt>
   <trkpt lat="-3.0859700" lon="37.3696310">
    <ele>5205.6</ele>
    <time>2026-06-23T00:42:43Z</time>
   </trkpt>
   <trkpt lat="-3.0859720" lon="37.3696280">
    <ele>5205.7</ele>
    <time>2026-06-23T00:42:44Z</time>
   </trkpt>
   <trkpt lat="-3.0859750" lon="37.3696260">
    <ele>5205.8</ele>
    <time>2026-06-23T00:42:45Z</time>
   </trkpt>
   <trkpt lat="-3.0859780" lon="37.3696230">
    <ele>5205.8</ele>
    <time>2026-06-23T00:42:46Z</time>
   </trkpt>
   <trkpt lat="-3.0859800" lon="37.3696200">
    <ele>5205.9</ele>
    <time>2026-06-23T00:42:47Z</time>
   </trkpt>
   <trkpt lat="-3.0859810" lon="37.3696190">
    <ele>5206.0</ele>
    <time>2026-06-23T00:42:48Z</time>
   </trkpt>
   <trkpt lat="-3.0859820" lon="37.3696170">
    <ele>5206.0</ele>
    <time>2026-06-23T00:42:49Z</time>
   </trkpt>
   <trkpt lat="-3.0859810" lon="37.3696150">
    <ele>5206.1</ele>
    <time>2026-06-23T00:42:50Z</time>
   </trkpt>
   <trkpt lat="-3.0859820" lon="37.3696130">
    <ele>5206.1</ele>
    <time>2026-06-23T00:42:51Z</time>
   </trkpt>
   <trkpt lat="-3.0859820" lon="37.3696090">
    <ele>5206.2</ele>
    <time>2026-06-23T00:42:52Z</time>
   </trkpt>
   <trkpt lat="-3.0859810" lon="37.3696060">
    <ele>5206.3</ele>
    <time>2026-06-23T00:42:53Z</time>
   </trkpt>
   <trkpt lat="-3.0859790" lon="37.3696050">
    <ele>5206.3</ele>
    <time>2026-06-23T00:42:54Z</time>
   </trkpt>
   <trkpt lat="-3.0859780" lon="37.3696030">
    <ele>5206.4</ele>
    <time>2026-06-23T00:42:55Z</time>
   </trkpt>
   <trkpt lat="-3.0859760" lon="37.3696030">
    <ele>5206.4</ele>
    <time>2026-06-23T00:42:56Z</time>
   </trkpt>
   <trkpt lat="-3.0859740" lon="37.3696030">
    <ele>5206.5</ele>
    <time>2026-06-23T00:42:57Z</time>
   </trkpt>
   <trkpt lat="-3.0859720" lon="37.3696030">
    <ele>5206.5</ele>
    <time>2026-06-23T00:42:58Z</time>
   </trkpt>
   <trkpt lat="-3.0859700" lon="37.3696000">
    <ele>5206.6</ele>
    <time>2026-06-23T00:42:59Z</time>
   </trkpt>
   <trkpt lat="-3.0859680" lon="37.3696000">
    <ele>5206.6</ele>
    <time>2026-06-23T00:43:00Z</time>
   </trkpt>
   <trkpt lat="-3.0859660" lon="37.3696010">
    <ele>5206.7</ele>
    <time>2026-06-23T00:43:01Z</time>
   </trkpt>
   <trkpt lat="-3.0859630" lon="37.3696030">
    <ele>5206.7</ele>
    <time>2026-06-23T00:43:02Z</time>
   </trkpt>
   <trkpt lat="-3.0859600" lon="37.3696040">
    <ele>5206.8</ele>
    <time>2026-06-23T00:43:03Z</time>
   </trkpt>
   <trkpt lat="-3.0859590" lon="37.3696060">
    <ele>5206.9</ele>
    <time>2026-06-23T00:43:04Z</time>
   </trkpt>
   <trkpt lat="-3.0859590" lon="37.3696060">
    <ele>5206.9</ele>
    <time>2026-06-23T00:43:05Z</time>
   </trkpt>
   <trkpt lat="-3.0859570" lon="37.3696070">
    <ele>5206.9</ele>
    <time>2026-06-23T00:43:06Z</time>
   </trkpt>
   <trkpt lat="-3.0859550" lon="37.3696080">
    <ele>5207.0</ele>
    <time>2026-06-23T00:43:07Z</time>
   </trkpt>
   <trkpt lat="-3.0859520" lon="37.3696100">
    <ele>5207.0</ele>
    <time>2026-06-23T00:43:08Z</time>
   </trkpt>
   <trkpt lat="-3.0859500" lon="37.3696090">
    <ele>5207.1</ele>
    <time>2026-06-23T00:43:09Z</time>
   </trkpt>
   <trkpt lat="-3.0859500" lon="37.3696090">
    <ele>5207.1</ele>
    <time>2026-06-23T00:43:10Z</time>
   </trkpt>
   <trkpt lat="-3.0859460" lon="37.3696090">
    <ele>5207.2</ele>
    <time>2026-06-23T00:43:11Z</time>
   </trkpt>
   <trkpt lat="-3.0859450" lon="37.3696090">
    <ele>5207.2</ele>
    <time>2026-06-23T00:43:12Z</time>
   </trkpt>
   <trkpt lat="-3.0859440" lon="37.3696100">
    <ele>5207.2</ele>
    <time>2026-06-23T00:43:13Z</time>
   </trkpt>
   <trkpt lat="-3.0859400" lon="37.3696090">
    <ele>5207.3</ele>
    <time>2026-06-23T00:43:14Z</time>
   </trkpt>
   <trkpt lat="-3.0859390" lon="37.3696100">
    <ele>5207.3</ele>
    <time>2026-06-23T00:43:15Z</time>
   </trkpt>
   <trkpt lat="-3.0859360" lon="37.3696090">
    <ele>5207.4</ele>
    <time>2026-06-23T00:43:16Z</time>
   </trkpt>
   <trkpt lat="-3.0859340" lon="37.3696090">
    <ele>5207.5</ele>
    <time>2026-06-23T00:43:17Z</time>
   </trkpt>
   <trkpt lat="-3.0859330" lon="37.3696080">
    <ele>5207.5</ele>
    <time>2026-06-23T00:43:18Z</time>
   </trkpt>
   <trkpt lat="-3.0859330" lon="37.3696090">
    <ele>5207.5</ele>
    <time>2026-06-23T00:43:19Z</time>
   </trkpt>
   <trkpt lat="-3.0859320" lon="37.3696080">
    <ele>5207.5</ele>
    <time>2026-06-23T00:43:20Z</time>
   </trkpt>
   <trkpt lat="-3.0859310" lon="37.3696090">
    <ele>5207.6</ele>
    <time>2026-06-23T00:43:21Z</time>
   </trkpt>
   <trkpt lat="-3.0859300" lon="37.3696070">
    <ele>5207.6</ele>
    <time>2026-06-23T00:43:22Z</time>
   </trkpt>
   <trkpt lat="-3.0859280" lon="37.3696070">
    <ele>5207.7</ele>
    <time>2026-06-23T00:43:23Z</time>
   </trkpt>
   <trkpt lat="-3.0859250" lon="37.3696040">
    <ele>5207.8</ele>
    <time>2026-06-23T00:43:24Z</time>
   </trkpt>
   <trkpt lat="-3.0859230" lon="37.3696050">
    <ele>5207.8</ele>
    <time>2026-06-23T00:43:25Z</time>
   </trkpt>
   <trkpt lat="-3.0859210" lon="37.3696030">
    <ele>5207.9</ele>
    <time>2026-06-23T00:43:26Z</time>
   </trkpt>
   <trkpt lat="-3.0859180" lon="37.3696030">
    <ele>5207.9</ele>
    <time>2026-06-23T00:43:27Z</time>
   </trkpt>
   <trkpt lat="-3.0859170" lon="37.3696020">
    <ele>5208.0</ele>
    <time>2026-06-23T00:43:28Z</time>
   </trkpt>
   <trkpt lat="-3.0859120" lon="37.3696000">
    <ele>5208.1</ele>
    <time>2026-06-23T00:43:29Z</time>
   </trkpt>
   <trkpt lat="-3.0859100" lon="37.3696000">
    <ele>5208.1</ele>
    <time>2026-06-23T00:43:30Z</time>
   </trkpt>
   <trkpt lat="-3.0859070" lon="37.3696000">
    <ele>5208.2</ele>
    <time>2026-06-23T00:43:31Z</time>
   </trkpt>
   <trkpt lat="-3.0859060" lon="37.3696000">
    <ele>5208.2</ele>
    <time>2026-06-23T00:43:32Z</time>
   </trkpt>
   <trkpt lat="-3.0859050" lon="37.3695980">
    <ele>5208.3</ele>
    <time>2026-06-23T00:43:33Z</time>
   </trkpt>
   <trkpt lat="-3.0859050" lon="37.3695980">
    <ele>5208.3</ele>
    <time>2026-06-23T00:43:34Z</time>
   </trkpt>
   <trkpt lat="-3.0859030" lon="37.3695960">
    <ele>5208.3</ele>
    <time>2026-06-23T00:43:35Z</time>
   </trkpt>
   <trkpt lat="-3.0859020" lon="37.3695940">
    <ele>5208.4</ele>
    <time>2026-06-23T00:43:36Z</time>
   </trkpt>
   <trkpt lat="-3.0858990" lon="37.3695940">
    <ele>5208.4</ele>
    <time>2026-06-23T00:43:37Z</time>
   </trkpt>
   <trkpt lat="-3.0858990" lon="37.3695940">
    <ele>5208.4</ele>
    <time>2026-06-23T00:43:38Z</time>
   </trkpt>
   <trkpt lat="-3.0858980" lon="37.3695940">
    <ele>5208.5</ele>
    <time>2026-06-23T00:43:39Z</time>
   </trkpt>
   <trkpt lat="-3.0858970" lon="37.3695950">
    <ele>5208.5</ele>
    <time>2026-06-23T00:43:40Z</time>
   </trkpt>
   <trkpt lat="-3.0858970" lon="37.3695950">
    <ele>5208.5</ele>
    <time>2026-06-23T00:43:41Z</time>
   </trkpt>
   <trkpt lat="-3.0858930" lon="37.3695970">
    <ele>5208.6</ele>
    <time>2026-06-23T00:43:42Z</time>
   </trkpt>
   <trkpt lat="-3.0858910" lon="37.3695960">
    <ele>5208.6</ele>
    <time>2026-06-23T00:43:43Z</time>
   </trkpt>
   <trkpt lat="-3.0858890" lon="37.3695970">
    <ele>5208.7</ele>
    <time>2026-06-23T00:43:44Z</time>
   </trkpt>
   <trkpt lat="-3.0858860" lon="37.3695960">
    <ele>5208.8</ele>
    <time>2026-06-23T00:43:45Z</time>
   </trkpt>
   <trkpt lat="-3.0858830" lon="37.3695960">
    <ele>5208.8</ele>
    <time>2026-06-23T00:43:46Z</time>
   </trkpt>
   <trkpt lat="-3.0858830" lon="37.3695960">
    <ele>5208.8</ele>
    <time>2026-06-23T00:43:47Z</time>
   </trkpt>
   <trkpt lat="-3.0858830" lon="37.3695940">
    <ele>5208.9</ele>
    <time>2026-06-23T00:43:48Z</time>
   </trkpt>
   <trkpt lat="-3.0858820" lon="37.3695920">
    <ele>5208.9</ele>
    <time>2026-06-23T00:43:49Z</time>
   </trkpt>
   <trkpt lat="-3.0858820" lon="37.3695900">
    <ele>5209.0</ele>
    <time>2026-06-23T00:43:50Z</time>
   </trkpt>
   <trkpt lat="-3.0858830" lon="37.3695880">
    <ele>5209.0</ele>
    <time>2026-06-23T00:43:51Z</time>
   </trkpt>
   <trkpt lat="-3.0858830" lon="37.3695860">
    <ele>5209.0</ele>
    <time>2026-06-23T00:43:52Z</time>
   </trkpt>
   <trkpt lat="-3.0858820" lon="37.3695830">
    <ele>5209.1</ele>
    <time>2026-06-23T00:43:53Z</time>
   </trkpt>
   <trkpt lat="-3.0858830" lon="37.3695810">
    <ele>5209.2</ele>
    <time>2026-06-23T00:43:54Z</time>
   </trkpt>
   <trkpt lat="-3.0858820" lon="37.3695780">
    <ele>5209.2</ele>
    <time>2026-06-23T00:43:55Z</time>
   </trkpt>
   <trkpt lat="-3.0858810" lon="37.3695740">
    <ele>5209.3</ele>
    <time>2026-06-23T00:43:56Z</time>
   </trkpt>
   <trkpt lat="-3.0858810" lon="37.3695710">
    <ele>5209.4</ele>
    <time>2026-06-23T00:43:57Z</time>
   </trkpt>
   <trkpt lat="-3.0858820" lon="37.3695670">
    <ele>5209.5</ele>
    <time>2026-06-23T00:43:58Z</time>
   </trkpt>
   <trkpt lat="-3.0858850" lon="37.3695650">
    <ele>5209.6</ele>
    <time>2026-06-23T00:43:59Z</time>
   </trkpt>
   <trkpt lat="-3.0858860" lon="37.3695630">
    <ele>5209.6</ele>
    <time>2026-06-23T00:44:00Z</time>
   </trkpt>
   <trkpt lat="-3.0858890" lon="37.3695600">
    <ele>5209.7</ele>
    <time>2026-06-23T00:44:01Z</time>
   </trkpt>
   <trkpt lat="-3.0858900" lon="37.3695590">
    <ele>5209.7</ele>
    <time>2026-06-23T00:44:02Z</time>
   </trkpt>
   <trkpt lat="-3.0858930" lon="37.3695580">
    <ele>5209.8</ele>
    <time>2026-06-23T00:44:03Z</time>
   </trkpt>
   <trkpt lat="-3.0858950" lon="37.3695560">
    <ele>5209.9</ele>
    <time>2026-06-23T00:44:05Z</time>
   </trkpt>
   <trkpt lat="-3.0858970" lon="37.3695550">
    <ele>5209.9</ele>
    <time>2026-06-23T00:44:06Z</time>
   </trkpt>
   <trkpt lat="-3.0858990" lon="37.3695530">
    <ele>5210.0</ele>
    <time>2026-06-23T00:44:07Z</time>
   </trkpt>
   <trkpt lat="-3.0859010" lon="37.3695510">
    <ele>5210.0</ele>
    <time>2026-06-23T00:44:08Z</time>
   </trkpt>
   <trkpt lat="-3.0859030" lon="37.3695490">
    <ele>5210.1</ele>
    <time>2026-06-23T00:44:09Z</time>
   </trkpt>
   <trkpt lat="-3.0859050" lon="37.3695470">
    <ele>5210.1</ele>
    <time>2026-06-23T00:44:10Z</time>
   </trkpt>
   <trkpt lat="-3.0859070" lon="37.3695450">
    <ele>5210.2</ele>
    <time>2026-06-23T00:44:11Z</time>
   </trkpt>
   <trkpt lat="-3.0859090" lon="37.3695430">
    <ele>5210.3</ele>
    <time>2026-06-23T00:44:12Z</time>
   </trkpt>
   <trkpt lat="-3.0859090" lon="37.3695400">
    <ele>5210.3</ele>
    <time>2026-06-23T00:44:13Z</time>
   </trkpt>
   <trkpt lat="-3.0859090" lon="37.3695380">
    <ele>5210.4</ele>
    <time>2026-06-23T00:44:14Z</time>
   </trkpt>
   <trkpt lat="-3.0859100" lon="37.3695370">
    <ele>5210.4</ele>
    <time>2026-06-23T00:44:15Z</time>
   </trkpt>
   <trkpt lat="-3.0859080" lon="37.3695360">
    <ele>5210.5</ele>
    <time>2026-06-23T00:44:16Z</time>
   </trkpt>
   <trkpt lat="-3.0859080" lon="37.3695330">
    <ele>5210.5</ele>
    <time>2026-06-23T00:44:17Z</time>
   </trkpt>
   <trkpt lat="-3.0859070" lon="37.3695330">
    <ele>5210.5</ele>
    <time>2026-06-23T00:44:18Z</time>
   </trkpt>
   <trkpt lat="-3.0859070" lon="37.3695320">
    <ele>5210.6</ele>
    <time>2026-06-23T00:44:19Z</time>
   </trkpt>
   <trkpt lat="-3.0859060" lon="37.3695320">
    <ele>5210.6</ele>
    <time>2026-06-23T00:44:20Z</time>
   </trkpt>
   <trkpt lat="-3.0859040" lon="37.3695320">
    <ele>5210.6</ele>
    <time>2026-06-23T00:44:21Z</time>
   </trkpt>
   <trkpt lat="-3.0859010" lon="37.3695320">
    <ele>5210.7</ele>
    <time>2026-06-23T00:44:22Z</time>
   </trkpt>
   <trkpt lat="-3.0858970" lon="37.3695310">
    <ele>5210.8</ele>
    <time>2026-06-23T00:44:23Z</time>
   </trkpt>
   <trkpt lat="-3.0858940" lon="37.3695330">
    <ele>5210.9</ele>
    <time>2026-06-23T00:44:24Z</time>
   </trkpt>
   <trkpt lat="-3.0858930" lon="37.3695320">
    <ele>5210.9</ele>
    <time>2026-06-23T00:44:25Z</time>
   </trkpt>
   <trkpt lat="-3.0858910" lon="37.3695320">
    <ele>5210.9</ele>
    <time>2026-06-23T00:44:26Z</time>
   </trkpt>
   <trkpt lat="-3.0858910" lon="37.3695330">
    <ele>5211.0</ele>
    <time>2026-06-23T00:44:27Z</time>
   </trkpt>
   <trkpt lat="-3.0858870" lon="37.3695330">
    <ele>5211.0</ele>
    <time>2026-06-23T00:44:28Z</time>
   </trkpt>
   <trkpt lat="-3.0858830" lon="37.3695330">
    <ele>5211.1</ele>
    <time>2026-06-23T00:44:29Z</time>
   </trkpt>
   <trkpt lat="-3.0858810" lon="37.3695340">
    <ele>5211.2</ele>
    <time>2026-06-23T00:44:30Z</time>
   </trkpt>
   <trkpt lat="-3.0858770" lon="37.3695330">
    <ele>5211.3</ele>
    <time>2026-06-23T00:44:31Z</time>
   </trkpt>
   <trkpt lat="-3.0858750" lon="37.3695340">
    <ele>5211.3</ele>
    <time>2026-06-23T00:44:32Z</time>
   </trkpt>
   <trkpt lat="-3.0858730" lon="37.3695330">
    <ele>5211.4</ele>
    <time>2026-06-23T00:44:33Z</time>
   </trkpt>
   <trkpt lat="-3.0858700" lon="37.3695340">
    <ele>5211.4</ele>
    <time>2026-06-23T00:44:34Z</time>
   </trkpt>
   <trkpt lat="-3.0858670" lon="37.3695360">
    <ele>5211.5</ele>
    <time>2026-06-23T00:44:35Z</time>
   </trkpt>
   <trkpt lat="-3.0858650" lon="37.3695370">
    <ele>5211.6</ele>
    <time>2026-06-23T00:44:36Z</time>
   </trkpt>
   <trkpt lat="-3.0858620" lon="37.3695390">
    <ele>5211.6</ele>
    <time>2026-06-23T00:44:37Z</time>
   </trkpt>
   <trkpt lat="-3.0858590" lon="37.3695400">
    <ele>5211.7</ele>
    <time>2026-06-23T00:44:38Z</time>
   </trkpt>
   <trkpt lat="-3.0858560" lon="37.3695410">
    <ele>5211.8</ele>
    <time>2026-06-23T00:44:39Z</time>
   </trkpt>
   <trkpt lat="-3.0858540" lon="37.3695410">
    <ele>5211.8</ele>
    <time>2026-06-23T00:44:40Z</time>
   </trkpt>
   <trkpt lat="-3.0858510" lon="37.3695430">
    <ele>5211.9</ele>
    <time>2026-06-23T00:44:41Z</time>
   </trkpt>
   <trkpt lat="-3.0858500" lon="37.3695430">
    <ele>5211.9</ele>
    <time>2026-06-23T00:44:42Z</time>
   </trkpt>
   <trkpt lat="-3.0858480" lon="37.3695440">
    <ele>5212.0</ele>
    <time>2026-06-23T00:44:43Z</time>
   </trkpt>
   <trkpt lat="-3.0858450" lon="37.3695440">
    <ele>5212.0</ele>
    <time>2026-06-23T00:44:44Z</time>
   </trkpt>
   <trkpt lat="-3.0858440" lon="37.3695440">
    <ele>5212.1</ele>
    <time>2026-06-23T00:44:45Z</time>
   </trkpt>
   <trkpt lat="-3.0858420" lon="37.3695440">
    <ele>5212.1</ele>
    <time>2026-06-23T00:44:46Z</time>
   </trkpt>
   <trkpt lat="-3.0858400" lon="37.3695450">
    <ele>5212.1</ele>
    <time>2026-06-23T00:44:47Z</time>
   </trkpt>
   <trkpt lat="-3.0858380" lon="37.3695440">
    <ele>5212.2</ele>
    <time>2026-06-23T00:44:48Z</time>
   </trkpt>
   <trkpt lat="-3.0858370" lon="37.3695450">
    <ele>5212.2</ele>
    <time>2026-06-23T00:44:49Z</time>
   </trkpt>
   <trkpt lat="-3.0858340" lon="37.3695450">
    <ele>5212.3</ele>
    <time>2026-06-23T00:44:50Z</time>
   </trkpt>
   <trkpt lat="-3.0858330" lon="37.3695480">
    <ele>5212.4</ele>
    <time>2026-06-23T00:44:51Z</time>
   </trkpt>
   <trkpt lat="-3.0858310" lon="37.3695490">
    <ele>5212.4</ele>
    <time>2026-06-23T00:44:52Z</time>
   </trkpt>
   <trkpt lat="-3.0858290" lon="37.3695510">
    <ele>5212.5</ele>
    <time>2026-06-23T00:44:53Z</time>
   </trkpt>
   <trkpt lat="-3.0858260" lon="37.3695510">
    <ele>5212.5</ele>
    <time>2026-06-23T00:44:54Z</time>
   </trkpt>
   <trkpt lat="-3.0858240" lon="37.3695510">
    <ele>5212.6</ele>
    <time>2026-06-23T00:44:55Z</time>
   </trkpt>
   <trkpt lat="-3.0858220" lon="37.3695500">
    <ele>5212.6</ele>
    <time>2026-06-23T00:44:56Z</time>
   </trkpt>
   <trkpt lat="-3.0858190" lon="37.3695500">
    <ele>5212.7</ele>
    <time>2026-06-23T00:44:57Z</time>
   </trkpt>
   <trkpt lat="-3.0858180" lon="37.3695470">
    <ele>5212.8</ele>
    <time>2026-06-23T00:44:58Z</time>
   </trkpt>
   <trkpt lat="-3.0858170" lon="37.3695450">
    <ele>5212.8</ele>
    <time>2026-06-23T00:44:59Z</time>
   </trkpt>
   <trkpt lat="-3.0858180" lon="37.3695440">
    <ele>5212.8</ele>
    <time>2026-06-23T00:45:00Z</time>
   </trkpt>
   <trkpt lat="-3.0858170" lon="37.3695400">
    <ele>5212.9</ele>
    <time>2026-06-23T00:45:01Z</time>
   </trkpt>
   <trkpt lat="-3.0858180" lon="37.3695380">
    <ele>5213.0</ele>
    <time>2026-06-23T00:45:02Z</time>
   </trkpt>
   <trkpt lat="-3.0858180" lon="37.3695350">
    <ele>5213.0</ele>
    <time>2026-06-23T00:45:03Z</time>
   </trkpt>
   <trkpt lat="-3.0858180" lon="37.3695320">
    <ele>5213.1</ele>
    <time>2026-06-23T00:45:04Z</time>
   </trkpt>
   <trkpt lat="-3.0858170" lon="37.3695310">
    <ele>5213.1</ele>
    <time>2026-06-23T00:45:05Z</time>
   </trkpt>
   <trkpt lat="-3.0858160" lon="37.3695290">
    <ele>5213.2</ele>
    <time>2026-06-23T00:45:06Z</time>
   </trkpt>
   <trkpt lat="-3.0858130" lon="37.3695280">
    <ele>5213.3</ele>
    <time>2026-06-23T00:45:07Z</time>
   </trkpt>
   <trkpt lat="-3.0858110" lon="37.3695260">
    <ele>5213.3</ele>
    <time>2026-06-23T00:45:08Z</time>
   </trkpt>
   <trkpt lat="-3.0858100" lon="37.3695240">
    <ele>5213.4</ele>
    <time>2026-06-23T00:45:09Z</time>
   </trkpt>
   <trkpt lat="-3.0858100" lon="37.3695190">
    <ele>5213.5</ele>
    <time>2026-06-23T00:45:10Z</time>
   </trkpt>
   <trkpt lat="-3.0858110" lon="37.3695170">
    <ele>5213.5</ele>
    <time>2026-06-23T00:45:11Z</time>
   </trkpt>
   <trkpt lat="-3.0858120" lon="37.3695160">
    <ele>5213.6</ele>
    <time>2026-06-23T00:45:12Z</time>
   </trkpt>
   <trkpt lat="-3.0858150" lon="37.3695130">
    <ele>5213.6</ele>
    <time>2026-06-23T00:45:13Z</time>
   </trkpt>
   <trkpt lat="-3.0858160" lon="37.3695110">
    <ele>5213.7</ele>
    <time>2026-06-23T00:45:14Z</time>
   </trkpt>
   <trkpt lat="-3.0858180" lon="37.3695100">
    <ele>5213.7</ele>
    <time>2026-06-23T00:45:15Z</time>
   </trkpt>
   <trkpt lat="-3.0858200" lon="37.3695100">
    <ele>5213.8</ele>
    <time>2026-06-23T00:45:16Z</time>
   </trkpt>
   <trkpt lat="-3.0858210" lon="37.3695090">
    <ele>5213.8</ele>
    <time>2026-06-23T00:45:17Z</time>
   </trkpt>
   <trkpt lat="-3.0858230" lon="37.3695090">
    <ele>5213.9</ele>
    <time>2026-06-23T00:45:18Z</time>
   </trkpt>
   <trkpt lat="-3.0858240" lon="37.3695080">
    <ele>5213.9</ele>
    <time>2026-06-23T00:45:19Z</time>
   </trkpt>
   <trkpt lat="-3.0858250" lon="37.3695070">
    <ele>5213.9</ele>
    <time>2026-06-23T00:45:20Z</time>
   </trkpt>
   <trkpt lat="-3.0858270" lon="37.3695060">
    <ele>5214.0</ele>
    <time>2026-06-23T00:45:21Z</time>
   </trkpt>
   <trkpt lat="-3.0858280" lon="37.3695030">
    <ele>5214.0</ele>
    <time>2026-06-23T00:45:22Z</time>
   </trkpt>
   <trkpt lat="-3.0858300" lon="37.3695020">
    <ele>5214.1</ele>
    <time>2026-06-23T00:45:23Z</time>
   </trkpt>
   <trkpt lat="-3.0858300" lon="37.3695010">
    <ele>5214.1</ele>
    <time>2026-06-23T00:45:24Z</time>
   </trkpt>
   <trkpt lat="-3.0858310" lon="37.3695000">
    <ele>5214.1</ele>
    <time>2026-06-23T00:45:25Z</time>
   </trkpt>
   <trkpt lat="-3.0858310" lon="37.3695000">
    <ele>5214.1</ele>
    <time>2026-06-23T00:45:26Z</time>
   </trkpt>
   <trkpt lat="-3.0858340" lon="37.3694990">
    <ele>5214.2</ele>
    <time>2026-06-23T00:45:27Z</time>
   </trkpt>
   <trkpt lat="-3.0858350" lon="37.3694970">
    <ele>5214.3</ele>
    <time>2026-06-23T00:45:28Z</time>
   </trkpt>
   <trkpt lat="-3.0858360" lon="37.3694950">
    <ele>5214.3</ele>
    <time>2026-06-23T00:45:29Z</time>
   </trkpt>
   <trkpt lat="-3.0858380" lon="37.3694940">
    <ele>5214.4</ele>
    <time>2026-06-23T00:45:30Z</time>
   </trkpt>
   <trkpt lat="-3.0858390" lon="37.3694930">
    <ele>5214.4</ele>
    <time>2026-06-23T00:45:31Z</time>
   </trkpt>
   <trkpt lat="-3.0858420" lon="37.3694910">
    <ele>5214.5</ele>
    <time>2026-06-23T00:45:32Z</time>
   </trkpt>
   <trkpt lat="-3.0858430" lon="37.3694890">
    <ele>5214.5</ele>
    <time>2026-06-23T00:45:33Z</time>
   </trkpt>
   <trkpt lat="-3.0858460" lon="37.3694860">
    <ele>5214.6</ele>
    <time>2026-06-23T00:45:34Z</time>
   </trkpt>
   <trkpt lat="-3.0858480" lon="37.3694840">
    <ele>5214.7</ele>
    <time>2026-06-23T00:45:35Z</time>
   </trkpt>
   <trkpt lat="-3.0858510" lon="37.3694810">
    <ele>5214.8</ele>
    <time>2026-06-23T00:45:36Z</time>
   </trkpt>
   <trkpt lat="-3.0858530" lon="37.3694790">
    <ele>5214.8</ele>
    <time>2026-06-23T00:45:37Z</time>
   </trkpt>
   <trkpt lat="-3.0858530" lon="37.3694770">
    <ele>5214.9</ele>
    <time>2026-06-23T00:45:38Z</time>
   </trkpt>
   <trkpt lat="-3.0858540" lon="37.3694740">
    <ele>5214.9</ele>
    <time>2026-06-23T00:45:39Z</time>
   </trkpt>
   <trkpt lat="-3.0858550" lon="37.3694720">
    <ele>5215.0</ele>
    <time>2026-06-23T00:45:40Z</time>
   </trkpt>
   <trkpt lat="-3.0858560" lon="37.3694700">
    <ele>5215.0</ele>
    <time>2026-06-23T00:45:41Z</time>
   </trkpt>
   <trkpt lat="-3.0858550" lon="37.3694700">
    <ele>5215.1</ele>
    <time>2026-06-23T00:45:42Z</time>
   </trkpt>
   <trkpt lat="-3.0858550" lon="37.3694700">
    <ele>5215.1</ele>
    <time>2026-06-23T00:45:43Z</time>
   </trkpt>
   <trkpt lat="-3.0858610" lon="37.3694670">
    <ele>5215.2</ele>
    <time>2026-06-23T00:45:44Z</time>
   </trkpt>
   <trkpt lat="-3.0858610" lon="37.3694680">
    <ele>5215.2</ele>
    <time>2026-06-23T00:45:45Z</time>
   </trkpt>
   <trkpt lat="-3.0858650" lon="37.3694650">
    <ele>5215.3</ele>
    <time>2026-06-23T00:45:46Z</time>
   </trkpt>
   <trkpt lat="-3.0858690" lon="37.3694640">
    <ele>5215.4</ele>
    <time>2026-06-23T00:45:47Z</time>
   </trkpt>
   <trkpt lat="-3.0858720" lon="37.3694620">
    <ele>5215.5</ele>
    <time>2026-06-23T00:45:48Z</time>
   </trkpt>
   <trkpt lat="-3.0858730" lon="37.3694600">
    <ele>5215.5</ele>
    <time>2026-06-23T00:45:49Z</time>
   </trkpt>
   <trkpt lat="-3.0858730" lon="37.3694590">
    <ele>5215.6</ele>
    <time>2026-06-23T00:45:50Z</time>
   </trkpt>
   <trkpt lat="-3.0858720" lon="37.3694590">
    <ele>5215.6</ele>
    <time>2026-06-23T00:45:51Z</time>
   </trkpt>
   <trkpt lat="-3.0858720" lon="37.3694590">
    <ele>5215.6</ele>
    <time>2026-06-23T00:45:52Z</time>
   </trkpt>
   <trkpt lat="-3.0858730" lon="37.3694560">
    <ele>5215.7</ele>
    <time>2026-06-23T00:45:53Z</time>
   </trkpt>
   <trkpt lat="-3.0858720" lon="37.3694530">
    <ele>5215.7</ele>
    <time>2026-06-23T00:45:54Z</time>
   </trkpt>
   <trkpt lat="-3.0858720" lon="37.3694500">
    <ele>5215.8</ele>
    <time>2026-06-23T00:45:55Z</time>
   </trkpt>
   <trkpt lat="-3.0858720" lon="37.3694470">
    <ele>5215.9</ele>
    <time>2026-06-23T00:45:56Z</time>
   </trkpt>
   <trkpt lat="-3.0858700" lon="37.3694440">
    <ele>5215.9</ele>
    <time>2026-06-23T00:45:57Z</time>
   </trkpt>
   <trkpt lat="-3.0858700" lon="37.3694420">
    <ele>5216.0</ele>
    <time>2026-06-23T00:45:58Z</time>
   </trkpt>
   <trkpt lat="-3.0858700" lon="37.3694400">
    <ele>5216.0</ele>
    <time>2026-06-23T00:45:59Z</time>
   </trkpt>
   <trkpt lat="-3.0858670" lon="37.3694380">
    <ele>5216.1</ele>
    <time>2026-06-23T00:46:00Z</time>
   </trkpt>
   <trkpt lat="-3.0858660" lon="37.3694360">
    <ele>5216.1</ele>
    <time>2026-06-23T00:46:01Z</time>
   </trkpt>
   <trkpt lat="-3.0858630" lon="37.3694350">
    <ele>5216.2</ele>
    <time>2026-06-23T00:46:02Z</time>
   </trkpt>
   <trkpt lat="-3.0858620" lon="37.3694330">
    <ele>5216.3</ele>
    <time>2026-06-23T00:46:03Z</time>
   </trkpt>
   <trkpt lat="-3.0858590" lon="37.3694340">
    <ele>5216.3</ele>
    <time>2026-06-23T00:46:04Z</time>
   </trkpt>
   <trkpt lat="-3.0858560" lon="37.3694350">
    <ele>5216.4</ele>
    <time>2026-06-23T00:46:05Z</time>
   </trkpt>
   <trkpt lat="-3.0858550" lon="37.3694370">
    <ele>5216.4</ele>
    <time>2026-06-23T00:46:06Z</time>
   </trkpt>
   <trkpt lat="-3.0858530" lon="37.3694370">
    <ele>5216.5</ele>
    <time>2026-06-23T00:46:07Z</time>
   </trkpt>
   <trkpt lat="-3.0858520" lon="37.3694370">
    <ele>5216.5</ele>
    <time>2026-06-23T00:46:08Z</time>
   </trkpt>
   <trkpt lat="-3.0858500" lon="37.3694360">
    <ele>5216.6</ele>
    <time>2026-06-23T00:46:09Z</time>
   </trkpt>
   <trkpt lat="-3.0858480" lon="37.3694350">
    <ele>5216.6</ele>
    <time>2026-06-23T00:46:11Z</time>
   </trkpt>
   <trkpt lat="-3.0858460" lon="37.3694310">
    <ele>5216.7</ele>
    <time>2026-06-23T00:46:12Z</time>
   </trkpt>
   <trkpt lat="-3.0858460" lon="37.3694300">
    <ele>5216.7</ele>
    <time>2026-06-23T00:46:13Z</time>
   </trkpt>
   <trkpt lat="-3.0858450" lon="37.3694260">
    <ele>5216.8</ele>
    <time>2026-06-23T00:46:14Z</time>
   </trkpt>
   <trkpt lat="-3.0858450" lon="37.3694250">
    <ele>5216.8</ele>
    <time>2026-06-23T00:46:15Z</time>
   </trkpt>
   <trkpt lat="-3.0858440" lon="37.3694240">
    <ele>5216.9</ele>
    <time>2026-06-23T00:46:16Z</time>
   </trkpt>
   <trkpt lat="-3.0858420" lon="37.3694210">
    <ele>5217.0</ele>
    <time>2026-06-23T00:46:17Z</time>
   </trkpt>
   <trkpt lat="-3.0858400" lon="37.3694200">
    <ele>5217.0</ele>
    <time>2026-06-23T00:46:18Z</time>
   </trkpt>
   <trkpt lat="-3.0858380" lon="37.3694170">
    <ele>5217.1</ele>
    <time>2026-06-23T00:46:19Z</time>
   </trkpt>
   <trkpt lat="-3.0858350" lon="37.3694150">
    <ele>5217.2</ele>
    <time>2026-06-23T00:46:20Z</time>
   </trkpt>
   <trkpt lat="-3.0858320" lon="37.3694150">
    <ele>5217.2</ele>
    <time>2026-06-23T00:46:21Z</time>
   </trkpt>
   <trkpt lat="-3.0858310" lon="37.3694170">
    <ele>5217.3</ele>
    <time>2026-06-23T00:46:22Z</time>
   </trkpt>
   <trkpt lat="-3.0858280" lon="37.3694170">
    <ele>5217.3</ele>
    <time>2026-06-23T00:46:23Z</time>
   </trkpt>
   <trkpt lat="-3.0858260" lon="37.3694190">
    <ele>5217.4</ele>
    <time>2026-06-23T00:46:24Z</time>
   </trkpt>
   <trkpt lat="-3.0858230" lon="37.3694210">
    <ele>5217.5</ele>
    <time>2026-06-23T00:46:25Z</time>
   </trkpt>
   <trkpt lat="-3.0858230" lon="37.3694220">
    <ele>5217.5</ele>
    <time>2026-06-23T00:46:26Z</time>
   </trkpt>
   <trkpt lat="-3.0858230" lon="37.3694220">
    <ele>5217.5</ele>
    <time>2026-06-23T00:46:27Z</time>
   </trkpt>
   <trkpt lat="-3.0858200" lon="37.3694230">
    <ele>5217.6</ele>
    <time>2026-06-23T00:46:28Z</time>
   </trkpt>
   <trkpt lat="-3.0858180" lon="37.3694250">
    <ele>5217.6</ele>
    <time>2026-06-23T00:46:29Z</time>
   </trkpt>
   <trkpt lat="-3.0858170" lon="37.3694260">
    <ele>5217.7</ele>
    <time>2026-06-23T00:46:30Z</time>
   </trkpt>
   <trkpt lat="-3.0858170" lon="37.3694280">
    <ele>5217.7</ele>
    <time>2026-06-23T00:46:31Z</time>
   </trkpt>
   <trkpt lat="-3.0858170" lon="37.3694290">
    <ele>5217.7</ele>
    <time>2026-06-23T00:46:32Z</time>
   </trkpt>
   <trkpt lat="-3.0858150" lon="37.3694320">
    <ele>5217.8</ele>
    <time>2026-06-23T00:46:33Z</time>
   </trkpt>
   <trkpt lat="-3.0858140" lon="37.3694360">
    <ele>5217.9</ele>
    <time>2026-06-23T00:46:34Z</time>
   </trkpt>
   <trkpt lat="-3.0858130" lon="37.3694370">
    <ele>5217.9</ele>
    <time>2026-06-23T00:46:35Z</time>
   </trkpt>
   <trkpt lat="-3.0858100" lon="37.3694390">
    <ele>5218.0</ele>
    <time>2026-06-23T00:46:36Z</time>
   </trkpt>
   <trkpt lat="-3.0858100" lon="37.3694400">
    <ele>5218.0</ele>
    <time>2026-06-23T00:46:37Z</time>
   </trkpt>
   <trkpt lat="-3.0858080" lon="37.3694410">
    <ele>5218.1</ele>
    <time>2026-06-23T00:46:38Z</time>
   </trkpt>
   <trkpt lat="-3.0858070" lon="37.3694410">
    <ele>5218.1</ele>
    <time>2026-06-23T00:46:39Z</time>
   </trkpt>
   <trkpt lat="-3.0858040" lon="37.3694420">
    <ele>5218.2</ele>
    <time>2026-06-23T00:46:40Z</time>
   </trkpt>
   <trkpt lat="-3.0858020" lon="37.3694400">
    <ele>5218.2</ele>
    <time>2026-06-23T00:46:41Z</time>
   </trkpt>
   <trkpt lat="-3.0858010" lon="37.3694400">
    <ele>5218.2</ele>
    <time>2026-06-23T00:46:42Z</time>
   </trkpt>
   <trkpt lat="-3.0857990" lon="37.3694400">
    <ele>5218.3</ele>
    <time>2026-06-23T00:46:43Z</time>
   </trkpt>
   <trkpt lat="-3.0857980" lon="37.3694400">
    <ele>5218.3</ele>
    <time>2026-06-23T00:46:44Z</time>
   </trkpt>
   <trkpt lat="-3.0857970" lon="37.3694390">
    <ele>5218.3</ele>
    <time>2026-06-23T00:46:45Z</time>
   </trkpt>
   <trkpt lat="-3.0857940" lon="37.3694390">
    <ele>5218.4</ele>
    <time>2026-06-23T00:46:46Z</time>
   </trkpt>
   <trkpt lat="-3.0857920" lon="37.3694390">
    <ele>5218.4</ele>
    <time>2026-06-23T00:46:47Z</time>
   </trkpt>
   <trkpt lat="-3.0857910" lon="37.3694390">
    <ele>5218.5</ele>
    <time>2026-06-23T00:46:48Z</time>
   </trkpt>
   <trkpt lat="-3.0857880" lon="37.3694390">
    <ele>5218.5</ele>
    <time>2026-06-23T00:46:49Z</time>
   </trkpt>
   <trkpt lat="-3.0857870" lon="37.3694400">
    <ele>5218.6</ele>
    <time>2026-06-23T00:46:50Z</time>
   </trkpt>
   <trkpt lat="-3.0857840" lon="37.3694390">
    <ele>5218.6</ele>
    <time>2026-06-23T00:46:51Z</time>
   </trkpt>
   <trkpt lat="-3.0857830" lon="37.3694380">
    <ele>5218.7</ele>
    <time>2026-06-23T00:46:52Z</time>
   </trkpt>
   <trkpt lat="-3.0857820" lon="37.3694360">
    <ele>5218.7</ele>
    <time>2026-06-23T00:46:53Z</time>
   </trkpt>
   <trkpt lat="-3.0857790" lon="37.3694340">
    <ele>5218.8</ele>
    <time>2026-06-23T00:46:54Z</time>
   </trkpt>
   <trkpt lat="-3.0857800" lon="37.3694350">
    <ele>5218.8</ele>
    <time>2026-06-23T00:46:55Z</time>
   </trkpt>
   <trkpt lat="-3.0857820" lon="37.3694320">
    <ele>5218.9</ele>
    <time>2026-06-23T00:46:56Z</time>
   </trkpt>
   <trkpt lat="-3.0857820" lon="37.3694290">
    <ele>5219.0</ele>
    <time>2026-06-23T00:46:57Z</time>
   </trkpt>
   <trkpt lat="-3.0857820" lon="37.3694280">
    <ele>5219.0</ele>
    <time>2026-06-23T00:46:58Z</time>
   </trkpt>
   <trkpt lat="-3.0857810" lon="37.3694280">
    <ele>5219.0</ele>
    <time>2026-06-23T00:46:59Z</time>
   </trkpt>
   <trkpt lat="-3.0857840" lon="37.3694230">
    <ele>5219.1</ele>
    <time>2026-06-23T00:47:00Z</time>
   </trkpt>
   <trkpt lat="-3.0857840" lon="37.3694230">
    <ele>5219.1</ele>
    <time>2026-06-23T00:47:01Z</time>
   </trkpt>
   <trkpt lat="-3.0857840" lon="37.3694190">
    <ele>5219.2</ele>
    <time>2026-06-23T00:47:02Z</time>
   </trkpt>
   <trkpt lat="-3.0857840" lon="37.3694170">
    <ele>5219.3</ele>
    <time>2026-06-23T00:47:03Z</time>
   </trkpt>
   <trkpt lat="-3.0857810" lon="37.3694160">
    <ele>5219.3</ele>
    <time>2026-06-23T00:47:04Z</time>
   </trkpt>
   <trkpt lat="-3.0857800" lon="37.3694150">
    <ele>5219.4</ele>
    <time>2026-06-23T00:47:05Z</time>
   </trkpt>
   <trkpt lat="-3.0857810" lon="37.3694150">
    <ele>5219.4</ele>
    <time>2026-06-23T00:47:06Z</time>
   </trkpt>
   <trkpt lat="-3.0857800" lon="37.3694150">
    <ele>5219.4</ele>
    <time>2026-06-23T00:47:07Z</time>
   </trkpt>
   <trkpt lat="-3.0857800" lon="37.3694150">
    <ele>5219.4</ele>
    <time>2026-06-23T00:47:08Z</time>
   </trkpt>
   <trkpt lat="-3.0857800" lon="37.3694150">
    <ele>5219.4</ele>
    <time>2026-06-23T00:47:09Z</time>
   </trkpt>
   <trkpt lat="-3.0857750" lon="37.3694140">
    <ele>5219.5</ele>
    <time>2026-06-23T00:47:10Z</time>
   </trkpt>
   <trkpt lat="-3.0857730" lon="37.3694160">
    <ele>5219.6</ele>
    <time>2026-06-23T00:47:11Z</time>
   </trkpt>
   <trkpt lat="-3.0857750" lon="37.3694180">
    <ele>5219.6</ele>
    <time>2026-06-23T00:47:12Z</time>
   </trkpt>
   <trkpt lat="-3.0857730" lon="37.3694190">
    <ele>5219.7</ele>
    <time>2026-06-23T00:47:13Z</time>
   </trkpt>
   <trkpt lat="-3.0857730" lon="37.3694200">
    <ele>5219.7</ele>
    <time>2026-06-23T00:47:14Z</time>
   </trkpt>
   <trkpt lat="-3.0857720" lon="37.3694230">
    <ele>5219.8</ele>
    <time>2026-06-23T00:47:15Z</time>
   </trkpt>
   <trkpt lat="-3.0857720" lon="37.3694230">
    <ele>5219.8</ele>
    <time>2026-06-23T00:47:16Z</time>
   </trkpt>
   <trkpt lat="-3.0857720" lon="37.3694240">
    <ele>5219.8</ele>
    <time>2026-06-23T00:47:17Z</time>
   </trkpt>
   <trkpt lat="-3.0857690" lon="37.3694260">
    <ele>5219.9</ele>
    <time>2026-06-23T00:47:18Z</time>
   </trkpt>
   <trkpt lat="-3.0857680" lon="37.3694280">
    <ele>5219.9</ele>
    <time>2026-06-23T00:47:19Z</time>
   </trkpt>
   <trkpt lat="-3.0857650" lon="37.3694270">
    <ele>5220.0</ele>
    <time>2026-06-23T00:47:20Z</time>
   </trkpt>
   <trkpt lat="-3.0857630" lon="37.3694280">
    <ele>5220.0</ele>
    <time>2026-06-23T00:47:21Z</time>
   </trkpt>
   <trkpt lat="-3.0857610" lon="37.3694260">
    <ele>5220.1</ele>
    <time>2026-06-23T00:47:22Z</time>
   </trkpt>
   <trkpt lat="-3.0857590" lon="37.3694250">
    <ele>5220.2</ele>
    <time>2026-06-23T00:47:23Z</time>
   </trkpt>
   <trkpt lat="-3.0857570" lon="37.3694230">
    <ele>5220.2</ele>
    <time>2026-06-23T00:47:24Z</time>
   </trkpt>
   <trkpt lat="-3.0857570" lon="37.3694240">
    <ele>5220.2</ele>
    <time>2026-06-23T00:47:25Z</time>
   </trkpt>
   <trkpt lat="-3.0857570" lon="37.3694240">
    <ele>5220.2</ele>
    <time>2026-06-23T00:47:26Z</time>
   </trkpt>
   <trkpt lat="-3.0857550" lon="37.3694200">
    <ele>5220.3</ele>
    <time>2026-06-23T00:47:27Z</time>
   </trkpt>
   <trkpt lat="-3.0857550" lon="37.3694160">
    <ele>5220.4</ele>
    <time>2026-06-23T00:47:28Z</time>
   </trkpt>
   <trkpt lat="-3.0857540" lon="37.3694140">
    <ele>5220.5</ele>
    <time>2026-06-23T00:47:29Z</time>
   </trkpt>
   <trkpt lat="-3.0857530" lon="37.3694130">
    <ele>5220.5</ele>
    <time>2026-06-23T00:47:30Z</time>
   </trkpt>
   <trkpt lat="-3.0857520" lon="37.3694100">
    <ele>5220.6</ele>
    <time>2026-06-23T00:47:31Z</time>
   </trkpt>
   <trkpt lat="-3.0857500" lon="37.3694080">
    <ele>5220.6</ele>
    <time>2026-06-23T00:47:32Z</time>
   </trkpt>
   <trkpt lat="-3.0857480" lon="37.3694080">
    <ele>5220.7</ele>
    <time>2026-06-23T00:47:33Z</time>
   </trkpt>
   <trkpt lat="-3.0857450" lon="37.3694090">
    <ele>5220.7</ele>
    <time>2026-06-23T00:47:34Z</time>
   </trkpt>
   <trkpt lat="-3.0857430" lon="37.3694110">
    <ele>5220.8</ele>
    <time>2026-06-23T00:47:35Z</time>
   </trkpt>
   <trkpt lat="-3.0857410" lon="37.3694130">
    <ele>5220.9</ele>
    <time>2026-06-23T00:47:36Z</time>
   </trkpt>
   <trkpt lat="-3.0857380" lon="37.3694140">
    <ele>5220.9</ele>
    <time>2026-06-23T00:47:37Z</time>
   </trkpt>
   <trkpt lat="-3.0857370" lon="37.3694160">
    <ele>5221.0</ele>
    <time>2026-06-23T00:47:38Z</time>
   </trkpt>
   <trkpt lat="-3.0857360" lon="37.3694180">
    <ele>5221.0</ele>
    <time>2026-06-23T00:47:39Z</time>
   </trkpt>
   <trkpt lat="-3.0857350" lon="37.3694200">
    <ele>5221.1</ele>
    <time>2026-06-23T00:47:40Z</time>
   </trkpt>
   <trkpt lat="-3.0857350" lon="37.3694210">
    <ele>5221.1</ele>
    <time>2026-06-23T00:47:41Z</time>
   </trkpt>
   <trkpt lat="-3.0857340" lon="37.3694210">
    <ele>5221.1</ele>
    <time>2026-06-23T00:47:42Z</time>
   </trkpt>
   <trkpt lat="-3.0857320" lon="37.3694230">
    <ele>5221.2</ele>
    <time>2026-06-23T00:47:43Z</time>
   </trkpt>
   <trkpt lat="-3.0857310" lon="37.3694250">
    <ele>5221.2</ele>
    <time>2026-06-23T00:47:44Z</time>
   </trkpt>
   <trkpt lat="-3.0857290" lon="37.3694290">
    <ele>5221.3</ele>
    <time>2026-06-23T00:47:45Z</time>
   </trkpt>
   <trkpt lat="-3.0857270" lon="37.3694300">
    <ele>5221.4</ele>
    <time>2026-06-23T00:47:46Z</time>
   </trkpt>
   <trkpt lat="-3.0857270" lon="37.3694330">
    <ele>5221.4</ele>
    <time>2026-06-23T00:47:47Z</time>
   </trkpt>
   <trkpt lat="-3.0857250" lon="37.3694350">
    <ele>5221.5</ele>
    <time>2026-06-23T00:47:48Z</time>
   </trkpt>
   <trkpt lat="-3.0857240" lon="37.3694370">
    <ele>5221.6</ele>
    <time>2026-06-23T00:47:49Z</time>
   </trkpt>
   <trkpt lat="-3.0857210" lon="37.3694400">
    <ele>5221.6</ele>
    <time>2026-06-23T00:47:50Z</time>
   </trkpt>
   <trkpt lat="-3.0857200" lon="37.3694410">
    <ele>5221.7</ele>
    <time>2026-06-23T00:47:51Z</time>
   </trkpt>
   <trkpt lat="-3.0857170" lon="37.3694430">
    <ele>5221.8</ele>
    <time>2026-06-23T00:47:52Z</time>
   </trkpt>
   <trkpt lat="-3.0857150" lon="37.3694450">
    <ele>5221.8</ele>
    <time>2026-06-23T00:47:53Z</time>
   </trkpt>
   <trkpt lat="-3.0857120" lon="37.3694470">
    <ele>5221.9</ele>
    <time>2026-06-23T00:47:54Z</time>
   </trkpt>
   <trkpt lat="-3.0857110" lon="37.3694470">
    <ele>5221.9</ele>
    <time>2026-06-23T00:47:55Z</time>
   </trkpt>
   <trkpt lat="-3.0857080" lon="37.3694460">
    <ele>5222.0</ele>
    <time>2026-06-23T00:47:56Z</time>
   </trkpt>
   <trkpt lat="-3.0857070" lon="37.3694460">
    <ele>5222.0</ele>
    <time>2026-06-23T00:47:57Z</time>
   </trkpt>
   <trkpt lat="-3.0857070" lon="37.3694450">
    <ele>5222.0</ele>
    <time>2026-06-23T00:47:58Z</time>
   </trkpt>
   <trkpt lat="-3.0857050" lon="37.3694450">
    <ele>5222.1</ele>
    <time>2026-06-23T00:47:59Z</time>
   </trkpt>
   <trkpt lat="-3.0857040" lon="37.3694470">
    <ele>5222.1</ele>
    <time>2026-06-23T00:48:00Z</time>
   </trkpt>
   <trkpt lat="-3.0857030" lon="37.3694480">
    <ele>5222.2</ele>
    <time>2026-06-23T00:48:01Z</time>
   </trkpt>
   <trkpt lat="-3.0857000" lon="37.3694490">
    <ele>5222.2</ele>
    <time>2026-06-23T00:48:02Z</time>
   </trkpt>
   <trkpt lat="-3.0856980" lon="37.3694480">
    <ele>5222.3</ele>
    <time>2026-06-23T00:48:03Z</time>
   </trkpt>
   <trkpt lat="-3.0856960" lon="37.3694510">
    <ele>5222.4</ele>
    <time>2026-06-23T00:48:04Z</time>
   </trkpt>
   <trkpt lat="-3.0856930" lon="37.3694510">
    <ele>5222.4</ele>
    <time>2026-06-23T00:48:05Z</time>
   </trkpt>
   <trkpt lat="-3.0856900" lon="37.3694530">
    <ele>5222.5</ele>
    <time>2026-06-23T00:48:06Z</time>
   </trkpt>
   <trkpt lat="-3.0856890" lon="37.3694540">
    <ele>5222.5</ele>
    <time>2026-06-23T00:48:07Z</time>
   </trkpt>
   <trkpt lat="-3.0856860" lon="37.3694550">
    <ele>5222.6</ele>
    <time>2026-06-23T00:48:08Z</time>
   </trkpt>
   <trkpt lat="-3.0856870" lon="37.3694540">
    <ele>5222.7</ele>
    <time>2026-06-23T00:48:09Z</time>
   </trkpt>
   <trkpt lat="-3.0856870" lon="37.3694540">
    <ele>5222.7</ele>
    <time>2026-06-23T00:48:10Z</time>
   </trkpt>
   <trkpt lat="-3.0856850" lon="37.3694570">
    <ele>5222.7</ele>
    <time>2026-06-23T00:48:11Z</time>
   </trkpt>
   <trkpt lat="-3.0856820" lon="37.3694580">
    <ele>5222.8</ele>
    <time>2026-06-23T00:48:12Z</time>
   </trkpt>
   <trkpt lat="-3.0856810" lon="37.3694580">
    <ele>5222.8</ele>
    <time>2026-06-23T00:48:13Z</time>
   </trkpt>
   <trkpt lat="-3.0856790" lon="37.3694600">
    <ele>5222.9</ele>
    <time>2026-06-23T00:48:14Z</time>
   </trkpt>
   <trkpt lat="-3.0856770" lon="37.3694600">
    <ele>5222.9</ele>
    <time>2026-06-23T00:48:16Z</time>
   </trkpt>
   <trkpt lat="-3.0856760" lon="37.3694620">
    <ele>5223.0</ele>
    <time>2026-06-23T00:48:17Z</time>
   </trkpt>
   <trkpt lat="-3.0856740" lon="37.3694630">
    <ele>5223.0</ele>
    <time>2026-06-23T00:48:18Z</time>
   </trkpt>
   <trkpt lat="-3.0856730" lon="37.3694640">
    <ele>5223.1</ele>
    <time>2026-06-23T00:48:19Z</time>
   </trkpt>
   <trkpt lat="-3.0856700" lon="37.3694650">
    <ele>5223.1</ele>
    <time>2026-06-23T00:48:20Z</time>
   </trkpt>
   <trkpt lat="-3.0856690" lon="37.3694660">
    <ele>5223.2</ele>
    <time>2026-06-23T00:48:21Z</time>
   </trkpt>
   <trkpt lat="-3.0856660" lon="37.3694680">
    <ele>5223.3</ele>
    <time>2026-06-23T00:48:22Z</time>
   </trkpt>
   <trkpt lat="-3.0856650" lon="37.3694700">
    <ele>5223.3</ele>
    <time>2026-06-23T00:48:23Z</time>
   </trkpt>
   <trkpt lat="-3.0856640" lon="37.3694720">
    <ele>5223.4</ele>
    <time>2026-06-23T00:48:24Z</time>
   </trkpt>
   <trkpt lat="-3.0856620" lon="37.3694720">
    <ele>5223.4</ele>
    <time>2026-06-23T00:48:25Z</time>
   </trkpt>
   <trkpt lat="-3.0856600" lon="37.3694740">
    <ele>5223.5</ele>
    <time>2026-06-23T00:48:26Z</time>
   </trkpt>
   <trkpt lat="-3.0856590" lon="37.3694750">
    <ele>5223.5</ele>
    <time>2026-06-23T00:48:27Z</time>
   </trkpt>
   <trkpt lat="-3.0856570" lon="37.3694740">
    <ele>5223.5</ele>
    <time>2026-06-23T00:48:28Z</time>
   </trkpt>
   <trkpt lat="-3.0856550" lon="37.3694760">
    <ele>5223.6</ele>
    <time>2026-06-23T00:48:29Z</time>
   </trkpt>
   <trkpt lat="-3.0856510" lon="37.3694750">
    <ele>5223.7</ele>
    <time>2026-06-23T00:48:30Z</time>
   </trkpt>
   <trkpt lat="-3.0856500" lon="37.3694750">
    <ele>5223.7</ele>
    <time>2026-06-23T00:48:31Z</time>
   </trkpt>
   <trkpt lat="-3.0856480" lon="37.3694760">
    <ele>5223.8</ele>
    <time>2026-06-23T00:48:32Z</time>
   </trkpt>
   <trkpt lat="-3.0856480" lon="37.3694780">
    <ele>5223.8</ele>
    <time>2026-06-23T00:48:33Z</time>
   </trkpt>
   <trkpt lat="-3.0856450" lon="37.3694770">
    <ele>5223.9</ele>
    <time>2026-06-23T00:48:34Z</time>
   </trkpt>
   <trkpt lat="-3.0856430" lon="37.3694790">
    <ele>5224.0</ele>
    <time>2026-06-23T00:48:35Z</time>
   </trkpt>
   <trkpt lat="-3.0856450" lon="37.3694790">
    <ele>5224.0</ele>
    <time>2026-06-23T00:48:36Z</time>
   </trkpt>
   <trkpt lat="-3.0856410" lon="37.3694800">
    <ele>5224.1</ele>
    <time>2026-06-23T00:48:37Z</time>
   </trkpt>
   <trkpt lat="-3.0856390" lon="37.3694800">
    <ele>5224.1</ele>
    <time>2026-06-23T00:48:38Z</time>
   </trkpt>
   <trkpt lat="-3.0856390" lon="37.3694800">
    <ele>5224.1</ele>
    <time>2026-06-23T00:48:39Z</time>
   </trkpt>
   <trkpt lat="-3.0856390" lon="37.3694810">
    <ele>5224.2</ele>
    <time>2026-06-23T00:48:40Z</time>
   </trkpt>
   <trkpt lat="-3.0856370" lon="37.3694810">
    <ele>5224.2</ele>
    <time>2026-06-23T00:48:41Z</time>
   </trkpt>
   <trkpt lat="-3.0856350" lon="37.3694800">
    <ele>5224.3</ele>
    <time>2026-06-23T00:48:42Z</time>
   </trkpt>
   <trkpt lat="-3.0856310" lon="37.3694830">
    <ele>5224.4</ele>
    <time>2026-06-23T00:48:43Z</time>
   </trkpt>
   <trkpt lat="-3.0856280" lon="37.3694820">
    <ele>5224.4</ele>
    <time>2026-06-23T00:48:44Z</time>
   </trkpt>
   <trkpt lat="-3.0856280" lon="37.3694820">
    <ele>5224.4</ele>
    <time>2026-06-23T00:48:45Z</time>
   </trkpt>
   <trkpt lat="-3.0856250" lon="37.3694810">
    <ele>5224.5</ele>
    <time>2026-06-23T00:48:46Z</time>
   </trkpt>
   <trkpt lat="-3.0856250" lon="37.3694780">
    <ele>5224.6</ele>
    <time>2026-06-23T00:48:47Z</time>
   </trkpt>
   <trkpt lat="-3.0856240" lon="37.3694770">
    <ele>5224.6</ele>
    <time>2026-06-23T00:48:48Z</time>
   </trkpt>
   <trkpt lat="-3.0856230" lon="37.3694760">
    <ele>5224.6</ele>
    <time>2026-06-23T00:48:49Z</time>
   </trkpt>
   <trkpt lat="-3.0856230" lon="37.3694720">
    <ele>5224.7</ele>
    <time>2026-06-23T00:48:50Z</time>
   </trkpt>
   <trkpt lat="-3.0856230" lon="37.3694710">
    <ele>5224.7</ele>
    <time>2026-06-23T00:48:51Z</time>
   </trkpt>
   <trkpt lat="-3.0856220" lon="37.3694700">
    <ele>5224.8</ele>
    <time>2026-06-23T00:48:52Z</time>
   </trkpt>
   <trkpt lat="-3.0856210" lon="37.3694680">
    <ele>5224.8</ele>
    <time>2026-06-23T00:48:53Z</time>
   </trkpt>
   <trkpt lat="-3.0856200" lon="37.3694650">
    <ele>5224.9</ele>
    <time>2026-06-23T00:48:54Z</time>
   </trkpt>
   <trkpt lat="-3.0856200" lon="37.3694630">
    <ele>5224.9</ele>
    <time>2026-06-23T00:48:55Z</time>
   </trkpt>
   <trkpt lat="-3.0856200" lon="37.3694600">
    <ele>5225.0</ele>
    <time>2026-06-23T00:48:56Z</time>
   </trkpt>
   <trkpt lat="-3.0856190" lon="37.3694570">
    <ele>5225.1</ele>
    <time>2026-06-23T00:48:57Z</time>
   </trkpt>
   <trkpt lat="-3.0856190" lon="37.3694570">
    <ele>5225.1</ele>
    <time>2026-06-23T00:48:58Z</time>
   </trkpt>
   <trkpt lat="-3.0856190" lon="37.3694570">
    <ele>5225.1</ele>
    <time>2026-06-23T00:48:59Z</time>
   </trkpt>
   <trkpt lat="-3.0856170" lon="37.3694550">
    <ele>5225.1</ele>
    <time>2026-06-23T00:49:00Z</time>
   </trkpt>
   <trkpt lat="-3.0856150" lon="37.3694550">
    <ele>5225.2</ele>
    <time>2026-06-23T00:49:01Z</time>
   </trkpt>
   <trkpt lat="-3.0856150" lon="37.3694550">
    <ele>5225.2</ele>
    <time>2026-06-23T00:49:02Z</time>
   </trkpt>
   <trkpt lat="-3.0856150" lon="37.3694550">
    <ele>5225.2</ele>
    <time>2026-06-23T00:49:03Z</time>
   </trkpt>
   <trkpt lat="-3.0856150" lon="37.3694550">
    <ele>5225.2</ele>
    <time>2026-06-23T00:49:04Z</time>
   </trkpt>
   <trkpt lat="-3.0856140" lon="37.3694540">
    <ele>5225.2</ele>
    <time>2026-06-23T00:49:05Z</time>
   </trkpt>
   <trkpt lat="-3.0856140" lon="37.3694550">
    <ele>5225.2</ele>
    <time>2026-06-23T00:49:06Z</time>
   </trkpt>
   <trkpt lat="-3.0856150" lon="37.3694550">
    <ele>5225.3</ele>
    <time>2026-06-23T00:49:07Z</time>
   </trkpt>
   <trkpt lat="-3.0856150" lon="37.3694550">
    <ele>5225.3</ele>
    <time>2026-06-23T00:49:08Z</time>
   </trkpt>
   <trkpt lat="-3.0856150" lon="37.3694550">
    <ele>5225.3</ele>
    <time>2026-06-23T00:49:09Z</time>
   </trkpt>
   <trkpt lat="-3.0856150" lon="37.3694540">
    <ele>5225.3</ele>
    <time>2026-06-23T00:49:10Z</time>
   </trkpt>
   <trkpt lat="-3.0856150" lon="37.3694540">
    <ele>5225.3</ele>
    <time>2026-06-23T00:49:11Z</time>
   </trkpt>
   <trkpt lat="-3.0856130" lon="37.3694550">
    <ele>5225.3</ele>
    <time>2026-06-23T00:49:12Z</time>
   </trkpt>
   <trkpt lat="-3.0856120" lon="37.3694570">
    <ele>5225.4</ele>
    <time>2026-06-23T00:49:13Z</time>
   </trkpt>
   <trkpt lat="-3.0856120" lon="37.3694570">
    <ele>5225.4</ele>
    <time>2026-06-23T00:49:14Z</time>
   </trkpt>
   <trkpt lat="-3.0856110" lon="37.3694560">
    <ele>5225.4</ele>
    <time>2026-06-23T00:49:15Z</time>
   </trkpt>
   <trkpt lat="-3.0856110" lon="37.3694550">
    <ele>5225.4</ele>
    <time>2026-06-23T00:49:16Z</time>
   </trkpt>
   <trkpt lat="-3.0856120" lon="37.3694530">
    <ele>5225.5</ele>
    <time>2026-06-23T00:49:17Z</time>
   </trkpt>
   <trkpt lat="-3.0856120" lon="37.3694510">
    <ele>5225.5</ele>
    <time>2026-06-23T00:49:18Z</time>
   </trkpt>
   <trkpt lat="-3.0856130" lon="37.3694510">
    <ele>5225.6</ele>
    <time>2026-06-23T00:49:19Z</time>
   </trkpt>
   <trkpt lat="-3.0856130" lon="37.3694510">
    <ele>5225.6</ele>
    <time>2026-06-23T00:49:20Z</time>
   </trkpt>
   <trkpt lat="-3.0856130" lon="37.3694510">
    <ele>5225.6</ele>
    <time>2026-06-23T00:49:21Z</time>
   </trkpt>
   <trkpt lat="-3.0856130" lon="37.3694510">
    <ele>5225.6</ele>
    <time>2026-06-23T00:49:22Z</time>
   </trkpt>
   <trkpt lat="-3.0856130" lon="37.3694510">
    <ele>5225.6</ele>
    <time>2026-06-23T00:49:23Z</time>
   </trkpt>
   <trkpt lat="-3.0856120" lon="37.3694500">
    <ele>5225.6</ele>
    <time>2026-06-23T00:49:24Z</time>
   </trkpt>
   <trkpt lat="-3.0856120" lon="37.3694500">
    <ele>5225.6</ele>
    <time>2026-06-23T00:49:25Z</time>
   </trkpt>
   <trkpt lat="-3.0856120" lon="37.3694500">
    <ele>5225.6</ele>
    <time>2026-06-23T00:49:26Z</time>
   </trkpt>
   <trkpt lat="-3.0856120" lon="37.3694500">
    <ele>5225.6</ele>
    <time>2026-06-23T00:49:27Z</time>
   </trkpt>
   <trkpt lat="-3.0856120" lon="37.3694490">
    <ele>5225.6</ele>
    <time>2026-06-23T00:49:28Z</time>
   </trkpt>
   <trkpt lat="-3.0856120" lon="37.3694490">
    <ele>5225.6</ele>
    <time>2026-06-23T00:49:29Z</time>
   </trkpt>
   <trkpt lat="-3.0856120" lon="37.3694490">
    <ele>5225.6</ele>
    <time>2026-06-23T00:49:30Z</time>
   </trkpt>
   <trkpt lat="-3.0856120" lon="37.3694490">
    <ele>5225.6</ele>
    <time>2026-06-23T00:49:31Z</time>
   </trkpt>
   <trkpt lat="-3.0856120" lon="37.3694490">
    <ele>5225.6</ele>
    <time>2026-06-23T00:49:32Z</time>
   </trkpt>
   <trkpt lat="-3.0856120" lon="37.3694490">
    <ele>5225.6</ele>
    <time>2026-06-23T00:49:33Z</time>
   </trkpt>
   <trkpt lat="-3.0856110" lon="37.3694490">
    <ele>5225.6</ele>
    <time>2026-06-23T00:49:34Z</time>
   </trkpt>
   <trkpt lat="-3.0856100" lon="37.3694510">
    <ele>5225.7</ele>
    <time>2026-06-23T00:49:35Z</time>
   </trkpt>
   <trkpt lat="-3.0856100" lon="37.3694520">
    <ele>5225.7</ele>
    <time>2026-06-23T00:49:36Z</time>
   </trkpt>
   <trkpt lat="-3.0856080" lon="37.3694520">
    <ele>5225.8</ele>
    <time>2026-06-23T00:49:37Z</time>
   </trkpt>
   <trkpt lat="-3.0856070" lon="37.3694510">
    <ele>5225.8</ele>
    <time>2026-06-23T00:49:38Z</time>
   </trkpt>
   <trkpt lat="-3.0856060" lon="37.3694490">
    <ele>5225.8</ele>
    <time>2026-06-23T00:49:39Z</time>
   </trkpt>
   <trkpt lat="-3.0856010" lon="37.3694470">
    <ele>5226.0</ele>
    <time>2026-06-23T00:49:40Z</time>
   </trkpt>
   <trkpt lat="-3.0856020" lon="37.3694450">
    <ele>5226.0</ele>
    <time>2026-06-23T00:49:41Z</time>
   </trkpt>
   <trkpt lat="-3.0856000" lon="37.3694410">
    <ele>5226.1</ele>
    <time>2026-06-23T00:49:42Z</time>
   </trkpt>
   <trkpt lat="-3.0856010" lon="37.3694380">
    <ele>5226.2</ele>
    <time>2026-06-23T00:49:43Z</time>
   </trkpt>
   <trkpt lat="-3.0856020" lon="37.3694380">
    <ele>5226.2</ele>
    <time>2026-06-23T00:49:44Z</time>
   </trkpt>
   <trkpt lat="-3.0856050" lon="37.3694330">
    <ele>5226.3</ele>
    <time>2026-06-23T00:49:45Z</time>
   </trkpt>
   <trkpt lat="-3.0856040" lon="37.3694310">
    <ele>5226.4</ele>
    <time>2026-06-23T00:49:46Z</time>
   </trkpt>
   <trkpt lat="-3.0856040" lon="37.3694300">
    <ele>5226.4</ele>
    <time>2026-06-23T00:49:47Z</time>
   </trkpt>
   <trkpt lat="-3.0856070" lon="37.3694260">
    <ele>5226.5</ele>
    <time>2026-06-23T00:49:48Z</time>
   </trkpt>
   <trkpt lat="-3.0856070" lon="37.3694260">
    <ele>5226.5</ele>
    <time>2026-06-23T00:49:49Z</time>
   </trkpt>
   <trkpt lat="-3.0856070" lon="37.3694230">
    <ele>5226.6</ele>
    <time>2026-06-23T00:49:50Z</time>
   </trkpt>
   <trkpt lat="-3.0856060" lon="37.3694210">
    <ele>5226.6</ele>
    <time>2026-06-23T00:49:51Z</time>
   </trkpt>
   <trkpt lat="-3.0856030" lon="37.3694170">
    <ele>5226.8</ele>
    <time>2026-06-23T00:49:52Z</time>
   </trkpt>
   <trkpt lat="-3.0856010" lon="37.3694160">
    <ele>5226.8</ele>
    <time>2026-06-23T00:49:53Z</time>
   </trkpt>
   <trkpt lat="-3.0855970" lon="37.3694140">
    <ele>5226.9</ele>
    <time>2026-06-23T00:49:54Z</time>
   </trkpt>
   <trkpt lat="-3.0855940" lon="37.3694140">
    <ele>5227.0</ele>
    <time>2026-06-23T00:49:55Z</time>
   </trkpt>
   <trkpt lat="-3.0855900" lon="37.3694140">
    <ele>5227.1</ele>
    <time>2026-06-23T00:49:56Z</time>
   </trkpt>
   <trkpt lat="-3.0855890" lon="37.3694130">
    <ele>5227.1</ele>
    <time>2026-06-23T00:49:57Z</time>
   </trkpt>
   <trkpt lat="-3.0855860" lon="37.3694130">
    <ele>5227.2</ele>
    <time>2026-06-23T00:49:58Z</time>
   </trkpt>
   <trkpt lat="-3.0855830" lon="37.3694120">
    <ele>5227.2</ele>
    <time>2026-06-23T00:49:59Z</time>
   </trkpt>
   <trkpt lat="-3.0855820" lon="37.3694130">
    <ele>5227.3</ele>
    <time>2026-06-23T00:50:00Z</time>
   </trkpt>
   <trkpt lat="-3.0855790" lon="37.3694140">
    <ele>5227.3</ele>
    <time>2026-06-23T00:50:01Z</time>
   </trkpt>
   <trkpt lat="-3.0855760" lon="37.3694140">
    <ele>5227.4</ele>
    <time>2026-06-23T00:50:02Z</time>
   </trkpt>
   <trkpt lat="-3.0855740" lon="37.3694160">
    <ele>5227.5</ele>
    <time>2026-06-23T00:50:03Z</time>
   </trkpt>
   <trkpt lat="-3.0855730" lon="37.3694180">
    <ele>5227.5</ele>
    <time>2026-06-23T00:50:04Z</time>
   </trkpt>
   <trkpt lat="-3.0855700" lon="37.3694210">
    <ele>5227.6</ele>
    <time>2026-06-23T00:50:05Z</time>
   </trkpt>
   <trkpt lat="-3.0855680" lon="37.3694230">
    <ele>5227.7</ele>
    <time>2026-06-23T00:50:06Z</time>
   </trkpt>
   <trkpt lat="-3.0855650" lon="37.3694250">
    <ele>5227.8</ele>
    <time>2026-06-23T00:50:07Z</time>
   </trkpt>
   <trkpt lat="-3.0855640" lon="37.3694270">
    <ele>5227.8</ele>
    <time>2026-06-23T00:50:08Z</time>
   </trkpt>
   <trkpt lat="-3.0855620" lon="37.3694300">
    <ele>5227.9</ele>
    <time>2026-06-23T00:50:09Z</time>
   </trkpt>
   <trkpt lat="-3.0855600" lon="37.3694310">
    <ele>5227.9</ele>
    <time>2026-06-23T00:50:10Z</time>
   </trkpt>
   <trkpt lat="-3.0855590" lon="37.3694330">
    <ele>5228.0</ele>
    <time>2026-06-23T00:50:11Z</time>
   </trkpt>
   <trkpt lat="-3.0855570" lon="37.3694360">
    <ele>5228.1</ele>
    <time>2026-06-23T00:50:12Z</time>
   </trkpt>
   <trkpt lat="-3.0855540" lon="37.3694370">
    <ele>5228.1</ele>
    <time>2026-06-23T00:50:13Z</time>
   </trkpt>
   <trkpt lat="-3.0855520" lon="37.3694380">
    <ele>5228.2</ele>
    <time>2026-06-23T00:50:14Z</time>
   </trkpt>
   <trkpt lat="-3.0855490" lon="37.3694390">
    <ele>5228.3</ele>
    <time>2026-06-23T00:50:15Z</time>
   </trkpt>
   <trkpt lat="-3.0855480" lon="37.3694410">
    <ele>5228.3</ele>
    <time>2026-06-23T00:50:16Z</time>
   </trkpt>
   <trkpt lat="-3.0855460" lon="37.3694410">
    <ele>5228.4</ele>
    <time>2026-06-23T00:50:17Z</time>
   </trkpt>
   <trkpt lat="-3.0855450" lon="37.3694440">
    <ele>5228.4</ele>
    <time>2026-06-23T00:50:18Z</time>
   </trkpt>
   <trkpt lat="-3.0855430" lon="37.3694460">
    <ele>5228.5</ele>
    <time>2026-06-23T00:50:19Z</time>
   </trkpt>
   <trkpt lat="-3.0855410" lon="37.3694460">
    <ele>5228.5</ele>
    <time>2026-06-23T00:50:20Z</time>
   </trkpt>
   <trkpt lat="-3.0855380" lon="37.3694460">
    <ele>5228.6</ele>
    <time>2026-06-23T00:50:22Z</time>
   </trkpt>
   <trkpt lat="-3.0855350" lon="37.3694460">
    <ele>5228.7</ele>
    <time>2026-06-23T00:50:23Z</time>
   </trkpt>
   <trkpt lat="-3.0855350" lon="37.3694460">
    <ele>5228.7</ele>
    <time>2026-06-23T00:50:24Z</time>
   </trkpt>
   <trkpt lat="-3.0855340" lon="37.3694460">
    <ele>5228.7</ele>
    <time>2026-06-23T00:50:25Z</time>
   </trkpt>
   <trkpt lat="-3.0855320" lon="37.3694480">
    <ele>5228.8</ele>
    <time>2026-06-23T00:50:26Z</time>
   </trkpt>
   <trkpt lat="-3.0855290" lon="37.3694470">
    <ele>5228.8</ele>
    <time>2026-06-23T00:50:27Z</time>
   </trkpt>
   <trkpt lat="-3.0855260" lon="37.3694490">
    <ele>5228.9</ele>
    <time>2026-06-23T00:50:28Z</time>
   </trkpt>
   <trkpt lat="-3.0855240" lon="37.3694460">
    <ele>5229.0</ele>
    <time>2026-06-23T00:50:29Z</time>
   </trkpt>
   <trkpt lat="-3.0855230" lon="37.3694450">
    <ele>5229.0</ele>
    <time>2026-06-23T00:50:30Z</time>
   </trkpt>
   <trkpt lat="-3.0855200" lon="37.3694430">
    <ele>5229.1</ele>
    <time>2026-06-23T00:50:31Z</time>
   </trkpt>
   <trkpt lat="-3.0855190" lon="37.3694420">
    <ele>5229.1</ele>
    <time>2026-06-23T00:50:32Z</time>
   </trkpt>
   <trkpt lat="-3.0855180" lon="37.3694400">
    <ele>5229.2</ele>
    <time>2026-06-23T00:50:33Z</time>
   </trkpt>
   <trkpt lat="-3.0855150" lon="37.3694390">
    <ele>5229.3</ele>
    <time>2026-06-23T00:50:34Z</time>
   </trkpt>
   <trkpt lat="-3.0855140" lon="37.3694370">
    <ele>5229.3</ele>
    <time>2026-06-23T00:50:35Z</time>
   </trkpt>
   <trkpt lat="-3.0855100" lon="37.3694380">
    <ele>5229.4</ele>
    <time>2026-06-23T00:50:36Z</time>
   </trkpt>
   <trkpt lat="-3.0855070" lon="37.3694360">
    <ele>5229.5</ele>
    <time>2026-06-23T00:50:37Z</time>
   </trkpt>
   <trkpt lat="-3.0855050" lon="37.3694370">
    <ele>5229.5</ele>
    <time>2026-06-23T00:50:38Z</time>
   </trkpt>
   <trkpt lat="-3.0855030" lon="37.3694340">
    <ele>5229.6</ele>
    <time>2026-06-23T00:50:39Z</time>
   </trkpt>
   <trkpt lat="-3.0855000" lon="37.3694330">
    <ele>5229.7</ele>
    <time>2026-06-23T00:50:40Z</time>
   </trkpt>
   <trkpt lat="-3.0854990" lon="37.3694340">
    <ele>5229.7</ele>
    <time>2026-06-23T00:50:41Z</time>
   </trkpt>
   <trkpt lat="-3.0854970" lon="37.3694340">
    <ele>5229.8</ele>
    <time>2026-06-23T00:50:42Z</time>
   </trkpt>
   <trkpt lat="-3.0854940" lon="37.3694340">
    <ele>5229.8</ele>
    <time>2026-06-23T00:50:43Z</time>
   </trkpt>
   <trkpt lat="-3.0854920" lon="37.3694350">
    <ele>5229.9</ele>
    <time>2026-06-23T00:50:44Z</time>
   </trkpt>
   <trkpt lat="-3.0854900" lon="37.3694340">
    <ele>5229.9</ele>
    <time>2026-06-23T00:50:45Z</time>
   </trkpt>
   <trkpt lat="-3.0854880" lon="37.3694340">
    <ele>5230.0</ele>
    <time>2026-06-23T00:50:46Z</time>
   </trkpt>
   <trkpt lat="-3.0854860" lon="37.3694340">
    <ele>5230.0</ele>
    <time>2026-06-23T00:50:47Z</time>
   </trkpt>
   <trkpt lat="-3.0854850" lon="37.3694350">
    <ele>5230.1</ele>
    <time>2026-06-23T00:50:48Z</time>
   </trkpt>
   <trkpt lat="-3.0854840" lon="37.3694350">
    <ele>5230.1</ele>
    <time>2026-06-23T00:50:49Z</time>
   </trkpt>
   <trkpt lat="-3.0854820" lon="37.3694340">
    <ele>5230.1</ele>
    <time>2026-06-23T00:50:50Z</time>
   </trkpt>
   <trkpt lat="-3.0854800" lon="37.3694320">
    <ele>5230.2</ele>
    <time>2026-06-23T00:50:51Z</time>
   </trkpt>
   <trkpt lat="-3.0854790" lon="37.3694300">
    <ele>5230.2</ele>
    <time>2026-06-23T00:50:52Z</time>
   </trkpt>
   <trkpt lat="-3.0854760" lon="37.3694290">
    <ele>5230.3</ele>
    <time>2026-06-23T00:50:53Z</time>
   </trkpt>
   <trkpt lat="-3.0854750" lon="37.3694280">
    <ele>5230.3</ele>
    <time>2026-06-23T00:50:54Z</time>
   </trkpt>
   <trkpt lat="-3.0854740" lon="37.3694260">
    <ele>5230.4</ele>
    <time>2026-06-23T00:50:55Z</time>
   </trkpt>
   <trkpt lat="-3.0854740" lon="37.3694260">
    <ele>5230.4</ele>
    <time>2026-06-23T00:50:56Z</time>
   </trkpt>
   <trkpt lat="-3.0854740" lon="37.3694260">
    <ele>5230.4</ele>
    <time>2026-06-23T00:50:57Z</time>
   </trkpt>
   <trkpt lat="-3.0854740" lon="37.3694250">
    <ele>5230.4</ele>
    <time>2026-06-23T00:50:58Z</time>
   </trkpt>
   <trkpt lat="-3.0854730" lon="37.3694240">
    <ele>5230.4</ele>
    <time>2026-06-23T00:50:59Z</time>
   </trkpt>
   <trkpt lat="-3.0854720" lon="37.3694220">
    <ele>5230.5</ele>
    <time>2026-06-23T00:51:00Z</time>
   </trkpt>
   <trkpt lat="-3.0854700" lon="37.3694210">
    <ele>5230.5</ele>
    <time>2026-06-23T00:51:01Z</time>
   </trkpt>
   <trkpt lat="-3.0854660" lon="37.3694180">
    <ele>5230.7</ele>
    <time>2026-06-23T00:51:02Z</time>
   </trkpt>
   <trkpt lat="-3.0854650" lon="37.3694160">
    <ele>5230.7</ele>
    <time>2026-06-23T00:51:03Z</time>
   </trkpt>
   <trkpt lat="-3.0854640" lon="37.3694160">
    <ele>5230.7</ele>
    <time>2026-06-23T00:51:04Z</time>
   </trkpt>
   <trkpt lat="-3.0854600" lon="37.3694110">
    <ele>5230.9</ele>
    <time>2026-06-23T00:51:05Z</time>
   </trkpt>
   <trkpt lat="-3.0854620" lon="37.3694080">
    <ele>5231.0</ele>
    <time>2026-06-23T00:51:06Z</time>
   </trkpt>
   <trkpt lat="-3.0854640" lon="37.3694050">
    <ele>5231.0</ele>
    <time>2026-06-23T00:51:07Z</time>
   </trkpt>
   <trkpt lat="-3.0854650" lon="37.3694030">
    <ele>5231.1</ele>
    <time>2026-06-23T00:51:08Z</time>
   </trkpt>
   <trkpt lat="-3.0854680" lon="37.3693990">
    <ele>5231.2</ele>
    <time>2026-06-23T00:51:09Z</time>
   </trkpt>
   <trkpt lat="-3.0854690" lon="37.3693970">
    <ele>5231.2</ele>
    <time>2026-06-23T00:51:10Z</time>
   </trkpt>
   <trkpt lat="-3.0854700" lon="37.3693960">
    <ele>5231.3</ele>
    <time>2026-06-23T00:51:11Z</time>
   </trkpt>
   <trkpt lat="-3.0854710" lon="37.3693940">
    <ele>5231.3</ele>
    <time>2026-06-23T00:51:12Z</time>
   </trkpt>
   <trkpt lat="-3.0854720" lon="37.3693910">
    <ele>5231.4</ele>
    <time>2026-06-23T00:51:13Z</time>
   </trkpt>
   <trkpt lat="-3.0854720" lon="37.3693900">
    <ele>5231.4</ele>
    <time>2026-06-23T00:51:14Z</time>
   </trkpt>
   <trkpt lat="-3.0854740" lon="37.3693880">
    <ele>5231.5</ele>
    <time>2026-06-23T00:51:15Z</time>
   </trkpt>
   <trkpt lat="-3.0854750" lon="37.3693870">
    <ele>5231.5</ele>
    <time>2026-06-23T00:51:16Z</time>
   </trkpt>
   <trkpt lat="-3.0854750" lon="37.3693870">
    <ele>5231.5</ele>
    <time>2026-06-23T00:51:17Z</time>
   </trkpt>
   <trkpt lat="-3.0854760" lon="37.3693840">
    <ele>5231.6</ele>
    <time>2026-06-23T00:51:18Z</time>
   </trkpt>
   <trkpt lat="-3.0854760" lon="37.3693840">
    <ele>5231.6</ele>
    <time>2026-06-23T00:51:19Z</time>
   </trkpt>
   <trkpt lat="-3.0854750" lon="37.3693810">
    <ele>5231.7</ele>
    <time>2026-06-23T00:51:20Z</time>
   </trkpt>
   <trkpt lat="-3.0854760" lon="37.3693800">
    <ele>5231.7</ele>
    <time>2026-06-23T00:51:21Z</time>
   </trkpt>
   <trkpt lat="-3.0854760" lon="37.3693770">
    <ele>5231.8</ele>
    <time>2026-06-23T00:51:22Z</time>
   </trkpt>
   <trkpt lat="-3.0854760" lon="37.3693760">
    <ele>5231.8</ele>
    <time>2026-06-23T00:51:23Z</time>
   </trkpt>
   <trkpt lat="-3.0854770" lon="37.3693740">
    <ele>5231.8</ele>
    <time>2026-06-23T00:51:24Z</time>
   </trkpt>
   <trkpt lat="-3.0854790" lon="37.3693720">
    <ele>5231.9</ele>
    <time>2026-06-23T00:51:25Z</time>
   </trkpt>
   <trkpt lat="-3.0854790" lon="37.3693700">
    <ele>5231.9</ele>
    <time>2026-06-23T00:51:26Z</time>
   </trkpt>
   <trkpt lat="-3.0854820" lon="37.3693700">
    <ele>5232.0</ele>
    <time>2026-06-23T00:51:27Z</time>
   </trkpt>
   <trkpt lat="-3.0854830" lon="37.3693680">
    <ele>5232.1</ele>
    <time>2026-06-23T00:51:28Z</time>
   </trkpt>
   <trkpt lat="-3.0854820" lon="37.3693690">
    <ele>5232.1</ele>
    <time>2026-06-23T00:51:29Z</time>
   </trkpt>
   <trkpt lat="-3.0854830" lon="37.3693690">
    <ele>5232.1</ele>
    <time>2026-06-23T00:51:30Z</time>
   </trkpt>
   <trkpt lat="-3.0854830" lon="37.3693700">
    <ele>5232.1</ele>
    <time>2026-06-23T00:51:31Z</time>
   </trkpt>
   <trkpt lat="-3.0854830" lon="37.3693670">
    <ele>5232.2</ele>
    <time>2026-06-23T00:51:32Z</time>
   </trkpt>
   <trkpt lat="-3.0854840" lon="37.3693630">
    <ele>5232.3</ele>
    <time>2026-06-23T00:51:33Z</time>
   </trkpt>
   <trkpt lat="-3.0854840" lon="37.3693590">
    <ele>5232.4</ele>
    <time>2026-06-23T00:51:34Z</time>
   </trkpt>
   <trkpt lat="-3.0854860" lon="37.3693580">
    <ele>5232.4</ele>
    <time>2026-06-23T00:51:35Z</time>
   </trkpt>
   <trkpt lat="-3.0854880" lon="37.3693540">
    <ele>5232.5</ele>
    <time>2026-06-23T00:51:36Z</time>
   </trkpt>
   <trkpt lat="-3.0854860" lon="37.3693520">
    <ele>5232.6</ele>
    <time>2026-06-23T00:51:37Z</time>
   </trkpt>
   <trkpt lat="-3.0854860" lon="37.3693480">
    <ele>5232.7</ele>
    <time>2026-06-23T00:51:38Z</time>
   </trkpt>
   <trkpt lat="-3.0854870" lon="37.3693470">
    <ele>5232.7</ele>
    <time>2026-06-23T00:51:39Z</time>
   </trkpt>
   <trkpt lat="-3.0854880" lon="37.3693480">
    <ele>5232.8</ele>
    <time>2026-06-23T00:51:40Z</time>
   </trkpt>
   <trkpt lat="-3.0854900" lon="37.3693440">
    <ele>5232.9</ele>
    <time>2026-06-23T00:51:41Z</time>
   </trkpt>
   <trkpt lat="-3.0854910" lon="37.3693420">
    <ele>5232.9</ele>
    <time>2026-06-23T00:51:42Z</time>
   </trkpt>
   <trkpt lat="-3.0854880" lon="37.3693420">
    <ele>5233.0</ele>
    <time>2026-06-23T00:51:43Z</time>
   </trkpt>
   <trkpt lat="-3.0854900" lon="37.3693350">
    <ele>5233.2</ele>
    <time>2026-06-23T00:51:44Z</time>
   </trkpt>
   <trkpt lat="-3.0854920" lon="37.3693340">
    <ele>5233.2</ele>
    <time>2026-06-23T00:51:45Z</time>
   </trkpt>
   <trkpt lat="-3.0854930" lon="37.3693310">
    <ele>5233.3</ele>
    <time>2026-06-23T00:51:46Z</time>
   </trkpt>
   <trkpt lat="-3.0854930" lon="37.3693290">
    <ele>5233.3</ele>
    <time>2026-06-23T00:51:47Z</time>
   </trkpt>
   <trkpt lat="-3.0854960" lon="37.3693250">
    <ele>5233.4</ele>
    <time>2026-06-23T00:51:48Z</time>
   </trkpt>
   <trkpt lat="-3.0854960" lon="37.3693210">
    <ele>5233.5</ele>
    <time>2026-06-23T00:51:49Z</time>
   </trkpt>
   <trkpt lat="-3.0854950" lon="37.3693210">
    <ele>5233.6</ele>
    <time>2026-06-23T00:51:50Z</time>
   </trkpt>
   <trkpt lat="-3.0854950" lon="37.3693200">
    <ele>5233.6</ele>
    <time>2026-06-23T00:51:51Z</time>
   </trkpt>
   <trkpt lat="-3.0854910" lon="37.3693240">
    <ele>5233.7</ele>
    <time>2026-06-23T00:51:52Z</time>
   </trkpt>
   <trkpt lat="-3.0854930" lon="37.3693230">
    <ele>5233.8</ele>
    <time>2026-06-23T00:51:53Z</time>
   </trkpt>
   <trkpt lat="-3.0854940" lon="37.3693170">
    <ele>5233.9</ele>
    <time>2026-06-23T00:51:54Z</time>
   </trkpt>
   <trkpt lat="-3.0854920" lon="37.3693170">
    <ele>5234.0</ele>
    <time>2026-06-23T00:51:55Z</time>
   </trkpt>
   <trkpt lat="-3.0854890" lon="37.3693180">
    <ele>5234.0</ele>
    <time>2026-06-23T00:51:56Z</time>
   </trkpt>
   <trkpt lat="-3.0854880" lon="37.3693180">
    <ele>5234.1</ele>
    <time>2026-06-23T00:51:57Z</time>
   </trkpt>
   <trkpt lat="-3.0854880" lon="37.3693180">
    <ele>5234.1</ele>
    <time>2026-06-23T00:51:58Z</time>
   </trkpt>
   <trkpt lat="-3.0854870" lon="37.3693190">
    <ele>5234.1</ele>
    <time>2026-06-23T00:51:59Z</time>
   </trkpt>
   <trkpt lat="-3.0854870" lon="37.3693180">
    <ele>5234.1</ele>
    <time>2026-06-23T00:52:00Z</time>
   </trkpt>
   <trkpt lat="-3.0854850" lon="37.3693190">
    <ele>5234.2</ele>
    <time>2026-06-23T00:52:01Z</time>
   </trkpt>
   <trkpt lat="-3.0854840" lon="37.3693190">
    <ele>5234.2</ele>
    <time>2026-06-23T00:52:02Z</time>
   </trkpt>
   <trkpt lat="-3.0854810" lon="37.3693190">
    <ele>5234.3</ele>
    <time>2026-06-23T00:52:03Z</time>
   </trkpt>
   <trkpt lat="-3.0854790" lon="37.3693180">
    <ele>5234.3</ele>
    <time>2026-06-23T00:52:04Z</time>
   </trkpt>
   <trkpt lat="-3.0854780" lon="37.3693190">
    <ele>5234.3</ele>
    <time>2026-06-23T00:52:05Z</time>
   </trkpt>
   <trkpt lat="-3.0854750" lon="37.3693190">
    <ele>5234.4</ele>
    <time>2026-06-23T00:52:06Z</time>
   </trkpt>
   <trkpt lat="-3.0854730" lon="37.3693180">
    <ele>5234.5</ele>
    <time>2026-06-23T00:52:07Z</time>
   </trkpt>
   <trkpt lat="-3.0854720" lon="37.3693210">
    <ele>5234.5</ele>
    <time>2026-06-23T00:52:08Z</time>
   </trkpt>
   <trkpt lat="-3.0854700" lon="37.3693180">
    <ele>5234.6</ele>
    <time>2026-06-23T00:52:09Z</time>
   </trkpt>
   <trkpt lat="-3.0854670" lon="37.3693190">
    <ele>5234.7</ele>
    <time>2026-06-23T00:52:10Z</time>
   </trkpt>
   <trkpt lat="-3.0854660" lon="37.3693180">
    <ele>5234.7</ele>
    <time>2026-06-23T00:52:11Z</time>
   </trkpt>
   <trkpt lat="-3.0854640" lon="37.3693190">
    <ele>5234.8</ele>
    <time>2026-06-23T00:52:12Z</time>
   </trkpt>
   <trkpt lat="-3.0854650" lon="37.3693200">
    <ele>5234.8</ele>
    <time>2026-06-23T00:52:13Z</time>
   </trkpt>
   <trkpt lat="-3.0854630" lon="37.3693180">
    <ele>5234.9</ele>
    <time>2026-06-23T00:52:14Z</time>
   </trkpt>
   <trkpt lat="-3.0854580" lon="37.3693180">
    <ele>5235.0</ele>
    <time>2026-06-23T00:52:15Z</time>
   </trkpt>
   <trkpt lat="-3.0854560" lon="37.3693190">
    <ele>5235.1</ele>
    <time>2026-06-23T00:52:16Z</time>
   </trkpt>
   <trkpt lat="-3.0854540" lon="37.3693190">
    <ele>5235.1</ele>
    <time>2026-06-23T00:52:17Z</time>
   </trkpt>
   <trkpt lat="-3.0854520" lon="37.3693170">
    <ele>5235.2</ele>
    <time>2026-06-23T00:52:18Z</time>
   </trkpt>
   <trkpt lat="-3.0854490" lon="37.3693190">
    <ele>5235.3</ele>
    <time>2026-06-23T00:52:19Z</time>
   </trkpt>
   <trkpt lat="-3.0854470" lon="37.3693210">
    <ele>5235.3</ele>
    <time>2026-06-23T00:52:20Z</time>
   </trkpt>
   <trkpt lat="-3.0854460" lon="37.3693200">
    <ele>5235.4</ele>
    <time>2026-06-23T00:52:21Z</time>
   </trkpt>
   <trkpt lat="-3.0854420" lon="37.3693200">
    <ele>5235.4</ele>
    <time>2026-06-23T00:52:22Z</time>
   </trkpt>
   <trkpt lat="-3.0854410" lon="37.3693190">
    <ele>5235.5</ele>
    <time>2026-06-23T00:52:23Z</time>
   </trkpt>
   <trkpt lat="-3.0854400" lon="37.3693200">
    <ele>5235.5</ele>
    <time>2026-06-23T00:52:24Z</time>
   </trkpt>
   <trkpt lat="-3.0854370" lon="37.3693200">
    <ele>5235.6</ele>
    <time>2026-06-23T00:52:25Z</time>
   </trkpt>
   <trkpt lat="-3.0854350" lon="37.3693220">
    <ele>5235.7</ele>
    <time>2026-06-23T00:52:26Z</time>
   </trkpt>
   <trkpt lat="-3.0854340" lon="37.3693220">
    <ele>5235.7</ele>
    <time>2026-06-23T00:52:28Z</time>
   </trkpt>
   <trkpt lat="-3.0854330" lon="37.3693230">
    <ele>5235.7</ele>
    <time>2026-06-23T00:52:29Z</time>
   </trkpt>
   <trkpt lat="-3.0854330" lon="37.3693230">
    <ele>5235.7</ele>
    <time>2026-06-23T00:52:30Z</time>
   </trkpt>
   <trkpt lat="-3.0854330" lon="37.3693240">
    <ele>5235.7</ele>
    <time>2026-06-23T00:52:31Z</time>
   </trkpt>
   <trkpt lat="-3.0854310" lon="37.3693230">
    <ele>5235.8</ele>
    <time>2026-06-23T00:52:32Z</time>
   </trkpt>
   <trkpt lat="-3.0854290" lon="37.3693240">
    <ele>5235.8</ele>
    <time>2026-06-23T00:52:33Z</time>
   </trkpt>
   <trkpt lat="-3.0854270" lon="37.3693270">
    <ele>5235.9</ele>
    <time>2026-06-23T00:52:34Z</time>
   </trkpt>
   <trkpt lat="-3.0854260" lon="37.3693260">
    <ele>5236.0</ele>
    <time>2026-06-23T00:52:35Z</time>
   </trkpt>
   <trkpt lat="-3.0854260" lon="37.3693260">
    <ele>5236.0</ele>
    <time>2026-06-23T00:52:36Z</time>
   </trkpt>
   <trkpt lat="-3.0854260" lon="37.3693260">
    <ele>5236.0</ele>
    <time>2026-06-23T00:52:37Z</time>
   </trkpt>
   <trkpt lat="-3.0854260" lon="37.3693270">
    <ele>5236.0</ele>
    <time>2026-06-23T00:52:38Z</time>
   </trkpt>
   <trkpt lat="-3.0854260" lon="37.3693270">
    <ele>5236.0</ele>
    <time>2026-06-23T00:52:39Z</time>
   </trkpt>
   <trkpt lat="-3.0854260" lon="37.3693270">
    <ele>5236.0</ele>
    <time>2026-06-23T00:52:40Z</time>
   </trkpt>
   <trkpt lat="-3.0854250" lon="37.3693290">
    <ele>5236.0</ele>
    <time>2026-06-23T00:52:41Z</time>
   </trkpt>
   <trkpt lat="-3.0854210" lon="37.3693300">
    <ele>5236.1</ele>
    <time>2026-06-23T00:52:42Z</time>
   </trkpt>
   <trkpt lat="-3.0854180" lon="37.3693300">
    <ele>5236.2</ele>
    <time>2026-06-23T00:52:43Z</time>
   </trkpt>
   <trkpt lat="-3.0854150" lon="37.3693310">
    <ele>5236.3</ele>
    <time>2026-06-23T00:52:44Z</time>
   </trkpt>
   <trkpt lat="-3.0854130" lon="37.3693270">
    <ele>5236.4</ele>
    <time>2026-06-23T00:52:45Z</time>
   </trkpt>
   <trkpt lat="-3.0854110" lon="37.3693260">
    <ele>5236.4</ele>
    <time>2026-06-23T00:52:46Z</time>
   </trkpt>
   <trkpt lat="-3.0854110" lon="37.3693230">
    <ele>5236.5</ele>
    <time>2026-06-23T00:52:47Z</time>
   </trkpt>
   <trkpt lat="-3.0854100" lon="37.3693220">
    <ele>5236.5</ele>
    <time>2026-06-23T00:52:48Z</time>
   </trkpt>
   <trkpt lat="-3.0854100" lon="37.3693220">
    <ele>5236.5</ele>
    <time>2026-06-23T00:52:49Z</time>
   </trkpt>
   <trkpt lat="-3.0854110" lon="37.3693200">
    <ele>5236.6</ele>
    <time>2026-06-23T00:52:50Z</time>
   </trkpt>
   <trkpt lat="-3.0854130" lon="37.3693180">
    <ele>5236.7</ele>
    <time>2026-06-23T00:52:51Z</time>
   </trkpt>
   <trkpt lat="-3.0854110" lon="37.3693200">
    <ele>5236.7</ele>
    <time>2026-06-23T00:52:52Z</time>
   </trkpt>
   <trkpt lat="-3.0854120" lon="37.3693190">
    <ele>5236.7</ele>
    <time>2026-06-23T00:52:53Z</time>
   </trkpt>
   <trkpt lat="-3.0854120" lon="37.3693200">
    <ele>5236.8</ele>
    <time>2026-06-23T00:52:54Z</time>
   </trkpt>
   <trkpt lat="-3.0854130" lon="37.3693180">
    <ele>5236.8</ele>
    <time>2026-06-23T00:52:55Z</time>
   </trkpt>
   <trkpt lat="-3.0854120" lon="37.3693160">
    <ele>5236.9</ele>
    <time>2026-06-23T00:52:56Z</time>
   </trkpt>
   <trkpt lat="-3.0854130" lon="37.3693100">
    <ele>5237.0</ele>
    <time>2026-06-23T00:52:57Z</time>
   </trkpt>
   <trkpt lat="-3.0854110" lon="37.3693090">
    <ele>5237.1</ele>
    <time>2026-06-23T00:52:58Z</time>
   </trkpt>
   <trkpt lat="-3.0854100" lon="37.3693060">
    <ele>5237.1</ele>
    <time>2026-06-23T00:52:59Z</time>
   </trkpt>
   <trkpt lat="-3.0854090" lon="37.3693020">
    <ele>5237.2</ele>
    <time>2026-06-23T00:53:00Z</time>
   </trkpt>
   <trkpt lat="-3.0854090" lon="37.3693030">
    <ele>5237.3</ele>
    <time>2026-06-23T00:53:01Z</time>
   </trkpt>
   <trkpt lat="-3.0854090" lon="37.3693020">
    <ele>5237.3</ele>
    <time>2026-06-23T00:53:02Z</time>
   </trkpt>
   <trkpt lat="-3.0854090" lon="37.3693020">
    <ele>5237.3</ele>
    <time>2026-06-23T00:53:03Z</time>
   </trkpt>
   <trkpt lat="-3.0854070" lon="37.3693010">
    <ele>5237.3</ele>
    <time>2026-06-23T00:53:04Z</time>
   </trkpt>
   <trkpt lat="-3.0854060" lon="37.3692980">
    <ele>5237.4</ele>
    <time>2026-06-23T00:53:05Z</time>
   </trkpt>
   <trkpt lat="-3.0854040" lon="37.3692960">
    <ele>5237.5</ele>
    <time>2026-06-23T00:53:06Z</time>
   </trkpt>
   <trkpt lat="-3.0854040" lon="37.3692930">
    <ele>5237.6</ele>
    <time>2026-06-23T00:53:07Z</time>
   </trkpt>
   <trkpt lat="-3.0854030" lon="37.3692910">
    <ele>5237.6</ele>
    <time>2026-06-23T00:53:08Z</time>
   </trkpt>
   <trkpt lat="-3.0854030" lon="37.3692900">
    <ele>5237.6</ele>
    <time>2026-06-23T00:53:09Z</time>
   </trkpt>
   <trkpt lat="-3.0854020" lon="37.3692890">
    <ele>5237.7</ele>
    <time>2026-06-23T00:53:10Z</time>
   </trkpt>
   <trkpt lat="-3.0854020" lon="37.3692890">
    <ele>5237.7</ele>
    <time>2026-06-23T00:53:11Z</time>
   </trkpt>
   <trkpt lat="-3.0854000" lon="37.3692890">
    <ele>5237.7</ele>
    <time>2026-06-23T00:53:12Z</time>
   </trkpt>
   <trkpt lat="-3.0854010" lon="37.3692850">
    <ele>5237.8</ele>
    <time>2026-06-23T00:53:13Z</time>
   </trkpt>
   <trkpt lat="-3.0853980" lon="37.3692830">
    <ele>5237.9</ele>
    <time>2026-06-23T00:53:14Z</time>
   </trkpt>
   <trkpt lat="-3.0853970" lon="37.3692790">
    <ele>5238.0</ele>
    <time>2026-06-23T00:53:15Z</time>
   </trkpt>
   <trkpt lat="-3.0853920" lon="37.3692820">
    <ele>5238.1</ele>
    <time>2026-06-23T00:53:16Z</time>
   </trkpt>
   <trkpt lat="-3.0853900" lon="37.3692830">
    <ele>5238.2</ele>
    <time>2026-06-23T00:53:17Z</time>
   </trkpt>
   <trkpt lat="-3.0853880" lon="37.3692830">
    <ele>5238.2</ele>
    <time>2026-06-23T00:53:18Z</time>
   </trkpt>
   <trkpt lat="-3.0853840" lon="37.3692840">
    <ele>5238.3</ele>
    <time>2026-06-23T00:53:19Z</time>
   </trkpt>
   <trkpt lat="-3.0853840" lon="37.3692850">
    <ele>5238.3</ele>
    <time>2026-06-23T00:53:20Z</time>
   </trkpt>
   <trkpt lat="-3.0853830" lon="37.3692860">
    <ele>5238.4</ele>
    <time>2026-06-23T00:53:21Z</time>
   </trkpt>
   <trkpt lat="-3.0853840" lon="37.3692860">
    <ele>5238.4</ele>
    <time>2026-06-23T00:53:22Z</time>
   </trkpt>
   <trkpt lat="-3.0853820" lon="37.3692860">
    <ele>5238.4</ele>
    <time>2026-06-23T00:53:23Z</time>
   </trkpt>
   <trkpt lat="-3.0853800" lon="37.3692860">
    <ele>5238.5</ele>
    <time>2026-06-23T00:53:24Z</time>
   </trkpt>
   <trkpt lat="-3.0853780" lon="37.3692880">
    <ele>5238.6</ele>
    <time>2026-06-23T00:53:25Z</time>
   </trkpt>
   <trkpt lat="-3.0853740" lon="37.3692880">
    <ele>5238.7</ele>
    <time>2026-06-23T00:53:26Z</time>
   </trkpt>
   <trkpt lat="-3.0853710" lon="37.3692890">
    <ele>5238.7</ele>
    <time>2026-06-23T00:53:27Z</time>
   </trkpt>
   <trkpt lat="-3.0853670" lon="37.3692880">
    <ele>5238.8</ele>
    <time>2026-06-23T00:53:28Z</time>
   </trkpt>
   <trkpt lat="-3.0853680" lon="37.3692870">
    <ele>5238.9</ele>
    <time>2026-06-23T00:53:29Z</time>
   </trkpt>
   <trkpt lat="-3.0853690" lon="37.3692880">
    <ele>5238.9</ele>
    <time>2026-06-23T00:53:30Z</time>
   </trkpt>
   <trkpt lat="-3.0853670" lon="37.3692880">
    <ele>5238.9</ele>
    <time>2026-06-23T00:53:31Z</time>
   </trkpt>
   <trkpt lat="-3.0853660" lon="37.3692890">
    <ele>5239.0</ele>
    <time>2026-06-23T00:53:32Z</time>
   </trkpt>
   <trkpt lat="-3.0853620" lon="37.3692880">
    <ele>5239.1</ele>
    <time>2026-06-23T00:53:33Z</time>
   </trkpt>
   <trkpt lat="-3.0853620" lon="37.3692880">
    <ele>5239.1</ele>
    <time>2026-06-23T00:53:34Z</time>
   </trkpt>
   <trkpt lat="-3.0853610" lon="37.3692890">
    <ele>5239.1</ele>
    <time>2026-06-23T00:53:35Z</time>
   </trkpt>
   <trkpt lat="-3.0853560" lon="37.3692890">
    <ele>5239.2</ele>
    <time>2026-06-23T00:53:36Z</time>
   </trkpt>
   <trkpt lat="-3.0853560" lon="37.3692900">
    <ele>5239.2</ele>
    <time>2026-06-23T00:53:37Z</time>
   </trkpt>
   <trkpt lat="-3.0853540" lon="37.3692910">
    <ele>5239.3</ele>
    <time>2026-06-23T00:53:38Z</time>
   </trkpt>
   <trkpt lat="-3.0853540" lon="37.3692920">
    <ele>5239.3</ele>
    <time>2026-06-23T00:53:39Z</time>
   </trkpt>
   <trkpt lat="-3.0853520" lon="37.3692910">
    <ele>5239.4</ele>
    <time>2026-06-23T00:53:40Z</time>
   </trkpt>
   <trkpt lat="-3.0853490" lon="37.3692910">
    <ele>5239.4</ele>
    <time>2026-06-23T00:53:41Z</time>
   </trkpt>
   <trkpt lat="-3.0853480" lon="37.3692910">
    <ele>5239.5</ele>
    <time>2026-06-23T00:53:42Z</time>
   </trkpt>
   <trkpt lat="-3.0853460" lon="37.3692910">
    <ele>5239.5</ele>
    <time>2026-06-23T00:53:43Z</time>
   </trkpt>
   <trkpt lat="-3.0853440" lon="37.3692920">
    <ele>5239.6</ele>
    <time>2026-06-23T00:53:44Z</time>
   </trkpt>
   <trkpt lat="-3.0853430" lon="37.3692920">
    <ele>5239.6</ele>
    <time>2026-06-23T00:53:45Z</time>
   </trkpt>
   <trkpt lat="-3.0853420" lon="37.3692920">
    <ele>5239.6</ele>
    <time>2026-06-23T00:53:46Z</time>
   </trkpt>
   <trkpt lat="-3.0853390" lon="37.3692910">
    <ele>5239.7</ele>
    <time>2026-06-23T00:53:47Z</time>
   </trkpt>
   <trkpt lat="-3.0853370" lon="37.3692910">
    <ele>5239.7</ele>
    <time>2026-06-23T00:53:48Z</time>
   </trkpt>
   <trkpt lat="-3.0853380" lon="37.3692910">
    <ele>5239.8</ele>
    <time>2026-06-23T00:53:49Z</time>
   </trkpt>
   <trkpt lat="-3.0853370" lon="37.3692910">
    <ele>5239.8</ele>
    <time>2026-06-23T00:53:50Z</time>
   </trkpt>
   <trkpt lat="-3.0853360" lon="37.3692900">
    <ele>5239.8</ele>
    <time>2026-06-23T00:53:51Z</time>
   </trkpt>
   <trkpt lat="-3.0853350" lon="37.3692890">
    <ele>5239.9</ele>
    <time>2026-06-23T00:53:52Z</time>
   </trkpt>
   <trkpt lat="-3.0853320" lon="37.3692880">
    <ele>5239.9</ele>
    <time>2026-06-23T00:53:53Z</time>
   </trkpt>
   <trkpt lat="-3.0853310" lon="37.3692890">
    <ele>5240.0</ele>
    <time>2026-06-23T00:53:54Z</time>
   </trkpt>
   <trkpt lat="-3.0853270" lon="37.3692880">
    <ele>5240.1</ele>
    <time>2026-06-23T00:53:55Z</time>
   </trkpt>
   <trkpt lat="-3.0853260" lon="37.3692880">
    <ele>5240.1</ele>
    <time>2026-06-23T00:53:56Z</time>
   </trkpt>
   <trkpt lat="-3.0853230" lon="37.3692870">
    <ele>5240.2</ele>
    <time>2026-06-23T00:53:57Z</time>
   </trkpt>
   <trkpt lat="-3.0853230" lon="37.3692880">
    <ele>5240.2</ele>
    <time>2026-06-23T00:53:58Z</time>
   </trkpt>
   <trkpt lat="-3.0853210" lon="37.3692860">
    <ele>5240.3</ele>
    <time>2026-06-23T00:53:59Z</time>
   </trkpt>
   <trkpt lat="-3.0853190" lon="37.3692860">
    <ele>5240.3</ele>
    <time>2026-06-23T00:54:00Z</time>
   </trkpt>
   <trkpt lat="-3.0853170" lon="37.3692850">
    <ele>5240.4</ele>
    <time>2026-06-23T00:54:01Z</time>
   </trkpt>
   <trkpt lat="-3.0853170" lon="37.3692840">
    <ele>5240.4</ele>
    <time>2026-06-23T00:54:02Z</time>
   </trkpt>
   <trkpt lat="-3.0853170" lon="37.3692830">
    <ele>5240.4</ele>
    <time>2026-06-23T00:54:03Z</time>
   </trkpt>
   <trkpt lat="-3.0853140" lon="37.3692810">
    <ele>5240.5</ele>
    <time>2026-06-23T00:54:04Z</time>
   </trkpt>
   <trkpt lat="-3.0853150" lon="37.3692790">
    <ele>5240.5</ele>
    <time>2026-06-23T00:54:05Z</time>
   </trkpt>
   <trkpt lat="-3.0853150" lon="37.3692760">
    <ele>5240.6</ele>
    <time>2026-06-23T00:54:06Z</time>
   </trkpt>
   <trkpt lat="-3.0853160" lon="37.3692750">
    <ele>5240.6</ele>
    <time>2026-06-23T00:54:07Z</time>
   </trkpt>
   <trkpt lat="-3.0853150" lon="37.3692720">
    <ele>5240.7</ele>
    <time>2026-06-23T00:54:08Z</time>
   </trkpt>
   <trkpt lat="-3.0853170" lon="37.3692720">
    <ele>5240.8</ele>
    <time>2026-06-23T00:54:09Z</time>
   </trkpt>
   <trkpt lat="-3.0853160" lon="37.3692690">
    <ele>5240.8</ele>
    <time>2026-06-23T00:54:10Z</time>
   </trkpt>
   <trkpt lat="-3.0853170" lon="37.3692690">
    <ele>5240.9</ele>
    <time>2026-06-23T00:54:11Z</time>
   </trkpt>
   <trkpt lat="-3.0853170" lon="37.3692670">
    <ele>5240.9</ele>
    <time>2026-06-23T00:54:12Z</time>
   </trkpt>
   <trkpt lat="-3.0853170" lon="37.3692650">
    <ele>5241.0</ele>
    <time>2026-06-23T00:54:13Z</time>
   </trkpt>
   <trkpt lat="-3.0853170" lon="37.3692630">
    <ele>5241.0</ele>
    <time>2026-06-23T00:54:14Z</time>
   </trkpt>
   <trkpt lat="-3.0853160" lon="37.3692610">
    <ele>5241.1</ele>
    <time>2026-06-23T00:54:15Z</time>
   </trkpt>
   <trkpt lat="-3.0853160" lon="37.3692600">
    <ele>5241.1</ele>
    <time>2026-06-23T00:54:16Z</time>
   </trkpt>
   <trkpt lat="-3.0853140" lon="37.3692550">
    <ele>5241.2</ele>
    <time>2026-06-23T00:54:17Z</time>
   </trkpt>
   <trkpt lat="-3.0853130" lon="37.3692530">
    <ele>5241.3</ele>
    <time>2026-06-23T00:54:18Z</time>
   </trkpt>
   <trkpt lat="-3.0853120" lon="37.3692500">
    <ele>5241.4</ele>
    <time>2026-06-23T00:54:19Z</time>
   </trkpt>
   <trkpt lat="-3.0853100" lon="37.3692480">
    <ele>5241.4</ele>
    <time>2026-06-23T00:54:20Z</time>
   </trkpt>
   <trkpt lat="-3.0853090" lon="37.3692450">
    <ele>5241.5</ele>
    <time>2026-06-23T00:54:21Z</time>
   </trkpt>
   <trkpt lat="-3.0853080" lon="37.3692450">
    <ele>5241.5</ele>
    <time>2026-06-23T00:54:22Z</time>
   </trkpt>
   <trkpt lat="-3.0853050" lon="37.3692440">
    <ele>5241.6</ele>
    <time>2026-06-23T00:54:23Z</time>
   </trkpt>
   <trkpt lat="-3.0853030" lon="37.3692450">
    <ele>5241.6</ele>
    <time>2026-06-23T00:54:24Z</time>
   </trkpt>
   <trkpt lat="-3.0853020" lon="37.3692460">
    <ele>5241.7</ele>
    <time>2026-06-23T00:54:25Z</time>
   </trkpt>
   <trkpt lat="-3.0852980" lon="37.3692460">
    <ele>5241.8</ele>
    <time>2026-06-23T00:54:26Z</time>
   </trkpt>
   <trkpt lat="-3.0852970" lon="37.3692480">
    <ele>5241.8</ele>
    <time>2026-06-23T00:54:27Z</time>
   </trkpt>
   <trkpt lat="-3.0852960" lon="37.3692490">
    <ele>5241.9</ele>
    <time>2026-06-23T00:54:28Z</time>
   </trkpt>
   <trkpt lat="-3.0852960" lon="37.3692510">
    <ele>5241.9</ele>
    <time>2026-06-23T00:54:29Z</time>
   </trkpt>
   <trkpt lat="-3.0852940" lon="37.3692530">
    <ele>5242.0</ele>
    <time>2026-06-23T00:54:30Z</time>
   </trkpt>
   <trkpt lat="-3.0852910" lon="37.3692530">
    <ele>5242.1</ele>
    <time>2026-06-23T00:54:31Z</time>
   </trkpt>
   <trkpt lat="-3.0852890" lon="37.3692540">
    <ele>5242.1</ele>
    <time>2026-06-23T00:54:33Z</time>
   </trkpt>
   <trkpt lat="-3.0852890" lon="37.3692540">
    <ele>5242.1</ele>
    <time>2026-06-23T00:54:34Z</time>
   </trkpt>
   <trkpt lat="-3.0852890" lon="37.3692540">
    <ele>5242.1</ele>
    <time>2026-06-23T00:54:35Z</time>
   </trkpt>
   <trkpt lat="-3.0852860" lon="37.3692540">
    <ele>5242.2</ele>
    <time>2026-06-23T00:54:36Z</time>
   </trkpt>
   <trkpt lat="-3.0852840" lon="37.3692540">
    <ele>5242.2</ele>
    <time>2026-06-23T00:54:37Z</time>
   </trkpt>
   <trkpt lat="-3.0852810" lon="37.3692550">
    <ele>5242.3</ele>
    <time>2026-06-23T00:54:38Z</time>
   </trkpt>
   <trkpt lat="-3.0852790" lon="37.3692550">
    <ele>5242.4</ele>
    <time>2026-06-23T00:54:39Z</time>
   </trkpt>
   <trkpt lat="-3.0852780" lon="37.3692550">
    <ele>5242.4</ele>
    <time>2026-06-23T00:54:40Z</time>
   </trkpt>
   <trkpt lat="-3.0852760" lon="37.3692570">
    <ele>5242.4</ele>
    <time>2026-06-23T00:54:41Z</time>
   </trkpt>
   <trkpt lat="-3.0852730" lon="37.3692550">
    <ele>5242.5</ele>
    <time>2026-06-23T00:54:42Z</time>
   </trkpt>
   <trkpt lat="-3.0852720" lon="37.3692560">
    <ele>5242.6</ele>
    <time>2026-06-23T00:54:43Z</time>
   </trkpt>
   <trkpt lat="-3.0852690" lon="37.3692560">
    <ele>5242.6</ele>
    <time>2026-06-23T00:54:44Z</time>
   </trkpt>
   <trkpt lat="-3.0852640" lon="37.3692550">
    <ele>5242.8</ele>
    <time>2026-06-23T00:54:45Z</time>
   </trkpt>
   <trkpt lat="-3.0852610" lon="37.3692560">
    <ele>5242.8</ele>
    <time>2026-06-23T00:54:46Z</time>
   </trkpt>
   <trkpt lat="-3.0852590" lon="37.3692550">
    <ele>5242.9</ele>
    <time>2026-06-23T00:54:47Z</time>
   </trkpt>
   <trkpt lat="-3.0852560" lon="37.3692540">
    <ele>5243.0</ele>
    <time>2026-06-23T00:54:48Z</time>
   </trkpt>
   <trkpt lat="-3.0852550" lon="37.3692550">
    <ele>5243.0</ele>
    <time>2026-06-23T00:54:49Z</time>
   </trkpt>
   <trkpt lat="-3.0852520" lon="37.3692570">
    <ele>5243.1</ele>
    <time>2026-06-23T00:54:50Z</time>
   </trkpt>
   <trkpt lat="-3.0852500" lon="37.3692570">
    <ele>5243.1</ele>
    <time>2026-06-23T00:54:51Z</time>
   </trkpt>
   <trkpt lat="-3.0852490" lon="37.3692570">
    <ele>5243.2</ele>
    <time>2026-06-23T00:54:52Z</time>
   </trkpt>
   <trkpt lat="-3.0852490" lon="37.3692590">
    <ele>5243.2</ele>
    <time>2026-06-23T00:54:53Z</time>
   </trkpt>
   <trkpt lat="-3.0852460" lon="37.3692590">
    <ele>5243.3</ele>
    <time>2026-06-23T00:54:54Z</time>
   </trkpt>
   <trkpt lat="-3.0852440" lon="37.3692590">
    <ele>5243.3</ele>
    <time>2026-06-23T00:54:55Z</time>
   </trkpt>
   <trkpt lat="-3.0852420" lon="37.3692600">
    <ele>5243.4</ele>
    <time>2026-06-23T00:54:56Z</time>
   </trkpt>
   <trkpt lat="-3.0852380" lon="37.3692580">
    <ele>5243.5</ele>
    <time>2026-06-23T00:54:57Z</time>
   </trkpt>
   <trkpt lat="-3.0852360" lon="37.3692600">
    <ele>5243.6</ele>
    <time>2026-06-23T00:54:58Z</time>
   </trkpt>
   <trkpt lat="-3.0852350" lon="37.3692570">
    <ele>5243.6</ele>
    <time>2026-06-23T00:54:59Z</time>
   </trkpt>
   <trkpt lat="-3.0852350" lon="37.3692560">
    <ele>5243.7</ele>
    <time>2026-06-23T00:55:00Z</time>
   </trkpt>
   <trkpt lat="-3.0852350" lon="37.3692520">
    <ele>5243.8</ele>
    <time>2026-06-23T00:55:01Z</time>
   </trkpt>
   <trkpt lat="-3.0852360" lon="37.3692520">
    <ele>5243.8</ele>
    <time>2026-06-23T00:55:02Z</time>
   </trkpt>
   <trkpt lat="-3.0852380" lon="37.3692500">
    <ele>5243.8</ele>
    <time>2026-06-23T00:55:03Z</time>
   </trkpt>
   <trkpt lat="-3.0852360" lon="37.3692470">
    <ele>5243.9</ele>
    <time>2026-06-23T00:55:04Z</time>
   </trkpt>
   <trkpt lat="-3.0852370" lon="37.3692460">
    <ele>5244.0</ele>
    <time>2026-06-23T00:55:05Z</time>
   </trkpt>
   <trkpt lat="-3.0852390" lon="37.3692470">
    <ele>5244.0</ele>
    <time>2026-06-23T00:55:06Z</time>
   </trkpt>
   <trkpt lat="-3.0852400" lon="37.3692430">
    <ele>5244.1</ele>
    <time>2026-06-23T00:55:07Z</time>
   </trkpt>
   <trkpt lat="-3.0852430" lon="37.3692430">
    <ele>5244.2</ele>
    <time>2026-06-23T00:55:08Z</time>
   </trkpt>
   <trkpt lat="-3.0852430" lon="37.3692390">
    <ele>5244.3</ele>
    <time>2026-06-23T00:55:09Z</time>
   </trkpt>
   <trkpt lat="-3.0852460" lon="37.3692370">
    <ele>5244.4</ele>
    <time>2026-06-23T00:55:10Z</time>
   </trkpt>
   <trkpt lat="-3.0852470" lon="37.3692340">
    <ele>5244.4</ele>
    <time>2026-06-23T00:55:11Z</time>
   </trkpt>
   <trkpt lat="-3.0852490" lon="37.3692320">
    <ele>5244.5</ele>
    <time>2026-06-23T00:55:12Z</time>
   </trkpt>
   <trkpt lat="-3.0852490" lon="37.3692280">
    <ele>5244.6</ele>
    <time>2026-06-23T00:55:13Z</time>
   </trkpt>
   <trkpt lat="-3.0852480" lon="37.3692230">
    <ele>5244.7</ele>
    <time>2026-06-23T00:55:14Z</time>
   </trkpt>
   <trkpt lat="-3.0852480" lon="37.3692230">
    <ele>5244.7</ele>
    <time>2026-06-23T00:55:15Z</time>
   </trkpt>
   <trkpt lat="-3.0852460" lon="37.3692210">
    <ele>5244.8</ele>
    <time>2026-06-23T00:55:16Z</time>
   </trkpt>
   <trkpt lat="-3.0852440" lon="37.3692220">
    <ele>5244.9</ele>
    <time>2026-06-23T00:55:17Z</time>
   </trkpt>
   <trkpt lat="-3.0852430" lon="37.3692210">
    <ele>5244.9</ele>
    <time>2026-06-23T00:55:18Z</time>
   </trkpt>
   <trkpt lat="-3.0852420" lon="37.3692230">
    <ele>5244.9</ele>
    <time>2026-06-23T00:55:19Z</time>
   </trkpt>
   <trkpt lat="-3.0852380" lon="37.3692220">
    <ele>5245.0</ele>
    <time>2026-06-23T00:55:20Z</time>
   </trkpt>
   <trkpt lat="-3.0852380" lon="37.3692220">
    <ele>5245.0</ele>
    <time>2026-06-23T00:55:21Z</time>
   </trkpt>
   <trkpt lat="-3.0852370" lon="37.3692260">
    <ele>5245.1</ele>
    <time>2026-06-23T00:55:22Z</time>
   </trkpt>
   <trkpt lat="-3.0852350" lon="37.3692260">
    <ele>5245.2</ele>
    <time>2026-06-23T00:55:23Z</time>
   </trkpt>
   <trkpt lat="-3.0852320" lon="37.3692280">
    <ele>5245.3</ele>
    <time>2026-06-23T00:55:24Z</time>
   </trkpt>
   <trkpt lat="-3.0852300" lon="37.3692280">
    <ele>5245.3</ele>
    <time>2026-06-23T00:55:25Z</time>
   </trkpt>
   <trkpt lat="-3.0852280" lon="37.3692290">
    <ele>5245.4</ele>
    <time>2026-06-23T00:55:26Z</time>
   </trkpt>
   <trkpt lat="-3.0852260" lon="37.3692300">
    <ele>5245.4</ele>
    <time>2026-06-23T00:55:27Z</time>
   </trkpt>
   <trkpt lat="-3.0852250" lon="37.3692300">
    <ele>5245.5</ele>
    <time>2026-06-23T00:55:28Z</time>
   </trkpt>
   <trkpt lat="-3.0852240" lon="37.3692320">
    <ele>5245.5</ele>
    <time>2026-06-23T00:55:29Z</time>
   </trkpt>
   <trkpt lat="-3.0852180" lon="37.3692330">
    <ele>5245.7</ele>
    <time>2026-06-23T00:55:30Z</time>
   </trkpt>
   <trkpt lat="-3.0852190" lon="37.3692330">
    <ele>5245.7</ele>
    <time>2026-06-23T00:55:31Z</time>
   </trkpt>
   <trkpt lat="-3.0852190" lon="37.3692340">
    <ele>5245.7</ele>
    <time>2026-06-23T00:55:32Z</time>
   </trkpt>
   <trkpt lat="-3.0852170" lon="37.3692340">
    <ele>5245.7</ele>
    <time>2026-06-23T00:55:33Z</time>
   </trkpt>
   <trkpt lat="-3.0852160" lon="37.3692350">
    <ele>5245.8</ele>
    <time>2026-06-23T00:55:34Z</time>
   </trkpt>
   <trkpt lat="-3.0852130" lon="37.3692360">
    <ele>5245.9</ele>
    <time>2026-06-23T00:55:35Z</time>
   </trkpt>
   <trkpt lat="-3.0852090" lon="37.3692370">
    <ele>5246.0</ele>
    <time>2026-06-23T00:55:36Z</time>
   </trkpt>
   <trkpt lat="-3.0852080" lon="37.3692380">
    <ele>5246.0</ele>
    <time>2026-06-23T00:55:37Z</time>
   </trkpt>
   <trkpt lat="-3.0852080" lon="37.3692380">
    <ele>5246.0</ele>
    <time>2026-06-23T00:55:38Z</time>
   </trkpt>
   <trkpt lat="-3.0852030" lon="37.3692370">
    <ele>5246.1</ele>
    <time>2026-06-23T00:55:39Z</time>
   </trkpt>
   <trkpt lat="-3.0852030" lon="37.3692390">
    <ele>5246.2</ele>
    <time>2026-06-23T00:55:40Z</time>
   </trkpt>
   <trkpt lat="-3.0851990" lon="37.3692380">
    <ele>5246.3</ele>
    <time>2026-06-23T00:55:41Z</time>
   </trkpt>
   <trkpt lat="-3.0851970" lon="37.3692380">
    <ele>5246.3</ele>
    <time>2026-06-23T00:55:42Z</time>
   </trkpt>
   <trkpt lat="-3.0851970" lon="37.3692390">
    <ele>5246.3</ele>
    <time>2026-06-23T00:55:43Z</time>
   </trkpt>
   <trkpt lat="-3.0851940" lon="37.3692380">
    <ele>5246.4</ele>
    <time>2026-06-23T00:55:44Z</time>
   </trkpt>
   <trkpt lat="-3.0851930" lon="37.3692380">
    <ele>5246.4</ele>
    <time>2026-06-23T00:55:45Z</time>
   </trkpt>
   <trkpt lat="-3.0851900" lon="37.3692360">
    <ele>5246.5</ele>
    <time>2026-06-23T00:55:46Z</time>
   </trkpt>
   <trkpt lat="-3.0851900" lon="37.3692370">
    <ele>5246.5</ele>
    <time>2026-06-23T00:55:47Z</time>
   </trkpt>
   <trkpt lat="-3.0851870" lon="37.3692350">
    <ele>5246.6</ele>
    <time>2026-06-23T00:55:48Z</time>
   </trkpt>
   <trkpt lat="-3.0851870" lon="37.3692350">
    <ele>5246.6</ele>
    <time>2026-06-23T00:55:49Z</time>
   </trkpt>
   <trkpt lat="-3.0851850" lon="37.3692340">
    <ele>5246.7</ele>
    <time>2026-06-23T00:55:50Z</time>
   </trkpt>
   <trkpt lat="-3.0851840" lon="37.3692330">
    <ele>5246.7</ele>
    <time>2026-06-23T00:55:51Z</time>
   </trkpt>
   <trkpt lat="-3.0851820" lon="37.3692330">
    <ele>5246.8</ele>
    <time>2026-06-23T00:55:52Z</time>
   </trkpt>
   <trkpt lat="-3.0851810" lon="37.3692310">
    <ele>5246.8</ele>
    <time>2026-06-23T00:55:53Z</time>
   </trkpt>
   <trkpt lat="-3.0851810" lon="37.3692300">
    <ele>5246.8</ele>
    <time>2026-06-23T00:55:54Z</time>
   </trkpt>
   <trkpt lat="-3.0851800" lon="37.3692280">
    <ele>5246.9</ele>
    <time>2026-06-23T00:55:55Z</time>
   </trkpt>
   <trkpt lat="-3.0851810" lon="37.3692280">
    <ele>5246.9</ele>
    <time>2026-06-23T00:55:56Z</time>
   </trkpt>
   <trkpt lat="-3.0851800" lon="37.3692250">
    <ele>5247.0</ele>
    <time>2026-06-23T00:55:57Z</time>
   </trkpt>
   <trkpt lat="-3.0851810" lon="37.3692240">
    <ele>5247.0</ele>
    <time>2026-06-23T00:55:58Z</time>
   </trkpt>
   <trkpt lat="-3.0851810" lon="37.3692230">
    <ele>5247.1</ele>
    <time>2026-06-23T00:55:59Z</time>
   </trkpt>
   <trkpt lat="-3.0851820" lon="37.3692210">
    <ele>5247.1</ele>
    <time>2026-06-23T00:56:00Z</time>
   </trkpt>
   <trkpt lat="-3.0851810" lon="37.3692170">
    <ele>5247.2</ele>
    <time>2026-06-23T00:56:01Z</time>
   </trkpt>
   <trkpt lat="-3.0851830" lon="37.3692190">
    <ele>5247.3</ele>
    <time>2026-06-23T00:56:02Z</time>
   </trkpt>
   <trkpt lat="-3.0851830" lon="37.3692170">
    <ele>5247.3</ele>
    <time>2026-06-23T00:56:03Z</time>
   </trkpt>
   <trkpt lat="-3.0851830" lon="37.3692150">
    <ele>5247.4</ele>
    <time>2026-06-23T00:56:04Z</time>
   </trkpt>
   <trkpt lat="-3.0851850" lon="37.3692150">
    <ele>5247.4</ele>
    <time>2026-06-23T00:56:05Z</time>
   </trkpt>
   <trkpt lat="-3.0851860" lon="37.3692130">
    <ele>5247.5</ele>
    <time>2026-06-23T00:56:06Z</time>
   </trkpt>
   <trkpt lat="-3.0851860" lon="37.3692100">
    <ele>5247.5</ele>
    <time>2026-06-23T00:56:07Z</time>
   </trkpt>
   <trkpt lat="-3.0851880" lon="37.3692090">
    <ele>5247.6</ele>
    <time>2026-06-23T00:56:08Z</time>
   </trkpt>
   <trkpt lat="-3.0851890" lon="37.3692070">
    <ele>5247.7</ele>
    <time>2026-06-23T00:56:09Z</time>
   </trkpt>
   <trkpt lat="-3.0851910" lon="37.3692060">
    <ele>5247.7</ele>
    <time>2026-06-23T00:56:10Z</time>
   </trkpt>
   <trkpt lat="-3.0851920" lon="37.3692040">
    <ele>5247.8</ele>
    <time>2026-06-23T00:56:11Z</time>
   </trkpt>
   <trkpt lat="-3.0851950" lon="37.3692020">
    <ele>5247.8</ele>
    <time>2026-06-23T00:56:12Z</time>
   </trkpt>
   <trkpt lat="-3.0851930" lon="37.3691990">
    <ele>5247.9</ele>
    <time>2026-06-23T00:56:13Z</time>
   </trkpt>
   <trkpt lat="-3.0851950" lon="37.3691980">
    <ele>5248.0</ele>
    <time>2026-06-23T00:56:14Z</time>
   </trkpt>
   <trkpt lat="-3.0851950" lon="37.3691950">
    <ele>5248.1</ele>
    <time>2026-06-23T00:56:15Z</time>
   </trkpt>
   <trkpt lat="-3.0851950" lon="37.3691940">
    <ele>5248.1</ele>
    <time>2026-06-23T00:56:16Z</time>
   </trkpt>
   <trkpt lat="-3.0851950" lon="37.3691930">
    <ele>5248.1</ele>
    <time>2026-06-23T00:56:17Z</time>
   </trkpt>
   <trkpt lat="-3.0851950" lon="37.3691910">
    <ele>5248.2</ele>
    <time>2026-06-23T00:56:18Z</time>
   </trkpt>
   <trkpt lat="-3.0851950" lon="37.3691880">
    <ele>5248.2</ele>
    <time>2026-06-23T00:56:19Z</time>
   </trkpt>
   <trkpt lat="-3.0851950" lon="37.3691860">
    <ele>5248.3</ele>
    <time>2026-06-23T00:56:20Z</time>
   </trkpt>
   <trkpt lat="-3.0851950" lon="37.3691850">
    <ele>5248.3</ele>
    <time>2026-06-23T00:56:21Z</time>
   </trkpt>
   <trkpt lat="-3.0851950" lon="37.3691830">
    <ele>5248.3</ele>
    <time>2026-06-23T00:56:22Z</time>
   </trkpt>
   <trkpt lat="-3.0851950" lon="37.3691800">
    <ele>5248.4</ele>
    <time>2026-06-23T00:56:23Z</time>
   </trkpt>
   <trkpt lat="-3.0851960" lon="37.3691780">
    <ele>5248.5</ele>
    <time>2026-06-23T00:56:24Z</time>
   </trkpt>
   <trkpt lat="-3.0851950" lon="37.3691770">
    <ele>5248.5</ele>
    <time>2026-06-23T00:56:25Z</time>
   </trkpt>
   <trkpt lat="-3.0851950" lon="37.3691760">
    <ele>5248.5</ele>
    <time>2026-06-23T00:56:26Z</time>
   </trkpt>
   <trkpt lat="-3.0851940" lon="37.3691730">
    <ele>5248.6</ele>
    <time>2026-06-23T00:56:27Z</time>
   </trkpt>
   <trkpt lat="-3.0851920" lon="37.3691720">
    <ele>5248.7</ele>
    <time>2026-06-23T00:56:28Z</time>
   </trkpt>
   <trkpt lat="-3.0851930" lon="37.3691730">
    <ele>5248.7</ele>
    <time>2026-06-23T00:56:29Z</time>
   </trkpt>
   <trkpt lat="-3.0851900" lon="37.3691720">
    <ele>5248.8</ele>
    <time>2026-06-23T00:56:30Z</time>
   </trkpt>
   <trkpt lat="-3.0851890" lon="37.3691730">
    <ele>5248.8</ele>
    <time>2026-06-23T00:56:31Z</time>
   </trkpt>
   <trkpt lat="-3.0851880" lon="37.3691730">
    <ele>5248.8</ele>
    <time>2026-06-23T00:56:32Z</time>
   </trkpt>
   <trkpt lat="-3.0851870" lon="37.3691730">
    <ele>5248.9</ele>
    <time>2026-06-23T00:56:33Z</time>
   </trkpt>
   <trkpt lat="-3.0851850" lon="37.3691720">
    <ele>5248.9</ele>
    <time>2026-06-23T00:56:34Z</time>
   </trkpt>
   <trkpt lat="-3.0851860" lon="37.3691730">
    <ele>5248.9</ele>
    <time>2026-06-23T00:56:35Z</time>
   </trkpt>
   <trkpt lat="-3.0851860" lon="37.3691740">
    <ele>5249.0</ele>
    <time>2026-06-23T00:56:36Z</time>
   </trkpt>
   <trkpt lat="-3.0851860" lon="37.3691740">
    <ele>5249.0</ele>
    <time>2026-06-23T00:56:37Z</time>
   </trkpt>
   <trkpt lat="-3.0851820" lon="37.3691750">
    <ele>5249.1</ele>
    <time>2026-06-23T00:56:39Z</time>
   </trkpt>
   <trkpt lat="-3.0851800" lon="37.3691760">
    <ele>5249.1</ele>
    <time>2026-06-23T00:56:40Z</time>
   </trkpt>
   <trkpt lat="-3.0851790" lon="37.3691770">
    <ele>5249.2</ele>
    <time>2026-06-23T00:56:41Z</time>
   </trkpt>
   <trkpt lat="-3.0851750" lon="37.3691760">
    <ele>5249.2</ele>
    <time>2026-06-23T00:56:42Z</time>
   </trkpt>
   <trkpt lat="-3.0851730" lon="37.3691790">
    <ele>5249.3</ele>
    <time>2026-06-23T00:56:43Z</time>
   </trkpt>
   <trkpt lat="-3.0851700" lon="37.3691760">
    <ele>5249.4</ele>
    <time>2026-06-23T00:56:44Z</time>
   </trkpt>
   <trkpt lat="-3.0851690" lon="37.3691780">
    <ele>5249.5</ele>
    <time>2026-06-23T00:56:45Z</time>
   </trkpt>
   <trkpt lat="-3.0851670" lon="37.3691770">
    <ele>5249.5</ele>
    <time>2026-06-23T00:56:46Z</time>
   </trkpt>
   <trkpt lat="-3.0851660" lon="37.3691760">
    <ele>5249.6</ele>
    <time>2026-06-23T00:56:47Z</time>
   </trkpt>
   <trkpt lat="-3.0851650" lon="37.3691770">
    <ele>5249.6</ele>
    <time>2026-06-23T00:56:48Z</time>
   </trkpt>
   <trkpt lat="-3.0851630" lon="37.3691740">
    <ele>5249.7</ele>
    <time>2026-06-23T00:56:49Z</time>
   </trkpt>
   <trkpt lat="-3.0851610" lon="37.3691730">
    <ele>5249.8</ele>
    <time>2026-06-23T00:56:50Z</time>
   </trkpt>
   <trkpt lat="-3.0851590" lon="37.3691720">
    <ele>5249.8</ele>
    <time>2026-06-23T00:56:51Z</time>
   </trkpt>
   <trkpt lat="-3.0851560" lon="37.3691710">
    <ele>5249.9</ele>
    <time>2026-06-23T00:56:52Z</time>
   </trkpt>
   <trkpt lat="-3.0851560" lon="37.3691700">
    <ele>5249.9</ele>
    <time>2026-06-23T00:56:53Z</time>
   </trkpt>
   <trkpt lat="-3.0851540" lon="37.3691680">
    <ele>5250.0</ele>
    <time>2026-06-23T00:56:54Z</time>
   </trkpt>
   <trkpt lat="-3.0851540" lon="37.3691670">
    <ele>5250.0</ele>
    <time>2026-06-23T00:56:55Z</time>
   </trkpt>
   <trkpt lat="-3.0851520" lon="37.3691660">
    <ele>5250.1</ele>
    <time>2026-06-23T00:56:56Z</time>
   </trkpt>
   <trkpt lat="-3.0851500" lon="37.3691650">
    <ele>5250.1</ele>
    <time>2026-06-23T00:56:57Z</time>
   </trkpt>
   <trkpt lat="-3.0851470" lon="37.3691640">
    <ele>5250.2</ele>
    <time>2026-06-23T00:56:58Z</time>
   </trkpt>
   <trkpt lat="-3.0851440" lon="37.3691650">
    <ele>5250.3</ele>
    <time>2026-06-23T00:56:59Z</time>
   </trkpt>
   <trkpt lat="-3.0851420" lon="37.3691670">
    <ele>5250.3</ele>
    <time>2026-06-23T00:57:00Z</time>
   </trkpt>
   <trkpt lat="-3.0851420" lon="37.3691670">
    <ele>5250.3</ele>
    <time>2026-06-23T00:57:01Z</time>
   </trkpt>
   <trkpt lat="-3.0851410" lon="37.3691690">
    <ele>5250.4</ele>
    <time>2026-06-23T00:57:02Z</time>
   </trkpt>
   <trkpt lat="-3.0851410" lon="37.3691690">
    <ele>5250.4</ele>
    <time>2026-06-23T00:57:03Z</time>
   </trkpt>
   <trkpt lat="-3.0851410" lon="37.3691690">
    <ele>5250.4</ele>
    <time>2026-06-23T00:57:04Z</time>
   </trkpt>
   <trkpt lat="-3.0851420" lon="37.3691690">
    <ele>5250.4</ele>
    <time>2026-06-23T00:57:05Z</time>
   </trkpt>
   <trkpt lat="-3.0851420" lon="37.3691700">
    <ele>5250.4</ele>
    <time>2026-06-23T00:57:06Z</time>
   </trkpt>
   <trkpt lat="-3.0851420" lon="37.3691720">
    <ele>5250.5</ele>
    <time>2026-06-23T00:57:07Z</time>
   </trkpt>
   <trkpt lat="-3.0851400" lon="37.3691730">
    <ele>5250.5</ele>
    <time>2026-06-23T00:57:08Z</time>
   </trkpt>
   <trkpt lat="-3.0851400" lon="37.3691760">
    <ele>5250.6</ele>
    <time>2026-06-23T00:57:09Z</time>
   </trkpt>
   <trkpt lat="-3.0851390" lon="37.3691770">
    <ele>5250.6</ele>
    <time>2026-06-23T00:57:10Z</time>
   </trkpt>
   <trkpt lat="-3.0851370" lon="37.3691790">
    <ele>5250.7</ele>
    <time>2026-06-23T00:57:11Z</time>
   </trkpt>
   <trkpt lat="-3.0851350" lon="37.3691780">
    <ele>5250.8</ele>
    <time>2026-06-23T00:57:12Z</time>
   </trkpt>
   <trkpt lat="-3.0851320" lon="37.3691780">
    <ele>5250.8</ele>
    <time>2026-06-23T00:57:13Z</time>
   </trkpt>
   <trkpt lat="-3.0851330" lon="37.3691780">
    <ele>5250.9</ele>
    <time>2026-06-23T00:57:14Z</time>
   </trkpt>
   <trkpt lat="-3.0851320" lon="37.3691780">
    <ele>5250.9</ele>
    <time>2026-06-23T00:57:15Z</time>
   </trkpt>
   <trkpt lat="-3.0851300" lon="37.3691770">
    <ele>5250.9</ele>
    <time>2026-06-23T00:57:16Z</time>
   </trkpt>
   <trkpt lat="-3.0851290" lon="37.3691750">
    <ele>5251.0</ele>
    <time>2026-06-23T00:57:17Z</time>
   </trkpt>
   <trkpt lat="-3.0851280" lon="37.3691730">
    <ele>5251.0</ele>
    <time>2026-06-23T00:57:18Z</time>
   </trkpt>
   <trkpt lat="-3.0851270" lon="37.3691730">
    <ele>5251.1</ele>
    <time>2026-06-23T00:57:19Z</time>
   </trkpt>
   <trkpt lat="-3.0851260" lon="37.3691700">
    <ele>5251.1</ele>
    <time>2026-06-23T00:57:20Z</time>
   </trkpt>
   <trkpt lat="-3.0851260" lon="37.3691690">
    <ele>5251.2</ele>
    <time>2026-06-23T00:57:21Z</time>
   </trkpt>
   <trkpt lat="-3.0851280" lon="37.3691670">
    <ele>5251.2</ele>
    <time>2026-06-23T00:57:22Z</time>
   </trkpt>
   <trkpt lat="-3.0851280" lon="37.3691650">
    <ele>5251.3</ele>
    <time>2026-06-23T00:57:23Z</time>
   </trkpt>
   <trkpt lat="-3.0851290" lon="37.3691650">
    <ele>5251.3</ele>
    <time>2026-06-23T00:57:24Z</time>
   </trkpt>
   <trkpt lat="-3.0851280" lon="37.3691640">
    <ele>5251.3</ele>
    <time>2026-06-23T00:57:25Z</time>
   </trkpt>
   <trkpt lat="-3.0851290" lon="37.3691610">
    <ele>5251.4</ele>
    <time>2026-06-23T00:57:26Z</time>
   </trkpt>
   <trkpt lat="-3.0851280" lon="37.3691590">
    <ele>5251.5</ele>
    <time>2026-06-23T00:57:27Z</time>
   </trkpt>
   <trkpt lat="-3.0851280" lon="37.3691570">
    <ele>5251.5</ele>
    <time>2026-06-23T00:57:28Z</time>
   </trkpt>
   <trkpt lat="-3.0851260" lon="37.3691560">
    <ele>5251.6</ele>
    <time>2026-06-23T00:57:29Z</time>
   </trkpt>
   <trkpt lat="-3.0851250" lon="37.3691560">
    <ele>5251.6</ele>
    <time>2026-06-23T00:57:30Z</time>
   </trkpt>
   <trkpt lat="-3.0851240" lon="37.3691540">
    <ele>5251.6</ele>
    <time>2026-06-23T00:57:31Z</time>
   </trkpt>
   <trkpt lat="-3.0851230" lon="37.3691540">
    <ele>5251.7</ele>
    <time>2026-06-23T00:57:32Z</time>
   </trkpt>
   <trkpt lat="-3.0851210" lon="37.3691520">
    <ele>5251.7</ele>
    <time>2026-06-23T00:57:33Z</time>
   </trkpt>
   <trkpt lat="-3.0851210" lon="37.3691510">
    <ele>5251.8</ele>
    <time>2026-06-23T00:57:34Z</time>
   </trkpt>
   <trkpt lat="-3.0851230" lon="37.3691490">
    <ele>5251.8</ele>
    <time>2026-06-23T00:57:35Z</time>
   </trkpt>
   <trkpt lat="-3.0851250" lon="37.3691450">
    <ele>5251.9</ele>
    <time>2026-06-23T00:57:36Z</time>
   </trkpt>
   <trkpt lat="-3.0851270" lon="37.3691440">
    <ele>5252.0</ele>
    <time>2026-06-23T00:57:37Z</time>
   </trkpt>
   <trkpt lat="-3.0851280" lon="37.3691430">
    <ele>5252.0</ele>
    <time>2026-06-23T00:57:38Z</time>
   </trkpt>
   <trkpt lat="-3.0851290" lon="37.3691420">
    <ele>5252.1</ele>
    <time>2026-06-23T00:57:39Z</time>
   </trkpt>
   <trkpt lat="-3.0851300" lon="37.3691390">
    <ele>5252.1</ele>
    <time>2026-06-23T00:57:40Z</time>
   </trkpt>
   <trkpt lat="-3.0851310" lon="37.3691390">
    <ele>5252.2</ele>
    <time>2026-06-23T00:57:41Z</time>
   </trkpt>
   <trkpt lat="-3.0851310" lon="37.3691390">
    <ele>5252.2</ele>
    <time>2026-06-23T00:57:42Z</time>
   </trkpt>
   <trkpt lat="-3.0851310" lon="37.3691390">
    <ele>5252.2</ele>
    <time>2026-06-23T00:57:43Z</time>
   </trkpt>
   <trkpt lat="-3.0851320" lon="37.3691390">
    <ele>5252.2</ele>
    <time>2026-06-23T00:57:44Z</time>
   </trkpt>
   <trkpt lat="-3.0851300" lon="37.3691370">
    <ele>5252.2</ele>
    <time>2026-06-23T00:57:45Z</time>
   </trkpt>
   <trkpt lat="-3.0851330" lon="37.3691390">
    <ele>5252.3</ele>
    <time>2026-06-23T00:57:46Z</time>
   </trkpt>
   <trkpt lat="-3.0851340" lon="37.3691360">
    <ele>5252.4</ele>
    <time>2026-06-23T00:57:47Z</time>
   </trkpt>
   <trkpt lat="-3.0851340" lon="37.3691340">
    <ele>5252.5</ele>
    <time>2026-06-23T00:57:48Z</time>
   </trkpt>
   <trkpt lat="-3.0851360" lon="37.3691320">
    <ele>5252.5</ele>
    <time>2026-06-23T00:57:49Z</time>
   </trkpt>
   <trkpt lat="-3.0851380" lon="37.3691310">
    <ele>5252.6</ele>
    <time>2026-06-23T00:57:50Z</time>
   </trkpt>
   <trkpt lat="-3.0851380" lon="37.3691300">
    <ele>5252.6</ele>
    <time>2026-06-23T00:57:51Z</time>
   </trkpt>
   <trkpt lat="-3.0851400" lon="37.3691310">
    <ele>5252.7</ele>
    <time>2026-06-23T00:57:52Z</time>
   </trkpt>
   <trkpt lat="-3.0851400" lon="37.3691280">
    <ele>5252.7</ele>
    <time>2026-06-23T00:57:53Z</time>
   </trkpt>
   <trkpt lat="-3.0851410" lon="37.3691290">
    <ele>5252.8</ele>
    <time>2026-06-23T00:57:54Z</time>
   </trkpt>
   <trkpt lat="-3.0851410" lon="37.3691290">
    <ele>5252.8</ele>
    <time>2026-06-23T00:57:55Z</time>
   </trkpt>
   <trkpt lat="-3.0851400" lon="37.3691280">
    <ele>5252.8</ele>
    <time>2026-06-23T00:57:56Z</time>
   </trkpt>
   <trkpt lat="-3.0851400" lon="37.3691270">
    <ele>5252.8</ele>
    <time>2026-06-23T00:57:57Z</time>
   </trkpt>
   <trkpt lat="-3.0851370" lon="37.3691220">
    <ele>5253.0</ele>
    <time>2026-06-23T00:57:58Z</time>
   </trkpt>
   <trkpt lat="-3.0851370" lon="37.3691210">
    <ele>5253.0</ele>
    <time>2026-06-23T00:57:59Z</time>
   </trkpt>
   <trkpt lat="-3.0851370" lon="37.3691190">
    <ele>5253.0</ele>
    <time>2026-06-23T00:58:00Z</time>
   </trkpt>
   <trkpt lat="-3.0851360" lon="37.3691190">
    <ele>5253.1</ele>
    <time>2026-06-23T00:58:01Z</time>
   </trkpt>
   <trkpt lat="-3.0851370" lon="37.3691170">
    <ele>5253.1</ele>
    <time>2026-06-23T00:58:02Z</time>
   </trkpt>
   <trkpt lat="-3.0851360" lon="37.3691150">
    <ele>5253.2</ele>
    <time>2026-06-23T00:58:03Z</time>
   </trkpt>
   <trkpt lat="-3.0851370" lon="37.3691120">
    <ele>5253.2</ele>
    <time>2026-06-23T00:58:04Z</time>
   </trkpt>
   <trkpt lat="-3.0851380" lon="37.3691110">
    <ele>5253.3</ele>
    <time>2026-06-23T00:58:05Z</time>
   </trkpt>
   <trkpt lat="-3.0851400" lon="37.3691090">
    <ele>5253.3</ele>
    <time>2026-06-23T00:58:06Z</time>
   </trkpt>
   <trkpt lat="-3.0851400" lon="37.3691090">
    <ele>5253.3</ele>
    <time>2026-06-23T00:58:07Z</time>
   </trkpt>
   <trkpt lat="-3.0851430" lon="37.3691070">
    <ele>5253.4</ele>
    <time>2026-06-23T00:58:08Z</time>
   </trkpt>
   <trkpt lat="-3.0851420" lon="37.3691080">
    <ele>5253.5</ele>
    <time>2026-06-23T00:58:09Z</time>
   </trkpt>
   <trkpt lat="-3.0851430" lon="37.3691070">
    <ele>5253.5</ele>
    <time>2026-06-23T00:58:10Z</time>
   </trkpt>
   <trkpt lat="-3.0851450" lon="37.3691060">
    <ele>5253.6</ele>
    <time>2026-06-23T00:58:11Z</time>
   </trkpt>
   <trkpt lat="-3.0851460" lon="37.3691060">
    <ele>5253.6</ele>
    <time>2026-06-23T00:58:12Z</time>
   </trkpt>
   <trkpt lat="-3.0851470" lon="37.3691060">
    <ele>5253.6</ele>
    <time>2026-06-23T00:58:13Z</time>
   </trkpt>
   <trkpt lat="-3.0851470" lon="37.3691050">
    <ele>5253.6</ele>
    <time>2026-06-23T00:58:14Z</time>
   </trkpt>
   <trkpt lat="-3.0851480" lon="37.3691040">
    <ele>5253.7</ele>
    <time>2026-06-23T00:58:15Z</time>
   </trkpt>
   <trkpt lat="-3.0851510" lon="37.3691020">
    <ele>5253.7</ele>
    <time>2026-06-23T00:58:16Z</time>
   </trkpt>
   <trkpt lat="-3.0851560" lon="37.3691010">
    <ele>5253.9</ele>
    <time>2026-06-23T00:58:17Z</time>
   </trkpt>
   <trkpt lat="-3.0851570" lon="37.3690990">
    <ele>5253.9</ele>
    <time>2026-06-23T00:58:18Z</time>
   </trkpt>
   <trkpt lat="-3.0851570" lon="37.3690980">
    <ele>5253.9</ele>
    <time>2026-06-23T00:58:19Z</time>
   </trkpt>
   <trkpt lat="-3.0851570" lon="37.3690970">
    <ele>5254.0</ele>
    <time>2026-06-23T00:58:20Z</time>
   </trkpt>
   <trkpt lat="-3.0851600" lon="37.3690970">
    <ele>5254.0</ele>
    <time>2026-06-23T00:58:21Z</time>
   </trkpt>
   <trkpt lat="-3.0851570" lon="37.3690960">
    <ele>5254.1</ele>
    <time>2026-06-23T00:58:22Z</time>
   </trkpt>
   <trkpt lat="-3.0851570" lon="37.3690960">
    <ele>5254.1</ele>
    <time>2026-06-23T00:58:23Z</time>
   </trkpt>
   <trkpt lat="-3.0851580" lon="37.3690940">
    <ele>5254.2</ele>
    <time>2026-06-23T00:58:24Z</time>
   </trkpt>
   <trkpt lat="-3.0851600" lon="37.3690910">
    <ele>5254.3</ele>
    <time>2026-06-23T00:58:25Z</time>
   </trkpt>
   <trkpt lat="-3.0851610" lon="37.3690890">
    <ele>5254.3</ele>
    <time>2026-06-23T00:58:26Z</time>
   </trkpt>
   <trkpt lat="-3.0851620" lon="37.3690880">
    <ele>5254.3</ele>
    <time>2026-06-23T00:58:27Z</time>
   </trkpt>
   <trkpt lat="-3.0851620" lon="37.3690860">
    <ele>5254.4</ele>
    <time>2026-06-23T00:58:28Z</time>
   </trkpt>
   <trkpt lat="-3.0851620" lon="37.3690840">
    <ele>5254.4</ele>
    <time>2026-06-23T00:58:29Z</time>
   </trkpt>
   <trkpt lat="-3.0851610" lon="37.3690840">
    <ele>5254.5</ele>
    <time>2026-06-23T00:58:30Z</time>
   </trkpt>
   <trkpt lat="-3.0851620" lon="37.3690800">
    <ele>5254.6</ele>
    <time>2026-06-23T00:58:31Z</time>
   </trkpt>
   <trkpt lat="-3.0851610" lon="37.3690770">
    <ele>5254.6</ele>
    <time>2026-06-23T00:58:32Z</time>
   </trkpt>
   <trkpt lat="-3.0851600" lon="37.3690760">
    <ele>5254.7</ele>
    <time>2026-06-23T00:58:33Z</time>
   </trkpt>
   <trkpt lat="-3.0851590" lon="37.3690760">
    <ele>5254.7</ele>
    <time>2026-06-23T00:58:34Z</time>
   </trkpt>
   <trkpt lat="-3.0851580" lon="37.3690750">
    <ele>5254.7</ele>
    <time>2026-06-23T00:58:35Z</time>
   </trkpt>
   <trkpt lat="-3.0851560" lon="37.3690750">
    <ele>5254.8</ele>
    <time>2026-06-23T00:58:36Z</time>
   </trkpt>
   <trkpt lat="-3.0851550" lon="37.3690750">
    <ele>5254.8</ele>
    <time>2026-06-23T00:58:37Z</time>
   </trkpt>
   <trkpt lat="-3.0851530" lon="37.3690750">
    <ele>5254.9</ele>
    <time>2026-06-23T00:58:38Z</time>
   </trkpt>
   <trkpt lat="-3.0851510" lon="37.3690760">
    <ele>5254.9</ele>
    <time>2026-06-23T00:58:39Z</time>
   </trkpt>
   <trkpt lat="-3.0851500" lon="37.3690780">
    <ele>5255.0</ele>
    <time>2026-06-23T00:58:40Z</time>
   </trkpt>
   <trkpt lat="-3.0851470" lon="37.3690770">
    <ele>5255.0</ele>
    <time>2026-06-23T00:58:41Z</time>
   </trkpt>
   <trkpt lat="-3.0851450" lon="37.3690790">
    <ele>5255.1</ele>
    <time>2026-06-23T00:58:42Z</time>
   </trkpt>
   <trkpt lat="-3.0851430" lon="37.3690790">
    <ele>5255.1</ele>
    <time>2026-06-23T00:58:44Z</time>
   </trkpt>
   <trkpt lat="-3.0851440" lon="37.3690800">
    <ele>5255.2</ele>
    <time>2026-06-23T00:58:45Z</time>
   </trkpt>
   <trkpt lat="-3.0851430" lon="37.3690820">
    <ele>5255.2</ele>
    <time>2026-06-23T00:58:46Z</time>
   </trkpt>
   <trkpt lat="-3.0851390" lon="37.3690820">
    <ele>5255.3</ele>
    <time>2026-06-23T00:58:47Z</time>
   </trkpt>
   <trkpt lat="-3.0851370" lon="37.3690830">
    <ele>5255.4</ele>
    <time>2026-06-23T00:58:48Z</time>
   </trkpt>
   <trkpt lat="-3.0851350" lon="37.3690850">
    <ele>5255.5</ele>
    <time>2026-06-23T00:58:49Z</time>
   </trkpt>
   <trkpt lat="-3.0851330" lon="37.3690840">
    <ele>5255.5</ele>
    <time>2026-06-23T00:58:50Z</time>
   </trkpt>
   <trkpt lat="-3.0851310" lon="37.3690840">
    <ele>5255.6</ele>
    <time>2026-06-23T00:58:51Z</time>
   </trkpt>
   <trkpt lat="-3.0851300" lon="37.3690850">
    <ele>5255.6</ele>
    <time>2026-06-23T00:58:52Z</time>
   </trkpt>
   <trkpt lat="-3.0851280" lon="37.3690860">
    <ele>5255.6</ele>
    <time>2026-06-23T00:58:53Z</time>
   </trkpt>
   <trkpt lat="-3.0851280" lon="37.3690860">
    <ele>5255.6</ele>
    <time>2026-06-23T00:58:54Z</time>
   </trkpt>
   <trkpt lat="-3.0851260" lon="37.3690870">
    <ele>5255.7</ele>
    <time>2026-06-23T00:58:55Z</time>
   </trkpt>
   <trkpt lat="-3.0851270" lon="37.3690870">
    <ele>5255.7</ele>
    <time>2026-06-23T00:58:56Z</time>
   </trkpt>
   <trkpt lat="-3.0851250" lon="37.3690850">
    <ele>5255.8</ele>
    <time>2026-06-23T00:58:57Z</time>
   </trkpt>
   <trkpt lat="-3.0851210" lon="37.3690850">
    <ele>5255.9</ele>
    <time>2026-06-23T00:58:58Z</time>
   </trkpt>
   <trkpt lat="-3.0851190" lon="37.3690850">
    <ele>5255.9</ele>
    <time>2026-06-23T00:58:59Z</time>
   </trkpt>
   <trkpt lat="-3.0851170" lon="37.3690830">
    <ele>5256.0</ele>
    <time>2026-06-23T00:59:00Z</time>
   </trkpt>
   <trkpt lat="-3.0851150" lon="37.3690820">
    <ele>5256.1</ele>
    <time>2026-06-23T00:59:01Z</time>
   </trkpt>
   <trkpt lat="-3.0851160" lon="37.3690830">
    <ele>5256.1</ele>
    <time>2026-06-23T00:59:02Z</time>
   </trkpt>
   <trkpt lat="-3.0851160" lon="37.3690760">
    <ele>5256.3</ele>
    <time>2026-06-23T00:59:03Z</time>
   </trkpt>
   <trkpt lat="-3.0851170" lon="37.3690770">
    <ele>5256.3</ele>
    <time>2026-06-23T00:59:04Z</time>
   </trkpt>
   <trkpt lat="-3.0851180" lon="37.3690730">
    <ele>5256.4</ele>
    <time>2026-06-23T00:59:05Z</time>
   </trkpt>
   <trkpt lat="-3.0851160" lon="37.3690730">
    <ele>5256.4</ele>
    <time>2026-06-23T00:59:06Z</time>
   </trkpt>
   <trkpt lat="-3.0851180" lon="37.3690720">
    <ele>5256.5</ele>
    <time>2026-06-23T00:59:07Z</time>
   </trkpt>
   <trkpt lat="-3.0851200" lon="37.3690710">
    <ele>5256.5</ele>
    <time>2026-06-23T00:59:08Z</time>
   </trkpt>
   <trkpt lat="-3.0851180" lon="37.3690720">
    <ele>5256.6</ele>
    <time>2026-06-23T00:59:09Z</time>
   </trkpt>
   <trkpt lat="-3.0851180" lon="37.3690680">
    <ele>5256.7</ele>
    <time>2026-06-23T00:59:10Z</time>
   </trkpt>
   <trkpt lat="-3.0851180" lon="37.3690670">
    <ele>5256.7</ele>
    <time>2026-06-23T00:59:11Z</time>
   </trkpt>
   <trkpt lat="-3.0851190" lon="37.3690660">
    <ele>5256.8</ele>
    <time>2026-06-23T00:59:12Z</time>
   </trkpt>
   <trkpt lat="-3.0851180" lon="37.3690650">
    <ele>5256.8</ele>
    <time>2026-06-23T00:59:13Z</time>
   </trkpt>
   <trkpt lat="-3.0851170" lon="37.3690620">
    <ele>5256.9</ele>
    <time>2026-06-23T00:59:14Z</time>
   </trkpt>
   <trkpt lat="-3.0851160" lon="37.3690590">
    <ele>5256.9</ele>
    <time>2026-06-23T00:59:15Z</time>
   </trkpt>
   <trkpt lat="-3.0851160" lon="37.3690550">
    <ele>5257.0</ele>
    <time>2026-06-23T00:59:16Z</time>
   </trkpt>
   <trkpt lat="-3.0851190" lon="37.3690530">
    <ele>5257.1</ele>
    <time>2026-06-23T00:59:17Z</time>
   </trkpt>
   <trkpt lat="-3.0851170" lon="37.3690500">
    <ele>5257.2</ele>
    <time>2026-06-23T00:59:18Z</time>
   </trkpt>
   <trkpt lat="-3.0851180" lon="37.3690510">
    <ele>5257.2</ele>
    <time>2026-06-23T00:59:19Z</time>
   </trkpt>
   <trkpt lat="-3.0851180" lon="37.3690510">
    <ele>5257.2</ele>
    <time>2026-06-23T00:59:20Z</time>
   </trkpt>
   <trkpt lat="-3.0851180" lon="37.3690540">
    <ele>5257.3</ele>
    <time>2026-06-23T00:59:21Z</time>
   </trkpt>
   <trkpt lat="-3.0851200" lon="37.3690550">
    <ele>5257.4</ele>
    <time>2026-06-23T00:59:22Z</time>
   </trkpt>
   <trkpt lat="-3.0851200" lon="37.3690540">
    <ele>5257.4</ele>
    <time>2026-06-23T00:59:23Z</time>
   </trkpt>
   <trkpt lat="-3.0851220" lon="37.3690540">
    <ele>5257.4</ele>
    <time>2026-06-23T00:59:24Z</time>
   </trkpt>
   <trkpt lat="-3.0851230" lon="37.3690530">
    <ele>5257.5</ele>
    <time>2026-06-23T00:59:25Z</time>
   </trkpt>
   <trkpt lat="-3.0851240" lon="37.3690480">
    <ele>5257.6</ele>
    <time>2026-06-23T00:59:26Z</time>
   </trkpt>
   <trkpt lat="-3.0851240" lon="37.3690400">
    <ele>5257.8</ele>
    <time>2026-06-23T00:59:27Z</time>
   </trkpt>
   <trkpt lat="-3.0851260" lon="37.3690370">
    <ele>5257.9</ele>
    <time>2026-06-23T00:59:28Z</time>
   </trkpt>
   <trkpt lat="-3.0851270" lon="37.3690360">
    <ele>5257.9</ele>
    <time>2026-06-23T00:59:29Z</time>
   </trkpt>
   <trkpt lat="-3.0851290" lon="37.3690340">
    <ele>5258.0</ele>
    <time>2026-06-23T00:59:30Z</time>
   </trkpt>
   <trkpt lat="-3.0851310" lon="37.3690340">
    <ele>5258.0</ele>
    <time>2026-06-23T00:59:31Z</time>
   </trkpt>
   <trkpt lat="-3.0851310" lon="37.3690310">
    <ele>5258.1</ele>
    <time>2026-06-23T00:59:32Z</time>
   </trkpt>
   <trkpt lat="-3.0851320" lon="37.3690310">
    <ele>5258.1</ele>
    <time>2026-06-23T00:59:33Z</time>
   </trkpt>
   <trkpt lat="-3.0851310" lon="37.3690290">
    <ele>5258.2</ele>
    <time>2026-06-23T00:59:34Z</time>
   </trkpt>
   <trkpt lat="-3.0851310" lon="37.3690310">
    <ele>5258.2</ele>
    <time>2026-06-23T00:59:35Z</time>
   </trkpt>
   <trkpt lat="-3.0851340" lon="37.3690270">
    <ele>5258.3</ele>
    <time>2026-06-23T00:59:36Z</time>
   </trkpt>
   <trkpt lat="-3.0851340" lon="37.3690270">
    <ele>5258.3</ele>
    <time>2026-06-23T00:59:37Z</time>
   </trkpt>
   <trkpt lat="-3.0851350" lon="37.3690250">
    <ele>5258.4</ele>
    <time>2026-06-23T00:59:38Z</time>
   </trkpt>
   <trkpt lat="-3.0851350" lon="37.3690230">
    <ele>5258.4</ele>
    <time>2026-06-23T00:59:39Z</time>
   </trkpt>
   <trkpt lat="-3.0851360" lon="37.3690220">
    <ele>5258.5</ele>
    <time>2026-06-23T00:59:40Z</time>
   </trkpt>
   <trkpt lat="-3.0851380" lon="37.3690190">
    <ele>5258.6</ele>
    <time>2026-06-23T00:59:41Z</time>
   </trkpt>
   <trkpt lat="-3.0851360" lon="37.3690190">
    <ele>5258.6</ele>
    <time>2026-06-23T00:59:42Z</time>
   </trkpt>
   <trkpt lat="-3.0851370" lon="37.3690180">
    <ele>5258.6</ele>
    <time>2026-06-23T00:59:43Z</time>
   </trkpt>
   <trkpt lat="-3.0851370" lon="37.3690180">
    <ele>5258.6</ele>
    <time>2026-06-23T00:59:44Z</time>
   </trkpt>
   <trkpt lat="-3.0851380" lon="37.3690160">
    <ele>5258.7</ele>
    <time>2026-06-23T00:59:45Z</time>
   </trkpt>
   <trkpt lat="-3.0851370" lon="37.3690160">
    <ele>5258.7</ele>
    <time>2026-06-23T00:59:46Z</time>
   </trkpt>
   <trkpt lat="-3.0851380" lon="37.3690160">
    <ele>5258.7</ele>
    <time>2026-06-23T00:59:47Z</time>
   </trkpt>
   <trkpt lat="-3.0851370" lon="37.3690140">
    <ele>5258.8</ele>
    <time>2026-06-23T00:59:48Z</time>
   </trkpt>
   <trkpt lat="-3.0851380" lon="37.3690130">
    <ele>5258.8</ele>
    <time>2026-06-23T00:59:49Z</time>
   </trkpt>
   <trkpt lat="-3.0851380" lon="37.3690110">
    <ele>5258.9</ele>
    <time>2026-06-23T00:59:50Z</time>
   </trkpt>
   <trkpt lat="-3.0851380" lon="37.3690100">
    <ele>5258.9</ele>
    <time>2026-06-23T00:59:51Z</time>
   </trkpt>
   <trkpt lat="-3.0851380" lon="37.3690110">
    <ele>5258.9</ele>
    <time>2026-06-23T00:59:52Z</time>
   </trkpt>
   <trkpt lat="-3.0851380" lon="37.3690100">
    <ele>5259.0</ele>
    <time>2026-06-23T00:59:53Z</time>
   </trkpt>
   <trkpt lat="-3.0851380" lon="37.3690100">
    <ele>5259.0</ele>
    <time>2026-06-23T00:59:54Z</time>
   </trkpt>
   <trkpt lat="-3.0851370" lon="37.3690090">
    <ele>5259.0</ele>
    <time>2026-06-23T00:59:55Z</time>
   </trkpt>
   <trkpt lat="-3.0851380" lon="37.3690090">
    <ele>5259.0</ele>
    <time>2026-06-23T00:59:56Z</time>
   </trkpt>
   <trkpt lat="-3.0851380" lon="37.3690100">
    <ele>5259.0</ele>
    <time>2026-06-23T00:59:57Z</time>
   </trkpt>
   <trkpt lat="-3.0851370" lon="37.3690100">
    <ele>5259.1</ele>
    <time>2026-06-23T00:59:58Z</time>
   </trkpt>
   <trkpt lat="-3.0851370" lon="37.3690100">
    <ele>5259.1</ele>
    <time>2026-06-23T00:59:59Z</time>
   </trkpt>
   <trkpt lat="-3.0851370" lon="37.3690100">
    <ele>5259.1</ele>
    <time>2026-06-23T01:00:00Z</time>
   </trkpt>
   <trkpt lat="-3.0851370" lon="37.3690090">
    <ele>5259.1</ele>
    <time>2026-06-23T01:00:01Z</time>
   </trkpt>
   <trkpt lat="-3.0851360" lon="37.3690090">
    <ele>5259.1</ele>
    <time>2026-06-23T01:00:02Z</time>
   </trkpt>
   <trkpt lat="-3.0851360" lon="37.3690090">
    <ele>5259.1</ele>
    <time>2026-06-23T01:00:03Z</time>
   </trkpt>
   <trkpt lat="-3.0851350" lon="37.3690090">
    <ele>5259.1</ele>
    <time>2026-06-23T01:00:04Z</time>
   </trkpt>
   <trkpt lat="-3.0851350" lon="37.3690090">
    <ele>5259.1</ele>
    <time>2026-06-23T01:00:05Z</time>
   </trkpt>
   <trkpt lat="-3.0851350" lon="37.3690090">
    <ele>5259.1</ele>
    <time>2026-06-23T01:00:06Z</time>
   </trkpt>
   <trkpt lat="-3.0851350" lon="37.3690090">
    <ele>5259.1</ele>
    <time>2026-06-23T01:00:07Z</time>
   </trkpt>
   <trkpt lat="-3.0851350" lon="37.3690090">
    <ele>5259.1</ele>
    <time>2026-06-23T01:00:08Z</time>
   </trkpt>
   <trkpt lat="-3.0851340" lon="37.3690080">
    <ele>5259.2</ele>
    <time>2026-06-23T01:00:09Z</time>
   </trkpt>
   <trkpt lat="-3.0851340" lon="37.3690080">
    <ele>5259.2</ele>
    <time>2026-06-23T01:00:10Z</time>
   </trkpt>
   <trkpt lat="-3.0851340" lon="37.3690080">
    <ele>5259.2</ele>
    <time>2026-06-23T01:00:11Z</time>
   </trkpt>
   <trkpt lat="-3.0851340" lon="37.3690090">
    <ele>5259.2</ele>
    <time>2026-06-23T01:00:12Z</time>
   </trkpt>
   <trkpt lat="-3.0851330" lon="37.3690090">
    <ele>5259.2</ele>
    <time>2026-06-23T01:00:13Z</time>
   </trkpt>
   <trkpt lat="-3.0851330" lon="37.3690090">
    <ele>5259.2</ele>
    <time>2026-06-23T01:00:14Z</time>
   </trkpt>
   <trkpt lat="-3.0851320" lon="37.3690090">
    <ele>5259.2</ele>
    <time>2026-06-23T01:00:15Z</time>
   </trkpt>
   <trkpt lat="-3.0851310" lon="37.3690090">
    <ele>5259.3</ele>
    <time>2026-06-23T01:00:16Z</time>
   </trkpt>
   <trkpt lat="-3.0851310" lon="37.3690090">
    <ele>5259.3</ele>
    <time>2026-06-23T01:00:17Z</time>
   </trkpt>
   <trkpt lat="-3.0851310" lon="37.3690090">
    <ele>5259.3</ele>
    <time>2026-06-23T01:00:18Z</time>
   </trkpt>
   <trkpt lat="-3.0851310" lon="37.3690090">
    <ele>5259.3</ele>
    <time>2026-06-23T01:00:19Z</time>
   </trkpt>
   <trkpt lat="-3.0851310" lon="37.3690090">
    <ele>5259.3</ele>
    <time>2026-06-23T01:00:20Z</time>
   </trkpt>
   <trkpt lat="-3.0851310" lon="37.3690090">
    <ele>5259.3</ele>
    <time>2026-06-23T01:00:21Z</time>
   </trkpt>
   <trkpt lat="-3.0851310" lon="37.3690080">
    <ele>5259.3</ele>
    <time>2026-06-23T01:00:22Z</time>
   </trkpt>
   <trkpt lat="-3.0851310" lon="37.3690080">
    <ele>5259.3</ele>
    <time>2026-06-23T01:00:23Z</time>
   </trkpt>
   <trkpt lat="-3.0851310" lon="37.3690080">
    <ele>5259.3</ele>
    <time>2026-06-23T01:00:24Z</time>
   </trkpt>
   <trkpt lat="-3.0851310" lon="37.3690070">
    <ele>5259.3</ele>
    <time>2026-06-23T01:00:25Z</time>
   </trkpt>
   <trkpt lat="-3.0851320" lon="37.3690070">
    <ele>5259.3</ele>
    <time>2026-06-23T01:00:26Z</time>
   </trkpt>
   <trkpt lat="-3.0851320" lon="37.3690080">
    <ele>5259.4</ele>
    <time>2026-06-23T01:00:27Z</time>
   </trkpt>
   <trkpt lat="-3.0851320" lon="37.3690080">
    <ele>5259.4</ele>
    <time>2026-06-23T01:00:28Z</time>
   </trkpt>
   <trkpt lat="-3.0851330" lon="37.3690070">
    <ele>5259.4</ele>
    <time>2026-06-23T01:00:29Z</time>
   </trkpt>
   <trkpt lat="-3.0851320" lon="37.3690080">
    <ele>5259.4</ele>
    <time>2026-06-23T01:00:30Z</time>
   </trkpt>
   <trkpt lat="-3.0851330" lon="37.3690080">
    <ele>5259.5</ele>
    <time>2026-06-23T01:00:31Z</time>
   </trkpt>
   <trkpt lat="-3.0851330" lon="37.3690080">
    <ele>5259.5</ele>
    <time>2026-06-23T01:00:32Z</time>
   </trkpt>
   <trkpt lat="-3.0851330" lon="37.3690080">
    <ele>5259.5</ele>
    <time>2026-06-23T01:00:33Z</time>
   </trkpt>
   <trkpt lat="-3.0851330" lon="37.3690080">
    <ele>5259.5</ele>
    <time>2026-06-23T01:00:34Z</time>
   </trkpt>
   <trkpt lat="-3.0851330" lon="37.3690080">
    <ele>5259.5</ele>
    <time>2026-06-23T01:00:35Z</time>
   </trkpt>
   <trkpt lat="-3.0851330" lon="37.3690090">
    <ele>5259.5</ele>
    <time>2026-06-23T01:00:36Z</time>
   </trkpt>
   <trkpt lat="-3.0851330" lon="37.3690090">
    <ele>5259.5</ele>
    <time>2026-06-23T01:00:37Z</time>
   </trkpt>
   <trkpt lat="-3.0851330" lon="37.3690090">
    <ele>5259.5</ele>
    <time>2026-06-23T01:00:38Z</time>
   </trkpt>
   <trkpt lat="-3.0851330" lon="37.3690090">
    <ele>5259.5</ele>
    <time>2026-06-23T01:00:39Z</time>
   </trkpt>
   <trkpt lat="-3.0851330" lon="37.3690090">
    <ele>5259.5</ele>
    <time>2026-06-23T01:00:40Z</time>
   </trkpt>
   <trkpt lat="-3.0851340" lon="37.3690090">
    <ele>5259.5</ele>
    <time>2026-06-23T01:00:41Z</time>
   </trkpt>
   <trkpt lat="-3.0851340" lon="37.3690090">
    <ele>5259.5</ele>
    <time>2026-06-23T01:00:42Z</time>
   </trkpt>
   <trkpt lat="-3.0851340" lon="37.3690090">
    <ele>5259.5</ele>
    <time>2026-06-23T01:00:43Z</time>
   </trkpt>
   <trkpt lat="-3.0851350" lon="37.3690100">
    <ele>5259.5</ele>
    <time>2026-06-23T01:00:44Z</time>
   </trkpt>
   <trkpt lat="-3.0851340" lon="37.3690100">
    <ele>5259.6</ele>
    <time>2026-06-23T01:00:45Z</time>
   </trkpt>
   <trkpt lat="-3.0851340" lon="37.3690100">
    <ele>5259.6</ele>
    <time>2026-06-23T01:00:46Z</time>
   </trkpt>
   <trkpt lat="-3.0851340" lon="37.3690100">
    <ele>5259.6</ele>
    <time>2026-06-23T01:00:47Z</time>
   </trkpt>
   <trkpt lat="-3.0851350" lon="37.3690110">
    <ele>5259.6</ele>
    <time>2026-06-23T01:00:48Z</time>
   </trkpt>
   <trkpt lat="-3.0851340" lon="37.3690110">
    <ele>5259.6</ele>
    <time>2026-06-23T01:00:50Z</time>
   </trkpt>
   <trkpt lat="-3.0851330" lon="37.3690120">
    <ele>5259.6</ele>
    <time>2026-06-23T01:00:51Z</time>
   </trkpt>
   <trkpt lat="-3.0851330" lon="37.3690110">
    <ele>5259.7</ele>
    <time>2026-06-23T01:00:52Z</time>
   </trkpt>
   <trkpt lat="-3.0851330" lon="37.3690110">
    <ele>5259.7</ele>
    <time>2026-06-23T01:00:53Z</time>
   </trkpt>
   <trkpt lat="-3.0851320" lon="37.3690110">
    <ele>5259.7</ele>
    <time>2026-06-23T01:00:54Z</time>
   </trkpt>
   <trkpt lat="-3.0851320" lon="37.3690110">
    <ele>5259.7</ele>
    <time>2026-06-23T01:00:55Z</time>
   </trkpt>
   <trkpt lat="-3.0851320" lon="37.3690100">
    <ele>5259.7</ele>
    <time>2026-06-23T01:00:56Z</time>
   </trkpt>
   <trkpt lat="-3.0851320" lon="37.3690100">
    <ele>5259.7</ele>
    <time>2026-06-23T01:00:57Z</time>
   </trkpt>
   <trkpt lat="-3.0851330" lon="37.3690030">
    <ele>5259.9</ele>
    <time>2026-06-23T01:00:58Z</time>
   </trkpt>
   <trkpt lat="-3.0851290" lon="37.3690010">
    <ele>5260.0</ele>
    <time>2026-06-23T01:00:59Z</time>
   </trkpt>
   <trkpt lat="-3.0851260" lon="37.3689980">
    <ele>5260.1</ele>
    <time>2026-06-23T01:01:00Z</time>
   </trkpt>
   <trkpt lat="-3.0851220" lon="37.3690000">
    <ele>5260.2</ele>
    <time>2026-06-23T01:01:01Z</time>
   </trkpt>
   <trkpt lat="-3.0851200" lon="37.3690020">
    <ele>5260.3</ele>
    <time>2026-06-23T01:01:02Z</time>
   </trkpt>
   <trkpt lat="-3.0851170" lon="37.3690030">
    <ele>5260.4</ele>
    <time>2026-06-23T01:01:03Z</time>
   </trkpt>
   <trkpt lat="-3.0851150" lon="37.3690020">
    <ele>5260.4</ele>
    <time>2026-06-23T01:01:04Z</time>
   </trkpt>
   <trkpt lat="-3.0851120" lon="37.3690060">
    <ele>5260.5</ele>
    <time>2026-06-23T01:01:05Z</time>
   </trkpt>
   <trkpt lat="-3.0851120" lon="37.3690060">
    <ele>5260.5</ele>
    <time>2026-06-23T01:01:06Z</time>
   </trkpt>
   <trkpt lat="-3.0851120" lon="37.3690050">
    <ele>5260.5</ele>
    <time>2026-06-23T01:01:07Z</time>
   </trkpt>
   <trkpt lat="-3.0851120" lon="37.3690060">
    <ele>5260.6</ele>
    <time>2026-06-23T01:01:08Z</time>
   </trkpt>
   <trkpt lat="-3.0851100" lon="37.3690090">
    <ele>5260.7</ele>
    <time>2026-06-23T01:01:09Z</time>
   </trkpt>
   <trkpt lat="-3.0851100" lon="37.3690110">
    <ele>5260.7</ele>
    <time>2026-06-23T01:01:10Z</time>
   </trkpt>
   <trkpt lat="-3.0851090" lon="37.3690060">
    <ele>5260.8</ele>
    <time>2026-06-23T01:01:11Z</time>
   </trkpt>
   <trkpt lat="-3.0851100" lon="37.3690100">
    <ele>5260.9</ele>
    <time>2026-06-23T01:01:12Z</time>
   </trkpt>
   <trkpt lat="-3.0851080" lon="37.3690090">
    <ele>5261.0</ele>
    <time>2026-06-23T01:01:13Z</time>
   </trkpt>
   <trkpt lat="-3.0851100" lon="37.3690130">
    <ele>5261.1</ele>
    <time>2026-06-23T01:01:14Z</time>
   </trkpt>
   <trkpt lat="-3.0851100" lon="37.3690130">
    <ele>5261.1</ele>
    <time>2026-06-23T01:01:15Z</time>
   </trkpt>
   <trkpt lat="-3.0851080" lon="37.3690120">
    <ele>5261.1</ele>
    <time>2026-06-23T01:01:16Z</time>
   </trkpt>
   <trkpt lat="-3.0851040" lon="37.3690110">
    <ele>5261.2</ele>
    <time>2026-06-23T01:01:17Z</time>
   </trkpt>
   <trkpt lat="-3.0851030" lon="37.3690110">
    <ele>5261.3</ele>
    <time>2026-06-23T01:01:18Z</time>
   </trkpt>
   <trkpt lat="-3.0850980" lon="37.3690120">
    <ele>5261.4</ele>
    <time>2026-06-23T01:01:19Z</time>
   </trkpt>
   <trkpt lat="-3.0850970" lon="37.3690130">
    <ele>5261.4</ele>
    <time>2026-06-23T01:01:20Z</time>
   </trkpt>
   <trkpt lat="-3.0850940" lon="37.3690150">
    <ele>5261.5</ele>
    <time>2026-06-23T01:01:21Z</time>
   </trkpt>
   <trkpt lat="-3.0850890" lon="37.3690160">
    <ele>5261.6</ele>
    <time>2026-06-23T01:01:22Z</time>
   </trkpt>
   <trkpt lat="-3.0850850" lon="37.3690160">
    <ele>5261.7</ele>
    <time>2026-06-23T01:01:23Z</time>
   </trkpt>
   <trkpt lat="-3.0850830" lon="37.3690160">
    <ele>5261.8</ele>
    <time>2026-06-23T01:01:24Z</time>
   </trkpt>
   <trkpt lat="-3.0850750" lon="37.3690160">
    <ele>5262.0</ele>
    <time>2026-06-23T01:01:25Z</time>
   </trkpt>
   <trkpt lat="-3.0850730" lon="37.3690150">
    <ele>5262.0</ele>
    <time>2026-06-23T01:01:26Z</time>
   </trkpt>
   <trkpt lat="-3.0850710" lon="37.3690170">
    <ele>5262.1</ele>
    <time>2026-06-23T01:01:27Z</time>
   </trkpt>
   <trkpt lat="-3.0850680" lon="37.3690180">
    <ele>5262.2</ele>
    <time>2026-06-23T01:01:28Z</time>
   </trkpt>
   <trkpt lat="-3.0850670" lon="37.3690180">
    <ele>5262.2</ele>
    <time>2026-06-23T01:01:29Z</time>
   </trkpt>
   <trkpt lat="-3.0850660" lon="37.3690180">
    <ele>5262.2</ele>
    <time>2026-06-23T01:01:30Z</time>
   </trkpt>
   <trkpt lat="-3.0850650" lon="37.3690190">
    <ele>5262.2</ele>
    <time>2026-06-23T01:01:31Z</time>
   </trkpt>
   <trkpt lat="-3.0850640" lon="37.3690200">
    <ele>5262.3</ele>
    <time>2026-06-23T01:01:32Z</time>
   </trkpt>
   <trkpt lat="-3.0850630" lon="37.3690210">
    <ele>5262.3</ele>
    <time>2026-06-23T01:01:33Z</time>
   </trkpt>
   <trkpt lat="-3.0850610" lon="37.3690210">
    <ele>5262.4</ele>
    <time>2026-06-23T01:01:34Z</time>
   </trkpt>
   <trkpt lat="-3.0850580" lon="37.3690220">
    <ele>5262.4</ele>
    <time>2026-06-23T01:01:35Z</time>
   </trkpt>
   <trkpt lat="-3.0850550" lon="37.3690230">
    <ele>5262.5</ele>
    <time>2026-06-23T01:01:36Z</time>
   </trkpt>
   <trkpt lat="-3.0850530" lon="37.3690240">
    <ele>5262.6</ele>
    <time>2026-06-23T01:01:37Z</time>
   </trkpt>
   <trkpt lat="-3.0850500" lon="37.3690240">
    <ele>5262.6</ele>
    <time>2026-06-23T01:01:38Z</time>
   </trkpt>
   <trkpt lat="-3.0850470" lon="37.3690230">
    <ele>5262.7</ele>
    <time>2026-06-23T01:01:39Z</time>
   </trkpt>
   <trkpt lat="-3.0850470" lon="37.3690220">
    <ele>5262.7</ele>
    <time>2026-06-23T01:01:40Z</time>
   </trkpt>
   <trkpt lat="-3.0850470" lon="37.3690230">
    <ele>5262.8</ele>
    <time>2026-06-23T01:01:41Z</time>
   </trkpt>
   <trkpt lat="-3.0850440" lon="37.3690250">
    <ele>5262.9</ele>
    <time>2026-06-23T01:01:42Z</time>
   </trkpt>
   <trkpt lat="-3.0850400" lon="37.3690260">
    <ele>5263.0</ele>
    <time>2026-06-23T01:01:43Z</time>
   </trkpt>
   <trkpt lat="-3.0850370" lon="37.3690270">
    <ele>5263.0</ele>
    <time>2026-06-23T01:01:44Z</time>
   </trkpt>
   <trkpt lat="-3.0850370" lon="37.3690270">
    <ele>5263.0</ele>
    <time>2026-06-23T01:01:45Z</time>
   </trkpt>
   <trkpt lat="-3.0850340" lon="37.3690260">
    <ele>5263.1</ele>
    <time>2026-06-23T01:01:46Z</time>
   </trkpt>
   <trkpt lat="-3.0850330" lon="37.3690270">
    <ele>5263.1</ele>
    <time>2026-06-23T01:01:47Z</time>
   </trkpt>
   <trkpt lat="-3.0850320" lon="37.3690280">
    <ele>5263.2</ele>
    <time>2026-06-23T01:01:48Z</time>
   </trkpt>
   <trkpt lat="-3.0850310" lon="37.3690290">
    <ele>5263.2</ele>
    <time>2026-06-23T01:01:49Z</time>
   </trkpt>
   <trkpt lat="-3.0850290" lon="37.3690320">
    <ele>5263.3</ele>
    <time>2026-06-23T01:01:50Z</time>
   </trkpt>
   <trkpt lat="-3.0850270" lon="37.3690300">
    <ele>5263.4</ele>
    <time>2026-06-23T01:01:51Z</time>
   </trkpt>
   <trkpt lat="-3.0850270" lon="37.3690300">
    <ele>5263.4</ele>
    <time>2026-06-23T01:01:52Z</time>
   </trkpt>
   <trkpt lat="-3.0850230" lon="37.3690300">
    <ele>5263.5</ele>
    <time>2026-06-23T01:01:53Z</time>
   </trkpt>
   <trkpt lat="-3.0850190" lon="37.3690290">
    <ele>5263.6</ele>
    <time>2026-06-23T01:01:54Z</time>
   </trkpt>
   <trkpt lat="-3.0850220" lon="37.3690260">
    <ele>5263.7</ele>
    <time>2026-06-23T01:01:55Z</time>
   </trkpt>
   <trkpt lat="-3.0850210" lon="37.3690250">
    <ele>5263.7</ele>
    <time>2026-06-23T01:01:56Z</time>
   </trkpt>
   <trkpt lat="-3.0850210" lon="37.3690220">
    <ele>5263.8</ele>
    <time>2026-06-23T01:01:57Z</time>
   </trkpt>
   <trkpt lat="-3.0850200" lon="37.3690200">
    <ele>5263.8</ele>
    <time>2026-06-23T01:01:58Z</time>
   </trkpt>
   <trkpt lat="-3.0850210" lon="37.3690190">
    <ele>5263.9</ele>
    <time>2026-06-23T01:01:59Z</time>
   </trkpt>
   <trkpt lat="-3.0850200" lon="37.3690180">
    <ele>5263.9</ele>
    <time>2026-06-23T01:02:00Z</time>
   </trkpt>
   <trkpt lat="-3.0850210" lon="37.3690190">
    <ele>5263.9</ele>
    <time>2026-06-23T01:02:01Z</time>
   </trkpt>
   <trkpt lat="-3.0850210" lon="37.3690170">
    <ele>5264.0</ele>
    <time>2026-06-23T01:02:02Z</time>
   </trkpt>
   <trkpt lat="-3.0850220" lon="37.3690160">
    <ele>5264.0</ele>
    <time>2026-06-23T01:02:03Z</time>
   </trkpt>
   <trkpt lat="-3.0850220" lon="37.3690130">
    <ele>5264.1</ele>
    <time>2026-06-23T01:02:04Z</time>
   </trkpt>
   <trkpt lat="-3.0850200" lon="37.3690110">
    <ele>5264.2</ele>
    <time>2026-06-23T01:02:05Z</time>
   </trkpt>
   <trkpt lat="-3.0850200" lon="37.3690070">
    <ele>5264.3</ele>
    <time>2026-06-23T01:02:06Z</time>
   </trkpt>
   <trkpt lat="-3.0850210" lon="37.3690070">
    <ele>5264.3</ele>
    <time>2026-06-23T01:02:07Z</time>
   </trkpt>
   <trkpt lat="-3.0850200" lon="37.3690050">
    <ele>5264.3</ele>
    <time>2026-06-23T01:02:08Z</time>
   </trkpt>
   <trkpt lat="-3.0850210" lon="37.3690040">
    <ele>5264.4</ele>
    <time>2026-06-23T01:02:09Z</time>
   </trkpt>
   <trkpt lat="-3.0850200" lon="37.3690040">
    <ele>5264.4</ele>
    <time>2026-06-23T01:02:10Z</time>
   </trkpt>
   <trkpt lat="-3.0850210" lon="37.3690020">
    <ele>5264.5</ele>
    <time>2026-06-23T01:02:11Z</time>
   </trkpt>
   <trkpt lat="-3.0850200" lon="37.3690010">
    <ele>5264.5</ele>
    <time>2026-06-23T01:02:12Z</time>
   </trkpt>
   <trkpt lat="-3.0850230" lon="37.3689990">
    <ele>5264.6</ele>
    <time>2026-06-23T01:02:13Z</time>
   </trkpt>
   <trkpt lat="-3.0850210" lon="37.3690000">
    <ele>5264.6</ele>
    <time>2026-06-23T01:02:14Z</time>
   </trkpt>
   <trkpt lat="-3.0850230" lon="37.3689990">
    <ele>5264.7</ele>
    <time>2026-06-23T01:02:15Z</time>
   </trkpt>
   <trkpt lat="-3.0850210" lon="37.3689980">
    <ele>5264.7</ele>
    <time>2026-06-23T01:02:16Z</time>
   </trkpt>
   <trkpt lat="-3.0850210" lon="37.3689980">
    <ele>5264.7</ele>
    <time>2026-06-23T01:02:17Z</time>
   </trkpt>
   <trkpt lat="-3.0850200" lon="37.3689980">
    <ele>5264.8</ele>
    <time>2026-06-23T01:02:18Z</time>
   </trkpt>
   <trkpt lat="-3.0850210" lon="37.3689970">
    <ele>5264.8</ele>
    <time>2026-06-23T01:02:19Z</time>
   </trkpt>
   <trkpt lat="-3.0850210" lon="37.3689960">
    <ele>5264.8</ele>
    <time>2026-06-23T01:02:20Z</time>
   </trkpt>
   <trkpt lat="-3.0850200" lon="37.3689940">
    <ele>5264.9</ele>
    <time>2026-06-23T01:02:21Z</time>
   </trkpt>
   <trkpt lat="-3.0850210" lon="37.3689940">
    <ele>5264.9</ele>
    <time>2026-06-23T01:02:22Z</time>
   </trkpt>
   <trkpt lat="-3.0850210" lon="37.3689950">
    <ele>5264.9</ele>
    <time>2026-06-23T01:02:23Z</time>
   </trkpt>
   <trkpt lat="-3.0850210" lon="37.3689950">
    <ele>5264.9</ele>
    <time>2026-06-23T01:02:24Z</time>
   </trkpt>
   <trkpt lat="-3.0850200" lon="37.3689950">
    <ele>5265.0</ele>
    <time>2026-06-23T01:02:25Z</time>
   </trkpt>
   <trkpt lat="-3.0850200" lon="37.3689950">
    <ele>5265.0</ele>
    <time>2026-06-23T01:02:26Z</time>
   </trkpt>
   <trkpt lat="-3.0850200" lon="37.3689950">
    <ele>5265.0</ele>
    <time>2026-06-23T01:02:27Z</time>
   </trkpt>
   <trkpt lat="-3.0850200" lon="37.3689950">
    <ele>5265.0</ele>
    <time>2026-06-23T01:02:28Z</time>
   </trkpt>
   <trkpt lat="-3.0850200" lon="37.3689950">
    <ele>5265.0</ele>
    <time>2026-06-23T01:02:29Z</time>
   </trkpt>
   <trkpt lat="-3.0850200" lon="37.3689950">
    <ele>5265.0</ele>
    <time>2026-06-23T01:02:30Z</time>
   </trkpt>
   <trkpt lat="-3.0850200" lon="37.3689940">
    <ele>5265.0</ele>
    <time>2026-06-23T01:02:31Z</time>
   </trkpt>
   <trkpt lat="-3.0850220" lon="37.3689950">
    <ele>5265.0</ele>
    <time>2026-06-23T01:02:32Z</time>
   </trkpt>
   <trkpt lat="-3.0850220" lon="37.3689940">
    <ele>5265.1</ele>
    <time>2026-06-23T01:02:33Z</time>
   </trkpt>
   <trkpt lat="-3.0850230" lon="37.3689950">
    <ele>5265.1</ele>
    <time>2026-06-23T01:02:34Z</time>
   </trkpt>
   <trkpt lat="-3.0850230" lon="37.3689950">
    <ele>5265.1</ele>
    <time>2026-06-23T01:02:35Z</time>
   </trkpt>
   <trkpt lat="-3.0850230" lon="37.3689960">
    <ele>5265.1</ele>
    <time>2026-06-23T01:02:36Z</time>
   </trkpt>
   <trkpt lat="-3.0850230" lon="37.3689950">
    <ele>5265.1</ele>
    <time>2026-06-23T01:02:37Z</time>
   </trkpt>
   <trkpt lat="-3.0850230" lon="37.3689950">
    <ele>5265.1</ele>
    <time>2026-06-23T01:02:38Z</time>
   </trkpt>
   <trkpt lat="-3.0850240" lon="37.3689970">
    <ele>5265.2</ele>
    <time>2026-06-23T01:02:39Z</time>
   </trkpt>
   <trkpt lat="-3.0850240" lon="37.3689970">
    <ele>5265.2</ele>
    <time>2026-06-23T01:02:40Z</time>
   </trkpt>
   <trkpt lat="-3.0850250" lon="37.3689970">
    <ele>5265.2</ele>
    <time>2026-06-23T01:02:41Z</time>
   </trkpt>
   <trkpt lat="-3.0850250" lon="37.3689960">
    <ele>5265.3</ele>
    <time>2026-06-23T01:02:42Z</time>
   </trkpt>
   <trkpt lat="-3.0850250" lon="37.3689970">
    <ele>5265.3</ele>
    <time>2026-06-23T01:02:43Z</time>
   </trkpt>
   <trkpt lat="-3.0850240" lon="37.3689970">
    <ele>5265.3</ele>
    <time>2026-06-23T01:02:44Z</time>
   </trkpt>
   <trkpt lat="-3.0850240" lon="37.3689970">
    <ele>5265.3</ele>
    <time>2026-06-23T01:02:45Z</time>
   </trkpt>
   <trkpt lat="-3.0850240" lon="37.3689970">
    <ele>5265.3</ele>
    <time>2026-06-23T01:02:46Z</time>
   </trkpt>
   <trkpt lat="-3.0850250" lon="37.3689970">
    <ele>5265.3</ele>
    <time>2026-06-23T01:02:47Z</time>
   </trkpt>
   <trkpt lat="-3.0850250" lon="37.3689970">
    <ele>5265.3</ele>
    <time>2026-06-23T01:02:48Z</time>
   </trkpt>
   <trkpt lat="-3.0850250" lon="37.3689970">
    <ele>5265.3</ele>
    <time>2026-06-23T01:02:49Z</time>
   </trkpt>
   <trkpt lat="-3.0850240" lon="37.3689970">
    <ele>5265.3</ele>
    <time>2026-06-23T01:02:50Z</time>
   </trkpt>
   <trkpt lat="-3.0850240" lon="37.3689960">
    <ele>5265.4</ele>
    <time>2026-06-23T01:02:51Z</time>
   </trkpt>
   <trkpt lat="-3.0850230" lon="37.3689930">
    <ele>5265.5</ele>
    <time>2026-06-23T01:02:52Z</time>
   </trkpt>
   <trkpt lat="-3.0850240" lon="37.3689930">
    <ele>5265.5</ele>
    <time>2026-06-23T01:02:53Z</time>
   </trkpt>
   <trkpt lat="-3.0850230" lon="37.3689910">
    <ele>5265.5</ele>
    <time>2026-06-23T01:02:54Z</time>
   </trkpt>
   <trkpt lat="-3.0850220" lon="37.3689910">
    <ele>5265.6</ele>
    <time>2026-06-23T01:02:56Z</time>
   </trkpt>
   <trkpt lat="-3.0850220" lon="37.3689910">
    <ele>5265.6</ele>
    <time>2026-06-23T01:02:57Z</time>
   </trkpt>
   <trkpt lat="-3.0850230" lon="37.3689910">
    <ele>5265.6</ele>
    <time>2026-06-23T01:02:58Z</time>
   </trkpt>
   <trkpt lat="-3.0850230" lon="37.3689920">
    <ele>5265.6</ele>
    <time>2026-06-23T01:02:59Z</time>
   </trkpt>
   <trkpt lat="-3.0850240" lon="37.3689920">
    <ele>5265.6</ele>
    <time>2026-06-23T01:03:00Z</time>
   </trkpt>
   <trkpt lat="-3.0850240" lon="37.3689920">
    <ele>5265.6</ele>
    <time>2026-06-23T01:03:01Z</time>
   </trkpt>
   <trkpt lat="-3.0850240" lon="37.3689920">
    <ele>5265.6</ele>
    <time>2026-06-23T01:03:02Z</time>
   </trkpt>
   <trkpt lat="-3.0850240" lon="37.3689920">
    <ele>5265.6</ele>
    <time>2026-06-23T01:03:03Z</time>
   </trkpt>
   <trkpt lat="-3.0850240" lon="37.3689920">
    <ele>5265.6</ele>
    <time>2026-06-23T01:03:04Z</time>
   </trkpt>
   <trkpt lat="-3.0850240" lon="37.3689920">
    <ele>5265.6</ele>
    <time>2026-06-23T01:03:05Z</time>
   </trkpt>
   <trkpt lat="-3.0850240" lon="37.3689920">
    <ele>5265.6</ele>
    <time>2026-06-23T01:03:06Z</time>
   </trkpt>
   <trkpt lat="-3.0850240" lon="37.3689920">
    <ele>5265.6</ele>
    <time>2026-06-23T01:03:07Z</time>
   </trkpt>
   <trkpt lat="-3.0850240" lon="37.3689920">
    <ele>5265.6</ele>
    <time>2026-06-23T01:03:08Z</time>
   </trkpt>
   <trkpt lat="-3.0850240" lon="37.3689920">
    <ele>5265.6</ele>
    <time>2026-06-23T01:03:09Z</time>
   </trkpt>
   <trkpt lat="-3.0850240" lon="37.3689920">
    <ele>5265.6</ele>
    <time>2026-06-23T01:03:10Z</time>
   </trkpt>
   <trkpt lat="-3.0850240" lon="37.3689920">
    <ele>5265.6</ele>
    <time>2026-06-23T01:03:11Z</time>
   </trkpt>
   <trkpt lat="-3.0850230" lon="37.3689930">
    <ele>5265.7</ele>
    <time>2026-06-23T01:03:12Z</time>
   </trkpt>
   <trkpt lat="-3.0850230" lon="37.3689920">
    <ele>5265.7</ele>
    <time>2026-06-23T01:03:13Z</time>
   </trkpt>
   <trkpt lat="-3.0850230" lon="37.3689920">
    <ele>5265.7</ele>
    <time>2026-06-23T01:03:14Z</time>
   </trkpt>
   <trkpt lat="-3.0850230" lon="37.3689930">
    <ele>5265.7</ele>
    <time>2026-06-23T01:03:15Z</time>
   </trkpt>
   <trkpt lat="-3.0850230" lon="37.3689930">
    <ele>5265.7</ele>
    <time>2026-06-23T01:03:16Z</time>
   </trkpt>
   <trkpt lat="-3.0850230" lon="37.3689930">
    <ele>5265.7</ele>
    <time>2026-06-23T01:03:17Z</time>
   </trkpt>
   <trkpt lat="-3.0850230" lon="37.3689930">
    <ele>5265.7</ele>
    <time>2026-06-23T01:03:18Z</time>
   </trkpt>
   <trkpt lat="-3.0850230" lon="37.3689930">
    <ele>5265.7</ele>
    <time>2026-06-23T01:03:19Z</time>
   </trkpt>
   <trkpt lat="-3.0850230" lon="37.3689930">
    <ele>5265.7</ele>
    <time>2026-06-23T01:03:20Z</time>
   </trkpt>
   <trkpt lat="-3.0850230" lon="37.3689930">
    <ele>5265.7</ele>
    <time>2026-06-23T01:03:21Z</time>
   </trkpt>
   <trkpt lat="-3.0850230" lon="37.3689930">
    <ele>5265.7</ele>
    <time>2026-06-23T01:03:22Z</time>
   </trkpt>
   <trkpt lat="-3.0850230" lon="37.3689930">
    <ele>5265.7</ele>
    <time>2026-06-23T01:03:23Z</time>
   </trkpt>
   <trkpt lat="-3.0850230" lon="37.3689930">
    <ele>5265.7</ele>
    <time>2026-06-23T01:03:24Z</time>
   </trkpt>
   <trkpt lat="-3.0850230" lon="37.3689930">
    <ele>5265.7</ele>
    <time>2026-06-23T01:03:25Z</time>
   </trkpt>
   <trkpt lat="-3.0850230" lon="37.3689920">
    <ele>5265.7</ele>
    <time>2026-06-23T01:03:26Z</time>
   </trkpt>
   <trkpt lat="-3.0850230" lon="37.3689920">
    <ele>5265.7</ele>
    <time>2026-06-23T01:03:27Z</time>
   </trkpt>
   <trkpt lat="-3.0850230" lon="37.3689930">
    <ele>5265.8</ele>
    <time>2026-06-23T01:03:28Z</time>
   </trkpt>
   <trkpt lat="-3.0850220" lon="37.3689920">
    <ele>5265.8</ele>
    <time>2026-06-23T01:03:29Z</time>
   </trkpt>
   <trkpt lat="-3.0850220" lon="37.3689920">
    <ele>5265.8</ele>
    <time>2026-06-23T01:03:30Z</time>
   </trkpt>
   <trkpt lat="-3.0850220" lon="37.3689920">
    <ele>5265.8</ele>
    <time>2026-06-23T01:03:31Z</time>
   </trkpt>
   <trkpt lat="-3.0850210" lon="37.3689910">
    <ele>5265.8</ele>
    <time>2026-06-23T01:03:32Z</time>
   </trkpt>
   <trkpt lat="-3.0850210" lon="37.3689920">
    <ele>5265.9</ele>
    <time>2026-06-23T01:03:33Z</time>
   </trkpt>
   <trkpt lat="-3.0850200" lon="37.3689910">
    <ele>5265.9</ele>
    <time>2026-06-23T01:03:34Z</time>
   </trkpt>
   <trkpt lat="-3.0850200" lon="37.3689910">
    <ele>5265.9</ele>
    <time>2026-06-23T01:03:35Z</time>
   </trkpt>
   <trkpt lat="-3.0850200" lon="37.3689910">
    <ele>5265.9</ele>
    <time>2026-06-23T01:03:36Z</time>
   </trkpt>
   <trkpt lat="-3.0850200" lon="37.3689910">
    <ele>5265.9</ele>
    <time>2026-06-23T01:03:37Z</time>
   </trkpt>
   <trkpt lat="-3.0850200" lon="37.3689910">
    <ele>5265.9</ele>
    <time>2026-06-23T01:03:38Z</time>
   </trkpt>
   <trkpt lat="-3.0850200" lon="37.3689910">
    <ele>5265.9</ele>
    <time>2026-06-23T01:03:39Z</time>
   </trkpt>
   <trkpt lat="-3.0850200" lon="37.3689910">
    <ele>5265.9</ele>
    <time>2026-06-23T01:03:40Z</time>
   </trkpt>
   <trkpt lat="-3.0850200" lon="37.3689910">
    <ele>5265.9</ele>
    <time>2026-06-23T01:03:41Z</time>
   </trkpt>
   <trkpt lat="-3.0850200" lon="37.3689910">
    <ele>5265.9</ele>
    <time>2026-06-23T01:03:42Z</time>
   </trkpt>
   <trkpt lat="-3.0850210" lon="37.3689910">
    <ele>5265.9</ele>
    <time>2026-06-23T01:03:43Z</time>
   </trkpt>
   <trkpt lat="-3.0850190" lon="37.3689900">
    <ele>5266.0</ele>
    <time>2026-06-23T01:03:44Z</time>
   </trkpt>
   <trkpt lat="-3.0850200" lon="37.3689870">
    <ele>5266.1</ele>
    <time>2026-06-23T01:03:45Z</time>
   </trkpt>
   <trkpt lat="-3.0850190" lon="37.3689860">
    <ele>5266.1</ele>
    <time>2026-06-23T01:03:46Z</time>
   </trkpt>
   <trkpt lat="-3.0850180" lon="37.3689840">
    <ele>5266.1</ele>
    <time>2026-06-23T01:03:47Z</time>
   </trkpt>
   <trkpt lat="-3.0850170" lon="37.3689810">
    <ele>5266.2</ele>
    <time>2026-06-23T01:03:48Z</time>
   </trkpt>
   <trkpt lat="-3.0850160" lon="37.3689810">
    <ele>5266.2</ele>
    <time>2026-06-23T01:03:49Z</time>
   </trkpt>
   <trkpt lat="-3.0850170" lon="37.3689810">
    <ele>5266.3</ele>
    <time>2026-06-23T01:03:50Z</time>
   </trkpt>
   <trkpt lat="-3.0850170" lon="37.3689810">
    <ele>5266.3</ele>
    <time>2026-06-23T01:03:51Z</time>
   </trkpt>
   <trkpt lat="-3.0850170" lon="37.3689810">
    <ele>5266.3</ele>
    <time>2026-06-23T01:03:52Z</time>
   </trkpt>
   <trkpt lat="-3.0850180" lon="37.3689800">
    <ele>5266.3</ele>
    <time>2026-06-23T01:03:53Z</time>
   </trkpt>
   <trkpt lat="-3.0850170" lon="37.3689790">
    <ele>5266.3</ele>
    <time>2026-06-23T01:03:54Z</time>
   </trkpt>
   <trkpt lat="-3.0850170" lon="37.3689780">
    <ele>5266.4</ele>
    <time>2026-06-23T01:03:55Z</time>
   </trkpt>
   <trkpt lat="-3.0850150" lon="37.3689750">
    <ele>5266.5</ele>
    <time>2026-06-23T01:03:56Z</time>
   </trkpt>
   <trkpt lat="-3.0850140" lon="37.3689730">
    <ele>5266.5</ele>
    <time>2026-06-23T01:03:57Z</time>
   </trkpt>
   <trkpt lat="-3.0850120" lon="37.3689700">
    <ele>5266.6</ele>
    <time>2026-06-23T01:03:58Z</time>
   </trkpt>
   <trkpt lat="-3.0850110" lon="37.3689670">
    <ele>5266.7</ele>
    <time>2026-06-23T01:03:59Z</time>
   </trkpt>
   <trkpt lat="-3.0850100" lon="37.3689680">
    <ele>5266.7</ele>
    <time>2026-06-23T01:04:00Z</time>
   </trkpt>
   <trkpt lat="-3.0850090" lon="37.3689670">
    <ele>5266.7</ele>
    <time>2026-06-23T01:04:01Z</time>
   </trkpt>
   <trkpt lat="-3.0850090" lon="37.3689660">
    <ele>5266.8</ele>
    <time>2026-06-23T01:04:02Z</time>
   </trkpt>
   <trkpt lat="-3.0850080" lon="37.3689650">
    <ele>5266.8</ele>
    <time>2026-06-23T01:04:03Z</time>
   </trkpt>
   <trkpt lat="-3.0850080" lon="37.3689630">
    <ele>5266.9</ele>
    <time>2026-06-23T01:04:04Z</time>
   </trkpt>
   <trkpt lat="-3.0850070" lon="37.3689600">
    <ele>5266.9</ele>
    <time>2026-06-23T01:04:05Z</time>
   </trkpt>
   <trkpt lat="-3.0850080" lon="37.3689590">
    <ele>5267.0</ele>
    <time>2026-06-23T01:04:06Z</time>
   </trkpt>
   <trkpt lat="-3.0850070" lon="37.3689580">
    <ele>5267.0</ele>
    <time>2026-06-23T01:04:07Z</time>
   </trkpt>
   <trkpt lat="-3.0850070" lon="37.3689560">
    <ele>5267.0</ele>
    <time>2026-06-23T01:04:08Z</time>
   </trkpt>
   <trkpt lat="-3.0850070" lon="37.3689550">
    <ele>5267.1</ele>
    <time>2026-06-23T01:04:09Z</time>
   </trkpt>
   <trkpt lat="-3.0850050" lon="37.3689550">
    <ele>5267.1</ele>
    <time>2026-06-23T01:04:10Z</time>
   </trkpt>
   <trkpt lat="-3.0850040" lon="37.3689520">
    <ele>5267.2</ele>
    <time>2026-06-23T01:04:11Z</time>
   </trkpt>
   <trkpt lat="-3.0850040" lon="37.3689510">
    <ele>5267.2</ele>
    <time>2026-06-23T01:04:12Z</time>
   </trkpt>
   <trkpt lat="-3.0850030" lon="37.3689490">
    <ele>5267.3</ele>
    <time>2026-06-23T01:04:13Z</time>
   </trkpt>
   <trkpt lat="-3.0850040" lon="37.3689470">
    <ele>5267.3</ele>
    <time>2026-06-23T01:04:14Z</time>
   </trkpt>
   <trkpt lat="-3.0850030" lon="37.3689450">
    <ele>5267.4</ele>
    <time>2026-06-23T01:04:15Z</time>
   </trkpt>
   <trkpt lat="-3.0850040" lon="37.3689430">
    <ele>5267.4</ele>
    <time>2026-06-23T01:04:16Z</time>
   </trkpt>
   <trkpt lat="-3.0850050" lon="37.3689410">
    <ele>5267.5</ele>
    <time>2026-06-23T01:04:17Z</time>
   </trkpt>
   <trkpt lat="-3.0850050" lon="37.3689410">
    <ele>5267.5</ele>
    <time>2026-06-23T01:04:18Z</time>
   </trkpt>
   <trkpt lat="-3.0850050" lon="37.3689380">
    <ele>5267.6</ele>
    <time>2026-06-23T01:04:19Z</time>
   </trkpt>
   <trkpt lat="-3.0850050" lon="37.3689380">
    <ele>5267.6</ele>
    <time>2026-06-23T01:04:20Z</time>
   </trkpt>
   <trkpt lat="-3.0850050" lon="37.3689350">
    <ele>5267.6</ele>
    <time>2026-06-23T01:04:21Z</time>
   </trkpt>
   <trkpt lat="-3.0850060" lon="37.3689310">
    <ele>5267.7</ele>
    <time>2026-06-23T01:04:22Z</time>
   </trkpt>
   <trkpt lat="-3.0850060" lon="37.3689280">
    <ele>5267.8</ele>
    <time>2026-06-23T01:04:23Z</time>
   </trkpt>
   <trkpt lat="-3.0850070" lon="37.3689280">
    <ele>5267.8</ele>
    <time>2026-06-23T01:04:24Z</time>
   </trkpt>
   <trkpt lat="-3.0850100" lon="37.3689240">
    <ele>5268.0</ele>
    <time>2026-06-23T01:04:25Z</time>
   </trkpt>
   <trkpt lat="-3.0850100" lon="37.3689230">
    <ele>5268.0</ele>
    <time>2026-06-23T01:04:26Z</time>
   </trkpt>
   <trkpt lat="-3.0850110" lon="37.3689220">
    <ele>5268.0</ele>
    <time>2026-06-23T01:04:27Z</time>
   </trkpt>
   <trkpt lat="-3.0850130" lon="37.3689200">
    <ele>5268.1</ele>
    <time>2026-06-23T01:04:28Z</time>
   </trkpt>
   <trkpt lat="-3.0850150" lon="37.3689180">
    <ele>5268.2</ele>
    <time>2026-06-23T01:04:29Z</time>
   </trkpt>
   <trkpt lat="-3.0850150" lon="37.3689180">
    <ele>5268.2</ele>
    <time>2026-06-23T01:04:30Z</time>
   </trkpt>
   <trkpt lat="-3.0850150" lon="37.3689170">
    <ele>5268.2</ele>
    <time>2026-06-23T01:04:31Z</time>
   </trkpt>
   <trkpt lat="-3.0850170" lon="37.3689170">
    <ele>5268.2</ele>
    <time>2026-06-23T01:04:32Z</time>
   </trkpt>
   <trkpt lat="-3.0850200" lon="37.3689150">
    <ele>5268.3</ele>
    <time>2026-06-23T01:04:33Z</time>
   </trkpt>
   <trkpt lat="-3.0850230" lon="37.3689140">
    <ele>5268.4</ele>
    <time>2026-06-23T01:04:34Z</time>
   </trkpt>
   <trkpt lat="-3.0850260" lon="37.3689100">
    <ele>5268.5</ele>
    <time>2026-06-23T01:04:35Z</time>
   </trkpt>
   <trkpt lat="-3.0850260" lon="37.3689090">
    <ele>5268.6</ele>
    <time>2026-06-23T01:04:36Z</time>
   </trkpt>
   <trkpt lat="-3.0850270" lon="37.3689080">
    <ele>5268.6</ele>
    <time>2026-06-23T01:04:37Z</time>
   </trkpt>
   <trkpt lat="-3.0850290" lon="37.3689080">
    <ele>5268.6</ele>
    <time>2026-06-23T01:04:38Z</time>
   </trkpt>
   <trkpt lat="-3.0850280" lon="37.3689060">
    <ele>5268.7</ele>
    <time>2026-06-23T01:04:39Z</time>
   </trkpt>
   <trkpt lat="-3.0850300" lon="37.3689040">
    <ele>5268.8</ele>
    <time>2026-06-23T01:04:40Z</time>
   </trkpt>
   <trkpt lat="-3.0850300" lon="37.3689020">
    <ele>5268.8</ele>
    <time>2026-06-23T01:04:41Z</time>
   </trkpt>
   <trkpt lat="-3.0850300" lon="37.3689000">
    <ele>5268.9</ele>
    <time>2026-06-23T01:04:42Z</time>
   </trkpt>
   <trkpt lat="-3.0850290" lon="37.3688990">
    <ele>5268.9</ele>
    <time>2026-06-23T01:04:43Z</time>
   </trkpt>
   <trkpt lat="-3.0850300" lon="37.3688960">
    <ele>5269.0</ele>
    <time>2026-06-23T01:04:44Z</time>
   </trkpt>
   <trkpt lat="-3.0850280" lon="37.3688940">
    <ele>5269.0</ele>
    <time>2026-06-23T01:04:45Z</time>
   </trkpt>
   <trkpt lat="-3.0850270" lon="37.3688920">
    <ele>5269.1</ele>
    <time>2026-06-23T01:04:46Z</time>
   </trkpt>
   <trkpt lat="-3.0850260" lon="37.3688890">
    <ele>5269.2</ele>
    <time>2026-06-23T01:04:47Z</time>
   </trkpt>
   <trkpt lat="-3.0850240" lon="37.3688900">
    <ele>5269.2</ele>
    <time>2026-06-23T01:04:48Z</time>
   </trkpt>
   <trkpt lat="-3.0850210" lon="37.3688890">
    <ele>5269.3</ele>
    <time>2026-06-23T01:04:49Z</time>
   </trkpt>
   <trkpt lat="-3.0850200" lon="37.3688890">
    <ele>5269.3</ele>
    <time>2026-06-23T01:04:50Z</time>
   </trkpt>
   <trkpt lat="-3.0850190" lon="37.3688900">
    <ele>5269.4</ele>
    <time>2026-06-23T01:04:51Z</time>
   </trkpt>
   <trkpt lat="-3.0850180" lon="37.3688890">
    <ele>5269.4</ele>
    <time>2026-06-23T01:04:52Z</time>
   </trkpt>
   <trkpt lat="-3.0850170" lon="37.3688880">
    <ele>5269.4</ele>
    <time>2026-06-23T01:04:53Z</time>
   </trkpt>
   <trkpt lat="-3.0850150" lon="37.3688890">
    <ele>5269.5</ele>
    <time>2026-06-23T01:04:54Z</time>
   </trkpt>
   <trkpt lat="-3.0850140" lon="37.3688900">
    <ele>5269.5</ele>
    <time>2026-06-23T01:04:55Z</time>
   </trkpt>
   <trkpt lat="-3.0850120" lon="37.3688900">
    <ele>5269.6</ele>
    <time>2026-06-23T01:04:56Z</time>
   </trkpt>
   <trkpt lat="-3.0850110" lon="37.3688890">
    <ele>5269.6</ele>
    <time>2026-06-23T01:04:57Z</time>
   </trkpt>
   <trkpt lat="-3.0850090" lon="37.3688890">
    <ele>5269.7</ele>
    <time>2026-06-23T01:04:58Z</time>
   </trkpt>
   <trkpt lat="-3.0850090" lon="37.3688890">
    <ele>5269.7</ele>
    <time>2026-06-23T01:04:59Z</time>
   </trkpt>
   <trkpt lat="-3.0850080" lon="37.3688890">
    <ele>5269.7</ele>
    <time>2026-06-23T01:05:00Z</time>
   </trkpt>
   <trkpt lat="-3.0850060" lon="37.3688900">
    <ele>5269.7</ele>
    <time>2026-06-23T01:05:02Z</time>
   </trkpt>
   <trkpt lat="-3.0850050" lon="37.3688890">
    <ele>5269.8</ele>
    <time>2026-06-23T01:05:03Z</time>
   </trkpt>
   <trkpt lat="-3.0850020" lon="37.3688900">
    <ele>5269.9</ele>
    <time>2026-06-23T01:05:04Z</time>
   </trkpt>
   <trkpt lat="-3.0850000" lon="37.3688900">
    <ele>5269.9</ele>
    <time>2026-06-23T01:05:05Z</time>
   </trkpt>
   <trkpt lat="-3.0849990" lon="37.3688900">
    <ele>5269.9</ele>
    <time>2026-06-23T01:05:06Z</time>
   </trkpt>
   <trkpt lat="-3.0849990" lon="37.3688900">
    <ele>5269.9</ele>
    <time>2026-06-23T01:05:07Z</time>
   </trkpt>
   <trkpt lat="-3.0849980" lon="37.3688900">
    <ele>5270.0</ele>
    <time>2026-06-23T01:05:08Z</time>
   </trkpt>
   <trkpt lat="-3.0849980" lon="37.3688900">
    <ele>5270.0</ele>
    <time>2026-06-23T01:05:09Z</time>
   </trkpt>
   <trkpt lat="-3.0849960" lon="37.3688900">
    <ele>5270.0</ele>
    <time>2026-06-23T01:05:10Z</time>
   </trkpt>
   <trkpt lat="-3.0849930" lon="37.3688890">
    <ele>5270.1</ele>
    <time>2026-06-23T01:05:11Z</time>
   </trkpt>
   <trkpt lat="-3.0849920" lon="37.3688890">
    <ele>5270.1</ele>
    <time>2026-06-23T01:05:12Z</time>
   </trkpt>
   <trkpt lat="-3.0849880" lon="37.3688890">
    <ele>5270.2</ele>
    <time>2026-06-23T01:05:13Z</time>
   </trkpt>
   <trkpt lat="-3.0849860" lon="37.3688890">
    <ele>5270.3</ele>
    <time>2026-06-23T01:05:14Z</time>
   </trkpt>
   <trkpt lat="-3.0849840" lon="37.3688890">
    <ele>5270.3</ele>
    <time>2026-06-23T01:05:15Z</time>
   </trkpt>
   <trkpt lat="-3.0849810" lon="37.3688890">
    <ele>5270.4</ele>
    <time>2026-06-23T01:05:16Z</time>
   </trkpt>
   <trkpt lat="-3.0849780" lon="37.3688890">
    <ele>5270.5</ele>
    <time>2026-06-23T01:05:17Z</time>
   </trkpt>
   <trkpt lat="-3.0849740" lon="37.3688880">
    <ele>5270.6</ele>
    <time>2026-06-23T01:05:18Z</time>
   </trkpt>
   <trkpt lat="-3.0849730" lon="37.3688860">
    <ele>5270.6</ele>
    <time>2026-06-23T01:05:19Z</time>
   </trkpt>
   <trkpt lat="-3.0849730" lon="37.3688840">
    <ele>5270.7</ele>
    <time>2026-06-23T01:05:20Z</time>
   </trkpt>
   <trkpt lat="-3.0849720" lon="37.3688800">
    <ele>5270.8</ele>
    <time>2026-06-23T01:05:21Z</time>
   </trkpt>
   <trkpt lat="-3.0849720" lon="37.3688800">
    <ele>5270.8</ele>
    <time>2026-06-23T01:05:22Z</time>
   </trkpt>
   <trkpt lat="-3.0849700" lon="37.3688760">
    <ele>5270.9</ele>
    <time>2026-06-23T01:05:23Z</time>
   </trkpt>
   <trkpt lat="-3.0849690" lon="37.3688770">
    <ele>5270.9</ele>
    <time>2026-06-23T01:05:24Z</time>
   </trkpt>
   <trkpt lat="-3.0849680" lon="37.3688760">
    <ele>5270.9</ele>
    <time>2026-06-23T01:05:25Z</time>
   </trkpt>
   <trkpt lat="-3.0849680" lon="37.3688770">
    <ele>5271.0</ele>
    <time>2026-06-23T01:05:26Z</time>
   </trkpt>
   <trkpt lat="-3.0849660" lon="37.3688780">
    <ele>5271.0</ele>
    <time>2026-06-23T01:05:27Z</time>
   </trkpt>
   <trkpt lat="-3.0849650" lon="37.3688790">
    <ele>5271.1</ele>
    <time>2026-06-23T01:05:28Z</time>
   </trkpt>
   <trkpt lat="-3.0849650" lon="37.3688780">
    <ele>5271.1</ele>
    <time>2026-06-23T01:05:29Z</time>
   </trkpt>
   <trkpt lat="-3.0849630" lon="37.3688800">
    <ele>5271.2</ele>
    <time>2026-06-23T01:05:30Z</time>
   </trkpt>
   <trkpt lat="-3.0849610" lon="37.3688790">
    <ele>5271.2</ele>
    <time>2026-06-23T01:05:31Z</time>
   </trkpt>
   <trkpt lat="-3.0849600" lon="37.3688800">
    <ele>5271.2</ele>
    <time>2026-06-23T01:05:32Z</time>
   </trkpt>
   <trkpt lat="-3.0849590" lon="37.3688800">
    <ele>5271.3</ele>
    <time>2026-06-23T01:05:33Z</time>
   </trkpt>
   <trkpt lat="-3.0849580" lon="37.3688800">
    <ele>5271.3</ele>
    <time>2026-06-23T01:05:34Z</time>
   </trkpt>
   <trkpt lat="-3.0849560" lon="37.3688800">
    <ele>5271.3</ele>
    <time>2026-06-23T01:05:35Z</time>
   </trkpt>
   <trkpt lat="-3.0849540" lon="37.3688800">
    <ele>5271.4</ele>
    <time>2026-06-23T01:05:36Z</time>
   </trkpt>
   <trkpt lat="-3.0849540" lon="37.3688810">
    <ele>5271.4</ele>
    <time>2026-06-23T01:05:37Z</time>
   </trkpt>
   <trkpt lat="-3.0849530" lon="37.3688840">
    <ele>5271.5</ele>
    <time>2026-06-23T01:05:38Z</time>
   </trkpt>
   <trkpt lat="-3.0849520" lon="37.3688850">
    <ele>5271.5</ele>
    <time>2026-06-23T01:05:39Z</time>
   </trkpt>
   <trkpt lat="-3.0849500" lon="37.3688860">
    <ele>5271.6</ele>
    <time>2026-06-23T01:05:40Z</time>
   </trkpt>
   <trkpt lat="-3.0849490" lon="37.3688880">
    <ele>5271.6</ele>
    <time>2026-06-23T01:05:41Z</time>
   </trkpt>
   <trkpt lat="-3.0849490" lon="37.3688890">
    <ele>5271.7</ele>
    <time>2026-06-23T01:05:42Z</time>
   </trkpt>
   <trkpt lat="-3.0849490" lon="37.3688910">
    <ele>5271.7</ele>
    <time>2026-06-23T01:05:43Z</time>
   </trkpt>
   <trkpt lat="-3.0849470" lon="37.3688930">
    <ele>5271.8</ele>
    <time>2026-06-23T01:05:44Z</time>
   </trkpt>
   <trkpt lat="-3.0849440" lon="37.3688930">
    <ele>5271.9</ele>
    <time>2026-06-23T01:05:45Z</time>
   </trkpt>
   <trkpt lat="-3.0849430" lon="37.3688940">
    <ele>5271.9</ele>
    <time>2026-06-23T01:05:46Z</time>
   </trkpt>
   <trkpt lat="-3.0849420" lon="37.3688940">
    <ele>5271.9</ele>
    <time>2026-06-23T01:05:47Z</time>
   </trkpt>
   <trkpt lat="-3.0849420" lon="37.3688940">
    <ele>5271.9</ele>
    <time>2026-06-23T01:05:48Z</time>
   </trkpt>
   <trkpt lat="-3.0849400" lon="37.3688930">
    <ele>5272.0</ele>
    <time>2026-06-23T01:05:49Z</time>
   </trkpt>
   <trkpt lat="-3.0849380" lon="37.3688940">
    <ele>5272.0</ele>
    <time>2026-06-23T01:05:50Z</time>
   </trkpt>
   <trkpt lat="-3.0849360" lon="37.3688930">
    <ele>5272.1</ele>
    <time>2026-06-23T01:05:51Z</time>
   </trkpt>
   <trkpt lat="-3.0849340" lon="37.3688930">
    <ele>5272.1</ele>
    <time>2026-06-23T01:05:52Z</time>
   </trkpt>
   <trkpt lat="-3.0849320" lon="37.3688920">
    <ele>5272.2</ele>
    <time>2026-06-23T01:05:53Z</time>
   </trkpt>
   <trkpt lat="-3.0849300" lon="37.3688920">
    <ele>5272.2</ele>
    <time>2026-06-23T01:05:54Z</time>
   </trkpt>
   <trkpt lat="-3.0849280" lon="37.3688910">
    <ele>5272.3</ele>
    <time>2026-06-23T01:05:55Z</time>
   </trkpt>
   <trkpt lat="-3.0849270" lon="37.3688920">
    <ele>5272.3</ele>
    <time>2026-06-23T01:05:56Z</time>
   </trkpt>
   <trkpt lat="-3.0849250" lon="37.3688910">
    <ele>5272.4</ele>
    <time>2026-06-23T01:05:57Z</time>
   </trkpt>
   <trkpt lat="-3.0849250" lon="37.3688910">
    <ele>5272.4</ele>
    <time>2026-06-23T01:05:58Z</time>
   </trkpt>
   <trkpt lat="-3.0849240" lon="37.3688900">
    <ele>5272.4</ele>
    <time>2026-06-23T01:05:59Z</time>
   </trkpt>
   <trkpt lat="-3.0849230" lon="37.3688910">
    <ele>5272.4</ele>
    <time>2026-06-23T01:06:00Z</time>
   </trkpt>
   <trkpt lat="-3.0849200" lon="37.3688910">
    <ele>5272.5</ele>
    <time>2026-06-23T01:06:01Z</time>
   </trkpt>
   <trkpt lat="-3.0849170" lon="37.3688910">
    <ele>5272.6</ele>
    <time>2026-06-23T01:06:02Z</time>
   </trkpt>
   <trkpt lat="-3.0849150" lon="37.3688890">
    <ele>5272.7</ele>
    <time>2026-06-23T01:06:03Z</time>
   </trkpt>
   <trkpt lat="-3.0849140" lon="37.3688870">
    <ele>5272.7</ele>
    <time>2026-06-23T01:06:04Z</time>
   </trkpt>
   <trkpt lat="-3.0849130" lon="37.3688850">
    <ele>5272.8</ele>
    <time>2026-06-23T01:06:05Z</time>
   </trkpt>
   <trkpt lat="-3.0849130" lon="37.3688850">
    <ele>5272.8</ele>
    <time>2026-06-23T01:06:06Z</time>
   </trkpt>
   <trkpt lat="-3.0849130" lon="37.3688850">
    <ele>5272.8</ele>
    <time>2026-06-23T01:06:07Z</time>
   </trkpt>
   <trkpt lat="-3.0849150" lon="37.3688820">
    <ele>5272.9</ele>
    <time>2026-06-23T01:06:08Z</time>
   </trkpt>
   <trkpt lat="-3.0849160" lon="37.3688800">
    <ele>5272.9</ele>
    <time>2026-06-23T01:06:09Z</time>
   </trkpt>
   <trkpt lat="-3.0849170" lon="37.3688790">
    <ele>5273.0</ele>
    <time>2026-06-23T01:06:10Z</time>
   </trkpt>
   <trkpt lat="-3.0849170" lon="37.3688770">
    <ele>5273.0</ele>
    <time>2026-06-23T01:06:11Z</time>
   </trkpt>
   <trkpt lat="-3.0849190" lon="37.3688760">
    <ele>5273.1</ele>
    <time>2026-06-23T01:06:12Z</time>
   </trkpt>
   <trkpt lat="-3.0849180" lon="37.3688730">
    <ele>5273.1</ele>
    <time>2026-06-23T01:06:13Z</time>
   </trkpt>
   <trkpt lat="-3.0849190" lon="37.3688710">
    <ele>5273.2</ele>
    <time>2026-06-23T01:06:14Z</time>
   </trkpt>
   <trkpt lat="-3.0849180" lon="37.3688690">
    <ele>5273.2</ele>
    <time>2026-06-23T01:06:15Z</time>
   </trkpt>
   <trkpt lat="-3.0849160" lon="37.3688690">
    <ele>5273.3</ele>
    <time>2026-06-23T01:06:16Z</time>
   </trkpt>
   <trkpt lat="-3.0849160" lon="37.3688680">
    <ele>5273.3</ele>
    <time>2026-06-23T01:06:17Z</time>
   </trkpt>
   <trkpt lat="-3.0849160" lon="37.3688650">
    <ele>5273.4</ele>
    <time>2026-06-23T01:06:18Z</time>
   </trkpt>
   <trkpt lat="-3.0849130" lon="37.3688640">
    <ele>5273.5</ele>
    <time>2026-06-23T01:06:19Z</time>
   </trkpt>
   <trkpt lat="-3.0849110" lon="37.3688620">
    <ele>5273.5</ele>
    <time>2026-06-23T01:06:20Z</time>
   </trkpt>
   <trkpt lat="-3.0849100" lon="37.3688630">
    <ele>5273.6</ele>
    <time>2026-06-23T01:06:21Z</time>
   </trkpt>
   <trkpt lat="-3.0849070" lon="37.3688620">
    <ele>5273.7</ele>
    <time>2026-06-23T01:06:22Z</time>
   </trkpt>
   <trkpt lat="-3.0849060" lon="37.3688640">
    <ele>5273.7</ele>
    <time>2026-06-23T01:06:23Z</time>
   </trkpt>
   <trkpt lat="-3.0849030" lon="37.3688630">
    <ele>5273.8</ele>
    <time>2026-06-23T01:06:24Z</time>
   </trkpt>
   <trkpt lat="-3.0849010" lon="37.3688640">
    <ele>5273.8</ele>
    <time>2026-06-23T01:06:25Z</time>
   </trkpt>
   <trkpt lat="-3.0848990" lon="37.3688640">
    <ele>5273.9</ele>
    <time>2026-06-23T01:06:26Z</time>
   </trkpt>
   <trkpt lat="-3.0848970" lon="37.3688650">
    <ele>5273.9</ele>
    <time>2026-06-23T01:06:27Z</time>
   </trkpt>
   <trkpt lat="-3.0848970" lon="37.3688670">
    <ele>5274.0</ele>
    <time>2026-06-23T01:06:28Z</time>
   </trkpt>
   <trkpt lat="-3.0848960" lon="37.3688680">
    <ele>5274.0</ele>
    <time>2026-06-23T01:06:29Z</time>
   </trkpt>
   <trkpt lat="-3.0848940" lon="37.3688690">
    <ele>5274.1</ele>
    <time>2026-06-23T01:06:30Z</time>
   </trkpt>
   <trkpt lat="-3.0848940" lon="37.3688700">
    <ele>5274.1</ele>
    <time>2026-06-23T01:06:31Z</time>
   </trkpt>
   <trkpt lat="-3.0848920" lon="37.3688700">
    <ele>5274.2</ele>
    <time>2026-06-23T01:06:32Z</time>
   </trkpt>
   <trkpt lat="-3.0848920" lon="37.3688710">
    <ele>5274.2</ele>
    <time>2026-06-23T01:06:33Z</time>
   </trkpt>
   <trkpt lat="-3.0848900" lon="37.3688720">
    <ele>5274.2</ele>
    <time>2026-06-23T01:06:34Z</time>
   </trkpt>
   <trkpt lat="-3.0848890" lon="37.3688740">
    <ele>5274.3</ele>
    <time>2026-06-23T01:06:35Z</time>
   </trkpt>
   <trkpt lat="-3.0848870" lon="37.3688750">
    <ele>5274.4</ele>
    <time>2026-06-23T01:06:36Z</time>
   </trkpt>
   <trkpt lat="-3.0848850" lon="37.3688760">
    <ele>5274.4</ele>
    <time>2026-06-23T01:06:37Z</time>
   </trkpt>
   <trkpt lat="-3.0848820" lon="37.3688760">
    <ele>5274.5</ele>
    <time>2026-06-23T01:06:38Z</time>
   </trkpt>
   <trkpt lat="-3.0848800" lon="37.3688790">
    <ele>5274.6</ele>
    <time>2026-06-23T01:06:39Z</time>
   </trkpt>
   <trkpt lat="-3.0848780" lon="37.3688790">
    <ele>5274.6</ele>
    <time>2026-06-23T01:06:40Z</time>
   </trkpt>
   <trkpt lat="-3.0848770" lon="37.3688800">
    <ele>5274.7</ele>
    <time>2026-06-23T01:06:41Z</time>
   </trkpt>
   <trkpt lat="-3.0848750" lon="37.3688800">
    <ele>5274.7</ele>
    <time>2026-06-23T01:06:42Z</time>
   </trkpt>
   <trkpt lat="-3.0848740" lon="37.3688800">
    <ele>5274.7</ele>
    <time>2026-06-23T01:06:43Z</time>
   </trkpt>
   <trkpt lat="-3.0848700" lon="37.3688800">
    <ele>5274.8</ele>
    <time>2026-06-23T01:06:44Z</time>
   </trkpt>
   <trkpt lat="-3.0848690" lon="37.3688810">
    <ele>5274.9</ele>
    <time>2026-06-23T01:06:45Z</time>
   </trkpt>
   <trkpt lat="-3.0848670" lon="37.3688820">
    <ele>5274.9</ele>
    <time>2026-06-23T01:06:46Z</time>
   </trkpt>
   <trkpt lat="-3.0848660" lon="37.3688840">
    <ele>5275.0</ele>
    <time>2026-06-23T01:06:47Z</time>
   </trkpt>
   <trkpt lat="-3.0848640" lon="37.3688850">
    <ele>5275.0</ele>
    <time>2026-06-23T01:06:48Z</time>
   </trkpt>
   <trkpt lat="-3.0848610" lon="37.3688850">
    <ele>5275.1</ele>
    <time>2026-06-23T01:06:49Z</time>
   </trkpt>
   <trkpt lat="-3.0848590" lon="37.3688860">
    <ele>5275.2</ele>
    <time>2026-06-23T01:06:50Z</time>
   </trkpt>
   <trkpt lat="-3.0848570" lon="37.3688870">
    <ele>5275.2</ele>
    <time>2026-06-23T01:06:51Z</time>
   </trkpt>
   <trkpt lat="-3.0848570" lon="37.3688880">
    <ele>5275.2</ele>
    <time>2026-06-23T01:06:52Z</time>
   </trkpt>
   <trkpt lat="-3.0848540" lon="37.3688890">
    <ele>5275.3</ele>
    <time>2026-06-23T01:06:53Z</time>
   </trkpt>
   <trkpt lat="-3.0848520" lon="37.3688910">
    <ele>5275.4</ele>
    <time>2026-06-23T01:06:54Z</time>
   </trkpt>
   <trkpt lat="-3.0848490" lon="37.3688910">
    <ele>5275.5</ele>
    <time>2026-06-23T01:06:55Z</time>
   </trkpt>
   <trkpt lat="-3.0848490" lon="37.3688920">
    <ele>5275.5</ele>
    <time>2026-06-23T01:06:56Z</time>
   </trkpt>
   <trkpt lat="-3.0848470" lon="37.3688910">
    <ele>5275.5</ele>
    <time>2026-06-23T01:06:57Z</time>
   </trkpt>
   <trkpt lat="-3.0848460" lon="37.3688910">
    <ele>5275.6</ele>
    <time>2026-06-23T01:06:58Z</time>
   </trkpt>
   <trkpt lat="-3.0848460" lon="37.3688920">
    <ele>5275.6</ele>
    <time>2026-06-23T01:06:59Z</time>
   </trkpt>
   <trkpt lat="-3.0848450" lon="37.3688920">
    <ele>5275.6</ele>
    <time>2026-06-23T01:07:00Z</time>
   </trkpt>
   <trkpt lat="-3.0848450" lon="37.3688920">
    <ele>5275.6</ele>
    <time>2026-06-23T01:07:01Z</time>
   </trkpt>
   <trkpt lat="-3.0848440" lon="37.3688930">
    <ele>5275.6</ele>
    <time>2026-06-23T01:07:02Z</time>
   </trkpt>
   <trkpt lat="-3.0848420" lon="37.3688940">
    <ele>5275.7</ele>
    <time>2026-06-23T01:07:03Z</time>
   </trkpt>
   <trkpt lat="-3.0848410" lon="37.3688930">
    <ele>5275.7</ele>
    <time>2026-06-23T01:07:04Z</time>
   </trkpt>
   <trkpt lat="-3.0848370" lon="37.3688940">
    <ele>5275.8</ele>
    <time>2026-06-23T01:07:05Z</time>
   </trkpt>
   <trkpt lat="-3.0848350" lon="37.3688950">
    <ele>5275.9</ele>
    <time>2026-06-23T01:07:06Z</time>
   </trkpt>
   <trkpt lat="-3.0848320" lon="37.3688950">
    <ele>5276.0</ele>
    <time>2026-06-23T01:07:08Z</time>
   </trkpt>
   <trkpt lat="-3.0848290" lon="37.3688960">
    <ele>5276.0</ele>
    <time>2026-06-23T01:07:09Z</time>
   </trkpt>
   <trkpt lat="-3.0848270" lon="37.3688960">
    <ele>5276.1</ele>
    <time>2026-06-23T01:07:10Z</time>
   </trkpt>
   <trkpt lat="-3.0848240" lon="37.3688960">
    <ele>5276.2</ele>
    <time>2026-06-23T01:07:11Z</time>
   </trkpt>
   <trkpt lat="-3.0848210" lon="37.3688960">
    <ele>5276.2</ele>
    <time>2026-06-23T01:07:12Z</time>
   </trkpt>
   <trkpt lat="-3.0848170" lon="37.3688970">
    <ele>5276.3</ele>
    <time>2026-06-23T01:07:13Z</time>
   </trkpt>
   <trkpt lat="-3.0848150" lon="37.3688960">
    <ele>5276.4</ele>
    <time>2026-06-23T01:07:14Z</time>
   </trkpt>
   <trkpt lat="-3.0848130" lon="37.3688960">
    <ele>5276.4</ele>
    <time>2026-06-23T01:07:15Z</time>
   </trkpt>
   <trkpt lat="-3.0848120" lon="37.3688960">
    <ele>5276.5</ele>
    <time>2026-06-23T01:07:16Z</time>
   </trkpt>
   <trkpt lat="-3.0848120" lon="37.3688960">
    <ele>5276.5</ele>
    <time>2026-06-23T01:07:17Z</time>
   </trkpt>
   <trkpt lat="-3.0848110" lon="37.3688940">
    <ele>5276.5</ele>
    <time>2026-06-23T01:07:18Z</time>
   </trkpt>
   <trkpt lat="-3.0848090" lon="37.3688950">
    <ele>5276.6</ele>
    <time>2026-06-23T01:07:19Z</time>
   </trkpt>
   <trkpt lat="-3.0848090" lon="37.3688920">
    <ele>5276.7</ele>
    <time>2026-06-23T01:07:20Z</time>
   </trkpt>
   <trkpt lat="-3.0848080" lon="37.3688910">
    <ele>5276.7</ele>
    <time>2026-06-23T01:07:21Z</time>
   </trkpt>
   <trkpt lat="-3.0848100" lon="37.3688890">
    <ele>5276.8</ele>
    <time>2026-06-23T01:07:22Z</time>
   </trkpt>
   <trkpt lat="-3.0848100" lon="37.3688870">
    <ele>5276.8</ele>
    <time>2026-06-23T01:07:23Z</time>
   </trkpt>
   <trkpt lat="-3.0848110" lon="37.3688850">
    <ele>5276.9</ele>
    <time>2026-06-23T01:07:24Z</time>
   </trkpt>
   <trkpt lat="-3.0848110" lon="37.3688830">
    <ele>5276.9</ele>
    <time>2026-06-23T01:07:25Z</time>
   </trkpt>
   <trkpt lat="-3.0848110" lon="37.3688810">
    <ele>5277.0</ele>
    <time>2026-06-23T01:07:26Z</time>
   </trkpt>
   <trkpt lat="-3.0848120" lon="37.3688790">
    <ele>5277.0</ele>
    <time>2026-06-23T01:07:27Z</time>
   </trkpt>
   <trkpt lat="-3.0848120" lon="37.3688780">
    <ele>5277.0</ele>
    <time>2026-06-23T01:07:28Z</time>
   </trkpt>
   <trkpt lat="-3.0848130" lon="37.3688770">
    <ele>5277.1</ele>
    <time>2026-06-23T01:07:29Z</time>
   </trkpt>
   <trkpt lat="-3.0848120" lon="37.3688760">
    <ele>5277.1</ele>
    <time>2026-06-23T01:07:30Z</time>
   </trkpt>
   <trkpt lat="-3.0848130" lon="37.3688760">
    <ele>5277.1</ele>
    <time>2026-06-23T01:07:31Z</time>
   </trkpt>
   <trkpt lat="-3.0848140" lon="37.3688740">
    <ele>5277.2</ele>
    <time>2026-06-23T01:07:32Z</time>
   </trkpt>
   <trkpt lat="-3.0848140" lon="37.3688730">
    <ele>5277.2</ele>
    <time>2026-06-23T01:07:33Z</time>
   </trkpt>
   <trkpt lat="-3.0848150" lon="37.3688700">
    <ele>5277.3</ele>
    <time>2026-06-23T01:07:34Z</time>
   </trkpt>
   <trkpt lat="-3.0848150" lon="37.3688670">
    <ele>5277.4</ele>
    <time>2026-06-23T01:07:35Z</time>
   </trkpt>
   <trkpt lat="-3.0848170" lon="37.3688640">
    <ele>5277.5</ele>
    <time>2026-06-23T01:07:36Z</time>
   </trkpt>
   <trkpt lat="-3.0848160" lon="37.3688630">
    <ele>5277.5</ele>
    <time>2026-06-23T01:07:37Z</time>
   </trkpt>
   <trkpt lat="-3.0848160" lon="37.3688610">
    <ele>5277.5</ele>
    <time>2026-06-23T01:07:38Z</time>
   </trkpt>
   <trkpt lat="-3.0848150" lon="37.3688590">
    <ele>5277.6</ele>
    <time>2026-06-23T01:07:39Z</time>
   </trkpt>
   <trkpt lat="-3.0848150" lon="37.3688590">
    <ele>5277.6</ele>
    <time>2026-06-23T01:07:40Z</time>
   </trkpt>
   <trkpt lat="-3.0848150" lon="37.3688560">
    <ele>5277.7</ele>
    <time>2026-06-23T01:07:41Z</time>
   </trkpt>
   <trkpt lat="-3.0848140" lon="37.3688530">
    <ele>5277.8</ele>
    <time>2026-06-23T01:07:42Z</time>
   </trkpt>
   <trkpt lat="-3.0848150" lon="37.3688510">
    <ele>5277.8</ele>
    <time>2026-06-23T01:07:43Z</time>
   </trkpt>
   <trkpt lat="-3.0848150" lon="37.3688500">
    <ele>5277.8</ele>
    <time>2026-06-23T01:07:44Z</time>
   </trkpt>
   <trkpt lat="-3.0848160" lon="37.3688480">
    <ele>5277.9</ele>
    <time>2026-06-23T01:07:45Z</time>
   </trkpt>
   <trkpt lat="-3.0848160" lon="37.3688470">
    <ele>5277.9</ele>
    <time>2026-06-23T01:07:46Z</time>
   </trkpt>
   <trkpt lat="-3.0848160" lon="37.3688470">
    <ele>5277.9</ele>
    <time>2026-06-23T01:07:47Z</time>
   </trkpt>
   <trkpt lat="-3.0848160" lon="37.3688470">
    <ele>5277.9</ele>
    <time>2026-06-23T01:07:48Z</time>
   </trkpt>
   <trkpt lat="-3.0848180" lon="37.3688460">
    <ele>5278.0</ele>
    <time>2026-06-23T01:07:49Z</time>
   </trkpt>
   <trkpt lat="-3.0848180" lon="37.3688440">
    <ele>5278.0</ele>
    <time>2026-06-23T01:07:50Z</time>
   </trkpt>
   <trkpt lat="-3.0848170" lon="37.3688400">
    <ele>5278.1</ele>
    <time>2026-06-23T01:07:51Z</time>
   </trkpt>
   <trkpt lat="-3.0848170" lon="37.3688370">
    <ele>5278.2</ele>
    <time>2026-06-23T01:07:52Z</time>
   </trkpt>
   <trkpt lat="-3.0848170" lon="37.3688340">
    <ele>5278.2</ele>
    <time>2026-06-23T01:07:53Z</time>
   </trkpt>
   <trkpt lat="-3.0848170" lon="37.3688310">
    <ele>5278.3</ele>
    <time>2026-06-23T01:07:54Z</time>
   </trkpt>
   <trkpt lat="-3.0848180" lon="37.3688280">
    <ele>5278.4</ele>
    <time>2026-06-23T01:07:55Z</time>
   </trkpt>
   <trkpt lat="-3.0848170" lon="37.3688260">
    <ele>5278.5</ele>
    <time>2026-06-23T01:07:56Z</time>
   </trkpt>
   <trkpt lat="-3.0848170" lon="37.3688240">
    <ele>5278.5</ele>
    <time>2026-06-23T01:07:57Z</time>
   </trkpt>
   <trkpt lat="-3.0848180" lon="37.3688220">
    <ele>5278.6</ele>
    <time>2026-06-23T01:07:58Z</time>
   </trkpt>
   <trkpt lat="-3.0848190" lon="37.3688200">
    <ele>5278.6</ele>
    <time>2026-06-23T01:07:59Z</time>
   </trkpt>
   <trkpt lat="-3.0848180" lon="37.3688170">
    <ele>5278.7</ele>
    <time>2026-06-23T01:08:00Z</time>
   </trkpt>
   <trkpt lat="-3.0848190" lon="37.3688160">
    <ele>5278.7</ele>
    <time>2026-06-23T01:08:01Z</time>
   </trkpt>
   <trkpt lat="-3.0848190" lon="37.3688130">
    <ele>5278.8</ele>
    <time>2026-06-23T01:08:02Z</time>
   </trkpt>
   <trkpt lat="-3.0848200" lon="37.3688120">
    <ele>5278.8</ele>
    <time>2026-06-23T01:08:03Z</time>
   </trkpt>
   <trkpt lat="-3.0848190" lon="37.3688120">
    <ele>5278.8</ele>
    <time>2026-06-23T01:08:04Z</time>
   </trkpt>
   <trkpt lat="-3.0848190" lon="37.3688100">
    <ele>5278.9</ele>
    <time>2026-06-23T01:08:05Z</time>
   </trkpt>
   <trkpt lat="-3.0848170" lon="37.3688080">
    <ele>5279.0</ele>
    <time>2026-06-23T01:08:06Z</time>
   </trkpt>
   <trkpt lat="-3.0848150" lon="37.3688060">
    <ele>5279.0</ele>
    <time>2026-06-23T01:08:07Z</time>
   </trkpt>
   <trkpt lat="-3.0848130" lon="37.3688050">
    <ele>5279.1</ele>
    <time>2026-06-23T01:08:08Z</time>
   </trkpt>
   <trkpt lat="-3.0848130" lon="37.3688050">
    <ele>5279.1</ele>
    <time>2026-06-23T01:08:09Z</time>
   </trkpt>
   <trkpt lat="-3.0848110" lon="37.3688030">
    <ele>5279.1</ele>
    <time>2026-06-23T01:08:10Z</time>
   </trkpt>
   <trkpt lat="-3.0848090" lon="37.3688020">
    <ele>5279.2</ele>
    <time>2026-06-23T01:08:11Z</time>
   </trkpt>
   <trkpt lat="-3.0848070" lon="37.3688030">
    <ele>5279.3</ele>
    <time>2026-06-23T01:08:12Z</time>
   </trkpt>
   <trkpt lat="-3.0848060" lon="37.3688030">
    <ele>5279.3</ele>
    <time>2026-06-23T01:08:13Z</time>
   </trkpt>
   <trkpt lat="-3.0848050" lon="37.3688050">
    <ele>5279.3</ele>
    <time>2026-06-23T01:08:14Z</time>
   </trkpt>
   <trkpt lat="-3.0848010" lon="37.3688060">
    <ele>5279.4</ele>
    <time>2026-06-23T01:08:15Z</time>
   </trkpt>
   <trkpt lat="-3.0848010" lon="37.3688070">
    <ele>5279.5</ele>
    <time>2026-06-23T01:08:16Z</time>
   </trkpt>
   <trkpt lat="-3.0847990" lon="37.3688070">
    <ele>5279.5</ele>
    <time>2026-06-23T01:08:17Z</time>
   </trkpt>
   <trkpt lat="-3.0847980" lon="37.3688090">
    <ele>5279.6</ele>
    <time>2026-06-23T01:08:18Z</time>
   </trkpt>
   <trkpt lat="-3.0847970" lon="37.3688100">
    <ele>5279.6</ele>
    <time>2026-06-23T01:08:19Z</time>
   </trkpt>
   <trkpt lat="-3.0847950" lon="37.3688120">
    <ele>5279.7</ele>
    <time>2026-06-23T01:08:20Z</time>
   </trkpt>
   <trkpt lat="-3.0847940" lon="37.3688130">
    <ele>5279.7</ele>
    <time>2026-06-23T01:08:21Z</time>
   </trkpt>
   <trkpt lat="-3.0847930" lon="37.3688150">
    <ele>5279.7</ele>
    <time>2026-06-23T01:08:22Z</time>
   </trkpt>
   <trkpt lat="-3.0847900" lon="37.3688150">
    <ele>5279.8</ele>
    <time>2026-06-23T01:08:23Z</time>
   </trkpt>
   <trkpt lat="-3.0847910" lon="37.3688170">
    <ele>5279.9</ele>
    <time>2026-06-23T01:08:24Z</time>
   </trkpt>
   <trkpt lat="-3.0847880" lon="37.3688180">
    <ele>5279.9</ele>
    <time>2026-06-23T01:08:25Z</time>
   </trkpt>
   <trkpt lat="-3.0847880" lon="37.3688190">
    <ele>5280.0</ele>
    <time>2026-06-23T01:08:26Z</time>
   </trkpt>
   <trkpt lat="-3.0847860" lon="37.3688200">
    <ele>5280.0</ele>
    <time>2026-06-23T01:08:27Z</time>
   </trkpt>
   <trkpt lat="-3.0847850" lon="37.3688200">
    <ele>5280.0</ele>
    <time>2026-06-23T01:08:28Z</time>
   </trkpt>
   <trkpt lat="-3.0847820" lon="37.3688200">
    <ele>5280.1</ele>
    <time>2026-06-23T01:08:29Z</time>
   </trkpt>
   <trkpt lat="-3.0847810" lon="37.3688200">
    <ele>5280.1</ele>
    <time>2026-06-23T01:08:30Z</time>
   </trkpt>
   <trkpt lat="-3.0847800" lon="37.3688210">
    <ele>5280.2</ele>
    <time>2026-06-23T01:08:31Z</time>
   </trkpt>
   <trkpt lat="-3.0847780" lon="37.3688200">
    <ele>5280.2</ele>
    <time>2026-06-23T01:08:32Z</time>
   </trkpt>
   <trkpt lat="-3.0847780" lon="37.3688200">
    <ele>5280.2</ele>
    <time>2026-06-23T01:08:33Z</time>
   </trkpt>
   <trkpt lat="-3.0847770" lon="37.3688210">
    <ele>5280.3</ele>
    <time>2026-06-23T01:08:34Z</time>
   </trkpt>
   <trkpt lat="-3.0847770" lon="37.3688210">
    <ele>5280.3</ele>
    <time>2026-06-23T01:08:35Z</time>
   </trkpt>
   <trkpt lat="-3.0847740" lon="37.3688210">
    <ele>5280.3</ele>
    <time>2026-06-23T01:08:36Z</time>
   </trkpt>
   <trkpt lat="-3.0847720" lon="37.3688220">
    <ele>5280.4</ele>
    <time>2026-06-23T01:08:37Z</time>
   </trkpt>
   <trkpt lat="-3.0847720" lon="37.3688220">
    <ele>5280.4</ele>
    <time>2026-06-23T01:08:38Z</time>
   </trkpt>
   <trkpt lat="-3.0847720" lon="37.3688220">
    <ele>5280.4</ele>
    <time>2026-06-23T01:08:39Z</time>
   </trkpt>
   <trkpt lat="-3.0847700" lon="37.3688230">
    <ele>5280.4</ele>
    <time>2026-06-23T01:08:40Z</time>
   </trkpt>
   <trkpt lat="-3.0847670" lon="37.3688230">
    <ele>5280.5</ele>
    <time>2026-06-23T01:08:41Z</time>
   </trkpt>
   <trkpt lat="-3.0847660" lon="37.3688230">
    <ele>5280.5</ele>
    <time>2026-06-23T01:08:42Z</time>
   </trkpt>
   <trkpt lat="-3.0847650" lon="37.3688220">
    <ele>5280.6</ele>
    <time>2026-06-23T01:08:43Z</time>
   </trkpt>
   <trkpt lat="-3.0847630" lon="37.3688230">
    <ele>5280.6</ele>
    <time>2026-06-23T01:08:44Z</time>
   </trkpt>
   <trkpt lat="-3.0847620" lon="37.3688230">
    <ele>5280.6</ele>
    <time>2026-06-23T01:08:45Z</time>
   </trkpt>
   <trkpt lat="-3.0847600" lon="37.3688230">
    <ele>5280.7</ele>
    <time>2026-06-23T01:08:46Z</time>
   </trkpt>
   <trkpt lat="-3.0847600" lon="37.3688230">
    <ele>5280.7</ele>
    <time>2026-06-23T01:08:47Z</time>
   </trkpt>
   <trkpt lat="-3.0847590" lon="37.3688220">
    <ele>5280.7</ele>
    <time>2026-06-23T01:08:48Z</time>
   </trkpt>
   <trkpt lat="-3.0847600" lon="37.3688220">
    <ele>5280.8</ele>
    <time>2026-06-23T01:08:49Z</time>
   </trkpt>
   <trkpt lat="-3.0847580" lon="37.3688230">
    <ele>5280.8</ele>
    <time>2026-06-23T01:08:50Z</time>
   </trkpt>
   <trkpt lat="-3.0847550" lon="37.3688230">
    <ele>5280.9</ele>
    <time>2026-06-23T01:08:51Z</time>
   </trkpt>
   <trkpt lat="-3.0847540" lon="37.3688230">
    <ele>5280.9</ele>
    <time>2026-06-23T01:08:52Z</time>
   </trkpt>
   <trkpt lat="-3.0847510" lon="37.3688220">
    <ele>5281.0</ele>
    <time>2026-06-23T01:08:53Z</time>
   </trkpt>
   <trkpt lat="-3.0847490" lon="37.3688210">
    <ele>5281.0</ele>
    <time>2026-06-23T01:08:54Z</time>
   </trkpt>
   <trkpt lat="-3.0847450" lon="37.3688220">
    <ele>5281.1</ele>
    <time>2026-06-23T01:08:55Z</time>
   </trkpt>
   <trkpt lat="-3.0847430" lon="37.3688220">
    <ele>5281.2</ele>
    <time>2026-06-23T01:08:56Z</time>
   </trkpt>
   <trkpt lat="-3.0847400" lon="37.3688220">
    <ele>5281.3</ele>
    <time>2026-06-23T01:08:57Z</time>
   </trkpt>
   <trkpt lat="-3.0847390" lon="37.3688210">
    <ele>5281.3</ele>
    <time>2026-06-23T01:08:58Z</time>
   </trkpt>
   <trkpt lat="-3.0847390" lon="37.3688210">
    <ele>5281.3</ele>
    <time>2026-06-23T01:08:59Z</time>
   </trkpt>
   <trkpt lat="-3.0847400" lon="37.3688210">
    <ele>5281.3</ele>
    <time>2026-06-23T01:09:00Z</time>
   </trkpt>
   <trkpt lat="-3.0847390" lon="37.3688220">
    <ele>5281.3</ele>
    <time>2026-06-23T01:09:01Z</time>
   </trkpt>
   <trkpt lat="-3.0847370" lon="37.3688220">
    <ele>5281.4</ele>
    <time>2026-06-23T01:09:02Z</time>
   </trkpt>
   <trkpt lat="-3.0847340" lon="37.3688230">
    <ele>5281.5</ele>
    <time>2026-06-23T01:09:03Z</time>
   </trkpt>
   <trkpt lat="-3.0847320" lon="37.3688240">
    <ele>5281.5</ele>
    <time>2026-06-23T01:09:04Z</time>
   </trkpt>
   <trkpt lat="-3.0847310" lon="37.3688240">
    <ele>5281.5</ele>
    <time>2026-06-23T01:09:05Z</time>
   </trkpt>
   <trkpt lat="-3.0847310" lon="37.3688250">
    <ele>5281.6</ele>
    <time>2026-06-23T01:09:06Z</time>
   </trkpt>
   <trkpt lat="-3.0847310" lon="37.3688260">
    <ele>5281.6</ele>
    <time>2026-06-23T01:09:07Z</time>
   </trkpt>
   <trkpt lat="-3.0847310" lon="37.3688260">
    <ele>5281.6</ele>
    <time>2026-06-23T01:09:08Z</time>
   </trkpt>
   <trkpt lat="-3.0847280" lon="37.3688250">
    <ele>5281.7</ele>
    <time>2026-06-23T01:09:09Z</time>
   </trkpt>
   <trkpt lat="-3.0847270" lon="37.3688270">
    <ele>5281.7</ele>
    <time>2026-06-23T01:09:10Z</time>
   </trkpt>
   <trkpt lat="-3.0847260" lon="37.3688290">
    <ele>5281.8</ele>
    <time>2026-06-23T01:09:11Z</time>
   </trkpt>
   <trkpt lat="-3.0847240" lon="37.3688310">
    <ele>5281.8</ele>
    <time>2026-06-23T01:09:12Z</time>
   </trkpt>
   <trkpt lat="-3.0847200" lon="37.3688310">
    <ele>5281.9</ele>
    <time>2026-06-23T01:09:14Z</time>
   </trkpt>
   <trkpt lat="-3.0847190" lon="37.3688310">
    <ele>5282.0</ele>
    <time>2026-06-23T01:09:15Z</time>
   </trkpt>
   <trkpt lat="-3.0847170" lon="37.3688290">
    <ele>5282.0</ele>
    <time>2026-06-23T01:09:16Z</time>
   </trkpt>
   <trkpt lat="-3.0847150" lon="37.3688270">
    <ele>5282.1</ele>
    <time>2026-06-23T01:09:17Z</time>
   </trkpt>
   <trkpt lat="-3.0847150" lon="37.3688260">
    <ele>5282.1</ele>
    <time>2026-06-23T01:09:18Z</time>
   </trkpt>
   <trkpt lat="-3.0847140" lon="37.3688260">
    <ele>5282.1</ele>
    <time>2026-06-23T01:09:19Z</time>
   </trkpt>
   <trkpt lat="-3.0847140" lon="37.3688250">
    <ele>5282.2</ele>
    <time>2026-06-23T01:09:20Z</time>
   </trkpt>
   <trkpt lat="-3.0847130" lon="37.3688250">
    <ele>5282.2</ele>
    <time>2026-06-23T01:09:21Z</time>
   </trkpt>
   <trkpt lat="-3.0847120" lon="37.3688250">
    <ele>5282.2</ele>
    <time>2026-06-23T01:09:22Z</time>
   </trkpt>
   <trkpt lat="-3.0847100" lon="37.3688240">
    <ele>5282.3</ele>
    <time>2026-06-23T01:09:23Z</time>
   </trkpt>
   <trkpt lat="-3.0847080" lon="37.3688220">
    <ele>5282.3</ele>
    <time>2026-06-23T01:09:24Z</time>
   </trkpt>
   <trkpt lat="-3.0847070" lon="37.3688220">
    <ele>5282.4</ele>
    <time>2026-06-23T01:09:25Z</time>
   </trkpt>
   <trkpt lat="-3.0847060" lon="37.3688210">
    <ele>5282.4</ele>
    <time>2026-06-23T01:09:26Z</time>
   </trkpt>
   <trkpt lat="-3.0847050" lon="37.3688210">
    <ele>5282.4</ele>
    <time>2026-06-23T01:09:27Z</time>
   </trkpt>
   <trkpt lat="-3.0847030" lon="37.3688210">
    <ele>5282.5</ele>
    <time>2026-06-23T01:09:28Z</time>
   </trkpt>
   <trkpt lat="-3.0846990" lon="37.3688200">
    <ele>5282.6</ele>
    <time>2026-06-23T01:09:29Z</time>
   </trkpt>
   <trkpt lat="-3.0846960" lon="37.3688190">
    <ele>5282.6</ele>
    <time>2026-06-23T01:09:30Z</time>
   </trkpt>
   <trkpt lat="-3.0846930" lon="37.3688190">
    <ele>5282.7</ele>
    <time>2026-06-23T01:09:31Z</time>
   </trkpt>
   <trkpt lat="-3.0846930" lon="37.3688190">
    <ele>5282.7</ele>
    <time>2026-06-23T01:09:32Z</time>
   </trkpt>
   <trkpt lat="-3.0846930" lon="37.3688210">
    <ele>5282.7</ele>
    <time>2026-06-23T01:09:33Z</time>
   </trkpt>
   <trkpt lat="-3.0846910" lon="37.3688220">
    <ele>5282.8</ele>
    <time>2026-06-23T01:09:34Z</time>
   </trkpt>
   <trkpt lat="-3.0846910" lon="37.3688220">
    <ele>5282.8</ele>
    <time>2026-06-23T01:09:35Z</time>
   </trkpt>
   <trkpt lat="-3.0846900" lon="37.3688230">
    <ele>5282.8</ele>
    <time>2026-06-23T01:09:36Z</time>
   </trkpt>
   <trkpt lat="-3.0846870" lon="37.3688240">
    <ele>5282.9</ele>
    <time>2026-06-23T01:09:37Z</time>
   </trkpt>
   <trkpt lat="-3.0846850" lon="37.3688260">
    <ele>5283.0</ele>
    <time>2026-06-23T01:09:38Z</time>
   </trkpt>
   <trkpt lat="-3.0846810" lon="37.3688280">
    <ele>5283.1</ele>
    <time>2026-06-23T01:09:39Z</time>
   </trkpt>
   <trkpt lat="-3.0846800" lon="37.3688280">
    <ele>5283.1</ele>
    <time>2026-06-23T01:09:40Z</time>
   </trkpt>
   <trkpt lat="-3.0846790" lon="37.3688300">
    <ele>5283.1</ele>
    <time>2026-06-23T01:09:41Z</time>
   </trkpt>
   <trkpt lat="-3.0846780" lon="37.3688300">
    <ele>5283.2</ele>
    <time>2026-06-23T01:09:42Z</time>
   </trkpt>
   <trkpt lat="-3.0846780" lon="37.3688300">
    <ele>5283.2</ele>
    <time>2026-06-23T01:09:43Z</time>
   </trkpt>
   <trkpt lat="-3.0846760" lon="37.3688310">
    <ele>5283.2</ele>
    <time>2026-06-23T01:09:44Z</time>
   </trkpt>
   <trkpt lat="-3.0846750" lon="37.3688310">
    <ele>5283.2</ele>
    <time>2026-06-23T01:09:45Z</time>
   </trkpt>
   <trkpt lat="-3.0846740" lon="37.3688320">
    <ele>5283.3</ele>
    <time>2026-06-23T01:09:46Z</time>
   </trkpt>
   <trkpt lat="-3.0846720" lon="37.3688310">
    <ele>5283.3</ele>
    <time>2026-06-23T01:09:47Z</time>
   </trkpt>
   <trkpt lat="-3.0846690" lon="37.3688320">
    <ele>5283.4</ele>
    <time>2026-06-23T01:09:48Z</time>
   </trkpt>
   <trkpt lat="-3.0846670" lon="37.3688320">
    <ele>5283.4</ele>
    <time>2026-06-23T01:09:49Z</time>
   </trkpt>
   <trkpt lat="-3.0846650" lon="37.3688330">
    <ele>5283.5</ele>
    <time>2026-06-23T01:09:50Z</time>
   </trkpt>
   <trkpt lat="-3.0846640" lon="37.3688320">
    <ele>5283.5</ele>
    <time>2026-06-23T01:09:51Z</time>
   </trkpt>
   <trkpt lat="-3.0846630" lon="37.3688330">
    <ele>5283.6</ele>
    <time>2026-06-23T01:09:52Z</time>
   </trkpt>
   <trkpt lat="-3.0846600" lon="37.3688340">
    <ele>5283.6</ele>
    <time>2026-06-23T01:09:53Z</time>
   </trkpt>
   <trkpt lat="-3.0846580" lon="37.3688330">
    <ele>5283.7</ele>
    <time>2026-06-23T01:09:54Z</time>
   </trkpt>
   <trkpt lat="-3.0846560" lon="37.3688340">
    <ele>5283.7</ele>
    <time>2026-06-23T01:09:55Z</time>
   </trkpt>
   <trkpt lat="-3.0846540" lon="37.3688310">
    <ele>5283.8</ele>
    <time>2026-06-23T01:09:56Z</time>
   </trkpt>
   <trkpt lat="-3.0846530" lon="37.3688310">
    <ele>5283.8</ele>
    <time>2026-06-23T01:09:57Z</time>
   </trkpt>
   <trkpt lat="-3.0846530" lon="37.3688290">
    <ele>5283.9</ele>
    <time>2026-06-23T01:09:58Z</time>
   </trkpt>
   <trkpt lat="-3.0846520" lon="37.3688280">
    <ele>5283.9</ele>
    <time>2026-06-23T01:09:59Z</time>
   </trkpt>
   <trkpt lat="-3.0846510" lon="37.3688240">
    <ele>5284.0</ele>
    <time>2026-06-23T01:10:00Z</time>
   </trkpt>
   <trkpt lat="-3.0846530" lon="37.3688220">
    <ele>5284.1</ele>
    <time>2026-06-23T01:10:01Z</time>
   </trkpt>
   <trkpt lat="-3.0846510" lon="37.3688200">
    <ele>5284.1</ele>
    <time>2026-06-23T01:10:02Z</time>
   </trkpt>
   <trkpt lat="-3.0846510" lon="37.3688170">
    <ele>5284.2</ele>
    <time>2026-06-23T01:10:03Z</time>
   </trkpt>
   <trkpt lat="-3.0846510" lon="37.3688160">
    <ele>5284.2</ele>
    <time>2026-06-23T01:10:04Z</time>
   </trkpt>
   <trkpt lat="-3.0846530" lon="37.3688140">
    <ele>5284.3</ele>
    <time>2026-06-23T01:10:05Z</time>
   </trkpt>
   <trkpt lat="-3.0846530" lon="37.3688120">
    <ele>5284.4</ele>
    <time>2026-06-23T01:10:06Z</time>
   </trkpt>
   <trkpt lat="-3.0846550" lon="37.3688120">
    <ele>5284.4</ele>
    <time>2026-06-23T01:10:07Z</time>
   </trkpt>
   <trkpt lat="-3.0846550" lon="37.3688130">
    <ele>5284.4</ele>
    <time>2026-06-23T01:10:08Z</time>
   </trkpt>
   <trkpt lat="-3.0846560" lon="37.3688110">
    <ele>5284.5</ele>
    <time>2026-06-23T01:10:09Z</time>
   </trkpt>
   <trkpt lat="-3.0846570" lon="37.3688110">
    <ele>5284.5</ele>
    <time>2026-06-23T01:10:10Z</time>
   </trkpt>
   <trkpt lat="-3.0846590" lon="37.3688080">
    <ele>5284.6</ele>
    <time>2026-06-23T01:10:11Z</time>
   </trkpt>
   <trkpt lat="-3.0846620" lon="37.3688070">
    <ele>5284.6</ele>
    <time>2026-06-23T01:10:12Z</time>
   </trkpt>
   <trkpt lat="-3.0846640" lon="37.3688060">
    <ele>5284.7</ele>
    <time>2026-06-23T01:10:13Z</time>
   </trkpt>
   <trkpt lat="-3.0846660" lon="37.3688000">
    <ele>5284.8</ele>
    <time>2026-06-23T01:10:14Z</time>
   </trkpt>
   <trkpt lat="-3.0846680" lon="37.3687990">
    <ele>5284.9</ele>
    <time>2026-06-23T01:10:15Z</time>
   </trkpt>
   <trkpt lat="-3.0846680" lon="37.3687960">
    <ele>5285.0</ele>
    <time>2026-06-23T01:10:16Z</time>
   </trkpt>
   <trkpt lat="-3.0846650" lon="37.3687950">
    <ele>5285.0</ele>
    <time>2026-06-23T01:10:17Z</time>
   </trkpt>
   <trkpt lat="-3.0846670" lon="37.3687950">
    <ele>5285.1</ele>
    <time>2026-06-23T01:10:18Z</time>
   </trkpt>
   <trkpt lat="-3.0846660" lon="37.3687960">
    <ele>5285.1</ele>
    <time>2026-06-23T01:10:19Z</time>
   </trkpt>
   <trkpt lat="-3.0846660" lon="37.3687960">
    <ele>5285.1</ele>
    <time>2026-06-23T01:10:20Z</time>
   </trkpt>
   <trkpt lat="-3.0846660" lon="37.3687930">
    <ele>5285.2</ele>
    <time>2026-06-23T01:10:21Z</time>
   </trkpt>
   <trkpt lat="-3.0846630" lon="37.3687900">
    <ele>5285.3</ele>
    <time>2026-06-23T01:10:22Z</time>
   </trkpt>
   <trkpt lat="-3.0846640" lon="37.3687860">
    <ele>5285.4</ele>
    <time>2026-06-23T01:10:23Z</time>
   </trkpt>
   <trkpt lat="-3.0846610" lon="37.3687840">
    <ele>5285.5</ele>
    <time>2026-06-23T01:10:24Z</time>
   </trkpt>
   <trkpt lat="-3.0846600" lon="37.3687830">
    <ele>5285.5</ele>
    <time>2026-06-23T01:10:25Z</time>
   </trkpt>
   <trkpt lat="-3.0846570" lon="37.3687810">
    <ele>5285.6</ele>
    <time>2026-06-23T01:10:26Z</time>
   </trkpt>
   <trkpt lat="-3.0846550" lon="37.3687790">
    <ele>5285.6</ele>
    <time>2026-06-23T01:10:27Z</time>
   </trkpt>
   <trkpt lat="-3.0846540" lon="37.3687760">
    <ele>5285.7</ele>
    <time>2026-06-23T01:10:28Z</time>
   </trkpt>
   <trkpt lat="-3.0846560" lon="37.3687750">
    <ele>5285.8</ele>
    <time>2026-06-23T01:10:29Z</time>
   </trkpt>
   <trkpt lat="-3.0846550" lon="37.3687750">
    <ele>5285.8</ele>
    <time>2026-06-23T01:10:30Z</time>
   </trkpt>
   <trkpt lat="-3.0846560" lon="37.3687720">
    <ele>5285.9</ele>
    <time>2026-06-23T01:10:31Z</time>
   </trkpt>
   <trkpt lat="-3.0846570" lon="37.3687720">
    <ele>5285.9</ele>
    <time>2026-06-23T01:10:32Z</time>
   </trkpt>
   <trkpt lat="-3.0846570" lon="37.3687710">
    <ele>5285.9</ele>
    <time>2026-06-23T01:10:33Z</time>
   </trkpt>
   <trkpt lat="-3.0846580" lon="37.3687710">
    <ele>5285.9</ele>
    <time>2026-06-23T01:10:34Z</time>
   </trkpt>
   <trkpt lat="-3.0846580" lon="37.3687710">
    <ele>5285.9</ele>
    <time>2026-06-23T01:10:35Z</time>
   </trkpt>
   <trkpt lat="-3.0846590" lon="37.3687710">
    <ele>5286.0</ele>
    <time>2026-06-23T01:10:36Z</time>
   </trkpt>
   <trkpt lat="-3.0846590" lon="37.3687700">
    <ele>5286.0</ele>
    <time>2026-06-23T01:10:37Z</time>
   </trkpt>
   <trkpt lat="-3.0846620" lon="37.3687680">
    <ele>5286.1</ele>
    <time>2026-06-23T01:10:38Z</time>
   </trkpt>
   <trkpt lat="-3.0846630" lon="37.3687650">
    <ele>5286.1</ele>
    <time>2026-06-23T01:10:39Z</time>
   </trkpt>
   <trkpt lat="-3.0846640" lon="37.3687650">
    <ele>5286.2</ele>
    <time>2026-06-23T01:10:40Z</time>
   </trkpt>
   <trkpt lat="-3.0846640" lon="37.3687640">
    <ele>5286.2</ele>
    <time>2026-06-23T01:10:41Z</time>
   </trkpt>
   <trkpt lat="-3.0846650" lon="37.3687630">
    <ele>5286.2</ele>
    <time>2026-06-23T01:10:42Z</time>
   </trkpt>
   <trkpt lat="-3.0846670" lon="37.3687610">
    <ele>5286.3</ele>
    <time>2026-06-23T01:10:43Z</time>
   </trkpt>
   <trkpt lat="-3.0846700" lon="37.3687590">
    <ele>5286.4</ele>
    <time>2026-06-23T01:10:44Z</time>
   </trkpt>
   <trkpt lat="-3.0846710" lon="37.3687570">
    <ele>5286.4</ele>
    <time>2026-06-23T01:10:45Z</time>
   </trkpt>
   <trkpt lat="-3.0846740" lon="37.3687560">
    <ele>5286.5</ele>
    <time>2026-06-23T01:10:46Z</time>
   </trkpt>
   <trkpt lat="-3.0846730" lon="37.3687520">
    <ele>5286.6</ele>
    <time>2026-06-23T01:10:47Z</time>
   </trkpt>
   <trkpt lat="-3.0846730" lon="37.3687510">
    <ele>5286.6</ele>
    <time>2026-06-23T01:10:48Z</time>
   </trkpt>
   <trkpt lat="-3.0846710" lon="37.3687470">
    <ele>5286.7</ele>
    <time>2026-06-23T01:10:49Z</time>
   </trkpt>
   <trkpt lat="-3.0846700" lon="37.3687470">
    <ele>5286.7</ele>
    <time>2026-06-23T01:10:50Z</time>
   </trkpt>
   <trkpt lat="-3.0846690" lon="37.3687460">
    <ele>5286.8</ele>
    <time>2026-06-23T01:10:51Z</time>
   </trkpt>
   <trkpt lat="-3.0846660" lon="37.3687440">
    <ele>5286.8</ele>
    <time>2026-06-23T01:10:52Z</time>
   </trkpt>
   <trkpt lat="-3.0846640" lon="37.3687430">
    <ele>5286.9</ele>
    <time>2026-06-23T01:10:53Z</time>
   </trkpt>
   <trkpt lat="-3.0846630" lon="37.3687420">
    <ele>5286.9</ele>
    <time>2026-06-23T01:10:54Z</time>
   </trkpt>
   <trkpt lat="-3.0846630" lon="37.3687400">
    <ele>5287.0</ele>
    <time>2026-06-23T01:10:55Z</time>
   </trkpt>
   <trkpt lat="-3.0846640" lon="37.3687370">
    <ele>5287.0</ele>
    <time>2026-06-23T01:10:56Z</time>
   </trkpt>
   <trkpt lat="-3.0846660" lon="37.3687350">
    <ele>5287.1</ele>
    <time>2026-06-23T01:10:57Z</time>
   </trkpt>
   <trkpt lat="-3.0846670" lon="37.3687340">
    <ele>5287.1</ele>
    <time>2026-06-23T01:10:58Z</time>
   </trkpt>
   <trkpt lat="-3.0846670" lon="37.3687340">
    <ele>5287.1</ele>
    <time>2026-06-23T01:10:59Z</time>
   </trkpt>
   <trkpt lat="-3.0846680" lon="37.3687340">
    <ele>5287.2</ele>
    <time>2026-06-23T01:11:00Z</time>
   </trkpt>
   <trkpt lat="-3.0846690" lon="37.3687340">
    <ele>5287.2</ele>
    <time>2026-06-23T01:11:01Z</time>
   </trkpt>
   <trkpt lat="-3.0846700" lon="37.3687330">
    <ele>5287.2</ele>
    <time>2026-06-23T01:11:02Z</time>
   </trkpt>
   <trkpt lat="-3.0846700" lon="37.3687320">
    <ele>5287.2</ele>
    <time>2026-06-23T01:11:03Z</time>
   </trkpt>
   <trkpt lat="-3.0846690" lon="37.3687320">
    <ele>5287.3</ele>
    <time>2026-06-23T01:11:04Z</time>
   </trkpt>
   <trkpt lat="-3.0846730" lon="37.3687300">
    <ele>5287.4</ele>
    <time>2026-06-23T01:11:05Z</time>
   </trkpt>
   <trkpt lat="-3.0846740" lon="37.3687300">
    <ele>5287.4</ele>
    <time>2026-06-23T01:11:06Z</time>
   </trkpt>
   <trkpt lat="-3.0846760" lon="37.3687300">
    <ele>5287.4</ele>
    <time>2026-06-23T01:11:07Z</time>
   </trkpt>
   <trkpt lat="-3.0846780" lon="37.3687270">
    <ele>5287.5</ele>
    <time>2026-06-23T01:11:08Z</time>
   </trkpt>
   <trkpt lat="-3.0846790" lon="37.3687220">
    <ele>5287.6</ele>
    <time>2026-06-23T01:11:09Z</time>
   </trkpt>
   <trkpt lat="-3.0846800" lon="37.3687200">
    <ele>5287.7</ele>
    <time>2026-06-23T01:11:10Z</time>
   </trkpt>
   <trkpt lat="-3.0846810" lon="37.3687180">
    <ele>5287.7</ele>
    <time>2026-06-23T01:11:11Z</time>
   </trkpt>
   <trkpt lat="-3.0846830" lon="37.3687150">
    <ele>5287.8</ele>
    <time>2026-06-23T01:11:12Z</time>
   </trkpt>
   <trkpt lat="-3.0846830" lon="37.3687120">
    <ele>5287.9</ele>
    <time>2026-06-23T01:11:13Z</time>
   </trkpt>
   <trkpt lat="-3.0846830" lon="37.3687110">
    <ele>5287.9</ele>
    <time>2026-06-23T01:11:14Z</time>
   </trkpt>
   <trkpt lat="-3.0846830" lon="37.3687110">
    <ele>5287.9</ele>
    <time>2026-06-23T01:11:15Z</time>
   </trkpt>
   <trkpt lat="-3.0846830" lon="37.3687090">
    <ele>5288.0</ele>
    <time>2026-06-23T01:11:16Z</time>
   </trkpt>
   <trkpt lat="-3.0846840" lon="37.3687060">
    <ele>5288.0</ele>
    <time>2026-06-23T01:11:17Z</time>
   </trkpt>
   <trkpt lat="-3.0846860" lon="37.3687040">
    <ele>5288.1</ele>
    <time>2026-06-23T01:11:18Z</time>
   </trkpt>
   <trkpt lat="-3.0846880" lon="37.3687020">
    <ele>5288.2</ele>
    <time>2026-06-23T01:11:20Z</time>
   </trkpt>
   <trkpt lat="-3.0846890" lon="37.3687000">
    <ele>5288.2</ele>
    <time>2026-06-23T01:11:21Z</time>
   </trkpt>
   <trkpt lat="-3.0846910" lon="37.3686990">
    <ele>5288.3</ele>
    <time>2026-06-23T01:11:22Z</time>
   </trkpt>
   <trkpt lat="-3.0846940" lon="37.3686980">
    <ele>5288.3</ele>
    <time>2026-06-23T01:11:23Z</time>
   </trkpt>
   <trkpt lat="-3.0846950" lon="37.3686970">
    <ele>5288.4</ele>
    <time>2026-06-23T01:11:24Z</time>
   </trkpt>
   <trkpt lat="-3.0846970" lon="37.3686960">
    <ele>5288.4</ele>
    <time>2026-06-23T01:11:25Z</time>
   </trkpt>
   <trkpt lat="-3.0846990" lon="37.3686950">
    <ele>5288.5</ele>
    <time>2026-06-23T01:11:26Z</time>
   </trkpt>
   <trkpt lat="-3.0847000" lon="37.3686930">
    <ele>5288.5</ele>
    <time>2026-06-23T01:11:27Z</time>
   </trkpt>
   <trkpt lat="-3.0847010" lon="37.3686920">
    <ele>5288.6</ele>
    <time>2026-06-23T01:11:28Z</time>
   </trkpt>
   <trkpt lat="-3.0847030" lon="37.3686910">
    <ele>5288.6</ele>
    <time>2026-06-23T01:11:29Z</time>
   </trkpt>
   <trkpt lat="-3.0847050" lon="37.3686910">
    <ele>5288.6</ele>
    <time>2026-06-23T01:11:30Z</time>
   </trkpt>
   <trkpt lat="-3.0847050" lon="37.3686880">
    <ele>5288.7</ele>
    <time>2026-06-23T01:11:31Z</time>
   </trkpt>
   <trkpt lat="-3.0847050" lon="37.3686890">
    <ele>5288.7</ele>
    <time>2026-06-23T01:11:32Z</time>
   </trkpt>
   <trkpt lat="-3.0847050" lon="37.3686890">
    <ele>5288.7</ele>
    <time>2026-06-23T01:11:33Z</time>
   </trkpt>
   <trkpt lat="-3.0847070" lon="37.3686880">
    <ele>5288.8</ele>
    <time>2026-06-23T01:11:34Z</time>
   </trkpt>
   <trkpt lat="-3.0847090" lon="37.3686850">
    <ele>5288.9</ele>
    <time>2026-06-23T01:11:35Z</time>
   </trkpt>
   <trkpt lat="-3.0847100" lon="37.3686850">
    <ele>5288.9</ele>
    <time>2026-06-23T01:11:36Z</time>
   </trkpt>
   <trkpt lat="-3.0847110" lon="37.3686820">
    <ele>5289.0</ele>
    <time>2026-06-23T01:11:37Z</time>
   </trkpt>
   <trkpt lat="-3.0847110" lon="37.3686800">
    <ele>5289.0</ele>
    <time>2026-06-23T01:11:38Z</time>
   </trkpt>
   <trkpt lat="-3.0847120" lon="37.3686790">
    <ele>5289.0</ele>
    <time>2026-06-23T01:11:39Z</time>
   </trkpt>
   <trkpt lat="-3.0847120" lon="37.3686760">
    <ele>5289.1</ele>
    <time>2026-06-23T01:11:40Z</time>
   </trkpt>
   <trkpt lat="-3.0847130" lon="37.3686740">
    <ele>5289.2</ele>
    <time>2026-06-23T01:11:41Z</time>
   </trkpt>
   <trkpt lat="-3.0847140" lon="37.3686720">
    <ele>5289.2</ele>
    <time>2026-06-23T01:11:42Z</time>
   </trkpt>
   <trkpt lat="-3.0847140" lon="37.3686680">
    <ele>5289.3</ele>
    <time>2026-06-23T01:11:43Z</time>
   </trkpt>
   <trkpt lat="-3.0847120" lon="37.3686670">
    <ele>5289.4</ele>
    <time>2026-06-23T01:11:44Z</time>
   </trkpt>
   <trkpt lat="-3.0847120" lon="37.3686670">
    <ele>5289.4</ele>
    <time>2026-06-23T01:11:45Z</time>
   </trkpt>
   <trkpt lat="-3.0847100" lon="37.3686670">
    <ele>5289.4</ele>
    <time>2026-06-23T01:11:46Z</time>
   </trkpt>
   <trkpt lat="-3.0847090" lon="37.3686660">
    <ele>5289.4</ele>
    <time>2026-06-23T01:11:47Z</time>
   </trkpt>
   <trkpt lat="-3.0847080" lon="37.3686650">
    <ele>5289.5</ele>
    <time>2026-06-23T01:11:48Z</time>
   </trkpt>
   <trkpt lat="-3.0847050" lon="37.3686640">
    <ele>5289.5</ele>
    <time>2026-06-23T01:11:49Z</time>
   </trkpt>
   <trkpt lat="-3.0847020" lon="37.3686640">
    <ele>5289.6</ele>
    <time>2026-06-23T01:11:50Z</time>
   </trkpt>
   <trkpt lat="-3.0847010" lon="37.3686640">
    <ele>5289.6</ele>
    <time>2026-06-23T01:11:51Z</time>
   </trkpt>
   <trkpt lat="-3.0847000" lon="37.3686640">
    <ele>5289.6</ele>
    <time>2026-06-23T01:11:52Z</time>
   </trkpt>
   <trkpt lat="-3.0846990" lon="37.3686630">
    <ele>5289.7</ele>
    <time>2026-06-23T01:11:53Z</time>
   </trkpt>
   <trkpt lat="-3.0846970" lon="37.3686630">
    <ele>5289.7</ele>
    <time>2026-06-23T01:11:54Z</time>
   </trkpt>
   <trkpt lat="-3.0846950" lon="37.3686630">
    <ele>5289.8</ele>
    <time>2026-06-23T01:11:55Z</time>
   </trkpt>
   <trkpt lat="-3.0846930" lon="37.3686640">
    <ele>5289.8</ele>
    <time>2026-06-23T01:11:56Z</time>
   </trkpt>
   <trkpt lat="-3.0846900" lon="37.3686640">
    <ele>5289.9</ele>
    <time>2026-06-23T01:11:57Z</time>
   </trkpt>
   <trkpt lat="-3.0846880" lon="37.3686650">
    <ele>5289.9</ele>
    <time>2026-06-23T01:11:58Z</time>
   </trkpt>
   <trkpt lat="-3.0846850" lon="37.3686640">
    <ele>5290.0</ele>
    <time>2026-06-23T01:11:59Z</time>
   </trkpt>
   <trkpt lat="-3.0846830" lon="37.3686650">
    <ele>5290.0</ele>
    <time>2026-06-23T01:12:00Z</time>
   </trkpt>
   <trkpt lat="-3.0846800" lon="37.3686640">
    <ele>5290.1</ele>
    <time>2026-06-23T01:12:01Z</time>
   </trkpt>
   <trkpt lat="-3.0846740" lon="37.3686660">
    <ele>5290.3</ele>
    <time>2026-06-23T01:12:02Z</time>
   </trkpt>
   <trkpt lat="-3.0846700" lon="37.3686680">
    <ele>5290.4</ele>
    <time>2026-06-23T01:12:03Z</time>
   </trkpt>
   <trkpt lat="-3.0846680" lon="37.3686680">
    <ele>5290.4</ele>
    <time>2026-06-23T01:12:04Z</time>
   </trkpt>
   <trkpt lat="-3.0846660" lon="37.3686690">
    <ele>5290.4</ele>
    <time>2026-06-23T01:12:05Z</time>
   </trkpt>
   <trkpt lat="-3.0846660" lon="37.3686690">
    <ele>5290.4</ele>
    <time>2026-06-23T01:12:06Z</time>
   </trkpt>
   <trkpt lat="-3.0846640" lon="37.3686690">
    <ele>5290.5</ele>
    <time>2026-06-23T01:12:07Z</time>
   </trkpt>
   <trkpt lat="-3.0846610" lon="37.3686710">
    <ele>5290.6</ele>
    <time>2026-06-23T01:12:08Z</time>
   </trkpt>
   <trkpt lat="-3.0846600" lon="37.3686730">
    <ele>5290.6</ele>
    <time>2026-06-23T01:12:09Z</time>
   </trkpt>
   <trkpt lat="-3.0846560" lon="37.3686740">
    <ele>5290.7</ele>
    <time>2026-06-23T01:12:10Z</time>
   </trkpt>
   <trkpt lat="-3.0846540" lon="37.3686750">
    <ele>5290.8</ele>
    <time>2026-06-23T01:12:11Z</time>
   </trkpt>
   <trkpt lat="-3.0846510" lon="37.3686750">
    <ele>5290.8</ele>
    <time>2026-06-23T01:12:12Z</time>
   </trkpt>
   <trkpt lat="-3.0846500" lon="37.3686770">
    <ele>5290.9</ele>
    <time>2026-06-23T01:12:13Z</time>
   </trkpt>
   <trkpt lat="-3.0846500" lon="37.3686760">
    <ele>5290.9</ele>
    <time>2026-06-23T01:12:14Z</time>
   </trkpt>
   <trkpt lat="-3.0846480" lon="37.3686770">
    <ele>5290.9</ele>
    <time>2026-06-23T01:12:15Z</time>
   </trkpt>
   <trkpt lat="-3.0846450" lon="37.3686790">
    <ele>5291.0</ele>
    <time>2026-06-23T01:12:16Z</time>
   </trkpt>
   <trkpt lat="-3.0846430" lon="37.3686800">
    <ele>5291.1</ele>
    <time>2026-06-23T01:12:17Z</time>
   </trkpt>
   <trkpt lat="-3.0846420" lon="37.3686800">
    <ele>5291.1</ele>
    <time>2026-06-23T01:12:18Z</time>
   </trkpt>
   <trkpt lat="-3.0846400" lon="37.3686790">
    <ele>5291.1</ele>
    <time>2026-06-23T01:12:19Z</time>
   </trkpt>
   <trkpt lat="-3.0846380" lon="37.3686810">
    <ele>5291.2</ele>
    <time>2026-06-23T01:12:20Z</time>
   </trkpt>
   <trkpt lat="-3.0846370" lon="37.3686810">
    <ele>5291.2</ele>
    <time>2026-06-23T01:12:21Z</time>
   </trkpt>
   <trkpt lat="-3.0846340" lon="37.3686810">
    <ele>5291.3</ele>
    <time>2026-06-23T01:12:22Z</time>
   </trkpt>
   <trkpt lat="-3.0846350" lon="37.3686830">
    <ele>5291.3</ele>
    <time>2026-06-23T01:12:23Z</time>
   </trkpt>
   <trkpt lat="-3.0846320" lon="37.3686830">
    <ele>5291.4</ele>
    <time>2026-06-23T01:12:24Z</time>
   </trkpt>
   <trkpt lat="-3.0846320" lon="37.3686840">
    <ele>5291.4</ele>
    <time>2026-06-23T01:12:25Z</time>
   </trkpt>
   <trkpt lat="-3.0846320" lon="37.3686840">
    <ele>5291.4</ele>
    <time>2026-06-23T01:12:26Z</time>
   </trkpt>
   <trkpt lat="-3.0846280" lon="37.3686860">
    <ele>5291.5</ele>
    <time>2026-06-23T01:12:27Z</time>
   </trkpt>
   <trkpt lat="-3.0846260" lon="37.3686880">
    <ele>5291.6</ele>
    <time>2026-06-23T01:12:28Z</time>
   </trkpt>
   <trkpt lat="-3.0846250" lon="37.3686900">
    <ele>5291.6</ele>
    <time>2026-06-23T01:12:29Z</time>
   </trkpt>
   <trkpt lat="-3.0846220" lon="37.3686920">
    <ele>5291.7</ele>
    <time>2026-06-23T01:12:30Z</time>
   </trkpt>
   <trkpt lat="-3.0846210" lon="37.3686940">
    <ele>5291.8</ele>
    <time>2026-06-23T01:12:31Z</time>
   </trkpt>
   <trkpt lat="-3.0846190" lon="37.3686950">
    <ele>5291.8</ele>
    <time>2026-06-23T01:12:32Z</time>
   </trkpt>
   <trkpt lat="-3.0846170" lon="37.3686960">
    <ele>5291.9</ele>
    <time>2026-06-23T01:12:33Z</time>
   </trkpt>
   <trkpt lat="-3.0846140" lon="37.3686960">
    <ele>5291.9</ele>
    <time>2026-06-23T01:12:34Z</time>
   </trkpt>
   <trkpt lat="-3.0846120" lon="37.3686970">
    <ele>5292.0</ele>
    <time>2026-06-23T01:12:35Z</time>
   </trkpt>
   <trkpt lat="-3.0846110" lon="37.3686960">
    <ele>5292.0</ele>
    <time>2026-06-23T01:12:36Z</time>
   </trkpt>
   <trkpt lat="-3.0846080" lon="37.3686970">
    <ele>5292.1</ele>
    <time>2026-06-23T01:12:37Z</time>
   </trkpt>
   <trkpt lat="-3.0846070" lon="37.3686970">
    <ele>5292.1</ele>
    <time>2026-06-23T01:12:38Z</time>
   </trkpt>
   <trkpt lat="-3.0846040" lon="37.3686990">
    <ele>5292.2</ele>
    <time>2026-06-23T01:12:39Z</time>
   </trkpt>
   <trkpt lat="-3.0846020" lon="37.3686990">
    <ele>5292.2</ele>
    <time>2026-06-23T01:12:40Z</time>
   </trkpt>
   <trkpt lat="-3.0845990" lon="37.3687000">
    <ele>5292.3</ele>
    <time>2026-06-23T01:12:41Z</time>
   </trkpt>
   <trkpt lat="-3.0845980" lon="37.3687010">
    <ele>5292.3</ele>
    <time>2026-06-23T01:12:42Z</time>
   </trkpt>
   <trkpt lat="-3.0845960" lon="37.3687030">
    <ele>5292.4</ele>
    <time>2026-06-23T01:12:43Z</time>
   </trkpt>
   <trkpt lat="-3.0845930" lon="37.3687020">
    <ele>5292.5</ele>
    <time>2026-06-23T01:12:44Z</time>
   </trkpt>
   <trkpt lat="-3.0845910" lon="37.3687020">
    <ele>5292.5</ele>
    <time>2026-06-23T01:12:45Z</time>
   </trkpt>
   <trkpt lat="-3.0845890" lon="37.3686980">
    <ele>5292.6</ele>
    <time>2026-06-23T01:12:46Z</time>
   </trkpt>
   <trkpt lat="-3.0845890" lon="37.3686970">
    <ele>5292.6</ele>
    <time>2026-06-23T01:12:47Z</time>
   </trkpt>
   <trkpt lat="-3.0845870" lon="37.3686970">
    <ele>5292.7</ele>
    <time>2026-06-23T01:12:48Z</time>
   </trkpt>
   <trkpt lat="-3.0845890" lon="37.3686960">
    <ele>5292.7</ele>
    <time>2026-06-23T01:12:49Z</time>
   </trkpt>
   <trkpt lat="-3.0845900" lon="37.3686950">
    <ele>5292.8</ele>
    <time>2026-06-23T01:12:50Z</time>
   </trkpt>
   <trkpt lat="-3.0845890" lon="37.3686940">
    <ele>5292.8</ele>
    <time>2026-06-23T01:12:51Z</time>
   </trkpt>
   <trkpt lat="-3.0845890" lon="37.3686900">
    <ele>5292.9</ele>
    <time>2026-06-23T01:12:52Z</time>
   </trkpt>
   <trkpt lat="-3.0845900" lon="37.3686870">
    <ele>5292.9</ele>
    <time>2026-06-23T01:12:53Z</time>
   </trkpt>
   <trkpt lat="-3.0845910" lon="37.3686840">
    <ele>5293.0</ele>
    <time>2026-06-23T01:12:54Z</time>
   </trkpt>
   <trkpt lat="-3.0845930" lon="37.3686840">
    <ele>5293.1</ele>
    <time>2026-06-23T01:12:55Z</time>
   </trkpt>
   <trkpt lat="-3.0845920" lon="37.3686810">
    <ele>5293.1</ele>
    <time>2026-06-23T01:12:56Z</time>
   </trkpt>
   <trkpt lat="-3.0845920" lon="37.3686810">
    <ele>5293.1</ele>
    <time>2026-06-23T01:12:57Z</time>
   </trkpt>
   <trkpt lat="-3.0845940" lon="37.3686780">
    <ele>5293.2</ele>
    <time>2026-06-23T01:12:58Z</time>
   </trkpt>
   <trkpt lat="-3.0845950" lon="37.3686760">
    <ele>5293.3</ele>
    <time>2026-06-23T01:12:59Z</time>
   </trkpt>
   <trkpt lat="-3.0845990" lon="37.3686730">
    <ele>5293.4</ele>
    <time>2026-06-23T01:13:00Z</time>
   </trkpt>
   <trkpt lat="-3.0845980" lon="37.3686700">
    <ele>5293.4</ele>
    <time>2026-06-23T01:13:01Z</time>
   </trkpt>
   <trkpt lat="-3.0845990" lon="37.3686690">
    <ele>5293.5</ele>
    <time>2026-06-23T01:13:02Z</time>
   </trkpt>
   <trkpt lat="-3.0846020" lon="37.3686660">
    <ele>5293.6</ele>
    <time>2026-06-23T01:13:03Z</time>
   </trkpt>
   <trkpt lat="-3.0846030" lon="37.3686640">
    <ele>5293.6</ele>
    <time>2026-06-23T01:13:04Z</time>
   </trkpt>
   <trkpt lat="-3.0846050" lon="37.3686610">
    <ele>5293.7</ele>
    <time>2026-06-23T01:13:05Z</time>
   </trkpt>
   <trkpt lat="-3.0846040" lon="37.3686580">
    <ele>5293.8</ele>
    <time>2026-06-23T01:13:06Z</time>
   </trkpt>
   <trkpt lat="-3.0846050" lon="37.3686560">
    <ele>5293.8</ele>
    <time>2026-06-23T01:13:07Z</time>
   </trkpt>
   <trkpt lat="-3.0846020" lon="37.3686560">
    <ele>5293.9</ele>
    <time>2026-06-23T01:13:08Z</time>
   </trkpt>
   <trkpt lat="-3.0846020" lon="37.3686530">
    <ele>5293.9</ele>
    <time>2026-06-23T01:13:09Z</time>
   </trkpt>
   <trkpt lat="-3.0846010" lon="37.3686540">
    <ele>5294.0</ele>
    <time>2026-06-23T01:13:10Z</time>
   </trkpt>
   <trkpt lat="-3.0846010" lon="37.3686540">
    <ele>5294.0</ele>
    <time>2026-06-23T01:13:11Z</time>
   </trkpt>
   <trkpt lat="-3.0845990" lon="37.3686530">
    <ele>5294.0</ele>
    <time>2026-06-23T01:13:12Z</time>
   </trkpt>
   <trkpt lat="-3.0845970" lon="37.3686540">
    <ele>5294.1</ele>
    <time>2026-06-23T01:13:13Z</time>
   </trkpt>
   <trkpt lat="-3.0845940" lon="37.3686520">
    <ele>5294.1</ele>
    <time>2026-06-23T01:13:14Z</time>
   </trkpt>
   <trkpt lat="-3.0845920" lon="37.3686540">
    <ele>5294.2</ele>
    <time>2026-06-23T01:13:15Z</time>
   </trkpt>
   <trkpt lat="-3.0845890" lon="37.3686540">
    <ele>5294.3</ele>
    <time>2026-06-23T01:13:16Z</time>
   </trkpt>
   <trkpt lat="-3.0845880" lon="37.3686560">
    <ele>5294.3</ele>
    <time>2026-06-23T01:13:17Z</time>
   </trkpt>
   <trkpt lat="-3.0845870" lon="37.3686560">
    <ele>5294.3</ele>
    <time>2026-06-23T01:13:18Z</time>
   </trkpt>
   <trkpt lat="-3.0845860" lon="37.3686570">
    <ele>5294.4</ele>
    <time>2026-06-23T01:13:19Z</time>
   </trkpt>
   <trkpt lat="-3.0845840" lon="37.3686570">
    <ele>5294.4</ele>
    <time>2026-06-23T01:13:20Z</time>
   </trkpt>
   <trkpt lat="-3.0845820" lon="37.3686580">
    <ele>5294.5</ele>
    <time>2026-06-23T01:13:21Z</time>
   </trkpt>
   <trkpt lat="-3.0845810" lon="37.3686570">
    <ele>5294.5</ele>
    <time>2026-06-23T01:13:22Z</time>
   </trkpt>
   <trkpt lat="-3.0845800" lon="37.3686580">
    <ele>5294.5</ele>
    <time>2026-06-23T01:13:23Z</time>
   </trkpt>
   <trkpt lat="-3.0845790" lon="37.3686580">
    <ele>5294.6</ele>
    <time>2026-06-23T01:13:24Z</time>
   </trkpt>
   <trkpt lat="-3.0845800" lon="37.3686580">
    <ele>5294.6</ele>
    <time>2026-06-23T01:13:26Z</time>
   </trkpt>
   <trkpt lat="-3.0845790" lon="37.3686580">
    <ele>5294.6</ele>
    <time>2026-06-23T01:13:27Z</time>
   </trkpt>
   <trkpt lat="-3.0845750" lon="37.3686590">
    <ele>5294.7</ele>
    <time>2026-06-23T01:13:28Z</time>
   </trkpt>
   <trkpt lat="-3.0845730" lon="37.3686600">
    <ele>5294.7</ele>
    <time>2026-06-23T01:13:29Z</time>
   </trkpt>
   <trkpt lat="-3.0845700" lon="37.3686600">
    <ele>5294.8</ele>
    <time>2026-06-23T01:13:30Z</time>
   </trkpt>
   <trkpt lat="-3.0845690" lon="37.3686610">
    <ele>5294.8</ele>
    <time>2026-06-23T01:13:31Z</time>
   </trkpt>
   <trkpt lat="-3.0845660" lon="37.3686600">
    <ele>5294.9</ele>
    <time>2026-06-23T01:13:32Z</time>
   </trkpt>
   <trkpt lat="-3.0845640" lon="37.3686600">
    <ele>5295.0</ele>
    <time>2026-06-23T01:13:33Z</time>
   </trkpt>
   <trkpt lat="-3.0845630" lon="37.3686590">
    <ele>5295.0</ele>
    <time>2026-06-23T01:13:34Z</time>
   </trkpt>
   <trkpt lat="-3.0845600" lon="37.3686590">
    <ele>5295.1</ele>
    <time>2026-06-23T01:13:35Z</time>
   </trkpt>
   <trkpt lat="-3.0845580" lon="37.3686590">
    <ele>5295.1</ele>
    <time>2026-06-23T01:13:36Z</time>
   </trkpt>
   <trkpt lat="-3.0845570" lon="37.3686580">
    <ele>5295.1</ele>
    <time>2026-06-23T01:13:37Z</time>
   </trkpt>
   <trkpt lat="-3.0845570" lon="37.3686580">
    <ele>5295.1</ele>
    <time>2026-06-23T01:13:38Z</time>
   </trkpt>
   <trkpt lat="-3.0845570" lon="37.3686570">
    <ele>5295.1</ele>
    <time>2026-06-23T01:13:39Z</time>
   </trkpt>
   <trkpt lat="-3.0845560" lon="37.3686550">
    <ele>5295.2</ele>
    <time>2026-06-23T01:13:40Z</time>
   </trkpt>
   <trkpt lat="-3.0845540" lon="37.3686520">
    <ele>5295.3</ele>
    <time>2026-06-23T01:13:41Z</time>
   </trkpt>
   <trkpt lat="-3.0845540" lon="37.3686500">
    <ele>5295.3</ele>
    <time>2026-06-23T01:13:42Z</time>
   </trkpt>
   <trkpt lat="-3.0845540" lon="37.3686480">
    <ele>5295.4</ele>
    <time>2026-06-23T01:13:43Z</time>
   </trkpt>
   <trkpt lat="-3.0845530" lon="37.3686450">
    <ele>5295.4</ele>
    <time>2026-06-23T01:13:44Z</time>
   </trkpt>
   <trkpt lat="-3.0845520" lon="37.3686430">
    <ele>5295.5</ele>
    <time>2026-06-23T01:13:45Z</time>
   </trkpt>
   <trkpt lat="-3.0845500" lon="37.3686420">
    <ele>5295.5</ele>
    <time>2026-06-23T01:13:46Z</time>
   </trkpt>
   <trkpt lat="-3.0845500" lon="37.3686420">
    <ele>5295.5</ele>
    <time>2026-06-23T01:13:47Z</time>
   </trkpt>
   <trkpt lat="-3.0845470" lon="37.3686420">
    <ele>5295.6</ele>
    <time>2026-06-23T01:13:48Z</time>
   </trkpt>
   <trkpt lat="-3.0845440" lon="37.3686420">
    <ele>5295.7</ele>
    <time>2026-06-23T01:13:49Z</time>
   </trkpt>
   <trkpt lat="-3.0845420" lon="37.3686400">
    <ele>5295.7</ele>
    <time>2026-06-23T01:13:50Z</time>
   </trkpt>
   <trkpt lat="-3.0845420" lon="37.3686400">
    <ele>5295.7</ele>
    <time>2026-06-23T01:13:51Z</time>
   </trkpt>
   <trkpt lat="-3.0845410" lon="37.3686400">
    <ele>5295.7</ele>
    <time>2026-06-23T01:13:52Z</time>
   </trkpt>
   <trkpt lat="-3.0845400" lon="37.3686420">
    <ele>5295.8</ele>
    <time>2026-06-23T01:13:53Z</time>
   </trkpt>
   <trkpt lat="-3.0845370" lon="37.3686410">
    <ele>5295.9</ele>
    <time>2026-06-23T01:13:54Z</time>
   </trkpt>
   <trkpt lat="-3.0845350" lon="37.3686420">
    <ele>5295.9</ele>
    <time>2026-06-23T01:13:55Z</time>
   </trkpt>
   <trkpt lat="-3.0845330" lon="37.3686420">
    <ele>5296.0</ele>
    <time>2026-06-23T01:13:56Z</time>
   </trkpt>
   <trkpt lat="-3.0845300" lon="37.3686430">
    <ele>5296.0</ele>
    <time>2026-06-23T01:13:57Z</time>
   </trkpt>
   <trkpt lat="-3.0845280" lon="37.3686440">
    <ele>5296.1</ele>
    <time>2026-06-23T01:13:58Z</time>
   </trkpt>
   <trkpt lat="-3.0845260" lon="37.3686440">
    <ele>5296.1</ele>
    <time>2026-06-23T01:13:59Z</time>
   </trkpt>
   <trkpt lat="-3.0845230" lon="37.3686450">
    <ele>5296.2</ele>
    <time>2026-06-23T01:14:00Z</time>
   </trkpt>
   <trkpt lat="-3.0845220" lon="37.3686450">
    <ele>5296.2</ele>
    <time>2026-06-23T01:14:01Z</time>
   </trkpt>
   <trkpt lat="-3.0845210" lon="37.3686460">
    <ele>5296.2</ele>
    <time>2026-06-23T01:14:02Z</time>
   </trkpt>
   <trkpt lat="-3.0845200" lon="37.3686470">
    <ele>5296.3</ele>
    <time>2026-06-23T01:14:03Z</time>
   </trkpt>
   <trkpt lat="-3.0845180" lon="37.3686470">
    <ele>5296.3</ele>
    <time>2026-06-23T01:14:04Z</time>
   </trkpt>
   <trkpt lat="-3.0845150" lon="37.3686480">
    <ele>5296.4</ele>
    <time>2026-06-23T01:14:05Z</time>
   </trkpt>
   <trkpt lat="-3.0845130" lon="37.3686460">
    <ele>5296.5</ele>
    <time>2026-06-23T01:14:06Z</time>
   </trkpt>
   <trkpt lat="-3.0845120" lon="37.3686440">
    <ele>5296.5</ele>
    <time>2026-06-23T01:14:07Z</time>
   </trkpt>
   <trkpt lat="-3.0845120" lon="37.3686410">
    <ele>5296.6</ele>
    <time>2026-06-23T01:14:08Z</time>
   </trkpt>
   <trkpt lat="-3.0845110" lon="37.3686400">
    <ele>5296.6</ele>
    <time>2026-06-23T01:14:09Z</time>
   </trkpt>
   <trkpt lat="-3.0845100" lon="37.3686400">
    <ele>5296.6</ele>
    <time>2026-06-23T01:14:10Z</time>
   </trkpt>
   <trkpt lat="-3.0845100" lon="37.3686400">
    <ele>5296.6</ele>
    <time>2026-06-23T01:14:11Z</time>
   </trkpt>
   <trkpt lat="-3.0845110" lon="37.3686400">
    <ele>5296.6</ele>
    <time>2026-06-23T01:14:12Z</time>
   </trkpt>
   <trkpt lat="-3.0845110" lon="37.3686400">
    <ele>5296.6</ele>
    <time>2026-06-23T01:14:13Z</time>
   </trkpt>
   <trkpt lat="-3.0845120" lon="37.3686360">
    <ele>5296.7</ele>
    <time>2026-06-23T01:14:14Z</time>
   </trkpt>
   <trkpt lat="-3.0845130" lon="37.3686340">
    <ele>5296.8</ele>
    <time>2026-06-23T01:14:15Z</time>
   </trkpt>
   <trkpt lat="-3.0845130" lon="37.3686330">
    <ele>5296.8</ele>
    <time>2026-06-23T01:14:16Z</time>
   </trkpt>
   <trkpt lat="-3.0845140" lon="37.3686310">
    <ele>5296.9</ele>
    <time>2026-06-23T01:14:17Z</time>
   </trkpt>
   <trkpt lat="-3.0845170" lon="37.3686290">
    <ele>5296.9</ele>
    <time>2026-06-23T01:14:18Z</time>
   </trkpt>
   <trkpt lat="-3.0845190" lon="37.3686280">
    <ele>5297.0</ele>
    <time>2026-06-23T01:14:19Z</time>
   </trkpt>
   <trkpt lat="-3.0845200" lon="37.3686250">
    <ele>5297.1</ele>
    <time>2026-06-23T01:14:20Z</time>
   </trkpt>
   <trkpt lat="-3.0845210" lon="37.3686240">
    <ele>5297.1</ele>
    <time>2026-06-23T01:14:21Z</time>
   </trkpt>
   <trkpt lat="-3.0845210" lon="37.3686230">
    <ele>5297.1</ele>
    <time>2026-06-23T01:14:22Z</time>
   </trkpt>
   <trkpt lat="-3.0845210" lon="37.3686220">
    <ele>5297.1</ele>
    <time>2026-06-23T01:14:23Z</time>
   </trkpt>
   <trkpt lat="-3.0845210" lon="37.3686220">
    <ele>5297.1</ele>
    <time>2026-06-23T01:14:24Z</time>
   </trkpt>
   <trkpt lat="-3.0845220" lon="37.3686210">
    <ele>5297.2</ele>
    <time>2026-06-23T01:14:25Z</time>
   </trkpt>
   <trkpt lat="-3.0845230" lon="37.3686180">
    <ele>5297.2</ele>
    <time>2026-06-23T01:14:26Z</time>
   </trkpt>
   <trkpt lat="-3.0845230" lon="37.3686160">
    <ele>5297.3</ele>
    <time>2026-06-23T01:14:27Z</time>
   </trkpt>
   <trkpt lat="-3.0845230" lon="37.3686120">
    <ele>5297.4</ele>
    <time>2026-06-23T01:14:28Z</time>
   </trkpt>
   <trkpt lat="-3.0845230" lon="37.3686090">
    <ele>5297.4</ele>
    <time>2026-06-23T01:14:29Z</time>
   </trkpt>
   <trkpt lat="-3.0845250" lon="37.3686060">
    <ele>5297.5</ele>
    <time>2026-06-23T01:14:30Z</time>
   </trkpt>
   <trkpt lat="-3.0845230" lon="37.3686050">
    <ele>5297.6</ele>
    <time>2026-06-23T01:14:31Z</time>
   </trkpt>
   <trkpt lat="-3.0845210" lon="37.3686040">
    <ele>5297.6</ele>
    <time>2026-06-23T01:14:32Z</time>
   </trkpt>
   <trkpt lat="-3.0845190" lon="37.3686040">
    <ele>5297.7</ele>
    <time>2026-06-23T01:14:33Z</time>
   </trkpt>
   <trkpt lat="-3.0845190" lon="37.3686040">
    <ele>5297.7</ele>
    <time>2026-06-23T01:14:34Z</time>
   </trkpt>
   <trkpt lat="-3.0845180" lon="37.3686020">
    <ele>5297.7</ele>
    <time>2026-06-23T01:14:35Z</time>
   </trkpt>
   <trkpt lat="-3.0845160" lon="37.3686030">
    <ele>5297.7</ele>
    <time>2026-06-23T01:14:36Z</time>
   </trkpt>
   <trkpt lat="-3.0845140" lon="37.3686030">
    <ele>5297.8</ele>
    <time>2026-06-23T01:14:37Z</time>
   </trkpt>
   <trkpt lat="-3.0845130" lon="37.3686020">
    <ele>5297.8</ele>
    <time>2026-06-23T01:14:38Z</time>
   </trkpt>
   <trkpt lat="-3.0845130" lon="37.3686020">
    <ele>5297.8</ele>
    <time>2026-06-23T01:14:39Z</time>
   </trkpt>
   <trkpt lat="-3.0845120" lon="37.3686020">
    <ele>5297.8</ele>
    <time>2026-06-23T01:14:40Z</time>
   </trkpt>
   <trkpt lat="-3.0845120" lon="37.3686030">
    <ele>5297.9</ele>
    <time>2026-06-23T01:14:41Z</time>
   </trkpt>
   <trkpt lat="-3.0845100" lon="37.3686040">
    <ele>5297.9</ele>
    <time>2026-06-23T01:14:42Z</time>
   </trkpt>
   <trkpt lat="-3.0845060" lon="37.3686060">
    <ele>5298.0</ele>
    <time>2026-06-23T01:14:43Z</time>
   </trkpt>
   <trkpt lat="-3.0845060" lon="37.3686050">
    <ele>5298.0</ele>
    <time>2026-06-23T01:14:44Z</time>
   </trkpt>
   <trkpt lat="-3.0845050" lon="37.3686060">
    <ele>5298.1</ele>
    <time>2026-06-23T01:14:45Z</time>
   </trkpt>
   <trkpt lat="-3.0845050" lon="37.3686060">
    <ele>5298.1</ele>
    <time>2026-06-23T01:14:46Z</time>
   </trkpt>
   <trkpt lat="-3.0845020" lon="37.3686070">
    <ele>5298.1</ele>
    <time>2026-06-23T01:14:47Z</time>
   </trkpt>
   <trkpt lat="-3.0845000" lon="37.3686080">
    <ele>5298.2</ele>
    <time>2026-06-23T01:14:48Z</time>
   </trkpt>
   <trkpt lat="-3.0844970" lon="37.3686090">
    <ele>5298.3</ele>
    <time>2026-06-23T01:14:49Z</time>
   </trkpt>
   <trkpt lat="-3.0844950" lon="37.3686080">
    <ele>5298.3</ele>
    <time>2026-06-23T01:14:50Z</time>
   </trkpt>
   <trkpt lat="-3.0844940" lon="37.3686080">
    <ele>5298.3</ele>
    <time>2026-06-23T01:14:51Z</time>
   </trkpt>
   <trkpt lat="-3.0844910" lon="37.3686060">
    <ele>5298.4</ele>
    <time>2026-06-23T01:14:52Z</time>
   </trkpt>
   <trkpt lat="-3.0844890" lon="37.3686070">
    <ele>5298.5</ele>
    <time>2026-06-23T01:14:53Z</time>
   </trkpt>
   <trkpt lat="-3.0844860" lon="37.3686070">
    <ele>5298.5</ele>
    <time>2026-06-23T01:14:54Z</time>
   </trkpt>
   <trkpt lat="-3.0844860" lon="37.3686060">
    <ele>5298.5</ele>
    <time>2026-06-23T01:14:55Z</time>
   </trkpt>
   <trkpt lat="-3.0844860" lon="37.3686060">
    <ele>5298.5</ele>
    <time>2026-06-23T01:14:56Z</time>
   </trkpt>
   <trkpt lat="-3.0844860" lon="37.3686060">
    <ele>5298.5</ele>
    <time>2026-06-23T01:14:57Z</time>
   </trkpt>
   <trkpt lat="-3.0844840" lon="37.3686050">
    <ele>5298.6</ele>
    <time>2026-06-23T01:14:58Z</time>
   </trkpt>
   <trkpt lat="-3.0844840" lon="37.3686060">
    <ele>5298.6</ele>
    <time>2026-06-23T01:14:59Z</time>
   </trkpt>
   <trkpt lat="-3.0844830" lon="37.3686060">
    <ele>5298.6</ele>
    <time>2026-06-23T01:15:00Z</time>
   </trkpt>
   <trkpt lat="-3.0844820" lon="37.3686060">
    <ele>5298.7</ele>
    <time>2026-06-23T01:15:01Z</time>
   </trkpt>
   <trkpt lat="-3.0844800" lon="37.3686060">
    <ele>5298.7</ele>
    <time>2026-06-23T01:15:02Z</time>
   </trkpt>
   <trkpt lat="-3.0844770" lon="37.3686050">
    <ele>5298.8</ele>
    <time>2026-06-23T01:15:03Z</time>
   </trkpt>
   <trkpt lat="-3.0844760" lon="37.3686040">
    <ele>5298.8</ele>
    <time>2026-06-23T01:15:04Z</time>
   </trkpt>
   <trkpt lat="-3.0844760" lon="37.3686040">
    <ele>5298.8</ele>
    <time>2026-06-23T01:15:05Z</time>
   </trkpt>
   <trkpt lat="-3.0844760" lon="37.3686010">
    <ele>5298.9</ele>
    <time>2026-06-23T01:15:06Z</time>
   </trkpt>
   <trkpt lat="-3.0844740" lon="37.3686000">
    <ele>5298.9</ele>
    <time>2026-06-23T01:15:07Z</time>
   </trkpt>
   <trkpt lat="-3.0844760" lon="37.3685970">
    <ele>5299.0</ele>
    <time>2026-06-23T01:15:08Z</time>
   </trkpt>
   <trkpt lat="-3.0844760" lon="37.3685950">
    <ele>5299.0</ele>
    <time>2026-06-23T01:15:09Z</time>
   </trkpt>
   <trkpt lat="-3.0844770" lon="37.3685930">
    <ele>5299.1</ele>
    <time>2026-06-23T01:15:10Z</time>
   </trkpt>
   <trkpt lat="-3.0844770" lon="37.3685910">
    <ele>5299.1</ele>
    <time>2026-06-23T01:15:11Z</time>
   </trkpt>
   <trkpt lat="-3.0844780" lon="37.3685880">
    <ele>5299.2</ele>
    <time>2026-06-23T01:15:12Z</time>
   </trkpt>
   <trkpt lat="-3.0844790" lon="37.3685870">
    <ele>5299.2</ele>
    <time>2026-06-23T01:15:13Z</time>
   </trkpt>
   <trkpt lat="-3.0844790" lon="37.3685830">
    <ele>5299.3</ele>
    <time>2026-06-23T01:15:14Z</time>
   </trkpt>
   <trkpt lat="-3.0844800" lon="37.3685830">
    <ele>5299.3</ele>
    <time>2026-06-23T01:15:15Z</time>
   </trkpt>
   <trkpt lat="-3.0844810" lon="37.3685810">
    <ele>5299.4</ele>
    <time>2026-06-23T01:15:16Z</time>
   </trkpt>
   <trkpt lat="-3.0844820" lon="37.3685820">
    <ele>5299.4</ele>
    <time>2026-06-23T01:15:17Z</time>
   </trkpt>
   <trkpt lat="-3.0844810" lon="37.3685790">
    <ele>5299.5</ele>
    <time>2026-06-23T01:15:18Z</time>
   </trkpt>
   <trkpt lat="-3.0844830" lon="37.3685790">
    <ele>5299.5</ele>
    <time>2026-06-23T01:15:19Z</time>
   </trkpt>
   <trkpt lat="-3.0844850" lon="37.3685760">
    <ele>5299.6</ele>
    <time>2026-06-23T01:15:20Z</time>
   </trkpt>
   <trkpt lat="-3.0844860" lon="37.3685740">
    <ele>5299.7</ele>
    <time>2026-06-23T01:15:21Z</time>
   </trkpt>
   <trkpt lat="-3.0844900" lon="37.3685730">
    <ele>5299.8</ele>
    <time>2026-06-23T01:15:22Z</time>
   </trkpt>
   <trkpt lat="-3.0844920" lon="37.3685710">
    <ele>5299.8</ele>
    <time>2026-06-23T01:15:23Z</time>
   </trkpt>
   <trkpt lat="-3.0844940" lon="37.3685690">
    <ele>5299.9</ele>
    <time>2026-06-23T01:15:24Z</time>
   </trkpt>
   <trkpt lat="-3.0844950" lon="37.3685670">
    <ele>5299.9</ele>
    <time>2026-06-23T01:15:25Z</time>
   </trkpt>
   <trkpt lat="-3.0844950" lon="37.3685660">
    <ele>5300.0</ele>
    <time>2026-06-23T01:15:26Z</time>
   </trkpt>
   <trkpt lat="-3.0844970" lon="37.3685620">
    <ele>5300.1</ele>
    <time>2026-06-23T01:15:27Z</time>
   </trkpt>
   <trkpt lat="-3.0844980" lon="37.3685620">
    <ele>5300.1</ele>
    <time>2026-06-23T01:15:28Z</time>
   </trkpt>
   <trkpt lat="-3.0844980" lon="37.3685620">
    <ele>5300.1</ele>
    <time>2026-06-23T01:15:29Z</time>
   </trkpt>
   <trkpt lat="-3.0844990" lon="37.3685600">
    <ele>5300.1</ele>
    <time>2026-06-23T01:15:30Z</time>
   </trkpt>
   <trkpt lat="-3.0845020" lon="37.3685600">
    <ele>5300.2</ele>
    <time>2026-06-23T01:15:32Z</time>
   </trkpt>
   <trkpt lat="-3.0845040" lon="37.3685610">
    <ele>5300.2</ele>
    <time>2026-06-23T01:15:33Z</time>
   </trkpt>
   <trkpt lat="-3.0845080" lon="37.3685610">
    <ele>5300.3</ele>
    <time>2026-06-23T01:15:34Z</time>
   </trkpt>
   <trkpt lat="-3.0845110" lon="37.3685600">
    <ele>5300.4</ele>
    <time>2026-06-23T01:15:35Z</time>
   </trkpt>
   <trkpt lat="-3.0845130" lon="37.3685590">
    <ele>5300.5</ele>
    <time>2026-06-23T01:15:36Z</time>
   </trkpt>
   <trkpt lat="-3.0845150" lon="37.3685580">
    <ele>5300.5</ele>
    <time>2026-06-23T01:15:37Z</time>
   </trkpt>
   <trkpt lat="-3.0845160" lon="37.3685560">
    <ele>5300.5</ele>
    <time>2026-06-23T01:15:38Z</time>
   </trkpt>
   <trkpt lat="-3.0845170" lon="37.3685540">
    <ele>5300.6</ele>
    <time>2026-06-23T01:15:39Z</time>
   </trkpt>
   <trkpt lat="-3.0845160" lon="37.3685540">
    <ele>5300.6</ele>
    <time>2026-06-23T01:15:40Z</time>
   </trkpt>
   <trkpt lat="-3.0845160" lon="37.3685530">
    <ele>5300.6</ele>
    <time>2026-06-23T01:15:41Z</time>
   </trkpt>
   <trkpt lat="-3.0845160" lon="37.3685510">
    <ele>5300.7</ele>
    <time>2026-06-23T01:15:42Z</time>
   </trkpt>
   <trkpt lat="-3.0845140" lon="37.3685490">
    <ele>5300.7</ele>
    <time>2026-06-23T01:15:43Z</time>
   </trkpt>
   <trkpt lat="-3.0845150" lon="37.3685490">
    <ele>5300.8</ele>
    <time>2026-06-23T01:15:44Z</time>
   </trkpt>
   <trkpt lat="-3.0845110" lon="37.3685480">
    <ele>5300.9</ele>
    <time>2026-06-23T01:15:45Z</time>
   </trkpt>
   <trkpt lat="-3.0845100" lon="37.3685460">
    <ele>5300.9</ele>
    <time>2026-06-23T01:15:46Z</time>
   </trkpt>
   <trkpt lat="-3.0845080" lon="37.3685460">
    <ele>5301.0</ele>
    <time>2026-06-23T01:15:47Z</time>
   </trkpt>
   <trkpt lat="-3.0845040" lon="37.3685450">
    <ele>5301.0</ele>
    <time>2026-06-23T01:15:48Z</time>
   </trkpt>
   <trkpt lat="-3.0845010" lon="37.3685440">
    <ele>5301.1</ele>
    <time>2026-06-23T01:15:49Z</time>
   </trkpt>
   <trkpt lat="-3.0844990" lon="37.3685450">
    <ele>5301.2</ele>
    <time>2026-06-23T01:15:50Z</time>
   </trkpt>
   <trkpt lat="-3.0844960" lon="37.3685440">
    <ele>5301.2</ele>
    <time>2026-06-23T01:15:51Z</time>
   </trkpt>
   <trkpt lat="-3.0844950" lon="37.3685440">
    <ele>5301.3</ele>
    <time>2026-06-23T01:15:52Z</time>
   </trkpt>
   <trkpt lat="-3.0844940" lon="37.3685440">
    <ele>5301.3</ele>
    <time>2026-06-23T01:15:53Z</time>
   </trkpt>
   <trkpt lat="-3.0844940" lon="37.3685440">
    <ele>5301.3</ele>
    <time>2026-06-23T01:15:54Z</time>
   </trkpt>
   <trkpt lat="-3.0844920" lon="37.3685450">
    <ele>5301.3</ele>
    <time>2026-06-23T01:15:55Z</time>
   </trkpt>
   <trkpt lat="-3.0844880" lon="37.3685460">
    <ele>5301.4</ele>
    <time>2026-06-23T01:15:56Z</time>
   </trkpt>
   <trkpt lat="-3.0844870" lon="37.3685460">
    <ele>5301.4</ele>
    <time>2026-06-23T01:15:57Z</time>
   </trkpt>
   <trkpt lat="-3.0844880" lon="37.3685460">
    <ele>5301.5</ele>
    <time>2026-06-23T01:15:58Z</time>
   </trkpt>
   <trkpt lat="-3.0844860" lon="37.3685480">
    <ele>5301.5</ele>
    <time>2026-06-23T01:15:59Z</time>
   </trkpt>
   <trkpt lat="-3.0844840" lon="37.3685490">
    <ele>5301.6</ele>
    <time>2026-06-23T01:16:00Z</time>
   </trkpt>
   <trkpt lat="-3.0844840" lon="37.3685500">
    <ele>5301.6</ele>
    <time>2026-06-23T01:16:01Z</time>
   </trkpt>
   <trkpt lat="-3.0844810" lon="37.3685520">
    <ele>5301.7</ele>
    <time>2026-06-23T01:16:02Z</time>
   </trkpt>
   <trkpt lat="-3.0844810" lon="37.3685530">
    <ele>5301.7</ele>
    <time>2026-06-23T01:16:03Z</time>
   </trkpt>
   <trkpt lat="-3.0844780" lon="37.3685530">
    <ele>5301.8</ele>
    <time>2026-06-23T01:16:04Z</time>
   </trkpt>
   <trkpt lat="-3.0844780" lon="37.3685530">
    <ele>5301.8</ele>
    <time>2026-06-23T01:16:05Z</time>
   </trkpt>
   <trkpt lat="-3.0844750" lon="37.3685540">
    <ele>5301.8</ele>
    <time>2026-06-23T01:16:06Z</time>
   </trkpt>
   <trkpt lat="-3.0844730" lon="37.3685550">
    <ele>5301.9</ele>
    <time>2026-06-23T01:16:07Z</time>
   </trkpt>
   <trkpt lat="-3.0844710" lon="37.3685530">
    <ele>5301.9</ele>
    <time>2026-06-23T01:16:08Z</time>
   </trkpt>
   <trkpt lat="-3.0844690" lon="37.3685530">
    <ele>5302.0</ele>
    <time>2026-06-23T01:16:09Z</time>
   </trkpt>
   <trkpt lat="-3.0844680" lon="37.3685490">
    <ele>5302.1</ele>
    <time>2026-06-23T01:16:10Z</time>
   </trkpt>
   <trkpt lat="-3.0844660" lon="37.3685480">
    <ele>5302.1</ele>
    <time>2026-06-23T01:16:11Z</time>
   </trkpt>
   <trkpt lat="-3.0844640" lon="37.3685470">
    <ele>5302.2</ele>
    <time>2026-06-23T01:16:12Z</time>
   </trkpt>
   <trkpt lat="-3.0844600" lon="37.3685470">
    <ele>5302.3</ele>
    <time>2026-06-23T01:16:13Z</time>
   </trkpt>
   <trkpt lat="-3.0844590" lon="37.3685470">
    <ele>5302.3</ele>
    <time>2026-06-23T01:16:14Z</time>
   </trkpt>
   <trkpt lat="-3.0844560" lon="37.3685480">
    <ele>5302.4</ele>
    <time>2026-06-23T01:16:15Z</time>
   </trkpt>
   <trkpt lat="-3.0844560" lon="37.3685480">
    <ele>5302.4</ele>
    <time>2026-06-23T01:16:16Z</time>
   </trkpt>
   <trkpt lat="-3.0844560" lon="37.3685490">
    <ele>5302.4</ele>
    <time>2026-06-23T01:16:17Z</time>
   </trkpt>
   <trkpt lat="-3.0844540" lon="37.3685500">
    <ele>5302.4</ele>
    <time>2026-06-23T01:16:18Z</time>
   </trkpt>
   <trkpt lat="-3.0844530" lon="37.3685500">
    <ele>5302.5</ele>
    <time>2026-06-23T01:16:19Z</time>
   </trkpt>
   <trkpt lat="-3.0844520" lon="37.3685520">
    <ele>5302.5</ele>
    <time>2026-06-23T01:16:20Z</time>
   </trkpt>
   <trkpt lat="-3.0844510" lon="37.3685520">
    <ele>5302.5</ele>
    <time>2026-06-23T01:16:21Z</time>
   </trkpt>
   <trkpt lat="-3.0844500" lon="37.3685520">
    <ele>5302.6</ele>
    <time>2026-06-23T01:16:22Z</time>
   </trkpt>
   <trkpt lat="-3.0844490" lon="37.3685530">
    <ele>5302.6</ele>
    <time>2026-06-23T01:16:23Z</time>
   </trkpt>
   <trkpt lat="-3.0844480" lon="37.3685530">
    <ele>5302.6</ele>
    <time>2026-06-23T01:16:24Z</time>
   </trkpt>
   <trkpt lat="-3.0844480" lon="37.3685540">
    <ele>5302.6</ele>
    <time>2026-06-23T01:16:25Z</time>
   </trkpt>
   <trkpt lat="-3.0844480" lon="37.3685540">
    <ele>5302.6</ele>
    <time>2026-06-23T01:16:26Z</time>
   </trkpt>
   <trkpt lat="-3.0844480" lon="37.3685530">
    <ele>5302.7</ele>
    <time>2026-06-23T01:16:27Z</time>
   </trkpt>
   <trkpt lat="-3.0844480" lon="37.3685530">
    <ele>5302.7</ele>
    <time>2026-06-23T01:16:28Z</time>
   </trkpt>
   <trkpt lat="-3.0844440" lon="37.3685530">
    <ele>5302.8</ele>
    <time>2026-06-23T01:16:29Z</time>
   </trkpt>
   <trkpt lat="-3.0844400" lon="37.3685530">
    <ele>5302.9</ele>
    <time>2026-06-23T01:16:30Z</time>
   </trkpt>
   <trkpt lat="-3.0844380" lon="37.3685500">
    <ele>5302.9</ele>
    <time>2026-06-23T01:16:31Z</time>
   </trkpt>
   <trkpt lat="-3.0844360" lon="37.3685500">
    <ele>5303.0</ele>
    <time>2026-06-23T01:16:32Z</time>
   </trkpt>
   <trkpt lat="-3.0844350" lon="37.3685470">
    <ele>5303.1</ele>
    <time>2026-06-23T01:16:33Z</time>
   </trkpt>
   <trkpt lat="-3.0844340" lon="37.3685470">
    <ele>5303.1</ele>
    <time>2026-06-23T01:16:34Z</time>
   </trkpt>
   <trkpt lat="-3.0844340" lon="37.3685470">
    <ele>5303.1</ele>
    <time>2026-06-23T01:16:35Z</time>
   </trkpt>
   <trkpt lat="-3.0844340" lon="37.3685460">
    <ele>5303.1</ele>
    <time>2026-06-23T01:16:36Z</time>
   </trkpt>
   <trkpt lat="-3.0844340" lon="37.3685460">
    <ele>5303.1</ele>
    <time>2026-06-23T01:16:37Z</time>
   </trkpt>
   <trkpt lat="-3.0844350" lon="37.3685440">
    <ele>5303.2</ele>
    <time>2026-06-23T01:16:38Z</time>
   </trkpt>
   <trkpt lat="-3.0844350" lon="37.3685430">
    <ele>5303.2</ele>
    <time>2026-06-23T01:16:39Z</time>
   </trkpt>
   <trkpt lat="-3.0844350" lon="37.3685410">
    <ele>5303.2</ele>
    <time>2026-06-23T01:16:40Z</time>
   </trkpt>
   <trkpt lat="-3.0844340" lon="37.3685400">
    <ele>5303.3</ele>
    <time>2026-06-23T01:16:41Z</time>
   </trkpt>
   <trkpt lat="-3.0844350" lon="37.3685360">
    <ele>5303.4</ele>
    <time>2026-06-23T01:16:42Z</time>
   </trkpt>
   <trkpt lat="-3.0844350" lon="37.3685350">
    <ele>5303.4</ele>
    <time>2026-06-23T01:16:43Z</time>
   </trkpt>
   <trkpt lat="-3.0844360" lon="37.3685330">
    <ele>5303.4</ele>
    <time>2026-06-23T01:16:44Z</time>
   </trkpt>
   <trkpt lat="-3.0844360" lon="37.3685320">
    <ele>5303.5</ele>
    <time>2026-06-23T01:16:45Z</time>
   </trkpt>
   <trkpt lat="-3.0844380" lon="37.3685300">
    <ele>5303.5</ele>
    <time>2026-06-23T01:16:46Z</time>
   </trkpt>
   <trkpt lat="-3.0844380" lon="37.3685290">
    <ele>5303.5</ele>
    <time>2026-06-23T01:16:47Z</time>
   </trkpt>
   <trkpt lat="-3.0844380" lon="37.3685290">
    <ele>5303.5</ele>
    <time>2026-06-23T01:16:48Z</time>
   </trkpt>
   <trkpt lat="-3.0844380" lon="37.3685290">
    <ele>5303.5</ele>
    <time>2026-06-23T01:16:49Z</time>
   </trkpt>
   <trkpt lat="-3.0844400" lon="37.3685270">
    <ele>5303.6</ele>
    <time>2026-06-23T01:16:50Z</time>
   </trkpt>
   <trkpt lat="-3.0844420" lon="37.3685260">
    <ele>5303.7</ele>
    <time>2026-06-23T01:16:51Z</time>
   </trkpt>
   <trkpt lat="-3.0844430" lon="37.3685230">
    <ele>5303.7</ele>
    <time>2026-06-23T01:16:52Z</time>
   </trkpt>
   <trkpt lat="-3.0844430" lon="37.3685210">
    <ele>5303.8</ele>
    <time>2026-06-23T01:16:53Z</time>
   </trkpt>
   <trkpt lat="-3.0844410" lon="37.3685180">
    <ele>5303.9</ele>
    <time>2026-06-23T01:16:54Z</time>
   </trkpt>
   <trkpt lat="-3.0844410" lon="37.3685180">
    <ele>5303.9</ele>
    <time>2026-06-23T01:16:55Z</time>
   </trkpt>
   <trkpt lat="-3.0844410" lon="37.3685160">
    <ele>5303.9</ele>
    <time>2026-06-23T01:16:56Z</time>
   </trkpt>
   <trkpt lat="-3.0844400" lon="37.3685150">
    <ele>5304.0</ele>
    <time>2026-06-23T01:16:57Z</time>
   </trkpt>
   <trkpt lat="-3.0844400" lon="37.3685140">
    <ele>5304.0</ele>
    <time>2026-06-23T01:16:58Z</time>
   </trkpt>
   <trkpt lat="-3.0844420" lon="37.3685110">
    <ele>5304.1</ele>
    <time>2026-06-23T01:16:59Z</time>
   </trkpt>
   <trkpt lat="-3.0844430" lon="37.3685080">
    <ele>5304.1</ele>
    <time>2026-06-23T01:17:00Z</time>
   </trkpt>
   <trkpt lat="-3.0844430" lon="37.3685050">
    <ele>5304.2</ele>
    <time>2026-06-23T01:17:01Z</time>
   </trkpt>
   <trkpt lat="-3.0844440" lon="37.3685040">
    <ele>5304.2</ele>
    <time>2026-06-23T01:17:02Z</time>
   </trkpt>
   <trkpt lat="-3.0844440" lon="37.3685000">
    <ele>5304.3</ele>
    <time>2026-06-23T01:17:03Z</time>
   </trkpt>
   <trkpt lat="-3.0844460" lon="37.3684990">
    <ele>5304.4</ele>
    <time>2026-06-23T01:17:04Z</time>
   </trkpt>
   <trkpt lat="-3.0844450" lon="37.3684980">
    <ele>5304.4</ele>
    <time>2026-06-23T01:17:05Z</time>
   </trkpt>
   <trkpt lat="-3.0844470" lon="37.3684960">
    <ele>5304.5</ele>
    <time>2026-06-23T01:17:06Z</time>
   </trkpt>
   <trkpt lat="-3.0844470" lon="37.3684950">
    <ele>5304.5</ele>
    <time>2026-06-23T01:17:07Z</time>
   </trkpt>
   <trkpt lat="-3.0844480" lon="37.3684920">
    <ele>5304.6</ele>
    <time>2026-06-23T01:17:08Z</time>
   </trkpt>
   <trkpt lat="-3.0844490" lon="37.3684910">
    <ele>5304.6</ele>
    <time>2026-06-23T01:17:09Z</time>
   </trkpt>
   <trkpt lat="-3.0844480" lon="37.3684890">
    <ele>5304.7</ele>
    <time>2026-06-23T01:17:10Z</time>
   </trkpt>
   <trkpt lat="-3.0844480" lon="37.3684870">
    <ele>5304.7</ele>
    <time>2026-06-23T01:17:11Z</time>
   </trkpt>
   <trkpt lat="-3.0844490" lon="37.3684850">
    <ele>5304.8</ele>
    <time>2026-06-23T01:17:12Z</time>
   </trkpt>
   <trkpt lat="-3.0844480" lon="37.3684850">
    <ele>5304.8</ele>
    <time>2026-06-23T01:17:13Z</time>
   </trkpt>
   <trkpt lat="-3.0844470" lon="37.3684820">
    <ele>5304.9</ele>
    <time>2026-06-23T01:17:14Z</time>
   </trkpt>
   <trkpt lat="-3.0844470" lon="37.3684800">
    <ele>5304.9</ele>
    <time>2026-06-23T01:17:15Z</time>
   </trkpt>
   <trkpt lat="-3.0844460" lon="37.3684800">
    <ele>5304.9</ele>
    <time>2026-06-23T01:17:16Z</time>
   </trkpt>
   <trkpt lat="-3.0844440" lon="37.3684790">
    <ele>5305.0</ele>
    <time>2026-06-23T01:17:17Z</time>
   </trkpt>
   <trkpt lat="-3.0844450" lon="37.3684800">
    <ele>5305.0</ele>
    <time>2026-06-23T01:17:18Z</time>
   </trkpt>
   <trkpt lat="-3.0844440" lon="37.3684780">
    <ele>5305.1</ele>
    <time>2026-06-23T01:17:19Z</time>
   </trkpt>
   <trkpt lat="-3.0844440" lon="37.3684780">
    <ele>5305.1</ele>
    <time>2026-06-23T01:17:20Z</time>
   </trkpt>
   <trkpt lat="-3.0844440" lon="37.3684790">
    <ele>5305.1</ele>
    <time>2026-06-23T01:17:21Z</time>
   </trkpt>
   <trkpt lat="-3.0844430" lon="37.3684780">
    <ele>5305.1</ele>
    <time>2026-06-23T01:17:22Z</time>
   </trkpt>
   <trkpt lat="-3.0844430" lon="37.3684780">
    <ele>5305.1</ele>
    <time>2026-06-23T01:17:23Z</time>
   </trkpt>
   <trkpt lat="-3.0844430" lon="37.3684780">
    <ele>5305.1</ele>
    <time>2026-06-23T01:17:24Z</time>
   </trkpt>
   <trkpt lat="-3.0844430" lon="37.3684790">
    <ele>5305.1</ele>
    <time>2026-06-23T01:17:25Z</time>
   </trkpt>
   <trkpt lat="-3.0844430" lon="37.3684790">
    <ele>5305.1</ele>
    <time>2026-06-23T01:17:26Z</time>
   </trkpt>
   <trkpt lat="-3.0844430" lon="37.3684790">
    <ele>5305.1</ele>
    <time>2026-06-23T01:17:27Z</time>
   </trkpt>
   <trkpt lat="-3.0844430" lon="37.3684790">
    <ele>5305.1</ele>
    <time>2026-06-23T01:17:28Z</time>
   </trkpt>
   <trkpt lat="-3.0844430" lon="37.3684790">
    <ele>5305.1</ele>
    <time>2026-06-23T01:17:29Z</time>
   </trkpt>
   <trkpt lat="-3.0844430" lon="37.3684790">
    <ele>5305.1</ele>
    <time>2026-06-23T01:17:30Z</time>
   </trkpt>
   <trkpt lat="-3.0844430" lon="37.3684780">
    <ele>5305.2</ele>
    <time>2026-06-23T01:17:31Z</time>
   </trkpt>
   <trkpt lat="-3.0844420" lon="37.3684800">
    <ele>5305.2</ele>
    <time>2026-06-23T01:17:32Z</time>
   </trkpt>
   <trkpt lat="-3.0844430" lon="37.3684790">
    <ele>5305.3</ele>
    <time>2026-06-23T01:17:33Z</time>
   </trkpt>
   <trkpt lat="-3.0844420" lon="37.3684790">
    <ele>5305.3</ele>
    <time>2026-06-23T01:17:34Z</time>
   </trkpt>
   <trkpt lat="-3.0844420" lon="37.3684780">
    <ele>5305.3</ele>
    <time>2026-06-23T01:17:35Z</time>
   </trkpt>
   <trkpt lat="-3.0844410" lon="37.3684780">
    <ele>5305.3</ele>
    <time>2026-06-23T01:17:36Z</time>
   </trkpt>
   <trkpt lat="-3.0844410" lon="37.3684780">
    <ele>5305.3</ele>
    <time>2026-06-23T01:17:38Z</time>
   </trkpt>
   <trkpt lat="-3.0844420" lon="37.3684780">
    <ele>5305.3</ele>
    <time>2026-06-23T01:17:39Z</time>
   </trkpt>
   <trkpt lat="-3.0844420" lon="37.3684780">
    <ele>5305.3</ele>
    <time>2026-06-23T01:17:40Z</time>
   </trkpt>
   <trkpt lat="-3.0844420" lon="37.3684780">
    <ele>5305.3</ele>
    <time>2026-06-23T01:17:41Z</time>
   </trkpt>
   <trkpt lat="-3.0844420" lon="37.3684770">
    <ele>5305.4</ele>
    <time>2026-06-23T01:17:42Z</time>
   </trkpt>
   <trkpt lat="-3.0844410" lon="37.3684770">
    <ele>5305.4</ele>
    <time>2026-06-23T01:17:43Z</time>
   </trkpt>
   <trkpt lat="-3.0844410" lon="37.3684770">
    <ele>5305.4</ele>
    <time>2026-06-23T01:17:44Z</time>
   </trkpt>
   <trkpt lat="-3.0844410" lon="37.3684770">
    <ele>5305.4</ele>
    <time>2026-06-23T01:17:45Z</time>
   </trkpt>
   <trkpt lat="-3.0844410" lon="37.3684770">
    <ele>5305.4</ele>
    <time>2026-06-23T01:17:46Z</time>
   </trkpt>
   <trkpt lat="-3.0844410" lon="37.3684770">
    <ele>5305.4</ele>
    <time>2026-06-23T01:17:47Z</time>
   </trkpt>
   <trkpt lat="-3.0844410" lon="37.3684770">
    <ele>5305.4</ele>
    <time>2026-06-23T01:17:48Z</time>
   </trkpt>
   <trkpt lat="-3.0844410" lon="37.3684770">
    <ele>5305.4</ele>
    <time>2026-06-23T01:17:49Z</time>
   </trkpt>
   <trkpt lat="-3.0844410" lon="37.3684770">
    <ele>5305.4</ele>
    <time>2026-06-23T01:17:50Z</time>
   </trkpt>
   <trkpt lat="-3.0844410" lon="37.3684770">
    <ele>5305.4</ele>
    <time>2026-06-23T01:17:51Z</time>
   </trkpt>
   <trkpt lat="-3.0844410" lon="37.3684770">
    <ele>5305.4</ele>
    <time>2026-06-23T01:17:52Z</time>
   </trkpt>
   <trkpt lat="-3.0844400" lon="37.3684770">
    <ele>5305.4</ele>
    <time>2026-06-23T01:17:53Z</time>
   </trkpt>
   <trkpt lat="-3.0844400" lon="37.3684770">
    <ele>5305.4</ele>
    <time>2026-06-23T01:17:54Z</time>
   </trkpt>
   <trkpt lat="-3.0844400" lon="37.3684770">
    <ele>5305.4</ele>
    <time>2026-06-23T01:17:55Z</time>
   </trkpt>
   <trkpt lat="-3.0844400" lon="37.3684770">
    <ele>5305.4</ele>
    <time>2026-06-23T01:17:56Z</time>
   </trkpt>
   <trkpt lat="-3.0844400" lon="37.3684770">
    <ele>5305.4</ele>
    <time>2026-06-23T01:17:57Z</time>
   </trkpt>
   <trkpt lat="-3.0844400" lon="37.3684770">
    <ele>5305.4</ele>
    <time>2026-06-23T01:17:58Z</time>
   </trkpt>
   <trkpt lat="-3.0844400" lon="37.3684770">
    <ele>5305.4</ele>
    <time>2026-06-23T01:17:59Z</time>
   </trkpt>
   <trkpt lat="-3.0844390" lon="37.3684770">
    <ele>5305.4</ele>
    <time>2026-06-23T01:18:00Z</time>
   </trkpt>
   <trkpt lat="-3.0844390" lon="37.3684770">
    <ele>5305.4</ele>
    <time>2026-06-23T01:18:01Z</time>
   </trkpt>
   <trkpt lat="-3.0844390" lon="37.3684770">
    <ele>5305.4</ele>
    <time>2026-06-23T01:18:02Z</time>
   </trkpt>
   <trkpt lat="-3.0844390" lon="37.3684770">
    <ele>5305.4</ele>
    <time>2026-06-23T01:18:03Z</time>
   </trkpt>
   <trkpt lat="-3.0844390" lon="37.3684770">
    <ele>5305.4</ele>
    <time>2026-06-23T01:18:04Z</time>
   </trkpt>
   <trkpt lat="-3.0844390" lon="37.3684770">
    <ele>5305.4</ele>
    <time>2026-06-23T01:18:05Z</time>
   </trkpt>
   <trkpt lat="-3.0844380" lon="37.3684770">
    <ele>5305.5</ele>
    <time>2026-06-23T01:18:06Z</time>
   </trkpt>
   <trkpt lat="-3.0844390" lon="37.3684770">
    <ele>5305.5</ele>
    <time>2026-06-23T01:18:07Z</time>
   </trkpt>
   <trkpt lat="-3.0844380" lon="37.3684770">
    <ele>5305.5</ele>
    <time>2026-06-23T01:18:08Z</time>
   </trkpt>
   <trkpt lat="-3.0844390" lon="37.3684770">
    <ele>5305.5</ele>
    <time>2026-06-23T01:18:09Z</time>
   </trkpt>
   <trkpt lat="-3.0844390" lon="37.3684770">
    <ele>5305.5</ele>
    <time>2026-06-23T01:18:10Z</time>
   </trkpt>
   <trkpt lat="-3.0844390" lon="37.3684770">
    <ele>5305.5</ele>
    <time>2026-06-23T01:18:11Z</time>
   </trkpt>
   <trkpt lat="-3.0844390" lon="37.3684770">
    <ele>5305.5</ele>
    <time>2026-06-23T01:18:12Z</time>
   </trkpt>
   <trkpt lat="-3.0844400" lon="37.3684770">
    <ele>5305.6</ele>
    <time>2026-06-23T01:18:13Z</time>
   </trkpt>
   <trkpt lat="-3.0844390" lon="37.3684770">
    <ele>5305.6</ele>
    <time>2026-06-23T01:18:14Z</time>
   </trkpt>
   <trkpt lat="-3.0844390" lon="37.3684770">
    <ele>5305.6</ele>
    <time>2026-06-23T01:18:15Z</time>
   </trkpt>
   <trkpt lat="-3.0844400" lon="37.3684770">
    <ele>5305.6</ele>
    <time>2026-06-23T01:18:16Z</time>
   </trkpt>
   <trkpt lat="-3.0844400" lon="37.3684770">
    <ele>5305.6</ele>
    <time>2026-06-23T01:18:17Z</time>
   </trkpt>
   <trkpt lat="-3.0844390" lon="37.3684770">
    <ele>5305.6</ele>
    <time>2026-06-23T01:18:18Z</time>
   </trkpt>
   <trkpt lat="-3.0844410" lon="37.3684770">
    <ele>5305.7</ele>
    <time>2026-06-23T01:18:19Z</time>
   </trkpt>
   <trkpt lat="-3.0844410" lon="37.3684770">
    <ele>5305.7</ele>
    <time>2026-06-23T01:18:20Z</time>
   </trkpt>
   <trkpt lat="-3.0844400" lon="37.3684780">
    <ele>5305.7</ele>
    <time>2026-06-23T01:18:21Z</time>
   </trkpt>
   <trkpt lat="-3.0844400" lon="37.3684780">
    <ele>5305.7</ele>
    <time>2026-06-23T01:18:22Z</time>
   </trkpt>
   <trkpt lat="-3.0844410" lon="37.3684770">
    <ele>5305.7</ele>
    <time>2026-06-23T01:18:23Z</time>
   </trkpt>
   <trkpt lat="-3.0844410" lon="37.3684770">
    <ele>5305.7</ele>
    <time>2026-06-23T01:18:24Z</time>
   </trkpt>
   <trkpt lat="-3.0844420" lon="37.3684770">
    <ele>5305.8</ele>
    <time>2026-06-23T01:18:25Z</time>
   </trkpt>
   <trkpt lat="-3.0844420" lon="37.3684770">
    <ele>5305.8</ele>
    <time>2026-06-23T01:18:26Z</time>
   </trkpt>
   <trkpt lat="-3.0844430" lon="37.3684770">
    <ele>5305.8</ele>
    <time>2026-06-23T01:18:27Z</time>
   </trkpt>
   <trkpt lat="-3.0844440" lon="37.3684770">
    <ele>5305.8</ele>
    <time>2026-06-23T01:18:28Z</time>
   </trkpt>
   <trkpt lat="-3.0844430" lon="37.3684770">
    <ele>5305.8</ele>
    <time>2026-06-23T01:18:29Z</time>
   </trkpt>
   <trkpt lat="-3.0844430" lon="37.3684760">
    <ele>5305.9</ele>
    <time>2026-06-23T01:18:30Z</time>
   </trkpt>
   <trkpt lat="-3.0844440" lon="37.3684760">
    <ele>5305.9</ele>
    <time>2026-06-23T01:18:31Z</time>
   </trkpt>
   <trkpt lat="-3.0844440" lon="37.3684760">
    <ele>5305.9</ele>
    <time>2026-06-23T01:18:32Z</time>
   </trkpt>
   <trkpt lat="-3.0844450" lon="37.3684760">
    <ele>5305.9</ele>
    <time>2026-06-23T01:18:33Z</time>
   </trkpt>
   <trkpt lat="-3.0844450" lon="37.3684760">
    <ele>5305.9</ele>
    <time>2026-06-23T01:18:34Z</time>
   </trkpt>
   <trkpt lat="-3.0844450" lon="37.3684760">
    <ele>5305.9</ele>
    <time>2026-06-23T01:18:35Z</time>
   </trkpt>
   <trkpt lat="-3.0844450" lon="37.3684770">
    <ele>5305.9</ele>
    <time>2026-06-23T01:18:36Z</time>
   </trkpt>
   <trkpt lat="-3.0844450" lon="37.3684760">
    <ele>5306.0</ele>
    <time>2026-06-23T01:18:37Z</time>
   </trkpt>
   <trkpt lat="-3.0844460" lon="37.3684760">
    <ele>5306.0</ele>
    <time>2026-06-23T01:18:38Z</time>
   </trkpt>
   <trkpt lat="-3.0844460" lon="37.3684760">
    <ele>5306.0</ele>
    <time>2026-06-23T01:18:39Z</time>
   </trkpt>
   <trkpt lat="-3.0844460" lon="37.3684760">
    <ele>5306.0</ele>
    <time>2026-06-23T01:18:40Z</time>
   </trkpt>
   <trkpt lat="-3.0844460" lon="37.3684760">
    <ele>5306.0</ele>
    <time>2026-06-23T01:18:41Z</time>
   </trkpt>
   <trkpt lat="-3.0844450" lon="37.3684780">
    <ele>5306.0</ele>
    <time>2026-06-23T01:18:42Z</time>
   </trkpt>
   <trkpt lat="-3.0844460" lon="37.3684790">
    <ele>5306.1</ele>
    <time>2026-06-23T01:18:43Z</time>
   </trkpt>
   <trkpt lat="-3.0844460" lon="37.3684790">
    <ele>5306.1</ele>
    <time>2026-06-23T01:18:44Z</time>
   </trkpt>
   <trkpt lat="-3.0844460" lon="37.3684800">
    <ele>5306.1</ele>
    <time>2026-06-23T01:18:45Z</time>
   </trkpt>
   <trkpt lat="-3.0844460" lon="37.3684790">
    <ele>5306.1</ele>
    <time>2026-06-23T01:18:46Z</time>
   </trkpt>
   <trkpt lat="-3.0844470" lon="37.3684790">
    <ele>5306.1</ele>
    <time>2026-06-23T01:18:47Z</time>
   </trkpt>
   <trkpt lat="-3.0844470" lon="37.3684790">
    <ele>5306.1</ele>
    <time>2026-06-23T01:18:48Z</time>
   </trkpt>
   <trkpt lat="-3.0844440" lon="37.3684790">
    <ele>5306.2</ele>
    <time>2026-06-23T01:18:49Z</time>
   </trkpt>
   <trkpt lat="-3.0844440" lon="37.3684790">
    <ele>5306.2</ele>
    <time>2026-06-23T01:18:50Z</time>
   </trkpt>
   <trkpt lat="-3.0844430" lon="37.3684780">
    <ele>5306.2</ele>
    <time>2026-06-23T01:18:51Z</time>
   </trkpt>
   <trkpt lat="-3.0844440" lon="37.3684780">
    <ele>5306.3</ele>
    <time>2026-06-23T01:18:52Z</time>
   </trkpt>
   <trkpt lat="-3.0844430" lon="37.3684790">
    <ele>5306.3</ele>
    <time>2026-06-23T01:18:53Z</time>
   </trkpt>
   <trkpt lat="-3.0844430" lon="37.3684800">
    <ele>5306.3</ele>
    <time>2026-06-23T01:18:54Z</time>
   </trkpt>
   <trkpt lat="-3.0844430" lon="37.3684800">
    <ele>5306.3</ele>
    <time>2026-06-23T01:18:55Z</time>
   </trkpt>
   <trkpt lat="-3.0844420" lon="37.3684800">
    <ele>5306.3</ele>
    <time>2026-06-23T01:18:56Z</time>
   </trkpt>
   <trkpt lat="-3.0844410" lon="37.3684800">
    <ele>5306.4</ele>
    <time>2026-06-23T01:18:57Z</time>
   </trkpt>
   <trkpt lat="-3.0844410" lon="37.3684790">
    <ele>5306.4</ele>
    <time>2026-06-23T01:18:58Z</time>
   </trkpt>
   <trkpt lat="-3.0844420" lon="37.3684800">
    <ele>5306.4</ele>
    <time>2026-06-23T01:18:59Z</time>
   </trkpt>
   <trkpt lat="-3.0844420" lon="37.3684790">
    <ele>5306.4</ele>
    <time>2026-06-23T01:19:00Z</time>
   </trkpt>
   <trkpt lat="-3.0844420" lon="37.3684790">
    <ele>5306.4</ele>
    <time>2026-06-23T01:19:01Z</time>
   </trkpt>
   <trkpt lat="-3.0844430" lon="37.3684790">
    <ele>5306.5</ele>
    <time>2026-06-23T01:19:02Z</time>
   </trkpt>
   <trkpt lat="-3.0844420" lon="37.3684790">
    <ele>5306.5</ele>
    <time>2026-06-23T01:19:03Z</time>
   </trkpt>
   <trkpt lat="-3.0844420" lon="37.3684790">
    <ele>5306.5</ele>
    <time>2026-06-23T01:19:04Z</time>
   </trkpt>
   <trkpt lat="-3.0844420" lon="37.3684790">
    <ele>5306.5</ele>
    <time>2026-06-23T01:19:05Z</time>
   </trkpt>
   <trkpt lat="-3.0844420" lon="37.3684790">
    <ele>5306.5</ele>
    <time>2026-06-23T01:19:06Z</time>
   </trkpt>
   <trkpt lat="-3.0844400" lon="37.3684800">
    <ele>5306.5</ele>
    <time>2026-06-23T01:19:07Z</time>
   </trkpt>
   <trkpt lat="-3.0844390" lon="37.3684830">
    <ele>5306.6</ele>
    <time>2026-06-23T01:19:08Z</time>
   </trkpt>
   <trkpt lat="-3.0844340" lon="37.3684840">
    <ele>5306.7</ele>
    <time>2026-06-23T01:19:09Z</time>
   </trkpt>
   <trkpt lat="-3.0844320" lon="37.3684850">
    <ele>5306.8</ele>
    <time>2026-06-23T01:19:10Z</time>
   </trkpt>
   <trkpt lat="-3.0844280" lon="37.3684850">
    <ele>5306.9</ele>
    <time>2026-06-23T01:19:11Z</time>
   </trkpt>
   <trkpt lat="-3.0844230" lon="37.3684860">
    <ele>5307.0</ele>
    <time>2026-06-23T01:19:12Z</time>
   </trkpt>
   <trkpt lat="-3.0844230" lon="37.3684860">
    <ele>5307.0</ele>
    <time>2026-06-23T01:19:13Z</time>
   </trkpt>
   <trkpt lat="-3.0844220" lon="37.3684870">
    <ele>5307.0</ele>
    <time>2026-06-23T01:19:14Z</time>
   </trkpt>
   <trkpt lat="-3.0844240" lon="37.3684870">
    <ele>5307.1</ele>
    <time>2026-06-23T01:19:15Z</time>
   </trkpt>
   <trkpt lat="-3.0844230" lon="37.3684880">
    <ele>5307.1</ele>
    <time>2026-06-23T01:19:16Z</time>
   </trkpt>
   <trkpt lat="-3.0844230" lon="37.3684880">
    <ele>5307.1</ele>
    <time>2026-06-23T01:19:17Z</time>
   </trkpt>
   <trkpt lat="-3.0844240" lon="37.3684880">
    <ele>5307.1</ele>
    <time>2026-06-23T01:19:18Z</time>
   </trkpt>
   <trkpt lat="-3.0844250" lon="37.3684890">
    <ele>5307.2</ele>
    <time>2026-06-23T01:19:19Z</time>
   </trkpt>
   <trkpt lat="-3.0844240" lon="37.3684890">
    <ele>5307.2</ele>
    <time>2026-06-23T01:19:20Z</time>
   </trkpt>
   <trkpt lat="-3.0844250" lon="37.3684890">
    <ele>5307.2</ele>
    <time>2026-06-23T01:19:21Z</time>
   </trkpt>
   <trkpt lat="-3.0844260" lon="37.3684890">
    <ele>5307.2</ele>
    <time>2026-06-23T01:19:22Z</time>
   </trkpt>
   <trkpt lat="-3.0844240" lon="37.3684900">
    <ele>5307.3</ele>
    <time>2026-06-23T01:19:23Z</time>
   </trkpt>
   <trkpt lat="-3.0844240" lon="37.3684900">
    <ele>5307.3</ele>
    <time>2026-06-23T01:19:24Z</time>
   </trkpt>
   <trkpt lat="-3.0844240" lon="37.3684890">
    <ele>5307.3</ele>
    <time>2026-06-23T01:19:25Z</time>
   </trkpt>
   <trkpt lat="-3.0844240" lon="37.3684900">
    <ele>5307.3</ele>
    <time>2026-06-23T01:19:26Z</time>
   </trkpt>
   <trkpt lat="-3.0844260" lon="37.3684890">
    <ele>5307.4</ele>
    <time>2026-06-23T01:19:27Z</time>
   </trkpt>
   <trkpt lat="-3.0844260" lon="37.3684900">
    <ele>5307.4</ele>
    <time>2026-06-23T01:19:28Z</time>
   </trkpt>
   <trkpt lat="-3.0844250" lon="37.3684890">
    <ele>5307.4</ele>
    <time>2026-06-23T01:19:29Z</time>
   </trkpt>
   <trkpt lat="-3.0844260" lon="37.3684890">
    <ele>5307.5</ele>
    <time>2026-06-23T01:19:30Z</time>
   </trkpt>
   <trkpt lat="-3.0844260" lon="37.3684890">
    <ele>5307.5</ele>
    <time>2026-06-23T01:19:31Z</time>
   </trkpt>
   <trkpt lat="-3.0844260" lon="37.3684890">
    <ele>5307.5</ele>
    <time>2026-06-23T01:19:32Z</time>
   </trkpt>
   <trkpt lat="-3.0844260" lon="37.3684890">
    <ele>5307.5</ele>
    <time>2026-06-23T01:19:33Z</time>
   </trkpt>
   <trkpt lat="-3.0844260" lon="37.3684890">
    <ele>5307.5</ele>
    <time>2026-06-23T01:19:34Z</time>
   </trkpt>
   <trkpt lat="-3.0844260" lon="37.3684890">
    <ele>5307.5</ele>
    <time>2026-06-23T01:19:35Z</time>
   </trkpt>
   <trkpt lat="-3.0844260" lon="37.3684890">
    <ele>5307.5</ele>
    <time>2026-06-23T01:19:36Z</time>
   </trkpt>
   <trkpt lat="-3.0844250" lon="37.3684880">
    <ele>5307.5</ele>
    <time>2026-06-23T01:19:37Z</time>
   </trkpt>
   <trkpt lat="-3.0844240" lon="37.3684880">
    <ele>5307.5</ele>
    <time>2026-06-23T01:19:38Z</time>
   </trkpt>
   <trkpt lat="-3.0844240" lon="37.3684880">
    <ele>5307.5</ele>
    <time>2026-06-23T01:19:39Z</time>
   </trkpt>
   <trkpt lat="-3.0844240" lon="37.3684880">
    <ele>5307.5</ele>
    <time>2026-06-23T01:19:40Z</time>
   </trkpt>
   <trkpt lat="-3.0844240" lon="37.3684880">
    <ele>5307.5</ele>
    <time>2026-06-23T01:19:41Z</time>
   </trkpt>
   <trkpt lat="-3.0844240" lon="37.3684880">
    <ele>5307.5</ele>
    <time>2026-06-23T01:19:43Z</time>
   </trkpt>
   <trkpt lat="-3.0844240" lon="37.3684880">
    <ele>5307.5</ele>
    <time>2026-06-23T01:19:44Z</time>
   </trkpt>
   <trkpt lat="-3.0844240" lon="37.3684880">
    <ele>5307.5</ele>
    <time>2026-06-23T01:19:45Z</time>
   </trkpt>
   <trkpt lat="-3.0844240" lon="37.3684880">
    <ele>5307.5</ele>
    <time>2026-06-23T01:19:46Z</time>
   </trkpt>
   <trkpt lat="-3.0844240" lon="37.3684880">
    <ele>5307.5</ele>
    <time>2026-06-23T01:19:47Z</time>
   </trkpt>
   <trkpt lat="-3.0844240" lon="37.3684880">
    <ele>5307.5</ele>
    <time>2026-06-23T01:19:48Z</time>
   </trkpt>
   <trkpt lat="-3.0844250" lon="37.3684880">
    <ele>5307.6</ele>
    <time>2026-06-23T01:19:49Z</time>
   </trkpt>
   <trkpt lat="-3.0844250" lon="37.3684880">
    <ele>5307.6</ele>
    <time>2026-06-23T01:19:50Z</time>
   </trkpt>
   <trkpt lat="-3.0844260" lon="37.3684880">
    <ele>5307.6</ele>
    <time>2026-06-23T01:19:51Z</time>
   </trkpt>
   <trkpt lat="-3.0844260" lon="37.3684900">
    <ele>5307.6</ele>
    <time>2026-06-23T01:19:52Z</time>
   </trkpt>
   <trkpt lat="-3.0844260" lon="37.3684890">
    <ele>5307.6</ele>
    <time>2026-06-23T01:19:53Z</time>
   </trkpt>
   <trkpt lat="-3.0844270" lon="37.3684890">
    <ele>5307.7</ele>
    <time>2026-06-23T01:19:54Z</time>
   </trkpt>
   <trkpt lat="-3.0844270" lon="37.3684890">
    <ele>5307.7</ele>
    <time>2026-06-23T01:19:55Z</time>
   </trkpt>
   <trkpt lat="-3.0844280" lon="37.3684900">
    <ele>5307.7</ele>
    <time>2026-06-23T01:19:56Z</time>
   </trkpt>
   <trkpt lat="-3.0844270" lon="37.3684900">
    <ele>5307.7</ele>
    <time>2026-06-23T01:19:57Z</time>
   </trkpt>
   <trkpt lat="-3.0844270" lon="37.3684900">
    <ele>5307.7</ele>
    <time>2026-06-23T01:19:58Z</time>
   </trkpt>
   <trkpt lat="-3.0844270" lon="37.3684900">
    <ele>5307.7</ele>
    <time>2026-06-23T01:19:59Z</time>
   </trkpt>
   <trkpt lat="-3.0844280" lon="37.3684890">
    <ele>5307.8</ele>
    <time>2026-06-23T01:20:00Z</time>
   </trkpt>
   <trkpt lat="-3.0844280" lon="37.3684910">
    <ele>5307.8</ele>
    <time>2026-06-23T01:20:01Z</time>
   </trkpt>
   <trkpt lat="-3.0844270" lon="37.3684900">
    <ele>5307.8</ele>
    <time>2026-06-23T01:20:02Z</time>
   </trkpt>
   <trkpt lat="-3.0844270" lon="37.3684890">
    <ele>5307.9</ele>
    <time>2026-06-23T01:20:03Z</time>
   </trkpt>
   <trkpt lat="-3.0844260" lon="37.3684890">
    <ele>5307.9</ele>
    <time>2026-06-23T01:20:04Z</time>
   </trkpt>
   <trkpt lat="-3.0844250" lon="37.3684910">
    <ele>5307.9</ele>
    <time>2026-06-23T01:20:05Z</time>
   </trkpt>
   <trkpt lat="-3.0844260" lon="37.3684900">
    <ele>5308.0</ele>
    <time>2026-06-23T01:20:06Z</time>
   </trkpt>
   <trkpt lat="-3.0844250" lon="37.3684890">
    <ele>5308.0</ele>
    <time>2026-06-23T01:20:07Z</time>
   </trkpt>
   <trkpt lat="-3.0844250" lon="37.3684890">
    <ele>5308.0</ele>
    <time>2026-06-23T01:20:08Z</time>
   </trkpt>
   <trkpt lat="-3.0844260" lon="37.3684880">
    <ele>5308.0</ele>
    <time>2026-06-23T01:20:09Z</time>
   </trkpt>
   <trkpt lat="-3.0844260" lon="37.3684880">
    <ele>5308.0</ele>
    <time>2026-06-23T01:20:10Z</time>
   </trkpt>
   <trkpt lat="-3.0844260" lon="37.3684890">
    <ele>5308.1</ele>
    <time>2026-06-23T01:20:11Z</time>
   </trkpt>
   <trkpt lat="-3.0844270" lon="37.3684890">
    <ele>5308.1</ele>
    <time>2026-06-23T01:20:12Z</time>
   </trkpt>
   <trkpt lat="-3.0844260" lon="37.3684890">
    <ele>5308.1</ele>
    <time>2026-06-23T01:20:13Z</time>
   </trkpt>
   <trkpt lat="-3.0844260" lon="37.3684910">
    <ele>5308.2</ele>
    <time>2026-06-23T01:20:14Z</time>
   </trkpt>
   <trkpt lat="-3.0844260" lon="37.3684890">
    <ele>5308.2</ele>
    <time>2026-06-23T01:20:15Z</time>
   </trkpt>
   <trkpt lat="-3.0844250" lon="37.3684890">
    <ele>5308.2</ele>
    <time>2026-06-23T01:20:16Z</time>
   </trkpt>
   <trkpt lat="-3.0844200" lon="37.3684860">
    <ele>5308.4</ele>
    <time>2026-06-23T01:20:17Z</time>
   </trkpt>
   <trkpt lat="-3.0844190" lon="37.3684830">
    <ele>5308.4</ele>
    <time>2026-06-23T01:20:18Z</time>
   </trkpt>
   <trkpt lat="-3.0844190" lon="37.3684840">
    <ele>5308.5</ele>
    <time>2026-06-23T01:20:19Z</time>
   </trkpt>
   <trkpt lat="-3.0844200" lon="37.3684840">
    <ele>5308.5</ele>
    <time>2026-06-23T01:20:20Z</time>
   </trkpt>
   <trkpt lat="-3.0844200" lon="37.3684850">
    <ele>5308.5</ele>
    <time>2026-06-23T01:20:21Z</time>
   </trkpt>
   <trkpt lat="-3.0844200" lon="37.3684840">
    <ele>5308.5</ele>
    <time>2026-06-23T01:20:22Z</time>
   </trkpt>
   <trkpt lat="-3.0844220" lon="37.3684830">
    <ele>5308.6</ele>
    <time>2026-06-23T01:20:23Z</time>
   </trkpt>
   <trkpt lat="-3.0844220" lon="37.3684830">
    <ele>5308.6</ele>
    <time>2026-06-23T01:20:24Z</time>
   </trkpt>
   <trkpt lat="-3.0844220" lon="37.3684840">
    <ele>5308.6</ele>
    <time>2026-06-23T01:20:25Z</time>
   </trkpt>
   <trkpt lat="-3.0844210" lon="37.3684840">
    <ele>5308.6</ele>
    <time>2026-06-23T01:20:26Z</time>
   </trkpt>
   <trkpt lat="-3.0844220" lon="37.3684840">
    <ele>5308.7</ele>
    <time>2026-06-23T01:20:27Z</time>
   </trkpt>
   <trkpt lat="-3.0844220" lon="37.3684840">
    <ele>5308.7</ele>
    <time>2026-06-23T01:20:28Z</time>
   </trkpt>
   <trkpt lat="-3.0844220" lon="37.3684850">
    <ele>5308.7</ele>
    <time>2026-06-23T01:20:29Z</time>
   </trkpt>
   <trkpt lat="-3.0844220" lon="37.3684850">
    <ele>5308.7</ele>
    <time>2026-06-23T01:20:30Z</time>
   </trkpt>
   <trkpt lat="-3.0844220" lon="37.3684840">
    <ele>5308.7</ele>
    <time>2026-06-23T01:20:31Z</time>
   </trkpt>
   <trkpt lat="-3.0844230" lon="37.3684850">
    <ele>5308.7</ele>
    <time>2026-06-23T01:20:32Z</time>
   </trkpt>
   <trkpt lat="-3.0844210" lon="37.3684840">
    <ele>5308.8</ele>
    <time>2026-06-23T01:20:33Z</time>
   </trkpt>
   <trkpt lat="-3.0844210" lon="37.3684840">
    <ele>5308.8</ele>
    <time>2026-06-23T01:20:34Z</time>
   </trkpt>
   <trkpt lat="-3.0844220" lon="37.3684820">
    <ele>5308.8</ele>
    <time>2026-06-23T01:20:35Z</time>
   </trkpt>
   <trkpt lat="-3.0844270" lon="37.3684820">
    <ele>5309.0</ele>
    <time>2026-06-23T01:20:36Z</time>
   </trkpt>
   <trkpt lat="-3.0844280" lon="37.3684830">
    <ele>5309.0</ele>
    <time>2026-06-23T01:20:37Z</time>
   </trkpt>
   <trkpt lat="-3.0844310" lon="37.3684850">
    <ele>5309.1</ele>
    <time>2026-06-23T01:20:38Z</time>
   </trkpt>
   <trkpt lat="-3.0844330" lon="37.3684860">
    <ele>5309.1</ele>
    <time>2026-06-23T01:20:39Z</time>
   </trkpt>
   <trkpt lat="-3.0844380" lon="37.3684860">
    <ele>5309.2</ele>
    <time>2026-06-23T01:20:40Z</time>
   </trkpt>
   <trkpt lat="-3.0844420" lon="37.3684840">
    <ele>5309.3</ele>
    <time>2026-06-23T01:20:41Z</time>
   </trkpt>
   <trkpt lat="-3.0844440" lon="37.3684810">
    <ele>5309.4</ele>
    <time>2026-06-23T01:20:42Z</time>
   </trkpt>
   <trkpt lat="-3.0844480" lon="37.3684810">
    <ele>5309.5</ele>
    <time>2026-06-23T01:20:43Z</time>
   </trkpt>
   <trkpt lat="-3.0844500" lon="37.3684770">
    <ele>5309.6</ele>
    <time>2026-06-23T01:20:44Z</time>
   </trkpt>
   <trkpt lat="-3.0844520" lon="37.3684750">
    <ele>5309.7</ele>
    <time>2026-06-23T01:20:45Z</time>
   </trkpt>
   <trkpt lat="-3.0844510" lon="37.3684730">
    <ele>5309.7</ele>
    <time>2026-06-23T01:20:46Z</time>
   </trkpt>
   <trkpt lat="-3.0844520" lon="37.3684730">
    <ele>5309.8</ele>
    <time>2026-06-23T01:20:47Z</time>
   </trkpt>
   <trkpt lat="-3.0844510" lon="37.3684740">
    <ele>5309.8</ele>
    <time>2026-06-23T01:20:48Z</time>
   </trkpt>
   <trkpt lat="-3.0844500" lon="37.3684730">
    <ele>5309.8</ele>
    <time>2026-06-23T01:20:49Z</time>
   </trkpt>
   <trkpt lat="-3.0844500" lon="37.3684730">
    <ele>5309.8</ele>
    <time>2026-06-23T01:20:50Z</time>
   </trkpt>
   <trkpt lat="-3.0844500" lon="37.3684740">
    <ele>5309.9</ele>
    <time>2026-06-23T01:20:51Z</time>
   </trkpt>
   <trkpt lat="-3.0844490" lon="37.3684730">
    <ele>5309.9</ele>
    <time>2026-06-23T01:20:52Z</time>
   </trkpt>
   <trkpt lat="-3.0844490" lon="37.3684740">
    <ele>5309.9</ele>
    <time>2026-06-23T01:20:53Z</time>
   </trkpt>
   <trkpt lat="-3.0844490" lon="37.3684740">
    <ele>5309.9</ele>
    <time>2026-06-23T01:20:54Z</time>
   </trkpt>
   <trkpt lat="-3.0844480" lon="37.3684750">
    <ele>5309.9</ele>
    <time>2026-06-23T01:20:55Z</time>
   </trkpt>
   <trkpt lat="-3.0844490" lon="37.3684750">
    <ele>5310.0</ele>
    <time>2026-06-23T01:20:56Z</time>
   </trkpt>
   <trkpt lat="-3.0844490" lon="37.3684750">
    <ele>5310.0</ele>
    <time>2026-06-23T01:20:57Z</time>
   </trkpt>
   <trkpt lat="-3.0844490" lon="37.3684750">
    <ele>5310.0</ele>
    <time>2026-06-23T01:20:58Z</time>
   </trkpt>
   <trkpt lat="-3.0844490" lon="37.3684750">
    <ele>5310.0</ele>
    <time>2026-06-23T01:20:59Z</time>
   </trkpt>
   <trkpt lat="-3.0844490" lon="37.3684750">
    <ele>5310.0</ele>
    <time>2026-06-23T01:21:00Z</time>
   </trkpt>
   <trkpt lat="-3.0844480" lon="37.3684750">
    <ele>5310.0</ele>
    <time>2026-06-23T01:21:01Z</time>
   </trkpt>
   <trkpt lat="-3.0844480" lon="37.3684750">
    <ele>5310.0</ele>
    <time>2026-06-23T01:21:02Z</time>
   </trkpt>
   <trkpt lat="-3.0844480" lon="37.3684750">
    <ele>5310.0</ele>
    <time>2026-06-23T01:21:03Z</time>
   </trkpt>
   <trkpt lat="-3.0844480" lon="37.3684750">
    <ele>5310.0</ele>
    <time>2026-06-23T01:21:04Z</time>
   </trkpt>
   <trkpt lat="-3.0844480" lon="37.3684750">
    <ele>5310.0</ele>
    <time>2026-06-23T01:21:05Z</time>
   </trkpt>
   <trkpt lat="-3.0844480" lon="37.3684760">
    <ele>5310.0</ele>
    <time>2026-06-23T01:21:06Z</time>
   </trkpt>
   <trkpt lat="-3.0844490" lon="37.3684750">
    <ele>5310.0</ele>
    <time>2026-06-23T01:21:07Z</time>
   </trkpt>
   <trkpt lat="-3.0844490" lon="37.3684750">
    <ele>5310.0</ele>
    <time>2026-06-23T01:21:08Z</time>
   </trkpt>
   <trkpt lat="-3.0844490" lon="37.3684750">
    <ele>5310.0</ele>
    <time>2026-06-23T01:21:09Z</time>
   </trkpt>
   <trkpt lat="-3.0844490" lon="37.3684750">
    <ele>5310.0</ele>
    <time>2026-06-23T01:21:10Z</time>
   </trkpt>
   <trkpt lat="-3.0844490" lon="37.3684750">
    <ele>5310.0</ele>
    <time>2026-06-23T01:21:11Z</time>
   </trkpt>
   <trkpt lat="-3.0844490" lon="37.3684750">
    <ele>5310.0</ele>
    <time>2026-06-23T01:21:12Z</time>
   </trkpt>
   <trkpt lat="-3.0844490" lon="37.3684750">
    <ele>5310.0</ele>
    <time>2026-06-23T01:21:13Z</time>
   </trkpt>
   <trkpt lat="-3.0844490" lon="37.3684750">
    <ele>5310.0</ele>
    <time>2026-06-23T01:21:14Z</time>
   </trkpt>
   <trkpt lat="-3.0844500" lon="37.3684760">
    <ele>5310.1</ele>
    <time>2026-06-23T01:21:15Z</time>
   </trkpt>
   <trkpt lat="-3.0844500" lon="37.3684760">
    <ele>5310.1</ele>
    <time>2026-06-23T01:21:16Z</time>
   </trkpt>
   <trkpt lat="-3.0844500" lon="37.3684760">
    <ele>5310.1</ele>
    <time>2026-06-23T01:21:17Z</time>
   </trkpt>
   <trkpt lat="-3.0844490" lon="37.3684750">
    <ele>5310.1</ele>
    <time>2026-06-23T01:21:18Z</time>
   </trkpt>
   <trkpt lat="-3.0844460" lon="37.3684730">
    <ele>5310.2</ele>
    <time>2026-06-23T01:21:19Z</time>
   </trkpt>
   <trkpt lat="-3.0844470" lon="37.3684730">
    <ele>5310.2</ele>
    <time>2026-06-23T01:21:20Z</time>
   </trkpt>
   <trkpt lat="-3.0844470" lon="37.3684730">
    <ele>5310.2</ele>
    <time>2026-06-23T01:21:21Z</time>
   </trkpt>
   <trkpt lat="-3.0844470" lon="37.3684730">
    <ele>5310.2</ele>
    <time>2026-06-23T01:21:22Z</time>
   </trkpt>
   <trkpt lat="-3.0844470" lon="37.3684730">
    <ele>5310.2</ele>
    <time>2026-06-23T01:21:23Z</time>
   </trkpt>
   <trkpt lat="-3.0844490" lon="37.3684770">
    <ele>5310.3</ele>
    <time>2026-06-23T01:21:24Z</time>
   </trkpt>
   <trkpt lat="-3.0844490" lon="37.3684750">
    <ele>5310.4</ele>
    <time>2026-06-23T01:21:25Z</time>
   </trkpt>
   <trkpt lat="-3.0844500" lon="37.3684760">
    <ele>5310.4</ele>
    <time>2026-06-23T01:21:26Z</time>
   </trkpt>
   <trkpt lat="-3.0844500" lon="37.3684770">
    <ele>5310.4</ele>
    <time>2026-06-23T01:21:27Z</time>
   </trkpt>
   <trkpt lat="-3.0844490" lon="37.3684770">
    <ele>5310.5</ele>
    <time>2026-06-23T01:21:28Z</time>
   </trkpt>
   <trkpt lat="-3.0844490" lon="37.3684780">
    <ele>5310.5</ele>
    <time>2026-06-23T01:21:29Z</time>
   </trkpt>
   <trkpt lat="-3.0844480" lon="37.3684770">
    <ele>5310.5</ele>
    <time>2026-06-23T01:21:30Z</time>
   </trkpt>
   <trkpt lat="-3.0844490" lon="37.3684770">
    <ele>5310.5</ele>
    <time>2026-06-23T01:21:31Z</time>
   </trkpt>
   <trkpt lat="-3.0844490" lon="37.3684780">
    <ele>5310.6</ele>
    <time>2026-06-23T01:21:32Z</time>
   </trkpt>
   <trkpt lat="-3.0844480" lon="37.3684770">
    <ele>5310.6</ele>
    <time>2026-06-23T01:21:33Z</time>
   </trkpt>
   <trkpt lat="-3.0844480" lon="37.3684770">
    <ele>5310.6</ele>
    <time>2026-06-23T01:21:34Z</time>
   </trkpt>
   <trkpt lat="-3.0844490" lon="37.3684770">
    <ele>5310.6</ele>
    <time>2026-06-23T01:21:35Z</time>
   </trkpt>
   <trkpt lat="-3.0844500" lon="37.3684770">
    <ele>5310.6</ele>
    <time>2026-06-23T01:21:36Z</time>
   </trkpt>
   <trkpt lat="-3.0844500" lon="37.3684770">
    <ele>5310.6</ele>
    <time>2026-06-23T01:21:37Z</time>
   </trkpt>
   <trkpt lat="-3.0844500" lon="37.3684770">
    <ele>5310.6</ele>
    <time>2026-06-23T01:21:38Z</time>
   </trkpt>
   <trkpt lat="-3.0844510" lon="37.3684770">
    <ele>5310.7</ele>
    <time>2026-06-23T01:21:39Z</time>
   </trkpt>
   <trkpt lat="-3.0844510" lon="37.3684760">
    <ele>5310.7</ele>
    <time>2026-06-23T01:21:40Z</time>
   </trkpt>
   <trkpt lat="-3.0844510" lon="37.3684770">
    <ele>5310.7</ele>
    <time>2026-06-23T01:21:41Z</time>
   </trkpt>
   <trkpt lat="-3.0844510" lon="37.3684760">
    <ele>5310.7</ele>
    <time>2026-06-23T01:21:42Z</time>
   </trkpt>
   <trkpt lat="-3.0844510" lon="37.3684760">
    <ele>5310.7</ele>
    <time>2026-06-23T01:21:43Z</time>
   </trkpt>
   <trkpt lat="-3.0844500" lon="37.3684760">
    <ele>5310.8</ele>
    <time>2026-06-23T01:21:44Z</time>
   </trkpt>
   <trkpt lat="-3.0844510" lon="37.3684760">
    <ele>5310.8</ele>
    <time>2026-06-23T01:21:45Z</time>
   </trkpt>
   <trkpt lat="-3.0844510" lon="37.3684760">
    <ele>5310.8</ele>
    <time>2026-06-23T01:21:46Z</time>
   </trkpt>
   <trkpt lat="-3.0844500" lon="37.3684760">
    <ele>5310.8</ele>
    <time>2026-06-23T01:21:47Z</time>
   </trkpt>
   <trkpt lat="-3.0844510" lon="37.3684770">
    <ele>5310.8</ele>
    <time>2026-06-23T01:21:49Z</time>
   </trkpt>
   <trkpt lat="-3.0844510" lon="37.3684770">
    <ele>5310.8</ele>
    <time>2026-06-23T01:21:50Z</time>
   </trkpt>
   <trkpt lat="-3.0844510" lon="37.3684770">
    <ele>5310.8</ele>
    <time>2026-06-23T01:21:51Z</time>
   </trkpt>
   <trkpt lat="-3.0844510" lon="37.3684770">
    <ele>5310.8</ele>
    <time>2026-06-23T01:21:52Z</time>
   </trkpt>
   <trkpt lat="-3.0844510" lon="37.3684770">
    <ele>5310.8</ele>
    <time>2026-06-23T01:21:53Z</time>
   </trkpt>
   <trkpt lat="-3.0844510" lon="37.3684770">
    <ele>5310.8</ele>
    <time>2026-06-23T01:21:54Z</time>
   </trkpt>
   <trkpt lat="-3.0844510" lon="37.3684760">
    <ele>5310.9</ele>
    <time>2026-06-23T01:21:55Z</time>
   </trkpt>
   <trkpt lat="-3.0844500" lon="37.3684760">
    <ele>5310.9</ele>
    <time>2026-06-23T01:21:56Z</time>
   </trkpt>
   <trkpt lat="-3.0844500" lon="37.3684750">
    <ele>5310.9</ele>
    <time>2026-06-23T01:21:57Z</time>
   </trkpt>
   <trkpt lat="-3.0844500" lon="37.3684730">
    <ele>5311.0</ele>
    <time>2026-06-23T01:21:58Z</time>
   </trkpt>
   <trkpt lat="-3.0844490" lon="37.3684720">
    <ele>5311.0</ele>
    <time>2026-06-23T01:21:59Z</time>
   </trkpt>
   <trkpt lat="-3.0844490" lon="37.3684720">
    <ele>5311.0</ele>
    <time>2026-06-23T01:22:00Z</time>
   </trkpt>
   <trkpt lat="-3.0844510" lon="37.3684710">
    <ele>5311.0</ele>
    <time>2026-06-23T01:22:01Z</time>
   </trkpt>
   <trkpt lat="-3.0844500" lon="37.3684700">
    <ele>5311.1</ele>
    <time>2026-06-23T01:22:02Z</time>
   </trkpt>
   <trkpt lat="-3.0844520" lon="37.3684680">
    <ele>5311.1</ele>
    <time>2026-06-23T01:22:03Z</time>
   </trkpt>
   <trkpt lat="-3.0844540" lon="37.3684660">
    <ele>5311.2</ele>
    <time>2026-06-23T01:22:04Z</time>
   </trkpt>
   <trkpt lat="-3.0844560" lon="37.3684660">
    <ele>5311.2</ele>
    <time>2026-06-23T01:22:05Z</time>
   </trkpt>
   <trkpt lat="-3.0844560" lon="37.3684660">
    <ele>5311.2</ele>
    <time>2026-06-23T01:22:06Z</time>
   </trkpt>
   <trkpt lat="-3.0844570" lon="37.3684670">
    <ele>5311.3</ele>
    <time>2026-06-23T01:22:07Z</time>
   </trkpt>
   <trkpt lat="-3.0844580" lon="37.3684670">
    <ele>5311.3</ele>
    <time>2026-06-23T01:22:08Z</time>
   </trkpt>
   <trkpt lat="-3.0844580" lon="37.3684670">
    <ele>5311.3</ele>
    <time>2026-06-23T01:22:09Z</time>
   </trkpt>
   <trkpt lat="-3.0844590" lon="37.3684670">
    <ele>5311.3</ele>
    <time>2026-06-23T01:22:10Z</time>
   </trkpt>
   <trkpt lat="-3.0844610" lon="37.3684660">
    <ele>5311.4</ele>
    <time>2026-06-23T01:22:11Z</time>
   </trkpt>
   <trkpt lat="-3.0844640" lon="37.3684640">
    <ele>5311.5</ele>
    <time>2026-06-23T01:22:12Z</time>
   </trkpt>
   <trkpt lat="-3.0844660" lon="37.3684640">
    <ele>5311.5</ele>
    <time>2026-06-23T01:22:13Z</time>
   </trkpt>
   <trkpt lat="-3.0844640" lon="37.3684620">
    <ele>5311.6</ele>
    <time>2026-06-23T01:22:14Z</time>
   </trkpt>
   <trkpt lat="-3.0844660" lon="37.3684620">
    <ele>5311.6</ele>
    <time>2026-06-23T01:22:15Z</time>
   </trkpt>
   <trkpt lat="-3.0844700" lon="37.3684600">
    <ele>5311.7</ele>
    <time>2026-06-23T01:22:16Z</time>
   </trkpt>
   <trkpt lat="-3.0844710" lon="37.3684590">
    <ele>5311.8</ele>
    <time>2026-06-23T01:22:17Z</time>
   </trkpt>
   <trkpt lat="-3.0844730" lon="37.3684590">
    <ele>5311.8</ele>
    <time>2026-06-23T01:22:18Z</time>
   </trkpt>
   <trkpt lat="-3.0844740" lon="37.3684570">
    <ele>5311.9</ele>
    <time>2026-06-23T01:22:19Z</time>
   </trkpt>
   <trkpt lat="-3.0844760" lon="37.3684560">
    <ele>5311.9</ele>
    <time>2026-06-23T01:22:20Z</time>
   </trkpt>
   <trkpt lat="-3.0844760" lon="37.3684550">
    <ele>5311.9</ele>
    <time>2026-06-23T01:22:21Z</time>
   </trkpt>
   <trkpt lat="-3.0844780" lon="37.3684540">
    <ele>5312.0</ele>
    <time>2026-06-23T01:22:22Z</time>
   </trkpt>
   <trkpt lat="-3.0844760" lon="37.3684520">
    <ele>5312.1</ele>
    <time>2026-06-23T01:22:23Z</time>
   </trkpt>
   <trkpt lat="-3.0844800" lon="37.3684510">
    <ele>5312.2</ele>
    <time>2026-06-23T01:22:24Z</time>
   </trkpt>
   <trkpt lat="-3.0844790" lon="37.3684480">
    <ele>5312.2</ele>
    <time>2026-06-23T01:22:25Z</time>
   </trkpt>
   <trkpt lat="-3.0844810" lon="37.3684470">
    <ele>5312.3</ele>
    <time>2026-06-23T01:22:26Z</time>
   </trkpt>
   <trkpt lat="-3.0844810" lon="37.3684460">
    <ele>5312.3</ele>
    <time>2026-06-23T01:22:27Z</time>
   </trkpt>
   <trkpt lat="-3.0844820" lon="37.3684440">
    <ele>5312.4</ele>
    <time>2026-06-23T01:22:28Z</time>
   </trkpt>
   <trkpt lat="-3.0844840" lon="37.3684420">
    <ele>5312.4</ele>
    <time>2026-06-23T01:22:29Z</time>
   </trkpt>
   <trkpt lat="-3.0844840" lon="37.3684410">
    <ele>5312.4</ele>
    <time>2026-06-23T01:22:30Z</time>
   </trkpt>
   <trkpt lat="-3.0844840" lon="37.3684400">
    <ele>5312.5</ele>
    <time>2026-06-23T01:22:31Z</time>
   </trkpt>
   <trkpt lat="-3.0844830" lon="37.3684410">
    <ele>5312.5</ele>
    <time>2026-06-23T01:22:32Z</time>
   </trkpt>
   <trkpt lat="-3.0844840" lon="37.3684410">
    <ele>5312.5</ele>
    <time>2026-06-23T01:22:33Z</time>
   </trkpt>
   <trkpt lat="-3.0844830" lon="37.3684400">
    <ele>5312.6</ele>
    <time>2026-06-23T01:22:34Z</time>
   </trkpt>
   <trkpt lat="-3.0844840" lon="37.3684410">
    <ele>5312.6</ele>
    <time>2026-06-23T01:22:35Z</time>
   </trkpt>
   <trkpt lat="-3.0844840" lon="37.3684400">
    <ele>5312.6</ele>
    <time>2026-06-23T01:22:36Z</time>
   </trkpt>
   <trkpt lat="-3.0844830" lon="37.3684370">
    <ele>5312.7</ele>
    <time>2026-06-23T01:22:37Z</time>
   </trkpt>
   <trkpt lat="-3.0844840" lon="37.3684370">
    <ele>5312.7</ele>
    <time>2026-06-23T01:22:38Z</time>
   </trkpt>
   <trkpt lat="-3.0844840" lon="37.3684340">
    <ele>5312.8</ele>
    <time>2026-06-23T01:22:39Z</time>
   </trkpt>
   <trkpt lat="-3.0844860" lon="37.3684320">
    <ele>5312.8</ele>
    <time>2026-06-23T01:22:40Z</time>
   </trkpt>
   <trkpt lat="-3.0844850" lon="37.3684320">
    <ele>5312.9</ele>
    <time>2026-06-23T01:22:41Z</time>
   </trkpt>
   <trkpt lat="-3.0844870" lon="37.3684310">
    <ele>5312.9</ele>
    <time>2026-06-23T01:22:42Z</time>
   </trkpt>
   <trkpt lat="-3.0844890" lon="37.3684300">
    <ele>5313.0</ele>
    <time>2026-06-23T01:22:43Z</time>
   </trkpt>
   <trkpt lat="-3.0844920" lon="37.3684290">
    <ele>5313.1</ele>
    <time>2026-06-23T01:22:44Z</time>
   </trkpt>
   <trkpt lat="-3.0844920" lon="37.3684280">
    <ele>5313.1</ele>
    <time>2026-06-23T01:22:45Z</time>
   </trkpt>
   <trkpt lat="-3.0844940" lon="37.3684270">
    <ele>5313.1</ele>
    <time>2026-06-23T01:22:46Z</time>
   </trkpt>
   <trkpt lat="-3.0844950" lon="37.3684250">
    <ele>5313.2</ele>
    <time>2026-06-23T01:22:47Z</time>
   </trkpt>
   <trkpt lat="-3.0844970" lon="37.3684240">
    <ele>5313.2</ele>
    <time>2026-06-23T01:22:48Z</time>
   </trkpt>
   <trkpt lat="-3.0844970" lon="37.3684230">
    <ele>5313.3</ele>
    <time>2026-06-23T01:22:49Z</time>
   </trkpt>
   <trkpt lat="-3.0844970" lon="37.3684230">
    <ele>5313.3</ele>
    <time>2026-06-23T01:22:50Z</time>
   </trkpt>
   <trkpt lat="-3.0844980" lon="37.3684220">
    <ele>5313.3</ele>
    <time>2026-06-23T01:22:51Z</time>
   </trkpt>
   <trkpt lat="-3.0844990" lon="37.3684220">
    <ele>5313.3</ele>
    <time>2026-06-23T01:22:52Z</time>
   </trkpt>
   <trkpt lat="-3.0844990" lon="37.3684220">
    <ele>5313.3</ele>
    <time>2026-06-23T01:22:53Z</time>
   </trkpt>
   <trkpt lat="-3.0844990" lon="37.3684200">
    <ele>5313.4</ele>
    <time>2026-06-23T01:22:54Z</time>
   </trkpt>
   <trkpt lat="-3.0845000" lon="37.3684210">
    <ele>5313.4</ele>
    <time>2026-06-23T01:22:55Z</time>
   </trkpt>
   <trkpt lat="-3.0845010" lon="37.3684190">
    <ele>5313.4</ele>
    <time>2026-06-23T01:22:56Z</time>
   </trkpt>
   <trkpt lat="-3.0845040" lon="37.3684190">
    <ele>5313.5</ele>
    <time>2026-06-23T01:22:57Z</time>
   </trkpt>
   <trkpt lat="-3.0845060" lon="37.3684160">
    <ele>5313.6</ele>
    <time>2026-06-23T01:22:58Z</time>
   </trkpt>
   <trkpt lat="-3.0845080" lon="37.3684140">
    <ele>5313.7</ele>
    <time>2026-06-23T01:22:59Z</time>
   </trkpt>
   <trkpt lat="-3.0845090" lon="37.3684110">
    <ele>5313.7</ele>
    <time>2026-06-23T01:23:00Z</time>
   </trkpt>
   <trkpt lat="-3.0845090" lon="37.3684080">
    <ele>5313.8</ele>
    <time>2026-06-23T01:23:01Z</time>
   </trkpt>
   <trkpt lat="-3.0845090" lon="37.3684060">
    <ele>5313.9</ele>
    <time>2026-06-23T01:23:02Z</time>
   </trkpt>
   <trkpt lat="-3.0845070" lon="37.3684030">
    <ele>5313.9</ele>
    <time>2026-06-23T01:23:03Z</time>
   </trkpt>
   <trkpt lat="-3.0845050" lon="37.3684020">
    <ele>5314.0</ele>
    <time>2026-06-23T01:23:04Z</time>
   </trkpt>
   <trkpt lat="-3.0845020" lon="37.3683990">
    <ele>5314.1</ele>
    <time>2026-06-23T01:23:05Z</time>
   </trkpt>
   <trkpt lat="-3.0845020" lon="37.3684000">
    <ele>5314.1</ele>
    <time>2026-06-23T01:23:06Z</time>
   </trkpt>
   <trkpt lat="-3.0844990" lon="37.3683980">
    <ele>5314.2</ele>
    <time>2026-06-23T01:23:07Z</time>
   </trkpt>
   <trkpt lat="-3.0844980" lon="37.3683960">
    <ele>5314.2</ele>
    <time>2026-06-23T01:23:08Z</time>
   </trkpt>
   <trkpt lat="-3.0844950" lon="37.3683950">
    <ele>5314.3</ele>
    <time>2026-06-23T01:23:09Z</time>
   </trkpt>
   <trkpt lat="-3.0844940" lon="37.3683950">
    <ele>5314.3</ele>
    <time>2026-06-23T01:23:10Z</time>
   </trkpt>
   <trkpt lat="-3.0844930" lon="37.3683940">
    <ele>5314.4</ele>
    <time>2026-06-23T01:23:11Z</time>
   </trkpt>
   <trkpt lat="-3.0844900" lon="37.3683940">
    <ele>5314.4</ele>
    <time>2026-06-23T01:23:12Z</time>
   </trkpt>
   <trkpt lat="-3.0844910" lon="37.3683940">
    <ele>5314.5</ele>
    <time>2026-06-23T01:23:13Z</time>
   </trkpt>
   <trkpt lat="-3.0844870" lon="37.3683930">
    <ele>5314.6</ele>
    <time>2026-06-23T01:23:14Z</time>
   </trkpt>
   <trkpt lat="-3.0844860" lon="37.3683940">
    <ele>5314.6</ele>
    <time>2026-06-23T01:23:15Z</time>
   </trkpt>
   <trkpt lat="-3.0844850" lon="37.3683950">
    <ele>5314.6</ele>
    <time>2026-06-23T01:23:16Z</time>
   </trkpt>
   <trkpt lat="-3.0844810" lon="37.3683940">
    <ele>5314.7</ele>
    <time>2026-06-23T01:23:17Z</time>
   </trkpt>
   <trkpt lat="-3.0844810" lon="37.3683950">
    <ele>5314.7</ele>
    <time>2026-06-23T01:23:18Z</time>
   </trkpt>
   <trkpt lat="-3.0844800" lon="37.3683950">
    <ele>5314.8</ele>
    <time>2026-06-23T01:23:19Z</time>
   </trkpt>
   <trkpt lat="-3.0844800" lon="37.3683950">
    <ele>5314.8</ele>
    <time>2026-06-23T01:23:20Z</time>
   </trkpt>
   <trkpt lat="-3.0844790" lon="37.3683950">
    <ele>5314.8</ele>
    <time>2026-06-23T01:23:21Z</time>
   </trkpt>
   <trkpt lat="-3.0844790" lon="37.3683950">
    <ele>5314.8</ele>
    <time>2026-06-23T01:23:22Z</time>
   </trkpt>
   <trkpt lat="-3.0844780" lon="37.3683940">
    <ele>5314.8</ele>
    <time>2026-06-23T01:23:23Z</time>
   </trkpt>
   <trkpt lat="-3.0844740" lon="37.3683920">
    <ele>5314.9</ele>
    <time>2026-06-23T01:23:24Z</time>
   </trkpt>
   <trkpt lat="-3.0844720" lon="37.3683920">
    <ele>5315.0</ele>
    <time>2026-06-23T01:23:25Z</time>
   </trkpt>
   <trkpt lat="-3.0844680" lon="37.3683900">
    <ele>5315.1</ele>
    <time>2026-06-23T01:23:26Z</time>
   </trkpt>
   <trkpt lat="-3.0844660" lon="37.3683890">
    <ele>5315.1</ele>
    <time>2026-06-23T01:23:27Z</time>
   </trkpt>
   <trkpt lat="-3.0844660" lon="37.3683860">
    <ele>5315.2</ele>
    <time>2026-06-23T01:23:28Z</time>
   </trkpt>
   <trkpt lat="-3.0844650" lon="37.3683840">
    <ele>5315.2</ele>
    <time>2026-06-23T01:23:29Z</time>
   </trkpt>
   <trkpt lat="-3.0844680" lon="37.3683830">
    <ele>5315.3</ele>
    <time>2026-06-23T01:23:30Z</time>
   </trkpt>
   <trkpt lat="-3.0844690" lon="37.3683810">
    <ele>5315.4</ele>
    <time>2026-06-23T01:23:31Z</time>
   </trkpt>
   <trkpt lat="-3.0844680" lon="37.3683780">
    <ele>5315.4</ele>
    <time>2026-06-23T01:23:32Z</time>
   </trkpt>
   <trkpt lat="-3.0844700" lon="37.3683770">
    <ele>5315.5</ele>
    <time>2026-06-23T01:23:33Z</time>
   </trkpt>
   <trkpt lat="-3.0844720" lon="37.3683770">
    <ele>5315.5</ele>
    <time>2026-06-23T01:23:34Z</time>
   </trkpt>
   <trkpt lat="-3.0844720" lon="37.3683710">
    <ele>5315.7</ele>
    <time>2026-06-23T01:23:35Z</time>
   </trkpt>
   <trkpt lat="-3.0844700" lon="37.3683690">
    <ele>5315.7</ele>
    <time>2026-06-23T01:23:36Z</time>
   </trkpt>
   <trkpt lat="-3.0844730" lon="37.3683680">
    <ele>5315.8</ele>
    <time>2026-06-23T01:23:37Z</time>
   </trkpt>
   <trkpt lat="-3.0844740" lon="37.3683670">
    <ele>5315.8</ele>
    <time>2026-06-23T01:23:38Z</time>
   </trkpt>
   <trkpt lat="-3.0844750" lon="37.3683660">
    <ele>5315.9</ele>
    <time>2026-06-23T01:23:39Z</time>
   </trkpt>
   <trkpt lat="-3.0844750" lon="37.3683650">
    <ele>5315.9</ele>
    <time>2026-06-23T01:23:40Z</time>
   </trkpt>
   <trkpt lat="-3.0844740" lon="37.3683640">
    <ele>5315.9</ele>
    <time>2026-06-23T01:23:41Z</time>
   </trkpt>
   <trkpt lat="-3.0844760" lon="37.3683620">
    <ele>5316.0</ele>
    <time>2026-06-23T01:23:42Z</time>
   </trkpt>
   <trkpt lat="-3.0844760" lon="37.3683590">
    <ele>5316.1</ele>
    <time>2026-06-23T01:23:43Z</time>
   </trkpt>
   <trkpt lat="-3.0844790" lon="37.3683580">
    <ele>5316.1</ele>
    <time>2026-06-23T01:23:44Z</time>
   </trkpt>
   <trkpt lat="-3.0844780" lon="37.3683570">
    <ele>5316.2</ele>
    <time>2026-06-23T01:23:45Z</time>
   </trkpt>
   <trkpt lat="-3.0844780" lon="37.3683580">
    <ele>5316.2</ele>
    <time>2026-06-23T01:23:46Z</time>
   </trkpt>
   <trkpt lat="-3.0844790" lon="37.3683580">
    <ele>5316.2</ele>
    <time>2026-06-23T01:23:47Z</time>
   </trkpt>
   <trkpt lat="-3.0844810" lon="37.3683570">
    <ele>5316.3</ele>
    <time>2026-06-23T01:23:48Z</time>
   </trkpt>
   <trkpt lat="-3.0844810" lon="37.3683550">
    <ele>5316.3</ele>
    <time>2026-06-23T01:23:49Z</time>
   </trkpt>
   <trkpt lat="-3.0844830" lon="37.3683570">
    <ele>5316.4</ele>
    <time>2026-06-23T01:23:50Z</time>
   </trkpt>
   <trkpt lat="-3.0844830" lon="37.3683550">
    <ele>5316.4</ele>
    <time>2026-06-23T01:23:51Z</time>
   </trkpt>
   <trkpt lat="-3.0844830" lon="37.3683550">
    <ele>5316.4</ele>
    <time>2026-06-23T01:23:52Z</time>
   </trkpt>
   <trkpt lat="-3.0844850" lon="37.3683560">
    <ele>5316.5</ele>
    <time>2026-06-23T01:23:53Z</time>
   </trkpt>
   <trkpt lat="-3.0844870" lon="37.3683540">
    <ele>5316.5</ele>
    <time>2026-06-23T01:23:55Z</time>
   </trkpt>
   <trkpt lat="-3.0844900" lon="37.3683520">
    <ele>5316.6</ele>
    <time>2026-06-23T01:23:56Z</time>
   </trkpt>
   <trkpt lat="-3.0844910" lon="37.3683480">
    <ele>5316.7</ele>
    <time>2026-06-23T01:23:57Z</time>
   </trkpt>
   <trkpt lat="-3.0844920" lon="37.3683480">
    <ele>5316.7</ele>
    <time>2026-06-23T01:23:58Z</time>
   </trkpt>
   <trkpt lat="-3.0844930" lon="37.3683490">
    <ele>5316.8</ele>
    <time>2026-06-23T01:23:59Z</time>
   </trkpt>
   <trkpt lat="-3.0844950" lon="37.3683480">
    <ele>5316.8</ele>
    <time>2026-06-23T01:24:00Z</time>
   </trkpt>
   <trkpt lat="-3.0844950" lon="37.3683480">
    <ele>5316.8</ele>
    <time>2026-06-23T01:24:01Z</time>
   </trkpt>
   <trkpt lat="-3.0844950" lon="37.3683470">
    <ele>5316.8</ele>
    <time>2026-06-23T01:24:02Z</time>
   </trkpt>
   <trkpt lat="-3.0844950" lon="37.3683480">
    <ele>5316.9</ele>
    <time>2026-06-23T01:24:03Z</time>
   </trkpt>
   <trkpt lat="-3.0844970" lon="37.3683470">
    <ele>5316.9</ele>
    <time>2026-06-23T01:24:04Z</time>
   </trkpt>
   <trkpt lat="-3.0844970" lon="37.3683450">
    <ele>5317.0</ele>
    <time>2026-06-23T01:24:05Z</time>
   </trkpt>
   <trkpt lat="-3.0845000" lon="37.3683450">
    <ele>5317.0</ele>
    <time>2026-06-23T01:24:06Z</time>
   </trkpt>
   <trkpt lat="-3.0845030" lon="37.3683430">
    <ele>5317.1</ele>
    <time>2026-06-23T01:24:07Z</time>
   </trkpt>
   <trkpt lat="-3.0845030" lon="37.3683410">
    <ele>5317.2</ele>
    <time>2026-06-23T01:24:08Z</time>
   </trkpt>
   <trkpt lat="-3.0845040" lon="37.3683420">
    <ele>5317.2</ele>
    <time>2026-06-23T01:24:09Z</time>
   </trkpt>
   <trkpt lat="-3.0845030" lon="37.3683400">
    <ele>5317.2</ele>
    <time>2026-06-23T01:24:10Z</time>
   </trkpt>
   <trkpt lat="-3.0845010" lon="37.3683390">
    <ele>5317.3</ele>
    <time>2026-06-23T01:24:11Z</time>
   </trkpt>
   <trkpt lat="-3.0844990" lon="37.3683370">
    <ele>5317.4</ele>
    <time>2026-06-23T01:24:12Z</time>
   </trkpt>
   <trkpt lat="-3.0844960" lon="37.3683360">
    <ele>5317.4</ele>
    <time>2026-06-23T01:24:13Z</time>
   </trkpt>
   <trkpt lat="-3.0844930" lon="37.3683330">
    <ele>5317.5</ele>
    <time>2026-06-23T01:24:14Z</time>
   </trkpt>
   <trkpt lat="-3.0844910" lon="37.3683310">
    <ele>5317.6</ele>
    <time>2026-06-23T01:24:15Z</time>
   </trkpt>
   <trkpt lat="-3.0844890" lon="37.3683300">
    <ele>5317.7</ele>
    <time>2026-06-23T01:24:16Z</time>
   </trkpt>
   <trkpt lat="-3.0844880" lon="37.3683300">
    <ele>5317.7</ele>
    <time>2026-06-23T01:24:17Z</time>
   </trkpt>
   <trkpt lat="-3.0844830" lon="37.3683290">
    <ele>5317.8</ele>
    <time>2026-06-23T01:24:18Z</time>
   </trkpt>
   <trkpt lat="-3.0844790" lon="37.3683280">
    <ele>5317.9</ele>
    <time>2026-06-23T01:24:19Z</time>
   </trkpt>
   <trkpt lat="-3.0844790" lon="37.3683300">
    <ele>5317.9</ele>
    <time>2026-06-23T01:24:20Z</time>
   </trkpt>
   <trkpt lat="-3.0844780" lon="37.3683270">
    <ele>5318.0</ele>
    <time>2026-06-23T01:24:21Z</time>
   </trkpt>
   <trkpt lat="-3.0844770" lon="37.3683260">
    <ele>5318.0</ele>
    <time>2026-06-23T01:24:22Z</time>
   </trkpt>
   <trkpt lat="-3.0844770" lon="37.3683250">
    <ele>5318.1</ele>
    <time>2026-06-23T01:24:23Z</time>
   </trkpt>
   <trkpt lat="-3.0844770" lon="37.3683230">
    <ele>5318.1</ele>
    <time>2026-06-23T01:24:24Z</time>
   </trkpt>
   <trkpt lat="-3.0844780" lon="37.3683220">
    <ele>5318.1</ele>
    <time>2026-06-23T01:24:25Z</time>
   </trkpt>
   <trkpt lat="-3.0844790" lon="37.3683220">
    <ele>5318.2</ele>
    <time>2026-06-23T01:24:26Z</time>
   </trkpt>
   <trkpt lat="-3.0844790" lon="37.3683210">
    <ele>5318.2</ele>
    <time>2026-06-23T01:24:27Z</time>
   </trkpt>
   <trkpt lat="-3.0844830" lon="37.3683200">
    <ele>5318.3</ele>
    <time>2026-06-23T01:24:28Z</time>
   </trkpt>
   <trkpt lat="-3.0844840" lon="37.3683160">
    <ele>5318.4</ele>
    <time>2026-06-23T01:24:29Z</time>
   </trkpt>
   <trkpt lat="-3.0844870" lon="37.3683130">
    <ele>5318.5</ele>
    <time>2026-06-23T01:24:30Z</time>
   </trkpt>
   <trkpt lat="-3.0844870" lon="37.3683130">
    <ele>5318.5</ele>
    <time>2026-06-23T01:24:31Z</time>
   </trkpt>
   <trkpt lat="-3.0844890" lon="37.3683130">
    <ele>5318.5</ele>
    <time>2026-06-23T01:24:32Z</time>
   </trkpt>
   <trkpt lat="-3.0844910" lon="37.3683120">
    <ele>5318.6</ele>
    <time>2026-06-23T01:24:33Z</time>
   </trkpt>
   <trkpt lat="-3.0844910" lon="37.3683100">
    <ele>5318.6</ele>
    <time>2026-06-23T01:24:34Z</time>
   </trkpt>
   <trkpt lat="-3.0844930" lon="37.3683070">
    <ele>5318.7</ele>
    <time>2026-06-23T01:24:35Z</time>
   </trkpt>
   <trkpt lat="-3.0844930" lon="37.3683060">
    <ele>5318.7</ele>
    <time>2026-06-23T01:24:36Z</time>
   </trkpt>
   <trkpt lat="-3.0844960" lon="37.3683040">
    <ele>5318.8</ele>
    <time>2026-06-23T01:24:37Z</time>
   </trkpt>
   <trkpt lat="-3.0844970" lon="37.3683010">
    <ele>5318.9</ele>
    <time>2026-06-23T01:24:38Z</time>
   </trkpt>
   <trkpt lat="-3.0844970" lon="37.3682990">
    <ele>5318.9</ele>
    <time>2026-06-23T01:24:39Z</time>
   </trkpt>
   <trkpt lat="-3.0844970" lon="37.3682980">
    <ele>5318.9</ele>
    <time>2026-06-23T01:24:40Z</time>
   </trkpt>
   <trkpt lat="-3.0844960" lon="37.3682950">
    <ele>5319.0</ele>
    <time>2026-06-23T01:24:41Z</time>
   </trkpt>
   <trkpt lat="-3.0844960" lon="37.3682940">
    <ele>5319.0</ele>
    <time>2026-06-23T01:24:42Z</time>
   </trkpt>
   <trkpt lat="-3.0844950" lon="37.3682930">
    <ele>5319.0</ele>
    <time>2026-06-23T01:24:43Z</time>
   </trkpt>
   <trkpt lat="-3.0844950" lon="37.3682910">
    <ele>5319.1</ele>
    <time>2026-06-23T01:24:44Z</time>
   </trkpt>
   <trkpt lat="-3.0844960" lon="37.3682910">
    <ele>5319.1</ele>
    <time>2026-06-23T01:24:45Z</time>
   </trkpt>
   <trkpt lat="-3.0844970" lon="37.3682880">
    <ele>5319.2</ele>
    <time>2026-06-23T01:24:46Z</time>
   </trkpt>
   <trkpt lat="-3.0844980" lon="37.3682870">
    <ele>5319.2</ele>
    <time>2026-06-23T01:24:47Z</time>
   </trkpt>
   <trkpt lat="-3.0844990" lon="37.3682840">
    <ele>5319.3</ele>
    <time>2026-06-23T01:24:48Z</time>
   </trkpt>
   <trkpt lat="-3.0845010" lon="37.3682820">
    <ele>5319.3</ele>
    <time>2026-06-23T01:24:49Z</time>
   </trkpt>
   <trkpt lat="-3.0845020" lon="37.3682810">
    <ele>5319.4</ele>
    <time>2026-06-23T01:24:50Z</time>
   </trkpt>
   <trkpt lat="-3.0845030" lon="37.3682820">
    <ele>5319.4</ele>
    <time>2026-06-23T01:24:51Z</time>
   </trkpt>
   <trkpt lat="-3.0845050" lon="37.3682810">
    <ele>5319.5</ele>
    <time>2026-06-23T01:24:52Z</time>
   </trkpt>
   <trkpt lat="-3.0845080" lon="37.3682790">
    <ele>5319.5</ele>
    <time>2026-06-23T01:24:53Z</time>
   </trkpt>
   <trkpt lat="-3.0845100" lon="37.3682780">
    <ele>5319.6</ele>
    <time>2026-06-23T01:24:54Z</time>
   </trkpt>
   <trkpt lat="-3.0845130" lon="37.3682780">
    <ele>5319.6</ele>
    <time>2026-06-23T01:24:55Z</time>
   </trkpt>
   <trkpt lat="-3.0845140" lon="37.3682740">
    <ele>5319.7</ele>
    <time>2026-06-23T01:24:56Z</time>
   </trkpt>
   <trkpt lat="-3.0845150" lon="37.3682720">
    <ele>5319.8</ele>
    <time>2026-06-23T01:24:57Z</time>
   </trkpt>
   <trkpt lat="-3.0845150" lon="37.3682700">
    <ele>5319.8</ele>
    <time>2026-06-23T01:24:58Z</time>
   </trkpt>
   <trkpt lat="-3.0845160" lon="37.3682680">
    <ele>5319.9</ele>
    <time>2026-06-23T01:24:59Z</time>
   </trkpt>
   <trkpt lat="-3.0845130" lon="37.3682660">
    <ele>5320.0</ele>
    <time>2026-06-23T01:25:00Z</time>
   </trkpt>
   <trkpt lat="-3.0845130" lon="37.3682640">
    <ele>5320.0</ele>
    <time>2026-06-23T01:25:01Z</time>
   </trkpt>
   <trkpt lat="-3.0845110" lon="37.3682620">
    <ele>5320.1</ele>
    <time>2026-06-23T01:25:02Z</time>
   </trkpt>
   <trkpt lat="-3.0845090" lon="37.3682610">
    <ele>5320.1</ele>
    <time>2026-06-23T01:25:03Z</time>
   </trkpt>
   <trkpt lat="-3.0845080" lon="37.3682590">
    <ele>5320.2</ele>
    <time>2026-06-23T01:25:04Z</time>
   </trkpt>
   <trkpt lat="-3.0845040" lon="37.3682570">
    <ele>5320.3</ele>
    <time>2026-06-23T01:25:05Z</time>
   </trkpt>
   <trkpt lat="-3.0845010" lon="37.3682550">
    <ele>5320.3</ele>
    <time>2026-06-23T01:25:06Z</time>
   </trkpt>
   <trkpt lat="-3.0844990" lon="37.3682550">
    <ele>5320.4</ele>
    <time>2026-06-23T01:25:07Z</time>
   </trkpt>
   <trkpt lat="-3.0844980" lon="37.3682540">
    <ele>5320.4</ele>
    <time>2026-06-23T01:25:08Z</time>
   </trkpt>
   <trkpt lat="-3.0844970" lon="37.3682540">
    <ele>5320.4</ele>
    <time>2026-06-23T01:25:09Z</time>
   </trkpt>
   <trkpt lat="-3.0844960" lon="37.3682550">
    <ele>5320.5</ele>
    <time>2026-06-23T01:25:10Z</time>
   </trkpt>
   <trkpt lat="-3.0844960" lon="37.3682550">
    <ele>5320.5</ele>
    <time>2026-06-23T01:25:11Z</time>
   </trkpt>
   <trkpt lat="-3.0844960" lon="37.3682560">
    <ele>5320.5</ele>
    <time>2026-06-23T01:25:12Z</time>
   </trkpt>
   <trkpt lat="-3.0844960" lon="37.3682540">
    <ele>5320.5</ele>
    <time>2026-06-23T01:25:13Z</time>
   </trkpt>
   <trkpt lat="-3.0844970" lon="37.3682540">
    <ele>5320.6</ele>
    <time>2026-06-23T01:25:14Z</time>
   </trkpt>
   <trkpt lat="-3.0844970" lon="37.3682540">
    <ele>5320.6</ele>
    <time>2026-06-23T01:25:15Z</time>
   </trkpt>
   <trkpt lat="-3.0844970" lon="37.3682540">
    <ele>5320.6</ele>
    <time>2026-06-23T01:25:16Z</time>
   </trkpt>
   <trkpt lat="-3.0844970" lon="37.3682540">
    <ele>5320.6</ele>
    <time>2026-06-23T01:25:17Z</time>
   </trkpt>
   <trkpt lat="-3.0844960" lon="37.3682540">
    <ele>5320.6</ele>
    <time>2026-06-23T01:25:18Z</time>
   </trkpt>
   <trkpt lat="-3.0844960" lon="37.3682540">
    <ele>5320.6</ele>
    <time>2026-06-23T01:25:19Z</time>
   </trkpt>
   <trkpt lat="-3.0844960" lon="37.3682540">
    <ele>5320.6</ele>
    <time>2026-06-23T01:25:20Z</time>
   </trkpt>
   <trkpt lat="-3.0844960" lon="37.3682540">
    <ele>5320.6</ele>
    <time>2026-06-23T01:25:21Z</time>
   </trkpt>
   <trkpt lat="-3.0844950" lon="37.3682530">
    <ele>5320.6</ele>
    <time>2026-06-23T01:25:22Z</time>
   </trkpt>
   <trkpt lat="-3.0844950" lon="37.3682540">
    <ele>5320.6</ele>
    <time>2026-06-23T01:25:23Z</time>
   </trkpt>
   <trkpt lat="-3.0844950" lon="37.3682540">
    <ele>5320.6</ele>
    <time>2026-06-23T01:25:24Z</time>
   </trkpt>
   <trkpt lat="-3.0844950" lon="37.3682540">
    <ele>5320.6</ele>
    <time>2026-06-23T01:25:25Z</time>
   </trkpt>
   <trkpt lat="-3.0844960" lon="37.3682540">
    <ele>5320.7</ele>
    <time>2026-06-23T01:25:26Z</time>
   </trkpt>
   <trkpt lat="-3.0844960" lon="37.3682540">
    <ele>5320.7</ele>
    <time>2026-06-23T01:25:27Z</time>
   </trkpt>
   <trkpt lat="-3.0844960" lon="37.3682540">
    <ele>5320.7</ele>
    <time>2026-06-23T01:25:28Z</time>
   </trkpt>
   <trkpt lat="-3.0844950" lon="37.3682540">
    <ele>5320.7</ele>
    <time>2026-06-23T01:25:29Z</time>
   </trkpt>
   <trkpt lat="-3.0844950" lon="37.3682540">
    <ele>5320.7</ele>
    <time>2026-06-23T01:25:30Z</time>
   </trkpt>
   <trkpt lat="-3.0844950" lon="37.3682540">
    <ele>5320.7</ele>
    <time>2026-06-23T01:25:31Z</time>
   </trkpt>
   <trkpt lat="-3.0844950" lon="37.3682540">
    <ele>5320.7</ele>
    <time>2026-06-23T01:25:32Z</time>
   </trkpt>
   <trkpt lat="-3.0844950" lon="37.3682540">
    <ele>5320.7</ele>
    <time>2026-06-23T01:25:33Z</time>
   </trkpt>
   <trkpt lat="-3.0844950" lon="37.3682540">
    <ele>5320.7</ele>
    <time>2026-06-23T01:25:34Z</time>
   </trkpt>
   <trkpt lat="-3.0844950" lon="37.3682540">
    <ele>5320.7</ele>
    <time>2026-06-23T01:25:35Z</time>
   </trkpt>
   <trkpt lat="-3.0844950" lon="37.3682560">
    <ele>5320.7</ele>
    <time>2026-06-23T01:25:36Z</time>
   </trkpt>
   <trkpt lat="-3.0844940" lon="37.3682560">
    <ele>5320.7</ele>
    <time>2026-06-23T01:25:37Z</time>
   </trkpt>
   <trkpt lat="-3.0844950" lon="37.3682550">
    <ele>5320.8</ele>
    <time>2026-06-23T01:25:38Z</time>
   </trkpt>
   <trkpt lat="-3.0844930" lon="37.3682540">
    <ele>5320.8</ele>
    <time>2026-06-23T01:25:39Z</time>
   </trkpt>
   <trkpt lat="-3.0844930" lon="37.3682550">
    <ele>5320.8</ele>
    <time>2026-06-23T01:25:40Z</time>
   </trkpt>
   <trkpt lat="-3.0844870" lon="37.3682530">
    <ele>5321.0</ele>
    <time>2026-06-23T01:25:41Z</time>
   </trkpt>
   <trkpt lat="-3.0844820" lon="37.3682520">
    <ele>5321.1</ele>
    <time>2026-06-23T01:25:42Z</time>
   </trkpt>
   <trkpt lat="-3.0844790" lon="37.3682520">
    <ele>5321.2</ele>
    <time>2026-06-23T01:25:43Z</time>
   </trkpt>
   <trkpt lat="-3.0844760" lon="37.3682520">
    <ele>5321.2</ele>
    <time>2026-06-23T01:25:44Z</time>
   </trkpt>
   <trkpt lat="-3.0844740" lon="37.3682520">
    <ele>5321.3</ele>
    <time>2026-06-23T01:25:45Z</time>
   </trkpt>
   <trkpt lat="-3.0844750" lon="37.3682520">
    <ele>5321.3</ele>
    <time>2026-06-23T01:25:46Z</time>
   </trkpt>
   <trkpt lat="-3.0844750" lon="37.3682520">
    <ele>5321.3</ele>
    <time>2026-06-23T01:25:47Z</time>
   </trkpt>
   <trkpt lat="-3.0844710" lon="37.3682520">
    <ele>5321.4</ele>
    <time>2026-06-23T01:25:48Z</time>
   </trkpt>
   <trkpt lat="-3.0844700" lon="37.3682510">
    <ele>5321.4</ele>
    <time>2026-06-23T01:25:49Z</time>
   </trkpt>
   <trkpt lat="-3.0844670" lon="37.3682510">
    <ele>5321.5</ele>
    <time>2026-06-23T01:25:50Z</time>
   </trkpt>
   <trkpt lat="-3.0844650" lon="37.3682510">
    <ele>5321.5</ele>
    <time>2026-06-23T01:25:51Z</time>
   </trkpt>
   <trkpt lat="-3.0844590" lon="37.3682490">
    <ele>5321.7</ele>
    <time>2026-06-23T01:25:52Z</time>
   </trkpt>
   <trkpt lat="-3.0844570" lon="37.3682480">
    <ele>5321.7</ele>
    <time>2026-06-23T01:25:53Z</time>
   </trkpt>
   <trkpt lat="-3.0844570" lon="37.3682460">
    <ele>5321.8</ele>
    <time>2026-06-23T01:25:54Z</time>
   </trkpt>
   <trkpt lat="-3.0844550" lon="37.3682430">
    <ele>5321.8</ele>
    <time>2026-06-23T01:25:55Z</time>
   </trkpt>
   <trkpt lat="-3.0844570" lon="37.3682430">
    <ele>5321.9</ele>
    <time>2026-06-23T01:25:56Z</time>
   </trkpt>
   <trkpt lat="-3.0844570" lon="37.3682430">
    <ele>5321.9</ele>
    <time>2026-06-23T01:25:57Z</time>
   </trkpt>
   <trkpt lat="-3.0844580" lon="37.3682410">
    <ele>5321.9</ele>
    <time>2026-06-23T01:25:58Z</time>
   </trkpt>
   <trkpt lat="-3.0844570" lon="37.3682380">
    <ele>5322.0</ele>
    <time>2026-06-23T01:25:59Z</time>
   </trkpt>
   <trkpt lat="-3.0844590" lon="37.3682390">
    <ele>5322.1</ele>
    <time>2026-06-23T01:26:01Z</time>
   </trkpt>
   <trkpt lat="-3.0844620" lon="37.3682370">
    <ele>5322.1</ele>
    <time>2026-06-23T01:26:02Z</time>
   </trkpt>
   <trkpt lat="-3.0844630" lon="37.3682350">
    <ele>5322.2</ele>
    <time>2026-06-23T01:26:03Z</time>
   </trkpt>
   <trkpt lat="-3.0844660" lon="37.3682340">
    <ele>5322.3</ele>
    <time>2026-06-23T01:26:04Z</time>
   </trkpt>
   <trkpt lat="-3.0844670" lon="37.3682320">
    <ele>5322.3</ele>
    <time>2026-06-23T01:26:05Z</time>
   </trkpt>
   <trkpt lat="-3.0844700" lon="37.3682300">
    <ele>5322.4</ele>
    <time>2026-06-23T01:26:06Z</time>
   </trkpt>
   <trkpt lat="-3.0844690" lon="37.3682280">
    <ele>5322.4</ele>
    <time>2026-06-23T01:26:07Z</time>
   </trkpt>
   <trkpt lat="-3.0844700" lon="37.3682280">
    <ele>5322.5</ele>
    <time>2026-06-23T01:26:08Z</time>
   </trkpt>
   <trkpt lat="-3.0844690" lon="37.3682280">
    <ele>5322.5</ele>
    <time>2026-06-23T01:26:09Z</time>
   </trkpt>
   <trkpt lat="-3.0844700" lon="37.3682280">
    <ele>5322.5</ele>
    <time>2026-06-23T01:26:10Z</time>
   </trkpt>
   <trkpt lat="-3.0844710" lon="37.3682250">
    <ele>5322.6</ele>
    <time>2026-06-23T01:26:11Z</time>
   </trkpt>
   <trkpt lat="-3.0844720" lon="37.3682220">
    <ele>5322.6</ele>
    <time>2026-06-23T01:26:12Z</time>
   </trkpt>
   <trkpt lat="-3.0844740" lon="37.3682180">
    <ele>5322.7</ele>
    <time>2026-06-23T01:26:13Z</time>
   </trkpt>
   <trkpt lat="-3.0844730" lon="37.3682150">
    <ele>5322.8</ele>
    <time>2026-06-23T01:26:14Z</time>
   </trkpt>
   <trkpt lat="-3.0844750" lon="37.3682130">
    <ele>5322.9</ele>
    <time>2026-06-23T01:26:15Z</time>
   </trkpt>
   <trkpt lat="-3.0844750" lon="37.3682130">
    <ele>5322.9</ele>
    <time>2026-06-23T01:26:16Z</time>
   </trkpt>
   <trkpt lat="-3.0844750" lon="37.3682100">
    <ele>5322.9</ele>
    <time>2026-06-23T01:26:17Z</time>
   </trkpt>
   <trkpt lat="-3.0844760" lon="37.3682080">
    <ele>5323.0</ele>
    <time>2026-06-23T01:26:18Z</time>
   </trkpt>
   <trkpt lat="-3.0844790" lon="37.3682050">
    <ele>5323.1</ele>
    <time>2026-06-23T01:26:19Z</time>
   </trkpt>
   <trkpt lat="-3.0844770" lon="37.3682040">
    <ele>5323.1</ele>
    <time>2026-06-23T01:26:20Z</time>
   </trkpt>
   <trkpt lat="-3.0844780" lon="37.3682020">
    <ele>5323.2</ele>
    <time>2026-06-23T01:26:21Z</time>
   </trkpt>
   <trkpt lat="-3.0844790" lon="37.3682020">
    <ele>5323.2</ele>
    <time>2026-06-23T01:26:22Z</time>
   </trkpt>
   <trkpt lat="-3.0844770" lon="37.3682000">
    <ele>5323.3</ele>
    <time>2026-06-23T01:26:23Z</time>
   </trkpt>
   <trkpt lat="-3.0844780" lon="37.3681990">
    <ele>5323.3</ele>
    <time>2026-06-23T01:26:24Z</time>
   </trkpt>
   <trkpt lat="-3.0844780" lon="37.3681970">
    <ele>5323.3</ele>
    <time>2026-06-23T01:26:25Z</time>
   </trkpt>
   <trkpt lat="-3.0844780" lon="37.3681940">
    <ele>5323.4</ele>
    <time>2026-06-23T01:26:26Z</time>
   </trkpt>
   <trkpt lat="-3.0844760" lon="37.3681910">
    <ele>5323.5</ele>
    <time>2026-06-23T01:26:27Z</time>
   </trkpt>
   <trkpt lat="-3.0844740" lon="37.3681890">
    <ele>5323.5</ele>
    <time>2026-06-23T01:26:28Z</time>
   </trkpt>
   <trkpt lat="-3.0844730" lon="37.3681880">
    <ele>5323.6</ele>
    <time>2026-06-23T01:26:29Z</time>
   </trkpt>
   <trkpt lat="-3.0844710" lon="37.3681870">
    <ele>5323.6</ele>
    <time>2026-06-23T01:26:30Z</time>
   </trkpt>
   <trkpt lat="-3.0844720" lon="37.3681870">
    <ele>5323.6</ele>
    <time>2026-06-23T01:26:31Z</time>
   </trkpt>
   <trkpt lat="-3.0844720" lon="37.3681870">
    <ele>5323.6</ele>
    <time>2026-06-23T01:26:32Z</time>
   </trkpt>
   <trkpt lat="-3.0844690" lon="37.3681850">
    <ele>5323.7</ele>
    <time>2026-06-23T01:26:33Z</time>
   </trkpt>
   <trkpt lat="-3.0844680" lon="37.3681850">
    <ele>5323.7</ele>
    <time>2026-06-23T01:26:34Z</time>
   </trkpt>
   <trkpt lat="-3.0844670" lon="37.3681840">
    <ele>5323.8</ele>
    <time>2026-06-23T01:26:35Z</time>
   </trkpt>
   <trkpt lat="-3.0844670" lon="37.3681840">
    <ele>5323.8</ele>
    <time>2026-06-23T01:26:36Z</time>
   </trkpt>
   <trkpt lat="-3.0844660" lon="37.3681840">
    <ele>5323.8</ele>
    <time>2026-06-23T01:26:37Z</time>
   </trkpt>
   <trkpt lat="-3.0844660" lon="37.3681840">
    <ele>5323.8</ele>
    <time>2026-06-23T01:26:38Z</time>
   </trkpt>
   <trkpt lat="-3.0844660" lon="37.3681840">
    <ele>5323.8</ele>
    <time>2026-06-23T01:26:39Z</time>
   </trkpt>
   <trkpt lat="-3.0844640" lon="37.3681800">
    <ele>5323.9</ele>
    <time>2026-06-23T01:26:40Z</time>
   </trkpt>
   <trkpt lat="-3.0844640" lon="37.3681780">
    <ele>5323.9</ele>
    <time>2026-06-23T01:26:41Z</time>
   </trkpt>
   <trkpt lat="-3.0844640" lon="37.3681750">
    <ele>5324.0</ele>
    <time>2026-06-23T01:26:42Z</time>
   </trkpt>
   <trkpt lat="-3.0844640" lon="37.3681740">
    <ele>5324.0</ele>
    <time>2026-06-23T01:26:43Z</time>
   </trkpt>
   <trkpt lat="-3.0844640" lon="37.3681730">
    <ele>5324.1</ele>
    <time>2026-06-23T01:26:44Z</time>
   </trkpt>
   <trkpt lat="-3.0844660" lon="37.3681720">
    <ele>5324.1</ele>
    <time>2026-06-23T01:26:45Z</time>
   </trkpt>
   <trkpt lat="-3.0844640" lon="37.3681700">
    <ele>5324.2</ele>
    <time>2026-06-23T01:26:46Z</time>
   </trkpt>
   <trkpt lat="-3.0844650" lon="37.3681700">
    <ele>5324.2</ele>
    <time>2026-06-23T01:26:47Z</time>
   </trkpt>
   <trkpt lat="-3.0844640" lon="37.3681680">
    <ele>5324.2</ele>
    <time>2026-06-23T01:26:48Z</time>
   </trkpt>
   <trkpt lat="-3.0844640" lon="37.3681680">
    <ele>5324.2</ele>
    <time>2026-06-23T01:26:49Z</time>
   </trkpt>
   <trkpt lat="-3.0844650" lon="37.3681660">
    <ele>5324.3</ele>
    <time>2026-06-23T01:26:50Z</time>
   </trkpt>
   <trkpt lat="-3.0844630" lon="37.3681620">
    <ele>5324.4</ele>
    <time>2026-06-23T01:26:51Z</time>
   </trkpt>
   <trkpt lat="-3.0844620" lon="37.3681620">
    <ele>5324.4</ele>
    <time>2026-06-23T01:26:52Z</time>
   </trkpt>
   <trkpt lat="-3.0844620" lon="37.3681610">
    <ele>5324.4</ele>
    <time>2026-06-23T01:26:53Z</time>
   </trkpt>
   <trkpt lat="-3.0844610" lon="37.3681610">
    <ele>5324.5</ele>
    <time>2026-06-23T01:26:54Z</time>
   </trkpt>
   <trkpt lat="-3.0844620" lon="37.3681610">
    <ele>5324.5</ele>
    <time>2026-06-23T01:26:55Z</time>
   </trkpt>
   <trkpt lat="-3.0844620" lon="37.3681610">
    <ele>5324.5</ele>
    <time>2026-06-23T01:26:56Z</time>
   </trkpt>
   <trkpt lat="-3.0844620" lon="37.3681610">
    <ele>5324.5</ele>
    <time>2026-06-23T01:26:57Z</time>
   </trkpt>
   <trkpt lat="-3.0844620" lon="37.3681610">
    <ele>5324.5</ele>
    <time>2026-06-23T01:26:58Z</time>
   </trkpt>
   <trkpt lat="-3.0844620" lon="37.3681610">
    <ele>5324.5</ele>
    <time>2026-06-23T01:26:59Z</time>
   </trkpt>
   <trkpt lat="-3.0844620" lon="37.3681610">
    <ele>5324.5</ele>
    <time>2026-06-23T01:27:00Z</time>
   </trkpt>
   <trkpt lat="-3.0844620" lon="37.3681610">
    <ele>5324.5</ele>
    <time>2026-06-23T01:27:01Z</time>
   </trkpt>
   <trkpt lat="-3.0844620" lon="37.3681610">
    <ele>5324.5</ele>
    <time>2026-06-23T01:27:02Z</time>
   </trkpt>
   <trkpt lat="-3.0844620" lon="37.3681610">
    <ele>5324.5</ele>
    <time>2026-06-23T01:27:03Z</time>
   </trkpt>
   <trkpt lat="-3.0844620" lon="37.3681610">
    <ele>5324.5</ele>
    <time>2026-06-23T01:27:04Z</time>
   </trkpt>
   <trkpt lat="-3.0844610" lon="37.3681610">
    <ele>5324.5</ele>
    <time>2026-06-23T01:27:05Z</time>
   </trkpt>
   <trkpt lat="-3.0844610" lon="37.3681610">
    <ele>5324.5</ele>
    <time>2026-06-23T01:27:06Z</time>
   </trkpt>
   <trkpt lat="-3.0844610" lon="37.3681610">
    <ele>5324.5</ele>
    <time>2026-06-23T01:27:07Z</time>
   </trkpt>
   <trkpt lat="-3.0844600" lon="37.3681610">
    <ele>5324.5</ele>
    <time>2026-06-23T01:27:08Z</time>
   </trkpt>
   <trkpt lat="-3.0844600" lon="37.3681610">
    <ele>5324.5</ele>
    <time>2026-06-23T01:27:09Z</time>
   </trkpt>
   <trkpt lat="-3.0844580" lon="37.3681610">
    <ele>5324.6</ele>
    <time>2026-06-23T01:27:10Z</time>
   </trkpt>
   <trkpt lat="-3.0844570" lon="37.3681600">
    <ele>5324.6</ele>
    <time>2026-06-23T01:27:11Z</time>
   </trkpt>
   <trkpt lat="-3.0844500" lon="37.3681600">
    <ele>5324.7</ele>
    <time>2026-06-23T01:27:12Z</time>
   </trkpt>
   <trkpt lat="-3.0844500" lon="37.3681610">
    <ele>5324.8</ele>
    <time>2026-06-23T01:27:13Z</time>
   </trkpt>
   <trkpt lat="-3.0844500" lon="37.3681580">
    <ele>5324.8</ele>
    <time>2026-06-23T01:27:14Z</time>
   </trkpt>
   <trkpt lat="-3.0844520" lon="37.3681560">
    <ele>5324.9</ele>
    <time>2026-06-23T01:27:15Z</time>
   </trkpt>
   <trkpt lat="-3.0844530" lon="37.3681550">
    <ele>5324.9</ele>
    <time>2026-06-23T01:27:16Z</time>
   </trkpt>
   <trkpt lat="-3.0844570" lon="37.3681540">
    <ele>5325.0</ele>
    <time>2026-06-23T01:27:17Z</time>
   </trkpt>
   <trkpt lat="-3.0844590" lon="37.3681530">
    <ele>5325.1</ele>
    <time>2026-06-23T01:27:18Z</time>
   </trkpt>
   <trkpt lat="-3.0844580" lon="37.3681520">
    <ele>5325.1</ele>
    <time>2026-06-23T01:27:19Z</time>
   </trkpt>
   <trkpt lat="-3.0844600" lon="37.3681510">
    <ele>5325.2</ele>
    <time>2026-06-23T01:27:20Z</time>
   </trkpt>
   <trkpt lat="-3.0844600" lon="37.3681510">
    <ele>5325.2</ele>
    <time>2026-06-23T01:27:21Z</time>
   </trkpt>
   <trkpt lat="-3.0844600" lon="37.3681490">
    <ele>5325.2</ele>
    <time>2026-06-23T01:27:22Z</time>
   </trkpt>
   <trkpt lat="-3.0844600" lon="37.3681450">
    <ele>5325.3</ele>
    <time>2026-06-23T01:27:23Z</time>
   </trkpt>
   <trkpt lat="-3.0844600" lon="37.3681440">
    <ele>5325.3</ele>
    <time>2026-06-23T01:27:24Z</time>
   </trkpt>
   <trkpt lat="-3.0844610" lon="37.3681430">
    <ele>5325.3</ele>
    <time>2026-06-23T01:27:25Z</time>
   </trkpt>
   <trkpt lat="-3.0844600" lon="37.3681410">
    <ele>5325.4</ele>
    <time>2026-06-23T01:27:26Z</time>
   </trkpt>
   <trkpt lat="-3.0844600" lon="37.3681410">
    <ele>5325.4</ele>
    <time>2026-06-23T01:27:27Z</time>
   </trkpt>
   <trkpt lat="-3.0844620" lon="37.3681380">
    <ele>5325.5</ele>
    <time>2026-06-23T01:27:28Z</time>
   </trkpt>
   <trkpt lat="-3.0844620" lon="37.3681370">
    <ele>5325.5</ele>
    <time>2026-06-23T01:27:29Z</time>
   </trkpt>
   <trkpt lat="-3.0844640" lon="37.3681340">
    <ele>5325.6</ele>
    <time>2026-06-23T01:27:30Z</time>
   </trkpt>
   <trkpt lat="-3.0844660" lon="37.3681330">
    <ele>5325.6</ele>
    <time>2026-06-23T01:27:31Z</time>
   </trkpt>
   <trkpt lat="-3.0844670" lon="37.3681310">
    <ele>5325.7</ele>
    <time>2026-06-23T01:27:32Z</time>
   </trkpt>
   <trkpt lat="-3.0844680" lon="37.3681260">
    <ele>5325.8</ele>
    <time>2026-06-23T01:27:33Z</time>
   </trkpt>
   <trkpt lat="-3.0844670" lon="37.3681250">
    <ele>5325.8</ele>
    <time>2026-06-23T01:27:34Z</time>
   </trkpt>
   <trkpt lat="-3.0844680" lon="37.3681240">
    <ele>5325.8</ele>
    <time>2026-06-23T01:27:35Z</time>
   </trkpt>
   <trkpt lat="-3.0844690" lon="37.3681220">
    <ele>5325.9</ele>
    <time>2026-06-23T01:27:36Z</time>
   </trkpt>
   <trkpt lat="-3.0844700" lon="37.3681210">
    <ele>5325.9</ele>
    <time>2026-06-23T01:27:37Z</time>
   </trkpt>
   <trkpt lat="-3.0844700" lon="37.3681190">
    <ele>5326.0</ele>
    <time>2026-06-23T01:27:38Z</time>
   </trkpt>
   <trkpt lat="-3.0844700" lon="37.3681190">
    <ele>5326.0</ele>
    <time>2026-06-23T01:27:39Z</time>
   </trkpt>
   <trkpt lat="-3.0844730" lon="37.3681190">
    <ele>5326.0</ele>
    <time>2026-06-23T01:27:40Z</time>
   </trkpt>
   <trkpt lat="-3.0844710" lon="37.3681170">
    <ele>5326.1</ele>
    <time>2026-06-23T01:27:41Z</time>
   </trkpt>
   <trkpt lat="-3.0844730" lon="37.3681120">
    <ele>5326.2</ele>
    <time>2026-06-23T01:27:42Z</time>
   </trkpt>
   <trkpt lat="-3.0844710" lon="37.3681080">
    <ele>5326.3</ele>
    <time>2026-06-23T01:27:43Z</time>
   </trkpt>
   <trkpt lat="-3.0844700" lon="37.3681040">
    <ele>5326.4</ele>
    <time>2026-06-23T01:27:44Z</time>
   </trkpt>
   <trkpt lat="-3.0844700" lon="37.3681020">
    <ele>5326.4</ele>
    <time>2026-06-23T01:27:45Z</time>
   </trkpt>
   <trkpt lat="-3.0844660" lon="37.3681020">
    <ele>5326.5</ele>
    <time>2026-06-23T01:27:46Z</time>
   </trkpt>
   <trkpt lat="-3.0844640" lon="37.3681020">
    <ele>5326.6</ele>
    <time>2026-06-23T01:27:47Z</time>
   </trkpt>
   <trkpt lat="-3.0844640" lon="37.3681020">
    <ele>5326.6</ele>
    <time>2026-06-23T01:27:48Z</time>
   </trkpt>
   <trkpt lat="-3.0844620" lon="37.3681030">
    <ele>5326.6</ele>
    <time>2026-06-23T01:27:49Z</time>
   </trkpt>
   <trkpt lat="-3.0844610" lon="37.3681030">
    <ele>5326.7</ele>
    <time>2026-06-23T01:27:50Z</time>
   </trkpt>
   <trkpt lat="-3.0844550" lon="37.3681060">
    <ele>5326.8</ele>
    <time>2026-06-23T01:27:51Z</time>
   </trkpt>
   <trkpt lat="-3.0844580" lon="37.3681080">
    <ele>5326.9</ele>
    <time>2026-06-23T01:27:52Z</time>
   </trkpt>
   <trkpt lat="-3.0844570" lon="37.3681110">
    <ele>5326.9</ele>
    <time>2026-06-23T01:27:53Z</time>
   </trkpt>
   <trkpt lat="-3.0844540" lon="37.3681120">
    <ele>5327.0</ele>
    <time>2026-06-23T01:27:54Z</time>
   </trkpt>
   <trkpt lat="-3.0844530" lon="37.3681100">
    <ele>5327.1</ele>
    <time>2026-06-23T01:27:55Z</time>
   </trkpt>
   <trkpt lat="-3.0844510" lon="37.3681140">
    <ele>5327.1</ele>
    <time>2026-06-23T01:27:56Z</time>
   </trkpt>
   <trkpt lat="-3.0844500" lon="37.3681170">
    <ele>5327.2</ele>
    <time>2026-06-23T01:27:57Z</time>
   </trkpt>
   <trkpt lat="-3.0844510" lon="37.3681180">
    <ele>5327.2</ele>
    <time>2026-06-23T01:27:58Z</time>
   </trkpt>
   <trkpt lat="-3.0844470" lon="37.3681200">
    <ele>5327.3</ele>
    <time>2026-06-23T01:27:59Z</time>
   </trkpt>
   <trkpt lat="-3.0844470" lon="37.3681220">
    <ele>5327.4</ele>
    <time>2026-06-23T01:28:00Z</time>
   </trkpt>
   <trkpt lat="-3.0844430" lon="37.3681230">
    <ele>5327.5</ele>
    <time>2026-06-23T01:28:01Z</time>
   </trkpt>
   <trkpt lat="-3.0844420" lon="37.3681240">
    <ele>5327.5</ele>
    <time>2026-06-23T01:28:02Z</time>
   </trkpt>
   <trkpt lat="-3.0844410" lon="37.3681230">
    <ele>5327.5</ele>
    <time>2026-06-23T01:28:03Z</time>
   </trkpt>
   <trkpt lat="-3.0844370" lon="37.3681230">
    <ele>5327.6</ele>
    <time>2026-06-23T01:28:04Z</time>
   </trkpt>
   <trkpt lat="-3.0844380" lon="37.3681190">
    <ele>5327.7</ele>
    <time>2026-06-23T01:28:05Z</time>
   </trkpt>
   <trkpt lat="-3.0844320" lon="37.3681240">
    <ele>5327.8</ele>
    <time>2026-06-23T01:28:07Z</time>
   </trkpt>
   <trkpt lat="-3.0844330" lon="37.3681240">
    <ele>5327.9</ele>
    <time>2026-06-23T01:28:08Z</time>
   </trkpt>
   <trkpt lat="-3.0844300" lon="37.3681240">
    <ele>5327.9</ele>
    <time>2026-06-23T01:28:09Z</time>
   </trkpt>
   <trkpt lat="-3.0844280" lon="37.3681260">
    <ele>5328.0</ele>
    <time>2026-06-23T01:28:10Z</time>
   </trkpt>
   <trkpt lat="-3.0844260" lon="37.3681260">
    <ele>5328.0</ele>
    <time>2026-06-23T01:28:11Z</time>
   </trkpt>
   <trkpt lat="-3.0844250" lon="37.3681270">
    <ele>5328.1</ele>
    <time>2026-06-23T01:28:12Z</time>
   </trkpt>
   <trkpt lat="-3.0844210" lon="37.3681270">
    <ele>5328.1</ele>
    <time>2026-06-23T01:28:13Z</time>
   </trkpt>
   <trkpt lat="-3.0844210" lon="37.3681270">
    <ele>5328.1</ele>
    <time>2026-06-23T01:28:14Z</time>
   </trkpt>
   <trkpt lat="-3.0844200" lon="37.3681270">
    <ele>5328.2</ele>
    <time>2026-06-23T01:28:15Z</time>
   </trkpt>
   <trkpt lat="-3.0844190" lon="37.3681280">
    <ele>5328.2</ele>
    <time>2026-06-23T01:28:16Z</time>
   </trkpt>
   <trkpt lat="-3.0844170" lon="37.3681270">
    <ele>5328.2</ele>
    <time>2026-06-23T01:28:17Z</time>
   </trkpt>
   <trkpt lat="-3.0844150" lon="37.3681280">
    <ele>5328.3</ele>
    <time>2026-06-23T01:28:18Z</time>
   </trkpt>
   <trkpt lat="-3.0844140" lon="37.3681270">
    <ele>5328.3</ele>
    <time>2026-06-23T01:28:19Z</time>
   </trkpt>
   <trkpt lat="-3.0844110" lon="37.3681280">
    <ele>5328.4</ele>
    <time>2026-06-23T01:28:20Z</time>
   </trkpt>
   <trkpt lat="-3.0844100" lon="37.3681290">
    <ele>5328.4</ele>
    <time>2026-06-23T01:28:21Z</time>
   </trkpt>
   <trkpt lat="-3.0844080" lon="37.3681310">
    <ele>5328.5</ele>
    <time>2026-06-23T01:28:22Z</time>
   </trkpt>
   <trkpt lat="-3.0844060" lon="37.3681330">
    <ele>5328.5</ele>
    <time>2026-06-23T01:28:23Z</time>
   </trkpt>
   <trkpt lat="-3.0844050" lon="37.3681320">
    <ele>5328.6</ele>
    <time>2026-06-23T01:28:24Z</time>
   </trkpt>
   <trkpt lat="-3.0844030" lon="37.3681330">
    <ele>5328.6</ele>
    <time>2026-06-23T01:28:25Z</time>
   </trkpt>
   <trkpt lat="-3.0844020" lon="37.3681330">
    <ele>5328.6</ele>
    <time>2026-06-23T01:28:26Z</time>
   </trkpt>
   <trkpt lat="-3.0844000" lon="37.3681340">
    <ele>5328.7</ele>
    <time>2026-06-23T01:28:27Z</time>
   </trkpt>
   <trkpt lat="-3.0844000" lon="37.3681330">
    <ele>5328.7</ele>
    <time>2026-06-23T01:28:28Z</time>
   </trkpt>
   <trkpt lat="-3.0843970" lon="37.3681340">
    <ele>5328.7</ele>
    <time>2026-06-23T01:28:29Z</time>
   </trkpt>
   <trkpt lat="-3.0843950" lon="37.3681350">
    <ele>5328.8</ele>
    <time>2026-06-23T01:28:30Z</time>
   </trkpt>
   <trkpt lat="-3.0843930" lon="37.3681350">
    <ele>5328.8</ele>
    <time>2026-06-23T01:28:31Z</time>
   </trkpt>
   <trkpt lat="-3.0843920" lon="37.3681360">
    <ele>5328.9</ele>
    <time>2026-06-23T01:28:32Z</time>
   </trkpt>
   <trkpt lat="-3.0843910" lon="37.3681360">
    <ele>5328.9</ele>
    <time>2026-06-23T01:28:33Z</time>
   </trkpt>
   <trkpt lat="-3.0843880" lon="37.3681370">
    <ele>5329.0</ele>
    <time>2026-06-23T01:28:34Z</time>
   </trkpt>
   <trkpt lat="-3.0843870" lon="37.3681370">
    <ele>5329.0</ele>
    <time>2026-06-23T01:28:35Z</time>
   </trkpt>
   <trkpt lat="-3.0843840" lon="37.3681380">
    <ele>5329.0</ele>
    <time>2026-06-23T01:28:36Z</time>
   </trkpt>
   <trkpt lat="-3.0843840" lon="37.3681380">
    <ele>5329.0</ele>
    <time>2026-06-23T01:28:37Z</time>
   </trkpt>
   <trkpt lat="-3.0843820" lon="37.3681390">
    <ele>5329.1</ele>
    <time>2026-06-23T01:28:38Z</time>
   </trkpt>
   <trkpt lat="-3.0843800" lon="37.3681400">
    <ele>5329.1</ele>
    <time>2026-06-23T01:28:39Z</time>
   </trkpt>
   <trkpt lat="-3.0843780" lon="37.3681400">
    <ele>5329.2</ele>
    <time>2026-06-23T01:28:40Z</time>
   </trkpt>
   <trkpt lat="-3.0843760" lon="37.3681420">
    <ele>5329.2</ele>
    <time>2026-06-23T01:28:41Z</time>
   </trkpt>
   <trkpt lat="-3.0843750" lon="37.3681420">
    <ele>5329.2</ele>
    <time>2026-06-23T01:28:42Z</time>
   </trkpt>
   <trkpt lat="-3.0843740" lon="37.3681430">
    <ele>5329.3</ele>
    <time>2026-06-23T01:28:43Z</time>
   </trkpt>
   <trkpt lat="-3.0843720" lon="37.3681430">
    <ele>5329.3</ele>
    <time>2026-06-23T01:28:44Z</time>
   </trkpt>
   <trkpt lat="-3.0843710" lon="37.3681410">
    <ele>5329.4</ele>
    <time>2026-06-23T01:28:45Z</time>
   </trkpt>
   <trkpt lat="-3.0843710" lon="37.3681410">
    <ele>5329.4</ele>
    <time>2026-06-23T01:28:46Z</time>
   </trkpt>
   <trkpt lat="-3.0843680" lon="37.3681410">
    <ele>5329.4</ele>
    <time>2026-06-23T01:28:47Z</time>
   </trkpt>
   <trkpt lat="-3.0843660" lon="37.3681410">
    <ele>5329.5</ele>
    <time>2026-06-23T01:28:48Z</time>
   </trkpt>
   <trkpt lat="-3.0843640" lon="37.3681410">
    <ele>5329.5</ele>
    <time>2026-06-23T01:28:49Z</time>
   </trkpt>
   <trkpt lat="-3.0843630" lon="37.3681400">
    <ele>5329.5</ele>
    <time>2026-06-23T01:28:50Z</time>
   </trkpt>
   <trkpt lat="-3.0843600" lon="37.3681390">
    <ele>5329.6</ele>
    <time>2026-06-23T01:28:51Z</time>
   </trkpt>
   <trkpt lat="-3.0843580" lon="37.3681370">
    <ele>5329.7</ele>
    <time>2026-06-23T01:28:52Z</time>
   </trkpt>
   <trkpt lat="-3.0843570" lon="37.3681360">
    <ele>5329.7</ele>
    <time>2026-06-23T01:28:53Z</time>
   </trkpt>
   <trkpt lat="-3.0843590" lon="37.3681350">
    <ele>5329.7</ele>
    <time>2026-06-23T01:28:54Z</time>
   </trkpt>
   <trkpt lat="-3.0843580" lon="37.3681330">
    <ele>5329.8</ele>
    <time>2026-06-23T01:28:55Z</time>
   </trkpt>
   <trkpt lat="-3.0843600" lon="37.3681320">
    <ele>5329.8</ele>
    <time>2026-06-23T01:28:56Z</time>
   </trkpt>
   <trkpt lat="-3.0843600" lon="37.3681330">
    <ele>5329.8</ele>
    <time>2026-06-23T01:28:57Z</time>
   </trkpt>
   <trkpt lat="-3.0843590" lon="37.3681310">
    <ele>5329.9</ele>
    <time>2026-06-23T01:28:58Z</time>
   </trkpt>
   <trkpt lat="-3.0843590" lon="37.3681310">
    <ele>5329.9</ele>
    <time>2026-06-23T01:28:59Z</time>
   </trkpt>
   <trkpt lat="-3.0843600" lon="37.3681320">
    <ele>5329.9</ele>
    <time>2026-06-23T01:29:00Z</time>
   </trkpt>
   <trkpt lat="-3.0843590" lon="37.3681320">
    <ele>5329.9</ele>
    <time>2026-06-23T01:29:01Z</time>
   </trkpt>
   <trkpt lat="-3.0843580" lon="37.3681330">
    <ele>5330.0</ele>
    <time>2026-06-23T01:29:02Z</time>
   </trkpt>
   <trkpt lat="-3.0843590" lon="37.3681320">
    <ele>5330.0</ele>
    <time>2026-06-23T01:29:03Z</time>
   </trkpt>
   <trkpt lat="-3.0843600" lon="37.3681320">
    <ele>5330.0</ele>
    <time>2026-06-23T01:29:04Z</time>
   </trkpt>
   <trkpt lat="-3.0843600" lon="37.3681320">
    <ele>5330.0</ele>
    <time>2026-06-23T01:29:05Z</time>
   </trkpt>
   <trkpt lat="-3.0843600" lon="37.3681330">
    <ele>5330.0</ele>
    <time>2026-06-23T01:29:06Z</time>
   </trkpt>
   <trkpt lat="-3.0843600" lon="37.3681330">
    <ele>5330.0</ele>
    <time>2026-06-23T01:29:07Z</time>
   </trkpt>
   <trkpt lat="-3.0843600" lon="37.3681330">
    <ele>5330.0</ele>
    <time>2026-06-23T01:29:08Z</time>
   </trkpt>
   <trkpt lat="-3.0843600" lon="37.3681330">
    <ele>5330.0</ele>
    <time>2026-06-23T01:29:09Z</time>
   </trkpt>
   <trkpt lat="-3.0843620" lon="37.3681320">
    <ele>5330.1</ele>
    <time>2026-06-23T01:29:10Z</time>
   </trkpt>
   <trkpt lat="-3.0843610" lon="37.3681310">
    <ele>5330.1</ele>
    <time>2026-06-23T01:29:11Z</time>
   </trkpt>
   <trkpt lat="-3.0843560" lon="37.3681300">
    <ele>5330.2</ele>
    <time>2026-06-23T01:29:12Z</time>
   </trkpt>
   <trkpt lat="-3.0843600" lon="37.3681330">
    <ele>5330.3</ele>
    <time>2026-06-23T01:29:13Z</time>
   </trkpt>
   <trkpt lat="-3.0843600" lon="37.3681320">
    <ele>5330.3</ele>
    <time>2026-06-23T01:29:14Z</time>
   </trkpt>
   <trkpt lat="-3.0843610" lon="37.3681300">
    <ele>5330.4</ele>
    <time>2026-06-23T01:29:15Z</time>
   </trkpt>
   <trkpt lat="-3.0843610" lon="37.3681300">
    <ele>5330.4</ele>
    <time>2026-06-23T01:29:16Z</time>
   </trkpt>
   <trkpt lat="-3.0843610" lon="37.3681300">
    <ele>5330.4</ele>
    <time>2026-06-23T01:29:17Z</time>
   </trkpt>
   <trkpt lat="-3.0843610" lon="37.3681300">
    <ele>5330.4</ele>
    <time>2026-06-23T01:29:18Z</time>
   </trkpt>
   <trkpt lat="-3.0843610" lon="37.3681300">
    <ele>5330.4</ele>
    <time>2026-06-23T01:29:19Z</time>
   </trkpt>
   <trkpt lat="-3.0843620" lon="37.3681310">
    <ele>5330.4</ele>
    <time>2026-06-23T01:29:20Z</time>
   </trkpt>
   <trkpt lat="-3.0843620" lon="37.3681310">
    <ele>5330.4</ele>
    <time>2026-06-23T01:29:21Z</time>
   </trkpt>
   <trkpt lat="-3.0843620" lon="37.3681310">
    <ele>5330.4</ele>
    <time>2026-06-23T01:29:22Z</time>
   </trkpt>
   <trkpt lat="-3.0843620" lon="37.3681310">
    <ele>5330.4</ele>
    <time>2026-06-23T01:29:23Z</time>
   </trkpt>
   <trkpt lat="-3.0843620" lon="37.3681310">
    <ele>5330.4</ele>
    <time>2026-06-23T01:29:24Z</time>
   </trkpt>
   <trkpt lat="-3.0843620" lon="37.3681310">
    <ele>5330.4</ele>
    <time>2026-06-23T01:29:25Z</time>
   </trkpt>
   <trkpt lat="-3.0843620" lon="37.3681310">
    <ele>5330.4</ele>
    <time>2026-06-23T01:29:26Z</time>
   </trkpt>
   <trkpt lat="-3.0843620" lon="37.3681310">
    <ele>5330.4</ele>
    <time>2026-06-23T01:29:27Z</time>
   </trkpt>
   <trkpt lat="-3.0843630" lon="37.3681320">
    <ele>5330.5</ele>
    <time>2026-06-23T01:29:28Z</time>
   </trkpt>
   <trkpt lat="-3.0843630" lon="37.3681320">
    <ele>5330.5</ele>
    <time>2026-06-23T01:29:29Z</time>
   </trkpt>
   <trkpt lat="-3.0843630" lon="37.3681310">
    <ele>5330.5</ele>
    <time>2026-06-23T01:29:30Z</time>
   </trkpt>
   <trkpt lat="-3.0843630" lon="37.3681310">
    <ele>5330.5</ele>
    <time>2026-06-23T01:29:31Z</time>
   </trkpt>
   <trkpt lat="-3.0843600" lon="37.3681320">
    <ele>5330.5</ele>
    <time>2026-06-23T01:29:32Z</time>
   </trkpt>
   <trkpt lat="-3.0843600" lon="37.3681310">
    <ele>5330.6</ele>
    <time>2026-06-23T01:29:33Z</time>
   </trkpt>
   <trkpt lat="-3.0843610" lon="37.3681310">
    <ele>5330.6</ele>
    <time>2026-06-23T01:29:34Z</time>
   </trkpt>
   <trkpt lat="-3.0843610" lon="37.3681310">
    <ele>5330.6</ele>
    <time>2026-06-23T01:29:35Z</time>
   </trkpt>
   <trkpt lat="-3.0843610" lon="37.3681310">
    <ele>5330.6</ele>
    <time>2026-06-23T01:29:36Z</time>
   </trkpt>
   <trkpt lat="-3.0843610" lon="37.3681310">
    <ele>5330.6</ele>
    <time>2026-06-23T01:29:37Z</time>
   </trkpt>
   <trkpt lat="-3.0843610" lon="37.3681310">
    <ele>5330.6</ele>
    <time>2026-06-23T01:29:38Z</time>
   </trkpt>
   <trkpt lat="-3.0843610" lon="37.3681310">
    <ele>5330.6</ele>
    <time>2026-06-23T01:29:39Z</time>
   </trkpt>
   <trkpt lat="-3.0843610" lon="37.3681310">
    <ele>5330.6</ele>
    <time>2026-06-23T01:29:40Z</time>
   </trkpt>
   <trkpt lat="-3.0843610" lon="37.3681310">
    <ele>5330.6</ele>
    <time>2026-06-23T01:29:41Z</time>
   </trkpt>
   <trkpt lat="-3.0843610" lon="37.3681310">
    <ele>5330.6</ele>
    <time>2026-06-23T01:29:42Z</time>
   </trkpt>
   <trkpt lat="-3.0843610" lon="37.3681310">
    <ele>5330.6</ele>
    <time>2026-06-23T01:29:43Z</time>
   </trkpt>
   <trkpt lat="-3.0843610" lon="37.3681310">
    <ele>5330.6</ele>
    <time>2026-06-23T01:29:44Z</time>
   </trkpt>
   <trkpt lat="-3.0843610" lon="37.3681310">
    <ele>5330.6</ele>
    <time>2026-06-23T01:29:45Z</time>
   </trkpt>
   <trkpt lat="-3.0843610" lon="37.3681310">
    <ele>5330.6</ele>
    <time>2026-06-23T01:29:46Z</time>
   </trkpt>
   <trkpt lat="-3.0843610" lon="37.3681310">
    <ele>5330.6</ele>
    <time>2026-06-23T01:29:47Z</time>
   </trkpt>
   <trkpt lat="-3.0843610" lon="37.3681310">
    <ele>5330.6</ele>
    <time>2026-06-23T01:29:48Z</time>
   </trkpt>
   <trkpt lat="-3.0843610" lon="37.3681310">
    <ele>5330.6</ele>
    <time>2026-06-23T01:29:49Z</time>
   </trkpt>
   <trkpt lat="-3.0843610" lon="37.3681310">
    <ele>5330.6</ele>
    <time>2026-06-23T01:29:50Z</time>
   </trkpt>
   <trkpt lat="-3.0843610" lon="37.3681310">
    <ele>5330.6</ele>
    <time>2026-06-23T01:29:51Z</time>
   </trkpt>
   <trkpt lat="-3.0843610" lon="37.3681310">
    <ele>5330.6</ele>
    <time>2026-06-23T01:29:52Z</time>
   </trkpt>
   <trkpt lat="-3.0843610" lon="37.3681310">
    <ele>5330.6</ele>
    <time>2026-06-23T01:29:53Z</time>
   </trkpt>
   <trkpt lat="-3.0843610" lon="37.3681310">
    <ele>5330.6</ele>
    <time>2026-06-23T01:29:54Z</time>
   </trkpt>
   <trkpt lat="-3.0843610" lon="37.3681310">
    <ele>5330.6</ele>
    <time>2026-06-23T01:29:55Z</time>
   </trkpt>
   <trkpt lat="-3.0843610" lon="37.3681310">
    <ele>5330.6</ele>
    <time>2026-06-23T01:29:56Z</time>
   </trkpt>
   <trkpt lat="-3.0843650" lon="37.3681270">
    <ele>5330.7</ele>
    <time>2026-06-23T01:29:57Z</time>
   </trkpt>
   <trkpt lat="-3.0843650" lon="37.3681270">
    <ele>5330.7</ele>
    <time>2026-06-23T01:29:58Z</time>
   </trkpt>
   <trkpt lat="-3.0843650" lon="37.3681260">
    <ele>5330.7</ele>
    <time>2026-06-23T01:29:59Z</time>
   </trkpt>
   <trkpt lat="-3.0843650" lon="37.3681260">
    <ele>5330.7</ele>
    <time>2026-06-23T01:30:00Z</time>
   </trkpt>
   <trkpt lat="-3.0843650" lon="37.3681270">
    <ele>5330.7</ele>
    <time>2026-06-23T01:30:01Z</time>
   </trkpt>
   <trkpt lat="-3.0843650" lon="37.3681260">
    <ele>5330.8</ele>
    <time>2026-06-23T01:30:02Z</time>
   </trkpt>
   <trkpt lat="-3.0843660" lon="37.3681260">
    <ele>5330.8</ele>
    <time>2026-06-23T01:30:03Z</time>
   </trkpt>
   <trkpt lat="-3.0843660" lon="37.3681260">
    <ele>5330.8</ele>
    <time>2026-06-23T01:30:04Z</time>
   </trkpt>
   <trkpt lat="-3.0843660" lon="37.3681250">
    <ele>5330.8</ele>
    <time>2026-06-23T01:30:05Z</time>
   </trkpt>
   <trkpt lat="-3.0843660" lon="37.3681250">
    <ele>5330.8</ele>
    <time>2026-06-23T01:30:06Z</time>
   </trkpt>
   <trkpt lat="-3.0843660" lon="37.3681250">
    <ele>5330.8</ele>
    <time>2026-06-23T01:30:07Z</time>
   </trkpt>
   <trkpt lat="-3.0843660" lon="37.3681250">
    <ele>5330.8</ele>
    <time>2026-06-23T01:30:08Z</time>
   </trkpt>
   <trkpt lat="-3.0843660" lon="37.3681250">
    <ele>5330.8</ele>
    <time>2026-06-23T01:30:09Z</time>
   </trkpt>
   <trkpt lat="-3.0843660" lon="37.3681260">
    <ele>5330.8</ele>
    <time>2026-06-23T01:30:10Z</time>
   </trkpt>
   <trkpt lat="-3.0843670" lon="37.3681250">
    <ele>5330.8</ele>
    <time>2026-06-23T01:30:11Z</time>
   </trkpt>
   <trkpt lat="-3.0843670" lon="37.3681250">
    <ele>5330.8</ele>
    <time>2026-06-23T01:30:13Z</time>
   </trkpt>
   <trkpt lat="-3.0843670" lon="37.3681250">
    <ele>5330.8</ele>
    <time>2026-06-23T01:30:14Z</time>
   </trkpt>
   <trkpt lat="-3.0843670" lon="37.3681260">
    <ele>5330.9</ele>
    <time>2026-06-23T01:30:15Z</time>
   </trkpt>
   <trkpt lat="-3.0843670" lon="37.3681250">
    <ele>5330.9</ele>
    <time>2026-06-23T01:30:16Z</time>
   </trkpt>
   <trkpt lat="-3.0843670" lon="37.3681250">
    <ele>5330.9</ele>
    <time>2026-06-23T01:30:17Z</time>
   </trkpt>
   <trkpt lat="-3.0843670" lon="37.3681250">
    <ele>5330.9</ele>
    <time>2026-06-23T01:30:18Z</time>
   </trkpt>
   <trkpt lat="-3.0843670" lon="37.3681250">
    <ele>5330.9</ele>
    <time>2026-06-23T01:30:19Z</time>
   </trkpt>
   <trkpt lat="-3.0843670" lon="37.3681250">
    <ele>5330.9</ele>
    <time>2026-06-23T01:30:20Z</time>
   </trkpt>
   <trkpt lat="-3.0843670" lon="37.3681250">
    <ele>5330.9</ele>
    <time>2026-06-23T01:30:21Z</time>
   </trkpt>
   <trkpt lat="-3.0843670" lon="37.3681250">
    <ele>5330.9</ele>
    <time>2026-06-23T01:30:22Z</time>
   </trkpt>
   <trkpt lat="-3.0843670" lon="37.3681250">
    <ele>5330.9</ele>
    <time>2026-06-23T01:30:23Z</time>
   </trkpt>
   <trkpt lat="-3.0843670" lon="37.3681250">
    <ele>5330.9</ele>
    <time>2026-06-23T01:30:24Z</time>
   </trkpt>
   <trkpt lat="-3.0843670" lon="37.3681250">
    <ele>5330.9</ele>
    <time>2026-06-23T01:30:25Z</time>
   </trkpt>
   <trkpt lat="-3.0843670" lon="37.3681250">
    <ele>5330.9</ele>
    <time>2026-06-23T01:30:26Z</time>
   </trkpt>
   <trkpt lat="-3.0843680" lon="37.3681240">
    <ele>5330.9</ele>
    <time>2026-06-23T01:30:27Z</time>
   </trkpt>
   <trkpt lat="-3.0843680" lon="37.3681240">
    <ele>5330.9</ele>
    <time>2026-06-23T01:30:28Z</time>
   </trkpt>
   <trkpt lat="-3.0843680" lon="37.3681240">
    <ele>5330.9</ele>
    <time>2026-06-23T01:30:29Z</time>
   </trkpt>
   <trkpt lat="-3.0843680" lon="37.3681220">
    <ele>5331.0</ele>
    <time>2026-06-23T01:30:30Z</time>
   </trkpt>
   <trkpt lat="-3.0843680" lon="37.3681240">
    <ele>5331.0</ele>
    <time>2026-06-23T01:30:31Z</time>
   </trkpt>
   <trkpt lat="-3.0843680" lon="37.3681240">
    <ele>5331.0</ele>
    <time>2026-06-23T01:30:32Z</time>
   </trkpt>
   <trkpt lat="-3.0843680" lon="37.3681240">
    <ele>5331.0</ele>
    <time>2026-06-23T01:30:33Z</time>
   </trkpt>
   <trkpt lat="-3.0843670" lon="37.3681240">
    <ele>5331.0</ele>
    <time>2026-06-23T01:30:34Z</time>
   </trkpt>
   <trkpt lat="-3.0843670" lon="37.3681240">
    <ele>5331.0</ele>
    <time>2026-06-23T01:30:35Z</time>
   </trkpt>
   <trkpt lat="-3.0843670" lon="37.3681240">
    <ele>5331.0</ele>
    <time>2026-06-23T01:30:36Z</time>
   </trkpt>
   <trkpt lat="-3.0843670" lon="37.3681240">
    <ele>5331.0</ele>
    <time>2026-06-23T01:30:37Z</time>
   </trkpt>
   <trkpt lat="-3.0843670" lon="37.3681240">
    <ele>5331.0</ele>
    <time>2026-06-23T01:30:38Z</time>
   </trkpt>
   <trkpt lat="-3.0843670" lon="37.3681240">
    <ele>5331.0</ele>
    <time>2026-06-23T01:30:39Z</time>
   </trkpt>
   <trkpt lat="-3.0843670" lon="37.3681240">
    <ele>5331.0</ele>
    <time>2026-06-23T01:30:40Z</time>
   </trkpt>
   <trkpt lat="-3.0843670" lon="37.3681250">
    <ele>5331.0</ele>
    <time>2026-06-23T01:30:41Z</time>
   </trkpt>
   <trkpt lat="-3.0843670" lon="37.3681250">
    <ele>5331.0</ele>
    <time>2026-06-23T01:30:42Z</time>
   </trkpt>
   <trkpt lat="-3.0843670" lon="37.3681260">
    <ele>5331.1</ele>
    <time>2026-06-23T01:30:43Z</time>
   </trkpt>
   <trkpt lat="-3.0843650" lon="37.3681250">
    <ele>5331.1</ele>
    <time>2026-06-23T01:30:44Z</time>
   </trkpt>
   <trkpt lat="-3.0843650" lon="37.3681250">
    <ele>5331.1</ele>
    <time>2026-06-23T01:30:45Z</time>
   </trkpt>
   <trkpt lat="-3.0843650" lon="37.3681260">
    <ele>5331.1</ele>
    <time>2026-06-23T01:30:46Z</time>
   </trkpt>
   <trkpt lat="-3.0843640" lon="37.3681270">
    <ele>5331.2</ele>
    <time>2026-06-23T01:30:47Z</time>
   </trkpt>
   <trkpt lat="-3.0843640" lon="37.3681280">
    <ele>5331.2</ele>
    <time>2026-06-23T01:30:48Z</time>
   </trkpt>
   <trkpt lat="-3.0843640" lon="37.3681260">
    <ele>5331.2</ele>
    <time>2026-06-23T01:30:49Z</time>
   </trkpt>
   <trkpt lat="-3.0843640" lon="37.3681250">
    <ele>5331.2</ele>
    <time>2026-06-23T01:30:50Z</time>
   </trkpt>
   <trkpt lat="-3.0843640" lon="37.3681260">
    <ele>5331.3</ele>
    <time>2026-06-23T01:30:51Z</time>
   </trkpt>
   <trkpt lat="-3.0843640" lon="37.3681260">
    <ele>5331.3</ele>
    <time>2026-06-23T01:30:52Z</time>
   </trkpt>
   <trkpt lat="-3.0843650" lon="37.3681260">
    <ele>5331.3</ele>
    <time>2026-06-23T01:30:53Z</time>
   </trkpt>
   <trkpt lat="-3.0843640" lon="37.3681260">
    <ele>5331.3</ele>
    <time>2026-06-23T01:30:54Z</time>
   </trkpt>
   <trkpt lat="-3.0843650" lon="37.3681260">
    <ele>5331.3</ele>
    <time>2026-06-23T01:30:55Z</time>
   </trkpt>
   <trkpt lat="-3.0843650" lon="37.3681260">
    <ele>5331.3</ele>
    <time>2026-06-23T01:30:56Z</time>
   </trkpt>
   <trkpt lat="-3.0843650" lon="37.3681260">
    <ele>5331.3</ele>
    <time>2026-06-23T01:30:57Z</time>
   </trkpt>
   <trkpt lat="-3.0843650" lon="37.3681260">
    <ele>5331.3</ele>
    <time>2026-06-23T01:30:58Z</time>
   </trkpt>
   <trkpt lat="-3.0843650" lon="37.3681260">
    <ele>5331.3</ele>
    <time>2026-06-23T01:30:59Z</time>
   </trkpt>
   <trkpt lat="-3.0843650" lon="37.3681260">
    <ele>5331.3</ele>
    <time>2026-06-23T01:31:00Z</time>
   </trkpt>
   <trkpt lat="-3.0843650" lon="37.3681260">
    <ele>5331.3</ele>
    <time>2026-06-23T01:31:01Z</time>
   </trkpt>
   <trkpt lat="-3.0843650" lon="37.3681260">
    <ele>5331.3</ele>
    <time>2026-06-23T01:31:02Z</time>
   </trkpt>
   <trkpt lat="-3.0843660" lon="37.3681280">
    <ele>5331.4</ele>
    <time>2026-06-23T01:31:03Z</time>
   </trkpt>
   <trkpt lat="-3.0843660" lon="37.3681280">
    <ele>5331.4</ele>
    <time>2026-06-23T01:31:04Z</time>
   </trkpt>
   <trkpt lat="-3.0843650" lon="37.3681280">
    <ele>5331.4</ele>
    <time>2026-06-23T01:31:05Z</time>
   </trkpt>
   <trkpt lat="-3.0843650" lon="37.3681280">
    <ele>5331.4</ele>
    <time>2026-06-23T01:31:06Z</time>
   </trkpt>
   <trkpt lat="-3.0843650" lon="37.3681280">
    <ele>5331.4</ele>
    <time>2026-06-23T01:31:07Z</time>
   </trkpt>
   <trkpt lat="-3.0843650" lon="37.3681290">
    <ele>5331.4</ele>
    <time>2026-06-23T01:31:08Z</time>
   </trkpt>
   <trkpt lat="-3.0843650" lon="37.3681280">
    <ele>5331.4</ele>
    <time>2026-06-23T01:31:09Z</time>
   </trkpt>
   <trkpt lat="-3.0843650" lon="37.3681280">
    <ele>5331.4</ele>
    <time>2026-06-23T01:31:10Z</time>
   </trkpt>
   <trkpt lat="-3.0843650" lon="37.3681280">
    <ele>5331.4</ele>
    <time>2026-06-23T01:31:11Z</time>
   </trkpt>
   <trkpt lat="-3.0843650" lon="37.3681280">
    <ele>5331.4</ele>
    <time>2026-06-23T01:31:12Z</time>
   </trkpt>
   <trkpt lat="-3.0843650" lon="37.3681280">
    <ele>5331.4</ele>
    <time>2026-06-23T01:31:13Z</time>
   </trkpt>
   <trkpt lat="-3.0843650" lon="37.3681280">
    <ele>5331.4</ele>
    <time>2026-06-23T01:31:14Z</time>
   </trkpt>
   <trkpt lat="-3.0843650" lon="37.3681280">
    <ele>5331.4</ele>
    <time>2026-06-23T01:31:15Z</time>
   </trkpt>
   <trkpt lat="-3.0843650" lon="37.3681280">
    <ele>5331.4</ele>
    <time>2026-06-23T01:31:16Z</time>
   </trkpt>
   <trkpt lat="-3.0843650" lon="37.3681280">
    <ele>5331.4</ele>
    <time>2026-06-23T01:31:17Z</time>
   </trkpt>
   <trkpt lat="-3.0843650" lon="37.3681280">
    <ele>5331.4</ele>
    <time>2026-06-23T01:31:18Z</time>
   </trkpt>
   <trkpt lat="-3.0843650" lon="37.3681280">
    <ele>5331.4</ele>
    <time>2026-06-23T01:31:19Z</time>
   </trkpt>
   <trkpt lat="-3.0843650" lon="37.3681280">
    <ele>5331.4</ele>
    <time>2026-06-23T01:31:20Z</time>
   </trkpt>
   <trkpt lat="-3.0843650" lon="37.3681280">
    <ele>5331.4</ele>
    <time>2026-06-23T01:31:21Z</time>
   </trkpt>
   <trkpt lat="-3.0843650" lon="37.3681280">
    <ele>5331.4</ele>
    <time>2026-06-23T01:31:22Z</time>
   </trkpt>
   <trkpt lat="-3.0843650" lon="37.3681280">
    <ele>5331.4</ele>
    <time>2026-06-23T01:31:23Z</time>
   </trkpt>
   <trkpt lat="-3.0843650" lon="37.3681290">
    <ele>5331.5</ele>
    <time>2026-06-23T01:31:24Z</time>
   </trkpt>
   <trkpt lat="-3.0843650" lon="37.3681290">
    <ele>5331.5</ele>
    <time>2026-06-23T01:31:25Z</time>
   </trkpt>
   <trkpt lat="-3.0843640" lon="37.3681290">
    <ele>5331.5</ele>
    <time>2026-06-23T01:31:26Z</time>
   </trkpt>
   <trkpt lat="-3.0843640" lon="37.3681290">
    <ele>5331.5</ele>
    <time>2026-06-23T01:31:27Z</time>
   </trkpt>
   <trkpt lat="-3.0843650" lon="37.3681280">
    <ele>5331.5</ele>
    <time>2026-06-23T01:31:28Z</time>
   </trkpt>
   <trkpt lat="-3.0843640" lon="37.3681290">
    <ele>5331.5</ele>
    <time>2026-06-23T01:31:29Z</time>
   </trkpt>
   <trkpt lat="-3.0843640" lon="37.3681290">
    <ele>5331.5</ele>
    <time>2026-06-23T01:31:30Z</time>
   </trkpt>
   <trkpt lat="-3.0843650" lon="37.3681280">
    <ele>5331.6</ele>
    <time>2026-06-23T01:31:31Z</time>
   </trkpt>
   <trkpt lat="-3.0843640" lon="37.3681280">
    <ele>5331.6</ele>
    <time>2026-06-23T01:31:32Z</time>
   </trkpt>
   <trkpt lat="-3.0843640" lon="37.3681280">
    <ele>5331.6</ele>
    <time>2026-06-23T01:31:33Z</time>
   </trkpt>
   <trkpt lat="-3.0843640" lon="37.3681280">
    <ele>5331.6</ele>
    <time>2026-06-23T01:31:34Z</time>
   </trkpt>
   <trkpt lat="-3.0843650" lon="37.3681280">
    <ele>5331.6</ele>
    <time>2026-06-23T01:31:35Z</time>
   </trkpt>
   <trkpt lat="-3.0843640" lon="37.3681280">
    <ele>5331.6</ele>
    <time>2026-06-23T01:31:36Z</time>
   </trkpt>
   <trkpt lat="-3.0843640" lon="37.3681270">
    <ele>5331.6</ele>
    <time>2026-06-23T01:31:37Z</time>
   </trkpt>
   <trkpt lat="-3.0843640" lon="37.3681270">
    <ele>5331.6</ele>
    <time>2026-06-23T01:31:38Z</time>
   </trkpt>
   <trkpt lat="-3.0843640" lon="37.3681270">
    <ele>5331.6</ele>
    <time>2026-06-23T01:31:39Z</time>
   </trkpt>
   <trkpt lat="-3.0843640" lon="37.3681270">
    <ele>5331.6</ele>
    <time>2026-06-23T01:31:40Z</time>
   </trkpt>
   <trkpt lat="-3.0843640" lon="37.3681260">
    <ele>5331.7</ele>
    <time>2026-06-23T01:31:41Z</time>
   </trkpt>
   <trkpt lat="-3.0843640" lon="37.3681270">
    <ele>5331.7</ele>
    <time>2026-06-23T01:31:42Z</time>
   </trkpt>
   <trkpt lat="-3.0843640" lon="37.3681270">
    <ele>5331.7</ele>
    <time>2026-06-23T01:31:43Z</time>
   </trkpt>
   <trkpt lat="-3.0843640" lon="37.3681270">
    <ele>5331.7</ele>
    <time>2026-06-23T01:31:44Z</time>
   </trkpt>
   <trkpt lat="-3.0843640" lon="37.3681270">
    <ele>5331.7</ele>
    <time>2026-06-23T01:31:45Z</time>
   </trkpt>
   <trkpt lat="-3.0843640" lon="37.3681270">
    <ele>5331.7</ele>
    <time>2026-06-23T01:31:46Z</time>
   </trkpt>
   <trkpt lat="-3.0843640" lon="37.3681270">
    <ele>5331.7</ele>
    <time>2026-06-23T01:31:47Z</time>
   </trkpt>
   <trkpt lat="-3.0843640" lon="37.3681270">
    <ele>5331.7</ele>
    <time>2026-06-23T01:31:48Z</time>
   </trkpt>
   <trkpt lat="-3.0843650" lon="37.3681270">
    <ele>5331.7</ele>
    <time>2026-06-23T01:31:49Z</time>
   </trkpt>
   <trkpt lat="-3.0843640" lon="37.3681260">
    <ele>5331.7</ele>
    <time>2026-06-23T01:31:50Z</time>
   </trkpt>
   <trkpt lat="-3.0843650" lon="37.3681270">
    <ele>5331.8</ele>
    <time>2026-06-23T01:31:51Z</time>
   </trkpt>
   <trkpt lat="-3.0843650" lon="37.3681270">
    <ele>5331.8</ele>
    <time>2026-06-23T01:31:52Z</time>
   </trkpt>
   <trkpt lat="-3.0843650" lon="37.3681270">
    <ele>5331.8</ele>
    <time>2026-06-23T01:31:53Z</time>
   </trkpt>
   <trkpt lat="-3.0843650" lon="37.3681270">
    <ele>5331.8</ele>
    <time>2026-06-23T01:31:54Z</time>
   </trkpt>
   <trkpt lat="-3.0843650" lon="37.3681270">
    <ele>5331.8</ele>
    <time>2026-06-23T01:31:55Z</time>
   </trkpt>
   <trkpt lat="-3.0843650" lon="37.3681270">
    <ele>5331.8</ele>
    <time>2026-06-23T01:31:56Z</time>
   </trkpt>
   <trkpt lat="-3.0843650" lon="37.3681270">
    <ele>5331.8</ele>
    <time>2026-06-23T01:31:57Z</time>
   </trkpt>
   <trkpt lat="-3.0843650" lon="37.3681270">
    <ele>5331.8</ele>
    <time>2026-06-23T01:31:58Z</time>
   </trkpt>
   <trkpt lat="-3.0843640" lon="37.3681270">
    <ele>5331.8</ele>
    <time>2026-06-23T01:31:59Z</time>
   </trkpt>
   <trkpt lat="-3.0843640" lon="37.3681270">
    <ele>5331.8</ele>
    <time>2026-06-23T01:32:00Z</time>
   </trkpt>
   <trkpt lat="-3.0843640" lon="37.3681270">
    <ele>5331.8</ele>
    <time>2026-06-23T01:32:01Z</time>
   </trkpt>
   <trkpt lat="-3.0843640" lon="37.3681270">
    <ele>5331.8</ele>
    <time>2026-06-23T01:32:02Z</time>
   </trkpt>
   <trkpt lat="-3.0843640" lon="37.3681270">
    <ele>5331.8</ele>
    <time>2026-06-23T01:32:03Z</time>
   </trkpt>
   <trkpt lat="-3.0843640" lon="37.3681260">
    <ele>5331.8</ele>
    <time>2026-06-23T01:32:04Z</time>
   </trkpt>
   <trkpt lat="-3.0843640" lon="37.3681270">
    <ele>5331.8</ele>
    <time>2026-06-23T01:32:05Z</time>
   </trkpt>
   <trkpt lat="-3.0843640" lon="37.3681270">
    <ele>5331.8</ele>
    <time>2026-06-23T01:32:06Z</time>
   </trkpt>
   <trkpt lat="-3.0843640" lon="37.3681270">
    <ele>5331.8</ele>
    <time>2026-06-23T01:32:07Z</time>
   </trkpt>
   <trkpt lat="-3.0843640" lon="37.3681260">
    <ele>5331.8</ele>
    <time>2026-06-23T01:32:08Z</time>
   </trkpt>
   <trkpt lat="-3.0843640" lon="37.3681260">
    <ele>5331.8</ele>
    <time>2026-06-23T01:32:09Z</time>
   </trkpt>
   <trkpt lat="-3.0843640" lon="37.3681260">
    <ele>5331.8</ele>
    <time>2026-06-23T01:32:10Z</time>
   </trkpt>
   <trkpt lat="-3.0843650" lon="37.3681270">
    <ele>5331.9</ele>
    <time>2026-06-23T01:32:11Z</time>
   </trkpt>
   <trkpt lat="-3.0843650" lon="37.3681270">
    <ele>5331.9</ele>
    <time>2026-06-23T01:32:12Z</time>
   </trkpt>
   <trkpt lat="-3.0843640" lon="37.3681270">
    <ele>5331.9</ele>
    <time>2026-06-23T01:32:13Z</time>
   </trkpt>
   <trkpt lat="-3.0843640" lon="37.3681260">
    <ele>5331.9</ele>
    <time>2026-06-23T01:32:14Z</time>
   </trkpt>
   <trkpt lat="-3.0843640" lon="37.3681260">
    <ele>5331.9</ele>
    <time>2026-06-23T01:32:15Z</time>
   </trkpt>
   <trkpt lat="-3.0843640" lon="37.3681270">
    <ele>5331.9</ele>
    <time>2026-06-23T01:32:16Z</time>
   </trkpt>
   <trkpt lat="-3.0843640" lon="37.3681260">
    <ele>5332.0</ele>
    <time>2026-06-23T01:32:17Z</time>
   </trkpt>
   <trkpt lat="-3.0843640" lon="37.3681270">
    <ele>5332.0</ele>
    <time>2026-06-23T01:32:19Z</time>
   </trkpt>
   <trkpt lat="-3.0843640" lon="37.3681270">
    <ele>5332.0</ele>
    <time>2026-06-23T01:32:20Z</time>
   </trkpt>
   <trkpt lat="-3.0843640" lon="37.3681270">
    <ele>5332.0</ele>
    <time>2026-06-23T01:32:21Z</time>
   </trkpt>
   <trkpt lat="-3.0843640" lon="37.3681270">
    <ele>5332.0</ele>
    <time>2026-06-23T01:32:22Z</time>
   </trkpt>
   <trkpt lat="-3.0843630" lon="37.3681270">
    <ele>5332.0</ele>
    <time>2026-06-23T01:32:23Z</time>
   </trkpt>
   <trkpt lat="-3.0843640" lon="37.3681270">
    <ele>5332.0</ele>
    <time>2026-06-23T01:32:24Z</time>
   </trkpt>
   <trkpt lat="-3.0843640" lon="37.3681270">
    <ele>5332.0</ele>
    <time>2026-06-23T01:32:25Z</time>
   </trkpt>
   <trkpt lat="-3.0843640" lon="37.3681270">
    <ele>5332.0</ele>
    <time>2026-06-23T01:32:26Z</time>
   </trkpt>
   <trkpt lat="-3.0843640" lon="37.3681270">
    <ele>5332.0</ele>
    <time>2026-06-23T01:32:27Z</time>
   </trkpt>
   <trkpt lat="-3.0843640" lon="37.3681280">
    <ele>5332.0</ele>
    <time>2026-06-23T01:32:28Z</time>
   </trkpt>
   <trkpt lat="-3.0843630" lon="37.3681270">
    <ele>5332.1</ele>
    <time>2026-06-23T01:32:29Z</time>
   </trkpt>
   <trkpt lat="-3.0843640" lon="37.3681280">
    <ele>5332.1</ele>
    <time>2026-06-23T01:32:30Z</time>
   </trkpt>
   <trkpt lat="-3.0843640" lon="37.3681280">
    <ele>5332.1</ele>
    <time>2026-06-23T01:32:31Z</time>
   </trkpt>
   <trkpt lat="-3.0843640" lon="37.3681280">
    <ele>5332.1</ele>
    <time>2026-06-23T01:32:32Z</time>
   </trkpt>
   <trkpt lat="-3.0843640" lon="37.3681280">
    <ele>5332.1</ele>
    <time>2026-06-23T01:32:33Z</time>
   </trkpt>
   <trkpt lat="-3.0843640" lon="37.3681290">
    <ele>5332.1</ele>
    <time>2026-06-23T01:32:34Z</time>
   </trkpt>
   <trkpt lat="-3.0843640" lon="37.3681280">
    <ele>5332.1</ele>
    <time>2026-06-23T01:32:35Z</time>
   </trkpt>
   <trkpt lat="-3.0843640" lon="37.3681280">
    <ele>5332.1</ele>
    <time>2026-06-23T01:32:36Z</time>
   </trkpt>
   <trkpt lat="-3.0843640" lon="37.3681280">
    <ele>5332.1</ele>
    <time>2026-06-23T01:32:37Z</time>
   </trkpt>
   <trkpt lat="-3.0843640" lon="37.3681280">
    <ele>5332.1</ele>
    <time>2026-06-23T01:32:38Z</time>
   </trkpt>
   <trkpt lat="-3.0843630" lon="37.3681270">
    <ele>5332.2</ele>
    <time>2026-06-23T01:32:39Z</time>
   </trkpt>
   <trkpt lat="-3.0843630" lon="37.3681270">
    <ele>5332.2</ele>
    <time>2026-06-23T01:32:40Z</time>
   </trkpt>
   <trkpt lat="-3.0843630" lon="37.3681270">
    <ele>5332.2</ele>
    <time>2026-06-23T01:32:41Z</time>
   </trkpt>
   <trkpt lat="-3.0843640" lon="37.3681270">
    <ele>5332.2</ele>
    <time>2026-06-23T01:32:42Z</time>
   </trkpt>
   <trkpt lat="-3.0843640" lon="37.3681270">
    <ele>5332.2</ele>
    <time>2026-06-23T01:32:43Z</time>
   </trkpt>
   <trkpt lat="-3.0843640" lon="37.3681270">
    <ele>5332.2</ele>
    <time>2026-06-23T01:32:44Z</time>
   </trkpt>
   <trkpt lat="-3.0843650" lon="37.3681260">
    <ele>5332.2</ele>
    <time>2026-06-23T01:32:45Z</time>
   </trkpt>
   <trkpt lat="-3.0843640" lon="37.3681260">
    <ele>5332.2</ele>
    <time>2026-06-23T01:32:46Z</time>
   </trkpt>
   <trkpt lat="-3.0843650" lon="37.3681240">
    <ele>5332.3</ele>
    <time>2026-06-23T01:32:47Z</time>
   </trkpt>
   <trkpt lat="-3.0843660" lon="37.3681200">
    <ele>5332.4</ele>
    <time>2026-06-23T01:32:48Z</time>
   </trkpt>
   <trkpt lat="-3.0843660" lon="37.3681170">
    <ele>5332.4</ele>
    <time>2026-06-23T01:32:49Z</time>
   </trkpt>
   <trkpt lat="-3.0843670" lon="37.3681120">
    <ele>5332.5</ele>
    <time>2026-06-23T01:32:50Z</time>
   </trkpt>
   <trkpt lat="-3.0843660" lon="37.3681030">
    <ele>5332.7</ele>
    <time>2026-06-23T01:32:51Z</time>
   </trkpt>
   <trkpt lat="-3.0843660" lon="37.3680990">
    <ele>5332.8</ele>
    <time>2026-06-23T01:32:52Z</time>
   </trkpt>
   <trkpt lat="-3.0843650" lon="37.3680960">
    <ele>5332.9</ele>
    <time>2026-06-23T01:32:53Z</time>
   </trkpt>
   <trkpt lat="-3.0843680" lon="37.3680940">
    <ele>5332.9</ele>
    <time>2026-06-23T01:32:54Z</time>
   </trkpt>
   <trkpt lat="-3.0843660" lon="37.3680890">
    <ele>5333.1</ele>
    <time>2026-06-23T01:32:55Z</time>
   </trkpt>
   <trkpt lat="-3.0843680" lon="37.3680850">
    <ele>5333.1</ele>
    <time>2026-06-23T01:32:56Z</time>
   </trkpt>
   <trkpt lat="-3.0843700" lon="37.3680840">
    <ele>5333.2</ele>
    <time>2026-06-23T01:32:57Z</time>
   </trkpt>
   <trkpt lat="-3.0843720" lon="37.3680820">
    <ele>5333.2</ele>
    <time>2026-06-23T01:32:58Z</time>
   </trkpt>
   <trkpt lat="-3.0843720" lon="37.3680790">
    <ele>5333.3</ele>
    <time>2026-06-23T01:32:59Z</time>
   </trkpt>
   <trkpt lat="-3.0843730" lon="37.3680770">
    <ele>5333.4</ele>
    <time>2026-06-23T01:33:00Z</time>
   </trkpt>
   <trkpt lat="-3.0843720" lon="37.3680760">
    <ele>5333.4</ele>
    <time>2026-06-23T01:33:01Z</time>
   </trkpt>
   <trkpt lat="-3.0843750" lon="37.3680720">
    <ele>5333.5</ele>
    <time>2026-06-23T01:33:02Z</time>
   </trkpt>
   <trkpt lat="-3.0843760" lon="37.3680700">
    <ele>5333.5</ele>
    <time>2026-06-23T01:33:03Z</time>
   </trkpt>
   <trkpt lat="-3.0843770" lon="37.3680680">
    <ele>5333.6</ele>
    <time>2026-06-23T01:33:04Z</time>
   </trkpt>
   <trkpt lat="-3.0843770" lon="37.3680650">
    <ele>5333.6</ele>
    <time>2026-06-23T01:33:05Z</time>
   </trkpt>
   <trkpt lat="-3.0843780" lon="37.3680620">
    <ele>5333.7</ele>
    <time>2026-06-23T01:33:06Z</time>
   </trkpt>
   <trkpt lat="-3.0843790" lon="37.3680580">
    <ele>5333.8</ele>
    <time>2026-06-23T01:33:07Z</time>
   </trkpt>
   <trkpt lat="-3.0843800" lon="37.3680560">
    <ele>5333.8</ele>
    <time>2026-06-23T01:33:08Z</time>
   </trkpt>
   <trkpt lat="-3.0843810" lon="37.3680530">
    <ele>5333.9</ele>
    <time>2026-06-23T01:33:09Z</time>
   </trkpt>
   <trkpt lat="-3.0843820" lon="37.3680510">
    <ele>5333.9</ele>
    <time>2026-06-23T01:33:10Z</time>
   </trkpt>
   <trkpt lat="-3.0843860" lon="37.3680490">
    <ele>5334.0</ele>
    <time>2026-06-23T01:33:11Z</time>
   </trkpt>
   <trkpt lat="-3.0843880" lon="37.3680480">
    <ele>5334.1</ele>
    <time>2026-06-23T01:33:12Z</time>
   </trkpt>
   <trkpt lat="-3.0843900" lon="37.3680460">
    <ele>5334.1</ele>
    <time>2026-06-23T01:33:13Z</time>
   </trkpt>
   <trkpt lat="-3.0843920" lon="37.3680450">
    <ele>5334.2</ele>
    <time>2026-06-23T01:33:14Z</time>
   </trkpt>
   <trkpt lat="-3.0843940" lon="37.3680440">
    <ele>5334.2</ele>
    <time>2026-06-23T01:33:15Z</time>
   </trkpt>
   <trkpt lat="-3.0843970" lon="37.3680410">
    <ele>5334.3</ele>
    <time>2026-06-23T01:33:16Z</time>
   </trkpt>
   <trkpt lat="-3.0843990" lon="37.3680420">
    <ele>5334.4</ele>
    <time>2026-06-23T01:33:17Z</time>
   </trkpt>
   <trkpt lat="-3.0844010" lon="37.3680400">
    <ele>5334.4</ele>
    <time>2026-06-23T01:33:18Z</time>
   </trkpt>
   <trkpt lat="-3.0844050" lon="37.3680350">
    <ele>5334.6</ele>
    <time>2026-06-23T01:33:19Z</time>
   </trkpt>
   <trkpt lat="-3.0844050" lon="37.3680350">
    <ele>5334.6</ele>
    <time>2026-06-23T01:33:20Z</time>
   </trkpt>
   <trkpt lat="-3.0844070" lon="37.3680320">
    <ele>5334.6</ele>
    <time>2026-06-23T01:33:21Z</time>
   </trkpt>
   <trkpt lat="-3.0844080" lon="37.3680310">
    <ele>5334.7</ele>
    <time>2026-06-23T01:33:22Z</time>
   </trkpt>
   <trkpt lat="-3.0844080" lon="37.3680290">
    <ele>5334.7</ele>
    <time>2026-06-23T01:33:23Z</time>
   </trkpt>
   <trkpt lat="-3.0844100" lon="37.3680270">
    <ele>5334.8</ele>
    <time>2026-06-23T01:33:24Z</time>
   </trkpt>
   <trkpt lat="-3.0844090" lon="37.3680240">
    <ele>5334.8</ele>
    <time>2026-06-23T01:33:25Z</time>
   </trkpt>
   <trkpt lat="-3.0844090" lon="37.3680200">
    <ele>5334.9</ele>
    <time>2026-06-23T01:33:26Z</time>
   </trkpt>
   <trkpt lat="-3.0844090" lon="37.3680180">
    <ele>5335.0</ele>
    <time>2026-06-23T01:33:27Z</time>
   </trkpt>
   <trkpt lat="-3.0844060" lon="37.3680170">
    <ele>5335.0</ele>
    <time>2026-06-23T01:33:28Z</time>
   </trkpt>
   <trkpt lat="-3.0844030" lon="37.3680170">
    <ele>5335.1</ele>
    <time>2026-06-23T01:33:29Z</time>
   </trkpt>
   <trkpt lat="-3.0844010" lon="37.3680170">
    <ele>5335.1</ele>
    <time>2026-06-23T01:33:30Z</time>
   </trkpt>
   <trkpt lat="-3.0843990" lon="37.3680180">
    <ele>5335.2</ele>
    <time>2026-06-23T01:33:31Z</time>
   </trkpt>
   <trkpt lat="-3.0843970" lon="37.3680180">
    <ele>5335.2</ele>
    <time>2026-06-23T01:33:32Z</time>
   </trkpt>
   <trkpt lat="-3.0843940" lon="37.3680180">
    <ele>5335.3</ele>
    <time>2026-06-23T01:33:33Z</time>
   </trkpt>
   <trkpt lat="-3.0843920" lon="37.3680180">
    <ele>5335.3</ele>
    <time>2026-06-23T01:33:34Z</time>
   </trkpt>
   <trkpt lat="-3.0843900" lon="37.3680190">
    <ele>5335.4</ele>
    <time>2026-06-23T01:33:35Z</time>
   </trkpt>
   <trkpt lat="-3.0843870" lon="37.3680180">
    <ele>5335.4</ele>
    <time>2026-06-23T01:33:36Z</time>
   </trkpt>
   <trkpt lat="-3.0843860" lon="37.3680180">
    <ele>5335.4</ele>
    <time>2026-06-23T01:33:37Z</time>
   </trkpt>
   <trkpt lat="-3.0843840" lon="37.3680180">
    <ele>5335.5</ele>
    <time>2026-06-23T01:33:38Z</time>
   </trkpt>
   <trkpt lat="-3.0843830" lon="37.3680210">
    <ele>5335.5</ele>
    <time>2026-06-23T01:33:39Z</time>
   </trkpt>
   <trkpt lat="-3.0843830" lon="37.3680210">
    <ele>5335.5</ele>
    <time>2026-06-23T01:33:40Z</time>
   </trkpt>
   <trkpt lat="-3.0843820" lon="37.3680220">
    <ele>5335.6</ele>
    <time>2026-06-23T01:33:41Z</time>
   </trkpt>
   <trkpt lat="-3.0843800" lon="37.3680220">
    <ele>5335.6</ele>
    <time>2026-06-23T01:33:42Z</time>
   </trkpt>
   <trkpt lat="-3.0843770" lon="37.3680220">
    <ele>5335.7</ele>
    <time>2026-06-23T01:33:43Z</time>
   </trkpt>
   <trkpt lat="-3.0843750" lon="37.3680210">
    <ele>5335.7</ele>
    <time>2026-06-23T01:33:44Z</time>
   </trkpt>
   <trkpt lat="-3.0843730" lon="37.3680220">
    <ele>5335.8</ele>
    <time>2026-06-23T01:33:45Z</time>
   </trkpt>
   <trkpt lat="-3.0843710" lon="37.3680210">
    <ele>5335.8</ele>
    <time>2026-06-23T01:33:46Z</time>
   </trkpt>
   <trkpt lat="-3.0843680" lon="37.3680210">
    <ele>5335.9</ele>
    <time>2026-06-23T01:33:47Z</time>
   </trkpt>
   <trkpt lat="-3.0843660" lon="37.3680210">
    <ele>5335.9</ele>
    <time>2026-06-23T01:33:48Z</time>
   </trkpt>
   <trkpt lat="-3.0843640" lon="37.3680200">
    <ele>5336.0</ele>
    <time>2026-06-23T01:33:49Z</time>
   </trkpt>
   <trkpt lat="-3.0843620" lon="37.3680200">
    <ele>5336.0</ele>
    <time>2026-06-23T01:33:50Z</time>
   </trkpt>
   <trkpt lat="-3.0843600" lon="37.3680190">
    <ele>5336.1</ele>
    <time>2026-06-23T01:33:51Z</time>
   </trkpt>
   <trkpt lat="-3.0843570" lon="37.3680190">
    <ele>5336.1</ele>
    <time>2026-06-23T01:33:52Z</time>
   </trkpt>
   <trkpt lat="-3.0843560" lon="37.3680180">
    <ele>5336.1</ele>
    <time>2026-06-23T01:33:53Z</time>
   </trkpt>
   <trkpt lat="-3.0843540" lon="37.3680180">
    <ele>5336.2</ele>
    <time>2026-06-23T01:33:54Z</time>
   </trkpt>
   <trkpt lat="-3.0843520" lon="37.3680180">
    <ele>5336.2</ele>
    <time>2026-06-23T01:33:55Z</time>
   </trkpt>
   <trkpt lat="-3.0843510" lon="37.3680190">
    <ele>5336.3</ele>
    <time>2026-06-23T01:33:56Z</time>
   </trkpt>
   <trkpt lat="-3.0843500" lon="37.3680190">
    <ele>5336.3</ele>
    <time>2026-06-23T01:33:57Z</time>
   </trkpt>
   <trkpt lat="-3.0843480" lon="37.3680180">
    <ele>5336.3</ele>
    <time>2026-06-23T01:33:58Z</time>
   </trkpt>
   <trkpt lat="-3.0843460" lon="37.3680190">
    <ele>5336.4</ele>
    <time>2026-06-23T01:33:59Z</time>
   </trkpt>
   <trkpt lat="-3.0843430" lon="37.3680180">
    <ele>5336.4</ele>
    <time>2026-06-23T01:34:00Z</time>
   </trkpt>
   <trkpt lat="-3.0843430" lon="37.3680190">
    <ele>5336.5</ele>
    <time>2026-06-23T01:34:01Z</time>
   </trkpt>
   <trkpt lat="-3.0843410" lon="37.3680190">
    <ele>5336.5</ele>
    <time>2026-06-23T01:34:02Z</time>
   </trkpt>
   <trkpt lat="-3.0843400" lon="37.3680180">
    <ele>5336.5</ele>
    <time>2026-06-23T01:34:03Z</time>
   </trkpt>
   <trkpt lat="-3.0843390" lon="37.3680180">
    <ele>5336.5</ele>
    <time>2026-06-23T01:34:04Z</time>
   </trkpt>
   <trkpt lat="-3.0843390" lon="37.3680180">
    <ele>5336.5</ele>
    <time>2026-06-23T01:34:05Z</time>
   </trkpt>
   <trkpt lat="-3.0843360" lon="37.3680190">
    <ele>5336.6</ele>
    <time>2026-06-23T01:34:06Z</time>
   </trkpt>
   <trkpt lat="-3.0843340" lon="37.3680180">
    <ele>5336.7</ele>
    <time>2026-06-23T01:34:07Z</time>
   </trkpt>
   <trkpt lat="-3.0843320" lon="37.3680160">
    <ele>5336.7</ele>
    <time>2026-06-23T01:34:08Z</time>
   </trkpt>
   <trkpt lat="-3.0843290" lon="37.3680170">
    <ele>5336.8</ele>
    <time>2026-06-23T01:34:09Z</time>
   </trkpt>
   <trkpt lat="-3.0843270" lon="37.3680160">
    <ele>5336.8</ele>
    <time>2026-06-23T01:34:10Z</time>
   </trkpt>
   <trkpt lat="-3.0843240" lon="37.3680180">
    <ele>5336.9</ele>
    <time>2026-06-23T01:34:11Z</time>
   </trkpt>
   <trkpt lat="-3.0843220" lon="37.3680190">
    <ele>5336.9</ele>
    <time>2026-06-23T01:34:12Z</time>
   </trkpt>
   <trkpt lat="-3.0843200" lon="37.3680200">
    <ele>5337.0</ele>
    <time>2026-06-23T01:34:13Z</time>
   </trkpt>
   <trkpt lat="-3.0843170" lon="37.3680210">
    <ele>5337.1</ele>
    <time>2026-06-23T01:34:14Z</time>
   </trkpt>
   <trkpt lat="-3.0843160" lon="37.3680230">
    <ele>5337.1</ele>
    <time>2026-06-23T01:34:15Z</time>
   </trkpt>
   <trkpt lat="-3.0843130" lon="37.3680240">
    <ele>5337.2</ele>
    <time>2026-06-23T01:34:16Z</time>
   </trkpt>
   <trkpt lat="-3.0843120" lon="37.3680270">
    <ele>5337.2</ele>
    <time>2026-06-23T01:34:17Z</time>
   </trkpt>
   <trkpt lat="-3.0843110" lon="37.3680270">
    <ele>5337.3</ele>
    <time>2026-06-23T01:34:18Z</time>
   </trkpt>
   <trkpt lat="-3.0843090" lon="37.3680270">
    <ele>5337.3</ele>
    <time>2026-06-23T01:34:19Z</time>
   </trkpt>
   <trkpt lat="-3.0843070" lon="37.3680290">
    <ele>5337.4</ele>
    <time>2026-06-23T01:34:20Z</time>
   </trkpt>
   <trkpt lat="-3.0843050" lon="37.3680300">
    <ele>5337.4</ele>
    <time>2026-06-23T01:34:21Z</time>
   </trkpt>
   <trkpt lat="-3.0843040" lon="37.3680310">
    <ele>5337.4</ele>
    <time>2026-06-23T01:34:22Z</time>
   </trkpt>
   <trkpt lat="-3.0843020" lon="37.3680310">
    <ele>5337.5</ele>
    <time>2026-06-23T01:34:23Z</time>
   </trkpt>
   <trkpt lat="-3.0843010" lon="37.3680330">
    <ele>5337.5</ele>
    <time>2026-06-23T01:34:25Z</time>
   </trkpt>
   <trkpt lat="-3.0842980" lon="37.3680310">
    <ele>5337.6</ele>
    <time>2026-06-23T01:34:26Z</time>
   </trkpt>
   <trkpt lat="-3.0842960" lon="37.3680320">
    <ele>5337.6</ele>
    <time>2026-06-23T01:34:27Z</time>
   </trkpt>
   <trkpt lat="-3.0842940" lon="37.3680330">
    <ele>5337.7</ele>
    <time>2026-06-23T01:34:28Z</time>
   </trkpt>
   <trkpt lat="-3.0842920" lon="37.3680320">
    <ele>5337.7</ele>
    <time>2026-06-23T01:34:29Z</time>
   </trkpt>
   <trkpt lat="-3.0842900" lon="37.3680330">
    <ele>5337.8</ele>
    <time>2026-06-23T01:34:30Z</time>
   </trkpt>
   <trkpt lat="-3.0842900" lon="37.3680330">
    <ele>5337.8</ele>
    <time>2026-06-23T01:34:31Z</time>
   </trkpt>
   <trkpt lat="-3.0842870" lon="37.3680330">
    <ele>5337.8</ele>
    <time>2026-06-23T01:34:32Z</time>
   </trkpt>
   <trkpt lat="-3.0842850" lon="37.3680330">
    <ele>5337.9</ele>
    <time>2026-06-23T01:34:33Z</time>
   </trkpt>
   <trkpt lat="-3.0842840" lon="37.3680320">
    <ele>5337.9</ele>
    <time>2026-06-23T01:34:34Z</time>
   </trkpt>
   <trkpt lat="-3.0842810" lon="37.3680330">
    <ele>5338.0</ele>
    <time>2026-06-23T01:34:35Z</time>
   </trkpt>
   <trkpt lat="-3.0842800" lon="37.3680310">
    <ele>5338.0</ele>
    <time>2026-06-23T01:34:36Z</time>
   </trkpt>
   <trkpt lat="-3.0842770" lon="37.3680310">
    <ele>5338.1</ele>
    <time>2026-06-23T01:34:37Z</time>
   </trkpt>
   <trkpt lat="-3.0842750" lon="37.3680280">
    <ele>5338.2</ele>
    <time>2026-06-23T01:34:38Z</time>
   </trkpt>
   <trkpt lat="-3.0842750" lon="37.3680270">
    <ele>5338.2</ele>
    <time>2026-06-23T01:34:39Z</time>
   </trkpt>
   <trkpt lat="-3.0842740" lon="37.3680240">
    <ele>5338.2</ele>
    <time>2026-06-23T01:34:40Z</time>
   </trkpt>
   <trkpt lat="-3.0842740" lon="37.3680220">
    <ele>5338.3</ele>
    <time>2026-06-23T01:34:41Z</time>
   </trkpt>
   <trkpt lat="-3.0842730" lon="37.3680210">
    <ele>5338.3</ele>
    <time>2026-06-23T01:34:42Z</time>
   </trkpt>
   <trkpt lat="-3.0842730" lon="37.3680190">
    <ele>5338.4</ele>
    <time>2026-06-23T01:34:43Z</time>
   </trkpt>
   <trkpt lat="-3.0842720" lon="37.3680170">
    <ele>5338.4</ele>
    <time>2026-06-23T01:34:44Z</time>
   </trkpt>
   <trkpt lat="-3.0842740" lon="37.3680150">
    <ele>5338.5</ele>
    <time>2026-06-23T01:34:45Z</time>
   </trkpt>
   <trkpt lat="-3.0842730" lon="37.3680130">
    <ele>5338.5</ele>
    <time>2026-06-23T01:34:46Z</time>
   </trkpt>
   <trkpt lat="-3.0842740" lon="37.3680110">
    <ele>5338.5</ele>
    <time>2026-06-23T01:34:47Z</time>
   </trkpt>
   <trkpt lat="-3.0842740" lon="37.3680090">
    <ele>5338.6</ele>
    <time>2026-06-23T01:34:48Z</time>
   </trkpt>
   <trkpt lat="-3.0842750" lon="37.3680080">
    <ele>5338.6</ele>
    <time>2026-06-23T01:34:49Z</time>
   </trkpt>
   <trkpt lat="-3.0842760" lon="37.3680060">
    <ele>5338.7</ele>
    <time>2026-06-23T01:34:50Z</time>
   </trkpt>
   <trkpt lat="-3.0842760" lon="37.3680060">
    <ele>5338.7</ele>
    <time>2026-06-23T01:34:51Z</time>
   </trkpt>
   <trkpt lat="-3.0842760" lon="37.3680010">
    <ele>5338.8</ele>
    <time>2026-06-23T01:34:52Z</time>
   </trkpt>
   <trkpt lat="-3.0842750" lon="37.3680010">
    <ele>5338.8</ele>
    <time>2026-06-23T01:34:53Z</time>
   </trkpt>
   <trkpt lat="-3.0842760" lon="37.3680000">
    <ele>5338.8</ele>
    <time>2026-06-23T01:34:54Z</time>
   </trkpt>
   <trkpt lat="-3.0842740" lon="37.3679980">
    <ele>5338.9</ele>
    <time>2026-06-23T01:34:55Z</time>
   </trkpt>
   <trkpt lat="-3.0842710" lon="37.3679950">
    <ele>5339.0</ele>
    <time>2026-06-23T01:34:56Z</time>
   </trkpt>
   <trkpt lat="-3.0842670" lon="37.3679930">
    <ele>5339.1</ele>
    <time>2026-06-23T01:34:57Z</time>
   </trkpt>
   <trkpt lat="-3.0842660" lon="37.3679950">
    <ele>5339.1</ele>
    <time>2026-06-23T01:34:58Z</time>
   </trkpt>
   <trkpt lat="-3.0842630" lon="37.3679950">
    <ele>5339.2</ele>
    <time>2026-06-23T01:34:59Z</time>
   </trkpt>
   <trkpt lat="-3.0842610" lon="37.3679960">
    <ele>5339.2</ele>
    <time>2026-06-23T01:35:00Z</time>
   </trkpt>
   <trkpt lat="-3.0842580" lon="37.3679960">
    <ele>5339.3</ele>
    <time>2026-06-23T01:35:01Z</time>
   </trkpt>
   <trkpt lat="-3.0842570" lon="37.3679970">
    <ele>5339.3</ele>
    <time>2026-06-23T01:35:02Z</time>
   </trkpt>
   <trkpt lat="-3.0842550" lon="37.3679980">
    <ele>5339.4</ele>
    <time>2026-06-23T01:35:03Z</time>
   </trkpt>
   <trkpt lat="-3.0842530" lon="37.3679990">
    <ele>5339.4</ele>
    <time>2026-06-23T01:35:04Z</time>
   </trkpt>
   <trkpt lat="-3.0842510" lon="37.3680000">
    <ele>5339.5</ele>
    <time>2026-06-23T01:35:05Z</time>
   </trkpt>
   <trkpt lat="-3.0842490" lon="37.3680020">
    <ele>5339.5</ele>
    <time>2026-06-23T01:35:06Z</time>
   </trkpt>
   <trkpt lat="-3.0842470" lon="37.3680040">
    <ele>5339.6</ele>
    <time>2026-06-23T01:35:07Z</time>
   </trkpt>
   <trkpt lat="-3.0842440" lon="37.3680060">
    <ele>5339.7</ele>
    <time>2026-06-23T01:35:08Z</time>
   </trkpt>
   <trkpt lat="-3.0842430" lon="37.3680080">
    <ele>5339.7</ele>
    <time>2026-06-23T01:35:09Z</time>
   </trkpt>
   <trkpt lat="-3.0842410" lon="37.3680090">
    <ele>5339.8</ele>
    <time>2026-06-23T01:35:10Z</time>
   </trkpt>
   <trkpt lat="-3.0842400" lon="37.3680100">
    <ele>5339.8</ele>
    <time>2026-06-23T01:35:11Z</time>
   </trkpt>
   <trkpt lat="-3.0842370" lon="37.3680130">
    <ele>5339.9</ele>
    <time>2026-06-23T01:35:12Z</time>
   </trkpt>
   <trkpt lat="-3.0842360" lon="37.3680150">
    <ele>5339.9</ele>
    <time>2026-06-23T01:35:13Z</time>
   </trkpt>
   <trkpt lat="-3.0842330" lon="37.3680150">
    <ele>5340.0</ele>
    <time>2026-06-23T01:35:14Z</time>
   </trkpt>
   <trkpt lat="-3.0842310" lon="37.3680170">
    <ele>5340.0</ele>
    <time>2026-06-23T01:35:15Z</time>
   </trkpt>
   <trkpt lat="-3.0842300" lon="37.3680180">
    <ele>5340.1</ele>
    <time>2026-06-23T01:35:16Z</time>
   </trkpt>
   <trkpt lat="-3.0842280" lon="37.3680210">
    <ele>5340.2</ele>
    <time>2026-06-23T01:35:17Z</time>
   </trkpt>
   <trkpt lat="-3.0842260" lon="37.3680200">
    <ele>5340.2</ele>
    <time>2026-06-23T01:35:18Z</time>
   </trkpt>
   <trkpt lat="-3.0842240" lon="37.3680220">
    <ele>5340.3</ele>
    <time>2026-06-23T01:35:19Z</time>
   </trkpt>
   <trkpt lat="-3.0842210" lon="37.3680220">
    <ele>5340.3</ele>
    <time>2026-06-23T01:35:20Z</time>
   </trkpt>
   <trkpt lat="-3.0842200" lon="37.3680230">
    <ele>5340.4</ele>
    <time>2026-06-23T01:35:21Z</time>
   </trkpt>
   <trkpt lat="-3.0842180" lon="37.3680220">
    <ele>5340.4</ele>
    <time>2026-06-23T01:35:22Z</time>
   </trkpt>
   <trkpt lat="-3.0842170" lon="37.3680240">
    <ele>5340.5</ele>
    <time>2026-06-23T01:35:23Z</time>
   </trkpt>
   <trkpt lat="-3.0842160" lon="37.3680230">
    <ele>5340.5</ele>
    <time>2026-06-23T01:35:24Z</time>
   </trkpt>
   <trkpt lat="-3.0842140" lon="37.3680250">
    <ele>5340.6</ele>
    <time>2026-06-23T01:35:25Z</time>
   </trkpt>
   <trkpt lat="-3.0842130" lon="37.3680250">
    <ele>5340.6</ele>
    <time>2026-06-23T01:35:26Z</time>
   </trkpt>
   <trkpt lat="-3.0842110" lon="37.3680260">
    <ele>5340.6</ele>
    <time>2026-06-23T01:35:27Z</time>
   </trkpt>
   <trkpt lat="-3.0842100" lon="37.3680230">
    <ele>5340.7</ele>
    <time>2026-06-23T01:35:28Z</time>
   </trkpt>
   <trkpt lat="-3.0842080" lon="37.3680210">
    <ele>5340.8</ele>
    <time>2026-06-23T01:35:29Z</time>
   </trkpt>
   <trkpt lat="-3.0842080" lon="37.3680190">
    <ele>5340.8</ele>
    <time>2026-06-23T01:35:30Z</time>
   </trkpt>
   <trkpt lat="-3.0842070" lon="37.3680210">
    <ele>5340.8</ele>
    <time>2026-06-23T01:35:31Z</time>
   </trkpt>
   <trkpt lat="-3.0842060" lon="37.3680170">
    <ele>5340.9</ele>
    <time>2026-06-23T01:35:32Z</time>
   </trkpt>
   <trkpt lat="-3.0842040" lon="37.3680150">
    <ele>5341.0</ele>
    <time>2026-06-23T01:35:33Z</time>
   </trkpt>
   <trkpt lat="-3.0842050" lon="37.3680140">
    <ele>5341.0</ele>
    <time>2026-06-23T01:35:34Z</time>
   </trkpt>
   <trkpt lat="-3.0842040" lon="37.3680130">
    <ele>5341.1</ele>
    <time>2026-06-23T01:35:35Z</time>
   </trkpt>
   <trkpt lat="-3.0842060" lon="37.3680100">
    <ele>5341.1</ele>
    <time>2026-06-23T01:35:36Z</time>
   </trkpt>
   <trkpt lat="-3.0842040" lon="37.3680090">
    <ele>5341.2</ele>
    <time>2026-06-23T01:35:37Z</time>
   </trkpt>
   <trkpt lat="-3.0842050" lon="37.3680070">
    <ele>5341.2</ele>
    <time>2026-06-23T01:35:38Z</time>
   </trkpt>
   <trkpt lat="-3.0842050" lon="37.3680040">
    <ele>5341.3</ele>
    <time>2026-06-23T01:35:39Z</time>
   </trkpt>
   <trkpt lat="-3.0842060" lon="37.3680020">
    <ele>5341.3</ele>
    <time>2026-06-23T01:35:40Z</time>
   </trkpt>
   <trkpt lat="-3.0842050" lon="37.3680000">
    <ele>5341.4</ele>
    <time>2026-06-23T01:35:41Z</time>
   </trkpt>
   <trkpt lat="-3.0842060" lon="37.3679990">
    <ele>5341.4</ele>
    <time>2026-06-23T01:35:42Z</time>
   </trkpt>
   <trkpt lat="-3.0842060" lon="37.3679980">
    <ele>5341.4</ele>
    <time>2026-06-23T01:35:43Z</time>
   </trkpt>
   <trkpt lat="-3.0842060" lon="37.3679930">
    <ele>5341.5</ele>
    <time>2026-06-23T01:35:44Z</time>
   </trkpt>
   <trkpt lat="-3.0842060" lon="37.3679930">
    <ele>5341.5</ele>
    <time>2026-06-23T01:35:45Z</time>
   </trkpt>
   <trkpt lat="-3.0842070" lon="37.3679910">
    <ele>5341.6</ele>
    <time>2026-06-23T01:35:46Z</time>
   </trkpt>
   <trkpt lat="-3.0842070" lon="37.3679880">
    <ele>5341.7</ele>
    <time>2026-06-23T01:35:47Z</time>
   </trkpt>
   <trkpt lat="-3.0842090" lon="37.3679850">
    <ele>5341.7</ele>
    <time>2026-06-23T01:35:48Z</time>
   </trkpt>
   <trkpt lat="-3.0842090" lon="37.3679820">
    <ele>5341.8</ele>
    <time>2026-06-23T01:35:49Z</time>
   </trkpt>
   <trkpt lat="-3.0842100" lon="37.3679800">
    <ele>5341.9</ele>
    <time>2026-06-23T01:35:50Z</time>
   </trkpt>
   <trkpt lat="-3.0842090" lon="37.3679790">
    <ele>5341.9</ele>
    <time>2026-06-23T01:35:51Z</time>
   </trkpt>
   <trkpt lat="-3.0842110" lon="37.3679750">
    <ele>5342.0</ele>
    <time>2026-06-23T01:35:52Z</time>
   </trkpt>
   <trkpt lat="-3.0842100" lon="37.3679740">
    <ele>5342.0</ele>
    <time>2026-06-23T01:35:53Z</time>
   </trkpt>
   <trkpt lat="-3.0842110" lon="37.3679720">
    <ele>5342.1</ele>
    <time>2026-06-23T01:35:54Z</time>
   </trkpt>
   <trkpt lat="-3.0842120" lon="37.3679700">
    <ele>5342.1</ele>
    <time>2026-06-23T01:35:55Z</time>
   </trkpt>
   <trkpt lat="-3.0842150" lon="37.3679680">
    <ele>5342.2</ele>
    <time>2026-06-23T01:35:56Z</time>
   </trkpt>
   <trkpt lat="-3.0842160" lon="37.3679650">
    <ele>5342.3</ele>
    <time>2026-06-23T01:35:57Z</time>
   </trkpt>
   <trkpt lat="-3.0842170" lon="37.3679650">
    <ele>5342.3</ele>
    <time>2026-06-23T01:35:58Z</time>
   </trkpt>
   <trkpt lat="-3.0842190" lon="37.3679610">
    <ele>5342.4</ele>
    <time>2026-06-23T01:35:59Z</time>
   </trkpt>
   <trkpt lat="-3.0842200" lon="37.3679600">
    <ele>5342.4</ele>
    <time>2026-06-23T01:36:00Z</time>
   </trkpt>
   <trkpt lat="-3.0842210" lon="37.3679580">
    <ele>5342.4</ele>
    <time>2026-06-23T01:36:01Z</time>
   </trkpt>
   <trkpt lat="-3.0842230" lon="37.3679560">
    <ele>5342.5</ele>
    <time>2026-06-23T01:36:02Z</time>
   </trkpt>
   <trkpt lat="-3.0842250" lon="37.3679550">
    <ele>5342.6</ele>
    <time>2026-06-23T01:36:03Z</time>
   </trkpt>
   <trkpt lat="-3.0842260" lon="37.3679530">
    <ele>5342.6</ele>
    <time>2026-06-23T01:36:04Z</time>
   </trkpt>
   <trkpt lat="-3.0842270" lon="37.3679520">
    <ele>5342.6</ele>
    <time>2026-06-23T01:36:05Z</time>
   </trkpt>
   <trkpt lat="-3.0842280" lon="37.3679510">
    <ele>5342.7</ele>
    <time>2026-06-23T01:36:06Z</time>
   </trkpt>
   <trkpt lat="-3.0842280" lon="37.3679490">
    <ele>5342.7</ele>
    <time>2026-06-23T01:36:07Z</time>
   </trkpt>
   <trkpt lat="-3.0842290" lon="37.3679470">
    <ele>5342.8</ele>
    <time>2026-06-23T01:36:08Z</time>
   </trkpt>
   <trkpt lat="-3.0842300" lon="37.3679460">
    <ele>5342.8</ele>
    <time>2026-06-23T01:36:09Z</time>
   </trkpt>
   <trkpt lat="-3.0842290" lon="37.3679440">
    <ele>5342.8</ele>
    <time>2026-06-23T01:36:10Z</time>
   </trkpt>
   <trkpt lat="-3.0842300" lon="37.3679420">
    <ele>5342.9</ele>
    <time>2026-06-23T01:36:11Z</time>
   </trkpt>
   <trkpt lat="-3.0842300" lon="37.3679420">
    <ele>5342.9</ele>
    <time>2026-06-23T01:36:12Z</time>
   </trkpt>
   <trkpt lat="-3.0842290" lon="37.3679410">
    <ele>5342.9</ele>
    <time>2026-06-23T01:36:13Z</time>
   </trkpt>
   <trkpt lat="-3.0842300" lon="37.3679390">
    <ele>5343.0</ele>
    <time>2026-06-23T01:36:14Z</time>
   </trkpt>
   <trkpt lat="-3.0842290" lon="37.3679370">
    <ele>5343.0</ele>
    <time>2026-06-23T01:36:15Z</time>
   </trkpt>
   <trkpt lat="-3.0842300" lon="37.3679360">
    <ele>5343.0</ele>
    <time>2026-06-23T01:36:16Z</time>
   </trkpt>
   <trkpt lat="-3.0842280" lon="37.3679350">
    <ele>5343.1</ele>
    <time>2026-06-23T01:36:17Z</time>
   </trkpt>
   <trkpt lat="-3.0842270" lon="37.3679320">
    <ele>5343.2</ele>
    <time>2026-06-23T01:36:18Z</time>
   </trkpt>
   <trkpt lat="-3.0842250" lon="37.3679320">
    <ele>5343.2</ele>
    <time>2026-06-23T01:36:19Z</time>
   </trkpt>
   <trkpt lat="-3.0842240" lon="37.3679300">
    <ele>5343.3</ele>
    <time>2026-06-23T01:36:20Z</time>
   </trkpt>
   <trkpt lat="-3.0842230" lon="37.3679300">
    <ele>5343.3</ele>
    <time>2026-06-23T01:36:21Z</time>
   </trkpt>
   <trkpt lat="-3.0842230" lon="37.3679270">
    <ele>5343.3</ele>
    <time>2026-06-23T01:36:22Z</time>
   </trkpt>
   <trkpt lat="-3.0842210" lon="37.3679280">
    <ele>5343.4</ele>
    <time>2026-06-23T01:36:23Z</time>
   </trkpt>
   <trkpt lat="-3.0842190" lon="37.3679220">
    <ele>5343.5</ele>
    <time>2026-06-23T01:36:24Z</time>
   </trkpt>
   <trkpt lat="-3.0842170" lon="37.3679210">
    <ele>5343.6</ele>
    <time>2026-06-23T01:36:25Z</time>
   </trkpt>
   <trkpt lat="-3.0842160" lon="37.3679200">
    <ele>5343.6</ele>
    <time>2026-06-23T01:36:26Z</time>
   </trkpt>
   <trkpt lat="-3.0842140" lon="37.3679170">
    <ele>5343.7</ele>
    <time>2026-06-23T01:36:27Z</time>
   </trkpt>
   <trkpt lat="-3.0842150" lon="37.3679150">
    <ele>5343.8</ele>
    <time>2026-06-23T01:36:28Z</time>
   </trkpt>
   <trkpt lat="-3.0842120" lon="37.3679160">
    <ele>5343.8</ele>
    <time>2026-06-23T01:36:29Z</time>
   </trkpt>
   <trkpt lat="-3.0842080" lon="37.3679160">
    <ele>5343.9</ele>
    <time>2026-06-23T01:36:31Z</time>
   </trkpt>
   <trkpt lat="-3.0842050" lon="37.3679160">
    <ele>5344.0</ele>
    <time>2026-06-23T01:36:32Z</time>
   </trkpt>
   <trkpt lat="-3.0842040" lon="37.3679150">
    <ele>5344.0</ele>
    <time>2026-06-23T01:36:33Z</time>
   </trkpt>
   <trkpt lat="-3.0842010" lon="37.3679170">
    <ele>5344.1</ele>
    <time>2026-06-23T01:36:34Z</time>
   </trkpt>
   <trkpt lat="-3.0842000" lon="37.3679170">
    <ele>5344.1</ele>
    <time>2026-06-23T01:36:35Z</time>
   </trkpt>
   <trkpt lat="-3.0841970" lon="37.3679180">
    <ele>5344.2</ele>
    <time>2026-06-23T01:36:36Z</time>
   </trkpt>
   <trkpt lat="-3.0841960" lon="37.3679180">
    <ele>5344.2</ele>
    <time>2026-06-23T01:36:37Z</time>
   </trkpt>
   <trkpt lat="-3.0841940" lon="37.3679190">
    <ele>5344.3</ele>
    <time>2026-06-23T01:36:38Z</time>
   </trkpt>
   <trkpt lat="-3.0841910" lon="37.3679210">
    <ele>5344.3</ele>
    <time>2026-06-23T01:36:39Z</time>
   </trkpt>
   <trkpt lat="-3.0841880" lon="37.3679230">
    <ele>5344.4</ele>
    <time>2026-06-23T01:36:40Z</time>
   </trkpt>
   <trkpt lat="-3.0841860" lon="37.3679240">
    <ele>5344.5</ele>
    <time>2026-06-23T01:36:41Z</time>
   </trkpt>
   <trkpt lat="-3.0841840" lon="37.3679260">
    <ele>5344.5</ele>
    <time>2026-06-23T01:36:42Z</time>
   </trkpt>
   <trkpt lat="-3.0841820" lon="37.3679270">
    <ele>5344.6</ele>
    <time>2026-06-23T01:36:43Z</time>
   </trkpt>
   <trkpt lat="-3.0841810" lon="37.3679300">
    <ele>5344.7</ele>
    <time>2026-06-23T01:36:44Z</time>
   </trkpt>
   <trkpt lat="-3.0841780" lon="37.3679300">
    <ele>5344.7</ele>
    <time>2026-06-23T01:36:45Z</time>
   </trkpt>
   <trkpt lat="-3.0841760" lon="37.3679320">
    <ele>5344.8</ele>
    <time>2026-06-23T01:36:46Z</time>
   </trkpt>
   <trkpt lat="-3.0841740" lon="37.3679340">
    <ele>5344.9</ele>
    <time>2026-06-23T01:36:47Z</time>
   </trkpt>
   <trkpt lat="-3.0841710" lon="37.3679340">
    <ele>5344.9</ele>
    <time>2026-06-23T01:36:48Z</time>
   </trkpt>
   <trkpt lat="-3.0841700" lon="37.3679360">
    <ele>5345.0</ele>
    <time>2026-06-23T01:36:49Z</time>
   </trkpt>
   <trkpt lat="-3.0841690" lon="37.3679350">
    <ele>5345.0</ele>
    <time>2026-06-23T01:36:50Z</time>
   </trkpt>
   <trkpt lat="-3.0841660" lon="37.3679350">
    <ele>5345.1</ele>
    <time>2026-06-23T01:36:51Z</time>
   </trkpt>
   <trkpt lat="-3.0841660" lon="37.3679390">
    <ele>5345.2</ele>
    <time>2026-06-23T01:36:52Z</time>
   </trkpt>
   <trkpt lat="-3.0841630" lon="37.3679320">
    <ele>5345.3</ele>
    <time>2026-06-23T01:36:53Z</time>
   </trkpt>
   <trkpt lat="-3.0841620" lon="37.3679390">
    <ele>5345.5</ele>
    <time>2026-06-23T01:36:54Z</time>
   </trkpt>
   <trkpt lat="-3.0841590" lon="37.3679390">
    <ele>5345.6</ele>
    <time>2026-06-23T01:36:55Z</time>
   </trkpt>
   <trkpt lat="-3.0841570" lon="37.3679420">
    <ele>5345.7</ele>
    <time>2026-06-23T01:36:56Z</time>
   </trkpt>
   <trkpt lat="-3.0841550" lon="37.3679420">
    <ele>5345.7</ele>
    <time>2026-06-23T01:36:57Z</time>
   </trkpt>
   <trkpt lat="-3.0841530" lon="37.3679430">
    <ele>5345.8</ele>
    <time>2026-06-23T01:36:58Z</time>
   </trkpt>
   <trkpt lat="-3.0841520" lon="37.3679460">
    <ele>5345.8</ele>
    <time>2026-06-23T01:36:59Z</time>
   </trkpt>
   <trkpt lat="-3.0841500" lon="37.3679430">
    <ele>5345.9</ele>
    <time>2026-06-23T01:37:00Z</time>
   </trkpt>
   <trkpt lat="-3.0841480" lon="37.3679480">
    <ele>5346.0</ele>
    <time>2026-06-23T01:37:01Z</time>
   </trkpt>
   <trkpt lat="-3.0841460" lon="37.3679460">
    <ele>5346.1</ele>
    <time>2026-06-23T01:37:02Z</time>
   </trkpt>
   <trkpt lat="-3.0841440" lon="37.3679480">
    <ele>5346.2</ele>
    <time>2026-06-23T01:37:03Z</time>
   </trkpt>
   <trkpt lat="-3.0841420" lon="37.3679490">
    <ele>5346.2</ele>
    <time>2026-06-23T01:37:04Z</time>
   </trkpt>
   <trkpt lat="-3.0841390" lon="37.3679500">
    <ele>5346.3</ele>
    <time>2026-06-23T01:37:05Z</time>
   </trkpt>
   <trkpt lat="-3.0841370" lon="37.3679510">
    <ele>5346.3</ele>
    <time>2026-06-23T01:37:06Z</time>
   </trkpt>
   <trkpt lat="-3.0841340" lon="37.3679530">
    <ele>5346.4</ele>
    <time>2026-06-23T01:37:07Z</time>
   </trkpt>
   <trkpt lat="-3.0841300" lon="37.3679560">
    <ele>5346.5</ele>
    <time>2026-06-23T01:37:08Z</time>
   </trkpt>
   <trkpt lat="-3.0841270" lon="37.3679570">
    <ele>5346.6</ele>
    <time>2026-06-23T01:37:09Z</time>
   </trkpt>
   <trkpt lat="-3.0841270" lon="37.3679590">
    <ele>5346.6</ele>
    <time>2026-06-23T01:37:10Z</time>
   </trkpt>
   <trkpt lat="-3.0841230" lon="37.3679610">
    <ele>5346.7</ele>
    <time>2026-06-23T01:37:11Z</time>
   </trkpt>
   <trkpt lat="-3.0841210" lon="37.3679610">
    <ele>5346.8</ele>
    <time>2026-06-23T01:37:12Z</time>
   </trkpt>
   <trkpt lat="-3.0841190" lon="37.3679630">
    <ele>5346.9</ele>
    <time>2026-06-23T01:37:13Z</time>
   </trkpt>
   <trkpt lat="-3.0841170" lon="37.3679650">
    <ele>5346.9</ele>
    <time>2026-06-23T01:37:14Z</time>
   </trkpt>
   <trkpt lat="-3.0841150" lon="37.3679670">
    <ele>5347.0</ele>
    <time>2026-06-23T01:37:15Z</time>
   </trkpt>
   <trkpt lat="-3.0841130" lon="37.3679680">
    <ele>5347.0</ele>
    <time>2026-06-23T01:37:16Z</time>
   </trkpt>
   <trkpt lat="-3.0841100" lon="37.3679690">
    <ele>5347.1</ele>
    <time>2026-06-23T01:37:17Z</time>
   </trkpt>
   <trkpt lat="-3.0841080" lon="37.3679700">
    <ele>5347.2</ele>
    <time>2026-06-23T01:37:18Z</time>
   </trkpt>
   <trkpt lat="-3.0841070" lon="37.3679700">
    <ele>5347.2</ele>
    <time>2026-06-23T01:37:19Z</time>
   </trkpt>
   <trkpt lat="-3.0841050" lon="37.3679710">
    <ele>5347.2</ele>
    <time>2026-06-23T01:37:20Z</time>
   </trkpt>
   <trkpt lat="-3.0841040" lon="37.3679720">
    <ele>5347.3</ele>
    <time>2026-06-23T01:37:21Z</time>
   </trkpt>
   <trkpt lat="-3.0841010" lon="37.3679720">
    <ele>5347.3</ele>
    <time>2026-06-23T01:37:22Z</time>
   </trkpt>
   <trkpt lat="-3.0841000" lon="37.3679710">
    <ele>5347.4</ele>
    <time>2026-06-23T01:37:23Z</time>
   </trkpt>
   <trkpt lat="-3.0840980" lon="37.3679720">
    <ele>5347.4</ele>
    <time>2026-06-23T01:37:24Z</time>
   </trkpt>
   <trkpt lat="-3.0840950" lon="37.3679710">
    <ele>5347.5</ele>
    <time>2026-06-23T01:37:25Z</time>
   </trkpt>
   <trkpt lat="-3.0840950" lon="37.3679690">
    <ele>5347.5</ele>
    <time>2026-06-23T01:37:26Z</time>
   </trkpt>
   <trkpt lat="-3.0840950" lon="37.3679680">
    <ele>5347.6</ele>
    <time>2026-06-23T01:37:27Z</time>
   </trkpt>
   <trkpt lat="-3.0840940" lon="37.3679660">
    <ele>5347.6</ele>
    <time>2026-06-23T01:37:28Z</time>
   </trkpt>
   <trkpt lat="-3.0840920" lon="37.3679630">
    <ele>5347.7</ele>
    <time>2026-06-23T01:37:29Z</time>
   </trkpt>
   <trkpt lat="-3.0840930" lon="37.3679600">
    <ele>5347.8</ele>
    <time>2026-06-23T01:37:30Z</time>
   </trkpt>
   <trkpt lat="-3.0840910" lon="37.3679600">
    <ele>5347.8</ele>
    <time>2026-06-23T01:37:31Z</time>
   </trkpt>
   <trkpt lat="-3.0840920" lon="37.3679570">
    <ele>5347.9</ele>
    <time>2026-06-23T01:37:32Z</time>
   </trkpt>
   <trkpt lat="-3.0840900" lon="37.3679550">
    <ele>5347.9</ele>
    <time>2026-06-23T01:37:33Z</time>
   </trkpt>
   <trkpt lat="-3.0840910" lon="37.3679530">
    <ele>5348.0</ele>
    <time>2026-06-23T01:37:34Z</time>
   </trkpt>
   <trkpt lat="-3.0840900" lon="37.3679510">
    <ele>5348.1</ele>
    <time>2026-06-23T01:37:35Z</time>
   </trkpt>
   <trkpt lat="-3.0840910" lon="37.3679500">
    <ele>5348.1</ele>
    <time>2026-06-23T01:37:36Z</time>
   </trkpt>
   <trkpt lat="-3.0840900" lon="37.3679460">
    <ele>5348.2</ele>
    <time>2026-06-23T01:37:37Z</time>
   </trkpt>
   <trkpt lat="-3.0840900" lon="37.3679440">
    <ele>5348.2</ele>
    <time>2026-06-23T01:37:38Z</time>
   </trkpt>
   <trkpt lat="-3.0840910" lon="37.3679430">
    <ele>5348.3</ele>
    <time>2026-06-23T01:37:39Z</time>
   </trkpt>
   <trkpt lat="-3.0840910" lon="37.3679410">
    <ele>5348.3</ele>
    <time>2026-06-23T01:37:40Z</time>
   </trkpt>
   <trkpt lat="-3.0840930" lon="37.3679400">
    <ele>5348.4</ele>
    <time>2026-06-23T01:37:41Z</time>
   </trkpt>
   <trkpt lat="-3.0840940" lon="37.3679370">
    <ele>5348.4</ele>
    <time>2026-06-23T01:37:42Z</time>
   </trkpt>
   <trkpt lat="-3.0840960" lon="37.3679370">
    <ele>5348.5</ele>
    <time>2026-06-23T01:37:43Z</time>
   </trkpt>
   <trkpt lat="-3.0840980" lon="37.3679340">
    <ele>5348.6</ele>
    <time>2026-06-23T01:37:44Z</time>
   </trkpt>
   <trkpt lat="-3.0841000" lon="37.3679330">
    <ele>5348.6</ele>
    <time>2026-06-23T01:37:45Z</time>
   </trkpt>
   <trkpt lat="-3.0841000" lon="37.3679330">
    <ele>5348.6</ele>
    <time>2026-06-23T01:37:46Z</time>
   </trkpt>
   <trkpt lat="-3.0841000" lon="37.3679310">
    <ele>5348.7</ele>
    <time>2026-06-23T01:37:47Z</time>
   </trkpt>
   <trkpt lat="-3.0841000" lon="37.3679290">
    <ele>5348.7</ele>
    <time>2026-06-23T01:37:48Z</time>
   </trkpt>
   <trkpt lat="-3.0841010" lon="37.3679270">
    <ele>5348.8</ele>
    <time>2026-06-23T01:37:49Z</time>
   </trkpt>
   <trkpt lat="-3.0841010" lon="37.3679260">
    <ele>5348.8</ele>
    <time>2026-06-23T01:37:50Z</time>
   </trkpt>
   <trkpt lat="-3.0841020" lon="37.3679250">
    <ele>5348.8</ele>
    <time>2026-06-23T01:37:51Z</time>
   </trkpt>
   <trkpt lat="-3.0841020" lon="37.3679230">
    <ele>5348.9</ele>
    <time>2026-06-23T01:37:52Z</time>
   </trkpt>
   <trkpt lat="-3.0841030" lon="37.3679200">
    <ele>5349.0</ele>
    <time>2026-06-23T01:37:53Z</time>
   </trkpt>
   <trkpt lat="-3.0841040" lon="37.3679180">
    <ele>5349.0</ele>
    <time>2026-06-23T01:37:54Z</time>
   </trkpt>
   <trkpt lat="-3.0841040" lon="37.3679150">
    <ele>5349.1</ele>
    <time>2026-06-23T01:37:55Z</time>
   </trkpt>
   <trkpt lat="-3.0841030" lon="37.3679140">
    <ele>5349.1</ele>
    <time>2026-06-23T01:37:56Z</time>
   </trkpt>
   <trkpt lat="-3.0841020" lon="37.3679110">
    <ele>5349.2</ele>
    <time>2026-06-23T01:37:57Z</time>
   </trkpt>
   <trkpt lat="-3.0841010" lon="37.3679100">
    <ele>5349.2</ele>
    <time>2026-06-23T01:37:58Z</time>
   </trkpt>
   <trkpt lat="-3.0840990" lon="37.3679090">
    <ele>5349.3</ele>
    <time>2026-06-23T01:37:59Z</time>
   </trkpt>
   <trkpt lat="-3.0840990" lon="37.3679100">
    <ele>5349.3</ele>
    <time>2026-06-23T01:38:00Z</time>
   </trkpt>
   <trkpt lat="-3.0840980" lon="37.3679090">
    <ele>5349.3</ele>
    <time>2026-06-23T01:38:01Z</time>
   </trkpt>
   <trkpt lat="-3.0840970" lon="37.3679080">
    <ele>5349.4</ele>
    <time>2026-06-23T01:38:02Z</time>
   </trkpt>
   <trkpt lat="-3.0840970" lon="37.3679080">
    <ele>5349.4</ele>
    <time>2026-06-23T01:38:03Z</time>
   </trkpt>
   <trkpt lat="-3.0840940" lon="37.3679090">
    <ele>5349.5</ele>
    <time>2026-06-23T01:38:04Z</time>
   </trkpt>
   <trkpt lat="-3.0840930" lon="37.3679070">
    <ele>5349.5</ele>
    <time>2026-06-23T01:38:05Z</time>
   </trkpt>
   <trkpt lat="-3.0840900" lon="37.3679090">
    <ele>5349.6</ele>
    <time>2026-06-23T01:38:06Z</time>
   </trkpt>
   <trkpt lat="-3.0840870" lon="37.3679060">
    <ele>5349.7</ele>
    <time>2026-06-23T01:38:07Z</time>
   </trkpt>
   <trkpt lat="-3.0840850" lon="37.3679050">
    <ele>5349.8</ele>
    <time>2026-06-23T01:38:08Z</time>
   </trkpt>
   <trkpt lat="-3.0840840" lon="37.3679020">
    <ele>5349.8</ele>
    <time>2026-06-23T01:38:09Z</time>
   </trkpt>
   <trkpt lat="-3.0840850" lon="37.3679010">
    <ele>5349.9</ele>
    <time>2026-06-23T01:38:10Z</time>
   </trkpt>
   <trkpt lat="-3.0840870" lon="37.3679000">
    <ele>5349.9</ele>
    <time>2026-06-23T01:38:11Z</time>
   </trkpt>
   <trkpt lat="-3.0840870" lon="37.3678970">
    <ele>5350.0</ele>
    <time>2026-06-23T01:38:12Z</time>
   </trkpt>
   <trkpt lat="-3.0840880" lon="37.3678980">
    <ele>5350.0</ele>
    <time>2026-06-23T01:38:13Z</time>
   </trkpt>
   <trkpt lat="-3.0840890" lon="37.3678950">
    <ele>5350.1</ele>
    <time>2026-06-23T01:38:14Z</time>
   </trkpt>
   <trkpt lat="-3.0840900" lon="37.3678940">
    <ele>5350.1</ele>
    <time>2026-06-23T01:38:15Z</time>
   </trkpt>
   <trkpt lat="-3.0840920" lon="37.3678920">
    <ele>5350.2</ele>
    <time>2026-06-23T01:38:16Z</time>
   </trkpt>
   <trkpt lat="-3.0840920" lon="37.3678930">
    <ele>5350.2</ele>
    <time>2026-06-23T01:38:17Z</time>
   </trkpt>
   <trkpt lat="-3.0840940" lon="37.3678900">
    <ele>5350.3</ele>
    <time>2026-06-23T01:38:18Z</time>
   </trkpt>
   <trkpt lat="-3.0840940" lon="37.3678890">
    <ele>5350.3</ele>
    <time>2026-06-23T01:38:19Z</time>
   </trkpt>
   <trkpt lat="-3.0840950" lon="37.3678880">
    <ele>5350.4</ele>
    <time>2026-06-23T01:38:20Z</time>
   </trkpt>
   <trkpt lat="-3.0840970" lon="37.3678840">
    <ele>5350.5</ele>
    <time>2026-06-23T01:38:21Z</time>
   </trkpt>
   <trkpt lat="-3.0840980" lon="37.3678830">
    <ele>5350.5</ele>
    <time>2026-06-23T01:38:22Z</time>
   </trkpt>
   <trkpt lat="-3.0840980" lon="37.3678820">
    <ele>5350.5</ele>
    <time>2026-06-23T01:38:23Z</time>
   </trkpt>
   <trkpt lat="-3.0840970" lon="37.3678790">
    <ele>5350.6</ele>
    <time>2026-06-23T01:38:24Z</time>
   </trkpt>
   <trkpt lat="-3.0840980" lon="37.3678770">
    <ele>5350.7</ele>
    <time>2026-06-23T01:38:25Z</time>
   </trkpt>
   <trkpt lat="-3.0840960" lon="37.3678750">
    <ele>5350.7</ele>
    <time>2026-06-23T01:38:26Z</time>
   </trkpt>
   <trkpt lat="-3.0840960" lon="37.3678730">
    <ele>5350.8</ele>
    <time>2026-06-23T01:38:27Z</time>
   </trkpt>
   <trkpt lat="-3.0840940" lon="37.3678720">
    <ele>5350.8</ele>
    <time>2026-06-23T01:38:28Z</time>
   </trkpt>
   <trkpt lat="-3.0840930" lon="37.3678730">
    <ele>5350.9</ele>
    <time>2026-06-23T01:38:29Z</time>
   </trkpt>
   <trkpt lat="-3.0840920" lon="37.3678730">
    <ele>5350.9</ele>
    <time>2026-06-23T01:38:30Z</time>
   </trkpt>
   <trkpt lat="-3.0840900" lon="37.3678730">
    <ele>5350.9</ele>
    <time>2026-06-23T01:38:31Z</time>
   </trkpt>
   <trkpt lat="-3.0840880" lon="37.3678730">
    <ele>5351.0</ele>
    <time>2026-06-23T01:38:32Z</time>
   </trkpt>
   <trkpt lat="-3.0840860" lon="37.3678750">
    <ele>5351.1</ele>
    <time>2026-06-23T01:38:33Z</time>
   </trkpt>
   <trkpt lat="-3.0840840" lon="37.3678750">
    <ele>5351.1</ele>
    <time>2026-06-23T01:38:34Z</time>
   </trkpt>
   <trkpt lat="-3.0840820" lon="37.3678740">
    <ele>5351.2</ele>
    <time>2026-06-23T01:38:35Z</time>
   </trkpt>
   <trkpt lat="-3.0840790" lon="37.3678730">
    <ele>5351.2</ele>
    <time>2026-06-23T01:38:37Z</time>
   </trkpt>
   <trkpt lat="-3.0840770" lon="37.3678730">
    <ele>5351.3</ele>
    <time>2026-06-23T01:38:38Z</time>
   </trkpt>
   <trkpt lat="-3.0840760" lon="37.3678740">
    <ele>5351.3</ele>
    <time>2026-06-23T01:38:39Z</time>
   </trkpt>
   <trkpt lat="-3.0840740" lon="37.3678730">
    <ele>5351.4</ele>
    <time>2026-06-23T01:38:40Z</time>
   </trkpt>
   <trkpt lat="-3.0840730" lon="37.3678750">
    <ele>5351.4</ele>
    <time>2026-06-23T01:38:41Z</time>
   </trkpt>
   <trkpt lat="-3.0840710" lon="37.3678750">
    <ele>5351.5</ele>
    <time>2026-06-23T01:38:42Z</time>
   </trkpt>
   <trkpt lat="-3.0840700" lon="37.3678780">
    <ele>5351.5</ele>
    <time>2026-06-23T01:38:43Z</time>
   </trkpt>
   <trkpt lat="-3.0840680" lon="37.3678780">
    <ele>5351.6</ele>
    <time>2026-06-23T01:38:44Z</time>
   </trkpt>
   <trkpt lat="-3.0840670" lon="37.3678800">
    <ele>5351.7</ele>
    <time>2026-06-23T01:38:45Z</time>
   </trkpt>
   <trkpt lat="-3.0840660" lon="37.3678790">
    <ele>5351.7</ele>
    <time>2026-06-23T01:38:46Z</time>
   </trkpt>
   <trkpt lat="-3.0840640" lon="37.3678810">
    <ele>5351.8</ele>
    <time>2026-06-23T01:38:47Z</time>
   </trkpt>
   <trkpt lat="-3.0840630" lon="37.3678800">
    <ele>5351.8</ele>
    <time>2026-06-23T01:38:48Z</time>
   </trkpt>
   <trkpt lat="-3.0840620" lon="37.3678810">
    <ele>5351.8</ele>
    <time>2026-06-23T01:38:49Z</time>
   </trkpt>
   <trkpt lat="-3.0840610" lon="37.3678810">
    <ele>5351.8</ele>
    <time>2026-06-23T01:38:50Z</time>
   </trkpt>
   <trkpt lat="-3.0840590" lon="37.3678820">
    <ele>5351.9</ele>
    <time>2026-06-23T01:38:51Z</time>
   </trkpt>
   <trkpt lat="-3.0840570" lon="37.3678820">
    <ele>5351.9</ele>
    <time>2026-06-23T01:38:52Z</time>
   </trkpt>
   <trkpt lat="-3.0840550" lon="37.3678830">
    <ele>5352.0</ele>
    <time>2026-06-23T01:38:53Z</time>
   </trkpt>
   <trkpt lat="-3.0840530" lon="37.3678840">
    <ele>5352.1</ele>
    <time>2026-06-23T01:38:54Z</time>
   </trkpt>
   <trkpt lat="-3.0840530" lon="37.3678840">
    <ele>5352.1</ele>
    <time>2026-06-23T01:38:55Z</time>
   </trkpt>
   <trkpt lat="-3.0840520" lon="37.3678850">
    <ele>5352.1</ele>
    <time>2026-06-23T01:38:56Z</time>
   </trkpt>
   <trkpt lat="-3.0840510" lon="37.3678850">
    <ele>5352.1</ele>
    <time>2026-06-23T01:38:57Z</time>
   </trkpt>
   <trkpt lat="-3.0840490" lon="37.3678860">
    <ele>5352.2</ele>
    <time>2026-06-23T01:38:58Z</time>
   </trkpt>
   <trkpt lat="-3.0840460" lon="37.3678860">
    <ele>5352.2</ele>
    <time>2026-06-23T01:38:59Z</time>
   </trkpt>
   <trkpt lat="-3.0840450" lon="37.3678870">
    <ele>5352.3</ele>
    <time>2026-06-23T01:39:00Z</time>
   </trkpt>
   <trkpt lat="-3.0840430" lon="37.3678850">
    <ele>5352.3</ele>
    <time>2026-06-23T01:39:01Z</time>
   </trkpt>
   <trkpt lat="-3.0840400" lon="37.3678860">
    <ele>5352.4</ele>
    <time>2026-06-23T01:39:02Z</time>
   </trkpt>
   <trkpt lat="-3.0840400" lon="37.3678840">
    <ele>5352.5</ele>
    <time>2026-06-23T01:39:03Z</time>
   </trkpt>
   <trkpt lat="-3.0840380" lon="37.3678870">
    <ele>5352.6</ele>
    <time>2026-06-23T01:39:04Z</time>
   </trkpt>
   <trkpt lat="-3.0840380" lon="37.3678860">
    <ele>5352.6</ele>
    <time>2026-06-23T01:39:05Z</time>
   </trkpt>
   <trkpt lat="-3.0840360" lon="37.3678870">
    <ele>5352.6</ele>
    <time>2026-06-23T01:39:06Z</time>
   </trkpt>
   <trkpt lat="-3.0840340" lon="37.3678870">
    <ele>5352.7</ele>
    <time>2026-06-23T01:39:07Z</time>
   </trkpt>
   <trkpt lat="-3.0840330" lon="37.3678890">
    <ele>5352.7</ele>
    <time>2026-06-23T01:39:08Z</time>
   </trkpt>
   <trkpt lat="-3.0840300" lon="37.3678900">
    <ele>5352.8</ele>
    <time>2026-06-23T01:39:09Z</time>
   </trkpt>
   <trkpt lat="-3.0840280" lon="37.3678930">
    <ele>5352.9</ele>
    <time>2026-06-23T01:39:10Z</time>
   </trkpt>
   <trkpt lat="-3.0840260" lon="37.3678940">
    <ele>5352.9</ele>
    <time>2026-06-23T01:39:11Z</time>
   </trkpt>
   <trkpt lat="-3.0840240" lon="37.3678980">
    <ele>5353.1</ele>
    <time>2026-06-23T01:39:12Z</time>
   </trkpt>
   <trkpt lat="-3.0840220" lon="37.3678990">
    <ele>5353.1</ele>
    <time>2026-06-23T01:39:13Z</time>
   </trkpt>
   <trkpt lat="-3.0840200" lon="37.3679010">
    <ele>5353.2</ele>
    <time>2026-06-23T01:39:14Z</time>
   </trkpt>
   <trkpt lat="-3.0840170" lon="37.3679010">
    <ele>5353.2</ele>
    <time>2026-06-23T01:39:15Z</time>
   </trkpt>
   <trkpt lat="-3.0840140" lon="37.3679010">
    <ele>5353.3</ele>
    <time>2026-06-23T01:39:16Z</time>
   </trkpt>
   <trkpt lat="-3.0840130" lon="37.3678990">
    <ele>5353.4</ele>
    <time>2026-06-23T01:39:17Z</time>
   </trkpt>
   <trkpt lat="-3.0840110" lon="37.3678970">
    <ele>5353.4</ele>
    <time>2026-06-23T01:39:18Z</time>
   </trkpt>
   <trkpt lat="-3.0840100" lon="37.3678940">
    <ele>5353.5</ele>
    <time>2026-06-23T01:39:19Z</time>
   </trkpt>
   <trkpt lat="-3.0840110" lon="37.3678940">
    <ele>5353.5</ele>
    <time>2026-06-23T01:39:20Z</time>
   </trkpt>
   <trkpt lat="-3.0840100" lon="37.3678920">
    <ele>5353.6</ele>
    <time>2026-06-23T01:39:21Z</time>
   </trkpt>
   <trkpt lat="-3.0840110" lon="37.3678910">
    <ele>5353.6</ele>
    <time>2026-06-23T01:39:22Z</time>
   </trkpt>
   <trkpt lat="-3.0840110" lon="37.3678890">
    <ele>5353.7</ele>
    <time>2026-06-23T01:39:23Z</time>
   </trkpt>
   <trkpt lat="-3.0840110" lon="37.3678870">
    <ele>5353.7</ele>
    <time>2026-06-23T01:39:24Z</time>
   </trkpt>
   <trkpt lat="-3.0840120" lon="37.3678860">
    <ele>5353.8</ele>
    <time>2026-06-23T01:39:25Z</time>
   </trkpt>
   <trkpt lat="-3.0840120" lon="37.3678850">
    <ele>5353.8</ele>
    <time>2026-06-23T01:39:26Z</time>
   </trkpt>
   <trkpt lat="-3.0840140" lon="37.3678830">
    <ele>5353.9</ele>
    <time>2026-06-23T01:39:27Z</time>
   </trkpt>
   <trkpt lat="-3.0840130" lon="37.3678820">
    <ele>5353.9</ele>
    <time>2026-06-23T01:39:28Z</time>
   </trkpt>
   <trkpt lat="-3.0840150" lon="37.3678800">
    <ele>5354.0</ele>
    <time>2026-06-23T01:39:29Z</time>
   </trkpt>
   <trkpt lat="-3.0840150" lon="37.3678790">
    <ele>5354.0</ele>
    <time>2026-06-23T01:39:30Z</time>
   </trkpt>
   <trkpt lat="-3.0840140" lon="37.3678770">
    <ele>5354.0</ele>
    <time>2026-06-23T01:39:31Z</time>
   </trkpt>
   <trkpt lat="-3.0840130" lon="37.3678750">
    <ele>5354.1</ele>
    <time>2026-06-23T01:39:32Z</time>
   </trkpt>
   <trkpt lat="-3.0840110" lon="37.3678750">
    <ele>5354.1</ele>
    <time>2026-06-23T01:39:33Z</time>
   </trkpt>
   <trkpt lat="-3.0840080" lon="37.3678750">
    <ele>5354.2</ele>
    <time>2026-06-23T01:39:34Z</time>
   </trkpt>
   <trkpt lat="-3.0840060" lon="37.3678720">
    <ele>5354.3</ele>
    <time>2026-06-23T01:39:35Z</time>
   </trkpt>
   <trkpt lat="-3.0840040" lon="37.3678730">
    <ele>5354.3</ele>
    <time>2026-06-23T01:39:36Z</time>
   </trkpt>
   <trkpt lat="-3.0840040" lon="37.3678710">
    <ele>5354.4</ele>
    <time>2026-06-23T01:39:37Z</time>
   </trkpt>
   <trkpt lat="-3.0840040" lon="37.3678700">
    <ele>5354.4</ele>
    <time>2026-06-23T01:39:38Z</time>
   </trkpt>
   <trkpt lat="-3.0840050" lon="37.3678670">
    <ele>5354.5</ele>
    <time>2026-06-23T01:39:39Z</time>
   </trkpt>
   <trkpt lat="-3.0840050" lon="37.3678660">
    <ele>5354.5</ele>
    <time>2026-06-23T01:39:40Z</time>
   </trkpt>
   <trkpt lat="-3.0840060" lon="37.3678640">
    <ele>5354.6</ele>
    <time>2026-06-23T01:39:41Z</time>
   </trkpt>
   <trkpt lat="-3.0840070" lon="37.3678620">
    <ele>5354.6</ele>
    <time>2026-06-23T01:39:42Z</time>
   </trkpt>
   <trkpt lat="-3.0840080" lon="37.3678620">
    <ele>5354.6</ele>
    <time>2026-06-23T01:39:43Z</time>
   </trkpt>
   <trkpt lat="-3.0840090" lon="37.3678590">
    <ele>5354.7</ele>
    <time>2026-06-23T01:39:44Z</time>
   </trkpt>
   <trkpt lat="-3.0840110" lon="37.3678580">
    <ele>5354.8</ele>
    <time>2026-06-23T01:39:45Z</time>
   </trkpt>
   <trkpt lat="-3.0840110" lon="37.3678570">
    <ele>5354.8</ele>
    <time>2026-06-23T01:39:46Z</time>
   </trkpt>
   <trkpt lat="-3.0840130" lon="37.3678550">
    <ele>5354.9</ele>
    <time>2026-06-23T01:39:47Z</time>
   </trkpt>
   <trkpt lat="-3.0840150" lon="37.3678540">
    <ele>5354.9</ele>
    <time>2026-06-23T01:39:48Z</time>
   </trkpt>
   <trkpt lat="-3.0840160" lon="37.3678540">
    <ele>5354.9</ele>
    <time>2026-06-23T01:39:49Z</time>
   </trkpt>
   <trkpt lat="-3.0840160" lon="37.3678540">
    <ele>5354.9</ele>
    <time>2026-06-23T01:39:50Z</time>
   </trkpt>
   <trkpt lat="-3.0840170" lon="37.3678510">
    <ele>5355.0</ele>
    <time>2026-06-23T01:39:51Z</time>
   </trkpt>
   <trkpt lat="-3.0840170" lon="37.3678490">
    <ele>5355.1</ele>
    <time>2026-06-23T01:39:52Z</time>
   </trkpt>
   <trkpt lat="-3.0840170" lon="37.3678490">
    <ele>5355.1</ele>
    <time>2026-06-23T01:39:53Z</time>
   </trkpt>
   <trkpt lat="-3.0840160" lon="37.3678470">
    <ele>5355.1</ele>
    <time>2026-06-23T01:39:54Z</time>
   </trkpt>
   <trkpt lat="-3.0840170" lon="37.3678470">
    <ele>5355.1</ele>
    <time>2026-06-23T01:39:55Z</time>
   </trkpt>
   <trkpt lat="-3.0840170" lon="37.3678460">
    <ele>5355.2</ele>
    <time>2026-06-23T01:39:56Z</time>
   </trkpt>
   <trkpt lat="-3.0840180" lon="37.3678440">
    <ele>5355.2</ele>
    <time>2026-06-23T01:39:57Z</time>
   </trkpt>
   <trkpt lat="-3.0840160" lon="37.3678420">
    <ele>5355.3</ele>
    <time>2026-06-23T01:39:58Z</time>
   </trkpt>
   <trkpt lat="-3.0840170" lon="37.3678390">
    <ele>5355.4</ele>
    <time>2026-06-23T01:39:59Z</time>
   </trkpt>
   <trkpt lat="-3.0840160" lon="37.3678390">
    <ele>5355.4</ele>
    <time>2026-06-23T01:40:00Z</time>
   </trkpt>
   <trkpt lat="-3.0840170" lon="37.3678350">
    <ele>5355.5</ele>
    <time>2026-06-23T01:40:01Z</time>
   </trkpt>
   <trkpt lat="-3.0840170" lon="37.3678340">
    <ele>5355.5</ele>
    <time>2026-06-23T01:40:02Z</time>
   </trkpt>
   <trkpt lat="-3.0840180" lon="37.3678320">
    <ele>5355.6</ele>
    <time>2026-06-23T01:40:03Z</time>
   </trkpt>
   <trkpt lat="-3.0840190" lon="37.3678290">
    <ele>5355.6</ele>
    <time>2026-06-23T01:40:04Z</time>
   </trkpt>
   <trkpt lat="-3.0840190" lon="37.3678290">
    <ele>5355.6</ele>
    <time>2026-06-23T01:40:05Z</time>
   </trkpt>
   <trkpt lat="-3.0840200" lon="37.3678280">
    <ele>5355.7</ele>
    <time>2026-06-23T01:40:06Z</time>
   </trkpt>
   <trkpt lat="-3.0840220" lon="37.3678250">
    <ele>5355.8</ele>
    <time>2026-06-23T01:40:07Z</time>
   </trkpt>
   <trkpt lat="-3.0840240" lon="37.3678240">
    <ele>5355.8</ele>
    <time>2026-06-23T01:40:08Z</time>
   </trkpt>
   <trkpt lat="-3.0840260" lon="37.3678220">
    <ele>5355.9</ele>
    <time>2026-06-23T01:40:09Z</time>
   </trkpt>
   <trkpt lat="-3.0840260" lon="37.3678200">
    <ele>5355.9</ele>
    <time>2026-06-23T01:40:10Z</time>
   </trkpt>
   <trkpt lat="-3.0840270" lon="37.3678190">
    <ele>5356.0</ele>
    <time>2026-06-23T01:40:11Z</time>
   </trkpt>
   <trkpt lat="-3.0840260" lon="37.3678190">
    <ele>5356.0</ele>
    <time>2026-06-23T01:40:12Z</time>
   </trkpt>
   <trkpt lat="-3.0840270" lon="37.3678160">
    <ele>5356.1</ele>
    <time>2026-06-23T01:40:13Z</time>
   </trkpt>
   <trkpt lat="-3.0840270" lon="37.3678140">
    <ele>5356.1</ele>
    <time>2026-06-23T01:40:14Z</time>
   </trkpt>
   <trkpt lat="-3.0840270" lon="37.3678120">
    <ele>5356.2</ele>
    <time>2026-06-23T01:40:15Z</time>
   </trkpt>
   <trkpt lat="-3.0840250" lon="37.3678120">
    <ele>5356.2</ele>
    <time>2026-06-23T01:40:16Z</time>
   </trkpt>
   <trkpt lat="-3.0840240" lon="37.3678110">
    <ele>5356.2</ele>
    <time>2026-06-23T01:40:17Z</time>
   </trkpt>
   <trkpt lat="-3.0840220" lon="37.3678080">
    <ele>5356.3</ele>
    <time>2026-06-23T01:40:18Z</time>
   </trkpt>
   <trkpt lat="-3.0840190" lon="37.3678100">
    <ele>5356.4</ele>
    <time>2026-06-23T01:40:19Z</time>
   </trkpt>
   <trkpt lat="-3.0840190" lon="37.3678100">
    <ele>5356.4</ele>
    <time>2026-06-23T01:40:20Z</time>
   </trkpt>
   <trkpt lat="-3.0840190" lon="37.3678100">
    <ele>5356.4</ele>
    <time>2026-06-23T01:40:21Z</time>
   </trkpt>
   <trkpt lat="-3.0840180" lon="37.3678080">
    <ele>5356.5</ele>
    <time>2026-06-23T01:40:22Z</time>
   </trkpt>
   <trkpt lat="-3.0840150" lon="37.3678080">
    <ele>5356.5</ele>
    <time>2026-06-23T01:40:23Z</time>
   </trkpt>
   <trkpt lat="-3.0840140" lon="37.3678080">
    <ele>5356.6</ele>
    <time>2026-06-23T01:40:24Z</time>
   </trkpt>
   <trkpt lat="-3.0840130" lon="37.3678070">
    <ele>5356.6</ele>
    <time>2026-06-23T01:40:25Z</time>
   </trkpt>
   <trkpt lat="-3.0840110" lon="37.3678060">
    <ele>5356.7</ele>
    <time>2026-06-23T01:40:26Z</time>
   </trkpt>
   <trkpt lat="-3.0840090" lon="37.3678070">
    <ele>5356.7</ele>
    <time>2026-06-23T01:40:27Z</time>
   </trkpt>
   <trkpt lat="-3.0840080" lon="37.3678060">
    <ele>5356.7</ele>
    <time>2026-06-23T01:40:28Z</time>
   </trkpt>
   <trkpt lat="-3.0840090" lon="37.3678020">
    <ele>5356.8</ele>
    <time>2026-06-23T01:40:29Z</time>
   </trkpt>
   <trkpt lat="-3.0840090" lon="37.3678010">
    <ele>5356.9</ele>
    <time>2026-06-23T01:40:30Z</time>
   </trkpt>
   <trkpt lat="-3.0840100" lon="37.3677990">
    <ele>5356.9</ele>
    <time>2026-06-23T01:40:31Z</time>
   </trkpt>
   <trkpt lat="-3.0840100" lon="37.3677970">
    <ele>5357.0</ele>
    <time>2026-06-23T01:40:32Z</time>
   </trkpt>
   <trkpt lat="-3.0840100" lon="37.3677940">
    <ele>5357.0</ele>
    <time>2026-06-23T01:40:33Z</time>
   </trkpt>
   <trkpt lat="-3.0840100" lon="37.3677950">
    <ele>5357.1</ele>
    <time>2026-06-23T01:40:34Z</time>
   </trkpt>
   <trkpt lat="-3.0840110" lon="37.3677930">
    <ele>5357.1</ele>
    <time>2026-06-23T01:40:35Z</time>
   </trkpt>
   <trkpt lat="-3.0840100" lon="37.3677890">
    <ele>5357.2</ele>
    <time>2026-06-23T01:40:36Z</time>
   </trkpt>
   <trkpt lat="-3.0840100" lon="37.3677870">
    <ele>5357.3</ele>
    <time>2026-06-23T01:40:37Z</time>
   </trkpt>
   <trkpt lat="-3.0840100" lon="37.3677850">
    <ele>5357.3</ele>
    <time>2026-06-23T01:40:38Z</time>
   </trkpt>
   <trkpt lat="-3.0840080" lon="37.3677840">
    <ele>5357.4</ele>
    <time>2026-06-23T01:40:39Z</time>
   </trkpt>
   <trkpt lat="-3.0840060" lon="37.3677840">
    <ele>5357.4</ele>
    <time>2026-06-23T01:40:40Z</time>
   </trkpt>
   <trkpt lat="-3.0840030" lon="37.3677850">
    <ele>5357.5</ele>
    <time>2026-06-23T01:40:41Z</time>
   </trkpt>
   <trkpt lat="-3.0840020" lon="37.3677850">
    <ele>5357.5</ele>
    <time>2026-06-23T01:40:43Z</time>
   </trkpt>
   <trkpt lat="-3.0840000" lon="37.3677860">
    <ele>5357.6</ele>
    <time>2026-06-23T01:40:44Z</time>
   </trkpt>
   <trkpt lat="-3.0839990" lon="37.3677860">
    <ele>5357.6</ele>
    <time>2026-06-23T01:40:45Z</time>
   </trkpt>
   <trkpt lat="-3.0839980" lon="37.3677870">
    <ele>5357.6</ele>
    <time>2026-06-23T01:40:46Z</time>
   </trkpt>
   <trkpt lat="-3.0839960" lon="37.3677870">
    <ele>5357.7</ele>
    <time>2026-06-23T01:40:47Z</time>
   </trkpt>
   <trkpt lat="-3.0839950" lon="37.3677870">
    <ele>5357.7</ele>
    <time>2026-06-23T01:40:48Z</time>
   </trkpt>
   <trkpt lat="-3.0839930" lon="37.3677870">
    <ele>5357.8</ele>
    <time>2026-06-23T01:40:49Z</time>
   </trkpt>
   <trkpt lat="-3.0839920" lon="37.3677900">
    <ele>5357.8</ele>
    <time>2026-06-23T01:40:50Z</time>
   </trkpt>
   <trkpt lat="-3.0839910" lon="37.3677860">
    <ele>5357.9</ele>
    <time>2026-06-23T01:40:51Z</time>
   </trkpt>
   <trkpt lat="-3.0839890" lon="37.3677880">
    <ele>5358.0</ele>
    <time>2026-06-23T01:40:52Z</time>
   </trkpt>
   <trkpt lat="-3.0839890" lon="37.3677870">
    <ele>5358.0</ele>
    <time>2026-06-23T01:40:53Z</time>
   </trkpt>
   <trkpt lat="-3.0839870" lon="37.3677880">
    <ele>5358.1</ele>
    <time>2026-06-23T01:40:54Z</time>
   </trkpt>
   <trkpt lat="-3.0839860" lon="37.3677850">
    <ele>5358.1</ele>
    <time>2026-06-23T01:40:55Z</time>
   </trkpt>
   <trkpt lat="-3.0839850" lon="37.3677900">
    <ele>5358.3</ele>
    <time>2026-06-23T01:40:56Z</time>
   </trkpt>
   <trkpt lat="-3.0839860" lon="37.3677920">
    <ele>5358.3</ele>
    <time>2026-06-23T01:40:57Z</time>
   </trkpt>
   <trkpt lat="-3.0839840" lon="37.3677910">
    <ele>5358.4</ele>
    <time>2026-06-23T01:40:58Z</time>
   </trkpt>
   <trkpt lat="-3.0839820" lon="37.3677900">
    <ele>5358.4</ele>
    <time>2026-06-23T01:40:59Z</time>
   </trkpt>
   <trkpt lat="-3.0839800" lon="37.3677900">
    <ele>5358.5</ele>
    <time>2026-06-23T01:41:00Z</time>
   </trkpt>
   <trkpt lat="-3.0839780" lon="37.3677890">
    <ele>5358.5</ele>
    <time>2026-06-23T01:41:01Z</time>
   </trkpt>
   <trkpt lat="-3.0839740" lon="37.3677880">
    <ele>5358.6</ele>
    <time>2026-06-23T01:41:02Z</time>
   </trkpt>
   <trkpt lat="-3.0839730" lon="37.3677890">
    <ele>5358.7</ele>
    <time>2026-06-23T01:41:03Z</time>
   </trkpt>
   <trkpt lat="-3.0839700" lon="37.3677870">
    <ele>5358.8</ele>
    <time>2026-06-23T01:41:04Z</time>
   </trkpt>
   <trkpt lat="-3.0839670" lon="37.3677860">
    <ele>5358.8</ele>
    <time>2026-06-23T01:41:05Z</time>
   </trkpt>
   <trkpt lat="-3.0839660" lon="37.3677820">
    <ele>5358.9</ele>
    <time>2026-06-23T01:41:06Z</time>
   </trkpt>
   <trkpt lat="-3.0839650" lon="37.3677830">
    <ele>5359.0</ele>
    <time>2026-06-23T01:41:07Z</time>
   </trkpt>
   <trkpt lat="-3.0839670" lon="37.3677800">
    <ele>5359.0</ele>
    <time>2026-06-23T01:41:08Z</time>
   </trkpt>
   <trkpt lat="-3.0839660" lon="37.3677790">
    <ele>5359.1</ele>
    <time>2026-06-23T01:41:09Z</time>
   </trkpt>
   <trkpt lat="-3.0839680" lon="37.3677750">
    <ele>5359.2</ele>
    <time>2026-06-23T01:41:10Z</time>
   </trkpt>
   <trkpt lat="-3.0839680" lon="37.3677740">
    <ele>5359.2</ele>
    <time>2026-06-23T01:41:11Z</time>
   </trkpt>
   <trkpt lat="-3.0839700" lon="37.3677730">
    <ele>5359.3</ele>
    <time>2026-06-23T01:41:12Z</time>
   </trkpt>
   <trkpt lat="-3.0839690" lon="37.3677720">
    <ele>5359.3</ele>
    <time>2026-06-23T01:41:13Z</time>
   </trkpt>
   <trkpt lat="-3.0839720" lon="37.3677710">
    <ele>5359.4</ele>
    <time>2026-06-23T01:41:14Z</time>
   </trkpt>
   <trkpt lat="-3.0839730" lon="37.3677680">
    <ele>5359.5</ele>
    <time>2026-06-23T01:41:15Z</time>
   </trkpt>
   <trkpt lat="-3.0839740" lon="37.3677670">
    <ele>5359.5</ele>
    <time>2026-06-23T01:41:16Z</time>
   </trkpt>
   <trkpt lat="-3.0839760" lon="37.3677650">
    <ele>5359.6</ele>
    <time>2026-06-23T01:41:17Z</time>
   </trkpt>
   <trkpt lat="-3.0839780" lon="37.3677640">
    <ele>5359.6</ele>
    <time>2026-06-23T01:41:18Z</time>
   </trkpt>
   <trkpt lat="-3.0839790" lon="37.3677610">
    <ele>5359.7</ele>
    <time>2026-06-23T01:41:19Z</time>
   </trkpt>
   <trkpt lat="-3.0839790" lon="37.3677600">
    <ele>5359.7</ele>
    <time>2026-06-23T01:41:20Z</time>
   </trkpt>
   <trkpt lat="-3.0839810" lon="37.3677570">
    <ele>5359.8</ele>
    <time>2026-06-23T01:41:21Z</time>
   </trkpt>
   <trkpt lat="-3.0839820" lon="37.3677550">
    <ele>5359.8</ele>
    <time>2026-06-23T01:41:22Z</time>
   </trkpt>
   <trkpt lat="-3.0839840" lon="37.3677530">
    <ele>5359.9</ele>
    <time>2026-06-23T01:41:23Z</time>
   </trkpt>
   <trkpt lat="-3.0839830" lon="37.3677520">
    <ele>5359.9</ele>
    <time>2026-06-23T01:41:24Z</time>
   </trkpt>
   <trkpt lat="-3.0839860" lon="37.3677490">
    <ele>5360.0</ele>
    <time>2026-06-23T01:41:25Z</time>
   </trkpt>
   <trkpt lat="-3.0839860" lon="37.3677480">
    <ele>5360.1</ele>
    <time>2026-06-23T01:41:26Z</time>
   </trkpt>
   <trkpt lat="-3.0839870" lon="37.3677460">
    <ele>5360.1</ele>
    <time>2026-06-23T01:41:27Z</time>
   </trkpt>
   <trkpt lat="-3.0839870" lon="37.3677430">
    <ele>5360.2</ele>
    <time>2026-06-23T01:41:28Z</time>
   </trkpt>
   <trkpt lat="-3.0839890" lon="37.3677430">
    <ele>5360.2</ele>
    <time>2026-06-23T01:41:29Z</time>
   </trkpt>
   <trkpt lat="-3.0839890" lon="37.3677420">
    <ele>5360.2</ele>
    <time>2026-06-23T01:41:30Z</time>
   </trkpt>
   <trkpt lat="-3.0839880" lon="37.3677390">
    <ele>5360.3</ele>
    <time>2026-06-23T01:41:31Z</time>
   </trkpt>
   <trkpt lat="-3.0839880" lon="37.3677380">
    <ele>5360.3</ele>
    <time>2026-06-23T01:41:32Z</time>
   </trkpt>
   <trkpt lat="-3.0839890" lon="37.3677340">
    <ele>5360.4</ele>
    <time>2026-06-23T01:41:33Z</time>
   </trkpt>
   <trkpt lat="-3.0839890" lon="37.3677300">
    <ele>5360.5</ele>
    <time>2026-06-23T01:41:34Z</time>
   </trkpt>
   <trkpt lat="-3.0839900" lon="37.3677270">
    <ele>5360.6</ele>
    <time>2026-06-23T01:41:35Z</time>
   </trkpt>
   <trkpt lat="-3.0839890" lon="37.3677270">
    <ele>5360.6</ele>
    <time>2026-06-23T01:41:36Z</time>
   </trkpt>
   <trkpt lat="-3.0839890" lon="37.3677250">
    <ele>5360.7</ele>
    <time>2026-06-23T01:41:37Z</time>
   </trkpt>
   <trkpt lat="-3.0839880" lon="37.3677230">
    <ele>5360.7</ele>
    <time>2026-06-23T01:41:38Z</time>
   </trkpt>
   <trkpt lat="-3.0839860" lon="37.3677220">
    <ele>5360.8</ele>
    <time>2026-06-23T01:41:39Z</time>
   </trkpt>
   <trkpt lat="-3.0839850" lon="37.3677230">
    <ele>5360.8</ele>
    <time>2026-06-23T01:41:40Z</time>
   </trkpt>
   <trkpt lat="-3.0839840" lon="37.3677200">
    <ele>5360.9</ele>
    <time>2026-06-23T01:41:41Z</time>
   </trkpt>
   <trkpt lat="-3.0839810" lon="37.3677210">
    <ele>5361.0</ele>
    <time>2026-06-23T01:41:42Z</time>
   </trkpt>
   <trkpt lat="-3.0839790" lon="37.3677200">
    <ele>5361.0</ele>
    <time>2026-06-23T01:41:43Z</time>
   </trkpt>
   <trkpt lat="-3.0839760" lon="37.3677210">
    <ele>5361.1</ele>
    <time>2026-06-23T01:41:44Z</time>
   </trkpt>
   <trkpt lat="-3.0839750" lon="37.3677200">
    <ele>5361.1</ele>
    <time>2026-06-23T01:41:45Z</time>
   </trkpt>
   <trkpt lat="-3.0839720" lon="37.3677210">
    <ele>5361.2</ele>
    <time>2026-06-23T01:41:46Z</time>
   </trkpt>
   <trkpt lat="-3.0839710" lon="37.3677220">
    <ele>5361.2</ele>
    <time>2026-06-23T01:41:47Z</time>
   </trkpt>
   <trkpt lat="-3.0839710" lon="37.3677220">
    <ele>5361.2</ele>
    <time>2026-06-23T01:41:48Z</time>
   </trkpt>
   <trkpt lat="-3.0839690" lon="37.3677240">
    <ele>5361.3</ele>
    <time>2026-06-23T01:41:49Z</time>
   </trkpt>
   <trkpt lat="-3.0839670" lon="37.3677240">
    <ele>5361.3</ele>
    <time>2026-06-23T01:41:50Z</time>
   </trkpt>
   <trkpt lat="-3.0839660" lon="37.3677260">
    <ele>5361.4</ele>
    <time>2026-06-23T01:41:51Z</time>
   </trkpt>
   <trkpt lat="-3.0839640" lon="37.3677260">
    <ele>5361.4</ele>
    <time>2026-06-23T01:41:52Z</time>
   </trkpt>
   <trkpt lat="-3.0839620" lon="37.3677270">
    <ele>5361.5</ele>
    <time>2026-06-23T01:41:53Z</time>
   </trkpt>
   <trkpt lat="-3.0839610" lon="37.3677270">
    <ele>5361.5</ele>
    <time>2026-06-23T01:41:54Z</time>
   </trkpt>
   <trkpt lat="-3.0839590" lon="37.3677280">
    <ele>5361.5</ele>
    <time>2026-06-23T01:41:55Z</time>
   </trkpt>
   <trkpt lat="-3.0839580" lon="37.3677280">
    <ele>5361.6</ele>
    <time>2026-06-23T01:41:56Z</time>
   </trkpt>
   <trkpt lat="-3.0839560" lon="37.3677280">
    <ele>5361.6</ele>
    <time>2026-06-23T01:41:57Z</time>
   </trkpt>
   <trkpt lat="-3.0839550" lon="37.3677290">
    <ele>5361.7</ele>
    <time>2026-06-23T01:41:58Z</time>
   </trkpt>
   <trkpt lat="-3.0839520" lon="37.3677290">
    <ele>5361.7</ele>
    <time>2026-06-23T01:41:59Z</time>
   </trkpt>
   <trkpt lat="-3.0839510" lon="37.3677290">
    <ele>5361.7</ele>
    <time>2026-06-23T01:42:00Z</time>
   </trkpt>
   <trkpt lat="-3.0839490" lon="37.3677290">
    <ele>5361.8</ele>
    <time>2026-06-23T01:42:01Z</time>
   </trkpt>
   <trkpt lat="-3.0839490" lon="37.3677290">
    <ele>5361.8</ele>
    <time>2026-06-23T01:42:02Z</time>
   </trkpt>
   <trkpt lat="-3.0839470" lon="37.3677300">
    <ele>5361.8</ele>
    <time>2026-06-23T01:42:03Z</time>
   </trkpt>
   <trkpt lat="-3.0839450" lon="37.3677300">
    <ele>5361.9</ele>
    <time>2026-06-23T01:42:04Z</time>
   </trkpt>
   <trkpt lat="-3.0839430" lon="37.3677300">
    <ele>5361.9</ele>
    <time>2026-06-23T01:42:05Z</time>
   </trkpt>
   <trkpt lat="-3.0839410" lon="37.3677310">
    <ele>5362.0</ele>
    <time>2026-06-23T01:42:06Z</time>
   </trkpt>
   <trkpt lat="-3.0839390" lon="37.3677280">
    <ele>5362.1</ele>
    <time>2026-06-23T01:42:07Z</time>
   </trkpt>
   <trkpt lat="-3.0839380" lon="37.3677270">
    <ele>5362.1</ele>
    <time>2026-06-23T01:42:08Z</time>
   </trkpt>
   <trkpt lat="-3.0839360" lon="37.3677280">
    <ele>5362.2</ele>
    <time>2026-06-23T01:42:09Z</time>
   </trkpt>
   <trkpt lat="-3.0839340" lon="37.3677260">
    <ele>5362.2</ele>
    <time>2026-06-23T01:42:10Z</time>
   </trkpt>
   <trkpt lat="-3.0839340" lon="37.3677270">
    <ele>5362.2</ele>
    <time>2026-06-23T01:42:11Z</time>
   </trkpt>
   <trkpt lat="-3.0839310" lon="37.3677280">
    <ele>5362.3</ele>
    <time>2026-06-23T01:42:12Z</time>
   </trkpt>
   <trkpt lat="-3.0839300" lon="37.3677270">
    <ele>5362.3</ele>
    <time>2026-06-23T01:42:13Z</time>
   </trkpt>
   <trkpt lat="-3.0839280" lon="37.3677250">
    <ele>5362.4</ele>
    <time>2026-06-23T01:42:14Z</time>
   </trkpt>
   <trkpt lat="-3.0839270" lon="37.3677260">
    <ele>5362.4</ele>
    <time>2026-06-23T01:42:15Z</time>
   </trkpt>
   <trkpt lat="-3.0839280" lon="37.3677260">
    <ele>5362.5</ele>
    <time>2026-06-23T01:42:16Z</time>
   </trkpt>
   <trkpt lat="-3.0839270" lon="37.3677230">
    <ele>5362.5</ele>
    <time>2026-06-23T01:42:17Z</time>
   </trkpt>
   <trkpt lat="-3.0839270" lon="37.3677190">
    <ele>5362.6</ele>
    <time>2026-06-23T01:42:18Z</time>
   </trkpt>
   <trkpt lat="-3.0839270" lon="37.3677170">
    <ele>5362.7</ele>
    <time>2026-06-23T01:42:19Z</time>
   </trkpt>
   <trkpt lat="-3.0839280" lon="37.3677160">
    <ele>5362.7</ele>
    <time>2026-06-23T01:42:20Z</time>
   </trkpt>
   <trkpt lat="-3.0839280" lon="37.3677150">
    <ele>5362.7</ele>
    <time>2026-06-23T01:42:21Z</time>
   </trkpt>
   <trkpt lat="-3.0839290" lon="37.3677120">
    <ele>5362.8</ele>
    <time>2026-06-23T01:42:22Z</time>
   </trkpt>
   <trkpt lat="-3.0839280" lon="37.3677120">
    <ele>5362.8</ele>
    <time>2026-06-23T01:42:23Z</time>
   </trkpt>
   <trkpt lat="-3.0839280" lon="37.3677120">
    <ele>5362.8</ele>
    <time>2026-06-23T01:42:24Z</time>
   </trkpt>
   <trkpt lat="-3.0839280" lon="37.3677130">
    <ele>5362.9</ele>
    <time>2026-06-23T01:42:25Z</time>
   </trkpt>
   <trkpt lat="-3.0839280" lon="37.3677130">
    <ele>5362.9</ele>
    <time>2026-06-23T01:42:26Z</time>
   </trkpt>
   <trkpt lat="-3.0839280" lon="37.3677130">
    <ele>5362.9</ele>
    <time>2026-06-23T01:42:27Z</time>
   </trkpt>
   <trkpt lat="-3.0839280" lon="37.3677120">
    <ele>5362.9</ele>
    <time>2026-06-23T01:42:28Z</time>
   </trkpt>
   <trkpt lat="-3.0839310" lon="37.3677100">
    <ele>5363.0</ele>
    <time>2026-06-23T01:42:29Z</time>
   </trkpt>
   <trkpt lat="-3.0839310" lon="37.3677090">
    <ele>5363.0</ele>
    <time>2026-06-23T01:42:30Z</time>
   </trkpt>
   <trkpt lat="-3.0839330" lon="37.3677070">
    <ele>5363.0</ele>
    <time>2026-06-23T01:42:31Z</time>
   </trkpt>
   <trkpt lat="-3.0839330" lon="37.3677080">
    <ele>5363.1</ele>
    <time>2026-06-23T01:42:32Z</time>
   </trkpt>
   <trkpt lat="-3.0839330" lon="37.3677080">
    <ele>5363.1</ele>
    <time>2026-06-23T01:42:33Z</time>
   </trkpt>
   <trkpt lat="-3.0839350" lon="37.3677040">
    <ele>5363.2</ele>
    <time>2026-06-23T01:42:34Z</time>
   </trkpt>
   <trkpt lat="-3.0839350" lon="37.3677030">
    <ele>5363.2</ele>
    <time>2026-06-23T01:42:35Z</time>
   </trkpt>
   <trkpt lat="-3.0839380" lon="37.3677000">
    <ele>5363.3</ele>
    <time>2026-06-23T01:42:36Z</time>
   </trkpt>
   <trkpt lat="-3.0839400" lon="37.3676990">
    <ele>5363.3</ele>
    <time>2026-06-23T01:42:37Z</time>
   </trkpt>
   <trkpt lat="-3.0839400" lon="37.3677000">
    <ele>5363.4</ele>
    <time>2026-06-23T01:42:38Z</time>
   </trkpt>
   <trkpt lat="-3.0839440" lon="37.3676970">
    <ele>5363.5</ele>
    <time>2026-06-23T01:42:39Z</time>
   </trkpt>
   <trkpt lat="-3.0839460" lon="37.3676950">
    <ele>5363.5</ele>
    <time>2026-06-23T01:42:40Z</time>
   </trkpt>
   <trkpt lat="-3.0839450" lon="37.3676930">
    <ele>5363.6</ele>
    <time>2026-06-23T01:42:41Z</time>
   </trkpt>
   <trkpt lat="-3.0839450" lon="37.3676920">
    <ele>5363.6</ele>
    <time>2026-06-23T01:42:42Z</time>
   </trkpt>
   <trkpt lat="-3.0839450" lon="37.3676890">
    <ele>5363.7</ele>
    <time>2026-06-23T01:42:43Z</time>
   </trkpt>
   <trkpt lat="-3.0839430" lon="37.3676880">
    <ele>5363.7</ele>
    <time>2026-06-23T01:42:44Z</time>
   </trkpt>
   <trkpt lat="-3.0839430" lon="37.3676860">
    <ele>5363.8</ele>
    <time>2026-06-23T01:42:45Z</time>
   </trkpt>
   <trkpt lat="-3.0839420" lon="37.3676840">
    <ele>5363.8</ele>
    <time>2026-06-23T01:42:46Z</time>
   </trkpt>
   <trkpt lat="-3.0839410" lon="37.3676840">
    <ele>5363.9</ele>
    <time>2026-06-23T01:42:47Z</time>
   </trkpt>
   <trkpt lat="-3.0839430" lon="37.3676820">
    <ele>5363.9</ele>
    <time>2026-06-23T01:42:49Z</time>
   </trkpt>
   <trkpt lat="-3.0839430" lon="37.3676800">
    <ele>5364.0</ele>
    <time>2026-06-23T01:42:50Z</time>
   </trkpt>
   <trkpt lat="-3.0839450" lon="37.3676790">
    <ele>5364.0</ele>
    <time>2026-06-23T01:42:51Z</time>
   </trkpt>
   <trkpt lat="-3.0839440" lon="37.3676760">
    <ele>5364.1</ele>
    <time>2026-06-23T01:42:52Z</time>
   </trkpt>
   <trkpt lat="-3.0839440" lon="37.3676780">
    <ele>5364.1</ele>
    <time>2026-06-23T01:42:53Z</time>
   </trkpt>
   <trkpt lat="-3.0839440" lon="37.3676750">
    <ele>5364.2</ele>
    <time>2026-06-23T01:42:54Z</time>
   </trkpt>
   <trkpt lat="-3.0839440" lon="37.3676730">
    <ele>5364.2</ele>
    <time>2026-06-23T01:42:55Z</time>
   </trkpt>
   <trkpt lat="-3.0839440" lon="37.3676750">
    <ele>5364.3</ele>
    <time>2026-06-23T01:42:56Z</time>
   </trkpt>
   <trkpt lat="-3.0839460" lon="37.3676750">
    <ele>5364.3</ele>
    <time>2026-06-23T01:42:57Z</time>
   </trkpt>
   <trkpt lat="-3.0839470" lon="37.3676720">
    <ele>5364.4</ele>
    <time>2026-06-23T01:42:58Z</time>
   </trkpt>
   <trkpt lat="-3.0839470" lon="37.3676680">
    <ele>5364.5</ele>
    <time>2026-06-23T01:42:59Z</time>
   </trkpt>
   <trkpt lat="-3.0839470" lon="37.3676680">
    <ele>5364.5</ele>
    <time>2026-06-23T01:43:00Z</time>
   </trkpt>
   <trkpt lat="-3.0839500" lon="37.3676660">
    <ele>5364.6</ele>
    <time>2026-06-23T01:43:01Z</time>
   </trkpt>
   <trkpt lat="-3.0839510" lon="37.3676620">
    <ele>5364.7</ele>
    <time>2026-06-23T01:43:02Z</time>
   </trkpt>
   <trkpt lat="-3.0839530" lon="37.3676600">
    <ele>5364.7</ele>
    <time>2026-06-23T01:43:03Z</time>
   </trkpt>
   <trkpt lat="-3.0839510" lon="37.3676600">
    <ele>5364.8</ele>
    <time>2026-06-23T01:43:04Z</time>
   </trkpt>
   <trkpt lat="-3.0839510" lon="37.3676610">
    <ele>5364.8</ele>
    <time>2026-06-23T01:43:05Z</time>
   </trkpt>
   <trkpt lat="-3.0839530" lon="37.3676560">
    <ele>5364.9</ele>
    <time>2026-06-23T01:43:06Z</time>
   </trkpt>
   <trkpt lat="-3.0839540" lon="37.3676550">
    <ele>5364.9</ele>
    <time>2026-06-23T01:43:07Z</time>
   </trkpt>
   <trkpt lat="-3.0839540" lon="37.3676510">
    <ele>5365.0</ele>
    <time>2026-06-23T01:43:08Z</time>
   </trkpt>
   <trkpt lat="-3.0839550" lon="37.3676490">
    <ele>5365.1</ele>
    <time>2026-06-23T01:43:09Z</time>
   </trkpt>
   <trkpt lat="-3.0839520" lon="37.3676430">
    <ele>5365.2</ele>
    <time>2026-06-23T01:43:10Z</time>
   </trkpt>
   <trkpt lat="-3.0839520" lon="37.3676420">
    <ele>5365.2</ele>
    <time>2026-06-23T01:43:11Z</time>
   </trkpt>
   <trkpt lat="-3.0839490" lon="37.3676420">
    <ele>5365.3</ele>
    <time>2026-06-23T01:43:12Z</time>
   </trkpt>
   <trkpt lat="-3.0839470" lon="37.3676420">
    <ele>5365.3</ele>
    <time>2026-06-23T01:43:13Z</time>
   </trkpt>
   <trkpt lat="-3.0839440" lon="37.3676430">
    <ele>5365.4</ele>
    <time>2026-06-23T01:43:14Z</time>
   </trkpt>
   <trkpt lat="-3.0839420" lon="37.3676420">
    <ele>5365.5</ele>
    <time>2026-06-23T01:43:15Z</time>
   </trkpt>
   <trkpt lat="-3.0839400" lon="37.3676420">
    <ele>5365.5</ele>
    <time>2026-06-23T01:43:16Z</time>
   </trkpt>
   <trkpt lat="-3.0839380" lon="37.3676410">
    <ele>5365.5</ele>
    <time>2026-06-23T01:43:17Z</time>
   </trkpt>
   <trkpt lat="-3.0839340" lon="37.3676420">
    <ele>5365.6</ele>
    <time>2026-06-23T01:43:18Z</time>
   </trkpt>
   <trkpt lat="-3.0839320" lon="37.3676430">
    <ele>5365.7</ele>
    <time>2026-06-23T01:43:19Z</time>
   </trkpt>
   <trkpt lat="-3.0839310" lon="37.3676440">
    <ele>5365.7</ele>
    <time>2026-06-23T01:43:20Z</time>
   </trkpt>
   <trkpt lat="-3.0839280" lon="37.3676440">
    <ele>5365.8</ele>
    <time>2026-06-23T01:43:21Z</time>
   </trkpt>
   <trkpt lat="-3.0839270" lon="37.3676460">
    <ele>5365.8</ele>
    <time>2026-06-23T01:43:22Z</time>
   </trkpt>
   <trkpt lat="-3.0839250" lon="37.3676470">
    <ele>5365.9</ele>
    <time>2026-06-23T01:43:23Z</time>
   </trkpt>
   <trkpt lat="-3.0839230" lon="37.3676490">
    <ele>5365.9</ele>
    <time>2026-06-23T01:43:24Z</time>
   </trkpt>
   <trkpt lat="-3.0839220" lon="37.3676500">
    <ele>5366.0</ele>
    <time>2026-06-23T01:43:25Z</time>
   </trkpt>
   <trkpt lat="-3.0839200" lon="37.3676500">
    <ele>5366.0</ele>
    <time>2026-06-23T01:43:26Z</time>
   </trkpt>
   <trkpt lat="-3.0839180" lon="37.3676520">
    <ele>5366.1</ele>
    <time>2026-06-23T01:43:27Z</time>
   </trkpt>
   <trkpt lat="-3.0839170" lon="37.3676510">
    <ele>5366.1</ele>
    <time>2026-06-23T01:43:28Z</time>
   </trkpt>
   <trkpt lat="-3.0839140" lon="37.3676530">
    <ele>5366.2</ele>
    <time>2026-06-23T01:43:29Z</time>
   </trkpt>
   <trkpt lat="-3.0839130" lon="37.3676540">
    <ele>5366.2</ele>
    <time>2026-06-23T01:43:30Z</time>
   </trkpt>
   <trkpt lat="-3.0839120" lon="37.3676540">
    <ele>5366.2</ele>
    <time>2026-06-23T01:43:31Z</time>
   </trkpt>
   <trkpt lat="-3.0839090" lon="37.3676550">
    <ele>5366.3</ele>
    <time>2026-06-23T01:43:32Z</time>
   </trkpt>
   <trkpt lat="-3.0839080" lon="37.3676540">
    <ele>5366.3</ele>
    <time>2026-06-23T01:43:33Z</time>
   </trkpt>
   <trkpt lat="-3.0839040" lon="37.3676550">
    <ele>5366.4</ele>
    <time>2026-06-23T01:43:34Z</time>
   </trkpt>
   <trkpt lat="-3.0839030" lon="37.3676550">
    <ele>5366.4</ele>
    <time>2026-06-23T01:43:35Z</time>
   </trkpt>
   <trkpt lat="-3.0839020" lon="37.3676540">
    <ele>5366.5</ele>
    <time>2026-06-23T01:43:36Z</time>
   </trkpt>
   <trkpt lat="-3.0839000" lon="37.3676540">
    <ele>5366.5</ele>
    <time>2026-06-23T01:43:37Z</time>
   </trkpt>
   <trkpt lat="-3.0839010" lon="37.3676520">
    <ele>5366.6</ele>
    <time>2026-06-23T01:43:38Z</time>
   </trkpt>
   <trkpt lat="-3.0839000" lon="37.3676510">
    <ele>5366.6</ele>
    <time>2026-06-23T01:43:39Z</time>
   </trkpt>
   <trkpt lat="-3.0839000" lon="37.3676510">
    <ele>5366.6</ele>
    <time>2026-06-23T01:43:40Z</time>
   </trkpt>
   <trkpt lat="-3.0839000" lon="37.3676500">
    <ele>5366.6</ele>
    <time>2026-06-23T01:43:41Z</time>
   </trkpt>
   <trkpt lat="-3.0838990" lon="37.3676490">
    <ele>5366.6</ele>
    <time>2026-06-23T01:43:42Z</time>
   </trkpt>
   <trkpt lat="-3.0838990" lon="37.3676460">
    <ele>5366.7</ele>
    <time>2026-06-23T01:43:43Z</time>
   </trkpt>
   <trkpt lat="-3.0838990" lon="37.3676410">
    <ele>5366.8</ele>
    <time>2026-06-23T01:43:44Z</time>
   </trkpt>
   <trkpt lat="-3.0838990" lon="37.3676380">
    <ele>5366.9</ele>
    <time>2026-06-23T01:43:45Z</time>
   </trkpt>
   <trkpt lat="-3.0838990" lon="37.3676350">
    <ele>5366.9</ele>
    <time>2026-06-23T01:43:46Z</time>
   </trkpt>
   <trkpt lat="-3.0839000" lon="37.3676320">
    <ele>5367.0</ele>
    <time>2026-06-23T01:43:47Z</time>
   </trkpt>
   <trkpt lat="-3.0838990" lon="37.3676310">
    <ele>5367.0</ele>
    <time>2026-06-23T01:43:48Z</time>
   </trkpt>
   <trkpt lat="-3.0839010" lon="37.3676290">
    <ele>5367.1</ele>
    <time>2026-06-23T01:43:49Z</time>
   </trkpt>
   <trkpt lat="-3.0839010" lon="37.3676270">
    <ele>5367.1</ele>
    <time>2026-06-23T01:43:50Z</time>
   </trkpt>
   <trkpt lat="-3.0839010" lon="37.3676250">
    <ele>5367.2</ele>
    <time>2026-06-23T01:43:51Z</time>
   </trkpt>
   <trkpt lat="-3.0839030" lon="37.3676210">
    <ele>5367.2</ele>
    <time>2026-06-23T01:43:52Z</time>
   </trkpt>
   <trkpt lat="-3.0839040" lon="37.3676180">
    <ele>5367.3</ele>
    <time>2026-06-23T01:43:53Z</time>
   </trkpt>
   <trkpt lat="-3.0839040" lon="37.3676150">
    <ele>5367.4</ele>
    <time>2026-06-23T01:43:54Z</time>
   </trkpt>
   <trkpt lat="-3.0839030" lon="37.3676140">
    <ele>5367.4</ele>
    <time>2026-06-23T01:43:55Z</time>
   </trkpt>
   <trkpt lat="-3.0839040" lon="37.3676110">
    <ele>5367.5</ele>
    <time>2026-06-23T01:43:56Z</time>
   </trkpt>
   <trkpt lat="-3.0839030" lon="37.3676090">
    <ele>5367.5</ele>
    <time>2026-06-23T01:43:57Z</time>
   </trkpt>
   <trkpt lat="-3.0839000" lon="37.3676090">
    <ele>5367.6</ele>
    <time>2026-06-23T01:43:58Z</time>
   </trkpt>
   <trkpt lat="-3.0838980" lon="37.3676070">
    <ele>5367.6</ele>
    <time>2026-06-23T01:43:59Z</time>
   </trkpt>
   <trkpt lat="-3.0838970" lon="37.3676080">
    <ele>5367.7</ele>
    <time>2026-06-23T01:44:00Z</time>
   </trkpt>
   <trkpt lat="-3.0838950" lon="37.3676080">
    <ele>5367.7</ele>
    <time>2026-06-23T01:44:01Z</time>
   </trkpt>
   <trkpt lat="-3.0838930" lon="37.3676080">
    <ele>5367.8</ele>
    <time>2026-06-23T01:44:02Z</time>
   </trkpt>
   <trkpt lat="-3.0838910" lon="37.3676080">
    <ele>5367.8</ele>
    <time>2026-06-23T01:44:03Z</time>
   </trkpt>
   <trkpt lat="-3.0838890" lon="37.3676100">
    <ele>5367.9</ele>
    <time>2026-06-23T01:44:04Z</time>
   </trkpt>
   <trkpt lat="-3.0838880" lon="37.3676090">
    <ele>5367.9</ele>
    <time>2026-06-23T01:44:05Z</time>
   </trkpt>
   <trkpt lat="-3.0838880" lon="37.3676090">
    <ele>5367.9</ele>
    <time>2026-06-23T01:44:06Z</time>
   </trkpt>
   <trkpt lat="-3.0838870" lon="37.3676090">
    <ele>5367.9</ele>
    <time>2026-06-23T01:44:07Z</time>
   </trkpt>
   <trkpt lat="-3.0838860" lon="37.3676100">
    <ele>5367.9</ele>
    <time>2026-06-23T01:44:08Z</time>
   </trkpt>
   <trkpt lat="-3.0838850" lon="37.3676110">
    <ele>5368.0</ele>
    <time>2026-06-23T01:44:09Z</time>
   </trkpt>
   <trkpt lat="-3.0838820" lon="37.3676130">
    <ele>5368.0</ele>
    <time>2026-06-23T01:44:10Z</time>
   </trkpt>
   <trkpt lat="-3.0838790" lon="37.3676130">
    <ele>5368.1</ele>
    <time>2026-06-23T01:44:11Z</time>
   </trkpt>
   <trkpt lat="-3.0838770" lon="37.3676140">
    <ele>5368.1</ele>
    <time>2026-06-23T01:44:12Z</time>
   </trkpt>
   <trkpt lat="-3.0838770" lon="37.3676130">
    <ele>5368.2</ele>
    <time>2026-06-23T01:44:13Z</time>
   </trkpt>
   <trkpt lat="-3.0838740" lon="37.3676120">
    <ele>5368.2</ele>
    <time>2026-06-23T01:44:14Z</time>
   </trkpt>
   <trkpt lat="-3.0838740" lon="37.3676120">
    <ele>5368.2</ele>
    <time>2026-06-23T01:44:15Z</time>
   </trkpt>
   <trkpt lat="-3.0838700" lon="37.3676120">
    <ele>5368.3</ele>
    <time>2026-06-23T01:44:16Z</time>
   </trkpt>
   <trkpt lat="-3.0838670" lon="37.3676140">
    <ele>5368.4</ele>
    <time>2026-06-23T01:44:17Z</time>
   </trkpt>
   <trkpt lat="-3.0838650" lon="37.3676140">
    <ele>5368.4</ele>
    <time>2026-06-23T01:44:18Z</time>
   </trkpt>
   <trkpt lat="-3.0838610" lon="37.3676140">
    <ele>5368.5</ele>
    <time>2026-06-23T01:44:19Z</time>
   </trkpt>
   <trkpt lat="-3.0838620" lon="37.3676150">
    <ele>5368.5</ele>
    <time>2026-06-23T01:44:20Z</time>
   </trkpt>
   <trkpt lat="-3.0838600" lon="37.3676160">
    <ele>5368.6</ele>
    <time>2026-06-23T01:44:21Z</time>
   </trkpt>
   <trkpt lat="-3.0838570" lon="37.3676170">
    <ele>5368.6</ele>
    <time>2026-06-23T01:44:22Z</time>
   </trkpt>
   <trkpt lat="-3.0838560" lon="37.3676200">
    <ele>5368.7</ele>
    <time>2026-06-23T01:44:23Z</time>
   </trkpt>
   <trkpt lat="-3.0838550" lon="37.3676210">
    <ele>5368.7</ele>
    <time>2026-06-23T01:44:24Z</time>
   </trkpt>
   <trkpt lat="-3.0838540" lon="37.3676230">
    <ele>5368.8</ele>
    <time>2026-06-23T01:44:25Z</time>
   </trkpt>
   <trkpt lat="-3.0838530" lon="37.3676240">
    <ele>5368.8</ele>
    <time>2026-06-23T01:44:26Z</time>
   </trkpt>
   <trkpt lat="-3.0838520" lon="37.3676270">
    <ele>5368.9</ele>
    <time>2026-06-23T01:44:27Z</time>
   </trkpt>
   <trkpt lat="-3.0838490" lon="37.3676290">
    <ele>5369.0</ele>
    <time>2026-06-23T01:44:28Z</time>
   </trkpt>
   <trkpt lat="-3.0838480" lon="37.3676320">
    <ele>5369.0</ele>
    <time>2026-06-23T01:44:29Z</time>
   </trkpt>
   <trkpt lat="-3.0838460" lon="37.3676320">
    <ele>5369.1</ele>
    <time>2026-06-23T01:44:30Z</time>
   </trkpt>
   <trkpt lat="-3.0838450" lon="37.3676330">
    <ele>5369.1</ele>
    <time>2026-06-23T01:44:31Z</time>
   </trkpt>
   <trkpt lat="-3.0838420" lon="37.3676310">
    <ele>5369.2</ele>
    <time>2026-06-23T01:44:32Z</time>
   </trkpt>
   <trkpt lat="-3.0838400" lon="37.3676320">
    <ele>5369.2</ele>
    <time>2026-06-23T01:44:33Z</time>
   </trkpt>
   <trkpt lat="-3.0838390" lon="37.3676280">
    <ele>5369.3</ele>
    <time>2026-06-23T01:44:34Z</time>
   </trkpt>
   <trkpt lat="-3.0838380" lon="37.3676270">
    <ele>5369.3</ele>
    <time>2026-06-23T01:44:35Z</time>
   </trkpt>
   <trkpt lat="-3.0838380" lon="37.3676270">
    <ele>5369.3</ele>
    <time>2026-06-23T01:44:36Z</time>
   </trkpt>
   <trkpt lat="-3.0838370" lon="37.3676230">
    <ele>5369.4</ele>
    <time>2026-06-23T01:44:37Z</time>
   </trkpt>
   <trkpt lat="-3.0838360" lon="37.3676230">
    <ele>5369.4</ele>
    <time>2026-06-23T01:44:38Z</time>
   </trkpt>
   <trkpt lat="-3.0838350" lon="37.3676230">
    <ele>5369.5</ele>
    <time>2026-06-23T01:44:39Z</time>
   </trkpt>
   <trkpt lat="-3.0838360" lon="37.3676210">
    <ele>5369.5</ele>
    <time>2026-06-23T01:44:40Z</time>
   </trkpt>
   <trkpt lat="-3.0838360" lon="37.3676220">
    <ele>5369.5</ele>
    <time>2026-06-23T01:44:41Z</time>
   </trkpt>
   <trkpt lat="-3.0838340" lon="37.3676200">
    <ele>5369.6</ele>
    <time>2026-06-23T01:44:42Z</time>
   </trkpt>
   <trkpt lat="-3.0838350" lon="37.3676210">
    <ele>5369.6</ele>
    <time>2026-06-23T01:44:43Z</time>
   </trkpt>
   <trkpt lat="-3.0838340" lon="37.3676220">
    <ele>5369.6</ele>
    <time>2026-06-23T01:44:44Z</time>
   </trkpt>
   <trkpt lat="-3.0838350" lon="37.3676210">
    <ele>5369.7</ele>
    <time>2026-06-23T01:44:45Z</time>
   </trkpt>
   <trkpt lat="-3.0838360" lon="37.3676190">
    <ele>5369.7</ele>
    <time>2026-06-23T01:44:46Z</time>
   </trkpt>
   <trkpt lat="-3.0838360" lon="37.3676180">
    <ele>5369.7</ele>
    <time>2026-06-23T01:44:47Z</time>
   </trkpt>
   <trkpt lat="-3.0838360" lon="37.3676180">
    <ele>5369.7</ele>
    <time>2026-06-23T01:44:48Z</time>
   </trkpt>
   <trkpt lat="-3.0838360" lon="37.3676150">
    <ele>5369.8</ele>
    <time>2026-06-23T01:44:49Z</time>
   </trkpt>
   <trkpt lat="-3.0838360" lon="37.3676140">
    <ele>5369.8</ele>
    <time>2026-06-23T01:44:50Z</time>
   </trkpt>
   <trkpt lat="-3.0838360" lon="37.3676120">
    <ele>5369.9</ele>
    <time>2026-06-23T01:44:51Z</time>
   </trkpt>
   <trkpt lat="-3.0838350" lon="37.3676090">
    <ele>5369.9</ele>
    <time>2026-06-23T01:44:52Z</time>
   </trkpt>
   <trkpt lat="-3.0838350" lon="37.3676070">
    <ele>5370.0</ele>
    <time>2026-06-23T01:44:54Z</time>
   </trkpt>
   <trkpt lat="-3.0838340" lon="37.3676080">
    <ele>5370.0</ele>
    <time>2026-06-23T01:44:55Z</time>
   </trkpt>
   <trkpt lat="-3.0838330" lon="37.3676080">
    <ele>5370.0</ele>
    <time>2026-06-23T01:44:56Z</time>
   </trkpt>
   <trkpt lat="-3.0838320" lon="37.3676060">
    <ele>5370.1</ele>
    <time>2026-06-23T01:44:57Z</time>
   </trkpt>
   <trkpt lat="-3.0838300" lon="37.3676020">
    <ele>5370.2</ele>
    <time>2026-06-23T01:44:58Z</time>
   </trkpt>
   <trkpt lat="-3.0838290" lon="37.3676020">
    <ele>5370.2</ele>
    <time>2026-06-23T01:44:59Z</time>
   </trkpt>
   <trkpt lat="-3.0838280" lon="37.3676020">
    <ele>5370.2</ele>
    <time>2026-06-23T01:45:00Z</time>
   </trkpt>
   <trkpt lat="-3.0838270" lon="37.3676000">
    <ele>5370.2</ele>
    <time>2026-06-23T01:45:01Z</time>
   </trkpt>
   <trkpt lat="-3.0838260" lon="37.3675980">
    <ele>5370.3</ele>
    <time>2026-06-23T01:45:02Z</time>
   </trkpt>
   <trkpt lat="-3.0838250" lon="37.3675990">
    <ele>5370.3</ele>
    <time>2026-06-23T01:45:03Z</time>
   </trkpt>
   <trkpt lat="-3.0838220" lon="37.3676000">
    <ele>5370.4</ele>
    <time>2026-06-23T01:45:04Z</time>
   </trkpt>
   <trkpt lat="-3.0838210" lon="37.3675980">
    <ele>5370.4</ele>
    <time>2026-06-23T01:45:05Z</time>
   </trkpt>
   <trkpt lat="-3.0838200" lon="37.3675970">
    <ele>5370.4</ele>
    <time>2026-06-23T01:45:06Z</time>
   </trkpt>
   <trkpt lat="-3.0838170" lon="37.3675970">
    <ele>5370.5</ele>
    <time>2026-06-23T01:45:07Z</time>
   </trkpt>
   <trkpt lat="-3.0838150" lon="37.3675960">
    <ele>5370.6</ele>
    <time>2026-06-23T01:45:08Z</time>
   </trkpt>
   <trkpt lat="-3.0838140" lon="37.3675980">
    <ele>5370.6</ele>
    <time>2026-06-23T01:45:09Z</time>
   </trkpt>
   <trkpt lat="-3.0838120" lon="37.3675970">
    <ele>5370.6</ele>
    <time>2026-06-23T01:45:10Z</time>
   </trkpt>
   <trkpt lat="-3.0838110" lon="37.3675980">
    <ele>5370.7</ele>
    <time>2026-06-23T01:45:11Z</time>
   </trkpt>
   <trkpt lat="-3.0838080" lon="37.3676020">
    <ele>5370.8</ele>
    <time>2026-06-23T01:45:12Z</time>
   </trkpt>
   <trkpt lat="-3.0838060" lon="37.3676040">
    <ele>5370.8</ele>
    <time>2026-06-23T01:45:13Z</time>
   </trkpt>
   <trkpt lat="-3.0838040" lon="37.3676020">
    <ele>5370.9</ele>
    <time>2026-06-23T01:45:14Z</time>
   </trkpt>
   <trkpt lat="-3.0838020" lon="37.3676040">
    <ele>5370.9</ele>
    <time>2026-06-23T01:45:15Z</time>
   </trkpt>
   <trkpt lat="-3.0838010" lon="37.3676040">
    <ele>5371.0</ele>
    <time>2026-06-23T01:45:16Z</time>
   </trkpt>
   <trkpt lat="-3.0837990" lon="37.3676040">
    <ele>5371.0</ele>
    <time>2026-06-23T01:45:17Z</time>
   </trkpt>
   <trkpt lat="-3.0837980" lon="37.3676050">
    <ele>5371.0</ele>
    <time>2026-06-23T01:45:18Z</time>
   </trkpt>
   <trkpt lat="-3.0837940" lon="37.3676070">
    <ele>5371.1</ele>
    <time>2026-06-23T01:45:19Z</time>
   </trkpt>
   <trkpt lat="-3.0837920" lon="37.3676080">
    <ele>5371.2</ele>
    <time>2026-06-23T01:45:20Z</time>
   </trkpt>
   <trkpt lat="-3.0837900" lon="37.3676100">
    <ele>5371.2</ele>
    <time>2026-06-23T01:45:21Z</time>
   </trkpt>
   <trkpt lat="-3.0837880" lon="37.3676120">
    <ele>5371.3</ele>
    <time>2026-06-23T01:45:22Z</time>
   </trkpt>
   <trkpt lat="-3.0837860" lon="37.3676150">
    <ele>5371.3</ele>
    <time>2026-06-23T01:45:23Z</time>
   </trkpt>
   <trkpt lat="-3.0837840" lon="37.3676180">
    <ele>5371.4</ele>
    <time>2026-06-23T01:45:24Z</time>
   </trkpt>
   <trkpt lat="-3.0837840" lon="37.3676200">
    <ele>5371.4</ele>
    <time>2026-06-23T01:45:25Z</time>
   </trkpt>
   <trkpt lat="-3.0837800" lon="37.3676230">
    <ele>5371.5</ele>
    <time>2026-06-23T01:45:26Z</time>
   </trkpt>
   <trkpt lat="-3.0837780" lon="37.3676240">
    <ele>5371.6</ele>
    <time>2026-06-23T01:45:27Z</time>
   </trkpt>
   <trkpt lat="-3.0837770" lon="37.3676260">
    <ele>5371.6</ele>
    <time>2026-06-23T01:45:28Z</time>
   </trkpt>
   <trkpt lat="-3.0837750" lon="37.3676270">
    <ele>5371.7</ele>
    <time>2026-06-23T01:45:29Z</time>
   </trkpt>
   <trkpt lat="-3.0837740" lon="37.3676290">
    <ele>5371.7</ele>
    <time>2026-06-23T01:45:30Z</time>
   </trkpt>
   <trkpt lat="-3.0837720" lon="37.3676310">
    <ele>5371.8</ele>
    <time>2026-06-23T01:45:31Z</time>
   </trkpt>
   <trkpt lat="-3.0837700" lon="37.3676330">
    <ele>5371.8</ele>
    <time>2026-06-23T01:45:32Z</time>
   </trkpt>
   <trkpt lat="-3.0837680" lon="37.3676340">
    <ele>5371.9</ele>
    <time>2026-06-23T01:45:33Z</time>
   </trkpt>
   <trkpt lat="-3.0837670" lon="37.3676330">
    <ele>5371.9</ele>
    <time>2026-06-23T01:45:34Z</time>
   </trkpt>
   <trkpt lat="-3.0837650" lon="37.3676350">
    <ele>5372.0</ele>
    <time>2026-06-23T01:45:35Z</time>
   </trkpt>
   <trkpt lat="-3.0837640" lon="37.3676360">
    <ele>5372.0</ele>
    <time>2026-06-23T01:45:36Z</time>
   </trkpt>
   <trkpt lat="-3.0837620" lon="37.3676380">
    <ele>5372.0</ele>
    <time>2026-06-23T01:45:37Z</time>
   </trkpt>
   <trkpt lat="-3.0837600" lon="37.3676370">
    <ele>5372.1</ele>
    <time>2026-06-23T01:45:38Z</time>
   </trkpt>
   <trkpt lat="-3.0837570" lon="37.3676380">
    <ele>5372.2</ele>
    <time>2026-06-23T01:45:39Z</time>
   </trkpt>
   <trkpt lat="-3.0837550" lon="37.3676370">
    <ele>5372.2</ele>
    <time>2026-06-23T01:45:40Z</time>
   </trkpt>
   <trkpt lat="-3.0837520" lon="37.3676370">
    <ele>5372.3</ele>
    <time>2026-06-23T01:45:41Z</time>
   </trkpt>
   <trkpt lat="-3.0837520" lon="37.3676340">
    <ele>5372.3</ele>
    <time>2026-06-23T01:45:42Z</time>
   </trkpt>
   <trkpt lat="-3.0837500" lon="37.3676320">
    <ele>5372.4</ele>
    <time>2026-06-23T01:45:43Z</time>
   </trkpt>
   <trkpt lat="-3.0837500" lon="37.3676300">
    <ele>5372.4</ele>
    <time>2026-06-23T01:45:44Z</time>
   </trkpt>
   <trkpt lat="-3.0837490" lon="37.3676300">
    <ele>5372.4</ele>
    <time>2026-06-23T01:45:45Z</time>
   </trkpt>
   <trkpt lat="-3.0837500" lon="37.3676280">
    <ele>5372.5</ele>
    <time>2026-06-23T01:45:46Z</time>
   </trkpt>
   <trkpt lat="-3.0837500" lon="37.3676250">
    <ele>5372.5</ele>
    <time>2026-06-23T01:45:47Z</time>
   </trkpt>
   <trkpt lat="-3.0837500" lon="37.3676220">
    <ele>5372.6</ele>
    <time>2026-06-23T01:45:48Z</time>
   </trkpt>
   <trkpt lat="-3.0837510" lon="37.3676200">
    <ele>5372.6</ele>
    <time>2026-06-23T01:45:49Z</time>
   </trkpt>
   <trkpt lat="-3.0837510" lon="37.3676190">
    <ele>5372.7</ele>
    <time>2026-06-23T01:45:50Z</time>
   </trkpt>
   <trkpt lat="-3.0837510" lon="37.3676160">
    <ele>5372.7</ele>
    <time>2026-06-23T01:45:51Z</time>
   </trkpt>
   <trkpt lat="-3.0837520" lon="37.3676140">
    <ele>5372.8</ele>
    <time>2026-06-23T01:45:52Z</time>
   </trkpt>
   <trkpt lat="-3.0837510" lon="37.3676110">
    <ele>5372.8</ele>
    <time>2026-06-23T01:45:53Z</time>
   </trkpt>
   <trkpt lat="-3.0837520" lon="37.3676080">
    <ele>5372.9</ele>
    <time>2026-06-23T01:45:54Z</time>
   </trkpt>
   <trkpt lat="-3.0837510" lon="37.3676070">
    <ele>5372.9</ele>
    <time>2026-06-23T01:45:55Z</time>
   </trkpt>
   <trkpt lat="-3.0837510" lon="37.3676060">
    <ele>5372.9</ele>
    <time>2026-06-23T01:45:56Z</time>
   </trkpt>
   <trkpt lat="-3.0837510" lon="37.3676030">
    <ele>5373.0</ele>
    <time>2026-06-23T01:45:57Z</time>
   </trkpt>
   <trkpt lat="-3.0837490" lon="37.3676030">
    <ele>5373.0</ele>
    <time>2026-06-23T01:45:58Z</time>
   </trkpt>
   <trkpt lat="-3.0837480" lon="37.3676000">
    <ele>5373.1</ele>
    <time>2026-06-23T01:45:59Z</time>
   </trkpt>
   <trkpt lat="-3.0837460" lon="37.3675980">
    <ele>5373.1</ele>
    <time>2026-06-23T01:46:00Z</time>
   </trkpt>
   <trkpt lat="-3.0837440" lon="37.3675970">
    <ele>5373.2</ele>
    <time>2026-06-23T01:46:01Z</time>
   </trkpt>
   <trkpt lat="-3.0837410" lon="37.3675960">
    <ele>5373.3</ele>
    <time>2026-06-23T01:46:02Z</time>
   </trkpt>
   <trkpt lat="-3.0837390" lon="37.3675980">
    <ele>5373.3</ele>
    <time>2026-06-23T01:46:03Z</time>
   </trkpt>
   <trkpt lat="-3.0837390" lon="37.3675980">
    <ele>5373.3</ele>
    <time>2026-06-23T01:46:04Z</time>
   </trkpt>
   <trkpt lat="-3.0837370" lon="37.3675970">
    <ele>5373.4</ele>
    <time>2026-06-23T01:46:05Z</time>
   </trkpt>
   <trkpt lat="-3.0837350" lon="37.3675990">
    <ele>5373.4</ele>
    <time>2026-06-23T01:46:06Z</time>
   </trkpt>
   <trkpt lat="-3.0837330" lon="37.3676000">
    <ele>5373.5</ele>
    <time>2026-06-23T01:46:07Z</time>
   </trkpt>
   <trkpt lat="-3.0837310" lon="37.3676010">
    <ele>5373.5</ele>
    <time>2026-06-23T01:46:08Z</time>
   </trkpt>
   <trkpt lat="-3.0837290" lon="37.3676020">
    <ele>5373.5</ele>
    <time>2026-06-23T01:46:09Z</time>
   </trkpt>
   <trkpt lat="-3.0837270" lon="37.3676050">
    <ele>5373.6</ele>
    <time>2026-06-23T01:46:10Z</time>
   </trkpt>
   <trkpt lat="-3.0837260" lon="37.3676050">
    <ele>5373.6</ele>
    <time>2026-06-23T01:46:11Z</time>
   </trkpt>
   <trkpt lat="-3.0837250" lon="37.3676070">
    <ele>5373.7</ele>
    <time>2026-06-23T01:46:12Z</time>
   </trkpt>
   <trkpt lat="-3.0837220" lon="37.3676100">
    <ele>5373.8</ele>
    <time>2026-06-23T01:46:13Z</time>
   </trkpt>
   <trkpt lat="-3.0837200" lon="37.3676100">
    <ele>5373.8</ele>
    <time>2026-06-23T01:46:14Z</time>
   </trkpt>
   <trkpt lat="-3.0837180" lon="37.3676110">
    <ele>5373.8</ele>
    <time>2026-06-23T01:46:15Z</time>
   </trkpt>
   <trkpt lat="-3.0837160" lon="37.3676130">
    <ele>5373.9</ele>
    <time>2026-06-23T01:46:16Z</time>
   </trkpt>
   <trkpt lat="-3.0837140" lon="37.3676150">
    <ele>5374.0</ele>
    <time>2026-06-23T01:46:17Z</time>
   </trkpt>
   <trkpt lat="-3.0837130" lon="37.3676160">
    <ele>5374.0</ele>
    <time>2026-06-23T01:46:18Z</time>
   </trkpt>
   <trkpt lat="-3.0837110" lon="37.3676170">
    <ele>5374.0</ele>
    <time>2026-06-23T01:46:19Z</time>
   </trkpt>
   <trkpt lat="-3.0837090" lon="37.3676190">
    <ele>5374.1</ele>
    <time>2026-06-23T01:46:20Z</time>
   </trkpt>
   <trkpt lat="-3.0837080" lon="37.3676200">
    <ele>5374.1</ele>
    <time>2026-06-23T01:46:21Z</time>
   </trkpt>
   <trkpt lat="-3.0837070" lon="37.3676200">
    <ele>5374.1</ele>
    <time>2026-06-23T01:46:22Z</time>
   </trkpt>
   <trkpt lat="-3.0837030" lon="37.3676220">
    <ele>5374.2</ele>
    <time>2026-06-23T01:46:23Z</time>
   </trkpt>
   <trkpt lat="-3.0837010" lon="37.3676210">
    <ele>5374.3</ele>
    <time>2026-06-23T01:46:24Z</time>
   </trkpt>
   <trkpt lat="-3.0836990" lon="37.3676230">
    <ele>5374.3</ele>
    <time>2026-06-23T01:46:25Z</time>
   </trkpt>
   <trkpt lat="-3.0836960" lon="37.3676240">
    <ele>5374.4</ele>
    <time>2026-06-23T01:46:26Z</time>
   </trkpt>
   <trkpt lat="-3.0836940" lon="37.3676230">
    <ele>5374.4</ele>
    <time>2026-06-23T01:46:27Z</time>
   </trkpt>
   <trkpt lat="-3.0836910" lon="37.3676220">
    <ele>5374.5</ele>
    <time>2026-06-23T01:46:28Z</time>
   </trkpt>
   <trkpt lat="-3.0836890" lon="37.3676210">
    <ele>5374.5</ele>
    <time>2026-06-23T01:46:29Z</time>
   </trkpt>
   <trkpt lat="-3.0836870" lon="37.3676190">
    <ele>5374.6</ele>
    <time>2026-06-23T01:46:30Z</time>
   </trkpt>
   <trkpt lat="-3.0836850" lon="37.3676180">
    <ele>5374.6</ele>
    <time>2026-06-23T01:46:31Z</time>
   </trkpt>
   <trkpt lat="-3.0836870" lon="37.3676150">
    <ele>5374.7</ele>
    <time>2026-06-23T01:46:32Z</time>
   </trkpt>
   <trkpt lat="-3.0836870" lon="37.3676100">
    <ele>5374.8</ele>
    <time>2026-06-23T01:46:33Z</time>
   </trkpt>
   <trkpt lat="-3.0836870" lon="37.3676100">
    <ele>5374.8</ele>
    <time>2026-06-23T01:46:34Z</time>
   </trkpt>
   <trkpt lat="-3.0836880" lon="37.3676080">
    <ele>5374.8</ele>
    <time>2026-06-23T01:46:35Z</time>
   </trkpt>
   <trkpt lat="-3.0836900" lon="37.3676040">
    <ele>5374.9</ele>
    <time>2026-06-23T01:46:36Z</time>
   </trkpt>
   <trkpt lat="-3.0836910" lon="37.3676010">
    <ele>5375.0</ele>
    <time>2026-06-23T01:46:37Z</time>
   </trkpt>
   <trkpt lat="-3.0836910" lon="37.3675990">
    <ele>5375.0</ele>
    <time>2026-06-23T01:46:38Z</time>
   </trkpt>
   <trkpt lat="-3.0836920" lon="37.3675970">
    <ele>5375.1</ele>
    <time>2026-06-23T01:46:39Z</time>
   </trkpt>
   <trkpt lat="-3.0836930" lon="37.3675950">
    <ele>5375.1</ele>
    <time>2026-06-23T01:46:40Z</time>
   </trkpt>
   <trkpt lat="-3.0836940" lon="37.3675930">
    <ele>5375.2</ele>
    <time>2026-06-23T01:46:41Z</time>
   </trkpt>
   <trkpt lat="-3.0836970" lon="37.3675910">
    <ele>5375.2</ele>
    <time>2026-06-23T01:46:42Z</time>
   </trkpt>
   <trkpt lat="-3.0836970" lon="37.3675880">
    <ele>5375.3</ele>
    <time>2026-06-23T01:46:43Z</time>
   </trkpt>
   <trkpt lat="-3.0837000" lon="37.3675860">
    <ele>5375.4</ele>
    <time>2026-06-23T01:46:44Z</time>
   </trkpt>
   <trkpt lat="-3.0837020" lon="37.3675810">
    <ele>5375.5</ele>
    <time>2026-06-23T01:46:45Z</time>
   </trkpt>
   <trkpt lat="-3.0837020" lon="37.3675810">
    <ele>5375.5</ele>
    <time>2026-06-23T01:46:46Z</time>
   </trkpt>
   <trkpt lat="-3.0837050" lon="37.3675770">
    <ele>5375.6</ele>
    <time>2026-06-23T01:46:47Z</time>
   </trkpt>
   <trkpt lat="-3.0837060" lon="37.3675750">
    <ele>5375.6</ele>
    <time>2026-06-23T01:46:48Z</time>
   </trkpt>
   <trkpt lat="-3.0837060" lon="37.3675740">
    <ele>5375.6</ele>
    <time>2026-06-23T01:46:49Z</time>
   </trkpt>
   <trkpt lat="-3.0837070" lon="37.3675710">
    <ele>5375.7</ele>
    <time>2026-06-23T01:46:50Z</time>
   </trkpt>
   <trkpt lat="-3.0837080" lon="37.3675690">
    <ele>5375.7</ele>
    <time>2026-06-23T01:46:51Z</time>
   </trkpt>
   <trkpt lat="-3.0837100" lon="37.3675680">
    <ele>5375.8</ele>
    <time>2026-06-23T01:46:52Z</time>
   </trkpt>
   <trkpt lat="-3.0837100" lon="37.3675670">
    <ele>5375.8</ele>
    <time>2026-06-23T01:46:53Z</time>
   </trkpt>
   <trkpt lat="-3.0837120" lon="37.3675650">
    <ele>5375.9</ele>
    <time>2026-06-23T01:46:54Z</time>
   </trkpt>
   <trkpt lat="-3.0837120" lon="37.3675640">
    <ele>5375.9</ele>
    <time>2026-06-23T01:46:55Z</time>
   </trkpt>
   <trkpt lat="-3.0837130" lon="37.3675630">
    <ele>5375.9</ele>
    <time>2026-06-23T01:46:56Z</time>
   </trkpt>
   <trkpt lat="-3.0837140" lon="37.3675610">
    <ele>5376.0</ele>
    <time>2026-06-23T01:46:57Z</time>
   </trkpt>
   <trkpt lat="-3.0837150" lon="37.3675590">
    <ele>5376.0</ele>
    <time>2026-06-23T01:46:58Z</time>
   </trkpt>
   <trkpt lat="-3.0837170" lon="37.3675570">
    <ele>5376.1</ele>
    <time>2026-06-23T01:47:00Z</time>
   </trkpt>
   <trkpt lat="-3.0837150" lon="37.3675560">
    <ele>5376.1</ele>
    <time>2026-06-23T01:47:01Z</time>
   </trkpt>
   <trkpt lat="-3.0837170" lon="37.3675520">
    <ele>5376.2</ele>
    <time>2026-06-23T01:47:02Z</time>
   </trkpt>
   <trkpt lat="-3.0837160" lon="37.3675510">
    <ele>5376.2</ele>
    <time>2026-06-23T01:47:03Z</time>
   </trkpt>
   <trkpt lat="-3.0837190" lon="37.3675480">
    <ele>5376.3</ele>
    <time>2026-06-23T01:47:04Z</time>
   </trkpt>
   <trkpt lat="-3.0837180" lon="37.3675460">
    <ele>5376.3</ele>
    <time>2026-06-23T01:47:05Z</time>
   </trkpt>
   <trkpt lat="-3.0837190" lon="37.3675440">
    <ele>5376.4</ele>
    <time>2026-06-23T01:47:06Z</time>
   </trkpt>
   <trkpt lat="-3.0837200" lon="37.3675420">
    <ele>5376.4</ele>
    <time>2026-06-23T01:47:07Z</time>
   </trkpt>
   <trkpt lat="-3.0837190" lon="37.3675410">
    <ele>5376.5</ele>
    <time>2026-06-23T01:47:08Z</time>
   </trkpt>
   <trkpt lat="-3.0837190" lon="37.3675400">
    <ele>5376.5</ele>
    <time>2026-06-23T01:47:09Z</time>
   </trkpt>
   <trkpt lat="-3.0837190" lon="37.3675390">
    <ele>5376.5</ele>
    <time>2026-06-23T01:47:10Z</time>
   </trkpt>
   <trkpt lat="-3.0837200" lon="37.3675370">
    <ele>5376.5</ele>
    <time>2026-06-23T01:47:11Z</time>
   </trkpt>
   <trkpt lat="-3.0837200" lon="37.3675350">
    <ele>5376.6</ele>
    <time>2026-06-23T01:47:12Z</time>
   </trkpt>
   <trkpt lat="-3.0837190" lon="37.3675340">
    <ele>5376.6</ele>
    <time>2026-06-23T01:47:13Z</time>
   </trkpt>
   <trkpt lat="-3.0837200" lon="37.3675320">
    <ele>5376.6</ele>
    <time>2026-06-23T01:47:14Z</time>
   </trkpt>
   <trkpt lat="-3.0837200" lon="37.3675310">
    <ele>5376.7</ele>
    <time>2026-06-23T01:47:15Z</time>
   </trkpt>
   <trkpt lat="-3.0837200" lon="37.3675290">
    <ele>5376.7</ele>
    <time>2026-06-23T01:47:16Z</time>
   </trkpt>
   <trkpt lat="-3.0837220" lon="37.3675260">
    <ele>5376.8</ele>
    <time>2026-06-23T01:47:17Z</time>
   </trkpt>
   <trkpt lat="-3.0837210" lon="37.3675250">
    <ele>5376.8</ele>
    <time>2026-06-23T01:47:18Z</time>
   </trkpt>
   <trkpt lat="-3.0837230" lon="37.3675240">
    <ele>5376.9</ele>
    <time>2026-06-23T01:47:19Z</time>
   </trkpt>
   <trkpt lat="-3.0837240" lon="37.3675230">
    <ele>5376.9</ele>
    <time>2026-06-23T01:47:20Z</time>
   </trkpt>
   <trkpt lat="-3.0837250" lon="37.3675220">
    <ele>5376.9</ele>
    <time>2026-06-23T01:47:21Z</time>
   </trkpt>
   <trkpt lat="-3.0837250" lon="37.3675210">
    <ele>5376.9</ele>
    <time>2026-06-23T01:47:22Z</time>
   </trkpt>
   <trkpt lat="-3.0837270" lon="37.3675190">
    <ele>5377.0</ele>
    <time>2026-06-23T01:47:23Z</time>
   </trkpt>
   <trkpt lat="-3.0837270" lon="37.3675170">
    <ele>5377.0</ele>
    <time>2026-06-23T01:47:24Z</time>
   </trkpt>
   <trkpt lat="-3.0837280" lon="37.3675170">
    <ele>5377.0</ele>
    <time>2026-06-23T01:47:25Z</time>
   </trkpt>
   <trkpt lat="-3.0837280" lon="37.3675150">
    <ele>5377.1</ele>
    <time>2026-06-23T01:47:26Z</time>
   </trkpt>
   <trkpt lat="-3.0837310" lon="37.3675130">
    <ele>5377.2</ele>
    <time>2026-06-23T01:47:27Z</time>
   </trkpt>
   <trkpt lat="-3.0837310" lon="37.3675100">
    <ele>5377.2</ele>
    <time>2026-06-23T01:47:28Z</time>
   </trkpt>
   <trkpt lat="-3.0837340" lon="37.3675080">
    <ele>5377.3</ele>
    <time>2026-06-23T01:47:29Z</time>
   </trkpt>
   <trkpt lat="-3.0837350" lon="37.3675050">
    <ele>5377.3</ele>
    <time>2026-06-23T01:47:30Z</time>
   </trkpt>
   <trkpt lat="-3.0837330" lon="37.3675020">
    <ele>5377.4</ele>
    <time>2026-06-23T01:47:31Z</time>
   </trkpt>
   <trkpt lat="-3.0837330" lon="37.3674990">
    <ele>5377.5</ele>
    <time>2026-06-23T01:47:32Z</time>
   </trkpt>
   <trkpt lat="-3.0837310" lon="37.3674990">
    <ele>5377.5</ele>
    <time>2026-06-23T01:47:33Z</time>
   </trkpt>
   <trkpt lat="-3.0837300" lon="37.3674960">
    <ele>5377.6</ele>
    <time>2026-06-23T01:47:34Z</time>
   </trkpt>
   <trkpt lat="-3.0837280" lon="37.3674970">
    <ele>5377.6</ele>
    <time>2026-06-23T01:47:35Z</time>
   </trkpt>
   <trkpt lat="-3.0837270" lon="37.3674950">
    <ele>5377.7</ele>
    <time>2026-06-23T01:47:36Z</time>
   </trkpt>
   <trkpt lat="-3.0837240" lon="37.3674960">
    <ele>5377.7</ele>
    <time>2026-06-23T01:47:37Z</time>
   </trkpt>
   <trkpt lat="-3.0837230" lon="37.3674950">
    <ele>5377.8</ele>
    <time>2026-06-23T01:47:38Z</time>
   </trkpt>
   <trkpt lat="-3.0837220" lon="37.3674950">
    <ele>5377.8</ele>
    <time>2026-06-23T01:47:39Z</time>
   </trkpt>
   <trkpt lat="-3.0837190" lon="37.3674960">
    <ele>5377.8</ele>
    <time>2026-06-23T01:47:40Z</time>
   </trkpt>
   <trkpt lat="-3.0837170" lon="37.3674970">
    <ele>5377.9</ele>
    <time>2026-06-23T01:47:41Z</time>
   </trkpt>
   <trkpt lat="-3.0837150" lon="37.3674980">
    <ele>5377.9</ele>
    <time>2026-06-23T01:47:42Z</time>
   </trkpt>
   <trkpt lat="-3.0837130" lon="37.3674980">
    <ele>5378.0</ele>
    <time>2026-06-23T01:47:43Z</time>
   </trkpt>
   <trkpt lat="-3.0837100" lon="37.3674990">
    <ele>5378.0</ele>
    <time>2026-06-23T01:47:44Z</time>
   </trkpt>
   <trkpt lat="-3.0837070" lon="37.3675000">
    <ele>5378.1</ele>
    <time>2026-06-23T01:47:45Z</time>
   </trkpt>
   <trkpt lat="-3.0837050" lon="37.3675010">
    <ele>5378.1</ele>
    <time>2026-06-23T01:47:46Z</time>
   </trkpt>
   <trkpt lat="-3.0837020" lon="37.3675030">
    <ele>5378.2</ele>
    <time>2026-06-23T01:47:47Z</time>
   </trkpt>
   <trkpt lat="-3.0836990" lon="37.3675040">
    <ele>5378.3</ele>
    <time>2026-06-23T01:47:48Z</time>
   </trkpt>
   <trkpt lat="-3.0836980" lon="37.3675050">
    <ele>5378.3</ele>
    <time>2026-06-23T01:47:49Z</time>
   </trkpt>
   <trkpt lat="-3.0836950" lon="37.3675040">
    <ele>5378.4</ele>
    <time>2026-06-23T01:47:50Z</time>
   </trkpt>
   <trkpt lat="-3.0836940" lon="37.3675050">
    <ele>5378.4</ele>
    <time>2026-06-23T01:47:51Z</time>
   </trkpt>
   <trkpt lat="-3.0836910" lon="37.3675030">
    <ele>5378.5</ele>
    <time>2026-06-23T01:47:52Z</time>
   </trkpt>
   <trkpt lat="-3.0836870" lon="37.3675040">
    <ele>5378.6</ele>
    <time>2026-06-23T01:47:53Z</time>
   </trkpt>
   <trkpt lat="-3.0836860" lon="37.3675030">
    <ele>5378.6</ele>
    <time>2026-06-23T01:47:54Z</time>
   </trkpt>
   <trkpt lat="-3.0836840" lon="37.3675040">
    <ele>5378.6</ele>
    <time>2026-06-23T01:47:55Z</time>
   </trkpt>
   <trkpt lat="-3.0836820" lon="37.3675040">
    <ele>5378.7</ele>
    <time>2026-06-23T01:47:56Z</time>
   </trkpt>
   <trkpt lat="-3.0836770" lon="37.3675060">
    <ele>5378.8</ele>
    <time>2026-06-23T01:47:57Z</time>
   </trkpt>
   <trkpt lat="-3.0836750" lon="37.3675060">
    <ele>5378.8</ele>
    <time>2026-06-23T01:47:58Z</time>
   </trkpt>
   <trkpt lat="-3.0836720" lon="37.3675080">
    <ele>5378.9</ele>
    <time>2026-06-23T01:47:59Z</time>
   </trkpt>
   <trkpt lat="-3.0836690" lon="37.3675070">
    <ele>5379.0</ele>
    <time>2026-06-23T01:48:00Z</time>
   </trkpt>
   <trkpt lat="-3.0836660" lon="37.3675090">
    <ele>5379.0</ele>
    <time>2026-06-23T01:48:01Z</time>
   </trkpt>
   <trkpt lat="-3.0836640" lon="37.3675090">
    <ele>5379.1</ele>
    <time>2026-06-23T01:48:02Z</time>
   </trkpt>
   <trkpt lat="-3.0836610" lon="37.3675110">
    <ele>5379.1</ele>
    <time>2026-06-23T01:48:03Z</time>
   </trkpt>
   <trkpt lat="-3.0836580" lon="37.3675120">
    <ele>5379.2</ele>
    <time>2026-06-23T01:48:04Z</time>
   </trkpt>
   <trkpt lat="-3.0836570" lon="37.3675110">
    <ele>5379.2</ele>
    <time>2026-06-23T01:48:05Z</time>
   </trkpt>
   <trkpt lat="-3.0836530" lon="37.3675140">
    <ele>5379.3</ele>
    <time>2026-06-23T01:48:06Z</time>
   </trkpt>
   <trkpt lat="-3.0836500" lon="37.3675140">
    <ele>5379.4</ele>
    <time>2026-06-23T01:48:07Z</time>
   </trkpt>
   <trkpt lat="-3.0836480" lon="37.3675150">
    <ele>5379.4</ele>
    <time>2026-06-23T01:48:08Z</time>
   </trkpt>
   <trkpt lat="-3.0836450" lon="37.3675150">
    <ele>5379.5</ele>
    <time>2026-06-23T01:48:09Z</time>
   </trkpt>
   <trkpt lat="-3.0836440" lon="37.3675180">
    <ele>5379.6</ele>
    <time>2026-06-23T01:48:10Z</time>
   </trkpt>
   <trkpt lat="-3.0836410" lon="37.3675170">
    <ele>5379.6</ele>
    <time>2026-06-23T01:48:11Z</time>
   </trkpt>
   <trkpt lat="-3.0836390" lon="37.3675180">
    <ele>5379.7</ele>
    <time>2026-06-23T01:48:12Z</time>
   </trkpt>
   <trkpt lat="-3.0836360" lon="37.3675190">
    <ele>5379.7</ele>
    <time>2026-06-23T01:48:13Z</time>
   </trkpt>
   <trkpt lat="-3.0836340" lon="37.3675200">
    <ele>5379.8</ele>
    <time>2026-06-23T01:48:14Z</time>
   </trkpt>
   <trkpt lat="-3.0836320" lon="37.3675210">
    <ele>5379.8</ele>
    <time>2026-06-23T01:48:15Z</time>
   </trkpt>
   <trkpt lat="-3.0836290" lon="37.3675210">
    <ele>5379.9</ele>
    <time>2026-06-23T01:48:16Z</time>
   </trkpt>
   <trkpt lat="-3.0836270" lon="37.3675230">
    <ele>5379.9</ele>
    <time>2026-06-23T01:48:17Z</time>
   </trkpt>
   <trkpt lat="-3.0836260" lon="37.3675220">
    <ele>5380.0</ele>
    <time>2026-06-23T01:48:18Z</time>
   </trkpt>
   <trkpt lat="-3.0836240" lon="37.3675240">
    <ele>5380.0</ele>
    <time>2026-06-23T01:48:19Z</time>
   </trkpt>
   <trkpt lat="-3.0836220" lon="37.3675230">
    <ele>5380.1</ele>
    <time>2026-06-23T01:48:20Z</time>
   </trkpt>
   <trkpt lat="-3.0836190" lon="37.3675240">
    <ele>5380.1</ele>
    <time>2026-06-23T01:48:21Z</time>
   </trkpt>
   <trkpt lat="-3.0836180" lon="37.3675230">
    <ele>5380.2</ele>
    <time>2026-06-23T01:48:22Z</time>
   </trkpt>
   <trkpt lat="-3.0836160" lon="37.3675210">
    <ele>5380.2</ele>
    <time>2026-06-23T01:48:23Z</time>
   </trkpt>
   <trkpt lat="-3.0836140" lon="37.3675210">
    <ele>5380.3</ele>
    <time>2026-06-23T01:48:24Z</time>
   </trkpt>
   <trkpt lat="-3.0836140" lon="37.3675190">
    <ele>5380.3</ele>
    <time>2026-06-23T01:48:25Z</time>
   </trkpt>
   <trkpt lat="-3.0836120" lon="37.3675180">
    <ele>5380.4</ele>
    <time>2026-06-23T01:48:26Z</time>
   </trkpt>
   <trkpt lat="-3.0836140" lon="37.3675140">
    <ele>5380.4</ele>
    <time>2026-06-23T01:48:27Z</time>
   </trkpt>
   <trkpt lat="-3.0836130" lon="37.3675130">
    <ele>5380.5</ele>
    <time>2026-06-23T01:48:28Z</time>
   </trkpt>
   <trkpt lat="-3.0836150" lon="37.3675120">
    <ele>5380.5</ele>
    <time>2026-06-23T01:48:29Z</time>
   </trkpt>
   <trkpt lat="-3.0836160" lon="37.3675090">
    <ele>5380.6</ele>
    <time>2026-06-23T01:48:30Z</time>
   </trkpt>
   <trkpt lat="-3.0836180" lon="37.3675060">
    <ele>5380.7</ele>
    <time>2026-06-23T01:48:31Z</time>
   </trkpt>
   <trkpt lat="-3.0836200" lon="37.3675040">
    <ele>5380.7</ele>
    <time>2026-06-23T01:48:32Z</time>
   </trkpt>
   <trkpt lat="-3.0836200" lon="37.3675020">
    <ele>5380.8</ele>
    <time>2026-06-23T01:48:33Z</time>
   </trkpt>
   <trkpt lat="-3.0836220" lon="37.3674990">
    <ele>5380.8</ele>
    <time>2026-06-23T01:48:34Z</time>
   </trkpt>
   <trkpt lat="-3.0836230" lon="37.3674980">
    <ele>5380.9</ele>
    <time>2026-06-23T01:48:35Z</time>
   </trkpt>
   <trkpt lat="-3.0836240" lon="37.3674960">
    <ele>5380.9</ele>
    <time>2026-06-23T01:48:36Z</time>
   </trkpt>
   <trkpt lat="-3.0836260" lon="37.3674950">
    <ele>5380.9</ele>
    <time>2026-06-23T01:48:37Z</time>
   </trkpt>
   <trkpt lat="-3.0836270" lon="37.3674920">
    <ele>5381.0</ele>
    <time>2026-06-23T01:48:38Z</time>
   </trkpt>
   <trkpt lat="-3.0836280" lon="37.3674910">
    <ele>5381.0</ele>
    <time>2026-06-23T01:48:39Z</time>
   </trkpt>
   <trkpt lat="-3.0836290" lon="37.3674890">
    <ele>5381.1</ele>
    <time>2026-06-23T01:48:40Z</time>
   </trkpt>
   <trkpt lat="-3.0836310" lon="37.3674870">
    <ele>5381.1</ele>
    <time>2026-06-23T01:48:41Z</time>
   </trkpt>
   <trkpt lat="-3.0836310" lon="37.3674860">
    <ele>5381.2</ele>
    <time>2026-06-23T01:48:42Z</time>
   </trkpt>
   <trkpt lat="-3.0836330" lon="37.3674840">
    <ele>5381.2</ele>
    <time>2026-06-23T01:48:43Z</time>
   </trkpt>
   <trkpt lat="-3.0836330" lon="37.3674830">
    <ele>5381.2</ele>
    <time>2026-06-23T01:48:44Z</time>
   </trkpt>
   <trkpt lat="-3.0836360" lon="37.3674810">
    <ele>5381.3</ele>
    <time>2026-06-23T01:48:45Z</time>
   </trkpt>
   <trkpt lat="-3.0836370" lon="37.3674790">
    <ele>5381.4</ele>
    <time>2026-06-23T01:48:46Z</time>
   </trkpt>
   <trkpt lat="-3.0836380" lon="37.3674760">
    <ele>5381.4</ele>
    <time>2026-06-23T01:48:47Z</time>
   </trkpt>
   <trkpt lat="-3.0836390" lon="37.3674740">
    <ele>5381.5</ele>
    <time>2026-06-23T01:48:48Z</time>
   </trkpt>
   <trkpt lat="-3.0836390" lon="37.3674720">
    <ele>5381.5</ele>
    <time>2026-06-23T01:48:49Z</time>
   </trkpt>
   <trkpt lat="-3.0836400" lon="37.3674700">
    <ele>5381.6</ele>
    <time>2026-06-23T01:48:50Z</time>
   </trkpt>
   <trkpt lat="-3.0836400" lon="37.3674670">
    <ele>5381.6</ele>
    <time>2026-06-23T01:48:51Z</time>
   </trkpt>
   <trkpt lat="-3.0836400" lon="37.3674650">
    <ele>5381.7</ele>
    <time>2026-06-23T01:48:52Z</time>
   </trkpt>
   <trkpt lat="-3.0836410" lon="37.3674630">
    <ele>5381.7</ele>
    <time>2026-06-23T01:48:53Z</time>
   </trkpt>
   <trkpt lat="-3.0836410" lon="37.3674600">
    <ele>5381.8</ele>
    <time>2026-06-23T01:48:54Z</time>
   </trkpt>
   <trkpt lat="-3.0836430" lon="37.3674580">
    <ele>5381.8</ele>
    <time>2026-06-23T01:48:55Z</time>
   </trkpt>
   <trkpt lat="-3.0836420" lon="37.3674570">
    <ele>5381.8</ele>
    <time>2026-06-23T01:48:56Z</time>
   </trkpt>
   <trkpt lat="-3.0836430" lon="37.3674540">
    <ele>5381.9</ele>
    <time>2026-06-23T01:48:57Z</time>
   </trkpt>
   <trkpt lat="-3.0836430" lon="37.3674520">
    <ele>5382.0</ele>
    <time>2026-06-23T01:48:58Z</time>
   </trkpt>
   <trkpt lat="-3.0836450" lon="37.3674480">
    <ele>5382.0</ele>
    <time>2026-06-23T01:48:59Z</time>
   </trkpt>
   <trkpt lat="-3.0836450" lon="37.3674470">
    <ele>5382.1</ele>
    <time>2026-06-23T01:49:00Z</time>
   </trkpt>
   <trkpt lat="-3.0836450" lon="37.3674440">
    <ele>5382.1</ele>
    <time>2026-06-23T01:49:01Z</time>
   </trkpt>
   <trkpt lat="-3.0836470" lon="37.3674400">
    <ele>5382.2</ele>
    <time>2026-06-23T01:49:02Z</time>
   </trkpt>
   <trkpt lat="-3.0836470" lon="37.3674370">
    <ele>5382.3</ele>
    <time>2026-06-23T01:49:03Z</time>
   </trkpt>
   <trkpt lat="-3.0836470" lon="37.3674360">
    <ele>5382.3</ele>
    <time>2026-06-23T01:49:04Z</time>
   </trkpt>
   <trkpt lat="-3.0836490" lon="37.3674320">
    <ele>5382.4</ele>
    <time>2026-06-23T01:49:06Z</time>
   </trkpt>
   <trkpt lat="-3.0836500" lon="37.3674290">
    <ele>5382.5</ele>
    <time>2026-06-23T01:49:07Z</time>
   </trkpt>
   <trkpt lat="-3.0836520" lon="37.3674270">
    <ele>5382.5</ele>
    <time>2026-06-23T01:49:08Z</time>
   </trkpt>
   <trkpt lat="-3.0836520" lon="37.3674250">
    <ele>5382.6</ele>
    <time>2026-06-23T01:49:09Z</time>
   </trkpt>
   <trkpt lat="-3.0836530" lon="37.3674220">
    <ele>5382.6</ele>
    <time>2026-06-23T01:49:10Z</time>
   </trkpt>
   <trkpt lat="-3.0836540" lon="37.3674210">
    <ele>5382.7</ele>
    <time>2026-06-23T01:49:11Z</time>
   </trkpt>
   <trkpt lat="-3.0836540" lon="37.3674190">
    <ele>5382.7</ele>
    <time>2026-06-23T01:49:12Z</time>
   </trkpt>
   <trkpt lat="-3.0836560" lon="37.3674160">
    <ele>5382.8</ele>
    <time>2026-06-23T01:49:13Z</time>
   </trkpt>
   <trkpt lat="-3.0836550" lon="37.3674150">
    <ele>5382.8</ele>
    <time>2026-06-23T01:49:14Z</time>
   </trkpt>
   <trkpt lat="-3.0836560" lon="37.3674130">
    <ele>5382.9</ele>
    <time>2026-06-23T01:49:15Z</time>
   </trkpt>
   <trkpt lat="-3.0836570" lon="37.3674100">
    <ele>5382.9</ele>
    <time>2026-06-23T01:49:16Z</time>
   </trkpt>
   <trkpt lat="-3.0836570" lon="37.3674070">
    <ele>5383.0</ele>
    <time>2026-06-23T01:49:17Z</time>
   </trkpt>
   <trkpt lat="-3.0836580" lon="37.3674050">
    <ele>5383.0</ele>
    <time>2026-06-23T01:49:18Z</time>
   </trkpt>
   <trkpt lat="-3.0836580" lon="37.3674020">
    <ele>5383.1</ele>
    <time>2026-06-23T01:49:19Z</time>
   </trkpt>
   <trkpt lat="-3.0836580" lon="37.3674010">
    <ele>5383.1</ele>
    <time>2026-06-23T01:49:20Z</time>
   </trkpt>
   <trkpt lat="-3.0836590" lon="37.3673980">
    <ele>5383.2</ele>
    <time>2026-06-23T01:49:21Z</time>
   </trkpt>
   <trkpt lat="-3.0836600" lon="37.3673970">
    <ele>5383.2</ele>
    <time>2026-06-23T01:49:22Z</time>
   </trkpt>
   <trkpt lat="-3.0836580" lon="37.3673950">
    <ele>5383.3</ele>
    <time>2026-06-23T01:49:23Z</time>
   </trkpt>
   <trkpt lat="-3.0836590" lon="37.3673930">
    <ele>5383.3</ele>
    <time>2026-06-23T01:49:24Z</time>
   </trkpt>
   <trkpt lat="-3.0836580" lon="37.3673910">
    <ele>5383.4</ele>
    <time>2026-06-23T01:49:25Z</time>
   </trkpt>
   <trkpt lat="-3.0836590" lon="37.3673890">
    <ele>5383.4</ele>
    <time>2026-06-23T01:49:26Z</time>
   </trkpt>
   <trkpt lat="-3.0836570" lon="37.3673860">
    <ele>5383.5</ele>
    <time>2026-06-23T01:49:27Z</time>
   </trkpt>
   <trkpt lat="-3.0836580" lon="37.3673870">
    <ele>5383.5</ele>
    <time>2026-06-23T01:49:28Z</time>
   </trkpt>
   <trkpt lat="-3.0836570" lon="37.3673830">
    <ele>5383.6</ele>
    <time>2026-06-23T01:49:29Z</time>
   </trkpt>
   <trkpt lat="-3.0836580" lon="37.3673830">
    <ele>5383.6</ele>
    <time>2026-06-23T01:49:30Z</time>
   </trkpt>
   <trkpt lat="-3.0836560" lon="37.3673820">
    <ele>5383.7</ele>
    <time>2026-06-23T01:49:31Z</time>
   </trkpt>
   <trkpt lat="-3.0836570" lon="37.3673800">
    <ele>5383.7</ele>
    <time>2026-06-23T01:49:32Z</time>
   </trkpt>
   <trkpt lat="-3.0836570" lon="37.3673780">
    <ele>5383.8</ele>
    <time>2026-06-23T01:49:33Z</time>
   </trkpt>
   <trkpt lat="-3.0836570" lon="37.3673760">
    <ele>5383.8</ele>
    <time>2026-06-23T01:49:34Z</time>
   </trkpt>
   <trkpt lat="-3.0836560" lon="37.3673750">
    <ele>5383.8</ele>
    <time>2026-06-23T01:49:35Z</time>
   </trkpt>
   <trkpt lat="-3.0836570" lon="37.3673710">
    <ele>5383.9</ele>
    <time>2026-06-23T01:49:36Z</time>
   </trkpt>
   <trkpt lat="-3.0836580" lon="37.3673700">
    <ele>5383.9</ele>
    <time>2026-06-23T01:49:37Z</time>
   </trkpt>
   <trkpt lat="-3.0836570" lon="37.3673680">
    <ele>5384.0</ele>
    <time>2026-06-23T01:49:38Z</time>
   </trkpt>
   <trkpt lat="-3.0836590" lon="37.3673660">
    <ele>5384.0</ele>
    <time>2026-06-23T01:49:39Z</time>
   </trkpt>
   <trkpt lat="-3.0836580" lon="37.3673630">
    <ele>5384.1</ele>
    <time>2026-06-23T01:49:40Z</time>
   </trkpt>
   <trkpt lat="-3.0836600" lon="37.3673610">
    <ele>5384.2</ele>
    <time>2026-06-23T01:49:41Z</time>
   </trkpt>
   <trkpt lat="-3.0836580" lon="37.3673600">
    <ele>5384.2</ele>
    <time>2026-06-23T01:49:42Z</time>
   </trkpt>
   <trkpt lat="-3.0836590" lon="37.3673580">
    <ele>5384.3</ele>
    <time>2026-06-23T01:49:43Z</time>
   </trkpt>
   <trkpt lat="-3.0836590" lon="37.3673580">
    <ele>5384.3</ele>
    <time>2026-06-23T01:49:44Z</time>
   </trkpt>
   <trkpt lat="-3.0836590" lon="37.3673560">
    <ele>5384.3</ele>
    <time>2026-06-23T01:49:45Z</time>
   </trkpt>
   <trkpt lat="-3.0836600" lon="37.3673540">
    <ele>5384.4</ele>
    <time>2026-06-23T01:49:46Z</time>
   </trkpt>
   <trkpt lat="-3.0836580" lon="37.3673530">
    <ele>5384.4</ele>
    <time>2026-06-23T01:49:47Z</time>
   </trkpt>
   <trkpt lat="-3.0836590" lon="37.3673510">
    <ele>5384.4</ele>
    <time>2026-06-23T01:49:48Z</time>
   </trkpt>
   <trkpt lat="-3.0836570" lon="37.3673500">
    <ele>5384.5</ele>
    <time>2026-06-23T01:49:49Z</time>
   </trkpt>
   <trkpt lat="-3.0836570" lon="37.3673470">
    <ele>5384.6</ele>
    <time>2026-06-23T01:49:50Z</time>
   </trkpt>
   <trkpt lat="-3.0836570" lon="37.3673470">
    <ele>5384.6</ele>
    <time>2026-06-23T01:49:51Z</time>
   </trkpt>
   <trkpt lat="-3.0836560" lon="37.3673460">
    <ele>5384.6</ele>
    <time>2026-06-23T01:49:52Z</time>
   </trkpt>
   <trkpt lat="-3.0836570" lon="37.3673440">
    <ele>5384.6</ele>
    <time>2026-06-23T01:49:53Z</time>
   </trkpt>
   <trkpt lat="-3.0836550" lon="37.3673440">
    <ele>5384.7</ele>
    <time>2026-06-23T01:49:54Z</time>
   </trkpt>
   <trkpt lat="-3.0836550" lon="37.3673430">
    <ele>5384.7</ele>
    <time>2026-06-23T01:49:55Z</time>
   </trkpt>
   <trkpt lat="-3.0836550" lon="37.3673410">
    <ele>5384.7</ele>
    <time>2026-06-23T01:49:56Z</time>
   </trkpt>
   <trkpt lat="-3.0836540" lon="37.3673390">
    <ele>5384.8</ele>
    <time>2026-06-23T01:49:57Z</time>
   </trkpt>
   <trkpt lat="-3.0836540" lon="37.3673350">
    <ele>5384.9</ele>
    <time>2026-06-23T01:49:58Z</time>
   </trkpt>
   <trkpt lat="-3.0836530" lon="37.3673350">
    <ele>5384.9</ele>
    <time>2026-06-23T01:49:59Z</time>
   </trkpt>
   <trkpt lat="-3.0836540" lon="37.3673330">
    <ele>5384.9</ele>
    <time>2026-06-23T01:50:00Z</time>
   </trkpt>
   <trkpt lat="-3.0836530" lon="37.3673310">
    <ele>5385.0</ele>
    <time>2026-06-23T01:50:01Z</time>
   </trkpt>
   <trkpt lat="-3.0836520" lon="37.3673310">
    <ele>5385.0</ele>
    <time>2026-06-23T01:50:02Z</time>
   </trkpt>
   <trkpt lat="-3.0836530" lon="37.3673290">
    <ele>5385.0</ele>
    <time>2026-06-23T01:50:03Z</time>
   </trkpt>
   <trkpt lat="-3.0836520" lon="37.3673270">
    <ele>5385.1</ele>
    <time>2026-06-23T01:50:04Z</time>
   </trkpt>
   <trkpt lat="-3.0836520" lon="37.3673250">
    <ele>5385.1</ele>
    <time>2026-06-23T01:50:05Z</time>
   </trkpt>
   <trkpt lat="-3.0836500" lon="37.3673240">
    <ele>5385.2</ele>
    <time>2026-06-23T01:50:06Z</time>
   </trkpt>
   <trkpt lat="-3.0836500" lon="37.3673200">
    <ele>5385.3</ele>
    <time>2026-06-23T01:50:07Z</time>
   </trkpt>
   <trkpt lat="-3.0836500" lon="37.3673200">
    <ele>5385.3</ele>
    <time>2026-06-23T01:50:08Z</time>
   </trkpt>
   <trkpt lat="-3.0836510" lon="37.3673190">
    <ele>5385.3</ele>
    <time>2026-06-23T01:50:09Z</time>
   </trkpt>
   <trkpt lat="-3.0836520" lon="37.3673160">
    <ele>5385.4</ele>
    <time>2026-06-23T01:50:10Z</time>
   </trkpt>
   <trkpt lat="-3.0836520" lon="37.3673140">
    <ele>5385.4</ele>
    <time>2026-06-23T01:50:11Z</time>
   </trkpt>
   <trkpt lat="-3.0836490" lon="37.3673140">
    <ele>5385.5</ele>
    <time>2026-06-23T01:50:12Z</time>
   </trkpt>
   <trkpt lat="-3.0836490" lon="37.3673120">
    <ele>5385.5</ele>
    <time>2026-06-23T01:50:13Z</time>
   </trkpt>
   <trkpt lat="-3.0836460" lon="37.3673100">
    <ele>5385.6</ele>
    <time>2026-06-23T01:50:14Z</time>
   </trkpt>
   <trkpt lat="-3.0836450" lon="37.3673100">
    <ele>5385.6</ele>
    <time>2026-06-23T01:50:15Z</time>
   </trkpt>
   <trkpt lat="-3.0836420" lon="37.3673100">
    <ele>5385.7</ele>
    <time>2026-06-23T01:50:16Z</time>
   </trkpt>
   <trkpt lat="-3.0836400" lon="37.3673080">
    <ele>5385.7</ele>
    <time>2026-06-23T01:50:17Z</time>
   </trkpt>
   <trkpt lat="-3.0836370" lon="37.3673100">
    <ele>5385.8</ele>
    <time>2026-06-23T01:50:18Z</time>
   </trkpt>
   <trkpt lat="-3.0836350" lon="37.3673100">
    <ele>5385.8</ele>
    <time>2026-06-23T01:50:19Z</time>
   </trkpt>
   <trkpt lat="-3.0836340" lon="37.3673110">
    <ele>5385.9</ele>
    <time>2026-06-23T01:50:20Z</time>
   </trkpt>
   <trkpt lat="-3.0836300" lon="37.3673120">
    <ele>5386.0</ele>
    <time>2026-06-23T01:50:21Z</time>
   </trkpt>
   <trkpt lat="-3.0836290" lon="37.3673140">
    <ele>5386.0</ele>
    <time>2026-06-23T01:50:22Z</time>
   </trkpt>
   <trkpt lat="-3.0836270" lon="37.3673110">
    <ele>5386.1</ele>
    <time>2026-06-23T01:50:23Z</time>
   </trkpt>
   <trkpt lat="-3.0836230" lon="37.3673120">
    <ele>5386.2</ele>
    <time>2026-06-23T01:50:24Z</time>
   </trkpt>
   <trkpt lat="-3.0836210" lon="37.3673090">
    <ele>5386.2</ele>
    <time>2026-06-23T01:50:25Z</time>
   </trkpt>
   <trkpt lat="-3.0836210" lon="37.3673090">
    <ele>5386.2</ele>
    <time>2026-06-23T01:50:26Z</time>
   </trkpt>
   <trkpt lat="-3.0836210" lon="37.3673070">
    <ele>5386.3</ele>
    <time>2026-06-23T01:50:27Z</time>
   </trkpt>
   <trkpt lat="-3.0836210" lon="37.3673040">
    <ele>5386.4</ele>
    <time>2026-06-23T01:50:28Z</time>
   </trkpt>
   <trkpt lat="-3.0836210" lon="37.3673010">
    <ele>5386.4</ele>
    <time>2026-06-23T01:50:29Z</time>
   </trkpt>
   <trkpt lat="-3.0836200" lon="37.3673000">
    <ele>5386.5</ele>
    <time>2026-06-23T01:50:30Z</time>
   </trkpt>
   <trkpt lat="-3.0836220" lon="37.3672980">
    <ele>5386.5</ele>
    <time>2026-06-23T01:50:31Z</time>
   </trkpt>
   <trkpt lat="-3.0836210" lon="37.3672960">
    <ele>5386.6</ele>
    <time>2026-06-23T01:50:32Z</time>
   </trkpt>
   <trkpt lat="-3.0836230" lon="37.3672910">
    <ele>5386.7</ele>
    <time>2026-06-23T01:50:33Z</time>
   </trkpt>
   <trkpt lat="-3.0836220" lon="37.3672920">
    <ele>5386.7</ele>
    <time>2026-06-23T01:50:34Z</time>
   </trkpt>
   <trkpt lat="-3.0836250" lon="37.3672900">
    <ele>5386.8</ele>
    <time>2026-06-23T01:50:35Z</time>
   </trkpt>
   <trkpt lat="-3.0836230" lon="37.3672890">
    <ele>5386.9</ele>
    <time>2026-06-23T01:50:36Z</time>
   </trkpt>
   <trkpt lat="-3.0836270" lon="37.3672870">
    <ele>5387.0</ele>
    <time>2026-06-23T01:50:37Z</time>
   </trkpt>
   <trkpt lat="-3.0836260" lon="37.3672850">
    <ele>5387.0</ele>
    <time>2026-06-23T01:50:38Z</time>
   </trkpt>
   <trkpt lat="-3.0836280" lon="37.3672850">
    <ele>5387.0</ele>
    <time>2026-06-23T01:50:39Z</time>
   </trkpt>
   <trkpt lat="-3.0836300" lon="37.3672820">
    <ele>5387.1</ele>
    <time>2026-06-23T01:50:40Z</time>
   </trkpt>
   <trkpt lat="-3.0836330" lon="37.3672790">
    <ele>5387.2</ele>
    <time>2026-06-23T01:50:41Z</time>
   </trkpt>
   <trkpt lat="-3.0836320" lon="37.3672780">
    <ele>5387.3</ele>
    <time>2026-06-23T01:50:42Z</time>
   </trkpt>
   <trkpt lat="-3.0836350" lon="37.3672760">
    <ele>5387.3</ele>
    <time>2026-06-23T01:50:43Z</time>
   </trkpt>
   <trkpt lat="-3.0836350" lon="37.3672720">
    <ele>5387.4</ele>
    <time>2026-06-23T01:50:44Z</time>
   </trkpt>
   <trkpt lat="-3.0836370" lon="37.3672710">
    <ele>5387.5</ele>
    <time>2026-06-23T01:50:45Z</time>
   </trkpt>
   <trkpt lat="-3.0836350" lon="37.3672710">
    <ele>5387.5</ele>
    <time>2026-06-23T01:50:46Z</time>
   </trkpt>
   <trkpt lat="-3.0836350" lon="37.3672710">
    <ele>5387.5</ele>
    <time>2026-06-23T01:50:47Z</time>
   </trkpt>
   <trkpt lat="-3.0836330" lon="37.3672690">
    <ele>5387.6</ele>
    <time>2026-06-23T01:50:48Z</time>
   </trkpt>
   <trkpt lat="-3.0836320" lon="37.3672680">
    <ele>5387.6</ele>
    <time>2026-06-23T01:50:49Z</time>
   </trkpt>
   <trkpt lat="-3.0836320" lon="37.3672680">
    <ele>5387.6</ele>
    <time>2026-06-23T01:50:50Z</time>
   </trkpt>
   <trkpt lat="-3.0836300" lon="37.3672680">
    <ele>5387.7</ele>
    <time>2026-06-23T01:50:51Z</time>
   </trkpt>
   <trkpt lat="-3.0836310" lon="37.3672670">
    <ele>5387.7</ele>
    <time>2026-06-23T01:50:52Z</time>
   </trkpt>
   <trkpt lat="-3.0836300" lon="37.3672670">
    <ele>5387.7</ele>
    <time>2026-06-23T01:50:53Z</time>
   </trkpt>
   <trkpt lat="-3.0836300" lon="37.3672660">
    <ele>5387.7</ele>
    <time>2026-06-23T01:50:54Z</time>
   </trkpt>
   <trkpt lat="-3.0836290" lon="37.3672650">
    <ele>5387.8</ele>
    <time>2026-06-23T01:50:55Z</time>
   </trkpt>
   <trkpt lat="-3.0836300" lon="37.3672640">
    <ele>5387.8</ele>
    <time>2026-06-23T01:50:56Z</time>
   </trkpt>
   <trkpt lat="-3.0836250" lon="37.3672650">
    <ele>5387.9</ele>
    <time>2026-06-23T01:50:57Z</time>
   </trkpt>
   <trkpt lat="-3.0836250" lon="37.3672630">
    <ele>5388.0</ele>
    <time>2026-06-23T01:50:58Z</time>
   </trkpt>
   <trkpt lat="-3.0836220" lon="37.3672640">
    <ele>5388.0</ele>
    <time>2026-06-23T01:50:59Z</time>
   </trkpt>
   <trkpt lat="-3.0836210" lon="37.3672640">
    <ele>5388.1</ele>
    <time>2026-06-23T01:51:00Z</time>
   </trkpt>
   <trkpt lat="-3.0836190" lon="37.3672650">
    <ele>5388.1</ele>
    <time>2026-06-23T01:51:01Z</time>
   </trkpt>
   <trkpt lat="-3.0836170" lon="37.3672650">
    <ele>5388.1</ele>
    <time>2026-06-23T01:51:02Z</time>
   </trkpt>
   <trkpt lat="-3.0836160" lon="37.3672660">
    <ele>5388.2</ele>
    <time>2026-06-23T01:51:03Z</time>
   </trkpt>
   <trkpt lat="-3.0836130" lon="37.3672660">
    <ele>5388.2</ele>
    <time>2026-06-23T01:51:04Z</time>
   </trkpt>
   <trkpt lat="-3.0836110" lon="37.3672650">
    <ele>5388.3</ele>
    <time>2026-06-23T01:51:05Z</time>
   </trkpt>
   <trkpt lat="-3.0836090" lon="37.3672660">
    <ele>5388.3</ele>
    <time>2026-06-23T01:51:06Z</time>
   </trkpt>
   <trkpt lat="-3.0836070" lon="37.3672650">
    <ele>5388.4</ele>
    <time>2026-06-23T01:51:07Z</time>
   </trkpt>
   <trkpt lat="-3.0836050" lon="37.3672630">
    <ele>5388.5</ele>
    <time>2026-06-23T01:51:08Z</time>
   </trkpt>
   <trkpt lat="-3.0836060" lon="37.3672640">
    <ele>5388.5</ele>
    <time>2026-06-23T01:51:09Z</time>
   </trkpt>
   <trkpt lat="-3.0836070" lon="37.3672610">
    <ele>5388.6</ele>
    <time>2026-06-23T01:51:10Z</time>
   </trkpt>
   <trkpt lat="-3.0836050" lon="37.3672600">
    <ele>5388.6</ele>
    <time>2026-06-23T01:51:12Z</time>
   </trkpt>
   <trkpt lat="-3.0836040" lon="37.3672570">
    <ele>5388.7</ele>
    <time>2026-06-23T01:51:13Z</time>
   </trkpt>
   <trkpt lat="-3.0836010" lon="37.3672560">
    <ele>5388.8</ele>
    <time>2026-06-23T01:51:14Z</time>
   </trkpt>
   <trkpt lat="-3.0836010" lon="37.3672530">
    <ele>5388.8</ele>
    <time>2026-06-23T01:51:15Z</time>
   </trkpt>
   <trkpt lat="-3.0835990" lon="37.3672520">
    <ele>5388.9</ele>
    <time>2026-06-23T01:51:16Z</time>
   </trkpt>
   <trkpt lat="-3.0836000" lon="37.3672490">
    <ele>5389.0</ele>
    <time>2026-06-23T01:51:17Z</time>
   </trkpt>
   <trkpt lat="-3.0836000" lon="37.3672460">
    <ele>5389.0</ele>
    <time>2026-06-23T01:51:18Z</time>
   </trkpt>
   <trkpt lat="-3.0835990" lon="37.3672460">
    <ele>5389.1</ele>
    <time>2026-06-23T01:51:19Z</time>
   </trkpt>
   <trkpt lat="-3.0836000" lon="37.3672460">
    <ele>5389.1</ele>
    <time>2026-06-23T01:51:20Z</time>
   </trkpt>
   <trkpt lat="-3.0836020" lon="37.3672440">
    <ele>5389.1</ele>
    <time>2026-06-23T01:51:21Z</time>
   </trkpt>
   <trkpt lat="-3.0836050" lon="37.3672410">
    <ele>5389.2</ele>
    <time>2026-06-23T01:51:22Z</time>
   </trkpt>
   <trkpt lat="-3.0836060" lon="37.3672380">
    <ele>5389.3</ele>
    <time>2026-06-23T01:51:23Z</time>
   </trkpt>
   <trkpt lat="-3.0836030" lon="37.3672390">
    <ele>5389.4</ele>
    <time>2026-06-23T01:51:24Z</time>
   </trkpt>
   <trkpt lat="-3.0836020" lon="37.3672380">
    <ele>5389.4</ele>
    <time>2026-06-23T01:51:25Z</time>
   </trkpt>
   <trkpt lat="-3.0836020" lon="37.3672390">
    <ele>5389.5</ele>
    <time>2026-06-23T01:51:26Z</time>
   </trkpt>
   <trkpt lat="-3.0836000" lon="37.3672380">
    <ele>5389.5</ele>
    <time>2026-06-23T01:51:27Z</time>
   </trkpt>
   <trkpt lat="-3.0835980" lon="37.3672390">
    <ele>5389.6</ele>
    <time>2026-06-23T01:51:28Z</time>
   </trkpt>
   <trkpt lat="-3.0835970" lon="37.3672410">
    <ele>5389.6</ele>
    <time>2026-06-23T01:51:29Z</time>
   </trkpt>
   <trkpt lat="-3.0835970" lon="37.3672410">
    <ele>5389.6</ele>
    <time>2026-06-23T01:51:30Z</time>
   </trkpt>
   <trkpt lat="-3.0835980" lon="37.3672410">
    <ele>5389.6</ele>
    <time>2026-06-23T01:51:31Z</time>
   </trkpt>
   <trkpt lat="-3.0835980" lon="37.3672420">
    <ele>5389.7</ele>
    <time>2026-06-23T01:51:32Z</time>
   </trkpt>
   <trkpt lat="-3.0835980" lon="37.3672420">
    <ele>5389.7</ele>
    <time>2026-06-23T01:51:33Z</time>
   </trkpt>
   <trkpt lat="-3.0835970" lon="37.3672420">
    <ele>5389.7</ele>
    <time>2026-06-23T01:51:34Z</time>
   </trkpt>
   <trkpt lat="-3.0835950" lon="37.3672450">
    <ele>5389.8</ele>
    <time>2026-06-23T01:51:35Z</time>
   </trkpt>
   <trkpt lat="-3.0835960" lon="37.3672450">
    <ele>5389.8</ele>
    <time>2026-06-23T01:51:36Z</time>
   </trkpt>
   <trkpt lat="-3.0835960" lon="37.3672460">
    <ele>5389.8</ele>
    <time>2026-06-23T01:51:37Z</time>
   </trkpt>
   <trkpt lat="-3.0835960" lon="37.3672460">
    <ele>5389.8</ele>
    <time>2026-06-23T01:51:38Z</time>
   </trkpt>
   <trkpt lat="-3.0835960" lon="37.3672480">
    <ele>5389.9</ele>
    <time>2026-06-23T01:51:39Z</time>
   </trkpt>
   <trkpt lat="-3.0835960" lon="37.3672480">
    <ele>5389.9</ele>
    <time>2026-06-23T01:51:40Z</time>
   </trkpt>
   <trkpt lat="-3.0835960" lon="37.3672480">
    <ele>5389.9</ele>
    <time>2026-06-23T01:51:41Z</time>
   </trkpt>
   <trkpt lat="-3.0835940" lon="37.3672490">
    <ele>5389.9</ele>
    <time>2026-06-23T01:51:42Z</time>
   </trkpt>
   <trkpt lat="-3.0835940" lon="37.3672520">
    <ele>5390.0</ele>
    <time>2026-06-23T01:51:43Z</time>
   </trkpt>
   <trkpt lat="-3.0835930" lon="37.3672520">
    <ele>5390.0</ele>
    <time>2026-06-23T01:51:44Z</time>
   </trkpt>
   <trkpt lat="-3.0835900" lon="37.3672520">
    <ele>5390.1</ele>
    <time>2026-06-23T01:51:45Z</time>
   </trkpt>
   <trkpt lat="-3.0835780" lon="37.3672460">
    <ele>5390.4</ele>
    <time>2026-06-23T01:51:46Z</time>
   </trkpt>
   <trkpt lat="-3.0835840" lon="37.3672530">
    <ele>5390.6</ele>
    <time>2026-06-23T01:51:47Z</time>
   </trkpt>
   <trkpt lat="-3.0835810" lon="37.3672510">
    <ele>5390.7</ele>
    <time>2026-06-23T01:51:48Z</time>
   </trkpt>
   <trkpt lat="-3.0835810" lon="37.3672480">
    <ele>5390.8</ele>
    <time>2026-06-23T01:51:49Z</time>
   </trkpt>
   <trkpt lat="-3.0835820" lon="37.3672470">
    <ele>5390.8</ele>
    <time>2026-06-23T01:51:50Z</time>
   </trkpt>
   <trkpt lat="-3.0835820" lon="37.3672470">
    <ele>5390.8</ele>
    <time>2026-06-23T01:51:51Z</time>
   </trkpt>
   <trkpt lat="-3.0835800" lon="37.3672470">
    <ele>5390.8</ele>
    <time>2026-06-23T01:51:52Z</time>
   </trkpt>
   <trkpt lat="-3.0835780" lon="37.3672480">
    <ele>5390.9</ele>
    <time>2026-06-23T01:51:53Z</time>
   </trkpt>
   <trkpt lat="-3.0835770" lon="37.3672510">
    <ele>5391.0</ele>
    <time>2026-06-23T01:51:54Z</time>
   </trkpt>
   <trkpt lat="-3.0835740" lon="37.3672510">
    <ele>5391.0</ele>
    <time>2026-06-23T01:51:55Z</time>
   </trkpt>
   <trkpt lat="-3.0835720" lon="37.3672540">
    <ele>5391.1</ele>
    <time>2026-06-23T01:51:56Z</time>
   </trkpt>
   <trkpt lat="-3.0835710" lon="37.3672540">
    <ele>5391.1</ele>
    <time>2026-06-23T01:51:57Z</time>
   </trkpt>
   <trkpt lat="-3.0835680" lon="37.3672530">
    <ele>5391.2</ele>
    <time>2026-06-23T01:51:58Z</time>
   </trkpt>
   <trkpt lat="-3.0835670" lon="37.3672520">
    <ele>5391.2</ele>
    <time>2026-06-23T01:51:59Z</time>
   </trkpt>
   <trkpt lat="-3.0835660" lon="37.3672510">
    <ele>5391.3</ele>
    <time>2026-06-23T01:52:00Z</time>
   </trkpt>
   <trkpt lat="-3.0835650" lon="37.3672500">
    <ele>5391.3</ele>
    <time>2026-06-23T01:52:01Z</time>
   </trkpt>
   <trkpt lat="-3.0835640" lon="37.3672490">
    <ele>5391.3</ele>
    <time>2026-06-23T01:52:02Z</time>
   </trkpt>
   <trkpt lat="-3.0835640" lon="37.3672500">
    <ele>5391.4</ele>
    <time>2026-06-23T01:52:03Z</time>
   </trkpt>
   <trkpt lat="-3.0835610" lon="37.3672500">
    <ele>5391.4</ele>
    <time>2026-06-23T01:52:04Z</time>
   </trkpt>
   <trkpt lat="-3.0835610" lon="37.3672520">
    <ele>5391.5</ele>
    <time>2026-06-23T01:52:05Z</time>
   </trkpt>
   <trkpt lat="-3.0835560" lon="37.3672510">
    <ele>5391.6</ele>
    <time>2026-06-23T01:52:06Z</time>
   </trkpt>
   <trkpt lat="-3.0835570" lon="37.3672510">
    <ele>5391.6</ele>
    <time>2026-06-23T01:52:07Z</time>
   </trkpt>
   <trkpt lat="-3.0835540" lon="37.3672500">
    <ele>5391.7</ele>
    <time>2026-06-23T01:52:08Z</time>
   </trkpt>
   <trkpt lat="-3.0835530" lon="37.3672500">
    <ele>5391.7</ele>
    <time>2026-06-23T01:52:09Z</time>
   </trkpt>
   <trkpt lat="-3.0835530" lon="37.3672500">
    <ele>5391.7</ele>
    <time>2026-06-23T01:52:10Z</time>
   </trkpt>
   <trkpt lat="-3.0835510" lon="37.3672470">
    <ele>5391.8</ele>
    <time>2026-06-23T01:52:11Z</time>
   </trkpt>
   <trkpt lat="-3.0835500" lon="37.3672470">
    <ele>5391.8</ele>
    <time>2026-06-23T01:52:12Z</time>
   </trkpt>
   <trkpt lat="-3.0835470" lon="37.3672450">
    <ele>5391.9</ele>
    <time>2026-06-23T01:52:13Z</time>
   </trkpt>
   <trkpt lat="-3.0835460" lon="37.3672450">
    <ele>5391.9</ele>
    <time>2026-06-23T01:52:14Z</time>
   </trkpt>
   <trkpt lat="-3.0835450" lon="37.3672440">
    <ele>5392.0</ele>
    <time>2026-06-23T01:52:15Z</time>
   </trkpt>
   <trkpt lat="-3.0835440" lon="37.3672460">
    <ele>5392.0</ele>
    <time>2026-06-23T01:52:16Z</time>
   </trkpt>
   <trkpt lat="-3.0835420" lon="37.3672450">
    <ele>5392.1</ele>
    <time>2026-06-23T01:52:17Z</time>
   </trkpt>
   <trkpt lat="-3.0835430" lon="37.3672460">
    <ele>5392.1</ele>
    <time>2026-06-23T01:52:18Z</time>
   </trkpt>
   <trkpt lat="-3.0835420" lon="37.3672460">
    <ele>5392.1</ele>
    <time>2026-06-23T01:52:19Z</time>
   </trkpt>
   <trkpt lat="-3.0835430" lon="37.3672470">
    <ele>5392.2</ele>
    <time>2026-06-23T01:52:20Z</time>
   </trkpt>
   <trkpt lat="-3.0835410" lon="37.3672490">
    <ele>5392.2</ele>
    <time>2026-06-23T01:52:21Z</time>
   </trkpt>
   <trkpt lat="-3.0835390" lon="37.3672450">
    <ele>5392.3</ele>
    <time>2026-06-23T01:52:22Z</time>
   </trkpt>
   <trkpt lat="-3.0835400" lon="37.3672450">
    <ele>5392.4</ele>
    <time>2026-06-23T01:52:23Z</time>
   </trkpt>
   <trkpt lat="-3.0835370" lon="37.3672480">
    <ele>5392.5</ele>
    <time>2026-06-23T01:52:24Z</time>
   </trkpt>
   <trkpt lat="-3.0835370" lon="37.3672520">
    <ele>5392.5</ele>
    <time>2026-06-23T01:52:25Z</time>
   </trkpt>
   <trkpt lat="-3.0835330" lon="37.3672480">
    <ele>5392.7</ele>
    <time>2026-06-23T01:52:26Z</time>
   </trkpt>
   <trkpt lat="-3.0835320" lon="37.3672490">
    <ele>5392.7</ele>
    <time>2026-06-23T01:52:27Z</time>
   </trkpt>
   <trkpt lat="-3.0835300" lon="37.3672480">
    <ele>5392.8</ele>
    <time>2026-06-23T01:52:28Z</time>
   </trkpt>
   <trkpt lat="-3.0835310" lon="37.3672480">
    <ele>5392.8</ele>
    <time>2026-06-23T01:52:29Z</time>
   </trkpt>
   <trkpt lat="-3.0835290" lon="37.3672480">
    <ele>5392.8</ele>
    <time>2026-06-23T01:52:30Z</time>
   </trkpt>
   <trkpt lat="-3.0835300" lon="37.3672490">
    <ele>5392.9</ele>
    <time>2026-06-23T01:52:31Z</time>
   </trkpt>
   <trkpt lat="-3.0835300" lon="37.3672480">
    <ele>5392.9</ele>
    <time>2026-06-23T01:52:32Z</time>
   </trkpt>
   <trkpt lat="-3.0835300" lon="37.3672490">
    <ele>5392.9</ele>
    <time>2026-06-23T01:52:33Z</time>
   </trkpt>
   <trkpt lat="-3.0835310" lon="37.3672490">
    <ele>5392.9</ele>
    <time>2026-06-23T01:52:34Z</time>
   </trkpt>
   <trkpt lat="-3.0835310" lon="37.3672490">
    <ele>5392.9</ele>
    <time>2026-06-23T01:52:35Z</time>
   </trkpt>
   <trkpt lat="-3.0835300" lon="37.3672510">
    <ele>5393.0</ele>
    <time>2026-06-23T01:52:36Z</time>
   </trkpt>
   <trkpt lat="-3.0835290" lon="37.3672510">
    <ele>5393.0</ele>
    <time>2026-06-23T01:52:37Z</time>
   </trkpt>
   <trkpt lat="-3.0835290" lon="37.3672520">
    <ele>5393.0</ele>
    <time>2026-06-23T01:52:38Z</time>
   </trkpt>
   <trkpt lat="-3.0835280" lon="37.3672520">
    <ele>5393.1</ele>
    <time>2026-06-23T01:52:39Z</time>
   </trkpt>
   <trkpt lat="-3.0835290" lon="37.3672530">
    <ele>5393.1</ele>
    <time>2026-06-23T01:52:40Z</time>
   </trkpt>
   <trkpt lat="-3.0835290" lon="37.3672530">
    <ele>5393.1</ele>
    <time>2026-06-23T01:52:41Z</time>
   </trkpt>
   <trkpt lat="-3.0835280" lon="37.3672530">
    <ele>5393.1</ele>
    <time>2026-06-23T01:52:42Z</time>
   </trkpt>
   <trkpt lat="-3.0835280" lon="37.3672530">
    <ele>5393.1</ele>
    <time>2026-06-23T01:52:43Z</time>
   </trkpt>
   <trkpt lat="-3.0835280" lon="37.3672540">
    <ele>5393.2</ele>
    <time>2026-06-23T01:52:44Z</time>
   </trkpt>
   <trkpt lat="-3.0835280" lon="37.3672540">
    <ele>5393.2</ele>
    <time>2026-06-23T01:52:45Z</time>
   </trkpt>
   <trkpt lat="-3.0835280" lon="37.3672540">
    <ele>5393.2</ele>
    <time>2026-06-23T01:52:46Z</time>
   </trkpt>
   <trkpt lat="-3.0835280" lon="37.3672540">
    <ele>5393.2</ele>
    <time>2026-06-23T01:52:47Z</time>
   </trkpt>
   <trkpt lat="-3.0835290" lon="37.3672560">
    <ele>5393.2</ele>
    <time>2026-06-23T01:52:48Z</time>
   </trkpt>
   <trkpt lat="-3.0835290" lon="37.3672560">
    <ele>5393.2</ele>
    <time>2026-06-23T01:52:49Z</time>
   </trkpt>
   <trkpt lat="-3.0835290" lon="37.3672560">
    <ele>5393.2</ele>
    <time>2026-06-23T01:52:50Z</time>
   </trkpt>
   <trkpt lat="-3.0835290" lon="37.3672560">
    <ele>5393.2</ele>
    <time>2026-06-23T01:52:51Z</time>
   </trkpt>
   <trkpt lat="-3.0835280" lon="37.3672550">
    <ele>5393.2</ele>
    <time>2026-06-23T01:52:52Z</time>
   </trkpt>
   <trkpt lat="-3.0835280" lon="37.3672550">
    <ele>5393.2</ele>
    <time>2026-06-23T01:52:53Z</time>
   </trkpt>
   <trkpt lat="-3.0835240" lon="37.3672540">
    <ele>5393.3</ele>
    <time>2026-06-23T01:52:54Z</time>
   </trkpt>
   <trkpt lat="-3.0835210" lon="37.3672540">
    <ele>5393.4</ele>
    <time>2026-06-23T01:52:55Z</time>
   </trkpt>
   <trkpt lat="-3.0835200" lon="37.3672540">
    <ele>5393.4</ele>
    <time>2026-06-23T01:52:56Z</time>
   </trkpt>
   <trkpt lat="-3.0835200" lon="37.3672550">
    <ele>5393.5</ele>
    <time>2026-06-23T01:52:57Z</time>
   </trkpt>
   <trkpt lat="-3.0835190" lon="37.3672570">
    <ele>5393.5</ele>
    <time>2026-06-23T01:52:58Z</time>
   </trkpt>
   <trkpt lat="-3.0835170" lon="37.3672570">
    <ele>5393.6</ele>
    <time>2026-06-23T01:52:59Z</time>
   </trkpt>
   <trkpt lat="-3.0835180" lon="37.3672580">
    <ele>5393.6</ele>
    <time>2026-06-23T01:53:00Z</time>
   </trkpt>
   <trkpt lat="-3.0835150" lon="37.3672570">
    <ele>5393.7</ele>
    <time>2026-06-23T01:53:01Z</time>
   </trkpt>
   <trkpt lat="-3.0835150" lon="37.3672590">
    <ele>5393.7</ele>
    <time>2026-06-23T01:53:02Z</time>
   </trkpt>
   <trkpt lat="-3.0835120" lon="37.3672580">
    <ele>5393.8</ele>
    <time>2026-06-23T01:53:03Z</time>
   </trkpt>
   <trkpt lat="-3.0835100" lon="37.3672590">
    <ele>5393.9</ele>
    <time>2026-06-23T01:53:04Z</time>
   </trkpt>
   <trkpt lat="-3.0835090" lon="37.3672610">
    <ele>5393.9</ele>
    <time>2026-06-23T01:53:05Z</time>
   </trkpt>
   <trkpt lat="-3.0835060" lon="37.3672600">
    <ele>5394.0</ele>
    <time>2026-06-23T01:53:06Z</time>
   </trkpt>
   <trkpt lat="-3.0835050" lon="37.3672620">
    <ele>5394.1</ele>
    <time>2026-06-23T01:53:07Z</time>
   </trkpt>
   <trkpt lat="-3.0835020" lon="37.3672610">
    <ele>5394.1</ele>
    <time>2026-06-23T01:53:08Z</time>
   </trkpt>
   <trkpt lat="-3.0835020" lon="37.3672630">
    <ele>5394.2</ele>
    <time>2026-06-23T01:53:09Z</time>
   </trkpt>
   <trkpt lat="-3.0835000" lon="37.3672630">
    <ele>5394.2</ele>
    <time>2026-06-23T01:53:10Z</time>
   </trkpt>
   <trkpt lat="-3.0835000" lon="37.3672640">
    <ele>5394.3</ele>
    <time>2026-06-23T01:53:11Z</time>
   </trkpt>
   <trkpt lat="-3.0834960" lon="37.3672640">
    <ele>5394.4</ele>
    <time>2026-06-23T01:53:12Z</time>
   </trkpt>
   <trkpt lat="-3.0834960" lon="37.3672650">
    <ele>5394.4</ele>
    <time>2026-06-23T01:53:13Z</time>
   </trkpt>
   <trkpt lat="-3.0834930" lon="37.3672640">
    <ele>5394.5</ele>
    <time>2026-06-23T01:53:14Z</time>
   </trkpt>
   <trkpt lat="-3.0834910" lon="37.3672660">
    <ele>5394.5</ele>
    <time>2026-06-23T01:53:15Z</time>
   </trkpt>
   <trkpt lat="-3.0834880" lon="37.3672640">
    <ele>5394.6</ele>
    <time>2026-06-23T01:53:16Z</time>
   </trkpt>
   <trkpt lat="-3.0834860" lon="37.3672630">
    <ele>5394.7</ele>
    <time>2026-06-23T01:53:18Z</time>
   </trkpt>
   <trkpt lat="-3.0834850" lon="37.3672630">
    <ele>5394.7</ele>
    <time>2026-06-23T01:53:19Z</time>
   </trkpt>
   <trkpt lat="-3.0834850" lon="37.3672610">
    <ele>5394.7</ele>
    <time>2026-06-23T01:53:20Z</time>
   </trkpt>
   <trkpt lat="-3.0834850" lon="37.3672610">
    <ele>5394.7</ele>
    <time>2026-06-23T01:53:21Z</time>
   </trkpt>
   <trkpt lat="-3.0834850" lon="37.3672590">
    <ele>5394.8</ele>
    <time>2026-06-23T01:53:22Z</time>
   </trkpt>
   <trkpt lat="-3.0834850" lon="37.3672560">
    <ele>5394.9</ele>
    <time>2026-06-23T01:53:23Z</time>
   </trkpt>
   <trkpt lat="-3.0834860" lon="37.3672550">
    <ele>5394.9</ele>
    <time>2026-06-23T01:53:24Z</time>
   </trkpt>
   <trkpt lat="-3.0834870" lon="37.3672520">
    <ele>5395.0</ele>
    <time>2026-06-23T01:53:25Z</time>
   </trkpt>
   <trkpt lat="-3.0834840" lon="37.3672490">
    <ele>5395.1</ele>
    <time>2026-06-23T01:53:26Z</time>
   </trkpt>
   <trkpt lat="-3.0834860" lon="37.3672470">
    <ele>5395.2</ele>
    <time>2026-06-23T01:53:27Z</time>
   </trkpt>
   <trkpt lat="-3.0834840" lon="37.3672470">
    <ele>5395.2</ele>
    <time>2026-06-23T01:53:28Z</time>
   </trkpt>
   <trkpt lat="-3.0834820" lon="37.3672440">
    <ele>5395.3</ele>
    <time>2026-06-23T01:53:29Z</time>
   </trkpt>
   <trkpt lat="-3.0834800" lon="37.3672440">
    <ele>5395.3</ele>
    <time>2026-06-23T01:53:30Z</time>
   </trkpt>
   <trkpt lat="-3.0834770" lon="37.3672430">
    <ele>5395.4</ele>
    <time>2026-06-23T01:53:31Z</time>
   </trkpt>
   <trkpt lat="-3.0834740" lon="37.3672410">
    <ele>5395.5</ele>
    <time>2026-06-23T01:53:32Z</time>
   </trkpt>
   <trkpt lat="-3.0834730" lon="37.3672390">
    <ele>5395.6</ele>
    <time>2026-06-23T01:53:33Z</time>
   </trkpt>
   <trkpt lat="-3.0834740" lon="37.3672380">
    <ele>5395.6</ele>
    <time>2026-06-23T01:53:34Z</time>
   </trkpt>
   <trkpt lat="-3.0834730" lon="37.3672350">
    <ele>5395.7</ele>
    <time>2026-06-23T01:53:35Z</time>
   </trkpt>
   <trkpt lat="-3.0834730" lon="37.3672350">
    <ele>5395.7</ele>
    <time>2026-06-23T01:53:36Z</time>
   </trkpt>
   <trkpt lat="-3.0834770" lon="37.3672330">
    <ele>5395.8</ele>
    <time>2026-06-23T01:53:37Z</time>
   </trkpt>
   <trkpt lat="-3.0834770" lon="37.3672330">
    <ele>5395.8</ele>
    <time>2026-06-23T01:53:38Z</time>
   </trkpt>
   <trkpt lat="-3.0834780" lon="37.3672310">
    <ele>5395.8</ele>
    <time>2026-06-23T01:53:39Z</time>
   </trkpt>
   <trkpt lat="-3.0834810" lon="37.3672300">
    <ele>5395.9</ele>
    <time>2026-06-23T01:53:40Z</time>
   </trkpt>
   <trkpt lat="-3.0834810" lon="37.3672290">
    <ele>5395.9</ele>
    <time>2026-06-23T01:53:41Z</time>
   </trkpt>
   <trkpt lat="-3.0834820" lon="37.3672280">
    <ele>5396.0</ele>
    <time>2026-06-23T01:53:42Z</time>
   </trkpt>
   <trkpt lat="-3.0834850" lon="37.3672280">
    <ele>5396.1</ele>
    <time>2026-06-23T01:53:43Z</time>
   </trkpt>
   <trkpt lat="-3.0834840" lon="37.3672250">
    <ele>5396.1</ele>
    <time>2026-06-23T01:53:44Z</time>
   </trkpt>
   <trkpt lat="-3.0834850" lon="37.3672240">
    <ele>5396.2</ele>
    <time>2026-06-23T01:53:45Z</time>
   </trkpt>
   <trkpt lat="-3.0834870" lon="37.3672230">
    <ele>5396.2</ele>
    <time>2026-06-23T01:53:46Z</time>
   </trkpt>
   <trkpt lat="-3.0834870" lon="37.3672220">
    <ele>5396.2</ele>
    <time>2026-06-23T01:53:47Z</time>
   </trkpt>
   <trkpt lat="-3.0834870" lon="37.3672200">
    <ele>5396.3</ele>
    <time>2026-06-23T01:53:48Z</time>
   </trkpt>
   <trkpt lat="-3.0834870" lon="37.3672180">
    <ele>5396.3</ele>
    <time>2026-06-23T01:53:49Z</time>
   </trkpt>
   <trkpt lat="-3.0834870" lon="37.3672180">
    <ele>5396.3</ele>
    <time>2026-06-23T01:53:50Z</time>
   </trkpt>
   <trkpt lat="-3.0834860" lon="37.3672180">
    <ele>5396.4</ele>
    <time>2026-06-23T01:53:51Z</time>
   </trkpt>
   <trkpt lat="-3.0834830" lon="37.3672180">
    <ele>5396.4</ele>
    <time>2026-06-23T01:53:52Z</time>
   </trkpt>
   <trkpt lat="-3.0834820" lon="37.3672170">
    <ele>5396.5</ele>
    <time>2026-06-23T01:53:53Z</time>
   </trkpt>
   <trkpt lat="-3.0834810" lon="37.3672150">
    <ele>5396.5</ele>
    <time>2026-06-23T01:53:54Z</time>
   </trkpt>
   <trkpt lat="-3.0834790" lon="37.3672150">
    <ele>5396.6</ele>
    <time>2026-06-23T01:53:55Z</time>
   </trkpt>
   <trkpt lat="-3.0834770" lon="37.3672130">
    <ele>5396.7</ele>
    <time>2026-06-23T01:53:56Z</time>
   </trkpt>
   <trkpt lat="-3.0834750" lon="37.3672150">
    <ele>5396.7</ele>
    <time>2026-06-23T01:53:57Z</time>
   </trkpt>
   <trkpt lat="-3.0834720" lon="37.3672140">
    <ele>5396.8</ele>
    <time>2026-06-23T01:53:58Z</time>
   </trkpt>
   <trkpt lat="-3.0834710" lon="37.3672140">
    <ele>5396.8</ele>
    <time>2026-06-23T01:53:59Z</time>
   </trkpt>
   <trkpt lat="-3.0834700" lon="37.3672150">
    <ele>5396.9</ele>
    <time>2026-06-23T01:54:00Z</time>
   </trkpt>
   <trkpt lat="-3.0834690" lon="37.3672140">
    <ele>5396.9</ele>
    <time>2026-06-23T01:54:01Z</time>
   </trkpt>
   <trkpt lat="-3.0834670" lon="37.3672160">
    <ele>5397.0</ele>
    <time>2026-06-23T01:54:02Z</time>
   </trkpt>
   <trkpt lat="-3.0834650" lon="37.3672160">
    <ele>5397.0</ele>
    <time>2026-06-23T01:54:03Z</time>
   </trkpt>
   <trkpt lat="-3.0834630" lon="37.3672160">
    <ele>5397.1</ele>
    <time>2026-06-23T01:54:04Z</time>
   </trkpt>
   <trkpt lat="-3.0834630" lon="37.3672160">
    <ele>5397.1</ele>
    <time>2026-06-23T01:54:05Z</time>
   </trkpt>
   <trkpt lat="-3.0834610" lon="37.3672150">
    <ele>5397.1</ele>
    <time>2026-06-23T01:54:06Z</time>
   </trkpt>
   <trkpt lat="-3.0834600" lon="37.3672170">
    <ele>5397.2</ele>
    <time>2026-06-23T01:54:07Z</time>
   </trkpt>
   <trkpt lat="-3.0834580" lon="37.3672170">
    <ele>5397.2</ele>
    <time>2026-06-23T01:54:08Z</time>
   </trkpt>
   <trkpt lat="-3.0834570" lon="37.3672170">
    <ele>5397.2</ele>
    <time>2026-06-23T01:54:09Z</time>
   </trkpt>
   <trkpt lat="-3.0834570" lon="37.3672170">
    <ele>5397.2</ele>
    <time>2026-06-23T01:54:10Z</time>
   </trkpt>
   <trkpt lat="-3.0834550" lon="37.3672190">
    <ele>5397.3</ele>
    <time>2026-06-23T01:54:11Z</time>
   </trkpt>
   <trkpt lat="-3.0834530" lon="37.3672200">
    <ele>5397.4</ele>
    <time>2026-06-23T01:54:12Z</time>
   </trkpt>
   <trkpt lat="-3.0834520" lon="37.3672210">
    <ele>5397.4</ele>
    <time>2026-06-23T01:54:13Z</time>
   </trkpt>
   <trkpt lat="-3.0834520" lon="37.3672220">
    <ele>5397.4</ele>
    <time>2026-06-23T01:54:14Z</time>
   </trkpt>
   <trkpt lat="-3.0834500" lon="37.3672220">
    <ele>5397.5</ele>
    <time>2026-06-23T01:54:15Z</time>
   </trkpt>
   <trkpt lat="-3.0834490" lon="37.3672240">
    <ele>5397.5</ele>
    <time>2026-06-23T01:54:16Z</time>
   </trkpt>
   <trkpt lat="-3.0834460" lon="37.3672240">
    <ele>5397.6</ele>
    <time>2026-06-23T01:54:17Z</time>
   </trkpt>
   <trkpt lat="-3.0834460" lon="37.3672260">
    <ele>5397.7</ele>
    <time>2026-06-23T01:54:18Z</time>
   </trkpt>
   <trkpt lat="-3.0834440" lon="37.3672260">
    <ele>5397.7</ele>
    <time>2026-06-23T01:54:19Z</time>
   </trkpt>
   <trkpt lat="-3.0834420" lon="37.3672270">
    <ele>5397.8</ele>
    <time>2026-06-23T01:54:20Z</time>
   </trkpt>
   <trkpt lat="-3.0834400" lon="37.3672270">
    <ele>5397.8</ele>
    <time>2026-06-23T01:54:21Z</time>
   </trkpt>
   <trkpt lat="-3.0834400" lon="37.3672270">
    <ele>5397.8</ele>
    <time>2026-06-23T01:54:22Z</time>
   </trkpt>
   <trkpt lat="-3.0834360" lon="37.3672280">
    <ele>5397.9</ele>
    <time>2026-06-23T01:54:23Z</time>
   </trkpt>
   <trkpt lat="-3.0834350" lon="37.3672290">
    <ele>5398.0</ele>
    <time>2026-06-23T01:54:24Z</time>
   </trkpt>
   <trkpt lat="-3.0834330" lon="37.3672280">
    <ele>5398.0</ele>
    <time>2026-06-23T01:54:25Z</time>
   </trkpt>
   <trkpt lat="-3.0834320" lon="37.3672290">
    <ele>5398.0</ele>
    <time>2026-06-23T01:54:26Z</time>
   </trkpt>
   <trkpt lat="-3.0834300" lon="37.3672290">
    <ele>5398.1</ele>
    <time>2026-06-23T01:54:27Z</time>
   </trkpt>
   <trkpt lat="-3.0834280" lon="37.3672300">
    <ele>5398.1</ele>
    <time>2026-06-23T01:54:28Z</time>
   </trkpt>
   <trkpt lat="-3.0834270" lon="37.3672310">
    <ele>5398.2</ele>
    <time>2026-06-23T01:54:29Z</time>
   </trkpt>
   <trkpt lat="-3.0834240" lon="37.3672310">
    <ele>5398.3</ele>
    <time>2026-06-23T01:54:30Z</time>
   </trkpt>
   <trkpt lat="-3.0834220" lon="37.3672330">
    <ele>5398.3</ele>
    <time>2026-06-23T01:54:31Z</time>
   </trkpt>
   <trkpt lat="-3.0834200" lon="37.3672320">
    <ele>5398.4</ele>
    <time>2026-06-23T01:54:32Z</time>
   </trkpt>
   <trkpt lat="-3.0834190" lon="37.3672350">
    <ele>5398.5</ele>
    <time>2026-06-23T01:54:33Z</time>
   </trkpt>
   <trkpt lat="-3.0834150" lon="37.3672330">
    <ele>5398.6</ele>
    <time>2026-06-23T01:54:34Z</time>
   </trkpt>
   <trkpt lat="-3.0834150" lon="37.3672350">
    <ele>5398.6</ele>
    <time>2026-06-23T01:54:35Z</time>
   </trkpt>
   <trkpt lat="-3.0834130" lon="37.3672340">
    <ele>5398.7</ele>
    <time>2026-06-23T01:54:36Z</time>
   </trkpt>
   <trkpt lat="-3.0834130" lon="37.3672340">
    <ele>5398.7</ele>
    <time>2026-06-23T01:54:37Z</time>
   </trkpt>
   <trkpt lat="-3.0834100" lon="37.3672330">
    <ele>5398.7</ele>
    <time>2026-06-23T01:54:38Z</time>
   </trkpt>
   <trkpt lat="-3.0834090" lon="37.3672330">
    <ele>5398.8</ele>
    <time>2026-06-23T01:54:39Z</time>
   </trkpt>
   <trkpt lat="-3.0834080" lon="37.3672330">
    <ele>5398.8</ele>
    <time>2026-06-23T01:54:40Z</time>
   </trkpt>
   <trkpt lat="-3.0834080" lon="37.3672320">
    <ele>5398.8</ele>
    <time>2026-06-23T01:54:41Z</time>
   </trkpt>
   <trkpt lat="-3.0834070" lon="37.3672300">
    <ele>5398.9</ele>
    <time>2026-06-23T01:54:42Z</time>
   </trkpt>
   <trkpt lat="-3.0834060" lon="37.3672300">
    <ele>5398.9</ele>
    <time>2026-06-23T01:54:43Z</time>
   </trkpt>
   <trkpt lat="-3.0834050" lon="37.3672280">
    <ele>5399.0</ele>
    <time>2026-06-23T01:54:44Z</time>
   </trkpt>
   <trkpt lat="-3.0834050" lon="37.3672260">
    <ele>5399.0</ele>
    <time>2026-06-23T01:54:45Z</time>
   </trkpt>
   <trkpt lat="-3.0834040" lon="37.3672260">
    <ele>5399.0</ele>
    <time>2026-06-23T01:54:46Z</time>
   </trkpt>
   <trkpt lat="-3.0834030" lon="37.3672250">
    <ele>5399.1</ele>
    <time>2026-06-23T01:54:47Z</time>
   </trkpt>
   <trkpt lat="-3.0834030" lon="37.3672250">
    <ele>5399.1</ele>
    <time>2026-06-23T01:54:48Z</time>
   </trkpt>
   <trkpt lat="-3.0834030" lon="37.3672230">
    <ele>5399.1</ele>
    <time>2026-06-23T01:54:49Z</time>
   </trkpt>
   <trkpt lat="-3.0834030" lon="37.3672230">
    <ele>5399.1</ele>
    <time>2026-06-23T01:54:50Z</time>
   </trkpt>
   <trkpt lat="-3.0834010" lon="37.3672220">
    <ele>5399.2</ele>
    <time>2026-06-23T01:54:51Z</time>
   </trkpt>
   <trkpt lat="-3.0833980" lon="37.3672220">
    <ele>5399.2</ele>
    <time>2026-06-23T01:54:52Z</time>
   </trkpt>
   <trkpt lat="-3.0833950" lon="37.3672190">
    <ele>5399.4</ele>
    <time>2026-06-23T01:54:53Z</time>
   </trkpt>
   <trkpt lat="-3.0833940" lon="37.3672170">
    <ele>5399.4</ele>
    <time>2026-06-23T01:54:54Z</time>
   </trkpt>
   <trkpt lat="-3.0833920" lon="37.3672130">
    <ele>5399.5</ele>
    <time>2026-06-23T01:54:55Z</time>
   </trkpt>
   <trkpt lat="-3.0833950" lon="37.3672120">
    <ele>5399.6</ele>
    <time>2026-06-23T01:54:56Z</time>
   </trkpt>
   <trkpt lat="-3.0833970" lon="37.3672100">
    <ele>5399.7</ele>
    <time>2026-06-23T01:54:57Z</time>
   </trkpt>
   <trkpt lat="-3.0833990" lon="37.3672070">
    <ele>5399.8</ele>
    <time>2026-06-23T01:54:58Z</time>
   </trkpt>
   <trkpt lat="-3.0834000" lon="37.3672060">
    <ele>5399.8</ele>
    <time>2026-06-23T01:54:59Z</time>
   </trkpt>
   <trkpt lat="-3.0834000" lon="37.3672060">
    <ele>5399.8</ele>
    <time>2026-06-23T01:55:00Z</time>
   </trkpt>
   <trkpt lat="-3.0834000" lon="37.3672050">
    <ele>5399.8</ele>
    <time>2026-06-23T01:55:01Z</time>
   </trkpt>
   <trkpt lat="-3.0834000" lon="37.3672040">
    <ele>5399.8</ele>
    <time>2026-06-23T01:55:02Z</time>
   </trkpt>
   <trkpt lat="-3.0834010" lon="37.3672020">
    <ele>5399.9</ele>
    <time>2026-06-23T01:55:03Z</time>
   </trkpt>
   <trkpt lat="-3.0834000" lon="37.3671990">
    <ele>5400.0</ele>
    <time>2026-06-23T01:55:04Z</time>
   </trkpt>
   <trkpt lat="-3.0834010" lon="37.3672010">
    <ele>5400.0</ele>
    <time>2026-06-23T01:55:05Z</time>
   </trkpt>
   <trkpt lat="-3.0834000" lon="37.3671980">
    <ele>5400.1</ele>
    <time>2026-06-23T01:55:06Z</time>
   </trkpt>
   <trkpt lat="-3.0834000" lon="37.3671980">
    <ele>5400.1</ele>
    <time>2026-06-23T01:55:07Z</time>
   </trkpt>
   <trkpt lat="-3.0834000" lon="37.3671970">
    <ele>5400.1</ele>
    <time>2026-06-23T01:55:08Z</time>
   </trkpt>
   <trkpt lat="-3.0834030" lon="37.3671960">
    <ele>5400.2</ele>
    <time>2026-06-23T01:55:09Z</time>
   </trkpt>
   <trkpt lat="-3.0834030" lon="37.3671960">
    <ele>5400.2</ele>
    <time>2026-06-23T01:55:10Z</time>
   </trkpt>
   <trkpt lat="-3.0834010" lon="37.3671930">
    <ele>5400.3</ele>
    <time>2026-06-23T01:55:11Z</time>
   </trkpt>
   <trkpt lat="-3.0834010" lon="37.3671920">
    <ele>5400.3</ele>
    <time>2026-06-23T01:55:12Z</time>
   </trkpt>
   <trkpt lat="-3.0834000" lon="37.3671910">
    <ele>5400.4</ele>
    <time>2026-06-23T01:55:13Z</time>
   </trkpt>
   <trkpt lat="-3.0834000" lon="37.3671890">
    <ele>5400.4</ele>
    <time>2026-06-23T01:55:14Z</time>
   </trkpt>
   <trkpt lat="-3.0834000" lon="37.3671890">
    <ele>5400.4</ele>
    <time>2026-06-23T01:55:15Z</time>
   </trkpt>
   <trkpt lat="-3.0834010" lon="37.3671900">
    <ele>5400.4</ele>
    <time>2026-06-23T01:55:16Z</time>
   </trkpt>
   <trkpt lat="-3.0834020" lon="37.3671870">
    <ele>5400.5</ele>
    <time>2026-06-23T01:55:17Z</time>
   </trkpt>
   <trkpt lat="-3.0834040" lon="37.3671830">
    <ele>5400.6</ele>
    <time>2026-06-23T01:55:18Z</time>
   </trkpt>
   <trkpt lat="-3.0834040" lon="37.3671820">
    <ele>5400.7</ele>
    <time>2026-06-23T01:55:19Z</time>
   </trkpt>
   <trkpt lat="-3.0834050" lon="37.3671820">
    <ele>5400.7</ele>
    <time>2026-06-23T01:55:20Z</time>
   </trkpt>
   <trkpt lat="-3.0834040" lon="37.3671810">
    <ele>5400.7</ele>
    <time>2026-06-23T01:55:21Z</time>
   </trkpt>
   <trkpt lat="-3.0834050" lon="37.3671790">
    <ele>5400.8</ele>
    <time>2026-06-23T01:55:22Z</time>
   </trkpt>
   <trkpt lat="-3.0834050" lon="37.3671770">
    <ele>5400.8</ele>
    <time>2026-06-23T01:55:24Z</time>
   </trkpt>
   <trkpt lat="-3.0834050" lon="37.3671780">
    <ele>5400.8</ele>
    <time>2026-06-23T01:55:25Z</time>
   </trkpt>
   <trkpt lat="-3.0834060" lon="37.3671770">
    <ele>5400.9</ele>
    <time>2026-06-23T01:55:26Z</time>
   </trkpt>
   <trkpt lat="-3.0834040" lon="37.3671760">
    <ele>5400.9</ele>
    <time>2026-06-23T01:55:27Z</time>
   </trkpt>
   <trkpt lat="-3.0834040" lon="37.3671750">
    <ele>5401.0</ele>
    <time>2026-06-23T01:55:28Z</time>
   </trkpt>
   <trkpt lat="-3.0834030" lon="37.3671720">
    <ele>5401.0</ele>
    <time>2026-06-23T01:55:29Z</time>
   </trkpt>
   <trkpt lat="-3.0834030" lon="37.3671730">
    <ele>5401.1</ele>
    <time>2026-06-23T01:55:30Z</time>
   </trkpt>
   <trkpt lat="-3.0834030" lon="37.3671720">
    <ele>5401.1</ele>
    <time>2026-06-23T01:55:31Z</time>
   </trkpt>
   <trkpt lat="-3.0834020" lon="37.3671690">
    <ele>5401.2</ele>
    <time>2026-06-23T01:55:32Z</time>
   </trkpt>
   <trkpt lat="-3.0834040" lon="37.3671700">
    <ele>5401.2</ele>
    <time>2026-06-23T01:55:33Z</time>
   </trkpt>
   <trkpt lat="-3.0834000" lon="37.3671650">
    <ele>5401.4</ele>
    <time>2026-06-23T01:55:34Z</time>
   </trkpt>
   <trkpt lat="-3.0833990" lon="37.3671650">
    <ele>5401.4</ele>
    <time>2026-06-23T01:55:35Z</time>
   </trkpt>
   <trkpt lat="-3.0834020" lon="37.3671650">
    <ele>5401.5</ele>
    <time>2026-06-23T01:55:36Z</time>
   </trkpt>
   <trkpt lat="-3.0833990" lon="37.3671640">
    <ele>5401.5</ele>
    <time>2026-06-23T01:55:37Z</time>
   </trkpt>
   <trkpt lat="-3.0834000" lon="37.3671620">
    <ele>5401.6</ele>
    <time>2026-06-23T01:55:38Z</time>
   </trkpt>
   <trkpt lat="-3.0834010" lon="37.3671610">
    <ele>5401.6</ele>
    <time>2026-06-23T01:55:39Z</time>
   </trkpt>
   <trkpt lat="-3.0834010" lon="37.3671590">
    <ele>5401.7</ele>
    <time>2026-06-23T01:55:40Z</time>
   </trkpt>
   <trkpt lat="-3.0834010" lon="37.3671570">
    <ele>5401.7</ele>
    <time>2026-06-23T01:55:41Z</time>
   </trkpt>
   <trkpt lat="-3.0834010" lon="37.3671560">
    <ele>5401.8</ele>
    <time>2026-06-23T01:55:42Z</time>
   </trkpt>
   <trkpt lat="-3.0833990" lon="37.3671540">
    <ele>5401.8</ele>
    <time>2026-06-23T01:55:43Z</time>
   </trkpt>
   <trkpt lat="-3.0833990" lon="37.3671530">
    <ele>5401.9</ele>
    <time>2026-06-23T01:55:44Z</time>
   </trkpt>
   <trkpt lat="-3.0833980" lon="37.3671500">
    <ele>5401.9</ele>
    <time>2026-06-23T01:55:45Z</time>
   </trkpt>
   <trkpt lat="-3.0833960" lon="37.3671480">
    <ele>5402.0</ele>
    <time>2026-06-23T01:55:46Z</time>
   </trkpt>
   <trkpt lat="-3.0833970" lon="37.3671470">
    <ele>5402.0</ele>
    <time>2026-06-23T01:55:47Z</time>
   </trkpt>
   <trkpt lat="-3.0833970" lon="37.3671440">
    <ele>5402.1</ele>
    <time>2026-06-23T01:55:48Z</time>
   </trkpt>
   <trkpt lat="-3.0833970" lon="37.3671440">
    <ele>5402.1</ele>
    <time>2026-06-23T01:55:49Z</time>
   </trkpt>
   <trkpt lat="-3.0833980" lon="37.3671430">
    <ele>5402.1</ele>
    <time>2026-06-23T01:55:50Z</time>
   </trkpt>
   <trkpt lat="-3.0833970" lon="37.3671410">
    <ele>5402.2</ele>
    <time>2026-06-23T01:55:51Z</time>
   </trkpt>
   <trkpt lat="-3.0833970" lon="37.3671410">
    <ele>5402.2</ele>
    <time>2026-06-23T01:55:52Z</time>
   </trkpt>
   <trkpt lat="-3.0833970" lon="37.3671400">
    <ele>5402.2</ele>
    <time>2026-06-23T01:55:53Z</time>
   </trkpt>
   <trkpt lat="-3.0833950" lon="37.3671390">
    <ele>5402.3</ele>
    <time>2026-06-23T01:55:54Z</time>
   </trkpt>
   <trkpt lat="-3.0833960" lon="37.3671380">
    <ele>5402.3</ele>
    <time>2026-06-23T01:55:55Z</time>
   </trkpt>
   <trkpt lat="-3.0833950" lon="37.3671360">
    <ele>5402.4</ele>
    <time>2026-06-23T01:55:56Z</time>
   </trkpt>
   <trkpt lat="-3.0833940" lon="37.3671340">
    <ele>5402.4</ele>
    <time>2026-06-23T01:55:57Z</time>
   </trkpt>
   <trkpt lat="-3.0833930" lon="37.3671330">
    <ele>5402.5</ele>
    <time>2026-06-23T01:55:58Z</time>
   </trkpt>
   <trkpt lat="-3.0833920" lon="37.3671330">
    <ele>5402.5</ele>
    <time>2026-06-23T01:55:59Z</time>
   </trkpt>
   <trkpt lat="-3.0833910" lon="37.3671320">
    <ele>5402.5</ele>
    <time>2026-06-23T01:56:00Z</time>
   </trkpt>
   <trkpt lat="-3.0833910" lon="37.3671320">
    <ele>5402.5</ele>
    <time>2026-06-23T01:56:01Z</time>
   </trkpt>
   <trkpt lat="-3.0833910" lon="37.3671320">
    <ele>5402.5</ele>
    <time>2026-06-23T01:56:02Z</time>
   </trkpt>
   <trkpt lat="-3.0833870" lon="37.3671340">
    <ele>5402.6</ele>
    <time>2026-06-23T01:56:03Z</time>
   </trkpt>
   <trkpt lat="-3.0833840" lon="37.3671340">
    <ele>5402.7</ele>
    <time>2026-06-23T01:56:04Z</time>
   </trkpt>
   <trkpt lat="-3.0833840" lon="37.3671350">
    <ele>5402.7</ele>
    <time>2026-06-23T01:56:05Z</time>
   </trkpt>
   <trkpt lat="-3.0833820" lon="37.3671350">
    <ele>5402.8</ele>
    <time>2026-06-23T01:56:06Z</time>
   </trkpt>
   <trkpt lat="-3.0833810" lon="37.3671370">
    <ele>5402.8</ele>
    <time>2026-06-23T01:56:07Z</time>
   </trkpt>
   <trkpt lat="-3.0833780" lon="37.3671350">
    <ele>5402.9</ele>
    <time>2026-06-23T01:56:08Z</time>
   </trkpt>
   <trkpt lat="-3.0833770" lon="37.3671380">
    <ele>5403.0</ele>
    <time>2026-06-23T01:56:09Z</time>
   </trkpt>
   <trkpt lat="-3.0833750" lon="37.3671370">
    <ele>5403.1</ele>
    <time>2026-06-23T01:56:10Z</time>
   </trkpt>
   <trkpt lat="-3.0833750" lon="37.3671400">
    <ele>5403.1</ele>
    <time>2026-06-23T01:56:11Z</time>
   </trkpt>
   <trkpt lat="-3.0833720" lon="37.3671370">
    <ele>5403.2</ele>
    <time>2026-06-23T01:56:12Z</time>
   </trkpt>
   <trkpt lat="-3.0833710" lon="37.3671380">
    <ele>5403.3</ele>
    <time>2026-06-23T01:56:13Z</time>
   </trkpt>
   <trkpt lat="-3.0833700" lon="37.3671390">
    <ele>5403.3</ele>
    <time>2026-06-23T01:56:14Z</time>
   </trkpt>
   <trkpt lat="-3.0833690" lon="37.3671410">
    <ele>5403.4</ele>
    <time>2026-06-23T01:56:15Z</time>
   </trkpt>
   <trkpt lat="-3.0833680" lon="37.3671410">
    <ele>5403.4</ele>
    <time>2026-06-23T01:56:16Z</time>
   </trkpt>
   <trkpt lat="-3.0833680" lon="37.3671430">
    <ele>5403.4</ele>
    <time>2026-06-23T01:56:17Z</time>
   </trkpt>
   <trkpt lat="-3.0833670" lon="37.3671440">
    <ele>5403.5</ele>
    <time>2026-06-23T01:56:18Z</time>
   </trkpt>
   <trkpt lat="-3.0833660" lon="37.3671450">
    <ele>5403.5</ele>
    <time>2026-06-23T01:56:19Z</time>
   </trkpt>
   <trkpt lat="-3.0833650" lon="37.3671470">
    <ele>5403.6</ele>
    <time>2026-06-23T01:56:20Z</time>
   </trkpt>
   <trkpt lat="-3.0833640" lon="37.3671470">
    <ele>5403.6</ele>
    <time>2026-06-23T01:56:21Z</time>
   </trkpt>
   <trkpt lat="-3.0833640" lon="37.3671470">
    <ele>5403.6</ele>
    <time>2026-06-23T01:56:22Z</time>
   </trkpt>
   <trkpt lat="-3.0833620" lon="37.3671480">
    <ele>5403.6</ele>
    <time>2026-06-23T01:56:23Z</time>
   </trkpt>
   <trkpt lat="-3.0833610" lon="37.3671490">
    <ele>5403.7</ele>
    <time>2026-06-23T01:56:24Z</time>
   </trkpt>
   <trkpt lat="-3.0833610" lon="37.3671510">
    <ele>5403.7</ele>
    <time>2026-06-23T01:56:25Z</time>
   </trkpt>
   <trkpt lat="-3.0833590" lon="37.3671510">
    <ele>5403.8</ele>
    <time>2026-06-23T01:56:26Z</time>
   </trkpt>
   <trkpt lat="-3.0833580" lon="37.3671530">
    <ele>5403.8</ele>
    <time>2026-06-23T01:56:27Z</time>
   </trkpt>
   <trkpt lat="-3.0833570" lon="37.3671550">
    <ele>5403.9</ele>
    <time>2026-06-23T01:56:28Z</time>
   </trkpt>
   <trkpt lat="-3.0833550" lon="37.3671560">
    <ele>5403.9</ele>
    <time>2026-06-23T01:56:29Z</time>
   </trkpt>
   <trkpt lat="-3.0833550" lon="37.3671580">
    <ele>5404.0</ele>
    <time>2026-06-23T01:56:30Z</time>
   </trkpt>
   <trkpt lat="-3.0833520" lon="37.3671580">
    <ele>5404.1</ele>
    <time>2026-06-23T01:56:31Z</time>
   </trkpt>
   <trkpt lat="-3.0833530" lon="37.3671590">
    <ele>5404.1</ele>
    <time>2026-06-23T01:56:32Z</time>
   </trkpt>
   <trkpt lat="-3.0833510" lon="37.3671590">
    <ele>5404.1</ele>
    <time>2026-06-23T01:56:33Z</time>
   </trkpt>
   <trkpt lat="-3.0833490" lon="37.3671590">
    <ele>5404.2</ele>
    <time>2026-06-23T01:56:34Z</time>
   </trkpt>
   <trkpt lat="-3.0833490" lon="37.3671590">
    <ele>5404.2</ele>
    <time>2026-06-23T01:56:35Z</time>
   </trkpt>
   <trkpt lat="-3.0833470" lon="37.3671600">
    <ele>5404.2</ele>
    <time>2026-06-23T01:56:36Z</time>
   </trkpt>
   <trkpt lat="-3.0833430" lon="37.3671600">
    <ele>5404.3</ele>
    <time>2026-06-23T01:56:37Z</time>
   </trkpt>
   <trkpt lat="-3.0833420" lon="37.3671620">
    <ele>5404.4</ele>
    <time>2026-06-23T01:56:38Z</time>
   </trkpt>
   <trkpt lat="-3.0833430" lon="37.3671630">
    <ele>5404.4</ele>
    <time>2026-06-23T01:56:39Z</time>
   </trkpt>
   <trkpt lat="-3.0833380" lon="37.3671660">
    <ele>5404.6</ele>
    <time>2026-06-23T01:56:40Z</time>
   </trkpt>
   <trkpt lat="-3.0833350" lon="37.3671660">
    <ele>5404.7</ele>
    <time>2026-06-23T01:56:41Z</time>
   </trkpt>
   <trkpt lat="-3.0833350" lon="37.3671690">
    <ele>5404.7</ele>
    <time>2026-06-23T01:56:42Z</time>
   </trkpt>
   <trkpt lat="-3.0833310" lon="37.3671690">
    <ele>5404.8</ele>
    <time>2026-06-23T01:56:43Z</time>
   </trkpt>
   <trkpt lat="-3.0833310" lon="37.3671710">
    <ele>5404.9</ele>
    <time>2026-06-23T01:56:44Z</time>
   </trkpt>
   <trkpt lat="-3.0833300" lon="37.3671730">
    <ele>5404.9</ele>
    <time>2026-06-23T01:56:45Z</time>
   </trkpt>
   <trkpt lat="-3.0833290" lon="37.3671720">
    <ele>5405.0</ele>
    <time>2026-06-23T01:56:46Z</time>
   </trkpt>
   <trkpt lat="-3.0833280" lon="37.3671750">
    <ele>5405.0</ele>
    <time>2026-06-23T01:56:47Z</time>
   </trkpt>
   <trkpt lat="-3.0833250" lon="37.3671760">
    <ele>5405.1</ele>
    <time>2026-06-23T01:56:48Z</time>
   </trkpt>
   <trkpt lat="-3.0833240" lon="37.3671760">
    <ele>5405.1</ele>
    <time>2026-06-23T01:56:49Z</time>
   </trkpt>
   <trkpt lat="-3.0833230" lon="37.3671790">
    <ele>5405.2</ele>
    <time>2026-06-23T01:56:50Z</time>
   </trkpt>
   <trkpt lat="-3.0833210" lon="37.3671790">
    <ele>5405.3</ele>
    <time>2026-06-23T01:56:51Z</time>
   </trkpt>
   <trkpt lat="-3.0833190" lon="37.3671820">
    <ele>5405.4</ele>
    <time>2026-06-23T01:56:52Z</time>
   </trkpt>
   <trkpt lat="-3.0833190" lon="37.3671850">
    <ele>5405.4</ele>
    <time>2026-06-23T01:56:53Z</time>
   </trkpt>
   <trkpt lat="-3.0833160" lon="37.3671840">
    <ele>5405.5</ele>
    <time>2026-06-23T01:56:54Z</time>
   </trkpt>
   <trkpt lat="-3.0833160" lon="37.3671860">
    <ele>5405.6</ele>
    <time>2026-06-23T01:56:55Z</time>
   </trkpt>
   <trkpt lat="-3.0833150" lon="37.3671850">
    <ele>5405.6</ele>
    <time>2026-06-23T01:56:56Z</time>
   </trkpt>
   <trkpt lat="-3.0833120" lon="37.3671860">
    <ele>5405.7</ele>
    <time>2026-06-23T01:56:57Z</time>
   </trkpt>
   <trkpt lat="-3.0833120" lon="37.3671850">
    <ele>5405.7</ele>
    <time>2026-06-23T01:56:58Z</time>
   </trkpt>
   <trkpt lat="-3.0833100" lon="37.3671860">
    <ele>5405.8</ele>
    <time>2026-06-23T01:56:59Z</time>
   </trkpt>
   <trkpt lat="-3.0833070" lon="37.3671840">
    <ele>5405.8</ele>
    <time>2026-06-23T01:57:00Z</time>
   </trkpt>
   <trkpt lat="-3.0833080" lon="37.3671870">
    <ele>5405.9</ele>
    <time>2026-06-23T01:57:01Z</time>
   </trkpt>
   <trkpt lat="-3.0833040" lon="37.3671870">
    <ele>5406.0</ele>
    <time>2026-06-23T01:57:02Z</time>
   </trkpt>
   <trkpt lat="-3.0833040" lon="37.3671890">
    <ele>5406.1</ele>
    <time>2026-06-23T01:57:03Z</time>
   </trkpt>
   <trkpt lat="-3.0833010" lon="37.3671880">
    <ele>5406.1</ele>
    <time>2026-06-23T01:57:04Z</time>
   </trkpt>
   <trkpt lat="-3.0833010" lon="37.3671880">
    <ele>5406.1</ele>
    <time>2026-06-23T01:57:05Z</time>
   </trkpt>
   <trkpt lat="-3.0832990" lon="37.3671890">
    <ele>5406.2</ele>
    <time>2026-06-23T01:57:06Z</time>
   </trkpt>
   <trkpt lat="-3.0832960" lon="37.3671870">
    <ele>5406.3</ele>
    <time>2026-06-23T01:57:07Z</time>
   </trkpt>
   <trkpt lat="-3.0832960" lon="37.3671880">
    <ele>5406.3</ele>
    <time>2026-06-23T01:57:08Z</time>
   </trkpt>
   <trkpt lat="-3.0832940" lon="37.3671890">
    <ele>5406.4</ele>
    <time>2026-06-23T01:57:09Z</time>
   </trkpt>
   <trkpt lat="-3.0832920" lon="37.3671860">
    <ele>5406.5</ele>
    <time>2026-06-23T01:57:10Z</time>
   </trkpt>
   <trkpt lat="-3.0832910" lon="37.3671870">
    <ele>5406.5</ele>
    <time>2026-06-23T01:57:11Z</time>
   </trkpt>
   <trkpt lat="-3.0832910" lon="37.3671840">
    <ele>5406.6</ele>
    <time>2026-06-23T01:57:12Z</time>
   </trkpt>
   <trkpt lat="-3.0832870" lon="37.3671830">
    <ele>5406.7</ele>
    <time>2026-06-23T01:57:13Z</time>
   </trkpt>
   <trkpt lat="-3.0832850" lon="37.3671800">
    <ele>5406.8</ele>
    <time>2026-06-23T01:57:14Z</time>
   </trkpt>
   <trkpt lat="-3.0832860" lon="37.3671790">
    <ele>5406.8</ele>
    <time>2026-06-23T01:57:15Z</time>
   </trkpt>
   <trkpt lat="-3.0832870" lon="37.3671760">
    <ele>5406.9</ele>
    <time>2026-06-23T01:57:16Z</time>
   </trkpt>
   <trkpt lat="-3.0832850" lon="37.3671740">
    <ele>5406.9</ele>
    <time>2026-06-23T01:57:17Z</time>
   </trkpt>
   <trkpt lat="-3.0832860" lon="37.3671710">
    <ele>5407.0</ele>
    <time>2026-06-23T01:57:18Z</time>
   </trkpt>
   <trkpt lat="-3.0832860" lon="37.3671690">
    <ele>5407.1</ele>
    <time>2026-06-23T01:57:19Z</time>
   </trkpt>
   <trkpt lat="-3.0832880" lon="37.3671670">
    <ele>5407.1</ele>
    <time>2026-06-23T01:57:20Z</time>
   </trkpt>
   <trkpt lat="-3.0832880" lon="37.3671650">
    <ele>5407.2</ele>
    <time>2026-06-23T01:57:21Z</time>
   </trkpt>
   <trkpt lat="-3.0832900" lon="37.3671630">
    <ele>5407.3</ele>
    <time>2026-06-23T01:57:22Z</time>
   </trkpt>
   <trkpt lat="-3.0832890" lon="37.3671610">
    <ele>5407.3</ele>
    <time>2026-06-23T01:57:23Z</time>
   </trkpt>
   <trkpt lat="-3.0832890" lon="37.3671600">
    <ele>5407.3</ele>
    <time>2026-06-23T01:57:24Z</time>
   </trkpt>
   <trkpt lat="-3.0832900" lon="37.3671580">
    <ele>5407.4</ele>
    <time>2026-06-23T01:57:25Z</time>
   </trkpt>
   <trkpt lat="-3.0832890" lon="37.3671540">
    <ele>5407.5</ele>
    <time>2026-06-23T01:57:26Z</time>
   </trkpt>
   <trkpt lat="-3.0832900" lon="37.3671510">
    <ele>5407.6</ele>
    <time>2026-06-23T01:57:27Z</time>
   </trkpt>
   <trkpt lat="-3.0832900" lon="37.3671480">
    <ele>5407.6</ele>
    <time>2026-06-23T01:57:28Z</time>
   </trkpt>
   <trkpt lat="-3.0832920" lon="37.3671450">
    <ele>5407.7</ele>
    <time>2026-06-23T01:57:30Z</time>
   </trkpt>
   <trkpt lat="-3.0832920" lon="37.3671430">
    <ele>5407.8</ele>
    <time>2026-06-23T01:57:31Z</time>
   </trkpt>
   <trkpt lat="-3.0832920" lon="37.3671410">
    <ele>5407.8</ele>
    <time>2026-06-23T01:57:32Z</time>
   </trkpt>
   <trkpt lat="-3.0832920" lon="37.3671400">
    <ele>5407.8</ele>
    <time>2026-06-23T01:57:33Z</time>
   </trkpt>
   <trkpt lat="-3.0832910" lon="37.3671370">
    <ele>5407.9</ele>
    <time>2026-06-23T01:57:34Z</time>
   </trkpt>
   <trkpt lat="-3.0832920" lon="37.3671360">
    <ele>5407.9</ele>
    <time>2026-06-23T01:57:35Z</time>
   </trkpt>
   <trkpt lat="-3.0832910" lon="37.3671330">
    <ele>5408.0</ele>
    <time>2026-06-23T01:57:36Z</time>
   </trkpt>
   <trkpt lat="-3.0832900" lon="37.3671310">
    <ele>5408.1</ele>
    <time>2026-06-23T01:57:37Z</time>
   </trkpt>
   <trkpt lat="-3.0832890" lon="37.3671290">
    <ele>5408.1</ele>
    <time>2026-06-23T01:57:38Z</time>
   </trkpt>
   <trkpt lat="-3.0832870" lon="37.3671280">
    <ele>5408.2</ele>
    <time>2026-06-23T01:57:39Z</time>
   </trkpt>
   <trkpt lat="-3.0832840" lon="37.3671250">
    <ele>5408.3</ele>
    <time>2026-06-23T01:57:40Z</time>
   </trkpt>
   <trkpt lat="-3.0832810" lon="37.3671230">
    <ele>5408.3</ele>
    <time>2026-06-23T01:57:41Z</time>
   </trkpt>
   <trkpt lat="-3.0832800" lon="37.3671240">
    <ele>5408.4</ele>
    <time>2026-06-23T01:57:42Z</time>
   </trkpt>
   <trkpt lat="-3.0832790" lon="37.3671250">
    <ele>5408.4</ele>
    <time>2026-06-23T01:57:43Z</time>
   </trkpt>
   <trkpt lat="-3.0832760" lon="37.3671230">
    <ele>5408.5</ele>
    <time>2026-06-23T01:57:44Z</time>
   </trkpt>
   <trkpt lat="-3.0832760" lon="37.3671250">
    <ele>5408.5</ele>
    <time>2026-06-23T01:57:45Z</time>
   </trkpt>
   <trkpt lat="-3.0832730" lon="37.3671240">
    <ele>5408.6</ele>
    <time>2026-06-23T01:57:46Z</time>
   </trkpt>
   <trkpt lat="-3.0832720" lon="37.3671260">
    <ele>5408.7</ele>
    <time>2026-06-23T01:57:47Z</time>
   </trkpt>
   <trkpt lat="-3.0832720" lon="37.3671270">
    <ele>5408.7</ele>
    <time>2026-06-23T01:57:48Z</time>
   </trkpt>
   <trkpt lat="-3.0832680" lon="37.3671280">
    <ele>5408.8</ele>
    <time>2026-06-23T01:57:49Z</time>
   </trkpt>
   <trkpt lat="-3.0832660" lon="37.3671300">
    <ele>5408.9</ele>
    <time>2026-06-23T01:57:50Z</time>
   </trkpt>
   <trkpt lat="-3.0832660" lon="37.3671330">
    <ele>5408.9</ele>
    <time>2026-06-23T01:57:51Z</time>
   </trkpt>
   <trkpt lat="-3.0832620" lon="37.3671320">
    <ele>5409.0</ele>
    <time>2026-06-23T01:57:52Z</time>
   </trkpt>
   <trkpt lat="-3.0832630" lon="37.3671340">
    <ele>5409.1</ele>
    <time>2026-06-23T01:57:53Z</time>
   </trkpt>
   <trkpt lat="-3.0832590" lon="37.3671350">
    <ele>5409.2</ele>
    <time>2026-06-23T01:57:54Z</time>
   </trkpt>
   <trkpt lat="-3.0832590" lon="37.3671360">
    <ele>5409.2</ele>
    <time>2026-06-23T01:57:55Z</time>
   </trkpt>
   <trkpt lat="-3.0832570" lon="37.3671380">
    <ele>5409.3</ele>
    <time>2026-06-23T01:57:56Z</time>
   </trkpt>
   <trkpt lat="-3.0832550" lon="37.3671390">
    <ele>5409.3</ele>
    <time>2026-06-23T01:57:57Z</time>
   </trkpt>
   <trkpt lat="-3.0832540" lon="37.3671410">
    <ele>5409.4</ele>
    <time>2026-06-23T01:57:58Z</time>
   </trkpt>
   <trkpt lat="-3.0832530" lon="37.3671440">
    <ele>5409.4</ele>
    <time>2026-06-23T01:57:59Z</time>
   </trkpt>
   <trkpt lat="-3.0832500" lon="37.3671430">
    <ele>5409.5</ele>
    <time>2026-06-23T01:58:00Z</time>
   </trkpt>
   <trkpt lat="-3.0832490" lon="37.3671440">
    <ele>5409.5</ele>
    <time>2026-06-23T01:58:01Z</time>
   </trkpt>
   <trkpt lat="-3.0832460" lon="37.3671440">
    <ele>5409.6</ele>
    <time>2026-06-23T01:58:02Z</time>
   </trkpt>
   <trkpt lat="-3.0832440" lon="37.3671450">
    <ele>5409.7</ele>
    <time>2026-06-23T01:58:03Z</time>
   </trkpt>
   <trkpt lat="-3.0832410" lon="37.3671460">
    <ele>5409.7</ele>
    <time>2026-06-23T01:58:04Z</time>
   </trkpt>
   <trkpt lat="-3.0832400" lon="37.3671470">
    <ele>5409.8</ele>
    <time>2026-06-23T01:58:05Z</time>
   </trkpt>
   <trkpt lat="-3.0832380" lon="37.3671470">
    <ele>5409.8</ele>
    <time>2026-06-23T01:58:06Z</time>
   </trkpt>
   <trkpt lat="-3.0832380" lon="37.3671490">
    <ele>5409.9</ele>
    <time>2026-06-23T01:58:07Z</time>
   </trkpt>
   <trkpt lat="-3.0832340" lon="37.3671490">
    <ele>5410.0</ele>
    <time>2026-06-23T01:58:08Z</time>
   </trkpt>
   <trkpt lat="-3.0832330" lon="37.3671500">
    <ele>5410.0</ele>
    <time>2026-06-23T01:58:09Z</time>
   </trkpt>
   <trkpt lat="-3.0832330" lon="37.3671500">
    <ele>5410.0</ele>
    <time>2026-06-23T01:58:10Z</time>
   </trkpt>
   <trkpt lat="-3.0832310" lon="37.3671520">
    <ele>5410.1</ele>
    <time>2026-06-23T01:58:11Z</time>
   </trkpt>
   <trkpt lat="-3.0832300" lon="37.3671530">
    <ele>5410.1</ele>
    <time>2026-06-23T01:58:12Z</time>
   </trkpt>
   <trkpt lat="-3.0832270" lon="37.3671540">
    <ele>5410.2</ele>
    <time>2026-06-23T01:58:13Z</time>
   </trkpt>
   <trkpt lat="-3.0832260" lon="37.3671560">
    <ele>5410.2</ele>
    <time>2026-06-23T01:58:14Z</time>
   </trkpt>
   <trkpt lat="-3.0832240" lon="37.3671560">
    <ele>5410.3</ele>
    <time>2026-06-23T01:58:15Z</time>
   </trkpt>
   <trkpt lat="-3.0832240" lon="37.3671590">
    <ele>5410.3</ele>
    <time>2026-06-23T01:58:16Z</time>
   </trkpt>
   <trkpt lat="-3.0832220" lon="37.3671610">
    <ele>5410.4</ele>
    <time>2026-06-23T01:58:17Z</time>
   </trkpt>
   <trkpt lat="-3.0832200" lon="37.3671630">
    <ele>5410.5</ele>
    <time>2026-06-23T01:58:18Z</time>
   </trkpt>
   <trkpt lat="-3.0832190" lon="37.3671630">
    <ele>5410.5</ele>
    <time>2026-06-23T01:58:19Z</time>
   </trkpt>
   <trkpt lat="-3.0832170" lon="37.3671640">
    <ele>5410.5</ele>
    <time>2026-06-23T01:58:20Z</time>
   </trkpt>
   <trkpt lat="-3.0832130" lon="37.3671620">
    <ele>5410.6</ele>
    <time>2026-06-23T01:58:21Z</time>
   </trkpt>
   <trkpt lat="-3.0832120" lon="37.3671630">
    <ele>5410.7</ele>
    <time>2026-06-23T01:58:22Z</time>
   </trkpt>
   <trkpt lat="-3.0832100" lon="37.3671620">
    <ele>5410.7</ele>
    <time>2026-06-23T01:58:23Z</time>
   </trkpt>
   <trkpt lat="-3.0832080" lon="37.3671620">
    <ele>5410.8</ele>
    <time>2026-06-23T01:58:24Z</time>
   </trkpt>
   <trkpt lat="-3.0832070" lon="37.3671630">
    <ele>5410.8</ele>
    <time>2026-06-23T01:58:25Z</time>
   </trkpt>
   <trkpt lat="-3.0832040" lon="37.3671630">
    <ele>5410.9</ele>
    <time>2026-06-23T01:58:26Z</time>
   </trkpt>
   <trkpt lat="-3.0832020" lon="37.3671640">
    <ele>5410.9</ele>
    <time>2026-06-23T01:58:27Z</time>
   </trkpt>
   <trkpt lat="-3.0832000" lon="37.3671650">
    <ele>5411.0</ele>
    <time>2026-06-23T01:58:28Z</time>
   </trkpt>
   <trkpt lat="-3.0831960" lon="37.3671650">
    <ele>5411.1</ele>
    <time>2026-06-23T01:58:29Z</time>
   </trkpt>
   <trkpt lat="-3.0831950" lon="37.3671650">
    <ele>5411.1</ele>
    <time>2026-06-23T01:58:30Z</time>
   </trkpt>
   <trkpt lat="-3.0831910" lon="37.3671660">
    <ele>5411.2</ele>
    <time>2026-06-23T01:58:31Z</time>
   </trkpt>
   <trkpt lat="-3.0831900" lon="37.3671670">
    <ele>5411.2</ele>
    <time>2026-06-23T01:58:32Z</time>
   </trkpt>
   <trkpt lat="-3.0831900" lon="37.3671680">
    <ele>5411.2</ele>
    <time>2026-06-23T01:58:33Z</time>
   </trkpt>
   <trkpt lat="-3.0831840" lon="37.3671690">
    <ele>5411.4</ele>
    <time>2026-06-23T01:58:34Z</time>
   </trkpt>
   <trkpt lat="-3.0831810" lon="37.3671690">
    <ele>5411.5</ele>
    <time>2026-06-23T01:58:35Z</time>
   </trkpt>
   <trkpt lat="-3.0831800" lon="37.3671700">
    <ele>5411.5</ele>
    <time>2026-06-23T01:58:36Z</time>
   </trkpt>
   <trkpt lat="-3.0831810" lon="37.3671700">
    <ele>5411.5</ele>
    <time>2026-06-23T01:58:37Z</time>
   </trkpt>
   <trkpt lat="-3.0831820" lon="37.3671700">
    <ele>5411.5</ele>
    <time>2026-06-23T01:58:38Z</time>
   </trkpt>
   <trkpt lat="-3.0831770" lon="37.3671690">
    <ele>5411.6</ele>
    <time>2026-06-23T01:58:39Z</time>
   </trkpt>
   <trkpt lat="-3.0831730" lon="37.3671690">
    <ele>5411.7</ele>
    <time>2026-06-23T01:58:40Z</time>
   </trkpt>
   <trkpt lat="-3.0831710" lon="37.3671670">
    <ele>5411.8</ele>
    <time>2026-06-23T01:58:41Z</time>
   </trkpt>
   <trkpt lat="-3.0831720" lon="37.3671670">
    <ele>5411.8</ele>
    <time>2026-06-23T01:58:42Z</time>
   </trkpt>
   <trkpt lat="-3.0831720" lon="37.3671660">
    <ele>5411.9</ele>
    <time>2026-06-23T01:58:43Z</time>
   </trkpt>
   <trkpt lat="-3.0831730" lon="37.3671650">
    <ele>5411.9</ele>
    <time>2026-06-23T01:58:44Z</time>
   </trkpt>
   <trkpt lat="-3.0831730" lon="37.3671650">
    <ele>5411.9</ele>
    <time>2026-06-23T01:58:45Z</time>
   </trkpt>
   <trkpt lat="-3.0831730" lon="37.3671650">
    <ele>5411.9</ele>
    <time>2026-06-23T01:58:46Z</time>
   </trkpt>
   <trkpt lat="-3.0831720" lon="37.3671650">
    <ele>5411.9</ele>
    <time>2026-06-23T01:58:47Z</time>
   </trkpt>
   <trkpt lat="-3.0831720" lon="37.3671650">
    <ele>5411.9</ele>
    <time>2026-06-23T01:58:48Z</time>
   </trkpt>
   <trkpt lat="-3.0831720" lon="37.3671650">
    <ele>5411.9</ele>
    <time>2026-06-23T01:58:49Z</time>
   </trkpt>
   <trkpt lat="-3.0831720" lon="37.3671650">
    <ele>5411.9</ele>
    <time>2026-06-23T01:58:50Z</time>
   </trkpt>
   <trkpt lat="-3.0831720" lon="37.3671640">
    <ele>5411.9</ele>
    <time>2026-06-23T01:58:51Z</time>
   </trkpt>
   <trkpt lat="-3.0831720" lon="37.3671620">
    <ele>5412.0</ele>
    <time>2026-06-23T01:58:52Z</time>
   </trkpt>
   <trkpt lat="-3.0831740" lon="37.3671620">
    <ele>5412.0</ele>
    <time>2026-06-23T01:58:53Z</time>
   </trkpt>
   <trkpt lat="-3.0831740" lon="37.3671600">
    <ele>5412.1</ele>
    <time>2026-06-23T01:58:54Z</time>
   </trkpt>
   <trkpt lat="-3.0831770" lon="37.3671570">
    <ele>5412.2</ele>
    <time>2026-06-23T01:58:55Z</time>
   </trkpt>
   <trkpt lat="-3.0831790" lon="37.3671540">
    <ele>5412.3</ele>
    <time>2026-06-23T01:58:56Z</time>
   </trkpt>
   <trkpt lat="-3.0831800" lon="37.3671520">
    <ele>5412.3</ele>
    <time>2026-06-23T01:58:57Z</time>
   </trkpt>
   <trkpt lat="-3.0831810" lon="37.3671490">
    <ele>5412.4</ele>
    <time>2026-06-23T01:58:58Z</time>
   </trkpt>
   <trkpt lat="-3.0831820" lon="37.3671470">
    <ele>5412.4</ele>
    <time>2026-06-23T01:58:59Z</time>
   </trkpt>
   <trkpt lat="-3.0831800" lon="37.3671440">
    <ele>5412.5</ele>
    <time>2026-06-23T01:59:00Z</time>
   </trkpt>
   <trkpt lat="-3.0831830" lon="37.3671430">
    <ele>5412.6</ele>
    <time>2026-06-23T01:59:01Z</time>
   </trkpt>
   <trkpt lat="-3.0831840" lon="37.3671410">
    <ele>5412.6</ele>
    <time>2026-06-23T01:59:02Z</time>
   </trkpt>
   <trkpt lat="-3.0831840" lon="37.3671380">
    <ele>5412.7</ele>
    <time>2026-06-23T01:59:03Z</time>
   </trkpt>
   <trkpt lat="-3.0831840" lon="37.3671350">
    <ele>5412.8</ele>
    <time>2026-06-23T01:59:04Z</time>
   </trkpt>
   <trkpt lat="-3.0831830" lon="37.3671330">
    <ele>5412.8</ele>
    <time>2026-06-23T01:59:05Z</time>
   </trkpt>
   <trkpt lat="-3.0831820" lon="37.3671320">
    <ele>5412.9</ele>
    <time>2026-06-23T01:59:06Z</time>
   </trkpt>
   <trkpt lat="-3.0831840" lon="37.3671290">
    <ele>5412.9</ele>
    <time>2026-06-23T01:59:07Z</time>
   </trkpt>
   <trkpt lat="-3.0831820" lon="37.3671280">
    <ele>5413.0</ele>
    <time>2026-06-23T01:59:08Z</time>
   </trkpt>
   <trkpt lat="-3.0831810" lon="37.3671260">
    <ele>5413.1</ele>
    <time>2026-06-23T01:59:09Z</time>
   </trkpt>
   <trkpt lat="-3.0831820" lon="37.3671240">
    <ele>5413.1</ele>
    <time>2026-06-23T01:59:10Z</time>
   </trkpt>
   <trkpt lat="-3.0831830" lon="37.3671210">
    <ele>5413.2</ele>
    <time>2026-06-23T01:59:11Z</time>
   </trkpt>
   <trkpt lat="-3.0831830" lon="37.3671190">
    <ele>5413.2</ele>
    <time>2026-06-23T01:59:12Z</time>
   </trkpt>
   <trkpt lat="-3.0831840" lon="37.3671170">
    <ele>5413.3</ele>
    <time>2026-06-23T01:59:13Z</time>
   </trkpt>
   <trkpt lat="-3.0831850" lon="37.3671160">
    <ele>5413.3</ele>
    <time>2026-06-23T01:59:14Z</time>
   </trkpt>
   <trkpt lat="-3.0831850" lon="37.3671140">
    <ele>5413.4</ele>
    <time>2026-06-23T01:59:15Z</time>
   </trkpt>
   <trkpt lat="-3.0831880" lon="37.3671130">
    <ele>5413.4</ele>
    <time>2026-06-23T01:59:16Z</time>
   </trkpt>
   <trkpt lat="-3.0831890" lon="37.3671110">
    <ele>5413.5</ele>
    <time>2026-06-23T01:59:17Z</time>
   </trkpt>
   <trkpt lat="-3.0831910" lon="37.3671100">
    <ele>5413.5</ele>
    <time>2026-06-23T01:59:18Z</time>
   </trkpt>
   <trkpt lat="-3.0831930" lon="37.3671090">
    <ele>5413.6</ele>
    <time>2026-06-23T01:59:19Z</time>
   </trkpt>
   <trkpt lat="-3.0831930" lon="37.3671080">
    <ele>5413.6</ele>
    <time>2026-06-23T01:59:20Z</time>
   </trkpt>
   <trkpt lat="-3.0831940" lon="37.3671050">
    <ele>5413.7</ele>
    <time>2026-06-23T01:59:21Z</time>
   </trkpt>
   <trkpt lat="-3.0831960" lon="37.3671020">
    <ele>5413.8</ele>
    <time>2026-06-23T01:59:22Z</time>
   </trkpt>
   <trkpt lat="-3.0831980" lon="37.3671000">
    <ele>5413.8</ele>
    <time>2026-06-23T01:59:23Z</time>
   </trkpt>
   <trkpt lat="-3.0831980" lon="37.3670980">
    <ele>5413.9</ele>
    <time>2026-06-23T01:59:24Z</time>
   </trkpt>
   <trkpt lat="-3.0831990" lon="37.3670970">
    <ele>5413.9</ele>
    <time>2026-06-23T01:59:25Z</time>
   </trkpt>
   <trkpt lat="-3.0831990" lon="37.3670940">
    <ele>5414.0</ele>
    <time>2026-06-23T01:59:26Z</time>
   </trkpt>
   <trkpt lat="-3.0831990" lon="37.3670930">
    <ele>5414.0</ele>
    <time>2026-06-23T01:59:27Z</time>
   </trkpt>
   <trkpt lat="-3.0832010" lon="37.3670910">
    <ele>5414.1</ele>
    <time>2026-06-23T01:59:28Z</time>
   </trkpt>
   <trkpt lat="-3.0832010" lon="37.3670900">
    <ele>5414.1</ele>
    <time>2026-06-23T01:59:29Z</time>
   </trkpt>
   <trkpt lat="-3.0832010" lon="37.3670890">
    <ele>5414.1</ele>
    <time>2026-06-23T01:59:30Z</time>
   </trkpt>
   <trkpt lat="-3.0831990" lon="37.3670870">
    <ele>5414.2</ele>
    <time>2026-06-23T01:59:31Z</time>
   </trkpt>
   <trkpt lat="-3.0832010" lon="37.3670850">
    <ele>5414.2</ele>
    <time>2026-06-23T01:59:32Z</time>
   </trkpt>
   <trkpt lat="-3.0832000" lon="37.3670830">
    <ele>5414.3</ele>
    <time>2026-06-23T01:59:33Z</time>
   </trkpt>
   <trkpt lat="-3.0832010" lon="37.3670850">
    <ele>5414.3</ele>
    <time>2026-06-23T01:59:34Z</time>
   </trkpt>
   <trkpt lat="-3.0832020" lon="37.3670830">
    <ele>5414.4</ele>
    <time>2026-06-23T01:59:36Z</time>
   </trkpt>
   <trkpt lat="-3.0832020" lon="37.3670820">
    <ele>5414.4</ele>
    <time>2026-06-23T01:59:37Z</time>
   </trkpt>
   <trkpt lat="-3.0831980" lon="37.3670930">
    <ele>5414.7</ele>
    <time>2026-06-23T01:59:38Z</time>
   </trkpt>
   <trkpt lat="-3.0832050" lon="37.3670850">
    <ele>5414.9</ele>
    <time>2026-06-23T01:59:39Z</time>
   </trkpt>
   <trkpt lat="-3.0832040" lon="37.3670830">
    <ele>5415.0</ele>
    <time>2026-06-23T01:59:40Z</time>
   </trkpt>
   <trkpt lat="-3.0832050" lon="37.3670780">
    <ele>5415.1</ele>
    <time>2026-06-23T01:59:41Z</time>
   </trkpt>
   <trkpt lat="-3.0832080" lon="37.3670770">
    <ele>5415.2</ele>
    <time>2026-06-23T01:59:42Z</time>
   </trkpt>
   <trkpt lat="-3.0832110" lon="37.3670800">
    <ele>5415.3</ele>
    <time>2026-06-23T01:59:43Z</time>
   </trkpt>
   <trkpt lat="-3.0832100" lon="37.3670730">
    <ele>5415.4</ele>
    <time>2026-06-23T01:59:44Z</time>
   </trkpt>
   <trkpt lat="-3.0832110" lon="37.3670720">
    <ele>5415.5</ele>
    <time>2026-06-23T01:59:45Z</time>
   </trkpt>
   <trkpt lat="-3.0832110" lon="37.3670720">
    <ele>5415.5</ele>
    <time>2026-06-23T01:59:46Z</time>
   </trkpt>
   <trkpt lat="-3.0832120" lon="37.3670660">
    <ele>5415.6</ele>
    <time>2026-06-23T01:59:47Z</time>
   </trkpt>
   <trkpt lat="-3.0832130" lon="37.3670650">
    <ele>5415.7</ele>
    <time>2026-06-23T01:59:48Z</time>
   </trkpt>
   <trkpt lat="-3.0832130" lon="37.3670640">
    <ele>5415.7</ele>
    <time>2026-06-23T01:59:49Z</time>
   </trkpt>
   <trkpt lat="-3.0832150" lon="37.3670630">
    <ele>5415.7</ele>
    <time>2026-06-23T01:59:50Z</time>
   </trkpt>
   <trkpt lat="-3.0832170" lon="37.3670620">
    <ele>5415.8</ele>
    <time>2026-06-23T01:59:51Z</time>
   </trkpt>
   <trkpt lat="-3.0832160" lon="37.3670600">
    <ele>5415.8</ele>
    <time>2026-06-23T01:59:52Z</time>
   </trkpt>
   <trkpt lat="-3.0832160" lon="37.3670590">
    <ele>5415.9</ele>
    <time>2026-06-23T01:59:53Z</time>
   </trkpt>
   <trkpt lat="-3.0832150" lon="37.3670570">
    <ele>5415.9</ele>
    <time>2026-06-23T01:59:54Z</time>
   </trkpt>
   <trkpt lat="-3.0832160" lon="37.3670550">
    <ele>5416.0</ele>
    <time>2026-06-23T01:59:55Z</time>
   </trkpt>
   <trkpt lat="-3.0832150" lon="37.3670530">
    <ele>5416.0</ele>
    <time>2026-06-23T01:59:56Z</time>
   </trkpt>
   <trkpt lat="-3.0832150" lon="37.3670520">
    <ele>5416.0</ele>
    <time>2026-06-23T01:59:57Z</time>
   </trkpt>
   <trkpt lat="-3.0832170" lon="37.3670500">
    <ele>5416.1</ele>
    <time>2026-06-23T01:59:58Z</time>
   </trkpt>
   <trkpt lat="-3.0832170" lon="37.3670480">
    <ele>5416.1</ele>
    <time>2026-06-23T01:59:59Z</time>
   </trkpt>
   <trkpt lat="-3.0832180" lon="37.3670470">
    <ele>5416.2</ele>
    <time>2026-06-23T02:00:00Z</time>
   </trkpt>
   <trkpt lat="-3.0832180" lon="37.3670440">
    <ele>5416.2</ele>
    <time>2026-06-23T02:00:01Z</time>
   </trkpt>
   <trkpt lat="-3.0832180" lon="37.3670430">
    <ele>5416.3</ele>
    <time>2026-06-23T02:00:02Z</time>
   </trkpt>
   <trkpt lat="-3.0832190" lon="37.3670410">
    <ele>5416.3</ele>
    <time>2026-06-23T02:00:03Z</time>
   </trkpt>
   <trkpt lat="-3.0832180" lon="37.3670400">
    <ele>5416.4</ele>
    <time>2026-06-23T02:00:04Z</time>
   </trkpt>
   <trkpt lat="-3.0832180" lon="37.3670400">
    <ele>5416.4</ele>
    <time>2026-06-23T02:00:05Z</time>
   </trkpt>
   <trkpt lat="-3.0832190" lon="37.3670390">
    <ele>5416.4</ele>
    <time>2026-06-23T02:00:06Z</time>
   </trkpt>
   <trkpt lat="-3.0832180" lon="37.3670380">
    <ele>5416.4</ele>
    <time>2026-06-23T02:00:07Z</time>
   </trkpt>
   <trkpt lat="-3.0832180" lon="37.3670370">
    <ele>5416.4</ele>
    <time>2026-06-23T02:00:08Z</time>
   </trkpt>
   <trkpt lat="-3.0832200" lon="37.3670340">
    <ele>5416.5</ele>
    <time>2026-06-23T02:00:09Z</time>
   </trkpt>
   <trkpt lat="-3.0832200" lon="37.3670330">
    <ele>5416.6</ele>
    <time>2026-06-23T02:00:10Z</time>
   </trkpt>
   <trkpt lat="-3.0832200" lon="37.3670310">
    <ele>5416.6</ele>
    <time>2026-06-23T02:00:11Z</time>
   </trkpt>
   <trkpt lat="-3.0832200" lon="37.3670280">
    <ele>5416.7</ele>
    <time>2026-06-23T02:00:12Z</time>
   </trkpt>
   <trkpt lat="-3.0832210" lon="37.3670270">
    <ele>5416.7</ele>
    <time>2026-06-23T02:00:13Z</time>
   </trkpt>
   <trkpt lat="-3.0832200" lon="37.3670240">
    <ele>5416.8</ele>
    <time>2026-06-23T02:00:14Z</time>
   </trkpt>
   <trkpt lat="-3.0832200" lon="37.3670230">
    <ele>5416.8</ele>
    <time>2026-06-23T02:00:15Z</time>
   </trkpt>
   <trkpt lat="-3.0832180" lon="37.3670210">
    <ele>5416.9</ele>
    <time>2026-06-23T02:00:16Z</time>
   </trkpt>
   <trkpt lat="-3.0832160" lon="37.3670200">
    <ele>5416.9</ele>
    <time>2026-06-23T02:00:17Z</time>
   </trkpt>
   <trkpt lat="-3.0832150" lon="37.3670200">
    <ele>5416.9</ele>
    <time>2026-06-23T02:00:18Z</time>
   </trkpt>
   <trkpt lat="-3.0832120" lon="37.3670190">
    <ele>5417.0</ele>
    <time>2026-06-23T02:00:19Z</time>
   </trkpt>
   <trkpt lat="-3.0832090" lon="37.3670180">
    <ele>5417.1</ele>
    <time>2026-06-23T02:00:20Z</time>
   </trkpt>
   <trkpt lat="-3.0832070" lon="37.3670180">
    <ele>5417.1</ele>
    <time>2026-06-23T02:00:21Z</time>
   </trkpt>
   <trkpt lat="-3.0832050" lon="37.3670180">
    <ele>5417.2</ele>
    <time>2026-06-23T02:00:22Z</time>
   </trkpt>
   <trkpt lat="-3.0832040" lon="37.3670180">
    <ele>5417.2</ele>
    <time>2026-06-23T02:00:23Z</time>
   </trkpt>
   <trkpt lat="-3.0832030" lon="37.3670180">
    <ele>5417.2</ele>
    <time>2026-06-23T02:00:24Z</time>
   </trkpt>
   <trkpt lat="-3.0832010" lon="37.3670180">
    <ele>5417.3</ele>
    <time>2026-06-23T02:00:25Z</time>
   </trkpt>
   <trkpt lat="-3.0832000" lon="37.3670190">
    <ele>5417.3</ele>
    <time>2026-06-23T02:00:26Z</time>
   </trkpt>
   <trkpt lat="-3.0831990" lon="37.3670190">
    <ele>5417.3</ele>
    <time>2026-06-23T02:00:27Z</time>
   </trkpt>
   <trkpt lat="-3.0831980" lon="37.3670190">
    <ele>5417.4</ele>
    <time>2026-06-23T02:00:28Z</time>
   </trkpt>
   <trkpt lat="-3.0831980" lon="37.3670190">
    <ele>5417.4</ele>
    <time>2026-06-23T02:00:29Z</time>
   </trkpt>
   <trkpt lat="-3.0831960" lon="37.3670180">
    <ele>5417.4</ele>
    <time>2026-06-23T02:00:30Z</time>
   </trkpt>
   <trkpt lat="-3.0831930" lon="37.3670170">
    <ele>5417.5</ele>
    <time>2026-06-23T02:00:31Z</time>
   </trkpt>
   <trkpt lat="-3.0831900" lon="37.3670170">
    <ele>5417.6</ele>
    <time>2026-06-23T02:00:32Z</time>
   </trkpt>
   <trkpt lat="-3.0831880" lon="37.3670170">
    <ele>5417.6</ele>
    <time>2026-06-23T02:00:33Z</time>
   </trkpt>
   <trkpt lat="-3.0831860" lon="37.3670160">
    <ele>5417.7</ele>
    <time>2026-06-23T02:00:34Z</time>
   </trkpt>
   <trkpt lat="-3.0831840" lon="37.3670170">
    <ele>5417.7</ele>
    <time>2026-06-23T02:00:35Z</time>
   </trkpt>
   <trkpt lat="-3.0831810" lon="37.3670150">
    <ele>5417.8</ele>
    <time>2026-06-23T02:00:36Z</time>
   </trkpt>
   <trkpt lat="-3.0831810" lon="37.3670160">
    <ele>5417.8</ele>
    <time>2026-06-23T02:00:37Z</time>
   </trkpt>
   <trkpt lat="-3.0831790" lon="37.3670160">
    <ele>5417.9</ele>
    <time>2026-06-23T02:00:38Z</time>
   </trkpt>
   <trkpt lat="-3.0831780" lon="37.3670160">
    <ele>5417.9</ele>
    <time>2026-06-23T02:00:39Z</time>
   </trkpt>
   <trkpt lat="-3.0831750" lon="37.3670150">
    <ele>5418.0</ele>
    <time>2026-06-23T02:00:40Z</time>
   </trkpt>
   <trkpt lat="-3.0831740" lon="37.3670150">
    <ele>5418.0</ele>
    <time>2026-06-23T02:00:41Z</time>
   </trkpt>
   <trkpt lat="-3.0831730" lon="37.3670120">
    <ele>5418.1</ele>
    <time>2026-06-23T02:00:42Z</time>
   </trkpt>
   <trkpt lat="-3.0831730" lon="37.3670130">
    <ele>5418.1</ele>
    <time>2026-06-23T02:00:43Z</time>
   </trkpt>
   <trkpt lat="-3.0831720" lon="37.3670120">
    <ele>5418.1</ele>
    <time>2026-06-23T02:00:44Z</time>
   </trkpt>
   <trkpt lat="-3.0831720" lon="37.3670110">
    <ele>5418.2</ele>
    <time>2026-06-23T02:00:45Z</time>
   </trkpt>
   <trkpt lat="-3.0831710" lon="37.3670100">
    <ele>5418.2</ele>
    <time>2026-06-23T02:00:46Z</time>
   </trkpt>
   <trkpt lat="-3.0831710" lon="37.3670090">
    <ele>5418.2</ele>
    <time>2026-06-23T02:00:47Z</time>
   </trkpt>
   <trkpt lat="-3.0831740" lon="37.3670070">
    <ele>5418.3</ele>
    <time>2026-06-23T02:00:48Z</time>
   </trkpt>
   <trkpt lat="-3.0831730" lon="37.3670040">
    <ele>5418.4</ele>
    <time>2026-06-23T02:00:49Z</time>
   </trkpt>
   <trkpt lat="-3.0831740" lon="37.3670030">
    <ele>5418.4</ele>
    <time>2026-06-23T02:00:50Z</time>
   </trkpt>
   <trkpt lat="-3.0831750" lon="37.3670010">
    <ele>5418.5</ele>
    <time>2026-06-23T02:00:51Z</time>
   </trkpt>
   <trkpt lat="-3.0831760" lon="37.3670000">
    <ele>5418.5</ele>
    <time>2026-06-23T02:00:52Z</time>
   </trkpt>
   <trkpt lat="-3.0831770" lon="37.3669990">
    <ele>5418.5</ele>
    <time>2026-06-23T02:00:53Z</time>
   </trkpt>
   <trkpt lat="-3.0831780" lon="37.3669960">
    <ele>5418.6</ele>
    <time>2026-06-23T02:00:54Z</time>
   </trkpt>
   <trkpt lat="-3.0831790" lon="37.3669960">
    <ele>5418.6</ele>
    <time>2026-06-23T02:00:55Z</time>
   </trkpt>
   <trkpt lat="-3.0831810" lon="37.3669930">
    <ele>5418.7</ele>
    <time>2026-06-23T02:00:56Z</time>
   </trkpt>
   <trkpt lat="-3.0831820" lon="37.3669910">
    <ele>5418.8</ele>
    <time>2026-06-23T02:00:57Z</time>
   </trkpt>
   <trkpt lat="-3.0831820" lon="37.3669900">
    <ele>5418.8</ele>
    <time>2026-06-23T02:00:58Z</time>
   </trkpt>
   <trkpt lat="-3.0831830" lon="37.3669870">
    <ele>5418.9</ele>
    <time>2026-06-23T02:00:59Z</time>
   </trkpt>
   <trkpt lat="-3.0831800" lon="37.3669860">
    <ele>5419.0</ele>
    <time>2026-06-23T02:01:00Z</time>
   </trkpt>
   <trkpt lat="-3.0831800" lon="37.3669850">
    <ele>5419.0</ele>
    <time>2026-06-23T02:01:01Z</time>
   </trkpt>
   <trkpt lat="-3.0831810" lon="37.3669850">
    <ele>5419.0</ele>
    <time>2026-06-23T02:01:02Z</time>
   </trkpt>
   <trkpt lat="-3.0831830" lon="37.3669830">
    <ele>5419.1</ele>
    <time>2026-06-23T02:01:03Z</time>
   </trkpt>
   <trkpt lat="-3.0831830" lon="37.3669810">
    <ele>5419.1</ele>
    <time>2026-06-23T02:01:04Z</time>
   </trkpt>
   <trkpt lat="-3.0831830" lon="37.3669810">
    <ele>5419.1</ele>
    <time>2026-06-23T02:01:05Z</time>
   </trkpt>
   <trkpt lat="-3.0831840" lon="37.3669790">
    <ele>5419.2</ele>
    <time>2026-06-23T02:01:06Z</time>
   </trkpt>
   <trkpt lat="-3.0831850" lon="37.3669770">
    <ele>5419.2</ele>
    <time>2026-06-23T02:01:07Z</time>
   </trkpt>
   <trkpt lat="-3.0831860" lon="37.3669760">
    <ele>5419.3</ele>
    <time>2026-06-23T02:01:08Z</time>
   </trkpt>
   <trkpt lat="-3.0831860" lon="37.3669760">
    <ele>5419.3</ele>
    <time>2026-06-23T02:01:09Z</time>
   </trkpt>
   <trkpt lat="-3.0831860" lon="37.3669740">
    <ele>5419.3</ele>
    <time>2026-06-23T02:01:10Z</time>
   </trkpt>
   <trkpt lat="-3.0831870" lon="37.3669740">
    <ele>5419.3</ele>
    <time>2026-06-23T02:01:11Z</time>
   </trkpt>
   <trkpt lat="-3.0831860" lon="37.3669720">
    <ele>5419.4</ele>
    <time>2026-06-23T02:01:12Z</time>
   </trkpt>
   <trkpt lat="-3.0831880" lon="37.3669710">
    <ele>5419.4</ele>
    <time>2026-06-23T02:01:13Z</time>
   </trkpt>
   <trkpt lat="-3.0831870" lon="37.3669670">
    <ele>5419.5</ele>
    <time>2026-06-23T02:01:14Z</time>
   </trkpt>
   <trkpt lat="-3.0831870" lon="37.3669640">
    <ele>5419.6</ele>
    <time>2026-06-23T02:01:15Z</time>
   </trkpt>
   <trkpt lat="-3.0831850" lon="37.3669640">
    <ele>5419.7</ele>
    <time>2026-06-23T02:01:16Z</time>
   </trkpt>
   <trkpt lat="-3.0831810" lon="37.3669620">
    <ele>5419.8</ele>
    <time>2026-06-23T02:01:17Z</time>
   </trkpt>
   <trkpt lat="-3.0831780" lon="37.3669600">
    <ele>5419.9</ele>
    <time>2026-06-23T02:01:18Z</time>
   </trkpt>
   <trkpt lat="-3.0831760" lon="37.3669590">
    <ele>5419.9</ele>
    <time>2026-06-23T02:01:19Z</time>
   </trkpt>
   <trkpt lat="-3.0831730" lon="37.3669600">
    <ele>5420.0</ele>
    <time>2026-06-23T02:01:20Z</time>
   </trkpt>
   <trkpt lat="-3.0831720" lon="37.3669590">
    <ele>5420.0</ele>
    <time>2026-06-23T02:01:21Z</time>
   </trkpt>
   <trkpt lat="-3.0831710" lon="37.3669580">
    <ele>5420.0</ele>
    <time>2026-06-23T02:01:22Z</time>
   </trkpt>
   <trkpt lat="-3.0831690" lon="37.3669570">
    <ele>5420.1</ele>
    <time>2026-06-23T02:01:23Z</time>
   </trkpt>
   <trkpt lat="-3.0831690" lon="37.3669580">
    <ele>5420.1</ele>
    <time>2026-06-23T02:01:24Z</time>
   </trkpt>
   <trkpt lat="-3.0831660" lon="37.3669570">
    <ele>5420.2</ele>
    <time>2026-06-23T02:01:25Z</time>
   </trkpt>
   <trkpt lat="-3.0831640" lon="37.3669570">
    <ele>5420.2</ele>
    <time>2026-06-23T02:01:26Z</time>
   </trkpt>
   <trkpt lat="-3.0831610" lon="37.3669560">
    <ele>5420.3</ele>
    <time>2026-06-23T02:01:27Z</time>
   </trkpt>
   <trkpt lat="-3.0831610" lon="37.3669560">
    <ele>5420.3</ele>
    <time>2026-06-23T02:01:28Z</time>
   </trkpt>
   <trkpt lat="-3.0831610" lon="37.3669550">
    <ele>5420.3</ele>
    <time>2026-06-23T02:01:29Z</time>
   </trkpt>
   <trkpt lat="-3.0831590" lon="37.3669540">
    <ele>5420.4</ele>
    <time>2026-06-23T02:01:30Z</time>
   </trkpt>
   <trkpt lat="-3.0831560" lon="37.3669520">
    <ele>5420.5</ele>
    <time>2026-06-23T02:01:31Z</time>
   </trkpt>
   <trkpt lat="-3.0831560" lon="37.3669530">
    <ele>5420.5</ele>
    <time>2026-06-23T02:01:32Z</time>
   </trkpt>
   <trkpt lat="-3.0831530" lon="37.3669530">
    <ele>5420.6</ele>
    <time>2026-06-23T02:01:33Z</time>
   </trkpt>
   <trkpt lat="-3.0831510" lon="37.3669520">
    <ele>5420.6</ele>
    <time>2026-06-23T02:01:34Z</time>
   </trkpt>
   <trkpt lat="-3.0831480" lon="37.3669520">
    <ele>5420.7</ele>
    <time>2026-06-23T02:01:35Z</time>
   </trkpt>
   <trkpt lat="-3.0831460" lon="37.3669500">
    <ele>5420.8</ele>
    <time>2026-06-23T02:01:36Z</time>
   </trkpt>
   <trkpt lat="-3.0831460" lon="37.3669500">
    <ele>5420.8</ele>
    <time>2026-06-23T02:01:37Z</time>
   </trkpt>
   <trkpt lat="-3.0831430" lon="37.3669500">
    <ele>5420.8</ele>
    <time>2026-06-23T02:01:38Z</time>
   </trkpt>
   <trkpt lat="-3.0831420" lon="37.3669500">
    <ele>5420.9</ele>
    <time>2026-06-23T02:01:39Z</time>
   </trkpt>
   <trkpt lat="-3.0831400" lon="37.3669500">
    <ele>5420.9</ele>
    <time>2026-06-23T02:01:40Z</time>
   </trkpt>
   <trkpt lat="-3.0831370" lon="37.3669490">
    <ele>5421.0</ele>
    <time>2026-06-23T02:01:42Z</time>
   </trkpt>
   <trkpt lat="-3.0831360" lon="37.3669500">
    <ele>5421.0</ele>
    <time>2026-06-23T02:01:43Z</time>
   </trkpt>
   <trkpt lat="-3.0831330" lon="37.3669510">
    <ele>5421.1</ele>
    <time>2026-06-23T02:01:44Z</time>
   </trkpt>
   <trkpt lat="-3.0831320" lon="37.3669530">
    <ele>5421.2</ele>
    <time>2026-06-23T02:01:45Z</time>
   </trkpt>
   <trkpt lat="-3.0831310" lon="37.3669530">
    <ele>5421.2</ele>
    <time>2026-06-23T02:01:46Z</time>
   </trkpt>
   <trkpt lat="-3.0831300" lon="37.3669540">
    <ele>5421.2</ele>
    <time>2026-06-23T02:01:47Z</time>
   </trkpt>
   <trkpt lat="-3.0831310" lon="37.3669550">
    <ele>5421.2</ele>
    <time>2026-06-23T02:01:48Z</time>
   </trkpt>
   <trkpt lat="-3.0831300" lon="37.3669540">
    <ele>5421.3</ele>
    <time>2026-06-23T02:01:49Z</time>
   </trkpt>
   <trkpt lat="-3.0831270" lon="37.3669540">
    <ele>5421.4</ele>
    <time>2026-06-23T02:01:50Z</time>
   </trkpt>
   <trkpt lat="-3.0831270" lon="37.3669530">
    <ele>5421.4</ele>
    <time>2026-06-23T02:01:51Z</time>
   </trkpt>
   <trkpt lat="-3.0831270" lon="37.3669530">
    <ele>5421.4</ele>
    <time>2026-06-23T02:01:52Z</time>
   </trkpt>
   <trkpt lat="-3.0831250" lon="37.3669540">
    <ele>5421.4</ele>
    <time>2026-06-23T02:01:53Z</time>
   </trkpt>
   <trkpt lat="-3.0831220" lon="37.3669530">
    <ele>5421.5</ele>
    <time>2026-06-23T02:01:54Z</time>
   </trkpt>
   <trkpt lat="-3.0831200" lon="37.3669540">
    <ele>5421.6</ele>
    <time>2026-06-23T02:01:55Z</time>
   </trkpt>
   <trkpt lat="-3.0831180" lon="37.3669530">
    <ele>5421.6</ele>
    <time>2026-06-23T02:01:56Z</time>
   </trkpt>
   <trkpt lat="-3.0831160" lon="37.3669540">
    <ele>5421.7</ele>
    <time>2026-06-23T02:01:57Z</time>
   </trkpt>
   <trkpt lat="-3.0831150" lon="37.3669540">
    <ele>5421.7</ele>
    <time>2026-06-23T02:01:58Z</time>
   </trkpt>
   <trkpt lat="-3.0831140" lon="37.3669540">
    <ele>5421.7</ele>
    <time>2026-06-23T02:01:59Z</time>
   </trkpt>
   <trkpt lat="-3.0831100" lon="37.3669540">
    <ele>5421.8</ele>
    <time>2026-06-23T02:02:00Z</time>
   </trkpt>
   <trkpt lat="-3.0831090" lon="37.3669540">
    <ele>5421.8</ele>
    <time>2026-06-23T02:02:01Z</time>
   </trkpt>
   <trkpt lat="-3.0831070" lon="37.3669550">
    <ele>5421.9</ele>
    <time>2026-06-23T02:02:02Z</time>
   </trkpt>
   <trkpt lat="-3.0831050" lon="37.3669550">
    <ele>5421.9</ele>
    <time>2026-06-23T02:02:03Z</time>
   </trkpt>
   <trkpt lat="-3.0831020" lon="37.3669580">
    <ele>5422.0</ele>
    <time>2026-06-23T02:02:04Z</time>
   </trkpt>
   <trkpt lat="-3.0830980" lon="37.3669570">
    <ele>5422.1</ele>
    <time>2026-06-23T02:02:05Z</time>
   </trkpt>
   <trkpt lat="-3.0830980" lon="37.3669590">
    <ele>5422.2</ele>
    <time>2026-06-23T02:02:06Z</time>
   </trkpt>
   <trkpt lat="-3.0830970" lon="37.3669600">
    <ele>5422.2</ele>
    <time>2026-06-23T02:02:07Z</time>
   </trkpt>
   <trkpt lat="-3.0830930" lon="37.3669600">
    <ele>5422.3</ele>
    <time>2026-06-23T02:02:08Z</time>
   </trkpt>
   <trkpt lat="-3.0830920" lon="37.3669620">
    <ele>5422.4</ele>
    <time>2026-06-23T02:02:09Z</time>
   </trkpt>
   <trkpt lat="-3.0830890" lon="37.3669640">
    <ele>5422.5</ele>
    <time>2026-06-23T02:02:10Z</time>
   </trkpt>
   <trkpt lat="-3.0830880" lon="37.3669650">
    <ele>5422.5</ele>
    <time>2026-06-23T02:02:11Z</time>
   </trkpt>
   <trkpt lat="-3.0830870" lon="37.3669660">
    <ele>5422.5</ele>
    <time>2026-06-23T02:02:12Z</time>
   </trkpt>
   <trkpt lat="-3.0830840" lon="37.3669670">
    <ele>5422.6</ele>
    <time>2026-06-23T02:02:13Z</time>
   </trkpt>
   <trkpt lat="-3.0830800" lon="37.3669680">
    <ele>5422.7</ele>
    <time>2026-06-23T02:02:14Z</time>
   </trkpt>
   <trkpt lat="-3.0830820" lon="37.3669670">
    <ele>5422.7</ele>
    <time>2026-06-23T02:02:15Z</time>
   </trkpt>
   <trkpt lat="-3.0830820" lon="37.3669670">
    <ele>5422.7</ele>
    <time>2026-06-23T02:02:16Z</time>
   </trkpt>
   <trkpt lat="-3.0830790" lon="37.3669650">
    <ele>5422.8</ele>
    <time>2026-06-23T02:02:17Z</time>
   </trkpt>
   <trkpt lat="-3.0830770" lon="37.3669640">
    <ele>5422.9</ele>
    <time>2026-06-23T02:02:18Z</time>
   </trkpt>
   <trkpt lat="-3.0830780" lon="37.3669610">
    <ele>5423.0</ele>
    <time>2026-06-23T02:02:19Z</time>
   </trkpt>
   <trkpt lat="-3.0830770" lon="37.3669600">
    <ele>5423.0</ele>
    <time>2026-06-23T02:02:20Z</time>
   </trkpt>
   <trkpt lat="-3.0830780" lon="37.3669570">
    <ele>5423.1</ele>
    <time>2026-06-23T02:02:21Z</time>
   </trkpt>
   <trkpt lat="-3.0830790" lon="37.3669560">
    <ele>5423.1</ele>
    <time>2026-06-23T02:02:22Z</time>
   </trkpt>
   <trkpt lat="-3.0830780" lon="37.3669540">
    <ele>5423.2</ele>
    <time>2026-06-23T02:02:23Z</time>
   </trkpt>
   <trkpt lat="-3.0830780" lon="37.3669520">
    <ele>5423.2</ele>
    <time>2026-06-23T02:02:24Z</time>
   </trkpt>
   <trkpt lat="-3.0830760" lon="37.3669510">
    <ele>5423.3</ele>
    <time>2026-06-23T02:02:25Z</time>
   </trkpt>
   <trkpt lat="-3.0830770" lon="37.3669500">
    <ele>5423.3</ele>
    <time>2026-06-23T02:02:26Z</time>
   </trkpt>
   <trkpt lat="-3.0830750" lon="37.3669480">
    <ele>5423.4</ele>
    <time>2026-06-23T02:02:27Z</time>
   </trkpt>
   <trkpt lat="-3.0830760" lon="37.3669480">
    <ele>5423.4</ele>
    <time>2026-06-23T02:02:28Z</time>
   </trkpt>
   <trkpt lat="-3.0830760" lon="37.3669460">
    <ele>5423.4</ele>
    <time>2026-06-23T02:02:29Z</time>
   </trkpt>
   <trkpt lat="-3.0830770" lon="37.3669450">
    <ele>5423.5</ele>
    <time>2026-06-23T02:02:30Z</time>
   </trkpt>
   <trkpt lat="-3.0830760" lon="37.3669430">
    <ele>5423.5</ele>
    <time>2026-06-23T02:02:31Z</time>
   </trkpt>
   <trkpt lat="-3.0830780" lon="37.3669410">
    <ele>5423.6</ele>
    <time>2026-06-23T02:02:32Z</time>
   </trkpt>
   <trkpt lat="-3.0830760" lon="37.3669400">
    <ele>5423.6</ele>
    <time>2026-06-23T02:02:33Z</time>
   </trkpt>
   <trkpt lat="-3.0830780" lon="37.3669380">
    <ele>5423.7</ele>
    <time>2026-06-23T02:02:34Z</time>
   </trkpt>
   <trkpt lat="-3.0830770" lon="37.3669350">
    <ele>5423.8</ele>
    <time>2026-06-23T02:02:35Z</time>
   </trkpt>
   <trkpt lat="-3.0830770" lon="37.3669350">
    <ele>5423.8</ele>
    <time>2026-06-23T02:02:36Z</time>
   </trkpt>
   <trkpt lat="-3.0830770" lon="37.3669340">
    <ele>5423.8</ele>
    <time>2026-06-23T02:02:37Z</time>
   </trkpt>
   <trkpt lat="-3.0830760" lon="37.3669320">
    <ele>5423.9</ele>
    <time>2026-06-23T02:02:38Z</time>
   </trkpt>
   <trkpt lat="-3.0830760" lon="37.3669300">
    <ele>5423.9</ele>
    <time>2026-06-23T02:02:39Z</time>
   </trkpt>
   <trkpt lat="-3.0830780" lon="37.3669280">
    <ele>5424.0</ele>
    <time>2026-06-23T02:02:40Z</time>
   </trkpt>
   <trkpt lat="-3.0830760" lon="37.3669250">
    <ele>5424.1</ele>
    <time>2026-06-23T02:02:41Z</time>
   </trkpt>
   <trkpt lat="-3.0830760" lon="37.3669250">
    <ele>5424.1</ele>
    <time>2026-06-23T02:02:42Z</time>
   </trkpt>
   <trkpt lat="-3.0830720" lon="37.3669240">
    <ele>5424.2</ele>
    <time>2026-06-23T02:02:43Z</time>
   </trkpt>
   <trkpt lat="-3.0830700" lon="37.3669190">
    <ele>5424.3</ele>
    <time>2026-06-23T02:02:44Z</time>
   </trkpt>
   <trkpt lat="-3.0830740" lon="37.3669160">
    <ele>5424.4</ele>
    <time>2026-06-23T02:02:45Z</time>
   </trkpt>
   <trkpt lat="-3.0830720" lon="37.3669150">
    <ele>5424.5</ele>
    <time>2026-06-23T02:02:46Z</time>
   </trkpt>
   <trkpt lat="-3.0830710" lon="37.3669150">
    <ele>5424.5</ele>
    <time>2026-06-23T02:02:47Z</time>
   </trkpt>
   <trkpt lat="-3.0830700" lon="37.3669110">
    <ele>5424.6</ele>
    <time>2026-06-23T02:02:48Z</time>
   </trkpt>
   <trkpt lat="-3.0830680" lon="37.3669080">
    <ele>5424.7</ele>
    <time>2026-06-23T02:02:49Z</time>
   </trkpt>
   <trkpt lat="-3.0830690" lon="37.3669100">
    <ele>5424.7</ele>
    <time>2026-06-23T02:02:50Z</time>
   </trkpt>
   <trkpt lat="-3.0830670" lon="37.3669090">
    <ele>5424.8</ele>
    <time>2026-06-23T02:02:51Z</time>
   </trkpt>
   <trkpt lat="-3.0830660" lon="37.3669080">
    <ele>5424.8</ele>
    <time>2026-06-23T02:02:52Z</time>
   </trkpt>
   <trkpt lat="-3.0830650" lon="37.3669070">
    <ele>5424.8</ele>
    <time>2026-06-23T02:02:53Z</time>
   </trkpt>
   <trkpt lat="-3.0830650" lon="37.3669050">
    <ele>5424.9</ele>
    <time>2026-06-23T02:02:54Z</time>
   </trkpt>
   <trkpt lat="-3.0830650" lon="37.3669030">
    <ele>5424.9</ele>
    <time>2026-06-23T02:02:55Z</time>
   </trkpt>
   <trkpt lat="-3.0830640" lon="37.3668990">
    <ele>5425.0</ele>
    <time>2026-06-23T02:02:56Z</time>
   </trkpt>
   <trkpt lat="-3.0830640" lon="37.3668970">
    <ele>5425.1</ele>
    <time>2026-06-23T02:02:57Z</time>
   </trkpt>
   <trkpt lat="-3.0830650" lon="37.3668960">
    <ele>5425.1</ele>
    <time>2026-06-23T02:02:58Z</time>
   </trkpt>
   <trkpt lat="-3.0830650" lon="37.3668940">
    <ele>5425.2</ele>
    <time>2026-06-23T02:02:59Z</time>
   </trkpt>
   <trkpt lat="-3.0830660" lon="37.3668920">
    <ele>5425.2</ele>
    <time>2026-06-23T02:03:00Z</time>
   </trkpt>
   <trkpt lat="-3.0830670" lon="37.3668920">
    <ele>5425.3</ele>
    <time>2026-06-23T02:03:01Z</time>
   </trkpt>
   <trkpt lat="-3.0830670" lon="37.3668920">
    <ele>5425.3</ele>
    <time>2026-06-23T02:03:02Z</time>
   </trkpt>
   <trkpt lat="-3.0830700" lon="37.3668900">
    <ele>5425.3</ele>
    <time>2026-06-23T02:03:03Z</time>
   </trkpt>
   <trkpt lat="-3.0830720" lon="37.3668880">
    <ele>5425.4</ele>
    <time>2026-06-23T02:03:04Z</time>
   </trkpt>
   <trkpt lat="-3.0830740" lon="37.3668880">
    <ele>5425.5</ele>
    <time>2026-06-23T02:03:05Z</time>
   </trkpt>
   <trkpt lat="-3.0830730" lon="37.3668870">
    <ele>5425.5</ele>
    <time>2026-06-23T02:03:06Z</time>
   </trkpt>
   <trkpt lat="-3.0830740" lon="37.3668850">
    <ele>5425.5</ele>
    <time>2026-06-23T02:03:07Z</time>
   </trkpt>
   <trkpt lat="-3.0830740" lon="37.3668830">
    <ele>5425.6</ele>
    <time>2026-06-23T02:03:08Z</time>
   </trkpt>
   <trkpt lat="-3.0830760" lon="37.3668820">
    <ele>5425.6</ele>
    <time>2026-06-23T02:03:09Z</time>
   </trkpt>
   <trkpt lat="-3.0830760" lon="37.3668770">
    <ele>5425.8</ele>
    <time>2026-06-23T02:03:10Z</time>
   </trkpt>
   <trkpt lat="-3.0830780" lon="37.3668780">
    <ele>5425.8</ele>
    <time>2026-06-23T02:03:11Z</time>
   </trkpt>
   <trkpt lat="-3.0830780" lon="37.3668750">
    <ele>5425.9</ele>
    <time>2026-06-23T02:03:12Z</time>
   </trkpt>
   <trkpt lat="-3.0830770" lon="37.3668740">
    <ele>5425.9</ele>
    <time>2026-06-23T02:03:13Z</time>
   </trkpt>
   <trkpt lat="-3.0830780" lon="37.3668720">
    <ele>5426.0</ele>
    <time>2026-06-23T02:03:14Z</time>
   </trkpt>
   <trkpt lat="-3.0830780" lon="37.3668710">
    <ele>5426.0</ele>
    <time>2026-06-23T02:03:15Z</time>
   </trkpt>
   <trkpt lat="-3.0830790" lon="37.3668690">
    <ele>5426.0</ele>
    <time>2026-06-23T02:03:16Z</time>
   </trkpt>
   <trkpt lat="-3.0830770" lon="37.3668700">
    <ele>5426.1</ele>
    <time>2026-06-23T02:03:17Z</time>
   </trkpt>
   <trkpt lat="-3.0830750" lon="37.3668660">
    <ele>5426.2</ele>
    <time>2026-06-23T02:03:18Z</time>
   </trkpt>
   <trkpt lat="-3.0830740" lon="37.3668640">
    <ele>5426.3</ele>
    <time>2026-06-23T02:03:19Z</time>
   </trkpt>
   <trkpt lat="-3.0830720" lon="37.3668650">
    <ele>5426.3</ele>
    <time>2026-06-23T02:03:20Z</time>
   </trkpt>
   <trkpt lat="-3.0830710" lon="37.3668640">
    <ele>5426.4</ele>
    <time>2026-06-23T02:03:21Z</time>
   </trkpt>
   <trkpt lat="-3.0830690" lon="37.3668640">
    <ele>5426.4</ele>
    <time>2026-06-23T02:03:22Z</time>
   </trkpt>
   <trkpt lat="-3.0830680" lon="37.3668640">
    <ele>5426.4</ele>
    <time>2026-06-23T02:03:23Z</time>
   </trkpt>
   <trkpt lat="-3.0830680" lon="37.3668650">
    <ele>5426.4</ele>
    <time>2026-06-23T02:03:24Z</time>
   </trkpt>
   <trkpt lat="-3.0830660" lon="37.3668640">
    <ele>5426.5</ele>
    <time>2026-06-23T02:03:25Z</time>
   </trkpt>
   <trkpt lat="-3.0830640" lon="37.3668650">
    <ele>5426.6</ele>
    <time>2026-06-23T02:03:26Z</time>
   </trkpt>
   <trkpt lat="-3.0830630" lon="37.3668650">
    <ele>5426.6</ele>
    <time>2026-06-23T02:03:27Z</time>
   </trkpt>
   <trkpt lat="-3.0830620" lon="37.3668660">
    <ele>5426.6</ele>
    <time>2026-06-23T02:03:28Z</time>
   </trkpt>
   <trkpt lat="-3.0830610" lon="37.3668680">
    <ele>5426.7</ele>
    <time>2026-06-23T02:03:29Z</time>
   </trkpt>
   <trkpt lat="-3.0830590" lon="37.3668690">
    <ele>5426.7</ele>
    <time>2026-06-23T02:03:30Z</time>
   </trkpt>
   <trkpt lat="-3.0830570" lon="37.3668710">
    <ele>5426.8</ele>
    <time>2026-06-23T02:03:31Z</time>
   </trkpt>
   <trkpt lat="-3.0830560" lon="37.3668710">
    <ele>5426.8</ele>
    <time>2026-06-23T02:03:32Z</time>
   </trkpt>
   <trkpt lat="-3.0830530" lon="37.3668730">
    <ele>5426.9</ele>
    <time>2026-06-23T02:03:33Z</time>
   </trkpt>
   <trkpt lat="-3.0830500" lon="37.3668730">
    <ele>5427.0</ele>
    <time>2026-06-23T02:03:34Z</time>
   </trkpt>
   <trkpt lat="-3.0830500" lon="37.3668750">
    <ele>5427.0</ele>
    <time>2026-06-23T02:03:35Z</time>
   </trkpt>
   <trkpt lat="-3.0830480" lon="37.3668760">
    <ele>5427.1</ele>
    <time>2026-06-23T02:03:36Z</time>
   </trkpt>
   <trkpt lat="-3.0830460" lon="37.3668750">
    <ele>5427.1</ele>
    <time>2026-06-23T02:03:37Z</time>
   </trkpt>
   <trkpt lat="-3.0830440" lon="37.3668770">
    <ele>5427.2</ele>
    <time>2026-06-23T02:03:38Z</time>
   </trkpt>
   <trkpt lat="-3.0830420" lon="37.3668770">
    <ele>5427.2</ele>
    <time>2026-06-23T02:03:39Z</time>
   </trkpt>
   <trkpt lat="-3.0830400" lon="37.3668780">
    <ele>5427.3</ele>
    <time>2026-06-23T02:03:40Z</time>
   </trkpt>
   <trkpt lat="-3.0830380" lon="37.3668800">
    <ele>5427.4</ele>
    <time>2026-06-23T02:03:41Z</time>
   </trkpt>
   <trkpt lat="-3.0830370" lon="37.3668810">
    <ele>5427.4</ele>
    <time>2026-06-23T02:03:42Z</time>
   </trkpt>
   <trkpt lat="-3.0830350" lon="37.3668830">
    <ele>5427.5</ele>
    <time>2026-06-23T02:03:43Z</time>
   </trkpt>
   <trkpt lat="-3.0830330" lon="37.3668830">
    <ele>5427.5</ele>
    <time>2026-06-23T02:03:44Z</time>
   </trkpt>
   <trkpt lat="-3.0830330" lon="37.3668840">
    <ele>5427.5</ele>
    <time>2026-06-23T02:03:45Z</time>
   </trkpt>
   <trkpt lat="-3.0830300" lon="37.3668850">
    <ele>5427.6</ele>
    <time>2026-06-23T02:03:46Z</time>
   </trkpt>
   <trkpt lat="-3.0830290" lon="37.3668860">
    <ele>5427.6</ele>
    <time>2026-06-23T02:03:48Z</time>
   </trkpt>
   <trkpt lat="-3.0830260" lon="37.3668870">
    <ele>5427.7</ele>
    <time>2026-06-23T02:03:49Z</time>
   </trkpt>
   <trkpt lat="-3.0830250" lon="37.3668890">
    <ele>5427.8</ele>
    <time>2026-06-23T02:03:50Z</time>
   </trkpt>
   <trkpt lat="-3.0830220" lon="37.3668880">
    <ele>5427.8</ele>
    <time>2026-06-23T02:03:51Z</time>
   </trkpt>
   <trkpt lat="-3.0830200" lon="37.3668890">
    <ele>5427.9</ele>
    <time>2026-06-23T02:03:52Z</time>
   </trkpt>
   <trkpt lat="-3.0830180" lon="37.3668890">
    <ele>5427.9</ele>
    <time>2026-06-23T02:03:53Z</time>
   </trkpt>
   <trkpt lat="-3.0830160" lon="37.3668900">
    <ele>5428.0</ele>
    <time>2026-06-23T02:03:54Z</time>
   </trkpt>
   <trkpt lat="-3.0830160" lon="37.3668890">
    <ele>5428.0</ele>
    <time>2026-06-23T02:03:55Z</time>
   </trkpt>
   <trkpt lat="-3.0830130" lon="37.3668910">
    <ele>5428.1</ele>
    <time>2026-06-23T02:03:56Z</time>
   </trkpt>
   <trkpt lat="-3.0830120" lon="37.3668910">
    <ele>5428.1</ele>
    <time>2026-06-23T02:03:57Z</time>
   </trkpt>
   <trkpt lat="-3.0830100" lon="37.3668920">
    <ele>5428.2</ele>
    <time>2026-06-23T02:03:58Z</time>
   </trkpt>
   <trkpt lat="-3.0830090" lon="37.3668930">
    <ele>5428.2</ele>
    <time>2026-06-23T02:03:59Z</time>
   </trkpt>
   <trkpt lat="-3.0830080" lon="37.3668930">
    <ele>5428.2</ele>
    <time>2026-06-23T02:04:00Z</time>
   </trkpt>
   <trkpt lat="-3.0830080" lon="37.3668930">
    <ele>5428.2</ele>
    <time>2026-06-23T02:04:01Z</time>
   </trkpt>
   <trkpt lat="-3.0830060" lon="37.3668920">
    <ele>5428.3</ele>
    <time>2026-06-23T02:04:02Z</time>
   </trkpt>
   <trkpt lat="-3.0830070" lon="37.3668930">
    <ele>5428.3</ele>
    <time>2026-06-23T02:04:03Z</time>
   </trkpt>
   <trkpt lat="-3.0830060" lon="37.3668910">
    <ele>5428.4</ele>
    <time>2026-06-23T02:04:04Z</time>
   </trkpt>
   <trkpt lat="-3.0830060" lon="37.3668910">
    <ele>5428.4</ele>
    <time>2026-06-23T02:04:05Z</time>
   </trkpt>
   <trkpt lat="-3.0830060" lon="37.3668920">
    <ele>5428.4</ele>
    <time>2026-06-23T02:04:06Z</time>
   </trkpt>
   <trkpt lat="-3.0830060" lon="37.3668910">
    <ele>5428.4</ele>
    <time>2026-06-23T02:04:07Z</time>
   </trkpt>
   <trkpt lat="-3.0830060" lon="37.3668920">
    <ele>5428.5</ele>
    <time>2026-06-23T02:04:08Z</time>
   </trkpt>
   <trkpt lat="-3.0830060" lon="37.3668920">
    <ele>5428.5</ele>
    <time>2026-06-23T02:04:09Z</time>
   </trkpt>
   <trkpt lat="-3.0830060" lon="37.3668910">
    <ele>5428.5</ele>
    <time>2026-06-23T02:04:10Z</time>
   </trkpt>
   <trkpt lat="-3.0830010" lon="37.3668900">
    <ele>5428.6</ele>
    <time>2026-06-23T02:04:11Z</time>
   </trkpt>
   <trkpt lat="-3.0829990" lon="37.3668900">
    <ele>5428.7</ele>
    <time>2026-06-23T02:04:12Z</time>
   </trkpt>
   <trkpt lat="-3.0829980" lon="37.3668890">
    <ele>5428.7</ele>
    <time>2026-06-23T02:04:13Z</time>
   </trkpt>
   <trkpt lat="-3.0829970" lon="37.3668890">
    <ele>5428.7</ele>
    <time>2026-06-23T02:04:14Z</time>
   </trkpt>
   <trkpt lat="-3.0829950" lon="37.3668870">
    <ele>5428.8</ele>
    <time>2026-06-23T02:04:15Z</time>
   </trkpt>
   <trkpt lat="-3.0829950" lon="37.3668870">
    <ele>5428.8</ele>
    <time>2026-06-23T02:04:16Z</time>
   </trkpt>
   <trkpt lat="-3.0829930" lon="37.3668850">
    <ele>5428.8</ele>
    <time>2026-06-23T02:04:17Z</time>
   </trkpt>
   <trkpt lat="-3.0829900" lon="37.3668860">
    <ele>5428.9</ele>
    <time>2026-06-23T02:04:18Z</time>
   </trkpt>
   <trkpt lat="-3.0829890" lon="37.3668840">
    <ele>5429.0</ele>
    <time>2026-06-23T02:04:19Z</time>
   </trkpt>
   <trkpt lat="-3.0829880" lon="37.3668810">
    <ele>5429.1</ele>
    <time>2026-06-23T02:04:20Z</time>
   </trkpt>
   <trkpt lat="-3.0829860" lon="37.3668800">
    <ele>5429.1</ele>
    <time>2026-06-23T02:04:21Z</time>
   </trkpt>
   <trkpt lat="-3.0829860" lon="37.3668810">
    <ele>5429.1</ele>
    <time>2026-06-23T02:04:22Z</time>
   </trkpt>
   <trkpt lat="-3.0829810" lon="37.3668780">
    <ele>5429.3</ele>
    <time>2026-06-23T02:04:23Z</time>
   </trkpt>
   <trkpt lat="-3.0829790" lon="37.3668770">
    <ele>5429.3</ele>
    <time>2026-06-23T02:04:24Z</time>
   </trkpt>
   <trkpt lat="-3.0829780" lon="37.3668780">
    <ele>5429.4</ele>
    <time>2026-06-23T02:04:25Z</time>
   </trkpt>
   <trkpt lat="-3.0829770" lon="37.3668780">
    <ele>5429.4</ele>
    <time>2026-06-23T02:04:26Z</time>
   </trkpt>
   <trkpt lat="-3.0829740" lon="37.3668760">
    <ele>5429.5</ele>
    <time>2026-06-23T02:04:27Z</time>
   </trkpt>
   <trkpt lat="-3.0829730" lon="37.3668740">
    <ele>5429.5</ele>
    <time>2026-06-23T02:04:28Z</time>
   </trkpt>
   <trkpt lat="-3.0829730" lon="37.3668740">
    <ele>5429.5</ele>
    <time>2026-06-23T02:04:29Z</time>
   </trkpt>
   <trkpt lat="-3.0829720" lon="37.3668730">
    <ele>5429.6</ele>
    <time>2026-06-23T02:04:30Z</time>
   </trkpt>
   <trkpt lat="-3.0829690" lon="37.3668700">
    <ele>5429.7</ele>
    <time>2026-06-23T02:04:31Z</time>
   </trkpt>
   <trkpt lat="-3.0829690" lon="37.3668710">
    <ele>5429.7</ele>
    <time>2026-06-23T02:04:32Z</time>
   </trkpt>
   <trkpt lat="-3.0829680" lon="37.3668690">
    <ele>5429.7</ele>
    <time>2026-06-23T02:04:33Z</time>
   </trkpt>
   <trkpt lat="-3.0829680" lon="37.3668690">
    <ele>5429.7</ele>
    <time>2026-06-23T02:04:34Z</time>
   </trkpt>
   <trkpt lat="-3.0829670" lon="37.3668670">
    <ele>5429.8</ele>
    <time>2026-06-23T02:04:35Z</time>
   </trkpt>
   <trkpt lat="-3.0829670" lon="37.3668610">
    <ele>5429.9</ele>
    <time>2026-06-23T02:04:36Z</time>
   </trkpt>
   <trkpt lat="-3.0829670" lon="37.3668610">
    <ele>5429.9</ele>
    <time>2026-06-23T02:04:37Z</time>
   </trkpt>
   <trkpt lat="-3.0829670" lon="37.3668570">
    <ele>5430.0</ele>
    <time>2026-06-23T02:04:38Z</time>
   </trkpt>
   <trkpt lat="-3.0829660" lon="37.3668560">
    <ele>5430.1</ele>
    <time>2026-06-23T02:04:39Z</time>
   </trkpt>
   <trkpt lat="-3.0829660" lon="37.3668520">
    <ele>5430.2</ele>
    <time>2026-06-23T02:04:40Z</time>
   </trkpt>
   <trkpt lat="-3.0829660" lon="37.3668520">
    <ele>5430.2</ele>
    <time>2026-06-23T02:04:41Z</time>
   </trkpt>
   <trkpt lat="-3.0829660" lon="37.3668520">
    <ele>5430.2</ele>
    <time>2026-06-23T02:04:42Z</time>
   </trkpt>
   <trkpt lat="-3.0829660" lon="37.3668510">
    <ele>5430.2</ele>
    <time>2026-06-23T02:04:43Z</time>
   </trkpt>
   <trkpt lat="-3.0829660" lon="37.3668490">
    <ele>5430.2</ele>
    <time>2026-06-23T02:04:44Z</time>
   </trkpt>
   <trkpt lat="-3.0829660" lon="37.3668480">
    <ele>5430.2</ele>
    <time>2026-06-23T02:04:45Z</time>
   </trkpt>
   <trkpt lat="-3.0829680" lon="37.3668440">
    <ele>5430.4</ele>
    <time>2026-06-23T02:04:46Z</time>
   </trkpt>
   <trkpt lat="-3.0829670" lon="37.3668430">
    <ele>5430.4</ele>
    <time>2026-06-23T02:04:47Z</time>
   </trkpt>
   <trkpt lat="-3.0829680" lon="37.3668410">
    <ele>5430.4</ele>
    <time>2026-06-23T02:04:48Z</time>
   </trkpt>
   <trkpt lat="-3.0829700" lon="37.3668380">
    <ele>5430.5</ele>
    <time>2026-06-23T02:04:49Z</time>
   </trkpt>
   <trkpt lat="-3.0829740" lon="37.3668360">
    <ele>5430.6</ele>
    <time>2026-06-23T02:04:50Z</time>
   </trkpt>
   <trkpt lat="-3.0829750" lon="37.3668330">
    <ele>5430.7</ele>
    <time>2026-06-23T02:04:51Z</time>
   </trkpt>
   <trkpt lat="-3.0829770" lon="37.3668340">
    <ele>5430.8</ele>
    <time>2026-06-23T02:04:52Z</time>
   </trkpt>
   <trkpt lat="-3.0829780" lon="37.3668320">
    <ele>5430.8</ele>
    <time>2026-06-23T02:04:53Z</time>
   </trkpt>
   <trkpt lat="-3.0829790" lon="37.3668320">
    <ele>5430.8</ele>
    <time>2026-06-23T02:04:54Z</time>
   </trkpt>
   <trkpt lat="-3.0829800" lon="37.3668300">
    <ele>5430.9</ele>
    <time>2026-06-23T02:04:55Z</time>
   </trkpt>
   <trkpt lat="-3.0829800" lon="37.3668300">
    <ele>5430.9</ele>
    <time>2026-06-23T02:04:56Z</time>
   </trkpt>
   <trkpt lat="-3.0829810" lon="37.3668270">
    <ele>5431.0</ele>
    <time>2026-06-23T02:04:57Z</time>
   </trkpt>
   <trkpt lat="-3.0829810" lon="37.3668260">
    <ele>5431.0</ele>
    <time>2026-06-23T02:04:58Z</time>
   </trkpt>
   <trkpt lat="-3.0829810" lon="37.3668260">
    <ele>5431.0</ele>
    <time>2026-06-23T02:04:59Z</time>
   </trkpt>
   <trkpt lat="-3.0829820" lon="37.3668230">
    <ele>5431.1</ele>
    <time>2026-06-23T02:05:00Z</time>
   </trkpt>
   <trkpt lat="-3.0829820" lon="37.3668230">
    <ele>5431.1</ele>
    <time>2026-06-23T02:05:01Z</time>
   </trkpt>
   <trkpt lat="-3.0829830" lon="37.3668210">
    <ele>5431.1</ele>
    <time>2026-06-23T02:05:02Z</time>
   </trkpt>
   <trkpt lat="-3.0829850" lon="37.3668170">
    <ele>5431.2</ele>
    <time>2026-06-23T02:05:03Z</time>
   </trkpt>
   <trkpt lat="-3.0829850" lon="37.3668140">
    <ele>5431.3</ele>
    <time>2026-06-23T02:05:04Z</time>
   </trkpt>
   <trkpt lat="-3.0829870" lon="37.3668130">
    <ele>5431.4</ele>
    <time>2026-06-23T02:05:05Z</time>
   </trkpt>
   <trkpt lat="-3.0829860" lon="37.3668100">
    <ele>5431.4</ele>
    <time>2026-06-23T02:05:06Z</time>
   </trkpt>
   <trkpt lat="-3.0829870" lon="37.3668070">
    <ele>5431.5</ele>
    <time>2026-06-23T02:05:07Z</time>
   </trkpt>
   <trkpt lat="-3.0829880" lon="37.3668050">
    <ele>5431.6</ele>
    <time>2026-06-23T02:05:08Z</time>
   </trkpt>
   <trkpt lat="-3.0829890" lon="37.3668030">
    <ele>5431.6</ele>
    <time>2026-06-23T02:05:09Z</time>
   </trkpt>
   <trkpt lat="-3.0829880" lon="37.3668020">
    <ele>5431.6</ele>
    <time>2026-06-23T02:05:10Z</time>
   </trkpt>
   <trkpt lat="-3.0829880" lon="37.3668020">
    <ele>5431.6</ele>
    <time>2026-06-23T02:05:11Z</time>
   </trkpt>
   <trkpt lat="-3.0829890" lon="37.3668000">
    <ele>5431.7</ele>
    <time>2026-06-23T02:05:12Z</time>
   </trkpt>
   <trkpt lat="-3.0829880" lon="37.3667970">
    <ele>5431.8</ele>
    <time>2026-06-23T02:05:13Z</time>
   </trkpt>
   <trkpt lat="-3.0829900" lon="37.3667980">
    <ele>5431.8</ele>
    <time>2026-06-23T02:05:14Z</time>
   </trkpt>
   <trkpt lat="-3.0829900" lon="37.3667940">
    <ele>5431.9</ele>
    <time>2026-06-23T02:05:15Z</time>
   </trkpt>
   <trkpt lat="-3.0829900" lon="37.3667910">
    <ele>5432.0</ele>
    <time>2026-06-23T02:05:16Z</time>
   </trkpt>
   <trkpt lat="-3.0829910" lon="37.3667900">
    <ele>5432.0</ele>
    <time>2026-06-23T02:05:17Z</time>
   </trkpt>
   <trkpt lat="-3.0829910" lon="37.3667880">
    <ele>5432.1</ele>
    <time>2026-06-23T02:05:18Z</time>
   </trkpt>
   <trkpt lat="-3.0829920" lon="37.3667870">
    <ele>5432.1</ele>
    <time>2026-06-23T02:05:19Z</time>
   </trkpt>
   <trkpt lat="-3.0829910" lon="37.3667870">
    <ele>5432.1</ele>
    <time>2026-06-23T02:05:20Z</time>
   </trkpt>
   <trkpt lat="-3.0829900" lon="37.3667830">
    <ele>5432.2</ele>
    <time>2026-06-23T02:05:21Z</time>
   </trkpt>
   <trkpt lat="-3.0829890" lon="37.3667810">
    <ele>5432.3</ele>
    <time>2026-06-23T02:05:22Z</time>
   </trkpt>
   <trkpt lat="-3.0829860" lon="37.3667760">
    <ele>5432.4</ele>
    <time>2026-06-23T02:05:23Z</time>
   </trkpt>
   <trkpt lat="-3.0829860" lon="37.3667800">
    <ele>5432.5</ele>
    <time>2026-06-23T02:05:24Z</time>
   </trkpt>
   <trkpt lat="-3.0829850" lon="37.3667790">
    <ele>5432.6</ele>
    <time>2026-06-23T02:05:25Z</time>
   </trkpt>
   <trkpt lat="-3.0829820" lon="37.3667760">
    <ele>5432.7</ele>
    <time>2026-06-23T02:05:26Z</time>
   </trkpt>
   <trkpt lat="-3.0829800" lon="37.3667790">
    <ele>5432.7</ele>
    <time>2026-06-23T02:05:27Z</time>
   </trkpt>
   <trkpt lat="-3.0829790" lon="37.3667790">
    <ele>5432.8</ele>
    <time>2026-06-23T02:05:28Z</time>
   </trkpt>
   <trkpt lat="-3.0829790" lon="37.3667790">
    <ele>5432.8</ele>
    <time>2026-06-23T02:05:29Z</time>
   </trkpt>
   <trkpt lat="-3.0829800" lon="37.3667800">
    <ele>5432.8</ele>
    <time>2026-06-23T02:05:30Z</time>
   </trkpt>
   <trkpt lat="-3.0829800" lon="37.3667800">
    <ele>5432.8</ele>
    <time>2026-06-23T02:05:31Z</time>
   </trkpt>
   <trkpt lat="-3.0829800" lon="37.3667810">
    <ele>5432.8</ele>
    <time>2026-06-23T02:05:32Z</time>
   </trkpt>
   <trkpt lat="-3.0829790" lon="37.3667800">
    <ele>5432.9</ele>
    <time>2026-06-23T02:05:33Z</time>
   </trkpt>
   <trkpt lat="-3.0829800" lon="37.3667810">
    <ele>5432.9</ele>
    <time>2026-06-23T02:05:34Z</time>
   </trkpt>
   <trkpt lat="-3.0829800" lon="37.3667810">
    <ele>5432.9</ele>
    <time>2026-06-23T02:05:35Z</time>
   </trkpt>
   <trkpt lat="-3.0829800" lon="37.3667810">
    <ele>5432.9</ele>
    <time>2026-06-23T02:05:36Z</time>
   </trkpt>
   <trkpt lat="-3.0829800" lon="37.3667810">
    <ele>5432.9</ele>
    <time>2026-06-23T02:05:37Z</time>
   </trkpt>
   <trkpt lat="-3.0829800" lon="37.3667800">
    <ele>5432.9</ele>
    <time>2026-06-23T02:05:38Z</time>
   </trkpt>
   <trkpt lat="-3.0829800" lon="37.3667820">
    <ele>5433.0</ele>
    <time>2026-06-23T02:05:39Z</time>
   </trkpt>
   <trkpt lat="-3.0829800" lon="37.3667820">
    <ele>5433.0</ele>
    <time>2026-06-23T02:05:40Z</time>
   </trkpt>
   <trkpt lat="-3.0829790" lon="37.3667820">
    <ele>5433.0</ele>
    <time>2026-06-23T02:05:41Z</time>
   </trkpt>
   <trkpt lat="-3.0829770" lon="37.3667820">
    <ele>5433.0</ele>
    <time>2026-06-23T02:05:42Z</time>
   </trkpt>
   <trkpt lat="-3.0829750" lon="37.3667830">
    <ele>5433.1</ele>
    <time>2026-06-23T02:05:43Z</time>
   </trkpt>
   <trkpt lat="-3.0829740" lon="37.3667830">
    <ele>5433.1</ele>
    <time>2026-06-23T02:05:44Z</time>
   </trkpt>
   <trkpt lat="-3.0829720" lon="37.3667850">
    <ele>5433.2</ele>
    <time>2026-06-23T02:05:45Z</time>
   </trkpt>
   <trkpt lat="-3.0829680" lon="37.3667850">
    <ele>5433.3</ele>
    <time>2026-06-23T02:05:46Z</time>
   </trkpt>
   <trkpt lat="-3.0829670" lon="37.3667870">
    <ele>5433.3</ele>
    <time>2026-06-23T02:05:47Z</time>
   </trkpt>
   <trkpt lat="-3.0829630" lon="37.3667860">
    <ele>5433.4</ele>
    <time>2026-06-23T02:05:48Z</time>
   </trkpt>
   <trkpt lat="-3.0829610" lon="37.3667870">
    <ele>5433.5</ele>
    <time>2026-06-23T02:05:49Z</time>
   </trkpt>
   <trkpt lat="-3.0829590" lon="37.3667900">
    <ele>5433.6</ele>
    <time>2026-06-23T02:05:50Z</time>
   </trkpt>
   <trkpt lat="-3.0829570" lon="37.3667900">
    <ele>5433.6</ele>
    <time>2026-06-23T02:05:51Z</time>
   </trkpt>
   <trkpt lat="-3.0829560" lon="37.3667910">
    <ele>5433.7</ele>
    <time>2026-06-23T02:05:52Z</time>
   </trkpt>
   <trkpt lat="-3.0829540" lon="37.3667920">
    <ele>5433.7</ele>
    <time>2026-06-23T02:05:54Z</time>
   </trkpt>
   <trkpt lat="-3.0829530" lon="37.3667920">
    <ele>5433.7</ele>
    <time>2026-06-23T02:05:55Z</time>
   </trkpt>
   <trkpt lat="-3.0829520" lon="37.3667930">
    <ele>5433.8</ele>
    <time>2026-06-23T02:05:56Z</time>
   </trkpt>
   <trkpt lat="-3.0829510" lon="37.3667950">
    <ele>5433.8</ele>
    <time>2026-06-23T02:05:57Z</time>
   </trkpt>
   <trkpt lat="-3.0829490" lon="37.3667930">
    <ele>5433.9</ele>
    <time>2026-06-23T02:05:58Z</time>
   </trkpt>
   <trkpt lat="-3.0829470" lon="37.3667930">
    <ele>5433.9</ele>
    <time>2026-06-23T02:05:59Z</time>
   </trkpt>
   <trkpt lat="-3.0829460" lon="37.3667930">
    <ele>5434.0</ele>
    <time>2026-06-23T02:06:00Z</time>
   </trkpt>
   <trkpt lat="-3.0829430" lon="37.3667940">
    <ele>5434.0</ele>
    <time>2026-06-23T02:06:01Z</time>
   </trkpt>
   <trkpt lat="-3.0829410" lon="37.3667910">
    <ele>5434.1</ele>
    <time>2026-06-23T02:06:02Z</time>
   </trkpt>
   <trkpt lat="-3.0829400" lon="37.3667910">
    <ele>5434.1</ele>
    <time>2026-06-23T02:06:03Z</time>
   </trkpt>
   <trkpt lat="-3.0829390" lon="37.3667900">
    <ele>5434.2</ele>
    <time>2026-06-23T02:06:04Z</time>
   </trkpt>
   <trkpt lat="-3.0829370" lon="37.3667900">
    <ele>5434.2</ele>
    <time>2026-06-23T02:06:05Z</time>
   </trkpt>
   <trkpt lat="-3.0829350" lon="37.3667910">
    <ele>5434.3</ele>
    <time>2026-06-23T02:06:06Z</time>
   </trkpt>
   <trkpt lat="-3.0829320" lon="37.3667910">
    <ele>5434.3</ele>
    <time>2026-06-23T02:06:07Z</time>
   </trkpt>
   <trkpt lat="-3.0829300" lon="37.3667910">
    <ele>5434.4</ele>
    <time>2026-06-23T02:06:08Z</time>
   </trkpt>
   <trkpt lat="-3.0829280" lon="37.3667930">
    <ele>5434.5</ele>
    <time>2026-06-23T02:06:09Z</time>
   </trkpt>
   <trkpt lat="-3.0829260" lon="37.3667940">
    <ele>5434.5</ele>
    <time>2026-06-23T02:06:10Z</time>
   </trkpt>
   <trkpt lat="-3.0829230" lon="37.3667920">
    <ele>5434.6</ele>
    <time>2026-06-23T02:06:11Z</time>
   </trkpt>
   <trkpt lat="-3.0829220" lon="37.3667940">
    <ele>5434.7</ele>
    <time>2026-06-23T02:06:12Z</time>
   </trkpt>
   <trkpt lat="-3.0829180" lon="37.3667930">
    <ele>5434.8</ele>
    <time>2026-06-23T02:06:13Z</time>
   </trkpt>
   <trkpt lat="-3.0829150" lon="37.3667950">
    <ele>5434.8</ele>
    <time>2026-06-23T02:06:14Z</time>
   </trkpt>
   <trkpt lat="-3.0829120" lon="37.3667920">
    <ele>5434.9</ele>
    <time>2026-06-23T02:06:15Z</time>
   </trkpt>
   <trkpt lat="-3.0829120" lon="37.3667920">
    <ele>5434.9</ele>
    <time>2026-06-23T02:06:16Z</time>
   </trkpt>
   <trkpt lat="-3.0829110" lon="37.3667870">
    <ele>5435.1</ele>
    <time>2026-06-23T02:06:17Z</time>
   </trkpt>
   <trkpt lat="-3.0829110" lon="37.3667880">
    <ele>5435.1</ele>
    <time>2026-06-23T02:06:18Z</time>
   </trkpt>
   <trkpt lat="-3.0829120" lon="37.3667860">
    <ele>5435.1</ele>
    <time>2026-06-23T02:06:19Z</time>
   </trkpt>
   <trkpt lat="-3.0829120" lon="37.3667850">
    <ele>5435.2</ele>
    <time>2026-06-23T02:06:20Z</time>
   </trkpt>
   <trkpt lat="-3.0829130" lon="37.3667820">
    <ele>5435.2</ele>
    <time>2026-06-23T02:06:21Z</time>
   </trkpt>
   <trkpt lat="-3.0829120" lon="37.3667800">
    <ele>5435.3</ele>
    <time>2026-06-23T02:06:22Z</time>
   </trkpt>
   <trkpt lat="-3.0829140" lon="37.3667790">
    <ele>5435.3</ele>
    <time>2026-06-23T02:06:23Z</time>
   </trkpt>
   <trkpt lat="-3.0829170" lon="37.3667760">
    <ele>5435.4</ele>
    <time>2026-06-23T02:06:24Z</time>
   </trkpt>
   <trkpt lat="-3.0829180" lon="37.3667750">
    <ele>5435.5</ele>
    <time>2026-06-23T02:06:25Z</time>
   </trkpt>
   <trkpt lat="-3.0829190" lon="37.3667730">
    <ele>5435.5</ele>
    <time>2026-06-23T02:06:26Z</time>
   </trkpt>
   <trkpt lat="-3.0829220" lon="37.3667710">
    <ele>5435.6</ele>
    <time>2026-06-23T02:06:27Z</time>
   </trkpt>
   <trkpt lat="-3.0829230" lon="37.3667700">
    <ele>5435.7</ele>
    <time>2026-06-23T02:06:28Z</time>
   </trkpt>
   <trkpt lat="-3.0829230" lon="37.3667660">
    <ele>5435.8</ele>
    <time>2026-06-23T02:06:29Z</time>
   </trkpt>
   <trkpt lat="-3.0829250" lon="37.3667670">
    <ele>5435.8</ele>
    <time>2026-06-23T02:06:30Z</time>
   </trkpt>
   <trkpt lat="-3.0829250" lon="37.3667630">
    <ele>5435.9</ele>
    <time>2026-06-23T02:06:31Z</time>
   </trkpt>
   <trkpt lat="-3.0829260" lon="37.3667620">
    <ele>5435.9</ele>
    <time>2026-06-23T02:06:32Z</time>
   </trkpt>
   <trkpt lat="-3.0829270" lon="37.3667610">
    <ele>5436.0</ele>
    <time>2026-06-23T02:06:33Z</time>
   </trkpt>
   <trkpt lat="-3.0829290" lon="37.3667580">
    <ele>5436.1</ele>
    <time>2026-06-23T02:06:34Z</time>
   </trkpt>
   <trkpt lat="-3.0829290" lon="37.3667570">
    <ele>5436.1</ele>
    <time>2026-06-23T02:06:35Z</time>
   </trkpt>
   <trkpt lat="-3.0829310" lon="37.3667550">
    <ele>5436.1</ele>
    <time>2026-06-23T02:06:36Z</time>
   </trkpt>
   <trkpt lat="-3.0829300" lon="37.3667530">
    <ele>5436.2</ele>
    <time>2026-06-23T02:06:37Z</time>
   </trkpt>
   <trkpt lat="-3.0829320" lon="37.3667520">
    <ele>5436.3</ele>
    <time>2026-06-23T02:06:38Z</time>
   </trkpt>
   <trkpt lat="-3.0829320" lon="37.3667490">
    <ele>5436.3</ele>
    <time>2026-06-23T02:06:39Z</time>
   </trkpt>
   <trkpt lat="-3.0829330" lon="37.3667470">
    <ele>5436.4</ele>
    <time>2026-06-23T02:06:40Z</time>
   </trkpt>
   <trkpt lat="-3.0829340" lon="37.3667440">
    <ele>5436.5</ele>
    <time>2026-06-23T02:06:41Z</time>
   </trkpt>
   <trkpt lat="-3.0829350" lon="37.3667420">
    <ele>5436.5</ele>
    <time>2026-06-23T02:06:42Z</time>
   </trkpt>
   <trkpt lat="-3.0829350" lon="37.3667410">
    <ele>5436.5</ele>
    <time>2026-06-23T02:06:43Z</time>
   </trkpt>
   <trkpt lat="-3.0829340" lon="37.3667390">
    <ele>5436.6</ele>
    <time>2026-06-23T02:06:44Z</time>
   </trkpt>
   <trkpt lat="-3.0829330" lon="37.3667360">
    <ele>5436.7</ele>
    <time>2026-06-23T02:06:45Z</time>
   </trkpt>
   <trkpt lat="-3.0829300" lon="37.3667360">
    <ele>5436.7</ele>
    <time>2026-06-23T02:06:46Z</time>
   </trkpt>
   <trkpt lat="-3.0829290" lon="37.3667350">
    <ele>5436.8</ele>
    <time>2026-06-23T02:06:47Z</time>
   </trkpt>
   <trkpt lat="-3.0829290" lon="37.3667360">
    <ele>5436.8</ele>
    <time>2026-06-23T02:06:48Z</time>
   </trkpt>
   <trkpt lat="-3.0829270" lon="37.3667330">
    <ele>5436.9</ele>
    <time>2026-06-23T02:06:49Z</time>
   </trkpt>
   <trkpt lat="-3.0829240" lon="37.3667340">
    <ele>5437.0</ele>
    <time>2026-06-23T02:06:50Z</time>
   </trkpt>
   <trkpt lat="-3.0829210" lon="37.3667340">
    <ele>5437.0</ele>
    <time>2026-06-23T02:06:51Z</time>
   </trkpt>
   <trkpt lat="-3.0829190" lon="37.3667330">
    <ele>5437.1</ele>
    <time>2026-06-23T02:06:52Z</time>
   </trkpt>
   <trkpt lat="-3.0829160" lon="37.3667300">
    <ele>5437.2</ele>
    <time>2026-06-23T02:06:53Z</time>
   </trkpt>
   <trkpt lat="-3.0829160" lon="37.3667320">
    <ele>5437.2</ele>
    <time>2026-06-23T02:06:54Z</time>
   </trkpt>
   <trkpt lat="-3.0829140" lon="37.3667300">
    <ele>5437.3</ele>
    <time>2026-06-23T02:06:55Z</time>
   </trkpt>
   <trkpt lat="-3.0829120" lon="37.3667290">
    <ele>5437.3</ele>
    <time>2026-06-23T02:06:56Z</time>
   </trkpt>
   <trkpt lat="-3.0829090" lon="37.3667300">
    <ele>5437.4</ele>
    <time>2026-06-23T02:06:57Z</time>
   </trkpt>
   <trkpt lat="-3.0829070" lon="37.3667290">
    <ele>5437.5</ele>
    <time>2026-06-23T02:06:58Z</time>
   </trkpt>
   <trkpt lat="-3.0829060" lon="37.3667310">
    <ele>5437.5</ele>
    <time>2026-06-23T02:06:59Z</time>
   </trkpt>
   <trkpt lat="-3.0829040" lon="37.3667330">
    <ele>5437.6</ele>
    <time>2026-06-23T02:07:00Z</time>
   </trkpt>
   <trkpt lat="-3.0829020" lon="37.3667320">
    <ele>5437.7</ele>
    <time>2026-06-23T02:07:01Z</time>
   </trkpt>
   <trkpt lat="-3.0829010" lon="37.3667330">
    <ele>5437.7</ele>
    <time>2026-06-23T02:07:02Z</time>
   </trkpt>
   <trkpt lat="-3.0829000" lon="37.3667330">
    <ele>5437.7</ele>
    <time>2026-06-23T02:07:03Z</time>
   </trkpt>
   <trkpt lat="-3.0828970" lon="37.3667340">
    <ele>5437.8</ele>
    <time>2026-06-23T02:07:04Z</time>
   </trkpt>
   <trkpt lat="-3.0828940" lon="37.3667370">
    <ele>5437.9</ele>
    <time>2026-06-23T02:07:05Z</time>
   </trkpt>
   <trkpt lat="-3.0828930" lon="37.3667370">
    <ele>5437.9</ele>
    <time>2026-06-23T02:07:06Z</time>
   </trkpt>
   <trkpt lat="-3.0828900" lon="37.3667390">
    <ele>5438.0</ele>
    <time>2026-06-23T02:07:07Z</time>
   </trkpt>
   <trkpt lat="-3.0828890" lon="37.3667410">
    <ele>5438.0</ele>
    <time>2026-06-23T02:07:08Z</time>
   </trkpt>
   <trkpt lat="-3.0828870" lon="37.3667420">
    <ele>5438.1</ele>
    <time>2026-06-23T02:07:09Z</time>
   </trkpt>
   <trkpt lat="-3.0828850" lon="37.3667410">
    <ele>5438.2</ele>
    <time>2026-06-23T02:07:10Z</time>
   </trkpt>
   <trkpt lat="-3.0828840" lon="37.3667440">
    <ele>5438.2</ele>
    <time>2026-06-23T02:07:11Z</time>
   </trkpt>
   <trkpt lat="-3.0828820" lon="37.3667440">
    <ele>5438.3</ele>
    <time>2026-06-23T02:07:12Z</time>
   </trkpt>
   <trkpt lat="-3.0828810" lon="37.3667450">
    <ele>5438.3</ele>
    <time>2026-06-23T02:07:13Z</time>
   </trkpt>
   <trkpt lat="-3.0828790" lon="37.3667470">
    <ele>5438.4</ele>
    <time>2026-06-23T02:07:14Z</time>
   </trkpt>
   <trkpt lat="-3.0828770" lon="37.3667470">
    <ele>5438.4</ele>
    <time>2026-06-23T02:07:15Z</time>
   </trkpt>
   <trkpt lat="-3.0828750" lon="37.3667470">
    <ele>5438.5</ele>
    <time>2026-06-23T02:07:16Z</time>
   </trkpt>
   <trkpt lat="-3.0828730" lon="37.3667460">
    <ele>5438.5</ele>
    <time>2026-06-23T02:07:17Z</time>
   </trkpt>
   <trkpt lat="-3.0828710" lon="37.3667470">
    <ele>5438.6</ele>
    <time>2026-06-23T02:07:18Z</time>
   </trkpt>
   <trkpt lat="-3.0828690" lon="37.3667470">
    <ele>5438.6</ele>
    <time>2026-06-23T02:07:19Z</time>
   </trkpt>
   <trkpt lat="-3.0828680" lon="37.3667470">
    <ele>5438.7</ele>
    <time>2026-06-23T02:07:20Z</time>
   </trkpt>
   <trkpt lat="-3.0828650" lon="37.3667480">
    <ele>5438.7</ele>
    <time>2026-06-23T02:07:21Z</time>
   </trkpt>
   <trkpt lat="-3.0828630" lon="37.3667480">
    <ele>5438.8</ele>
    <time>2026-06-23T02:07:22Z</time>
   </trkpt>
   <trkpt lat="-3.0828610" lon="37.3667500">
    <ele>5438.8</ele>
    <time>2026-06-23T02:07:23Z</time>
   </trkpt>
   <trkpt lat="-3.0828590" lon="37.3667510">
    <ele>5438.9</ele>
    <time>2026-06-23T02:07:24Z</time>
   </trkpt>
   <trkpt lat="-3.0828560" lon="37.3667490">
    <ele>5439.0</ele>
    <time>2026-06-23T02:07:25Z</time>
   </trkpt>
   <trkpt lat="-3.0828550" lon="37.3667510">
    <ele>5439.0</ele>
    <time>2026-06-23T02:07:26Z</time>
   </trkpt>
   <trkpt lat="-3.0828520" lon="37.3667480">
    <ele>5439.1</ele>
    <time>2026-06-23T02:07:27Z</time>
   </trkpt>
   <trkpt lat="-3.0828510" lon="37.3667490">
    <ele>5439.2</ele>
    <time>2026-06-23T02:07:28Z</time>
   </trkpt>
   <trkpt lat="-3.0828500" lon="37.3667470">
    <ele>5439.2</ele>
    <time>2026-06-23T02:07:29Z</time>
   </trkpt>
   <trkpt lat="-3.0828480" lon="37.3667470">
    <ele>5439.3</ele>
    <time>2026-06-23T02:07:30Z</time>
   </trkpt>
   <trkpt lat="-3.0828470" lon="37.3667470">
    <ele>5439.3</ele>
    <time>2026-06-23T02:07:31Z</time>
   </trkpt>
   <trkpt lat="-3.0828470" lon="37.3667420">
    <ele>5439.4</ele>
    <time>2026-06-23T02:07:32Z</time>
   </trkpt>
   <trkpt lat="-3.0828460" lon="37.3667430">
    <ele>5439.5</ele>
    <time>2026-06-23T02:07:33Z</time>
   </trkpt>
   <trkpt lat="-3.0828440" lon="37.3667390">
    <ele>5439.6</ele>
    <time>2026-06-23T02:07:34Z</time>
   </trkpt>
   <trkpt lat="-3.0828430" lon="37.3667370">
    <ele>5439.6</ele>
    <time>2026-06-23T02:07:35Z</time>
   </trkpt>
   <trkpt lat="-3.0828440" lon="37.3667350">
    <ele>5439.7</ele>
    <time>2026-06-23T02:07:36Z</time>
   </trkpt>
   <trkpt lat="-3.0828440" lon="37.3667320">
    <ele>5439.7</ele>
    <time>2026-06-23T02:07:37Z</time>
   </trkpt>
   <trkpt lat="-3.0828450" lon="37.3667300">
    <ele>5439.8</ele>
    <time>2026-06-23T02:07:38Z</time>
   </trkpt>
   <trkpt lat="-3.0828470" lon="37.3667290">
    <ele>5439.8</ele>
    <time>2026-06-23T02:07:39Z</time>
   </trkpt>
   <trkpt lat="-3.0828480" lon="37.3667270">
    <ele>5439.9</ele>
    <time>2026-06-23T02:07:40Z</time>
   </trkpt>
   <trkpt lat="-3.0828500" lon="37.3667230">
    <ele>5440.0</ele>
    <time>2026-06-23T02:07:41Z</time>
   </trkpt>
   <trkpt lat="-3.0828510" lon="37.3667220">
    <ele>5440.0</ele>
    <time>2026-06-23T02:07:42Z</time>
   </trkpt>
   <trkpt lat="-3.0828510" lon="37.3667210">
    <ele>5440.1</ele>
    <time>2026-06-23T02:07:43Z</time>
   </trkpt>
   <trkpt lat="-3.0828520" lon="37.3667200">
    <ele>5440.1</ele>
    <time>2026-06-23T02:07:44Z</time>
   </trkpt>
   <trkpt lat="-3.0828510" lon="37.3667170">
    <ele>5440.2</ele>
    <time>2026-06-23T02:07:45Z</time>
   </trkpt>
   <trkpt lat="-3.0828500" lon="37.3667150">
    <ele>5440.2</ele>
    <time>2026-06-23T02:07:46Z</time>
   </trkpt>
   <trkpt lat="-3.0828510" lon="37.3667150">
    <ele>5440.3</ele>
    <time>2026-06-23T02:07:47Z</time>
   </trkpt>
   <trkpt lat="-3.0828500" lon="37.3667110">
    <ele>5440.3</ele>
    <time>2026-06-23T02:07:48Z</time>
   </trkpt>
   <trkpt lat="-3.0828500" lon="37.3667110">
    <ele>5440.3</ele>
    <time>2026-06-23T02:07:49Z</time>
   </trkpt>
   <trkpt lat="-3.0828520" lon="37.3667090">
    <ele>5440.4</ele>
    <time>2026-06-23T02:07:50Z</time>
   </trkpt>
   <trkpt lat="-3.0828510" lon="37.3667050">
    <ele>5440.5</ele>
    <time>2026-06-23T02:07:51Z</time>
   </trkpt>
   <trkpt lat="-3.0828550" lon="37.3667060">
    <ele>5440.6</ele>
    <time>2026-06-23T02:07:52Z</time>
   </trkpt>
   <trkpt lat="-3.0828560" lon="37.3667040">
    <ele>5440.7</ele>
    <time>2026-06-23T02:07:53Z</time>
   </trkpt>
   <trkpt lat="-3.0828570" lon="37.3667040">
    <ele>5440.7</ele>
    <time>2026-06-23T02:07:54Z</time>
   </trkpt>
   <trkpt lat="-3.0828570" lon="37.3667020">
    <ele>5440.7</ele>
    <time>2026-06-23T02:07:55Z</time>
   </trkpt>
   <trkpt lat="-3.0828580" lon="37.3667000">
    <ele>5440.8</ele>
    <time>2026-06-23T02:07:56Z</time>
   </trkpt>
   <trkpt lat="-3.0828610" lon="37.3667000">
    <ele>5440.9</ele>
    <time>2026-06-23T02:07:57Z</time>
   </trkpt>
   <trkpt lat="-3.0828620" lon="37.3666970">
    <ele>5440.9</ele>
    <time>2026-06-23T02:07:58Z</time>
   </trkpt>
   <trkpt lat="-3.0828640" lon="37.3666940">
    <ele>5441.0</ele>
    <time>2026-06-23T02:08:00Z</time>
   </trkpt>
   <trkpt lat="-3.0828650" lon="37.3666920">
    <ele>5441.1</ele>
    <time>2026-06-23T02:08:01Z</time>
   </trkpt>
   <trkpt lat="-3.0828650" lon="37.3666880">
    <ele>5441.2</ele>
    <time>2026-06-23T02:08:02Z</time>
   </trkpt>
   <trkpt lat="-3.0828670" lon="37.3666870">
    <ele>5441.2</ele>
    <time>2026-06-23T02:08:03Z</time>
   </trkpt>
   <trkpt lat="-3.0828670" lon="37.3666840">
    <ele>5441.3</ele>
    <time>2026-06-23T02:08:04Z</time>
   </trkpt>
   <trkpt lat="-3.0828690" lon="37.3666840">
    <ele>5441.3</ele>
    <time>2026-06-23T02:08:05Z</time>
   </trkpt>
   <trkpt lat="-3.0828710" lon="37.3666830">
    <ele>5441.4</ele>
    <time>2026-06-23T02:08:06Z</time>
   </trkpt>
   <trkpt lat="-3.0828710" lon="37.3666810">
    <ele>5441.4</ele>
    <time>2026-06-23T02:08:07Z</time>
   </trkpt>
   <trkpt lat="-3.0828720" lon="37.3666790">
    <ele>5441.5</ele>
    <time>2026-06-23T02:08:08Z</time>
   </trkpt>
   <trkpt lat="-3.0828730" lon="37.3666760">
    <ele>5441.6</ele>
    <time>2026-06-23T02:08:09Z</time>
   </trkpt>
   <trkpt lat="-3.0828740" lon="37.3666760">
    <ele>5441.6</ele>
    <time>2026-06-23T02:08:10Z</time>
   </trkpt>
   <trkpt lat="-3.0828760" lon="37.3666730">
    <ele>5441.7</ele>
    <time>2026-06-23T02:08:11Z</time>
   </trkpt>
   <trkpt lat="-3.0828770" lon="37.3666720">
    <ele>5441.7</ele>
    <time>2026-06-23T02:08:12Z</time>
   </trkpt>
   <trkpt lat="-3.0828790" lon="37.3666690">
    <ele>5441.8</ele>
    <time>2026-06-23T02:08:13Z</time>
   </trkpt>
   <trkpt lat="-3.0828790" lon="37.3666690">
    <ele>5441.8</ele>
    <time>2026-06-23T02:08:14Z</time>
   </trkpt>
   <trkpt lat="-3.0828800" lon="37.3666660">
    <ele>5441.9</ele>
    <time>2026-06-23T02:08:15Z</time>
   </trkpt>
   <trkpt lat="-3.0828820" lon="37.3666650">
    <ele>5441.9</ele>
    <time>2026-06-23T02:08:16Z</time>
   </trkpt>
   <trkpt lat="-3.0828840" lon="37.3666630">
    <ele>5442.0</ele>
    <time>2026-06-23T02:08:17Z</time>
   </trkpt>
   <trkpt lat="-3.0828840" lon="37.3666600">
    <ele>5442.1</ele>
    <time>2026-06-23T02:08:18Z</time>
   </trkpt>
   <trkpt lat="-3.0828870" lon="37.3666580">
    <ele>5442.2</ele>
    <time>2026-06-23T02:08:19Z</time>
   </trkpt>
   <trkpt lat="-3.0828890" lon="37.3666580">
    <ele>5442.2</ele>
    <time>2026-06-23T02:08:20Z</time>
   </trkpt>
   <trkpt lat="-3.0828910" lon="37.3666550">
    <ele>5442.3</ele>
    <time>2026-06-23T02:08:21Z</time>
   </trkpt>
   <trkpt lat="-3.0828940" lon="37.3666550">
    <ele>5442.4</ele>
    <time>2026-06-23T02:08:22Z</time>
   </trkpt>
   <trkpt lat="-3.0828950" lon="37.3666530">
    <ele>5442.4</ele>
    <time>2026-06-23T02:08:23Z</time>
   </trkpt>
   <trkpt lat="-3.0828980" lon="37.3666530">
    <ele>5442.5</ele>
    <time>2026-06-23T02:08:24Z</time>
   </trkpt>
   <trkpt lat="-3.0828980" lon="37.3666520">
    <ele>5442.5</ele>
    <time>2026-06-23T02:08:25Z</time>
   </trkpt>
   <trkpt lat="-3.0829010" lon="37.3666520">
    <ele>5442.6</ele>
    <time>2026-06-23T02:08:26Z</time>
   </trkpt>
   <trkpt lat="-3.0829020" lon="37.3666520">
    <ele>5442.6</ele>
    <time>2026-06-23T02:08:27Z</time>
   </trkpt>
   <trkpt lat="-3.0829040" lon="37.3666510">
    <ele>5442.7</ele>
    <time>2026-06-23T02:08:28Z</time>
   </trkpt>
   <trkpt lat="-3.0829060" lon="37.3666510">
    <ele>5442.7</ele>
    <time>2026-06-23T02:08:29Z</time>
   </trkpt>
   <trkpt lat="-3.0829080" lon="37.3666500">
    <ele>5442.8</ele>
    <time>2026-06-23T02:08:30Z</time>
   </trkpt>
   <trkpt lat="-3.0829100" lon="37.3666490">
    <ele>5442.8</ele>
    <time>2026-06-23T02:08:31Z</time>
   </trkpt>
   <trkpt lat="-3.0829120" lon="37.3666480">
    <ele>5442.9</ele>
    <time>2026-06-23T02:08:32Z</time>
   </trkpt>
   <trkpt lat="-3.0829150" lon="37.3666480">
    <ele>5442.9</ele>
    <time>2026-06-23T02:08:33Z</time>
   </trkpt>
   <trkpt lat="-3.0829160" lon="37.3666460">
    <ele>5443.0</ele>
    <time>2026-06-23T02:08:34Z</time>
   </trkpt>
   <trkpt lat="-3.0829180" lon="37.3666450">
    <ele>5443.1</ele>
    <time>2026-06-23T02:08:35Z</time>
   </trkpt>
   <trkpt lat="-3.0829200" lon="37.3666420">
    <ele>5443.1</ele>
    <time>2026-06-23T02:08:36Z</time>
   </trkpt>
   <trkpt lat="-3.0829200" lon="37.3666430">
    <ele>5443.2</ele>
    <time>2026-06-23T02:08:37Z</time>
   </trkpt>
   <trkpt lat="-3.0829200" lon="37.3666430">
    <ele>5443.2</ele>
    <time>2026-06-23T02:08:38Z</time>
   </trkpt>
   <trkpt lat="-3.0829190" lon="37.3666430">
    <ele>5443.2</ele>
    <time>2026-06-23T02:08:39Z</time>
   </trkpt>
   <trkpt lat="-3.0829180" lon="37.3666420">
    <ele>5443.2</ele>
    <time>2026-06-23T02:08:40Z</time>
   </trkpt>
   <trkpt lat="-3.0829180" lon="37.3666430">
    <ele>5443.2</ele>
    <time>2026-06-23T02:08:41Z</time>
   </trkpt>
   <trkpt lat="-3.0829170" lon="37.3666430">
    <ele>5443.3</ele>
    <time>2026-06-23T02:08:42Z</time>
   </trkpt>
   <trkpt lat="-3.0829170" lon="37.3666430">
    <ele>5443.3</ele>
    <time>2026-06-23T02:08:43Z</time>
   </trkpt>
   <trkpt lat="-3.0829170" lon="37.3666430">
    <ele>5443.3</ele>
    <time>2026-06-23T02:08:44Z</time>
   </trkpt>
   <trkpt lat="-3.0829170" lon="37.3666420">
    <ele>5443.3</ele>
    <time>2026-06-23T02:08:45Z</time>
   </trkpt>
   <trkpt lat="-3.0829170" lon="37.3666430">
    <ele>5443.3</ele>
    <time>2026-06-23T02:08:46Z</time>
   </trkpt>
   <trkpt lat="-3.0829170" lon="37.3666430">
    <ele>5443.3</ele>
    <time>2026-06-23T02:08:47Z</time>
   </trkpt>
   <trkpt lat="-3.0829170" lon="37.3666440">
    <ele>5443.3</ele>
    <time>2026-06-23T02:08:48Z</time>
   </trkpt>
   <trkpt lat="-3.0829170" lon="37.3666440">
    <ele>5443.3</ele>
    <time>2026-06-23T02:08:49Z</time>
   </trkpt>
   <trkpt lat="-3.0829170" lon="37.3666430">
    <ele>5443.4</ele>
    <time>2026-06-23T02:08:50Z</time>
   </trkpt>
   <trkpt lat="-3.0829170" lon="37.3666440">
    <ele>5443.4</ele>
    <time>2026-06-23T02:08:51Z</time>
   </trkpt>
   <trkpt lat="-3.0829170" lon="37.3666440">
    <ele>5443.4</ele>
    <time>2026-06-23T02:08:52Z</time>
   </trkpt>
   <trkpt lat="-3.0829170" lon="37.3666440">
    <ele>5443.4</ele>
    <time>2026-06-23T02:08:53Z</time>
   </trkpt>
   <trkpt lat="-3.0829170" lon="37.3666440">
    <ele>5443.4</ele>
    <time>2026-06-23T02:08:54Z</time>
   </trkpt>
   <trkpt lat="-3.0829170" lon="37.3666440">
    <ele>5443.4</ele>
    <time>2026-06-23T02:08:55Z</time>
   </trkpt>
   <trkpt lat="-3.0829170" lon="37.3666430">
    <ele>5443.4</ele>
    <time>2026-06-23T02:08:56Z</time>
   </trkpt>
   <trkpt lat="-3.0829170" lon="37.3666430">
    <ele>5443.4</ele>
    <time>2026-06-23T02:08:57Z</time>
   </trkpt>
   <trkpt lat="-3.0829170" lon="37.3666430">
    <ele>5443.4</ele>
    <time>2026-06-23T02:08:58Z</time>
   </trkpt>
   <trkpt lat="-3.0829160" lon="37.3666430">
    <ele>5443.4</ele>
    <time>2026-06-23T02:08:59Z</time>
   </trkpt>
   <trkpt lat="-3.0829150" lon="37.3666420">
    <ele>5443.5</ele>
    <time>2026-06-23T02:09:00Z</time>
   </trkpt>
   <trkpt lat="-3.0829150" lon="37.3666430">
    <ele>5443.5</ele>
    <time>2026-06-23T02:09:01Z</time>
   </trkpt>
   <trkpt lat="-3.0829160" lon="37.3666430">
    <ele>5443.5</ele>
    <time>2026-06-23T02:09:02Z</time>
   </trkpt>
   <trkpt lat="-3.0829160" lon="37.3666420">
    <ele>5443.5</ele>
    <time>2026-06-23T02:09:03Z</time>
   </trkpt>
   <trkpt lat="-3.0829170" lon="37.3666410">
    <ele>5443.6</ele>
    <time>2026-06-23T02:09:04Z</time>
   </trkpt>
   <trkpt lat="-3.0829160" lon="37.3666420">
    <ele>5443.6</ele>
    <time>2026-06-23T02:09:05Z</time>
   </trkpt>
   <trkpt lat="-3.0829170" lon="37.3666400">
    <ele>5443.7</ele>
    <time>2026-06-23T02:09:06Z</time>
   </trkpt>
   <trkpt lat="-3.0829170" lon="37.3666400">
    <ele>5443.7</ele>
    <time>2026-06-23T02:09:07Z</time>
   </trkpt>
   <trkpt lat="-3.0829170" lon="37.3666400">
    <ele>5443.7</ele>
    <time>2026-06-23T02:09:08Z</time>
   </trkpt>
   <trkpt lat="-3.0829160" lon="37.3666380">
    <ele>5443.7</ele>
    <time>2026-06-23T02:09:09Z</time>
   </trkpt>
   <trkpt lat="-3.0829150" lon="37.3666400">
    <ele>5443.8</ele>
    <time>2026-06-23T02:09:10Z</time>
   </trkpt>
   <trkpt lat="-3.0829160" lon="37.3666400">
    <ele>5443.8</ele>
    <time>2026-06-23T02:09:11Z</time>
   </trkpt>
   <trkpt lat="-3.0829160" lon="37.3666400">
    <ele>5443.8</ele>
    <time>2026-06-23T02:09:12Z</time>
   </trkpt>
   <trkpt lat="-3.0829160" lon="37.3666400">
    <ele>5443.8</ele>
    <time>2026-06-23T02:09:13Z</time>
   </trkpt>
   <trkpt lat="-3.0829160" lon="37.3666390">
    <ele>5443.8</ele>
    <time>2026-06-23T02:09:14Z</time>
   </trkpt>
   <trkpt lat="-3.0829150" lon="37.3666400">
    <ele>5443.9</ele>
    <time>2026-06-23T02:09:15Z</time>
   </trkpt>
   <trkpt lat="-3.0829160" lon="37.3666400">
    <ele>5443.9</ele>
    <time>2026-06-23T02:09:16Z</time>
   </trkpt>
   <trkpt lat="-3.0829160" lon="37.3666410">
    <ele>5443.9</ele>
    <time>2026-06-23T02:09:17Z</time>
   </trkpt>
   <trkpt lat="-3.0829160" lon="37.3666410">
    <ele>5443.9</ele>
    <time>2026-06-23T02:09:18Z</time>
   </trkpt>
   <trkpt lat="-3.0829170" lon="37.3666410">
    <ele>5443.9</ele>
    <time>2026-06-23T02:09:19Z</time>
   </trkpt>
   <trkpt lat="-3.0829170" lon="37.3666410">
    <ele>5443.9</ele>
    <time>2026-06-23T02:09:20Z</time>
   </trkpt>
   <trkpt lat="-3.0829160" lon="37.3666400">
    <ele>5444.0</ele>
    <time>2026-06-23T02:09:21Z</time>
   </trkpt>
   <trkpt lat="-3.0829160" lon="37.3666400">
    <ele>5444.0</ele>
    <time>2026-06-23T02:09:22Z</time>
   </trkpt>
   <trkpt lat="-3.0829160" lon="37.3666410">
    <ele>5444.0</ele>
    <time>2026-06-23T02:09:23Z</time>
   </trkpt>
   <trkpt lat="-3.0829160" lon="37.3666400">
    <ele>5444.0</ele>
    <time>2026-06-23T02:09:24Z</time>
   </trkpt>
   <trkpt lat="-3.0829160" lon="37.3666410">
    <ele>5444.0</ele>
    <time>2026-06-23T02:09:25Z</time>
   </trkpt>
   <trkpt lat="-3.0829160" lon="37.3666410">
    <ele>5444.0</ele>
    <time>2026-06-23T02:09:26Z</time>
   </trkpt>
   <trkpt lat="-3.0829160" lon="37.3666410">
    <ele>5444.0</ele>
    <time>2026-06-23T02:09:27Z</time>
   </trkpt>
   <trkpt lat="-3.0829150" lon="37.3666410">
    <ele>5444.1</ele>
    <time>2026-06-23T02:09:28Z</time>
   </trkpt>
   <trkpt lat="-3.0829160" lon="37.3666420">
    <ele>5444.1</ele>
    <time>2026-06-23T02:09:29Z</time>
   </trkpt>
   <trkpt lat="-3.0829160" lon="37.3666410">
    <ele>5444.1</ele>
    <time>2026-06-23T02:09:30Z</time>
   </trkpt>
   <trkpt lat="-3.0829150" lon="37.3666420">
    <ele>5444.1</ele>
    <time>2026-06-23T02:09:31Z</time>
   </trkpt>
   <trkpt lat="-3.0829150" lon="37.3666420">
    <ele>5444.1</ele>
    <time>2026-06-23T02:09:32Z</time>
   </trkpt>
   <trkpt lat="-3.0829150" lon="37.3666420">
    <ele>5444.1</ele>
    <time>2026-06-23T02:09:33Z</time>
   </trkpt>
   <trkpt lat="-3.0829150" lon="37.3666420">
    <ele>5444.1</ele>
    <time>2026-06-23T02:09:34Z</time>
   </trkpt>
   <trkpt lat="-3.0829140" lon="37.3666410">
    <ele>5444.2</ele>
    <time>2026-06-23T02:09:35Z</time>
   </trkpt>
   <trkpt lat="-3.0829150" lon="37.3666430">
    <ele>5444.2</ele>
    <time>2026-06-23T02:09:36Z</time>
   </trkpt>
   <trkpt lat="-3.0829140" lon="37.3666410">
    <ele>5444.3</ele>
    <time>2026-06-23T02:09:37Z</time>
   </trkpt>
   <trkpt lat="-3.0829140" lon="37.3666410">
    <ele>5444.3</ele>
    <time>2026-06-23T02:09:38Z</time>
   </trkpt>
   <trkpt lat="-3.0829140" lon="37.3666420">
    <ele>5444.3</ele>
    <time>2026-06-23T02:09:39Z</time>
   </trkpt>
   <trkpt lat="-3.0829140" lon="37.3666420">
    <ele>5444.3</ele>
    <time>2026-06-23T02:09:40Z</time>
   </trkpt>
   <trkpt lat="-3.0829140" lon="37.3666430">
    <ele>5444.3</ele>
    <time>2026-06-23T02:09:41Z</time>
   </trkpt>
   <trkpt lat="-3.0829140" lon="37.3666430">
    <ele>5444.3</ele>
    <time>2026-06-23T02:09:42Z</time>
   </trkpt>
   <trkpt lat="-3.0829140" lon="37.3666430">
    <ele>5444.3</ele>
    <time>2026-06-23T02:09:43Z</time>
   </trkpt>
   <trkpt lat="-3.0829130" lon="37.3666410">
    <ele>5444.4</ele>
    <time>2026-06-23T02:09:44Z</time>
   </trkpt>
   <trkpt lat="-3.0829140" lon="37.3666420">
    <ele>5444.4</ele>
    <time>2026-06-23T02:09:45Z</time>
   </trkpt>
   <trkpt lat="-3.0829150" lon="37.3666410">
    <ele>5444.5</ele>
    <time>2026-06-23T02:09:46Z</time>
   </trkpt>
   <trkpt lat="-3.0829150" lon="37.3666410">
    <ele>5444.5</ele>
    <time>2026-06-23T02:09:47Z</time>
   </trkpt>
   <trkpt lat="-3.0829150" lon="37.3666410">
    <ele>5444.5</ele>
    <time>2026-06-23T02:09:48Z</time>
   </trkpt>
   <trkpt lat="-3.0829150" lon="37.3666410">
    <ele>5444.5</ele>
    <time>2026-06-23T02:09:49Z</time>
   </trkpt>
   <trkpt lat="-3.0829140" lon="37.3666410">
    <ele>5444.5</ele>
    <time>2026-06-23T02:09:50Z</time>
   </trkpt>
   <trkpt lat="-3.0829140" lon="37.3666420">
    <ele>5444.5</ele>
    <time>2026-06-23T02:09:51Z</time>
   </trkpt>
   <trkpt lat="-3.0829140" lon="37.3666410">
    <ele>5444.5</ele>
    <time>2026-06-23T02:09:52Z</time>
   </trkpt>
   <trkpt lat="-3.0829140" lon="37.3666410">
    <ele>5444.5</ele>
    <time>2026-06-23T02:09:53Z</time>
   </trkpt>
   <trkpt lat="-3.0829140" lon="37.3666410">
    <ele>5444.5</ele>
    <time>2026-06-23T02:09:54Z</time>
   </trkpt>
   <trkpt lat="-3.0829120" lon="37.3666410">
    <ele>5444.6</ele>
    <time>2026-06-23T02:09:55Z</time>
   </trkpt>
   <trkpt lat="-3.0829120" lon="37.3666410">
    <ele>5444.6</ele>
    <time>2026-06-23T02:09:56Z</time>
   </trkpt>
   <trkpt lat="-3.0829130" lon="37.3666420">
    <ele>5444.6</ele>
    <time>2026-06-23T02:09:57Z</time>
   </trkpt>
   <trkpt lat="-3.0829130" lon="37.3666420">
    <ele>5444.6</ele>
    <time>2026-06-23T02:09:58Z</time>
   </trkpt>
   <trkpt lat="-3.0829120" lon="37.3666410">
    <ele>5444.6</ele>
    <time>2026-06-23T02:09:59Z</time>
   </trkpt>
   <trkpt lat="-3.0829120" lon="37.3666410">
    <ele>5444.6</ele>
    <time>2026-06-23T02:10:00Z</time>
   </trkpt>
   <trkpt lat="-3.0829130" lon="37.3666420">
    <ele>5444.7</ele>
    <time>2026-06-23T02:10:01Z</time>
   </trkpt>
   <trkpt lat="-3.0829130" lon="37.3666410">
    <ele>5444.7</ele>
    <time>2026-06-23T02:10:02Z</time>
   </trkpt>
   <trkpt lat="-3.0829140" lon="37.3666420">
    <ele>5444.7</ele>
    <time>2026-06-23T02:10:03Z</time>
   </trkpt>
   <trkpt lat="-3.0829130" lon="37.3666420">
    <ele>5444.8</ele>
    <time>2026-06-23T02:10:04Z</time>
   </trkpt>
   <trkpt lat="-3.0829140" lon="37.3666420">
    <ele>5444.8</ele>
    <time>2026-06-23T02:10:06Z</time>
   </trkpt>
   <trkpt lat="-3.0829130" lon="37.3666430">
    <ele>5444.8</ele>
    <time>2026-06-23T02:10:07Z</time>
   </trkpt>
   <trkpt lat="-3.0829130" lon="37.3666410">
    <ele>5444.9</ele>
    <time>2026-06-23T02:10:08Z</time>
   </trkpt>
   <trkpt lat="-3.0829130" lon="37.3666420">
    <ele>5444.9</ele>
    <time>2026-06-23T02:10:09Z</time>
   </trkpt>
   <trkpt lat="-3.0829120" lon="37.3666430">
    <ele>5444.9</ele>
    <time>2026-06-23T02:10:10Z</time>
   </trkpt>
   <trkpt lat="-3.0829130" lon="37.3666430">
    <ele>5444.9</ele>
    <time>2026-06-23T02:10:11Z</time>
   </trkpt>
   <trkpt lat="-3.0829130" lon="37.3666430">
    <ele>5444.9</ele>
    <time>2026-06-23T02:10:12Z</time>
   </trkpt>
   <trkpt lat="-3.0829130" lon="37.3666430">
    <ele>5444.9</ele>
    <time>2026-06-23T02:10:13Z</time>
   </trkpt>
   <trkpt lat="-3.0829130" lon="37.3666410">
    <ele>5445.0</ele>
    <time>2026-06-23T02:10:14Z</time>
   </trkpt>
   <trkpt lat="-3.0829120" lon="37.3666420">
    <ele>5445.0</ele>
    <time>2026-06-23T02:10:15Z</time>
   </trkpt>
   <trkpt lat="-3.0829130" lon="37.3666420">
    <ele>5445.0</ele>
    <time>2026-06-23T02:10:16Z</time>
   </trkpt>
   <trkpt lat="-3.0829130" lon="37.3666420">
    <ele>5445.0</ele>
    <time>2026-06-23T02:10:17Z</time>
   </trkpt>
   <trkpt lat="-3.0829130" lon="37.3666420">
    <ele>5445.0</ele>
    <time>2026-06-23T02:10:18Z</time>
   </trkpt>
   <trkpt lat="-3.0829130" lon="37.3666420">
    <ele>5445.0</ele>
    <time>2026-06-23T02:10:19Z</time>
   </trkpt>
   <trkpt lat="-3.0829130" lon="37.3666420">
    <ele>5445.0</ele>
    <time>2026-06-23T02:10:20Z</time>
   </trkpt>
   <trkpt lat="-3.0829130" lon="37.3666420">
    <ele>5445.0</ele>
    <time>2026-06-23T02:10:21Z</time>
   </trkpt>
   <trkpt lat="-3.0829140" lon="37.3666420">
    <ele>5445.1</ele>
    <time>2026-06-23T02:10:22Z</time>
   </trkpt>
   <trkpt lat="-3.0829140" lon="37.3666430">
    <ele>5445.1</ele>
    <time>2026-06-23T02:10:23Z</time>
   </trkpt>
   <trkpt lat="-3.0829150" lon="37.3666440">
    <ele>5445.1</ele>
    <time>2026-06-23T02:10:24Z</time>
   </trkpt>
   <trkpt lat="-3.0829150" lon="37.3666450">
    <ele>5445.2</ele>
    <time>2026-06-23T02:10:25Z</time>
   </trkpt>
   <trkpt lat="-3.0829150" lon="37.3666450">
    <ele>5445.2</ele>
    <time>2026-06-23T02:10:26Z</time>
   </trkpt>
   <trkpt lat="-3.0829150" lon="37.3666450">
    <ele>5445.2</ele>
    <time>2026-06-23T02:10:27Z</time>
   </trkpt>
   <trkpt lat="-3.0829150" lon="37.3666450">
    <ele>5445.2</ele>
    <time>2026-06-23T02:10:28Z</time>
   </trkpt>
   <trkpt lat="-3.0829140" lon="37.3666440">
    <ele>5445.2</ele>
    <time>2026-06-23T02:10:29Z</time>
   </trkpt>
   <trkpt lat="-3.0829140" lon="37.3666450">
    <ele>5445.2</ele>
    <time>2026-06-23T02:10:30Z</time>
   </trkpt>
   <trkpt lat="-3.0829150" lon="37.3666440">
    <ele>5445.2</ele>
    <time>2026-06-23T02:10:31Z</time>
   </trkpt>
   <trkpt lat="-3.0829140" lon="37.3666440">
    <ele>5445.3</ele>
    <time>2026-06-23T02:10:32Z</time>
   </trkpt>
   <trkpt lat="-3.0829150" lon="37.3666440">
    <ele>5445.3</ele>
    <time>2026-06-23T02:10:33Z</time>
   </trkpt>
   <trkpt lat="-3.0829150" lon="37.3666440">
    <ele>5445.3</ele>
    <time>2026-06-23T02:10:34Z</time>
   </trkpt>
   <trkpt lat="-3.0829150" lon="37.3666440">
    <ele>5445.3</ele>
    <time>2026-06-23T02:10:35Z</time>
   </trkpt>
   <trkpt lat="-3.0829150" lon="37.3666430">
    <ele>5445.3</ele>
    <time>2026-06-23T02:10:36Z</time>
   </trkpt>
   <trkpt lat="-3.0829150" lon="37.3666430">
    <ele>5445.3</ele>
    <time>2026-06-23T02:10:37Z</time>
   </trkpt>
   <trkpt lat="-3.0829160" lon="37.3666430">
    <ele>5445.3</ele>
    <time>2026-06-23T02:10:38Z</time>
   </trkpt>
   <trkpt lat="-3.0829160" lon="37.3666430">
    <ele>5445.3</ele>
    <time>2026-06-23T02:10:39Z</time>
   </trkpt>
   <trkpt lat="-3.0829160" lon="37.3666420">
    <ele>5445.4</ele>
    <time>2026-06-23T02:10:40Z</time>
   </trkpt>
   <trkpt lat="-3.0829160" lon="37.3666420">
    <ele>5445.4</ele>
    <time>2026-06-23T02:10:41Z</time>
   </trkpt>
   <trkpt lat="-3.0829160" lon="37.3666420">
    <ele>5445.4</ele>
    <time>2026-06-23T02:10:42Z</time>
   </trkpt>
   <trkpt lat="-3.0829150" lon="37.3666410">
    <ele>5445.4</ele>
    <time>2026-06-23T02:10:43Z</time>
   </trkpt>
   <trkpt lat="-3.0829150" lon="37.3666410">
    <ele>5445.4</ele>
    <time>2026-06-23T02:10:44Z</time>
   </trkpt>
   <trkpt lat="-3.0829150" lon="37.3666410">
    <ele>5445.4</ele>
    <time>2026-06-23T02:10:45Z</time>
   </trkpt>
   <trkpt lat="-3.0829150" lon="37.3666410">
    <ele>5445.4</ele>
    <time>2026-06-23T02:10:46Z</time>
   </trkpt>
   <trkpt lat="-3.0829150" lon="37.3666400">
    <ele>5445.4</ele>
    <time>2026-06-23T02:10:47Z</time>
   </trkpt>
   <trkpt lat="-3.0829180" lon="37.3666380">
    <ele>5445.5</ele>
    <time>2026-06-23T02:10:48Z</time>
   </trkpt>
   <trkpt lat="-3.0829180" lon="37.3666370">
    <ele>5445.5</ele>
    <time>2026-06-23T02:10:49Z</time>
   </trkpt>
   <trkpt lat="-3.0829200" lon="37.3666340">
    <ele>5445.6</ele>
    <time>2026-06-23T02:10:50Z</time>
   </trkpt>
   <trkpt lat="-3.0829220" lon="37.3666320">
    <ele>5445.7</ele>
    <time>2026-06-23T02:10:51Z</time>
   </trkpt>
   <trkpt lat="-3.0829220" lon="37.3666290">
    <ele>5445.8</ele>
    <time>2026-06-23T02:10:52Z</time>
   </trkpt>
   <trkpt lat="-3.0829240" lon="37.3666270">
    <ele>5445.8</ele>
    <time>2026-06-23T02:10:53Z</time>
   </trkpt>
   <trkpt lat="-3.0829240" lon="37.3666240">
    <ele>5445.9</ele>
    <time>2026-06-23T02:10:54Z</time>
   </trkpt>
   <trkpt lat="-3.0829240" lon="37.3666240">
    <ele>5445.9</ele>
    <time>2026-06-23T02:10:55Z</time>
   </trkpt>
   <trkpt lat="-3.0829230" lon="37.3666190">
    <ele>5446.0</ele>
    <time>2026-06-23T02:10:56Z</time>
   </trkpt>
   <trkpt lat="-3.0829190" lon="37.3666150">
    <ele>5446.2</ele>
    <time>2026-06-23T02:10:57Z</time>
   </trkpt>
   <trkpt lat="-3.0829180" lon="37.3666170">
    <ele>5446.2</ele>
    <time>2026-06-23T02:10:58Z</time>
   </trkpt>
   <trkpt lat="-3.0829170" lon="37.3666160">
    <ele>5446.2</ele>
    <time>2026-06-23T02:10:59Z</time>
   </trkpt>
   <trkpt lat="-3.0829150" lon="37.3666150">
    <ele>5446.3</ele>
    <time>2026-06-23T02:11:00Z</time>
   </trkpt>
   <trkpt lat="-3.0829130" lon="37.3666160">
    <ele>5446.3</ele>
    <time>2026-06-23T02:11:01Z</time>
   </trkpt>
   <trkpt lat="-3.0829110" lon="37.3666160">
    <ele>5446.4</ele>
    <time>2026-06-23T02:11:02Z</time>
   </trkpt>
   <trkpt lat="-3.0829080" lon="37.3666150">
    <ele>5446.5</ele>
    <time>2026-06-23T02:11:03Z</time>
   </trkpt>
   <trkpt lat="-3.0829070" lon="37.3666140">
    <ele>5446.5</ele>
    <time>2026-06-23T02:11:04Z</time>
   </trkpt>
   <trkpt lat="-3.0829050" lon="37.3666120">
    <ele>5446.6</ele>
    <time>2026-06-23T02:11:05Z</time>
   </trkpt>
   <trkpt lat="-3.0829030" lon="37.3666090">
    <ele>5446.7</ele>
    <time>2026-06-23T02:11:06Z</time>
   </trkpt>
   <trkpt lat="-3.0829030" lon="37.3666100">
    <ele>5446.7</ele>
    <time>2026-06-23T02:11:07Z</time>
   </trkpt>
   <trkpt lat="-3.0829000" lon="37.3666080">
    <ele>5446.8</ele>
    <time>2026-06-23T02:11:08Z</time>
   </trkpt>
   <trkpt lat="-3.0828980" lon="37.3666060">
    <ele>5446.8</ele>
    <time>2026-06-23T02:11:09Z</time>
   </trkpt>
   <trkpt lat="-3.0828950" lon="37.3666060">
    <ele>5446.9</ele>
    <time>2026-06-23T02:11:10Z</time>
   </trkpt>
   <trkpt lat="-3.0828920" lon="37.3666060">
    <ele>5447.0</ele>
    <time>2026-06-23T02:11:11Z</time>
   </trkpt>
   <trkpt lat="-3.0828890" lon="37.3666090">
    <ele>5447.1</ele>
    <time>2026-06-23T02:11:12Z</time>
   </trkpt>
   <trkpt lat="-3.0828880" lon="37.3666100">
    <ele>5447.1</ele>
    <time>2026-06-23T02:11:13Z</time>
   </trkpt>
   <trkpt lat="-3.0828870" lon="37.3666080">
    <ele>5447.2</ele>
    <time>2026-06-23T02:11:14Z</time>
   </trkpt>
   <trkpt lat="-3.0828870" lon="37.3666060">
    <ele>5447.2</ele>
    <time>2026-06-23T02:11:15Z</time>
   </trkpt>
   <trkpt lat="-3.0828830" lon="37.3666030">
    <ele>5447.3</ele>
    <time>2026-06-23T02:11:16Z</time>
   </trkpt>
   <trkpt lat="-3.0828810" lon="37.3666030">
    <ele>5447.4</ele>
    <time>2026-06-23T02:11:17Z</time>
   </trkpt>
   <trkpt lat="-3.0828790" lon="37.3666010">
    <ele>5447.5</ele>
    <time>2026-06-23T02:11:18Z</time>
   </trkpt>
   <trkpt lat="-3.0828780" lon="37.3666010">
    <ele>5447.5</ele>
    <time>2026-06-23T02:11:19Z</time>
   </trkpt>
   <trkpt lat="-3.0828780" lon="37.3666010">
    <ele>5447.5</ele>
    <time>2026-06-23T02:11:20Z</time>
   </trkpt>
   <trkpt lat="-3.0828770" lon="37.3666000">
    <ele>5447.5</ele>
    <time>2026-06-23T02:11:21Z</time>
   </trkpt>
   <trkpt lat="-3.0828740" lon="37.3666010">
    <ele>5447.6</ele>
    <time>2026-06-23T02:11:22Z</time>
   </trkpt>
   <trkpt lat="-3.0828700" lon="37.3665960">
    <ele>5447.7</ele>
    <time>2026-06-23T02:11:23Z</time>
   </trkpt>
   <trkpt lat="-3.0828690" lon="37.3665970">
    <ele>5447.8</ele>
    <time>2026-06-23T02:11:24Z</time>
   </trkpt>
   <trkpt lat="-3.0828660" lon="37.3665950">
    <ele>5447.9</ele>
    <time>2026-06-23T02:11:25Z</time>
   </trkpt>
   <trkpt lat="-3.0828640" lon="37.3665950">
    <ele>5447.9</ele>
    <time>2026-06-23T02:11:26Z</time>
   </trkpt>
   <trkpt lat="-3.0828600" lon="37.3665930">
    <ele>5448.0</ele>
    <time>2026-06-23T02:11:27Z</time>
   </trkpt>
   <trkpt lat="-3.0828570" lon="37.3665930">
    <ele>5448.1</ele>
    <time>2026-06-23T02:11:28Z</time>
   </trkpt>
   <trkpt lat="-3.0828530" lon="37.3665930">
    <ele>5448.2</ele>
    <time>2026-06-23T02:11:29Z</time>
   </trkpt>
   <trkpt lat="-3.0828510" lon="37.3665950">
    <ele>5448.2</ele>
    <time>2026-06-23T02:11:30Z</time>
   </trkpt>
   <trkpt lat="-3.0828490" lon="37.3665990">
    <ele>5448.4</ele>
    <time>2026-06-23T02:11:31Z</time>
   </trkpt>
   <trkpt lat="-3.0828470" lon="37.3666010">
    <ele>5448.4</ele>
    <time>2026-06-23T02:11:32Z</time>
   </trkpt>
   <trkpt lat="-3.0828440" lon="37.3666010">
    <ele>5448.5</ele>
    <time>2026-06-23T02:11:33Z</time>
   </trkpt>
   <trkpt lat="-3.0828430" lon="37.3666030">
    <ele>5448.5</ele>
    <time>2026-06-23T02:11:34Z</time>
   </trkpt>
   <trkpt lat="-3.0828410" lon="37.3666040">
    <ele>5448.6</ele>
    <time>2026-06-23T02:11:35Z</time>
   </trkpt>
   <trkpt lat="-3.0828390" lon="37.3666060">
    <ele>5448.7</ele>
    <time>2026-06-23T02:11:36Z</time>
   </trkpt>
   <trkpt lat="-3.0828360" lon="37.3666070">
    <ele>5448.7</ele>
    <time>2026-06-23T02:11:37Z</time>
   </trkpt>
   <trkpt lat="-3.0828330" lon="37.3666070">
    <ele>5448.8</ele>
    <time>2026-06-23T02:11:38Z</time>
   </trkpt>
   <trkpt lat="-3.0828310" lon="37.3666050">
    <ele>5448.9</ele>
    <time>2026-06-23T02:11:39Z</time>
   </trkpt>
   <trkpt lat="-3.0828290" lon="37.3666050">
    <ele>5448.9</ele>
    <time>2026-06-23T02:11:40Z</time>
   </trkpt>
   <trkpt lat="-3.0828260" lon="37.3666020">
    <ele>5449.0</ele>
    <time>2026-06-23T02:11:41Z</time>
   </trkpt>
   <trkpt lat="-3.0828240" lon="37.3666000">
    <ele>5449.1</ele>
    <time>2026-06-23T02:11:42Z</time>
   </trkpt>
   <trkpt lat="-3.0828230" lon="37.3666020">
    <ele>5449.2</ele>
    <time>2026-06-23T02:11:43Z</time>
   </trkpt>
   <trkpt lat="-3.0828220" lon="37.3666010">
    <ele>5449.2</ele>
    <time>2026-06-23T02:11:44Z</time>
   </trkpt>
   <trkpt lat="-3.0828210" lon="37.3666000">
    <ele>5449.2</ele>
    <time>2026-06-23T02:11:45Z</time>
   </trkpt>
   <trkpt lat="-3.0828210" lon="37.3666010">
    <ele>5449.2</ele>
    <time>2026-06-23T02:11:46Z</time>
   </trkpt>
   <trkpt lat="-3.0828200" lon="37.3665980">
    <ele>5449.3</ele>
    <time>2026-06-23T02:11:47Z</time>
   </trkpt>
   <trkpt lat="-3.0828180" lon="37.3665960">
    <ele>5449.4</ele>
    <time>2026-06-23T02:11:48Z</time>
   </trkpt>
   <trkpt lat="-3.0828180" lon="37.3665950">
    <ele>5449.4</ele>
    <time>2026-06-23T02:11:49Z</time>
   </trkpt>
   <trkpt lat="-3.0828160" lon="37.3665940">
    <ele>5449.5</ele>
    <time>2026-06-23T02:11:50Z</time>
   </trkpt>
   <trkpt lat="-3.0828160" lon="37.3665900">
    <ele>5449.6</ele>
    <time>2026-06-23T02:11:51Z</time>
   </trkpt>
   <trkpt lat="-3.0828160" lon="37.3665870">
    <ele>5449.6</ele>
    <time>2026-06-23T02:11:52Z</time>
   </trkpt>
   <trkpt lat="-3.0828170" lon="37.3665860">
    <ele>5449.7</ele>
    <time>2026-06-23T02:11:53Z</time>
   </trkpt>
   <trkpt lat="-3.0828160" lon="37.3665820">
    <ele>5449.8</ele>
    <time>2026-06-23T02:11:54Z</time>
   </trkpt>
   <trkpt lat="-3.0828180" lon="37.3665830">
    <ele>5449.8</ele>
    <time>2026-06-23T02:11:55Z</time>
   </trkpt>
   <trkpt lat="-3.0828180" lon="37.3665800">
    <ele>5449.9</ele>
    <time>2026-06-23T02:11:56Z</time>
   </trkpt>
   <trkpt lat="-3.0828200" lon="37.3665790">
    <ele>5449.9</ele>
    <time>2026-06-23T02:11:57Z</time>
   </trkpt>
   <trkpt lat="-3.0828200" lon="37.3665750">
    <ele>5450.0</ele>
    <time>2026-06-23T02:11:58Z</time>
   </trkpt>
   <trkpt lat="-3.0828210" lon="37.3665770">
    <ele>5450.1</ele>
    <time>2026-06-23T02:11:59Z</time>
   </trkpt>
   <trkpt lat="-3.0828220" lon="37.3665730">
    <ele>5450.2</ele>
    <time>2026-06-23T02:12:00Z</time>
   </trkpt>
   <trkpt lat="-3.0828220" lon="37.3665720">
    <ele>5450.2</ele>
    <time>2026-06-23T02:12:01Z</time>
   </trkpt>
   <trkpt lat="-3.0828220" lon="37.3665690">
    <ele>5450.3</ele>
    <time>2026-06-23T02:12:02Z</time>
   </trkpt>
   <trkpt lat="-3.0828200" lon="37.3665660">
    <ele>5450.4</ele>
    <time>2026-06-23T02:12:03Z</time>
   </trkpt>
   <trkpt lat="-3.0828210" lon="37.3665660">
    <ele>5450.4</ele>
    <time>2026-06-23T02:12:04Z</time>
   </trkpt>
   <trkpt lat="-3.0828190" lon="37.3665640">
    <ele>5450.5</ele>
    <time>2026-06-23T02:12:05Z</time>
   </trkpt>
   <trkpt lat="-3.0828190" lon="37.3665640">
    <ele>5450.5</ele>
    <time>2026-06-23T02:12:06Z</time>
   </trkpt>
   <trkpt lat="-3.0828180" lon="37.3665600">
    <ele>5450.6</ele>
    <time>2026-06-23T02:12:07Z</time>
   </trkpt>
   <trkpt lat="-3.0828180" lon="37.3665580">
    <ele>5450.6</ele>
    <time>2026-06-23T02:12:08Z</time>
   </trkpt>
   <trkpt lat="-3.0828160" lon="37.3665550">
    <ele>5450.7</ele>
    <time>2026-06-23T02:12:09Z</time>
   </trkpt>
   <trkpt lat="-3.0828140" lon="37.3665540">
    <ele>5450.8</ele>
    <time>2026-06-23T02:12:10Z</time>
   </trkpt>
   <trkpt lat="-3.0828140" lon="37.3665520">
    <ele>5450.8</ele>
    <time>2026-06-23T02:12:12Z</time>
   </trkpt>
   <trkpt lat="-3.0828140" lon="37.3665500">
    <ele>5450.8</ele>
    <time>2026-06-23T02:12:13Z</time>
   </trkpt>
   <trkpt lat="-3.0828140" lon="37.3665500">
    <ele>5450.8</ele>
    <time>2026-06-23T02:12:14Z</time>
   </trkpt>
   <trkpt lat="-3.0828150" lon="37.3665480">
    <ele>5450.9</ele>
    <time>2026-06-23T02:12:15Z</time>
   </trkpt>
   <trkpt lat="-3.0828150" lon="37.3665460">
    <ele>5450.9</ele>
    <time>2026-06-23T02:12:16Z</time>
   </trkpt>
   <trkpt lat="-3.0828170" lon="37.3665440">
    <ele>5451.0</ele>
    <time>2026-06-23T02:12:17Z</time>
   </trkpt>
   <trkpt lat="-3.0828190" lon="37.3665410">
    <ele>5451.1</ele>
    <time>2026-06-23T02:12:18Z</time>
   </trkpt>
   <trkpt lat="-3.0828210" lon="37.3665420">
    <ele>5451.2</ele>
    <time>2026-06-23T02:12:19Z</time>
   </trkpt>
   <trkpt lat="-3.0828220" lon="37.3665410">
    <ele>5451.2</ele>
    <time>2026-06-23T02:12:20Z</time>
   </trkpt>
   <trkpt lat="-3.0828240" lon="37.3665380">
    <ele>5451.3</ele>
    <time>2026-06-23T02:12:21Z</time>
   </trkpt>
   <trkpt lat="-3.0828260" lon="37.3665380">
    <ele>5451.3</ele>
    <time>2026-06-23T02:12:22Z</time>
   </trkpt>
   <trkpt lat="-3.0828300" lon="37.3665380">
    <ele>5451.4</ele>
    <time>2026-06-23T02:12:23Z</time>
   </trkpt>
   <trkpt lat="-3.0828330" lon="37.3665370">
    <ele>5451.5</ele>
    <time>2026-06-23T02:12:24Z</time>
   </trkpt>
   <trkpt lat="-3.0828350" lon="37.3665370">
    <ele>5451.5</ele>
    <time>2026-06-23T02:12:25Z</time>
   </trkpt>
   <trkpt lat="-3.0828380" lon="37.3665350">
    <ele>5451.6</ele>
    <time>2026-06-23T02:12:26Z</time>
   </trkpt>
   <trkpt lat="-3.0828390" lon="37.3665330">
    <ele>5451.7</ele>
    <time>2026-06-23T02:12:27Z</time>
   </trkpt>
   <trkpt lat="-3.0828390" lon="37.3665320">
    <ele>5451.7</ele>
    <time>2026-06-23T02:12:28Z</time>
   </trkpt>
   <trkpt lat="-3.0828400" lon="37.3665320">
    <ele>5451.7</ele>
    <time>2026-06-23T02:12:29Z</time>
   </trkpt>
   <trkpt lat="-3.0828400" lon="37.3665320">
    <ele>5451.7</ele>
    <time>2026-06-23T02:12:30Z</time>
   </trkpt>
   <trkpt lat="-3.0828410" lon="37.3665250">
    <ele>5451.9</ele>
    <time>2026-06-23T02:12:31Z</time>
   </trkpt>
   <trkpt lat="-3.0828400" lon="37.3665270">
    <ele>5452.0</ele>
    <time>2026-06-23T02:12:32Z</time>
   </trkpt>
   <trkpt lat="-3.0828400" lon="37.3665250">
    <ele>5452.0</ele>
    <time>2026-06-23T02:12:33Z</time>
   </trkpt>
   <trkpt lat="-3.0828400" lon="37.3665240">
    <ele>5452.0</ele>
    <time>2026-06-23T02:12:34Z</time>
   </trkpt>
   <trkpt lat="-3.0828400" lon="37.3665220">
    <ele>5452.1</ele>
    <time>2026-06-23T02:12:35Z</time>
   </trkpt>
   <trkpt lat="-3.0828390" lon="37.3665180">
    <ele>5452.2</ele>
    <time>2026-06-23T02:12:36Z</time>
   </trkpt>
   <trkpt lat="-3.0828380" lon="37.3665150">
    <ele>5452.2</ele>
    <time>2026-06-23T02:12:37Z</time>
   </trkpt>
   <trkpt lat="-3.0828370" lon="37.3665140">
    <ele>5452.3</ele>
    <time>2026-06-23T02:12:38Z</time>
   </trkpt>
   <trkpt lat="-3.0828360" lon="37.3665120">
    <ele>5452.3</ele>
    <time>2026-06-23T02:12:39Z</time>
   </trkpt>
   <trkpt lat="-3.0828350" lon="37.3665110">
    <ele>5452.4</ele>
    <time>2026-06-23T02:12:40Z</time>
   </trkpt>
   <trkpt lat="-3.0828350" lon="37.3665100">
    <ele>5452.4</ele>
    <time>2026-06-23T02:12:41Z</time>
   </trkpt>
   <trkpt lat="-3.0828330" lon="37.3665080">
    <ele>5452.5</ele>
    <time>2026-06-23T02:12:42Z</time>
   </trkpt>
   <trkpt lat="-3.0828330" lon="37.3665060">
    <ele>5452.5</ele>
    <time>2026-06-23T02:12:43Z</time>
   </trkpt>
   <trkpt lat="-3.0828320" lon="37.3665050">
    <ele>5452.5</ele>
    <time>2026-06-23T02:12:44Z</time>
   </trkpt>
   <trkpt lat="-3.0828300" lon="37.3665030">
    <ele>5452.6</ele>
    <time>2026-06-23T02:12:45Z</time>
   </trkpt>
   <trkpt lat="-3.0828280" lon="37.3665030">
    <ele>5452.7</ele>
    <time>2026-06-23T02:12:46Z</time>
   </trkpt>
   <trkpt lat="-3.0828270" lon="37.3665020">
    <ele>5452.7</ele>
    <time>2026-06-23T02:12:47Z</time>
   </trkpt>
   <trkpt lat="-3.0828260" lon="37.3665020">
    <ele>5452.7</ele>
    <time>2026-06-23T02:12:48Z</time>
   </trkpt>
   <trkpt lat="-3.0828260" lon="37.3665030">
    <ele>5452.7</ele>
    <time>2026-06-23T02:12:49Z</time>
   </trkpt>
   <trkpt lat="-3.0828270" lon="37.3665030">
    <ele>5452.8</ele>
    <time>2026-06-23T02:12:50Z</time>
   </trkpt>
   <trkpt lat="-3.0828270" lon="37.3665030">
    <ele>5452.8</ele>
    <time>2026-06-23T02:12:51Z</time>
   </trkpt>
   <trkpt lat="-3.0828250" lon="37.3665010">
    <ele>5452.8</ele>
    <time>2026-06-23T02:12:52Z</time>
   </trkpt>
   <trkpt lat="-3.0828250" lon="37.3665020">
    <ele>5452.9</ele>
    <time>2026-06-23T02:12:53Z</time>
   </trkpt>
   <trkpt lat="-3.0828220" lon="37.3665000">
    <ele>5452.9</ele>
    <time>2026-06-23T02:12:54Z</time>
   </trkpt>
   <trkpt lat="-3.0828210" lon="37.3664980">
    <ele>5453.0</ele>
    <time>2026-06-23T02:12:55Z</time>
   </trkpt>
   <trkpt lat="-3.0828190" lon="37.3664980">
    <ele>5453.0</ele>
    <time>2026-06-23T02:12:56Z</time>
   </trkpt>
   <trkpt lat="-3.0828180" lon="37.3664970">
    <ele>5453.1</ele>
    <time>2026-06-23T02:12:57Z</time>
   </trkpt>
   <trkpt lat="-3.0828160" lon="37.3664960">
    <ele>5453.1</ele>
    <time>2026-06-23T02:12:58Z</time>
   </trkpt>
   <trkpt lat="-3.0828140" lon="37.3664960">
    <ele>5453.2</ele>
    <time>2026-06-23T02:12:59Z</time>
   </trkpt>
   <trkpt lat="-3.0828140" lon="37.3664940">
    <ele>5453.2</ele>
    <time>2026-06-23T02:13:00Z</time>
   </trkpt>
   <trkpt lat="-3.0828110" lon="37.3664930">
    <ele>5453.3</ele>
    <time>2026-06-23T02:13:01Z</time>
   </trkpt>
   <trkpt lat="-3.0828100" lon="37.3664920">
    <ele>5453.3</ele>
    <time>2026-06-23T02:13:02Z</time>
   </trkpt>
   <trkpt lat="-3.0828080" lon="37.3664910">
    <ele>5453.4</ele>
    <time>2026-06-23T02:13:03Z</time>
   </trkpt>
   <trkpt lat="-3.0828080" lon="37.3664920">
    <ele>5453.4</ele>
    <time>2026-06-23T02:13:04Z</time>
   </trkpt>
   <trkpt lat="-3.0828070" lon="37.3664920">
    <ele>5453.4</ele>
    <time>2026-06-23T02:13:05Z</time>
   </trkpt>
   <trkpt lat="-3.0828030" lon="37.3664890">
    <ele>5453.6</ele>
    <time>2026-06-23T02:13:06Z</time>
   </trkpt>
   <trkpt lat="-3.0828010" lon="37.3664880">
    <ele>5453.6</ele>
    <time>2026-06-23T02:13:07Z</time>
   </trkpt>
   <trkpt lat="-3.0827990" lon="37.3664890">
    <ele>5453.7</ele>
    <time>2026-06-23T02:13:08Z</time>
   </trkpt>
   <trkpt lat="-3.0827950" lon="37.3664900">
    <ele>5453.8</ele>
    <time>2026-06-23T02:13:09Z</time>
   </trkpt>
   <trkpt lat="-3.0827930" lon="37.3664910">
    <ele>5453.8</ele>
    <time>2026-06-23T02:13:10Z</time>
   </trkpt>
   <trkpt lat="-3.0827910" lon="37.3664920">
    <ele>5453.9</ele>
    <time>2026-06-23T02:13:11Z</time>
   </trkpt>
   <trkpt lat="-3.0827900" lon="37.3664930">
    <ele>5453.9</ele>
    <time>2026-06-23T02:13:12Z</time>
   </trkpt>
   <trkpt lat="-3.0827880" lon="37.3664930">
    <ele>5453.9</ele>
    <time>2026-06-23T02:13:13Z</time>
   </trkpt>
   <trkpt lat="-3.0827870" lon="37.3664940">
    <ele>5454.0</ele>
    <time>2026-06-23T02:13:14Z</time>
   </trkpt>
   <trkpt lat="-3.0827860" lon="37.3664940">
    <ele>5454.0</ele>
    <time>2026-06-23T02:13:15Z</time>
   </trkpt>
   <trkpt lat="-3.0827840" lon="37.3664950">
    <ele>5454.1</ele>
    <time>2026-06-23T02:13:16Z</time>
   </trkpt>
   <trkpt lat="-3.0827820" lon="37.3664940">
    <ele>5454.1</ele>
    <time>2026-06-23T02:13:17Z</time>
   </trkpt>
   <trkpt lat="-3.0827800" lon="37.3664950">
    <ele>5454.2</ele>
    <time>2026-06-23T02:13:18Z</time>
   </trkpt>
   <trkpt lat="-3.0827790" lon="37.3664950">
    <ele>5454.2</ele>
    <time>2026-06-23T02:13:19Z</time>
   </trkpt>
   <trkpt lat="-3.0827780" lon="37.3664950">
    <ele>5454.2</ele>
    <time>2026-06-23T02:13:20Z</time>
   </trkpt>
   <trkpt lat="-3.0827760" lon="37.3664960">
    <ele>5454.3</ele>
    <time>2026-06-23T02:13:21Z</time>
   </trkpt>
   <trkpt lat="-3.0827760" lon="37.3664960">
    <ele>5454.3</ele>
    <time>2026-06-23T02:13:22Z</time>
   </trkpt>
   <trkpt lat="-3.0827740" lon="37.3664960">
    <ele>5454.3</ele>
    <time>2026-06-23T02:13:23Z</time>
   </trkpt>
   <trkpt lat="-3.0827730" lon="37.3664970">
    <ele>5454.4</ele>
    <time>2026-06-23T02:13:24Z</time>
   </trkpt>
   <trkpt lat="-3.0827710" lon="37.3664960">
    <ele>5454.4</ele>
    <time>2026-06-23T02:13:25Z</time>
   </trkpt>
   <trkpt lat="-3.0827680" lon="37.3664950">
    <ele>5454.5</ele>
    <time>2026-06-23T02:13:26Z</time>
   </trkpt>
   <trkpt lat="-3.0827680" lon="37.3664930">
    <ele>5454.5</ele>
    <time>2026-06-23T02:13:27Z</time>
   </trkpt>
   <trkpt lat="-3.0827660" lon="37.3664930">
    <ele>5454.6</ele>
    <time>2026-06-23T02:13:28Z</time>
   </trkpt>
   <trkpt lat="-3.0827660" lon="37.3664910">
    <ele>5454.6</ele>
    <time>2026-06-23T02:13:29Z</time>
   </trkpt>
   <trkpt lat="-3.0827630" lon="37.3664890">
    <ele>5454.7</ele>
    <time>2026-06-23T02:13:30Z</time>
   </trkpt>
   <trkpt lat="-3.0827640" lon="37.3664860">
    <ele>5454.8</ele>
    <time>2026-06-23T02:13:31Z</time>
   </trkpt>
   <trkpt lat="-3.0827630" lon="37.3664840">
    <ele>5454.8</ele>
    <time>2026-06-23T02:13:32Z</time>
   </trkpt>
   <trkpt lat="-3.0827640" lon="37.3664820">
    <ele>5454.9</ele>
    <time>2026-06-23T02:13:33Z</time>
   </trkpt>
   <trkpt lat="-3.0827630" lon="37.3664820">
    <ele>5454.9</ele>
    <time>2026-06-23T02:13:34Z</time>
   </trkpt>
   <trkpt lat="-3.0827640" lon="37.3664810">
    <ele>5454.9</ele>
    <time>2026-06-23T02:13:35Z</time>
   </trkpt>
   <trkpt lat="-3.0827630" lon="37.3664770">
    <ele>5455.0</ele>
    <time>2026-06-23T02:13:36Z</time>
   </trkpt>
   <trkpt lat="-3.0827650" lon="37.3664750">
    <ele>5455.1</ele>
    <time>2026-06-23T02:13:37Z</time>
   </trkpt>
   <trkpt lat="-3.0827670" lon="37.3664700">
    <ele>5455.2</ele>
    <time>2026-06-23T02:13:38Z</time>
   </trkpt>
   <trkpt lat="-3.0827670" lon="37.3664700">
    <ele>5455.2</ele>
    <time>2026-06-23T02:13:39Z</time>
   </trkpt>
   <trkpt lat="-3.0827680" lon="37.3664650">
    <ele>5455.4</ele>
    <time>2026-06-23T02:13:40Z</time>
   </trkpt>
   <trkpt lat="-3.0827690" lon="37.3664620">
    <ele>5455.4</ele>
    <time>2026-06-23T02:13:41Z</time>
   </trkpt>
   <trkpt lat="-3.0827690" lon="37.3664610">
    <ele>5455.5</ele>
    <time>2026-06-23T02:13:42Z</time>
   </trkpt>
   <trkpt lat="-3.0827700" lon="37.3664580">
    <ele>5455.5</ele>
    <time>2026-06-23T02:13:43Z</time>
   </trkpt>
   <trkpt lat="-3.0827690" lon="37.3664580">
    <ele>5455.6</ele>
    <time>2026-06-23T02:13:44Z</time>
   </trkpt>
   <trkpt lat="-3.0827690" lon="37.3664540">
    <ele>5455.7</ele>
    <time>2026-06-23T02:13:45Z</time>
   </trkpt>
   <trkpt lat="-3.0827660" lon="37.3664510">
    <ele>5455.8</ele>
    <time>2026-06-23T02:13:46Z</time>
   </trkpt>
   <trkpt lat="-3.0827670" lon="37.3664490">
    <ele>5455.8</ele>
    <time>2026-06-23T02:13:47Z</time>
   </trkpt>
   <trkpt lat="-3.0827650" lon="37.3664500">
    <ele>5455.9</ele>
    <time>2026-06-23T02:13:48Z</time>
   </trkpt>
   <trkpt lat="-3.0827630" lon="37.3664460">
    <ele>5456.0</ele>
    <time>2026-06-23T02:13:49Z</time>
   </trkpt>
   <trkpt lat="-3.0827600" lon="37.3664470">
    <ele>5456.1</ele>
    <time>2026-06-23T02:13:50Z</time>
   </trkpt>
   <trkpt lat="-3.0827540" lon="37.3664470">
    <ele>5456.2</ele>
    <time>2026-06-23T02:13:51Z</time>
   </trkpt>
   <trkpt lat="-3.0827530" lon="37.3664490">
    <ele>5456.2</ele>
    <time>2026-06-23T02:13:52Z</time>
   </trkpt>
   <trkpt lat="-3.0827510" lon="37.3664490">
    <ele>5456.3</ele>
    <time>2026-06-23T02:13:53Z</time>
   </trkpt>
   <trkpt lat="-3.0827490" lon="37.3664510">
    <ele>5456.4</ele>
    <time>2026-06-23T02:13:54Z</time>
   </trkpt>
   <trkpt lat="-3.0827460" lon="37.3664490">
    <ele>5456.4</ele>
    <time>2026-06-23T02:13:55Z</time>
   </trkpt>
   <trkpt lat="-3.0827440" lon="37.3664510">
    <ele>5456.5</ele>
    <time>2026-06-23T02:13:56Z</time>
   </trkpt>
   <trkpt lat="-3.0827420" lon="37.3664520">
    <ele>5456.6</ele>
    <time>2026-06-23T02:13:57Z</time>
   </trkpt>
   <trkpt lat="-3.0827410" lon="37.3664550">
    <ele>5456.6</ele>
    <time>2026-06-23T02:13:58Z</time>
   </trkpt>
   <trkpt lat="-3.0827400" lon="37.3664560">
    <ele>5456.7</ele>
    <time>2026-06-23T02:13:59Z</time>
   </trkpt>
   <trkpt lat="-3.0827390" lon="37.3664580">
    <ele>5456.7</ele>
    <time>2026-06-23T02:14:00Z</time>
   </trkpt>
   <trkpt lat="-3.0827380" lon="37.3664590">
    <ele>5456.8</ele>
    <time>2026-06-23T02:14:01Z</time>
   </trkpt>
   <trkpt lat="-3.0827360" lon="37.3664610">
    <ele>5456.8</ele>
    <time>2026-06-23T02:14:02Z</time>
   </trkpt>
   <trkpt lat="-3.0827340" lon="37.3664610">
    <ele>5456.9</ele>
    <time>2026-06-23T02:14:03Z</time>
   </trkpt>
   <trkpt lat="-3.0827310" lon="37.3664610">
    <ele>5457.0</ele>
    <time>2026-06-23T02:14:04Z</time>
   </trkpt>
   <trkpt lat="-3.0827290" lon="37.3664620">
    <ele>5457.0</ele>
    <time>2026-06-23T02:14:05Z</time>
   </trkpt>
   <trkpt lat="-3.0827280" lon="37.3664600">
    <ele>5457.1</ele>
    <time>2026-06-23T02:14:06Z</time>
   </trkpt>
   <trkpt lat="-3.0827270" lon="37.3664590">
    <ele>5457.1</ele>
    <time>2026-06-23T02:14:07Z</time>
   </trkpt>
   <trkpt lat="-3.0827240" lon="37.3664580">
    <ele>5457.2</ele>
    <time>2026-06-23T02:14:08Z</time>
   </trkpt>
   <trkpt lat="-3.0827240" lon="37.3664550">
    <ele>5457.2</ele>
    <time>2026-06-23T02:14:09Z</time>
   </trkpt>
   <trkpt lat="-3.0827230" lon="37.3664550">
    <ele>5457.3</ele>
    <time>2026-06-23T02:14:10Z</time>
   </trkpt>
   <trkpt lat="-3.0827230" lon="37.3664540">
    <ele>5457.3</ele>
    <time>2026-06-23T02:14:11Z</time>
   </trkpt>
   <trkpt lat="-3.0827230" lon="37.3664500">
    <ele>5457.4</ele>
    <time>2026-06-23T02:14:12Z</time>
   </trkpt>
   <trkpt lat="-3.0827220" lon="37.3664490">
    <ele>5457.4</ele>
    <time>2026-06-23T02:14:13Z</time>
   </trkpt>
   <trkpt lat="-3.0827230" lon="37.3664460">
    <ele>5457.5</ele>
    <time>2026-06-23T02:14:14Z</time>
   </trkpt>
   <trkpt lat="-3.0827220" lon="37.3664440">
    <ele>5457.5</ele>
    <time>2026-06-23T02:14:15Z</time>
   </trkpt>
   <trkpt lat="-3.0827250" lon="37.3664410">
    <ele>5457.7</ele>
    <time>2026-06-23T02:14:17Z</time>
   </trkpt>
   <trkpt lat="-3.0827240" lon="37.3664400">
    <ele>5457.7</ele>
    <time>2026-06-23T02:14:18Z</time>
   </trkpt>
   <trkpt lat="-3.0827260" lon="37.3664380">
    <ele>5457.8</ele>
    <time>2026-06-23T02:14:19Z</time>
   </trkpt>
   <trkpt lat="-3.0827260" lon="37.3664350">
    <ele>5457.8</ele>
    <time>2026-06-23T02:14:20Z</time>
   </trkpt>
   <trkpt lat="-3.0827270" lon="37.3664350">
    <ele>5457.8</ele>
    <time>2026-06-23T02:14:21Z</time>
   </trkpt>
   <trkpt lat="-3.0827280" lon="37.3664310">
    <ele>5457.9</ele>
    <time>2026-06-23T02:14:22Z</time>
   </trkpt>
   <trkpt lat="-3.0827290" lon="37.3664280">
    <ele>5458.0</ele>
    <time>2026-06-23T02:14:23Z</time>
   </trkpt>
   <trkpt lat="-3.0827290" lon="37.3664240">
    <ele>5458.1</ele>
    <time>2026-06-23T02:14:24Z</time>
   </trkpt>
   <trkpt lat="-3.0827290" lon="37.3664220">
    <ele>5458.2</ele>
    <time>2026-06-23T02:14:25Z</time>
   </trkpt>
   <trkpt lat="-3.0827260" lon="37.3664220">
    <ele>5458.2</ele>
    <time>2026-06-23T02:14:26Z</time>
   </trkpt>
   <trkpt lat="-3.0827270" lon="37.3664200">
    <ele>5458.3</ele>
    <time>2026-06-23T02:14:27Z</time>
   </trkpt>
   <trkpt lat="-3.0827250" lon="37.3664200">
    <ele>5458.3</ele>
    <time>2026-06-23T02:14:28Z</time>
   </trkpt>
   <trkpt lat="-3.0827240" lon="37.3664180">
    <ele>5458.4</ele>
    <time>2026-06-23T02:14:29Z</time>
   </trkpt>
   <trkpt lat="-3.0827220" lon="37.3664180">
    <ele>5458.4</ele>
    <time>2026-06-23T02:14:30Z</time>
   </trkpt>
   <trkpt lat="-3.0827210" lon="37.3664170">
    <ele>5458.5</ele>
    <time>2026-06-23T02:14:31Z</time>
   </trkpt>
   <trkpt lat="-3.0827200" lon="37.3664170">
    <ele>5458.5</ele>
    <time>2026-06-23T02:14:32Z</time>
   </trkpt>
   <trkpt lat="-3.0827180" lon="37.3664160">
    <ele>5458.6</ele>
    <time>2026-06-23T02:14:33Z</time>
   </trkpt>
   <trkpt lat="-3.0827170" lon="37.3664150">
    <ele>5458.6</ele>
    <time>2026-06-23T02:14:34Z</time>
   </trkpt>
   <trkpt lat="-3.0827140" lon="37.3664150">
    <ele>5458.7</ele>
    <time>2026-06-23T02:14:35Z</time>
   </trkpt>
   <trkpt lat="-3.0827100" lon="37.3664170">
    <ele>5458.8</ele>
    <time>2026-06-23T02:14:36Z</time>
   </trkpt>
   <trkpt lat="-3.0827090" lon="37.3664170">
    <ele>5458.8</ele>
    <time>2026-06-23T02:14:37Z</time>
   </trkpt>
   <trkpt lat="-3.0827060" lon="37.3664170">
    <ele>5458.9</ele>
    <time>2026-06-23T02:14:38Z</time>
   </trkpt>
   <trkpt lat="-3.0827040" lon="37.3664170">
    <ele>5458.9</ele>
    <time>2026-06-23T02:14:39Z</time>
   </trkpt>
   <trkpt lat="-3.0827030" lon="37.3664180">
    <ele>5458.9</ele>
    <time>2026-06-23T02:14:40Z</time>
   </trkpt>
   <trkpt lat="-3.0827030" lon="37.3664190">
    <ele>5459.0</ele>
    <time>2026-06-23T02:14:41Z</time>
   </trkpt>
   <trkpt lat="-3.0827020" lon="37.3664200">
    <ele>5459.0</ele>
    <time>2026-06-23T02:14:42Z</time>
   </trkpt>
   <trkpt lat="-3.0827000" lon="37.3664210">
    <ele>5459.0</ele>
    <time>2026-06-23T02:14:43Z</time>
   </trkpt>
   <trkpt lat="-3.0826980" lon="37.3664220">
    <ele>5459.1</ele>
    <time>2026-06-23T02:14:44Z</time>
   </trkpt>
   <trkpt lat="-3.0826960" lon="37.3664230">
    <ele>5459.1</ele>
    <time>2026-06-23T02:14:45Z</time>
   </trkpt>
   <trkpt lat="-3.0826940" lon="37.3664240">
    <ele>5459.2</ele>
    <time>2026-06-23T02:14:46Z</time>
   </trkpt>
   <trkpt lat="-3.0826910" lon="37.3664240">
    <ele>5459.2</ele>
    <time>2026-06-23T02:14:47Z</time>
   </trkpt>
   <trkpt lat="-3.0826900" lon="37.3664240">
    <ele>5459.3</ele>
    <time>2026-06-23T02:14:48Z</time>
   </trkpt>
   <trkpt lat="-3.0826900" lon="37.3664240">
    <ele>5459.3</ele>
    <time>2026-06-23T02:14:49Z</time>
   </trkpt>
   <trkpt lat="-3.0826890" lon="37.3664240">
    <ele>5459.3</ele>
    <time>2026-06-23T02:14:50Z</time>
   </trkpt>
   <trkpt lat="-3.0826890" lon="37.3664240">
    <ele>5459.3</ele>
    <time>2026-06-23T02:14:51Z</time>
   </trkpt>
   <trkpt lat="-3.0826890" lon="37.3664240">
    <ele>5459.3</ele>
    <time>2026-06-23T02:14:52Z</time>
   </trkpt>
   <trkpt lat="-3.0826890" lon="37.3664240">
    <ele>5459.3</ele>
    <time>2026-06-23T02:14:53Z</time>
   </trkpt>
   <trkpt lat="-3.0826860" lon="37.3664220">
    <ele>5459.4</ele>
    <time>2026-06-23T02:14:54Z</time>
   </trkpt>
   <trkpt lat="-3.0826840" lon="37.3664230">
    <ele>5459.4</ele>
    <time>2026-06-23T02:14:55Z</time>
   </trkpt>
   <trkpt lat="-3.0826810" lon="37.3664210">
    <ele>5459.5</ele>
    <time>2026-06-23T02:14:56Z</time>
   </trkpt>
   <trkpt lat="-3.0826790" lon="37.3664200">
    <ele>5459.6</ele>
    <time>2026-06-23T02:14:57Z</time>
   </trkpt>
   <trkpt lat="-3.0826770" lon="37.3664190">
    <ele>5459.6</ele>
    <time>2026-06-23T02:14:58Z</time>
   </trkpt>
   <trkpt lat="-3.0826760" lon="37.3664210">
    <ele>5459.7</ele>
    <time>2026-06-23T02:14:59Z</time>
   </trkpt>
   <trkpt lat="-3.0826740" lon="37.3664200">
    <ele>5459.7</ele>
    <time>2026-06-23T02:15:00Z</time>
   </trkpt>
   <trkpt lat="-3.0826720" lon="37.3664200">
    <ele>5459.7</ele>
    <time>2026-06-23T02:15:01Z</time>
   </trkpt>
   <trkpt lat="-3.0826700" lon="37.3664200">
    <ele>5459.8</ele>
    <time>2026-06-23T02:15:02Z</time>
   </trkpt>
   <trkpt lat="-3.0826680" lon="37.3664210">
    <ele>5459.8</ele>
    <time>2026-06-23T02:15:03Z</time>
   </trkpt>
   <trkpt lat="-3.0826660" lon="37.3664210">
    <ele>5459.9</ele>
    <time>2026-06-23T02:15:04Z</time>
   </trkpt>
   <trkpt lat="-3.0826640" lon="37.3664240">
    <ele>5460.0</ele>
    <time>2026-06-23T02:15:05Z</time>
   </trkpt>
   <trkpt lat="-3.0826630" lon="37.3664240">
    <ele>5460.0</ele>
    <time>2026-06-23T02:15:06Z</time>
   </trkpt>
   <trkpt lat="-3.0826620" lon="37.3664250">
    <ele>5460.0</ele>
    <time>2026-06-23T02:15:07Z</time>
   </trkpt>
   <trkpt lat="-3.0826600" lon="37.3664260">
    <ele>5460.1</ele>
    <time>2026-06-23T02:15:08Z</time>
   </trkpt>
   <trkpt lat="-3.0826580" lon="37.3664280">
    <ele>5460.1</ele>
    <time>2026-06-23T02:15:09Z</time>
   </trkpt>
   <trkpt lat="-3.0826580" lon="37.3664290">
    <ele>5460.2</ele>
    <time>2026-06-23T02:15:10Z</time>
   </trkpt>
   <trkpt lat="-3.0826560" lon="37.3664310">
    <ele>5460.2</ele>
    <time>2026-06-23T02:15:11Z</time>
   </trkpt>
   <trkpt lat="-3.0826560" lon="37.3664330">
    <ele>5460.3</ele>
    <time>2026-06-23T02:15:12Z</time>
   </trkpt>
   <trkpt lat="-3.0826540" lon="37.3664340">
    <ele>5460.3</ele>
    <time>2026-06-23T02:15:13Z</time>
   </trkpt>
   <trkpt lat="-3.0826540" lon="37.3664340">
    <ele>5460.3</ele>
    <time>2026-06-23T02:15:14Z</time>
   </trkpt>
   <trkpt lat="-3.0826520" lon="37.3664350">
    <ele>5460.4</ele>
    <time>2026-06-23T02:15:15Z</time>
   </trkpt>
   <trkpt lat="-3.0826520" lon="37.3664360">
    <ele>5460.4</ele>
    <time>2026-06-23T02:15:16Z</time>
   </trkpt>
   <trkpt lat="-3.0826510" lon="37.3664360">
    <ele>5460.4</ele>
    <time>2026-06-23T02:15:17Z</time>
   </trkpt>
   <trkpt lat="-3.0826500" lon="37.3664370">
    <ele>5460.4</ele>
    <time>2026-06-23T02:15:18Z</time>
   </trkpt>
   <trkpt lat="-3.0826490" lon="37.3664380">
    <ele>5460.5</ele>
    <time>2026-06-23T02:15:19Z</time>
   </trkpt>
   <trkpt lat="-3.0826490" lon="37.3664380">
    <ele>5460.5</ele>
    <time>2026-06-23T02:15:20Z</time>
   </trkpt>
   <trkpt lat="-3.0826480" lon="37.3664380">
    <ele>5460.5</ele>
    <time>2026-06-23T02:15:21Z</time>
   </trkpt>
   <trkpt lat="-3.0826470" lon="37.3664410">
    <ele>5460.6</ele>
    <time>2026-06-23T02:15:22Z</time>
   </trkpt>
   <trkpt lat="-3.0826450" lon="37.3664410">
    <ele>5460.6</ele>
    <time>2026-06-23T02:15:23Z</time>
   </trkpt>
   <trkpt lat="-3.0826440" lon="37.3664410">
    <ele>5460.6</ele>
    <time>2026-06-23T02:15:24Z</time>
   </trkpt>
   <trkpt lat="-3.0826410" lon="37.3664410">
    <ele>5460.7</ele>
    <time>2026-06-23T02:15:25Z</time>
   </trkpt>
   <trkpt lat="-3.0826390" lon="37.3664420">
    <ele>5460.7</ele>
    <time>2026-06-23T02:15:26Z</time>
   </trkpt>
   <trkpt lat="-3.0826370" lon="37.3664400">
    <ele>5460.8</ele>
    <time>2026-06-23T02:15:27Z</time>
   </trkpt>
   <trkpt lat="-3.0826360" lon="37.3664410">
    <ele>5460.8</ele>
    <time>2026-06-23T02:15:28Z</time>
   </trkpt>
   <trkpt lat="-3.0826330" lon="37.3664380">
    <ele>5460.9</ele>
    <time>2026-06-23T02:15:29Z</time>
   </trkpt>
   <trkpt lat="-3.0826310" lon="37.3664380">
    <ele>5461.0</ele>
    <time>2026-06-23T02:15:30Z</time>
   </trkpt>
   <trkpt lat="-3.0826310" lon="37.3664340">
    <ele>5461.1</ele>
    <time>2026-06-23T02:15:31Z</time>
   </trkpt>
   <trkpt lat="-3.0826300" lon="37.3664330">
    <ele>5461.1</ele>
    <time>2026-06-23T02:15:32Z</time>
   </trkpt>
   <trkpt lat="-3.0826300" lon="37.3664300">
    <ele>5461.2</ele>
    <time>2026-06-23T02:15:33Z</time>
   </trkpt>
   <trkpt lat="-3.0826290" lon="37.3664280">
    <ele>5461.2</ele>
    <time>2026-06-23T02:15:34Z</time>
   </trkpt>
   <trkpt lat="-3.0826300" lon="37.3664260">
    <ele>5461.3</ele>
    <time>2026-06-23T02:15:35Z</time>
   </trkpt>
   <trkpt lat="-3.0826280" lon="37.3664240">
    <ele>5461.3</ele>
    <time>2026-06-23T02:15:36Z</time>
   </trkpt>
   <trkpt lat="-3.0826280" lon="37.3664220">
    <ele>5461.4</ele>
    <time>2026-06-23T02:15:37Z</time>
   </trkpt>
   <trkpt lat="-3.0826260" lon="37.3664210">
    <ele>5461.4</ele>
    <time>2026-06-23T02:15:38Z</time>
   </trkpt>
   <trkpt lat="-3.0826270" lon="37.3664190">
    <ele>5461.5</ele>
    <time>2026-06-23T02:15:39Z</time>
   </trkpt>
   <trkpt lat="-3.0826250" lon="37.3664180">
    <ele>5461.5</ele>
    <time>2026-06-23T02:15:40Z</time>
   </trkpt>
   <trkpt lat="-3.0826250" lon="37.3664160">
    <ele>5461.5</ele>
    <time>2026-06-23T02:15:41Z</time>
   </trkpt>
   <trkpt lat="-3.0826230" lon="37.3664150">
    <ele>5461.6</ele>
    <time>2026-06-23T02:15:42Z</time>
   </trkpt>
   <trkpt lat="-3.0826220" lon="37.3664110">
    <ele>5461.7</ele>
    <time>2026-06-23T02:15:43Z</time>
   </trkpt>
   <trkpt lat="-3.0826210" lon="37.3664110">
    <ele>5461.7</ele>
    <time>2026-06-23T02:15:44Z</time>
   </trkpt>
   <trkpt lat="-3.0826220" lon="37.3664090">
    <ele>5461.8</ele>
    <time>2026-06-23T02:15:45Z</time>
   </trkpt>
   <trkpt lat="-3.0826220" lon="37.3664080">
    <ele>5461.8</ele>
    <time>2026-06-23T02:15:46Z</time>
   </trkpt>
   <trkpt lat="-3.0826210" lon="37.3664080">
    <ele>5461.8</ele>
    <time>2026-06-23T02:15:47Z</time>
   </trkpt>
   <trkpt lat="-3.0826200" lon="37.3664030">
    <ele>5461.9</ele>
    <time>2026-06-23T02:15:48Z</time>
   </trkpt>
   <trkpt lat="-3.0826200" lon="37.3664030">
    <ele>5461.9</ele>
    <time>2026-06-23T02:15:49Z</time>
   </trkpt>
   <trkpt lat="-3.0826200" lon="37.3664010">
    <ele>5461.9</ele>
    <time>2026-06-23T02:15:50Z</time>
   </trkpt>
   <trkpt lat="-3.0826180" lon="37.3664000">
    <ele>5462.0</ele>
    <time>2026-06-23T02:15:51Z</time>
   </trkpt>
   <trkpt lat="-3.0826170" lon="37.3664000">
    <ele>5462.0</ele>
    <time>2026-06-23T02:15:52Z</time>
   </trkpt>
   <trkpt lat="-3.0826150" lon="37.3663990">
    <ele>5462.1</ele>
    <time>2026-06-23T02:15:53Z</time>
   </trkpt>
   <trkpt lat="-3.0826150" lon="37.3663960">
    <ele>5462.1</ele>
    <time>2026-06-23T02:15:54Z</time>
   </trkpt>
   <trkpt lat="-3.0826120" lon="37.3663980">
    <ele>5462.2</ele>
    <time>2026-06-23T02:15:55Z</time>
   </trkpt>
   <trkpt lat="-3.0826090" lon="37.3663980">
    <ele>5462.3</ele>
    <time>2026-06-23T02:15:56Z</time>
   </trkpt>
   <trkpt lat="-3.0826080" lon="37.3663990">
    <ele>5462.3</ele>
    <time>2026-06-23T02:15:57Z</time>
   </trkpt>
   <trkpt lat="-3.0826060" lon="37.3664010">
    <ele>5462.4</ele>
    <time>2026-06-23T02:15:58Z</time>
   </trkpt>
   <trkpt lat="-3.0826050" lon="37.3664030">
    <ele>5462.4</ele>
    <time>2026-06-23T02:15:59Z</time>
   </trkpt>
   <trkpt lat="-3.0826030" lon="37.3664040">
    <ele>5462.5</ele>
    <time>2026-06-23T02:16:00Z</time>
   </trkpt>
   <trkpt lat="-3.0826010" lon="37.3664050">
    <ele>5462.5</ele>
    <time>2026-06-23T02:16:01Z</time>
   </trkpt>
   <trkpt lat="-3.0825990" lon="37.3664050">
    <ele>5462.6</ele>
    <time>2026-06-23T02:16:02Z</time>
   </trkpt>
   <trkpt lat="-3.0825970" lon="37.3664060">
    <ele>5462.6</ele>
    <time>2026-06-23T02:16:03Z</time>
   </trkpt>
   <trkpt lat="-3.0825950" lon="37.3664040">
    <ele>5462.7</ele>
    <time>2026-06-23T02:16:04Z</time>
   </trkpt>
   <trkpt lat="-3.0825940" lon="37.3664040">
    <ele>5462.7</ele>
    <time>2026-06-23T02:16:05Z</time>
   </trkpt>
   <trkpt lat="-3.0825920" lon="37.3664020">
    <ele>5462.7</ele>
    <time>2026-06-23T02:16:06Z</time>
   </trkpt>
   <trkpt lat="-3.0825920" lon="37.3663990">
    <ele>5462.8</ele>
    <time>2026-06-23T02:16:07Z</time>
   </trkpt>
   <trkpt lat="-3.0825920" lon="37.3664000">
    <ele>5462.8</ele>
    <time>2026-06-23T02:16:08Z</time>
   </trkpt>
   <trkpt lat="-3.0825900" lon="37.3663990">
    <ele>5462.9</ele>
    <time>2026-06-23T02:16:09Z</time>
   </trkpt>
   <trkpt lat="-3.0825890" lon="37.3663960">
    <ele>5462.9</ele>
    <time>2026-06-23T02:16:10Z</time>
   </trkpt>
   <trkpt lat="-3.0825850" lon="37.3663960">
    <ele>5463.0</ele>
    <time>2026-06-23T02:16:11Z</time>
   </trkpt>
   <trkpt lat="-3.0825840" lon="37.3663940">
    <ele>5463.1</ele>
    <time>2026-06-23T02:16:12Z</time>
   </trkpt>
   <trkpt lat="-3.0825820" lon="37.3663930">
    <ele>5463.1</ele>
    <time>2026-06-23T02:16:13Z</time>
   </trkpt>
   <trkpt lat="-3.0825800" lon="37.3663930">
    <ele>5463.2</ele>
    <time>2026-06-23T02:16:14Z</time>
   </trkpt>
   <trkpt lat="-3.0825770" lon="37.3663910">
    <ele>5463.2</ele>
    <time>2026-06-23T02:16:15Z</time>
   </trkpt>
   <trkpt lat="-3.0825740" lon="37.3663890">
    <ele>5463.3</ele>
    <time>2026-06-23T02:16:16Z</time>
   </trkpt>
   <trkpt lat="-3.0825720" lon="37.3663900">
    <ele>5463.3</ele>
    <time>2026-06-23T02:16:17Z</time>
   </trkpt>
   <trkpt lat="-3.0825690" lon="37.3663870">
    <ele>5463.4</ele>
    <time>2026-06-23T02:16:18Z</time>
   </trkpt>
   <trkpt lat="-3.0825670" lon="37.3663880">
    <ele>5463.5</ele>
    <time>2026-06-23T02:16:19Z</time>
   </trkpt>
   <trkpt lat="-3.0825650" lon="37.3663850">
    <ele>5463.5</ele>
    <time>2026-06-23T02:16:20Z</time>
   </trkpt>
   <trkpt lat="-3.0825620" lon="37.3663850">
    <ele>5463.6</ele>
    <time>2026-06-23T02:16:21Z</time>
   </trkpt>
   <trkpt lat="-3.0825600" lon="37.3663820">
    <ele>5463.7</ele>
    <time>2026-06-23T02:16:23Z</time>
   </trkpt>
   <trkpt lat="-3.0825590" lon="37.3663840">
    <ele>5463.7</ele>
    <time>2026-06-23T02:16:24Z</time>
   </trkpt>
   <trkpt lat="-3.0825580" lon="37.3663790">
    <ele>5463.8</ele>
    <time>2026-06-23T02:16:25Z</time>
   </trkpt>
   <trkpt lat="-3.0825570" lon="37.3663810">
    <ele>5463.9</ele>
    <time>2026-06-23T02:16:26Z</time>
   </trkpt>
   <trkpt lat="-3.0825570" lon="37.3663790">
    <ele>5463.9</ele>
    <time>2026-06-23T02:16:27Z</time>
   </trkpt>
   <trkpt lat="-3.0825570" lon="37.3663780">
    <ele>5463.9</ele>
    <time>2026-06-23T02:16:28Z</time>
   </trkpt>
   <trkpt lat="-3.0825550" lon="37.3663780">
    <ele>5463.9</ele>
    <time>2026-06-23T02:16:29Z</time>
   </trkpt>
   <trkpt lat="-3.0825550" lon="37.3663760">
    <ele>5464.0</ele>
    <time>2026-06-23T02:16:30Z</time>
   </trkpt>
   <trkpt lat="-3.0825530" lon="37.3663750">
    <ele>5464.0</ele>
    <time>2026-06-23T02:16:31Z</time>
   </trkpt>
   <trkpt lat="-3.0825520" lon="37.3663730">
    <ele>5464.1</ele>
    <time>2026-06-23T02:16:32Z</time>
   </trkpt>
   <trkpt lat="-3.0825500" lon="37.3663730">
    <ele>5464.1</ele>
    <time>2026-06-23T02:16:33Z</time>
   </trkpt>
   <trkpt lat="-3.0825490" lon="37.3663700">
    <ele>5464.2</ele>
    <time>2026-06-23T02:16:34Z</time>
   </trkpt>
   <trkpt lat="-3.0825480" lon="37.3663700">
    <ele>5464.2</ele>
    <time>2026-06-23T02:16:35Z</time>
   </trkpt>
   <trkpt lat="-3.0825460" lon="37.3663680">
    <ele>5464.2</ele>
    <time>2026-06-23T02:16:36Z</time>
   </trkpt>
   <trkpt lat="-3.0825450" lon="37.3663690">
    <ele>5464.3</ele>
    <time>2026-06-23T02:16:37Z</time>
   </trkpt>
   <trkpt lat="-3.0825450" lon="37.3663680">
    <ele>5464.3</ele>
    <time>2026-06-23T02:16:38Z</time>
   </trkpt>
   <trkpt lat="-3.0825440" lon="37.3663660">
    <ele>5464.3</ele>
    <time>2026-06-23T02:16:39Z</time>
   </trkpt>
   <trkpt lat="-3.0825430" lon="37.3663650">
    <ele>5464.4</ele>
    <time>2026-06-23T02:16:40Z</time>
   </trkpt>
   <trkpt lat="-3.0825420" lon="37.3663630">
    <ele>5464.4</ele>
    <time>2026-06-23T02:16:41Z</time>
   </trkpt>
   <trkpt lat="-3.0825410" lon="37.3663610">
    <ele>5464.5</ele>
    <time>2026-06-23T02:16:42Z</time>
   </trkpt>
   <trkpt lat="-3.0825400" lon="37.3663580">
    <ele>5464.5</ele>
    <time>2026-06-23T02:16:43Z</time>
   </trkpt>
   <trkpt lat="-3.0825390" lon="37.3663580">
    <ele>5464.5</ele>
    <time>2026-06-23T02:16:44Z</time>
   </trkpt>
   <trkpt lat="-3.0825380" lon="37.3663560">
    <ele>5464.6</ele>
    <time>2026-06-23T02:16:45Z</time>
   </trkpt>
   <trkpt lat="-3.0825390" lon="37.3663530">
    <ele>5464.6</ele>
    <time>2026-06-23T02:16:46Z</time>
   </trkpt>
   <trkpt lat="-3.0825370" lon="37.3663510">
    <ele>5464.7</ele>
    <time>2026-06-23T02:16:47Z</time>
   </trkpt>
   <trkpt lat="-3.0825370" lon="37.3663480">
    <ele>5464.7</ele>
    <time>2026-06-23T02:16:48Z</time>
   </trkpt>
   <trkpt lat="-3.0825340" lon="37.3663490">
    <ele>5464.8</ele>
    <time>2026-06-23T02:16:49Z</time>
   </trkpt>
   <trkpt lat="-3.0825340" lon="37.3663460">
    <ele>5464.9</ele>
    <time>2026-06-23T02:16:50Z</time>
   </trkpt>
   <trkpt lat="-3.0825320" lon="37.3663450">
    <ele>5464.9</ele>
    <time>2026-06-23T02:16:51Z</time>
   </trkpt>
   <trkpt lat="-3.0825300" lon="37.3663440">
    <ele>5465.0</ele>
    <time>2026-06-23T02:16:52Z</time>
   </trkpt>
   <trkpt lat="-3.0825290" lon="37.3663430">
    <ele>5465.0</ele>
    <time>2026-06-23T02:16:53Z</time>
   </trkpt>
   <trkpt lat="-3.0825270" lon="37.3663430">
    <ele>5465.0</ele>
    <time>2026-06-23T02:16:54Z</time>
   </trkpt>
   <trkpt lat="-3.0825260" lon="37.3663430">
    <ele>5465.0</ele>
    <time>2026-06-23T02:16:55Z</time>
   </trkpt>
   <trkpt lat="-3.0825240" lon="37.3663440">
    <ele>5465.1</ele>
    <time>2026-06-23T02:16:56Z</time>
   </trkpt>
   <trkpt lat="-3.0825220" lon="37.3663410">
    <ele>5465.2</ele>
    <time>2026-06-23T02:16:57Z</time>
   </trkpt>
   <trkpt lat="-3.0825200" lon="37.3663420">
    <ele>5465.2</ele>
    <time>2026-06-23T02:16:58Z</time>
   </trkpt>
   <trkpt lat="-3.0825170" lon="37.3663420">
    <ele>5465.3</ele>
    <time>2026-06-23T02:16:59Z</time>
   </trkpt>
   <trkpt lat="-3.0825160" lon="37.3663430">
    <ele>5465.3</ele>
    <time>2026-06-23T02:17:00Z</time>
   </trkpt>
   <trkpt lat="-3.0825140" lon="37.3663420">
    <ele>5465.3</ele>
    <time>2026-06-23T02:17:01Z</time>
   </trkpt>
   <trkpt lat="-3.0825120" lon="37.3663430">
    <ele>5465.4</ele>
    <time>2026-06-23T02:17:02Z</time>
   </trkpt>
   <trkpt lat="-3.0825100" lon="37.3663420">
    <ele>5465.4</ele>
    <time>2026-06-23T02:17:03Z</time>
   </trkpt>
   <trkpt lat="-3.0825090" lon="37.3663420">
    <ele>5465.4</ele>
    <time>2026-06-23T02:17:04Z</time>
   </trkpt>
   <trkpt lat="-3.0825070" lon="37.3663420">
    <ele>5465.5</ele>
    <time>2026-06-23T02:17:05Z</time>
   </trkpt>
   <trkpt lat="-3.0825060" lon="37.3663430">
    <ele>5465.5</ele>
    <time>2026-06-23T02:17:06Z</time>
   </trkpt>
   <trkpt lat="-3.0825040" lon="37.3663420">
    <ele>5465.5</ele>
    <time>2026-06-23T02:17:07Z</time>
   </trkpt>
   <trkpt lat="-3.0825020" lon="37.3663420">
    <ele>5465.6</ele>
    <time>2026-06-23T02:17:08Z</time>
   </trkpt>
   <trkpt lat="-3.0825020" lon="37.3663420">
    <ele>5465.6</ele>
    <time>2026-06-23T02:17:09Z</time>
   </trkpt>
   <trkpt lat="-3.0825020" lon="37.3663430">
    <ele>5465.6</ele>
    <time>2026-06-23T02:17:10Z</time>
   </trkpt>
   <trkpt lat="-3.0825010" lon="37.3663420">
    <ele>5465.6</ele>
    <time>2026-06-23T02:17:11Z</time>
   </trkpt>
   <trkpt lat="-3.0824990" lon="37.3663400">
    <ele>5465.7</ele>
    <time>2026-06-23T02:17:12Z</time>
   </trkpt>
   <trkpt lat="-3.0824970" lon="37.3663410">
    <ele>5465.7</ele>
    <time>2026-06-23T02:17:13Z</time>
   </trkpt>
   <trkpt lat="-3.0824950" lon="37.3663390">
    <ele>5465.8</ele>
    <time>2026-06-23T02:17:14Z</time>
   </trkpt>
   <trkpt lat="-3.0824940" lon="37.3663390">
    <ele>5465.8</ele>
    <time>2026-06-23T02:17:15Z</time>
   </trkpt>
   <trkpt lat="-3.0824950" lon="37.3663390">
    <ele>5465.8</ele>
    <time>2026-06-23T02:17:16Z</time>
   </trkpt>
   <trkpt lat="-3.0824950" lon="37.3663390">
    <ele>5465.8</ele>
    <time>2026-06-23T02:17:17Z</time>
   </trkpt>
   <trkpt lat="-3.0824950" lon="37.3663400">
    <ele>5465.8</ele>
    <time>2026-06-23T02:17:18Z</time>
   </trkpt>
   <trkpt lat="-3.0824950" lon="37.3663400">
    <ele>5465.8</ele>
    <time>2026-06-23T02:17:19Z</time>
   </trkpt>
   <trkpt lat="-3.0824940" lon="37.3663380">
    <ele>5465.9</ele>
    <time>2026-06-23T02:17:20Z</time>
   </trkpt>
   <trkpt lat="-3.0824910" lon="37.3663390">
    <ele>5465.9</ele>
    <time>2026-06-23T02:17:21Z</time>
   </trkpt>
   <trkpt lat="-3.0824900" lon="37.3663390">
    <ele>5466.0</ele>
    <time>2026-06-23T02:17:22Z</time>
   </trkpt>
   <trkpt lat="-3.0824890" lon="37.3663370">
    <ele>5466.0</ele>
    <time>2026-06-23T02:17:23Z</time>
   </trkpt>
   <trkpt lat="-3.0824880" lon="37.3663360">
    <ele>5466.0</ele>
    <time>2026-06-23T02:17:24Z</time>
   </trkpt>
   <trkpt lat="-3.0824880" lon="37.3663350">
    <ele>5466.1</ele>
    <time>2026-06-23T02:17:25Z</time>
   </trkpt>
   <trkpt lat="-3.0824850" lon="37.3663360">
    <ele>5466.1</ele>
    <time>2026-06-23T02:17:26Z</time>
   </trkpt>
   <trkpt lat="-3.0824830" lon="37.3663330">
    <ele>5466.2</ele>
    <time>2026-06-23T02:17:27Z</time>
   </trkpt>
   <trkpt lat="-3.0824810" lon="37.3663340">
    <ele>5466.2</ele>
    <time>2026-06-23T02:17:28Z</time>
   </trkpt>
   <trkpt lat="-3.0824800" lon="37.3663330">
    <ele>5466.3</ele>
    <time>2026-06-23T02:17:29Z</time>
   </trkpt>
   <trkpt lat="-3.0824780" lon="37.3663310">
    <ele>5466.3</ele>
    <time>2026-06-23T02:17:30Z</time>
   </trkpt>
   <trkpt lat="-3.0824770" lon="37.3663310">
    <ele>5466.3</ele>
    <time>2026-06-23T02:17:31Z</time>
   </trkpt>
   <trkpt lat="-3.0824760" lon="37.3663310">
    <ele>5466.3</ele>
    <time>2026-06-23T02:17:32Z</time>
   </trkpt>
   <trkpt lat="-3.0824740" lon="37.3663280">
    <ele>5466.4</ele>
    <time>2026-06-23T02:17:33Z</time>
   </trkpt>
   <trkpt lat="-3.0824720" lon="37.3663280">
    <ele>5466.5</ele>
    <time>2026-06-23T02:17:34Z</time>
   </trkpt>
   <trkpt lat="-3.0824700" lon="37.3663270">
    <ele>5466.5</ele>
    <time>2026-06-23T02:17:35Z</time>
   </trkpt>
   <trkpt lat="-3.0824700" lon="37.3663250">
    <ele>5466.5</ele>
    <time>2026-06-23T02:17:36Z</time>
   </trkpt>
   <trkpt lat="-3.0824680" lon="37.3663260">
    <ele>5466.6</ele>
    <time>2026-06-23T02:17:37Z</time>
   </trkpt>
   <trkpt lat="-3.0824670" lon="37.3663250">
    <ele>5466.6</ele>
    <time>2026-06-23T02:17:38Z</time>
   </trkpt>
   <trkpt lat="-3.0824670" lon="37.3663230">
    <ele>5466.6</ele>
    <time>2026-06-23T02:17:39Z</time>
   </trkpt>
   <trkpt lat="-3.0824650" lon="37.3663220">
    <ele>5466.7</ele>
    <time>2026-06-23T02:17:40Z</time>
   </trkpt>
   <trkpt lat="-3.0824650" lon="37.3663220">
    <ele>5466.7</ele>
    <time>2026-06-23T02:17:41Z</time>
   </trkpt>
   <trkpt lat="-3.0824620" lon="37.3663220">
    <ele>5466.8</ele>
    <time>2026-06-23T02:17:42Z</time>
   </trkpt>
   <trkpt lat="-3.0824590" lon="37.3663200">
    <ele>5466.8</ele>
    <time>2026-06-23T02:17:43Z</time>
   </trkpt>
   <trkpt lat="-3.0824580" lon="37.3663200">
    <ele>5466.8</ele>
    <time>2026-06-23T02:17:44Z</time>
   </trkpt>
   <trkpt lat="-3.0824570" lon="37.3663180">
    <ele>5466.9</ele>
    <time>2026-06-23T02:17:45Z</time>
   </trkpt>
   <trkpt lat="-3.0824540" lon="37.3663180">
    <ele>5466.9</ele>
    <time>2026-06-23T02:17:46Z</time>
   </trkpt>
   <trkpt lat="-3.0824540" lon="37.3663150">
    <ele>5467.0</ele>
    <time>2026-06-23T02:17:47Z</time>
   </trkpt>
   <trkpt lat="-3.0824520" lon="37.3663150">
    <ele>5467.0</ele>
    <time>2026-06-23T02:17:48Z</time>
   </trkpt>
   <trkpt lat="-3.0824500" lon="37.3663150">
    <ele>5467.1</ele>
    <time>2026-06-23T02:17:49Z</time>
   </trkpt>
   <trkpt lat="-3.0824490" lon="37.3663120">
    <ele>5467.1</ele>
    <time>2026-06-23T02:17:50Z</time>
   </trkpt>
   <trkpt lat="-3.0824470" lon="37.3663110">
    <ele>5467.2</ele>
    <time>2026-06-23T02:17:51Z</time>
   </trkpt>
   <trkpt lat="-3.0824490" lon="37.3663070">
    <ele>5467.3</ele>
    <time>2026-06-23T02:17:52Z</time>
   </trkpt>
   <trkpt lat="-3.0824500" lon="37.3663070">
    <ele>5467.3</ele>
    <time>2026-06-23T02:17:53Z</time>
   </trkpt>
   <trkpt lat="-3.0824530" lon="37.3663030">
    <ele>5467.4</ele>
    <time>2026-06-23T02:17:54Z</time>
   </trkpt>
   <trkpt lat="-3.0824540" lon="37.3663010">
    <ele>5467.4</ele>
    <time>2026-06-23T02:17:55Z</time>
   </trkpt>
   <trkpt lat="-3.0824550" lon="37.3662980">
    <ele>5467.5</ele>
    <time>2026-06-23T02:17:56Z</time>
   </trkpt>
   <trkpt lat="-3.0824540" lon="37.3662970">
    <ele>5467.5</ele>
    <time>2026-06-23T02:17:57Z</time>
   </trkpt>
   <trkpt lat="-3.0824540" lon="37.3662950">
    <ele>5467.6</ele>
    <time>2026-06-23T02:17:58Z</time>
   </trkpt>
   <trkpt lat="-3.0824540" lon="37.3662940">
    <ele>5467.6</ele>
    <time>2026-06-23T02:17:59Z</time>
   </trkpt>
   <trkpt lat="-3.0824540" lon="37.3662930">
    <ele>5467.6</ele>
    <time>2026-06-23T02:18:00Z</time>
   </trkpt>
   <trkpt lat="-3.0824530" lon="37.3662910">
    <ele>5467.6</ele>
    <time>2026-06-23T02:18:01Z</time>
   </trkpt>
   <trkpt lat="-3.0824520" lon="37.3662880">
    <ele>5467.7</ele>
    <time>2026-06-23T02:18:02Z</time>
   </trkpt>
   <trkpt lat="-3.0824500" lon="37.3662870">
    <ele>5467.7</ele>
    <time>2026-06-23T02:18:03Z</time>
   </trkpt>
   <trkpt lat="-3.0824480" lon="37.3662860">
    <ele>5467.8</ele>
    <time>2026-06-23T02:18:04Z</time>
   </trkpt>
   <trkpt lat="-3.0824460" lon="37.3662850">
    <ele>5467.8</ele>
    <time>2026-06-23T02:18:05Z</time>
   </trkpt>
   <trkpt lat="-3.0824440" lon="37.3662850">
    <ele>5467.9</ele>
    <time>2026-06-23T02:18:06Z</time>
   </trkpt>
   <trkpt lat="-3.0824430" lon="37.3662850">
    <ele>5467.9</ele>
    <time>2026-06-23T02:18:07Z</time>
   </trkpt>
   <trkpt lat="-3.0824420" lon="37.3662850">
    <ele>5467.9</ele>
    <time>2026-06-23T02:18:08Z</time>
   </trkpt>
   <trkpt lat="-3.0824420" lon="37.3662830">
    <ele>5467.9</ele>
    <time>2026-06-23T02:18:09Z</time>
   </trkpt>
   <trkpt lat="-3.0824410" lon="37.3662850">
    <ele>5468.0</ele>
    <time>2026-06-23T02:18:10Z</time>
   </trkpt>
   <trkpt lat="-3.0824400" lon="37.3662850">
    <ele>5468.0</ele>
    <time>2026-06-23T02:18:11Z</time>
   </trkpt>
   <trkpt lat="-3.0824390" lon="37.3662840">
    <ele>5468.0</ele>
    <time>2026-06-23T02:18:12Z</time>
   </trkpt>
   <trkpt lat="-3.0824360" lon="37.3662850">
    <ele>5468.1</ele>
    <time>2026-06-23T02:18:13Z</time>
   </trkpt>
   <trkpt lat="-3.0824340" lon="37.3662840">
    <ele>5468.1</ele>
    <time>2026-06-23T02:18:14Z</time>
   </trkpt>
   <trkpt lat="-3.0824320" lon="37.3662850">
    <ele>5468.2</ele>
    <time>2026-06-23T02:18:15Z</time>
   </trkpt>
   <trkpt lat="-3.0824300" lon="37.3662850">
    <ele>5468.2</ele>
    <time>2026-06-23T02:18:16Z</time>
   </trkpt>
   <trkpt lat="-3.0824270" lon="37.3662860">
    <ele>5468.3</ele>
    <time>2026-06-23T02:18:17Z</time>
   </trkpt>
   <trkpt lat="-3.0824250" lon="37.3662850">
    <ele>5468.3</ele>
    <time>2026-06-23T02:18:18Z</time>
   </trkpt>
   <trkpt lat="-3.0824230" lon="37.3662860">
    <ele>5468.4</ele>
    <time>2026-06-23T02:18:19Z</time>
   </trkpt>
   <trkpt lat="-3.0824210" lon="37.3662860">
    <ele>5468.4</ele>
    <time>2026-06-23T02:18:20Z</time>
   </trkpt>
   <trkpt lat="-3.0824200" lon="37.3662870">
    <ele>5468.4</ele>
    <time>2026-06-23T02:18:21Z</time>
   </trkpt>
   <trkpt lat="-3.0824180" lon="37.3662870">
    <ele>5468.5</ele>
    <time>2026-06-23T02:18:22Z</time>
   </trkpt>
   <trkpt lat="-3.0824170" lon="37.3662880">
    <ele>5468.5</ele>
    <time>2026-06-23T02:18:23Z</time>
   </trkpt>
   <trkpt lat="-3.0824160" lon="37.3662900">
    <ele>5468.5</ele>
    <time>2026-06-23T02:18:24Z</time>
   </trkpt>
   <trkpt lat="-3.0824130" lon="37.3662880">
    <ele>5468.6</ele>
    <time>2026-06-23T02:18:25Z</time>
   </trkpt>
   <trkpt lat="-3.0824100" lon="37.3662900">
    <ele>5468.7</ele>
    <time>2026-06-23T02:18:26Z</time>
   </trkpt>
   <trkpt lat="-3.0824090" lon="37.3662910">
    <ele>5468.7</ele>
    <time>2026-06-23T02:18:27Z</time>
   </trkpt>
   <trkpt lat="-3.0824060" lon="37.3662910">
    <ele>5468.8</ele>
    <time>2026-06-23T02:18:28Z</time>
   </trkpt>
   <trkpt lat="-3.0824050" lon="37.3662900">
    <ele>5468.8</ele>
    <time>2026-06-23T02:18:29Z</time>
   </trkpt>
   <trkpt lat="-3.0824020" lon="37.3662910">
    <ele>5468.9</ele>
    <time>2026-06-23T02:18:30Z</time>
   </trkpt>
   <trkpt lat="-3.0824010" lon="37.3662920">
    <ele>5468.9</ele>
    <time>2026-06-23T02:18:32Z</time>
   </trkpt>
   <trkpt lat="-3.0823980" lon="37.3662920">
    <ele>5469.0</ele>
    <time>2026-06-23T02:18:33Z</time>
   </trkpt>
   <trkpt lat="-3.0823950" lon="37.3662910">
    <ele>5469.0</ele>
    <time>2026-06-23T02:18:34Z</time>
   </trkpt>
   <trkpt lat="-3.0823930" lon="37.3662910">
    <ele>5469.1</ele>
    <time>2026-06-23T02:18:35Z</time>
   </trkpt>
   <trkpt lat="-3.0823910" lon="37.3662910">
    <ele>5469.1</ele>
    <time>2026-06-23T02:18:36Z</time>
   </trkpt>
   <trkpt lat="-3.0823890" lon="37.3662880">
    <ele>5469.2</ele>
    <time>2026-06-23T02:18:37Z</time>
   </trkpt>
   <trkpt lat="-3.0823880" lon="37.3662890">
    <ele>5469.2</ele>
    <time>2026-06-23T02:18:38Z</time>
   </trkpt>
   <trkpt lat="-3.0823870" lon="37.3662890">
    <ele>5469.2</ele>
    <time>2026-06-23T02:18:39Z</time>
   </trkpt>
   <trkpt lat="-3.0823870" lon="37.3662870">
    <ele>5469.3</ele>
    <time>2026-06-23T02:18:40Z</time>
   </trkpt>
   <trkpt lat="-3.0823850" lon="37.3662860">
    <ele>5469.3</ele>
    <time>2026-06-23T02:18:41Z</time>
   </trkpt>
   <trkpt lat="-3.0823860" lon="37.3662810">
    <ele>5469.4</ele>
    <time>2026-06-23T02:18:42Z</time>
   </trkpt>
   <trkpt lat="-3.0823850" lon="37.3662790">
    <ele>5469.5</ele>
    <time>2026-06-23T02:18:43Z</time>
   </trkpt>
   <trkpt lat="-3.0823840" lon="37.3662780">
    <ele>5469.5</ele>
    <time>2026-06-23T02:18:44Z</time>
   </trkpt>
   <trkpt lat="-3.0823860" lon="37.3662750">
    <ele>5469.6</ele>
    <time>2026-06-23T02:18:45Z</time>
   </trkpt>
   <trkpt lat="-3.0823860" lon="37.3662740">
    <ele>5469.6</ele>
    <time>2026-06-23T02:18:46Z</time>
   </trkpt>
   <trkpt lat="-3.0823870" lon="37.3662710">
    <ele>5469.7</ele>
    <time>2026-06-23T02:18:47Z</time>
   </trkpt>
   <trkpt lat="-3.0823880" lon="37.3662690">
    <ele>5469.7</ele>
    <time>2026-06-23T02:18:48Z</time>
   </trkpt>
   <trkpt lat="-3.0823890" lon="37.3662680">
    <ele>5469.7</ele>
    <time>2026-06-23T02:18:49Z</time>
   </trkpt>
   <trkpt lat="-3.0823910" lon="37.3662670">
    <ele>5469.8</ele>
    <time>2026-06-23T02:18:50Z</time>
   </trkpt>
   <trkpt lat="-3.0823920" lon="37.3662630">
    <ele>5469.9</ele>
    <time>2026-06-23T02:18:51Z</time>
   </trkpt>
   <trkpt lat="-3.0823930" lon="37.3662620">
    <ele>5469.9</ele>
    <time>2026-06-23T02:18:52Z</time>
   </trkpt>
   <trkpt lat="-3.0823950" lon="37.3662610">
    <ele>5470.0</ele>
    <time>2026-06-23T02:18:53Z</time>
   </trkpt>
   <trkpt lat="-3.0823940" lon="37.3662600">
    <ele>5470.1</ele>
    <time>2026-06-23T02:18:54Z</time>
   </trkpt>
   <trkpt lat="-3.0823940" lon="37.3662580">
    <ele>5470.1</ele>
    <time>2026-06-23T02:18:55Z</time>
   </trkpt>
   <trkpt lat="-3.0823920" lon="37.3662560">
    <ele>5470.2</ele>
    <time>2026-06-23T02:18:56Z</time>
   </trkpt>
   <trkpt lat="-3.0823910" lon="37.3662570">
    <ele>5470.2</ele>
    <time>2026-06-23T02:18:57Z</time>
   </trkpt>
   <trkpt lat="-3.0823890" lon="37.3662560">
    <ele>5470.2</ele>
    <time>2026-06-23T02:18:58Z</time>
   </trkpt>
   <trkpt lat="-3.0823870" lon="37.3662540">
    <ele>5470.3</ele>
    <time>2026-06-23T02:18:59Z</time>
   </trkpt>
   <trkpt lat="-3.0823850" lon="37.3662570">
    <ele>5470.4</ele>
    <time>2026-06-23T02:19:00Z</time>
   </trkpt>
   <trkpt lat="-3.0823840" lon="37.3662570">
    <ele>5470.4</ele>
    <time>2026-06-23T02:19:01Z</time>
   </trkpt>
   <trkpt lat="-3.0823820" lon="37.3662570">
    <ele>5470.4</ele>
    <time>2026-06-23T02:19:02Z</time>
   </trkpt>
   <trkpt lat="-3.0823810" lon="37.3662570">
    <ele>5470.5</ele>
    <time>2026-06-23T02:19:03Z</time>
   </trkpt>
   <trkpt lat="-3.0823780" lon="37.3662570">
    <ele>5470.6</ele>
    <time>2026-06-23T02:19:04Z</time>
   </trkpt>
   <trkpt lat="-3.0823760" lon="37.3662570">
    <ele>5470.7</ele>
    <time>2026-06-23T02:19:05Z</time>
   </trkpt>
   <trkpt lat="-3.0823740" lon="37.3662590">
    <ele>5470.7</ele>
    <time>2026-06-23T02:19:06Z</time>
   </trkpt>
   <trkpt lat="-3.0823720" lon="37.3662590">
    <ele>5470.8</ele>
    <time>2026-06-23T02:19:07Z</time>
   </trkpt>
   <trkpt lat="-3.0823710" lon="37.3662600">
    <ele>5470.8</ele>
    <time>2026-06-23T02:19:08Z</time>
   </trkpt>
   <trkpt lat="-3.0823690" lon="37.3662600">
    <ele>5470.8</ele>
    <time>2026-06-23T02:19:09Z</time>
   </trkpt>
   <trkpt lat="-3.0823670" lon="37.3662590">
    <ele>5470.9</ele>
    <time>2026-06-23T02:19:10Z</time>
   </trkpt>
   <trkpt lat="-3.0823650" lon="37.3662580">
    <ele>5470.9</ele>
    <time>2026-06-23T02:19:11Z</time>
   </trkpt>
   <trkpt lat="-3.0823630" lon="37.3662580">
    <ele>5471.1</ele>
    <time>2026-06-23T02:19:12Z</time>
   </trkpt>
   <trkpt lat="-3.0823620" lon="37.3662570">
    <ele>5471.1</ele>
    <time>2026-06-23T02:19:13Z</time>
   </trkpt>
   <trkpt lat="-3.0823610" lon="37.3662560">
    <ele>5471.1</ele>
    <time>2026-06-23T02:19:14Z</time>
   </trkpt>
   <trkpt lat="-3.0823600" lon="37.3662560">
    <ele>5471.1</ele>
    <time>2026-06-23T02:19:15Z</time>
   </trkpt>
   <trkpt lat="-3.0823600" lon="37.3662510">
    <ele>5471.3</ele>
    <time>2026-06-23T02:19:16Z</time>
   </trkpt>
   <trkpt lat="-3.0823580" lon="37.3662500">
    <ele>5471.3</ele>
    <time>2026-06-23T02:19:17Z</time>
   </trkpt>
   <trkpt lat="-3.0823580" lon="37.3662460">
    <ele>5471.4</ele>
    <time>2026-06-23T02:19:18Z</time>
   </trkpt>
   <trkpt lat="-3.0823580" lon="37.3662460">
    <ele>5471.5</ele>
    <time>2026-06-23T02:19:19Z</time>
   </trkpt>
   <trkpt lat="-3.0823570" lon="37.3662440">
    <ele>5471.5</ele>
    <time>2026-06-23T02:19:20Z</time>
   </trkpt>
   <trkpt lat="-3.0823590" lon="37.3662400">
    <ele>5471.6</ele>
    <time>2026-06-23T02:19:21Z</time>
   </trkpt>
   <trkpt lat="-3.0823600" lon="37.3662380">
    <ele>5471.7</ele>
    <time>2026-06-23T02:19:22Z</time>
   </trkpt>
   <trkpt lat="-3.0823620" lon="37.3662360">
    <ele>5471.8</ele>
    <time>2026-06-23T02:19:23Z</time>
   </trkpt>
   <trkpt lat="-3.0823620" lon="37.3662350">
    <ele>5471.8</ele>
    <time>2026-06-23T02:19:24Z</time>
   </trkpt>
   <trkpt lat="-3.0823650" lon="37.3662330">
    <ele>5471.9</ele>
    <time>2026-06-23T02:19:25Z</time>
   </trkpt>
   <trkpt lat="-3.0823650" lon="37.3662300">
    <ele>5472.0</ele>
    <time>2026-06-23T02:19:26Z</time>
   </trkpt>
   <trkpt lat="-3.0823650" lon="37.3662300">
    <ele>5472.0</ele>
    <time>2026-06-23T02:19:27Z</time>
   </trkpt>
   <trkpt lat="-3.0823650" lon="37.3662240">
    <ele>5472.2</ele>
    <time>2026-06-23T02:19:28Z</time>
   </trkpt>
   <trkpt lat="-3.0823650" lon="37.3662220">
    <ele>5472.2</ele>
    <time>2026-06-23T02:19:29Z</time>
   </trkpt>
   <trkpt lat="-3.0823640" lon="37.3662240">
    <ele>5472.3</ele>
    <time>2026-06-23T02:19:30Z</time>
   </trkpt>
   <trkpt lat="-3.0823620" lon="37.3662220">
    <ele>5472.4</ele>
    <time>2026-06-23T02:19:31Z</time>
   </trkpt>
   <trkpt lat="-3.0823610" lon="37.3662220">
    <ele>5472.4</ele>
    <time>2026-06-23T02:19:32Z</time>
   </trkpt>
   <trkpt lat="-3.0823600" lon="37.3662200">
    <ele>5472.4</ele>
    <time>2026-06-23T02:19:33Z</time>
   </trkpt>
   <trkpt lat="-3.0823580" lon="37.3662210">
    <ele>5472.5</ele>
    <time>2026-06-23T02:19:34Z</time>
   </trkpt>
   <trkpt lat="-3.0823570" lon="37.3662200">
    <ele>5472.6</ele>
    <time>2026-06-23T02:19:35Z</time>
   </trkpt>
   <trkpt lat="-3.0823570" lon="37.3662190">
    <ele>5472.6</ele>
    <time>2026-06-23T02:19:36Z</time>
   </trkpt>
   <trkpt lat="-3.0823550" lon="37.3662190">
    <ele>5472.6</ele>
    <time>2026-06-23T02:19:37Z</time>
   </trkpt>
   <trkpt lat="-3.0823550" lon="37.3662190">
    <ele>5472.6</ele>
    <time>2026-06-23T02:19:38Z</time>
   </trkpt>
   <trkpt lat="-3.0823530" lon="37.3662170">
    <ele>5472.8</ele>
    <time>2026-06-23T02:19:39Z</time>
   </trkpt>
   <trkpt lat="-3.0823510" lon="37.3662180">
    <ele>5472.8</ele>
    <time>2026-06-23T02:19:40Z</time>
   </trkpt>
   <trkpt lat="-3.0823500" lon="37.3662180">
    <ele>5472.9</ele>
    <time>2026-06-23T02:19:41Z</time>
   </trkpt>
   <trkpt lat="-3.0823490" lon="37.3662190">
    <ele>5473.0</ele>
    <time>2026-06-23T02:19:42Z</time>
   </trkpt>
   <trkpt lat="-3.0823480" lon="37.3662190">
    <ele>5473.0</ele>
    <time>2026-06-23T02:19:43Z</time>
   </trkpt>
   <trkpt lat="-3.0823470" lon="37.3662170">
    <ele>5473.1</ele>
    <time>2026-06-23T02:19:44Z</time>
   </trkpt>
   <trkpt lat="-3.0823450" lon="37.3662180">
    <ele>5473.1</ele>
    <time>2026-06-23T02:19:45Z</time>
   </trkpt>
   <trkpt lat="-3.0823430" lon="37.3662180">
    <ele>5473.2</ele>
    <time>2026-06-23T02:19:46Z</time>
   </trkpt>
   <trkpt lat="-3.0823400" lon="37.3662190">
    <ele>5473.3</ele>
    <time>2026-06-23T02:19:47Z</time>
   </trkpt>
   <trkpt lat="-3.0823390" lon="37.3662180">
    <ele>5473.3</ele>
    <time>2026-06-23T02:19:48Z</time>
   </trkpt>
   <trkpt lat="-3.0823360" lon="37.3662180">
    <ele>5473.4</ele>
    <time>2026-06-23T02:19:49Z</time>
   </trkpt>
   <trkpt lat="-3.0823350" lon="37.3662180">
    <ele>5473.4</ele>
    <time>2026-06-23T02:19:50Z</time>
   </trkpt>
   <trkpt lat="-3.0823320" lon="37.3662200">
    <ele>5473.5</ele>
    <time>2026-06-23T02:19:51Z</time>
   </trkpt>
   <trkpt lat="-3.0823300" lon="37.3662190">
    <ele>5473.7</ele>
    <time>2026-06-23T02:19:52Z</time>
   </trkpt>
   <trkpt lat="-3.0823280" lon="37.3662210">
    <ele>5473.7</ele>
    <time>2026-06-23T02:19:53Z</time>
   </trkpt>
   <trkpt lat="-3.0823270" lon="37.3662210">
    <ele>5473.8</ele>
    <time>2026-06-23T02:19:54Z</time>
   </trkpt>
   <trkpt lat="-3.0823240" lon="37.3662230">
    <ele>5473.9</ele>
    <time>2026-06-23T02:19:55Z</time>
   </trkpt>
   <trkpt lat="-3.0823220" lon="37.3662230">
    <ele>5474.0</ele>
    <time>2026-06-23T02:19:56Z</time>
   </trkpt>
   <trkpt lat="-3.0823200" lon="37.3662240">
    <ele>5474.1</ele>
    <time>2026-06-23T02:19:57Z</time>
   </trkpt>
   <trkpt lat="-3.0823190" lon="37.3662240">
    <ele>5474.1</ele>
    <time>2026-06-23T02:19:58Z</time>
   </trkpt>
   <trkpt lat="-3.0823170" lon="37.3662250">
    <ele>5474.2</ele>
    <time>2026-06-23T02:19:59Z</time>
   </trkpt>
   <trkpt lat="-3.0823150" lon="37.3662240">
    <ele>5474.2</ele>
    <time>2026-06-23T02:20:00Z</time>
   </trkpt>
   <trkpt lat="-3.0823120" lon="37.3662230">
    <ele>5474.3</ele>
    <time>2026-06-23T02:20:01Z</time>
   </trkpt>
   <trkpt lat="-3.0823110" lon="37.3662230">
    <ele>5474.4</ele>
    <time>2026-06-23T02:20:02Z</time>
   </trkpt>
   <trkpt lat="-3.0823090" lon="37.3662230">
    <ele>5474.5</ele>
    <time>2026-06-23T02:20:03Z</time>
   </trkpt>
   <trkpt lat="-3.0823080" lon="37.3662230">
    <ele>5474.5</ele>
    <time>2026-06-23T02:20:04Z</time>
   </trkpt>
   <trkpt lat="-3.0823070" lon="37.3662230">
    <ele>5474.6</ele>
    <time>2026-06-23T02:20:05Z</time>
   </trkpt>
   <trkpt lat="-3.0823060" lon="37.3662240">
    <ele>5474.6</ele>
    <time>2026-06-23T02:20:06Z</time>
   </trkpt>
   <trkpt lat="-3.0823050" lon="37.3662200">
    <ele>5474.7</ele>
    <time>2026-06-23T02:20:07Z</time>
   </trkpt>
   <trkpt lat="-3.0823020" lon="37.3662210">
    <ele>5474.8</ele>
    <time>2026-06-23T02:20:08Z</time>
   </trkpt>
   <trkpt lat="-3.0823000" lon="37.3662190">
    <ele>5474.9</ele>
    <time>2026-06-23T02:20:09Z</time>
   </trkpt>
   <trkpt lat="-3.0822980" lon="37.3662220">
    <ele>5475.1</ele>
    <time>2026-06-23T02:20:10Z</time>
   </trkpt>
   <trkpt lat="-3.0822960" lon="37.3662200">
    <ele>5475.2</ele>
    <time>2026-06-23T02:20:11Z</time>
   </trkpt>
   <trkpt lat="-3.0822950" lon="37.3662210">
    <ele>5475.2</ele>
    <time>2026-06-23T02:20:12Z</time>
   </trkpt>
   <trkpt lat="-3.0822920" lon="37.3662210">
    <ele>5475.3</ele>
    <time>2026-06-23T02:20:13Z</time>
   </trkpt>
   <trkpt lat="-3.0822910" lon="37.3662220">
    <ele>5475.4</ele>
    <time>2026-06-23T02:20:14Z</time>
   </trkpt>
   <trkpt lat="-3.0822890" lon="37.3662210">
    <ele>5475.4</ele>
    <time>2026-06-23T02:20:15Z</time>
   </trkpt>
   <trkpt lat="-3.0822870" lon="37.3662220">
    <ele>5475.6</ele>
    <time>2026-06-23T02:20:16Z</time>
   </trkpt>
   <trkpt lat="-3.0822870" lon="37.3662220">
    <ele>5475.6</ele>
    <time>2026-06-23T02:20:17Z</time>
   </trkpt>
   <trkpt lat="-3.0822860" lon="37.3662230">
    <ele>5475.6</ele>
    <time>2026-06-23T02:20:18Z</time>
   </trkpt>
   <trkpt lat="-3.0822840" lon="37.3662220">
    <ele>5475.7</ele>
    <time>2026-06-23T02:20:19Z</time>
   </trkpt>
   <trkpt lat="-3.0822830" lon="37.3662240">
    <ele>5475.8</ele>
    <time>2026-06-23T02:20:20Z</time>
   </trkpt>
   <trkpt lat="-3.0822820" lon="37.3662250">
    <ele>5475.8</ele>
    <time>2026-06-23T02:20:21Z</time>
   </trkpt>
   <trkpt lat="-3.0822800" lon="37.3662250">
    <ele>5476.0</ele>
    <time>2026-06-23T02:20:22Z</time>
   </trkpt>
   <trkpt lat="-3.0822780" lon="37.3662250">
    <ele>5476.0</ele>
    <time>2026-06-23T02:20:23Z</time>
   </trkpt>
   <trkpt lat="-3.0822770" lon="37.3662250">
    <ele>5476.1</ele>
    <time>2026-06-23T02:20:24Z</time>
   </trkpt>
   <trkpt lat="-3.0822750" lon="37.3662240">
    <ele>5476.1</ele>
    <time>2026-06-23T02:20:25Z</time>
   </trkpt>
   <trkpt lat="-3.0822730" lon="37.3662240">
    <ele>5476.2</ele>
    <time>2026-06-23T02:20:26Z</time>
   </trkpt>
   <trkpt lat="-3.0822730" lon="37.3662230">
    <ele>5476.2</ele>
    <time>2026-06-23T02:20:27Z</time>
   </trkpt>
   <trkpt lat="-3.0822720" lon="37.3662210">
    <ele>5476.3</ele>
    <time>2026-06-23T02:20:28Z</time>
   </trkpt>
   <trkpt lat="-3.0822700" lon="37.3662200">
    <ele>5476.4</ele>
    <time>2026-06-23T02:20:29Z</time>
   </trkpt>
   <trkpt lat="-3.0822680" lon="37.3662170">
    <ele>5476.5</ele>
    <time>2026-06-23T02:20:30Z</time>
   </trkpt>
   <trkpt lat="-3.0822670" lon="37.3662180">
    <ele>5476.5</ele>
    <time>2026-06-23T02:20:31Z</time>
   </trkpt>
   <trkpt lat="-3.0822650" lon="37.3662170">
    <ele>5476.6</ele>
    <time>2026-06-23T02:20:32Z</time>
   </trkpt>
   <trkpt lat="-3.0822640" lon="37.3662150">
    <ele>5476.6</ele>
    <time>2026-06-23T02:20:34Z</time>
   </trkpt>
   <trkpt lat="-3.0822630" lon="37.3662150">
    <ele>5476.7</ele>
    <time>2026-06-23T02:20:35Z</time>
   </trkpt>
   <trkpt lat="-3.0822620" lon="37.3662120">
    <ele>5476.8</ele>
    <time>2026-06-23T02:20:36Z</time>
   </trkpt>
   <trkpt lat="-3.0822610" lon="37.3662110">
    <ele>5476.8</ele>
    <time>2026-06-23T02:20:37Z</time>
   </trkpt>
   <trkpt lat="-3.0822600" lon="37.3662100">
    <ele>5476.8</ele>
    <time>2026-06-23T02:20:38Z</time>
   </trkpt>
   <trkpt lat="-3.0822590" lon="37.3662100">
    <ele>5476.9</ele>
    <time>2026-06-23T02:20:39Z</time>
   </trkpt>
   <trkpt lat="-3.0822590" lon="37.3662090">
    <ele>5476.9</ele>
    <time>2026-06-23T02:20:40Z</time>
   </trkpt>
   <trkpt lat="-3.0822580" lon="37.3662090">
    <ele>5476.9</ele>
    <time>2026-06-23T02:20:41Z</time>
   </trkpt>
   <trkpt lat="-3.0822560" lon="37.3662080">
    <ele>5477.0</ele>
    <time>2026-06-23T02:20:42Z</time>
   </trkpt>
   <trkpt lat="-3.0822540" lon="37.3662090">
    <ele>5477.1</ele>
    <time>2026-06-23T02:20:43Z</time>
   </trkpt>
   <trkpt lat="-3.0822510" lon="37.3662070">
    <ele>5477.2</ele>
    <time>2026-06-23T02:20:44Z</time>
   </trkpt>
   <trkpt lat="-3.0822500" lon="37.3662050">
    <ele>5477.2</ele>
    <time>2026-06-23T02:20:45Z</time>
   </trkpt>
   <trkpt lat="-3.0822480" lon="37.3662080">
    <ele>5477.3</ele>
    <time>2026-06-23T02:20:46Z</time>
   </trkpt>
   <trkpt lat="-3.0822500" lon="37.3662130">
    <ele>5477.5</ele>
    <time>2026-06-23T02:20:47Z</time>
   </trkpt>
   <trkpt lat="-3.0822510" lon="37.3662290">
    <ele>5478.0</ele>
    <time>2026-06-23T02:20:48Z</time>
   </trkpt>
   <trkpt lat="-3.0822440" lon="37.3662230">
    <ele>5478.3</ele>
    <time>2026-06-23T02:20:49Z</time>
   </trkpt>
   <trkpt lat="-3.0822400" lon="37.3662190">
    <ele>5478.4</ele>
    <time>2026-06-23T02:20:50Z</time>
   </trkpt>
   <trkpt lat="-3.0822390" lon="37.3662190">
    <ele>5478.5</ele>
    <time>2026-06-23T02:20:51Z</time>
   </trkpt>
   <trkpt lat="-3.0822360" lon="37.3662190">
    <ele>5478.5</ele>
    <time>2026-06-23T02:20:52Z</time>
   </trkpt>
   <trkpt lat="-3.0822340" lon="37.3662190">
    <ele>5478.6</ele>
    <time>2026-06-23T02:20:53Z</time>
   </trkpt>
   <trkpt lat="-3.0822330" lon="37.3662190">
    <ele>5478.6</ele>
    <time>2026-06-23T02:20:54Z</time>
   </trkpt>
   <trkpt lat="-3.0822320" lon="37.3662200">
    <ele>5478.7</ele>
    <time>2026-06-23T02:20:55Z</time>
   </trkpt>
   <trkpt lat="-3.0822300" lon="37.3662190">
    <ele>5478.7</ele>
    <time>2026-06-23T02:20:56Z</time>
   </trkpt>
   <trkpt lat="-3.0822260" lon="37.3662200">
    <ele>5478.9</ele>
    <time>2026-06-23T02:20:57Z</time>
   </trkpt>
   <trkpt lat="-3.0822250" lon="37.3662180">
    <ele>5478.9</ele>
    <time>2026-06-23T02:20:58Z</time>
   </trkpt>
   <trkpt lat="-3.0822220" lon="37.3662180">
    <ele>5479.0</ele>
    <time>2026-06-23T02:20:59Z</time>
   </trkpt>
   <trkpt lat="-3.0822220" lon="37.3662180">
    <ele>5479.0</ele>
    <time>2026-06-23T02:21:00Z</time>
   </trkpt>
   <trkpt lat="-3.0822180" lon="37.3662180">
    <ele>5479.1</ele>
    <time>2026-06-23T02:21:01Z</time>
   </trkpt>
   <trkpt lat="-3.0822190" lon="37.3662160">
    <ele>5479.2</ele>
    <time>2026-06-23T02:21:02Z</time>
   </trkpt>
   <trkpt lat="-3.0822180" lon="37.3662170">
    <ele>5479.2</ele>
    <time>2026-06-23T02:21:03Z</time>
   </trkpt>
   <trkpt lat="-3.0822180" lon="37.3662170">
    <ele>5479.2</ele>
    <time>2026-06-23T02:21:04Z</time>
   </trkpt>
   <trkpt lat="-3.0822150" lon="37.3662170">
    <ele>5479.3</ele>
    <time>2026-06-23T02:21:05Z</time>
   </trkpt>
   <trkpt lat="-3.0822130" lon="37.3662180">
    <ele>5479.4</ele>
    <time>2026-06-23T02:21:06Z</time>
   </trkpt>
   <trkpt lat="-3.0822110" lon="37.3662170">
    <ele>5479.5</ele>
    <time>2026-06-23T02:21:07Z</time>
   </trkpt>
   <trkpt lat="-3.0822100" lon="37.3662180">
    <ele>5479.5</ele>
    <time>2026-06-23T02:21:08Z</time>
   </trkpt>
   <trkpt lat="-3.0822080" lon="37.3662180">
    <ele>5479.6</ele>
    <time>2026-06-23T02:21:09Z</time>
   </trkpt>
   <trkpt lat="-3.0822080" lon="37.3662180">
    <ele>5479.6</ele>
    <time>2026-06-23T02:21:10Z</time>
   </trkpt>
   <trkpt lat="-3.0822040" lon="37.3662170">
    <ele>5479.7</ele>
    <time>2026-06-23T02:21:11Z</time>
   </trkpt>
   <trkpt lat="-3.0822030" lon="37.3662160">
    <ele>5479.7</ele>
    <time>2026-06-23T02:21:12Z</time>
   </trkpt>
   <trkpt lat="-3.0822010" lon="37.3662160">
    <ele>5479.8</ele>
    <time>2026-06-23T02:21:13Z</time>
   </trkpt>
   <trkpt lat="-3.0822010" lon="37.3662160">
    <ele>5479.8</ele>
    <time>2026-06-23T02:21:14Z</time>
   </trkpt>
   <trkpt lat="-3.0822000" lon="37.3662160">
    <ele>5479.8</ele>
    <time>2026-06-23T02:21:15Z</time>
   </trkpt>
   <trkpt lat="-3.0821990" lon="37.3662160">
    <ele>5479.9</ele>
    <time>2026-06-23T02:21:16Z</time>
   </trkpt>
   <trkpt lat="-3.0821970" lon="37.3662150">
    <ele>5479.9</ele>
    <time>2026-06-23T02:21:17Z</time>
   </trkpt>
   <trkpt lat="-3.0821970" lon="37.3662160">
    <ele>5479.9</ele>
    <time>2026-06-23T02:21:18Z</time>
   </trkpt>
   <trkpt lat="-3.0821970" lon="37.3662140">
    <ele>5480.0</ele>
    <time>2026-06-23T02:21:19Z</time>
   </trkpt>
   <trkpt lat="-3.0821960" lon="37.3662140">
    <ele>5480.0</ele>
    <time>2026-06-23T02:21:20Z</time>
   </trkpt>
   <trkpt lat="-3.0821950" lon="37.3662110">
    <ele>5480.1</ele>
    <time>2026-06-23T02:21:21Z</time>
   </trkpt>
   <trkpt lat="-3.0821930" lon="37.3662100">
    <ele>5480.2</ele>
    <time>2026-06-23T02:21:22Z</time>
   </trkpt>
   <trkpt lat="-3.0821940" lon="37.3662090">
    <ele>5480.2</ele>
    <time>2026-06-23T02:21:23Z</time>
   </trkpt>
   <trkpt lat="-3.0821930" lon="37.3662070">
    <ele>5480.3</ele>
    <time>2026-06-23T02:21:24Z</time>
   </trkpt>
   <trkpt lat="-3.0821910" lon="37.3662060">
    <ele>5480.3</ele>
    <time>2026-06-23T02:21:25Z</time>
   </trkpt>
   <trkpt lat="-3.0821920" lon="37.3662050">
    <ele>5480.3</ele>
    <time>2026-06-23T02:21:26Z</time>
   </trkpt>
   <trkpt lat="-3.0821900" lon="37.3662030">
    <ele>5480.4</ele>
    <time>2026-06-23T02:21:27Z</time>
   </trkpt>
   <trkpt lat="-3.0821920" lon="37.3662020">
    <ele>5480.5</ele>
    <time>2026-06-23T02:21:28Z</time>
   </trkpt>
   <trkpt lat="-3.0821920" lon="37.3662000">
    <ele>5480.5</ele>
    <time>2026-06-23T02:21:29Z</time>
   </trkpt>
   <trkpt lat="-3.0821920" lon="37.3661970">
    <ele>5480.6</ele>
    <time>2026-06-23T02:21:30Z</time>
   </trkpt>
   <trkpt lat="-3.0821910" lon="37.3661960">
    <ele>5480.6</ele>
    <time>2026-06-23T02:21:31Z</time>
   </trkpt>
   <trkpt lat="-3.0821920" lon="37.3661950">
    <ele>5480.7</ele>
    <time>2026-06-23T02:21:32Z</time>
   </trkpt>
   <trkpt lat="-3.0821910" lon="37.3661930">
    <ele>5480.7</ele>
    <time>2026-06-23T02:21:33Z</time>
   </trkpt>
   <trkpt lat="-3.0821930" lon="37.3661900">
    <ele>5480.8</ele>
    <time>2026-06-23T02:21:34Z</time>
   </trkpt>
   <trkpt lat="-3.0821940" lon="37.3661880">
    <ele>5480.9</ele>
    <time>2026-06-23T02:21:35Z</time>
   </trkpt>
   <trkpt lat="-3.0821960" lon="37.3661870">
    <ele>5480.9</ele>
    <time>2026-06-23T02:21:36Z</time>
   </trkpt>
   <trkpt lat="-3.0821960" lon="37.3661830">
    <ele>5481.0</ele>
    <time>2026-06-23T02:21:37Z</time>
   </trkpt>
   <trkpt lat="-3.0821990" lon="37.3661840">
    <ele>5481.1</ele>
    <time>2026-06-23T02:21:38Z</time>
   </trkpt>
   <trkpt lat="-3.0821990" lon="37.3661810">
    <ele>5481.2</ele>
    <time>2026-06-23T02:21:39Z</time>
   </trkpt>
   <trkpt lat="-3.0821990" lon="37.3661810">
    <ele>5481.2</ele>
    <time>2026-06-23T02:21:40Z</time>
   </trkpt>
   <trkpt lat="-3.0822020" lon="37.3661790">
    <ele>5481.3</ele>
    <time>2026-06-23T02:21:41Z</time>
   </trkpt>
   <trkpt lat="-3.0822030" lon="37.3661770">
    <ele>5481.3</ele>
    <time>2026-06-23T02:21:42Z</time>
   </trkpt>
   <trkpt lat="-3.0822060" lon="37.3661760">
    <ele>5481.4</ele>
    <time>2026-06-23T02:21:43Z</time>
   </trkpt>
   <trkpt lat="-3.0822070" lon="37.3661750">
    <ele>5481.4</ele>
    <time>2026-06-23T02:21:44Z</time>
   </trkpt>
   <trkpt lat="-3.0822080" lon="37.3661800">
    <ele>5481.6</ele>
    <time>2026-06-23T02:21:45Z</time>
   </trkpt>
   <trkpt lat="-3.0822050" lon="37.3661740">
    <ele>5481.7</ele>
    <time>2026-06-23T02:21:46Z</time>
   </trkpt>
   <trkpt lat="-3.0822090" lon="37.3661730">
    <ele>5481.8</ele>
    <time>2026-06-23T02:21:47Z</time>
   </trkpt>
   <trkpt lat="-3.0822080" lon="37.3661700">
    <ele>5481.9</ele>
    <time>2026-06-23T02:21:48Z</time>
   </trkpt>
   <trkpt lat="-3.0822090" lon="37.3661690">
    <ele>5482.0</ele>
    <time>2026-06-23T02:21:49Z</time>
   </trkpt>
   <trkpt lat="-3.0822100" lon="37.3661670">
    <ele>5482.0</ele>
    <time>2026-06-23T02:21:50Z</time>
   </trkpt>
   <trkpt lat="-3.0822110" lon="37.3661650">
    <ele>5482.1</ele>
    <time>2026-06-23T02:21:51Z</time>
   </trkpt>
   <trkpt lat="-3.0822130" lon="37.3661630">
    <ele>5482.1</ele>
    <time>2026-06-23T02:21:52Z</time>
   </trkpt>
   <trkpt lat="-3.0822130" lon="37.3661610">
    <ele>5482.2</ele>
    <time>2026-06-23T02:21:53Z</time>
   </trkpt>
   <trkpt lat="-3.0822140" lon="37.3661590">
    <ele>5482.2</ele>
    <time>2026-06-23T02:21:54Z</time>
   </trkpt>
   <trkpt lat="-3.0822140" lon="37.3661580">
    <ele>5482.3</ele>
    <time>2026-06-23T02:21:55Z</time>
   </trkpt>
   <trkpt lat="-3.0822140" lon="37.3661570">
    <ele>5482.3</ele>
    <time>2026-06-23T02:21:56Z</time>
   </trkpt>
   <trkpt lat="-3.0822150" lon="37.3661550">
    <ele>5482.4</ele>
    <time>2026-06-23T02:21:57Z</time>
   </trkpt>
   <trkpt lat="-3.0822160" lon="37.3661530">
    <ele>5482.4</ele>
    <time>2026-06-23T02:21:58Z</time>
   </trkpt>
   <trkpt lat="-3.0822160" lon="37.3661510">
    <ele>5482.5</ele>
    <time>2026-06-23T02:21:59Z</time>
   </trkpt>
   <trkpt lat="-3.0822140" lon="37.3661480">
    <ele>5482.5</ele>
    <time>2026-06-23T02:22:00Z</time>
   </trkpt>
   <trkpt lat="-3.0822140" lon="37.3661470">
    <ele>5482.6</ele>
    <time>2026-06-23T02:22:01Z</time>
   </trkpt>
   <trkpt lat="-3.0822130" lon="37.3661450">
    <ele>5482.6</ele>
    <time>2026-06-23T02:22:02Z</time>
   </trkpt>
   <trkpt lat="-3.0822140" lon="37.3661450">
    <ele>5482.7</ele>
    <time>2026-06-23T02:22:03Z</time>
   </trkpt>
   <trkpt lat="-3.0822120" lon="37.3661450">
    <ele>5482.7</ele>
    <time>2026-06-23T02:22:04Z</time>
   </trkpt>
   <trkpt lat="-3.0822120" lon="37.3661440">
    <ele>5482.7</ele>
    <time>2026-06-23T02:22:05Z</time>
   </trkpt>
   <trkpt lat="-3.0822100" lon="37.3661420">
    <ele>5482.8</ele>
    <time>2026-06-23T02:22:06Z</time>
   </trkpt>
   <trkpt lat="-3.0822090" lon="37.3661410">
    <ele>5482.8</ele>
    <time>2026-06-23T02:22:07Z</time>
   </trkpt>
   <trkpt lat="-3.0822090" lon="37.3661380">
    <ele>5482.9</ele>
    <time>2026-06-23T02:22:08Z</time>
   </trkpt>
   <trkpt lat="-3.0822060" lon="37.3661370">
    <ele>5483.0</ele>
    <time>2026-06-23T02:22:09Z</time>
   </trkpt>
   <trkpt lat="-3.0822070" lon="37.3661340">
    <ele>5483.1</ele>
    <time>2026-06-23T02:22:10Z</time>
   </trkpt>
   <trkpt lat="-3.0822060" lon="37.3661340">
    <ele>5483.1</ele>
    <time>2026-06-23T02:22:11Z</time>
   </trkpt>
   <trkpt lat="-3.0822070" lon="37.3661330">
    <ele>5483.1</ele>
    <time>2026-06-23T02:22:12Z</time>
   </trkpt>
   <trkpt lat="-3.0822060" lon="37.3661320">
    <ele>5483.2</ele>
    <time>2026-06-23T02:22:13Z</time>
   </trkpt>
   <trkpt lat="-3.0822080" lon="37.3661310">
    <ele>5483.2</ele>
    <time>2026-06-23T02:22:14Z</time>
   </trkpt>
   <trkpt lat="-3.0822080" lon="37.3661290">
    <ele>5483.3</ele>
    <time>2026-06-23T02:22:15Z</time>
   </trkpt>
   <trkpt lat="-3.0822100" lon="37.3661290">
    <ele>5483.3</ele>
    <time>2026-06-23T02:22:16Z</time>
   </trkpt>
   <trkpt lat="-3.0822100" lon="37.3661280">
    <ele>5483.3</ele>
    <time>2026-06-23T02:22:17Z</time>
   </trkpt>
   <trkpt lat="-3.0822120" lon="37.3661260">
    <ele>5483.4</ele>
    <time>2026-06-23T02:22:18Z</time>
   </trkpt>
   <trkpt lat="-3.0822130" lon="37.3661240">
    <ele>5483.5</ele>
    <time>2026-06-23T02:22:19Z</time>
   </trkpt>
   <trkpt lat="-3.0822140" lon="37.3661230">
    <ele>5483.5</ele>
    <time>2026-06-23T02:22:20Z</time>
   </trkpt>
   <trkpt lat="-3.0822150" lon="37.3661220">
    <ele>5483.5</ele>
    <time>2026-06-23T02:22:21Z</time>
   </trkpt>
   <trkpt lat="-3.0822150" lon="37.3661190">
    <ele>5483.6</ele>
    <time>2026-06-23T02:22:22Z</time>
   </trkpt>
   <trkpt lat="-3.0822170" lon="37.3661190">
    <ele>5483.7</ele>
    <time>2026-06-23T02:22:23Z</time>
   </trkpt>
   <trkpt lat="-3.0822180" lon="37.3661180">
    <ele>5483.7</ele>
    <time>2026-06-23T02:22:24Z</time>
   </trkpt>
   <trkpt lat="-3.0822180" lon="37.3661160">
    <ele>5483.8</ele>
    <time>2026-06-23T02:22:25Z</time>
   </trkpt>
   <trkpt lat="-3.0822210" lon="37.3661140">
    <ele>5483.8</ele>
    <time>2026-06-23T02:22:26Z</time>
   </trkpt>
   <trkpt lat="-3.0822190" lon="37.3661120">
    <ele>5483.9</ele>
    <time>2026-06-23T02:22:27Z</time>
   </trkpt>
   <trkpt lat="-3.0822210" lon="37.3661110">
    <ele>5484.0</ele>
    <time>2026-06-23T02:22:28Z</time>
   </trkpt>
   <trkpt lat="-3.0822230" lon="37.3661090">
    <ele>5484.0</ele>
    <time>2026-06-23T02:22:29Z</time>
   </trkpt>
   <trkpt lat="-3.0822230" lon="37.3661060">
    <ele>5484.1</ele>
    <time>2026-06-23T02:22:30Z</time>
   </trkpt>
   <trkpt lat="-3.0822250" lon="37.3661050">
    <ele>5484.2</ele>
    <time>2026-06-23T02:22:31Z</time>
   </trkpt>
   <trkpt lat="-3.0822240" lon="37.3661030">
    <ele>5484.2</ele>
    <time>2026-06-23T02:22:32Z</time>
   </trkpt>
   <trkpt lat="-3.0822240" lon="37.3661000">
    <ele>5484.3</ele>
    <time>2026-06-23T02:22:33Z</time>
   </trkpt>
   <trkpt lat="-3.0822210" lon="37.3660990">
    <ele>5484.4</ele>
    <time>2026-06-23T02:22:34Z</time>
   </trkpt>
   <trkpt lat="-3.0822190" lon="37.3660970">
    <ele>5484.5</ele>
    <time>2026-06-23T02:22:35Z</time>
   </trkpt>
   <trkpt lat="-3.0822180" lon="37.3660970">
    <ele>5484.5</ele>
    <time>2026-06-23T02:22:36Z</time>
   </trkpt>
   <trkpt lat="-3.0822160" lon="37.3660950">
    <ele>5484.5</ele>
    <time>2026-06-23T02:22:37Z</time>
   </trkpt>
   <trkpt lat="-3.0822130" lon="37.3660940">
    <ele>5484.6</ele>
    <time>2026-06-23T02:22:38Z</time>
   </trkpt>
   <trkpt lat="-3.0822110" lon="37.3660940">
    <ele>5484.7</ele>
    <time>2026-06-23T02:22:40Z</time>
   </trkpt>
   <trkpt lat="-3.0822100" lon="37.3660940">
    <ele>5484.7</ele>
    <time>2026-06-23T02:22:41Z</time>
   </trkpt>
   <trkpt lat="-3.0822080" lon="37.3660940">
    <ele>5484.8</ele>
    <time>2026-06-23T02:22:42Z</time>
   </trkpt>
   <trkpt lat="-3.0822060" lon="37.3660950">
    <ele>5484.8</ele>
    <time>2026-06-23T02:22:43Z</time>
   </trkpt>
   <trkpt lat="-3.0822040" lon="37.3660940">
    <ele>5484.9</ele>
    <time>2026-06-23T02:22:44Z</time>
   </trkpt>
   <trkpt lat="-3.0822030" lon="37.3660940">
    <ele>5484.9</ele>
    <time>2026-06-23T02:22:45Z</time>
   </trkpt>
   <trkpt lat="-3.0822020" lon="37.3660930">
    <ele>5484.9</ele>
    <time>2026-06-23T02:22:46Z</time>
   </trkpt>
   <trkpt lat="-3.0822020" lon="37.3660940">
    <ele>5484.9</ele>
    <time>2026-06-23T02:22:47Z</time>
   </trkpt>
   <trkpt lat="-3.0821990" lon="37.3660930">
    <ele>5485.0</ele>
    <time>2026-06-23T02:22:48Z</time>
   </trkpt>
   <trkpt lat="-3.0821980" lon="37.3660930">
    <ele>5485.1</ele>
    <time>2026-06-23T02:22:49Z</time>
   </trkpt>
   <trkpt lat="-3.0821990" lon="37.3660930">
    <ele>5485.1</ele>
    <time>2026-06-23T02:22:50Z</time>
   </trkpt>
   <trkpt lat="-3.0822000" lon="37.3660930">
    <ele>5485.1</ele>
    <time>2026-06-23T02:22:51Z</time>
   </trkpt>
   <trkpt lat="-3.0822000" lon="37.3660930">
    <ele>5485.1</ele>
    <time>2026-06-23T02:22:52Z</time>
   </trkpt>
   <trkpt lat="-3.0821990" lon="37.3660930">
    <ele>5485.1</ele>
    <time>2026-06-23T02:22:53Z</time>
   </trkpt>
   <trkpt lat="-3.0822000" lon="37.3660930">
    <ele>5485.2</ele>
    <time>2026-06-23T02:22:54Z</time>
   </trkpt>
   <trkpt lat="-3.0822000" lon="37.3660940">
    <ele>5485.2</ele>
    <time>2026-06-23T02:22:55Z</time>
   </trkpt>
   <trkpt lat="-3.0821990" lon="37.3660940">
    <ele>5485.2</ele>
    <time>2026-06-23T02:22:56Z</time>
   </trkpt>
   <trkpt lat="-3.0821960" lon="37.3660950">
    <ele>5485.3</ele>
    <time>2026-06-23T02:22:57Z</time>
   </trkpt>
   <trkpt lat="-3.0821920" lon="37.3660950">
    <ele>5485.4</ele>
    <time>2026-06-23T02:22:58Z</time>
   </trkpt>
   <trkpt lat="-3.0821920" lon="37.3660970">
    <ele>5485.4</ele>
    <time>2026-06-23T02:22:59Z</time>
   </trkpt>
   <trkpt lat="-3.0821890" lon="37.3660990">
    <ele>5485.5</ele>
    <time>2026-06-23T02:23:00Z</time>
   </trkpt>
   <trkpt lat="-3.0821870" lon="37.3661000">
    <ele>5485.6</ele>
    <time>2026-06-23T02:23:01Z</time>
   </trkpt>
   <trkpt lat="-3.0821840" lon="37.3661000">
    <ele>5485.7</ele>
    <time>2026-06-23T02:23:02Z</time>
   </trkpt>
   <trkpt lat="-3.0821820" lon="37.3661020">
    <ele>5485.7</ele>
    <time>2026-06-23T02:23:03Z</time>
   </trkpt>
   <trkpt lat="-3.0821810" lon="37.3661020">
    <ele>5485.7</ele>
    <time>2026-06-23T02:23:04Z</time>
   </trkpt>
   <trkpt lat="-3.0821800" lon="37.3661040">
    <ele>5485.8</ele>
    <time>2026-06-23T02:23:05Z</time>
   </trkpt>
   <trkpt lat="-3.0821780" lon="37.3661040">
    <ele>5485.9</ele>
    <time>2026-06-23T02:23:06Z</time>
   </trkpt>
   <trkpt lat="-3.0821760" lon="37.3661040">
    <ele>5485.9</ele>
    <time>2026-06-23T02:23:07Z</time>
   </trkpt>
   <trkpt lat="-3.0821750" lon="37.3661050">
    <ele>5485.9</ele>
    <time>2026-06-23T02:23:08Z</time>
   </trkpt>
   <trkpt lat="-3.0821720" lon="37.3661060">
    <ele>5486.0</ele>
    <time>2026-06-23T02:23:09Z</time>
   </trkpt>
   <trkpt lat="-3.0821690" lon="37.3661060">
    <ele>5486.1</ele>
    <time>2026-06-23T02:23:10Z</time>
   </trkpt>
   <trkpt lat="-3.0821670" lon="37.3661080">
    <ele>5486.2</ele>
    <time>2026-06-23T02:23:11Z</time>
   </trkpt>
   <trkpt lat="-3.0821660" lon="37.3661080">
    <ele>5486.2</ele>
    <time>2026-06-23T02:23:12Z</time>
   </trkpt>
   <trkpt lat="-3.0821660" lon="37.3661090">
    <ele>5486.2</ele>
    <time>2026-06-23T02:23:13Z</time>
   </trkpt>
   <trkpt lat="-3.0821610" lon="37.3661090">
    <ele>5486.3</ele>
    <time>2026-06-23T02:23:14Z</time>
   </trkpt>
   <trkpt lat="-3.0821600" lon="37.3661100">
    <ele>5486.4</ele>
    <time>2026-06-23T02:23:15Z</time>
   </trkpt>
   <trkpt lat="-3.0821570" lon="37.3661100">
    <ele>5486.5</ele>
    <time>2026-06-23T02:23:16Z</time>
   </trkpt>
   <trkpt lat="-3.0821560" lon="37.3661090">
    <ele>5486.5</ele>
    <time>2026-06-23T02:23:17Z</time>
   </trkpt>
   <trkpt lat="-3.0821540" lon="37.3661090">
    <ele>5486.5</ele>
    <time>2026-06-23T02:23:18Z</time>
   </trkpt>
   <trkpt lat="-3.0821530" lon="37.3661080">
    <ele>5486.6</ele>
    <time>2026-06-23T02:23:19Z</time>
   </trkpt>
   <trkpt lat="-3.0821520" lon="37.3661080">
    <ele>5486.6</ele>
    <time>2026-06-23T02:23:20Z</time>
   </trkpt>
   <trkpt lat="-3.0821530" lon="37.3661080">
    <ele>5486.6</ele>
    <time>2026-06-23T02:23:21Z</time>
   </trkpt>
   <trkpt lat="-3.0821500" lon="37.3661060">
    <ele>5486.7</ele>
    <time>2026-06-23T02:23:22Z</time>
   </trkpt>
   <trkpt lat="-3.0821490" lon="37.3661050">
    <ele>5486.7</ele>
    <time>2026-06-23T02:23:23Z</time>
   </trkpt>
   <trkpt lat="-3.0821500" lon="37.3661040">
    <ele>5486.8</ele>
    <time>2026-06-23T02:23:24Z</time>
   </trkpt>
   <trkpt lat="-3.0821490" lon="37.3661020">
    <ele>5486.8</ele>
    <time>2026-06-23T02:23:25Z</time>
   </trkpt>
   <trkpt lat="-3.0821490" lon="37.3661000">
    <ele>5486.9</ele>
    <time>2026-06-23T02:23:26Z</time>
   </trkpt>
   <trkpt lat="-3.0821490" lon="37.3660980">
    <ele>5486.9</ele>
    <time>2026-06-23T02:23:27Z</time>
   </trkpt>
   <trkpt lat="-3.0821500" lon="37.3660960">
    <ele>5487.0</ele>
    <time>2026-06-23T02:23:28Z</time>
   </trkpt>
   <trkpt lat="-3.0821500" lon="37.3660920">
    <ele>5487.1</ele>
    <time>2026-06-23T02:23:29Z</time>
   </trkpt>
   <trkpt lat="-3.0821520" lon="37.3660900">
    <ele>5487.2</ele>
    <time>2026-06-23T02:23:30Z</time>
   </trkpt>
   <trkpt lat="-3.0821530" lon="37.3660890">
    <ele>5487.2</ele>
    <time>2026-06-23T02:23:31Z</time>
   </trkpt>
   <trkpt lat="-3.0821530" lon="37.3660860">
    <ele>5487.3</ele>
    <time>2026-06-23T02:23:32Z</time>
   </trkpt>
   <trkpt lat="-3.0821550" lon="37.3660850">
    <ele>5487.3</ele>
    <time>2026-06-23T02:23:33Z</time>
   </trkpt>
   <trkpt lat="-3.0821540" lon="37.3660830">
    <ele>5487.4</ele>
    <time>2026-06-23T02:23:34Z</time>
   </trkpt>
   <trkpt lat="-3.0821560" lon="37.3660810">
    <ele>5487.5</ele>
    <time>2026-06-23T02:23:35Z</time>
   </trkpt>
   <trkpt lat="-3.0821550" lon="37.3660780">
    <ele>5487.5</ele>
    <time>2026-06-23T02:23:36Z</time>
   </trkpt>
   <trkpt lat="-3.0821560" lon="37.3660780">
    <ele>5487.6</ele>
    <time>2026-06-23T02:23:37Z</time>
   </trkpt>
   <trkpt lat="-3.0821550" lon="37.3660750">
    <ele>5487.6</ele>
    <time>2026-06-23T02:23:38Z</time>
   </trkpt>
   <trkpt lat="-3.0821560" lon="37.3660740">
    <ele>5487.7</ele>
    <time>2026-06-23T02:23:39Z</time>
   </trkpt>
   <trkpt lat="-3.0821570" lon="37.3660730">
    <ele>5487.7</ele>
    <time>2026-06-23T02:23:40Z</time>
   </trkpt>
   <trkpt lat="-3.0821580" lon="37.3660720">
    <ele>5487.7</ele>
    <time>2026-06-23T02:23:41Z</time>
   </trkpt>
   <trkpt lat="-3.0821580" lon="37.3660690">
    <ele>5487.8</ele>
    <time>2026-06-23T02:23:42Z</time>
   </trkpt>
   <trkpt lat="-3.0821590" lon="37.3660670">
    <ele>5487.9</ele>
    <time>2026-06-23T02:23:43Z</time>
   </trkpt>
   <trkpt lat="-3.0821580" lon="37.3660660">
    <ele>5487.9</ele>
    <time>2026-06-23T02:23:44Z</time>
   </trkpt>
   <trkpt lat="-3.0821580" lon="37.3660640">
    <ele>5488.0</ele>
    <time>2026-06-23T02:23:45Z</time>
   </trkpt>
   <trkpt lat="-3.0821560" lon="37.3660620">
    <ele>5488.0</ele>
    <time>2026-06-23T02:23:46Z</time>
   </trkpt>
   <trkpt lat="-3.0821540" lon="37.3660630">
    <ele>5488.1</ele>
    <time>2026-06-23T02:23:47Z</time>
   </trkpt>
   <trkpt lat="-3.0821520" lon="37.3660630">
    <ele>5488.1</ele>
    <time>2026-06-23T02:23:48Z</time>
   </trkpt>
   <trkpt lat="-3.0821490" lon="37.3660620">
    <ele>5488.2</ele>
    <time>2026-06-23T02:23:49Z</time>
   </trkpt>
   <trkpt lat="-3.0821470" lon="37.3660640">
    <ele>5488.3</ele>
    <time>2026-06-23T02:23:50Z</time>
   </trkpt>
   <trkpt lat="-3.0821450" lon="37.3660640">
    <ele>5488.3</ele>
    <time>2026-06-23T02:23:51Z</time>
   </trkpt>
   <trkpt lat="-3.0821430" lon="37.3660640">
    <ele>5488.4</ele>
    <time>2026-06-23T02:23:52Z</time>
   </trkpt>
   <trkpt lat="-3.0821420" lon="37.3660640">
    <ele>5488.4</ele>
    <time>2026-06-23T02:23:53Z</time>
   </trkpt>
   <trkpt lat="-3.0821430" lon="37.3660650">
    <ele>5488.5</ele>
    <time>2026-06-23T02:23:54Z</time>
   </trkpt>
   <trkpt lat="-3.0821410" lon="37.3660650">
    <ele>5488.5</ele>
    <time>2026-06-23T02:23:55Z</time>
   </trkpt>
   <trkpt lat="-3.0821400" lon="37.3660660">
    <ele>5488.5</ele>
    <time>2026-06-23T02:23:56Z</time>
   </trkpt>
   <trkpt lat="-3.0821350" lon="37.3660660">
    <ele>5488.7</ele>
    <time>2026-06-23T02:23:57Z</time>
   </trkpt>
   <trkpt lat="-3.0821350" lon="37.3660680">
    <ele>5488.7</ele>
    <time>2026-06-23T02:23:58Z</time>
   </trkpt>
   <trkpt lat="-3.0821350" lon="37.3660680">
    <ele>5488.7</ele>
    <time>2026-06-23T02:23:59Z</time>
   </trkpt>
   <trkpt lat="-3.0821350" lon="37.3660680">
    <ele>5488.7</ele>
    <time>2026-06-23T02:24:00Z</time>
   </trkpt>
   <trkpt lat="-3.0821320" lon="37.3660690">
    <ele>5488.8</ele>
    <time>2026-06-23T02:24:01Z</time>
   </trkpt>
   <trkpt lat="-3.0821310" lon="37.3660690">
    <ele>5488.8</ele>
    <time>2026-06-23T02:24:02Z</time>
   </trkpt>
   <trkpt lat="-3.0821290" lon="37.3660700">
    <ele>5488.9</ele>
    <time>2026-06-23T02:24:03Z</time>
   </trkpt>
   <trkpt lat="-3.0821280" lon="37.3660710">
    <ele>5488.9</ele>
    <time>2026-06-23T02:24:04Z</time>
   </trkpt>
   <trkpt lat="-3.0821250" lon="37.3660710">
    <ele>5489.0</ele>
    <time>2026-06-23T02:24:05Z</time>
   </trkpt>
   <trkpt lat="-3.0821220" lon="37.3660720">
    <ele>5489.1</ele>
    <time>2026-06-23T02:24:06Z</time>
   </trkpt>
   <trkpt lat="-3.0821210" lon="37.3660710">
    <ele>5489.1</ele>
    <time>2026-06-23T02:24:07Z</time>
   </trkpt>
   <trkpt lat="-3.0821210" lon="37.3660730">
    <ele>5489.1</ele>
    <time>2026-06-23T02:24:08Z</time>
   </trkpt>
   <trkpt lat="-3.0821190" lon="37.3660730">
    <ele>5489.2</ele>
    <time>2026-06-23T02:24:09Z</time>
   </trkpt>
   <trkpt lat="-3.0821170" lon="37.3660720">
    <ele>5489.3</ele>
    <time>2026-06-23T02:24:10Z</time>
   </trkpt>
   <trkpt lat="-3.0821160" lon="37.3660730">
    <ele>5489.3</ele>
    <time>2026-06-23T02:24:11Z</time>
   </trkpt>
   <trkpt lat="-3.0821130" lon="37.3660730">
    <ele>5489.4</ele>
    <time>2026-06-23T02:24:12Z</time>
   </trkpt>
   <trkpt lat="-3.0821120" lon="37.3660740">
    <ele>5489.4</ele>
    <time>2026-06-23T02:24:13Z</time>
   </trkpt>
   <trkpt lat="-3.0821100" lon="37.3660740">
    <ele>5489.4</ele>
    <time>2026-06-23T02:24:14Z</time>
   </trkpt>
   <trkpt lat="-3.0821080" lon="37.3660760">
    <ele>5489.5</ele>
    <time>2026-06-23T02:24:15Z</time>
   </trkpt>
   <trkpt lat="-3.0821050" lon="37.3660770">
    <ele>5489.6</ele>
    <time>2026-06-23T02:24:16Z</time>
   </trkpt>
   <trkpt lat="-3.0821040" lon="37.3660770">
    <ele>5489.6</ele>
    <time>2026-06-23T02:24:17Z</time>
   </trkpt>
   <trkpt lat="-3.0821020" lon="37.3660780">
    <ele>5489.7</ele>
    <time>2026-06-23T02:24:18Z</time>
   </trkpt>
   <trkpt lat="-3.0821010" lon="37.3660800">
    <ele>5489.7</ele>
    <time>2026-06-23T02:24:19Z</time>
   </trkpt>
   <trkpt lat="-3.0820980" lon="37.3660790">
    <ele>5489.8</ele>
    <time>2026-06-23T02:24:20Z</time>
   </trkpt>
   <trkpt lat="-3.0820990" lon="37.3660810">
    <ele>5489.9</ele>
    <time>2026-06-23T02:24:21Z</time>
   </trkpt>
   <trkpt lat="-3.0820970" lon="37.3660810">
    <ele>5489.9</ele>
    <time>2026-06-23T02:24:22Z</time>
   </trkpt>
   <trkpt lat="-3.0820980" lon="37.3660810">
    <ele>5489.9</ele>
    <time>2026-06-23T02:24:23Z</time>
   </trkpt>
   <trkpt lat="-3.0820960" lon="37.3660800">
    <ele>5490.0</ele>
    <time>2026-06-23T02:24:24Z</time>
   </trkpt>
   <trkpt lat="-3.0820940" lon="37.3660800">
    <ele>5490.1</ele>
    <time>2026-06-23T02:24:25Z</time>
   </trkpt>
   <trkpt lat="-3.0820910" lon="37.3660800">
    <ele>5490.1</ele>
    <time>2026-06-23T02:24:26Z</time>
   </trkpt>
   <trkpt lat="-3.0820890" lon="37.3660810">
    <ele>5490.2</ele>
    <time>2026-06-23T02:24:27Z</time>
   </trkpt>
   <trkpt lat="-3.0820870" lon="37.3660790">
    <ele>5490.3</ele>
    <time>2026-06-23T02:24:28Z</time>
   </trkpt>
   <trkpt lat="-3.0820860" lon="37.3660800">
    <ele>5490.3</ele>
    <time>2026-06-23T02:24:29Z</time>
   </trkpt>
   <trkpt lat="-3.0820820" lon="37.3660800">
    <ele>5490.4</ele>
    <time>2026-06-23T02:24:30Z</time>
   </trkpt>
   <trkpt lat="-3.0820830" lon="37.3660810">
    <ele>5490.4</ele>
    <time>2026-06-23T02:24:31Z</time>
   </trkpt>
   <trkpt lat="-3.0820820" lon="37.3660800">
    <ele>5490.5</ele>
    <time>2026-06-23T02:24:32Z</time>
   </trkpt>
   <trkpt lat="-3.0820810" lon="37.3660800">
    <ele>5490.5</ele>
    <time>2026-06-23T02:24:33Z</time>
   </trkpt>
   <trkpt lat="-3.0820810" lon="37.3660810">
    <ele>5490.5</ele>
    <time>2026-06-23T02:24:34Z</time>
   </trkpt>
   <trkpt lat="-3.0820780" lon="37.3660810">
    <ele>5490.6</ele>
    <time>2026-06-23T02:24:35Z</time>
   </trkpt>
   <trkpt lat="-3.0820760" lon="37.3660810">
    <ele>5490.6</ele>
    <time>2026-06-23T02:24:36Z</time>
   </trkpt>
   <trkpt lat="-3.0820750" lon="37.3660820">
    <ele>5490.7</ele>
    <time>2026-06-23T02:24:37Z</time>
   </trkpt>
   <trkpt lat="-3.0820720" lon="37.3660820">
    <ele>5490.7</ele>
    <time>2026-06-23T02:24:38Z</time>
   </trkpt>
   <trkpt lat="-3.0820700" lon="37.3660820">
    <ele>5490.8</ele>
    <time>2026-06-23T02:24:39Z</time>
   </trkpt>
   <trkpt lat="-3.0820710" lon="37.3660820">
    <ele>5490.8</ele>
    <time>2026-06-23T02:24:40Z</time>
   </trkpt>
   <trkpt lat="-3.0820700" lon="37.3660830">
    <ele>5490.9</ele>
    <time>2026-06-23T02:24:41Z</time>
   </trkpt>
   <trkpt lat="-3.0820680" lon="37.3660820">
    <ele>5490.9</ele>
    <time>2026-06-23T02:24:42Z</time>
   </trkpt>
   <trkpt lat="-3.0820640" lon="37.3660820">
    <ele>5491.0</ele>
    <time>2026-06-23T02:24:43Z</time>
   </trkpt>
   <trkpt lat="-3.0820620" lon="37.3660800">
    <ele>5491.1</ele>
    <time>2026-06-23T02:24:44Z</time>
   </trkpt>
   <trkpt lat="-3.0820610" lon="37.3660790">
    <ele>5491.1</ele>
    <time>2026-06-23T02:24:45Z</time>
   </trkpt>
   <trkpt lat="-3.0820600" lon="37.3660770">
    <ele>5491.2</ele>
    <time>2026-06-23T02:24:46Z</time>
   </trkpt>
   <trkpt lat="-3.0820610" lon="37.3660750">
    <ele>5491.2</ele>
    <time>2026-06-23T02:24:47Z</time>
   </trkpt>
   <trkpt lat="-3.0820590" lon="37.3660730">
    <ele>5491.3</ele>
    <time>2026-06-23T02:24:48Z</time>
   </trkpt>
   <trkpt lat="-3.0820600" lon="37.3660710">
    <ele>5491.4</ele>
    <time>2026-06-23T02:24:49Z</time>
   </trkpt>
   <trkpt lat="-3.0820580" lon="37.3660710">
    <ele>5491.4</ele>
    <time>2026-06-23T02:24:50Z</time>
   </trkpt>
   <trkpt lat="-3.0820580" lon="37.3660690">
    <ele>5491.5</ele>
    <time>2026-06-23T02:24:51Z</time>
   </trkpt>
   <trkpt lat="-3.0820560" lon="37.3660700">
    <ele>5491.5</ele>
    <time>2026-06-23T02:24:52Z</time>
   </trkpt>
   <trkpt lat="-3.0820540" lon="37.3660710">
    <ele>5491.6</ele>
    <time>2026-06-23T02:24:53Z</time>
   </trkpt>
   <trkpt lat="-3.0820530" lon="37.3660710">
    <ele>5491.6</ele>
    <time>2026-06-23T02:24:54Z</time>
   </trkpt>
   <trkpt lat="-3.0820500" lon="37.3660720">
    <ele>5491.7</ele>
    <time>2026-06-23T02:24:55Z</time>
   </trkpt>
   <trkpt lat="-3.0820480" lon="37.3660720">
    <ele>5491.7</ele>
    <time>2026-06-23T02:24:56Z</time>
   </trkpt>
   <trkpt lat="-3.0820450" lon="37.3660720">
    <ele>5491.8</ele>
    <time>2026-06-23T02:24:57Z</time>
   </trkpt>
   <trkpt lat="-3.0820430" lon="37.3660730">
    <ele>5491.9</ele>
    <time>2026-06-23T02:24:58Z</time>
   </trkpt>
   <trkpt lat="-3.0820430" lon="37.3660740">
    <ele>5491.9</ele>
    <time>2026-06-23T02:24:59Z</time>
   </trkpt>
   <trkpt lat="-3.0820400" lon="37.3660750">
    <ele>5492.0</ele>
    <time>2026-06-23T02:25:00Z</time>
   </trkpt>
   <trkpt lat="-3.0820390" lon="37.3660760">
    <ele>5492.0</ele>
    <time>2026-06-23T02:25:01Z</time>
   </trkpt>
   <trkpt lat="-3.0820390" lon="37.3660760">
    <ele>5492.0</ele>
    <time>2026-06-23T02:25:02Z</time>
   </trkpt>
   <trkpt lat="-3.0820360" lon="37.3660760">
    <ele>5492.1</ele>
    <time>2026-06-23T02:25:03Z</time>
   </trkpt>
   <trkpt lat="-3.0820340" lon="37.3660760">
    <ele>5492.1</ele>
    <time>2026-06-23T02:25:04Z</time>
   </trkpt>
   <trkpt lat="-3.0820320" lon="37.3660780">
    <ele>5492.2</ele>
    <time>2026-06-23T02:25:05Z</time>
   </trkpt>
   <trkpt lat="-3.0820320" lon="37.3660790">
    <ele>5492.2</ele>
    <time>2026-06-23T02:25:06Z</time>
   </trkpt>
   <trkpt lat="-3.0820300" lon="37.3660800">
    <ele>5492.3</ele>
    <time>2026-06-23T02:25:07Z</time>
   </trkpt>
   <trkpt lat="-3.0820280" lon="37.3660800">
    <ele>5492.3</ele>
    <time>2026-06-23T02:25:08Z</time>
   </trkpt>
   <trkpt lat="-3.0820260" lon="37.3660800">
    <ele>5492.4</ele>
    <time>2026-06-23T02:25:09Z</time>
   </trkpt>
   <trkpt lat="-3.0820250" lon="37.3660800">
    <ele>5492.4</ele>
    <time>2026-06-23T02:25:10Z</time>
   </trkpt>
   <trkpt lat="-3.0820220" lon="37.3660790">
    <ele>5492.5</ele>
    <time>2026-06-23T02:25:11Z</time>
   </trkpt>
   <trkpt lat="-3.0820220" lon="37.3660800">
    <ele>5492.5</ele>
    <time>2026-06-23T02:25:12Z</time>
   </trkpt>
   <trkpt lat="-3.0820180" lon="37.3660790">
    <ele>5492.6</ele>
    <time>2026-06-23T02:25:13Z</time>
   </trkpt>
   <trkpt lat="-3.0820190" lon="37.3660800">
    <ele>5492.6</ele>
    <time>2026-06-23T02:25:14Z</time>
   </trkpt>
   <trkpt lat="-3.0820140" lon="37.3660770">
    <ele>5492.8</ele>
    <time>2026-06-23T02:25:15Z</time>
   </trkpt>
   <trkpt lat="-3.0820130" lon="37.3660770">
    <ele>5492.8</ele>
    <time>2026-06-23T02:25:16Z</time>
   </trkpt>
   <trkpt lat="-3.0820120" lon="37.3660760">
    <ele>5492.8</ele>
    <time>2026-06-23T02:25:17Z</time>
   </trkpt>
   <trkpt lat="-3.0820090" lon="37.3660760">
    <ele>5492.9</ele>
    <time>2026-06-23T02:25:18Z</time>
   </trkpt>
   <trkpt lat="-3.0820070" lon="37.3660750">
    <ele>5493.0</ele>
    <time>2026-06-23T02:25:19Z</time>
   </trkpt>
   <trkpt lat="-3.0820070" lon="37.3660750">
    <ele>5493.0</ele>
    <time>2026-06-23T02:25:20Z</time>
   </trkpt>
   <trkpt lat="-3.0820050" lon="37.3660720">
    <ele>5493.1</ele>
    <time>2026-06-23T02:25:21Z</time>
   </trkpt>
   <trkpt lat="-3.0820030" lon="37.3660720">
    <ele>5493.1</ele>
    <time>2026-06-23T02:25:22Z</time>
   </trkpt>
   <trkpt lat="-3.0820000" lon="37.3660710">
    <ele>5493.2</ele>
    <time>2026-06-23T02:25:23Z</time>
   </trkpt>
   <trkpt lat="-3.0820010" lon="37.3660700">
    <ele>5493.2</ele>
    <time>2026-06-23T02:25:24Z</time>
   </trkpt>
   <trkpt lat="-3.0820000" lon="37.3660700">
    <ele>5493.3</ele>
    <time>2026-06-23T02:25:25Z</time>
   </trkpt>
   <trkpt lat="-3.0820010" lon="37.3660700">
    <ele>5493.3</ele>
    <time>2026-06-23T02:25:26Z</time>
   </trkpt>
   <trkpt lat="-3.0819980" lon="37.3660690">
    <ele>5493.4</ele>
    <time>2026-06-23T02:25:27Z</time>
   </trkpt>
   <trkpt lat="-3.0819960" lon="37.3660710">
    <ele>5493.4</ele>
    <time>2026-06-23T02:25:28Z</time>
   </trkpt>
   <trkpt lat="-3.0819930" lon="37.3660700">
    <ele>5493.5</ele>
    <time>2026-06-23T02:25:29Z</time>
   </trkpt>
   <trkpt lat="-3.0819930" lon="37.3660710">
    <ele>5493.5</ele>
    <time>2026-06-23T02:25:30Z</time>
   </trkpt>
   <trkpt lat="-3.0819930" lon="37.3660710">
    <ele>5493.5</ele>
    <time>2026-06-23T02:25:31Z</time>
   </trkpt>
   <trkpt lat="-3.0819900" lon="37.3660700">
    <ele>5493.6</ele>
    <time>2026-06-23T02:25:32Z</time>
   </trkpt>
   <trkpt lat="-3.0819870" lon="37.3660700">
    <ele>5493.7</ele>
    <time>2026-06-23T02:25:33Z</time>
   </trkpt>
   <trkpt lat="-3.0819850" lon="37.3660700">
    <ele>5493.7</ele>
    <time>2026-06-23T02:25:34Z</time>
   </trkpt>
   <trkpt lat="-3.0819810" lon="37.3660710">
    <ele>5493.8</ele>
    <time>2026-06-23T02:25:35Z</time>
   </trkpt>
   <trkpt lat="-3.0819800" lon="37.3660710">
    <ele>5493.9</ele>
    <time>2026-06-23T02:25:36Z</time>
   </trkpt>
   <trkpt lat="-3.0819750" lon="37.3660700">
    <ele>5494.0</ele>
    <time>2026-06-23T02:25:37Z</time>
   </trkpt>
   <trkpt lat="-3.0819730" lon="37.3660700">
    <ele>5494.0</ele>
    <time>2026-06-23T02:25:38Z</time>
   </trkpt>
   <trkpt lat="-3.0819720" lon="37.3660680">
    <ele>5494.1</ele>
    <time>2026-06-23T02:25:39Z</time>
   </trkpt>
   <trkpt lat="-3.0819690" lon="37.3660670">
    <ele>5494.2</ele>
    <time>2026-06-23T02:25:40Z</time>
   </trkpt>
   <trkpt lat="-3.0819700" lon="37.3660670">
    <ele>5494.2</ele>
    <time>2026-06-23T02:25:41Z</time>
   </trkpt>
   <trkpt lat="-3.0819650" lon="37.3660670">
    <ele>5494.3</ele>
    <time>2026-06-23T02:25:42Z</time>
   </trkpt>
   <trkpt lat="-3.0819630" lon="37.3660660">
    <ele>5494.4</ele>
    <time>2026-06-23T02:25:43Z</time>
   </trkpt>
   <trkpt lat="-3.0819620" lon="37.3660670">
    <ele>5494.4</ele>
    <time>2026-06-23T02:25:44Z</time>
   </trkpt>
   <trkpt lat="-3.0819600" lon="37.3660650">
    <ele>5494.5</ele>
    <time>2026-06-23T02:25:45Z</time>
   </trkpt>
   <trkpt lat="-3.0819580" lon="37.3660660">
    <ele>5494.5</ele>
    <time>2026-06-23T02:25:46Z</time>
   </trkpt>
   <trkpt lat="-3.0819590" lon="37.3660660">
    <ele>5494.6</ele>
    <time>2026-06-23T02:25:47Z</time>
   </trkpt>
   <trkpt lat="-3.0819570" lon="37.3660640">
    <ele>5494.6</ele>
    <time>2026-06-23T02:25:48Z</time>
   </trkpt>
   <trkpt lat="-3.0819540" lon="37.3660620">
    <ele>5494.7</ele>
    <time>2026-06-23T02:25:49Z</time>
   </trkpt>
   <trkpt lat="-3.0819520" lon="37.3660610">
    <ele>5494.8</ele>
    <time>2026-06-23T02:25:50Z</time>
   </trkpt>
   <trkpt lat="-3.0819510" lon="37.3660600">
    <ele>5494.8</ele>
    <time>2026-06-23T02:25:51Z</time>
   </trkpt>
   <trkpt lat="-3.0819500" lon="37.3660610">
    <ele>5494.9</ele>
    <time>2026-06-23T02:25:52Z</time>
   </trkpt>
   <trkpt lat="-3.0819480" lon="37.3660600">
    <ele>5494.9</ele>
    <time>2026-06-23T02:25:53Z</time>
   </trkpt>
   <trkpt lat="-3.0819470" lon="37.3660590">
    <ele>5495.0</ele>
    <time>2026-06-23T02:25:54Z</time>
   </trkpt>
   <trkpt lat="-3.0819450" lon="37.3660590">
    <ele>5495.0</ele>
    <time>2026-06-23T02:25:55Z</time>
   </trkpt>
   <trkpt lat="-3.0819440" lon="37.3660570">
    <ele>5495.1</ele>
    <time>2026-06-23T02:25:56Z</time>
   </trkpt>
   <trkpt lat="-3.0819430" lon="37.3660570">
    <ele>5495.1</ele>
    <time>2026-06-23T02:25:57Z</time>
   </trkpt>
   <trkpt lat="-3.0819410" lon="37.3660550">
    <ele>5495.2</ele>
    <time>2026-06-23T02:25:58Z</time>
   </trkpt>
   <trkpt lat="-3.0819390" lon="37.3660550">
    <ele>5495.2</ele>
    <time>2026-06-23T02:25:59Z</time>
   </trkpt>
   <trkpt lat="-3.0819390" lon="37.3660530">
    <ele>5495.3</ele>
    <time>2026-06-23T02:26:00Z</time>
   </trkpt>
   <trkpt lat="-3.0819390" lon="37.3660540">
    <ele>5495.3</ele>
    <time>2026-06-23T02:26:01Z</time>
   </trkpt>
   <trkpt lat="-3.0819390" lon="37.3660520">
    <ele>5495.3</ele>
    <time>2026-06-23T02:26:02Z</time>
   </trkpt>
   <trkpt lat="-3.0819370" lon="37.3660500">
    <ele>5495.4</ele>
    <time>2026-06-23T02:26:03Z</time>
   </trkpt>
   <trkpt lat="-3.0819370" lon="37.3660490">
    <ele>5495.4</ele>
    <time>2026-06-23T02:26:04Z</time>
   </trkpt>
   <trkpt lat="-3.0819340" lon="37.3660470">
    <ele>5495.5</ele>
    <time>2026-06-23T02:26:05Z</time>
   </trkpt>
   <trkpt lat="-3.0819330" lon="37.3660450">
    <ele>5495.6</ele>
    <time>2026-06-23T02:26:06Z</time>
   </trkpt>
   <trkpt lat="-3.0819320" lon="37.3660420">
    <ele>5495.6</ele>
    <time>2026-06-23T02:26:07Z</time>
   </trkpt>
   <trkpt lat="-3.0819300" lon="37.3660410">
    <ele>5495.7</ele>
    <time>2026-06-23T02:26:08Z</time>
   </trkpt>
   <trkpt lat="-3.0819310" lon="37.3660400">
    <ele>5495.7</ele>
    <time>2026-06-23T02:26:09Z</time>
   </trkpt>
   <trkpt lat="-3.0819300" lon="37.3660390">
    <ele>5495.8</ele>
    <time>2026-06-23T02:26:10Z</time>
   </trkpt>
   <trkpt lat="-3.0819280" lon="37.3660380">
    <ele>5495.8</ele>
    <time>2026-06-23T02:26:11Z</time>
   </trkpt>
   <trkpt lat="-3.0819240" lon="37.3660360">
    <ele>5495.9</ele>
    <time>2026-06-23T02:26:12Z</time>
   </trkpt>
   <trkpt lat="-3.0819240" lon="37.3660360">
    <ele>5495.9</ele>
    <time>2026-06-23T02:26:13Z</time>
   </trkpt>
   <trkpt lat="-3.0819210" lon="37.3660360">
    <ele>5496.0</ele>
    <time>2026-06-23T02:26:14Z</time>
   </trkpt>
   <trkpt lat="-3.0819230" lon="37.3660370">
    <ele>5496.1</ele>
    <time>2026-06-23T02:26:15Z</time>
   </trkpt>
   <trkpt lat="-3.0819230" lon="37.3660370">
    <ele>5496.1</ele>
    <time>2026-06-23T02:26:16Z</time>
   </trkpt>
   <trkpt lat="-3.0819230" lon="37.3660370">
    <ele>5496.1</ele>
    <time>2026-06-23T02:26:17Z</time>
   </trkpt>
   <trkpt lat="-3.0819230" lon="37.3660380">
    <ele>5496.1</ele>
    <time>2026-06-23T02:26:18Z</time>
   </trkpt>
   <trkpt lat="-3.0819200" lon="37.3660400">
    <ele>5496.2</ele>
    <time>2026-06-23T02:26:19Z</time>
   </trkpt>
   <trkpt lat="-3.0819170" lon="37.3660400">
    <ele>5496.3</ele>
    <time>2026-06-23T02:26:20Z</time>
   </trkpt>
   <trkpt lat="-3.0819160" lon="37.3660420">
    <ele>5496.3</ele>
    <time>2026-06-23T02:26:21Z</time>
   </trkpt>
   <trkpt lat="-3.0819140" lon="37.3660420">
    <ele>5496.4</ele>
    <time>2026-06-23T02:26:22Z</time>
   </trkpt>
   <trkpt lat="-3.0819130" lon="37.3660420">
    <ele>5496.4</ele>
    <time>2026-06-23T02:26:23Z</time>
   </trkpt>
   <trkpt lat="-3.0819120" lon="37.3660440">
    <ele>5496.4</ele>
    <time>2026-06-23T02:26:24Z</time>
   </trkpt>
   <trkpt lat="-3.0819090" lon="37.3660440">
    <ele>5496.5</ele>
    <time>2026-06-23T02:26:25Z</time>
   </trkpt>
   <trkpt lat="-3.0819090" lon="37.3660440">
    <ele>5496.5</ele>
    <time>2026-06-23T02:26:26Z</time>
   </trkpt>
   <trkpt lat="-3.0819080" lon="37.3660450">
    <ele>5496.5</ele>
    <time>2026-06-23T02:26:27Z</time>
   </trkpt>
   <trkpt lat="-3.0819080" lon="37.3660450">
    <ele>5496.5</ele>
    <time>2026-06-23T02:26:28Z</time>
   </trkpt>
   <trkpt lat="-3.0819080" lon="37.3660450">
    <ele>5496.5</ele>
    <time>2026-06-23T02:26:29Z</time>
   </trkpt>
   <trkpt lat="-3.0819080" lon="37.3660460">
    <ele>5496.6</ele>
    <time>2026-06-23T02:26:30Z</time>
   </trkpt>
   <trkpt lat="-3.0819050" lon="37.3660440">
    <ele>5496.7</ele>
    <time>2026-06-23T02:26:31Z</time>
   </trkpt>
   <trkpt lat="-3.0819040" lon="37.3660440">
    <ele>5496.7</ele>
    <time>2026-06-23T02:26:32Z</time>
   </trkpt>
   <trkpt lat="-3.0819010" lon="37.3660440">
    <ele>5496.7</ele>
    <time>2026-06-23T02:26:33Z</time>
   </trkpt>
   <trkpt lat="-3.0818990" lon="37.3660450">
    <ele>5496.8</ele>
    <time>2026-06-23T02:26:34Z</time>
   </trkpt>
   <trkpt lat="-3.0818970" lon="37.3660460">
    <ele>5496.8</ele>
    <time>2026-06-23T02:26:35Z</time>
   </trkpt>
   <trkpt lat="-3.0818950" lon="37.3660480">
    <ele>5496.9</ele>
    <time>2026-06-23T02:26:36Z</time>
   </trkpt>
   <trkpt lat="-3.0818930" lon="37.3660490">
    <ele>5497.0</ele>
    <time>2026-06-23T02:26:37Z</time>
   </trkpt>
   <trkpt lat="-3.0818920" lon="37.3660500">
    <ele>5497.0</ele>
    <time>2026-06-23T02:26:38Z</time>
   </trkpt>
   <trkpt lat="-3.0818900" lon="37.3660510">
    <ele>5497.1</ele>
    <time>2026-06-23T02:26:39Z</time>
   </trkpt>
   <trkpt lat="-3.0818870" lon="37.3660530">
    <ele>5497.1</ele>
    <time>2026-06-23T02:26:40Z</time>
   </trkpt>
   <trkpt lat="-3.0818830" lon="37.3660530">
    <ele>5497.2</ele>
    <time>2026-06-23T02:26:41Z</time>
   </trkpt>
   <trkpt lat="-3.0818830" lon="37.3660540">
    <ele>5497.3</ele>
    <time>2026-06-23T02:26:42Z</time>
   </trkpt>
   <trkpt lat="-3.0818790" lon="37.3660540">
    <ele>5497.3</ele>
    <time>2026-06-23T02:26:43Z</time>
   </trkpt>
   <trkpt lat="-3.0818790" lon="37.3660560">
    <ele>5497.4</ele>
    <time>2026-06-23T02:26:44Z</time>
   </trkpt>
   <trkpt lat="-3.0818780" lon="37.3660570">
    <ele>5497.4</ele>
    <time>2026-06-23T02:26:45Z</time>
   </trkpt>
   <trkpt lat="-3.0818780" lon="37.3660570">
    <ele>5497.4</ele>
    <time>2026-06-23T02:26:46Z</time>
   </trkpt>
   <trkpt lat="-3.0818760" lon="37.3660570">
    <ele>5497.5</ele>
    <time>2026-06-23T02:26:47Z</time>
   </trkpt>
   <trkpt lat="-3.0818750" lon="37.3660580">
    <ele>5497.5</ele>
    <time>2026-06-23T02:26:48Z</time>
   </trkpt>
   <trkpt lat="-3.0818740" lon="37.3660590">
    <ele>5497.5</ele>
    <time>2026-06-23T02:26:49Z</time>
   </trkpt>
   <trkpt lat="-3.0818730" lon="37.3660580">
    <ele>5497.6</ele>
    <time>2026-06-23T02:26:50Z</time>
   </trkpt>
   <trkpt lat="-3.0818710" lon="37.3660600">
    <ele>5497.6</ele>
    <time>2026-06-23T02:26:51Z</time>
   </trkpt>
   <trkpt lat="-3.0818690" lon="37.3660610">
    <ele>5497.7</ele>
    <time>2026-06-23T02:26:52Z</time>
   </trkpt>
   <trkpt lat="-3.0818670" lon="37.3660640">
    <ele>5497.8</ele>
    <time>2026-06-23T02:26:53Z</time>
   </trkpt>
   <trkpt lat="-3.0818650" lon="37.3660640">
    <ele>5497.8</ele>
    <time>2026-06-23T02:26:54Z</time>
   </trkpt>
   <trkpt lat="-3.0818640" lon="37.3660660">
    <ele>5497.9</ele>
    <time>2026-06-23T02:26:55Z</time>
   </trkpt>
   <trkpt lat="-3.0818620" lon="37.3660670">
    <ele>5497.9</ele>
    <time>2026-06-23T02:26:56Z</time>
   </trkpt>
   <trkpt lat="-3.0818610" lon="37.3660670">
    <ele>5498.0</ele>
    <time>2026-06-23T02:26:57Z</time>
   </trkpt>
   <trkpt lat="-3.0818590" lon="37.3660670">
    <ele>5498.0</ele>
    <time>2026-06-23T02:26:58Z</time>
   </trkpt>
   <trkpt lat="-3.0818580" lon="37.3660680">
    <ele>5498.0</ele>
    <time>2026-06-23T02:26:59Z</time>
   </trkpt>
   <trkpt lat="-3.0818560" lon="37.3660670">
    <ele>5498.1</ele>
    <time>2026-06-23T02:27:00Z</time>
   </trkpt>
   <trkpt lat="-3.0818540" lon="37.3660680">
    <ele>5498.1</ele>
    <time>2026-06-23T02:27:01Z</time>
   </trkpt>
   <trkpt lat="-3.0818510" lon="37.3660690">
    <ele>5498.2</ele>
    <time>2026-06-23T02:27:02Z</time>
   </trkpt>
   <trkpt lat="-3.0818490" lon="37.3660690">
    <ele>5498.3</ele>
    <time>2026-06-23T02:27:03Z</time>
   </trkpt>
   <trkpt lat="-3.0818470" lon="37.3660700">
    <ele>5498.3</ele>
    <time>2026-06-23T02:27:04Z</time>
   </trkpt>
   <trkpt lat="-3.0818450" lon="37.3660700">
    <ele>5498.3</ele>
    <time>2026-06-23T02:27:05Z</time>
   </trkpt>
   <trkpt lat="-3.0818440" lon="37.3660710">
    <ele>5498.4</ele>
    <time>2026-06-23T02:27:06Z</time>
   </trkpt>
   <trkpt lat="-3.0818420" lon="37.3660690">
    <ele>5498.4</ele>
    <time>2026-06-23T02:27:07Z</time>
   </trkpt>
   <trkpt lat="-3.0818410" lon="37.3660710">
    <ele>5498.5</ele>
    <time>2026-06-23T02:27:08Z</time>
   </trkpt>
   <trkpt lat="-3.0818400" lon="37.3660710">
    <ele>5498.5</ele>
    <time>2026-06-23T02:27:09Z</time>
   </trkpt>
   <trkpt lat="-3.0818390" lon="37.3660740">
    <ele>5498.6</ele>
    <time>2026-06-23T02:27:10Z</time>
   </trkpt>
   <trkpt lat="-3.0818380" lon="37.3660730">
    <ele>5498.6</ele>
    <time>2026-06-23T02:27:11Z</time>
   </trkpt>
   <trkpt lat="-3.0818390" lon="37.3660730">
    <ele>5498.6</ele>
    <time>2026-06-23T02:27:12Z</time>
   </trkpt>
   <trkpt lat="-3.0818390" lon="37.3660730">
    <ele>5498.6</ele>
    <time>2026-06-23T02:27:13Z</time>
   </trkpt>
   <trkpt lat="-3.0818400" lon="37.3660730">
    <ele>5498.6</ele>
    <time>2026-06-23T02:27:14Z</time>
   </trkpt>
   <trkpt lat="-3.0818400" lon="37.3660730">
    <ele>5498.6</ele>
    <time>2026-06-23T02:27:15Z</time>
   </trkpt>
   <trkpt lat="-3.0818400" lon="37.3660730">
    <ele>5498.6</ele>
    <time>2026-06-23T02:27:16Z</time>
   </trkpt>
   <trkpt lat="-3.0818400" lon="37.3660730">
    <ele>5498.6</ele>
    <time>2026-06-23T02:27:17Z</time>
   </trkpt>
   <trkpt lat="-3.0818400" lon="37.3660730">
    <ele>5498.6</ele>
    <time>2026-06-23T02:27:18Z</time>
   </trkpt>
   <trkpt lat="-3.0818400" lon="37.3660730">
    <ele>5498.6</ele>
    <time>2026-06-23T02:27:19Z</time>
   </trkpt>
   <trkpt lat="-3.0818400" lon="37.3660720">
    <ele>5498.7</ele>
    <time>2026-06-23T02:27:20Z</time>
   </trkpt>
   <trkpt lat="-3.0818400" lon="37.3660720">
    <ele>5498.7</ele>
    <time>2026-06-23T02:27:21Z</time>
   </trkpt>
   <trkpt lat="-3.0818400" lon="37.3660720">
    <ele>5498.7</ele>
    <time>2026-06-23T02:27:22Z</time>
   </trkpt>
   <trkpt lat="-3.0818400" lon="37.3660720">
    <ele>5498.7</ele>
    <time>2026-06-23T02:27:23Z</time>
   </trkpt>
   <trkpt lat="-3.0818400" lon="37.3660720">
    <ele>5498.7</ele>
    <time>2026-06-23T02:27:24Z</time>
   </trkpt>
   <trkpt lat="-3.0818400" lon="37.3660720">
    <ele>5498.7</ele>
    <time>2026-06-23T02:27:25Z</time>
   </trkpt>
   <trkpt lat="-3.0818390" lon="37.3660710">
    <ele>5498.7</ele>
    <time>2026-06-23T02:27:26Z</time>
   </trkpt>
   <trkpt lat="-3.0818380" lon="37.3660700">
    <ele>5498.7</ele>
    <time>2026-06-23T02:27:27Z</time>
   </trkpt>
   <trkpt lat="-3.0818360" lon="37.3660700">
    <ele>5498.8</ele>
    <time>2026-06-23T02:27:28Z</time>
   </trkpt>
   <trkpt lat="-3.0818340" lon="37.3660720">
    <ele>5498.8</ele>
    <time>2026-06-23T02:27:29Z</time>
   </trkpt>
   <trkpt lat="-3.0818310" lon="37.3660710">
    <ele>5498.9</ele>
    <time>2026-06-23T02:27:30Z</time>
   </trkpt>
   <trkpt lat="-3.0818300" lon="37.3660720">
    <ele>5498.9</ele>
    <time>2026-06-23T02:27:31Z</time>
   </trkpt>
   <trkpt lat="-3.0818280" lon="37.3660710">
    <ele>5499.0</ele>
    <time>2026-06-23T02:27:32Z</time>
   </trkpt>
   <trkpt lat="-3.0818280" lon="37.3660710">
    <ele>5499.0</ele>
    <time>2026-06-23T02:27:33Z</time>
   </trkpt>
   <trkpt lat="-3.0818240" lon="37.3660700">
    <ele>5499.1</ele>
    <time>2026-06-23T02:27:34Z</time>
   </trkpt>
   <trkpt lat="-3.0818230" lon="37.3660700">
    <ele>5499.1</ele>
    <time>2026-06-23T02:27:35Z</time>
   </trkpt>
   <trkpt lat="-3.0818210" lon="37.3660690">
    <ele>5499.1</ele>
    <time>2026-06-23T02:27:36Z</time>
   </trkpt>
   <trkpt lat="-3.0818210" lon="37.3660670">
    <ele>5499.2</ele>
    <time>2026-06-23T02:27:37Z</time>
   </trkpt>
   <trkpt lat="-3.0818190" lon="37.3660640">
    <ele>5499.3</ele>
    <time>2026-06-23T02:27:38Z</time>
   </trkpt>
   <trkpt lat="-3.0818190" lon="37.3660630">
    <ele>5499.3</ele>
    <time>2026-06-23T02:27:39Z</time>
   </trkpt>
   <trkpt lat="-3.0818190" lon="37.3660610">
    <ele>5499.3</ele>
    <time>2026-06-23T02:27:40Z</time>
   </trkpt>
   <trkpt lat="-3.0818200" lon="37.3660590">
    <ele>5499.4</ele>
    <time>2026-06-23T02:27:41Z</time>
   </trkpt>
   <trkpt lat="-3.0818200" lon="37.3660560">
    <ele>5499.4</ele>
    <time>2026-06-23T02:27:42Z</time>
   </trkpt>
   <trkpt lat="-3.0818200" lon="37.3660540">
    <ele>5499.5</ele>
    <time>2026-06-23T02:27:43Z</time>
   </trkpt>
   <trkpt lat="-3.0818200" lon="37.3660530">
    <ele>5499.5</ele>
    <time>2026-06-23T02:27:44Z</time>
   </trkpt>
   <trkpt lat="-3.0818210" lon="37.3660510">
    <ele>5499.5</ele>
    <time>2026-06-23T02:27:45Z</time>
   </trkpt>
   <trkpt lat="-3.0818210" lon="37.3660490">
    <ele>5499.6</ele>
    <time>2026-06-23T02:27:46Z</time>
   </trkpt>
   <trkpt lat="-3.0818230" lon="37.3660460">
    <ele>5499.7</ele>
    <time>2026-06-23T02:27:47Z</time>
   </trkpt>
   <trkpt lat="-3.0818220" lon="37.3660430">
    <ele>5499.7</ele>
    <time>2026-06-23T02:27:48Z</time>
   </trkpt>
   <trkpt lat="-3.0818240" lon="37.3660410">
    <ele>5499.8</ele>
    <time>2026-06-23T02:27:49Z</time>
   </trkpt>
   <trkpt lat="-3.0818240" lon="37.3660390">
    <ele>5499.8</ele>
    <time>2026-06-23T02:27:50Z</time>
   </trkpt>
   <trkpt lat="-3.0818240" lon="37.3660390">
    <ele>5499.8</ele>
    <time>2026-06-23T02:27:51Z</time>
   </trkpt>
   <trkpt lat="-3.0818240" lon="37.3660360">
    <ele>5499.9</ele>
    <time>2026-06-23T02:27:52Z</time>
   </trkpt>
   <trkpt lat="-3.0818240" lon="37.3660340">
    <ele>5499.9</ele>
    <time>2026-06-23T02:27:53Z</time>
   </trkpt>
   <trkpt lat="-3.0818250" lon="37.3660320">
    <ele>5500.0</ele>
    <time>2026-06-23T02:27:54Z</time>
   </trkpt>
   <trkpt lat="-3.0818250" lon="37.3660310">
    <ele>5500.0</ele>
    <time>2026-06-23T02:27:55Z</time>
   </trkpt>
   <trkpt lat="-3.0818260" lon="37.3660300">
    <ele>5500.0</ele>
    <time>2026-06-23T02:27:56Z</time>
   </trkpt>
   <trkpt lat="-3.0818260" lon="37.3660270">
    <ele>5500.1</ele>
    <time>2026-06-23T02:27:57Z</time>
   </trkpt>
   <trkpt lat="-3.0818260" lon="37.3660250">
    <ele>5500.1</ele>
    <time>2026-06-23T02:27:58Z</time>
   </trkpt>
   <trkpt lat="-3.0818270" lon="37.3660230">
    <ele>5500.2</ele>
    <time>2026-06-23T02:27:59Z</time>
   </trkpt>
   <trkpt lat="-3.0818280" lon="37.3660220">
    <ele>5500.2</ele>
    <time>2026-06-23T02:28:00Z</time>
   </trkpt>
   <trkpt lat="-3.0818280" lon="37.3660190">
    <ele>5500.3</ele>
    <time>2026-06-23T02:28:01Z</time>
   </trkpt>
   <trkpt lat="-3.0818270" lon="37.3660160">
    <ele>5500.4</ele>
    <time>2026-06-23T02:28:02Z</time>
   </trkpt>
   <trkpt lat="-3.0818260" lon="37.3660140">
    <ele>5500.4</ele>
    <time>2026-06-23T02:28:03Z</time>
   </trkpt>
   <trkpt lat="-3.0818270" lon="37.3660120">
    <ele>5500.5</ele>
    <time>2026-06-23T02:28:04Z</time>
   </trkpt>
   <trkpt lat="-3.0818250" lon="37.3660100">
    <ele>5500.5</ele>
    <time>2026-06-23T02:28:05Z</time>
   </trkpt>
   <trkpt lat="-3.0818240" lon="37.3660080">
    <ele>5500.6</ele>
    <time>2026-06-23T02:28:06Z</time>
   </trkpt>
   <trkpt lat="-3.0818220" lon="37.3660070">
    <ele>5500.6</ele>
    <time>2026-06-23T02:28:07Z</time>
   </trkpt>
   <trkpt lat="-3.0818200" lon="37.3660040">
    <ele>5500.7</ele>
    <time>2026-06-23T02:28:08Z</time>
   </trkpt>
   <trkpt lat="-3.0818170" lon="37.3660050">
    <ele>5500.8</ele>
    <time>2026-06-23T02:28:09Z</time>
   </trkpt>
   <trkpt lat="-3.0818150" lon="37.3660050">
    <ele>5500.8</ele>
    <time>2026-06-23T02:28:10Z</time>
   </trkpt>
   <trkpt lat="-3.0818130" lon="37.3660050">
    <ele>5500.8</ele>
    <time>2026-06-23T02:28:11Z</time>
   </trkpt>
   <trkpt lat="-3.0818120" lon="37.3660050">
    <ele>5500.9</ele>
    <time>2026-06-23T02:28:12Z</time>
   </trkpt>
   <trkpt lat="-3.0818090" lon="37.3660040">
    <ele>5500.9</ele>
    <time>2026-06-23T02:28:13Z</time>
   </trkpt>
   <trkpt lat="-3.0818080" lon="37.3660050">
    <ele>5501.0</ele>
    <time>2026-06-23T02:28:14Z</time>
   </trkpt>
   <trkpt lat="-3.0818050" lon="37.3660030">
    <ele>5501.0</ele>
    <time>2026-06-23T02:28:15Z</time>
   </trkpt>
   <trkpt lat="-3.0818030" lon="37.3660040">
    <ele>5501.1</ele>
    <time>2026-06-23T02:28:16Z</time>
   </trkpt>
   <trkpt lat="-3.0818010" lon="37.3660050">
    <ele>5501.1</ele>
    <time>2026-06-23T02:28:17Z</time>
   </trkpt>
   <trkpt lat="-3.0817990" lon="37.3660050">
    <ele>5501.2</ele>
    <time>2026-06-23T02:28:18Z</time>
   </trkpt>
   <trkpt lat="-3.0817970" lon="37.3660050">
    <ele>5501.2</ele>
    <time>2026-06-23T02:28:19Z</time>
   </trkpt>
   <trkpt lat="-3.0817950" lon="37.3660050">
    <ele>5501.3</ele>
    <time>2026-06-23T02:28:20Z</time>
   </trkpt>
   <trkpt lat="-3.0817920" lon="37.3660060">
    <ele>5501.3</ele>
    <time>2026-06-23T02:28:21Z</time>
   </trkpt>
   <trkpt lat="-3.0817920" lon="37.3660070">
    <ele>5501.3</ele>
    <time>2026-06-23T02:28:22Z</time>
   </trkpt>
   <trkpt lat="-3.0817930" lon="37.3660080">
    <ele>5501.4</ele>
    <time>2026-06-23T02:28:23Z</time>
   </trkpt>
   <trkpt lat="-3.0817920" lon="37.3660090">
    <ele>5501.4</ele>
    <time>2026-06-23T02:28:24Z</time>
   </trkpt>
   <trkpt lat="-3.0817920" lon="37.3660100">
    <ele>5501.4</ele>
    <time>2026-06-23T02:28:25Z</time>
   </trkpt>
   <trkpt lat="-3.0817910" lon="37.3660120">
    <ele>5501.5</ele>
    <time>2026-06-23T02:28:26Z</time>
   </trkpt>
   <trkpt lat="-3.0817880" lon="37.3660120">
    <ele>5501.5</ele>
    <time>2026-06-23T02:28:27Z</time>
   </trkpt>
   <trkpt lat="-3.0817870" lon="37.3660150">
    <ele>5501.6</ele>
    <time>2026-06-23T02:28:28Z</time>
   </trkpt>
   <trkpt lat="-3.0817830" lon="37.3660170">
    <ele>5501.7</ele>
    <time>2026-06-23T02:28:29Z</time>
   </trkpt>
   <trkpt lat="-3.0817790" lon="37.3660180">
    <ele>5501.8</ele>
    <time>2026-06-23T02:28:30Z</time>
   </trkpt>
   <trkpt lat="-3.0817760" lon="37.3660190">
    <ele>5501.9</ele>
    <time>2026-06-23T02:28:31Z</time>
   </trkpt>
   <trkpt lat="-3.0817730" lon="37.3660220">
    <ele>5502.0</ele>
    <time>2026-06-23T02:28:32Z</time>
   </trkpt>
   <trkpt lat="-3.0817710" lon="37.3660210">
    <ele>5502.0</ele>
    <time>2026-06-23T02:28:33Z</time>
   </trkpt>
   <trkpt lat="-3.0817680" lon="37.3660200">
    <ele>5502.1</ele>
    <time>2026-06-23T02:28:34Z</time>
   </trkpt>
   <trkpt lat="-3.0817650" lon="37.3660180">
    <ele>5502.1</ele>
    <time>2026-06-23T02:28:35Z</time>
   </trkpt>
   <trkpt lat="-3.0817640" lon="37.3660160">
    <ele>5502.2</ele>
    <time>2026-06-23T02:28:36Z</time>
   </trkpt>
   <trkpt lat="-3.0817650" lon="37.3660140">
    <ele>5502.2</ele>
    <time>2026-06-23T02:28:37Z</time>
   </trkpt>
   <trkpt lat="-3.0817650" lon="37.3660130">
    <ele>5502.3</ele>
    <time>2026-06-23T02:28:38Z</time>
   </trkpt>
   <trkpt lat="-3.0817660" lon="37.3660100">
    <ele>5502.3</ele>
    <time>2026-06-23T02:28:39Z</time>
   </trkpt>
   <trkpt lat="-3.0817670" lon="37.3660080">
    <ele>5502.4</ele>
    <time>2026-06-23T02:28:40Z</time>
   </trkpt>
   <trkpt lat="-3.0817690" lon="37.3660060">
    <ele>5502.4</ele>
    <time>2026-06-23T02:28:41Z</time>
   </trkpt>
   <trkpt lat="-3.0817710" lon="37.3660050">
    <ele>5502.5</ele>
    <time>2026-06-23T02:28:42Z</time>
   </trkpt>
   <trkpt lat="-3.0817720" lon="37.3660030">
    <ele>5502.5</ele>
    <time>2026-06-23T02:28:43Z</time>
   </trkpt>
   <trkpt lat="-3.0817720" lon="37.3660000">
    <ele>5502.6</ele>
    <time>2026-06-23T02:28:44Z</time>
   </trkpt>
   <trkpt lat="-3.0817740" lon="37.3659970">
    <ele>5502.7</ele>
    <time>2026-06-23T02:28:45Z</time>
   </trkpt>
   <trkpt lat="-3.0817740" lon="37.3659950">
    <ele>5502.7</ele>
    <time>2026-06-23T02:28:46Z</time>
   </trkpt>
   <trkpt lat="-3.0817750" lon="37.3659930">
    <ele>5502.8</ele>
    <time>2026-06-23T02:28:47Z</time>
   </trkpt>
   <trkpt lat="-3.0817770" lon="37.3659910">
    <ele>5502.8</ele>
    <time>2026-06-23T02:28:48Z</time>
   </trkpt>
   <trkpt lat="-3.0817780" lon="37.3659890">
    <ele>5502.9</ele>
    <time>2026-06-23T02:28:49Z</time>
   </trkpt>
   <trkpt lat="-3.0817780" lon="37.3659870">
    <ele>5502.9</ele>
    <time>2026-06-23T02:28:50Z</time>
   </trkpt>
   <trkpt lat="-3.0817780" lon="37.3659830">
    <ele>5503.0</ele>
    <time>2026-06-23T02:28:51Z</time>
   </trkpt>
   <trkpt lat="-3.0817790" lon="37.3659820">
    <ele>5503.0</ele>
    <time>2026-06-23T02:28:52Z</time>
   </trkpt>
   <trkpt lat="-3.0817800" lon="37.3659810">
    <ele>5503.1</ele>
    <time>2026-06-23T02:28:53Z</time>
   </trkpt>
   <trkpt lat="-3.0817800" lon="37.3659810">
    <ele>5503.1</ele>
    <time>2026-06-23T02:28:54Z</time>
   </trkpt>
   <trkpt lat="-3.0817800" lon="37.3659800">
    <ele>5503.1</ele>
    <time>2026-06-23T02:28:55Z</time>
   </trkpt>
   <trkpt lat="-3.0817780" lon="37.3659780">
    <ele>5503.1</ele>
    <time>2026-06-23T02:28:56Z</time>
   </trkpt>
   <trkpt lat="-3.0817790" lon="37.3659770">
    <ele>5503.2</ele>
    <time>2026-06-23T02:28:57Z</time>
   </trkpt>
   <trkpt lat="-3.0817800" lon="37.3659760">
    <ele>5503.2</ele>
    <time>2026-06-23T02:28:58Z</time>
   </trkpt>
   <trkpt lat="-3.0817760" lon="37.3659740">
    <ele>5503.3</ele>
    <time>2026-06-23T02:28:59Z</time>
   </trkpt>
   <trkpt lat="-3.0817760" lon="37.3659720">
    <ele>5503.3</ele>
    <time>2026-06-23T02:29:00Z</time>
   </trkpt>
   <trkpt lat="-3.0817760" lon="37.3659700">
    <ele>5503.4</ele>
    <time>2026-06-23T02:29:01Z</time>
   </trkpt>
   <trkpt lat="-3.0817740" lon="37.3659700">
    <ele>5503.4</ele>
    <time>2026-06-23T02:29:02Z</time>
   </trkpt>
   <trkpt lat="-3.0817710" lon="37.3659690">
    <ele>5503.5</ele>
    <time>2026-06-23T02:29:03Z</time>
   </trkpt>
   <trkpt lat="-3.0817680" lon="37.3659690">
    <ele>5503.6</ele>
    <time>2026-06-23T02:29:04Z</time>
   </trkpt>
   <trkpt lat="-3.0817660" lon="37.3659680">
    <ele>5503.6</ele>
    <time>2026-06-23T02:29:05Z</time>
   </trkpt>
   <trkpt lat="-3.0817650" lon="37.3659690">
    <ele>5503.7</ele>
    <time>2026-06-23T02:29:06Z</time>
   </trkpt>
   <trkpt lat="-3.0817610" lon="37.3659680">
    <ele>5503.8</ele>
    <time>2026-06-23T02:29:07Z</time>
   </trkpt>
   <trkpt lat="-3.0817620" lon="37.3659690">
    <ele>5503.8</ele>
    <time>2026-06-23T02:29:08Z</time>
   </trkpt>
   <trkpt lat="-3.0817590" lon="37.3659690">
    <ele>5503.9</ele>
    <time>2026-06-23T02:29:09Z</time>
   </trkpt>
   <trkpt lat="-3.0817560" lon="37.3659720">
    <ele>5504.0</ele>
    <time>2026-06-23T02:29:10Z</time>
   </trkpt>
   <trkpt lat="-3.0817550" lon="37.3659720">
    <ele>5504.0</ele>
    <time>2026-06-23T02:29:11Z</time>
   </trkpt>
   <trkpt lat="-3.0817530" lon="37.3659730">
    <ele>5504.0</ele>
    <time>2026-06-23T02:29:12Z</time>
   </trkpt>
   <trkpt lat="-3.0817510" lon="37.3659740">
    <ele>5504.1</ele>
    <time>2026-06-23T02:29:13Z</time>
   </trkpt>
   <trkpt lat="-3.0817490" lon="37.3659750">
    <ele>5504.1</ele>
    <time>2026-06-23T02:29:14Z</time>
   </trkpt>
   <trkpt lat="-3.0817480" lon="37.3659750">
    <ele>5504.2</ele>
    <time>2026-06-23T02:29:15Z</time>
   </trkpt>
   <trkpt lat="-3.0817460" lon="37.3659750">
    <ele>5504.2</ele>
    <time>2026-06-23T02:29:16Z</time>
   </trkpt>
   <trkpt lat="-3.0817430" lon="37.3659750">
    <ele>5504.3</ele>
    <time>2026-06-23T02:29:17Z</time>
   </trkpt>
   <trkpt lat="-3.0817420" lon="37.3659760">
    <ele>5504.3</ele>
    <time>2026-06-23T02:29:18Z</time>
   </trkpt>
   <trkpt lat="-3.0817390" lon="37.3659750">
    <ele>5504.4</ele>
    <time>2026-06-23T02:29:19Z</time>
   </trkpt>
   <trkpt lat="-3.0817390" lon="37.3659750">
    <ele>5504.4</ele>
    <time>2026-06-23T02:29:20Z</time>
   </trkpt>
   <trkpt lat="-3.0817390" lon="37.3659760">
    <ele>5504.4</ele>
    <time>2026-06-23T02:29:21Z</time>
   </trkpt>
   <trkpt lat="-3.0817360" lon="37.3659740">
    <ele>5504.5</ele>
    <time>2026-06-23T02:29:22Z</time>
   </trkpt>
   <trkpt lat="-3.0817350" lon="37.3659730">
    <ele>5504.5</ele>
    <time>2026-06-23T02:29:23Z</time>
   </trkpt>
   <trkpt lat="-3.0817330" lon="37.3659720">
    <ele>5504.6</ele>
    <time>2026-06-23T02:29:24Z</time>
   </trkpt>
   <trkpt lat="-3.0817320" lon="37.3659700">
    <ele>5504.6</ele>
    <time>2026-06-23T02:29:25Z</time>
   </trkpt>
   <trkpt lat="-3.0817300" lon="37.3659680">
    <ele>5504.7</ele>
    <time>2026-06-23T02:29:26Z</time>
   </trkpt>
   <trkpt lat="-3.0817290" lon="37.3659650">
    <ele>5504.8</ele>
    <time>2026-06-23T02:29:27Z</time>
   </trkpt>
   <trkpt lat="-3.0817280" lon="37.3659640">
    <ele>5504.8</ele>
    <time>2026-06-23T02:29:28Z</time>
   </trkpt>
   <trkpt lat="-3.0817270" lon="37.3659620">
    <ele>5504.8</ele>
    <time>2026-06-23T02:29:29Z</time>
   </trkpt>
   <trkpt lat="-3.0817270" lon="37.3659600">
    <ele>5504.9</ele>
    <time>2026-06-23T02:29:30Z</time>
   </trkpt>
   <trkpt lat="-3.0817260" lon="37.3659580">
    <ele>5504.9</ele>
    <time>2026-06-23T02:29:31Z</time>
   </trkpt>
   <trkpt lat="-3.0817240" lon="37.3659570">
    <ele>5505.0</ele>
    <time>2026-06-23T02:29:32Z</time>
   </trkpt>
   <trkpt lat="-3.0817240" lon="37.3659550">
    <ele>5505.0</ele>
    <time>2026-06-23T02:29:33Z</time>
   </trkpt>
   <trkpt lat="-3.0817230" lon="37.3659540">
    <ele>5505.1</ele>
    <time>2026-06-23T02:29:34Z</time>
   </trkpt>
   <trkpt lat="-3.0817220" lon="37.3659550">
    <ele>5505.1</ele>
    <time>2026-06-23T02:29:35Z</time>
   </trkpt>
   <trkpt lat="-3.0817200" lon="37.3659530">
    <ele>5505.2</ele>
    <time>2026-06-23T02:29:36Z</time>
   </trkpt>
   <trkpt lat="-3.0817210" lon="37.3659550">
    <ele>5505.2</ele>
    <time>2026-06-23T02:29:37Z</time>
   </trkpt>
   <trkpt lat="-3.0817200" lon="37.3659550">
    <ele>5505.2</ele>
    <time>2026-06-23T02:29:38Z</time>
   </trkpt>
   <trkpt lat="-3.0817180" lon="37.3659540">
    <ele>5505.3</ele>
    <time>2026-06-23T02:29:39Z</time>
   </trkpt>
   <trkpt lat="-3.0817140" lon="37.3659530">
    <ele>5505.4</ele>
    <time>2026-06-23T02:29:40Z</time>
   </trkpt>
   <trkpt lat="-3.0817130" lon="37.3659540">
    <ele>5505.4</ele>
    <time>2026-06-23T02:29:41Z</time>
   </trkpt>
   <trkpt lat="-3.0817130" lon="37.3659560">
    <ele>5505.5</ele>
    <time>2026-06-23T02:29:42Z</time>
   </trkpt>
   <trkpt lat="-3.0817100" lon="37.3659550">
    <ele>5505.6</ele>
    <time>2026-06-23T02:29:43Z</time>
   </trkpt>
   <trkpt lat="-3.0817090" lon="37.3659570">
    <ele>5505.6</ele>
    <time>2026-06-23T02:29:44Z</time>
   </trkpt>
   <trkpt lat="-3.0817070" lon="37.3659570">
    <ele>5505.7</ele>
    <time>2026-06-23T02:29:45Z</time>
   </trkpt>
   <trkpt lat="-3.0817060" lon="37.3659580">
    <ele>5505.7</ele>
    <time>2026-06-23T02:29:46Z</time>
   </trkpt>
   <trkpt lat="-3.0817040" lon="37.3659590">
    <ele>5505.8</ele>
    <time>2026-06-23T02:29:47Z</time>
   </trkpt>
   <trkpt lat="-3.0817040" lon="37.3659590">
    <ele>5505.8</ele>
    <time>2026-06-23T02:29:48Z</time>
   </trkpt>
   <trkpt lat="-3.0817040" lon="37.3659590">
    <ele>5505.8</ele>
    <time>2026-06-23T02:29:49Z</time>
   </trkpt>
   <trkpt lat="-3.0817030" lon="37.3659600">
    <ele>5505.8</ele>
    <time>2026-06-23T02:29:50Z</time>
   </trkpt>
   <trkpt lat="-3.0817010" lon="37.3659600">
    <ele>5505.8</ele>
    <time>2026-06-23T02:29:51Z</time>
   </trkpt>
   <trkpt lat="-3.0816990" lon="37.3659600">
    <ele>5505.9</ele>
    <time>2026-06-23T02:29:52Z</time>
   </trkpt>
   <trkpt lat="-3.0816980" lon="37.3659580">
    <ele>5505.9</ele>
    <time>2026-06-23T02:29:53Z</time>
   </trkpt>
   <trkpt lat="-3.0816970" lon="37.3659590">
    <ele>5506.0</ele>
    <time>2026-06-23T02:29:54Z</time>
   </trkpt>
   <trkpt lat="-3.0816950" lon="37.3659580">
    <ele>5506.0</ele>
    <time>2026-06-23T02:29:55Z</time>
   </trkpt>
   <trkpt lat="-3.0816930" lon="37.3659550">
    <ele>5506.1</ele>
    <time>2026-06-23T02:29:56Z</time>
   </trkpt>
   <trkpt lat="-3.0816920" lon="37.3659550">
    <ele>5506.1</ele>
    <time>2026-06-23T02:29:57Z</time>
   </trkpt>
   <trkpt lat="-3.0816900" lon="37.3659530">
    <ele>5506.2</ele>
    <time>2026-06-23T02:29:58Z</time>
   </trkpt>
   <trkpt lat="-3.0816890" lon="37.3659520">
    <ele>5506.2</ele>
    <time>2026-06-23T02:29:59Z</time>
   </trkpt>
   <trkpt lat="-3.0816880" lon="37.3659500">
    <ele>5506.3</ele>
    <time>2026-06-23T02:30:00Z</time>
   </trkpt>
   <trkpt lat="-3.0816860" lon="37.3659490">
    <ele>5506.4</ele>
    <time>2026-06-23T02:30:01Z</time>
   </trkpt>
   <trkpt lat="-3.0816850" lon="37.3659490">
    <ele>5506.4</ele>
    <time>2026-06-23T02:30:02Z</time>
   </trkpt>
   <trkpt lat="-3.0816820" lon="37.3659460">
    <ele>5506.5</ele>
    <time>2026-06-23T02:30:03Z</time>
   </trkpt>
   <trkpt lat="-3.0816810" lon="37.3659470">
    <ele>5506.5</ele>
    <time>2026-06-23T02:30:04Z</time>
   </trkpt>
   <trkpt lat="-3.0816810" lon="37.3659460">
    <ele>5506.5</ele>
    <time>2026-06-23T02:30:05Z</time>
   </trkpt>
   <trkpt lat="-3.0816800" lon="37.3659460">
    <ele>5506.6</ele>
    <time>2026-06-23T02:30:06Z</time>
   </trkpt>
   <trkpt lat="-3.0816810" lon="37.3659460">
    <ele>5506.6</ele>
    <time>2026-06-23T02:30:07Z</time>
   </trkpt>
   <trkpt lat="-3.0816780" lon="37.3659440">
    <ele>5506.7</ele>
    <time>2026-06-23T02:30:08Z</time>
   </trkpt>
   <trkpt lat="-3.0816760" lon="37.3659450">
    <ele>5506.7</ele>
    <time>2026-06-23T02:30:09Z</time>
   </trkpt>
   <trkpt lat="-3.0816750" lon="37.3659440">
    <ele>5506.8</ele>
    <time>2026-06-23T02:30:10Z</time>
   </trkpt>
   <trkpt lat="-3.0816750" lon="37.3659440">
    <ele>5506.8</ele>
    <time>2026-06-23T02:30:11Z</time>
   </trkpt>
   <trkpt lat="-3.0816740" lon="37.3659420">
    <ele>5506.8</ele>
    <time>2026-06-23T02:30:12Z</time>
   </trkpt>
   <trkpt lat="-3.0816720" lon="37.3659410">
    <ele>5506.9</ele>
    <time>2026-06-23T02:30:13Z</time>
   </trkpt>
   <trkpt lat="-3.0816740" lon="37.3659380">
    <ele>5507.0</ele>
    <time>2026-06-23T02:30:14Z</time>
   </trkpt>
   <trkpt lat="-3.0816760" lon="37.3659370">
    <ele>5507.0</ele>
    <time>2026-06-23T02:30:15Z</time>
   </trkpt>
   <trkpt lat="-3.0816760" lon="37.3659350">
    <ele>5507.1</ele>
    <time>2026-06-23T02:30:16Z</time>
   </trkpt>
   <trkpt lat="-3.0816770" lon="37.3659310">
    <ele>5507.2</ele>
    <time>2026-06-23T02:30:17Z</time>
   </trkpt>
   <trkpt lat="-3.0816780" lon="37.3659300">
    <ele>5507.2</ele>
    <time>2026-06-23T02:30:18Z</time>
   </trkpt>
   <trkpt lat="-3.0816810" lon="37.3659280">
    <ele>5507.3</ele>
    <time>2026-06-23T02:30:19Z</time>
   </trkpt>
   <trkpt lat="-3.0816820" lon="37.3659250">
    <ele>5507.4</ele>
    <time>2026-06-23T02:30:20Z</time>
   </trkpt>
   <trkpt lat="-3.0816850" lon="37.3659250">
    <ele>5507.5</ele>
    <time>2026-06-23T02:30:21Z</time>
   </trkpt>
   <trkpt lat="-3.0816850" lon="37.3659210">
    <ele>5507.6</ele>
    <time>2026-06-23T02:30:22Z</time>
   </trkpt>
   <trkpt lat="-3.0816880" lon="37.3659200">
    <ele>5507.7</ele>
    <time>2026-06-23T02:30:23Z</time>
   </trkpt>
   <trkpt lat="-3.0816880" lon="37.3659190">
    <ele>5507.7</ele>
    <time>2026-06-23T02:30:24Z</time>
   </trkpt>
   <trkpt lat="-3.0816900" lon="37.3659190">
    <ele>5507.7</ele>
    <time>2026-06-23T02:30:25Z</time>
   </trkpt>
   <trkpt lat="-3.0816900" lon="37.3659180">
    <ele>5507.8</ele>
    <time>2026-06-23T02:30:26Z</time>
   </trkpt>
   <trkpt lat="-3.0816900" lon="37.3659150">
    <ele>5507.8</ele>
    <time>2026-06-23T02:30:27Z</time>
   </trkpt>
   <trkpt lat="-3.0816920" lon="37.3659150">
    <ele>5507.9</ele>
    <time>2026-06-23T02:30:28Z</time>
   </trkpt>
   <trkpt lat="-3.0816920" lon="37.3659130">
    <ele>5507.9</ele>
    <time>2026-06-23T02:30:29Z</time>
   </trkpt>
   <trkpt lat="-3.0816930" lon="37.3659120">
    <ele>5508.0</ele>
    <time>2026-06-23T02:30:30Z</time>
   </trkpt>
   <trkpt lat="-3.0816930" lon="37.3659090">
    <ele>5508.1</ele>
    <time>2026-06-23T02:30:31Z</time>
   </trkpt>
   <trkpt lat="-3.0816920" lon="37.3659080">
    <ele>5508.1</ele>
    <time>2026-06-23T02:30:32Z</time>
   </trkpt>
   <trkpt lat="-3.0816910" lon="37.3659060">
    <ele>5508.2</ele>
    <time>2026-06-23T02:30:33Z</time>
   </trkpt>
   <trkpt lat="-3.0816920" lon="37.3659050">
    <ele>5508.2</ele>
    <time>2026-06-23T02:30:34Z</time>
   </trkpt>
   <trkpt lat="-3.0816890" lon="37.3659020">
    <ele>5508.3</ele>
    <time>2026-06-23T02:30:35Z</time>
   </trkpt>
   <trkpt lat="-3.0816880" lon="37.3658990">
    <ele>5508.4</ele>
    <time>2026-06-23T02:30:36Z</time>
   </trkpt>
   <trkpt lat="-3.0816870" lon="37.3659000">
    <ele>5508.4</ele>
    <time>2026-06-23T02:30:37Z</time>
   </trkpt>
   <trkpt lat="-3.0816860" lon="37.3658970">
    <ele>5508.5</ele>
    <time>2026-06-23T02:30:38Z</time>
   </trkpt>
   <trkpt lat="-3.0816860" lon="37.3658980">
    <ele>5508.5</ele>
    <time>2026-06-23T02:30:39Z</time>
   </trkpt>
   <trkpt lat="-3.0816850" lon="37.3658970">
    <ele>5508.6</ele>
    <time>2026-06-23T02:30:40Z</time>
   </trkpt>
   <trkpt lat="-3.0816840" lon="37.3658970">
    <ele>5508.6</ele>
    <time>2026-06-23T02:30:41Z</time>
   </trkpt>
   <trkpt lat="-3.0816800" lon="37.3658970">
    <ele>5508.7</ele>
    <time>2026-06-23T02:30:42Z</time>
   </trkpt>
   <trkpt lat="-3.0816780" lon="37.3658990">
    <ele>5508.8</ele>
    <time>2026-06-23T02:30:43Z</time>
   </trkpt>
   <trkpt lat="-3.0816760" lon="37.3658990">
    <ele>5508.8</ele>
    <time>2026-06-23T02:30:44Z</time>
   </trkpt>
   <trkpt lat="-3.0816730" lon="37.3659020">
    <ele>5508.9</ele>
    <time>2026-06-23T02:30:45Z</time>
   </trkpt>
   <trkpt lat="-3.0816720" lon="37.3659020">
    <ele>5509.0</ele>
    <time>2026-06-23T02:30:46Z</time>
   </trkpt>
   <trkpt lat="-3.0816690" lon="37.3659010">
    <ele>5509.1</ele>
    <time>2026-06-23T02:30:47Z</time>
   </trkpt>
   <trkpt lat="-3.0816670" lon="37.3659000">
    <ele>5509.1</ele>
    <time>2026-06-23T02:30:48Z</time>
   </trkpt>
   <trkpt lat="-3.0816690" lon="37.3659000">
    <ele>5509.2</ele>
    <time>2026-06-23T02:30:49Z</time>
   </trkpt>
   <trkpt lat="-3.0816690" lon="37.3659000">
    <ele>5509.2</ele>
    <time>2026-06-23T02:30:50Z</time>
   </trkpt>
   <trkpt lat="-3.0816690" lon="37.3658990">
    <ele>5509.2</ele>
    <time>2026-06-23T02:30:51Z</time>
   </trkpt>
   <trkpt lat="-3.0816690" lon="37.3658990">
    <ele>5509.2</ele>
    <time>2026-06-23T02:30:52Z</time>
   </trkpt>
   <trkpt lat="-3.0816690" lon="37.3658980">
    <ele>5509.2</ele>
    <time>2026-06-23T02:30:53Z</time>
   </trkpt>
   <trkpt lat="-3.0816690" lon="37.3658980">
    <ele>5509.2</ele>
    <time>2026-06-23T02:30:54Z</time>
   </trkpt>
   <trkpt lat="-3.0816690" lon="37.3658980">
    <ele>5509.2</ele>
    <time>2026-06-23T02:30:55Z</time>
   </trkpt>
   <trkpt lat="-3.0816690" lon="37.3658970">
    <ele>5509.2</ele>
    <time>2026-06-23T02:30:56Z</time>
   </trkpt>
   <trkpt lat="-3.0816690" lon="37.3658960">
    <ele>5509.3</ele>
    <time>2026-06-23T02:30:57Z</time>
   </trkpt>
   <trkpt lat="-3.0816690" lon="37.3658960">
    <ele>5509.3</ele>
    <time>2026-06-23T02:30:58Z</time>
   </trkpt>
   <trkpt lat="-3.0816680" lon="37.3658960">
    <ele>5509.3</ele>
    <time>2026-06-23T02:30:59Z</time>
   </trkpt>
   <trkpt lat="-3.0816660" lon="37.3658950">
    <ele>5509.4</ele>
    <time>2026-06-23T02:31:00Z</time>
   </trkpt>
   <trkpt lat="-3.0816650" lon="37.3658970">
    <ele>5509.4</ele>
    <time>2026-06-23T02:31:01Z</time>
   </trkpt>
   <trkpt lat="-3.0816610" lon="37.3658950">
    <ele>5509.5</ele>
    <time>2026-06-23T02:31:02Z</time>
   </trkpt>
   <trkpt lat="-3.0816610" lon="37.3658960">
    <ele>5509.6</ele>
    <time>2026-06-23T02:31:04Z</time>
   </trkpt>
   <trkpt lat="-3.0816630" lon="37.3658940">
    <ele>5509.6</ele>
    <time>2026-06-23T02:31:05Z</time>
   </trkpt>
   <trkpt lat="-3.0816620" lon="37.3658920">
    <ele>5509.7</ele>
    <time>2026-06-23T02:31:06Z</time>
   </trkpt>
   <trkpt lat="-3.0816620" lon="37.3658910">
    <ele>5509.7</ele>
    <time>2026-06-23T02:31:08Z</time>
   </trkpt>
   <trkpt lat="-3.0816630" lon="37.3658910">
    <ele>5509.8</ele>
    <time>2026-06-23T02:31:09Z</time>
   </trkpt>
   <trkpt lat="-3.0816640" lon="37.3658920">
    <ele>5509.8</ele>
    <time>2026-06-23T02:31:11Z</time>
   </trkpt>
   <trkpt lat="-3.0816640" lon="37.3658920">
    <ele>5509.8</ele>
    <time>2026-06-23T02:31:12Z</time>
   </trkpt>
   <trkpt lat="-3.0816630" lon="37.3658920">
    <ele>5509.8</ele>
    <time>2026-06-23T02:31:14Z</time>
   </trkpt>
   <trkpt lat="-3.0816630" lon="37.3658920">
    <ele>5509.8</ele>
    <time>2026-06-23T02:31:15Z</time>
   </trkpt>
   <trkpt lat="-3.0816620" lon="37.3658910">
    <ele>5509.9</ele>
    <time>2026-06-23T02:31:17Z</time>
   </trkpt>
   <trkpt lat="-3.0816620" lon="37.3658910">
    <ele>5509.9</ele>
    <time>2026-06-23T02:31:18Z</time>
   </trkpt>
   <trkpt lat="-3.0816620" lon="37.3658900">
    <ele>5509.9</ele>
    <time>2026-06-23T02:31:19Z</time>
   </trkpt>
   <trkpt lat="-3.0816620" lon="37.3658880">
    <ele>5509.9</ele>
    <time>2026-06-23T02:31:20Z</time>
   </trkpt>
   <trkpt lat="-3.0816600" lon="37.3658850">
    <ele>5510.0</ele>
    <time>2026-06-23T02:31:21Z</time>
   </trkpt>
   <trkpt lat="-3.0816620" lon="37.3658830">
    <ele>5510.1</ele>
    <time>2026-06-23T02:31:22Z</time>
   </trkpt>
   <trkpt lat="-3.0816610" lon="37.3658800">
    <ele>5510.2</ele>
    <time>2026-06-23T02:31:23Z</time>
   </trkpt>
   <trkpt lat="-3.0816600" lon="37.3658780">
    <ele>5510.2</ele>
    <time>2026-06-23T02:31:24Z</time>
   </trkpt>
   <trkpt lat="-3.0816580" lon="37.3658770">
    <ele>5510.3</ele>
    <time>2026-06-23T02:31:25Z</time>
   </trkpt>
   <trkpt lat="-3.0816600" lon="37.3658780">
    <ele>5510.4</ele>
    <time>2026-06-23T02:31:26Z</time>
   </trkpt>
   <trkpt lat="-3.0816600" lon="37.3658750">
    <ele>5510.4</ele>
    <time>2026-06-23T02:31:27Z</time>
   </trkpt>
   <trkpt lat="-3.0816600" lon="37.3658740">
    <ele>5510.5</ele>
    <time>2026-06-23T02:31:28Z</time>
   </trkpt>
   <trkpt lat="-3.0816610" lon="37.3658740">
    <ele>5510.5</ele>
    <time>2026-06-23T02:31:29Z</time>
   </trkpt>
   <trkpt lat="-3.0816610" lon="37.3658720">
    <ele>5510.5</ele>
    <time>2026-06-23T02:31:30Z</time>
   </trkpt>
   <trkpt lat="-3.0816620" lon="37.3658700">
    <ele>5510.6</ele>
    <time>2026-06-23T02:31:31Z</time>
   </trkpt>
   <trkpt lat="-3.0816630" lon="37.3658690">
    <ele>5510.6</ele>
    <time>2026-06-23T02:31:32Z</time>
   </trkpt>
   <trkpt lat="-3.0816610" lon="37.3658670">
    <ele>5510.7</ele>
    <time>2026-06-23T02:31:33Z</time>
   </trkpt>
   <trkpt lat="-3.0816620" lon="37.3658640">
    <ele>5510.8</ele>
    <time>2026-06-23T02:31:34Z</time>
   </trkpt>
   <trkpt lat="-3.0816620" lon="37.3658630">
    <ele>5510.8</ele>
    <time>2026-06-23T02:31:35Z</time>
   </trkpt>
   <trkpt lat="-3.0816630" lon="37.3658610">
    <ele>5510.9</ele>
    <time>2026-06-23T02:31:36Z</time>
   </trkpt>
   <trkpt lat="-3.0816650" lon="37.3658610">
    <ele>5510.9</ele>
    <time>2026-06-23T02:31:37Z</time>
   </trkpt>
   <trkpt lat="-3.0816670" lon="37.3658580">
    <ele>5511.0</ele>
    <time>2026-06-23T02:31:38Z</time>
   </trkpt>
   <trkpt lat="-3.0816680" lon="37.3658570">
    <ele>5511.1</ele>
    <time>2026-06-23T02:31:39Z</time>
   </trkpt>
   <trkpt lat="-3.0816710" lon="37.3658570">
    <ele>5511.1</ele>
    <time>2026-06-23T02:31:40Z</time>
   </trkpt>
   <trkpt lat="-3.0816720" lon="37.3658530">
    <ele>5511.3</ele>
    <time>2026-06-23T02:31:41Z</time>
   </trkpt>
   <trkpt lat="-3.0816730" lon="37.3658520">
    <ele>5511.3</ele>
    <time>2026-06-23T02:31:42Z</time>
   </trkpt>
   <trkpt lat="-3.0816740" lon="37.3658510">
    <ele>5511.3</ele>
    <time>2026-06-23T02:31:43Z</time>
   </trkpt>
   <trkpt lat="-3.0816750" lon="37.3658510">
    <ele>5511.4</ele>
    <time>2026-06-23T02:31:44Z</time>
   </trkpt>
   <trkpt lat="-3.0816750" lon="37.3658480">
    <ele>5511.4</ele>
    <time>2026-06-23T02:31:45Z</time>
   </trkpt>
   <trkpt lat="-3.0816760" lon="37.3658470">
    <ele>5511.5</ele>
    <time>2026-06-23T02:31:46Z</time>
   </trkpt>
   <trkpt lat="-3.0816780" lon="37.3658450">
    <ele>5511.5</ele>
    <time>2026-06-23T02:31:47Z</time>
   </trkpt>
   <trkpt lat="-3.0816780" lon="37.3658420">
    <ele>5511.6</ele>
    <time>2026-06-23T02:31:48Z</time>
   </trkpt>
   <trkpt lat="-3.0816790" lon="37.3658410">
    <ele>5511.7</ele>
    <time>2026-06-23T02:31:49Z</time>
   </trkpt>
   <trkpt lat="-3.0816790" lon="37.3658410">
    <ele>5511.7</ele>
    <time>2026-06-23T02:31:50Z</time>
   </trkpt>
   <trkpt lat="-3.0816790" lon="37.3658370">
    <ele>5511.8</ele>
    <time>2026-06-23T02:31:51Z</time>
   </trkpt>
   <trkpt lat="-3.0816850" lon="37.3658410">
    <ele>5512.0</ele>
    <time>2026-06-23T02:31:52Z</time>
   </trkpt>
   <trkpt lat="-3.0816780" lon="37.3658330">
    <ele>5512.2</ele>
    <time>2026-06-23T02:31:53Z</time>
   </trkpt>
   <trkpt lat="-3.0816790" lon="37.3658340">
    <ele>5512.3</ele>
    <time>2026-06-23T02:31:54Z</time>
   </trkpt>
   <trkpt lat="-3.0816780" lon="37.3658310">
    <ele>5512.4</ele>
    <time>2026-06-23T02:31:55Z</time>
   </trkpt>
   <trkpt lat="-3.0816800" lon="37.3658310">
    <ele>5512.4</ele>
    <time>2026-06-23T02:31:56Z</time>
   </trkpt>
   <trkpt lat="-3.0816770" lon="37.3658280">
    <ele>5512.5</ele>
    <time>2026-06-23T02:31:57Z</time>
   </trkpt>
   <trkpt lat="-3.0816780" lon="37.3658290">
    <ele>5512.6</ele>
    <time>2026-06-23T02:31:58Z</time>
   </trkpt>
   <trkpt lat="-3.0816770" lon="37.3658290">
    <ele>5512.6</ele>
    <time>2026-06-23T02:31:59Z</time>
   </trkpt>
   <trkpt lat="-3.0816760" lon="37.3658270">
    <ele>5512.6</ele>
    <time>2026-06-23T02:32:00Z</time>
   </trkpt>
   <trkpt lat="-3.0816740" lon="37.3658250">
    <ele>5512.7</ele>
    <time>2026-06-23T02:32:01Z</time>
   </trkpt>
   <trkpt lat="-3.0816740" lon="37.3658230">
    <ele>5512.8</ele>
    <time>2026-06-23T02:32:02Z</time>
   </trkpt>
   <trkpt lat="-3.0816740" lon="37.3658240">
    <ele>5512.8</ele>
    <time>2026-06-23T02:32:03Z</time>
   </trkpt>
   <trkpt lat="-3.0816710" lon="37.3658210">
    <ele>5512.9</ele>
    <time>2026-06-23T02:32:04Z</time>
   </trkpt>
   <trkpt lat="-3.0816730" lon="37.3658220">
    <ele>5513.0</ele>
    <time>2026-06-23T02:32:05Z</time>
   </trkpt>
   <trkpt lat="-3.0816720" lon="37.3658200">
    <ele>5513.0</ele>
    <time>2026-06-23T02:32:06Z</time>
   </trkpt>
   <trkpt lat="-3.0816680" lon="37.3658140">
    <ele>5513.2</ele>
    <time>2026-06-23T02:32:07Z</time>
   </trkpt>
   <trkpt lat="-3.0816690" lon="37.3658160">
    <ele>5513.3</ele>
    <time>2026-06-23T02:32:08Z</time>
   </trkpt>
   <trkpt lat="-3.0816700" lon="37.3658160">
    <ele>5513.3</ele>
    <time>2026-06-23T02:32:09Z</time>
   </trkpt>
   <trkpt lat="-3.0816700" lon="37.3658160">
    <ele>5513.3</ele>
    <time>2026-06-23T02:32:10Z</time>
   </trkpt>
   <trkpt lat="-3.0816690" lon="37.3658150">
    <ele>5513.3</ele>
    <time>2026-06-23T02:32:11Z</time>
   </trkpt>
   <trkpt lat="-3.0816710" lon="37.3658140">
    <ele>5513.4</ele>
    <time>2026-06-23T02:32:12Z</time>
   </trkpt>
   <trkpt lat="-3.0816710" lon="37.3658130">
    <ele>5513.4</ele>
    <time>2026-06-23T02:32:13Z</time>
   </trkpt>
   <trkpt lat="-3.0816710" lon="37.3658120">
    <ele>5513.5</ele>
    <time>2026-06-23T02:32:14Z</time>
   </trkpt>
   <trkpt lat="-3.0816700" lon="37.3658110">
    <ele>5513.5</ele>
    <time>2026-06-23T02:32:15Z</time>
   </trkpt>
   <trkpt lat="-3.0816690" lon="37.3658090">
    <ele>5513.6</ele>
    <time>2026-06-23T02:32:16Z</time>
   </trkpt>
   <trkpt lat="-3.0816690" lon="37.3658090">
    <ele>5513.6</ele>
    <time>2026-06-23T02:32:17Z</time>
   </trkpt>
   <trkpt lat="-3.0816700" lon="37.3658090">
    <ele>5513.6</ele>
    <time>2026-06-23T02:32:18Z</time>
   </trkpt>
   <trkpt lat="-3.0816680" lon="37.3658060">
    <ele>5513.7</ele>
    <time>2026-06-23T02:32:19Z</time>
   </trkpt>
   <trkpt lat="-3.0816680" lon="37.3658060">
    <ele>5513.7</ele>
    <time>2026-06-23T02:32:20Z</time>
   </trkpt>
   <trkpt lat="-3.0816690" lon="37.3658040">
    <ele>5513.7</ele>
    <time>2026-06-23T02:32:21Z</time>
   </trkpt>
   <trkpt lat="-3.0816670" lon="37.3658040">
    <ele>5513.8</ele>
    <time>2026-06-23T02:32:22Z</time>
   </trkpt>
   <trkpt lat="-3.0816650" lon="37.3658020">
    <ele>5513.9</ele>
    <time>2026-06-23T02:32:23Z</time>
   </trkpt>
   <trkpt lat="-3.0816640" lon="37.3658020">
    <ele>5513.9</ele>
    <time>2026-06-23T02:32:24Z</time>
   </trkpt>
   <trkpt lat="-3.0816600" lon="37.3658020">
    <ele>5514.0</ele>
    <time>2026-06-23T02:32:25Z</time>
   </trkpt>
   <trkpt lat="-3.0816590" lon="37.3658020">
    <ele>5514.0</ele>
    <time>2026-06-23T02:32:26Z</time>
   </trkpt>
   <trkpt lat="-3.0816580" lon="37.3657990">
    <ele>5514.1</ele>
    <time>2026-06-23T02:32:27Z</time>
   </trkpt>
   <trkpt lat="-3.0816590" lon="37.3657980">
    <ele>5514.1</ele>
    <time>2026-06-23T02:32:28Z</time>
   </trkpt>
   <trkpt lat="-3.0816600" lon="37.3657980">
    <ele>5514.2</ele>
    <time>2026-06-23T02:32:29Z</time>
   </trkpt>
   <trkpt lat="-3.0816600" lon="37.3657970">
    <ele>5514.2</ele>
    <time>2026-06-23T02:32:30Z</time>
   </trkpt>
   <trkpt lat="-3.0816600" lon="37.3657980">
    <ele>5514.2</ele>
    <time>2026-06-23T02:32:31Z</time>
   </trkpt>
   <trkpt lat="-3.0816610" lon="37.3657980">
    <ele>5514.2</ele>
    <time>2026-06-23T02:32:32Z</time>
   </trkpt>
   <trkpt lat="-3.0816610" lon="37.3657980">
    <ele>5514.2</ele>
    <time>2026-06-23T02:32:33Z</time>
   </trkpt>
   <trkpt lat="-3.0816610" lon="37.3657990">
    <ele>5514.3</ele>
    <time>2026-06-23T02:32:34Z</time>
   </trkpt>
   <trkpt lat="-3.0816620" lon="37.3657990">
    <ele>5514.3</ele>
    <time>2026-06-23T02:32:35Z</time>
   </trkpt>
   <trkpt lat="-3.0816620" lon="37.3657990">
    <ele>5514.3</ele>
    <time>2026-06-23T02:32:36Z</time>
   </trkpt>
   <trkpt lat="-3.0816640" lon="37.3657990">
    <ele>5514.3</ele>
    <time>2026-06-23T02:32:37Z</time>
   </trkpt>
   <trkpt lat="-3.0816650" lon="37.3657960">
    <ele>5514.4</ele>
    <time>2026-06-23T02:32:38Z</time>
   </trkpt>
   <trkpt lat="-3.0816670" lon="37.3657950">
    <ele>5514.5</ele>
    <time>2026-06-23T02:32:39Z</time>
   </trkpt>
   <trkpt lat="-3.0816690" lon="37.3657940">
    <ele>5514.6</ele>
    <time>2026-06-23T02:32:40Z</time>
   </trkpt>
   <trkpt lat="-3.0816690" lon="37.3657940">
    <ele>5514.6</ele>
    <time>2026-06-23T02:32:41Z</time>
   </trkpt>
   <trkpt lat="-3.0816670" lon="37.3657930">
    <ele>5514.6</ele>
    <time>2026-06-23T02:32:42Z</time>
   </trkpt>
   <trkpt lat="-3.0816660" lon="37.3657900">
    <ele>5514.7</ele>
    <time>2026-06-23T02:32:43Z</time>
   </trkpt>
   <trkpt lat="-3.0816640" lon="37.3657900">
    <ele>5514.7</ele>
    <time>2026-06-23T02:32:44Z</time>
   </trkpt>
   <trkpt lat="-3.0816640" lon="37.3657900">
    <ele>5514.7</ele>
    <time>2026-06-23T02:32:45Z</time>
   </trkpt>
   <trkpt lat="-3.0816640" lon="37.3657880">
    <ele>5514.8</ele>
    <time>2026-06-23T02:32:46Z</time>
   </trkpt>
   <trkpt lat="-3.0816620" lon="37.3657870">
    <ele>5514.9</ele>
    <time>2026-06-23T02:32:47Z</time>
   </trkpt>
   <trkpt lat="-3.0816630" lon="37.3657880">
    <ele>5514.9</ele>
    <time>2026-06-23T02:32:48Z</time>
   </trkpt>
   <trkpt lat="-3.0816610" lon="37.3657870">
    <ele>5515.0</ele>
    <time>2026-06-23T02:32:49Z</time>
   </trkpt>
   <trkpt lat="-3.0816610" lon="37.3657870">
    <ele>5515.0</ele>
    <time>2026-06-23T02:32:50Z</time>
   </trkpt>
   <trkpt lat="-3.0816610" lon="37.3657870">
    <ele>5515.0</ele>
    <time>2026-06-23T02:32:51Z</time>
   </trkpt>
   <trkpt lat="-3.0816610" lon="37.3657870">
    <ele>5515.0</ele>
    <time>2026-06-23T02:32:52Z</time>
   </trkpt>
   <trkpt lat="-3.0816600" lon="37.3657870">
    <ele>5515.0</ele>
    <time>2026-06-23T02:32:53Z</time>
   </trkpt>
   <trkpt lat="-3.0816600" lon="37.3657870">
    <ele>5515.0</ele>
    <time>2026-06-23T02:32:54Z</time>
   </trkpt>
   <trkpt lat="-3.0816600" lon="37.3657870">
    <ele>5515.0</ele>
    <time>2026-06-23T02:32:55Z</time>
   </trkpt>
   <trkpt lat="-3.0816590" lon="37.3657870">
    <ele>5515.0</ele>
    <time>2026-06-23T02:32:56Z</time>
   </trkpt>
   <trkpt lat="-3.0816590" lon="37.3657870">
    <ele>5515.0</ele>
    <time>2026-06-23T02:32:57Z</time>
   </trkpt>
   <trkpt lat="-3.0816580" lon="37.3657860">
    <ele>5515.0</ele>
    <time>2026-06-23T02:32:58Z</time>
   </trkpt>
   <trkpt lat="-3.0816580" lon="37.3657860">
    <ele>5515.0</ele>
    <time>2026-06-23T02:32:59Z</time>
   </trkpt>
   <trkpt lat="-3.0816570" lon="37.3657840">
    <ele>5515.1</ele>
    <time>2026-06-23T02:33:00Z</time>
   </trkpt>
   <trkpt lat="-3.0816580" lon="37.3657830">
    <ele>5515.1</ele>
    <time>2026-06-23T02:33:01Z</time>
   </trkpt>
   <trkpt lat="-3.0816560" lon="37.3657820">
    <ele>5515.2</ele>
    <time>2026-06-23T02:33:02Z</time>
   </trkpt>
   <trkpt lat="-3.0816540" lon="37.3657810">
    <ele>5515.3</ele>
    <time>2026-06-23T02:33:03Z</time>
   </trkpt>
   <trkpt lat="-3.0816540" lon="37.3657820">
    <ele>5515.3</ele>
    <time>2026-06-23T02:33:04Z</time>
   </trkpt>
   <trkpt lat="-3.0816530" lon="37.3657820">
    <ele>5515.3</ele>
    <time>2026-06-23T02:33:05Z</time>
   </trkpt>
   <trkpt lat="-3.0816530" lon="37.3657820">
    <ele>5515.3</ele>
    <time>2026-06-23T02:33:06Z</time>
   </trkpt>
   <trkpt lat="-3.0816530" lon="37.3657810">
    <ele>5515.3</ele>
    <time>2026-06-23T02:33:07Z</time>
   </trkpt>
   <trkpt lat="-3.0816520" lon="37.3657810">
    <ele>5515.4</ele>
    <time>2026-06-23T02:33:08Z</time>
   </trkpt>
   <trkpt lat="-3.0816530" lon="37.3657810">
    <ele>5515.4</ele>
    <time>2026-06-23T02:33:09Z</time>
   </trkpt>
   <trkpt lat="-3.0816530" lon="37.3657810">
    <ele>5515.4</ele>
    <time>2026-06-23T02:33:10Z</time>
   </trkpt>
   <trkpt lat="-3.0816540" lon="37.3657810">
    <ele>5515.4</ele>
    <time>2026-06-23T02:33:11Z</time>
   </trkpt>
   <trkpt lat="-3.0816530" lon="37.3657800">
    <ele>5515.5</ele>
    <time>2026-06-23T02:33:12Z</time>
   </trkpt>
   <trkpt lat="-3.0816530" lon="37.3657790">
    <ele>5515.5</ele>
    <time>2026-06-23T02:33:13Z</time>
   </trkpt>
   <trkpt lat="-3.0816500" lon="37.3657760">
    <ele>5515.6</ele>
    <time>2026-06-23T02:33:14Z</time>
   </trkpt>
   <trkpt lat="-3.0816480" lon="37.3657760">
    <ele>5515.6</ele>
    <time>2026-06-23T02:33:15Z</time>
   </trkpt>
   <trkpt lat="-3.0816450" lon="37.3657740">
    <ele>5515.7</ele>
    <time>2026-06-23T02:33:16Z</time>
   </trkpt>
   <trkpt lat="-3.0816430" lon="37.3657760">
    <ele>5515.8</ele>
    <time>2026-06-23T02:33:17Z</time>
   </trkpt>
   <trkpt lat="-3.0816390" lon="37.3657750">
    <ele>5515.9</ele>
    <time>2026-06-23T02:33:18Z</time>
   </trkpt>
   <trkpt lat="-3.0816380" lon="37.3657770">
    <ele>5516.0</ele>
    <time>2026-06-23T02:33:19Z</time>
   </trkpt>
   <trkpt lat="-3.0816350" lon="37.3657750">
    <ele>5516.1</ele>
    <time>2026-06-23T02:33:20Z</time>
   </trkpt>
   <trkpt lat="-3.0816340" lon="37.3657760">
    <ele>5516.1</ele>
    <time>2026-06-23T02:33:21Z</time>
   </trkpt>
   <trkpt lat="-3.0816320" lon="37.3657760">
    <ele>5516.2</ele>
    <time>2026-06-23T02:33:22Z</time>
   </trkpt>
   <trkpt lat="-3.0816320" lon="37.3657760">
    <ele>5516.2</ele>
    <time>2026-06-23T02:33:23Z</time>
   </trkpt>
   <trkpt lat="-3.0816290" lon="37.3657750">
    <ele>5516.3</ele>
    <time>2026-06-23T02:33:24Z</time>
   </trkpt>
   <trkpt lat="-3.0816250" lon="37.3657760">
    <ele>5516.4</ele>
    <time>2026-06-23T02:33:25Z</time>
   </trkpt>
   <trkpt lat="-3.0816230" lon="37.3657760">
    <ele>5516.4</ele>
    <time>2026-06-23T02:33:26Z</time>
   </trkpt>
   <trkpt lat="-3.0816200" lon="37.3657750">
    <ele>5516.5</ele>
    <time>2026-06-23T02:33:27Z</time>
   </trkpt>
   <trkpt lat="-3.0816180" lon="37.3657770">
    <ele>5516.6</ele>
    <time>2026-06-23T02:33:28Z</time>
   </trkpt>
   <trkpt lat="-3.0816160" lon="37.3657770">
    <ele>5516.6</ele>
    <time>2026-06-23T02:33:29Z</time>
   </trkpt>
   <trkpt lat="-3.0816140" lon="37.3657770">
    <ele>5516.7</ele>
    <time>2026-06-23T02:33:30Z</time>
   </trkpt>
   <trkpt lat="-3.0816130" lon="37.3657780">
    <ele>5516.7</ele>
    <time>2026-06-23T02:33:31Z</time>
   </trkpt>
   <trkpt lat="-3.0816110" lon="37.3657780">
    <ele>5516.8</ele>
    <time>2026-06-23T02:33:32Z</time>
   </trkpt>
   <trkpt lat="-3.0816090" lon="37.3657770">
    <ele>5516.8</ele>
    <time>2026-06-23T02:33:33Z</time>
   </trkpt>
   <trkpt lat="-3.0816080" lon="37.3657770">
    <ele>5516.9</ele>
    <time>2026-06-23T02:33:34Z</time>
   </trkpt>
   <trkpt lat="-3.0816060" lon="37.3657770">
    <ele>5516.9</ele>
    <time>2026-06-23T02:33:35Z</time>
   </trkpt>
   <trkpt lat="-3.0816070" lon="37.3657770">
    <ele>5516.9</ele>
    <time>2026-06-23T02:33:36Z</time>
   </trkpt>
   <trkpt lat="-3.0816050" lon="37.3657760">
    <ele>5517.0</ele>
    <time>2026-06-23T02:33:37Z</time>
   </trkpt>
   <trkpt lat="-3.0816030" lon="37.3657760">
    <ele>5517.0</ele>
    <time>2026-06-23T02:33:38Z</time>
   </trkpt>
   <trkpt lat="-3.0816020" lon="37.3657770">
    <ele>5517.1</ele>
    <time>2026-06-23T02:33:39Z</time>
   </trkpt>
   <trkpt lat="-3.0816010" lon="37.3657760">
    <ele>5517.1</ele>
    <time>2026-06-23T02:33:40Z</time>
   </trkpt>
   <trkpt lat="-3.0815980" lon="37.3657720">
    <ele>5517.2</ele>
    <time>2026-06-23T02:33:41Z</time>
   </trkpt>
   <trkpt lat="-3.0815980" lon="37.3657720">
    <ele>5517.2</ele>
    <time>2026-06-23T02:33:42Z</time>
   </trkpt>
   <trkpt lat="-3.0815960" lon="37.3657700">
    <ele>5517.3</ele>
    <time>2026-06-23T02:33:43Z</time>
   </trkpt>
   <trkpt lat="-3.0815940" lon="37.3657700">
    <ele>5517.4</ele>
    <time>2026-06-23T02:33:44Z</time>
   </trkpt>
   <trkpt lat="-3.0815920" lon="37.3657700">
    <ele>5517.4</ele>
    <time>2026-06-23T02:33:45Z</time>
   </trkpt>
   <trkpt lat="-3.0815880" lon="37.3657700">
    <ele>5517.5</ele>
    <time>2026-06-23T02:33:46Z</time>
   </trkpt>
   <trkpt lat="-3.0815890" lon="37.3657720">
    <ele>5517.6</ele>
    <time>2026-06-23T02:33:47Z</time>
   </trkpt>
   <trkpt lat="-3.0815880" lon="37.3657720">
    <ele>5517.6</ele>
    <time>2026-06-23T02:33:48Z</time>
   </trkpt>
   <trkpt lat="-3.0815870" lon="37.3657720">
    <ele>5517.6</ele>
    <time>2026-06-23T02:33:49Z</time>
   </trkpt>
   <trkpt lat="-3.0815850" lon="37.3657700">
    <ele>5517.7</ele>
    <time>2026-06-23T02:33:50Z</time>
   </trkpt>
   <trkpt lat="-3.0815840" lon="37.3657700">
    <ele>5517.7</ele>
    <time>2026-06-23T02:33:51Z</time>
   </trkpt>
   <trkpt lat="-3.0815810" lon="37.3657700">
    <ele>5517.8</ele>
    <time>2026-06-23T02:33:52Z</time>
   </trkpt>
   <trkpt lat="-3.0815820" lon="37.3657700">
    <ele>5517.9</ele>
    <time>2026-06-23T02:33:53Z</time>
   </trkpt>
   <trkpt lat="-3.0815810" lon="37.3657710">
    <ele>5517.9</ele>
    <time>2026-06-23T02:33:54Z</time>
   </trkpt>
   <trkpt lat="-3.0815800" lon="37.3657710">
    <ele>5517.9</ele>
    <time>2026-06-23T02:33:55Z</time>
   </trkpt>
   <trkpt lat="-3.0815760" lon="37.3657700">
    <ele>5518.0</ele>
    <time>2026-06-23T02:33:56Z</time>
   </trkpt>
   <trkpt lat="-3.0815760" lon="37.3657730">
    <ele>5518.1</ele>
    <time>2026-06-23T02:33:57Z</time>
   </trkpt>
   <trkpt lat="-3.0815720" lon="37.3657700">
    <ele>5518.2</ele>
    <time>2026-06-23T02:33:58Z</time>
   </trkpt>
   <trkpt lat="-3.0815720" lon="37.3657710">
    <ele>5518.3</ele>
    <time>2026-06-23T02:33:59Z</time>
   </trkpt>
   <trkpt lat="-3.0815700" lon="37.3657720">
    <ele>5518.3</ele>
    <time>2026-06-23T02:34:00Z</time>
   </trkpt>
   <trkpt lat="-3.0815680" lon="37.3657710">
    <ele>5518.4</ele>
    <time>2026-06-23T02:34:01Z</time>
   </trkpt>
   <trkpt lat="-3.0815670" lon="37.3657720">
    <ele>5518.4</ele>
    <time>2026-06-23T02:34:02Z</time>
   </trkpt>
   <trkpt lat="-3.0815650" lon="37.3657730">
    <ele>5518.5</ele>
    <time>2026-06-23T02:34:03Z</time>
   </trkpt>
   <trkpt lat="-3.0815630" lon="37.3657730">
    <ele>5518.5</ele>
    <time>2026-06-23T02:34:04Z</time>
   </trkpt>
   <trkpt lat="-3.0815610" lon="37.3657730">
    <ele>5518.6</ele>
    <time>2026-06-23T02:34:05Z</time>
   </trkpt>
   <trkpt lat="-3.0815600" lon="37.3657750">
    <ele>5518.6</ele>
    <time>2026-06-23T02:34:06Z</time>
   </trkpt>
   <trkpt lat="-3.0815580" lon="37.3657760">
    <ele>5518.7</ele>
    <time>2026-06-23T02:34:07Z</time>
   </trkpt>
   <trkpt lat="-3.0815590" lon="37.3657770">
    <ele>5518.7</ele>
    <time>2026-06-23T02:34:08Z</time>
   </trkpt>
   <trkpt lat="-3.0815560" lon="37.3657760">
    <ele>5518.8</ele>
    <time>2026-06-23T02:34:09Z</time>
   </trkpt>
   <trkpt lat="-3.0815550" lon="37.3657770">
    <ele>5518.8</ele>
    <time>2026-06-23T02:34:10Z</time>
   </trkpt>
   <trkpt lat="-3.0815530" lon="37.3657790">
    <ele>5518.9</ele>
    <time>2026-06-23T02:34:11Z</time>
   </trkpt>
   <trkpt lat="-3.0815520" lon="37.3657780">
    <ele>5518.9</ele>
    <time>2026-06-23T02:34:12Z</time>
   </trkpt>
   <trkpt lat="-3.0815530" lon="37.3657780">
    <ele>5519.0</ele>
    <time>2026-06-23T02:34:13Z</time>
   </trkpt>
   <trkpt lat="-3.0815500" lon="37.3657780">
    <ele>5519.0</ele>
    <time>2026-06-23T02:34:14Z</time>
   </trkpt>
   <trkpt lat="-3.0815490" lon="37.3657800">
    <ele>5519.1</ele>
    <time>2026-06-23T02:34:15Z</time>
   </trkpt>
   <trkpt lat="-3.0815470" lon="37.3657780">
    <ele>5519.2</ele>
    <time>2026-06-23T02:34:16Z</time>
   </trkpt>
   <trkpt lat="-3.0815440" lon="37.3657770">
    <ele>5519.3</ele>
    <time>2026-06-23T02:34:17Z</time>
   </trkpt>
   <trkpt lat="-3.0815420" lon="37.3657770">
    <ele>5519.3</ele>
    <time>2026-06-23T02:34:18Z</time>
   </trkpt>
   <trkpt lat="-3.0815390" lon="37.3657760">
    <ele>5519.4</ele>
    <time>2026-06-23T02:34:19Z</time>
   </trkpt>
   <trkpt lat="-3.0815370" lon="37.3657770">
    <ele>5519.4</ele>
    <time>2026-06-23T02:34:20Z</time>
   </trkpt>
   <trkpt lat="-3.0815350" lon="37.3657780">
    <ele>5519.5</ele>
    <time>2026-06-23T02:34:21Z</time>
   </trkpt>
   <trkpt lat="-3.0815330" lon="37.3657790">
    <ele>5519.6</ele>
    <time>2026-06-23T02:34:22Z</time>
   </trkpt>
   <trkpt lat="-3.0815320" lon="37.3657800">
    <ele>5519.6</ele>
    <time>2026-06-23T02:34:23Z</time>
   </trkpt>
   <trkpt lat="-3.0815310" lon="37.3657800">
    <ele>5519.6</ele>
    <time>2026-06-23T02:34:24Z</time>
   </trkpt>
   <trkpt lat="-3.0815280" lon="37.3657780">
    <ele>5519.7</ele>
    <time>2026-06-23T02:34:25Z</time>
   </trkpt>
   <trkpt lat="-3.0815270" lon="37.3657780">
    <ele>5519.7</ele>
    <time>2026-06-23T02:34:26Z</time>
   </trkpt>
   <trkpt lat="-3.0815260" lon="37.3657760">
    <ele>5519.8</ele>
    <time>2026-06-23T02:34:27Z</time>
   </trkpt>
   <trkpt lat="-3.0815260" lon="37.3657780">
    <ele>5519.9</ele>
    <time>2026-06-23T02:34:28Z</time>
   </trkpt>
   <trkpt lat="-3.0815240" lon="37.3657770">
    <ele>5519.9</ele>
    <time>2026-06-23T02:34:29Z</time>
   </trkpt>
   <trkpt lat="-3.0815220" lon="37.3657770">
    <ele>5520.0</ele>
    <time>2026-06-23T02:34:30Z</time>
   </trkpt>
   <trkpt lat="-3.0815210" lon="37.3657760">
    <ele>5520.0</ele>
    <time>2026-06-23T02:34:31Z</time>
   </trkpt>
   <trkpt lat="-3.0815210" lon="37.3657750">
    <ele>5520.0</ele>
    <time>2026-06-23T02:34:32Z</time>
   </trkpt>
   <trkpt lat="-3.0815210" lon="37.3657740">
    <ele>5520.1</ele>
    <time>2026-06-23T02:34:33Z</time>
   </trkpt>
   <trkpt lat="-3.0815210" lon="37.3657740">
    <ele>5520.1</ele>
    <time>2026-06-23T02:34:34Z</time>
   </trkpt>
   <trkpt lat="-3.0815210" lon="37.3657750">
    <ele>5520.1</ele>
    <time>2026-06-23T02:34:35Z</time>
   </trkpt>
   <trkpt lat="-3.0815190" lon="37.3657740">
    <ele>5520.1</ele>
    <time>2026-06-23T02:34:36Z</time>
   </trkpt>
   <trkpt lat="-3.0815170" lon="37.3657730">
    <ele>5520.2</ele>
    <time>2026-06-23T02:34:37Z</time>
   </trkpt>
   <trkpt lat="-3.0815160" lon="37.3657730">
    <ele>5520.2</ele>
    <time>2026-06-23T02:34:38Z</time>
   </trkpt>
   <trkpt lat="-3.0815150" lon="37.3657710">
    <ele>5520.3</ele>
    <time>2026-06-23T02:34:39Z</time>
   </trkpt>
   <trkpt lat="-3.0815140" lon="37.3657710">
    <ele>5520.3</ele>
    <time>2026-06-23T02:34:40Z</time>
   </trkpt>
   <trkpt lat="-3.0815120" lon="37.3657690">
    <ele>5520.4</ele>
    <time>2026-06-23T02:34:41Z</time>
   </trkpt>
   <trkpt lat="-3.0815130" lon="37.3657680">
    <ele>5520.4</ele>
    <time>2026-06-23T02:34:42Z</time>
   </trkpt>
   <trkpt lat="-3.0815120" lon="37.3657660">
    <ele>5520.5</ele>
    <time>2026-06-23T02:34:43Z</time>
   </trkpt>
   <trkpt lat="-3.0815110" lon="37.3657630">
    <ele>5520.5</ele>
    <time>2026-06-23T02:34:44Z</time>
   </trkpt>
   <trkpt lat="-3.0815100" lon="37.3657610">
    <ele>5520.6</ele>
    <time>2026-06-23T02:34:45Z</time>
   </trkpt>
   <trkpt lat="-3.0815100" lon="37.3657620">
    <ele>5520.6</ele>
    <time>2026-06-23T02:34:46Z</time>
   </trkpt>
   <trkpt lat="-3.0815090" lon="37.3657600">
    <ele>5520.7</ele>
    <time>2026-06-23T02:34:47Z</time>
   </trkpt>
   <trkpt lat="-3.0815090" lon="37.3657620">
    <ele>5520.7</ele>
    <time>2026-06-23T02:34:48Z</time>
   </trkpt>
   <trkpt lat="-3.0815080" lon="37.3657590">
    <ele>5520.8</ele>
    <time>2026-06-23T02:34:49Z</time>
   </trkpt>
   <trkpt lat="-3.0815070" lon="37.3657580">
    <ele>5520.9</ele>
    <time>2026-06-23T02:34:50Z</time>
   </trkpt>
   <trkpt lat="-3.0815060" lon="37.3657560">
    <ele>5520.9</ele>
    <time>2026-06-23T02:34:51Z</time>
   </trkpt>
   <trkpt lat="-3.0815070" lon="37.3657570">
    <ele>5521.0</ele>
    <time>2026-06-23T02:34:52Z</time>
   </trkpt>
   <trkpt lat="-3.0815060" lon="37.3657540">
    <ele>5521.0</ele>
    <time>2026-06-23T02:34:53Z</time>
   </trkpt>
   <trkpt lat="-3.0815070" lon="37.3657520">
    <ele>5521.1</ele>
    <time>2026-06-23T02:34:54Z</time>
   </trkpt>
   <trkpt lat="-3.0815070" lon="37.3657490">
    <ele>5521.2</ele>
    <time>2026-06-23T02:34:55Z</time>
   </trkpt>
   <trkpt lat="-3.0815100" lon="37.3657500">
    <ele>5521.3</ele>
    <time>2026-06-23T02:34:56Z</time>
   </trkpt>
   <trkpt lat="-3.0815110" lon="37.3657490">
    <ele>5521.3</ele>
    <time>2026-06-23T02:34:57Z</time>
   </trkpt>
   <trkpt lat="-3.0815120" lon="37.3657450">
    <ele>5521.4</ele>
    <time>2026-06-23T02:34:58Z</time>
   </trkpt>
   <trkpt lat="-3.0815130" lon="37.3657430">
    <ele>5521.4</ele>
    <time>2026-06-23T02:34:59Z</time>
   </trkpt>
   <trkpt lat="-3.0815130" lon="37.3657420">
    <ele>5521.5</ele>
    <time>2026-06-23T02:35:00Z</time>
   </trkpt>
   <trkpt lat="-3.0815140" lon="37.3657430">
    <ele>5521.5</ele>
    <time>2026-06-23T02:35:01Z</time>
   </trkpt>
   <trkpt lat="-3.0815140" lon="37.3657420">
    <ele>5521.5</ele>
    <time>2026-06-23T02:35:02Z</time>
   </trkpt>
   <trkpt lat="-3.0815130" lon="37.3657420">
    <ele>5521.6</ele>
    <time>2026-06-23T02:35:03Z</time>
   </trkpt>
   <trkpt lat="-3.0815140" lon="37.3657410">
    <ele>5521.6</ele>
    <time>2026-06-23T02:35:04Z</time>
   </trkpt>
   <trkpt lat="-3.0815140" lon="37.3657420">
    <ele>5521.6</ele>
    <time>2026-06-23T02:35:05Z</time>
   </trkpt>
   <trkpt lat="-3.0815130" lon="37.3657410">
    <ele>5521.7</ele>
    <time>2026-06-23T02:35:06Z</time>
   </trkpt>
   <trkpt lat="-3.0815130" lon="37.3657410">
    <ele>5521.7</ele>
    <time>2026-06-23T02:35:07Z</time>
   </trkpt>
   <trkpt lat="-3.0815130" lon="37.3657410">
    <ele>5521.7</ele>
    <time>2026-06-23T02:35:08Z</time>
   </trkpt>
   <trkpt lat="-3.0815130" lon="37.3657410">
    <ele>5521.7</ele>
    <time>2026-06-23T02:35:09Z</time>
   </trkpt>
   <trkpt lat="-3.0815130" lon="37.3657400">
    <ele>5521.7</ele>
    <time>2026-06-23T02:35:10Z</time>
   </trkpt>
   <trkpt lat="-3.0815130" lon="37.3657400">
    <ele>5521.7</ele>
    <time>2026-06-23T02:35:11Z</time>
   </trkpt>
   <trkpt lat="-3.0815130" lon="37.3657400">
    <ele>5521.7</ele>
    <time>2026-06-23T02:35:12Z</time>
   </trkpt>
   <trkpt lat="-3.0815130" lon="37.3657400">
    <ele>5521.7</ele>
    <time>2026-06-23T02:35:13Z</time>
   </trkpt>
   <trkpt lat="-3.0815130" lon="37.3657390">
    <ele>5521.7</ele>
    <time>2026-06-23T02:35:15Z</time>
   </trkpt>
   <trkpt lat="-3.0815120" lon="37.3657390">
    <ele>5521.7</ele>
    <time>2026-06-23T02:35:16Z</time>
   </trkpt>
   <trkpt lat="-3.0815130" lon="37.3657380">
    <ele>5521.8</ele>
    <time>2026-06-23T02:35:17Z</time>
   </trkpt>
   <trkpt lat="-3.0815120" lon="37.3657350">
    <ele>5521.9</ele>
    <time>2026-06-23T02:35:18Z</time>
   </trkpt>
   <trkpt lat="-3.0815110" lon="37.3657330">
    <ele>5521.9</ele>
    <time>2026-06-23T02:35:19Z</time>
   </trkpt>
   <trkpt lat="-3.0815090" lon="37.3657300">
    <ele>5522.0</ele>
    <time>2026-06-23T02:35:20Z</time>
   </trkpt>
   <trkpt lat="-3.0815070" lon="37.3657290">
    <ele>5522.1</ele>
    <time>2026-06-23T02:35:21Z</time>
   </trkpt>
   <trkpt lat="-3.0815080" lon="37.3657300">
    <ele>5522.1</ele>
    <time>2026-06-23T02:35:22Z</time>
   </trkpt>
   <trkpt lat="-3.0815070" lon="37.3657280">
    <ele>5522.2</ele>
    <time>2026-06-23T02:35:23Z</time>
   </trkpt>
   <trkpt lat="-3.0815040" lon="37.3657280">
    <ele>5522.2</ele>
    <time>2026-06-23T02:35:24Z</time>
   </trkpt>
   <trkpt lat="-3.0815050" lon="37.3657290">
    <ele>5522.3</ele>
    <time>2026-06-23T02:35:25Z</time>
   </trkpt>
   <trkpt lat="-3.0815020" lon="37.3657260">
    <ele>5522.4</ele>
    <time>2026-06-23T02:35:26Z</time>
   </trkpt>
   <trkpt lat="-3.0815000" lon="37.3657290">
    <ele>5522.5</ele>
    <time>2026-06-23T02:35:27Z</time>
   </trkpt>
   <trkpt lat="-3.0814960" lon="37.3657260">
    <ele>5522.6</ele>
    <time>2026-06-23T02:35:28Z</time>
   </trkpt>
   <trkpt lat="-3.0814950" lon="37.3657300">
    <ele>5522.7</ele>
    <time>2026-06-23T02:35:29Z</time>
   </trkpt>
   <trkpt lat="-3.0814920" lon="37.3657300">
    <ele>5522.7</ele>
    <time>2026-06-23T02:35:30Z</time>
   </trkpt>
   <trkpt lat="-3.0814890" lon="37.3657290">
    <ele>5522.8</ele>
    <time>2026-06-23T02:35:31Z</time>
   </trkpt>
   <trkpt lat="-3.0814860" lon="37.3657260">
    <ele>5522.9</ele>
    <time>2026-06-23T02:35:32Z</time>
   </trkpt>
   <trkpt lat="-3.0814870" lon="37.3657280">
    <ele>5523.0</ele>
    <time>2026-06-23T02:35:33Z</time>
   </trkpt>
   <trkpt lat="-3.0814870" lon="37.3657280">
    <ele>5523.0</ele>
    <time>2026-06-23T02:35:34Z</time>
   </trkpt>
   <trkpt lat="-3.0814840" lon="37.3657270">
    <ele>5523.1</ele>
    <time>2026-06-23T02:35:35Z</time>
   </trkpt>
   <trkpt lat="-3.0814850" lon="37.3657280">
    <ele>5523.1</ele>
    <time>2026-06-23T02:35:36Z</time>
   </trkpt>
   <trkpt lat="-3.0814810" lon="37.3657260">
    <ele>5523.2</ele>
    <time>2026-06-23T02:35:37Z</time>
   </trkpt>
   <trkpt lat="-3.0814820" lon="37.3657300">
    <ele>5523.3</ele>
    <time>2026-06-23T02:35:38Z</time>
   </trkpt>
   <trkpt lat="-3.0814800" lon="37.3657310">
    <ele>5523.4</ele>
    <time>2026-06-23T02:35:39Z</time>
   </trkpt>
   <trkpt lat="-3.0814770" lon="37.3657330">
    <ele>5523.4</ele>
    <time>2026-06-23T02:35:40Z</time>
   </trkpt>
   <trkpt lat="-3.0814760" lon="37.3657350">
    <ele>5523.5</ele>
    <time>2026-06-23T02:35:41Z</time>
   </trkpt>
   <trkpt lat="-3.0814760" lon="37.3657370">
    <ele>5523.5</ele>
    <time>2026-06-23T02:35:42Z</time>
   </trkpt>
   <trkpt lat="-3.0814760" lon="37.3657340">
    <ele>5523.6</ele>
    <time>2026-06-23T02:35:43Z</time>
   </trkpt>
   <trkpt lat="-3.0814710" lon="37.3657380">
    <ele>5523.8</ele>
    <time>2026-06-23T02:35:44Z</time>
   </trkpt>
   <trkpt lat="-3.0814720" lon="37.3657380">
    <ele>5523.8</ele>
    <time>2026-06-23T02:35:45Z</time>
   </trkpt>
   <trkpt lat="-3.0814690" lon="37.3657380">
    <ele>5523.9</ele>
    <time>2026-06-23T02:35:46Z</time>
   </trkpt>
   <trkpt lat="-3.0814680" lon="37.3657380">
    <ele>5523.9</ele>
    <time>2026-06-23T02:35:47Z</time>
   </trkpt>
   <trkpt lat="-3.0814670" lon="37.3657390">
    <ele>5523.9</ele>
    <time>2026-06-23T02:35:48Z</time>
   </trkpt>
   <trkpt lat="-3.0814660" lon="37.3657400">
    <ele>5524.0</ele>
    <time>2026-06-23T02:35:49Z</time>
   </trkpt>
   <trkpt lat="-3.0814640" lon="37.3657370">
    <ele>5524.0</ele>
    <time>2026-06-23T02:35:50Z</time>
   </trkpt>
   <trkpt lat="-3.0814610" lon="37.3657360">
    <ele>5524.1</ele>
    <time>2026-06-23T02:35:51Z</time>
   </trkpt>
   <trkpt lat="-3.0814580" lon="37.3657320">
    <ele>5524.2</ele>
    <time>2026-06-23T02:35:52Z</time>
   </trkpt>
   <trkpt lat="-3.0814590" lon="37.3657310">
    <ele>5524.3</ele>
    <time>2026-06-23T02:35:53Z</time>
   </trkpt>
   <trkpt lat="-3.0814580" lon="37.3657300">
    <ele>5524.3</ele>
    <time>2026-06-23T02:35:54Z</time>
   </trkpt>
   <trkpt lat="-3.0814550" lon="37.3657290">
    <ele>5524.4</ele>
    <time>2026-06-23T02:35:55Z</time>
   </trkpt>
   <trkpt lat="-3.0814530" lon="37.3657280">
    <ele>5524.4</ele>
    <time>2026-06-23T02:35:56Z</time>
   </trkpt>
   <trkpt lat="-3.0814540" lon="37.3657280">
    <ele>5524.5</ele>
    <time>2026-06-23T02:35:57Z</time>
   </trkpt>
   <trkpt lat="-3.0814540" lon="37.3657280">
    <ele>5524.5</ele>
    <time>2026-06-23T02:35:58Z</time>
   </trkpt>
   <trkpt lat="-3.0814510" lon="37.3657280">
    <ele>5524.5</ele>
    <time>2026-06-23T02:35:59Z</time>
   </trkpt>
   <trkpt lat="-3.0814450" lon="37.3657250">
    <ele>5524.7</ele>
    <time>2026-06-23T02:36:00Z</time>
   </trkpt>
   <trkpt lat="-3.0814450" lon="37.3657250">
    <ele>5524.7</ele>
    <time>2026-06-23T02:36:01Z</time>
   </trkpt>
   <trkpt lat="-3.0814450" lon="37.3657250">
    <ele>5524.7</ele>
    <time>2026-06-23T02:36:02Z</time>
   </trkpt>
   <trkpt lat="-3.0814440" lon="37.3657250">
    <ele>5524.7</ele>
    <time>2026-06-23T02:36:03Z</time>
   </trkpt>
   <trkpt lat="-3.0814400" lon="37.3657240">
    <ele>5524.8</ele>
    <time>2026-06-23T02:36:04Z</time>
   </trkpt>
   <trkpt lat="-3.0814390" lon="37.3657230">
    <ele>5524.9</ele>
    <time>2026-06-23T02:36:05Z</time>
   </trkpt>
   <trkpt lat="-3.0814400" lon="37.3657240">
    <ele>5524.9</ele>
    <time>2026-06-23T02:36:06Z</time>
   </trkpt>
   <trkpt lat="-3.0814380" lon="37.3657240">
    <ele>5524.9</ele>
    <time>2026-06-23T02:36:07Z</time>
   </trkpt>
   <trkpt lat="-3.0814350" lon="37.3657240">
    <ele>5525.0</ele>
    <time>2026-06-23T02:36:08Z</time>
   </trkpt>
   <trkpt lat="-3.0814360" lon="37.3657230">
    <ele>5525.1</ele>
    <time>2026-06-23T02:36:09Z</time>
   </trkpt>
   <trkpt lat="-3.0814340" lon="37.3657220">
    <ele>5525.1</ele>
    <time>2026-06-23T02:36:10Z</time>
   </trkpt>
   <trkpt lat="-3.0814320" lon="37.3657210">
    <ele>5525.2</ele>
    <time>2026-06-23T02:36:11Z</time>
   </trkpt>
   <trkpt lat="-3.0814290" lon="37.3657200">
    <ele>5525.2</ele>
    <time>2026-06-23T02:36:12Z</time>
   </trkpt>
   <trkpt lat="-3.0814290" lon="37.3657190">
    <ele>5525.3</ele>
    <time>2026-06-23T02:36:13Z</time>
   </trkpt>
   <trkpt lat="-3.0814290" lon="37.3657180">
    <ele>5525.3</ele>
    <time>2026-06-23T02:36:14Z</time>
   </trkpt>
   <trkpt lat="-3.0814270" lon="37.3657160">
    <ele>5525.4</ele>
    <time>2026-06-23T02:36:15Z</time>
   </trkpt>
   <trkpt lat="-3.0814270" lon="37.3657160">
    <ele>5525.4</ele>
    <time>2026-06-23T02:36:16Z</time>
   </trkpt>
   <trkpt lat="-3.0814250" lon="37.3657150">
    <ele>5525.4</ele>
    <time>2026-06-23T02:36:17Z</time>
   </trkpt>
   <trkpt lat="-3.0814230" lon="37.3657150">
    <ele>5525.5</ele>
    <time>2026-06-23T02:36:18Z</time>
   </trkpt>
   <trkpt lat="-3.0814230" lon="37.3657130">
    <ele>5525.5</ele>
    <time>2026-06-23T02:36:19Z</time>
   </trkpt>
   <trkpt lat="-3.0814230" lon="37.3657130">
    <ele>5525.5</ele>
    <time>2026-06-23T02:36:20Z</time>
   </trkpt>
   <trkpt lat="-3.0814230" lon="37.3657160">
    <ele>5525.6</ele>
    <time>2026-06-23T02:36:21Z</time>
   </trkpt>
   <trkpt lat="-3.0814220" lon="37.3657090">
    <ele>5525.7</ele>
    <time>2026-06-23T02:36:22Z</time>
   </trkpt>
   <trkpt lat="-3.0814200" lon="37.3657150">
    <ele>5525.9</ele>
    <time>2026-06-23T02:36:23Z</time>
   </trkpt>
   <trkpt lat="-3.0814200" lon="37.3657160">
    <ele>5525.9</ele>
    <time>2026-06-23T02:36:24Z</time>
   </trkpt>
   <trkpt lat="-3.0814220" lon="37.3657160">
    <ele>5526.0</ele>
    <time>2026-06-23T02:36:25Z</time>
   </trkpt>
   <trkpt lat="-3.0814230" lon="37.3657160">
    <ele>5526.0</ele>
    <time>2026-06-23T02:36:26Z</time>
   </trkpt>
   <trkpt lat="-3.0814220" lon="37.3657160">
    <ele>5526.0</ele>
    <time>2026-06-23T02:36:27Z</time>
   </trkpt>
   <trkpt lat="-3.0814220" lon="37.3657170">
    <ele>5526.0</ele>
    <time>2026-06-23T02:36:28Z</time>
   </trkpt>
   <trkpt lat="-3.0814220" lon="37.3657180">
    <ele>5526.1</ele>
    <time>2026-06-23T02:36:29Z</time>
   </trkpt>
   <trkpt lat="-3.0814220" lon="37.3657170">
    <ele>5526.1</ele>
    <time>2026-06-23T02:36:30Z</time>
   </trkpt>
   <trkpt lat="-3.0814210" lon="37.3657190">
    <ele>5526.1</ele>
    <time>2026-06-23T02:36:31Z</time>
   </trkpt>
   <trkpt lat="-3.0814210" lon="37.3657190">
    <ele>5526.1</ele>
    <time>2026-06-23T02:36:32Z</time>
   </trkpt>
   <trkpt lat="-3.0814210" lon="37.3657190">
    <ele>5526.1</ele>
    <time>2026-06-23T02:36:33Z</time>
   </trkpt>
   <trkpt lat="-3.0814210" lon="37.3657180">
    <ele>5526.2</ele>
    <time>2026-06-23T02:36:34Z</time>
   </trkpt>
   <trkpt lat="-3.0814200" lon="37.3657170">
    <ele>5526.2</ele>
    <time>2026-06-23T02:36:35Z</time>
   </trkpt>
   <trkpt lat="-3.0814180" lon="37.3657180">
    <ele>5526.3</ele>
    <time>2026-06-23T02:36:36Z</time>
   </trkpt>
   <trkpt lat="-3.0814170" lon="37.3657190">
    <ele>5526.3</ele>
    <time>2026-06-23T02:36:37Z</time>
   </trkpt>
   <trkpt lat="-3.0814110" lon="37.3657190">
    <ele>5526.4</ele>
    <time>2026-06-23T02:36:38Z</time>
   </trkpt>
   <trkpt lat="-3.0814130" lon="37.3657180">
    <ele>5526.5</ele>
    <time>2026-06-23T02:36:39Z</time>
   </trkpt>
   <trkpt lat="-3.0814070" lon="37.3657200">
    <ele>5526.6</ele>
    <time>2026-06-23T02:36:40Z</time>
   </trkpt>
   <trkpt lat="-3.0814070" lon="37.3657230">
    <ele>5526.7</ele>
    <time>2026-06-23T02:36:41Z</time>
   </trkpt>
   <trkpt lat="-3.0814040" lon="37.3657240">
    <ele>5526.8</ele>
    <time>2026-06-23T02:36:42Z</time>
   </trkpt>
   <trkpt lat="-3.0814030" lon="37.3657260">
    <ele>5526.8</ele>
    <time>2026-06-23T02:36:43Z</time>
   </trkpt>
   <trkpt lat="-3.0813990" lon="37.3657270">
    <ele>5526.9</ele>
    <time>2026-06-23T02:36:44Z</time>
   </trkpt>
   <trkpt lat="-3.0813970" lon="37.3657300">
    <ele>5527.0</ele>
    <time>2026-06-23T02:36:45Z</time>
   </trkpt>
   <trkpt lat="-3.0813930" lon="37.3657290">
    <ele>5527.1</ele>
    <time>2026-06-23T02:36:46Z</time>
   </trkpt>
   <trkpt lat="-3.0813920" lon="37.3657300">
    <ele>5527.1</ele>
    <time>2026-06-23T02:36:47Z</time>
   </trkpt>
   <trkpt lat="-3.0813900" lon="37.3657270">
    <ele>5527.2</ele>
    <time>2026-06-23T02:36:48Z</time>
   </trkpt>
   <trkpt lat="-3.0813910" lon="37.3657280">
    <ele>5527.2</ele>
    <time>2026-06-23T02:36:49Z</time>
   </trkpt>
   <trkpt lat="-3.0813910" lon="37.3657280">
    <ele>5527.2</ele>
    <time>2026-06-23T02:36:50Z</time>
   </trkpt>
   <trkpt lat="-3.0813870" lon="37.3657270">
    <ele>5527.3</ele>
    <time>2026-06-23T02:36:51Z</time>
   </trkpt>
   <trkpt lat="-3.0813880" lon="37.3657270">
    <ele>5527.4</ele>
    <time>2026-06-23T02:36:52Z</time>
   </trkpt>
   <trkpt lat="-3.0813830" lon="37.3657240">
    <ele>5527.5</ele>
    <time>2026-06-23T02:36:53Z</time>
   </trkpt>
   <trkpt lat="-3.0813810" lon="37.3657210">
    <ele>5527.6</ele>
    <time>2026-06-23T02:36:54Z</time>
   </trkpt>
   <trkpt lat="-3.0813790" lon="37.3657190">
    <ele>5527.6</ele>
    <time>2026-06-23T02:36:55Z</time>
   </trkpt>
   <trkpt lat="-3.0813750" lon="37.3657200">
    <ele>5527.7</ele>
    <time>2026-06-23T02:36:56Z</time>
   </trkpt>
   <trkpt lat="-3.0813780" lon="37.3657170">
    <ele>5527.8</ele>
    <time>2026-06-23T02:36:57Z</time>
   </trkpt>
   <trkpt lat="-3.0813750" lon="37.3657190">
    <ele>5527.9</ele>
    <time>2026-06-23T02:36:58Z</time>
   </trkpt>
   <trkpt lat="-3.0813730" lon="37.3657170">
    <ele>5528.0</ele>
    <time>2026-06-23T02:36:59Z</time>
   </trkpt>
   <trkpt lat="-3.0813720" lon="37.3657170">
    <ele>5528.0</ele>
    <time>2026-06-23T02:37:00Z</time>
   </trkpt>
   <trkpt lat="-3.0813700" lon="37.3657160">
    <ele>5528.1</ele>
    <time>2026-06-23T02:37:01Z</time>
   </trkpt>
   <trkpt lat="-3.0813720" lon="37.3657160">
    <ele>5528.1</ele>
    <time>2026-06-23T02:37:02Z</time>
   </trkpt>
   <trkpt lat="-3.0813700" lon="37.3657160">
    <ele>5528.2</ele>
    <time>2026-06-23T02:37:03Z</time>
   </trkpt>
   <trkpt lat="-3.0813700" lon="37.3657160">
    <ele>5528.2</ele>
    <time>2026-06-23T02:37:04Z</time>
   </trkpt>
   <trkpt lat="-3.0813660" lon="37.3657150">
    <ele>5528.3</ele>
    <time>2026-06-23T02:37:05Z</time>
   </trkpt>
   <trkpt lat="-3.0813640" lon="37.3657160">
    <ele>5528.3</ele>
    <time>2026-06-23T02:37:06Z</time>
   </trkpt>
   <trkpt lat="-3.0813620" lon="37.3657160">
    <ele>5528.4</ele>
    <time>2026-06-23T02:37:07Z</time>
   </trkpt>
   <trkpt lat="-3.0813620" lon="37.3657150">
    <ele>5528.4</ele>
    <time>2026-06-23T02:37:08Z</time>
   </trkpt>
   <trkpt lat="-3.0813630" lon="37.3657150">
    <ele>5528.4</ele>
    <time>2026-06-23T02:37:09Z</time>
   </trkpt>
   <trkpt lat="-3.0813630" lon="37.3657130">
    <ele>5528.4</ele>
    <time>2026-06-23T02:37:10Z</time>
   </trkpt>
   <trkpt lat="-3.0813630" lon="37.3657130">
    <ele>5528.4</ele>
    <time>2026-06-23T02:37:11Z</time>
   </trkpt>
   <trkpt lat="-3.0813630" lon="37.3657140">
    <ele>5528.5</ele>
    <time>2026-06-23T02:37:12Z</time>
   </trkpt>
   <trkpt lat="-3.0813620" lon="37.3657140">
    <ele>5528.5</ele>
    <time>2026-06-23T02:37:13Z</time>
   </trkpt>
   <trkpt lat="-3.0813630" lon="37.3657130">
    <ele>5528.5</ele>
    <time>2026-06-23T02:37:14Z</time>
   </trkpt>
   <trkpt lat="-3.0813620" lon="37.3657140">
    <ele>5528.6</ele>
    <time>2026-06-23T02:37:15Z</time>
   </trkpt>
   <trkpt lat="-3.0813590" lon="37.3657150">
    <ele>5528.6</ele>
    <time>2026-06-23T02:37:16Z</time>
   </trkpt>
   <trkpt lat="-3.0813550" lon="37.3657160">
    <ele>5528.7</ele>
    <time>2026-06-23T02:37:17Z</time>
   </trkpt>
   <trkpt lat="-3.0813530" lon="37.3657150">
    <ele>5528.8</ele>
    <time>2026-06-23T02:37:18Z</time>
   </trkpt>
   <trkpt lat="-3.0813530" lon="37.3657140">
    <ele>5528.8</ele>
    <time>2026-06-23T02:37:19Z</time>
   </trkpt>
   <trkpt lat="-3.0813550" lon="37.3657130">
    <ele>5528.9</ele>
    <time>2026-06-23T02:37:20Z</time>
   </trkpt>
   <trkpt lat="-3.0813540" lon="37.3657120">
    <ele>5528.9</ele>
    <time>2026-06-23T02:37:21Z</time>
   </trkpt>
   <trkpt lat="-3.0813540" lon="37.3657080">
    <ele>5529.0</ele>
    <time>2026-06-23T02:37:22Z</time>
   </trkpt>
   <trkpt lat="-3.0813520" lon="37.3657060">
    <ele>5529.0</ele>
    <time>2026-06-23T02:37:23Z</time>
   </trkpt>
   <trkpt lat="-3.0813550" lon="37.3657040">
    <ele>5529.1</ele>
    <time>2026-06-23T02:37:24Z</time>
   </trkpt>
   <trkpt lat="-3.0813550" lon="37.3657010">
    <ele>5529.2</ele>
    <time>2026-06-23T02:37:25Z</time>
   </trkpt>
   <trkpt lat="-3.0813560" lon="37.3656990">
    <ele>5529.2</ele>
    <time>2026-06-23T02:37:26Z</time>
   </trkpt>
   <trkpt lat="-3.0813580" lon="37.3656990">
    <ele>5529.3</ele>
    <time>2026-06-23T02:37:27Z</time>
   </trkpt>
   <trkpt lat="-3.0813590" lon="37.3656970">
    <ele>5529.3</ele>
    <time>2026-06-23T02:37:28Z</time>
   </trkpt>
   <trkpt lat="-3.0813590" lon="37.3656970">
    <ele>5529.3</ele>
    <time>2026-06-23T02:37:29Z</time>
   </trkpt>
   <trkpt lat="-3.0813590" lon="37.3656970">
    <ele>5529.3</ele>
    <time>2026-06-23T02:37:30Z</time>
   </trkpt>
   <trkpt lat="-3.0813580" lon="37.3656950">
    <ele>5529.4</ele>
    <time>2026-06-23T02:37:31Z</time>
   </trkpt>
   <trkpt lat="-3.0813560" lon="37.3656930">
    <ele>5529.5</ele>
    <time>2026-06-23T02:37:32Z</time>
   </trkpt>
   <trkpt lat="-3.0813540" lon="37.3656940">
    <ele>5529.5</ele>
    <time>2026-06-23T02:37:33Z</time>
   </trkpt>
   <trkpt lat="-3.0813510" lon="37.3656930">
    <ele>5529.6</ele>
    <time>2026-06-23T02:37:34Z</time>
   </trkpt>
   <trkpt lat="-3.0813480" lon="37.3656920">
    <ele>5529.7</ele>
    <time>2026-06-23T02:37:35Z</time>
   </trkpt>
   <trkpt lat="-3.0813480" lon="37.3656940">
    <ele>5529.7</ele>
    <time>2026-06-23T02:37:36Z</time>
   </trkpt>
   <trkpt lat="-3.0813460" lon="37.3656940">
    <ele>5529.8</ele>
    <time>2026-06-23T02:37:37Z</time>
   </trkpt>
   <trkpt lat="-3.0813430" lon="37.3656930">
    <ele>5529.8</ele>
    <time>2026-06-23T02:37:38Z</time>
   </trkpt>
   <trkpt lat="-3.0813400" lon="37.3656910">
    <ele>5529.9</ele>
    <time>2026-06-23T02:37:39Z</time>
   </trkpt>
   <trkpt lat="-3.0813380" lon="37.3656900">
    <ele>5530.0</ele>
    <time>2026-06-23T02:37:40Z</time>
   </trkpt>
   <trkpt lat="-3.0813350" lon="37.3656880">
    <ele>5530.1</ele>
    <time>2026-06-23T02:37:41Z</time>
   </trkpt>
   <trkpt lat="-3.0813310" lon="37.3656880">
    <ele>5530.2</ele>
    <time>2026-06-23T02:37:42Z</time>
   </trkpt>
   <trkpt lat="-3.0813290" lon="37.3656850">
    <ele>5530.2</ele>
    <time>2026-06-23T02:37:43Z</time>
   </trkpt>
   <trkpt lat="-3.0813280" lon="37.3656860">
    <ele>5530.3</ele>
    <time>2026-06-23T02:37:44Z</time>
   </trkpt>
   <trkpt lat="-3.0813280" lon="37.3656850">
    <ele>5530.3</ele>
    <time>2026-06-23T02:37:45Z</time>
   </trkpt>
   <trkpt lat="-3.0813270" lon="37.3656850">
    <ele>5530.3</ele>
    <time>2026-06-23T02:37:46Z</time>
   </trkpt>
   <trkpt lat="-3.0813240" lon="37.3656850">
    <ele>5530.4</ele>
    <time>2026-06-23T02:37:47Z</time>
   </trkpt>
   <trkpt lat="-3.0813200" lon="37.3656850">
    <ele>5530.5</ele>
    <time>2026-06-23T02:37:48Z</time>
   </trkpt>
   <trkpt lat="-3.0813190" lon="37.3656850">
    <ele>5530.5</ele>
    <time>2026-06-23T02:37:49Z</time>
   </trkpt>
   <trkpt lat="-3.0813170" lon="37.3656850">
    <ele>5530.6</ele>
    <time>2026-06-23T02:37:50Z</time>
   </trkpt>
   <trkpt lat="-3.0813170" lon="37.3656850">
    <ele>5530.6</ele>
    <time>2026-06-23T02:37:51Z</time>
   </trkpt>
   <trkpt lat="-3.0813160" lon="37.3656860">
    <ele>5530.6</ele>
    <time>2026-06-23T02:37:52Z</time>
   </trkpt>
   <trkpt lat="-3.0813170" lon="37.3656860">
    <ele>5530.6</ele>
    <time>2026-06-23T02:37:53Z</time>
   </trkpt>
   <trkpt lat="-3.0813170" lon="37.3656860">
    <ele>5530.6</ele>
    <time>2026-06-23T02:37:54Z</time>
   </trkpt>
   <trkpt lat="-3.0813150" lon="37.3656850">
    <ele>5530.7</ele>
    <time>2026-06-23T02:37:55Z</time>
   </trkpt>
   <trkpt lat="-3.0813120" lon="37.3656860">
    <ele>5530.8</ele>
    <time>2026-06-23T02:37:56Z</time>
   </trkpt>
   <trkpt lat="-3.0813130" lon="37.3656860">
    <ele>5530.8</ele>
    <time>2026-06-23T02:37:57Z</time>
   </trkpt>
   <trkpt lat="-3.0813080" lon="37.3656840">
    <ele>5530.9</ele>
    <time>2026-06-23T02:37:58Z</time>
   </trkpt>
   <trkpt lat="-3.0813040" lon="37.3656850">
    <ele>5531.0</ele>
    <time>2026-06-23T02:37:59Z</time>
   </trkpt>
   <trkpt lat="-3.0813040" lon="37.3656840">
    <ele>5531.0</ele>
    <time>2026-06-23T02:38:00Z</time>
   </trkpt>
   <trkpt lat="-3.0813000" lon="37.3656850">
    <ele>5531.1</ele>
    <time>2026-06-23T02:38:01Z</time>
   </trkpt>
   <trkpt lat="-3.0812970" lon="37.3656850">
    <ele>5531.2</ele>
    <time>2026-06-23T02:38:02Z</time>
   </trkpt>
   <trkpt lat="-3.0812920" lon="37.3656870">
    <ele>5531.3</ele>
    <time>2026-06-23T02:38:03Z</time>
   </trkpt>
   <trkpt lat="-3.0812930" lon="37.3656870">
    <ele>5531.4</ele>
    <time>2026-06-23T02:38:04Z</time>
   </trkpt>
   <trkpt lat="-3.0812910" lon="37.3656880">
    <ele>5531.4</ele>
    <time>2026-06-23T02:38:05Z</time>
   </trkpt>
   <trkpt lat="-3.0812870" lon="37.3656900">
    <ele>5531.5</ele>
    <time>2026-06-23T02:38:06Z</time>
   </trkpt>
   <trkpt lat="-3.0812840" lon="37.3656930">
    <ele>5531.6</ele>
    <time>2026-06-23T02:38:07Z</time>
   </trkpt>
   <trkpt lat="-3.0812820" lon="37.3656930">
    <ele>5531.7</ele>
    <time>2026-06-23T02:38:08Z</time>
   </trkpt>
   <trkpt lat="-3.0812800" lon="37.3656940">
    <ele>5531.7</ele>
    <time>2026-06-23T02:38:09Z</time>
   </trkpt>
   <trkpt lat="-3.0812780" lon="37.3656950">
    <ele>5531.8</ele>
    <time>2026-06-23T02:38:10Z</time>
   </trkpt>
   <trkpt lat="-3.0812750" lon="37.3656960">
    <ele>5531.9</ele>
    <time>2026-06-23T02:38:11Z</time>
   </trkpt>
   <trkpt lat="-3.0812740" lon="37.3656960">
    <ele>5531.9</ele>
    <time>2026-06-23T02:38:12Z</time>
   </trkpt>
   <trkpt lat="-3.0812720" lon="37.3656950">
    <ele>5531.9</ele>
    <time>2026-06-23T02:38:13Z</time>
   </trkpt>
   <trkpt lat="-3.0812710" lon="37.3656950">
    <ele>5532.0</ele>
    <time>2026-06-23T02:38:14Z</time>
   </trkpt>
   <trkpt lat="-3.0812690" lon="37.3656940">
    <ele>5532.0</ele>
    <time>2026-06-23T02:38:15Z</time>
   </trkpt>
   <trkpt lat="-3.0812680" lon="37.3656940">
    <ele>5532.0</ele>
    <time>2026-06-23T02:38:16Z</time>
   </trkpt>
   <trkpt lat="-3.0812650" lon="37.3656930">
    <ele>5532.1</ele>
    <time>2026-06-23T02:38:17Z</time>
   </trkpt>
   <trkpt lat="-3.0812640" lon="37.3656930">
    <ele>5532.1</ele>
    <time>2026-06-23T02:38:18Z</time>
   </trkpt>
   <trkpt lat="-3.0812600" lon="37.3656930">
    <ele>5532.2</ele>
    <time>2026-06-23T02:38:19Z</time>
   </trkpt>
   <trkpt lat="-3.0812590" lon="37.3656940">
    <ele>5532.3</ele>
    <time>2026-06-23T02:38:20Z</time>
   </trkpt>
   <trkpt lat="-3.0812570" lon="37.3656940">
    <ele>5532.3</ele>
    <time>2026-06-23T02:38:21Z</time>
   </trkpt>
   <trkpt lat="-3.0812540" lon="37.3656940">
    <ele>5532.4</ele>
    <time>2026-06-23T02:38:22Z</time>
   </trkpt>
   <trkpt lat="-3.0812540" lon="37.3656930">
    <ele>5532.4</ele>
    <time>2026-06-23T02:38:23Z</time>
   </trkpt>
   <trkpt lat="-3.0812520" lon="37.3656920">
    <ele>5532.5</ele>
    <time>2026-06-23T02:38:24Z</time>
   </trkpt>
   <trkpt lat="-3.0812510" lon="37.3656920">
    <ele>5532.5</ele>
    <time>2026-06-23T02:38:25Z</time>
   </trkpt>
   <trkpt lat="-3.0812490" lon="37.3656920">
    <ele>5532.6</ele>
    <time>2026-06-23T02:38:26Z</time>
   </trkpt>
   <trkpt lat="-3.0812470" lon="37.3656930">
    <ele>5532.6</ele>
    <time>2026-06-23T02:38:27Z</time>
   </trkpt>
   <trkpt lat="-3.0812460" lon="37.3656920">
    <ele>5532.6</ele>
    <time>2026-06-23T02:38:28Z</time>
   </trkpt>
   <trkpt lat="-3.0812420" lon="37.3656930">
    <ele>5532.7</ele>
    <time>2026-06-23T02:38:29Z</time>
   </trkpt>
   <trkpt lat="-3.0812390" lon="37.3656930">
    <ele>5532.8</ele>
    <time>2026-06-23T02:38:30Z</time>
   </trkpt>
   <trkpt lat="-3.0812370" lon="37.3656920">
    <ele>5532.9</ele>
    <time>2026-06-23T02:38:31Z</time>
   </trkpt>
   <trkpt lat="-3.0812380" lon="37.3656900">
    <ele>5532.9</ele>
    <time>2026-06-23T02:38:32Z</time>
   </trkpt>
   <trkpt lat="-3.0812380" lon="37.3656890">
    <ele>5532.9</ele>
    <time>2026-06-23T02:38:33Z</time>
   </trkpt>
   <trkpt lat="-3.0812350" lon="37.3656890">
    <ele>5533.0</ele>
    <time>2026-06-23T02:38:34Z</time>
   </trkpt>
   <trkpt lat="-3.0812310" lon="37.3656900">
    <ele>5533.1</ele>
    <time>2026-06-23T02:38:35Z</time>
   </trkpt>
   <trkpt lat="-3.0812280" lon="37.3656860">
    <ele>5533.2</ele>
    <time>2026-06-23T02:38:36Z</time>
   </trkpt>
   <trkpt lat="-3.0812260" lon="37.3656870">
    <ele>5533.3</ele>
    <time>2026-06-23T02:38:37Z</time>
   </trkpt>
   <trkpt lat="-3.0812250" lon="37.3656850">
    <ele>5533.3</ele>
    <time>2026-06-23T02:38:38Z</time>
   </trkpt>
   <trkpt lat="-3.0812240" lon="37.3656850">
    <ele>5533.4</ele>
    <time>2026-06-23T02:38:39Z</time>
   </trkpt>
   <trkpt lat="-3.0812220" lon="37.3656830">
    <ele>5533.4</ele>
    <time>2026-06-23T02:38:40Z</time>
   </trkpt>
   <trkpt lat="-3.0812230" lon="37.3656830">
    <ele>5533.5</ele>
    <time>2026-06-23T02:38:41Z</time>
   </trkpt>
   <trkpt lat="-3.0812220" lon="37.3656820">
    <ele>5533.5</ele>
    <time>2026-06-23T02:38:42Z</time>
   </trkpt>
   <trkpt lat="-3.0812180" lon="37.3656810">
    <ele>5533.6</ele>
    <time>2026-06-23T02:38:43Z</time>
   </trkpt>
   <trkpt lat="-3.0812180" lon="37.3656810">
    <ele>5533.6</ele>
    <time>2026-06-23T02:38:44Z</time>
   </trkpt>
   <trkpt lat="-3.0812150" lon="37.3656790">
    <ele>5533.7</ele>
    <time>2026-06-23T02:38:45Z</time>
   </trkpt>
   <trkpt lat="-3.0812130" lon="37.3656820">
    <ele>5533.8</ele>
    <time>2026-06-23T02:38:46Z</time>
   </trkpt>
   <trkpt lat="-3.0812090" lon="37.3656800">
    <ele>5533.9</ele>
    <time>2026-06-23T02:38:47Z</time>
   </trkpt>
   <trkpt lat="-3.0812080" lon="37.3656790">
    <ele>5533.9</ele>
    <time>2026-06-23T02:38:48Z</time>
   </trkpt>
   <trkpt lat="-3.0812070" lon="37.3656800">
    <ele>5534.0</ele>
    <time>2026-06-23T02:38:49Z</time>
   </trkpt>
   <trkpt lat="-3.0812050" lon="37.3656800">
    <ele>5534.0</ele>
    <time>2026-06-23T02:38:50Z</time>
   </trkpt>
   <trkpt lat="-3.0812040" lon="37.3656790">
    <ele>5534.0</ele>
    <time>2026-06-23T02:38:51Z</time>
   </trkpt>
   <trkpt lat="-3.0812020" lon="37.3656800">
    <ele>5534.1</ele>
    <time>2026-06-23T02:38:52Z</time>
   </trkpt>
   <trkpt lat="-3.0812010" lon="37.3656790">
    <ele>5534.1</ele>
    <time>2026-06-23T02:38:53Z</time>
   </trkpt>
   <trkpt lat="-3.0811990" lon="37.3656770">
    <ele>5534.2</ele>
    <time>2026-06-23T02:38:54Z</time>
   </trkpt>
   <trkpt lat="-3.0811990" lon="37.3656780">
    <ele>5534.2</ele>
    <time>2026-06-23T02:38:55Z</time>
   </trkpt>
   <trkpt lat="-3.0811980" lon="37.3656760">
    <ele>5534.3</ele>
    <time>2026-06-23T02:38:56Z</time>
   </trkpt>
   <trkpt lat="-3.0811980" lon="37.3656760">
    <ele>5534.3</ele>
    <time>2026-06-23T02:38:57Z</time>
   </trkpt>
   <trkpt lat="-3.0811990" lon="37.3656740">
    <ele>5534.4</ele>
    <time>2026-06-23T02:38:58Z</time>
   </trkpt>
   <trkpt lat="-3.0811990" lon="37.3656730">
    <ele>5534.4</ele>
    <time>2026-06-23T02:38:59Z</time>
   </trkpt>
   <trkpt lat="-3.0811990" lon="37.3656730">
    <ele>5534.4</ele>
    <time>2026-06-23T02:39:00Z</time>
   </trkpt>
   <trkpt lat="-3.0811980" lon="37.3656690">
    <ele>5534.5</ele>
    <time>2026-06-23T02:39:01Z</time>
   </trkpt>
   <trkpt lat="-3.0811990" lon="37.3656680">
    <ele>5534.5</ele>
    <time>2026-06-23T02:39:02Z</time>
   </trkpt>
   <trkpt lat="-3.0812000" lon="37.3656660">
    <ele>5534.6</ele>
    <time>2026-06-23T02:39:03Z</time>
   </trkpt>
   <trkpt lat="-3.0811980" lon="37.3656630">
    <ele>5534.7</ele>
    <time>2026-06-23T02:39:04Z</time>
   </trkpt>
   <trkpt lat="-3.0811990" lon="37.3656590">
    <ele>5534.8</ele>
    <time>2026-06-23T02:39:05Z</time>
   </trkpt>
   <trkpt lat="-3.0812000" lon="37.3656580">
    <ele>5534.8</ele>
    <time>2026-06-23T02:39:06Z</time>
   </trkpt>
   <trkpt lat="-3.0812010" lon="37.3656560">
    <ele>5534.9</ele>
    <time>2026-06-23T02:39:07Z</time>
   </trkpt>
   <trkpt lat="-3.0812030" lon="37.3656550">
    <ele>5534.9</ele>
    <time>2026-06-23T02:39:08Z</time>
   </trkpt>
   <trkpt lat="-3.0812040" lon="37.3656520">
    <ele>5535.0</ele>
    <time>2026-06-23T02:39:09Z</time>
   </trkpt>
   <trkpt lat="-3.0812050" lon="37.3656480">
    <ele>5535.1</ele>
    <time>2026-06-23T02:39:10Z</time>
   </trkpt>
   <trkpt lat="-3.0812040" lon="37.3656470">
    <ele>5535.1</ele>
    <time>2026-06-23T02:39:11Z</time>
   </trkpt>
   <trkpt lat="-3.0812050" lon="37.3656460">
    <ele>5535.2</ele>
    <time>2026-06-23T02:39:12Z</time>
   </trkpt>
   <trkpt lat="-3.0812050" lon="37.3656450">
    <ele>5535.2</ele>
    <time>2026-06-23T02:39:13Z</time>
   </trkpt>
   <trkpt lat="-3.0812080" lon="37.3656430">
    <ele>5535.3</ele>
    <time>2026-06-23T02:39:14Z</time>
   </trkpt>
   <trkpt lat="-3.0812090" lon="37.3656410">
    <ele>5535.3</ele>
    <time>2026-06-23T02:39:15Z</time>
   </trkpt>
   <trkpt lat="-3.0812110" lon="37.3656390">
    <ele>5535.4</ele>
    <time>2026-06-23T02:39:16Z</time>
   </trkpt>
   <trkpt lat="-3.0812120" lon="37.3656370">
    <ele>5535.5</ele>
    <time>2026-06-23T02:39:17Z</time>
   </trkpt>
   <trkpt lat="-3.0812150" lon="37.3656350">
    <ele>5535.6</ele>
    <time>2026-06-23T02:39:18Z</time>
   </trkpt>
   <trkpt lat="-3.0812140" lon="37.3656330">
    <ele>5535.6</ele>
    <time>2026-06-23T02:39:19Z</time>
   </trkpt>
   <trkpt lat="-3.0812150" lon="37.3656320">
    <ele>5535.7</ele>
    <time>2026-06-23T02:39:20Z</time>
   </trkpt>
   <trkpt lat="-3.0812140" lon="37.3656280">
    <ele>5535.8</ele>
    <time>2026-06-23T02:39:21Z</time>
   </trkpt>
   <trkpt lat="-3.0812150" lon="37.3656260">
    <ele>5535.8</ele>
    <time>2026-06-23T02:39:22Z</time>
   </trkpt>
   <trkpt lat="-3.0812140" lon="37.3656230">
    <ele>5535.9</ele>
    <time>2026-06-23T02:39:23Z</time>
   </trkpt>
   <trkpt lat="-3.0812120" lon="37.3656220">
    <ele>5536.0</ele>
    <time>2026-06-23T02:39:24Z</time>
   </trkpt>
   <trkpt lat="-3.0812120" lon="37.3656200">
    <ele>5536.0</ele>
    <time>2026-06-23T02:39:25Z</time>
   </trkpt>
   <trkpt lat="-3.0812110" lon="37.3656200">
    <ele>5536.0</ele>
    <time>2026-06-23T02:39:26Z</time>
   </trkpt>
   <trkpt lat="-3.0812110" lon="37.3656200">
    <ele>5536.0</ele>
    <time>2026-06-23T02:39:27Z</time>
   </trkpt>
   <trkpt lat="-3.0812090" lon="37.3656200">
    <ele>5536.1</ele>
    <time>2026-06-23T02:39:28Z</time>
   </trkpt>
   <trkpt lat="-3.0812070" lon="37.3656200">
    <ele>5536.1</ele>
    <time>2026-06-23T02:39:29Z</time>
   </trkpt>
   <trkpt lat="-3.0812050" lon="37.3656200">
    <ele>5536.2</ele>
    <time>2026-06-23T02:39:30Z</time>
   </trkpt>
   <trkpt lat="-3.0812050" lon="37.3656210">
    <ele>5536.2</ele>
    <time>2026-06-23T02:39:31Z</time>
   </trkpt>
   <trkpt lat="-3.0812030" lon="37.3656210">
    <ele>5536.3</ele>
    <time>2026-06-23T02:39:32Z</time>
   </trkpt>
   <trkpt lat="-3.0812010" lon="37.3656200">
    <ele>5536.3</ele>
    <time>2026-06-23T02:39:33Z</time>
   </trkpt>
   <trkpt lat="-3.0811990" lon="37.3656190">
    <ele>5536.4</ele>
    <time>2026-06-23T02:39:34Z</time>
   </trkpt>
   <trkpt lat="-3.0811990" lon="37.3656170">
    <ele>5536.4</ele>
    <time>2026-06-23T02:39:35Z</time>
   </trkpt>
   <trkpt lat="-3.0811970" lon="37.3656170">
    <ele>5536.5</ele>
    <time>2026-06-23T02:39:36Z</time>
   </trkpt>
   <trkpt lat="-3.0811940" lon="37.3656150">
    <ele>5536.6</ele>
    <time>2026-06-23T02:39:37Z</time>
   </trkpt>
   <trkpt lat="-3.0811950" lon="37.3656140">
    <ele>5536.6</ele>
    <time>2026-06-23T02:39:38Z</time>
   </trkpt>
   <trkpt lat="-3.0811950" lon="37.3656120">
    <ele>5536.7</ele>
    <time>2026-06-23T02:39:39Z</time>
   </trkpt>
   <trkpt lat="-3.0811960" lon="37.3656110">
    <ele>5536.7</ele>
    <time>2026-06-23T02:39:40Z</time>
   </trkpt>
   <trkpt lat="-3.0811940" lon="37.3656120">
    <ele>5536.8</ele>
    <time>2026-06-23T02:39:41Z</time>
   </trkpt>
   <trkpt lat="-3.0811950" lon="37.3656100">
    <ele>5536.8</ele>
    <time>2026-06-23T02:39:42Z</time>
   </trkpt>
   <trkpt lat="-3.0811960" lon="37.3656090">
    <ele>5536.8</ele>
    <time>2026-06-23T02:39:43Z</time>
   </trkpt>
   <trkpt lat="-3.0811980" lon="37.3656070">
    <ele>5536.9</ele>
    <time>2026-06-23T02:39:44Z</time>
   </trkpt>
   <trkpt lat="-3.0812010" lon="37.3656060">
    <ele>5537.0</ele>
    <time>2026-06-23T02:39:45Z</time>
   </trkpt>
   <trkpt lat="-3.0812030" lon="37.3656060">
    <ele>5537.0</ele>
    <time>2026-06-23T02:39:46Z</time>
   </trkpt>
   <trkpt lat="-3.0812040" lon="37.3656050">
    <ele>5537.1</ele>
    <time>2026-06-23T02:39:47Z</time>
   </trkpt>
   <trkpt lat="-3.0812050" lon="37.3656040">
    <ele>5537.1</ele>
    <time>2026-06-23T02:39:48Z</time>
   </trkpt>
   <trkpt lat="-3.0812070" lon="37.3656040">
    <ele>5537.2</ele>
    <time>2026-06-23T02:39:49Z</time>
   </trkpt>
   <trkpt lat="-3.0812080" lon="37.3656010">
    <ele>5537.3</ele>
    <time>2026-06-23T02:39:50Z</time>
   </trkpt>
   <trkpt lat="-3.0812110" lon="37.3656010">
    <ele>5537.3</ele>
    <time>2026-06-23T02:39:51Z</time>
   </trkpt>
   <trkpt lat="-3.0812140" lon="37.3656010">
    <ele>5537.4</ele>
    <time>2026-06-23T02:39:52Z</time>
   </trkpt>
   <trkpt lat="-3.0812170" lon="37.3655980">
    <ele>5537.5</ele>
    <time>2026-06-23T02:39:53Z</time>
   </trkpt>
   <trkpt lat="-3.0812200" lon="37.3655980">
    <ele>5537.6</ele>
    <time>2026-06-23T02:39:54Z</time>
   </trkpt>
   <trkpt lat="-3.0812220" lon="37.3655960">
    <ele>5537.7</ele>
    <time>2026-06-23T02:39:55Z</time>
   </trkpt>
   <trkpt lat="-3.0812230" lon="37.3655960">
    <ele>5537.7</ele>
    <time>2026-06-23T02:39:56Z</time>
   </trkpt>
   <trkpt lat="-3.0812270" lon="37.3655960">
    <ele>5537.8</ele>
    <time>2026-06-23T02:39:57Z</time>
   </trkpt>
   <trkpt lat="-3.0812270" lon="37.3655930">
    <ele>5537.9</ele>
    <time>2026-06-23T02:39:58Z</time>
   </trkpt>
   <trkpt lat="-3.0812270" lon="37.3655920">
    <ele>5537.9</ele>
    <time>2026-06-23T02:39:59Z</time>
   </trkpt>
   <trkpt lat="-3.0812290" lon="37.3655910">
    <ele>5537.9</ele>
    <time>2026-06-23T02:40:00Z</time>
   </trkpt>
   <trkpt lat="-3.0812290" lon="37.3655900">
    <ele>5538.0</ele>
    <time>2026-06-23T02:40:01Z</time>
   </trkpt>
   <trkpt lat="-3.0812290" lon="37.3655900">
    <ele>5538.0</ele>
    <time>2026-06-23T02:40:02Z</time>
   </trkpt>
   <trkpt lat="-3.0812280" lon="37.3655900">
    <ele>5538.0</ele>
    <time>2026-06-23T02:40:03Z</time>
   </trkpt>
   <trkpt lat="-3.0812290" lon="37.3655870">
    <ele>5538.1</ele>
    <time>2026-06-23T02:40:04Z</time>
   </trkpt>
   <trkpt lat="-3.0812270" lon="37.3655840">
    <ele>5538.2</ele>
    <time>2026-06-23T02:40:05Z</time>
   </trkpt>
   <trkpt lat="-3.0812260" lon="37.3655810">
    <ele>5538.2</ele>
    <time>2026-06-23T02:40:06Z</time>
   </trkpt>
   <trkpt lat="-3.0812250" lon="37.3655810">
    <ele>5538.3</ele>
    <time>2026-06-23T02:40:07Z</time>
   </trkpt>
   <trkpt lat="-3.0812240" lon="37.3655810">
    <ele>5538.3</ele>
    <time>2026-06-23T02:40:08Z</time>
   </trkpt>
   <trkpt lat="-3.0812220" lon="37.3655800">
    <ele>5538.4</ele>
    <time>2026-06-23T02:40:09Z</time>
   </trkpt>
   <trkpt lat="-3.0812200" lon="37.3655780">
    <ele>5538.4</ele>
    <time>2026-06-23T02:40:10Z</time>
   </trkpt>
   <trkpt lat="-3.0812190" lon="37.3655780">
    <ele>5538.5</ele>
    <time>2026-06-23T02:40:11Z</time>
   </trkpt>
   <trkpt lat="-3.0812160" lon="37.3655760">
    <ele>5538.5</ele>
    <time>2026-06-23T02:40:12Z</time>
   </trkpt>
   <trkpt lat="-3.0812140" lon="37.3655760">
    <ele>5538.6</ele>
    <time>2026-06-23T02:40:13Z</time>
   </trkpt>
   <trkpt lat="-3.0812120" lon="37.3655730">
    <ele>5538.7</ele>
    <time>2026-06-23T02:40:14Z</time>
   </trkpt>
   <trkpt lat="-3.0812110" lon="37.3655730">
    <ele>5538.7</ele>
    <time>2026-06-23T02:40:15Z</time>
   </trkpt>
   <trkpt lat="-3.0812090" lon="37.3655730">
    <ele>5538.8</ele>
    <time>2026-06-23T02:40:16Z</time>
   </trkpt>
   <trkpt lat="-3.0812080" lon="37.3655690">
    <ele>5538.9</ele>
    <time>2026-06-23T02:40:17Z</time>
   </trkpt>
   <trkpt lat="-3.0812070" lon="37.3655670">
    <ele>5538.9</ele>
    <time>2026-06-23T02:40:18Z</time>
   </trkpt>
   <trkpt lat="-3.0812070" lon="37.3655650">
    <ele>5539.0</ele>
    <time>2026-06-23T02:40:19Z</time>
   </trkpt>
   <trkpt lat="-3.0812070" lon="37.3655630">
    <ele>5539.0</ele>
    <time>2026-06-23T02:40:20Z</time>
   </trkpt>
   <trkpt lat="-3.0812070" lon="37.3655630">
    <ele>5539.0</ele>
    <time>2026-06-23T02:40:21Z</time>
   </trkpt>
   <trkpt lat="-3.0812070" lon="37.3655590">
    <ele>5539.1</ele>
    <time>2026-06-23T02:40:22Z</time>
   </trkpt>
   <trkpt lat="-3.0812070" lon="37.3655600">
    <ele>5539.2</ele>
    <time>2026-06-23T02:40:23Z</time>
   </trkpt>
   <trkpt lat="-3.0812080" lon="37.3655580">
    <ele>5539.2</ele>
    <time>2026-06-23T02:40:24Z</time>
   </trkpt>
   <trkpt lat="-3.0812080" lon="37.3655590">
    <ele>5539.2</ele>
    <time>2026-06-23T02:40:25Z</time>
   </trkpt>
   <trkpt lat="-3.0812090" lon="37.3655590">
    <ele>5539.3</ele>
    <time>2026-06-23T02:40:26Z</time>
   </trkpt>
   <trkpt lat="-3.0812090" lon="37.3655590">
    <ele>5539.3</ele>
    <time>2026-06-23T02:40:27Z</time>
   </trkpt>
   <trkpt lat="-3.0812080" lon="37.3655590">
    <ele>5539.3</ele>
    <time>2026-06-23T02:40:28Z</time>
   </trkpt>
   <trkpt lat="-3.0812090" lon="37.3655590">
    <ele>5539.3</ele>
    <time>2026-06-23T02:40:29Z</time>
   </trkpt>
   <trkpt lat="-3.0812080" lon="37.3655600">
    <ele>5539.3</ele>
    <time>2026-06-23T02:40:30Z</time>
   </trkpt>
   <trkpt lat="-3.0812090" lon="37.3655590">
    <ele>5539.4</ele>
    <time>2026-06-23T02:40:31Z</time>
   </trkpt>
   <trkpt lat="-3.0812090" lon="37.3655590">
    <ele>5539.4</ele>
    <time>2026-06-23T02:40:32Z</time>
   </trkpt>
   <trkpt lat="-3.0812090" lon="37.3655590">
    <ele>5539.4</ele>
    <time>2026-06-23T02:40:33Z</time>
   </trkpt>
   <trkpt lat="-3.0812090" lon="37.3655600">
    <ele>5539.4</ele>
    <time>2026-06-23T02:40:34Z</time>
   </trkpt>
   <trkpt lat="-3.0812090" lon="37.3655600">
    <ele>5539.4</ele>
    <time>2026-06-23T02:40:35Z</time>
   </trkpt>
   <trkpt lat="-3.0812090" lon="37.3655610">
    <ele>5539.4</ele>
    <time>2026-06-23T02:40:36Z</time>
   </trkpt>
   <trkpt lat="-3.0812090" lon="37.3655610">
    <ele>5539.4</ele>
    <time>2026-06-23T02:40:37Z</time>
   </trkpt>
   <trkpt lat="-3.0812100" lon="37.3655610">
    <ele>5539.5</ele>
    <time>2026-06-23T02:40:38Z</time>
   </trkpt>
   <trkpt lat="-3.0812100" lon="37.3655610">
    <ele>5539.5</ele>
    <time>2026-06-23T02:40:39Z</time>
   </trkpt>
   <trkpt lat="-3.0812110" lon="37.3655610">
    <ele>5539.5</ele>
    <time>2026-06-23T02:40:40Z</time>
   </trkpt>
   <trkpt lat="-3.0812120" lon="37.3655590">
    <ele>5539.5</ele>
    <time>2026-06-23T02:40:41Z</time>
   </trkpt>
   <trkpt lat="-3.0812140" lon="37.3655570">
    <ele>5539.6</ele>
    <time>2026-06-23T02:40:42Z</time>
   </trkpt>
   <trkpt lat="-3.0812170" lon="37.3655550">
    <ele>5539.7</ele>
    <time>2026-06-23T02:40:43Z</time>
   </trkpt>
   <trkpt lat="-3.0812190" lon="37.3655530">
    <ele>5539.8</ele>
    <time>2026-06-23T02:40:44Z</time>
   </trkpt>
   <trkpt lat="-3.0812200" lon="37.3655520">
    <ele>5539.8</ele>
    <time>2026-06-23T02:40:45Z</time>
   </trkpt>
   <trkpt lat="-3.0812200" lon="37.3655490">
    <ele>5539.9</ele>
    <time>2026-06-23T02:40:46Z</time>
   </trkpt>
   <trkpt lat="-3.0812230" lon="37.3655480">
    <ele>5540.0</ele>
    <time>2026-06-23T02:40:47Z</time>
   </trkpt>
   <trkpt lat="-3.0812220" lon="37.3655450">
    <ele>5540.1</ele>
    <time>2026-06-23T02:40:48Z</time>
   </trkpt>
   <trkpt lat="-3.0812240" lon="37.3655410">
    <ele>5540.2</ele>
    <time>2026-06-23T02:40:49Z</time>
   </trkpt>
   <trkpt lat="-3.0812230" lon="37.3655400">
    <ele>5540.2</ele>
    <time>2026-06-23T02:40:50Z</time>
   </trkpt>
   <trkpt lat="-3.0812230" lon="37.3655390">
    <ele>5540.2</ele>
    <time>2026-06-23T02:40:51Z</time>
   </trkpt>
   <trkpt lat="-3.0812220" lon="37.3655380">
    <ele>5540.3</ele>
    <time>2026-06-23T02:40:52Z</time>
   </trkpt>
   <trkpt lat="-3.0812220" lon="37.3655380">
    <ele>5540.3</ele>
    <time>2026-06-23T02:40:53Z</time>
   </trkpt>
   <trkpt lat="-3.0812220" lon="37.3655380">
    <ele>5540.3</ele>
    <time>2026-06-23T02:40:54Z</time>
   </trkpt>
   <trkpt lat="-3.0812210" lon="37.3655360">
    <ele>5540.3</ele>
    <time>2026-06-23T02:40:55Z</time>
   </trkpt>
   <trkpt lat="-3.0812190" lon="37.3655340">
    <ele>5540.4</ele>
    <time>2026-06-23T02:40:56Z</time>
   </trkpt>
   <trkpt lat="-3.0812190" lon="37.3655340">
    <ele>5540.4</ele>
    <time>2026-06-23T02:40:57Z</time>
   </trkpt>
   <trkpt lat="-3.0812180" lon="37.3655340">
    <ele>5540.4</ele>
    <time>2026-06-23T02:40:58Z</time>
   </trkpt>
   <trkpt lat="-3.0812170" lon="37.3655290">
    <ele>5540.5</ele>
    <time>2026-06-23T02:40:59Z</time>
   </trkpt>
   <trkpt lat="-3.0812170" lon="37.3655290">
    <ele>5540.5</ele>
    <time>2026-06-23T02:41:00Z</time>
   </trkpt>
   <trkpt lat="-3.0812170" lon="37.3655280">
    <ele>5540.6</ele>
    <time>2026-06-23T02:41:01Z</time>
   </trkpt>
   <trkpt lat="-3.0812130" lon="37.3655290">
    <ele>5540.7</ele>
    <time>2026-06-23T02:41:02Z</time>
   </trkpt>
   <trkpt lat="-3.0812140" lon="37.3655290">
    <ele>5540.7</ele>
    <time>2026-06-23T02:41:03Z</time>
   </trkpt>
   <trkpt lat="-3.0812120" lon="37.3655280">
    <ele>5540.8</ele>
    <time>2026-06-23T02:41:04Z</time>
   </trkpt>
   <trkpt lat="-3.0812110" lon="37.3655280">
    <ele>5540.8</ele>
    <time>2026-06-23T02:41:05Z</time>
   </trkpt>
   <trkpt lat="-3.0812090" lon="37.3655270">
    <ele>5540.8</ele>
    <time>2026-06-23T02:41:06Z</time>
   </trkpt>
   <trkpt lat="-3.0812060" lon="37.3655260">
    <ele>5540.9</ele>
    <time>2026-06-23T02:41:07Z</time>
   </trkpt>
   <trkpt lat="-3.0812070" lon="37.3655250">
    <ele>5541.0</ele>
    <time>2026-06-23T02:41:08Z</time>
   </trkpt>
   <trkpt lat="-3.0812030" lon="37.3655240">
    <ele>5541.1</ele>
    <time>2026-06-23T02:41:09Z</time>
   </trkpt>
   <trkpt lat="-3.0812040" lon="37.3655240">
    <ele>5541.1</ele>
    <time>2026-06-23T02:41:10Z</time>
   </trkpt>
   <trkpt lat="-3.0812010" lon="37.3655240">
    <ele>5541.2</ele>
    <time>2026-06-23T02:41:11Z</time>
   </trkpt>
   <trkpt lat="-3.0811990" lon="37.3655230">
    <ele>5541.2</ele>
    <time>2026-06-23T02:41:12Z</time>
   </trkpt>
   <trkpt lat="-3.0811970" lon="37.3655220">
    <ele>5541.3</ele>
    <time>2026-06-23T02:41:13Z</time>
   </trkpt>
   <trkpt lat="-3.0811940" lon="37.3655220">
    <ele>5541.4</ele>
    <time>2026-06-23T02:41:14Z</time>
   </trkpt>
   <trkpt lat="-3.0811910" lon="37.3655210">
    <ele>5541.4</ele>
    <time>2026-06-23T02:41:15Z</time>
   </trkpt>
   <trkpt lat="-3.0811910" lon="37.3655210">
    <ele>5541.4</ele>
    <time>2026-06-23T02:41:16Z</time>
   </trkpt>
   <trkpt lat="-3.0811880" lon="37.3655230">
    <ele>5541.5</ele>
    <time>2026-06-23T02:41:17Z</time>
   </trkpt>
   <trkpt lat="-3.0811840" lon="37.3655240">
    <ele>5541.6</ele>
    <time>2026-06-23T02:41:18Z</time>
   </trkpt>
   <trkpt lat="-3.0811820" lon="37.3655250">
    <ele>5541.7</ele>
    <time>2026-06-23T02:41:19Z</time>
   </trkpt>
   <trkpt lat="-3.0811820" lon="37.3655240">
    <ele>5541.7</ele>
    <time>2026-06-23T02:41:20Z</time>
   </trkpt>
   <trkpt lat="-3.0811820" lon="37.3655240">
    <ele>5541.7</ele>
    <time>2026-06-23T02:41:21Z</time>
   </trkpt>
   <trkpt lat="-3.0811780" lon="37.3655250">
    <ele>5541.8</ele>
    <time>2026-06-23T02:41:22Z</time>
   </trkpt>
   <trkpt lat="-3.0811770" lon="37.3655240">
    <ele>5541.9</ele>
    <time>2026-06-23T02:41:23Z</time>
   </trkpt>
   <trkpt lat="-3.0811730" lon="37.3655240">
    <ele>5542.0</ele>
    <time>2026-06-23T02:41:24Z</time>
   </trkpt>
   <trkpt lat="-3.0811720" lon="37.3655230">
    <ele>5542.0</ele>
    <time>2026-06-23T02:41:25Z</time>
   </trkpt>
   <trkpt lat="-3.0811700" lon="37.3655240">
    <ele>5542.0</ele>
    <time>2026-06-23T02:41:26Z</time>
   </trkpt>
   <trkpt lat="-3.0811690" lon="37.3655230">
    <ele>5542.1</ele>
    <time>2026-06-23T02:41:27Z</time>
   </trkpt>
   <trkpt lat="-3.0811680" lon="37.3655240">
    <ele>5542.1</ele>
    <time>2026-06-23T02:41:28Z</time>
   </trkpt>
   <trkpt lat="-3.0811640" lon="37.3655220">
    <ele>5542.2</ele>
    <time>2026-06-23T02:41:29Z</time>
   </trkpt>
   <trkpt lat="-3.0811630" lon="37.3655220">
    <ele>5542.3</ele>
    <time>2026-06-23T02:41:30Z</time>
   </trkpt>
   <trkpt lat="-3.0811610" lon="37.3655210">
    <ele>5542.3</ele>
    <time>2026-06-23T02:41:31Z</time>
   </trkpt>
   <trkpt lat="-3.0811610" lon="37.3655220">
    <ele>5542.3</ele>
    <time>2026-06-23T02:41:32Z</time>
   </trkpt>
   <trkpt lat="-3.0811600" lon="37.3655230">
    <ele>5542.4</ele>
    <time>2026-06-23T02:41:33Z</time>
   </trkpt>
   <trkpt lat="-3.0811600" lon="37.3655230">
    <ele>5542.4</ele>
    <time>2026-06-23T02:41:34Z</time>
   </trkpt>
   <trkpt lat="-3.0811580" lon="37.3655220">
    <ele>5542.4</ele>
    <time>2026-06-23T02:41:35Z</time>
   </trkpt>
   <trkpt lat="-3.0811550" lon="37.3655210">
    <ele>5542.5</ele>
    <time>2026-06-23T02:41:36Z</time>
   </trkpt>
   <trkpt lat="-3.0811520" lon="37.3655230">
    <ele>5542.6</ele>
    <time>2026-06-23T02:41:37Z</time>
   </trkpt>
   <trkpt lat="-3.0811490" lon="37.3655230">
    <ele>5542.7</ele>
    <time>2026-06-23T02:41:38Z</time>
   </trkpt>
   <trkpt lat="-3.0811460" lon="37.3655230">
    <ele>5542.8</ele>
    <time>2026-06-23T02:41:39Z</time>
   </trkpt>
   <trkpt lat="-3.0811440" lon="37.3655230">
    <ele>5542.8</ele>
    <time>2026-06-23T02:41:40Z</time>
   </trkpt>
   <trkpt lat="-3.0811410" lon="37.3655240">
    <ele>5542.9</ele>
    <time>2026-06-23T02:41:41Z</time>
   </trkpt>
   <trkpt lat="-3.0811390" lon="37.3655230">
    <ele>5542.9</ele>
    <time>2026-06-23T02:41:42Z</time>
   </trkpt>
   <trkpt lat="-3.0811390" lon="37.3655240">
    <ele>5543.0</ele>
    <time>2026-06-23T02:41:43Z</time>
   </trkpt>
   <trkpt lat="-3.0811380" lon="37.3655250">
    <ele>5543.0</ele>
    <time>2026-06-23T02:41:44Z</time>
   </trkpt>
   <trkpt lat="-3.0811370" lon="37.3655250">
    <ele>5543.0</ele>
    <time>2026-06-23T02:41:45Z</time>
   </trkpt>
   <trkpt lat="-3.0811350" lon="37.3655260">
    <ele>5543.1</ele>
    <time>2026-06-23T02:41:46Z</time>
   </trkpt>
   <trkpt lat="-3.0811310" lon="37.3655270">
    <ele>5543.2</ele>
    <time>2026-06-23T02:41:47Z</time>
   </trkpt>
   <trkpt lat="-3.0811300" lon="37.3655260">
    <ele>5543.2</ele>
    <time>2026-06-23T02:41:48Z</time>
   </trkpt>
   <trkpt lat="-3.0811280" lon="37.3655250">
    <ele>5543.3</ele>
    <time>2026-06-23T02:41:49Z</time>
   </trkpt>
   <trkpt lat="-3.0811270" lon="37.3655230">
    <ele>5543.3</ele>
    <time>2026-06-23T02:41:50Z</time>
   </trkpt>
   <trkpt lat="-3.0811260" lon="37.3655240">
    <ele>5543.4</ele>
    <time>2026-06-23T02:41:51Z</time>
   </trkpt>
   <trkpt lat="-3.0811270" lon="37.3655240">
    <ele>5543.4</ele>
    <time>2026-06-23T02:41:52Z</time>
   </trkpt>
   <trkpt lat="-3.0811260" lon="37.3655230">
    <ele>5543.4</ele>
    <time>2026-06-23T02:41:53Z</time>
   </trkpt>
   <trkpt lat="-3.0811240" lon="37.3655230">
    <ele>5543.5</ele>
    <time>2026-06-23T02:41:54Z</time>
   </trkpt>
   <trkpt lat="-3.0811210" lon="37.3655220">
    <ele>5543.6</ele>
    <time>2026-06-23T02:41:55Z</time>
   </trkpt>
   <trkpt lat="-3.0811200" lon="37.3655210">
    <ele>5543.6</ele>
    <time>2026-06-23T02:41:56Z</time>
   </trkpt>
   <trkpt lat="-3.0811180" lon="37.3655210">
    <ele>5543.7</ele>
    <time>2026-06-23T02:41:57Z</time>
   </trkpt>
   <trkpt lat="-3.0811150" lon="37.3655220">
    <ele>5543.7</ele>
    <time>2026-06-23T02:41:58Z</time>
   </trkpt>
   <trkpt lat="-3.0811120" lon="37.3655230">
    <ele>5543.8</ele>
    <time>2026-06-23T02:41:59Z</time>
   </trkpt>
   <trkpt lat="-3.0811120" lon="37.3655230">
    <ele>5543.8</ele>
    <time>2026-06-23T02:42:00Z</time>
   </trkpt>
   <trkpt lat="-3.0811110" lon="37.3655230">
    <ele>5543.8</ele>
    <time>2026-06-23T02:42:01Z</time>
   </trkpt>
   <trkpt lat="-3.0811070" lon="37.3655230">
    <ele>5543.9</ele>
    <time>2026-06-23T02:42:02Z</time>
   </trkpt>
   <trkpt lat="-3.0811030" lon="37.3655230">
    <ele>5544.0</ele>
    <time>2026-06-23T02:42:03Z</time>
   </trkpt>
   <trkpt lat="-3.0811030" lon="37.3655230">
    <ele>5544.0</ele>
    <time>2026-06-23T02:42:04Z</time>
   </trkpt>
   <trkpt lat="-3.0811010" lon="37.3655240">
    <ele>5544.1</ele>
    <time>2026-06-23T02:42:05Z</time>
   </trkpt>
   <trkpt lat="-3.0811000" lon="37.3655230">
    <ele>5544.1</ele>
    <time>2026-06-23T02:42:06Z</time>
   </trkpt>
   <trkpt lat="-3.0810970" lon="37.3655240">
    <ele>5544.2</ele>
    <time>2026-06-23T02:42:07Z</time>
   </trkpt>
   <trkpt lat="-3.0810980" lon="37.3655240">
    <ele>5544.2</ele>
    <time>2026-06-23T02:42:08Z</time>
   </trkpt>
   <trkpt lat="-3.0810930" lon="37.3655250">
    <ele>5544.4</ele>
    <time>2026-06-23T02:42:09Z</time>
   </trkpt>
   <trkpt lat="-3.0810930" lon="37.3655240">
    <ele>5544.4</ele>
    <time>2026-06-23T02:42:10Z</time>
   </trkpt>
   <trkpt lat="-3.0810900" lon="37.3655260">
    <ele>5544.5</ele>
    <time>2026-06-23T02:42:11Z</time>
   </trkpt>
   <trkpt lat="-3.0810890" lon="37.3655250">
    <ele>5544.5</ele>
    <time>2026-06-23T02:42:12Z</time>
   </trkpt>
   <trkpt lat="-3.0810880" lon="37.3655250">
    <ele>5544.6</ele>
    <time>2026-06-23T02:42:13Z</time>
   </trkpt>
   <trkpt lat="-3.0810860" lon="37.3655250">
    <ele>5544.6</ele>
    <time>2026-06-23T02:42:14Z</time>
   </trkpt>
   <trkpt lat="-3.0810830" lon="37.3655240">
    <ele>5544.7</ele>
    <time>2026-06-23T02:42:15Z</time>
   </trkpt>
   <trkpt lat="-3.0810800" lon="37.3655230">
    <ele>5544.8</ele>
    <time>2026-06-23T02:42:16Z</time>
   </trkpt>
   <trkpt lat="-3.0810810" lon="37.3655200">
    <ele>5544.8</ele>
    <time>2026-06-23T02:42:17Z</time>
   </trkpt>
   <trkpt lat="-3.0810780" lon="37.3655180">
    <ele>5544.9</ele>
    <time>2026-06-23T02:42:18Z</time>
   </trkpt>
   <trkpt lat="-3.0810800" lon="37.3655170">
    <ele>5545.0</ele>
    <time>2026-06-23T02:42:19Z</time>
   </trkpt>
   <trkpt lat="-3.0810800" lon="37.3655180">
    <ele>5545.0</ele>
    <time>2026-06-23T02:42:20Z</time>
   </trkpt>
   <trkpt lat="-3.0810800" lon="37.3655170">
    <ele>5545.0</ele>
    <time>2026-06-23T02:42:21Z</time>
   </trkpt>
   <trkpt lat="-3.0810800" lon="37.3655170">
    <ele>5545.0</ele>
    <time>2026-06-23T02:42:22Z</time>
   </trkpt>
   <trkpt lat="-3.0810800" lon="37.3655170">
    <ele>5545.0</ele>
    <time>2026-06-23T02:42:23Z</time>
   </trkpt>
   <trkpt lat="-3.0810800" lon="37.3655170">
    <ele>5545.0</ele>
    <time>2026-06-23T02:42:24Z</time>
   </trkpt>
   <trkpt lat="-3.0810800" lon="37.3655170">
    <ele>5545.0</ele>
    <time>2026-06-23T02:42:25Z</time>
   </trkpt>
   <trkpt lat="-3.0810800" lon="37.3655170">
    <ele>5545.0</ele>
    <time>2026-06-23T02:42:26Z</time>
   </trkpt>
   <trkpt lat="-3.0810780" lon="37.3655160">
    <ele>5545.1</ele>
    <time>2026-06-23T02:42:27Z</time>
   </trkpt>
   <trkpt lat="-3.0810790" lon="37.3655150">
    <ele>5545.1</ele>
    <time>2026-06-23T02:42:28Z</time>
   </trkpt>
   <trkpt lat="-3.0810800" lon="37.3655140">
    <ele>5545.2</ele>
    <time>2026-06-23T02:42:29Z</time>
   </trkpt>
   <trkpt lat="-3.0810770" lon="37.3655130">
    <ele>5545.3</ele>
    <time>2026-06-23T02:42:30Z</time>
   </trkpt>
   <trkpt lat="-3.0810800" lon="37.3655130">
    <ele>5545.3</ele>
    <time>2026-06-23T02:42:31Z</time>
   </trkpt>
   <trkpt lat="-3.0810800" lon="37.3655130">
    <ele>5545.3</ele>
    <time>2026-06-23T02:42:32Z</time>
   </trkpt>
   <trkpt lat="-3.0810800" lon="37.3655120">
    <ele>5545.4</ele>
    <time>2026-06-23T02:42:33Z</time>
   </trkpt>
   <trkpt lat="-3.0810790" lon="37.3655120">
    <ele>5545.4</ele>
    <time>2026-06-23T02:42:34Z</time>
   </trkpt>
   <trkpt lat="-3.0810800" lon="37.3655090">
    <ele>5545.5</ele>
    <time>2026-06-23T02:42:35Z</time>
   </trkpt>
   <trkpt lat="-3.0810790" lon="37.3655080">
    <ele>5545.5</ele>
    <time>2026-06-23T02:42:36Z</time>
   </trkpt>
   <trkpt lat="-3.0810810" lon="37.3655070">
    <ele>5545.6</ele>
    <time>2026-06-23T02:42:37Z</time>
   </trkpt>
   <trkpt lat="-3.0810820" lon="37.3655050">
    <ele>5545.6</ele>
    <time>2026-06-23T02:42:38Z</time>
   </trkpt>
   <trkpt lat="-3.0810830" lon="37.3655050">
    <ele>5545.6</ele>
    <time>2026-06-23T02:42:39Z</time>
   </trkpt>
   <trkpt lat="-3.0810840" lon="37.3655040">
    <ele>5545.7</ele>
    <time>2026-06-23T02:42:40Z</time>
   </trkpt>
   <trkpt lat="-3.0810850" lon="37.3655020">
    <ele>5545.7</ele>
    <time>2026-06-23T02:42:41Z</time>
   </trkpt>
   <trkpt lat="-3.0810850" lon="37.3655030">
    <ele>5545.8</ele>
    <time>2026-06-23T02:42:42Z</time>
   </trkpt>
   <trkpt lat="-3.0810860" lon="37.3655000">
    <ele>5545.8</ele>
    <time>2026-06-23T02:42:43Z</time>
   </trkpt>
   <trkpt lat="-3.0810890" lon="37.3654980">
    <ele>5545.9</ele>
    <time>2026-06-23T02:42:44Z</time>
   </trkpt>
   <trkpt lat="-3.0810900" lon="37.3654970">
    <ele>5546.0</ele>
    <time>2026-06-23T02:42:45Z</time>
   </trkpt>
   <trkpt lat="-3.0810900" lon="37.3654970">
    <ele>5546.0</ele>
    <time>2026-06-23T02:42:46Z</time>
   </trkpt>
   <trkpt lat="-3.0810900" lon="37.3654960">
    <ele>5546.0</ele>
    <time>2026-06-23T02:42:47Z</time>
   </trkpt>
   <trkpt lat="-3.0810910" lon="37.3654960">
    <ele>5546.0</ele>
    <time>2026-06-23T02:42:48Z</time>
   </trkpt>
   <trkpt lat="-3.0810910" lon="37.3654930">
    <ele>5546.1</ele>
    <time>2026-06-23T02:42:49Z</time>
   </trkpt>
   <trkpt lat="-3.0810910" lon="37.3654920">
    <ele>5546.1</ele>
    <time>2026-06-23T02:42:50Z</time>
   </trkpt>
   <trkpt lat="-3.0810910" lon="37.3654920">
    <ele>5546.1</ele>
    <time>2026-06-23T02:42:51Z</time>
   </trkpt>
   <trkpt lat="-3.0810910" lon="37.3654920">
    <ele>5546.1</ele>
    <time>2026-06-23T02:42:52Z</time>
   </trkpt>
   <trkpt lat="-3.0810900" lon="37.3654920">
    <ele>5546.1</ele>
    <time>2026-06-23T02:42:53Z</time>
   </trkpt>
   <trkpt lat="-3.0810890" lon="37.3654910">
    <ele>5546.2</ele>
    <time>2026-06-23T02:42:54Z</time>
   </trkpt>
   <trkpt lat="-3.0810880" lon="37.3654910">
    <ele>5546.2</ele>
    <time>2026-06-23T02:42:55Z</time>
   </trkpt>
   <trkpt lat="-3.0810870" lon="37.3654900">
    <ele>5546.2</ele>
    <time>2026-06-23T02:42:56Z</time>
   </trkpt>
   <trkpt lat="-3.0810850" lon="37.3654880">
    <ele>5546.3</ele>
    <time>2026-06-23T02:42:57Z</time>
   </trkpt>
   <trkpt lat="-3.0810800" lon="37.3654850">
    <ele>5546.5</ele>
    <time>2026-06-23T02:42:58Z</time>
   </trkpt>
   <trkpt lat="-3.0810820" lon="37.3654870">
    <ele>5546.5</ele>
    <time>2026-06-23T02:42:59Z</time>
   </trkpt>
   <trkpt lat="-3.0810800" lon="37.3654870">
    <ele>5546.6</ele>
    <time>2026-06-23T02:43:00Z</time>
   </trkpt>
   <trkpt lat="-3.0810800" lon="37.3654870">
    <ele>5546.6</ele>
    <time>2026-06-23T02:43:01Z</time>
   </trkpt>
   <trkpt lat="-3.0810800" lon="37.3654870">
    <ele>5546.6</ele>
    <time>2026-06-23T02:43:02Z</time>
   </trkpt>
   <trkpt lat="-3.0810800" lon="37.3654870">
    <ele>5546.6</ele>
    <time>2026-06-23T02:43:03Z</time>
   </trkpt>
   <trkpt lat="-3.0810800" lon="37.3654870">
    <ele>5546.6</ele>
    <time>2026-06-23T02:43:04Z</time>
   </trkpt>
   <trkpt lat="-3.0810790" lon="37.3654900">
    <ele>5546.7</ele>
    <time>2026-06-23T02:43:05Z</time>
   </trkpt>
   <trkpt lat="-3.0810800" lon="37.3654900">
    <ele>5546.7</ele>
    <time>2026-06-23T02:43:06Z</time>
   </trkpt>
   <trkpt lat="-3.0810800" lon="37.3654910">
    <ele>5546.7</ele>
    <time>2026-06-23T02:43:07Z</time>
   </trkpt>
   <trkpt lat="-3.0810800" lon="37.3654910">
    <ele>5546.7</ele>
    <time>2026-06-23T02:43:08Z</time>
   </trkpt>
   <trkpt lat="-3.0810790" lon="37.3654900">
    <ele>5546.8</ele>
    <time>2026-06-23T02:43:09Z</time>
   </trkpt>
   <trkpt lat="-3.0810770" lon="37.3654890">
    <ele>5546.8</ele>
    <time>2026-06-23T02:43:10Z</time>
   </trkpt>
   <trkpt lat="-3.0810770" lon="37.3654890">
    <ele>5546.8</ele>
    <time>2026-06-23T02:43:11Z</time>
   </trkpt>
   <trkpt lat="-3.0810760" lon="37.3654880">
    <ele>5546.9</ele>
    <time>2026-06-23T02:43:12Z</time>
   </trkpt>
   <trkpt lat="-3.0810740" lon="37.3654860">
    <ele>5546.9</ele>
    <time>2026-06-23T02:43:13Z</time>
   </trkpt>
   <trkpt lat="-3.0810740" lon="37.3654840">
    <ele>5547.0</ele>
    <time>2026-06-23T02:43:14Z</time>
   </trkpt>
   <trkpt lat="-3.0810720" lon="37.3654810">
    <ele>5547.1</ele>
    <time>2026-06-23T02:43:15Z</time>
   </trkpt>
   <trkpt lat="-3.0810720" lon="37.3654780">
    <ele>5547.1</ele>
    <time>2026-06-23T02:43:16Z</time>
   </trkpt>
   <trkpt lat="-3.0810730" lon="37.3654750">
    <ele>5547.2</ele>
    <time>2026-06-23T02:43:17Z</time>
   </trkpt>
   <trkpt lat="-3.0810700" lon="37.3654730">
    <ele>5547.3</ele>
    <time>2026-06-23T02:43:18Z</time>
   </trkpt>
   <trkpt lat="-3.0810670" lon="37.3654720">
    <ele>5547.4</ele>
    <time>2026-06-23T02:43:19Z</time>
   </trkpt>
   <trkpt lat="-3.0810650" lon="37.3654730">
    <ele>5547.5</ele>
    <time>2026-06-23T02:43:20Z</time>
   </trkpt>
   <trkpt lat="-3.0810610" lon="37.3654730">
    <ele>5547.6</ele>
    <time>2026-06-23T02:43:21Z</time>
   </trkpt>
   <trkpt lat="-3.0810570" lon="37.3654730">
    <ele>5547.7</ele>
    <time>2026-06-23T02:43:22Z</time>
   </trkpt>
   <trkpt lat="-3.0810550" lon="37.3654730">
    <ele>5547.7</ele>
    <time>2026-06-23T02:43:23Z</time>
   </trkpt>
   <trkpt lat="-3.0810520" lon="37.3654720">
    <ele>5547.8</ele>
    <time>2026-06-23T02:43:24Z</time>
   </trkpt>
   <trkpt lat="-3.0810500" lon="37.3654720">
    <ele>5547.9</ele>
    <time>2026-06-23T02:43:25Z</time>
   </trkpt>
   <trkpt lat="-3.0810460" lon="37.3654710">
    <ele>5548.0</ele>
    <time>2026-06-23T02:43:26Z</time>
   </trkpt>
   <trkpt lat="-3.0810440" lon="37.3654720">
    <ele>5548.0</ele>
    <time>2026-06-23T02:43:27Z</time>
   </trkpt>
   <trkpt lat="-3.0810400" lon="37.3654730">
    <ele>5548.1</ele>
    <time>2026-06-23T02:43:28Z</time>
   </trkpt>
   <trkpt lat="-3.0810350" lon="37.3654750">
    <ele>5548.3</ele>
    <time>2026-06-23T02:43:29Z</time>
   </trkpt>
   <trkpt lat="-3.0810320" lon="37.3654770">
    <ele>5548.4</ele>
    <time>2026-06-23T02:43:30Z</time>
   </trkpt>
   <trkpt lat="-3.0810290" lon="37.3654790">
    <ele>5548.4</ele>
    <time>2026-06-23T02:43:31Z</time>
   </trkpt>
   <trkpt lat="-3.0810250" lon="37.3654810">
    <ele>5548.6</ele>
    <time>2026-06-23T02:43:32Z</time>
   </trkpt>
   <trkpt lat="-3.0810220" lon="37.3654840">
    <ele>5548.7</ele>
    <time>2026-06-23T02:43:33Z</time>
   </trkpt>
   <trkpt lat="-3.0810200" lon="37.3654860">
    <ele>5548.7</ele>
    <time>2026-06-23T02:43:34Z</time>
   </trkpt>
   <trkpt lat="-3.0810200" lon="37.3654850">
    <ele>5548.8</ele>
    <time>2026-06-23T02:43:35Z</time>
   </trkpt>
   <trkpt lat="-3.0810160" lon="37.3654880">
    <ele>5548.9</ele>
    <time>2026-06-23T02:43:36Z</time>
   </trkpt>
   <trkpt lat="-3.0810150" lon="37.3654870">
    <ele>5548.9</ele>
    <time>2026-06-23T02:43:37Z</time>
   </trkpt>
   <trkpt lat="-3.0810110" lon="37.3654890">
    <ele>5549.1</ele>
    <time>2026-06-23T02:43:38Z</time>
   </trkpt>
   <trkpt lat="-3.0810110" lon="37.3654910">
    <ele>5549.1</ele>
    <time>2026-06-23T02:43:39Z</time>
   </trkpt>
   <trkpt lat="-3.0810090" lon="37.3654910">
    <ele>5549.2</ele>
    <time>2026-06-23T02:43:40Z</time>
   </trkpt>
   <trkpt lat="-3.0810070" lon="37.3654910">
    <ele>5549.2</ele>
    <time>2026-06-23T02:43:41Z</time>
   </trkpt>
   <trkpt lat="-3.0810040" lon="37.3654920">
    <ele>5549.3</ele>
    <time>2026-06-23T02:43:42Z</time>
   </trkpt>
   <trkpt lat="-3.0810020" lon="37.3654930">
    <ele>5549.3</ele>
    <time>2026-06-23T02:43:43Z</time>
   </trkpt>
   <trkpt lat="-3.0810020" lon="37.3654930">
    <ele>5549.3</ele>
    <time>2026-06-23T02:43:44Z</time>
   </trkpt>
   <trkpt lat="-3.0810000" lon="37.3654950">
    <ele>5549.4</ele>
    <time>2026-06-23T02:43:45Z</time>
   </trkpt>
   <trkpt lat="-3.0809980" lon="37.3654950">
    <ele>5549.5</ele>
    <time>2026-06-23T02:43:46Z</time>
   </trkpt>
   <trkpt lat="-3.0809940" lon="37.3654970">
    <ele>5549.6</ele>
    <time>2026-06-23T02:43:47Z</time>
   </trkpt>
   <trkpt lat="-3.0809940" lon="37.3654970">
    <ele>5549.6</ele>
    <time>2026-06-23T02:43:48Z</time>
   </trkpt>
   <trkpt lat="-3.0809930" lon="37.3654980">
    <ele>5549.6</ele>
    <time>2026-06-23T02:43:49Z</time>
   </trkpt>
   <trkpt lat="-3.0809920" lon="37.3654970">
    <ele>5549.7</ele>
    <time>2026-06-23T02:43:50Z</time>
   </trkpt>
   <trkpt lat="-3.0809890" lon="37.3654980">
    <ele>5549.7</ele>
    <time>2026-06-23T02:43:51Z</time>
   </trkpt>
   <trkpt lat="-3.0809870" lon="37.3654990">
    <ele>5549.8</ele>
    <time>2026-06-23T02:43:52Z</time>
   </trkpt>
   <trkpt lat="-3.0809840" lon="37.3654990">
    <ele>5549.9</ele>
    <time>2026-06-23T02:43:53Z</time>
   </trkpt>
   <trkpt lat="-3.0809820" lon="37.3655000">
    <ele>5549.9</ele>
    <time>2026-06-23T02:43:54Z</time>
   </trkpt>
   <trkpt lat="-3.0809800" lon="37.3655000">
    <ele>5550.0</ele>
    <time>2026-06-23T02:43:55Z</time>
   </trkpt>
   <trkpt lat="-3.0809790" lon="37.3655000">
    <ele>5550.0</ele>
    <time>2026-06-23T02:43:56Z</time>
   </trkpt>
   <trkpt lat="-3.0809750" lon="37.3655010">
    <ele>5550.1</ele>
    <time>2026-06-23T02:43:57Z</time>
   </trkpt>
   <trkpt lat="-3.0809730" lon="37.3654980">
    <ele>5550.2</ele>
    <time>2026-06-23T02:43:58Z</time>
   </trkpt>
   <trkpt lat="-3.0809710" lon="37.3654980">
    <ele>5550.3</ele>
    <time>2026-06-23T02:43:59Z</time>
   </trkpt>
   <trkpt lat="-3.0809710" lon="37.3654970">
    <ele>5550.3</ele>
    <time>2026-06-23T02:44:00Z</time>
   </trkpt>
   <trkpt lat="-3.0809690" lon="37.3654960">
    <ele>5550.3</ele>
    <time>2026-06-23T02:44:01Z</time>
   </trkpt>
   <trkpt lat="-3.0809690" lon="37.3654950">
    <ele>5550.4</ele>
    <time>2026-06-23T02:44:02Z</time>
   </trkpt>
   <trkpt lat="-3.0809710" lon="37.3654940">
    <ele>5550.4</ele>
    <time>2026-06-23T02:44:03Z</time>
   </trkpt>
   <trkpt lat="-3.0809690" lon="37.3654950">
    <ele>5550.5</ele>
    <time>2026-06-23T02:44:04Z</time>
   </trkpt>
   <trkpt lat="-3.0809670" lon="37.3654940">
    <ele>5550.5</ele>
    <time>2026-06-23T02:44:05Z</time>
   </trkpt>
   <trkpt lat="-3.0809670" lon="37.3654930">
    <ele>5550.6</ele>
    <time>2026-06-23T02:44:06Z</time>
   </trkpt>
   <trkpt lat="-3.0809670" lon="37.3654930">
    <ele>5550.6</ele>
    <time>2026-06-23T02:44:07Z</time>
   </trkpt>
   <trkpt lat="-3.0809670" lon="37.3654930">
    <ele>5550.6</ele>
    <time>2026-06-23T02:44:08Z</time>
   </trkpt>
   <trkpt lat="-3.0809660" lon="37.3654930">
    <ele>5550.6</ele>
    <time>2026-06-23T02:44:09Z</time>
   </trkpt>
   <trkpt lat="-3.0809650" lon="37.3654930">
    <ele>5550.6</ele>
    <time>2026-06-23T02:44:10Z</time>
   </trkpt>
   <trkpt lat="-3.0809630" lon="37.3654920">
    <ele>5550.7</ele>
    <time>2026-06-23T02:44:11Z</time>
   </trkpt>
   <trkpt lat="-3.0809620" lon="37.3654920">
    <ele>5550.7</ele>
    <time>2026-06-23T02:44:12Z</time>
   </trkpt>
   <trkpt lat="-3.0809590" lon="37.3654910">
    <ele>5550.8</ele>
    <time>2026-06-23T02:44:13Z</time>
   </trkpt>
   <trkpt lat="-3.0809580" lon="37.3654900">
    <ele>5550.8</ele>
    <time>2026-06-23T02:44:14Z</time>
   </trkpt>
   <trkpt lat="-3.0809580" lon="37.3654900">
    <ele>5550.8</ele>
    <time>2026-06-23T02:44:15Z</time>
   </trkpt>
   <trkpt lat="-3.0809560" lon="37.3654910">
    <ele>5550.9</ele>
    <time>2026-06-23T02:44:16Z</time>
   </trkpt>
   <trkpt lat="-3.0809570" lon="37.3654900">
    <ele>5550.9</ele>
    <time>2026-06-23T02:44:17Z</time>
   </trkpt>
   <trkpt lat="-3.0809540" lon="37.3654910">
    <ele>5551.0</ele>
    <time>2026-06-23T02:44:18Z</time>
   </trkpt>
   <trkpt lat="-3.0809510" lon="37.3654900">
    <ele>5551.1</ele>
    <time>2026-06-23T02:44:19Z</time>
   </trkpt>
   <trkpt lat="-3.0809490" lon="37.3654920">
    <ele>5551.2</ele>
    <time>2026-06-23T02:44:20Z</time>
   </trkpt>
   <trkpt lat="-3.0809480" lon="37.3654910">
    <ele>5551.2</ele>
    <time>2026-06-23T02:44:21Z</time>
   </trkpt>
   <trkpt lat="-3.0809450" lon="37.3654920">
    <ele>5551.3</ele>
    <time>2026-06-23T02:44:22Z</time>
   </trkpt>
   <trkpt lat="-3.0809440" lon="37.3654910">
    <ele>5551.3</ele>
    <time>2026-06-23T02:44:23Z</time>
   </trkpt>
   <trkpt lat="-3.0809410" lon="37.3654920">
    <ele>5551.4</ele>
    <time>2026-06-23T02:44:24Z</time>
   </trkpt>
   <trkpt lat="-3.0809380" lon="37.3654920">
    <ele>5551.5</ele>
    <time>2026-06-23T02:44:25Z</time>
   </trkpt>
   <trkpt lat="-3.0809360" lon="37.3654920">
    <ele>5551.5</ele>
    <time>2026-06-23T02:44:26Z</time>
   </trkpt>
   <trkpt lat="-3.0809330" lon="37.3654920">
    <ele>5551.6</ele>
    <time>2026-06-23T02:44:27Z</time>
   </trkpt>
   <trkpt lat="-3.0809320" lon="37.3654920">
    <ele>5551.6</ele>
    <time>2026-06-23T02:44:28Z</time>
   </trkpt>
   <trkpt lat="-3.0809280" lon="37.3654940">
    <ele>5551.7</ele>
    <time>2026-06-23T02:44:29Z</time>
   </trkpt>
   <trkpt lat="-3.0809270" lon="37.3654960">
    <ele>5551.8</ele>
    <time>2026-06-23T02:44:30Z</time>
   </trkpt>
   <trkpt lat="-3.0809220" lon="37.3654980">
    <ele>5551.9</ele>
    <time>2026-06-23T02:44:31Z</time>
   </trkpt>
   <trkpt lat="-3.0809220" lon="37.3654960">
    <ele>5552.0</ele>
    <time>2026-06-23T02:44:32Z</time>
   </trkpt>
   <trkpt lat="-3.0809210" lon="37.3654960">
    <ele>5552.0</ele>
    <time>2026-06-23T02:44:33Z</time>
   </trkpt>
   <trkpt lat="-3.0809190" lon="37.3654970">
    <ele>5552.1</ele>
    <time>2026-06-23T02:44:34Z</time>
   </trkpt>
   <trkpt lat="-3.0809160" lon="37.3654960">
    <ele>5552.1</ele>
    <time>2026-06-23T02:44:35Z</time>
   </trkpt>
   <trkpt lat="-3.0809130" lon="37.3654960">
    <ele>5552.2</ele>
    <time>2026-06-23T02:44:36Z</time>
   </trkpt>
   <trkpt lat="-3.0809110" lon="37.3654940">
    <ele>5552.3</ele>
    <time>2026-06-23T02:44:37Z</time>
   </trkpt>
   <trkpt lat="-3.0809080" lon="37.3654940">
    <ele>5552.4</ele>
    <time>2026-06-23T02:44:38Z</time>
   </trkpt>
   <trkpt lat="-3.0809060" lon="37.3654930">
    <ele>5552.4</ele>
    <time>2026-06-23T02:44:39Z</time>
   </trkpt>
   <trkpt lat="-3.0809030" lon="37.3654910">
    <ele>5552.5</ele>
    <time>2026-06-23T02:44:40Z</time>
   </trkpt>
   <trkpt lat="-3.0809040" lon="37.3654900">
    <ele>5552.6</ele>
    <time>2026-06-23T02:44:41Z</time>
   </trkpt>
   <trkpt lat="-3.0809020" lon="37.3654900">
    <ele>5552.6</ele>
    <time>2026-06-23T02:44:42Z</time>
   </trkpt>
   <trkpt lat="-3.0809010" lon="37.3654890">
    <ele>5552.7</ele>
    <time>2026-06-23T02:44:43Z</time>
   </trkpt>
   <trkpt lat="-3.0808990" lon="37.3654870">
    <ele>5552.7</ele>
    <time>2026-06-23T02:44:44Z</time>
   </trkpt>
   <trkpt lat="-3.0808970" lon="37.3654840">
    <ele>5552.8</ele>
    <time>2026-06-23T02:44:45Z</time>
   </trkpt>
   <trkpt lat="-3.0808970" lon="37.3654830">
    <ele>5552.8</ele>
    <time>2026-06-23T02:44:46Z</time>
   </trkpt>
   <trkpt lat="-3.0808970" lon="37.3654800">
    <ele>5552.9</ele>
    <time>2026-06-23T02:44:47Z</time>
   </trkpt>
   <trkpt lat="-3.0808960" lon="37.3654770">
    <ele>5553.0</ele>
    <time>2026-06-23T02:44:48Z</time>
   </trkpt>
   <trkpt lat="-3.0808960" lon="37.3654740">
    <ele>5553.1</ele>
    <time>2026-06-23T02:44:49Z</time>
   </trkpt>
   <trkpt lat="-3.0808950" lon="37.3654720">
    <ele>5553.1</ele>
    <time>2026-06-23T02:44:50Z</time>
   </trkpt>
   <trkpt lat="-3.0808960" lon="37.3654700">
    <ele>5553.2</ele>
    <time>2026-06-23T02:44:51Z</time>
   </trkpt>
   <trkpt lat="-3.0808950" lon="37.3654690">
    <ele>5553.2</ele>
    <time>2026-06-23T02:44:52Z</time>
   </trkpt>
   <trkpt lat="-3.0808970" lon="37.3654660">
    <ele>5553.3</ele>
    <time>2026-06-23T02:44:53Z</time>
   </trkpt>
   <trkpt lat="-3.0808950" lon="37.3654660">
    <ele>5553.4</ele>
    <time>2026-06-23T02:44:54Z</time>
   </trkpt>
   <trkpt lat="-3.0808950" lon="37.3654650">
    <ele>5553.4</ele>
    <time>2026-06-23T02:44:55Z</time>
   </trkpt>
   <trkpt lat="-3.0808960" lon="37.3654630">
    <ele>5553.5</ele>
    <time>2026-06-23T02:44:56Z</time>
   </trkpt>
   <trkpt lat="-3.0808950" lon="37.3654600">
    <ele>5553.5</ele>
    <time>2026-06-23T02:44:57Z</time>
   </trkpt>
   <trkpt lat="-3.0808970" lon="37.3654580">
    <ele>5553.6</ele>
    <time>2026-06-23T02:44:58Z</time>
   </trkpt>
   <trkpt lat="-3.0808960" lon="37.3654560">
    <ele>5553.7</ele>
    <time>2026-06-23T02:44:59Z</time>
   </trkpt>
   <trkpt lat="-3.0808970" lon="37.3654540">
    <ele>5553.7</ele>
    <time>2026-06-23T02:45:00Z</time>
   </trkpt>
   <trkpt lat="-3.0808960" lon="37.3654520">
    <ele>5553.8</ele>
    <time>2026-06-23T02:45:01Z</time>
   </trkpt>
   <trkpt lat="-3.0808950" lon="37.3654510">
    <ele>5553.8</ele>
    <time>2026-06-23T02:45:02Z</time>
   </trkpt>
   <trkpt lat="-3.0808960" lon="37.3654500">
    <ele>5553.9</ele>
    <time>2026-06-23T02:45:03Z</time>
   </trkpt>
   <trkpt lat="-3.0808980" lon="37.3654470">
    <ele>5554.0</ele>
    <time>2026-06-23T02:45:04Z</time>
   </trkpt>
   <trkpt lat="-3.0808960" lon="37.3654460">
    <ele>5554.0</ele>
    <time>2026-06-23T02:45:05Z</time>
   </trkpt>
   <trkpt lat="-3.0808970" lon="37.3654430">
    <ele>5554.1</ele>
    <time>2026-06-23T02:45:06Z</time>
   </trkpt>
   <trkpt lat="-3.0808960" lon="37.3654420">
    <ele>5554.1</ele>
    <time>2026-06-23T02:45:07Z</time>
   </trkpt>
   <trkpt lat="-3.0808970" lon="37.3654390">
    <ele>5554.2</ele>
    <time>2026-06-23T02:45:08Z</time>
   </trkpt>
   <trkpt lat="-3.0808970" lon="37.3654370">
    <ele>5554.3</ele>
    <time>2026-06-23T02:45:09Z</time>
   </trkpt>
   <trkpt lat="-3.0808980" lon="37.3654350">
    <ele>5554.3</ele>
    <time>2026-06-23T02:45:10Z</time>
   </trkpt>
   <trkpt lat="-3.0808980" lon="37.3654330">
    <ele>5554.4</ele>
    <time>2026-06-23T02:45:11Z</time>
   </trkpt>
   <trkpt lat="-3.0808980" lon="37.3654300">
    <ele>5554.4</ele>
    <time>2026-06-23T02:45:12Z</time>
   </trkpt>
   <trkpt lat="-3.0808980" lon="37.3654270">
    <ele>5554.5</ele>
    <time>2026-06-23T02:45:13Z</time>
   </trkpt>
   <trkpt lat="-3.0808950" lon="37.3654260">
    <ele>5554.6</ele>
    <time>2026-06-23T02:45:14Z</time>
   </trkpt>
   <trkpt lat="-3.0808960" lon="37.3654230">
    <ele>5554.7</ele>
    <time>2026-06-23T02:45:15Z</time>
   </trkpt>
   <trkpt lat="-3.0808950" lon="37.3654240">
    <ele>5554.7</ele>
    <time>2026-06-23T02:45:16Z</time>
   </trkpt>
   <trkpt lat="-3.0808960" lon="37.3654230">
    <ele>5554.8</ele>
    <time>2026-06-23T02:45:17Z</time>
   </trkpt>
   <trkpt lat="-3.0808960" lon="37.3654230">
    <ele>5554.8</ele>
    <time>2026-06-23T02:45:18Z</time>
   </trkpt>
   <trkpt lat="-3.0808940" lon="37.3654230">
    <ele>5554.8</ele>
    <time>2026-06-23T02:45:19Z</time>
   </trkpt>
   <trkpt lat="-3.0808940" lon="37.3654220">
    <ele>5554.8</ele>
    <time>2026-06-23T02:45:20Z</time>
   </trkpt>
   <trkpt lat="-3.0808930" lon="37.3654210">
    <ele>5554.9</ele>
    <time>2026-06-23T02:45:21Z</time>
   </trkpt>
   <trkpt lat="-3.0808930" lon="37.3654200">
    <ele>5554.9</ele>
    <time>2026-06-23T02:45:22Z</time>
   </trkpt>
   <trkpt lat="-3.0808910" lon="37.3654200">
    <ele>5554.9</ele>
    <time>2026-06-23T02:45:23Z</time>
   </trkpt>
   <trkpt lat="-3.0808880" lon="37.3654200">
    <ele>5555.0</ele>
    <time>2026-06-23T02:45:24Z</time>
   </trkpt>
   <trkpt lat="-3.0808870" lon="37.3654180">
    <ele>5555.1</ele>
    <time>2026-06-23T02:45:25Z</time>
   </trkpt>
   <trkpt lat="-3.0808850" lon="37.3654170">
    <ele>5555.1</ele>
    <time>2026-06-23T02:45:26Z</time>
   </trkpt>
   <trkpt lat="-3.0808860" lon="37.3654170">
    <ele>5555.1</ele>
    <time>2026-06-23T02:45:27Z</time>
   </trkpt>
   <trkpt lat="-3.0808820" lon="37.3654180">
    <ele>5555.2</ele>
    <time>2026-06-23T02:45:28Z</time>
   </trkpt>
   <trkpt lat="-3.0808840" lon="37.3654170">
    <ele>5555.3</ele>
    <time>2026-06-23T02:45:29Z</time>
   </trkpt>
   <trkpt lat="-3.0808820" lon="37.3654170">
    <ele>5555.3</ele>
    <time>2026-06-23T02:45:30Z</time>
   </trkpt>
   <trkpt lat="-3.0808790" lon="37.3654180">
    <ele>5555.4</ele>
    <time>2026-06-23T02:45:31Z</time>
   </trkpt>
   <trkpt lat="-3.0808790" lon="37.3654170">
    <ele>5555.5</ele>
    <time>2026-06-23T02:45:32Z</time>
   </trkpt>
   <trkpt lat="-3.0808780" lon="37.3654150">
    <ele>5555.5</ele>
    <time>2026-06-23T02:45:33Z</time>
   </trkpt>
   <trkpt lat="-3.0808750" lon="37.3654160">
    <ele>5555.6</ele>
    <time>2026-06-23T02:45:34Z</time>
   </trkpt>
   <trkpt lat="-3.0808720" lon="37.3654160">
    <ele>5555.7</ele>
    <time>2026-06-23T02:45:35Z</time>
   </trkpt>
   <trkpt lat="-3.0808700" lon="37.3654170">
    <ele>5555.7</ele>
    <time>2026-06-23T02:45:36Z</time>
   </trkpt>
   <trkpt lat="-3.0808680" lon="37.3654150">
    <ele>5555.8</ele>
    <time>2026-06-23T02:45:37Z</time>
   </trkpt>
   <trkpt lat="-3.0808650" lon="37.3654170">
    <ele>5555.9</ele>
    <time>2026-06-23T02:45:38Z</time>
   </trkpt>
   <trkpt lat="-3.0808640" lon="37.3654160">
    <ele>5555.9</ele>
    <time>2026-06-23T02:45:39Z</time>
   </trkpt>
   <trkpt lat="-3.0808600" lon="37.3654160">
    <ele>5556.0</ele>
    <time>2026-06-23T02:45:40Z</time>
   </trkpt>
   <trkpt lat="-3.0808570" lon="37.3654160">
    <ele>5556.1</ele>
    <time>2026-06-23T02:45:41Z</time>
   </trkpt>
   <trkpt lat="-3.0808560" lon="37.3654170">
    <ele>5556.1</ele>
    <time>2026-06-23T02:45:42Z</time>
   </trkpt>
   <trkpt lat="-3.0808530" lon="37.3654150">
    <ele>5556.2</ele>
    <time>2026-06-23T02:45:43Z</time>
   </trkpt>
   <trkpt lat="-3.0808510" lon="37.3654150">
    <ele>5556.3</ele>
    <time>2026-06-23T02:45:44Z</time>
   </trkpt>
   <trkpt lat="-3.0808500" lon="37.3654150">
    <ele>5556.3</ele>
    <time>2026-06-23T02:45:45Z</time>
   </trkpt>
   <trkpt lat="-3.0808480" lon="37.3654140">
    <ele>5556.3</ele>
    <time>2026-06-23T02:45:46Z</time>
   </trkpt>
   <trkpt lat="-3.0808470" lon="37.3654140">
    <ele>5556.4</ele>
    <time>2026-06-23T02:45:47Z</time>
   </trkpt>
   <trkpt lat="-3.0808440" lon="37.3654130">
    <ele>5556.4</ele>
    <time>2026-06-23T02:45:48Z</time>
   </trkpt>
   <trkpt lat="-3.0808420" lon="37.3654130">
    <ele>5556.5</ele>
    <time>2026-06-23T02:45:49Z</time>
   </trkpt>
   <trkpt lat="-3.0808420" lon="37.3654120">
    <ele>5556.5</ele>
    <time>2026-06-23T02:45:50Z</time>
   </trkpt>
   <trkpt lat="-3.0808390" lon="37.3654120">
    <ele>5556.6</ele>
    <time>2026-06-23T02:45:51Z</time>
   </trkpt>
   <trkpt lat="-3.0808370" lon="37.3654100">
    <ele>5556.6</ele>
    <time>2026-06-23T02:45:52Z</time>
   </trkpt>
   <trkpt lat="-3.0808400" lon="37.3654130">
    <ele>5556.7</ele>
    <time>2026-06-23T02:45:53Z</time>
   </trkpt>
   <trkpt lat="-3.0808410" lon="37.3654150">
    <ele>5556.8</ele>
    <time>2026-06-23T02:45:54Z</time>
   </trkpt>
   <trkpt lat="-3.0808350" lon="37.3654100">
    <ele>5557.0</ele>
    <time>2026-06-23T02:45:55Z</time>
   </trkpt>
   <trkpt lat="-3.0808330" lon="37.3654110">
    <ele>5557.0</ele>
    <time>2026-06-23T02:45:56Z</time>
   </trkpt>
   <trkpt lat="-3.0808300" lon="37.3654100">
    <ele>5557.1</ele>
    <time>2026-06-23T02:45:57Z</time>
   </trkpt>
   <trkpt lat="-3.0808300" lon="37.3654090">
    <ele>5557.1</ele>
    <time>2026-06-23T02:45:58Z</time>
   </trkpt>
   <trkpt lat="-3.0808280" lon="37.3654070">
    <ele>5557.2</ele>
    <time>2026-06-23T02:45:59Z</time>
   </trkpt>
   <trkpt lat="-3.0808280" lon="37.3654060">
    <ele>5557.2</ele>
    <time>2026-06-23T02:46:00Z</time>
   </trkpt>
   <trkpt lat="-3.0808260" lon="37.3654040">
    <ele>5557.3</ele>
    <time>2026-06-23T02:46:01Z</time>
   </trkpt>
   <trkpt lat="-3.0808240" lon="37.3654030">
    <ele>5557.3</ele>
    <time>2026-06-23T02:46:02Z</time>
   </trkpt>
   <trkpt lat="-3.0808240" lon="37.3654010">
    <ele>5557.4</ele>
    <time>2026-06-23T02:46:03Z</time>
   </trkpt>
   <trkpt lat="-3.0808230" lon="37.3654000">
    <ele>5557.4</ele>
    <time>2026-06-23T02:46:04Z</time>
   </trkpt>
   <trkpt lat="-3.0808250" lon="37.3653990">
    <ele>5557.4</ele>
    <time>2026-06-23T02:46:05Z</time>
   </trkpt>
   <trkpt lat="-3.0808250" lon="37.3653970">
    <ele>5557.5</ele>
    <time>2026-06-23T02:46:06Z</time>
   </trkpt>
   <trkpt lat="-3.0808270" lon="37.3653960">
    <ele>5557.5</ele>
    <time>2026-06-23T02:46:07Z</time>
   </trkpt>
   <trkpt lat="-3.0808280" lon="37.3653940">
    <ele>5557.6</ele>
    <time>2026-06-23T02:46:08Z</time>
   </trkpt>
   <trkpt lat="-3.0808280" lon="37.3653920">
    <ele>5557.6</ele>
    <time>2026-06-23T02:46:09Z</time>
   </trkpt>
   <trkpt lat="-3.0808290" lon="37.3653920">
    <ele>5557.7</ele>
    <time>2026-06-23T02:46:10Z</time>
   </trkpt>
   <trkpt lat="-3.0808280" lon="37.3653910">
    <ele>5557.7</ele>
    <time>2026-06-23T02:46:11Z</time>
   </trkpt>
   <trkpt lat="-3.0808300" lon="37.3653900">
    <ele>5557.8</ele>
    <time>2026-06-23T02:46:12Z</time>
   </trkpt>
   <trkpt lat="-3.0808290" lon="37.3653880">
    <ele>5557.8</ele>
    <time>2026-06-23T02:46:13Z</time>
   </trkpt>
   <trkpt lat="-3.0808300" lon="37.3653850">
    <ele>5557.9</ele>
    <time>2026-06-23T02:46:14Z</time>
   </trkpt>
   <trkpt lat="-3.0808310" lon="37.3653840">
    <ele>5557.9</ele>
    <time>2026-06-23T02:46:15Z</time>
   </trkpt>
   <trkpt lat="-3.0808300" lon="37.3653810">
    <ele>5558.0</ele>
    <time>2026-06-23T02:46:16Z</time>
   </trkpt>
   <trkpt lat="-3.0808330" lon="37.3653800">
    <ele>5558.1</ele>
    <time>2026-06-23T02:46:17Z</time>
   </trkpt>
   <trkpt lat="-3.0808330" lon="37.3653770">
    <ele>5558.1</ele>
    <time>2026-06-23T02:46:18Z</time>
   </trkpt>
   <trkpt lat="-3.0808370" lon="37.3653730">
    <ele>5558.2</ele>
    <time>2026-06-23T02:46:19Z</time>
   </trkpt>
   <trkpt lat="-3.0808380" lon="37.3653740">
    <ele>5558.3</ele>
    <time>2026-06-23T02:46:20Z</time>
   </trkpt>
   <trkpt lat="-3.0808390" lon="37.3653710">
    <ele>5558.4</ele>
    <time>2026-06-23T02:46:21Z</time>
   </trkpt>
   <trkpt lat="-3.0808410" lon="37.3653690">
    <ele>5558.4</ele>
    <time>2026-06-23T02:46:22Z</time>
   </trkpt>
   <trkpt lat="-3.0808410" lon="37.3653660">
    <ele>5558.5</ele>
    <time>2026-06-23T02:46:23Z</time>
   </trkpt>
   <trkpt lat="-3.0808430" lon="37.3653640">
    <ele>5558.6</ele>
    <time>2026-06-23T02:46:24Z</time>
   </trkpt>
   <trkpt lat="-3.0808450" lon="37.3653620">
    <ele>5558.6</ele>
    <time>2026-06-23T02:46:25Z</time>
   </trkpt>
   <trkpt lat="-3.0808450" lon="37.3653610">
    <ele>5558.6</ele>
    <time>2026-06-23T02:46:26Z</time>
   </trkpt>
   <trkpt lat="-3.0808470" lon="37.3653590">
    <ele>5558.7</ele>
    <time>2026-06-23T02:46:27Z</time>
   </trkpt>
   <trkpt lat="-3.0808470" lon="37.3653580">
    <ele>5558.7</ele>
    <time>2026-06-23T02:46:28Z</time>
   </trkpt>
   <trkpt lat="-3.0808480" lon="37.3653570">
    <ele>5558.8</ele>
    <time>2026-06-23T02:46:29Z</time>
   </trkpt>
   <trkpt lat="-3.0808490" lon="37.3653540">
    <ele>5558.8</ele>
    <time>2026-06-23T02:46:30Z</time>
   </trkpt>
   <trkpt lat="-3.0808500" lon="37.3653530">
    <ele>5558.9</ele>
    <time>2026-06-23T02:46:31Z</time>
   </trkpt>
   <trkpt lat="-3.0808500" lon="37.3653500">
    <ele>5558.9</ele>
    <time>2026-06-23T02:46:32Z</time>
   </trkpt>
   <trkpt lat="-3.0808510" lon="37.3653480">
    <ele>5559.0</ele>
    <time>2026-06-23T02:46:33Z</time>
   </trkpt>
   <trkpt lat="-3.0808540" lon="37.3653470">
    <ele>5559.1</ele>
    <time>2026-06-23T02:46:34Z</time>
   </trkpt>
   <trkpt lat="-3.0808560" lon="37.3653440">
    <ele>5559.1</ele>
    <time>2026-06-23T02:46:35Z</time>
   </trkpt>
   <trkpt lat="-3.0808580" lon="37.3653430">
    <ele>5559.2</ele>
    <time>2026-06-23T02:46:36Z</time>
   </trkpt>
   <trkpt lat="-3.0808600" lon="37.3653410">
    <ele>5559.3</ele>
    <time>2026-06-23T02:46:37Z</time>
   </trkpt>
   <trkpt lat="-3.0808590" lon="37.3653400">
    <ele>5559.3</ele>
    <time>2026-06-23T02:46:38Z</time>
   </trkpt>
   <trkpt lat="-3.0808600" lon="37.3653370">
    <ele>5559.4</ele>
    <time>2026-06-23T02:46:39Z</time>
   </trkpt>
   <trkpt lat="-3.0808610" lon="37.3653340">
    <ele>5559.4</ele>
    <time>2026-06-23T02:46:40Z</time>
   </trkpt>
   <trkpt lat="-3.0808620" lon="37.3653320">
    <ele>5559.5</ele>
    <time>2026-06-23T02:46:41Z</time>
   </trkpt>
   <trkpt lat="-3.0808610" lon="37.3653300">
    <ele>5559.5</ele>
    <time>2026-06-23T02:46:42Z</time>
   </trkpt>
   <trkpt lat="-3.0808590" lon="37.3653280">
    <ele>5559.6</ele>
    <time>2026-06-23T02:46:43Z</time>
   </trkpt>
   <trkpt lat="-3.0808580" lon="37.3653280">
    <ele>5559.6</ele>
    <time>2026-06-23T02:46:44Z</time>
   </trkpt>
   <trkpt lat="-3.0808570" lon="37.3653280">
    <ele>5559.6</ele>
    <time>2026-06-23T02:46:45Z</time>
   </trkpt>
   <trkpt lat="-3.0808550" lon="37.3653270">
    <ele>5559.7</ele>
    <time>2026-06-23T02:46:46Z</time>
   </trkpt>
   <trkpt lat="-3.0808520" lon="37.3653280">
    <ele>5559.8</ele>
    <time>2026-06-23T02:46:47Z</time>
   </trkpt>
   <trkpt lat="-3.0808520" lon="37.3653280">
    <ele>5559.8</ele>
    <time>2026-06-23T02:46:48Z</time>
   </trkpt>
   <trkpt lat="-3.0808520" lon="37.3653280">
    <ele>5559.8</ele>
    <time>2026-06-23T02:46:49Z</time>
   </trkpt>
   <trkpt lat="-3.0808500" lon="37.3653280">
    <ele>5559.8</ele>
    <time>2026-06-23T02:46:50Z</time>
   </trkpt>
   <trkpt lat="-3.0808490" lon="37.3653290">
    <ele>5559.8</ele>
    <time>2026-06-23T02:46:51Z</time>
   </trkpt>
   <trkpt lat="-3.0808470" lon="37.3653330">
    <ele>5560.0</ele>
    <time>2026-06-23T02:46:52Z</time>
   </trkpt>
   <trkpt lat="-3.0808480" lon="37.3653310">
    <ele>5560.0</ele>
    <time>2026-06-23T02:46:53Z</time>
   </trkpt>
   <trkpt lat="-3.0808410" lon="37.3653340">
    <ele>5560.2</ele>
    <time>2026-06-23T02:46:54Z</time>
   </trkpt>
   <trkpt lat="-3.0808390" lon="37.3653340">
    <ele>5560.2</ele>
    <time>2026-06-23T02:46:55Z</time>
   </trkpt>
   <trkpt lat="-3.0808370" lon="37.3653330">
    <ele>5560.3</ele>
    <time>2026-06-23T02:46:56Z</time>
   </trkpt>
   <trkpt lat="-3.0808320" lon="37.3653310">
    <ele>5560.4</ele>
    <time>2026-06-23T02:46:57Z</time>
   </trkpt>
   <trkpt lat="-3.0808310" lon="37.3653310">
    <ele>5560.4</ele>
    <time>2026-06-23T02:46:58Z</time>
   </trkpt>
   <trkpt lat="-3.0808290" lon="37.3653300">
    <ele>5560.5</ele>
    <time>2026-06-23T02:46:59Z</time>
   </trkpt>
   <trkpt lat="-3.0808270" lon="37.3653290">
    <ele>5560.5</ele>
    <time>2026-06-23T02:47:00Z</time>
   </trkpt>
   <trkpt lat="-3.0808240" lon="37.3653290">
    <ele>5560.6</ele>
    <time>2026-06-23T02:47:01Z</time>
   </trkpt>
   <trkpt lat="-3.0808220" lon="37.3653260">
    <ele>5560.7</ele>
    <time>2026-06-23T02:47:02Z</time>
   </trkpt>
   <trkpt lat="-3.0808220" lon="37.3653240">
    <ele>5560.7</ele>
    <time>2026-06-23T02:47:03Z</time>
   </trkpt>
   <trkpt lat="-3.0808220" lon="37.3653230">
    <ele>5560.7</ele>
    <time>2026-06-23T02:47:04Z</time>
   </trkpt>
   <trkpt lat="-3.0808210" lon="37.3653220">
    <ele>5560.8</ele>
    <time>2026-06-23T02:47:05Z</time>
   </trkpt>
   <trkpt lat="-3.0808220" lon="37.3653220">
    <ele>5560.8</ele>
    <time>2026-06-23T02:47:06Z</time>
   </trkpt>
   <trkpt lat="-3.0808220" lon="37.3653210">
    <ele>5560.8</ele>
    <time>2026-06-23T02:47:07Z</time>
   </trkpt>
   <trkpt lat="-3.0808230" lon="37.3653220">
    <ele>5560.8</ele>
    <time>2026-06-23T02:47:08Z</time>
   </trkpt>
   <trkpt lat="-3.0808240" lon="37.3653210">
    <ele>5560.9</ele>
    <time>2026-06-23T02:47:09Z</time>
   </trkpt>
   <trkpt lat="-3.0808250" lon="37.3653210">
    <ele>5560.9</ele>
    <time>2026-06-23T02:47:10Z</time>
   </trkpt>
   <trkpt lat="-3.0808240" lon="37.3653210">
    <ele>5560.9</ele>
    <time>2026-06-23T02:47:11Z</time>
   </trkpt>
   <trkpt lat="-3.0808240" lon="37.3653200">
    <ele>5560.9</ele>
    <time>2026-06-23T02:47:12Z</time>
   </trkpt>
   <trkpt lat="-3.0808250" lon="37.3653200">
    <ele>5561.0</ele>
    <time>2026-06-23T02:47:13Z</time>
   </trkpt>
   <trkpt lat="-3.0808250" lon="37.3653190">
    <ele>5561.0</ele>
    <time>2026-06-23T02:47:14Z</time>
   </trkpt>
   <trkpt lat="-3.0808250" lon="37.3653180">
    <ele>5561.0</ele>
    <time>2026-06-23T02:47:15Z</time>
   </trkpt>
   <trkpt lat="-3.0808250" lon="37.3653180">
    <ele>5561.0</ele>
    <time>2026-06-23T02:47:16Z</time>
   </trkpt>
   <trkpt lat="-3.0808250" lon="37.3653180">
    <ele>5561.0</ele>
    <time>2026-06-23T02:47:17Z</time>
   </trkpt>
   <trkpt lat="-3.0808240" lon="37.3653170">
    <ele>5561.0</ele>
    <time>2026-06-23T02:47:18Z</time>
   </trkpt>
   <trkpt lat="-3.0808250" lon="37.3653170">
    <ele>5561.1</ele>
    <time>2026-06-23T02:47:19Z</time>
   </trkpt>
   <trkpt lat="-3.0808250" lon="37.3653170">
    <ele>5561.1</ele>
    <time>2026-06-23T02:47:20Z</time>
   </trkpt>
   <trkpt lat="-3.0808250" lon="37.3653170">
    <ele>5561.1</ele>
    <time>2026-06-23T02:47:21Z</time>
   </trkpt>
   <trkpt lat="-3.0808250" lon="37.3653170">
    <ele>5561.1</ele>
    <time>2026-06-23T02:47:22Z</time>
   </trkpt>
   <trkpt lat="-3.0808250" lon="37.3653170">
    <ele>5561.1</ele>
    <time>2026-06-23T02:47:23Z</time>
   </trkpt>
   <trkpt lat="-3.0808260" lon="37.3653170">
    <ele>5561.1</ele>
    <time>2026-06-23T02:47:24Z</time>
   </trkpt>
   <trkpt lat="-3.0808260" lon="37.3653170">
    <ele>5561.1</ele>
    <time>2026-06-23T02:47:25Z</time>
   </trkpt>
   <trkpt lat="-3.0808260" lon="37.3653170">
    <ele>5561.1</ele>
    <time>2026-06-23T02:47:26Z</time>
   </trkpt>
   <trkpt lat="-3.0808260" lon="37.3653170">
    <ele>5561.1</ele>
    <time>2026-06-23T02:47:27Z</time>
   </trkpt>
   <trkpt lat="-3.0808270" lon="37.3653170">
    <ele>5561.1</ele>
    <time>2026-06-23T02:47:28Z</time>
   </trkpt>
   <trkpt lat="-3.0808270" lon="37.3653170">
    <ele>5561.1</ele>
    <time>2026-06-23T02:47:29Z</time>
   </trkpt>
   <trkpt lat="-3.0808260" lon="37.3653180">
    <ele>5561.1</ele>
    <time>2026-06-23T02:47:30Z</time>
   </trkpt>
   <trkpt lat="-3.0808270" lon="37.3653180">
    <ele>5561.2</ele>
    <time>2026-06-23T02:47:31Z</time>
   </trkpt>
   <trkpt lat="-3.0808270" lon="37.3653180">
    <ele>5561.2</ele>
    <time>2026-06-23T02:47:32Z</time>
   </trkpt>
   <trkpt lat="-3.0808270" lon="37.3653180">
    <ele>5561.2</ele>
    <time>2026-06-23T02:47:33Z</time>
   </trkpt>
   <trkpt lat="-3.0808270" lon="37.3653180">
    <ele>5561.2</ele>
    <time>2026-06-23T02:47:34Z</time>
   </trkpt>
   <trkpt lat="-3.0808270" lon="37.3653180">
    <ele>5561.2</ele>
    <time>2026-06-23T02:47:35Z</time>
   </trkpt>
   <trkpt lat="-3.0808250" lon="37.3653190">
    <ele>5561.2</ele>
    <time>2026-06-23T02:47:36Z</time>
   </trkpt>
   <trkpt lat="-3.0808250" lon="37.3653190">
    <ele>5561.2</ele>
    <time>2026-06-23T02:47:37Z</time>
   </trkpt>
   <trkpt lat="-3.0808250" lon="37.3653190">
    <ele>5561.2</ele>
    <time>2026-06-23T02:47:38Z</time>
   </trkpt>
   <trkpt lat="-3.0808250" lon="37.3653190">
    <ele>5561.2</ele>
    <time>2026-06-23T02:47:39Z</time>
   </trkpt>
   <trkpt lat="-3.0808250" lon="37.3653190">
    <ele>5561.2</ele>
    <time>2026-06-23T02:47:40Z</time>
   </trkpt>
   <trkpt lat="-3.0808260" lon="37.3653180">
    <ele>5561.2</ele>
    <time>2026-06-23T02:47:41Z</time>
   </trkpt>
   <trkpt lat="-3.0808260" lon="37.3653190">
    <ele>5561.3</ele>
    <time>2026-06-23T02:47:42Z</time>
   </trkpt>
   <trkpt lat="-3.0808260" lon="37.3653180">
    <ele>5561.3</ele>
    <time>2026-06-23T02:47:43Z</time>
   </trkpt>
   <trkpt lat="-3.0808250" lon="37.3653180">
    <ele>5561.3</ele>
    <time>2026-06-23T02:47:44Z</time>
   </trkpt>
   <trkpt lat="-3.0808250" lon="37.3653180">
    <ele>5561.3</ele>
    <time>2026-06-23T02:47:45Z</time>
   </trkpt>
   <trkpt lat="-3.0808240" lon="37.3653180">
    <ele>5561.3</ele>
    <time>2026-06-23T02:47:46Z</time>
   </trkpt>
   <trkpt lat="-3.0808240" lon="37.3653190">
    <ele>5561.3</ele>
    <time>2026-06-23T02:47:47Z</time>
   </trkpt>
   <trkpt lat="-3.0808240" lon="37.3653190">
    <ele>5561.3</ele>
    <time>2026-06-23T02:47:48Z</time>
   </trkpt>
   <trkpt lat="-3.0808240" lon="37.3653190">
    <ele>5561.3</ele>
    <time>2026-06-23T02:47:49Z</time>
   </trkpt>
   <trkpt lat="-3.0808240" lon="37.3653190">
    <ele>5561.3</ele>
    <time>2026-06-23T02:47:50Z</time>
   </trkpt>
   <trkpt lat="-3.0808240" lon="37.3653180">
    <ele>5561.4</ele>
    <time>2026-06-23T02:47:51Z</time>
   </trkpt>
   <trkpt lat="-3.0808240" lon="37.3653180">
    <ele>5561.4</ele>
    <time>2026-06-23T02:47:52Z</time>
   </trkpt>
   <trkpt lat="-3.0808250" lon="37.3653180">
    <ele>5561.4</ele>
    <time>2026-06-23T02:47:53Z</time>
   </trkpt>
   <trkpt lat="-3.0808250" lon="37.3653190">
    <ele>5561.4</ele>
    <time>2026-06-23T02:47:54Z</time>
   </trkpt>
   <trkpt lat="-3.0808240" lon="37.3653190">
    <ele>5561.4</ele>
    <time>2026-06-23T02:47:55Z</time>
   </trkpt>
   <trkpt lat="-3.0808250" lon="37.3653190">
    <ele>5561.5</ele>
    <time>2026-06-23T02:47:56Z</time>
   </trkpt>
   <trkpt lat="-3.0808250" lon="37.3653190">
    <ele>5561.5</ele>
    <time>2026-06-23T02:47:57Z</time>
   </trkpt>
   <trkpt lat="-3.0808260" lon="37.3653200">
    <ele>5561.5</ele>
    <time>2026-06-23T02:47:58Z</time>
   </trkpt>
   <trkpt lat="-3.0808260" lon="37.3653200">
    <ele>5561.5</ele>
    <time>2026-06-23T02:47:59Z</time>
   </trkpt>
   <trkpt lat="-3.0808240" lon="37.3653190">
    <ele>5561.5</ele>
    <time>2026-06-23T02:48:00Z</time>
   </trkpt>
   <trkpt lat="-3.0808260" lon="37.3653190">
    <ele>5561.6</ele>
    <time>2026-06-23T02:48:01Z</time>
   </trkpt>
   <trkpt lat="-3.0808260" lon="37.3653170">
    <ele>5561.6</ele>
    <time>2026-06-23T02:48:02Z</time>
   </trkpt>
   <trkpt lat="-3.0808260" lon="37.3653180">
    <ele>5561.6</ele>
    <time>2026-06-23T02:48:03Z</time>
   </trkpt>
   <trkpt lat="-3.0808260" lon="37.3653180">
    <ele>5561.6</ele>
    <time>2026-06-23T02:48:04Z</time>
   </trkpt>
   <trkpt lat="-3.0808260" lon="37.3653170">
    <ele>5561.7</ele>
    <time>2026-06-23T02:48:05Z</time>
   </trkpt>
   <trkpt lat="-3.0808250" lon="37.3653190">
    <ele>5561.7</ele>
    <time>2026-06-23T02:48:06Z</time>
   </trkpt>
   <trkpt lat="-3.0808250" lon="37.3653190">
    <ele>5561.7</ele>
    <time>2026-06-23T02:48:07Z</time>
   </trkpt>
   <trkpt lat="-3.0808260" lon="37.3653170">
    <ele>5561.8</ele>
    <time>2026-06-23T02:48:08Z</time>
   </trkpt>
   <trkpt lat="-3.0808250" lon="37.3653180">
    <ele>5561.8</ele>
    <time>2026-06-23T02:48:09Z</time>
   </trkpt>
   <trkpt lat="-3.0808250" lon="37.3653170">
    <ele>5561.8</ele>
    <time>2026-06-23T02:48:10Z</time>
   </trkpt>
   <trkpt lat="-3.0808250" lon="37.3653180">
    <ele>5561.8</ele>
    <time>2026-06-23T02:48:11Z</time>
   </trkpt>
   <trkpt lat="-3.0808250" lon="37.3653170">
    <ele>5561.9</ele>
    <time>2026-06-23T02:48:12Z</time>
   </trkpt>
   <trkpt lat="-3.0808250" lon="37.3653180">
    <ele>5561.9</ele>
    <time>2026-06-23T02:48:13Z</time>
   </trkpt>
   <trkpt lat="-3.0808240" lon="37.3653170">
    <ele>5561.9</ele>
    <time>2026-06-23T02:48:14Z</time>
   </trkpt>
   <trkpt lat="-3.0808240" lon="37.3653170">
    <ele>5561.9</ele>
    <time>2026-06-23T02:48:15Z</time>
   </trkpt>
   <trkpt lat="-3.0808220" lon="37.3653170">
    <ele>5562.0</ele>
    <time>2026-06-23T02:48:16Z</time>
   </trkpt>
   <trkpt lat="-3.0808230" lon="37.3653170">
    <ele>5562.0</ele>
    <time>2026-06-23T02:48:17Z</time>
   </trkpt>
   <trkpt lat="-3.0808230" lon="37.3653170">
    <ele>5562.0</ele>
    <time>2026-06-23T02:48:18Z</time>
   </trkpt>
   <trkpt lat="-3.0808230" lon="37.3653160">
    <ele>5562.0</ele>
    <time>2026-06-23T02:48:19Z</time>
   </trkpt>
   <trkpt lat="-3.0808230" lon="37.3653160">
    <ele>5562.0</ele>
    <time>2026-06-23T02:48:20Z</time>
   </trkpt>
   <trkpt lat="-3.0808230" lon="37.3653160">
    <ele>5562.0</ele>
    <time>2026-06-23T02:48:21Z</time>
   </trkpt>
   <trkpt lat="-3.0808220" lon="37.3653150">
    <ele>5562.0</ele>
    <time>2026-06-23T02:48:22Z</time>
   </trkpt>
   <trkpt lat="-3.0808220" lon="37.3653150">
    <ele>5562.0</ele>
    <time>2026-06-23T02:48:23Z</time>
   </trkpt>
   <trkpt lat="-3.0808220" lon="37.3653150">
    <ele>5562.0</ele>
    <time>2026-06-23T02:48:24Z</time>
   </trkpt>
   <trkpt lat="-3.0808220" lon="37.3653140">
    <ele>5562.1</ele>
    <time>2026-06-23T02:48:25Z</time>
   </trkpt>
   <trkpt lat="-3.0808230" lon="37.3653140">
    <ele>5562.1</ele>
    <time>2026-06-23T02:48:26Z</time>
   </trkpt>
   <trkpt lat="-3.0808220" lon="37.3653150">
    <ele>5562.1</ele>
    <time>2026-06-23T02:48:27Z</time>
   </trkpt>
   <trkpt lat="-3.0808220" lon="37.3653140">
    <ele>5562.1</ele>
    <time>2026-06-23T02:48:28Z</time>
   </trkpt>
   <trkpt lat="-3.0808210" lon="37.3653140">
    <ele>5562.2</ele>
    <time>2026-06-23T02:48:29Z</time>
   </trkpt>
   <trkpt lat="-3.0808210" lon="37.3653140">
    <ele>5562.2</ele>
    <time>2026-06-23T02:48:30Z</time>
   </trkpt>
   <trkpt lat="-3.0808200" lon="37.3653140">
    <ele>5562.2</ele>
    <time>2026-06-23T02:48:31Z</time>
   </trkpt>
   <trkpt lat="-3.0808210" lon="37.3653140">
    <ele>5562.2</ele>
    <time>2026-06-23T02:48:32Z</time>
   </trkpt>
   <trkpt lat="-3.0808200" lon="37.3653140">
    <ele>5562.2</ele>
    <time>2026-06-23T02:48:33Z</time>
   </trkpt>
   <trkpt lat="-3.0808210" lon="37.3653140">
    <ele>5562.3</ele>
    <time>2026-06-23T02:48:34Z</time>
   </trkpt>
   <trkpt lat="-3.0808200" lon="37.3653150">
    <ele>5562.3</ele>
    <time>2026-06-23T02:48:35Z</time>
   </trkpt>
   <trkpt lat="-3.0808200" lon="37.3653150">
    <ele>5562.3</ele>
    <time>2026-06-23T02:48:36Z</time>
   </trkpt>
   <trkpt lat="-3.0808200" lon="37.3653150">
    <ele>5562.3</ele>
    <time>2026-06-23T02:48:37Z</time>
   </trkpt>
   <trkpt lat="-3.0808200" lon="37.3653150">
    <ele>5562.3</ele>
    <time>2026-06-23T02:48:38Z</time>
   </trkpt>
   <trkpt lat="-3.0808200" lon="37.3653150">
    <ele>5562.3</ele>
    <time>2026-06-23T02:48:39Z</time>
   </trkpt>
   <trkpt lat="-3.0808200" lon="37.3653150">
    <ele>5562.3</ele>
    <time>2026-06-23T02:48:40Z</time>
   </trkpt>
   <trkpt lat="-3.0808200" lon="37.3653150">
    <ele>5562.3</ele>
    <time>2026-06-23T02:48:41Z</time>
   </trkpt>
   <trkpt lat="-3.0808200" lon="37.3653160">
    <ele>5562.3</ele>
    <time>2026-06-23T02:48:42Z</time>
   </trkpt>
   <trkpt lat="-3.0808210" lon="37.3653150">
    <ele>5562.3</ele>
    <time>2026-06-23T02:48:43Z</time>
   </trkpt>
   <trkpt lat="-3.0808200" lon="37.3653160">
    <ele>5562.4</ele>
    <time>2026-06-23T02:48:44Z</time>
   </trkpt>
   <trkpt lat="-3.0808200" lon="37.3653170">
    <ele>5562.4</ele>
    <time>2026-06-23T02:48:45Z</time>
   </trkpt>
   <trkpt lat="-3.0808200" lon="37.3653170">
    <ele>5562.4</ele>
    <time>2026-06-23T02:48:46Z</time>
   </trkpt>
   <trkpt lat="-3.0808200" lon="37.3653170">
    <ele>5562.4</ele>
    <time>2026-06-23T02:48:47Z</time>
   </trkpt>
   <trkpt lat="-3.0808220" lon="37.3653180">
    <ele>5562.4</ele>
    <time>2026-06-23T02:48:48Z</time>
   </trkpt>
   <trkpt lat="-3.0808220" lon="37.3653170">
    <ele>5562.5</ele>
    <time>2026-06-23T02:48:49Z</time>
   </trkpt>
   <trkpt lat="-3.0808220" lon="37.3653170">
    <ele>5562.5</ele>
    <time>2026-06-23T02:48:50Z</time>
   </trkpt>
   <trkpt lat="-3.0808220" lon="37.3653170">
    <ele>5562.5</ele>
    <time>2026-06-23T02:48:51Z</time>
   </trkpt>
   <trkpt lat="-3.0808210" lon="37.3653170">
    <ele>5562.5</ele>
    <time>2026-06-23T02:48:52Z</time>
   </trkpt>
   <trkpt lat="-3.0808220" lon="37.3653170">
    <ele>5562.5</ele>
    <time>2026-06-23T02:48:53Z</time>
   </trkpt>
   <trkpt lat="-3.0808210" lon="37.3653170">
    <ele>5562.5</ele>
    <time>2026-06-23T02:48:54Z</time>
   </trkpt>
   <trkpt lat="-3.0808220" lon="37.3653170">
    <ele>5562.6</ele>
    <time>2026-06-23T02:48:55Z</time>
   </trkpt>
   <trkpt lat="-3.0808220" lon="37.3653170">
    <ele>5562.6</ele>
    <time>2026-06-23T02:48:56Z</time>
   </trkpt>
   <trkpt lat="-3.0808220" lon="37.3653170">
    <ele>5562.6</ele>
    <time>2026-06-23T02:48:57Z</time>
   </trkpt>
   <trkpt lat="-3.0808220" lon="37.3653170">
    <ele>5562.6</ele>
    <time>2026-06-23T02:48:58Z</time>
   </trkpt>
   <trkpt lat="-3.0808220" lon="37.3653170">
    <ele>5562.6</ele>
    <time>2026-06-23T02:48:59Z</time>
   </trkpt>
   <trkpt lat="-3.0808220" lon="37.3653170">
    <ele>5562.6</ele>
    <time>2026-06-23T02:49:00Z</time>
   </trkpt>
   <trkpt lat="-3.0808220" lon="37.3653170">
    <ele>5562.6</ele>
    <time>2026-06-23T02:49:01Z</time>
   </trkpt>
   <trkpt lat="-3.0808220" lon="37.3653170">
    <ele>5562.6</ele>
    <time>2026-06-23T02:49:02Z</time>
   </trkpt>
   <trkpt lat="-3.0808220" lon="37.3653170">
    <ele>5562.6</ele>
    <time>2026-06-23T02:49:03Z</time>
   </trkpt>
   <trkpt lat="-3.0808220" lon="37.3653180">
    <ele>5562.6</ele>
    <time>2026-06-23T02:49:04Z</time>
   </trkpt>
   <trkpt lat="-3.0808220" lon="37.3653180">
    <ele>5562.6</ele>
    <time>2026-06-23T02:49:05Z</time>
   </trkpt>
   <trkpt lat="-3.0808220" lon="37.3653180">
    <ele>5562.6</ele>
    <time>2026-06-23T02:49:06Z</time>
   </trkpt>
   <trkpt lat="-3.0808220" lon="37.3653180">
    <ele>5562.6</ele>
    <time>2026-06-23T02:49:07Z</time>
   </trkpt>
   <trkpt lat="-3.0808230" lon="37.3653170">
    <ele>5562.6</ele>
    <time>2026-06-23T02:49:08Z</time>
   </trkpt>
   <trkpt lat="-3.0808230" lon="37.3653170">
    <ele>5562.6</ele>
    <time>2026-06-23T02:49:09Z</time>
   </trkpt>
   <trkpt lat="-3.0808230" lon="37.3653170">
    <ele>5562.6</ele>
    <time>2026-06-23T02:49:10Z</time>
   </trkpt>
   <trkpt lat="-3.0808220" lon="37.3653180">
    <ele>5562.6</ele>
    <time>2026-06-23T02:49:11Z</time>
   </trkpt>
   <trkpt lat="-3.0808220" lon="37.3653180">
    <ele>5562.6</ele>
    <time>2026-06-23T02:49:12Z</time>
   </trkpt>
   <trkpt lat="-3.0808210" lon="37.3653180">
    <ele>5562.7</ele>
    <time>2026-06-23T02:49:13Z</time>
   </trkpt>
   <trkpt lat="-3.0808220" lon="37.3653180">
    <ele>5562.7</ele>
    <time>2026-06-23T02:49:14Z</time>
   </trkpt>
   <trkpt lat="-3.0808220" lon="37.3653180">
    <ele>5562.7</ele>
    <time>2026-06-23T02:49:15Z</time>
   </trkpt>
   <trkpt lat="-3.0808220" lon="37.3653180">
    <ele>5562.7</ele>
    <time>2026-06-23T02:49:16Z</time>
   </trkpt>
   <trkpt lat="-3.0808220" lon="37.3653180">
    <ele>5562.7</ele>
    <time>2026-06-23T02:49:17Z</time>
   </trkpt>
   <trkpt lat="-3.0808220" lon="37.3653180">
    <ele>5562.7</ele>
    <time>2026-06-23T02:49:18Z</time>
   </trkpt>
   <trkpt lat="-3.0808220" lon="37.3653180">
    <ele>5562.7</ele>
    <time>2026-06-23T02:49:19Z</time>
   </trkpt>
   <trkpt lat="-3.0808220" lon="37.3653180">
    <ele>5562.7</ele>
    <time>2026-06-23T02:49:20Z</time>
   </trkpt>
   <trkpt lat="-3.0808220" lon="37.3653180">
    <ele>5562.7</ele>
    <time>2026-06-23T02:49:21Z</time>
   </trkpt>
   <trkpt lat="-3.0808220" lon="37.3653180">
    <ele>5562.7</ele>
    <time>2026-06-23T02:49:22Z</time>
   </trkpt>
   <trkpt lat="-3.0808220" lon="37.3653180">
    <ele>5562.7</ele>
    <time>2026-06-23T02:49:23Z</time>
   </trkpt>
   <trkpt lat="-3.0808230" lon="37.3653190">
    <ele>5562.7</ele>
    <time>2026-06-23T02:49:24Z</time>
   </trkpt>
   <trkpt lat="-3.0808220" lon="37.3653180">
    <ele>5562.7</ele>
    <time>2026-06-23T02:49:25Z</time>
   </trkpt>
   <trkpt lat="-3.0808220" lon="37.3653180">
    <ele>5562.7</ele>
    <time>2026-06-23T02:49:26Z</time>
   </trkpt>
   <trkpt lat="-3.0808220" lon="37.3653190">
    <ele>5562.8</ele>
    <time>2026-06-23T02:49:27Z</time>
   </trkpt>
   <trkpt lat="-3.0808220" lon="37.3653190">
    <ele>5562.8</ele>
    <time>2026-06-23T02:49:28Z</time>
   </trkpt>
   <trkpt lat="-3.0808220" lon="37.3653190">
    <ele>5562.8</ele>
    <time>2026-06-23T02:49:29Z</time>
   </trkpt>
   <trkpt lat="-3.0808220" lon="37.3653190">
    <ele>5562.8</ele>
    <time>2026-06-23T02:49:30Z</time>
   </trkpt>
   <trkpt lat="-3.0808210" lon="37.3653180">
    <ele>5562.8</ele>
    <time>2026-06-23T02:49:31Z</time>
   </trkpt>
   <trkpt lat="-3.0808210" lon="37.3653180">
    <ele>5562.8</ele>
    <time>2026-06-23T02:49:32Z</time>
   </trkpt>
   <trkpt lat="-3.0808220" lon="37.3653190">
    <ele>5562.8</ele>
    <time>2026-06-23T02:49:33Z</time>
   </trkpt>
   <trkpt lat="-3.0808220" lon="37.3653190">
    <ele>5562.8</ele>
    <time>2026-06-23T02:49:34Z</time>
   </trkpt>
   <trkpt lat="-3.0808220" lon="37.3653190">
    <ele>5562.8</ele>
    <time>2026-06-23T02:49:35Z</time>
   </trkpt>
   <trkpt lat="-3.0808230" lon="37.3653190">
    <ele>5562.9</ele>
    <time>2026-06-23T02:49:36Z</time>
   </trkpt>
   <trkpt lat="-3.0808230" lon="37.3653190">
    <ele>5562.9</ele>
    <time>2026-06-23T02:49:37Z</time>
   </trkpt>
   <trkpt lat="-3.0808230" lon="37.3653190">
    <ele>5562.9</ele>
    <time>2026-06-23T02:49:38Z</time>
   </trkpt>
   <trkpt lat="-3.0808230" lon="37.3653190">
    <ele>5562.9</ele>
    <time>2026-06-23T02:49:39Z</time>
   </trkpt>
   <trkpt lat="-3.0808230" lon="37.3653190">
    <ele>5562.9</ele>
    <time>2026-06-23T02:49:40Z</time>
   </trkpt>
   <trkpt lat="-3.0808230" lon="37.3653180">
    <ele>5562.9</ele>
    <time>2026-06-23T02:49:41Z</time>
   </trkpt>
   <trkpt lat="-3.0808230" lon="37.3653190">
    <ele>5562.9</ele>
    <time>2026-06-23T02:49:42Z</time>
   </trkpt>
   <trkpt lat="-3.0808230" lon="37.3653180">
    <ele>5562.9</ele>
    <time>2026-06-23T02:49:43Z</time>
   </trkpt>
   <trkpt lat="-3.0808230" lon="37.3653180">
    <ele>5562.9</ele>
    <time>2026-06-23T02:49:44Z</time>
   </trkpt>
   <trkpt lat="-3.0808230" lon="37.3653190">
    <ele>5562.9</ele>
    <time>2026-06-23T02:49:45Z</time>
   </trkpt>
   <trkpt lat="-3.0808240" lon="37.3653190">
    <ele>5563.0</ele>
    <time>2026-06-23T02:49:46Z</time>
   </trkpt>
   <trkpt lat="-3.0808230" lon="37.3653170">
    <ele>5563.0</ele>
    <time>2026-06-23T02:49:47Z</time>
   </trkpt>
   <trkpt lat="-3.0808230" lon="37.3653170">
    <ele>5563.0</ele>
    <time>2026-06-23T02:49:48Z</time>
   </trkpt>
   <trkpt lat="-3.0808230" lon="37.3653170">
    <ele>5563.0</ele>
    <time>2026-06-23T02:49:49Z</time>
   </trkpt>
   <trkpt lat="-3.0808220" lon="37.3653170">
    <ele>5563.0</ele>
    <time>2026-06-23T02:49:50Z</time>
   </trkpt>
   <trkpt lat="-3.0808220" lon="37.3653170">
    <ele>5563.0</ele>
    <time>2026-06-23T02:49:51Z</time>
   </trkpt>
   <trkpt lat="-3.0808210" lon="37.3653170">
    <ele>5563.1</ele>
    <time>2026-06-23T02:49:52Z</time>
   </trkpt>
   <trkpt lat="-3.0808220" lon="37.3653170">
    <ele>5563.1</ele>
    <time>2026-06-23T02:49:53Z</time>
   </trkpt>
   <trkpt lat="-3.0808220" lon="37.3653170">
    <ele>5563.1</ele>
    <time>2026-06-23T02:49:54Z</time>
   </trkpt>
   <trkpt lat="-3.0808220" lon="37.3653170">
    <ele>5563.1</ele>
    <time>2026-06-23T02:49:55Z</time>
   </trkpt>
   <trkpt lat="-3.0808220" lon="37.3653170">
    <ele>5563.1</ele>
    <time>2026-06-23T02:49:57Z</time>
   </trkpt>
   <trkpt lat="-3.0808220" lon="37.3653180">
    <ele>5563.1</ele>
    <time>2026-06-23T02:49:58Z</time>
   </trkpt>
   <trkpt lat="-3.0808210" lon="37.3653190">
    <ele>5563.1</ele>
    <time>2026-06-23T02:49:59Z</time>
   </trkpt>
   <trkpt lat="-3.0808210" lon="37.3653170">
    <ele>5563.2</ele>
    <time>2026-06-23T02:50:00Z</time>
   </trkpt>
   <trkpt lat="-3.0808220" lon="37.3653180">
    <ele>5563.2</ele>
    <time>2026-06-23T02:50:01Z</time>
   </trkpt>
   <trkpt lat="-3.0808210" lon="37.3653180">
    <ele>5563.2</ele>
    <time>2026-06-23T02:50:02Z</time>
   </trkpt>
   <trkpt lat="-3.0808220" lon="37.3653180">
    <ele>5563.3</ele>
    <time>2026-06-23T02:50:03Z</time>
   </trkpt>
   <trkpt lat="-3.0808220" lon="37.3653180">
    <ele>5563.3</ele>
    <time>2026-06-23T02:50:04Z</time>
   </trkpt>
   <trkpt lat="-3.0808220" lon="37.3653180">
    <ele>5563.3</ele>
    <time>2026-06-23T02:50:05Z</time>
   </trkpt>
   <trkpt lat="-3.0808220" lon="37.3653180">
    <ele>5563.3</ele>
    <time>2026-06-23T02:50:06Z</time>
   </trkpt>
   <trkpt lat="-3.0808210" lon="37.3653190">
    <ele>5563.3</ele>
    <time>2026-06-23T02:50:07Z</time>
   </trkpt>
   <trkpt lat="-3.0808210" lon="37.3653190">
    <ele>5563.3</ele>
    <time>2026-06-23T02:50:08Z</time>
   </trkpt>
   <trkpt lat="-3.0808210" lon="37.3653190">
    <ele>5563.3</ele>
    <time>2026-06-23T02:50:09Z</time>
   </trkpt>
   <trkpt lat="-3.0808200" lon="37.3653190">
    <ele>5563.3</ele>
    <time>2026-06-23T02:50:10Z</time>
   </trkpt>
   <trkpt lat="-3.0808210" lon="37.3653200">
    <ele>5563.3</ele>
    <time>2026-06-23T02:50:11Z</time>
   </trkpt>
   <trkpt lat="-3.0808210" lon="37.3653200">
    <ele>5563.3</ele>
    <time>2026-06-23T02:50:12Z</time>
   </trkpt>
   <trkpt lat="-3.0808210" lon="37.3653200">
    <ele>5563.3</ele>
    <time>2026-06-23T02:50:13Z</time>
   </trkpt>
   <trkpt lat="-3.0808210" lon="37.3653190">
    <ele>5563.4</ele>
    <time>2026-06-23T02:50:14Z</time>
   </trkpt>
   <trkpt lat="-3.0808220" lon="37.3653190">
    <ele>5563.4</ele>
    <time>2026-06-23T02:50:15Z</time>
   </trkpt>
   <trkpt lat="-3.0808220" lon="37.3653180">
    <ele>5563.4</ele>
    <time>2026-06-23T02:50:16Z</time>
   </trkpt>
   <trkpt lat="-3.0808220" lon="37.3653180">
    <ele>5563.4</ele>
    <time>2026-06-23T02:50:17Z</time>
   </trkpt>
   <trkpt lat="-3.0808220" lon="37.3653180">
    <ele>5563.4</ele>
    <time>2026-06-23T02:50:18Z</time>
   </trkpt>
   <trkpt lat="-3.0808210" lon="37.3653170">
    <ele>5563.4</ele>
    <time>2026-06-23T02:50:19Z</time>
   </trkpt>
   <trkpt lat="-3.0808220" lon="37.3653170">
    <ele>5563.5</ele>
    <time>2026-06-23T02:50:20Z</time>
   </trkpt>
   <trkpt lat="-3.0808220" lon="37.3653160">
    <ele>5563.5</ele>
    <time>2026-06-23T02:50:21Z</time>
   </trkpt>
   <trkpt lat="-3.0808220" lon="37.3653160">
    <ele>5563.5</ele>
    <time>2026-06-23T02:50:22Z</time>
   </trkpt>
   <trkpt lat="-3.0808230" lon="37.3653160">
    <ele>5563.5</ele>
    <time>2026-06-23T02:50:23Z</time>
   </trkpt>
   <trkpt lat="-3.0808240" lon="37.3653170">
    <ele>5563.5</ele>
    <time>2026-06-23T02:50:24Z</time>
   </trkpt>
   <trkpt lat="-3.0808220" lon="37.3653160">
    <ele>5563.6</ele>
    <time>2026-06-23T02:50:25Z</time>
   </trkpt>
   <trkpt lat="-3.0808220" lon="37.3653160">
    <ele>5563.6</ele>
    <time>2026-06-23T02:50:26Z</time>
   </trkpt>
   <trkpt lat="-3.0808220" lon="37.3653160">
    <ele>5563.6</ele>
    <time>2026-06-23T02:50:27Z</time>
   </trkpt>
   <trkpt lat="-3.0808210" lon="37.3653160">
    <ele>5563.6</ele>
    <time>2026-06-23T02:50:28Z</time>
   </trkpt>
   <trkpt lat="-3.0808220" lon="37.3653160">
    <ele>5563.6</ele>
    <time>2026-06-23T02:50:29Z</time>
   </trkpt>
   <trkpt lat="-3.0808220" lon="37.3653160">
    <ele>5563.6</ele>
    <time>2026-06-23T02:50:30Z</time>
   </trkpt>
   <trkpt lat="-3.0808220" lon="37.3653160">
    <ele>5563.6</ele>
    <time>2026-06-23T02:50:31Z</time>
   </trkpt>
   <trkpt lat="-3.0808230" lon="37.3653160">
    <ele>5563.7</ele>
    <time>2026-06-23T02:50:32Z</time>
   </trkpt>
   <trkpt lat="-3.0808230" lon="37.3653150">
    <ele>5563.7</ele>
    <time>2026-06-23T02:50:33Z</time>
   </trkpt>
   <trkpt lat="-3.0808230" lon="37.3653160">
    <ele>5563.7</ele>
    <time>2026-06-23T02:50:34Z</time>
   </trkpt>
   <trkpt lat="-3.0808230" lon="37.3653160">
    <ele>5563.7</ele>
    <time>2026-06-23T02:50:35Z</time>
   </trkpt>
   <trkpt lat="-3.0808240" lon="37.3653160">
    <ele>5563.7</ele>
    <time>2026-06-23T02:50:36Z</time>
   </trkpt>
   <trkpt lat="-3.0808230" lon="37.3653160">
    <ele>5563.7</ele>
    <time>2026-06-23T02:50:37Z</time>
   </trkpt>
   <trkpt lat="-3.0808230" lon="37.3653160">
    <ele>5563.7</ele>
    <time>2026-06-23T02:50:38Z</time>
   </trkpt>
   <trkpt lat="-3.0808230" lon="37.3653160">
    <ele>5563.7</ele>
    <time>2026-06-23T02:50:39Z</time>
   </trkpt>
   <trkpt lat="-3.0808230" lon="37.3653160">
    <ele>5563.7</ele>
    <time>2026-06-23T02:50:40Z</time>
   </trkpt>
   <trkpt lat="-3.0808220" lon="37.3653160">
    <ele>5563.8</ele>
    <time>2026-06-23T02:50:41Z</time>
   </trkpt>
   <trkpt lat="-3.0808220" lon="37.3653170">
    <ele>5563.8</ele>
    <time>2026-06-23T02:50:42Z</time>
   </trkpt>
   <trkpt lat="-3.0808220" lon="37.3653170">
    <ele>5563.8</ele>
    <time>2026-06-23T02:50:43Z</time>
   </trkpt>
   <trkpt lat="-3.0808220" lon="37.3653160">
    <ele>5563.8</ele>
    <time>2026-06-23T02:50:44Z</time>
   </trkpt>
   <trkpt lat="-3.0808210" lon="37.3653150">
    <ele>5563.8</ele>
    <time>2026-06-23T02:50:45Z</time>
   </trkpt>
   <trkpt lat="-3.0808200" lon="37.3653150">
    <ele>5563.9</ele>
    <time>2026-06-23T02:50:46Z</time>
   </trkpt>
   <trkpt lat="-3.0808200" lon="37.3653160">
    <ele>5563.9</ele>
    <time>2026-06-23T02:50:47Z</time>
   </trkpt>
   <trkpt lat="-3.0808200" lon="37.3653150">
    <ele>5563.9</ele>
    <time>2026-06-23T02:50:48Z</time>
   </trkpt>
   <trkpt lat="-3.0808200" lon="37.3653150">
    <ele>5563.9</ele>
    <time>2026-06-23T02:50:49Z</time>
   </trkpt>
   <trkpt lat="-3.0808200" lon="37.3653150">
    <ele>5563.9</ele>
    <time>2026-06-23T02:50:50Z</time>
   </trkpt>
   <trkpt lat="-3.0808210" lon="37.3653140">
    <ele>5563.9</ele>
    <time>2026-06-23T02:50:51Z</time>
   </trkpt>
   <trkpt lat="-3.0808210" lon="37.3653140">
    <ele>5563.9</ele>
    <time>2026-06-23T02:50:52Z</time>
   </trkpt>
   <trkpt lat="-3.0808210" lon="37.3653140">
    <ele>5563.9</ele>
    <time>2026-06-23T02:50:53Z</time>
   </trkpt>
   <trkpt lat="-3.0808210" lon="37.3653140">
    <ele>5563.9</ele>
    <time>2026-06-23T02:50:54Z</time>
   </trkpt>
   <trkpt lat="-3.0808210" lon="37.3653160">
    <ele>5564.0</ele>
    <time>2026-06-23T02:50:55Z</time>
   </trkpt>
   <trkpt lat="-3.0808220" lon="37.3653160">
    <ele>5564.0</ele>
    <time>2026-06-23T02:50:56Z</time>
   </trkpt>
   <trkpt lat="-3.0808230" lon="37.3653170">
    <ele>5564.0</ele>
    <time>2026-06-23T02:50:57Z</time>
   </trkpt>
   <trkpt lat="-3.0808230" lon="37.3653170">
    <ele>5564.0</ele>
    <time>2026-06-23T02:50:58Z</time>
   </trkpt>
   <trkpt lat="-3.0808230" lon="37.3653170">
    <ele>5564.0</ele>
    <time>2026-06-23T02:50:59Z</time>
   </trkpt>
   <trkpt lat="-3.0808230" lon="37.3653170">
    <ele>5564.0</ele>
    <time>2026-06-23T02:51:00Z</time>
   </trkpt>
   <trkpt lat="-3.0808230" lon="37.3653170">
    <ele>5564.0</ele>
    <time>2026-06-23T02:51:01Z</time>
   </trkpt>
   <trkpt lat="-3.0808230" lon="37.3653160">
    <ele>5564.1</ele>
    <time>2026-06-23T02:51:02Z</time>
   </trkpt>
   <trkpt lat="-3.0808230" lon="37.3653160">
    <ele>5564.1</ele>
    <time>2026-06-23T02:51:03Z</time>
   </trkpt>
   <trkpt lat="-3.0808230" lon="37.3653150">
    <ele>5564.1</ele>
    <time>2026-06-23T02:51:04Z</time>
   </trkpt>
   <trkpt lat="-3.0808230" lon="37.3653150">
    <ele>5564.1</ele>
    <time>2026-06-23T02:51:05Z</time>
   </trkpt>
   <trkpt lat="-3.0808220" lon="37.3653150">
    <ele>5564.1</ele>
    <time>2026-06-23T02:51:06Z</time>
   </trkpt>
   <trkpt lat="-3.0808220" lon="37.3653140">
    <ele>5564.1</ele>
    <time>2026-06-23T02:51:07Z</time>
   </trkpt>
   <trkpt lat="-3.0808220" lon="37.3653140">
    <ele>5564.1</ele>
    <time>2026-06-23T02:51:08Z</time>
   </trkpt>
   <trkpt lat="-3.0808230" lon="37.3653140">
    <ele>5564.1</ele>
    <time>2026-06-23T02:51:09Z</time>
   </trkpt>
   <trkpt lat="-3.0808230" lon="37.3653150">
    <ele>5564.2</ele>
    <time>2026-06-23T02:51:10Z</time>
   </trkpt>
   <trkpt lat="-3.0808230" lon="37.3653150">
    <ele>5564.2</ele>
    <time>2026-06-23T02:51:11Z</time>
   </trkpt>
   <trkpt lat="-3.0808220" lon="37.3653140">
    <ele>5564.2</ele>
    <time>2026-06-23T02:51:12Z</time>
   </trkpt>
   <trkpt lat="-3.0808220" lon="37.3653140">
    <ele>5564.2</ele>
    <time>2026-06-23T02:51:13Z</time>
   </trkpt>
   <trkpt lat="-3.0808220" lon="37.3653140">
    <ele>5564.2</ele>
    <time>2026-06-23T02:51:14Z</time>
   </trkpt>
   <trkpt lat="-3.0808220" lon="37.3653140">
    <ele>5564.2</ele>
    <time>2026-06-23T02:51:15Z</time>
   </trkpt>
   <trkpt lat="-3.0808220" lon="37.3653140">
    <ele>5564.2</ele>
    <time>2026-06-23T02:51:16Z</time>
   </trkpt>
   <trkpt lat="-3.0808220" lon="37.3653160">
    <ele>5564.2</ele>
    <time>2026-06-23T02:51:17Z</time>
   </trkpt>
   <trkpt lat="-3.0808220" lon="37.3653160">
    <ele>5564.2</ele>
    <time>2026-06-23T02:51:18Z</time>
   </trkpt>
   <trkpt lat="-3.0808210" lon="37.3653170">
    <ele>5564.3</ele>
    <time>2026-06-23T02:51:19Z</time>
   </trkpt>
   <trkpt lat="-3.0808220" lon="37.3653170">
    <ele>5564.3</ele>
    <time>2026-06-23T02:51:20Z</time>
   </trkpt>
   <trkpt lat="-3.0808220" lon="37.3653170">
    <ele>5564.3</ele>
    <time>2026-06-23T02:51:21Z</time>
   </trkpt>
   <trkpt lat="-3.0808220" lon="37.3653170">
    <ele>5564.3</ele>
    <time>2026-06-23T02:51:22Z</time>
   </trkpt>
   <trkpt lat="-3.0808220" lon="37.3653180">
    <ele>5564.3</ele>
    <time>2026-06-23T02:51:23Z</time>
   </trkpt>
   <trkpt lat="-3.0808220" lon="37.3653180">
    <ele>5564.3</ele>
    <time>2026-06-23T02:51:24Z</time>
   </trkpt>
   <trkpt lat="-3.0808220" lon="37.3653180">
    <ele>5564.3</ele>
    <time>2026-06-23T02:51:25Z</time>
   </trkpt>
   <trkpt lat="-3.0808220" lon="37.3653180">
    <ele>5564.3</ele>
    <time>2026-06-23T02:51:26Z</time>
   </trkpt>
   <trkpt lat="-3.0808200" lon="37.3653190">
    <ele>5564.4</ele>
    <time>2026-06-23T02:51:27Z</time>
   </trkpt>
   <trkpt lat="-3.0808200" lon="37.3653180">
    <ele>5564.4</ele>
    <time>2026-06-23T02:51:28Z</time>
   </trkpt>
   <trkpt lat="-3.0808200" lon="37.3653180">
    <ele>5564.4</ele>
    <time>2026-06-23T02:51:29Z</time>
   </trkpt>
   <trkpt lat="-3.0808200" lon="37.3653190">
    <ele>5564.4</ele>
    <time>2026-06-23T02:51:30Z</time>
   </trkpt>
   <trkpt lat="-3.0808210" lon="37.3653190">
    <ele>5564.4</ele>
    <time>2026-06-23T02:51:31Z</time>
   </trkpt>
   <trkpt lat="-3.0808200" lon="37.3653180">
    <ele>5564.5</ele>
    <time>2026-06-23T02:51:32Z</time>
   </trkpt>
   <trkpt lat="-3.0808190" lon="37.3653190">
    <ele>5564.5</ele>
    <time>2026-06-23T02:51:33Z</time>
   </trkpt>
   <trkpt lat="-3.0808200" lon="37.3653200">
    <ele>5564.5</ele>
    <time>2026-06-23T02:51:34Z</time>
   </trkpt>
   <trkpt lat="-3.0808200" lon="37.3653200">
    <ele>5564.5</ele>
    <time>2026-06-23T02:51:35Z</time>
   </trkpt>
   <trkpt lat="-3.0808200" lon="37.3653200">
    <ele>5564.5</ele>
    <time>2026-06-23T02:51:36Z</time>
   </trkpt>
   <trkpt lat="-3.0808200" lon="37.3653200">
    <ele>5564.5</ele>
    <time>2026-06-23T02:51:37Z</time>
   </trkpt>
   <trkpt lat="-3.0808210" lon="37.3653210">
    <ele>5564.6</ele>
    <time>2026-06-23T02:51:38Z</time>
   </trkpt>
   <trkpt lat="-3.0808210" lon="37.3653210">
    <ele>5564.6</ele>
    <time>2026-06-23T02:51:39Z</time>
   </trkpt>
   <trkpt lat="-3.0808210" lon="37.3653210">
    <ele>5564.6</ele>
    <time>2026-06-23T02:51:40Z</time>
   </trkpt>
   <trkpt lat="-3.0808210" lon="37.3653200">
    <ele>5564.6</ele>
    <time>2026-06-23T02:51:41Z</time>
   </trkpt>
   <trkpt lat="-3.0808210" lon="37.3653200">
    <ele>5564.6</ele>
    <time>2026-06-23T02:51:42Z</time>
   </trkpt>
   <trkpt lat="-3.0808190" lon="37.3653200">
    <ele>5564.6</ele>
    <time>2026-06-23T02:51:43Z</time>
   </trkpt>
   <trkpt lat="-3.0808170" lon="37.3653190">
    <ele>5564.7</ele>
    <time>2026-06-23T02:51:44Z</time>
   </trkpt>
   <trkpt lat="-3.0808130" lon="37.3653200">
    <ele>5564.8</ele>
    <time>2026-06-23T02:51:45Z</time>
   </trkpt>
   <trkpt lat="-3.0808070" lon="37.3653210">
    <ele>5564.9</ele>
    <time>2026-06-23T02:51:46Z</time>
   </trkpt>
   <trkpt lat="-3.0808070" lon="37.3653210">
    <ele>5564.9</ele>
    <time>2026-06-23T02:51:47Z</time>
   </trkpt>
   <trkpt lat="-3.0808050" lon="37.3653200">
    <ele>5565.0</ele>
    <time>2026-06-23T02:51:48Z</time>
   </trkpt>
   <trkpt lat="-3.0808000" lon="37.3653200">
    <ele>5565.1</ele>
    <time>2026-06-23T02:51:49Z</time>
   </trkpt>
   <trkpt lat="-3.0807980" lon="37.3653200">
    <ele>5565.1</ele>
    <time>2026-06-23T02:51:50Z</time>
   </trkpt>
   <trkpt lat="-3.0807940" lon="37.3653170">
    <ele>5565.2</ele>
    <time>2026-06-23T02:51:51Z</time>
   </trkpt>
   <trkpt lat="-3.0807920" lon="37.3653170">
    <ele>5565.3</ele>
    <time>2026-06-23T02:51:52Z</time>
   </trkpt>
   <trkpt lat="-3.0807900" lon="37.3653180">
    <ele>5565.3</ele>
    <time>2026-06-23T02:51:53Z</time>
   </trkpt>
   <trkpt lat="-3.0807880" lon="37.3653180">
    <ele>5565.4</ele>
    <time>2026-06-23T02:51:54Z</time>
   </trkpt>
   <trkpt lat="-3.0807870" lon="37.3653200">
    <ele>5565.4</ele>
    <time>2026-06-23T02:51:55Z</time>
   </trkpt>
   <trkpt lat="-3.0807870" lon="37.3653210">
    <ele>5565.4</ele>
    <time>2026-06-23T02:51:56Z</time>
   </trkpt>
   <trkpt lat="-3.0807840" lon="37.3653220">
    <ele>5565.5</ele>
    <time>2026-06-23T02:51:57Z</time>
   </trkpt>
   <trkpt lat="-3.0807800" lon="37.3653240">
    <ele>5565.6</ele>
    <time>2026-06-23T02:51:58Z</time>
   </trkpt>
   <trkpt lat="-3.0807760" lon="37.3653240">
    <ele>5565.7</ele>
    <time>2026-06-23T02:51:59Z</time>
   </trkpt>
   <trkpt lat="-3.0807730" lon="37.3653250">
    <ele>5565.8</ele>
    <time>2026-06-23T02:52:00Z</time>
   </trkpt>
   <trkpt lat="-3.0807710" lon="37.3653270">
    <ele>5565.8</ele>
    <time>2026-06-23T02:52:01Z</time>
   </trkpt>
   <trkpt lat="-3.0807670" lon="37.3653280">
    <ele>5565.9</ele>
    <time>2026-06-23T02:52:02Z</time>
   </trkpt>
   <trkpt lat="-3.0807660" lon="37.3653280">
    <ele>5565.9</ele>
    <time>2026-06-23T02:52:03Z</time>
   </trkpt>
   <trkpt lat="-3.0807640" lon="37.3653280">
    <ele>5566.0</ele>
    <time>2026-06-23T02:52:04Z</time>
   </trkpt>
   <trkpt lat="-3.0807600" lon="37.3653280">
    <ele>5566.1</ele>
    <time>2026-06-23T02:52:05Z</time>
   </trkpt>
   <trkpt lat="-3.0807600" lon="37.3653270">
    <ele>5566.1</ele>
    <time>2026-06-23T02:52:06Z</time>
   </trkpt>
   <trkpt lat="-3.0807580" lon="37.3653260">
    <ele>5566.2</ele>
    <time>2026-06-23T02:52:07Z</time>
   </trkpt>
   <trkpt lat="-3.0807570" lon="37.3653260">
    <ele>5566.2</ele>
    <time>2026-06-23T02:52:08Z</time>
   </trkpt>
   <trkpt lat="-3.0807540" lon="37.3653250">
    <ele>5566.2</ele>
    <time>2026-06-23T02:52:09Z</time>
   </trkpt>
   <trkpt lat="-3.0807520" lon="37.3653230">
    <ele>5566.3</ele>
    <time>2026-06-23T02:52:10Z</time>
   </trkpt>
   <trkpt lat="-3.0807490" lon="37.3653220">
    <ele>5566.4</ele>
    <time>2026-06-23T02:52:11Z</time>
   </trkpt>
   <trkpt lat="-3.0807510" lon="37.3653180">
    <ele>5566.5</ele>
    <time>2026-06-23T02:52:12Z</time>
   </trkpt>
   <trkpt lat="-3.0807520" lon="37.3653160">
    <ele>5566.5</ele>
    <time>2026-06-23T02:52:13Z</time>
   </trkpt>
   <trkpt lat="-3.0807550" lon="37.3653150">
    <ele>5566.6</ele>
    <time>2026-06-23T02:52:14Z</time>
   </trkpt>
   <trkpt lat="-3.0807560" lon="37.3653100">
    <ele>5566.7</ele>
    <time>2026-06-23T02:52:15Z</time>
   </trkpt>
   <trkpt lat="-3.0807560" lon="37.3653090">
    <ele>5566.7</ele>
    <time>2026-06-23T02:52:16Z</time>
   </trkpt>
   <trkpt lat="-3.0807580" lon="37.3653050">
    <ele>5566.8</ele>
    <time>2026-06-23T02:52:17Z</time>
   </trkpt>
   <trkpt lat="-3.0807600" lon="37.3653050">
    <ele>5566.9</ele>
    <time>2026-06-23T02:52:18Z</time>
   </trkpt>
   <trkpt lat="-3.0807610" lon="37.3653030">
    <ele>5566.9</ele>
    <time>2026-06-23T02:52:19Z</time>
   </trkpt>
   <trkpt lat="-3.0807630" lon="37.3653020">
    <ele>5567.0</ele>
    <time>2026-06-23T02:52:20Z</time>
   </trkpt>
   <trkpt lat="-3.0807640" lon="37.3653000">
    <ele>5567.0</ele>
    <time>2026-06-23T02:52:21Z</time>
   </trkpt>
   <trkpt lat="-3.0807660" lon="37.3652980">
    <ele>5567.1</ele>
    <time>2026-06-23T02:52:22Z</time>
   </trkpt>
   <trkpt lat="-3.0807500" lon="37.3652960">
    <ele>5567.5</ele>
    <time>2026-06-23T02:52:23Z</time>
   </trkpt>
   <trkpt lat="-3.0807660" lon="37.3652940">
    <ele>5567.8</ele>
    <time>2026-06-23T02:52:24Z</time>
   </trkpt>
   <trkpt lat="-3.0807670" lon="37.3652910">
    <ele>5567.9</ele>
    <time>2026-06-23T02:52:25Z</time>
   </trkpt>
   <trkpt lat="-3.0807680" lon="37.3652890">
    <ele>5568.0</ele>
    <time>2026-06-23T02:52:26Z</time>
   </trkpt>
   <trkpt lat="-3.0807710" lon="37.3652870">
    <ele>5568.0</ele>
    <time>2026-06-23T02:52:27Z</time>
   </trkpt>
   <trkpt lat="-3.0807720" lon="37.3652840">
    <ele>5568.1</ele>
    <time>2026-06-23T02:52:28Z</time>
   </trkpt>
   <trkpt lat="-3.0807740" lon="37.3652840">
    <ele>5568.2</ele>
    <time>2026-06-23T02:52:29Z</time>
   </trkpt>
   <trkpt lat="-3.0807740" lon="37.3652820">
    <ele>5568.2</ele>
    <time>2026-06-23T02:52:30Z</time>
   </trkpt>
   <trkpt lat="-3.0807750" lon="37.3652790">
    <ele>5568.3</ele>
    <time>2026-06-23T02:52:31Z</time>
   </trkpt>
   <trkpt lat="-3.0807760" lon="37.3652780">
    <ele>5568.3</ele>
    <time>2026-06-23T02:52:32Z</time>
   </trkpt>
   <trkpt lat="-3.0807770" lon="37.3652760">
    <ele>5568.4</ele>
    <time>2026-06-23T02:52:33Z</time>
   </trkpt>
   <trkpt lat="-3.0807780" lon="37.3652750">
    <ele>5568.4</ele>
    <time>2026-06-23T02:52:34Z</time>
   </trkpt>
   <trkpt lat="-3.0807780" lon="37.3652740">
    <ele>5568.4</ele>
    <time>2026-06-23T02:52:35Z</time>
   </trkpt>
   <trkpt lat="-3.0807790" lon="37.3652730">
    <ele>5568.4</ele>
    <time>2026-06-23T02:52:36Z</time>
   </trkpt>
   <trkpt lat="-3.0807800" lon="37.3652700">
    <ele>5568.5</ele>
    <time>2026-06-23T02:52:37Z</time>
   </trkpt>
   <trkpt lat="-3.0807800" lon="37.3652670">
    <ele>5568.6</ele>
    <time>2026-06-23T02:52:38Z</time>
   </trkpt>
   <trkpt lat="-3.0807820" lon="37.3652640">
    <ele>5568.7</ele>
    <time>2026-06-23T02:52:39Z</time>
   </trkpt>
   <trkpt lat="-3.0807830" lon="37.3652620">
    <ele>5568.7</ele>
    <time>2026-06-23T02:52:40Z</time>
   </trkpt>
   <trkpt lat="-3.0807850" lon="37.3652600">
    <ele>5568.8</ele>
    <time>2026-06-23T02:52:41Z</time>
   </trkpt>
   <trkpt lat="-3.0807880" lon="37.3652570">
    <ele>5568.9</ele>
    <time>2026-06-23T02:52:42Z</time>
   </trkpt>
   <trkpt lat="-3.0807900" lon="37.3652560">
    <ele>5568.9</ele>
    <time>2026-06-23T02:52:43Z</time>
   </trkpt>
   <trkpt lat="-3.0807940" lon="37.3652550">
    <ele>5569.0</ele>
    <time>2026-06-23T02:52:44Z</time>
   </trkpt>
   <trkpt lat="-3.0807950" lon="37.3652530">
    <ele>5569.1</ele>
    <time>2026-06-23T02:52:45Z</time>
   </trkpt>
   <trkpt lat="-3.0807990" lon="37.3652540">
    <ele>5569.2</ele>
    <time>2026-06-23T02:52:46Z</time>
   </trkpt>
   <trkpt lat="-3.0808000" lon="37.3652530">
    <ele>5569.2</ele>
    <time>2026-06-23T02:52:47Z</time>
   </trkpt>
   <trkpt lat="-3.0808030" lon="37.3652510">
    <ele>5569.3</ele>
    <time>2026-06-23T02:52:48Z</time>
   </trkpt>
   <trkpt lat="-3.0808060" lon="37.3652500">
    <ele>5569.4</ele>
    <time>2026-06-23T02:52:49Z</time>
   </trkpt>
   <trkpt lat="-3.0808070" lon="37.3652480">
    <ele>5569.4</ele>
    <time>2026-06-23T02:52:50Z</time>
   </trkpt>
   <trkpt lat="-3.0808090" lon="37.3652460">
    <ele>5569.5</ele>
    <time>2026-06-23T02:52:51Z</time>
   </trkpt>
   <trkpt lat="-3.0808070" lon="37.3652430">
    <ele>5569.6</ele>
    <time>2026-06-23T02:52:52Z</time>
   </trkpt>
   <trkpt lat="-3.0808080" lon="37.3652400">
    <ele>5569.6</ele>
    <time>2026-06-23T02:52:53Z</time>
   </trkpt>
   <trkpt lat="-3.0808080" lon="37.3652390">
    <ele>5569.6</ele>
    <time>2026-06-23T02:52:54Z</time>
   </trkpt>
   <trkpt lat="-3.0808070" lon="37.3652360">
    <ele>5569.7</ele>
    <time>2026-06-23T02:52:55Z</time>
   </trkpt>
   <trkpt lat="-3.0808050" lon="37.3652350">
    <ele>5569.8</ele>
    <time>2026-06-23T02:52:56Z</time>
   </trkpt>
   <trkpt lat="-3.0808030" lon="37.3652330">
    <ele>5569.8</ele>
    <time>2026-06-23T02:52:57Z</time>
   </trkpt>
   <trkpt lat="-3.0808020" lon="37.3652310">
    <ele>5569.9</ele>
    <time>2026-06-23T02:52:58Z</time>
   </trkpt>
   <trkpt lat="-3.0807980" lon="37.3652310">
    <ele>5570.0</ele>
    <time>2026-06-23T02:52:59Z</time>
   </trkpt>
   <trkpt lat="-3.0807960" lon="37.3652290">
    <ele>5570.0</ele>
    <time>2026-06-23T02:53:00Z</time>
   </trkpt>
   <trkpt lat="-3.0807930" lon="37.3652280">
    <ele>5570.1</ele>
    <time>2026-06-23T02:53:01Z</time>
   </trkpt>
   <trkpt lat="-3.0807910" lon="37.3652270">
    <ele>5570.2</ele>
    <time>2026-06-23T02:53:02Z</time>
   </trkpt>
   <trkpt lat="-3.0807890" lon="37.3652260">
    <ele>5570.2</ele>
    <time>2026-06-23T02:53:03Z</time>
   </trkpt>
   <trkpt lat="-3.0807860" lon="37.3652260">
    <ele>5570.3</ele>
    <time>2026-06-23T02:53:04Z</time>
   </trkpt>
   <trkpt lat="-3.0807860" lon="37.3652250">
    <ele>5570.3</ele>
    <time>2026-06-23T02:53:05Z</time>
   </trkpt>
   <trkpt lat="-3.0807840" lon="37.3652250">
    <ele>5570.3</ele>
    <time>2026-06-23T02:53:06Z</time>
   </trkpt>
   <trkpt lat="-3.0807830" lon="37.3652250">
    <ele>5570.4</ele>
    <time>2026-06-23T02:53:07Z</time>
   </trkpt>
   <trkpt lat="-3.0807820" lon="37.3652250">
    <ele>5570.4</ele>
    <time>2026-06-23T02:53:08Z</time>
   </trkpt>
   <trkpt lat="-3.0807790" lon="37.3652240">
    <ele>5570.5</ele>
    <time>2026-06-23T02:53:09Z</time>
   </trkpt>
   <trkpt lat="-3.0807790" lon="37.3652230">
    <ele>5570.5</ele>
    <time>2026-06-23T02:53:10Z</time>
   </trkpt>
   <trkpt lat="-3.0807770" lon="37.3652230">
    <ele>5570.5</ele>
    <time>2026-06-23T02:53:11Z</time>
   </trkpt>
   <trkpt lat="-3.0807740" lon="37.3652220">
    <ele>5570.6</ele>
    <time>2026-06-23T02:53:12Z</time>
   </trkpt>
   <trkpt lat="-3.0807720" lon="37.3652210">
    <ele>5570.7</ele>
    <time>2026-06-23T02:53:13Z</time>
   </trkpt>
   <trkpt lat="-3.0807700" lon="37.3652210">
    <ele>5570.7</ele>
    <time>2026-06-23T02:53:14Z</time>
   </trkpt>
   <trkpt lat="-3.0807690" lon="37.3652210">
    <ele>5570.7</ele>
    <time>2026-06-23T02:53:15Z</time>
   </trkpt>
   <trkpt lat="-3.0807680" lon="37.3652200">
    <ele>5570.8</ele>
    <time>2026-06-23T02:53:16Z</time>
   </trkpt>
   <trkpt lat="-3.0807680" lon="37.3652190">
    <ele>5570.8</ele>
    <time>2026-06-23T02:53:17Z</time>
   </trkpt>
   <trkpt lat="-3.0807670" lon="37.3652180">
    <ele>5570.8</ele>
    <time>2026-06-23T02:53:18Z</time>
   </trkpt>
   <trkpt lat="-3.0807660" lon="37.3652170">
    <ele>5570.8</ele>
    <time>2026-06-23T02:53:19Z</time>
   </trkpt>
   <trkpt lat="-3.0807660" lon="37.3652160">
    <ele>5570.9</ele>
    <time>2026-06-23T02:53:20Z</time>
   </trkpt>
   <trkpt lat="-3.0807650" lon="37.3652150">
    <ele>5570.9</ele>
    <time>2026-06-23T02:53:21Z</time>
   </trkpt>
   <trkpt lat="-3.0807640" lon="37.3652140">
    <ele>5570.9</ele>
    <time>2026-06-23T02:53:22Z</time>
   </trkpt>
   <trkpt lat="-3.0807640" lon="37.3652130">
    <ele>5571.0</ele>
    <time>2026-06-23T02:53:23Z</time>
   </trkpt>
   <trkpt lat="-3.0807630" lon="37.3652120">
    <ele>5571.0</ele>
    <time>2026-06-23T02:53:24Z</time>
   </trkpt>
   <trkpt lat="-3.0807620" lon="37.3652110">
    <ele>5571.0</ele>
    <time>2026-06-23T02:53:25Z</time>
   </trkpt>
   <trkpt lat="-3.0807620" lon="37.3652100">
    <ele>5571.0</ele>
    <time>2026-06-23T02:53:26Z</time>
   </trkpt>
   <trkpt lat="-3.0807610" lon="37.3652090">
    <ele>5571.1</ele>
    <time>2026-06-23T02:53:27Z</time>
   </trkpt>
   <trkpt lat="-3.0807600" lon="37.3652080">
    <ele>5571.1</ele>
    <time>2026-06-23T02:53:28Z</time>
   </trkpt>
   <trkpt lat="-3.0807600" lon="37.3652070">
    <ele>5571.1</ele>
    <time>2026-06-23T02:53:29Z</time>
   </trkpt>
   <trkpt lat="-3.0807590" lon="37.3652060">
    <ele>5571.2</ele>
    <time>2026-06-23T02:53:30Z</time>
   </trkpt>
   <trkpt lat="-3.0807580" lon="37.3652050">
    <ele>5571.2</ele>
    <time>2026-06-23T02:53:31Z</time>
   </trkpt>
   <trkpt lat="-3.0807580" lon="37.3652040">
    <ele>5571.2</ele>
    <time>2026-06-23T02:53:32Z</time>
   </trkpt>
   <trkpt lat="-3.0807570" lon="37.3652030">
    <ele>5571.2</ele>
    <time>2026-06-23T02:53:33Z</time>
   </trkpt>
   <trkpt lat="-3.0807560" lon="37.3652020">
    <ele>5571.3</ele>
    <time>2026-06-23T02:53:34Z</time>
   </trkpt>
   <trkpt lat="-3.0807560" lon="37.3652010">
    <ele>5571.3</ele>
    <time>2026-06-23T02:53:35Z</time>
   </trkpt>
   <trkpt lat="-3.0807550" lon="37.3652000">
    <ele>5571.3</ele>
    <time>2026-06-23T02:53:36Z</time>
   </trkpt>
   <trkpt lat="-3.0807540" lon="37.3651990">
    <ele>5571.4</ele>
    <time>2026-06-23T02:53:37Z</time>
   </trkpt>
   <trkpt lat="-3.0807540" lon="37.3651980">
    <ele>5571.4</ele>
    <time>2026-06-23T02:53:38Z</time>
   </trkpt>
   <trkpt lat="-3.0807530" lon="37.3651970">
    <ele>5571.4</ele>
    <time>2026-06-23T02:53:39Z</time>
   </trkpt>
   <trkpt lat="-3.0807520" lon="37.3651960">
    <ele>5571.5</ele>
    <time>2026-06-23T02:53:40Z</time>
   </trkpt>
   <trkpt lat="-3.0807520" lon="37.3651940">
    <ele>5571.5</ele>
    <time>2026-06-23T02:53:41Z</time>
   </trkpt>
   <trkpt lat="-3.0807510" lon="37.3651930">
    <ele>5571.5</ele>
    <time>2026-06-23T02:53:42Z</time>
   </trkpt>
   <trkpt lat="-3.0807500" lon="37.3651920">
    <ele>5571.6</ele>
    <time>2026-06-23T02:53:43Z</time>
   </trkpt>
   <trkpt lat="-3.0807500" lon="37.3651910">
    <ele>5571.6</ele>
    <time>2026-06-23T02:53:44Z</time>
   </trkpt>
   <trkpt lat="-3.0807490" lon="37.3651900">
    <ele>5571.6</ele>
    <time>2026-06-23T02:53:45Z</time>
   </trkpt>
   <trkpt lat="-3.0807480" lon="37.3651890">
    <ele>5571.6</ele>
    <time>2026-06-23T02:53:46Z</time>
   </trkpt>
   <trkpt lat="-3.0807470" lon="37.3651880">
    <ele>5571.7</ele>
    <time>2026-06-23T02:53:47Z</time>
   </trkpt>
   <trkpt lat="-3.0807470" lon="37.3651870">
    <ele>5571.7</ele>
    <time>2026-06-23T02:53:48Z</time>
   </trkpt>
   <trkpt lat="-3.0807460" lon="37.3651860">
    <ele>5571.7</ele>
    <time>2026-06-23T02:53:49Z</time>
   </trkpt>
   <trkpt lat="-3.0807450" lon="37.3651850">
    <ele>5571.8</ele>
    <time>2026-06-23T02:53:50Z</time>
   </trkpt>
   <trkpt lat="-3.0807450" lon="37.3651840">
    <ele>5571.8</ele>
    <time>2026-06-23T02:53:51Z</time>
   </trkpt>
   <trkpt lat="-3.0807440" lon="37.3651830">
    <ele>5571.8</ele>
    <time>2026-06-23T02:53:52Z</time>
   </trkpt>
   <trkpt lat="-3.0807430" lon="37.3651820">
    <ele>5571.9</ele>
    <time>2026-06-23T02:53:53Z</time>
   </trkpt>
   <trkpt lat="-3.0807430" lon="37.3651810">
    <ele>5571.9</ele>
    <time>2026-06-23T02:53:54Z</time>
   </trkpt>
   <trkpt lat="-3.0807420" lon="37.3651800">
    <ele>5571.9</ele>
    <time>2026-06-23T02:53:55Z</time>
   </trkpt>
   <trkpt lat="-3.0807410" lon="37.3651790">
    <ele>5571.9</ele>
    <time>2026-06-23T02:53:56Z</time>
   </trkpt>
   <trkpt lat="-3.0807410" lon="37.3651780">
    <ele>5572.0</ele>
    <time>2026-06-23T02:53:57Z</time>
   </trkpt>
   <trkpt lat="-3.0807400" lon="37.3651770">
    <ele>5572.0</ele>
    <time>2026-06-23T02:53:58Z</time>
   </trkpt>
   <trkpt lat="-3.0807390" lon="37.3651760">
    <ele>5572.0</ele>
    <time>2026-06-23T02:53:59Z</time>
   </trkpt>
   <trkpt lat="-3.0807390" lon="37.3651750">
    <ele>5572.0</ele>
    <time>2026-06-23T02:54:00Z</time>
   </trkpt>
   <trkpt lat="-3.0807380" lon="37.3651740">
    <ele>5572.1</ele>
    <time>2026-06-23T02:54:01Z</time>
   </trkpt>
   <trkpt lat="-3.0807370" lon="37.3651730">
    <ele>5572.1</ele>
    <time>2026-06-23T02:54:02Z</time>
   </trkpt>
   <trkpt lat="-3.0807370" lon="37.3651720">
    <ele>5572.1</ele>
    <time>2026-06-23T02:54:03Z</time>
   </trkpt>
   <trkpt lat="-3.0807360" lon="37.3651710">
    <ele>5572.2</ele>
    <time>2026-06-23T02:54:04Z</time>
   </trkpt>
   <trkpt lat="-3.0807350" lon="37.3651700">
    <ele>5572.2</ele>
    <time>2026-06-23T02:54:05Z</time>
   </trkpt>
   <trkpt lat="-3.0807350" lon="37.3651690">
    <ele>5572.2</ele>
    <time>2026-06-23T02:54:06Z</time>
   </trkpt>
   <trkpt lat="-3.0807340" lon="37.3651680">
    <ele>5572.3</ele>
    <time>2026-06-23T02:54:07Z</time>
   </trkpt>
   <trkpt lat="-3.0807330" lon="37.3651670">
    <ele>5572.3</ele>
    <time>2026-06-23T02:54:08Z</time>
   </trkpt>
   <trkpt lat="-3.0807330" lon="37.3651660">
    <ele>5572.3</ele>
    <time>2026-06-23T02:54:09Z</time>
   </trkpt>
   <trkpt lat="-3.0807320" lon="37.3651650">
    <ele>5572.3</ele>
    <time>2026-06-23T02:54:10Z</time>
   </trkpt>
   <trkpt lat="-3.0807310" lon="37.3651640">
    <ele>5572.4</ele>
    <time>2026-06-23T02:54:11Z</time>
   </trkpt>
   <trkpt lat="-3.0807310" lon="37.3651630">
    <ele>5572.4</ele>
    <time>2026-06-23T02:54:12Z</time>
   </trkpt>
   <trkpt lat="-3.0807300" lon="37.3651620">
    <ele>5572.4</ele>
    <time>2026-06-23T02:54:13Z</time>
   </trkpt>
   <trkpt lat="-3.0807290" lon="37.3651610">
    <ele>5572.5</ele>
    <time>2026-06-23T02:54:14Z</time>
   </trkpt>
   <trkpt lat="-3.0807290" lon="37.3651600">
    <ele>5572.5</ele>
    <time>2026-06-23T02:54:15Z</time>
   </trkpt>
   <trkpt lat="-3.0807280" lon="37.3651590">
    <ele>5572.5</ele>
    <time>2026-06-23T02:54:16Z</time>
   </trkpt>
   <trkpt lat="-3.0807270" lon="37.3651580">
    <ele>5572.5</ele>
    <time>2026-06-23T02:54:17Z</time>
   </trkpt>
   <trkpt lat="-3.0807270" lon="37.3651570">
    <ele>5572.6</ele>
    <time>2026-06-23T02:54:18Z</time>
   </trkpt>
   <trkpt lat="-3.0807260" lon="37.3651560">
    <ele>5572.6</ele>
    <time>2026-06-23T02:54:19Z</time>
   </trkpt>
   <trkpt lat="-3.0807250" lon="37.3651550">
    <ele>5572.6</ele>
    <time>2026-06-23T02:54:20Z</time>
   </trkpt>
   <trkpt lat="-3.0807250" lon="37.3651540">
    <ele>5572.7</ele>
    <time>2026-06-23T02:54:21Z</time>
   </trkpt>
   <trkpt lat="-3.0807240" lon="37.3651530">
    <ele>5572.7</ele>
    <time>2026-06-23T02:54:22Z</time>
   </trkpt>
   <trkpt lat="-3.0807230" lon="37.3651520">
    <ele>5572.7</ele>
    <time>2026-06-23T02:54:23Z</time>
   </trkpt>
   <trkpt lat="-3.0807230" lon="37.3651510">
    <ele>5572.7</ele>
    <time>2026-06-23T02:54:24Z</time>
   </trkpt>
   <trkpt lat="-3.0807220" lon="37.3651500">
    <ele>5572.8</ele>
    <time>2026-06-23T02:54:25Z</time>
   </trkpt>
   <trkpt lat="-3.0807210" lon="37.3651490">
    <ele>5572.8</ele>
    <time>2026-06-23T02:54:26Z</time>
   </trkpt>
   <trkpt lat="-3.0807210" lon="37.3651480">
    <ele>5572.8</ele>
    <time>2026-06-23T02:54:27Z</time>
   </trkpt>
   <trkpt lat="-3.0807200" lon="37.3651470">
    <ele>5572.9</ele>
    <time>2026-06-23T02:54:28Z</time>
   </trkpt>
   <trkpt lat="-3.0807190" lon="37.3651460">
    <ele>5572.9</ele>
    <time>2026-06-23T02:54:29Z</time>
   </trkpt>
   <trkpt lat="-3.0807190" lon="37.3651450">
    <ele>5572.9</ele>
    <time>2026-06-23T02:54:30Z</time>
   </trkpt>
   <trkpt lat="-3.0807180" lon="37.3651440">
    <ele>5572.9</ele>
    <time>2026-06-23T02:54:31Z</time>
   </trkpt>
   <trkpt lat="-3.0807170" lon="37.3651430">
    <ele>5573.0</ele>
    <time>2026-06-23T02:54:32Z</time>
   </trkpt>
   <trkpt lat="-3.0807170" lon="37.3651410">
    <ele>5573.0</ele>
    <time>2026-06-23T02:54:33Z</time>
   </trkpt>
   <trkpt lat="-3.0807160" lon="37.3651400">
    <ele>5573.1</ele>
    <time>2026-06-23T02:54:34Z</time>
   </trkpt>
   <trkpt lat="-3.0807150" lon="37.3651390">
    <ele>5573.1</ele>
    <time>2026-06-23T02:54:35Z</time>
   </trkpt>
   <trkpt lat="-3.0807150" lon="37.3651380">
    <ele>5573.1</ele>
    <time>2026-06-23T02:54:36Z</time>
   </trkpt>
   <trkpt lat="-3.0807140" lon="37.3651370">
    <ele>5573.1</ele>
    <time>2026-06-23T02:54:37Z</time>
   </trkpt>
   <trkpt lat="-3.0807130" lon="37.3651360">
    <ele>5573.2</ele>
    <time>2026-06-23T02:54:38Z</time>
   </trkpt>
   <trkpt lat="-3.0807130" lon="37.3651350">
    <ele>5573.2</ele>
    <time>2026-06-23T02:54:39Z</time>
   </trkpt>
   <trkpt lat="-3.0807120" lon="37.3651340">
    <ele>5573.2</ele>
    <time>2026-06-23T02:54:40Z</time>
   </trkpt>
   <trkpt lat="-3.0807110" lon="37.3651330">
    <ele>5573.3</ele>
    <time>2026-06-23T02:54:41Z</time>
   </trkpt>
   <trkpt lat="-3.0807110" lon="37.3651320">
    <ele>5573.3</ele>
    <time>2026-06-23T02:54:42Z</time>
   </trkpt>
   <trkpt lat="-3.0807100" lon="37.3651310">
    <ele>5573.3</ele>
    <time>2026-06-23T02:54:43Z</time>
   </trkpt>
   <trkpt lat="-3.0807090" lon="37.3651300">
    <ele>5573.3</ele>
    <time>2026-06-23T02:54:44Z</time>
   </trkpt>
   <trkpt lat="-3.0807090" lon="37.3651290">
    <ele>5573.4</ele>
    <time>2026-06-23T02:54:45Z</time>
   </trkpt>
   <trkpt lat="-3.0807080" lon="37.3651280">
    <ele>5573.4</ele>
    <time>2026-06-23T02:54:46Z</time>
   </trkpt>
   <trkpt lat="-3.0807070" lon="37.3651270">
    <ele>5573.4</ele>
    <time>2026-06-23T02:54:47Z</time>
   </trkpt>
   <trkpt lat="-3.0807060" lon="37.3651260">
    <ele>5573.5</ele>
    <time>2026-06-23T02:54:48Z</time>
   </trkpt>
   <trkpt lat="-3.0807060" lon="37.3651250">
    <ele>5573.5</ele>
    <time>2026-06-23T02:54:49Z</time>
   </trkpt>
   <trkpt lat="-3.0807050" lon="37.3651240">
    <ele>5573.5</ele>
    <time>2026-06-23T02:54:50Z</time>
   </trkpt>
   <trkpt lat="-3.0807040" lon="37.3651230">
    <ele>5573.5</ele>
    <time>2026-06-23T02:54:51Z</time>
   </trkpt>
   <trkpt lat="-3.0807040" lon="37.3651220">
    <ele>5573.6</ele>
    <time>2026-06-23T02:54:52Z</time>
   </trkpt>
   <trkpt lat="-3.0807030" lon="37.3651210">
    <ele>5573.6</ele>
    <time>2026-06-23T02:54:53Z</time>
   </trkpt>
   <trkpt lat="-3.0807020" lon="37.3651200">
    <ele>5573.6</ele>
    <time>2026-06-23T02:54:54Z</time>
   </trkpt>
   <trkpt lat="-3.0807020" lon="37.3651190">
    <ele>5573.7</ele>
    <time>2026-06-23T02:54:55Z</time>
   </trkpt>
   <trkpt lat="-3.0807010" lon="37.3651180">
    <ele>5573.7</ele>
    <time>2026-06-23T02:54:56Z</time>
   </trkpt>
   <trkpt lat="-3.0807000" lon="37.3651170">
    <ele>5573.7</ele>
    <time>2026-06-23T02:54:57Z</time>
   </trkpt>
   <trkpt lat="-3.0807000" lon="37.3651160">
    <ele>5573.7</ele>
    <time>2026-06-23T02:54:58Z</time>
   </trkpt>
   <trkpt lat="-3.0806990" lon="37.3651150">
    <ele>5573.8</ele>
    <time>2026-06-23T02:54:59Z</time>
   </trkpt>
   <trkpt lat="-3.0806980" lon="37.3651140">
    <ele>5573.8</ele>
    <time>2026-06-23T02:55:00Z</time>
   </trkpt>
   <trkpt lat="-3.0806980" lon="37.3651130">
    <ele>5573.8</ele>
    <time>2026-06-23T02:55:01Z</time>
   </trkpt>
   <trkpt lat="-3.0806970" lon="37.3651120">
    <ele>5573.9</ele>
    <time>2026-06-23T02:55:02Z</time>
   </trkpt>
   <trkpt lat="-3.0806960" lon="37.3651110">
    <ele>5573.9</ele>
    <time>2026-06-23T02:55:03Z</time>
   </trkpt>
   <trkpt lat="-3.0806960" lon="37.3651100">
    <ele>5573.9</ele>
    <time>2026-06-23T02:55:04Z</time>
   </trkpt>
   <trkpt lat="-3.0806950" lon="37.3651090">
    <ele>5573.9</ele>
    <time>2026-06-23T02:55:05Z</time>
   </trkpt>
   <trkpt lat="-3.0806940" lon="37.3651080">
    <ele>5574.0</ele>
    <time>2026-06-23T02:55:06Z</time>
   </trkpt>
   <trkpt lat="-3.0806940" lon="37.3651070">
    <ele>5574.0</ele>
    <time>2026-06-23T02:55:07Z</time>
   </trkpt>
   <trkpt lat="-3.0806930" lon="37.3651060">
    <ele>5574.0</ele>
    <time>2026-06-23T02:55:08Z</time>
   </trkpt>
   <trkpt lat="-3.0806920" lon="37.3651050">
    <ele>5574.1</ele>
    <time>2026-06-23T02:55:09Z</time>
   </trkpt>
   <trkpt lat="-3.0806920" lon="37.3651040">
    <ele>5574.1</ele>
    <time>2026-06-23T02:55:10Z</time>
   </trkpt>
   <trkpt lat="-3.0806910" lon="37.3651030">
    <ele>5574.1</ele>
    <time>2026-06-23T02:55:11Z</time>
   </trkpt>
   <trkpt lat="-3.0806900" lon="37.3651020">
    <ele>5574.1</ele>
    <time>2026-06-23T02:55:12Z</time>
   </trkpt>
   <trkpt lat="-3.0806900" lon="37.3651010">
    <ele>5574.2</ele>
    <time>2026-06-23T02:55:13Z</time>
   </trkpt>
   <trkpt lat="-3.0806890" lon="37.3651000">
    <ele>5574.2</ele>
    <time>2026-06-23T02:55:14Z</time>
   </trkpt>
   <trkpt lat="-3.0806880" lon="37.3650990">
    <ele>5574.2</ele>
    <time>2026-06-23T02:55:15Z</time>
   </trkpt>
   <trkpt lat="-3.0806880" lon="37.3650980">
    <ele>5574.3</ele>
    <time>2026-06-23T02:55:16Z</time>
   </trkpt>
   <trkpt lat="-3.0806870" lon="37.3650970">
    <ele>5574.3</ele>
    <time>2026-06-23T02:55:17Z</time>
   </trkpt>
   <trkpt lat="-3.0806870" lon="37.3650960">
    <ele>5574.3</ele>
    <time>2026-06-23T02:55:18Z</time>
   </trkpt>
   <trkpt lat="-3.0806870" lon="37.3650960">
    <ele>5574.3</ele>
    <time>2026-06-23T02:55:19Z</time>
   </trkpt>
   <trkpt lat="-3.0806870" lon="37.3650960">
    <ele>5574.3</ele>
    <time>2026-06-23T02:55:20Z</time>
   </trkpt>
   <trkpt lat="-3.0806870" lon="37.3650960">
    <ele>5574.3</ele>
    <time>2026-06-23T02:55:21Z</time>
   </trkpt>
   <trkpt lat="-3.0806870" lon="37.3650960">
    <ele>5574.3</ele>
    <time>2026-06-23T02:55:22Z</time>
   </trkpt>
   <trkpt lat="-3.0806870" lon="37.3650960">
    <ele>5574.3</ele>
    <time>2026-06-23T02:55:23Z</time>
   </trkpt>
   <trkpt lat="-3.0806870" lon="37.3650960">
    <ele>5574.3</ele>
    <time>2026-06-23T02:55:24Z</time>
   </trkpt>
   <trkpt lat="-3.0806870" lon="37.3650960">
    <ele>5574.3</ele>
    <time>2026-06-23T02:55:25Z</time>
   </trkpt>
   <trkpt lat="-3.0806870" lon="37.3650960">
    <ele>5574.3</ele>
    <time>2026-06-23T02:55:26Z</time>
   </trkpt>
   <trkpt lat="-3.0806870" lon="37.3650960">
    <ele>5574.3</ele>
    <time>2026-06-23T02:55:27Z</time>
   </trkpt>
   <trkpt lat="-3.0806870" lon="37.3650960">
    <ele>5574.3</ele>
    <time>2026-06-23T02:55:28Z</time>
   </trkpt>
   <trkpt lat="-3.0806870" lon="37.3650960">
    <ele>5574.3</ele>
    <time>2026-06-23T02:55:29Z</time>
   </trkpt>
   <trkpt lat="-3.0806870" lon="37.3650960">
    <ele>5574.3</ele>
    <time>2026-06-23T02:55:30Z</time>
   </trkpt>
   <trkpt lat="-3.0806870" lon="37.3650960">
    <ele>5574.3</ele>
    <time>2026-06-23T02:55:31Z</time>
   </trkpt>
   <trkpt lat="-3.0806870" lon="37.3650960">
    <ele>5574.3</ele>
    <time>2026-06-23T02:55:32Z</time>
   </trkpt>
   <trkpt lat="-3.0806780" lon="37.3650820">
    <ele>5574.7</ele>
    <time>2026-06-23T02:55:33Z</time>
   </trkpt>
   <trkpt lat="-3.0806780" lon="37.3650820">
    <ele>5574.7</ele>
    <time>2026-06-23T02:55:34Z</time>
   </trkpt>
   <trkpt lat="-3.0806780" lon="37.3650820">
    <ele>5574.7</ele>
    <time>2026-06-23T02:55:35Z</time>
   </trkpt>
   <trkpt lat="-3.0806780" lon="37.3650820">
    <ele>5574.7</ele>
    <time>2026-06-23T02:55:36Z</time>
   </trkpt>
   <trkpt lat="-3.0806780" lon="37.3650820">
    <ele>5574.7</ele>
    <time>2026-06-23T02:55:37Z</time>
   </trkpt>
   <trkpt lat="-3.0806780" lon="37.3650820">
    <ele>5574.7</ele>
    <time>2026-06-23T02:55:38Z</time>
   </trkpt>
   <trkpt lat="-3.0806780" lon="37.3650820">
    <ele>5574.7</ele>
    <time>2026-06-23T02:55:39Z</time>
   </trkpt>
   <trkpt lat="-3.0806780" lon="37.3650820">
    <ele>5574.7</ele>
    <time>2026-06-23T02:55:40Z</time>
   </trkpt>
   <trkpt lat="-3.0806780" lon="37.3650820">
    <ele>5574.7</ele>
    <time>2026-06-23T02:55:41Z</time>
   </trkpt>
   <trkpt lat="-3.0806780" lon="37.3650820">
    <ele>5574.7</ele>
    <time>2026-06-23T02:55:42Z</time>
   </trkpt>
   <trkpt lat="-3.0806780" lon="37.3650820">
    <ele>5574.7</ele>
    <time>2026-06-23T02:55:43Z</time>
   </trkpt>
   <trkpt lat="-3.0806780" lon="37.3650820">
    <ele>5574.7</ele>
    <time>2026-06-23T02:55:44Z</time>
   </trkpt>
   <trkpt lat="-3.0806780" lon="37.3650820">
    <ele>5574.7</ele>
    <time>2026-06-23T02:55:45Z</time>
   </trkpt>
   <trkpt lat="-3.0806690" lon="37.3650690">
    <ele>5575.0</ele>
    <time>2026-06-23T02:55:46Z</time>
   </trkpt>
   <trkpt lat="-3.0806690" lon="37.3650690">
    <ele>5575.0</ele>
    <time>2026-06-23T02:55:47Z</time>
   </trkpt>
   <trkpt lat="-3.0806690" lon="37.3650690">
    <ele>5575.0</ele>
    <time>2026-06-23T02:55:48Z</time>
   </trkpt>
   <trkpt lat="-3.0806690" lon="37.3650690">
    <ele>5575.0</ele>
    <time>2026-06-23T02:55:49Z</time>
   </trkpt>
   <trkpt lat="-3.0806690" lon="37.3650690">
    <ele>5575.0</ele>
    <time>2026-06-23T02:55:50Z</time>
   </trkpt>
   <trkpt lat="-3.0806690" lon="37.3650690">
    <ele>5575.0</ele>
    <time>2026-06-23T02:55:51Z</time>
   </trkpt>
   <trkpt lat="-3.0806690" lon="37.3650690">
    <ele>5575.0</ele>
    <time>2026-06-23T02:55:52Z</time>
   </trkpt>
   <trkpt lat="-3.0806690" lon="37.3650690">
    <ele>5575.0</ele>
    <time>2026-06-23T02:55:53Z</time>
   </trkpt>
   <trkpt lat="-3.0806690" lon="37.3650690">
    <ele>5575.0</ele>
    <time>2026-06-23T02:55:54Z</time>
   </trkpt>
   <trkpt lat="-3.0806690" lon="37.3650690">
    <ele>5575.0</ele>
    <time>2026-06-23T02:55:55Z</time>
   </trkpt>
   <trkpt lat="-3.0806690" lon="37.3650690">
    <ele>5575.0</ele>
    <time>2026-06-23T02:55:56Z</time>
   </trkpt>
   <trkpt lat="-3.0806690" lon="37.3650690">
    <ele>5575.0</ele>
    <time>2026-06-23T02:55:57Z</time>
   </trkpt>
   <trkpt lat="-3.0806690" lon="37.3650690">
    <ele>5575.0</ele>
    <time>2026-06-23T02:55:58Z</time>
   </trkpt>
   <trkpt lat="-3.0806600" lon="37.3650560">
    <ele>5575.4</ele>
    <time>2026-06-23T02:55:59Z</time>
   </trkpt>
   <trkpt lat="-3.0806600" lon="37.3650560">
    <ele>5575.4</ele>
    <time>2026-06-23T02:56:00Z</time>
   </trkpt>
   <trkpt lat="-3.0806600" lon="37.3650560">
    <ele>5575.4</ele>
    <time>2026-06-23T02:56:01Z</time>
   </trkpt>
   <trkpt lat="-3.0806600" lon="37.3650560">
    <ele>5575.4</ele>
    <time>2026-06-23T02:56:02Z</time>
   </trkpt>
   <trkpt lat="-3.0806600" lon="37.3650560">
    <ele>5575.4</ele>
    <time>2026-06-23T02:56:03Z</time>
   </trkpt>
   <trkpt lat="-3.0806600" lon="37.3650560">
    <ele>5575.4</ele>
    <time>2026-06-23T02:56:04Z</time>
   </trkpt>
   <trkpt lat="-3.0806600" lon="37.3650560">
    <ele>5575.4</ele>
    <time>2026-06-23T02:56:05Z</time>
   </trkpt>
   <trkpt lat="-3.0806600" lon="37.3650560">
    <ele>5575.4</ele>
    <time>2026-06-23T02:56:06Z</time>
   </trkpt>
   <trkpt lat="-3.0806600" lon="37.3650560">
    <ele>5575.4</ele>
    <time>2026-06-23T02:56:07Z</time>
   </trkpt>
   <trkpt lat="-3.0806600" lon="37.3650560">
    <ele>5575.4</ele>
    <time>2026-06-23T02:56:08Z</time>
   </trkpt>
   <trkpt lat="-3.0806600" lon="37.3650560">
    <ele>5575.4</ele>
    <time>2026-06-23T02:56:09Z</time>
   </trkpt>
   <trkpt lat="-3.0806600" lon="37.3650560">
    <ele>5575.4</ele>
    <time>2026-06-23T02:56:10Z</time>
   </trkpt>
   <trkpt lat="-3.0806600" lon="37.3650560">
    <ele>5575.4</ele>
    <time>2026-06-23T02:56:11Z</time>
   </trkpt>
   <trkpt lat="-3.0806600" lon="37.3650560">
    <ele>5575.4</ele>
    <time>2026-06-23T02:56:12Z</time>
   </trkpt>
   <trkpt lat="-3.0806520" lon="37.3650430">
    <ele>5575.7</ele>
    <time>2026-06-23T02:56:13Z</time>
   </trkpt>
   <trkpt lat="-3.0806520" lon="37.3650430">
    <ele>5575.7</ele>
    <time>2026-06-23T02:56:14Z</time>
   </trkpt>
   <trkpt lat="-3.0806520" lon="37.3650430">
    <ele>5575.7</ele>
    <time>2026-06-23T02:56:15Z</time>
   </trkpt>
   <trkpt lat="-3.0806520" lon="37.3650430">
    <ele>5575.7</ele>
    <time>2026-06-23T02:56:16Z</time>
   </trkpt>
   <trkpt lat="-3.0806520" lon="37.3650430">
    <ele>5575.7</ele>
    <time>2026-06-23T02:56:17Z</time>
   </trkpt>
   <trkpt lat="-3.0806520" lon="37.3650430">
    <ele>5575.7</ele>
    <time>2026-06-23T02:56:18Z</time>
   </trkpt>
   <trkpt lat="-3.0806520" lon="37.3650430">
    <ele>5575.7</ele>
    <time>2026-06-23T02:56:19Z</time>
   </trkpt>
   <trkpt lat="-3.0806520" lon="37.3650430">
    <ele>5575.7</ele>
    <time>2026-06-23T02:56:20Z</time>
   </trkpt>
   <trkpt lat="-3.0806520" lon="37.3650430">
    <ele>5575.7</ele>
    <time>2026-06-23T02:56:21Z</time>
   </trkpt>
   <trkpt lat="-3.0806520" lon="37.3650430">
    <ele>5575.7</ele>
    <time>2026-06-23T02:56:22Z</time>
   </trkpt>
   <trkpt lat="-3.0806520" lon="37.3650430">
    <ele>5575.7</ele>
    <time>2026-06-23T02:56:23Z</time>
   </trkpt>
   <trkpt lat="-3.0806520" lon="37.3650430">
    <ele>5575.7</ele>
    <time>2026-06-23T02:56:24Z</time>
   </trkpt>
   <trkpt lat="-3.0806520" lon="37.3650430">
    <ele>5575.7</ele>
    <time>2026-06-23T02:56:25Z</time>
   </trkpt>
   <trkpt lat="-3.0806520" lon="37.3650430">
    <ele>5575.7</ele>
    <time>2026-06-23T02:56:26Z</time>
   </trkpt>
   <trkpt lat="-3.0806430" lon="37.3650290">
    <ele>5576.1</ele>
    <time>2026-06-23T02:56:27Z</time>
   </trkpt>
   <trkpt lat="-3.0806430" lon="37.3650290">
    <ele>5576.1</ele>
    <time>2026-06-23T02:56:28Z</time>
   </trkpt>
   <trkpt lat="-3.0806430" lon="37.3650290">
    <ele>5576.1</ele>
    <time>2026-06-23T02:56:29Z</time>
   </trkpt>
   <trkpt lat="-3.0806430" lon="37.3650290">
    <ele>5576.1</ele>
    <time>2026-06-23T02:56:30Z</time>
   </trkpt>
   <trkpt lat="-3.0806430" lon="37.3650290">
    <ele>5576.1</ele>
    <time>2026-06-23T02:56:31Z</time>
   </trkpt>
   <trkpt lat="-3.0806430" lon="37.3650290">
    <ele>5576.1</ele>
    <time>2026-06-23T02:56:32Z</time>
   </trkpt>
   <trkpt lat="-3.0806430" lon="37.3650290">
    <ele>5576.1</ele>
    <time>2026-06-23T02:56:33Z</time>
   </trkpt>
   <trkpt lat="-3.0806430" lon="37.3650290">
    <ele>5576.1</ele>
    <time>2026-06-23T02:56:34Z</time>
   </trkpt>
   <trkpt lat="-3.0806430" lon="37.3650290">
    <ele>5576.1</ele>
    <time>2026-06-23T02:56:35Z</time>
   </trkpt>
   <trkpt lat="-3.0806430" lon="37.3650290">
    <ele>5576.1</ele>
    <time>2026-06-23T02:56:36Z</time>
   </trkpt>
   <trkpt lat="-3.0806430" lon="37.3650290">
    <ele>5576.1</ele>
    <time>2026-06-23T02:56:37Z</time>
   </trkpt>
   <trkpt lat="-3.0806430" lon="37.3650290">
    <ele>5576.1</ele>
    <time>2026-06-23T02:56:38Z</time>
   </trkpt>
   <trkpt lat="-3.0806430" lon="37.3650290">
    <ele>5576.1</ele>
    <time>2026-06-23T02:56:39Z</time>
   </trkpt>
   <trkpt lat="-3.0806430" lon="37.3650290">
    <ele>5576.1</ele>
    <time>2026-06-23T02:56:40Z</time>
   </trkpt>
   <trkpt lat="-3.0806430" lon="37.3650290">
    <ele>5576.1</ele>
    <time>2026-06-23T02:56:41Z</time>
   </trkpt>
   <trkpt lat="-3.0806430" lon="37.3650290">
    <ele>5576.1</ele>
    <time>2026-06-23T02:56:42Z</time>
   </trkpt>
   <trkpt lat="-3.0806430" lon="37.3650290">
    <ele>5576.1</ele>
    <time>2026-06-23T02:56:43Z</time>
   </trkpt>
   <trkpt lat="-3.0806340" lon="37.3650160">
    <ele>5576.5</ele>
    <time>2026-06-23T02:56:44Z</time>
   </trkpt>
   <trkpt lat="-3.0806340" lon="37.3650160">
    <ele>5576.5</ele>
    <time>2026-06-23T02:56:45Z</time>
   </trkpt>
   <trkpt lat="-3.0806340" lon="37.3650160">
    <ele>5576.5</ele>
    <time>2026-06-23T02:56:46Z</time>
   </trkpt>
   <trkpt lat="-3.0806340" lon="37.3650160">
    <ele>5576.5</ele>
    <time>2026-06-23T02:56:47Z</time>
   </trkpt>
   <trkpt lat="-3.0806340" lon="37.3650160">
    <ele>5576.5</ele>
    <time>2026-06-23T02:56:48Z</time>
   </trkpt>
   <trkpt lat="-3.0806340" lon="37.3650160">
    <ele>5576.5</ele>
    <time>2026-06-23T02:56:49Z</time>
   </trkpt>
   <trkpt lat="-3.0806340" lon="37.3650160">
    <ele>5576.5</ele>
    <time>2026-06-23T02:56:50Z</time>
   </trkpt>
   <trkpt lat="-3.0806340" lon="37.3650160">
    <ele>5576.5</ele>
    <time>2026-06-23T02:56:51Z</time>
   </trkpt>
   <trkpt lat="-3.0806340" lon="37.3650160">
    <ele>5576.5</ele>
    <time>2026-06-23T02:56:52Z</time>
   </trkpt>
   <trkpt lat="-3.0806340" lon="37.3650160">
    <ele>5576.5</ele>
    <time>2026-06-23T02:56:53Z</time>
   </trkpt>
   <trkpt lat="-3.0806340" lon="37.3650160">
    <ele>5576.5</ele>
    <time>2026-06-23T02:56:54Z</time>
   </trkpt>
   <trkpt lat="-3.0806340" lon="37.3650160">
    <ele>5576.5</ele>
    <time>2026-06-23T02:56:55Z</time>
   </trkpt>
   <trkpt lat="-3.0806250" lon="37.3650030">
    <ele>5576.8</ele>
    <time>2026-06-23T02:56:56Z</time>
   </trkpt>
   <trkpt lat="-3.0806250" lon="37.3650030">
    <ele>5576.8</ele>
    <time>2026-06-23T02:56:57Z</time>
   </trkpt>
   <trkpt lat="-3.0806250" lon="37.3650030">
    <ele>5576.8</ele>
    <time>2026-06-23T02:56:58Z</time>
   </trkpt>
   <trkpt lat="-3.0806250" lon="37.3650030">
    <ele>5576.8</ele>
    <time>2026-06-23T02:56:59Z</time>
   </trkpt>
   <trkpt lat="-3.0806250" lon="37.3650030">
    <ele>5576.8</ele>
    <time>2026-06-23T02:57:00Z</time>
   </trkpt>
   <trkpt lat="-3.0806250" lon="37.3650030">
    <ele>5576.8</ele>
    <time>2026-06-23T02:57:01Z</time>
   </trkpt>
   <trkpt lat="-3.0806250" lon="37.3650030">
    <ele>5576.8</ele>
    <time>2026-06-23T02:57:02Z</time>
   </trkpt>
   <trkpt lat="-3.0806250" lon="37.3650030">
    <ele>5576.8</ele>
    <time>2026-06-23T02:57:03Z</time>
   </trkpt>
   <trkpt lat="-3.0806250" lon="37.3650030">
    <ele>5576.8</ele>
    <time>2026-06-23T02:57:04Z</time>
   </trkpt>
   <trkpt lat="-3.0806250" lon="37.3650030">
    <ele>5576.8</ele>
    <time>2026-06-23T02:57:05Z</time>
   </trkpt>
   <trkpt lat="-3.0806250" lon="37.3650030">
    <ele>5576.8</ele>
    <time>2026-06-23T02:57:06Z</time>
   </trkpt>
   <trkpt lat="-3.0806250" lon="37.3650030">
    <ele>5576.8</ele>
    <time>2026-06-23T02:57:07Z</time>
   </trkpt>
   <trkpt lat="-3.0806250" lon="37.3650030">
    <ele>5576.8</ele>
    <time>2026-06-23T02:57:08Z</time>
   </trkpt>
   <trkpt lat="-3.0806250" lon="37.3650030">
    <ele>5576.8</ele>
    <time>2026-06-23T02:57:09Z</time>
   </trkpt>
   <trkpt lat="-3.0806250" lon="37.3650030">
    <ele>5576.8</ele>
    <time>2026-06-23T02:57:10Z</time>
   </trkpt>
   <trkpt lat="-3.0806250" lon="37.3650030">
    <ele>5576.8</ele>
    <time>2026-06-23T02:57:11Z</time>
   </trkpt>
   <trkpt lat="-3.0806250" lon="37.3650030">
    <ele>5576.8</ele>
    <time>2026-06-23T02:57:12Z</time>
   </trkpt>
   <trkpt lat="-3.0806250" lon="37.3650030">
    <ele>5576.8</ele>
    <time>2026-06-23T02:57:13Z</time>
   </trkpt>
   <trkpt lat="-3.0806250" lon="37.3650030">
    <ele>5576.8</ele>
    <time>2026-06-23T02:57:14Z</time>
   </trkpt>
   <trkpt lat="-3.0806250" lon="37.3650030">
    <ele>5576.8</ele>
    <time>2026-06-23T02:57:15Z</time>
   </trkpt>
   <trkpt lat="-3.0806250" lon="37.3650030">
    <ele>5576.8</ele>
    <time>2026-06-23T02:57:16Z</time>
   </trkpt>
   <trkpt lat="-3.0806250" lon="37.3650030">
    <ele>5576.8</ele>
    <time>2026-06-23T02:57:17Z</time>
   </trkpt>
   <trkpt lat="-3.0806250" lon="37.3650030">
    <ele>5576.8</ele>
    <time>2026-06-23T02:57:18Z</time>
   </trkpt>
   <trkpt lat="-3.0806250" lon="37.3650030">
    <ele>5576.8</ele>
    <time>2026-06-23T02:57:19Z</time>
   </trkpt>
   <trkpt lat="-3.0806250" lon="37.3650030">
    <ele>5576.8</ele>
    <time>2026-06-23T02:57:20Z</time>
   </trkpt>
   <trkpt lat="-3.0806250" lon="37.3650030">
    <ele>5576.8</ele>
    <time>2026-06-23T02:57:21Z</time>
   </trkpt>
   <trkpt lat="-3.0806250" lon="37.3650030">
    <ele>5576.8</ele>
    <time>2026-06-23T02:57:22Z</time>
   </trkpt>
   <trkpt lat="-3.0806170" lon="37.3649900">
    <ele>5577.2</ele>
    <time>2026-06-23T02:57:23Z</time>
   </trkpt>
   <trkpt lat="-3.0806170" lon="37.3649900">
    <ele>5577.2</ele>
    <time>2026-06-23T02:57:24Z</time>
   </trkpt>
   <trkpt lat="-3.0806170" lon="37.3649900">
    <ele>5577.2</ele>
    <time>2026-06-23T02:57:25Z</time>
   </trkpt>
   <trkpt lat="-3.0806170" lon="37.3649900">
    <ele>5577.2</ele>
    <time>2026-06-23T02:57:26Z</time>
   </trkpt>
   <trkpt lat="-3.0806170" lon="37.3649900">
    <ele>5577.2</ele>
    <time>2026-06-23T02:57:27Z</time>
   </trkpt>
   <trkpt lat="-3.0806170" lon="37.3649900">
    <ele>5577.2</ele>
    <time>2026-06-23T02:57:28Z</time>
   </trkpt>
   <trkpt lat="-3.0806170" lon="37.3649900">
    <ele>5577.2</ele>
    <time>2026-06-23T02:57:29Z</time>
   </trkpt>
   <trkpt lat="-3.0806170" lon="37.3649900">
    <ele>5577.2</ele>
    <time>2026-06-23T02:57:30Z</time>
   </trkpt>
   <trkpt lat="-3.0806080" lon="37.3649770">
    <ele>5577.5</ele>
    <time>2026-06-23T02:57:31Z</time>
   </trkpt>
   <trkpt lat="-3.0806080" lon="37.3649770">
    <ele>5577.5</ele>
    <time>2026-06-23T02:57:32Z</time>
   </trkpt>
   <trkpt lat="-3.0806080" lon="37.3649770">
    <ele>5577.5</ele>
    <time>2026-06-23T02:57:33Z</time>
   </trkpt>
   <trkpt lat="-3.0806080" lon="37.3649770">
    <ele>5577.5</ele>
    <time>2026-06-23T02:57:34Z</time>
   </trkpt>
   <trkpt lat="-3.0806080" lon="37.3649770">
    <ele>5577.5</ele>
    <time>2026-06-23T02:57:35Z</time>
   </trkpt>
   <trkpt lat="-3.0806080" lon="37.3649770">
    <ele>5577.5</ele>
    <time>2026-06-23T02:57:36Z</time>
   </trkpt>
   <trkpt lat="-3.0806080" lon="37.3649770">
    <ele>5577.5</ele>
    <time>2026-06-23T02:57:37Z</time>
   </trkpt>
   <trkpt lat="-3.0806080" lon="37.3649770">
    <ele>5577.5</ele>
    <time>2026-06-23T02:57:38Z</time>
   </trkpt>
   <trkpt lat="-3.0806080" lon="37.3649770">
    <ele>5577.5</ele>
    <time>2026-06-23T02:57:39Z</time>
   </trkpt>
   <trkpt lat="-3.0806080" lon="37.3649770">
    <ele>5577.5</ele>
    <time>2026-06-23T02:57:40Z</time>
   </trkpt>
   <trkpt lat="-3.0806080" lon="37.3649770">
    <ele>5577.5</ele>
    <time>2026-06-23T02:57:41Z</time>
   </trkpt>
   <trkpt lat="-3.0806080" lon="37.3649770">
    <ele>5577.5</ele>
    <time>2026-06-23T02:57:42Z</time>
   </trkpt>
   <trkpt lat="-3.0806080" lon="37.3649770">
    <ele>5577.5</ele>
    <time>2026-06-23T02:57:43Z</time>
   </trkpt>
   <trkpt lat="-3.0805990" lon="37.3649630">
    <ele>5577.9</ele>
    <time>2026-06-23T02:57:44Z</time>
   </trkpt>
   <trkpt lat="-3.0805990" lon="37.3649630">
    <ele>5577.9</ele>
    <time>2026-06-23T02:57:45Z</time>
   </trkpt>
   <trkpt lat="-3.0805990" lon="37.3649630">
    <ele>5577.9</ele>
    <time>2026-06-23T02:57:46Z</time>
   </trkpt>
   <trkpt lat="-3.0805990" lon="37.3649630">
    <ele>5577.9</ele>
    <time>2026-06-23T02:57:47Z</time>
   </trkpt>
   <trkpt lat="-3.0805990" lon="37.3649630">
    <ele>5577.9</ele>
    <time>2026-06-23T02:57:48Z</time>
   </trkpt>
   <trkpt lat="-3.0805990" lon="37.3649630">
    <ele>5577.9</ele>
    <time>2026-06-23T02:57:49Z</time>
   </trkpt>
   <trkpt lat="-3.0805990" lon="37.3649630">
    <ele>5577.9</ele>
    <time>2026-06-23T02:57:50Z</time>
   </trkpt>
   <trkpt lat="-3.0805990" lon="37.3649630">
    <ele>5577.9</ele>
    <time>2026-06-23T02:57:51Z</time>
   </trkpt>
   <trkpt lat="-3.0805990" lon="37.3649630">
    <ele>5577.9</ele>
    <time>2026-06-23T02:57:52Z</time>
   </trkpt>
   <trkpt lat="-3.0805990" lon="37.3649630">
    <ele>5577.9</ele>
    <time>2026-06-23T02:57:53Z</time>
   </trkpt>
   <trkpt lat="-3.0805900" lon="37.3649490">
    <ele>5578.3</ele>
    <time>2026-06-23T02:57:54Z</time>
   </trkpt>
   <trkpt lat="-3.0805900" lon="37.3649490">
    <ele>5578.3</ele>
    <time>2026-06-23T02:57:55Z</time>
   </trkpt>
   <trkpt lat="-3.0805900" lon="37.3649490">
    <ele>5578.3</ele>
    <time>2026-06-23T02:57:56Z</time>
   </trkpt>
   <trkpt lat="-3.0805900" lon="37.3649490">
    <ele>5578.3</ele>
    <time>2026-06-23T02:57:57Z</time>
   </trkpt>
   <trkpt lat="-3.0805900" lon="37.3649490">
    <ele>5578.3</ele>
    <time>2026-06-23T02:57:58Z</time>
   </trkpt>
   <trkpt lat="-3.0805900" lon="37.3649490">
    <ele>5578.3</ele>
    <time>2026-06-23T02:57:59Z</time>
   </trkpt>
   <trkpt lat="-3.0805900" lon="37.3649490">
    <ele>5578.3</ele>
    <time>2026-06-23T02:58:00Z</time>
   </trkpt>
   <trkpt lat="-3.0805900" lon="37.3649490">
    <ele>5578.3</ele>
    <time>2026-06-23T02:58:01Z</time>
   </trkpt>
   <trkpt lat="-3.0805900" lon="37.3649490">
    <ele>5578.3</ele>
    <time>2026-06-23T02:58:02Z</time>
   </trkpt>
   <trkpt lat="-3.0805900" lon="37.3649490">
    <ele>5578.3</ele>
    <time>2026-06-23T02:58:03Z</time>
   </trkpt>
   <trkpt lat="-3.0805900" lon="37.3649490">
    <ele>5578.3</ele>
    <time>2026-06-23T02:58:04Z</time>
   </trkpt>
   <trkpt lat="-3.0805900" lon="37.3649490">
    <ele>5578.3</ele>
    <time>2026-06-23T02:58:05Z</time>
   </trkpt>
   <trkpt lat="-3.0805900" lon="37.3649490">
    <ele>5578.3</ele>
    <time>2026-06-23T02:58:06Z</time>
   </trkpt>
   <trkpt lat="-3.0805810" lon="37.3649360">
    <ele>5578.6</ele>
    <time>2026-06-23T02:58:07Z</time>
   </trkpt>
   <trkpt lat="-3.0805810" lon="37.3649360">
    <ele>5578.6</ele>
    <time>2026-06-23T02:58:08Z</time>
   </trkpt>
   <trkpt lat="-3.0805810" lon="37.3649360">
    <ele>5578.6</ele>
    <time>2026-06-23T02:58:09Z</time>
   </trkpt>
   <trkpt lat="-3.0805810" lon="37.3649360">
    <ele>5578.6</ele>
    <time>2026-06-23T02:58:10Z</time>
   </trkpt>
   <trkpt lat="-3.0805810" lon="37.3649360">
    <ele>5578.6</ele>
    <time>2026-06-23T02:58:11Z</time>
   </trkpt>
   <trkpt lat="-3.0805810" lon="37.3649360">
    <ele>5578.6</ele>
    <time>2026-06-23T02:58:12Z</time>
   </trkpt>
   <trkpt lat="-3.0805810" lon="37.3649360">
    <ele>5578.6</ele>
    <time>2026-06-23T02:58:13Z</time>
   </trkpt>
   <trkpt lat="-3.0805810" lon="37.3649360">
    <ele>5578.6</ele>
    <time>2026-06-23T02:58:14Z</time>
   </trkpt>
   <trkpt lat="-3.0805810" lon="37.3649360">
    <ele>5578.6</ele>
    <time>2026-06-23T02:58:15Z</time>
   </trkpt>
   <trkpt lat="-3.0805810" lon="37.3649360">
    <ele>5578.6</ele>
    <time>2026-06-23T02:58:16Z</time>
   </trkpt>
   <trkpt lat="-3.0805810" lon="37.3649360">
    <ele>5578.6</ele>
    <time>2026-06-23T02:58:17Z</time>
   </trkpt>
   <trkpt lat="-3.0805810" lon="37.3649360">
    <ele>5578.6</ele>
    <time>2026-06-23T02:58:18Z</time>
   </trkpt>
   <trkpt lat="-3.0805810" lon="37.3649360">
    <ele>5578.6</ele>
    <time>2026-06-23T02:58:19Z</time>
   </trkpt>
   <trkpt lat="-3.0805810" lon="37.3649360">
    <ele>5578.6</ele>
    <time>2026-06-23T02:58:20Z</time>
   </trkpt>
   <trkpt lat="-3.0805730" lon="37.3649230">
    <ele>5579.0</ele>
    <time>2026-06-23T02:58:21Z</time>
   </trkpt>
   <trkpt lat="-3.0805730" lon="37.3649230">
    <ele>5579.0</ele>
    <time>2026-06-23T02:58:22Z</time>
   </trkpt>
   <trkpt lat="-3.0805730" lon="37.3649230">
    <ele>5579.0</ele>
    <time>2026-06-23T02:58:23Z</time>
   </trkpt>
   <trkpt lat="-3.0805730" lon="37.3649230">
    <ele>5579.0</ele>
    <time>2026-06-23T02:58:24Z</time>
   </trkpt>
   <trkpt lat="-3.0805730" lon="37.3649230">
    <ele>5579.0</ele>
    <time>2026-06-23T02:58:25Z</time>
   </trkpt>
   <trkpt lat="-3.0805730" lon="37.3649230">
    <ele>5579.0</ele>
    <time>2026-06-23T02:58:26Z</time>
   </trkpt>
   <trkpt lat="-3.0805730" lon="37.3649230">
    <ele>5579.0</ele>
    <time>2026-06-23T02:58:27Z</time>
   </trkpt>
   <trkpt lat="-3.0805730" lon="37.3649230">
    <ele>5579.0</ele>
    <time>2026-06-23T02:58:28Z</time>
   </trkpt>
   <trkpt lat="-3.0805730" lon="37.3649230">
    <ele>5579.0</ele>
    <time>2026-06-23T02:58:29Z</time>
   </trkpt>
   <trkpt lat="-3.0805730" lon="37.3649230">
    <ele>5579.0</ele>
    <time>2026-06-23T02:58:30Z</time>
   </trkpt>
   <trkpt lat="-3.0805730" lon="37.3649230">
    <ele>5579.0</ele>
    <time>2026-06-23T02:58:31Z</time>
   </trkpt>
   <trkpt lat="-3.0805730" lon="37.3649230">
    <ele>5579.0</ele>
    <time>2026-06-23T02:58:32Z</time>
   </trkpt>
   <trkpt lat="-3.0805730" lon="37.3649230">
    <ele>5579.0</ele>
    <time>2026-06-23T02:58:33Z</time>
   </trkpt>
   <trkpt lat="-3.0805730" lon="37.3649230">
    <ele>5579.0</ele>
    <time>2026-06-23T02:58:34Z</time>
   </trkpt>
   <trkpt lat="-3.0805730" lon="37.3649230">
    <ele>5579.0</ele>
    <time>2026-06-23T02:58:35Z</time>
   </trkpt>
   <trkpt lat="-3.0805630" lon="37.3649090">
    <ele>5579.4</ele>
    <time>2026-06-23T02:58:36Z</time>
   </trkpt>
   <trkpt lat="-3.0805630" lon="37.3649090">
    <ele>5579.4</ele>
    <time>2026-06-23T02:58:37Z</time>
   </trkpt>
   <trkpt lat="-3.0805630" lon="37.3649090">
    <ele>5579.4</ele>
    <time>2026-06-23T02:58:38Z</time>
   </trkpt>
   <trkpt lat="-3.0805630" lon="37.3649090">
    <ele>5579.4</ele>
    <time>2026-06-23T02:58:39Z</time>
   </trkpt>
   <trkpt lat="-3.0805630" lon="37.3649090">
    <ele>5579.4</ele>
    <time>2026-06-23T02:58:40Z</time>
   </trkpt>
   <trkpt lat="-3.0805630" lon="37.3649090">
    <ele>5579.4</ele>
    <time>2026-06-23T02:58:41Z</time>
   </trkpt>
   <trkpt lat="-3.0805630" lon="37.3649090">
    <ele>5579.4</ele>
    <time>2026-06-23T02:58:42Z</time>
   </trkpt>
   <trkpt lat="-3.0805630" lon="37.3649090">
    <ele>5579.4</ele>
    <time>2026-06-23T02:58:43Z</time>
   </trkpt>
   <trkpt lat="-3.0805630" lon="37.3649090">
    <ele>5579.4</ele>
    <time>2026-06-23T02:58:44Z</time>
   </trkpt>
   <trkpt lat="-3.0805630" lon="37.3649090">
    <ele>5579.4</ele>
    <time>2026-06-23T02:58:45Z</time>
   </trkpt>
   <trkpt lat="-3.0805630" lon="37.3649090">
    <ele>5579.4</ele>
    <time>2026-06-23T02:58:46Z</time>
   </trkpt>
   <trkpt lat="-3.0805630" lon="37.3649090">
    <ele>5579.4</ele>
    <time>2026-06-23T02:58:47Z</time>
   </trkpt>
   <trkpt lat="-3.0805630" lon="37.3649090">
    <ele>5579.4</ele>
    <time>2026-06-23T02:58:48Z</time>
   </trkpt>
   <trkpt lat="-3.0805630" lon="37.3649090">
    <ele>5579.4</ele>
    <time>2026-06-23T02:58:49Z</time>
   </trkpt>
   <trkpt lat="-3.0805540" lon="37.3648960">
    <ele>5579.7</ele>
    <time>2026-06-23T02:58:50Z</time>
   </trkpt>
   <trkpt lat="-3.0805540" lon="37.3648960">
    <ele>5579.7</ele>
    <time>2026-06-23T02:58:51Z</time>
   </trkpt>
   <trkpt lat="-3.0805540" lon="37.3648960">
    <ele>5579.7</ele>
    <time>2026-06-23T02:58:52Z</time>
   </trkpt>
   <trkpt lat="-3.0805540" lon="37.3648960">
    <ele>5579.7</ele>
    <time>2026-06-23T02:58:53Z</time>
   </trkpt>
   <trkpt lat="-3.0805540" lon="37.3648960">
    <ele>5579.7</ele>
    <time>2026-06-23T02:58:54Z</time>
   </trkpt>
   <trkpt lat="-3.0805540" lon="37.3648960">
    <ele>5579.7</ele>
    <time>2026-06-23T02:58:55Z</time>
   </trkpt>
   <trkpt lat="-3.0805540" lon="37.3648960">
    <ele>5579.7</ele>
    <time>2026-06-23T02:58:56Z</time>
   </trkpt>
   <trkpt lat="-3.0805540" lon="37.3648960">
    <ele>5579.7</ele>
    <time>2026-06-23T02:58:57Z</time>
   </trkpt>
   <trkpt lat="-3.0805540" lon="37.3648960">
    <ele>5579.7</ele>
    <time>2026-06-23T02:58:58Z</time>
   </trkpt>
   <trkpt lat="-3.0805540" lon="37.3648960">
    <ele>5579.7</ele>
    <time>2026-06-23T02:58:59Z</time>
   </trkpt>
   <trkpt lat="-3.0805540" lon="37.3648960">
    <ele>5579.7</ele>
    <time>2026-06-23T02:59:00Z</time>
   </trkpt>
   <trkpt lat="-3.0805540" lon="37.3648960">
    <ele>5579.7</ele>
    <time>2026-06-23T02:59:01Z</time>
   </trkpt>
   <trkpt lat="-3.0805450" lon="37.3648820">
    <ele>5580.1</ele>
    <time>2026-06-23T02:59:02Z</time>
   </trkpt>
   <trkpt lat="-3.0805450" lon="37.3648820">
    <ele>5580.1</ele>
    <time>2026-06-23T02:59:03Z</time>
   </trkpt>
   <trkpt lat="-3.0805450" lon="37.3648820">
    <ele>5580.1</ele>
    <time>2026-06-23T02:59:04Z</time>
   </trkpt>
   <trkpt lat="-3.0805450" lon="37.3648820">
    <ele>5580.1</ele>
    <time>2026-06-23T02:59:05Z</time>
   </trkpt>
   <trkpt lat="-3.0805450" lon="37.3648820">
    <ele>5580.1</ele>
    <time>2026-06-23T02:59:06Z</time>
   </trkpt>
   <trkpt lat="-3.0805450" lon="37.3648820">
    <ele>5580.1</ele>
    <time>2026-06-23T02:59:07Z</time>
   </trkpt>
   <trkpt lat="-3.0805450" lon="37.3648820">
    <ele>5580.1</ele>
    <time>2026-06-23T02:59:08Z</time>
   </trkpt>
   <trkpt lat="-3.0805450" lon="37.3648820">
    <ele>5580.1</ele>
    <time>2026-06-23T02:59:09Z</time>
   </trkpt>
   <trkpt lat="-3.0805450" lon="37.3648820">
    <ele>5580.1</ele>
    <time>2026-06-23T02:59:10Z</time>
   </trkpt>
   <trkpt lat="-3.0805450" lon="37.3648820">
    <ele>5580.1</ele>
    <time>2026-06-23T02:59:11Z</time>
   </trkpt>
   <trkpt lat="-3.0805360" lon="37.3648680">
    <ele>5580.5</ele>
    <time>2026-06-23T02:59:12Z</time>
   </trkpt>
   <trkpt lat="-3.0805360" lon="37.3648680">
    <ele>5580.5</ele>
    <time>2026-06-23T02:59:13Z</time>
   </trkpt>
   <trkpt lat="-3.0805360" lon="37.3648680">
    <ele>5580.5</ele>
    <time>2026-06-23T02:59:14Z</time>
   </trkpt>
   <trkpt lat="-3.0805360" lon="37.3648680">
    <ele>5580.5</ele>
    <time>2026-06-23T02:59:15Z</time>
   </trkpt>
   <trkpt lat="-3.0805360" lon="37.3648680">
    <ele>5580.5</ele>
    <time>2026-06-23T02:59:16Z</time>
   </trkpt>
   <trkpt lat="-3.0805360" lon="37.3648680">
    <ele>5580.5</ele>
    <time>2026-06-23T02:59:17Z</time>
   </trkpt>
   <trkpt lat="-3.0805250" lon="37.3648510">
    <ele>5580.9</ele>
    <time>2026-06-23T02:59:18Z</time>
   </trkpt>
   <trkpt lat="-3.0805360" lon="37.3648600">
    <ele>5581.2</ele>
    <time>2026-06-23T02:59:19Z</time>
   </trkpt>
   <trkpt lat="-3.0805670" lon="37.3648710">
    <ele>5581.9</ele>
    <time>2026-06-23T02:59:20Z</time>
   </trkpt>
   <trkpt lat="-3.0804780" lon="37.3648370">
    <ele>5583.9</ele>
    <time>2026-06-23T02:59:21Z</time>
   </trkpt>
   <trkpt lat="-3.0804770" lon="37.3648370">
    <ele>5583.9</ele>
    <time>2026-06-23T02:59:22Z</time>
   </trkpt>
   <trkpt lat="-3.0804760" lon="37.3648360">
    <ele>5583.9</ele>
    <time>2026-06-23T02:59:23Z</time>
   </trkpt>
   <trkpt lat="-3.0804750" lon="37.3648360">
    <ele>5584.0</ele>
    <time>2026-06-23T02:59:24Z</time>
   </trkpt>
   <trkpt lat="-3.0804740" lon="37.3648350">
    <ele>5584.0</ele>
    <time>2026-06-23T02:59:25Z</time>
   </trkpt>
   <trkpt lat="-3.0804730" lon="37.3648350">
    <ele>5584.0</ele>
    <time>2026-06-23T02:59:26Z</time>
   </trkpt>
   <trkpt lat="-3.0804720" lon="37.3648340">
    <ele>5584.0</ele>
    <time>2026-06-23T02:59:27Z</time>
   </trkpt>
   <trkpt lat="-3.0804710" lon="37.3648340">
    <ele>5584.1</ele>
    <time>2026-06-23T02:59:28Z</time>
   </trkpt>
   <trkpt lat="-3.0804700" lon="37.3648330">
    <ele>5584.1</ele>
    <time>2026-06-23T02:59:29Z</time>
   </trkpt>
   <trkpt lat="-3.0804680" lon="37.3648330">
    <ele>5584.1</ele>
    <time>2026-06-23T02:59:30Z</time>
   </trkpt>
   <trkpt lat="-3.0804670" lon="37.3648330">
    <ele>5584.2</ele>
    <time>2026-06-23T02:59:31Z</time>
   </trkpt>
   <trkpt lat="-3.0804660" lon="37.3648320">
    <ele>5584.2</ele>
    <time>2026-06-23T02:59:32Z</time>
   </trkpt>
   <trkpt lat="-3.0804650" lon="37.3648320">
    <ele>5584.2</ele>
    <time>2026-06-23T02:59:33Z</time>
   </trkpt>
   <trkpt lat="-3.0804640" lon="37.3648310">
    <ele>5584.2</ele>
    <time>2026-06-23T02:59:34Z</time>
   </trkpt>
   <trkpt lat="-3.0804630" lon="37.3648310">
    <ele>5584.3</ele>
    <time>2026-06-23T02:59:35Z</time>
   </trkpt>
   <trkpt lat="-3.0804620" lon="37.3648300">
    <ele>5584.3</ele>
    <time>2026-06-23T02:59:36Z</time>
   </trkpt>
   <trkpt lat="-3.0804610" lon="37.3648300">
    <ele>5584.3</ele>
    <time>2026-06-23T02:59:37Z</time>
   </trkpt>
   <trkpt lat="-3.0804600" lon="37.3648290">
    <ele>5584.3</ele>
    <time>2026-06-23T02:59:38Z</time>
   </trkpt>
   <trkpt lat="-3.0804590" lon="37.3648290">
    <ele>5584.4</ele>
    <time>2026-06-23T02:59:39Z</time>
   </trkpt>
   <trkpt lat="-3.0804580" lon="37.3648280">
    <ele>5584.4</ele>
    <time>2026-06-23T02:59:40Z</time>
   </trkpt>
   <trkpt lat="-3.0804570" lon="37.3648280">
    <ele>5584.4</ele>
    <time>2026-06-23T02:59:41Z</time>
   </trkpt>
   <trkpt lat="-3.0804560" lon="37.3648280">
    <ele>5584.4</ele>
    <time>2026-06-23T02:59:42Z</time>
   </trkpt>
   <trkpt lat="-3.0804550" lon="37.3648270">
    <ele>5584.5</ele>
    <time>2026-06-23T02:59:43Z</time>
   </trkpt>
   <trkpt lat="-3.0804540" lon="37.3648270">
    <ele>5584.5</ele>
    <time>2026-06-23T02:59:44Z</time>
   </trkpt>
   <trkpt lat="-3.0804530" lon="37.3648260">
    <ele>5584.5</ele>
    <time>2026-06-23T02:59:45Z</time>
   </trkpt>
   <trkpt lat="-3.0804520" lon="37.3648260">
    <ele>5584.5</ele>
    <time>2026-06-23T02:59:46Z</time>
   </trkpt>
   <trkpt lat="-3.0804500" lon="37.3648250">
    <ele>5584.6</ele>
    <time>2026-06-23T02:59:47Z</time>
   </trkpt>
   <trkpt lat="-3.0804490" lon="37.3648250">
    <ele>5584.6</ele>
    <time>2026-06-23T02:59:48Z</time>
   </trkpt>
   <trkpt lat="-3.0804480" lon="37.3648240">
    <ele>5584.6</ele>
    <time>2026-06-23T02:59:49Z</time>
   </trkpt>
   <trkpt lat="-3.0804470" lon="37.3648240">
    <ele>5584.6</ele>
    <time>2026-06-23T02:59:50Z</time>
   </trkpt>
   <trkpt lat="-3.0804460" lon="37.3648240">
    <ele>5584.7</ele>
    <time>2026-06-23T02:59:51Z</time>
   </trkpt>
   <trkpt lat="-3.0804450" lon="37.3648230">
    <ele>5584.7</ele>
    <time>2026-06-23T02:59:52Z</time>
   </trkpt>
   <trkpt lat="-3.0804440" lon="37.3648230">
    <ele>5584.7</ele>
    <time>2026-06-23T02:59:53Z</time>
   </trkpt>
   <trkpt lat="-3.0804430" lon="37.3648220">
    <ele>5584.7</ele>
    <time>2026-06-23T02:59:54Z</time>
   </trkpt>
   <trkpt lat="-3.0804420" lon="37.3648220">
    <ele>5584.8</ele>
    <time>2026-06-23T02:59:55Z</time>
   </trkpt>
   <trkpt lat="-3.0804410" lon="37.3648210">
    <ele>5584.8</ele>
    <time>2026-06-23T02:59:56Z</time>
   </trkpt>
   <trkpt lat="-3.0804400" lon="37.3648210">
    <ele>5584.8</ele>
    <time>2026-06-23T02:59:57Z</time>
   </trkpt>
   <trkpt lat="-3.0804390" lon="37.3648200">
    <ele>5584.8</ele>
    <time>2026-06-23T02:59:58Z</time>
   </trkpt>
   <trkpt lat="-3.0804380" lon="37.3648200">
    <ele>5584.9</ele>
    <time>2026-06-23T02:59:59Z</time>
   </trkpt>
   <trkpt lat="-3.0804370" lon="37.3648190">
    <ele>5584.9</ele>
    <time>2026-06-23T03:00:00Z</time>
   </trkpt>
   <trkpt lat="-3.0804360" lon="37.3648190">
    <ele>5584.9</ele>
    <time>2026-06-23T03:00:01Z</time>
   </trkpt>
   <trkpt lat="-3.0804350" lon="37.3648190">
    <ele>5584.9</ele>
    <time>2026-06-23T03:00:02Z</time>
   </trkpt>
   <trkpt lat="-3.0804340" lon="37.3648180">
    <ele>5585.0</ele>
    <time>2026-06-23T03:00:03Z</time>
   </trkpt>
   <trkpt lat="-3.0804320" lon="37.3648180">
    <ele>5585.0</ele>
    <time>2026-06-23T03:00:04Z</time>
   </trkpt>
   <trkpt lat="-3.0804310" lon="37.3648170">
    <ele>5585.0</ele>
    <time>2026-06-23T03:00:05Z</time>
   </trkpt>
   <trkpt lat="-3.0804300" lon="37.3648170">
    <ele>5585.0</ele>
    <time>2026-06-23T03:00:06Z</time>
   </trkpt>
   <trkpt lat="-3.0804290" lon="37.3648160">
    <ele>5585.1</ele>
    <time>2026-06-23T03:00:07Z</time>
   </trkpt>
   <trkpt lat="-3.0804280" lon="37.3648160">
    <ele>5585.1</ele>
    <time>2026-06-23T03:00:08Z</time>
   </trkpt>
   <trkpt lat="-3.0804270" lon="37.3648150">
    <ele>5585.1</ele>
    <time>2026-06-23T03:00:09Z</time>
   </trkpt>
   <trkpt lat="-3.0804260" lon="37.3648150">
    <ele>5585.1</ele>
    <time>2026-06-23T03:00:10Z</time>
   </trkpt>
   <trkpt lat="-3.0804250" lon="37.3648150">
    <ele>5585.2</ele>
    <time>2026-06-23T03:00:11Z</time>
   </trkpt>
   <trkpt lat="-3.0804240" lon="37.3648140">
    <ele>5585.2</ele>
    <time>2026-06-23T03:00:12Z</time>
   </trkpt>
   <trkpt lat="-3.0804230" lon="37.3648140">
    <ele>5585.2</ele>
    <time>2026-06-23T03:00:13Z</time>
   </trkpt>
   <trkpt lat="-3.0804220" lon="37.3648130">
    <ele>5585.2</ele>
    <time>2026-06-23T03:00:14Z</time>
   </trkpt>
   <trkpt lat="-3.0804210" lon="37.3648130">
    <ele>5585.3</ele>
    <time>2026-06-23T03:00:15Z</time>
   </trkpt>
   <trkpt lat="-3.0804200" lon="37.3648120">
    <ele>5585.3</ele>
    <time>2026-06-23T03:00:16Z</time>
   </trkpt>
   <trkpt lat="-3.0804190" lon="37.3648120">
    <ele>5585.3</ele>
    <time>2026-06-23T03:00:17Z</time>
   </trkpt>
   <trkpt lat="-3.0804180" lon="37.3648110">
    <ele>5585.3</ele>
    <time>2026-06-23T03:00:18Z</time>
   </trkpt>
   <trkpt lat="-3.0804170" lon="37.3648110">
    <ele>5585.3</ele>
    <time>2026-06-23T03:00:19Z</time>
   </trkpt>
   <trkpt lat="-3.0804160" lon="37.3648100">
    <ele>5585.4</ele>
    <time>2026-06-23T03:00:20Z</time>
   </trkpt>
   <trkpt lat="-3.0804140" lon="37.3648100">
    <ele>5585.4</ele>
    <time>2026-06-23T03:00:21Z</time>
   </trkpt>
   <trkpt lat="-3.0804130" lon="37.3648100">
    <ele>5585.4</ele>
    <time>2026-06-23T03:00:22Z</time>
   </trkpt>
   <trkpt lat="-3.0804120" lon="37.3648090">
    <ele>5585.5</ele>
    <time>2026-06-23T03:00:23Z</time>
   </trkpt>
   <trkpt lat="-3.0804110" lon="37.3648090">
    <ele>5585.5</ele>
    <time>2026-06-23T03:00:24Z</time>
   </trkpt>
   <trkpt lat="-3.0804100" lon="37.3648080">
    <ele>5585.5</ele>
    <time>2026-06-23T03:00:25Z</time>
   </trkpt>
   <trkpt lat="-3.0804090" lon="37.3648080">
    <ele>5585.5</ele>
    <time>2026-06-23T03:00:26Z</time>
   </trkpt>
   <trkpt lat="-3.0804080" lon="37.3648070">
    <ele>5585.6</ele>
    <time>2026-06-23T03:00:27Z</time>
   </trkpt>
   <trkpt lat="-3.0804070" lon="37.3648070">
    <ele>5585.6</ele>
    <time>2026-06-23T03:00:28Z</time>
   </trkpt>
   <trkpt lat="-3.0804060" lon="37.3648060">
    <ele>5585.6</ele>
    <time>2026-06-23T03:00:29Z</time>
   </trkpt>
   <trkpt lat="-3.0804050" lon="37.3648060">
    <ele>5585.6</ele>
    <time>2026-06-23T03:00:30Z</time>
   </trkpt>
   <trkpt lat="-3.0804040" lon="37.3648060">
    <ele>5585.7</ele>
    <time>2026-06-23T03:00:31Z</time>
   </trkpt>
   <trkpt lat="-3.0804030" lon="37.3648050">
    <ele>5585.7</ele>
    <time>2026-06-23T03:00:32Z</time>
   </trkpt>
   <trkpt lat="-3.0804020" lon="37.3648050">
    <ele>5585.7</ele>
    <time>2026-06-23T03:00:33Z</time>
   </trkpt>
   <trkpt lat="-3.0803980" lon="37.3648030">
    <ele>5585.8</ele>
    <time>2026-06-23T03:00:34Z</time>
   </trkpt>
   <trkpt lat="-3.0803950" lon="37.3648020">
    <ele>5585.9</ele>
    <time>2026-06-23T03:00:35Z</time>
   </trkpt>
   <trkpt lat="-3.0803930" lon="37.3648010">
    <ele>5585.9</ele>
    <time>2026-06-23T03:00:36Z</time>
   </trkpt>
   <trkpt lat="-3.0803910" lon="37.3648000">
    <ele>5585.9</ele>
    <time>2026-06-23T03:00:37Z</time>
   </trkpt>
   <trkpt lat="-3.0803890" lon="37.3647990">
    <ele>5586.0</ele>
    <time>2026-06-23T03:00:38Z</time>
   </trkpt>
   <trkpt lat="-3.0803870" lon="37.3647980">
    <ele>5586.0</ele>
    <time>2026-06-23T03:00:39Z</time>
   </trkpt>
   <trkpt lat="-3.0803850" lon="37.3647980">
    <ele>5586.1</ele>
    <time>2026-06-23T03:00:40Z</time>
   </trkpt>
   <trkpt lat="-3.0803830" lon="37.3647970">
    <ele>5586.1</ele>
    <time>2026-06-23T03:00:41Z</time>
   </trkpt>
   <trkpt lat="-3.0803810" lon="37.3647960">
    <ele>5586.2</ele>
    <time>2026-06-23T03:00:42Z</time>
   </trkpt>
   <trkpt lat="-3.0803790" lon="37.3647950">
    <ele>5586.2</ele>
    <time>2026-06-23T03:00:43Z</time>
   </trkpt>
   <trkpt lat="-3.0803770" lon="37.3647940">
    <ele>5586.2</ele>
    <time>2026-06-23T03:00:44Z</time>
   </trkpt>
   <trkpt lat="-3.0803740" lon="37.3647930">
    <ele>5586.3</ele>
    <time>2026-06-23T03:00:45Z</time>
   </trkpt>
   <trkpt lat="-3.0803720" lon="37.3647920">
    <ele>5586.4</ele>
    <time>2026-06-23T03:00:46Z</time>
   </trkpt>
   <trkpt lat="-3.0803700" lon="37.3647910">
    <ele>5586.4</ele>
    <time>2026-06-23T03:00:47Z</time>
   </trkpt>
   <trkpt lat="-3.0803680" lon="37.3647900">
    <ele>5586.4</ele>
    <time>2026-06-23T03:00:48Z</time>
   </trkpt>
   <trkpt lat="-3.0803660" lon="37.3647900">
    <ele>5586.5</ele>
    <time>2026-06-23T03:00:49Z</time>
   </trkpt>
   <trkpt lat="-3.0803640" lon="37.3647890">
    <ele>5586.5</ele>
    <time>2026-06-23T03:00:50Z</time>
   </trkpt>
   <trkpt lat="-3.0803620" lon="37.3647880">
    <ele>5586.6</ele>
    <time>2026-06-23T03:00:51Z</time>
   </trkpt>
   <trkpt lat="-3.0803600" lon="37.3647870">
    <ele>5586.6</ele>
    <time>2026-06-23T03:00:52Z</time>
   </trkpt>
   <trkpt lat="-3.0803580" lon="37.3647860">
    <ele>5586.7</ele>
    <time>2026-06-23T03:00:53Z</time>
   </trkpt>
   <trkpt lat="-3.0803560" lon="37.3647850">
    <ele>5586.7</ele>
    <time>2026-06-23T03:00:54Z</time>
   </trkpt>
   <trkpt lat="-3.0803530" lon="37.3647840">
    <ele>5586.8</ele>
    <time>2026-06-23T03:00:55Z</time>
   </trkpt>
   <trkpt lat="-3.0803510" lon="37.3647830">
    <ele>5586.8</ele>
    <time>2026-06-23T03:00:56Z</time>
   </trkpt>
   <trkpt lat="-3.0803490" lon="37.3647820">
    <ele>5586.9</ele>
    <time>2026-06-23T03:00:57Z</time>
   </trkpt>
   <trkpt lat="-3.0803470" lon="37.3647820">
    <ele>5586.9</ele>
    <time>2026-06-23T03:00:58Z</time>
   </trkpt>
   <trkpt lat="-3.0803450" lon="37.3647810">
    <ele>5586.9</ele>
    <time>2026-06-23T03:00:59Z</time>
   </trkpt>
   <trkpt lat="-3.0803430" lon="37.3647800">
    <ele>5587.0</ele>
    <time>2026-06-23T03:01:00Z</time>
   </trkpt>
   <trkpt lat="-3.0803410" lon="37.3647790">
    <ele>5587.0</ele>
    <time>2026-06-23T03:01:01Z</time>
   </trkpt>
   <trkpt lat="-3.0803390" lon="37.3647780">
    <ele>5587.1</ele>
    <time>2026-06-23T03:01:02Z</time>
   </trkpt>
   <trkpt lat="-3.0803370" lon="37.3647770">
    <ele>5587.1</ele>
    <time>2026-06-23T03:01:03Z</time>
   </trkpt>
   <trkpt lat="-3.0803350" lon="37.3647760">
    <ele>5587.2</ele>
    <time>2026-06-23T03:01:04Z</time>
   </trkpt>
   <trkpt lat="-3.0803320" lon="37.3647750">
    <ele>5587.2</ele>
    <time>2026-06-23T03:01:05Z</time>
   </trkpt>
   <trkpt lat="-3.0803300" lon="37.3647740">
    <ele>5587.3</ele>
    <time>2026-06-23T03:01:06Z</time>
   </trkpt>
   <trkpt lat="-3.0803280" lon="37.3647730">
    <ele>5587.3</ele>
    <time>2026-06-23T03:01:07Z</time>
   </trkpt>
   <trkpt lat="-3.0803270" lon="37.3647730">
    <ele>5587.3</ele>
    <time>2026-06-23T03:01:08Z</time>
   </trkpt>
   <trkpt lat="-3.0803250" lon="37.3647720">
    <ele>5587.4</ele>
    <time>2026-06-23T03:01:09Z</time>
   </trkpt>
   <trkpt lat="-3.0803240" lon="37.3647720">
    <ele>5587.4</ele>
    <time>2026-06-23T03:01:10Z</time>
   </trkpt>
   <trkpt lat="-3.0803220" lon="37.3647710">
    <ele>5587.5</ele>
    <time>2026-06-23T03:01:11Z</time>
   </trkpt>
   <trkpt lat="-3.0803210" lon="37.3647700">
    <ele>5587.5</ele>
    <time>2026-06-23T03:01:12Z</time>
   </trkpt>
   <trkpt lat="-3.0803190" lon="37.3647700">
    <ele>5587.5</ele>
    <time>2026-06-23T03:01:13Z</time>
   </trkpt>
   <trkpt lat="-3.0803170" lon="37.3647690">
    <ele>5587.6</ele>
    <time>2026-06-23T03:01:14Z</time>
   </trkpt>
   <trkpt lat="-3.0803160" lon="37.3647680">
    <ele>5587.6</ele>
    <time>2026-06-23T03:01:15Z</time>
   </trkpt>
   <trkpt lat="-3.0803140" lon="37.3647680">
    <ele>5587.6</ele>
    <time>2026-06-23T03:01:16Z</time>
   </trkpt>
   <trkpt lat="-3.0803130" lon="37.3647670">
    <ele>5587.7</ele>
    <time>2026-06-23T03:01:17Z</time>
   </trkpt>
   <trkpt lat="-3.0803110" lon="37.3647660">
    <ele>5587.7</ele>
    <time>2026-06-23T03:01:18Z</time>
   </trkpt>
   <trkpt lat="-3.0803100" lon="37.3647660">
    <ele>5587.7</ele>
    <time>2026-06-23T03:01:19Z</time>
   </trkpt>
   <trkpt lat="-3.0803080" lon="37.3647650">
    <ele>5587.8</ele>
    <time>2026-06-23T03:01:20Z</time>
   </trkpt>
   <trkpt lat="-3.0803070" lon="37.3647640">
    <ele>5587.8</ele>
    <time>2026-06-23T03:01:21Z</time>
   </trkpt>
   <trkpt lat="-3.0803050" lon="37.3647640">
    <ele>5587.8</ele>
    <time>2026-06-23T03:01:22Z</time>
   </trkpt>
   <trkpt lat="-3.0803040" lon="37.3647630">
    <ele>5587.9</ele>
    <time>2026-06-23T03:01:23Z</time>
   </trkpt>
   <trkpt lat="-3.0803020" lon="37.3647620">
    <ele>5587.9</ele>
    <time>2026-06-23T03:01:24Z</time>
   </trkpt>
   <trkpt lat="-3.0803010" lon="37.3647620">
    <ele>5587.9</ele>
    <time>2026-06-23T03:01:25Z</time>
   </trkpt>
   <trkpt lat="-3.0802990" lon="37.3647610">
    <ele>5588.0</ele>
    <time>2026-06-23T03:01:26Z</time>
   </trkpt>
   <trkpt lat="-3.0802970" lon="37.3647600">
    <ele>5588.0</ele>
    <time>2026-06-23T03:01:27Z</time>
   </trkpt>
   <trkpt lat="-3.0802960" lon="37.3647600">
    <ele>5588.0</ele>
    <time>2026-06-23T03:01:28Z</time>
   </trkpt>
   <trkpt lat="-3.0802940" lon="37.3647590">
    <ele>5588.1</ele>
    <time>2026-06-23T03:01:29Z</time>
   </trkpt>
   <trkpt lat="-3.0802930" lon="37.3647580">
    <ele>5588.1</ele>
    <time>2026-06-23T03:01:30Z</time>
   </trkpt>
   <trkpt lat="-3.0802910" lon="37.3647580">
    <ele>5588.2</ele>
    <time>2026-06-23T03:01:31Z</time>
   </trkpt>
   <trkpt lat="-3.0802900" lon="37.3647570">
    <ele>5588.2</ele>
    <time>2026-06-23T03:01:32Z</time>
   </trkpt>
   <trkpt lat="-3.0802880" lon="37.3647570">
    <ele>5588.2</ele>
    <time>2026-06-23T03:01:33Z</time>
   </trkpt>
   <trkpt lat="-3.0802870" lon="37.3647560">
    <ele>5588.3</ele>
    <time>2026-06-23T03:01:34Z</time>
   </trkpt>
   <trkpt lat="-3.0802850" lon="37.3647550">
    <ele>5588.3</ele>
    <time>2026-06-23T03:01:35Z</time>
   </trkpt>
   <trkpt lat="-3.0802840" lon="37.3647550">
    <ele>5588.3</ele>
    <time>2026-06-23T03:01:36Z</time>
   </trkpt>
   <trkpt lat="-3.0802820" lon="37.3647540">
    <ele>5588.4</ele>
    <time>2026-06-23T03:01:37Z</time>
   </trkpt>
   <trkpt lat="-3.0802810" lon="37.3647530">
    <ele>5588.4</ele>
    <time>2026-06-23T03:01:38Z</time>
   </trkpt>
   <trkpt lat="-3.0802790" lon="37.3647530">
    <ele>5588.4</ele>
    <time>2026-06-23T03:01:39Z</time>
   </trkpt>
   <trkpt lat="-3.0802770" lon="37.3647520">
    <ele>5588.5</ele>
    <time>2026-06-23T03:01:40Z</time>
   </trkpt>
   <trkpt lat="-3.0802760" lon="37.3647510">
    <ele>5588.5</ele>
    <time>2026-06-23T03:01:41Z</time>
   </trkpt>
   <trkpt lat="-3.0802740" lon="37.3647510">
    <ele>5588.5</ele>
    <time>2026-06-23T03:01:42Z</time>
   </trkpt>
   <trkpt lat="-3.0802730" lon="37.3647500">
    <ele>5588.6</ele>
    <time>2026-06-23T03:01:43Z</time>
   </trkpt>
   <trkpt lat="-3.0802710" lon="37.3647490">
    <ele>5588.6</ele>
    <time>2026-06-23T03:01:44Z</time>
   </trkpt>
   <trkpt lat="-3.0802700" lon="37.3647490">
    <ele>5588.6</ele>
    <time>2026-06-23T03:01:45Z</time>
   </trkpt>
   <trkpt lat="-3.0802680" lon="37.3647480">
    <ele>5588.7</ele>
    <time>2026-06-23T03:01:46Z</time>
   </trkpt>
   <trkpt lat="-3.0802670" lon="37.3647470">
    <ele>5588.7</ele>
    <time>2026-06-23T03:01:47Z</time>
   </trkpt>
   <trkpt lat="-3.0802650" lon="37.3647470">
    <ele>5588.8</ele>
    <time>2026-06-23T03:01:48Z</time>
   </trkpt>
   <trkpt lat="-3.0802640" lon="37.3647460">
    <ele>5588.8</ele>
    <time>2026-06-23T03:01:49Z</time>
   </trkpt>
   <trkpt lat="-3.0802620" lon="37.3647450">
    <ele>5588.8</ele>
    <time>2026-06-23T03:01:50Z</time>
   </trkpt>
   <trkpt lat="-3.0802610" lon="37.3647450">
    <ele>5588.8</ele>
    <time>2026-06-23T03:01:51Z</time>
   </trkpt>
   <trkpt lat="-3.0802590" lon="37.3647440">
    <ele>5588.9</ele>
    <time>2026-06-23T03:01:52Z</time>
   </trkpt>
   <trkpt lat="-3.0802570" lon="37.3647430">
    <ele>5588.9</ele>
    <time>2026-06-23T03:01:53Z</time>
   </trkpt>
   <trkpt lat="-3.0802560" lon="37.3647430">
    <ele>5589.0</ele>
    <time>2026-06-23T03:01:54Z</time>
   </trkpt>
   <trkpt lat="-3.0802540" lon="37.3647420">
    <ele>5589.0</ele>
    <time>2026-06-23T03:01:55Z</time>
   </trkpt>
   <trkpt lat="-3.0802530" lon="37.3647420">
    <ele>5589.0</ele>
    <time>2026-06-23T03:01:56Z</time>
   </trkpt>
   <trkpt lat="-3.0802510" lon="37.3647410">
    <ele>5589.1</ele>
    <time>2026-06-23T03:01:57Z</time>
   </trkpt>
   <trkpt lat="-3.0802500" lon="37.3647400">
    <ele>5589.1</ele>
    <time>2026-06-23T03:01:58Z</time>
   </trkpt>
   <trkpt lat="-3.0802480" lon="37.3647400">
    <ele>5589.1</ele>
    <time>2026-06-23T03:01:59Z</time>
   </trkpt>
   <trkpt lat="-3.0802470" lon="37.3647390">
    <ele>5589.2</ele>
    <time>2026-06-23T03:02:00Z</time>
   </trkpt>
   <trkpt lat="-3.0802460" lon="37.3647390">
    <ele>5589.2</ele>
    <time>2026-06-23T03:02:01Z</time>
   </trkpt>
   <trkpt lat="-3.0802450" lon="37.3647380">
    <ele>5589.2</ele>
    <time>2026-06-23T03:02:02Z</time>
   </trkpt>
   <trkpt lat="-3.0802430" lon="37.3647370">
    <ele>5589.3</ele>
    <time>2026-06-23T03:02:03Z</time>
   </trkpt>
   <trkpt lat="-3.0802420" lon="37.3647370">
    <ele>5589.3</ele>
    <time>2026-06-23T03:02:04Z</time>
   </trkpt>
   <trkpt lat="-3.0802410" lon="37.3647360">
    <ele>5589.3</ele>
    <time>2026-06-23T03:02:05Z</time>
   </trkpt>
   <trkpt lat="-3.0802390" lon="37.3647360">
    <ele>5589.3</ele>
    <time>2026-06-23T03:02:06Z</time>
   </trkpt>
   <trkpt lat="-3.0802380" lon="37.3647350">
    <ele>5589.4</ele>
    <time>2026-06-23T03:02:07Z</time>
   </trkpt>
   <trkpt lat="-3.0802370" lon="37.3647350">
    <ele>5589.4</ele>
    <time>2026-06-23T03:02:08Z</time>
   </trkpt>
   <trkpt lat="-3.0802360" lon="37.3647340">
    <ele>5589.4</ele>
    <time>2026-06-23T03:02:09Z</time>
   </trkpt>
   <trkpt lat="-3.0802340" lon="37.3647340">
    <ele>5589.5</ele>
    <time>2026-06-23T03:02:10Z</time>
   </trkpt>
   <trkpt lat="-3.0802330" lon="37.3647330">
    <ele>5589.5</ele>
    <time>2026-06-23T03:02:11Z</time>
   </trkpt>
   <trkpt lat="-3.0802320" lon="37.3647330">
    <ele>5589.5</ele>
    <time>2026-06-23T03:02:12Z</time>
   </trkpt>
   <trkpt lat="-3.0802300" lon="37.3647320">
    <ele>5589.5</ele>
    <time>2026-06-23T03:02:13Z</time>
   </trkpt>
   <trkpt lat="-3.0802290" lon="37.3647310">
    <ele>5589.6</ele>
    <time>2026-06-23T03:02:14Z</time>
   </trkpt>
   <trkpt lat="-3.0802280" lon="37.3647310">
    <ele>5589.6</ele>
    <time>2026-06-23T03:02:15Z</time>
   </trkpt>
   <trkpt lat="-3.0802260" lon="37.3647300">
    <ele>5589.6</ele>
    <time>2026-06-23T03:02:16Z</time>
   </trkpt>
   <trkpt lat="-3.0802250" lon="37.3647300">
    <ele>5589.7</ele>
    <time>2026-06-23T03:02:17Z</time>
   </trkpt>
   <trkpt lat="-3.0802240" lon="37.3647290">
    <ele>5589.7</ele>
    <time>2026-06-23T03:02:18Z</time>
   </trkpt>
   <trkpt lat="-3.0802230" lon="37.3647290">
    <ele>5589.7</ele>
    <time>2026-06-23T03:02:19Z</time>
   </trkpt>
   <trkpt lat="-3.0802210" lon="37.3647280">
    <ele>5589.8</ele>
    <time>2026-06-23T03:02:20Z</time>
   </trkpt>
   <trkpt lat="-3.0802200" lon="37.3647280">
    <ele>5589.8</ele>
    <time>2026-06-23T03:02:21Z</time>
   </trkpt>
   <trkpt lat="-3.0802190" lon="37.3647270">
    <ele>5589.8</ele>
    <time>2026-06-23T03:02:22Z</time>
   </trkpt>
   <trkpt lat="-3.0802170" lon="37.3647260">
    <ele>5589.8</ele>
    <time>2026-06-23T03:02:23Z</time>
   </trkpt>
   <trkpt lat="-3.0802160" lon="37.3647260">
    <ele>5589.9</ele>
    <time>2026-06-23T03:02:24Z</time>
   </trkpt>
   <trkpt lat="-3.0802150" lon="37.3647250">
    <ele>5589.9</ele>
    <time>2026-06-23T03:02:25Z</time>
   </trkpt>
   <trkpt lat="-3.0802140" lon="37.3647250">
    <ele>5589.9</ele>
    <time>2026-06-23T03:02:26Z</time>
   </trkpt>
   <trkpt lat="-3.0802120" lon="37.3647240">
    <ele>5590.0</ele>
    <time>2026-06-23T03:02:27Z</time>
   </trkpt>
   <trkpt lat="-3.0802110" lon="37.3647240">
    <ele>5590.0</ele>
    <time>2026-06-23T03:02:28Z</time>
   </trkpt>
   <trkpt lat="-3.0802100" lon="37.3647230">
    <ele>5590.0</ele>
    <time>2026-06-23T03:02:29Z</time>
   </trkpt>
   <trkpt lat="-3.0802080" lon="37.3647230">
    <ele>5590.0</ele>
    <time>2026-06-23T03:02:30Z</time>
   </trkpt>
   <trkpt lat="-3.0802070" lon="37.3647220">
    <ele>5590.1</ele>
    <time>2026-06-23T03:02:31Z</time>
   </trkpt>
   <trkpt lat="-3.0802060" lon="37.3647220">
    <ele>5590.1</ele>
    <time>2026-06-23T03:02:32Z</time>
   </trkpt>
   <trkpt lat="-3.0802040" lon="37.3647210">
    <ele>5590.1</ele>
    <time>2026-06-23T03:02:33Z</time>
   </trkpt>
   <trkpt lat="-3.0802030" lon="37.3647200">
    <ele>5590.2</ele>
    <time>2026-06-23T03:02:34Z</time>
   </trkpt>
   <trkpt lat="-3.0802020" lon="37.3647200">
    <ele>5590.2</ele>
    <time>2026-06-23T03:02:35Z</time>
   </trkpt>
   <trkpt lat="-3.0802010" lon="37.3647200">
    <ele>5590.2</ele>
    <time>2026-06-23T03:02:36Z</time>
   </trkpt>
   <trkpt lat="-3.0802010" lon="37.3647200">
    <ele>5590.2</ele>
    <time>2026-06-23T03:02:37Z</time>
   </trkpt>
   <trkpt lat="-3.0802010" lon="37.3647190">
    <ele>5590.2</ele>
    <time>2026-06-23T03:02:38Z</time>
   </trkpt>
   <trkpt lat="-3.0802000" lon="37.3647190">
    <ele>5590.3</ele>
    <time>2026-06-23T03:02:39Z</time>
   </trkpt>
   <trkpt lat="-3.0802000" lon="37.3647190">
    <ele>5590.3</ele>
    <time>2026-06-23T03:02:40Z</time>
   </trkpt>
   <trkpt lat="-3.0801990" lon="37.3647190">
    <ele>5590.3</ele>
    <time>2026-06-23T03:02:41Z</time>
   </trkpt>
   <trkpt lat="-3.0801990" lon="37.3647190">
    <ele>5590.3</ele>
    <time>2026-06-23T03:02:42Z</time>
   </trkpt>
   <trkpt lat="-3.0801990" lon="37.3647180">
    <ele>5590.3</ele>
    <time>2026-06-23T03:02:43Z</time>
   </trkpt>
   <trkpt lat="-3.0801980" lon="37.3647180">
    <ele>5590.3</ele>
    <time>2026-06-23T03:02:44Z</time>
   </trkpt>
   <trkpt lat="-3.0801980" lon="37.3647180">
    <ele>5590.3</ele>
    <time>2026-06-23T03:02:45Z</time>
   </trkpt>
   <trkpt lat="-3.0801970" lon="37.3647180">
    <ele>5590.3</ele>
    <time>2026-06-23T03:02:46Z</time>
   </trkpt>
   <trkpt lat="-3.0801970" lon="37.3647180">
    <ele>5590.3</ele>
    <time>2026-06-23T03:02:47Z</time>
   </trkpt>
   <trkpt lat="-3.0801960" lon="37.3647180">
    <ele>5590.4</ele>
    <time>2026-06-23T03:02:48Z</time>
   </trkpt>
   <trkpt lat="-3.0801960" lon="37.3647170">
    <ele>5590.4</ele>
    <time>2026-06-23T03:02:49Z</time>
   </trkpt>
   <trkpt lat="-3.0801960" lon="37.3647170">
    <ele>5590.4</ele>
    <time>2026-06-23T03:02:50Z</time>
   </trkpt>
   <trkpt lat="-3.0801950" lon="37.3647170">
    <ele>5590.4</ele>
    <time>2026-06-23T03:02:51Z</time>
   </trkpt>
   <trkpt lat="-3.0801950" lon="37.3647170">
    <ele>5590.4</ele>
    <time>2026-06-23T03:02:52Z</time>
   </trkpt>
   <trkpt lat="-3.0801940" lon="37.3647170">
    <ele>5590.4</ele>
    <time>2026-06-23T03:02:53Z</time>
   </trkpt>
   <trkpt lat="-3.0801940" lon="37.3647160">
    <ele>5590.4</ele>
    <time>2026-06-23T03:02:54Z</time>
   </trkpt>
   <trkpt lat="-3.0801930" lon="37.3647160">
    <ele>5590.5</ele>
    <time>2026-06-23T03:02:55Z</time>
   </trkpt>
   <trkpt lat="-3.0801930" lon="37.3647160">
    <ele>5590.5</ele>
    <time>2026-06-23T03:02:56Z</time>
   </trkpt>
   <trkpt lat="-3.0801930" lon="37.3647160">
    <ele>5590.5</ele>
    <time>2026-06-23T03:02:57Z</time>
   </trkpt>
   <trkpt lat="-3.0801920" lon="37.3647160">
    <ele>5590.5</ele>
    <time>2026-06-23T03:02:58Z</time>
   </trkpt>
   <trkpt lat="-3.0801920" lon="37.3647160">
    <ele>5590.5</ele>
    <time>2026-06-23T03:02:59Z</time>
   </trkpt>
   <trkpt lat="-3.0801910" lon="37.3647150">
    <ele>5590.5</ele>
    <time>2026-06-23T03:03:00Z</time>
   </trkpt>
   <trkpt lat="-3.0801910" lon="37.3647150">
    <ele>5590.5</ele>
    <time>2026-06-23T03:03:01Z</time>
   </trkpt>
   <trkpt lat="-3.0801900" lon="37.3647150">
    <ele>5590.5</ele>
    <time>2026-06-23T03:03:02Z</time>
   </trkpt>
   <trkpt lat="-3.0801900" lon="37.3647150">
    <ele>5590.5</ele>
    <time>2026-06-23T03:03:03Z</time>
   </trkpt>
   <trkpt lat="-3.0801900" lon="37.3647150">
    <ele>5590.5</ele>
    <time>2026-06-23T03:03:04Z</time>
   </trkpt>
   <trkpt lat="-3.0801890" lon="37.3647150">
    <ele>5590.5</ele>
    <time>2026-06-23T03:03:05Z</time>
   </trkpt>
   <trkpt lat="-3.0801890" lon="37.3647140">
    <ele>5590.6</ele>
    <time>2026-06-23T03:03:06Z</time>
   </trkpt>
   <trkpt lat="-3.0801880" lon="37.3647140">
    <ele>5590.6</ele>
    <time>2026-06-23T03:03:07Z</time>
   </trkpt>
   <trkpt lat="-3.0801880" lon="37.3647140">
    <ele>5590.6</ele>
    <time>2026-06-23T03:03:08Z</time>
   </trkpt>
   <trkpt lat="-3.0801880" lon="37.3647140">
    <ele>5590.6</ele>
    <time>2026-06-23T03:03:09Z</time>
   </trkpt>
   <trkpt lat="-3.0801870" lon="37.3647140">
    <ele>5590.6</ele>
    <time>2026-06-23T03:03:10Z</time>
   </trkpt>
   <trkpt lat="-3.0801870" lon="37.3647130">
    <ele>5590.6</ele>
    <time>2026-06-23T03:03:11Z</time>
   </trkpt>
   <trkpt lat="-3.0801860" lon="37.3647130">
    <ele>5590.6</ele>
    <time>2026-06-23T03:03:12Z</time>
   </trkpt>
   <trkpt lat="-3.0801860" lon="37.3647130">
    <ele>5590.6</ele>
    <time>2026-06-23T03:03:13Z</time>
   </trkpt>
   <trkpt lat="-3.0801850" lon="37.3647130">
    <ele>5590.7</ele>
    <time>2026-06-23T03:03:14Z</time>
   </trkpt>
   <trkpt lat="-3.0801850" lon="37.3647130">
    <ele>5590.7</ele>
    <time>2026-06-23T03:03:15Z</time>
   </trkpt>
   <trkpt lat="-3.0801850" lon="37.3647130">
    <ele>5590.7</ele>
    <time>2026-06-23T03:03:16Z</time>
   </trkpt>
   <trkpt lat="-3.0801840" lon="37.3647120">
    <ele>5590.7</ele>
    <time>2026-06-23T03:03:17Z</time>
   </trkpt>
   <trkpt lat="-3.0801840" lon="37.3647120">
    <ele>5590.7</ele>
    <time>2026-06-23T03:03:18Z</time>
   </trkpt>
   <trkpt lat="-3.0801830" lon="37.3647120">
    <ele>5590.7</ele>
    <time>2026-06-23T03:03:19Z</time>
   </trkpt>
   <trkpt lat="-3.0801830" lon="37.3647120">
    <ele>5590.7</ele>
    <time>2026-06-23T03:03:20Z</time>
   </trkpt>
   <trkpt lat="-3.0801820" lon="37.3647120">
    <ele>5590.7</ele>
    <time>2026-06-23T03:03:21Z</time>
   </trkpt>
   <trkpt lat="-3.0801820" lon="37.3647110">
    <ele>5590.8</ele>
    <time>2026-06-23T03:03:22Z</time>
   </trkpt>
   <trkpt lat="-3.0801820" lon="37.3647110">
    <ele>5590.8</ele>
    <time>2026-06-23T03:03:23Z</time>
   </trkpt>
   <trkpt lat="-3.0801810" lon="37.3647110">
    <ele>5590.8</ele>
    <time>2026-06-23T03:03:24Z</time>
   </trkpt>
   <trkpt lat="-3.0801810" lon="37.3647110">
    <ele>5590.8</ele>
    <time>2026-06-23T03:03:25Z</time>
   </trkpt>
   <trkpt lat="-3.0801800" lon="37.3647110">
    <ele>5590.8</ele>
    <time>2026-06-23T03:03:26Z</time>
   </trkpt>
   <trkpt lat="-3.0801800" lon="37.3647110">
    <ele>5590.8</ele>
    <time>2026-06-23T03:03:27Z</time>
   </trkpt>
   <trkpt lat="-3.0801790" lon="37.3647100">
    <ele>5590.8</ele>
    <time>2026-06-23T03:03:28Z</time>
   </trkpt>
   <trkpt lat="-3.0801790" lon="37.3647100">
    <ele>5590.8</ele>
    <time>2026-06-23T03:03:29Z</time>
   </trkpt>
   <trkpt lat="-3.0801790" lon="37.3647100">
    <ele>5590.8</ele>
    <time>2026-06-23T03:03:30Z</time>
   </trkpt>
   <trkpt lat="-3.0801780" lon="37.3647100">
    <ele>5590.8</ele>
    <time>2026-06-23T03:03:31Z</time>
   </trkpt>
   <trkpt lat="-3.0801780" lon="37.3647100">
    <ele>5590.8</ele>
    <time>2026-06-23T03:03:32Z</time>
   </trkpt>
   <trkpt lat="-3.0801770" lon="37.3647090">
    <ele>5590.9</ele>
    <time>2026-06-23T03:03:33Z</time>
   </trkpt>
   <trkpt lat="-3.0801770" lon="37.3647090">
    <ele>5590.9</ele>
    <time>2026-06-23T03:03:34Z</time>
   </trkpt>
   <trkpt lat="-3.0801770" lon="37.3647090">
    <ele>5590.9</ele>
    <time>2026-06-23T03:03:35Z</time>
   </trkpt>
   <trkpt lat="-3.0801760" lon="37.3647090">
    <ele>5590.9</ele>
    <time>2026-06-23T03:03:36Z</time>
   </trkpt>
   <trkpt lat="-3.0801760" lon="37.3647090">
    <ele>5590.9</ele>
    <time>2026-06-23T03:03:37Z</time>
   </trkpt>
   <trkpt lat="-3.0801750" lon="37.3647090">
    <ele>5590.9</ele>
    <time>2026-06-23T03:03:38Z</time>
   </trkpt>
   <trkpt lat="-3.0801750" lon="37.3647080">
    <ele>5590.9</ele>
    <time>2026-06-23T03:03:39Z</time>
   </trkpt>
   <trkpt lat="-3.0801740" lon="37.3647080">
    <ele>5591.0</ele>
    <time>2026-06-23T03:03:40Z</time>
   </trkpt>
   <trkpt lat="-3.0801740" lon="37.3647080">
    <ele>5591.0</ele>
    <time>2026-06-23T03:03:41Z</time>
   </trkpt>
   <trkpt lat="-3.0801740" lon="37.3647080">
    <ele>5591.0</ele>
    <time>2026-06-23T03:03:42Z</time>
   </trkpt>
   <trkpt lat="-3.0801730" lon="37.3647080">
    <ele>5591.0</ele>
    <time>2026-06-23T03:03:43Z</time>
   </trkpt>
   <trkpt lat="-3.0801730" lon="37.3647080">
    <ele>5591.0</ele>
    <time>2026-06-23T03:03:44Z</time>
   </trkpt>
   <trkpt lat="-3.0801720" lon="37.3647070">
    <ele>5591.0</ele>
    <time>2026-06-23T03:03:45Z</time>
   </trkpt>
   <trkpt lat="-3.0801720" lon="37.3647070">
    <ele>5591.0</ele>
    <time>2026-06-23T03:03:46Z</time>
   </trkpt>
   <trkpt lat="-3.0801710" lon="37.3647070">
    <ele>5591.0</ele>
    <time>2026-06-23T03:03:47Z</time>
   </trkpt>
   <trkpt lat="-3.0801710" lon="37.3647070">
    <ele>5591.0</ele>
    <time>2026-06-23T03:03:48Z</time>
   </trkpt>
   <trkpt lat="-3.0801710" lon="37.3647070">
    <ele>5591.0</ele>
    <time>2026-06-23T03:03:49Z</time>
   </trkpt>
   <trkpt lat="-3.0801700" lon="37.3647060">
    <ele>5591.1</ele>
    <time>2026-06-23T03:03:50Z</time>
   </trkpt>
   <trkpt lat="-3.0801700" lon="37.3647060">
    <ele>5591.1</ele>
    <time>2026-06-23T03:03:51Z</time>
   </trkpt>
   <trkpt lat="-3.0801690" lon="37.3647060">
    <ele>5591.1</ele>
    <time>2026-06-23T03:03:52Z</time>
   </trkpt>
   <trkpt lat="-3.0801690" lon="37.3647060">
    <ele>5591.1</ele>
    <time>2026-06-23T03:03:53Z</time>
   </trkpt>
   <trkpt lat="-3.0801690" lon="37.3647060">
    <ele>5591.1</ele>
    <time>2026-06-23T03:03:54Z</time>
   </trkpt>
   <trkpt lat="-3.0801680" lon="37.3647060">
    <ele>5591.1</ele>
    <time>2026-06-23T03:03:55Z</time>
   </trkpt>
   <trkpt lat="-3.0801680" lon="37.3647050">
    <ele>5591.1</ele>
    <time>2026-06-23T03:03:56Z</time>
   </trkpt>
   <trkpt lat="-3.0801670" lon="37.3647050">
    <ele>5591.1</ele>
    <time>2026-06-23T03:03:57Z</time>
   </trkpt>
   <trkpt lat="-3.0801670" lon="37.3647050">
    <ele>5591.1</ele>
    <time>2026-06-23T03:03:58Z</time>
   </trkpt>
   <trkpt lat="-3.0801660" lon="37.3647050">
    <ele>5591.2</ele>
    <time>2026-06-23T03:03:59Z</time>
   </trkpt>
   <trkpt lat="-3.0801660" lon="37.3647050">
    <ele>5591.2</ele>
    <time>2026-06-23T03:04:00Z</time>
   </trkpt>
   <trkpt lat="-3.0801660" lon="37.3647040">
    <ele>5591.2</ele>
    <time>2026-06-23T03:04:01Z</time>
   </trkpt>
   <trkpt lat="-3.0801650" lon="37.3647040">
    <ele>5591.2</ele>
    <time>2026-06-23T03:04:02Z</time>
   </trkpt>
   <trkpt lat="-3.0801650" lon="37.3647040">
    <ele>5591.2</ele>
    <time>2026-06-23T03:04:03Z</time>
   </trkpt>
   <trkpt lat="-3.0801640" lon="37.3647040">
    <ele>5591.2</ele>
    <time>2026-06-23T03:04:04Z</time>
   </trkpt>
   <trkpt lat="-3.0801640" lon="37.3647040">
    <ele>5591.2</ele>
    <time>2026-06-23T03:04:05Z</time>
   </trkpt>
   <trkpt lat="-3.0801630" lon="37.3647040">
    <ele>5591.2</ele>
    <time>2026-06-23T03:04:06Z</time>
   </trkpt>
   <trkpt lat="-3.0801630" lon="37.3647030">
    <ele>5591.3</ele>
    <time>2026-06-23T03:04:07Z</time>
   </trkpt>
   <trkpt lat="-3.0801630" lon="37.3647030">
    <ele>5591.3</ele>
    <time>2026-06-23T03:04:08Z</time>
   </trkpt>
   <trkpt lat="-3.0801620" lon="37.3647030">
    <ele>5591.3</ele>
    <time>2026-06-23T03:04:09Z</time>
   </trkpt>
   <trkpt lat="-3.0801620" lon="37.3647030">
    <ele>5591.3</ele>
    <time>2026-06-23T03:04:10Z</time>
   </trkpt>
   <trkpt lat="-3.0801610" lon="37.3647030">
    <ele>5591.3</ele>
    <time>2026-06-23T03:04:11Z</time>
   </trkpt>
   <trkpt lat="-3.0801610" lon="37.3647030">
    <ele>5591.3</ele>
    <time>2026-06-23T03:04:12Z</time>
   </trkpt>
   <trkpt lat="-3.0801600" lon="37.3647020">
    <ele>5591.3</ele>
    <time>2026-06-23T03:04:13Z</time>
   </trkpt>
   <trkpt lat="-3.0801600" lon="37.3647020">
    <ele>5591.3</ele>
    <time>2026-06-23T03:04:14Z</time>
   </trkpt>
   <trkpt lat="-3.0801600" lon="37.3647020">
    <ele>5591.3</ele>
    <time>2026-06-23T03:04:15Z</time>
   </trkpt>
   <trkpt lat="-3.0801590" lon="37.3647020">
    <ele>5591.4</ele>
    <time>2026-06-23T03:04:16Z</time>
   </trkpt>
   <trkpt lat="-3.0801590" lon="37.3647020">
    <ele>5591.4</ele>
    <time>2026-06-23T03:04:17Z</time>
   </trkpt>
   <trkpt lat="-3.0801580" lon="37.3647010">
    <ele>5591.4</ele>
    <time>2026-06-23T03:04:18Z</time>
   </trkpt>
   <trkpt lat="-3.0801580" lon="37.3647010">
    <ele>5591.4</ele>
    <time>2026-06-23T03:04:19Z</time>
   </trkpt>
   <trkpt lat="-3.0801580" lon="37.3647010">
    <ele>5591.4</ele>
    <time>2026-06-23T03:04:20Z</time>
   </trkpt>
   <trkpt lat="-3.0801570" lon="37.3647010">
    <ele>5591.4</ele>
    <time>2026-06-23T03:04:21Z</time>
   </trkpt>
   <trkpt lat="-3.0801570" lon="37.3647010">
    <ele>5591.4</ele>
    <time>2026-06-23T03:04:22Z</time>
   </trkpt>
   <trkpt lat="-3.0801560" lon="37.3647010">
    <ele>5591.4</ele>
    <time>2026-06-23T03:04:23Z</time>
   </trkpt>
   <trkpt lat="-3.0801560" lon="37.3647000">
    <ele>5591.4</ele>
    <time>2026-06-23T03:04:24Z</time>
   </trkpt>
   <trkpt lat="-3.0801550" lon="37.3647000">
    <ele>5591.5</ele>
    <time>2026-06-23T03:04:25Z</time>
   </trkpt>
   <trkpt lat="-3.0801550" lon="37.3647000">
    <ele>5591.5</ele>
    <time>2026-06-23T03:04:26Z</time>
   </trkpt>
   <trkpt lat="-3.0801660" lon="37.3647230">
    <ele>5592.0</ele>
    <time>2026-06-23T03:04:27Z</time>
   </trkpt>
   <trkpt lat="-3.0801660" lon="37.3647230">
    <ele>5592.0</ele>
    <time>2026-06-23T03:04:28Z</time>
   </trkpt>
   <trkpt lat="-3.0801710" lon="37.3647260">
    <ele>5592.1</ele>
    <time>2026-06-23T03:04:29Z</time>
   </trkpt>
   <trkpt lat="-3.0801400" lon="37.3647310">
    <ele>5592.8</ele>
    <time>2026-06-23T03:04:30Z</time>
   </trkpt>
   <trkpt lat="-3.0801430" lon="37.3647310">
    <ele>5592.8</ele>
    <time>2026-06-23T03:04:31Z</time>
   </trkpt>
   <trkpt lat="-3.0801390" lon="37.3647500">
    <ele>5593.3</ele>
    <time>2026-06-23T03:04:32Z</time>
   </trkpt>
   <trkpt lat="-3.0801560" lon="37.3647370">
    <ele>5593.7</ele>
    <time>2026-06-23T03:04:33Z</time>
   </trkpt>
   <trkpt lat="-3.0801590" lon="37.3647330">
    <ele>5593.8</ele>
    <time>2026-06-23T03:04:34Z</time>
   </trkpt>
   <trkpt lat="-3.0801620" lon="37.3647240">
    <ele>5594.0</ele>
    <time>2026-06-23T03:04:35Z</time>
   </trkpt>
   <trkpt lat="-3.0801620" lon="37.3647240">
    <ele>5594.0</ele>
    <time>2026-06-23T03:04:36Z</time>
   </trkpt>
   <trkpt lat="-3.0801580" lon="37.3647240">
    <ele>5594.1</ele>
    <time>2026-06-23T03:04:37Z</time>
   </trkpt>
   <trkpt lat="-3.0801580" lon="37.3647300">
    <ele>5594.3</ele>
    <time>2026-06-23T03:04:38Z</time>
   </trkpt>
   <trkpt lat="-3.0801590" lon="37.3647320">
    <ele>5594.3</ele>
    <time>2026-06-23T03:04:39Z</time>
   </trkpt>
   <trkpt lat="-3.0801630" lon="37.3647370">
    <ele>5594.4</ele>
    <time>2026-06-23T03:04:40Z</time>
   </trkpt>
   <trkpt lat="-3.0801630" lon="37.3647370">
    <ele>5594.4</ele>
    <time>2026-06-23T03:04:41Z</time>
   </trkpt>
   <trkpt lat="-3.0801680" lon="37.3647420">
    <ele>5594.6</ele>
    <time>2026-06-23T03:04:42Z</time>
   </trkpt>
   <trkpt lat="-3.0801970" lon="37.3647400">
    <ele>5595.2</ele>
    <time>2026-06-23T03:04:43Z</time>
   </trkpt>
   <trkpt lat="-3.0801800" lon="37.3647390">
    <ele>5595.6</ele>
    <time>2026-06-23T03:04:44Z</time>
   </trkpt>
   <trkpt lat="-3.0801620" lon="37.3647390">
    <ele>5596.0</ele>
    <time>2026-06-23T03:04:45Z</time>
   </trkpt>
   <trkpt lat="-3.0801450" lon="37.3647380">
    <ele>5596.4</ele>
    <time>2026-06-23T03:04:46Z</time>
   </trkpt>
   <trkpt lat="-3.0801270" lon="37.3647370">
    <ele>5596.8</ele>
    <time>2026-06-23T03:04:47Z</time>
   </trkpt>
   <trkpt lat="-3.0801340" lon="37.3647520">
    <ele>5597.1</ele>
    <time>2026-06-23T03:04:48Z</time>
   </trkpt>
   <trkpt lat="-3.0801350" lon="37.3647520">
    <ele>5597.2</ele>
    <time>2026-06-23T03:04:49Z</time>
   </trkpt>
   <trkpt lat="-3.0801540" lon="37.3647440">
    <ele>5597.6</ele>
    <time>2026-06-23T03:04:50Z</time>
   </trkpt>
   <trkpt lat="-3.0801540" lon="37.3647440">
    <ele>5597.6</ele>
    <time>2026-06-23T03:04:51Z</time>
   </trkpt>
   <trkpt lat="-3.0801640" lon="37.3647390">
    <ele>5597.9</ele>
    <time>2026-06-23T03:04:52Z</time>
   </trkpt>
   <trkpt lat="-3.0801640" lon="37.3647390">
    <ele>5597.9</ele>
    <time>2026-06-23T03:04:53Z</time>
   </trkpt>
   <trkpt lat="-3.0801640" lon="37.3647390">
    <ele>5597.9</ele>
    <time>2026-06-23T03:04:54Z</time>
   </trkpt>
   <trkpt lat="-3.0801640" lon="37.3647390">
    <ele>5597.9</ele>
    <time>2026-06-23T03:04:55Z</time>
   </trkpt>
   <trkpt lat="-3.0801640" lon="37.3647390">
    <ele>5597.9</ele>
    <time>2026-06-23T03:04:56Z</time>
   </trkpt>
   <trkpt lat="-3.0801780" lon="37.3647370">
    <ele>5598.2</ele>
    <time>2026-06-23T03:04:57Z</time>
   </trkpt>
   <trkpt lat="-3.0801770" lon="37.3647370">
    <ele>5598.2</ele>
    <time>2026-06-23T03:04:58Z</time>
   </trkpt>
   <trkpt lat="-3.0801760" lon="37.3647230">
    <ele>5598.5</ele>
    <time>2026-06-23T03:04:59Z</time>
   </trkpt>
   <trkpt lat="-3.0801790" lon="37.3647270">
    <ele>5598.6</ele>
    <time>2026-06-23T03:05:00Z</time>
   </trkpt>
   <trkpt lat="-3.0801790" lon="37.3647270">
    <ele>5598.6</ele>
    <time>2026-06-23T03:05:01Z</time>
   </trkpt>
   <trkpt lat="-3.0801790" lon="37.3647270">
    <ele>5598.6</ele>
    <time>2026-06-23T03:05:02Z</time>
   </trkpt>
   <trkpt lat="-3.0801790" lon="37.3647270">
    <ele>5598.6</ele>
    <time>2026-06-23T03:05:03Z</time>
   </trkpt>
   <trkpt lat="-3.0801790" lon="37.3647270">
    <ele>5598.6</ele>
    <time>2026-06-23T03:05:04Z</time>
   </trkpt>
   <trkpt lat="-3.0801790" lon="37.3647270">
    <ele>5598.6</ele>
    <time>2026-06-23T03:05:05Z</time>
   </trkpt>
   <trkpt lat="-3.0801750" lon="37.3647320">
    <ele>5598.8</ele>
    <time>2026-06-23T03:05:06Z</time>
   </trkpt>
   <trkpt lat="-3.0801580" lon="37.3647220">
    <ele>5599.2</ele>
    <time>2026-06-23T03:05:07Z</time>
   </trkpt>
   <trkpt lat="-3.0801510" lon="37.3647390">
    <ele>5599.6</ele>
    <time>2026-06-23T03:05:08Z</time>
   </trkpt>
   <trkpt lat="-3.0801450" lon="37.3647550">
    <ele>5600.0</ele>
    <time>2026-06-23T03:05:09Z</time>
   </trkpt>
   <trkpt lat="-3.0801380" lon="37.3647720">
    <ele>5600.3</ele>
    <time>2026-06-23T03:05:10Z</time>
   </trkpt>
   <trkpt lat="-3.0801930" lon="37.3647270">
    <ele>5600.5</ele>
    <time>2026-06-23T03:05:11Z</time>
   </trkpt>
   <trkpt lat="-3.0801910" lon="37.3647300">
    <ele>5600.5</ele>
    <time>2026-06-23T03:05:12Z</time>
   </trkpt>
   <trkpt lat="-3.0801910" lon="37.3647300">
    <ele>5600.5</ele>
    <time>2026-06-23T03:05:13Z</time>
   </trkpt>
   <trkpt lat="-3.0801800" lon="37.3647360">
    <ele>5600.7</ele>
    <time>2026-06-23T03:05:14Z</time>
   </trkpt>
   <trkpt lat="-3.0801810" lon="37.3647260">
    <ele>5600.9</ele>
    <time>2026-06-23T03:05:15Z</time>
   </trkpt>
   <trkpt lat="-3.0801930" lon="37.3647330">
    <ele>5601.1</ele>
    <time>2026-06-23T03:05:16Z</time>
   </trkpt>
   <trkpt lat="-3.0801860" lon="37.3647240">
    <ele>5601.3</ele>
    <time>2026-06-23T03:05:17Z</time>
   </trkpt>
   <trkpt lat="-3.0801840" lon="37.3647030">
    <ele>5601.7</ele>
    <time>2026-06-23T03:05:18Z</time>
   </trkpt>
   <trkpt lat="-3.0801840" lon="37.3647070">
    <ele>5601.7</ele>
    <time>2026-06-23T03:05:19Z</time>
   </trkpt>
   <trkpt lat="-3.0801840" lon="37.3647070">
    <ele>5601.7</ele>
    <time>2026-06-23T03:05:20Z</time>
   </trkpt>
   <trkpt lat="-3.0801840" lon="37.3647220">
    <ele>5602.0</ele>
    <time>2026-06-23T03:05:21Z</time>
   </trkpt>
   <trkpt lat="-3.0801830" lon="37.3647200">
    <ele>5602.0</ele>
    <time>2026-06-23T03:05:22Z</time>
   </trkpt>
   <trkpt lat="-3.0801830" lon="37.3647200">
    <ele>5602.0</ele>
    <time>2026-06-23T03:05:23Z</time>
   </trkpt>
   <trkpt lat="-3.0801830" lon="37.3647200">
    <ele>5602.0</ele>
    <time>2026-06-23T03:05:24Z</time>
   </trkpt>
   <trkpt lat="-3.0801810" lon="37.3647180">
    <ele>5602.1</ele>
    <time>2026-06-23T03:05:25Z</time>
   </trkpt>
   <trkpt lat="-3.0801810" lon="37.3647180">
    <ele>5602.1</ele>
    <time>2026-06-23T03:05:26Z</time>
   </trkpt>
   <trkpt lat="-3.0801820" lon="37.3647190">
    <ele>5602.1</ele>
    <time>2026-06-23T03:05:27Z</time>
   </trkpt>
   <trkpt lat="-3.0801840" lon="37.3647200">
    <ele>5602.1</ele>
    <time>2026-06-23T03:05:28Z</time>
   </trkpt>
   <trkpt lat="-3.0801860" lon="37.3647220">
    <ele>5602.2</ele>
    <time>2026-06-23T03:05:29Z</time>
   </trkpt>
   <trkpt lat="-3.0801910" lon="37.3647210">
    <ele>5602.2</ele>
    <time>2026-06-23T03:05:30Z</time>
   </trkpt>
   <trkpt lat="-3.0801940" lon="37.3647190">
    <ele>5602.3</ele>
    <time>2026-06-23T03:05:31Z</time>
   </trkpt>
   <trkpt lat="-3.0801940" lon="37.3647180">
    <ele>5602.3</ele>
    <time>2026-06-23T03:05:32Z</time>
   </trkpt>
   <trkpt lat="-3.0801920" lon="37.3647130">
    <ele>5602.4</ele>
    <time>2026-06-23T03:05:33Z</time>
   </trkpt>
   <trkpt lat="-3.0801890" lon="37.3647160">
    <ele>5602.5</ele>
    <time>2026-06-23T03:05:34Z</time>
   </trkpt>
   <trkpt lat="-3.0801880" lon="37.3647100">
    <ele>5602.6</ele>
    <time>2026-06-23T03:05:35Z</time>
   </trkpt>
   <trkpt lat="-3.0801880" lon="37.3647050">
    <ele>5602.7</ele>
    <time>2026-06-23T03:05:36Z</time>
   </trkpt>
   <trkpt lat="-3.0801890" lon="37.3646940">
    <ele>5602.8</ele>
    <time>2026-06-23T03:05:37Z</time>
   </trkpt>
   <trkpt lat="-3.0801850" lon="37.3647020">
    <ele>5603.0</ele>
    <time>2026-06-23T03:05:38Z</time>
   </trkpt>
   <trkpt lat="-3.0801820" lon="37.3647040">
    <ele>5603.0</ele>
    <time>2026-06-23T03:05:39Z</time>
   </trkpt>
   <trkpt lat="-3.0801860" lon="37.3646980">
    <ele>5603.2</ele>
    <time>2026-06-23T03:05:40Z</time>
   </trkpt>
   <trkpt lat="-3.0801820" lon="37.3646960">
    <ele>5603.2</ele>
    <time>2026-06-23T03:05:41Z</time>
   </trkpt>
   <trkpt lat="-3.0801850" lon="37.3646960">
    <ele>5603.3</ele>
    <time>2026-06-23T03:05:42Z</time>
   </trkpt>
   <trkpt lat="-3.0801820" lon="37.3646950">
    <ele>5603.3</ele>
    <time>2026-06-23T03:05:43Z</time>
   </trkpt>
   <trkpt lat="-3.0801820" lon="37.3646900">
    <ele>5603.4</ele>
    <time>2026-06-23T03:05:44Z</time>
   </trkpt>
   <trkpt lat="-3.0801800" lon="37.3646890">
    <ele>5603.4</ele>
    <time>2026-06-23T03:05:45Z</time>
   </trkpt>
   <trkpt lat="-3.0801780" lon="37.3646880">
    <ele>5603.5</ele>
    <time>2026-06-23T03:05:46Z</time>
   </trkpt>
   <trkpt lat="-3.0801780" lon="37.3646880">
    <ele>5603.5</ele>
    <time>2026-06-23T03:05:47Z</time>
   </trkpt>
   <trkpt lat="-3.0801720" lon="37.3646910">
    <ele>5603.6</ele>
    <time>2026-06-23T03:05:48Z</time>
   </trkpt>
   <trkpt lat="-3.0801700" lon="37.3646850">
    <ele>5603.7</ele>
    <time>2026-06-23T03:05:49Z</time>
   </trkpt>
   <trkpt lat="-3.0801710" lon="37.3646860">
    <ele>5603.7</ele>
    <time>2026-06-23T03:05:50Z</time>
   </trkpt>
   <trkpt lat="-3.0801710" lon="37.3646870">
    <ele>5603.7</ele>
    <time>2026-06-23T03:05:51Z</time>
   </trkpt>
   <trkpt lat="-3.0801680" lon="37.3646850">
    <ele>5603.8</ele>
    <time>2026-06-23T03:05:52Z</time>
   </trkpt>
   <trkpt lat="-3.0801670" lon="37.3646830">
    <ele>5603.8</ele>
    <time>2026-06-23T03:05:53Z</time>
   </trkpt>
   <trkpt lat="-3.0801630" lon="37.3646830">
    <ele>5603.9</ele>
    <time>2026-06-23T03:05:54Z</time>
   </trkpt>
   <trkpt lat="-3.0801610" lon="37.3646860">
    <ele>5604.0</ele>
    <time>2026-06-23T03:05:55Z</time>
   </trkpt>
   <trkpt lat="-3.0801580" lon="37.3646860">
    <ele>5604.0</ele>
    <time>2026-06-23T03:05:56Z</time>
   </trkpt>
   <trkpt lat="-3.0801550" lon="37.3646880">
    <ele>5604.1</ele>
    <time>2026-06-23T03:05:57Z</time>
   </trkpt>
   <trkpt lat="-3.0801520" lon="37.3646900">
    <ele>5604.1</ele>
    <time>2026-06-23T03:05:58Z</time>
   </trkpt>
   <trkpt lat="-3.0801490" lon="37.3646870">
    <ele>5604.2</ele>
    <time>2026-06-23T03:05:59Z</time>
   </trkpt>
   <trkpt lat="-3.0801470" lon="37.3646870">
    <ele>5604.2</ele>
    <time>2026-06-23T03:06:00Z</time>
   </trkpt>
   <trkpt lat="-3.0801450" lon="37.3646860">
    <ele>5604.3</ele>
    <time>2026-06-23T03:06:01Z</time>
   </trkpt>
   <trkpt lat="-3.0801450" lon="37.3646860">
    <ele>5604.3</ele>
    <time>2026-06-23T03:06:02Z</time>
   </trkpt>
   <trkpt lat="-3.0801440" lon="37.3646860">
    <ele>5604.3</ele>
    <time>2026-06-23T03:06:03Z</time>
   </trkpt>
   <trkpt lat="-3.0801430" lon="37.3646850">
    <ele>5604.3</ele>
    <time>2026-06-23T03:06:04Z</time>
   </trkpt>
   <trkpt lat="-3.0801430" lon="37.3646850">
    <ele>5604.3</ele>
    <time>2026-06-23T03:06:05Z</time>
   </trkpt>
   <trkpt lat="-3.0801430" lon="37.3646860">
    <ele>5604.3</ele>
    <time>2026-06-23T03:06:06Z</time>
   </trkpt>
   <trkpt lat="-3.0801420" lon="37.3646840">
    <ele>5604.4</ele>
    <time>2026-06-23T03:06:07Z</time>
   </trkpt>
   <trkpt lat="-3.0801380" lon="37.3646810">
    <ele>5604.4</ele>
    <time>2026-06-23T03:06:08Z</time>
   </trkpt>
   <trkpt lat="-3.0801360" lon="37.3646790">
    <ele>5604.5</ele>
    <time>2026-06-23T03:06:09Z</time>
   </trkpt>
   <trkpt lat="-3.0801380" lon="37.3646810">
    <ele>5604.5</ele>
    <time>2026-06-23T03:06:10Z</time>
   </trkpt>
   <trkpt lat="-3.0801380" lon="37.3646810">
    <ele>5604.5</ele>
    <time>2026-06-23T03:06:11Z</time>
   </trkpt>
   <trkpt lat="-3.0801390" lon="37.3646810">
    <ele>5604.5</ele>
    <time>2026-06-23T03:06:12Z</time>
   </trkpt>
   <trkpt lat="-3.0801390" lon="37.3646810">
    <ele>5604.5</ele>
    <time>2026-06-23T03:06:13Z</time>
   </trkpt>
   <trkpt lat="-3.0801400" lon="37.3646830">
    <ele>5604.6</ele>
    <time>2026-06-23T03:06:14Z</time>
   </trkpt>
   <trkpt lat="-3.0801400" lon="37.3646830">
    <ele>5604.6</ele>
    <time>2026-06-23T03:06:15Z</time>
   </trkpt>
   <trkpt lat="-3.0801390" lon="37.3646800">
    <ele>5604.6</ele>
    <time>2026-06-23T03:06:16Z</time>
   </trkpt>
   <trkpt lat="-3.0801390" lon="37.3646800">
    <ele>5604.6</ele>
    <time>2026-06-23T03:06:17Z</time>
   </trkpt>
   <trkpt lat="-3.0801390" lon="37.3646800">
    <ele>5604.6</ele>
    <time>2026-06-23T03:06:18Z</time>
   </trkpt>
   <trkpt lat="-3.0801390" lon="37.3646800">
    <ele>5604.6</ele>
    <time>2026-06-23T03:06:19Z</time>
   </trkpt>
   <trkpt lat="-3.0801380" lon="37.3646820">
    <ele>5604.7</ele>
    <time>2026-06-23T03:06:20Z</time>
   </trkpt>
   <trkpt lat="-3.0801380" lon="37.3646840">
    <ele>5604.7</ele>
    <time>2026-06-23T03:06:21Z</time>
   </trkpt>
   <trkpt lat="-3.0801380" lon="37.3646840">
    <ele>5604.7</ele>
    <time>2026-06-23T03:06:22Z</time>
   </trkpt>
   <trkpt lat="-3.0801390" lon="37.3646850">
    <ele>5604.7</ele>
    <time>2026-06-23T03:06:23Z</time>
   </trkpt>
   <trkpt lat="-3.0801380" lon="37.3646840">
    <ele>5604.7</ele>
    <time>2026-06-23T03:06:24Z</time>
   </trkpt>
   <trkpt lat="-3.0801380" lon="37.3646840">
    <ele>5604.7</ele>
    <time>2026-06-23T03:06:25Z</time>
   </trkpt>
   <trkpt lat="-3.0801380" lon="37.3646840">
    <ele>5604.7</ele>
    <time>2026-06-23T03:06:26Z</time>
   </trkpt>
   <trkpt lat="-3.0801380" lon="37.3646840">
    <ele>5604.7</ele>
    <time>2026-06-23T03:06:27Z</time>
   </trkpt>
   <trkpt lat="-3.0801370" lon="37.3646850">
    <ele>5604.8</ele>
    <time>2026-06-23T03:06:28Z</time>
   </trkpt>
   <trkpt lat="-3.0801370" lon="37.3646850">
    <ele>5604.8</ele>
    <time>2026-06-23T03:06:29Z</time>
   </trkpt>
   <trkpt lat="-3.0801350" lon="37.3646840">
    <ele>5604.8</ele>
    <time>2026-06-23T03:06:30Z</time>
   </trkpt>
   <trkpt lat="-3.0801360" lon="37.3646840">
    <ele>5604.8</ele>
    <time>2026-06-23T03:06:31Z</time>
   </trkpt>
   <trkpt lat="-3.0801360" lon="37.3646840">
    <ele>5604.8</ele>
    <time>2026-06-23T03:06:32Z</time>
   </trkpt>
   <trkpt lat="-3.0801360" lon="37.3646840">
    <ele>5604.8</ele>
    <time>2026-06-23T03:06:33Z</time>
   </trkpt>
   <trkpt lat="-3.0801360" lon="37.3646840">
    <ele>5604.8</ele>
    <time>2026-06-23T03:06:34Z</time>
   </trkpt>
   <trkpt lat="-3.0801380" lon="37.3646810">
    <ele>5604.9</ele>
    <time>2026-06-23T03:06:35Z</time>
   </trkpt>
   <trkpt lat="-3.0801380" lon="37.3646800">
    <ele>5604.9</ele>
    <time>2026-06-23T03:06:36Z</time>
   </trkpt>
   <trkpt lat="-3.0801380" lon="37.3646800">
    <ele>5604.9</ele>
    <time>2026-06-23T03:06:37Z</time>
   </trkpt>
   <trkpt lat="-3.0801400" lon="37.3646780">
    <ele>5604.9</ele>
    <time>2026-06-23T03:06:38Z</time>
   </trkpt>
   <trkpt lat="-3.0801390" lon="37.3646790">
    <ele>5605.0</ele>
    <time>2026-06-23T03:06:39Z</time>
   </trkpt>
   <trkpt lat="-3.0801370" lon="37.3646760">
    <ele>5605.0</ele>
    <time>2026-06-23T03:06:40Z</time>
   </trkpt>
   <trkpt lat="-3.0801340" lon="37.3646790">
    <ele>5605.1</ele>
    <time>2026-06-23T03:06:41Z</time>
   </trkpt>
   <trkpt lat="-3.0801300" lon="37.3646790">
    <ele>5605.2</ele>
    <time>2026-06-23T03:06:42Z</time>
   </trkpt>
   <trkpt lat="-3.0801350" lon="37.3646760">
    <ele>5605.3</ele>
    <time>2026-06-23T03:06:43Z</time>
   </trkpt>
   <trkpt lat="-3.0801380" lon="37.3646760">
    <ele>5605.3</ele>
    <time>2026-06-23T03:06:44Z</time>
   </trkpt>
   <trkpt lat="-3.0801360" lon="37.3646760">
    <ele>5605.3</ele>
    <time>2026-06-23T03:06:45Z</time>
   </trkpt>
   <trkpt lat="-3.0801340" lon="37.3646770">
    <ele>5605.4</ele>
    <time>2026-06-23T03:06:46Z</time>
   </trkpt>
   <trkpt lat="-3.0801360" lon="37.3646740">
    <ele>5605.4</ele>
    <time>2026-06-23T03:06:47Z</time>
   </trkpt>
   <trkpt lat="-3.0801400" lon="37.3646740">
    <ele>5605.5</ele>
    <time>2026-06-23T03:06:48Z</time>
   </trkpt>
   <trkpt lat="-3.0801450" lon="37.3646680">
    <ele>5605.6</ele>
    <time>2026-06-23T03:06:49Z</time>
   </trkpt>
   <trkpt lat="-3.0801440" lon="37.3646700">
    <ele>5605.7</ele>
    <time>2026-06-23T03:06:50Z</time>
   </trkpt>
   <trkpt lat="-3.0801450" lon="37.3646680">
    <ele>5605.7</ele>
    <time>2026-06-23T03:06:51Z</time>
   </trkpt>
   <trkpt lat="-3.0801460" lon="37.3646670">
    <ele>5605.7</ele>
    <time>2026-06-23T03:06:52Z</time>
   </trkpt>
   <trkpt lat="-3.0801440" lon="37.3646660">
    <ele>5605.8</ele>
    <time>2026-06-23T03:06:53Z</time>
   </trkpt>
   <trkpt lat="-3.0801480" lon="37.3646600">
    <ele>5605.9</ele>
    <time>2026-06-23T03:06:54Z</time>
   </trkpt>
   <trkpt lat="-3.0801550" lon="37.3646580">
    <ele>5606.0</ele>
    <time>2026-06-23T03:06:55Z</time>
   </trkpt>
   <trkpt lat="-3.0801570" lon="37.3646550">
    <ele>5606.0</ele>
    <time>2026-06-23T03:06:56Z</time>
   </trkpt>
   <trkpt lat="-3.0801610" lon="37.3646540">
    <ele>5606.1</ele>
    <time>2026-06-23T03:06:57Z</time>
   </trkpt>
   <trkpt lat="-3.0801640" lon="37.3646500">
    <ele>5606.2</ele>
    <time>2026-06-23T03:06:58Z</time>
   </trkpt>
   <trkpt lat="-3.0801650" lon="37.3646470">
    <ele>5606.2</ele>
    <time>2026-06-23T03:06:59Z</time>
   </trkpt>
   <trkpt lat="-3.0801680" lon="37.3646460">
    <ele>5606.3</ele>
    <time>2026-06-23T03:07:00Z</time>
   </trkpt>
   <trkpt lat="-3.0801710" lon="37.3646420">
    <ele>5606.4</ele>
    <time>2026-06-23T03:07:01Z</time>
   </trkpt>
   <trkpt lat="-3.0801730" lon="37.3646400">
    <ele>5606.4</ele>
    <time>2026-06-23T03:07:02Z</time>
   </trkpt>
   <trkpt lat="-3.0801750" lon="37.3646380">
    <ele>5606.5</ele>
    <time>2026-06-23T03:07:03Z</time>
   </trkpt>
   <trkpt lat="-3.0801760" lon="37.3646390">
    <ele>5606.5</ele>
    <time>2026-06-23T03:07:04Z</time>
   </trkpt>
   <trkpt lat="-3.0801810" lon="37.3646380">
    <ele>5606.6</ele>
    <time>2026-06-23T03:07:05Z</time>
   </trkpt>
   <trkpt lat="-3.0801800" lon="37.3646350">
    <ele>5606.6</ele>
    <time>2026-06-23T03:07:06Z</time>
   </trkpt>
   <trkpt lat="-3.0801810" lon="37.3646360">
    <ele>5606.6</ele>
    <time>2026-06-23T03:07:07Z</time>
   </trkpt>
   <trkpt lat="-3.0801830" lon="37.3646360">
    <ele>5606.7</ele>
    <time>2026-06-23T03:07:08Z</time>
   </trkpt>
   <trkpt lat="-3.0801800" lon="37.3646340">
    <ele>5606.7</ele>
    <time>2026-06-23T03:07:09Z</time>
   </trkpt>
   <trkpt lat="-3.0801790" lon="37.3646350">
    <ele>5606.7</ele>
    <time>2026-06-23T03:07:10Z</time>
   </trkpt>
   <trkpt lat="-3.0801770" lon="37.3646300">
    <ele>5606.8</ele>
    <time>2026-06-23T03:07:11Z</time>
   </trkpt>
   <trkpt lat="-3.0801720" lon="37.3646320">
    <ele>5606.9</ele>
    <time>2026-06-23T03:07:12Z</time>
   </trkpt>
   <trkpt lat="-3.0801680" lon="37.3646330">
    <ele>5607.0</ele>
    <time>2026-06-23T03:07:13Z</time>
   </trkpt>
   <trkpt lat="-3.0801670" lon="37.3646360">
    <ele>5607.0</ele>
    <time>2026-06-23T03:07:14Z</time>
   </trkpt>
   <trkpt lat="-3.0801660" lon="37.3646370">
    <ele>5607.1</ele>
    <time>2026-06-23T03:07:15Z</time>
   </trkpt>
   <trkpt lat="-3.0801640" lon="37.3646320">
    <ele>5607.1</ele>
    <time>2026-06-23T03:07:16Z</time>
   </trkpt>
   <trkpt lat="-3.0801610" lon="37.3646290">
    <ele>5607.2</ele>
    <time>2026-06-23T03:07:17Z</time>
   </trkpt>
   <trkpt lat="-3.0801610" lon="37.3646300">
    <ele>5607.2</ele>
    <time>2026-06-23T03:07:18Z</time>
   </trkpt>
   <trkpt lat="-3.0801590" lon="37.3646280">
    <ele>5607.3</ele>
    <time>2026-06-23T03:07:19Z</time>
   </trkpt>
   <trkpt lat="-3.0801590" lon="37.3646280">
    <ele>5607.3</ele>
    <time>2026-06-23T03:07:20Z</time>
   </trkpt>
   <trkpt lat="-3.0801560" lon="37.3646280">
    <ele>5607.3</ele>
    <time>2026-06-23T03:07:21Z</time>
   </trkpt>
   <trkpt lat="-3.0801540" lon="37.3646320">
    <ele>5607.4</ele>
    <time>2026-06-23T03:07:22Z</time>
   </trkpt>
   <trkpt lat="-3.0801530" lon="37.3646340">
    <ele>5607.4</ele>
    <time>2026-06-23T03:07:23Z</time>
   </trkpt>
   <trkpt lat="-3.0801490" lon="37.3646370">
    <ele>5607.5</ele>
    <time>2026-06-23T03:07:24Z</time>
   </trkpt>
   <trkpt lat="-3.0801470" lon="37.3646360">
    <ele>5607.5</ele>
    <time>2026-06-23T03:07:25Z</time>
   </trkpt>
   <trkpt lat="-3.0801440" lon="37.3646390">
    <ele>5607.6</ele>
    <time>2026-06-23T03:07:26Z</time>
   </trkpt>
   <trkpt lat="-3.0801410" lon="37.3646380">
    <ele>5607.7</ele>
    <time>2026-06-23T03:07:27Z</time>
   </trkpt>
   <trkpt lat="-3.0801410" lon="37.3646350">
    <ele>5607.7</ele>
    <time>2026-06-23T03:07:28Z</time>
   </trkpt>
   <trkpt lat="-3.0801420" lon="37.3646360">
    <ele>5607.7</ele>
    <time>2026-06-23T03:07:29Z</time>
   </trkpt>
   <trkpt lat="-3.0801380" lon="37.3646350">
    <ele>5607.8</ele>
    <time>2026-06-23T03:07:30Z</time>
   </trkpt>
   <trkpt lat="-3.0801360" lon="37.3646360">
    <ele>5607.8</ele>
    <time>2026-06-23T03:07:31Z</time>
   </trkpt>
   <trkpt lat="-3.0801330" lon="37.3646390">
    <ele>5607.9</ele>
    <time>2026-06-23T03:07:32Z</time>
   </trkpt>
   <trkpt lat="-3.0801300" lon="37.3646370">
    <ele>5608.0</ele>
    <time>2026-06-23T03:07:33Z</time>
   </trkpt>
   <trkpt lat="-3.0801340" lon="37.3646330">
    <ele>5608.1</ele>
    <time>2026-06-23T03:07:34Z</time>
   </trkpt>
   <trkpt lat="-3.0801310" lon="37.3646330">
    <ele>5608.1</ele>
    <time>2026-06-23T03:07:35Z</time>
   </trkpt>
   <trkpt lat="-3.0801290" lon="37.3646330">
    <ele>5608.1</ele>
    <time>2026-06-23T03:07:36Z</time>
   </trkpt>
   <trkpt lat="-3.0801250" lon="37.3646340">
    <ele>5608.2</ele>
    <time>2026-06-23T03:07:37Z</time>
   </trkpt>
   <trkpt lat="-3.0801230" lon="37.3646370">
    <ele>5608.3</ele>
    <time>2026-06-23T03:07:38Z</time>
   </trkpt>
   <trkpt lat="-3.0801220" lon="37.3646390">
    <ele>5608.3</ele>
    <time>2026-06-23T03:07:39Z</time>
   </trkpt>
   <trkpt lat="-3.0801190" lon="37.3646420">
    <ele>5608.4</ele>
    <time>2026-06-23T03:07:40Z</time>
   </trkpt>
   <trkpt lat="-3.0801180" lon="37.3646450">
    <ele>5608.4</ele>
    <time>2026-06-23T03:07:41Z</time>
   </trkpt>
   <trkpt lat="-3.0801160" lon="37.3646410">
    <ele>5608.5</ele>
    <time>2026-06-23T03:07:42Z</time>
   </trkpt>
   <trkpt lat="-3.0801110" lon="37.3646410">
    <ele>5608.6</ele>
    <time>2026-06-23T03:07:43Z</time>
   </trkpt>
   <trkpt lat="-3.0801120" lon="37.3646380">
    <ele>5608.6</ele>
    <time>2026-06-23T03:07:44Z</time>
   </trkpt>
   <trkpt lat="-3.0801110" lon="37.3646380">
    <ele>5608.6</ele>
    <time>2026-06-23T03:07:45Z</time>
   </trkpt>
   <trkpt lat="-3.0801100" lon="37.3646410">
    <ele>5608.7</ele>
    <time>2026-06-23T03:07:46Z</time>
   </trkpt>
   <trkpt lat="-3.0801060" lon="37.3646370">
    <ele>5608.8</ele>
    <time>2026-06-23T03:07:47Z</time>
   </trkpt>
   <trkpt lat="-3.0801010" lon="37.3646360">
    <ele>5608.8</ele>
    <time>2026-06-23T03:07:48Z</time>
   </trkpt>
   <trkpt lat="-3.0801030" lon="37.3646340">
    <ele>5608.9</ele>
    <time>2026-06-23T03:07:49Z</time>
   </trkpt>
   <trkpt lat="-3.0801040" lon="37.3646380">
    <ele>5608.9</ele>
    <time>2026-06-23T03:07:50Z</time>
   </trkpt>
   <trkpt lat="-3.0801030" lon="37.3646380">
    <ele>5609.0</ele>
    <time>2026-06-23T03:07:51Z</time>
   </trkpt>
   <trkpt lat="-3.0801070" lon="37.3646270">
    <ele>5609.1</ele>
    <time>2026-06-23T03:07:52Z</time>
   </trkpt>
   <trkpt lat="-3.0801050" lon="37.3646260">
    <ele>5609.2</ele>
    <time>2026-06-23T03:07:53Z</time>
   </trkpt>
   <trkpt lat="-3.0801060" lon="37.3646260">
    <ele>5609.2</ele>
    <time>2026-06-23T03:07:54Z</time>
   </trkpt>
   <trkpt lat="-3.0801040" lon="37.3646260">
    <ele>5609.2</ele>
    <time>2026-06-23T03:07:55Z</time>
   </trkpt>
   <trkpt lat="-3.0801040" lon="37.3646240">
    <ele>5609.2</ele>
    <time>2026-06-23T03:07:56Z</time>
   </trkpt>
   <trkpt lat="-3.0801050" lon="37.3646230">
    <ele>5609.3</ele>
    <time>2026-06-23T03:07:57Z</time>
   </trkpt>
   <trkpt lat="-3.0801050" lon="37.3646260">
    <ele>5609.3</ele>
    <time>2026-06-23T03:07:58Z</time>
   </trkpt>
   <trkpt lat="-3.0801010" lon="37.3646230">
    <ele>5609.4</ele>
    <time>2026-06-23T03:07:59Z</time>
   </trkpt>
   <trkpt lat="-3.0800960" lon="37.3646230">
    <ele>5609.5</ele>
    <time>2026-06-23T03:08:00Z</time>
   </trkpt>
   <trkpt lat="-3.0800960" lon="37.3646230">
    <ele>5609.5</ele>
    <time>2026-06-23T03:08:01Z</time>
   </trkpt>
   <trkpt lat="-3.0800950" lon="37.3646260">
    <ele>5609.5</ele>
    <time>2026-06-23T03:08:02Z</time>
   </trkpt>
   <trkpt lat="-3.0800930" lon="37.3646240">
    <ele>5609.5</ele>
    <time>2026-06-23T03:08:03Z</time>
   </trkpt>
   <trkpt lat="-3.0800940" lon="37.3646220">
    <ele>5609.6</ele>
    <time>2026-06-23T03:08:04Z</time>
   </trkpt>
   <trkpt lat="-3.0800920" lon="37.3646240">
    <ele>5609.6</ele>
    <time>2026-06-23T03:08:05Z</time>
   </trkpt>
   <trkpt lat="-3.0800900" lon="37.3646250">
    <ele>5609.6</ele>
    <time>2026-06-23T03:08:06Z</time>
   </trkpt>
   <trkpt lat="-3.0800880" lon="37.3646260">
    <ele>5609.7</ele>
    <time>2026-06-23T03:08:07Z</time>
   </trkpt>
   <trkpt lat="-3.0800860" lon="37.3646280">
    <ele>5609.7</ele>
    <time>2026-06-23T03:08:08Z</time>
   </trkpt>
   <trkpt lat="-3.0800850" lon="37.3646290">
    <ele>5609.7</ele>
    <time>2026-06-23T03:08:09Z</time>
   </trkpt>
   <trkpt lat="-3.0800830" lon="37.3646300">
    <ele>5609.8</ele>
    <time>2026-06-23T03:08:10Z</time>
   </trkpt>
   <trkpt lat="-3.0800770" lon="37.3646280">
    <ele>5609.9</ele>
    <time>2026-06-23T03:08:11Z</time>
   </trkpt>
   <trkpt lat="-3.0800760" lon="37.3646290">
    <ele>5609.9</ele>
    <time>2026-06-23T03:08:12Z</time>
   </trkpt>
   <trkpt lat="-3.0800720" lon="37.3646300">
    <ele>5610.0</ele>
    <time>2026-06-23T03:08:13Z</time>
   </trkpt>
   <trkpt lat="-3.0800730" lon="37.3646320">
    <ele>5610.0</ele>
    <time>2026-06-23T03:08:14Z</time>
   </trkpt>
   <trkpt lat="-3.0800690" lon="37.3646330">
    <ele>5610.0</ele>
    <time>2026-06-23T03:08:15Z</time>
   </trkpt>
   <trkpt lat="-3.0800670" lon="37.3646340">
    <ele>5610.1</ele>
    <time>2026-06-23T03:08:16Z</time>
   </trkpt>
   <trkpt lat="-3.0800660" lon="37.3646350">
    <ele>5610.1</ele>
    <time>2026-06-23T03:08:17Z</time>
   </trkpt>
   <trkpt lat="-3.0800640" lon="37.3646340">
    <ele>5610.1</ele>
    <time>2026-06-23T03:08:18Z</time>
   </trkpt>
   <trkpt lat="-3.0800620" lon="37.3646330">
    <ele>5610.2</ele>
    <time>2026-06-23T03:08:19Z</time>
   </trkpt>
   <trkpt lat="-3.0800620" lon="37.3646330">
    <ele>5610.2</ele>
    <time>2026-06-23T03:08:20Z</time>
   </trkpt>
   <trkpt lat="-3.0800590" lon="37.3646330">
    <ele>5610.2</ele>
    <time>2026-06-23T03:08:21Z</time>
   </trkpt>
   <trkpt lat="-3.0800580" lon="37.3646330">
    <ele>5610.2</ele>
    <time>2026-06-23T03:08:22Z</time>
   </trkpt>
   <trkpt lat="-3.0800560" lon="37.3646300">
    <ele>5610.3</ele>
    <time>2026-06-23T03:08:23Z</time>
   </trkpt>
   <trkpt lat="-3.0800550" lon="37.3646310">
    <ele>5610.3</ele>
    <time>2026-06-23T03:08:24Z</time>
   </trkpt>
   <trkpt lat="-3.0800560" lon="37.3646310">
    <ele>5610.3</ele>
    <time>2026-06-23T03:08:25Z</time>
   </trkpt>
   <trkpt lat="-3.0800550" lon="37.3646290">
    <ele>5610.4</ele>
    <time>2026-06-23T03:08:26Z</time>
   </trkpt>
   <trkpt lat="-3.0800520" lon="37.3646300">
    <ele>5610.4</ele>
    <time>2026-06-23T03:08:27Z</time>
   </trkpt>
   <trkpt lat="-3.0800520" lon="37.3646310">
    <ele>5610.4</ele>
    <time>2026-06-23T03:08:28Z</time>
   </trkpt>
   <trkpt lat="-3.0800510" lon="37.3646300">
    <ele>5610.4</ele>
    <time>2026-06-23T03:08:29Z</time>
   </trkpt>
   <trkpt lat="-3.0800500" lon="37.3646290">
    <ele>5610.5</ele>
    <time>2026-06-23T03:08:30Z</time>
   </trkpt>
   <trkpt lat="-3.0800480" lon="37.3646300">
    <ele>5610.5</ele>
    <time>2026-06-23T03:08:31Z</time>
   </trkpt>
   <trkpt lat="-3.0800490" lon="37.3646280">
    <ele>5610.5</ele>
    <time>2026-06-23T03:08:32Z</time>
   </trkpt>
   <trkpt lat="-3.0800490" lon="37.3646280">
    <ele>5610.5</ele>
    <time>2026-06-23T03:08:33Z</time>
   </trkpt>
   <trkpt lat="-3.0800480" lon="37.3646250">
    <ele>5610.6</ele>
    <time>2026-06-23T03:08:34Z</time>
   </trkpt>
   <trkpt lat="-3.0800510" lon="37.3646220">
    <ele>5610.6</ele>
    <time>2026-06-23T03:08:35Z</time>
   </trkpt>
   <trkpt lat="-3.0800490" lon="37.3646190">
    <ele>5610.7</ele>
    <time>2026-06-23T03:08:36Z</time>
   </trkpt>
   <trkpt lat="-3.0800510" lon="37.3646160">
    <ele>5610.7</ele>
    <time>2026-06-23T03:08:37Z</time>
   </trkpt>
   <trkpt lat="-3.0800490" lon="37.3646140">
    <ele>5610.8</ele>
    <time>2026-06-23T03:08:38Z</time>
   </trkpt>
   <trkpt lat="-3.0800490" lon="37.3646100">
    <ele>5610.8</ele>
    <time>2026-06-23T03:08:39Z</time>
   </trkpt>
   <trkpt lat="-3.0800510" lon="37.3646080">
    <ele>5610.9</ele>
    <time>2026-06-23T03:08:40Z</time>
   </trkpt>
   <trkpt lat="-3.0800500" lon="37.3646040">
    <ele>5610.9</ele>
    <time>2026-06-23T03:08:41Z</time>
   </trkpt>
   <trkpt lat="-3.0800490" lon="37.3646020">
    <ele>5611.0</ele>
    <time>2026-06-23T03:08:42Z</time>
   </trkpt>
   <trkpt lat="-3.0800490" lon="37.3646010">
    <ele>5611.0</ele>
    <time>2026-06-23T03:08:43Z</time>
   </trkpt>
   <trkpt lat="-3.0800490" lon="37.3646010">
    <ele>5611.0</ele>
    <time>2026-06-23T03:08:44Z</time>
   </trkpt>
   <trkpt lat="-3.0800500" lon="37.3645980">
    <ele>5611.0</ele>
    <time>2026-06-23T03:08:45Z</time>
   </trkpt>
   <trkpt lat="-3.0800490" lon="37.3645960">
    <ele>5611.1</ele>
    <time>2026-06-23T03:08:46Z</time>
   </trkpt>
   <trkpt lat="-3.0800490" lon="37.3645930">
    <ele>5611.1</ele>
    <time>2026-06-23T03:08:47Z</time>
   </trkpt>
   <trkpt lat="-3.0800490" lon="37.3645920">
    <ele>5611.1</ele>
    <time>2026-06-23T03:08:48Z</time>
   </trkpt>
   <trkpt lat="-3.0800480" lon="37.3645900">
    <ele>5611.2</ele>
    <time>2026-06-23T03:08:49Z</time>
   </trkpt>
   <trkpt lat="-3.0800500" lon="37.3645890">
    <ele>5611.2</ele>
    <time>2026-06-23T03:08:50Z</time>
   </trkpt>
   <trkpt lat="-3.0800510" lon="37.3645870">
    <ele>5611.2</ele>
    <time>2026-06-23T03:08:51Z</time>
   </trkpt>
   <trkpt lat="-3.0800510" lon="37.3645830">
    <ele>5611.3</ele>
    <time>2026-06-23T03:08:52Z</time>
   </trkpt>
   <trkpt lat="-3.0800520" lon="37.3645820">
    <ele>5611.3</ele>
    <time>2026-06-23T03:08:53Z</time>
   </trkpt>
   <trkpt lat="-3.0800530" lon="37.3645780">
    <ele>5611.4</ele>
    <time>2026-06-23T03:08:54Z</time>
   </trkpt>
   <trkpt lat="-3.0800540" lon="37.3645770">
    <ele>5611.4</ele>
    <time>2026-06-23T03:08:55Z</time>
   </trkpt>
   <trkpt lat="-3.0800550" lon="37.3645740">
    <ele>5611.4</ele>
    <time>2026-06-23T03:08:56Z</time>
   </trkpt>
   <trkpt lat="-3.0800550" lon="37.3645730">
    <ele>5611.5</ele>
    <time>2026-06-23T03:08:57Z</time>
   </trkpt>
   <trkpt lat="-3.0800550" lon="37.3645700">
    <ele>5611.5</ele>
    <time>2026-06-23T03:08:58Z</time>
   </trkpt>
   <trkpt lat="-3.0800530" lon="37.3645690">
    <ele>5611.5</ele>
    <time>2026-06-23T03:08:59Z</time>
   </trkpt>
   <trkpt lat="-3.0800530" lon="37.3645680">
    <ele>5611.6</ele>
    <time>2026-06-23T03:09:00Z</time>
   </trkpt>
   <trkpt lat="-3.0800540" lon="37.3645650">
    <ele>5611.6</ele>
    <time>2026-06-23T03:09:01Z</time>
   </trkpt>
   <trkpt lat="-3.0800520" lon="37.3645630">
    <ele>5611.6</ele>
    <time>2026-06-23T03:09:02Z</time>
   </trkpt>
   <trkpt lat="-3.0800540" lon="37.3645600">
    <ele>5611.7</ele>
    <time>2026-06-23T03:09:03Z</time>
   </trkpt>
   <trkpt lat="-3.0800540" lon="37.3645590">
    <ele>5611.7</ele>
    <time>2026-06-23T03:09:04Z</time>
   </trkpt>
   <trkpt lat="-3.0800560" lon="37.3645560">
    <ele>5611.8</ele>
    <time>2026-06-23T03:09:05Z</time>
   </trkpt>
   <trkpt lat="-3.0800560" lon="37.3645550">
    <ele>5611.8</ele>
    <time>2026-06-23T03:09:06Z</time>
   </trkpt>
   <trkpt lat="-3.0800570" lon="37.3645530">
    <ele>5611.8</ele>
    <time>2026-06-23T03:09:07Z</time>
   </trkpt>
   <trkpt lat="-3.0800560" lon="37.3645530">
    <ele>5611.8</ele>
    <time>2026-06-23T03:09:08Z</time>
   </trkpt>
   <trkpt lat="-3.0800530" lon="37.3645480">
    <ele>5611.9</ele>
    <time>2026-06-23T03:09:09Z</time>
   </trkpt>
   <trkpt lat="-3.0800570" lon="37.3645490">
    <ele>5612.0</ele>
    <time>2026-06-23T03:09:10Z</time>
   </trkpt>
   <trkpt lat="-3.0800560" lon="37.3645450">
    <ele>5612.0</ele>
    <time>2026-06-23T03:09:11Z</time>
   </trkpt>
   <trkpt lat="-3.0800580" lon="37.3645430">
    <ele>5612.1</ele>
    <time>2026-06-23T03:09:12Z</time>
   </trkpt>
   <trkpt lat="-3.0800570" lon="37.3645400">
    <ele>5612.1</ele>
    <time>2026-06-23T03:09:13Z</time>
   </trkpt>
   <trkpt lat="-3.0800580" lon="37.3645390">
    <ele>5612.1</ele>
    <time>2026-06-23T03:09:14Z</time>
   </trkpt>
   <trkpt lat="-3.0800580" lon="37.3645370">
    <ele>5612.2</ele>
    <time>2026-06-23T03:09:15Z</time>
   </trkpt>
   <trkpt lat="-3.0800560" lon="37.3645330">
    <ele>5612.2</ele>
    <time>2026-06-23T03:09:16Z</time>
   </trkpt>
   <trkpt lat="-3.0800600" lon="37.3645350">
    <ele>5612.3</ele>
    <time>2026-06-23T03:09:17Z</time>
   </trkpt>
   <trkpt lat="-3.0800590" lon="37.3645340">
    <ele>5612.3</ele>
    <time>2026-06-23T03:09:18Z</time>
   </trkpt>
   <trkpt lat="-3.0800570" lon="37.3645330">
    <ele>5612.3</ele>
    <time>2026-06-23T03:09:19Z</time>
   </trkpt>
   <trkpt lat="-3.0800560" lon="37.3645300">
    <ele>5612.4</ele>
    <time>2026-06-23T03:09:20Z</time>
   </trkpt>
   <trkpt lat="-3.0800560" lon="37.3645290">
    <ele>5612.4</ele>
    <time>2026-06-23T03:09:21Z</time>
   </trkpt>
   <trkpt lat="-3.0800560" lon="37.3645260">
    <ele>5612.4</ele>
    <time>2026-06-23T03:09:22Z</time>
   </trkpt>
   <trkpt lat="-3.0800560" lon="37.3645250">
    <ele>5612.5</ele>
    <time>2026-06-23T03:09:23Z</time>
   </trkpt>
   <trkpt lat="-3.0800550" lon="37.3645230">
    <ele>5612.5</ele>
    <time>2026-06-23T03:09:24Z</time>
   </trkpt>
   <trkpt lat="-3.0800540" lon="37.3645200">
    <ele>5612.5</ele>
    <time>2026-06-23T03:09:25Z</time>
   </trkpt>
   <trkpt lat="-3.0800520" lon="37.3645180">
    <ele>5612.6</ele>
    <time>2026-06-23T03:09:26Z</time>
   </trkpt>
   <trkpt lat="-3.0800520" lon="37.3645170">
    <ele>5612.6</ele>
    <time>2026-06-23T03:09:27Z</time>
   </trkpt>
   <trkpt lat="-3.0800520" lon="37.3645150">
    <ele>5612.6</ele>
    <time>2026-06-23T03:09:28Z</time>
   </trkpt>
   <trkpt lat="-3.0800490" lon="37.3645110">
    <ele>5612.7</ele>
    <time>2026-06-23T03:09:29Z</time>
   </trkpt>
   <trkpt lat="-3.0800500" lon="37.3645100">
    <ele>5612.7</ele>
    <time>2026-06-23T03:09:30Z</time>
   </trkpt>
   <trkpt lat="-3.0800460" lon="37.3645070">
    <ele>5612.8</ele>
    <time>2026-06-23T03:09:31Z</time>
   </trkpt>
   <trkpt lat="-3.0800470" lon="37.3645080">
    <ele>5612.8</ele>
    <time>2026-06-23T03:09:32Z</time>
   </trkpt>
   <trkpt lat="-3.0800460" lon="37.3645080">
    <ele>5612.8</ele>
    <time>2026-06-23T03:09:33Z</time>
   </trkpt>
   <trkpt lat="-3.0800410" lon="37.3645060">
    <ele>5612.9</ele>
    <time>2026-06-23T03:09:34Z</time>
   </trkpt>
   <trkpt lat="-3.0800390" lon="37.3645070">
    <ele>5612.9</ele>
    <time>2026-06-23T03:09:35Z</time>
   </trkpt>
   <trkpt lat="-3.0800380" lon="37.3645080">
    <ele>5612.9</ele>
    <time>2026-06-23T03:09:36Z</time>
   </trkpt>
   <trkpt lat="-3.0800370" lon="37.3645080">
    <ele>5613.0</ele>
    <time>2026-06-23T03:09:37Z</time>
   </trkpt>
   <trkpt lat="-3.0800330" lon="37.3645060">
    <ele>5613.0</ele>
    <time>2026-06-23T03:09:38Z</time>
   </trkpt>
   <trkpt lat="-3.0800340" lon="37.3645050">
    <ele>5613.0</ele>
    <time>2026-06-23T03:09:39Z</time>
   </trkpt>
   <trkpt lat="-3.0800230" lon="37.3645110">
    <ele>5613.2</ele>
    <time>2026-06-23T03:09:40Z</time>
   </trkpt>
   <trkpt lat="-3.0800220" lon="37.3645130">
    <ele>5613.3</ele>
    <time>2026-06-23T03:09:41Z</time>
   </trkpt>
   <trkpt lat="-3.0800210" lon="37.3645160">
    <ele>5613.3</ele>
    <time>2026-06-23T03:09:42Z</time>
   </trkpt>
   <trkpt lat="-3.0800210" lon="37.3645180">
    <ele>5613.3</ele>
    <time>2026-06-23T03:09:43Z</time>
   </trkpt>
   <trkpt lat="-3.0800160" lon="37.3645190">
    <ele>5613.4</ele>
    <time>2026-06-23T03:09:44Z</time>
   </trkpt>
   <trkpt lat="-3.0800130" lon="37.3645230">
    <ele>5613.5</ele>
    <time>2026-06-23T03:09:45Z</time>
   </trkpt>
   <trkpt lat="-3.0800110" lon="37.3645230">
    <ele>5613.5</ele>
    <time>2026-06-23T03:09:46Z</time>
   </trkpt>
   <trkpt lat="-3.0800100" lon="37.3645250">
    <ele>5613.5</ele>
    <time>2026-06-23T03:09:47Z</time>
   </trkpt>
   <trkpt lat="-3.0800080" lon="37.3645250">
    <ele>5613.6</ele>
    <time>2026-06-23T03:09:48Z</time>
   </trkpt>
   <trkpt lat="-3.0800090" lon="37.3645260">
    <ele>5613.6</ele>
    <time>2026-06-23T03:09:49Z</time>
   </trkpt>
   <trkpt lat="-3.0800100" lon="37.3645260">
    <ele>5613.6</ele>
    <time>2026-06-23T03:09:50Z</time>
   </trkpt>
   <trkpt lat="-3.0800070" lon="37.3645280">
    <ele>5613.6</ele>
    <time>2026-06-23T03:09:51Z</time>
   </trkpt>
   <trkpt lat="-3.0800040" lon="37.3645290">
    <ele>5613.7</ele>
    <time>2026-06-23T03:09:52Z</time>
   </trkpt>
   <trkpt lat="-3.0800010" lon="37.3645320">
    <ele>5613.8</ele>
    <time>2026-06-23T03:09:53Z</time>
   </trkpt>
   <trkpt lat="-3.0799970" lon="37.3645340">
    <ele>5613.8</ele>
    <time>2026-06-23T03:09:54Z</time>
   </trkpt>
   <trkpt lat="-3.0799950" lon="37.3645360">
    <ele>5613.9</ele>
    <time>2026-06-23T03:09:55Z</time>
   </trkpt>
   <trkpt lat="-3.0799920" lon="37.3645360">
    <ele>5613.9</ele>
    <time>2026-06-23T03:09:56Z</time>
   </trkpt>
   <trkpt lat="-3.0799870" lon="37.3645380">
    <ele>5614.0</ele>
    <time>2026-06-23T03:09:57Z</time>
   </trkpt>
   <trkpt lat="-3.0799860" lon="37.3645380">
    <ele>5614.0</ele>
    <time>2026-06-23T03:09:58Z</time>
   </trkpt>
   <trkpt lat="-3.0799830" lon="37.3645370">
    <ele>5614.0</ele>
    <time>2026-06-23T03:09:59Z</time>
   </trkpt>
   <trkpt lat="-3.0799820" lon="37.3645370">
    <ele>5614.1</ele>
    <time>2026-06-23T03:10:00Z</time>
   </trkpt>
   <trkpt lat="-3.0799800" lon="37.3645360">
    <ele>5614.1</ele>
    <time>2026-06-23T03:10:01Z</time>
   </trkpt>
   <trkpt lat="-3.0799770" lon="37.3645370">
    <ele>5614.1</ele>
    <time>2026-06-23T03:10:02Z</time>
   </trkpt>
   <trkpt lat="-3.0799750" lon="37.3645350">
    <ele>5614.2</ele>
    <time>2026-06-23T03:10:03Z</time>
   </trkpt>
   <trkpt lat="-3.0799720" lon="37.3645370">
    <ele>5614.2</ele>
    <time>2026-06-23T03:10:04Z</time>
   </trkpt>
   <trkpt lat="-3.0799700" lon="37.3645360">
    <ele>5614.3</ele>
    <time>2026-06-23T03:10:05Z</time>
   </trkpt>
   <trkpt lat="-3.0799680" lon="37.3645360">
    <ele>5614.3</ele>
    <time>2026-06-23T03:10:06Z</time>
   </trkpt>
   <trkpt lat="-3.0799660" lon="37.3645360">
    <ele>5614.3</ele>
    <time>2026-06-23T03:10:07Z</time>
   </trkpt>
   <trkpt lat="-3.0799650" lon="37.3645340">
    <ele>5614.3</ele>
    <time>2026-06-23T03:10:08Z</time>
   </trkpt>
   <trkpt lat="-3.0799630" lon="37.3645340">
    <ele>5614.4</ele>
    <time>2026-06-23T03:10:09Z</time>
   </trkpt>
   <trkpt lat="-3.0799600" lon="37.3645320">
    <ele>5614.4</ele>
    <time>2026-06-23T03:10:10Z</time>
   </trkpt>
   <trkpt lat="-3.0799600" lon="37.3645300">
    <ele>5614.5</ele>
    <time>2026-06-23T03:10:11Z</time>
   </trkpt>
   <trkpt lat="-3.0799590" lon="37.3645290">
    <ele>5614.5</ele>
    <time>2026-06-23T03:10:12Z</time>
   </trkpt>
   <trkpt lat="-3.0799570" lon="37.3645270">
    <ele>5614.5</ele>
    <time>2026-06-23T03:10:13Z</time>
   </trkpt>
   <trkpt lat="-3.0799560" lon="37.3645260">
    <ele>5614.5</ele>
    <time>2026-06-23T03:10:14Z</time>
   </trkpt>
   <trkpt lat="-3.0799540" lon="37.3645240">
    <ele>5614.6</ele>
    <time>2026-06-23T03:10:15Z</time>
   </trkpt>
   <trkpt lat="-3.0799530" lon="37.3645220">
    <ele>5614.6</ele>
    <time>2026-06-23T03:10:16Z</time>
   </trkpt>
   <trkpt lat="-3.0799520" lon="37.3645220">
    <ele>5614.6</ele>
    <time>2026-06-23T03:10:17Z</time>
   </trkpt>
   <trkpt lat="-3.0799480" lon="37.3645200">
    <ele>5614.7</ele>
    <time>2026-06-23T03:10:18Z</time>
   </trkpt>
   <trkpt lat="-3.0799500" lon="37.3645190">
    <ele>5614.7</ele>
    <time>2026-06-23T03:10:19Z</time>
   </trkpt>
   <trkpt lat="-3.0799490" lon="37.3645170">
    <ele>5614.7</ele>
    <time>2026-06-23T03:10:20Z</time>
   </trkpt>
   <trkpt lat="-3.0799500" lon="37.3645160">
    <ele>5614.8</ele>
    <time>2026-06-23T03:10:21Z</time>
   </trkpt>
   <trkpt lat="-3.0799500" lon="37.3645140">
    <ele>5614.8</ele>
    <time>2026-06-23T03:10:22Z</time>
   </trkpt>
   <trkpt lat="-3.0799480" lon="37.3645130">
    <ele>5614.8</ele>
    <time>2026-06-23T03:10:23Z</time>
   </trkpt>
   <trkpt lat="-3.0799440" lon="37.3645160">
    <ele>5614.9</ele>
    <time>2026-06-23T03:10:24Z</time>
   </trkpt>
   <trkpt lat="-3.0799430" lon="37.3645080">
    <ele>5615.0</ele>
    <time>2026-06-23T03:10:25Z</time>
   </trkpt>
   <trkpt lat="-3.0799430" lon="37.3645070">
    <ele>5615.0</ele>
    <time>2026-06-23T03:10:26Z</time>
   </trkpt>
   <trkpt lat="-3.0799430" lon="37.3645060">
    <ele>5615.0</ele>
    <time>2026-06-23T03:10:27Z</time>
   </trkpt>
   <trkpt lat="-3.0799420" lon="37.3645020">
    <ele>5615.1</ele>
    <time>2026-06-23T03:10:28Z</time>
   </trkpt>
   <trkpt lat="-3.0799410" lon="37.3645000">
    <ele>5615.1</ele>
    <time>2026-06-23T03:10:29Z</time>
   </trkpt>
   <trkpt lat="-3.0799410" lon="37.3644980">
    <ele>5615.2</ele>
    <time>2026-06-23T03:10:30Z</time>
   </trkpt>
   <trkpt lat="-3.0799400" lon="37.3644940">
    <ele>5615.2</ele>
    <time>2026-06-23T03:10:31Z</time>
   </trkpt>
   <trkpt lat="-3.0799390" lon="37.3644940">
    <ele>5615.2</ele>
    <time>2026-06-23T03:10:32Z</time>
   </trkpt>
   <trkpt lat="-3.0799390" lon="37.3644910">
    <ele>5615.3</ele>
    <time>2026-06-23T03:10:33Z</time>
   </trkpt>
   <trkpt lat="-3.0799390" lon="37.3644900">
    <ele>5615.3</ele>
    <time>2026-06-23T03:10:34Z</time>
   </trkpt>
   <trkpt lat="-3.0799370" lon="37.3644880">
    <ele>5615.3</ele>
    <time>2026-06-23T03:10:35Z</time>
   </trkpt>
   <trkpt lat="-3.0799360" lon="37.3644870">
    <ele>5615.4</ele>
    <time>2026-06-23T03:10:36Z</time>
   </trkpt>
   <trkpt lat="-3.0799340" lon="37.3644860">
    <ele>5615.4</ele>
    <time>2026-06-23T03:10:37Z</time>
   </trkpt>
   <trkpt lat="-3.0799320" lon="37.3644830">
    <ele>5615.4</ele>
    <time>2026-06-23T03:10:38Z</time>
   </trkpt>
   <trkpt lat="-3.0799320" lon="37.3644820">
    <ele>5615.5</ele>
    <time>2026-06-23T03:10:39Z</time>
   </trkpt>
   <trkpt lat="-3.0799300" lon="37.3644790">
    <ele>5615.5</ele>
    <time>2026-06-23T03:10:40Z</time>
   </trkpt>
   <trkpt lat="-3.0799300" lon="37.3644770">
    <ele>5615.5</ele>
    <time>2026-06-23T03:10:41Z</time>
   </trkpt>
   <trkpt lat="-3.0799300" lon="37.3644770">
    <ele>5615.5</ele>
    <time>2026-06-23T03:10:42Z</time>
   </trkpt>
   <trkpt lat="-3.0799280" lon="37.3644730">
    <ele>5615.6</ele>
    <time>2026-06-23T03:10:43Z</time>
   </trkpt>
   <trkpt lat="-3.0799280" lon="37.3644720">
    <ele>5615.6</ele>
    <time>2026-06-23T03:10:44Z</time>
   </trkpt>
   <trkpt lat="-3.0799260" lon="37.3644680">
    <ele>5615.7</ele>
    <time>2026-06-23T03:10:45Z</time>
   </trkpt>
   <trkpt lat="-3.0799250" lon="37.3644670">
    <ele>5615.7</ele>
    <time>2026-06-23T03:10:46Z</time>
   </trkpt>
   <trkpt lat="-3.0799240" lon="37.3644670">
    <ele>5615.7</ele>
    <time>2026-06-23T03:10:47Z</time>
   </trkpt>
   <trkpt lat="-3.0799200" lon="37.3644640">
    <ele>5615.8</ele>
    <time>2026-06-23T03:10:48Z</time>
   </trkpt>
   <trkpt lat="-3.0799210" lon="37.3644650">
    <ele>5615.8</ele>
    <time>2026-06-23T03:10:49Z</time>
   </trkpt>
   <trkpt lat="-3.0799170" lon="37.3644640">
    <ele>5615.9</ele>
    <time>2026-06-23T03:10:50Z</time>
   </trkpt>
   <trkpt lat="-3.0799160" lon="37.3644660">
    <ele>5615.9</ele>
    <time>2026-06-23T03:10:51Z</time>
   </trkpt>
   <trkpt lat="-3.0799160" lon="37.3644660">
    <ele>5615.9</ele>
    <time>2026-06-23T03:10:52Z</time>
   </trkpt>
   <trkpt lat="-3.0799140" lon="37.3644670">
    <ele>5615.9</ele>
    <time>2026-06-23T03:10:53Z</time>
   </trkpt>
   <trkpt lat="-3.0799110" lon="37.3644650">
    <ele>5616.0</ele>
    <time>2026-06-23T03:10:54Z</time>
   </trkpt>
   <trkpt lat="-3.0799110" lon="37.3644660">
    <ele>5616.0</ele>
    <time>2026-06-23T03:10:55Z</time>
   </trkpt>
   <trkpt lat="-3.0799090" lon="37.3644650">
    <ele>5616.0</ele>
    <time>2026-06-23T03:10:56Z</time>
   </trkpt>
   <trkpt lat="-3.0799060" lon="37.3644640">
    <ele>5616.1</ele>
    <time>2026-06-23T03:10:57Z</time>
   </trkpt>
   <trkpt lat="-3.0799050" lon="37.3644630">
    <ele>5616.1</ele>
    <time>2026-06-23T03:10:58Z</time>
   </trkpt>
   <trkpt lat="-3.0799050" lon="37.3644630">
    <ele>5616.1</ele>
    <time>2026-06-23T03:10:59Z</time>
   </trkpt>
   <trkpt lat="-3.0799010" lon="37.3644610">
    <ele>5616.2</ele>
    <time>2026-06-23T03:11:00Z</time>
   </trkpt>
   <trkpt lat="-3.0799000" lon="37.3644620">
    <ele>5616.2</ele>
    <time>2026-06-23T03:11:01Z</time>
   </trkpt>
   <trkpt lat="-3.0798980" lon="37.3644600">
    <ele>5616.2</ele>
    <time>2026-06-23T03:11:02Z</time>
   </trkpt>
   <trkpt lat="-3.0798970" lon="37.3644600">
    <ele>5616.2</ele>
    <time>2026-06-23T03:11:03Z</time>
   </trkpt>
   <trkpt lat="-3.0798960" lon="37.3644590">
    <ele>5616.2</ele>
    <time>2026-06-23T03:11:04Z</time>
   </trkpt>
   <trkpt lat="-3.0798940" lon="37.3644580">
    <ele>5616.3</ele>
    <time>2026-06-23T03:11:05Z</time>
   </trkpt>
   <trkpt lat="-3.0798930" lon="37.3644580">
    <ele>5616.3</ele>
    <time>2026-06-23T03:11:06Z</time>
   </trkpt>
   <trkpt lat="-3.0798890" lon="37.3644560">
    <ele>5616.4</ele>
    <time>2026-06-23T03:11:07Z</time>
   </trkpt>
   <trkpt lat="-3.0798890" lon="37.3644560">
    <ele>5616.4</ele>
    <time>2026-06-23T03:11:08Z</time>
   </trkpt>
   <trkpt lat="-3.0798860" lon="37.3644540">
    <ele>5616.4</ele>
    <time>2026-06-23T03:11:09Z</time>
   </trkpt>
   <trkpt lat="-3.0798860" lon="37.3644550">
    <ele>5616.4</ele>
    <time>2026-06-23T03:11:10Z</time>
   </trkpt>
   <trkpt lat="-3.0798840" lon="37.3644530">
    <ele>5616.5</ele>
    <time>2026-06-23T03:11:11Z</time>
   </trkpt>
   <trkpt lat="-3.0798820" lon="37.3644540">
    <ele>5616.5</ele>
    <time>2026-06-23T03:11:12Z</time>
   </trkpt>
   <trkpt lat="-3.0798790" lon="37.3644510">
    <ele>5616.6</ele>
    <time>2026-06-23T03:11:13Z</time>
   </trkpt>
   <trkpt lat="-3.0798790" lon="37.3644520">
    <ele>5616.6</ele>
    <time>2026-06-23T03:11:14Z</time>
   </trkpt>
   <trkpt lat="-3.0798770" lon="37.3644500">
    <ele>5616.6</ele>
    <time>2026-06-23T03:11:15Z</time>
   </trkpt>
   <trkpt lat="-3.0798750" lon="37.3644500">
    <ele>5616.6</ele>
    <time>2026-06-23T03:11:16Z</time>
   </trkpt>
   <trkpt lat="-3.0798730" lon="37.3644490">
    <ele>5616.7</ele>
    <time>2026-06-23T03:11:17Z</time>
   </trkpt>
   <trkpt lat="-3.0798700" lon="37.3644470">
    <ele>5616.7</ele>
    <time>2026-06-23T03:11:18Z</time>
   </trkpt>
   <trkpt lat="-3.0798700" lon="37.3644480">
    <ele>5616.7</ele>
    <time>2026-06-23T03:11:19Z</time>
   </trkpt>
   <trkpt lat="-3.0798680" lon="37.3644480">
    <ele>5616.8</ele>
    <time>2026-06-23T03:11:20Z</time>
   </trkpt>
   <trkpt lat="-3.0798670" lon="37.3644480">
    <ele>5616.8</ele>
    <time>2026-06-23T03:11:21Z</time>
   </trkpt>
   <trkpt lat="-3.0798630" lon="37.3644450">
    <ele>5616.9</ele>
    <time>2026-06-23T03:11:22Z</time>
   </trkpt>
   <trkpt lat="-3.0798610" lon="37.3644450">
    <ele>5616.9</ele>
    <time>2026-06-23T03:11:23Z</time>
   </trkpt>
   <trkpt lat="-3.0798590" lon="37.3644450">
    <ele>5616.9</ele>
    <time>2026-06-23T03:11:24Z</time>
   </trkpt>
   <trkpt lat="-3.0798590" lon="37.3644450">
    <ele>5616.9</ele>
    <time>2026-06-23T03:11:25Z</time>
   </trkpt>
   <trkpt lat="-3.0798570" lon="37.3644420">
    <ele>5617.0</ele>
    <time>2026-06-23T03:11:26Z</time>
   </trkpt>
   <trkpt lat="-3.0798540" lon="37.3644420">
    <ele>5617.0</ele>
    <time>2026-06-23T03:11:27Z</time>
   </trkpt>
   <trkpt lat="-3.0798530" lon="37.3644410">
    <ele>5617.0</ele>
    <time>2026-06-23T03:11:28Z</time>
   </trkpt>
   <trkpt lat="-3.0798500" lon="37.3644390">
    <ele>5617.1</ele>
    <time>2026-06-23T03:11:29Z</time>
   </trkpt>
   <trkpt lat="-3.0798500" lon="37.3644390">
    <ele>5617.1</ele>
    <time>2026-06-23T03:11:30Z</time>
   </trkpt>
   <trkpt lat="-3.0798480" lon="37.3644370">
    <ele>5617.1</ele>
    <time>2026-06-23T03:11:31Z</time>
   </trkpt>
   <trkpt lat="-3.0798470" lon="37.3644380">
    <ele>5617.1</ele>
    <time>2026-06-23T03:11:32Z</time>
   </trkpt>
   <trkpt lat="-3.0798450" lon="37.3644350">
    <ele>5617.2</ele>
    <time>2026-06-23T03:11:33Z</time>
   </trkpt>
   <trkpt lat="-3.0798430" lon="37.3644350">
    <ele>5617.2</ele>
    <time>2026-06-23T03:11:34Z</time>
   </trkpt>
   <trkpt lat="-3.0798420" lon="37.3644340">
    <ele>5617.2</ele>
    <time>2026-06-23T03:11:35Z</time>
   </trkpt>
   <trkpt lat="-3.0798420" lon="37.3644330">
    <ele>5617.3</ele>
    <time>2026-06-23T03:11:36Z</time>
   </trkpt>
   <trkpt lat="-3.0798400" lon="37.3644320">
    <ele>5617.3</ele>
    <time>2026-06-23T03:11:37Z</time>
   </trkpt>
   <trkpt lat="-3.0798400" lon="37.3644300">
    <ele>5617.3</ele>
    <time>2026-06-23T03:11:38Z</time>
   </trkpt>
   <trkpt lat="-3.0798410" lon="37.3644300">
    <ele>5617.3</ele>
    <time>2026-06-23T03:11:39Z</time>
   </trkpt>
   <trkpt lat="-3.0798400" lon="37.3644280">
    <ele>5617.4</ele>
    <time>2026-06-23T03:11:40Z</time>
   </trkpt>
   <trkpt lat="-3.0798380" lon="37.3644280">
    <ele>5617.4</ele>
    <time>2026-06-23T03:11:41Z</time>
   </trkpt>
   <trkpt lat="-3.0798380" lon="37.3644250">
    <ele>5617.4</ele>
    <time>2026-06-23T03:11:42Z</time>
   </trkpt>
   <trkpt lat="-3.0798360" lon="37.3644240">
    <ele>5617.5</ele>
    <time>2026-06-23T03:11:43Z</time>
   </trkpt>
   <trkpt lat="-3.0798360" lon="37.3644230">
    <ele>5617.5</ele>
    <time>2026-06-23T03:11:44Z</time>
   </trkpt>
   <trkpt lat="-3.0798350" lon="37.3644220">
    <ele>5617.5</ele>
    <time>2026-06-23T03:11:45Z</time>
   </trkpt>
   <trkpt lat="-3.0798340" lon="37.3644190">
    <ele>5617.5</ele>
    <time>2026-06-23T03:11:46Z</time>
   </trkpt>
   <trkpt lat="-3.0798330" lon="37.3644190">
    <ele>5617.6</ele>
    <time>2026-06-23T03:11:47Z</time>
   </trkpt>
   <trkpt lat="-3.0798320" lon="37.3644160">
    <ele>5617.6</ele>
    <time>2026-06-23T03:11:48Z</time>
   </trkpt>
   <trkpt lat="-3.0798310" lon="37.3644150">
    <ele>5617.6</ele>
    <time>2026-06-23T03:11:49Z</time>
   </trkpt>
   <trkpt lat="-3.0798310" lon="37.3644140">
    <ele>5617.6</ele>
    <time>2026-06-23T03:11:50Z</time>
   </trkpt>
   <trkpt lat="-3.0798290" lon="37.3644120">
    <ele>5617.7</ele>
    <time>2026-06-23T03:11:51Z</time>
   </trkpt>
   <trkpt lat="-3.0798290" lon="37.3644110">
    <ele>5617.7</ele>
    <time>2026-06-23T03:11:52Z</time>
   </trkpt>
   <trkpt lat="-3.0798290" lon="37.3644090">
    <ele>5617.7</ele>
    <time>2026-06-23T03:11:53Z</time>
   </trkpt>
   <trkpt lat="-3.0798270" lon="37.3644070">
    <ele>5617.8</ele>
    <time>2026-06-23T03:11:54Z</time>
   </trkpt>
   <trkpt lat="-3.0798250" lon="37.3644060">
    <ele>5617.8</ele>
    <time>2026-06-23T03:11:55Z</time>
   </trkpt>
   <trkpt lat="-3.0798250" lon="37.3644050">
    <ele>5617.8</ele>
    <time>2026-06-23T03:11:56Z</time>
   </trkpt>
   <trkpt lat="-3.0798230" lon="37.3644030">
    <ele>5617.9</ele>
    <time>2026-06-23T03:11:57Z</time>
   </trkpt>
   <trkpt lat="-3.0798240" lon="37.3644040">
    <ele>5617.9</ele>
    <time>2026-06-23T03:11:58Z</time>
   </trkpt>
   <trkpt lat="-3.0798230" lon="37.3644020">
    <ele>5617.9</ele>
    <time>2026-06-23T03:11:59Z</time>
   </trkpt>
   <trkpt lat="-3.0798230" lon="37.3644010">
    <ele>5617.9</ele>
    <time>2026-06-23T03:12:00Z</time>
   </trkpt>
   <trkpt lat="-3.0798220" lon="37.3643980">
    <ele>5618.0</ele>
    <time>2026-06-23T03:12:01Z</time>
   </trkpt>
   <trkpt lat="-3.0798210" lon="37.3643970">
    <ele>5618.0</ele>
    <time>2026-06-23T03:12:02Z</time>
   </trkpt>
   <trkpt lat="-3.0798210" lon="37.3643960">
    <ele>5618.0</ele>
    <time>2026-06-23T03:12:03Z</time>
   </trkpt>
   <trkpt lat="-3.0798210" lon="37.3643940">
    <ele>5618.0</ele>
    <time>2026-06-23T03:12:04Z</time>
   </trkpt>
   <trkpt lat="-3.0798190" lon="37.3643910">
    <ele>5618.1</ele>
    <time>2026-06-23T03:12:05Z</time>
   </trkpt>
   <trkpt lat="-3.0798200" lon="37.3643920">
    <ele>5618.1</ele>
    <time>2026-06-23T03:12:06Z</time>
   </trkpt>
   <trkpt lat="-3.0798170" lon="37.3643900">
    <ele>5618.2</ele>
    <time>2026-06-23T03:12:07Z</time>
   </trkpt>
   <trkpt lat="-3.0798160" lon="37.3643860">
    <ele>5618.2</ele>
    <time>2026-06-23T03:12:08Z</time>
   </trkpt>
   <trkpt lat="-3.0798150" lon="37.3643850">
    <ele>5618.3</ele>
    <time>2026-06-23T03:12:09Z</time>
   </trkpt>
   <trkpt lat="-3.0798140" lon="37.3643850">
    <ele>5618.3</ele>
    <time>2026-06-23T03:12:10Z</time>
   </trkpt>
   <trkpt lat="-3.0798110" lon="37.3643810">
    <ele>5618.3</ele>
    <time>2026-06-23T03:12:11Z</time>
   </trkpt>
   <trkpt lat="-3.0798090" lon="37.3643790">
    <ele>5618.4</ele>
    <time>2026-06-23T03:12:12Z</time>
   </trkpt>
   <trkpt lat="-3.0798110" lon="37.3643790">
    <ele>5618.4</ele>
    <time>2026-06-23T03:12:13Z</time>
   </trkpt>
   <trkpt lat="-3.0798090" lon="37.3643780">
    <ele>5618.5</ele>
    <time>2026-06-23T03:12:14Z</time>
   </trkpt>
   <trkpt lat="-3.0798060" lon="37.3643750">
    <ele>5618.5</ele>
    <time>2026-06-23T03:12:15Z</time>
   </trkpt>
   <trkpt lat="-3.0798060" lon="37.3643730">
    <ele>5618.6</ele>
    <time>2026-06-23T03:12:16Z</time>
   </trkpt>
   <trkpt lat="-3.0798060" lon="37.3643740">
    <ele>5618.6</ele>
    <time>2026-06-23T03:12:17Z</time>
   </trkpt>
   <trkpt lat="-3.0798060" lon="37.3643760">
    <ele>5618.6</ele>
    <time>2026-06-23T03:12:18Z</time>
   </trkpt>
   <trkpt lat="-3.0798060" lon="37.3643760">
    <ele>5618.6</ele>
    <time>2026-06-23T03:12:19Z</time>
   </trkpt>
   <trkpt lat="-3.0798020" lon="37.3643720">
    <ele>5618.7</ele>
    <time>2026-06-23T03:12:20Z</time>
   </trkpt>
   <trkpt lat="-3.0798010" lon="37.3643730">
    <ele>5618.7</ele>
    <time>2026-06-23T03:12:21Z</time>
   </trkpt>
   <trkpt lat="-3.0798000" lon="37.3643730">
    <ele>5618.7</ele>
    <time>2026-06-23T03:12:22Z</time>
   </trkpt>
   <trkpt lat="-3.0797970" lon="37.3643740">
    <ele>5618.8</ele>
    <time>2026-06-23T03:12:23Z</time>
   </trkpt>
   <trkpt lat="-3.0797960" lon="37.3643730">
    <ele>5618.8</ele>
    <time>2026-06-23T03:12:24Z</time>
   </trkpt>
   <trkpt lat="-3.0797940" lon="37.3643720">
    <ele>5618.8</ele>
    <time>2026-06-23T03:12:25Z</time>
   </trkpt>
   <trkpt lat="-3.0797940" lon="37.3643710">
    <ele>5618.8</ele>
    <time>2026-06-23T03:12:26Z</time>
   </trkpt>
   <trkpt lat="-3.0797910" lon="37.3643710">
    <ele>5618.9</ele>
    <time>2026-06-23T03:12:27Z</time>
   </trkpt>
   <trkpt lat="-3.0797910" lon="37.3643690">
    <ele>5618.9</ele>
    <time>2026-06-23T03:12:28Z</time>
   </trkpt>
   <trkpt lat="-3.0797900" lon="37.3643700">
    <ele>5618.9</ele>
    <time>2026-06-23T03:12:29Z</time>
   </trkpt>
   <trkpt lat="-3.0797880" lon="37.3643670">
    <ele>5619.0</ele>
    <time>2026-06-23T03:12:30Z</time>
   </trkpt>
   <trkpt lat="-3.0797870" lon="37.3643670">
    <ele>5619.0</ele>
    <time>2026-06-23T03:12:31Z</time>
   </trkpt>
   <trkpt lat="-3.0797870" lon="37.3643650">
    <ele>5619.0</ele>
    <time>2026-06-23T03:12:32Z</time>
   </trkpt>
   <trkpt lat="-3.0797840" lon="37.3643650">
    <ele>5619.1</ele>
    <time>2026-06-23T03:12:33Z</time>
   </trkpt>
   <trkpt lat="-3.0797810" lon="37.3643650">
    <ele>5619.1</ele>
    <time>2026-06-23T03:12:34Z</time>
   </trkpt>
   <trkpt lat="-3.0797800" lon="37.3643660">
    <ele>5619.1</ele>
    <time>2026-06-23T03:12:35Z</time>
   </trkpt>
   <trkpt lat="-3.0797780" lon="37.3643640">
    <ele>5619.2</ele>
    <time>2026-06-23T03:12:36Z</time>
   </trkpt>
   <trkpt lat="-3.0797750" lon="37.3643640">
    <ele>5619.2</ele>
    <time>2026-06-23T03:12:37Z</time>
   </trkpt>
   <trkpt lat="-3.0797730" lon="37.3643640">
    <ele>5619.3</ele>
    <time>2026-06-23T03:12:38Z</time>
   </trkpt>
   <trkpt lat="-3.0797720" lon="37.3643630">
    <ele>5619.3</ele>
    <time>2026-06-23T03:12:39Z</time>
   </trkpt>
   <trkpt lat="-3.0797700" lon="37.3643610">
    <ele>5619.3</ele>
    <time>2026-06-23T03:12:40Z</time>
   </trkpt>
   <trkpt lat="-3.0797690" lon="37.3643600">
    <ele>5619.3</ele>
    <time>2026-06-23T03:12:41Z</time>
   </trkpt>
   <trkpt lat="-3.0797700" lon="37.3643600">
    <ele>5619.4</ele>
    <time>2026-06-23T03:12:42Z</time>
   </trkpt>
   <trkpt lat="-3.0797670" lon="37.3643550">
    <ele>5619.4</ele>
    <time>2026-06-23T03:12:43Z</time>
   </trkpt>
   <trkpt lat="-3.0797670" lon="37.3643560">
    <ele>5619.5</ele>
    <time>2026-06-23T03:12:44Z</time>
   </trkpt>
   <trkpt lat="-3.0797670" lon="37.3643540">
    <ele>5619.5</ele>
    <time>2026-06-23T03:12:45Z</time>
   </trkpt>
   <trkpt lat="-3.0797660" lon="37.3643550">
    <ele>5619.5</ele>
    <time>2026-06-23T03:12:46Z</time>
   </trkpt>
   <trkpt lat="-3.0797650" lon="37.3643540">
    <ele>5619.5</ele>
    <time>2026-06-23T03:12:47Z</time>
   </trkpt>
   <trkpt lat="-3.0797640" lon="37.3643510">
    <ele>5619.6</ele>
    <time>2026-06-23T03:12:48Z</time>
   </trkpt>
   <trkpt lat="-3.0797630" lon="37.3643500">
    <ele>5619.6</ele>
    <time>2026-06-23T03:12:49Z</time>
   </trkpt>
   <trkpt lat="-3.0797630" lon="37.3643490">
    <ele>5619.6</ele>
    <time>2026-06-23T03:12:50Z</time>
   </trkpt>
   <trkpt lat="-3.0797630" lon="37.3643460">
    <ele>5619.7</ele>
    <time>2026-06-23T03:12:51Z</time>
   </trkpt>
   <trkpt lat="-3.0797630" lon="37.3643430">
    <ele>5619.7</ele>
    <time>2026-06-23T03:12:52Z</time>
   </trkpt>
   <trkpt lat="-3.0797610" lon="37.3643430">
    <ele>5619.7</ele>
    <time>2026-06-23T03:12:53Z</time>
   </trkpt>
   <trkpt lat="-3.0797590" lon="37.3643400">
    <ele>5619.8</ele>
    <time>2026-06-23T03:12:54Z</time>
   </trkpt>
   <trkpt lat="-3.0797590" lon="37.3643390">
    <ele>5619.8</ele>
    <time>2026-06-23T03:12:55Z</time>
   </trkpt>
   <trkpt lat="-3.0797580" lon="37.3643370">
    <ele>5619.8</ele>
    <time>2026-06-23T03:12:56Z</time>
   </trkpt>
   <trkpt lat="-3.0797590" lon="37.3643360">
    <ele>5619.9</ele>
    <time>2026-06-23T03:12:57Z</time>
   </trkpt>
   <trkpt lat="-3.0797580" lon="37.3643360">
    <ele>5619.9</ele>
    <time>2026-06-23T03:12:58Z</time>
   </trkpt>
   <trkpt lat="-3.0797590" lon="37.3643320">
    <ele>5619.9</ele>
    <time>2026-06-23T03:12:59Z</time>
   </trkpt>
   <trkpt lat="-3.0797600" lon="37.3643310">
    <ele>5620.0</ele>
    <time>2026-06-23T03:13:00Z</time>
   </trkpt>
   <trkpt lat="-3.0797610" lon="37.3643280">
    <ele>5620.0</ele>
    <time>2026-06-23T03:13:01Z</time>
   </trkpt>
   <trkpt lat="-3.0797610" lon="37.3643260">
    <ele>5620.0</ele>
    <time>2026-06-23T03:13:02Z</time>
   </trkpt>
   <trkpt lat="-3.0797620" lon="37.3643250">
    <ele>5620.1</ele>
    <time>2026-06-23T03:13:03Z</time>
   </trkpt>
   <trkpt lat="-3.0797620" lon="37.3643250">
    <ele>5620.1</ele>
    <time>2026-06-23T03:13:04Z</time>
   </trkpt>
   <trkpt lat="-3.0797630" lon="37.3643200">
    <ele>5620.1</ele>
    <time>2026-06-23T03:13:05Z</time>
   </trkpt>
   <trkpt lat="-3.0797640" lon="37.3643190">
    <ele>5620.2</ele>
    <time>2026-06-23T03:13:06Z</time>
   </trkpt>
   <trkpt lat="-3.0797650" lon="37.3643150">
    <ele>5620.2</ele>
    <time>2026-06-23T03:13:07Z</time>
   </trkpt>
   <trkpt lat="-3.0797650" lon="37.3643160">
    <ele>5620.2</ele>
    <time>2026-06-23T03:13:08Z</time>
   </trkpt>
   <trkpt lat="-3.0797650" lon="37.3643120">
    <ele>5620.3</ele>
    <time>2026-06-23T03:13:09Z</time>
   </trkpt>
   <trkpt lat="-3.0797640" lon="37.3643110">
    <ele>5620.3</ele>
    <time>2026-06-23T03:13:10Z</time>
   </trkpt>
   <trkpt lat="-3.0797630" lon="37.3643090">
    <ele>5620.4</ele>
    <time>2026-06-23T03:13:11Z</time>
   </trkpt>
   <trkpt lat="-3.0797630" lon="37.3643050">
    <ele>5620.4</ele>
    <time>2026-06-23T03:13:12Z</time>
   </trkpt>
   <trkpt lat="-3.0797640" lon="37.3643060">
    <ele>5620.4</ele>
    <time>2026-06-23T03:13:13Z</time>
   </trkpt>
   <trkpt lat="-3.0797640" lon="37.3643020">
    <ele>5620.5</ele>
    <time>2026-06-23T03:13:14Z</time>
   </trkpt>
   <trkpt lat="-3.0797630" lon="37.3643000">
    <ele>5620.5</ele>
    <time>2026-06-23T03:13:15Z</time>
   </trkpt>
   <trkpt lat="-3.0797650" lon="37.3643010">
    <ele>5620.6</ele>
    <time>2026-06-23T03:13:16Z</time>
   </trkpt>
   <trkpt lat="-3.0797630" lon="37.3642970">
    <ele>5620.6</ele>
    <time>2026-06-23T03:13:17Z</time>
   </trkpt>
   <trkpt lat="-3.0797630" lon="37.3642940">
    <ele>5620.7</ele>
    <time>2026-06-23T03:13:18Z</time>
   </trkpt>
   <trkpt lat="-3.0797610" lon="37.3642920">
    <ele>5620.7</ele>
    <time>2026-06-23T03:13:19Z</time>
   </trkpt>
   <trkpt lat="-3.0797600" lon="37.3642890">
    <ele>5620.8</ele>
    <time>2026-06-23T03:13:20Z</time>
   </trkpt>
   <trkpt lat="-3.0797580" lon="37.3642900">
    <ele>5620.8</ele>
    <time>2026-06-23T03:13:21Z</time>
   </trkpt>
   <trkpt lat="-3.0797560" lon="37.3642900">
    <ele>5620.8</ele>
    <time>2026-06-23T03:13:22Z</time>
   </trkpt>
   <trkpt lat="-3.0797550" lon="37.3642890">
    <ele>5620.9</ele>
    <time>2026-06-23T03:13:23Z</time>
   </trkpt>
   <trkpt lat="-3.0797530" lon="37.3642890">
    <ele>5620.9</ele>
    <time>2026-06-23T03:13:24Z</time>
   </trkpt>
   <trkpt lat="-3.0797520" lon="37.3642890">
    <ele>5620.9</ele>
    <time>2026-06-23T03:13:25Z</time>
   </trkpt>
   <trkpt lat="-3.0797520" lon="37.3642890">
    <ele>5620.9</ele>
    <time>2026-06-23T03:13:26Z</time>
   </trkpt>
   <trkpt lat="-3.0797510" lon="37.3642900">
    <ele>5620.9</ele>
    <time>2026-06-23T03:13:27Z</time>
   </trkpt>
   <trkpt lat="-3.0797480" lon="37.3642880">
    <ele>5621.0</ele>
    <time>2026-06-23T03:13:28Z</time>
   </trkpt>
   <trkpt lat="-3.0797460" lon="37.3642870">
    <ele>5621.0</ele>
    <time>2026-06-23T03:13:29Z</time>
   </trkpt>
   <trkpt lat="-3.0797460" lon="37.3642880">
    <ele>5621.0</ele>
    <time>2026-06-23T03:13:30Z</time>
   </trkpt>
   <trkpt lat="-3.0797430" lon="37.3642860">
    <ele>5621.1</ele>
    <time>2026-06-23T03:13:31Z</time>
   </trkpt>
   <trkpt lat="-3.0797420" lon="37.3642880">
    <ele>5621.1</ele>
    <time>2026-06-23T03:13:32Z</time>
   </trkpt>
   <trkpt lat="-3.0797410" lon="37.3642880">
    <ele>5621.1</ele>
    <time>2026-06-23T03:13:33Z</time>
   </trkpt>
   <trkpt lat="-3.0797380" lon="37.3642880">
    <ele>5621.2</ele>
    <time>2026-06-23T03:13:34Z</time>
   </trkpt>
   <trkpt lat="-3.0797340" lon="37.3642880">
    <ele>5621.2</ele>
    <time>2026-06-23T03:13:35Z</time>
   </trkpt>
   <trkpt lat="-3.0797310" lon="37.3642870">
    <ele>5621.3</ele>
    <time>2026-06-23T03:13:36Z</time>
   </trkpt>
   <trkpt lat="-3.0797290" lon="37.3642900">
    <ele>5621.3</ele>
    <time>2026-06-23T03:13:37Z</time>
   </trkpt>
   <trkpt lat="-3.0797290" lon="37.3642930">
    <ele>5621.4</ele>
    <time>2026-06-23T03:13:38Z</time>
   </trkpt>
   <trkpt lat="-3.0797240" lon="37.3642880">
    <ele>5621.5</ele>
    <time>2026-06-23T03:13:39Z</time>
   </trkpt>
   <trkpt lat="-3.0797230" lon="37.3642870">
    <ele>5621.5</ele>
    <time>2026-06-23T03:13:40Z</time>
   </trkpt>
   <trkpt lat="-3.0797230" lon="37.3642890">
    <ele>5621.5</ele>
    <time>2026-06-23T03:13:41Z</time>
   </trkpt>
   <trkpt lat="-3.0797220" lon="37.3642900">
    <ele>5621.6</ele>
    <time>2026-06-23T03:13:42Z</time>
   </trkpt>
   <trkpt lat="-3.0797200" lon="37.3642860">
    <ele>5621.6</ele>
    <time>2026-06-23T03:13:43Z</time>
   </trkpt>
   <trkpt lat="-3.0797190" lon="37.3642850">
    <ele>5621.6</ele>
    <time>2026-06-23T03:13:44Z</time>
   </trkpt>
   <trkpt lat="-3.0797160" lon="37.3642840">
    <ele>5621.7</ele>
    <time>2026-06-23T03:13:45Z</time>
   </trkpt>
   <trkpt lat="-3.0797160" lon="37.3642840">
    <ele>5621.7</ele>
    <time>2026-06-23T03:13:46Z</time>
   </trkpt>
   <trkpt lat="-3.0797200" lon="37.3642810">
    <ele>5621.8</ele>
    <time>2026-06-23T03:13:47Z</time>
   </trkpt>
   <trkpt lat="-3.0797150" lon="37.3642800">
    <ele>5621.8</ele>
    <time>2026-06-23T03:13:48Z</time>
   </trkpt>
   <trkpt lat="-3.0796940" lon="37.3642830">
    <ele>5622.2</ele>
    <time>2026-06-23T03:13:49Z</time>
   </trkpt>
   <trkpt lat="-3.0796400" lon="37.3642660">
    <ele>5623.0</ele>
    <time>2026-06-23T03:13:50Z</time>
   </trkpt>
   <trkpt lat="-3.0795860" lon="37.3642470">
    <ele>5623.9</ele>
    <time>2026-06-23T03:13:51Z</time>
   </trkpt>
   <trkpt lat="-3.0795380" lon="37.3642290">
    <ele>5624.7</ele>
    <time>2026-06-23T03:13:52Z</time>
   </trkpt>
   <trkpt lat="-3.0797000" lon="37.3642790">
    <ele>5627.2</ele>
    <time>2026-06-23T03:13:53Z</time>
   </trkpt>
   <trkpt lat="-3.0796960" lon="37.3642780">
    <ele>5627.3</ele>
    <time>2026-06-23T03:13:54Z</time>
   </trkpt>
   <trkpt lat="-3.0796920" lon="37.3642770">
    <ele>5627.3</ele>
    <time>2026-06-23T03:13:55Z</time>
   </trkpt>
   <trkpt lat="-3.0796910" lon="37.3642780">
    <ele>5627.4</ele>
    <time>2026-06-23T03:13:56Z</time>
   </trkpt>
   <trkpt lat="-3.0796900" lon="37.3642780">
    <ele>5627.4</ele>
    <time>2026-06-23T03:13:57Z</time>
   </trkpt>
   <trkpt lat="-3.0796850" lon="37.3642750">
    <ele>5627.5</ele>
    <time>2026-06-23T03:13:58Z</time>
   </trkpt>
   <trkpt lat="-3.0796830" lon="37.3642730">
    <ele>5627.5</ele>
    <time>2026-06-23T03:13:59Z</time>
   </trkpt>
   <trkpt lat="-3.0796820" lon="37.3642710">
    <ele>5627.5</ele>
    <time>2026-06-23T03:14:00Z</time>
   </trkpt>
   <trkpt lat="-3.0796800" lon="37.3642700">
    <ele>5627.6</ele>
    <time>2026-06-23T03:14:01Z</time>
   </trkpt>
   <trkpt lat="-3.0796790" lon="37.3642680">
    <ele>5627.6</ele>
    <time>2026-06-23T03:14:02Z</time>
   </trkpt>
   <trkpt lat="-3.0796810" lon="37.3642670">
    <ele>5627.6</ele>
    <time>2026-06-23T03:14:03Z</time>
   </trkpt>
   <trkpt lat="-3.0796790" lon="37.3642630">
    <ele>5627.7</ele>
    <time>2026-06-23T03:14:04Z</time>
   </trkpt>
   <trkpt lat="-3.0796780" lon="37.3642600">
    <ele>5627.7</ele>
    <time>2026-06-23T03:14:05Z</time>
   </trkpt>
   <trkpt lat="-3.0796790" lon="37.3642590">
    <ele>5627.8</ele>
    <time>2026-06-23T03:14:06Z</time>
   </trkpt>
   <trkpt lat="-3.0796800" lon="37.3642580">
    <ele>5627.8</ele>
    <time>2026-06-23T03:14:07Z</time>
   </trkpt>
   <trkpt lat="-3.0796770" lon="37.3642550">
    <ele>5627.8</ele>
    <time>2026-06-23T03:14:08Z</time>
   </trkpt>
   <trkpt lat="-3.0796770" lon="37.3642530">
    <ele>5627.9</ele>
    <time>2026-06-23T03:14:09Z</time>
   </trkpt>
   <trkpt lat="-3.0796750" lon="37.3642520">
    <ele>5627.9</ele>
    <time>2026-06-23T03:14:10Z</time>
   </trkpt>
   <trkpt lat="-3.0796810" lon="37.3642550">
    <ele>5628.0</ele>
    <time>2026-06-23T03:14:11Z</time>
   </trkpt>
   <trkpt lat="-3.0796750" lon="37.3642600">
    <ele>5628.1</ele>
    <time>2026-06-23T03:14:12Z</time>
   </trkpt>
   <trkpt lat="-3.0796730" lon="37.3642600">
    <ele>5628.2</ele>
    <time>2026-06-23T03:14:13Z</time>
   </trkpt>
   <trkpt lat="-3.0796770" lon="37.3642570">
    <ele>5628.2</ele>
    <time>2026-06-23T03:14:14Z</time>
   </trkpt>
   <trkpt lat="-3.0796690" lon="37.3642610">
    <ele>5628.4</ele>
    <time>2026-06-23T03:14:15Z</time>
   </trkpt>
   <trkpt lat="-3.0796680" lon="37.3642620">
    <ele>5628.4</ele>
    <time>2026-06-23T03:14:16Z</time>
   </trkpt>
   <trkpt lat="-3.0796670" lon="37.3642610">
    <ele>5628.4</ele>
    <time>2026-06-23T03:14:17Z</time>
   </trkpt>
   <trkpt lat="-3.0796670" lon="37.3642580">
    <ele>5628.5</ele>
    <time>2026-06-23T03:14:18Z</time>
   </trkpt>
   <trkpt lat="-3.0796630" lon="37.3642600">
    <ele>5628.5</ele>
    <time>2026-06-23T03:14:19Z</time>
   </trkpt>
   <trkpt lat="-3.0796640" lon="37.3642600">
    <ele>5628.5</ele>
    <time>2026-06-23T03:14:20Z</time>
   </trkpt>
   <trkpt lat="-3.0796620" lon="37.3642600">
    <ele>5628.6</ele>
    <time>2026-06-23T03:14:21Z</time>
   </trkpt>
   <trkpt lat="-3.0796590" lon="37.3642600">
    <ele>5628.6</ele>
    <time>2026-06-23T03:14:22Z</time>
   </trkpt>
   <trkpt lat="-3.0796580" lon="37.3642620">
    <ele>5628.6</ele>
    <time>2026-06-23T03:14:23Z</time>
   </trkpt>
   <trkpt lat="-3.0796580" lon="37.3642620">
    <ele>5628.6</ele>
    <time>2026-06-23T03:14:24Z</time>
   </trkpt>
   <trkpt lat="-3.0796540" lon="37.3642640">
    <ele>5628.7</ele>
    <time>2026-06-23T03:14:25Z</time>
   </trkpt>
   <trkpt lat="-3.0796490" lon="37.3642670">
    <ele>5628.8</ele>
    <time>2026-06-23T03:14:26Z</time>
   </trkpt>
   <trkpt lat="-3.0796480" lon="37.3642740">
    <ele>5628.9</ele>
    <time>2026-06-23T03:14:27Z</time>
   </trkpt>
   <trkpt lat="-3.0796450" lon="37.3642720">
    <ele>5629.0</ele>
    <time>2026-06-23T03:14:28Z</time>
   </trkpt>
   <trkpt lat="-3.0796350" lon="37.3642770">
    <ele>5629.1</ele>
    <time>2026-06-23T03:14:29Z</time>
   </trkpt>
   <trkpt lat="-3.0796380" lon="37.3642740">
    <ele>5629.2</ele>
    <time>2026-06-23T03:14:30Z</time>
   </trkpt>
   <trkpt lat="-3.0796380" lon="37.3642790">
    <ele>5629.3</ele>
    <time>2026-06-23T03:14:31Z</time>
   </trkpt>
   <trkpt lat="-3.0796320" lon="37.3642800">
    <ele>5629.3</ele>
    <time>2026-06-23T03:14:32Z</time>
   </trkpt>
   <trkpt lat="-3.0796300" lon="37.3642780">
    <ele>5629.4</ele>
    <time>2026-06-23T03:14:33Z</time>
   </trkpt>
   <trkpt lat="-3.0796270" lon="37.3642760">
    <ele>5629.4</ele>
    <time>2026-06-23T03:14:34Z</time>
   </trkpt>
   <trkpt lat="-3.0796270" lon="37.3642780">
    <ele>5629.5</ele>
    <time>2026-06-23T03:14:35Z</time>
   </trkpt>
   <trkpt lat="-3.0796250" lon="37.3642720">
    <ele>5629.6</ele>
    <time>2026-06-23T03:14:36Z</time>
   </trkpt>
   <trkpt lat="-3.0796200" lon="37.3642660">
    <ele>5629.7</ele>
    <time>2026-06-23T03:14:37Z</time>
   </trkpt>
   <trkpt lat="-3.0796170" lon="37.3642620">
    <ele>5629.8</ele>
    <time>2026-06-23T03:14:38Z</time>
   </trkpt>
   <trkpt lat="-3.0796140" lon="37.3642620">
    <ele>5629.8</ele>
    <time>2026-06-23T03:14:39Z</time>
   </trkpt>
   <trkpt lat="-3.0796130" lon="37.3642620">
    <ele>5629.8</ele>
    <time>2026-06-23T03:14:40Z</time>
   </trkpt>
   <trkpt lat="-3.0796100" lon="37.3642620">
    <ele>5629.9</ele>
    <time>2026-06-23T03:14:41Z</time>
   </trkpt>
   <trkpt lat="-3.0796080" lon="37.3642640">
    <ele>5629.9</ele>
    <time>2026-06-23T03:14:42Z</time>
   </trkpt>
   <trkpt lat="-3.0796060" lon="37.3642680">
    <ele>5630.0</ele>
    <time>2026-06-23T03:14:43Z</time>
   </trkpt>
   <trkpt lat="-3.0796080" lon="37.3642720">
    <ele>5630.0</ele>
    <time>2026-06-23T03:14:44Z</time>
   </trkpt>
   <trkpt lat="-3.0796090" lon="37.3642730">
    <ele>5630.1</ele>
    <time>2026-06-23T03:14:45Z</time>
   </trkpt>
   <trkpt lat="-3.0796070" lon="37.3642720">
    <ele>5630.1</ele>
    <time>2026-06-23T03:14:46Z</time>
   </trkpt>
   <trkpt lat="-3.0796040" lon="37.3642730">
    <ele>5630.1</ele>
    <time>2026-06-23T03:14:47Z</time>
   </trkpt>
   <trkpt lat="-3.0796060" lon="37.3642760">
    <ele>5630.2</ele>
    <time>2026-06-23T03:14:48Z</time>
   </trkpt>
   <trkpt lat="-3.0796080" lon="37.3642760">
    <ele>5630.2</ele>
    <time>2026-06-23T03:14:49Z</time>
   </trkpt>
   <trkpt lat="-3.0796060" lon="37.3642760">
    <ele>5630.3</ele>
    <time>2026-06-23T03:14:50Z</time>
   </trkpt>
   <trkpt lat="-3.0796040" lon="37.3642760">
    <ele>5630.3</ele>
    <time>2026-06-23T03:14:51Z</time>
   </trkpt>
   <trkpt lat="-3.0796060" lon="37.3642730">
    <ele>5630.3</ele>
    <time>2026-06-23T03:14:52Z</time>
   </trkpt>
   <trkpt lat="-3.0796010" lon="37.3642740">
    <ele>5630.4</ele>
    <time>2026-06-23T03:14:53Z</time>
   </trkpt>
   <trkpt lat="-3.0796040" lon="37.3642730">
    <ele>5630.5</ele>
    <time>2026-06-23T03:14:54Z</time>
   </trkpt>
   <trkpt lat="-3.0796030" lon="37.3642690">
    <ele>5630.5</ele>
    <time>2026-06-23T03:14:55Z</time>
   </trkpt>
   <trkpt lat="-3.0796010" lon="37.3642680">
    <ele>5630.6</ele>
    <time>2026-06-23T03:14:56Z</time>
   </trkpt>
   <trkpt lat="-3.0796010" lon="37.3642680">
    <ele>5630.6</ele>
    <time>2026-06-23T03:14:57Z</time>
   </trkpt>
   <trkpt lat="-3.0796010" lon="37.3642680">
    <ele>5630.6</ele>
    <time>2026-06-23T03:14:58Z</time>
   </trkpt>
   <trkpt lat="-3.0795980" lon="37.3642780">
    <ele>5630.7</ele>
    <time>2026-06-23T03:14:59Z</time>
   </trkpt>
   <trkpt lat="-3.0795940" lon="37.3642800">
    <ele>5630.8</ele>
    <time>2026-06-23T03:15:00Z</time>
   </trkpt>
   <trkpt lat="-3.0795910" lon="37.3642780">
    <ele>5630.8</ele>
    <time>2026-06-23T03:15:01Z</time>
   </trkpt>
   <trkpt lat="-3.0795920" lon="37.3642760">
    <ele>5630.9</ele>
    <time>2026-06-23T03:15:02Z</time>
   </trkpt>
   <trkpt lat="-3.0795920" lon="37.3642780">
    <ele>5630.9</ele>
    <time>2026-06-23T03:15:03Z</time>
   </trkpt>
   <trkpt lat="-3.0795920" lon="37.3642780">
    <ele>5630.9</ele>
    <time>2026-06-23T03:15:04Z</time>
   </trkpt>
   <trkpt lat="-3.0795920" lon="37.3642770">
    <ele>5630.9</ele>
    <time>2026-06-23T03:15:05Z</time>
   </trkpt>
   <trkpt lat="-3.0796010" lon="37.3643050">
    <ele>5631.3</ele>
    <time>2026-06-23T03:15:06Z</time>
   </trkpt>
   <trkpt lat="-3.0795690" lon="37.3643390">
    <ele>5632.0</ele>
    <time>2026-06-23T03:15:07Z</time>
   </trkpt>
   <trkpt lat="-3.0795790" lon="37.3643040">
    <ele>5632.6</ele>
    <time>2026-06-23T03:15:08Z</time>
   </trkpt>
   <trkpt lat="-3.0795820" lon="37.3642960">
    <ele>5632.7</ele>
    <time>2026-06-23T03:15:09Z</time>
   </trkpt>
   <trkpt lat="-3.0795840" lon="37.3642890">
    <ele>5632.8</ele>
    <time>2026-06-23T03:15:10Z</time>
   </trkpt>
   <trkpt lat="-3.0795870" lon="37.3642810">
    <ele>5632.9</ele>
    <time>2026-06-23T03:15:11Z</time>
   </trkpt>
   <trkpt lat="-3.0795900" lon="37.3642730">
    <ele>5633.1</ele>
    <time>2026-06-23T03:15:12Z</time>
   </trkpt>
   <trkpt lat="-3.0795920" lon="37.3642660">
    <ele>5633.2</ele>
    <time>2026-06-23T03:15:13Z</time>
   </trkpt>
   <trkpt lat="-3.0795950" lon="37.3642580">
    <ele>5633.3</ele>
    <time>2026-06-23T03:15:14Z</time>
   </trkpt>
   <trkpt lat="-3.0795980" lon="37.3642500">
    <ele>5633.5</ele>
    <time>2026-06-23T03:15:15Z</time>
   </trkpt>
   <trkpt lat="-3.0796000" lon="37.3642430">
    <ele>5633.6</ele>
    <time>2026-06-23T03:15:16Z</time>
   </trkpt>
   <trkpt lat="-3.0796030" lon="37.3642350">
    <ele>5633.7</ele>
    <time>2026-06-23T03:15:17Z</time>
   </trkpt>
   <trkpt lat="-3.0795810" lon="37.3642570">
    <ele>5634.2</ele>
    <time>2026-06-23T03:15:18Z</time>
   </trkpt>
   <trkpt lat="-3.0795820" lon="37.3642610">
    <ele>5634.3</ele>
    <time>2026-06-23T03:15:19Z</time>
   </trkpt>
   <trkpt lat="-3.0795790" lon="37.3642560">
    <ele>5634.4</ele>
    <time>2026-06-23T03:15:20Z</time>
   </trkpt>
   <trkpt lat="-3.0795720" lon="37.3642550">
    <ele>5634.5</ele>
    <time>2026-06-23T03:15:21Z</time>
   </trkpt>
   <trkpt lat="-3.0795720" lon="37.3642580">
    <ele>5634.5</ele>
    <time>2026-06-23T03:15:22Z</time>
   </trkpt>
   <trkpt lat="-3.0795730" lon="37.3642610">
    <ele>5634.6</ele>
    <time>2026-06-23T03:15:23Z</time>
   </trkpt>
   <trkpt lat="-3.0795700" lon="37.3642650">
    <ele>5634.7</ele>
    <time>2026-06-23T03:15:24Z</time>
   </trkpt>
   <trkpt lat="-3.0795680" lon="37.3642670">
    <ele>5634.7</ele>
    <time>2026-06-23T03:15:25Z</time>
   </trkpt>
   <trkpt lat="-3.0795690" lon="37.3642660">
    <ele>5634.7</ele>
    <time>2026-06-23T03:15:26Z</time>
   </trkpt>
   <trkpt lat="-3.0795740" lon="37.3642760">
    <ele>5634.9</ele>
    <time>2026-06-23T03:15:27Z</time>
   </trkpt>
   <trkpt lat="-3.0795790" lon="37.3642820">
    <ele>5635.0</ele>
    <time>2026-06-23T03:15:28Z</time>
   </trkpt>
   <trkpt lat="-3.0795710" lon="37.3642830">
    <ele>5635.2</ele>
    <time>2026-06-23T03:15:29Z</time>
   </trkpt>
   <trkpt lat="-3.0795600" lon="37.3642830">
    <ele>5635.4</ele>
    <time>2026-06-23T03:15:30Z</time>
   </trkpt>
   <trkpt lat="-3.0795570" lon="37.3642830">
    <ele>5635.4</ele>
    <time>2026-06-23T03:15:31Z</time>
   </trkpt>
   <trkpt lat="-3.0795530" lon="37.3642870">
    <ele>5635.5</ele>
    <time>2026-06-23T03:15:32Z</time>
   </trkpt>
   <trkpt lat="-3.0795430" lon="37.3642910">
    <ele>5635.7</ele>
    <time>2026-06-23T03:15:33Z</time>
   </trkpt>
   <trkpt lat="-3.0795380" lon="37.3642910">
    <ele>5635.8</ele>
    <time>2026-06-23T03:15:34Z</time>
   </trkpt>
   <trkpt lat="-3.0795340" lon="37.3642940">
    <ele>5635.8</ele>
    <time>2026-06-23T03:15:35Z</time>
   </trkpt>
   <trkpt lat="-3.0795310" lon="37.3642930">
    <ele>5635.9</ele>
    <time>2026-06-23T03:15:36Z</time>
   </trkpt>
   <trkpt lat="-3.0795250" lon="37.3642910">
    <ele>5636.0</ele>
    <time>2026-06-23T03:15:37Z</time>
   </trkpt>
   <trkpt lat="-3.0795210" lon="37.3642910">
    <ele>5636.1</ele>
    <time>2026-06-23T03:15:38Z</time>
   </trkpt>
   <trkpt lat="-3.0795200" lon="37.3642890">
    <ele>5636.1</ele>
    <time>2026-06-23T03:15:39Z</time>
   </trkpt>
   <trkpt lat="-3.0795220" lon="37.3642880">
    <ele>5636.1</ele>
    <time>2026-06-23T03:15:40Z</time>
   </trkpt>
   <trkpt lat="-3.0795200" lon="37.3642890">
    <ele>5636.2</ele>
    <time>2026-06-23T03:15:41Z</time>
   </trkpt>
   <trkpt lat="-3.0795160" lon="37.3642900">
    <ele>5636.2</ele>
    <time>2026-06-23T03:15:42Z</time>
   </trkpt>
   <trkpt lat="-3.0795130" lon="37.3642860">
    <ele>5636.3</ele>
    <time>2026-06-23T03:15:43Z</time>
   </trkpt>
   <trkpt lat="-3.0795080" lon="37.3642830">
    <ele>5636.4</ele>
    <time>2026-06-23T03:15:44Z</time>
   </trkpt>
   <trkpt lat="-3.0795060" lon="37.3642850">
    <ele>5636.5</ele>
    <time>2026-06-23T03:15:45Z</time>
   </trkpt>
   <trkpt lat="-3.0795030" lon="37.3642830">
    <ele>5636.5</ele>
    <time>2026-06-23T03:15:46Z</time>
   </trkpt>
   <trkpt lat="-3.0794980" lon="37.3642840">
    <ele>5636.6</ele>
    <time>2026-06-23T03:15:47Z</time>
   </trkpt>
   <trkpt lat="-3.0794980" lon="37.3642840">
    <ele>5636.6</ele>
    <time>2026-06-23T03:15:48Z</time>
   </trkpt>
   <trkpt lat="-3.0794960" lon="37.3642840">
    <ele>5636.7</ele>
    <time>2026-06-23T03:15:49Z</time>
   </trkpt>
   <trkpt lat="-3.0794950" lon="37.3642830">
    <ele>5636.7</ele>
    <time>2026-06-23T03:15:50Z</time>
   </trkpt>
   <trkpt lat="-3.0794950" lon="37.3642780">
    <ele>5636.8</ele>
    <time>2026-06-23T03:15:51Z</time>
   </trkpt>
   <trkpt lat="-3.0794910" lon="37.3642780">
    <ele>5636.8</ele>
    <time>2026-06-23T03:15:52Z</time>
   </trkpt>
   <trkpt lat="-3.0794880" lon="37.3642770">
    <ele>5636.9</ele>
    <time>2026-06-23T03:15:53Z</time>
   </trkpt>
   <trkpt lat="-3.0794880" lon="37.3642750">
    <ele>5636.9</ele>
    <time>2026-06-23T03:15:54Z</time>
   </trkpt>
   <trkpt lat="-3.0794860" lon="37.3642750">
    <ele>5636.9</ele>
    <time>2026-06-23T03:15:55Z</time>
   </trkpt>
   <trkpt lat="-3.0794880" lon="37.3642700">
    <ele>5637.0</ele>
    <time>2026-06-23T03:15:56Z</time>
   </trkpt>
   <trkpt lat="-3.0794840" lon="37.3642640">
    <ele>5637.2</ele>
    <time>2026-06-23T03:15:57Z</time>
   </trkpt>
   <trkpt lat="-3.0794850" lon="37.3642570">
    <ele>5637.3</ele>
    <time>2026-06-23T03:15:58Z</time>
   </trkpt>
   <trkpt lat="-3.0794800" lon="37.3642580">
    <ele>5637.4</ele>
    <time>2026-06-23T03:15:59Z</time>
   </trkpt>
   <trkpt lat="-3.0794750" lon="37.3642550">
    <ele>5637.4</ele>
    <time>2026-06-23T03:16:00Z</time>
   </trkpt>
   <trkpt lat="-3.0794700" lon="37.3642590">
    <ele>5637.6</ele>
    <time>2026-06-23T03:16:01Z</time>
   </trkpt>
   <trkpt lat="-3.0794690" lon="37.3642550">
    <ele>5637.6</ele>
    <time>2026-06-23T03:16:02Z</time>
   </trkpt>
   <trkpt lat="-3.0794610" lon="37.3642560">
    <ele>5637.8</ele>
    <time>2026-06-23T03:16:03Z</time>
   </trkpt>
   <trkpt lat="-3.0794580" lon="37.3642540">
    <ele>5637.8</ele>
    <time>2026-06-23T03:16:04Z</time>
   </trkpt>
   <trkpt lat="-3.0794610" lon="37.3642450">
    <ele>5638.0</ele>
    <time>2026-06-23T03:16:05Z</time>
   </trkpt>
   <trkpt lat="-3.0794600" lon="37.3642420">
    <ele>5638.0</ele>
    <time>2026-06-23T03:16:06Z</time>
   </trkpt>
   <trkpt lat="-3.0794620" lon="37.3642420">
    <ele>5638.1</ele>
    <time>2026-06-23T03:16:07Z</time>
   </trkpt>
   <trkpt lat="-3.0794650" lon="37.3642450">
    <ele>5638.1</ele>
    <time>2026-06-23T03:16:08Z</time>
   </trkpt>
   <trkpt lat="-3.0794640" lon="37.3642450">
    <ele>5638.1</ele>
    <time>2026-06-23T03:16:09Z</time>
   </trkpt>
   <trkpt lat="-3.0794730" lon="37.3642560">
    <ele>5638.4</ele>
    <time>2026-06-23T03:16:10Z</time>
   </trkpt>
   <trkpt lat="-3.0794700" lon="37.3642560">
    <ele>5638.4</ele>
    <time>2026-06-23T03:16:11Z</time>
   </trkpt>
   <trkpt lat="-3.0794680" lon="37.3642540">
    <ele>5638.5</ele>
    <time>2026-06-23T03:16:12Z</time>
   </trkpt>
   <trkpt lat="-3.0794650" lon="37.3642540">
    <ele>5638.5</ele>
    <time>2026-06-23T03:16:13Z</time>
   </trkpt>
   <trkpt lat="-3.0794630" lon="37.3642540">
    <ele>5638.6</ele>
    <time>2026-06-23T03:16:14Z</time>
   </trkpt>
   <trkpt lat="-3.0794640" lon="37.3642510">
    <ele>5638.6</ele>
    <time>2026-06-23T03:16:15Z</time>
   </trkpt>
   <trkpt lat="-3.0794640" lon="37.3642500">
    <ele>5638.6</ele>
    <time>2026-06-23T03:16:16Z</time>
   </trkpt>
   <trkpt lat="-3.0794620" lon="37.3642530">
    <ele>5638.7</ele>
    <time>2026-06-23T03:16:17Z</time>
   </trkpt>
   <trkpt lat="-3.0794600" lon="37.3642520">
    <ele>5638.7</ele>
    <time>2026-06-23T03:16:18Z</time>
   </trkpt>
   <trkpt lat="-3.0794570" lon="37.3642480">
    <ele>5638.8</ele>
    <time>2026-06-23T03:16:19Z</time>
   </trkpt>
   <trkpt lat="-3.0794580" lon="37.3642420">
    <ele>5638.9</ele>
    <time>2026-06-23T03:16:20Z</time>
   </trkpt>
   <trkpt lat="-3.0794600" lon="37.3642380">
    <ele>5639.0</ele>
    <time>2026-06-23T03:16:21Z</time>
   </trkpt>
   <trkpt lat="-3.0794650" lon="37.3642410">
    <ele>5639.1</ele>
    <time>2026-06-23T03:16:22Z</time>
   </trkpt>
   <trkpt lat="-3.0794650" lon="37.3642430">
    <ele>5639.1</ele>
    <time>2026-06-23T03:16:23Z</time>
   </trkpt>
   <trkpt lat="-3.0794650" lon="37.3642470">
    <ele>5639.2</ele>
    <time>2026-06-23T03:16:24Z</time>
   </trkpt>
   <trkpt lat="-3.0794650" lon="37.3642470">
    <ele>5639.2</ele>
    <time>2026-06-23T03:16:25Z</time>
   </trkpt>
   <trkpt lat="-3.0794650" lon="37.3642470">
    <ele>5639.2</ele>
    <time>2026-06-23T03:16:26Z</time>
   </trkpt>
   <trkpt lat="-3.0794650" lon="37.3642470">
    <ele>5639.2</ele>
    <time>2026-06-23T03:16:27Z</time>
   </trkpt>
   <trkpt lat="-3.0794720" lon="37.3642470">
    <ele>5639.3</ele>
    <time>2026-06-23T03:16:28Z</time>
   </trkpt>
   <trkpt lat="-3.0794720" lon="37.3642470">
    <ele>5639.3</ele>
    <time>2026-06-23T03:16:29Z</time>
   </trkpt>
   <trkpt lat="-3.0794760" lon="37.3642440">
    <ele>5639.4</ele>
    <time>2026-06-23T03:16:30Z</time>
   </trkpt>
   <trkpt lat="-3.0794740" lon="37.3642400">
    <ele>5639.5</ele>
    <time>2026-06-23T03:16:31Z</time>
   </trkpt>
   <trkpt lat="-3.0794720" lon="37.3642400">
    <ele>5639.5</ele>
    <time>2026-06-23T03:16:32Z</time>
   </trkpt>
   <trkpt lat="-3.0794690" lon="37.3642350">
    <ele>5639.6</ele>
    <time>2026-06-23T03:16:33Z</time>
   </trkpt>
   <trkpt lat="-3.0794690" lon="37.3642350">
    <ele>5639.6</ele>
    <time>2026-06-23T03:16:34Z</time>
   </trkpt>
   <trkpt lat="-3.0794650" lon="37.3642330">
    <ele>5639.7</ele>
    <time>2026-06-23T03:16:35Z</time>
   </trkpt>
   <trkpt lat="-3.0794650" lon="37.3642340">
    <ele>5639.7</ele>
    <time>2026-06-23T03:16:36Z</time>
   </trkpt>
   <trkpt lat="-3.0794640" lon="37.3642320">
    <ele>5639.7</ele>
    <time>2026-06-23T03:16:37Z</time>
   </trkpt>
   <trkpt lat="-3.0794610" lon="37.3642340">
    <ele>5639.8</ele>
    <time>2026-06-23T03:16:38Z</time>
   </trkpt>
   <trkpt lat="-3.0794560" lon="37.3642310">
    <ele>5639.9</ele>
    <time>2026-06-23T03:16:39Z</time>
   </trkpt>
   <trkpt lat="-3.0794560" lon="37.3642220">
    <ele>5640.0</ele>
    <time>2026-06-23T03:16:40Z</time>
   </trkpt>
   <trkpt lat="-3.0794550" lon="37.3642160">
    <ele>5640.1</ele>
    <time>2026-06-23T03:16:41Z</time>
   </trkpt>
   <trkpt lat="-3.0794550" lon="37.3642140">
    <ele>5640.2</ele>
    <time>2026-06-23T03:16:42Z</time>
   </trkpt>
   <trkpt lat="-3.0794570" lon="37.3642070">
    <ele>5640.3</ele>
    <time>2026-06-23T03:16:43Z</time>
   </trkpt>
   <trkpt lat="-3.0794580" lon="37.3642060">
    <ele>5640.3</ele>
    <time>2026-06-23T03:16:44Z</time>
   </trkpt>
   <trkpt lat="-3.0794600" lon="37.3642030">
    <ele>5640.4</ele>
    <time>2026-06-23T03:16:45Z</time>
   </trkpt>
   <trkpt lat="-3.0794640" lon="37.3642030">
    <ele>5640.4</ele>
    <time>2026-06-23T03:16:46Z</time>
   </trkpt>
   <trkpt lat="-3.0794660" lon="37.3642000">
    <ele>5640.5</ele>
    <time>2026-06-23T03:16:47Z</time>
   </trkpt>
   <trkpt lat="-3.0794690" lon="37.3641980">
    <ele>5640.5</ele>
    <time>2026-06-23T03:16:48Z</time>
   </trkpt>
   <trkpt lat="-3.0794690" lon="37.3641960">
    <ele>5640.6</ele>
    <time>2026-06-23T03:16:49Z</time>
   </trkpt>
   <trkpt lat="-3.0794700" lon="37.3641960">
    <ele>5640.6</ele>
    <time>2026-06-23T03:16:50Z</time>
   </trkpt>
   <trkpt lat="-3.0794730" lon="37.3641990">
    <ele>5640.7</ele>
    <time>2026-06-23T03:16:51Z</time>
   </trkpt>
   <trkpt lat="-3.0794730" lon="37.3641970">
    <ele>5640.7</ele>
    <time>2026-06-23T03:16:52Z</time>
   </trkpt>
   <trkpt lat="-3.0794740" lon="37.3642010">
    <ele>5640.8</ele>
    <time>2026-06-23T03:16:53Z</time>
   </trkpt>
   <trkpt lat="-3.0794760" lon="37.3642010">
    <ele>5640.8</ele>
    <time>2026-06-23T03:16:54Z</time>
   </trkpt>
   <trkpt lat="-3.0794790" lon="37.3642020">
    <ele>5640.8</ele>
    <time>2026-06-23T03:16:55Z</time>
   </trkpt>
   <trkpt lat="-3.0794840" lon="37.3641990">
    <ele>5640.9</ele>
    <time>2026-06-23T03:16:56Z</time>
   </trkpt>
   <trkpt lat="-3.0794870" lon="37.3642020">
    <ele>5641.0</ele>
    <time>2026-06-23T03:16:57Z</time>
   </trkpt>
   <trkpt lat="-3.0794910" lon="37.3642000">
    <ele>5641.1</ele>
    <time>2026-06-23T03:16:58Z</time>
   </trkpt>
   <trkpt lat="-3.0794880" lon="37.3642000">
    <ele>5641.1</ele>
    <time>2026-06-23T03:16:59Z</time>
   </trkpt>
   <trkpt lat="-3.0794890" lon="37.3642010">
    <ele>5641.2</ele>
    <time>2026-06-23T03:17:00Z</time>
   </trkpt>
   <trkpt lat="-3.0794920" lon="37.3642020">
    <ele>5641.2</ele>
    <time>2026-06-23T03:17:01Z</time>
   </trkpt>
   <trkpt lat="-3.0794970" lon="37.3642040">
    <ele>5641.3</ele>
    <time>2026-06-23T03:17:02Z</time>
   </trkpt>
   <trkpt lat="-3.0794980" lon="37.3641990">
    <ele>5641.4</ele>
    <time>2026-06-23T03:17:03Z</time>
   </trkpt>
   <trkpt lat="-3.0795000" lon="37.3641990">
    <ele>5641.4</ele>
    <time>2026-06-23T03:17:04Z</time>
   </trkpt>
   <trkpt lat="-3.0795010" lon="37.3641990">
    <ele>5641.4</ele>
    <time>2026-06-23T03:17:05Z</time>
   </trkpt>
   <trkpt lat="-3.0795040" lon="37.3641990">
    <ele>5641.5</ele>
    <time>2026-06-23T03:17:06Z</time>
   </trkpt>
   <trkpt lat="-3.0795050" lon="37.3641980">
    <ele>5641.5</ele>
    <time>2026-06-23T03:17:07Z</time>
   </trkpt>
   <trkpt lat="-3.0795080" lon="37.3641980">
    <ele>5641.6</ele>
    <time>2026-06-23T03:17:08Z</time>
   </trkpt>
   <trkpt lat="-3.0795100" lon="37.3641960">
    <ele>5641.6</ele>
    <time>2026-06-23T03:17:09Z</time>
   </trkpt>
   <trkpt lat="-3.0795120" lon="37.3641970">
    <ele>5641.6</ele>
    <time>2026-06-23T03:17:10Z</time>
   </trkpt>
   <trkpt lat="-3.0795150" lon="37.3641950">
    <ele>5641.7</ele>
    <time>2026-06-23T03:17:11Z</time>
   </trkpt>
   <trkpt lat="-3.0795160" lon="37.3641960">
    <ele>5641.7</ele>
    <time>2026-06-23T03:17:12Z</time>
   </trkpt>
   <trkpt lat="-3.0795180" lon="37.3641930">
    <ele>5641.8</ele>
    <time>2026-06-23T03:17:13Z</time>
   </trkpt>
   <trkpt lat="-3.0795210" lon="37.3641920">
    <ele>5641.8</ele>
    <time>2026-06-23T03:17:14Z</time>
   </trkpt>
   <trkpt lat="-3.0795230" lon="37.3641900">
    <ele>5641.9</ele>
    <time>2026-06-23T03:17:15Z</time>
   </trkpt>
   <trkpt lat="-3.0795270" lon="37.3641890">
    <ele>5642.0</ele>
    <time>2026-06-23T03:17:16Z</time>
   </trkpt>
   <trkpt lat="-3.0795270" lon="37.3641870">
    <ele>5642.0</ele>
    <time>2026-06-23T03:17:17Z</time>
   </trkpt>
   <trkpt lat="-3.0795290" lon="37.3641860">
    <ele>5642.0</ele>
    <time>2026-06-23T03:17:18Z</time>
   </trkpt>
   <trkpt lat="-3.0795290" lon="37.3641830">
    <ele>5642.1</ele>
    <time>2026-06-23T03:17:19Z</time>
   </trkpt>
   <trkpt lat="-3.0795290" lon="37.3641810">
    <ele>5642.1</ele>
    <time>2026-06-23T03:17:20Z</time>
   </trkpt>
   <trkpt lat="-3.0795310" lon="37.3641770">
    <ele>5642.2</ele>
    <time>2026-06-23T03:17:21Z</time>
   </trkpt>
   <trkpt lat="-3.0795320" lon="37.3641790">
    <ele>5642.2</ele>
    <time>2026-06-23T03:17:22Z</time>
   </trkpt>
   <trkpt lat="-3.0795340" lon="37.3641740">
    <ele>5642.3</ele>
    <time>2026-06-23T03:17:23Z</time>
   </trkpt>
   <trkpt lat="-3.0795360" lon="37.3641730">
    <ele>5642.3</ele>
    <time>2026-06-23T03:17:24Z</time>
   </trkpt>
   <trkpt lat="-3.0795350" lon="37.3641700">
    <ele>5642.4</ele>
    <time>2026-06-23T03:17:25Z</time>
   </trkpt>
   <trkpt lat="-3.0795360" lon="37.3641680">
    <ele>5642.4</ele>
    <time>2026-06-23T03:17:26Z</time>
   </trkpt>
   <trkpt lat="-3.0795350" lon="37.3641660">
    <ele>5642.5</ele>
    <time>2026-06-23T03:17:27Z</time>
   </trkpt>
   <trkpt lat="-3.0795350" lon="37.3641620">
    <ele>5642.5</ele>
    <time>2026-06-23T03:17:28Z</time>
   </trkpt>
   <trkpt lat="-3.0795350" lon="37.3641620">
    <ele>5642.5</ele>
    <time>2026-06-23T03:17:29Z</time>
   </trkpt>
   <trkpt lat="-3.0795340" lon="37.3641600">
    <ele>5642.6</ele>
    <time>2026-06-23T03:17:30Z</time>
   </trkpt>
   <trkpt lat="-3.0795350" lon="37.3641550">
    <ele>5642.7</ele>
    <time>2026-06-23T03:17:31Z</time>
   </trkpt>
   <trkpt lat="-3.0795340" lon="37.3641540">
    <ele>5642.7</ele>
    <time>2026-06-23T03:17:32Z</time>
   </trkpt>
   <trkpt lat="-3.0795350" lon="37.3641510">
    <ele>5642.7</ele>
    <time>2026-06-23T03:17:33Z</time>
   </trkpt>
   <trkpt lat="-3.0795310" lon="37.3641480">
    <ele>5642.8</ele>
    <time>2026-06-23T03:17:34Z</time>
   </trkpt>
   <trkpt lat="-3.0795330" lon="37.3641460">
    <ele>5642.9</ele>
    <time>2026-06-23T03:17:35Z</time>
   </trkpt>
   <trkpt lat="-3.0795320" lon="37.3641460">
    <ele>5642.9</ele>
    <time>2026-06-23T03:17:36Z</time>
   </trkpt>
   <trkpt lat="-3.0795310" lon="37.3641450">
    <ele>5642.9</ele>
    <time>2026-06-23T03:17:37Z</time>
   </trkpt>
   <trkpt lat="-3.0795300" lon="37.3641430">
    <ele>5642.9</ele>
    <time>2026-06-23T03:17:38Z</time>
   </trkpt>
   <trkpt lat="-3.0795310" lon="37.3641410">
    <ele>5643.0</ele>
    <time>2026-06-23T03:17:39Z</time>
   </trkpt>
   <trkpt lat="-3.0795310" lon="37.3641410">
    <ele>5643.0</ele>
    <time>2026-06-23T03:17:40Z</time>
   </trkpt>
   <trkpt lat="-3.0795320" lon="37.3641370">
    <ele>5643.0</ele>
    <time>2026-06-23T03:17:41Z</time>
   </trkpt>
   <trkpt lat="-3.0795330" lon="37.3641340">
    <ele>5643.1</ele>
    <time>2026-06-23T03:17:42Z</time>
   </trkpt>
   <trkpt lat="-3.0795350" lon="37.3641350">
    <ele>5643.1</ele>
    <time>2026-06-23T03:17:43Z</time>
   </trkpt>
   <trkpt lat="-3.0795380" lon="37.3641320">
    <ele>5643.2</ele>
    <time>2026-06-23T03:17:44Z</time>
   </trkpt>
   <trkpt lat="-3.0795400" lon="37.3641340">
    <ele>5643.2</ele>
    <time>2026-06-23T03:17:45Z</time>
   </trkpt>
   <trkpt lat="-3.0795420" lon="37.3641330">
    <ele>5643.3</ele>
    <time>2026-06-23T03:17:46Z</time>
   </trkpt>
   <trkpt lat="-3.0795440" lon="37.3641340">
    <ele>5643.3</ele>
    <time>2026-06-23T03:17:47Z</time>
   </trkpt>
   <trkpt lat="-3.0795460" lon="37.3641360">
    <ele>5643.4</ele>
    <time>2026-06-23T03:17:48Z</time>
   </trkpt>
   <trkpt lat="-3.0795470" lon="37.3641370">
    <ele>5643.4</ele>
    <time>2026-06-23T03:17:49Z</time>
   </trkpt>
   <trkpt lat="-3.0795520" lon="37.3641360">
    <ele>5643.5</ele>
    <time>2026-06-23T03:17:50Z</time>
   </trkpt>
   <trkpt lat="-3.0795530" lon="37.3641400">
    <ele>5643.5</ele>
    <time>2026-06-23T03:17:51Z</time>
   </trkpt>
   <trkpt lat="-3.0795560" lon="37.3641380">
    <ele>5643.6</ele>
    <time>2026-06-23T03:17:52Z</time>
   </trkpt>
   <trkpt lat="-3.0795580" lon="37.3641400">
    <ele>5643.6</ele>
    <time>2026-06-23T03:17:53Z</time>
   </trkpt>
   <trkpt lat="-3.0795610" lon="37.3641390">
    <ele>5643.7</ele>
    <time>2026-06-23T03:17:54Z</time>
   </trkpt>
   <trkpt lat="-3.0795630" lon="37.3641380">
    <ele>5643.7</ele>
    <time>2026-06-23T03:17:55Z</time>
   </trkpt>
   <trkpt lat="-3.0795640" lon="37.3641370">
    <ele>5643.7</ele>
    <time>2026-06-23T03:17:56Z</time>
   </trkpt>
   <trkpt lat="-3.0795640" lon="37.3641370">
    <ele>5643.7</ele>
    <time>2026-06-23T03:17:57Z</time>
   </trkpt>
   <trkpt lat="-3.0795630" lon="37.3641370">
    <ele>5643.7</ele>
    <time>2026-06-23T03:17:58Z</time>
   </trkpt>
   <trkpt lat="-3.0795640" lon="37.3641370">
    <ele>5643.8</ele>
    <time>2026-06-23T03:17:59Z</time>
   </trkpt>
   <trkpt lat="-3.0795650" lon="37.3641340">
    <ele>5643.8</ele>
    <time>2026-06-23T03:18:00Z</time>
   </trkpt>
   <trkpt lat="-3.0795670" lon="37.3641320">
    <ele>5643.9</ele>
    <time>2026-06-23T03:18:01Z</time>
   </trkpt>
   <trkpt lat="-3.0795680" lon="37.3641310">
    <ele>5643.9</ele>
    <time>2026-06-23T03:18:02Z</time>
   </trkpt>
   <trkpt lat="-3.0795700" lon="37.3641280">
    <ele>5643.9</ele>
    <time>2026-06-23T03:18:03Z</time>
   </trkpt>
   <trkpt lat="-3.0795700" lon="37.3641260">
    <ele>5644.0</ele>
    <time>2026-06-23T03:18:04Z</time>
   </trkpt>
   <trkpt lat="-3.0795710" lon="37.3641280">
    <ele>5644.0</ele>
    <time>2026-06-23T03:18:05Z</time>
   </trkpt>
   <trkpt lat="-3.0795700" lon="37.3641230">
    <ele>5644.1</ele>
    <time>2026-06-23T03:18:06Z</time>
   </trkpt>
   <trkpt lat="-3.0795710" lon="37.3641200">
    <ele>5644.1</ele>
    <time>2026-06-23T03:18:07Z</time>
   </trkpt>
   <trkpt lat="-3.0795710" lon="37.3641210">
    <ele>5644.1</ele>
    <time>2026-06-23T03:18:08Z</time>
   </trkpt>
   <trkpt lat="-3.0795720" lon="37.3641190">
    <ele>5644.2</ele>
    <time>2026-06-23T03:18:09Z</time>
   </trkpt>
   <trkpt lat="-3.0795710" lon="37.3641170">
    <ele>5644.2</ele>
    <time>2026-06-23T03:18:10Z</time>
   </trkpt>
   <trkpt lat="-3.0795730" lon="37.3641120">
    <ele>5644.3</ele>
    <time>2026-06-23T03:18:11Z</time>
   </trkpt>
   <trkpt lat="-3.0795730" lon="37.3641130">
    <ele>5644.3</ele>
    <time>2026-06-23T03:18:12Z</time>
   </trkpt>
   <trkpt lat="-3.0795740" lon="37.3641100">
    <ele>5644.4</ele>
    <time>2026-06-23T03:18:13Z</time>
   </trkpt>
   <trkpt lat="-3.0795730" lon="37.3641100">
    <ele>5644.4</ele>
    <time>2026-06-23T03:18:14Z</time>
   </trkpt>
   <trkpt lat="-3.0795740" lon="37.3641070">
    <ele>5644.4</ele>
    <time>2026-06-23T03:18:15Z</time>
   </trkpt>
   <trkpt lat="-3.0795730" lon="37.3641040">
    <ele>5644.5</ele>
    <time>2026-06-23T03:18:16Z</time>
   </trkpt>
   <trkpt lat="-3.0795720" lon="37.3641050">
    <ele>5644.5</ele>
    <time>2026-06-23T03:18:17Z</time>
   </trkpt>
   <trkpt lat="-3.0795720" lon="37.3641010">
    <ele>5644.6</ele>
    <time>2026-06-23T03:18:18Z</time>
   </trkpt>
   <trkpt lat="-3.0795700" lon="37.3640990">
    <ele>5644.6</ele>
    <time>2026-06-23T03:18:19Z</time>
   </trkpt>
   <trkpt lat="-3.0795680" lon="37.3640990">
    <ele>5644.6</ele>
    <time>2026-06-23T03:18:20Z</time>
   </trkpt>
   <trkpt lat="-3.0795670" lon="37.3640980">
    <ele>5644.7</ele>
    <time>2026-06-23T03:18:21Z</time>
   </trkpt>
   <trkpt lat="-3.0795660" lon="37.3640960">
    <ele>5644.7</ele>
    <time>2026-06-23T03:18:22Z</time>
   </trkpt>
   <trkpt lat="-3.0795650" lon="37.3640950">
    <ele>5644.7</ele>
    <time>2026-06-23T03:18:23Z</time>
   </trkpt>
   <trkpt lat="-3.0795640" lon="37.3640950">
    <ele>5644.7</ele>
    <time>2026-06-23T03:18:24Z</time>
   </trkpt>
   <trkpt lat="-3.0795630" lon="37.3640920">
    <ele>5644.8</ele>
    <time>2026-06-23T03:18:25Z</time>
   </trkpt>
   <trkpt lat="-3.0795610" lon="37.3640910">
    <ele>5644.8</ele>
    <time>2026-06-23T03:18:26Z</time>
   </trkpt>
   <trkpt lat="-3.0795590" lon="37.3640900">
    <ele>5644.8</ele>
    <time>2026-06-23T03:18:27Z</time>
   </trkpt>
   <trkpt lat="-3.0795580" lon="37.3640890">
    <ele>5644.9</ele>
    <time>2026-06-23T03:18:28Z</time>
   </trkpt>
   <trkpt lat="-3.0795580" lon="37.3640880">
    <ele>5644.9</ele>
    <time>2026-06-23T03:18:29Z</time>
   </trkpt>
   <trkpt lat="-3.0795570" lon="37.3640870">
    <ele>5644.9</ele>
    <time>2026-06-23T03:18:30Z</time>
   </trkpt>
   <trkpt lat="-3.0795560" lon="37.3640870">
    <ele>5644.9</ele>
    <time>2026-06-23T03:18:31Z</time>
   </trkpt>
   <trkpt lat="-3.0795550" lon="37.3640840">
    <ele>5645.0</ele>
    <time>2026-06-23T03:18:32Z</time>
   </trkpt>
   <trkpt lat="-3.0795530" lon="37.3640840">
    <ele>5645.0</ele>
    <time>2026-06-23T03:18:33Z</time>
   </trkpt>
   <trkpt lat="-3.0795520" lon="37.3640810">
    <ele>5645.1</ele>
    <time>2026-06-23T03:18:34Z</time>
   </trkpt>
   <trkpt lat="-3.0795510" lon="37.3640810">
    <ele>5645.1</ele>
    <time>2026-06-23T03:18:35Z</time>
   </trkpt>
   <trkpt lat="-3.0795510" lon="37.3640790">
    <ele>5645.1</ele>
    <time>2026-06-23T03:18:36Z</time>
   </trkpt>
   <trkpt lat="-3.0795500" lon="37.3640760">
    <ele>5645.1</ele>
    <time>2026-06-23T03:18:37Z</time>
   </trkpt>
   <trkpt lat="-3.0795510" lon="37.3640770">
    <ele>5645.2</ele>
    <time>2026-06-23T03:18:38Z</time>
   </trkpt>
   <trkpt lat="-3.0795490" lon="37.3640750">
    <ele>5645.2</ele>
    <time>2026-06-23T03:18:39Z</time>
   </trkpt>
   <trkpt lat="-3.0795480" lon="37.3640760">
    <ele>5645.2</ele>
    <time>2026-06-23T03:18:40Z</time>
   </trkpt>
   <trkpt lat="-3.0795490" lon="37.3640740">
    <ele>5645.3</ele>
    <time>2026-06-23T03:18:41Z</time>
   </trkpt>
   <trkpt lat="-3.0795490" lon="37.3640750">
    <ele>5645.3</ele>
    <time>2026-06-23T03:18:42Z</time>
   </trkpt>
   <trkpt lat="-3.0795490" lon="37.3640750">
    <ele>5645.3</ele>
    <time>2026-06-23T03:18:43Z</time>
   </trkpt>
   <trkpt lat="-3.0795490" lon="37.3640740">
    <ele>5645.3</ele>
    <time>2026-06-23T03:18:44Z</time>
   </trkpt>
   <trkpt lat="-3.0795490" lon="37.3640720">
    <ele>5645.3</ele>
    <time>2026-06-23T03:18:45Z</time>
   </trkpt>
   <trkpt lat="-3.0795480" lon="37.3640710">
    <ele>5645.4</ele>
    <time>2026-06-23T03:18:46Z</time>
   </trkpt>
   <trkpt lat="-3.0795470" lon="37.3640690">
    <ele>5645.4</ele>
    <time>2026-06-23T03:18:47Z</time>
   </trkpt>
   <trkpt lat="-3.0795460" lon="37.3640700">
    <ele>5645.4</ele>
    <time>2026-06-23T03:18:48Z</time>
   </trkpt>
   <trkpt lat="-3.0795450" lon="37.3640680">
    <ele>5645.4</ele>
    <time>2026-06-23T03:18:49Z</time>
   </trkpt>
   <trkpt lat="-3.0795390" lon="37.3640690">
    <ele>5645.5</ele>
    <time>2026-06-23T03:18:50Z</time>
   </trkpt>
   <trkpt lat="-3.0795370" lon="37.3640700">
    <ele>5645.6</ele>
    <time>2026-06-23T03:18:51Z</time>
   </trkpt>
   <trkpt lat="-3.0795340" lon="37.3640690">
    <ele>5645.6</ele>
    <time>2026-06-23T03:18:52Z</time>
   </trkpt>
   <trkpt lat="-3.0795310" lon="37.3640680">
    <ele>5645.7</ele>
    <time>2026-06-23T03:18:53Z</time>
   </trkpt>
   <trkpt lat="-3.0795280" lon="37.3640660">
    <ele>5645.7</ele>
    <time>2026-06-23T03:18:54Z</time>
   </trkpt>
   <trkpt lat="-3.0795260" lon="37.3640660">
    <ele>5645.8</ele>
    <time>2026-06-23T03:18:55Z</time>
   </trkpt>
   <trkpt lat="-3.0795250" lon="37.3640630">
    <ele>5645.8</ele>
    <time>2026-06-23T03:18:56Z</time>
   </trkpt>
   <trkpt lat="-3.0795260" lon="37.3640630">
    <ele>5645.8</ele>
    <time>2026-06-23T03:18:57Z</time>
   </trkpt>
   <trkpt lat="-3.0795260" lon="37.3640590">
    <ele>5645.9</ele>
    <time>2026-06-23T03:18:58Z</time>
   </trkpt>
   <trkpt lat="-3.0795280" lon="37.3640570">
    <ele>5645.9</ele>
    <time>2026-06-23T03:18:59Z</time>
   </trkpt>
   <trkpt lat="-3.0795280" lon="37.3640580">
    <ele>5646.0</ele>
    <time>2026-06-23T03:19:00Z</time>
   </trkpt>
   <trkpt lat="-3.0795300" lon="37.3640540">
    <ele>5646.0</ele>
    <time>2026-06-23T03:19:01Z</time>
   </trkpt>
   <trkpt lat="-3.0795310" lon="37.3640520">
    <ele>5646.1</ele>
    <time>2026-06-23T03:19:02Z</time>
   </trkpt>
   <trkpt lat="-3.0795320" lon="37.3640500">
    <ele>5646.1</ele>
    <time>2026-06-23T03:19:03Z</time>
   </trkpt>
   <trkpt lat="-3.0795330" lon="37.3640490">
    <ele>5646.1</ele>
    <time>2026-06-23T03:19:04Z</time>
   </trkpt>
   <trkpt lat="-3.0795310" lon="37.3640470">
    <ele>5646.2</ele>
    <time>2026-06-23T03:19:05Z</time>
   </trkpt>
   <trkpt lat="-3.0795320" lon="37.3640460">
    <ele>5646.2</ele>
    <time>2026-06-23T03:19:06Z</time>
   </trkpt>
   <trkpt lat="-3.0795300" lon="37.3640440">
    <ele>5646.2</ele>
    <time>2026-06-23T03:19:07Z</time>
   </trkpt>
   <trkpt lat="-3.0795280" lon="37.3640420">
    <ele>5646.3</ele>
    <time>2026-06-23T03:19:08Z</time>
   </trkpt>
   <trkpt lat="-3.0795260" lon="37.3640410">
    <ele>5646.3</ele>
    <time>2026-06-23T03:19:09Z</time>
   </trkpt>
   <trkpt lat="-3.0795260" lon="37.3640400">
    <ele>5646.3</ele>
    <time>2026-06-23T03:19:10Z</time>
   </trkpt>
   <trkpt lat="-3.0795230" lon="37.3640410">
    <ele>5646.4</ele>
    <time>2026-06-23T03:19:11Z</time>
   </trkpt>
   <trkpt lat="-3.0795230" lon="37.3640400">
    <ele>5646.4</ele>
    <time>2026-06-23T03:19:12Z</time>
   </trkpt>
   <trkpt lat="-3.0795190" lon="37.3640390">
    <ele>5646.4</ele>
    <time>2026-06-23T03:19:13Z</time>
   </trkpt>
   <trkpt lat="-3.0795180" lon="37.3640400">
    <ele>5646.5</ele>
    <time>2026-06-23T03:19:14Z</time>
   </trkpt>
   <trkpt lat="-3.0795160" lon="37.3640400">
    <ele>5646.5</ele>
    <time>2026-06-23T03:19:15Z</time>
   </trkpt>
   <trkpt lat="-3.0795140" lon="37.3640400">
    <ele>5646.5</ele>
    <time>2026-06-23T03:19:16Z</time>
   </trkpt>
   <trkpt lat="-3.0795130" lon="37.3640370">
    <ele>5646.6</ele>
    <time>2026-06-23T03:19:17Z</time>
   </trkpt>
   <trkpt lat="-3.0795100" lon="37.3640390">
    <ele>5646.6</ele>
    <time>2026-06-23T03:19:18Z</time>
   </trkpt>
   <trkpt lat="-3.0795080" lon="37.3640370">
    <ele>5646.7</ele>
    <time>2026-06-23T03:19:19Z</time>
   </trkpt>
   <trkpt lat="-3.0795070" lon="37.3640380">
    <ele>5646.7</ele>
    <time>2026-06-23T03:19:20Z</time>
   </trkpt>
   <trkpt lat="-3.0795060" lon="37.3640390">
    <ele>5646.7</ele>
    <time>2026-06-23T03:19:21Z</time>
   </trkpt>
   <trkpt lat="-3.0795060" lon="37.3640390">
    <ele>5646.7</ele>
    <time>2026-06-23T03:19:22Z</time>
   </trkpt>
   <trkpt lat="-3.0795060" lon="37.3640390">
    <ele>5646.7</ele>
    <time>2026-06-23T03:19:23Z</time>
   </trkpt>
   <trkpt lat="-3.0795070" lon="37.3640390">
    <ele>5646.7</ele>
    <time>2026-06-23T03:19:24Z</time>
   </trkpt>
   <trkpt lat="-3.0795070" lon="37.3640390">
    <ele>5646.7</ele>
    <time>2026-06-23T03:19:25Z</time>
   </trkpt>
   <trkpt lat="-3.0795070" lon="37.3640390">
    <ele>5646.7</ele>
    <time>2026-06-23T03:19:26Z</time>
   </trkpt>
   <trkpt lat="-3.0795070" lon="37.3640390">
    <ele>5646.7</ele>
    <time>2026-06-23T03:19:27Z</time>
   </trkpt>
   <trkpt lat="-3.0795080" lon="37.3640390">
    <ele>5646.8</ele>
    <time>2026-06-23T03:19:28Z</time>
   </trkpt>
   <trkpt lat="-3.0795080" lon="37.3640390">
    <ele>5646.8</ele>
    <time>2026-06-23T03:19:29Z</time>
   </trkpt>
   <trkpt lat="-3.0795080" lon="37.3640390">
    <ele>5646.8</ele>
    <time>2026-06-23T03:19:30Z</time>
   </trkpt>
   <trkpt lat="-3.0795070" lon="37.3640390">
    <ele>5646.8</ele>
    <time>2026-06-23T03:19:31Z</time>
   </trkpt>
   <trkpt lat="-3.0795060" lon="37.3640390">
    <ele>5646.8</ele>
    <time>2026-06-23T03:19:32Z</time>
   </trkpt>
   <trkpt lat="-3.0795060" lon="37.3640410">
    <ele>5646.8</ele>
    <time>2026-06-23T03:19:33Z</time>
   </trkpt>
   <trkpt lat="-3.0795030" lon="37.3640410">
    <ele>5646.9</ele>
    <time>2026-06-23T03:19:34Z</time>
   </trkpt>
   <trkpt lat="-3.0795000" lon="37.3640430">
    <ele>5646.9</ele>
    <time>2026-06-23T03:19:35Z</time>
   </trkpt>
   <trkpt lat="-3.0794960" lon="37.3640430">
    <ele>5647.0</ele>
    <time>2026-06-23T03:19:36Z</time>
   </trkpt>
   <trkpt lat="-3.0794940" lon="37.3640420">
    <ele>5647.0</ele>
    <time>2026-06-23T03:19:37Z</time>
   </trkpt>
   <trkpt lat="-3.0794920" lon="37.3640390">
    <ele>5647.1</ele>
    <time>2026-06-23T03:19:38Z</time>
   </trkpt>
   <trkpt lat="-3.0794880" lon="37.3640380">
    <ele>5647.1</ele>
    <time>2026-06-23T03:19:39Z</time>
   </trkpt>
   <trkpt lat="-3.0794860" lon="37.3640380">
    <ele>5647.2</ele>
    <time>2026-06-23T03:19:40Z</time>
   </trkpt>
   <trkpt lat="-3.0794830" lon="37.3640400">
    <ele>5647.2</ele>
    <time>2026-06-23T03:19:41Z</time>
   </trkpt>
   <trkpt lat="-3.0794810" lon="37.3640420">
    <ele>5647.3</ele>
    <time>2026-06-23T03:19:42Z</time>
   </trkpt>
   <trkpt lat="-3.0794780" lon="37.3640440">
    <ele>5647.3</ele>
    <time>2026-06-23T03:19:43Z</time>
   </trkpt>
   <trkpt lat="-3.0794770" lon="37.3640430">
    <ele>5647.4</ele>
    <time>2026-06-23T03:19:44Z</time>
   </trkpt>
   <trkpt lat="-3.0794770" lon="37.3640450">
    <ele>5647.4</ele>
    <time>2026-06-23T03:19:45Z</time>
   </trkpt>
   <trkpt lat="-3.0794740" lon="37.3640450">
    <ele>5647.4</ele>
    <time>2026-06-23T03:19:46Z</time>
   </trkpt>
   <trkpt lat="-3.0794710" lon="37.3640470">
    <ele>5647.5</ele>
    <time>2026-06-23T03:19:47Z</time>
   </trkpt>
   <trkpt lat="-3.0794700" lon="37.3640460">
    <ele>5647.5</ele>
    <time>2026-06-23T03:19:48Z</time>
   </trkpt>
   <trkpt lat="-3.0794680" lon="37.3640460">
    <ele>5647.5</ele>
    <time>2026-06-23T03:19:49Z</time>
   </trkpt>
   <trkpt lat="-3.0794660" lon="37.3640470">
    <ele>5647.6</ele>
    <time>2026-06-23T03:19:50Z</time>
   </trkpt>
   <trkpt lat="-3.0794640" lon="37.3640470">
    <ele>5647.6</ele>
    <time>2026-06-23T03:19:51Z</time>
   </trkpt>
   <trkpt lat="-3.0794630" lon="37.3640470">
    <ele>5647.6</ele>
    <time>2026-06-23T03:19:52Z</time>
   </trkpt>
   <trkpt lat="-3.0794620" lon="37.3640470">
    <ele>5647.6</ele>
    <time>2026-06-23T03:19:53Z</time>
   </trkpt>
   <trkpt lat="-3.0794600" lon="37.3640470">
    <ele>5647.7</ele>
    <time>2026-06-23T03:19:54Z</time>
   </trkpt>
   <trkpt lat="-3.0794570" lon="37.3640470">
    <ele>5647.7</ele>
    <time>2026-06-23T03:19:55Z</time>
   </trkpt>
   <trkpt lat="-3.0794550" lon="37.3640470">
    <ele>5647.7</ele>
    <time>2026-06-23T03:19:56Z</time>
   </trkpt>
   <trkpt lat="-3.0794530" lon="37.3640470">
    <ele>5647.8</ele>
    <time>2026-06-23T03:19:57Z</time>
   </trkpt>
   <trkpt lat="-3.0794500" lon="37.3640450">
    <ele>5647.8</ele>
    <time>2026-06-23T03:19:58Z</time>
   </trkpt>
   <trkpt lat="-3.0794480" lon="37.3640470">
    <ele>5647.9</ele>
    <time>2026-06-23T03:19:59Z</time>
   </trkpt>
   <trkpt lat="-3.0794460" lon="37.3640460">
    <ele>5647.9</ele>
    <time>2026-06-23T03:20:00Z</time>
   </trkpt>
   <trkpt lat="-3.0794440" lon="37.3640460">
    <ele>5647.9</ele>
    <time>2026-06-23T03:20:01Z</time>
   </trkpt>
   <trkpt lat="-3.0794420" lon="37.3640460">
    <ele>5648.0</ele>
    <time>2026-06-23T03:20:02Z</time>
   </trkpt>
   <trkpt lat="-3.0794400" lon="37.3640470">
    <ele>5648.0</ele>
    <time>2026-06-23T03:20:03Z</time>
   </trkpt>
   <trkpt lat="-3.0794390" lon="37.3640440">
    <ele>5648.1</ele>
    <time>2026-06-23T03:20:04Z</time>
   </trkpt>
   <trkpt lat="-3.0794380" lon="37.3640460">
    <ele>5648.1</ele>
    <time>2026-06-23T03:20:05Z</time>
   </trkpt>
   <trkpt lat="-3.0794350" lon="37.3640450">
    <ele>5648.1</ele>
    <time>2026-06-23T03:20:06Z</time>
   </trkpt>
   <trkpt lat="-3.0794340" lon="37.3640460">
    <ele>5648.2</ele>
    <time>2026-06-23T03:20:07Z</time>
   </trkpt>
   <trkpt lat="-3.0794320" lon="37.3640440">
    <ele>5648.2</ele>
    <time>2026-06-23T03:20:08Z</time>
   </trkpt>
   <trkpt lat="-3.0794300" lon="37.3640450">
    <ele>5648.2</ele>
    <time>2026-06-23T03:20:09Z</time>
   </trkpt>
   <trkpt lat="-3.0794280" lon="37.3640430">
    <ele>5648.3</ele>
    <time>2026-06-23T03:20:10Z</time>
   </trkpt>
   <trkpt lat="-3.0794250" lon="37.3640420">
    <ele>5648.3</ele>
    <time>2026-06-23T03:20:11Z</time>
   </trkpt>
   <trkpt lat="-3.0794240" lon="37.3640410">
    <ele>5648.4</ele>
    <time>2026-06-23T03:20:12Z</time>
   </trkpt>
   <trkpt lat="-3.0794230" lon="37.3640410">
    <ele>5648.4</ele>
    <time>2026-06-23T03:20:13Z</time>
   </trkpt>
   <trkpt lat="-3.0794180" lon="37.3640390">
    <ele>5648.5</ele>
    <time>2026-06-23T03:20:14Z</time>
   </trkpt>
   <trkpt lat="-3.0794180" lon="37.3640400">
    <ele>5648.5</ele>
    <time>2026-06-23T03:20:15Z</time>
   </trkpt>
   <trkpt lat="-3.0794150" lon="37.3640380">
    <ele>5648.5</ele>
    <time>2026-06-23T03:20:16Z</time>
   </trkpt>
   <trkpt lat="-3.0794120" lon="37.3640390">
    <ele>5648.6</ele>
    <time>2026-06-23T03:20:17Z</time>
   </trkpt>
   <trkpt lat="-3.0794100" lon="37.3640380">
    <ele>5648.6</ele>
    <time>2026-06-23T03:20:18Z</time>
   </trkpt>
   <trkpt lat="-3.0794080" lon="37.3640290">
    <ele>5648.8</ele>
    <time>2026-06-23T03:20:19Z</time>
   </trkpt>
   <trkpt lat="-3.0794070" lon="37.3640340">
    <ele>5648.8</ele>
    <time>2026-06-23T03:20:20Z</time>
   </trkpt>
   <trkpt lat="-3.0794040" lon="37.3640290">
    <ele>5648.9</ele>
    <time>2026-06-23T03:20:21Z</time>
   </trkpt>
   <trkpt lat="-3.0794030" lon="37.3640300">
    <ele>5649.0</ele>
    <time>2026-06-23T03:20:22Z</time>
   </trkpt>
   <trkpt lat="-3.0794020" lon="37.3640250">
    <ele>5649.0</ele>
    <time>2026-06-23T03:20:23Z</time>
   </trkpt>
   <trkpt lat="-3.0794010" lon="37.3640250">
    <ele>5649.0</ele>
    <time>2026-06-23T03:20:24Z</time>
   </trkpt>
   <trkpt lat="-3.0794000" lon="37.3640220">
    <ele>5649.1</ele>
    <time>2026-06-23T03:20:25Z</time>
   </trkpt>
   <trkpt lat="-3.0794000" lon="37.3640200">
    <ele>5649.1</ele>
    <time>2026-06-23T03:20:26Z</time>
   </trkpt>
   <trkpt lat="-3.0793990" lon="37.3640170">
    <ele>5649.2</ele>
    <time>2026-06-23T03:20:27Z</time>
   </trkpt>
   <trkpt lat="-3.0793990" lon="37.3640170">
    <ele>5649.2</ele>
    <time>2026-06-23T03:20:28Z</time>
   </trkpt>
   <trkpt lat="-3.0793980" lon="37.3640150">
    <ele>5649.2</ele>
    <time>2026-06-23T03:20:29Z</time>
   </trkpt>
   <trkpt lat="-3.0793980" lon="37.3640140">
    <ele>5649.2</ele>
    <time>2026-06-23T03:20:30Z</time>
   </trkpt>
   <trkpt lat="-3.0793980" lon="37.3640120">
    <ele>5649.3</ele>
    <time>2026-06-23T03:20:31Z</time>
   </trkpt>
   <trkpt lat="-3.0793980" lon="37.3640090">
    <ele>5649.3</ele>
    <time>2026-06-23T03:20:32Z</time>
   </trkpt>
   <trkpt lat="-3.0793990" lon="37.3640040">
    <ele>5649.4</ele>
    <time>2026-06-23T03:20:33Z</time>
   </trkpt>
   <trkpt lat="-3.0793990" lon="37.3640030">
    <ele>5649.4</ele>
    <time>2026-06-23T03:20:34Z</time>
   </trkpt>
   <trkpt lat="-3.0793990" lon="37.3640000">
    <ele>5649.4</ele>
    <time>2026-06-23T03:20:35Z</time>
   </trkpt>
   <trkpt lat="-3.0794000" lon="37.3640010">
    <ele>5649.5</ele>
    <time>2026-06-23T03:20:36Z</time>
   </trkpt>
   <trkpt lat="-3.0794010" lon="37.3639980">
    <ele>5649.5</ele>
    <time>2026-06-23T03:20:37Z</time>
   </trkpt>
   <trkpt lat="-3.0794010" lon="37.3639940">
    <ele>5649.6</ele>
    <time>2026-06-23T03:20:38Z</time>
   </trkpt>
   <trkpt lat="-3.0794010" lon="37.3639930">
    <ele>5649.6</ele>
    <time>2026-06-23T03:20:39Z</time>
   </trkpt>
   <trkpt lat="-3.0794010" lon="37.3639910">
    <ele>5649.6</ele>
    <time>2026-06-23T03:20:40Z</time>
   </trkpt>
   <trkpt lat="-3.0794010" lon="37.3639860">
    <ele>5649.7</ele>
    <time>2026-06-23T03:20:41Z</time>
   </trkpt>
   <trkpt lat="-3.0794010" lon="37.3639850">
    <ele>5649.7</ele>
    <time>2026-06-23T03:20:42Z</time>
   </trkpt>
   <trkpt lat="-3.0794030" lon="37.3639830">
    <ele>5649.8</ele>
    <time>2026-06-23T03:20:43Z</time>
   </trkpt>
   <trkpt lat="-3.0794030" lon="37.3639820">
    <ele>5649.8</ele>
    <time>2026-06-23T03:20:44Z</time>
   </trkpt>
   <trkpt lat="-3.0794030" lon="37.3639790">
    <ele>5649.8</ele>
    <time>2026-06-23T03:20:45Z</time>
   </trkpt>
   <trkpt lat="-3.0794050" lon="37.3639770">
    <ele>5649.9</ele>
    <time>2026-06-23T03:20:46Z</time>
   </trkpt>
   <trkpt lat="-3.0794050" lon="37.3639760">
    <ele>5649.9</ele>
    <time>2026-06-23T03:20:47Z</time>
   </trkpt>
   <trkpt lat="-3.0794070" lon="37.3639730">
    <ele>5649.9</ele>
    <time>2026-06-23T03:20:48Z</time>
   </trkpt>
   <trkpt lat="-3.0794070" lon="37.3639710">
    <ele>5650.0</ele>
    <time>2026-06-23T03:20:49Z</time>
   </trkpt>
   <trkpt lat="-3.0794090" lon="37.3639700">
    <ele>5650.0</ele>
    <time>2026-06-23T03:20:50Z</time>
   </trkpt>
   <trkpt lat="-3.0794090" lon="37.3639660">
    <ele>5650.1</ele>
    <time>2026-06-23T03:20:51Z</time>
   </trkpt>
   <trkpt lat="-3.0794110" lon="37.3639660">
    <ele>5650.1</ele>
    <time>2026-06-23T03:20:52Z</time>
   </trkpt>
   <trkpt lat="-3.0794120" lon="37.3639630">
    <ele>5650.2</ele>
    <time>2026-06-23T03:20:53Z</time>
   </trkpt>
   <trkpt lat="-3.0794140" lon="37.3639620">
    <ele>5650.2</ele>
    <time>2026-06-23T03:20:54Z</time>
   </trkpt>
   <trkpt lat="-3.0794160" lon="37.3639590">
    <ele>5650.2</ele>
    <time>2026-06-23T03:20:55Z</time>
   </trkpt>
   <trkpt lat="-3.0794170" lon="37.3639590">
    <ele>5650.3</ele>
    <time>2026-06-23T03:20:56Z</time>
   </trkpt>
   <trkpt lat="-3.0794190" lon="37.3639570">
    <ele>5650.3</ele>
    <time>2026-06-23T03:20:57Z</time>
   </trkpt>
   <trkpt lat="-3.0794210" lon="37.3639540">
    <ele>5650.4</ele>
    <time>2026-06-23T03:20:58Z</time>
   </trkpt>
   <trkpt lat="-3.0794230" lon="37.3639530">
    <ele>5650.4</ele>
    <time>2026-06-23T03:20:59Z</time>
   </trkpt>
   <trkpt lat="-3.0794240" lon="37.3639540">
    <ele>5650.4</ele>
    <time>2026-06-23T03:21:00Z</time>
   </trkpt>
   <trkpt lat="-3.0794260" lon="37.3639490">
    <ele>5650.5</ele>
    <time>2026-06-23T03:21:01Z</time>
   </trkpt>
   <trkpt lat="-3.0794260" lon="37.3639490">
    <ele>5650.5</ele>
    <time>2026-06-23T03:21:02Z</time>
   </trkpt>
   <trkpt lat="-3.0794270" lon="37.3639460">
    <ele>5650.6</ele>
    <time>2026-06-23T03:21:03Z</time>
   </trkpt>
   <trkpt lat="-3.0794280" lon="37.3639450">
    <ele>5650.6</ele>
    <time>2026-06-23T03:21:04Z</time>
   </trkpt>
   <trkpt lat="-3.0794270" lon="37.3639440">
    <ele>5650.6</ele>
    <time>2026-06-23T03:21:05Z</time>
   </trkpt>
   <trkpt lat="-3.0794290" lon="37.3639430">
    <ele>5650.6</ele>
    <time>2026-06-23T03:21:06Z</time>
   </trkpt>
   <trkpt lat="-3.0794290" lon="37.3639410">
    <ele>5650.7</ele>
    <time>2026-06-23T03:21:07Z</time>
   </trkpt>
   <trkpt lat="-3.0794300" lon="37.3639380">
    <ele>5650.7</ele>
    <time>2026-06-23T03:21:08Z</time>
   </trkpt>
   <trkpt lat="-3.0794300" lon="37.3639380">
    <ele>5650.7</ele>
    <time>2026-06-23T03:21:09Z</time>
   </trkpt>
   <trkpt lat="-3.0794310" lon="37.3639350">
    <ele>5650.8</ele>
    <time>2026-06-23T03:21:10Z</time>
   </trkpt>
   <trkpt lat="-3.0794310" lon="37.3639330">
    <ele>5650.8</ele>
    <time>2026-06-23T03:21:11Z</time>
   </trkpt>
   <trkpt lat="-3.0794320" lon="37.3639330">
    <ele>5650.8</ele>
    <time>2026-06-23T03:21:12Z</time>
   </trkpt>
   <trkpt lat="-3.0794320" lon="37.3639290">
    <ele>5650.9</ele>
    <time>2026-06-23T03:21:13Z</time>
   </trkpt>
   <trkpt lat="-3.0794310" lon="37.3639280">
    <ele>5650.9</ele>
    <time>2026-06-23T03:21:14Z</time>
   </trkpt>
   <trkpt lat="-3.0794310" lon="37.3639250">
    <ele>5650.9</ele>
    <time>2026-06-23T03:21:15Z</time>
   </trkpt>
   <trkpt lat="-3.0794300" lon="37.3639250">
    <ele>5651.0</ele>
    <time>2026-06-23T03:21:16Z</time>
   </trkpt>
   <trkpt lat="-3.0794290" lon="37.3639240">
    <ele>5651.0</ele>
    <time>2026-06-23T03:21:17Z</time>
   </trkpt>
   <trkpt lat="-3.0794270" lon="37.3639200">
    <ele>5651.0</ele>
    <time>2026-06-23T03:21:18Z</time>
   </trkpt>
   <trkpt lat="-3.0794250" lon="37.3639200">
    <ele>5651.1</ele>
    <time>2026-06-23T03:21:19Z</time>
   </trkpt>
   <trkpt lat="-3.0794250" lon="37.3639190">
    <ele>5651.1</ele>
    <time>2026-06-23T03:21:20Z</time>
   </trkpt>
   <trkpt lat="-3.0794230" lon="37.3639190">
    <ele>5651.1</ele>
    <time>2026-06-23T03:21:21Z</time>
   </trkpt>
   <trkpt lat="-3.0794220" lon="37.3639170">
    <ele>5651.2</ele>
    <time>2026-06-23T03:21:22Z</time>
   </trkpt>
   <trkpt lat="-3.0794190" lon="37.3639160">
    <ele>5651.2</ele>
    <time>2026-06-23T03:21:23Z</time>
   </trkpt>
   <trkpt lat="-3.0794170" lon="37.3639150">
    <ele>5651.3</ele>
    <time>2026-06-23T03:21:24Z</time>
   </trkpt>
   <trkpt lat="-3.0794150" lon="37.3639130">
    <ele>5651.3</ele>
    <time>2026-06-23T03:21:25Z</time>
   </trkpt>
   <trkpt lat="-3.0794120" lon="37.3639130">
    <ele>5651.3</ele>
    <time>2026-06-23T03:21:26Z</time>
   </trkpt>
   <trkpt lat="-3.0794080" lon="37.3639040">
    <ele>5651.5</ele>
    <time>2026-06-23T03:21:27Z</time>
   </trkpt>
   <trkpt lat="-3.0794050" lon="37.3639080">
    <ele>5651.6</ele>
    <time>2026-06-23T03:21:28Z</time>
   </trkpt>
   <trkpt lat="-3.0794050" lon="37.3639080">
    <ele>5651.6</ele>
    <time>2026-06-23T03:21:29Z</time>
   </trkpt>
   <trkpt lat="-3.0794030" lon="37.3639070">
    <ele>5651.6</ele>
    <time>2026-06-23T03:21:30Z</time>
   </trkpt>
   <trkpt lat="-3.0794000" lon="37.3639050">
    <ele>5651.7</ele>
    <time>2026-06-23T03:21:31Z</time>
   </trkpt>
   <trkpt lat="-3.0794000" lon="37.3639050">
    <ele>5651.7</ele>
    <time>2026-06-23T03:21:32Z</time>
   </trkpt>
   <trkpt lat="-3.0793980" lon="37.3639020">
    <ele>5651.7</ele>
    <time>2026-06-23T03:21:33Z</time>
   </trkpt>
   <trkpt lat="-3.0793980" lon="37.3639020">
    <ele>5651.7</ele>
    <time>2026-06-23T03:21:34Z</time>
   </trkpt>
   <trkpt lat="-3.0793970" lon="37.3638980">
    <ele>5651.8</ele>
    <time>2026-06-23T03:21:35Z</time>
   </trkpt>
   <trkpt lat="-3.0793980" lon="37.3638980">
    <ele>5651.8</ele>
    <time>2026-06-23T03:21:36Z</time>
   </trkpt>
   <trkpt lat="-3.0793990" lon="37.3638950">
    <ele>5651.9</ele>
    <time>2026-06-23T03:21:37Z</time>
   </trkpt>
   <trkpt lat="-3.0794000" lon="37.3638940">
    <ele>5651.9</ele>
    <time>2026-06-23T03:21:38Z</time>
   </trkpt>
   <trkpt lat="-3.0794020" lon="37.3638920">
    <ele>5651.9</ele>
    <time>2026-06-23T03:21:39Z</time>
   </trkpt>
   <trkpt lat="-3.0794020" lon="37.3638910">
    <ele>5652.0</ele>
    <time>2026-06-23T03:21:40Z</time>
   </trkpt>
   <trkpt lat="-3.0794050" lon="37.3638900">
    <ele>5652.0</ele>
    <time>2026-06-23T03:21:41Z</time>
   </trkpt>
   <trkpt lat="-3.0794060" lon="37.3638880">
    <ele>5652.1</ele>
    <time>2026-06-23T03:21:42Z</time>
   </trkpt>
   <trkpt lat="-3.0794090" lon="37.3638860">
    <ele>5652.1</ele>
    <time>2026-06-23T03:21:43Z</time>
   </trkpt>
   <trkpt lat="-3.0794100" lon="37.3638840">
    <ele>5652.1</ele>
    <time>2026-06-23T03:21:44Z</time>
   </trkpt>
   <trkpt lat="-3.0794100" lon="37.3638820">
    <ele>5652.2</ele>
    <time>2026-06-23T03:21:45Z</time>
   </trkpt>
   <trkpt lat="-3.0794100" lon="37.3638820">
    <ele>5652.2</ele>
    <time>2026-06-23T03:21:46Z</time>
   </trkpt>
   <trkpt lat="-3.0794110" lon="37.3638800">
    <ele>5652.2</ele>
    <time>2026-06-23T03:21:47Z</time>
   </trkpt>
   <trkpt lat="-3.0794110" lon="37.3638790">
    <ele>5652.2</ele>
    <time>2026-06-23T03:21:48Z</time>
   </trkpt>
   <trkpt lat="-3.0794100" lon="37.3638760">
    <ele>5652.3</ele>
    <time>2026-06-23T03:21:49Z</time>
   </trkpt>
   <trkpt lat="-3.0794120" lon="37.3638740">
    <ele>5652.3</ele>
    <time>2026-06-23T03:21:50Z</time>
   </trkpt>
   <trkpt lat="-3.0794140" lon="37.3638750">
    <ele>5652.4</ele>
    <time>2026-06-23T03:21:51Z</time>
   </trkpt>
   <trkpt lat="-3.0794130" lon="37.3638720">
    <ele>5652.4</ele>
    <time>2026-06-23T03:21:52Z</time>
   </trkpt>
   <trkpt lat="-3.0794140" lon="37.3638710">
    <ele>5652.4</ele>
    <time>2026-06-23T03:21:53Z</time>
   </trkpt>
   <trkpt lat="-3.0794130" lon="37.3638700">
    <ele>5652.5</ele>
    <time>2026-06-23T03:21:54Z</time>
   </trkpt>
   <trkpt lat="-3.0794130" lon="37.3638680">
    <ele>5652.5</ele>
    <time>2026-06-23T03:21:55Z</time>
   </trkpt>
   <trkpt lat="-3.0794120" lon="37.3638680">
    <ele>5652.5</ele>
    <time>2026-06-23T03:21:56Z</time>
   </trkpt>
   <trkpt lat="-3.0794130" lon="37.3638650">
    <ele>5652.6</ele>
    <time>2026-06-23T03:21:57Z</time>
   </trkpt>
   <trkpt lat="-3.0794130" lon="37.3638630">
    <ele>5652.6</ele>
    <time>2026-06-23T03:21:58Z</time>
   </trkpt>
   <trkpt lat="-3.0794120" lon="37.3638590">
    <ele>5652.7</ele>
    <time>2026-06-23T03:21:59Z</time>
   </trkpt>
   <trkpt lat="-3.0794130" lon="37.3638590">
    <ele>5652.7</ele>
    <time>2026-06-23T03:22:00Z</time>
   </trkpt>
   <trkpt lat="-3.0794120" lon="37.3638550">
    <ele>5652.8</ele>
    <time>2026-06-23T03:22:01Z</time>
   </trkpt>
   <trkpt lat="-3.0794130" lon="37.3638540">
    <ele>5652.8</ele>
    <time>2026-06-23T03:22:02Z</time>
   </trkpt>
   <trkpt lat="-3.0794120" lon="37.3638530">
    <ele>5652.8</ele>
    <time>2026-06-23T03:22:03Z</time>
   </trkpt>
   <trkpt lat="-3.0794120" lon="37.3638500">
    <ele>5652.9</ele>
    <time>2026-06-23T03:22:04Z</time>
   </trkpt>
   <trkpt lat="-3.0794120" lon="37.3638490">
    <ele>5652.9</ele>
    <time>2026-06-23T03:22:05Z</time>
   </trkpt>
   <trkpt lat="-3.0794120" lon="37.3638480">
    <ele>5652.9</ele>
    <time>2026-06-23T03:22:06Z</time>
   </trkpt>
   <trkpt lat="-3.0794110" lon="37.3638470">
    <ele>5652.9</ele>
    <time>2026-06-23T03:22:07Z</time>
   </trkpt>
   <trkpt lat="-3.0794090" lon="37.3638440">
    <ele>5653.0</ele>
    <time>2026-06-23T03:22:08Z</time>
   </trkpt>
   <trkpt lat="-3.0794090" lon="37.3638440">
    <ele>5653.0</ele>
    <time>2026-06-23T03:22:09Z</time>
   </trkpt>
   <trkpt lat="-3.0794080" lon="37.3638420">
    <ele>5653.0</ele>
    <time>2026-06-23T03:22:10Z</time>
   </trkpt>
   <trkpt lat="-3.0794090" lon="37.3638410">
    <ele>5653.0</ele>
    <time>2026-06-23T03:22:11Z</time>
   </trkpt>
   <trkpt lat="-3.0794080" lon="37.3638380">
    <ele>5653.1</ele>
    <time>2026-06-23T03:22:12Z</time>
   </trkpt>
   <trkpt lat="-3.0794070" lon="37.3638370">
    <ele>5653.1</ele>
    <time>2026-06-23T03:22:13Z</time>
   </trkpt>
   <trkpt lat="-3.0794040" lon="37.3638320">
    <ele>5653.2</ele>
    <time>2026-06-23T03:22:14Z</time>
   </trkpt>
   <trkpt lat="-3.0794050" lon="37.3638330">
    <ele>5653.2</ele>
    <time>2026-06-23T03:22:15Z</time>
   </trkpt>
   <trkpt lat="-3.0794040" lon="37.3638310">
    <ele>5653.3</ele>
    <time>2026-06-23T03:22:16Z</time>
   </trkpt>
   <trkpt lat="-3.0794040" lon="37.3638280">
    <ele>5653.3</ele>
    <time>2026-06-23T03:22:17Z</time>
   </trkpt>
   <trkpt lat="-3.0794020" lon="37.3638270">
    <ele>5653.4</ele>
    <time>2026-06-23T03:22:18Z</time>
   </trkpt>
   <trkpt lat="-3.0794000" lon="37.3638240">
    <ele>5653.4</ele>
    <time>2026-06-23T03:22:19Z</time>
   </trkpt>
   <trkpt lat="-3.0793980" lon="37.3638230">
    <ele>5653.5</ele>
    <time>2026-06-23T03:22:20Z</time>
   </trkpt>
   <trkpt lat="-3.0793980" lon="37.3638220">
    <ele>5653.5</ele>
    <time>2026-06-23T03:22:21Z</time>
   </trkpt>
   <trkpt lat="-3.0793970" lon="37.3638210">
    <ele>5653.5</ele>
    <time>2026-06-23T03:22:22Z</time>
   </trkpt>
   <trkpt lat="-3.0793970" lon="37.3638210">
    <ele>5653.5</ele>
    <time>2026-06-23T03:22:23Z</time>
   </trkpt>
   <trkpt lat="-3.0793950" lon="37.3638220">
    <ele>5653.5</ele>
    <time>2026-06-23T03:22:24Z</time>
   </trkpt>
   <trkpt lat="-3.0793930" lon="37.3638170">
    <ele>5653.6</ele>
    <time>2026-06-23T03:22:25Z</time>
   </trkpt>
   <trkpt lat="-3.0793930" lon="37.3638190">
    <ele>5653.7</ele>
    <time>2026-06-23T03:22:26Z</time>
   </trkpt>
   <trkpt lat="-3.0793920" lon="37.3638170">
    <ele>5653.7</ele>
    <time>2026-06-23T03:22:27Z</time>
   </trkpt>
   <trkpt lat="-3.0793910" lon="37.3638180">
    <ele>5653.7</ele>
    <time>2026-06-23T03:22:28Z</time>
   </trkpt>
   <trkpt lat="-3.0793900" lon="37.3638140">
    <ele>5653.8</ele>
    <time>2026-06-23T03:22:29Z</time>
   </trkpt>
   <trkpt lat="-3.0793880" lon="37.3638160">
    <ele>5653.8</ele>
    <time>2026-06-23T03:22:30Z</time>
   </trkpt>
   <trkpt lat="-3.0793860" lon="37.3638120">
    <ele>5653.9</ele>
    <time>2026-06-23T03:22:31Z</time>
   </trkpt>
   <trkpt lat="-3.0793850" lon="37.3638130">
    <ele>5653.9</ele>
    <time>2026-06-23T03:22:32Z</time>
   </trkpt>
   <trkpt lat="-3.0793830" lon="37.3638130">
    <ele>5654.0</ele>
    <time>2026-06-23T03:22:33Z</time>
   </trkpt>
   <trkpt lat="-3.0793820" lon="37.3638110">
    <ele>5654.0</ele>
    <time>2026-06-23T03:22:34Z</time>
   </trkpt>
   <trkpt lat="-3.0793820" lon="37.3638100">
    <ele>5654.0</ele>
    <time>2026-06-23T03:22:35Z</time>
   </trkpt>
   <trkpt lat="-3.0793810" lon="37.3638080">
    <ele>5654.1</ele>
    <time>2026-06-23T03:22:36Z</time>
   </trkpt>
   <trkpt lat="-3.0793800" lon="37.3638100">
    <ele>5654.1</ele>
    <time>2026-06-23T03:22:37Z</time>
   </trkpt>
   <trkpt lat="-3.0793790" lon="37.3638080">
    <ele>5654.1</ele>
    <time>2026-06-23T03:22:38Z</time>
   </trkpt>
   <trkpt lat="-3.0793780" lon="37.3638080">
    <ele>5654.2</ele>
    <time>2026-06-23T03:22:39Z</time>
   </trkpt>
   <trkpt lat="-3.0793760" lon="37.3638070">
    <ele>5654.2</ele>
    <time>2026-06-23T03:22:40Z</time>
   </trkpt>
   <trkpt lat="-3.0793740" lon="37.3638060">
    <ele>5654.2</ele>
    <time>2026-06-23T03:22:41Z</time>
   </trkpt>
   <trkpt lat="-3.0793730" lon="37.3638050">
    <ele>5654.3</ele>
    <time>2026-06-23T03:22:42Z</time>
   </trkpt>
   <trkpt lat="-3.0793720" lon="37.3638060">
    <ele>5654.3</ele>
    <time>2026-06-23T03:22:43Z</time>
   </trkpt>
   <trkpt lat="-3.0793710" lon="37.3638040">
    <ele>5654.3</ele>
    <time>2026-06-23T03:22:44Z</time>
   </trkpt>
   <trkpt lat="-3.0793690" lon="37.3638040">
    <ele>5654.3</ele>
    <time>2026-06-23T03:22:45Z</time>
   </trkpt>
   <trkpt lat="-3.0793680" lon="37.3638030">
    <ele>5654.4</ele>
    <time>2026-06-23T03:22:46Z</time>
   </trkpt>
   <trkpt lat="-3.0793670" lon="37.3638040">
    <ele>5654.4</ele>
    <time>2026-06-23T03:22:47Z</time>
   </trkpt>
   <trkpt lat="-3.0793650" lon="37.3638020">
    <ele>5654.4</ele>
    <time>2026-06-23T03:22:48Z</time>
   </trkpt>
   <trkpt lat="-3.0793640" lon="37.3638030">
    <ele>5654.5</ele>
    <time>2026-06-23T03:22:49Z</time>
   </trkpt>
   <trkpt lat="-3.0793630" lon="37.3638020">
    <ele>5654.5</ele>
    <time>2026-06-23T03:22:50Z</time>
   </trkpt>
   <trkpt lat="-3.0793610" lon="37.3638030">
    <ele>5654.5</ele>
    <time>2026-06-23T03:22:51Z</time>
   </trkpt>
   <trkpt lat="-3.0793600" lon="37.3638010">
    <ele>5654.6</ele>
    <time>2026-06-23T03:22:52Z</time>
   </trkpt>
   <trkpt lat="-3.0793580" lon="37.3638020">
    <ele>5654.6</ele>
    <time>2026-06-23T03:22:53Z</time>
   </trkpt>
   <trkpt lat="-3.0793570" lon="37.3638010">
    <ele>5654.6</ele>
    <time>2026-06-23T03:22:54Z</time>
   </trkpt>
   <trkpt lat="-3.0793540" lon="37.3638010">
    <ele>5654.7</ele>
    <time>2026-06-23T03:22:55Z</time>
   </trkpt>
   <trkpt lat="-3.0793530" lon="37.3638000">
    <ele>5654.7</ele>
    <time>2026-06-23T03:22:56Z</time>
   </trkpt>
   <trkpt lat="-3.0793520" lon="37.3638000">
    <ele>5654.7</ele>
    <time>2026-06-23T03:22:57Z</time>
   </trkpt>
   <trkpt lat="-3.0793500" lon="37.3637980">
    <ele>5654.8</ele>
    <time>2026-06-23T03:22:58Z</time>
   </trkpt>
   <trkpt lat="-3.0793510" lon="37.3637990">
    <ele>5654.8</ele>
    <time>2026-06-23T03:22:59Z</time>
   </trkpt>
   <trkpt lat="-3.0793490" lon="37.3637980">
    <ele>5654.9</ele>
    <time>2026-06-23T03:23:00Z</time>
   </trkpt>
   <trkpt lat="-3.0793480" lon="37.3637970">
    <ele>5654.9</ele>
    <time>2026-06-23T03:23:01Z</time>
   </trkpt>
   <trkpt lat="-3.0793470" lon="37.3637960">
    <ele>5654.9</ele>
    <time>2026-06-23T03:23:02Z</time>
   </trkpt>
   <trkpt lat="-3.0793440" lon="37.3637960">
    <ele>5655.0</ele>
    <time>2026-06-23T03:23:03Z</time>
   </trkpt>
   <trkpt lat="-3.0793420" lon="37.3637970">
    <ele>5655.0</ele>
    <time>2026-06-23T03:23:04Z</time>
   </trkpt>
   <trkpt lat="-3.0793400" lon="37.3637980">
    <ele>5655.0</ele>
    <time>2026-06-23T03:23:05Z</time>
   </trkpt>
   <trkpt lat="-3.0793390" lon="37.3637970">
    <ele>5655.1</ele>
    <time>2026-06-23T03:23:06Z</time>
   </trkpt>
   <trkpt lat="-3.0793370" lon="37.3637970">
    <ele>5655.1</ele>
    <time>2026-06-23T03:23:07Z</time>
   </trkpt>
   <trkpt lat="-3.0793360" lon="37.3637960">
    <ele>5655.1</ele>
    <time>2026-06-23T03:23:08Z</time>
   </trkpt>
   <trkpt lat="-3.0793360" lon="37.3637970">
    <ele>5655.2</ele>
    <time>2026-06-23T03:23:09Z</time>
   </trkpt>
   <trkpt lat="-3.0793320" lon="37.3637950">
    <ele>5655.2</ele>
    <time>2026-06-23T03:23:10Z</time>
   </trkpt>
   <trkpt lat="-3.0793310" lon="37.3637960">
    <ele>5655.3</ele>
    <time>2026-06-23T03:23:11Z</time>
   </trkpt>
   <trkpt lat="-3.0793290" lon="37.3637950">
    <ele>5655.3</ele>
    <time>2026-06-23T03:23:12Z</time>
   </trkpt>
   <trkpt lat="-3.0793270" lon="37.3637940">
    <ele>5655.3</ele>
    <time>2026-06-23T03:23:13Z</time>
   </trkpt>
   <trkpt lat="-3.0793250" lon="37.3637930">
    <ele>5655.4</ele>
    <time>2026-06-23T03:23:14Z</time>
   </trkpt>
   <trkpt lat="-3.0793270" lon="37.3637950">
    <ele>5655.4</ele>
    <time>2026-06-23T03:23:15Z</time>
   </trkpt>
   <trkpt lat="-3.0793270" lon="37.3637960">
    <ele>5655.5</ele>
    <time>2026-06-23T03:23:16Z</time>
   </trkpt>
   <trkpt lat="-3.0793230" lon="37.3637940">
    <ele>5655.5</ele>
    <time>2026-06-23T03:23:17Z</time>
   </trkpt>
   <trkpt lat="-3.0793220" lon="37.3637940">
    <ele>5655.6</ele>
    <time>2026-06-23T03:23:18Z</time>
   </trkpt>
   <trkpt lat="-3.0793210" lon="37.3637940">
    <ele>5655.6</ele>
    <time>2026-06-23T03:23:19Z</time>
   </trkpt>
   <trkpt lat="-3.0793190" lon="37.3637930">
    <ele>5655.6</ele>
    <time>2026-06-23T03:23:20Z</time>
   </trkpt>
   <trkpt lat="-3.0793190" lon="37.3637920">
    <ele>5655.6</ele>
    <time>2026-06-23T03:23:21Z</time>
   </trkpt>
   <trkpt lat="-3.0793180" lon="37.3637930">
    <ele>5655.7</ele>
    <time>2026-06-23T03:23:22Z</time>
   </trkpt>
   <trkpt lat="-3.0793190" lon="37.3637920">
    <ele>5655.7</ele>
    <time>2026-06-23T03:23:23Z</time>
   </trkpt>
   <trkpt lat="-3.0793170" lon="37.3637900">
    <ele>5655.7</ele>
    <time>2026-06-23T03:23:24Z</time>
   </trkpt>
   <trkpt lat="-3.0793130" lon="37.3637880">
    <ele>5655.8</ele>
    <time>2026-06-23T03:23:25Z</time>
   </trkpt>
   <trkpt lat="-3.0793120" lon="37.3637890">
    <ele>5655.8</ele>
    <time>2026-06-23T03:23:26Z</time>
   </trkpt>
   <trkpt lat="-3.0793100" lon="37.3637890">
    <ele>5655.9</ele>
    <time>2026-06-23T03:23:27Z</time>
   </trkpt>
   <trkpt lat="-3.0793080" lon="37.3637890">
    <ele>5655.9</ele>
    <time>2026-06-23T03:23:28Z</time>
   </trkpt>
   <trkpt lat="-3.0793070" lon="37.3637880">
    <ele>5655.9</ele>
    <time>2026-06-23T03:23:29Z</time>
   </trkpt>
   <trkpt lat="-3.0793050" lon="37.3637870">
    <ele>5656.0</ele>
    <time>2026-06-23T03:23:30Z</time>
   </trkpt>
   <trkpt lat="-3.0793040" lon="37.3637860">
    <ele>5656.0</ele>
    <time>2026-06-23T03:23:31Z</time>
   </trkpt>
   <trkpt lat="-3.0793010" lon="37.3637850">
    <ele>5656.1</ele>
    <time>2026-06-23T03:23:32Z</time>
   </trkpt>
   <trkpt lat="-3.0793000" lon="37.3637860">
    <ele>5656.1</ele>
    <time>2026-06-23T03:23:33Z</time>
   </trkpt>
   <trkpt lat="-3.0792980" lon="37.3637840">
    <ele>5656.1</ele>
    <time>2026-06-23T03:23:34Z</time>
   </trkpt>
   <trkpt lat="-3.0792960" lon="37.3637850">
    <ele>5656.2</ele>
    <time>2026-06-23T03:23:35Z</time>
   </trkpt>
   <trkpt lat="-3.0792950" lon="37.3637830">
    <ele>5656.2</ele>
    <time>2026-06-23T03:23:36Z</time>
   </trkpt>
   <trkpt lat="-3.0792940" lon="37.3637840">
    <ele>5656.3</ele>
    <time>2026-06-23T03:23:37Z</time>
   </trkpt>
   <trkpt lat="-3.0792930" lon="37.3637830">
    <ele>5656.3</ele>
    <time>2026-06-23T03:23:38Z</time>
   </trkpt>
   <trkpt lat="-3.0792900" lon="37.3637820">
    <ele>5656.3</ele>
    <time>2026-06-23T03:23:39Z</time>
   </trkpt>
   <trkpt lat="-3.0792890" lon="37.3637840">
    <ele>5656.4</ele>
    <time>2026-06-23T03:23:40Z</time>
   </trkpt>
   <trkpt lat="-3.0792880" lon="37.3637830">
    <ele>5656.4</ele>
    <time>2026-06-23T03:23:41Z</time>
   </trkpt>
   <trkpt lat="-3.0792860" lon="37.3637830">
    <ele>5656.4</ele>
    <time>2026-06-23T03:23:42Z</time>
   </trkpt>
   <trkpt lat="-3.0792840" lon="37.3637820">
    <ele>5656.5</ele>
    <time>2026-06-23T03:23:43Z</time>
   </trkpt>
   <trkpt lat="-3.0792820" lon="37.3637800">
    <ele>5656.5</ele>
    <time>2026-06-23T03:23:44Z</time>
   </trkpt>
   <trkpt lat="-3.0792800" lon="37.3637800">
    <ele>5656.6</ele>
    <time>2026-06-23T03:23:45Z</time>
   </trkpt>
   <trkpt lat="-3.0792800" lon="37.3637800">
    <ele>5656.6</ele>
    <time>2026-06-23T03:23:46Z</time>
   </trkpt>
   <trkpt lat="-3.0792770" lon="37.3637790">
    <ele>5656.6</ele>
    <time>2026-06-23T03:23:47Z</time>
   </trkpt>
   <trkpt lat="-3.0792760" lon="37.3637790">
    <ele>5656.6</ele>
    <time>2026-06-23T03:23:48Z</time>
   </trkpt>
   <trkpt lat="-3.0792740" lon="37.3637770">
    <ele>5656.7</ele>
    <time>2026-06-23T03:23:49Z</time>
   </trkpt>
   <trkpt lat="-3.0792730" lon="37.3637780">
    <ele>5656.7</ele>
    <time>2026-06-23T03:23:50Z</time>
   </trkpt>
   <trkpt lat="-3.0792710" lon="37.3637760">
    <ele>5656.8</ele>
    <time>2026-06-23T03:23:51Z</time>
   </trkpt>
   <trkpt lat="-3.0792690" lon="37.3637760">
    <ele>5656.8</ele>
    <time>2026-06-23T03:23:52Z</time>
   </trkpt>
   <trkpt lat="-3.0792690" lon="37.3637740">
    <ele>5656.8</ele>
    <time>2026-06-23T03:23:53Z</time>
   </trkpt>
   <trkpt lat="-3.0792670" lon="37.3637740">
    <ele>5656.9</ele>
    <time>2026-06-23T03:23:54Z</time>
   </trkpt>
   <trkpt lat="-3.0792650" lon="37.3637730">
    <ele>5656.9</ele>
    <time>2026-06-23T03:23:55Z</time>
   </trkpt>
   <trkpt lat="-3.0792640" lon="37.3637720">
    <ele>5656.9</ele>
    <time>2026-06-23T03:23:56Z</time>
   </trkpt>
   <trkpt lat="-3.0792640" lon="37.3637710">
    <ele>5657.0</ele>
    <time>2026-06-23T03:23:57Z</time>
   </trkpt>
   <trkpt lat="-3.0792620" lon="37.3637700">
    <ele>5657.0</ele>
    <time>2026-06-23T03:23:58Z</time>
   </trkpt>
   <trkpt lat="-3.0792610" lon="37.3637700">
    <ele>5657.0</ele>
    <time>2026-06-23T03:23:59Z</time>
   </trkpt>
   <trkpt lat="-3.0792600" lon="37.3637710">
    <ele>5657.1</ele>
    <time>2026-06-23T03:24:00Z</time>
   </trkpt>
   <trkpt lat="-3.0792580" lon="37.3637700">
    <ele>5657.1</ele>
    <time>2026-06-23T03:24:01Z</time>
   </trkpt>
   <trkpt lat="-3.0792570" lon="37.3637690">
    <ele>5657.1</ele>
    <time>2026-06-23T03:24:02Z</time>
   </trkpt>
   <trkpt lat="-3.0792540" lon="37.3637690">
    <ele>5657.2</ele>
    <time>2026-06-23T03:24:03Z</time>
   </trkpt>
   <trkpt lat="-3.0792530" lon="37.3637680">
    <ele>5657.2</ele>
    <time>2026-06-23T03:24:04Z</time>
   </trkpt>
   <trkpt lat="-3.0792500" lon="37.3637670">
    <ele>5657.3</ele>
    <time>2026-06-23T03:24:05Z</time>
   </trkpt>
   <trkpt lat="-3.0792500" lon="37.3637640">
    <ele>5657.3</ele>
    <time>2026-06-23T03:24:06Z</time>
   </trkpt>
   <trkpt lat="-3.0792490" lon="37.3637630">
    <ele>5657.3</ele>
    <time>2026-06-23T03:24:07Z</time>
   </trkpt>
   <trkpt lat="-3.0792470" lon="37.3637620">
    <ele>5657.4</ele>
    <time>2026-06-23T03:24:08Z</time>
   </trkpt>
   <trkpt lat="-3.0792460" lon="37.3637640">
    <ele>5657.4</ele>
    <time>2026-06-23T03:24:09Z</time>
   </trkpt>
   <trkpt lat="-3.0792440" lon="37.3637630">
    <ele>5657.5</ele>
    <time>2026-06-23T03:24:10Z</time>
   </trkpt>
   <trkpt lat="-3.0792420" lon="37.3637630">
    <ele>5657.5</ele>
    <time>2026-06-23T03:24:11Z</time>
   </trkpt>
   <trkpt lat="-3.0792400" lon="37.3637620">
    <ele>5657.5</ele>
    <time>2026-06-23T03:24:12Z</time>
   </trkpt>
   <trkpt lat="-3.0792390" lon="37.3637630">
    <ele>5657.6</ele>
    <time>2026-06-23T03:24:13Z</time>
   </trkpt>
   <trkpt lat="-3.0792380" lon="37.3637640">
    <ele>5657.6</ele>
    <time>2026-06-23T03:24:14Z</time>
   </trkpt>
   <trkpt lat="-3.0792370" lon="37.3637650">
    <ele>5657.6</ele>
    <time>2026-06-23T03:24:15Z</time>
   </trkpt>
   <trkpt lat="-3.0792350" lon="37.3637660">
    <ele>5657.7</ele>
    <time>2026-06-23T03:24:16Z</time>
   </trkpt>
   <trkpt lat="-3.0792340" lon="37.3637670">
    <ele>5657.7</ele>
    <time>2026-06-23T03:24:17Z</time>
   </trkpt>
   <trkpt lat="-3.0792320" lon="37.3637680">
    <ele>5657.7</ele>
    <time>2026-06-23T03:24:18Z</time>
   </trkpt>
   <trkpt lat="-3.0792290" lon="37.3637670">
    <ele>5657.8</ele>
    <time>2026-06-23T03:24:19Z</time>
   </trkpt>
   <trkpt lat="-3.0792280" lon="37.3637690">
    <ele>5657.8</ele>
    <time>2026-06-23T03:24:20Z</time>
   </trkpt>
   <trkpt lat="-3.0792260" lon="37.3637690">
    <ele>5657.9</ele>
    <time>2026-06-23T03:24:21Z</time>
   </trkpt>
   <trkpt lat="-3.0792240" lon="37.3637710">
    <ele>5657.9</ele>
    <time>2026-06-23T03:24:22Z</time>
   </trkpt>
   <trkpt lat="-3.0792240" lon="37.3637700">
    <ele>5657.9</ele>
    <time>2026-06-23T03:24:23Z</time>
   </trkpt>
   <trkpt lat="-3.0792230" lon="37.3637710">
    <ele>5658.0</ele>
    <time>2026-06-23T03:24:24Z</time>
   </trkpt>
   <trkpt lat="-3.0792230" lon="37.3637710">
    <ele>5658.0</ele>
    <time>2026-06-23T03:24:25Z</time>
   </trkpt>
   <trkpt lat="-3.0792200" lon="37.3637710">
    <ele>5658.0</ele>
    <time>2026-06-23T03:24:26Z</time>
   </trkpt>
   <trkpt lat="-3.0792180" lon="37.3637720">
    <ele>5658.0</ele>
    <time>2026-06-23T03:24:27Z</time>
   </trkpt>
   <trkpt lat="-3.0792160" lon="37.3637730">
    <ele>5658.1</ele>
    <time>2026-06-23T03:24:28Z</time>
   </trkpt>
   <trkpt lat="-3.0792160" lon="37.3637730">
    <ele>5658.1</ele>
    <time>2026-06-23T03:24:29Z</time>
   </trkpt>
   <trkpt lat="-3.0792150" lon="37.3637720">
    <ele>5658.1</ele>
    <time>2026-06-23T03:24:30Z</time>
   </trkpt>
   <trkpt lat="-3.0792120" lon="37.3637710">
    <ele>5658.1</ele>
    <time>2026-06-23T03:24:31Z</time>
   </trkpt>
   <trkpt lat="-3.0792120" lon="37.3637710">
    <ele>5658.1</ele>
    <time>2026-06-23T03:24:32Z</time>
   </trkpt>
   <trkpt lat="-3.0792120" lon="37.3637700">
    <ele>5658.2</ele>
    <time>2026-06-23T03:24:33Z</time>
   </trkpt>
   <trkpt lat="-3.0792110" lon="37.3637660">
    <ele>5658.3</ele>
    <time>2026-06-23T03:24:34Z</time>
   </trkpt>
   <trkpt lat="-3.0792100" lon="37.3637640">
    <ele>5658.3</ele>
    <time>2026-06-23T03:24:35Z</time>
   </trkpt>
   <trkpt lat="-3.0792110" lon="37.3637640">
    <ele>5658.4</ele>
    <time>2026-06-23T03:24:36Z</time>
   </trkpt>
   <trkpt lat="-3.0792070" lon="37.3637600">
    <ele>5658.5</ele>
    <time>2026-06-23T03:24:37Z</time>
   </trkpt>
   <trkpt lat="-3.0792070" lon="37.3637580">
    <ele>5658.6</ele>
    <time>2026-06-23T03:24:38Z</time>
   </trkpt>
   <trkpt lat="-3.0792060" lon="37.3637580">
    <ele>5658.6</ele>
    <time>2026-06-23T03:24:39Z</time>
   </trkpt>
   <trkpt lat="-3.0792050" lon="37.3637550">
    <ele>5658.7</ele>
    <time>2026-06-23T03:24:40Z</time>
   </trkpt>
   <trkpt lat="-3.0792050" lon="37.3637550">
    <ele>5658.7</ele>
    <time>2026-06-23T03:24:41Z</time>
   </trkpt>
   <trkpt lat="-3.0792050" lon="37.3637550">
    <ele>5658.7</ele>
    <time>2026-06-23T03:24:42Z</time>
   </trkpt>
   <trkpt lat="-3.0792030" lon="37.3637510">
    <ele>5658.8</ele>
    <time>2026-06-23T03:24:43Z</time>
   </trkpt>
   <trkpt lat="-3.0792020" lon="37.3637520">
    <ele>5658.8</ele>
    <time>2026-06-23T03:24:44Z</time>
   </trkpt>
   <trkpt lat="-3.0792010" lon="37.3637500">
    <ele>5658.9</ele>
    <time>2026-06-23T03:24:45Z</time>
   </trkpt>
   <trkpt lat="-3.0792000" lon="37.3637500">
    <ele>5658.9</ele>
    <time>2026-06-23T03:24:46Z</time>
   </trkpt>
   <trkpt lat="-3.0791980" lon="37.3637490">
    <ele>5659.0</ele>
    <time>2026-06-23T03:24:47Z</time>
   </trkpt>
   <trkpt lat="-3.0791980" lon="37.3637490">
    <ele>5659.0</ele>
    <time>2026-06-23T03:24:48Z</time>
   </trkpt>
   <trkpt lat="-3.0791960" lon="37.3637470">
    <ele>5659.0</ele>
    <time>2026-06-23T03:24:49Z</time>
   </trkpt>
   <trkpt lat="-3.0791950" lon="37.3637470">
    <ele>5659.1</ele>
    <time>2026-06-23T03:24:50Z</time>
   </trkpt>
   <trkpt lat="-3.0791950" lon="37.3637460">
    <ele>5659.1</ele>
    <time>2026-06-23T03:24:51Z</time>
   </trkpt>
   <trkpt lat="-3.0791930" lon="37.3637450">
    <ele>5659.2</ele>
    <time>2026-06-23T03:24:52Z</time>
   </trkpt>
   <trkpt lat="-3.0791920" lon="37.3637440">
    <ele>5659.2</ele>
    <time>2026-06-23T03:24:53Z</time>
   </trkpt>
   <trkpt lat="-3.0791900" lon="37.3637430">
    <ele>5659.2</ele>
    <time>2026-06-23T03:24:54Z</time>
   </trkpt>
   <trkpt lat="-3.0791880" lon="37.3637420">
    <ele>5659.3</ele>
    <time>2026-06-23T03:24:55Z</time>
   </trkpt>
   <trkpt lat="-3.0791870" lon="37.3637410">
    <ele>5659.3</ele>
    <time>2026-06-23T03:24:56Z</time>
   </trkpt>
   <trkpt lat="-3.0791870" lon="37.3637410">
    <ele>5659.3</ele>
    <time>2026-06-23T03:24:57Z</time>
   </trkpt>
   <trkpt lat="-3.0791850" lon="37.3637400">
    <ele>5659.4</ele>
    <time>2026-06-23T03:24:58Z</time>
   </trkpt>
   <trkpt lat="-3.0791830" lon="37.3637390">
    <ele>5659.5</ele>
    <time>2026-06-23T03:24:59Z</time>
   </trkpt>
   <trkpt lat="-3.0791810" lon="37.3637370">
    <ele>5659.5</ele>
    <time>2026-06-23T03:25:00Z</time>
   </trkpt>
   <trkpt lat="-3.0791810" lon="37.3637370">
    <ele>5659.5</ele>
    <time>2026-06-23T03:25:01Z</time>
   </trkpt>
   <trkpt lat="-3.0791790" lon="37.3637350">
    <ele>5659.6</ele>
    <time>2026-06-23T03:25:02Z</time>
   </trkpt>
   <trkpt lat="-3.0791780" lon="37.3637340">
    <ele>5659.6</ele>
    <time>2026-06-23T03:25:03Z</time>
   </trkpt>
   <trkpt lat="-3.0791780" lon="37.3637340">
    <ele>5659.6</ele>
    <time>2026-06-23T03:25:04Z</time>
   </trkpt>
   <trkpt lat="-3.0791760" lon="37.3637320">
    <ele>5659.7</ele>
    <time>2026-06-23T03:25:05Z</time>
   </trkpt>
   <trkpt lat="-3.0791770" lon="37.3637300">
    <ele>5659.8</ele>
    <time>2026-06-23T03:25:06Z</time>
   </trkpt>
   <trkpt lat="-3.0791760" lon="37.3637290">
    <ele>5659.8</ele>
    <time>2026-06-23T03:25:07Z</time>
   </trkpt>
   <trkpt lat="-3.0791760" lon="37.3637280">
    <ele>5659.8</ele>
    <time>2026-06-23T03:25:08Z</time>
   </trkpt>
   <trkpt lat="-3.0791740" lon="37.3637240">
    <ele>5660.0</ele>
    <time>2026-06-23T03:25:09Z</time>
   </trkpt>
   <trkpt lat="-3.0791740" lon="37.3637240">
    <ele>5660.0</ele>
    <time>2026-06-23T03:25:10Z</time>
   </trkpt>
   <trkpt lat="-3.0791740" lon="37.3637230">
    <ele>5660.0</ele>
    <time>2026-06-23T03:25:11Z</time>
   </trkpt>
   <trkpt lat="-3.0791740" lon="37.3637220">
    <ele>5660.0</ele>
    <time>2026-06-23T03:25:12Z</time>
   </trkpt>
   <trkpt lat="-3.0791730" lon="37.3637200">
    <ele>5660.1</ele>
    <time>2026-06-23T03:25:13Z</time>
   </trkpt>
   <trkpt lat="-3.0791740" lon="37.3637180">
    <ele>5660.1</ele>
    <time>2026-06-23T03:25:14Z</time>
   </trkpt>
   <trkpt lat="-3.0791730" lon="37.3637170">
    <ele>5660.2</ele>
    <time>2026-06-23T03:25:15Z</time>
   </trkpt>
   <trkpt lat="-3.0791740" lon="37.3637140">
    <ele>5660.3</ele>
    <time>2026-06-23T03:25:16Z</time>
   </trkpt>
   <trkpt lat="-3.0791740" lon="37.3637140">
    <ele>5660.3</ele>
    <time>2026-06-23T03:25:17Z</time>
   </trkpt>
   <trkpt lat="-3.0791740" lon="37.3637110">
    <ele>5660.3</ele>
    <time>2026-06-23T03:25:18Z</time>
   </trkpt>
   <trkpt lat="-3.0791730" lon="37.3637080">
    <ele>5660.4</ele>
    <time>2026-06-23T03:25:19Z</time>
   </trkpt>
   <trkpt lat="-3.0791740" lon="37.3637060">
    <ele>5660.5</ele>
    <time>2026-06-23T03:25:20Z</time>
   </trkpt>
   <trkpt lat="-3.0791740" lon="37.3637040">
    <ele>5660.5</ele>
    <time>2026-06-23T03:25:21Z</time>
   </trkpt>
   <trkpt lat="-3.0791740" lon="37.3637030">
    <ele>5660.6</ele>
    <time>2026-06-23T03:25:22Z</time>
   </trkpt>
   <trkpt lat="-3.0791750" lon="37.3637000">
    <ele>5660.6</ele>
    <time>2026-06-23T03:25:23Z</time>
   </trkpt>
   <trkpt lat="-3.0791750" lon="37.3636990">
    <ele>5660.7</ele>
    <time>2026-06-23T03:25:24Z</time>
   </trkpt>
   <trkpt lat="-3.0791770" lon="37.3636980">
    <ele>5660.7</ele>
    <time>2026-06-23T03:25:25Z</time>
   </trkpt>
   <trkpt lat="-3.0791760" lon="37.3636970">
    <ele>5660.8</ele>
    <time>2026-06-23T03:25:26Z</time>
   </trkpt>
   <trkpt lat="-3.0791780" lon="37.3636970">
    <ele>5660.8</ele>
    <time>2026-06-23T03:25:27Z</time>
   </trkpt>
   <trkpt lat="-3.0791780" lon="37.3636940">
    <ele>5660.9</ele>
    <time>2026-06-23T03:25:28Z</time>
   </trkpt>
   <trkpt lat="-3.0791800" lon="37.3636940">
    <ele>5660.9</ele>
    <time>2026-06-23T03:25:29Z</time>
   </trkpt>
   <trkpt lat="-3.0791800" lon="37.3636910">
    <ele>5661.0</ele>
    <time>2026-06-23T03:25:30Z</time>
   </trkpt>
   <trkpt lat="-3.0791810" lon="37.3636900">
    <ele>5661.1</ele>
    <time>2026-06-23T03:25:31Z</time>
   </trkpt>
   <trkpt lat="-3.0791810" lon="37.3636890">
    <ele>5661.1</ele>
    <time>2026-06-23T03:25:32Z</time>
   </trkpt>
   <trkpt lat="-3.0791840" lon="37.3636870">
    <ele>5661.2</ele>
    <time>2026-06-23T03:25:33Z</time>
   </trkpt>
   <trkpt lat="-3.0791840" lon="37.3636860">
    <ele>5661.2</ele>
    <time>2026-06-23T03:25:34Z</time>
   </trkpt>
   <trkpt lat="-3.0791840" lon="37.3636850">
    <ele>5661.2</ele>
    <time>2026-06-23T03:25:35Z</time>
   </trkpt>
   <trkpt lat="-3.0791830" lon="37.3636820">
    <ele>5661.3</ele>
    <time>2026-06-23T03:25:36Z</time>
   </trkpt>
   <trkpt lat="-3.0791840" lon="37.3636830">
    <ele>5661.3</ele>
    <time>2026-06-23T03:25:37Z</time>
   </trkpt>
   <trkpt lat="-3.0791830" lon="37.3636810">
    <ele>5661.4</ele>
    <time>2026-06-23T03:25:38Z</time>
   </trkpt>
   <trkpt lat="-3.0791800" lon="37.3636760">
    <ele>5661.6</ele>
    <time>2026-06-23T03:25:39Z</time>
   </trkpt>
   <trkpt lat="-3.0791820" lon="37.3636780">
    <ele>5661.6</ele>
    <time>2026-06-23T03:25:40Z</time>
   </trkpt>
   <trkpt lat="-3.0791800" lon="37.3636750">
    <ele>5661.7</ele>
    <time>2026-06-23T03:25:41Z</time>
   </trkpt>
   <trkpt lat="-3.0791810" lon="37.3636750">
    <ele>5661.8</ele>
    <time>2026-06-23T03:25:42Z</time>
   </trkpt>
   <trkpt lat="-3.0791810" lon="37.3636740">
    <ele>5661.8</ele>
    <time>2026-06-23T03:25:43Z</time>
   </trkpt>
   <trkpt lat="-3.0791820" lon="37.3636720">
    <ele>5661.8</ele>
    <time>2026-06-23T03:25:44Z</time>
   </trkpt>
   <trkpt lat="-3.0791810" lon="37.3636720">
    <ele>5661.9</ele>
    <time>2026-06-23T03:25:45Z</time>
   </trkpt>
   <trkpt lat="-3.0791820" lon="37.3636700">
    <ele>5661.9</ele>
    <time>2026-06-23T03:25:46Z</time>
   </trkpt>
   <trkpt lat="-3.0791820" lon="37.3636670">
    <ele>5662.0</ele>
    <time>2026-06-23T03:25:47Z</time>
   </trkpt>
   <trkpt lat="-3.0791830" lon="37.3636660">
    <ele>5662.0</ele>
    <time>2026-06-23T03:25:48Z</time>
   </trkpt>
   <trkpt lat="-3.0791830" lon="37.3636650">
    <ele>5662.1</ele>
    <time>2026-06-23T03:25:49Z</time>
   </trkpt>
   <trkpt lat="-3.0791820" lon="37.3636610">
    <ele>5662.2</ele>
    <time>2026-06-23T03:25:50Z</time>
   </trkpt>
   <trkpt lat="-3.0791810" lon="37.3636590">
    <ele>5662.2</ele>
    <time>2026-06-23T03:25:51Z</time>
   </trkpt>
   <trkpt lat="-3.0791810" lon="37.3636600">
    <ele>5662.3</ele>
    <time>2026-06-23T03:25:52Z</time>
   </trkpt>
   <trkpt lat="-3.0791790" lon="37.3636580">
    <ele>5662.3</ele>
    <time>2026-06-23T03:25:53Z</time>
   </trkpt>
   <trkpt lat="-3.0791790" lon="37.3636580">
    <ele>5662.3</ele>
    <time>2026-06-23T03:25:54Z</time>
   </trkpt>
   <trkpt lat="-3.0791770" lon="37.3636580">
    <ele>5662.4</ele>
    <time>2026-06-23T03:25:55Z</time>
   </trkpt>
   <trkpt lat="-3.0791780" lon="37.3636580">
    <ele>5662.4</ele>
    <time>2026-06-23T03:25:56Z</time>
   </trkpt>
   <trkpt lat="-3.0791750" lon="37.3636570">
    <ele>5662.5</ele>
    <time>2026-06-23T03:25:57Z</time>
   </trkpt>
   <trkpt lat="-3.0791740" lon="37.3636580">
    <ele>5662.5</ele>
    <time>2026-06-23T03:25:58Z</time>
   </trkpt>
   <trkpt lat="-3.0791710" lon="37.3636560">
    <ele>5662.6</ele>
    <time>2026-06-23T03:25:59Z</time>
   </trkpt>
   <trkpt lat="-3.0791710" lon="37.3636570">
    <ele>5662.7</ele>
    <time>2026-06-23T03:26:00Z</time>
   </trkpt>
   <trkpt lat="-3.0791690" lon="37.3636550">
    <ele>5662.7</ele>
    <time>2026-06-23T03:26:01Z</time>
   </trkpt>
   <trkpt lat="-3.0791670" lon="37.3636550">
    <ele>5662.8</ele>
    <time>2026-06-23T03:26:02Z</time>
   </trkpt>
   <trkpt lat="-3.0791660" lon="37.3636510">
    <ele>5662.9</ele>
    <time>2026-06-23T03:26:03Z</time>
   </trkpt>
   <trkpt lat="-3.0791640" lon="37.3636510">
    <ele>5662.9</ele>
    <time>2026-06-23T03:26:04Z</time>
   </trkpt>
   <trkpt lat="-3.0791650" lon="37.3636500">
    <ele>5663.0</ele>
    <time>2026-06-23T03:26:05Z</time>
   </trkpt>
   <trkpt lat="-3.0791640" lon="37.3636490">
    <ele>5663.0</ele>
    <time>2026-06-23T03:26:06Z</time>
   </trkpt>
   <trkpt lat="-3.0791640" lon="37.3636470">
    <ele>5663.1</ele>
    <time>2026-06-23T03:26:07Z</time>
   </trkpt>
   <trkpt lat="-3.0791630" lon="37.3636460">
    <ele>5663.1</ele>
    <time>2026-06-23T03:26:08Z</time>
   </trkpt>
   <trkpt lat="-3.0791620" lon="37.3636440">
    <ele>5663.2</ele>
    <time>2026-06-23T03:26:09Z</time>
   </trkpt>
   <trkpt lat="-3.0791630" lon="37.3636420">
    <ele>5663.2</ele>
    <time>2026-06-23T03:26:10Z</time>
   </trkpt>
   <trkpt lat="-3.0791620" lon="37.3636420">
    <ele>5663.3</ele>
    <time>2026-06-23T03:26:11Z</time>
   </trkpt>
   <trkpt lat="-3.0791620" lon="37.3636400">
    <ele>5663.3</ele>
    <time>2026-06-23T03:26:12Z</time>
   </trkpt>
   <trkpt lat="-3.0791630" lon="37.3636390">
    <ele>5663.3</ele>
    <time>2026-06-23T03:26:13Z</time>
   </trkpt>
   <trkpt lat="-3.0791620" lon="37.3636360">
    <ele>5663.4</ele>
    <time>2026-06-23T03:26:14Z</time>
   </trkpt>
   <trkpt lat="-3.0791620" lon="37.3636360">
    <ele>5663.4</ele>
    <time>2026-06-23T03:26:15Z</time>
   </trkpt>
   <trkpt lat="-3.0791610" lon="37.3636330">
    <ele>5663.5</ele>
    <time>2026-06-23T03:26:16Z</time>
   </trkpt>
   <trkpt lat="-3.0791600" lon="37.3636310">
    <ele>5663.6</ele>
    <time>2026-06-23T03:26:17Z</time>
   </trkpt>
   <trkpt lat="-3.0791600" lon="37.3636280">
    <ele>5663.6</ele>
    <time>2026-06-23T03:26:18Z</time>
   </trkpt>
   <trkpt lat="-3.0791580" lon="37.3636280">
    <ele>5663.7</ele>
    <time>2026-06-23T03:26:19Z</time>
   </trkpt>
   <trkpt lat="-3.0791570" lon="37.3636270">
    <ele>5663.7</ele>
    <time>2026-06-23T03:26:20Z</time>
   </trkpt>
   <trkpt lat="-3.0791560" lon="37.3636270">
    <ele>5663.8</ele>
    <time>2026-06-23T03:26:21Z</time>
   </trkpt>
   <trkpt lat="-3.0791550" lon="37.3636260">
    <ele>5663.8</ele>
    <time>2026-06-23T03:26:22Z</time>
   </trkpt>
   <trkpt lat="-3.0791530" lon="37.3636260">
    <ele>5663.8</ele>
    <time>2026-06-23T03:26:23Z</time>
   </trkpt>
   <trkpt lat="-3.0791520" lon="37.3636270">
    <ele>5663.9</ele>
    <time>2026-06-23T03:26:24Z</time>
   </trkpt>
   <trkpt lat="-3.0791520" lon="37.3636260">
    <ele>5663.9</ele>
    <time>2026-06-23T03:26:25Z</time>
   </trkpt>
   <trkpt lat="-3.0791490" lon="37.3636260">
    <ele>5664.0</ele>
    <time>2026-06-23T03:26:26Z</time>
   </trkpt>
   <trkpt lat="-3.0791480" lon="37.3636270">
    <ele>5664.0</ele>
    <time>2026-06-23T03:26:27Z</time>
   </trkpt>
   <trkpt lat="-3.0791480" lon="37.3636280">
    <ele>5664.1</ele>
    <time>2026-06-23T03:26:28Z</time>
   </trkpt>
   <trkpt lat="-3.0791460" lon="37.3636290">
    <ele>5664.1</ele>
    <time>2026-06-23T03:26:29Z</time>
   </trkpt>
   <trkpt lat="-3.0791450" lon="37.3636310">
    <ele>5664.2</ele>
    <time>2026-06-23T03:26:30Z</time>
   </trkpt>
   <trkpt lat="-3.0791440" lon="37.3636310">
    <ele>5664.2</ele>
    <time>2026-06-23T03:26:31Z</time>
   </trkpt>
   <trkpt lat="-3.0791420" lon="37.3636330">
    <ele>5664.3</ele>
    <time>2026-06-23T03:26:32Z</time>
   </trkpt>
   <trkpt lat="-3.0791410" lon="37.3636320">
    <ele>5664.3</ele>
    <time>2026-06-23T03:26:33Z</time>
   </trkpt>
   <trkpt lat="-3.0791400" lon="37.3636330">
    <ele>5664.3</ele>
    <time>2026-06-23T03:26:34Z</time>
   </trkpt>
   <trkpt lat="-3.0791370" lon="37.3636340">
    <ele>5664.4</ele>
    <time>2026-06-23T03:26:35Z</time>
   </trkpt>
   <trkpt lat="-3.0791380" lon="37.3636360">
    <ele>5664.5</ele>
    <time>2026-06-23T03:26:36Z</time>
   </trkpt>
   <trkpt lat="-3.0791360" lon="37.3636380">
    <ele>5664.6</ele>
    <time>2026-06-23T03:26:37Z</time>
   </trkpt>
   <trkpt lat="-3.0791360" lon="37.3636390">
    <ele>5664.6</ele>
    <time>2026-06-23T03:26:38Z</time>
   </trkpt>
   <trkpt lat="-3.0791350" lon="37.3636400">
    <ele>5664.6</ele>
    <time>2026-06-23T03:26:39Z</time>
   </trkpt>
   <trkpt lat="-3.0791330" lon="37.3636410">
    <ele>5664.7</ele>
    <time>2026-06-23T03:26:40Z</time>
   </trkpt>
   <trkpt lat="-3.0791320" lon="37.3636430">
    <ele>5664.7</ele>
    <time>2026-06-23T03:26:41Z</time>
   </trkpt>
   <trkpt lat="-3.0791310" lon="37.3636430">
    <ele>5664.8</ele>
    <time>2026-06-23T03:26:42Z</time>
   </trkpt>
   <trkpt lat="-3.0791310" lon="37.3636450">
    <ele>5664.8</ele>
    <time>2026-06-23T03:26:43Z</time>
   </trkpt>
   <trkpt lat="-3.0791300" lon="37.3636460">
    <ele>5664.9</ele>
    <time>2026-06-23T03:26:44Z</time>
   </trkpt>
   <trkpt lat="-3.0791280" lon="37.3636460">
    <ele>5664.9</ele>
    <time>2026-06-23T03:26:45Z</time>
   </trkpt>
   <trkpt lat="-3.0791260" lon="37.3636490">
    <ele>5665.0</ele>
    <time>2026-06-23T03:26:46Z</time>
   </trkpt>
   <trkpt lat="-3.0791240" lon="37.3636490">
    <ele>5665.1</ele>
    <time>2026-06-23T03:26:47Z</time>
   </trkpt>
   <trkpt lat="-3.0791230" lon="37.3636510">
    <ele>5665.1</ele>
    <time>2026-06-23T03:26:48Z</time>
   </trkpt>
   <trkpt lat="-3.0791190" lon="37.3636500">
    <ele>5665.2</ele>
    <time>2026-06-23T03:26:49Z</time>
   </trkpt>
   <trkpt lat="-3.0791180" lon="37.3636500">
    <ele>5665.3</ele>
    <time>2026-06-23T03:26:50Z</time>
   </trkpt>
   <trkpt lat="-3.0791170" lon="37.3636500">
    <ele>5665.3</ele>
    <time>2026-06-23T03:26:51Z</time>
   </trkpt>
   <trkpt lat="-3.0791130" lon="37.3636480">
    <ele>5665.4</ele>
    <time>2026-06-23T03:26:52Z</time>
   </trkpt>
   <trkpt lat="-3.0791120" lon="37.3636470">
    <ele>5665.4</ele>
    <time>2026-06-23T03:26:53Z</time>
   </trkpt>
   <trkpt lat="-3.0791100" lon="37.3636450">
    <ele>5665.5</ele>
    <time>2026-06-23T03:26:54Z</time>
   </trkpt>
   <trkpt lat="-3.0791100" lon="37.3636450">
    <ele>5665.5</ele>
    <time>2026-06-23T03:26:55Z</time>
   </trkpt>
   <trkpt lat="-3.0791070" lon="37.3636430">
    <ele>5665.6</ele>
    <time>2026-06-23T03:26:56Z</time>
   </trkpt>
   <trkpt lat="-3.0791040" lon="37.3636410">
    <ele>5665.7</ele>
    <time>2026-06-23T03:26:57Z</time>
   </trkpt>
   <trkpt lat="-3.0791050" lon="37.3636410">
    <ele>5665.7</ele>
    <time>2026-06-23T03:26:58Z</time>
   </trkpt>
   <trkpt lat="-3.0791020" lon="37.3636370">
    <ele>5665.9</ele>
    <time>2026-06-23T03:26:59Z</time>
   </trkpt>
   <trkpt lat="-3.0791020" lon="37.3636370">
    <ele>5665.9</ele>
    <time>2026-06-23T03:27:00Z</time>
   </trkpt>
   <trkpt lat="-3.0791010" lon="37.3636330">
    <ele>5666.0</ele>
    <time>2026-06-23T03:27:01Z</time>
   </trkpt>
   <trkpt lat="-3.0791020" lon="37.3636320">
    <ele>5666.0</ele>
    <time>2026-06-23T03:27:02Z</time>
   </trkpt>
   <trkpt lat="-3.0791020" lon="37.3636290">
    <ele>5666.1</ele>
    <time>2026-06-23T03:27:03Z</time>
   </trkpt>
   <trkpt lat="-3.0791010" lon="37.3636280">
    <ele>5666.1</ele>
    <time>2026-06-23T03:27:04Z</time>
   </trkpt>
   <trkpt lat="-3.0791010" lon="37.3636260">
    <ele>5666.2</ele>
    <time>2026-06-23T03:27:05Z</time>
   </trkpt>
   <trkpt lat="-3.0791000" lon="37.3636260">
    <ele>5666.2</ele>
    <time>2026-06-23T03:27:06Z</time>
   </trkpt>
   <trkpt lat="-3.0791000" lon="37.3636230">
    <ele>5666.3</ele>
    <time>2026-06-23T03:27:07Z</time>
   </trkpt>
   <trkpt lat="-3.0790990" lon="37.3636230">
    <ele>5666.3</ele>
    <time>2026-06-23T03:27:08Z</time>
   </trkpt>
   <trkpt lat="-3.0790960" lon="37.3636200">
    <ele>5666.4</ele>
    <time>2026-06-23T03:27:09Z</time>
   </trkpt>
   <trkpt lat="-3.0790950" lon="37.3636210">
    <ele>5666.4</ele>
    <time>2026-06-23T03:27:10Z</time>
   </trkpt>
   <trkpt lat="-3.0790940" lon="37.3636200">
    <ele>5666.5</ele>
    <time>2026-06-23T03:27:11Z</time>
   </trkpt>
   <trkpt lat="-3.0790920" lon="37.3636180">
    <ele>5666.6</ele>
    <time>2026-06-23T03:27:12Z</time>
   </trkpt>
   <trkpt lat="-3.0790900" lon="37.3636170">
    <ele>5666.6</ele>
    <time>2026-06-23T03:27:13Z</time>
   </trkpt>
   <trkpt lat="-3.0790900" lon="37.3636160">
    <ele>5666.6</ele>
    <time>2026-06-23T03:27:14Z</time>
   </trkpt>
   <trkpt lat="-3.0790870" lon="37.3636150">
    <ele>5666.7</ele>
    <time>2026-06-23T03:27:15Z</time>
   </trkpt>
   <trkpt lat="-3.0790870" lon="37.3636130">
    <ele>5666.8</ele>
    <time>2026-06-23T03:27:16Z</time>
   </trkpt>
   <trkpt lat="-3.0790860" lon="37.3636140">
    <ele>5666.8</ele>
    <time>2026-06-23T03:27:17Z</time>
   </trkpt>
   <trkpt lat="-3.0790860" lon="37.3636150">
    <ele>5666.8</ele>
    <time>2026-06-23T03:27:18Z</time>
   </trkpt>
   <trkpt lat="-3.0790870" lon="37.3636150">
    <ele>5666.9</ele>
    <time>2026-06-23T03:27:19Z</time>
   </trkpt>
   <trkpt lat="-3.0790870" lon="37.3636150">
    <ele>5666.9</ele>
    <time>2026-06-23T03:27:20Z</time>
   </trkpt>
   <trkpt lat="-3.0790870" lon="37.3636150">
    <ele>5666.9</ele>
    <time>2026-06-23T03:27:21Z</time>
   </trkpt>
   <trkpt lat="-3.0790880" lon="37.3636150">
    <ele>5666.9</ele>
    <time>2026-06-23T03:27:22Z</time>
   </trkpt>
   <trkpt lat="-3.0790870" lon="37.3636150">
    <ele>5666.9</ele>
    <time>2026-06-23T03:27:23Z</time>
   </trkpt>
   <trkpt lat="-3.0790850" lon="37.3636130">
    <ele>5667.0</ele>
    <time>2026-06-23T03:27:24Z</time>
   </trkpt>
   <trkpt lat="-3.0790840" lon="37.3636140">
    <ele>5667.0</ele>
    <time>2026-06-23T03:27:25Z</time>
   </trkpt>
   <trkpt lat="-3.0790800" lon="37.3636100">
    <ele>5667.2</ele>
    <time>2026-06-23T03:27:26Z</time>
   </trkpt>
   <trkpt lat="-3.0790800" lon="37.3636120">
    <ele>5667.2</ele>
    <time>2026-06-23T03:27:27Z</time>
   </trkpt>
   <trkpt lat="-3.0790780" lon="37.3636070">
    <ele>5667.4</ele>
    <time>2026-06-23T03:27:28Z</time>
   </trkpt>
   <trkpt lat="-3.0790770" lon="37.3636060">
    <ele>5667.4</ele>
    <time>2026-06-23T03:27:29Z</time>
   </trkpt>
   <trkpt lat="-3.0790780" lon="37.3636060">
    <ele>5667.4</ele>
    <time>2026-06-23T03:27:30Z</time>
   </trkpt>
   <trkpt lat="-3.0790780" lon="37.3636040">
    <ele>5667.5</ele>
    <time>2026-06-23T03:27:31Z</time>
   </trkpt>
   <trkpt lat="-3.0790780" lon="37.3636030">
    <ele>5667.5</ele>
    <time>2026-06-23T03:27:32Z</time>
   </trkpt>
   <trkpt lat="-3.0790770" lon="37.3636000">
    <ele>5667.6</ele>
    <time>2026-06-23T03:27:33Z</time>
   </trkpt>
   <trkpt lat="-3.0790780" lon="37.3635990">
    <ele>5667.6</ele>
    <time>2026-06-23T03:27:34Z</time>
   </trkpt>
   <trkpt lat="-3.0790780" lon="37.3635950">
    <ele>5667.7</ele>
    <time>2026-06-23T03:27:35Z</time>
   </trkpt>
   <trkpt lat="-3.0790780" lon="37.3635920">
    <ele>5667.8</ele>
    <time>2026-06-23T03:27:36Z</time>
   </trkpt>
   <trkpt lat="-3.0790790" lon="37.3635900">
    <ele>5667.9</ele>
    <time>2026-06-23T03:27:37Z</time>
   </trkpt>
   <trkpt lat="-3.0790780" lon="37.3635890">
    <ele>5667.9</ele>
    <time>2026-06-23T03:27:38Z</time>
   </trkpt>
   <trkpt lat="-3.0790770" lon="37.3635870">
    <ele>5668.0</ele>
    <time>2026-06-23T03:27:39Z</time>
   </trkpt>
   <trkpt lat="-3.0790750" lon="37.3635860">
    <ele>5668.0</ele>
    <time>2026-06-23T03:27:40Z</time>
   </trkpt>
   <trkpt lat="-3.0790730" lon="37.3635880">
    <ele>5668.1</ele>
    <time>2026-06-23T03:27:41Z</time>
   </trkpt>
   <trkpt lat="-3.0790710" lon="37.3635890">
    <ele>5668.2</ele>
    <time>2026-06-23T03:27:42Z</time>
   </trkpt>
   <trkpt lat="-3.0790700" lon="37.3635880">
    <ele>5668.2</ele>
    <time>2026-06-23T03:27:43Z</time>
   </trkpt>
   <trkpt lat="-3.0790680" lon="37.3635900">
    <ele>5668.3</ele>
    <time>2026-06-23T03:27:44Z</time>
   </trkpt>
   <trkpt lat="-3.0790640" lon="37.3635890">
    <ele>5668.4</ele>
    <time>2026-06-23T03:27:45Z</time>
   </trkpt>
   <trkpt lat="-3.0790640" lon="37.3635910">
    <ele>5668.4</ele>
    <time>2026-06-23T03:27:46Z</time>
   </trkpt>
   <trkpt lat="-3.0790630" lon="37.3635920">
    <ele>5668.5</ele>
    <time>2026-06-23T03:27:47Z</time>
   </trkpt>
   <trkpt lat="-3.0790620" lon="37.3635930">
    <ele>5668.5</ele>
    <time>2026-06-23T03:27:48Z</time>
   </trkpt>
   <trkpt lat="-3.0790640" lon="37.3635940">
    <ele>5668.6</ele>
    <time>2026-06-23T03:27:49Z</time>
   </trkpt>
   <trkpt lat="-3.0790620" lon="37.3635950">
    <ele>5668.6</ele>
    <time>2026-06-23T03:27:50Z</time>
   </trkpt>
   <trkpt lat="-3.0790620" lon="37.3635940">
    <ele>5668.7</ele>
    <time>2026-06-23T03:27:51Z</time>
   </trkpt>
   <trkpt lat="-3.0790600" lon="37.3635940">
    <ele>5668.7</ele>
    <time>2026-06-23T03:27:52Z</time>
   </trkpt>
   <trkpt lat="-3.0790590" lon="37.3635940">
    <ele>5668.7</ele>
    <time>2026-06-23T03:27:53Z</time>
   </trkpt>
   <trkpt lat="-3.0790570" lon="37.3635940">
    <ele>5668.8</ele>
    <time>2026-06-23T03:27:54Z</time>
   </trkpt>
   <trkpt lat="-3.0790570" lon="37.3635940">
    <ele>5668.8</ele>
    <time>2026-06-23T03:27:55Z</time>
   </trkpt>
   <trkpt lat="-3.0790550" lon="37.3635940">
    <ele>5668.8</ele>
    <time>2026-06-23T03:27:56Z</time>
   </trkpt>
   <trkpt lat="-3.0790540" lon="37.3635950">
    <ele>5668.9</ele>
    <time>2026-06-23T03:27:57Z</time>
   </trkpt>
   <trkpt lat="-3.0790560" lon="37.3635960">
    <ele>5668.9</ele>
    <time>2026-06-23T03:27:58Z</time>
   </trkpt>
   <trkpt lat="-3.0790490" lon="37.3635920">
    <ele>5669.2</ele>
    <time>2026-06-23T03:27:59Z</time>
   </trkpt>
   <trkpt lat="-3.0790480" lon="37.3635940">
    <ele>5669.2</ele>
    <time>2026-06-23T03:28:00Z</time>
   </trkpt>
   <trkpt lat="-3.0790450" lon="37.3635920">
    <ele>5669.3</ele>
    <time>2026-06-23T03:28:01Z</time>
   </trkpt>
   <trkpt lat="-3.0790450" lon="37.3635920">
    <ele>5669.3</ele>
    <time>2026-06-23T03:28:02Z</time>
   </trkpt>
   <trkpt lat="-3.0790410" lon="37.3635900">
    <ele>5669.4</ele>
    <time>2026-06-23T03:28:03Z</time>
   </trkpt>
   <trkpt lat="-3.0790400" lon="37.3635920">
    <ele>5669.5</ele>
    <time>2026-06-23T03:28:04Z</time>
   </trkpt>
   <trkpt lat="-3.0790380" lon="37.3635900">
    <ele>5669.6</ele>
    <time>2026-06-23T03:28:05Z</time>
   </trkpt>
   <trkpt lat="-3.0790380" lon="37.3635910">
    <ele>5669.6</ele>
    <time>2026-06-23T03:28:06Z</time>
   </trkpt>
   <trkpt lat="-3.0790350" lon="37.3635890">
    <ele>5669.7</ele>
    <time>2026-06-23T03:28:07Z</time>
   </trkpt>
   <trkpt lat="-3.0790350" lon="37.3635910">
    <ele>5669.7</ele>
    <time>2026-06-23T03:28:08Z</time>
   </trkpt>
   <trkpt lat="-3.0790330" lon="37.3635910">
    <ele>5669.8</ele>
    <time>2026-06-23T03:28:09Z</time>
   </trkpt>
   <trkpt lat="-3.0790340" lon="37.3635920">
    <ele>5669.8</ele>
    <time>2026-06-23T03:28:10Z</time>
   </trkpt>
   <trkpt lat="-3.0790330" lon="37.3635930">
    <ele>5669.9</ele>
    <time>2026-06-23T03:28:11Z</time>
   </trkpt>
   <trkpt lat="-3.0790310" lon="37.3635930">
    <ele>5669.9</ele>
    <time>2026-06-23T03:28:12Z</time>
   </trkpt>
   <trkpt lat="-3.0790310" lon="37.3635960">
    <ele>5670.0</ele>
    <time>2026-06-23T03:28:13Z</time>
   </trkpt>
   <trkpt lat="-3.0790300" lon="37.3635950">
    <ele>5670.0</ele>
    <time>2026-06-23T03:28:14Z</time>
   </trkpt>
   <trkpt lat="-3.0790290" lon="37.3635990">
    <ele>5670.1</ele>
    <time>2026-06-23T03:28:15Z</time>
   </trkpt>
   <trkpt lat="-3.0790280" lon="37.3636000">
    <ele>5670.2</ele>
    <time>2026-06-23T03:28:16Z</time>
   </trkpt>
   <trkpt lat="-3.0790270" lon="37.3636020">
    <ele>5670.2</ele>
    <time>2026-06-23T03:28:17Z</time>
   </trkpt>
   <trkpt lat="-3.0790260" lon="37.3636040">
    <ele>5670.3</ele>
    <time>2026-06-23T03:28:18Z</time>
   </trkpt>
   <trkpt lat="-3.0790260" lon="37.3636060">
    <ele>5670.3</ele>
    <time>2026-06-23T03:28:19Z</time>
   </trkpt>
   <trkpt lat="-3.0790240" lon="37.3636050">
    <ele>5670.4</ele>
    <time>2026-06-23T03:28:20Z</time>
   </trkpt>
   <trkpt lat="-3.0790220" lon="37.3636070">
    <ele>5670.5</ele>
    <time>2026-06-23T03:28:21Z</time>
   </trkpt>
   <trkpt lat="-3.0790200" lon="37.3636070">
    <ele>5670.5</ele>
    <time>2026-06-23T03:28:22Z</time>
   </trkpt>
   <trkpt lat="-3.0790200" lon="37.3636090">
    <ele>5670.6</ele>
    <time>2026-06-23T03:28:23Z</time>
   </trkpt>
   <trkpt lat="-3.0790170" lon="37.3636080">
    <ele>5670.7</ele>
    <time>2026-06-23T03:28:24Z</time>
   </trkpt>
   <trkpt lat="-3.0790170" lon="37.3636090">
    <ele>5670.7</ele>
    <time>2026-06-23T03:28:25Z</time>
   </trkpt>
   <trkpt lat="-3.0790140" lon="37.3636080">
    <ele>5670.8</ele>
    <time>2026-06-23T03:28:26Z</time>
   </trkpt>
   <trkpt lat="-3.0790140" lon="37.3636070">
    <ele>5670.8</ele>
    <time>2026-06-23T03:28:27Z</time>
   </trkpt>
   <trkpt lat="-3.0790100" lon="37.3636070">
    <ele>5670.9</ele>
    <time>2026-06-23T03:28:28Z</time>
   </trkpt>
   <trkpt lat="-3.0790110" lon="37.3636070">
    <ele>5670.9</ele>
    <time>2026-06-23T03:28:29Z</time>
   </trkpt>
   <trkpt lat="-3.0790100" lon="37.3636050">
    <ele>5671.0</ele>
    <time>2026-06-23T03:28:30Z</time>
   </trkpt>
   <trkpt lat="-3.0790080" lon="37.3636050">
    <ele>5671.0</ele>
    <time>2026-06-23T03:28:31Z</time>
   </trkpt>
   <trkpt lat="-3.0790070" lon="37.3636010">
    <ele>5671.1</ele>
    <time>2026-06-23T03:28:32Z</time>
   </trkpt>
   <trkpt lat="-3.0790070" lon="37.3636010">
    <ele>5671.1</ele>
    <time>2026-06-23T03:28:33Z</time>
   </trkpt>
   <trkpt lat="-3.0790060" lon="37.3635990">
    <ele>5671.2</ele>
    <time>2026-06-23T03:28:34Z</time>
   </trkpt>
   <trkpt lat="-3.0790060" lon="37.3636000">
    <ele>5671.2</ele>
    <time>2026-06-23T03:28:35Z</time>
   </trkpt>
   <trkpt lat="-3.0790050" lon="37.3635960">
    <ele>5671.3</ele>
    <time>2026-06-23T03:28:36Z</time>
   </trkpt>
   <trkpt lat="-3.0790040" lon="37.3635950">
    <ele>5671.4</ele>
    <time>2026-06-23T03:28:37Z</time>
   </trkpt>
   <trkpt lat="-3.0790030" lon="37.3635920">
    <ele>5671.5</ele>
    <time>2026-06-23T03:28:38Z</time>
   </trkpt>
   <trkpt lat="-3.0790010" lon="37.3635900">
    <ele>5671.5</ele>
    <time>2026-06-23T03:28:39Z</time>
   </trkpt>
   <trkpt lat="-3.0789990" lon="37.3635880">
    <ele>5671.6</ele>
    <time>2026-06-23T03:28:40Z</time>
   </trkpt>
   <trkpt lat="-3.0789990" lon="37.3635870">
    <ele>5671.6</ele>
    <time>2026-06-23T03:28:41Z</time>
   </trkpt>
   <trkpt lat="-3.0789970" lon="37.3635840">
    <ele>5671.7</ele>
    <time>2026-06-23T03:28:42Z</time>
   </trkpt>
   <trkpt lat="-3.0789970" lon="37.3635830">
    <ele>5671.8</ele>
    <time>2026-06-23T03:28:43Z</time>
   </trkpt>
   <trkpt lat="-3.0789950" lon="37.3635790">
    <ele>5671.9</ele>
    <time>2026-06-23T03:28:44Z</time>
   </trkpt>
   <trkpt lat="-3.0789940" lon="37.3635780">
    <ele>5671.9</ele>
    <time>2026-06-23T03:28:45Z</time>
   </trkpt>
   <trkpt lat="-3.0789940" lon="37.3635770">
    <ele>5671.9</ele>
    <time>2026-06-23T03:28:46Z</time>
   </trkpt>
   <trkpt lat="-3.0789940" lon="37.3635740">
    <ele>5672.0</ele>
    <time>2026-06-23T03:28:47Z</time>
   </trkpt>
   <trkpt lat="-3.0789930" lon="37.3635740">
    <ele>5672.0</ele>
    <time>2026-06-23T03:28:48Z</time>
   </trkpt>
   <trkpt lat="-3.0789930" lon="37.3635710">
    <ele>5672.1</ele>
    <time>2026-06-23T03:28:49Z</time>
   </trkpt>
   <trkpt lat="-3.0789920" lon="37.3635710">
    <ele>5672.1</ele>
    <time>2026-06-23T03:28:50Z</time>
   </trkpt>
   <trkpt lat="-3.0789920" lon="37.3635670">
    <ele>5672.3</ele>
    <time>2026-06-23T03:28:51Z</time>
   </trkpt>
   <trkpt lat="-3.0789910" lon="37.3635670">
    <ele>5672.3</ele>
    <time>2026-06-23T03:28:52Z</time>
   </trkpt>
   <trkpt lat="-3.0789910" lon="37.3635660">
    <ele>5672.3</ele>
    <time>2026-06-23T03:28:53Z</time>
   </trkpt>
   <trkpt lat="-3.0789900" lon="37.3635640">
    <ele>5672.4</ele>
    <time>2026-06-23T03:28:54Z</time>
   </trkpt>
   <trkpt lat="-3.0789890" lon="37.3635630">
    <ele>5672.4</ele>
    <time>2026-06-23T03:28:55Z</time>
   </trkpt>
   <trkpt lat="-3.0789890" lon="37.3635590">
    <ele>5672.5</ele>
    <time>2026-06-23T03:28:56Z</time>
   </trkpt>
   <trkpt lat="-3.0789880" lon="37.3635580">
    <ele>5672.5</ele>
    <time>2026-06-23T03:28:57Z</time>
   </trkpt>
   <trkpt lat="-3.0789860" lon="37.3635550">
    <ele>5672.6</ele>
    <time>2026-06-23T03:28:58Z</time>
   </trkpt>
   <trkpt lat="-3.0789860" lon="37.3635540">
    <ele>5672.7</ele>
    <time>2026-06-23T03:28:59Z</time>
   </trkpt>
   <trkpt lat="-3.0789850" lon="37.3635550">
    <ele>5672.7</ele>
    <time>2026-06-23T03:29:00Z</time>
   </trkpt>
   <trkpt lat="-3.0789850" lon="37.3635540">
    <ele>5672.7</ele>
    <time>2026-06-23T03:29:01Z</time>
   </trkpt>
   <trkpt lat="-3.0789830" lon="37.3635520">
    <ele>5672.8</ele>
    <time>2026-06-23T03:29:02Z</time>
   </trkpt>
   <trkpt lat="-3.0789820" lon="37.3635510">
    <ele>5672.8</ele>
    <time>2026-06-23T03:29:03Z</time>
   </trkpt>
   <trkpt lat="-3.0789800" lon="37.3635480">
    <ele>5672.9</ele>
    <time>2026-06-23T03:29:04Z</time>
   </trkpt>
   <trkpt lat="-3.0789800" lon="37.3635490">
    <ele>5673.0</ele>
    <time>2026-06-23T03:29:05Z</time>
   </trkpt>
   <trkpt lat="-3.0789770" lon="37.3635460">
    <ele>5673.1</ele>
    <time>2026-06-23T03:29:06Z</time>
   </trkpt>
   <trkpt lat="-3.0789740" lon="37.3635490">
    <ele>5673.2</ele>
    <time>2026-06-23T03:29:07Z</time>
   </trkpt>
   <trkpt lat="-3.0789720" lon="37.3635480">
    <ele>5673.2</ele>
    <time>2026-06-23T03:29:08Z</time>
   </trkpt>
   <trkpt lat="-3.0789700" lon="37.3635470">
    <ele>5673.3</ele>
    <time>2026-06-23T03:29:09Z</time>
   </trkpt>
   <trkpt lat="-3.0789700" lon="37.3635500">
    <ele>5673.4</ele>
    <time>2026-06-23T03:29:10Z</time>
   </trkpt>
   <trkpt lat="-3.0789670" lon="37.3635490">
    <ele>5673.5</ele>
    <time>2026-06-23T03:29:11Z</time>
   </trkpt>
   <trkpt lat="-3.0789670" lon="37.3635510">
    <ele>5673.5</ele>
    <time>2026-06-23T03:29:12Z</time>
   </trkpt>
   <trkpt lat="-3.0789650" lon="37.3635510">
    <ele>5673.6</ele>
    <time>2026-06-23T03:29:13Z</time>
   </trkpt>
   <trkpt lat="-3.0789640" lon="37.3635520">
    <ele>5673.6</ele>
    <time>2026-06-23T03:29:14Z</time>
   </trkpt>
   <trkpt lat="-3.0789630" lon="37.3635530">
    <ele>5673.6</ele>
    <time>2026-06-23T03:29:15Z</time>
   </trkpt>
   <trkpt lat="-3.0789590" lon="37.3635540">
    <ele>5673.7</ele>
    <time>2026-06-23T03:29:16Z</time>
   </trkpt>
   <trkpt lat="-3.0789590" lon="37.3635560">
    <ele>5673.8</ele>
    <time>2026-06-23T03:29:17Z</time>
   </trkpt>
   <trkpt lat="-3.0789560" lon="37.3635560">
    <ele>5673.9</ele>
    <time>2026-06-23T03:29:18Z</time>
   </trkpt>
   <trkpt lat="-3.0789540" lon="37.3635560">
    <ele>5673.9</ele>
    <time>2026-06-23T03:29:19Z</time>
   </trkpt>
   <trkpt lat="-3.0789520" lon="37.3635560">
    <ele>5674.0</ele>
    <time>2026-06-23T03:29:20Z</time>
   </trkpt>
   <trkpt lat="-3.0789500" lon="37.3635550">
    <ele>5674.0</ele>
    <time>2026-06-23T03:29:21Z</time>
   </trkpt>
   <trkpt lat="-3.0789490" lon="37.3635540">
    <ele>5674.1</ele>
    <time>2026-06-23T03:29:22Z</time>
   </trkpt>
   <trkpt lat="-3.0789480" lon="37.3635510">
    <ele>5674.2</ele>
    <time>2026-06-23T03:29:23Z</time>
   </trkpt>
   <trkpt lat="-3.0789490" lon="37.3635520">
    <ele>5674.2</ele>
    <time>2026-06-23T03:29:24Z</time>
   </trkpt>
   <trkpt lat="-3.0789450" lon="37.3635490">
    <ele>5674.3</ele>
    <time>2026-06-23T03:29:25Z</time>
   </trkpt>
   <trkpt lat="-3.0789440" lon="37.3635500">
    <ele>5674.4</ele>
    <time>2026-06-23T03:29:26Z</time>
   </trkpt>
   <trkpt lat="-3.0789440" lon="37.3635500">
    <ele>5674.4</ele>
    <time>2026-06-23T03:29:27Z</time>
   </trkpt>
   <trkpt lat="-3.0789430" lon="37.3635490">
    <ele>5674.4</ele>
    <time>2026-06-23T03:29:28Z</time>
   </trkpt>
   <trkpt lat="-3.0789420" lon="37.3635500">
    <ele>5674.4</ele>
    <time>2026-06-23T03:29:29Z</time>
   </trkpt>
   <trkpt lat="-3.0789400" lon="37.3635470">
    <ele>5674.5</ele>
    <time>2026-06-23T03:29:30Z</time>
   </trkpt>
   <trkpt lat="-3.0789370" lon="37.3635480">
    <ele>5674.6</ele>
    <time>2026-06-23T03:29:31Z</time>
   </trkpt>
   <trkpt lat="-3.0789380" lon="37.3635470">
    <ele>5674.7</ele>
    <time>2026-06-23T03:29:32Z</time>
   </trkpt>
   <trkpt lat="-3.0789340" lon="37.3635500">
    <ele>5674.8</ele>
    <time>2026-06-23T03:29:33Z</time>
   </trkpt>
   <trkpt lat="-3.0789340" lon="37.3635510">
    <ele>5674.8</ele>
    <time>2026-06-23T03:29:34Z</time>
   </trkpt>
   <trkpt lat="-3.0789320" lon="37.3635480">
    <ele>5674.9</ele>
    <time>2026-06-23T03:29:35Z</time>
   </trkpt>
   <trkpt lat="-3.0789320" lon="37.3635500">
    <ele>5675.0</ele>
    <time>2026-06-23T03:29:36Z</time>
   </trkpt>
   <trkpt lat="-3.0789290" lon="37.3635470">
    <ele>5675.1</ele>
    <time>2026-06-23T03:29:37Z</time>
   </trkpt>
   <trkpt lat="-3.0789290" lon="37.3635490">
    <ele>5675.1</ele>
    <time>2026-06-23T03:29:38Z</time>
   </trkpt>
   <trkpt lat="-3.0789260" lon="37.3635490">
    <ele>5675.2</ele>
    <time>2026-06-23T03:29:39Z</time>
   </trkpt>
   <trkpt lat="-3.0789250" lon="37.3635510">
    <ele>5675.3</ele>
    <time>2026-06-23T03:29:40Z</time>
   </trkpt>
   <trkpt lat="-3.0789220" lon="37.3635510">
    <ele>5675.3</ele>
    <time>2026-06-23T03:29:41Z</time>
   </trkpt>
   <trkpt lat="-3.0789210" lon="37.3635520">
    <ele>5675.4</ele>
    <time>2026-06-23T03:29:42Z</time>
   </trkpt>
   <trkpt lat="-3.0789180" lon="37.3635530">
    <ele>5675.5</ele>
    <time>2026-06-23T03:29:43Z</time>
   </trkpt>
   <trkpt lat="-3.0789180" lon="37.3635530">
    <ele>5675.5</ele>
    <time>2026-06-23T03:29:44Z</time>
   </trkpt>
   <trkpt lat="-3.0789190" lon="37.3635530">
    <ele>5675.5</ele>
    <time>2026-06-23T03:29:45Z</time>
   </trkpt>
   <trkpt lat="-3.0789190" lon="37.3635540">
    <ele>5675.5</ele>
    <time>2026-06-23T03:29:46Z</time>
   </trkpt>
   <trkpt lat="-3.0789180" lon="37.3635560">
    <ele>5675.6</ele>
    <time>2026-06-23T03:29:47Z</time>
   </trkpt>
   <trkpt lat="-3.0789170" lon="37.3635580">
    <ele>5675.6</ele>
    <time>2026-06-23T03:29:48Z</time>
   </trkpt>
   <trkpt lat="-3.0789170" lon="37.3635590">
    <ele>5675.7</ele>
    <time>2026-06-23T03:29:49Z</time>
   </trkpt>
   <trkpt lat="-3.0789140" lon="37.3635600">
    <ele>5675.7</ele>
    <time>2026-06-23T03:29:50Z</time>
   </trkpt>
   <trkpt lat="-3.0789130" lon="37.3635610">
    <ele>5675.8</ele>
    <time>2026-06-23T03:29:51Z</time>
   </trkpt>
   <trkpt lat="-3.0789120" lon="37.3635610">
    <ele>5675.8</ele>
    <time>2026-06-23T03:29:52Z</time>
   </trkpt>
   <trkpt lat="-3.0789120" lon="37.3635630">
    <ele>5675.9</ele>
    <time>2026-06-23T03:29:53Z</time>
   </trkpt>
   <trkpt lat="-3.0789110" lon="37.3635630">
    <ele>5675.9</ele>
    <time>2026-06-23T03:29:54Z</time>
   </trkpt>
   <trkpt lat="-3.0789100" lon="37.3635640">
    <ele>5675.9</ele>
    <time>2026-06-23T03:29:55Z</time>
   </trkpt>
   <trkpt lat="-3.0789100" lon="37.3635660">
    <ele>5676.0</ele>
    <time>2026-06-23T03:29:56Z</time>
   </trkpt>
   <trkpt lat="-3.0789080" lon="37.3635660">
    <ele>5676.0</ele>
    <time>2026-06-23T03:29:57Z</time>
   </trkpt>
   <trkpt lat="-3.0789080" lon="37.3635680">
    <ele>5676.1</ele>
    <time>2026-06-23T03:29:58Z</time>
   </trkpt>
   <trkpt lat="-3.0789090" lon="37.3635680">
    <ele>5676.1</ele>
    <time>2026-06-23T03:29:59Z</time>
   </trkpt>
   <trkpt lat="-3.0789070" lon="37.3635700">
    <ele>5676.2</ele>
    <time>2026-06-23T03:30:00Z</time>
   </trkpt>
   <trkpt lat="-3.0789070" lon="37.3635700">
    <ele>5676.2</ele>
    <time>2026-06-23T03:30:01Z</time>
   </trkpt>
   <trkpt lat="-3.0789060" lon="37.3635710">
    <ele>5676.2</ele>
    <time>2026-06-23T03:30:02Z</time>
   </trkpt>
   <trkpt lat="-3.0789070" lon="37.3635730">
    <ele>5676.3</ele>
    <time>2026-06-23T03:30:03Z</time>
   </trkpt>
   <trkpt lat="-3.0789050" lon="37.3635740">
    <ele>5676.3</ele>
    <time>2026-06-23T03:30:04Z</time>
   </trkpt>
   <trkpt lat="-3.0789070" lon="37.3635750">
    <ele>5676.4</ele>
    <time>2026-06-23T03:30:05Z</time>
   </trkpt>
   <trkpt lat="-3.0789060" lon="37.3635760">
    <ele>5676.4</ele>
    <time>2026-06-23T03:30:06Z</time>
   </trkpt>
   <trkpt lat="-3.0789050" lon="37.3635770">
    <ele>5676.5</ele>
    <time>2026-06-23T03:30:07Z</time>
   </trkpt>
   <trkpt lat="-3.0789070" lon="37.3635780">
    <ele>5676.5</ele>
    <time>2026-06-23T03:30:08Z</time>
   </trkpt>
   <trkpt lat="-3.0789040" lon="37.3635800">
    <ele>5676.6</ele>
    <time>2026-06-23T03:30:09Z</time>
   </trkpt>
   <trkpt lat="-3.0789050" lon="37.3635820">
    <ele>5676.7</ele>
    <time>2026-06-23T03:30:10Z</time>
   </trkpt>
   <trkpt lat="-3.0789050" lon="37.3635840">
    <ele>5676.7</ele>
    <time>2026-06-23T03:30:11Z</time>
   </trkpt>
   <trkpt lat="-3.0789050" lon="37.3635850">
    <ele>5676.7</ele>
    <time>2026-06-23T03:30:12Z</time>
   </trkpt>
   <trkpt lat="-3.0789030" lon="37.3635860">
    <ele>5676.8</ele>
    <time>2026-06-23T03:30:13Z</time>
   </trkpt>
   <trkpt lat="-3.0789040" lon="37.3635880">
    <ele>5676.9</ele>
    <time>2026-06-23T03:30:14Z</time>
   </trkpt>
   <trkpt lat="-3.0789030" lon="37.3635900">
    <ele>5676.9</ele>
    <time>2026-06-23T03:30:15Z</time>
   </trkpt>
   <trkpt lat="-3.0789030" lon="37.3635920">
    <ele>5677.0</ele>
    <time>2026-06-23T03:30:16Z</time>
   </trkpt>
   <trkpt lat="-3.0789010" lon="37.3635930">
    <ele>5677.0</ele>
    <time>2026-06-23T03:30:17Z</time>
   </trkpt>
   <trkpt lat="-3.0789000" lon="37.3635940">
    <ele>5677.1</ele>
    <time>2026-06-23T03:30:18Z</time>
   </trkpt>
   <trkpt lat="-3.0788970" lon="37.3635940">
    <ele>5677.1</ele>
    <time>2026-06-23T03:30:19Z</time>
   </trkpt>
   <trkpt lat="-3.0788950" lon="37.3635950">
    <ele>5677.2</ele>
    <time>2026-06-23T03:30:20Z</time>
   </trkpt>
   <trkpt lat="-3.0788940" lon="37.3635950">
    <ele>5677.2</ele>
    <time>2026-06-23T03:30:21Z</time>
   </trkpt>
   <trkpt lat="-3.0788930" lon="37.3635960">
    <ele>5677.3</ele>
    <time>2026-06-23T03:30:22Z</time>
   </trkpt>
   <trkpt lat="-3.0788920" lon="37.3635950">
    <ele>5677.3</ele>
    <time>2026-06-23T03:30:23Z</time>
   </trkpt>
   <trkpt lat="-3.0788930" lon="37.3635970">
    <ele>5677.4</ele>
    <time>2026-06-23T03:30:24Z</time>
   </trkpt>
   <trkpt lat="-3.0788910" lon="37.3635960">
    <ele>5677.4</ele>
    <time>2026-06-23T03:30:25Z</time>
   </trkpt>
   <trkpt lat="-3.0788910" lon="37.3635960">
    <ele>5677.4</ele>
    <time>2026-06-23T03:30:26Z</time>
   </trkpt>
   <trkpt lat="-3.0788900" lon="37.3635950">
    <ele>5677.4</ele>
    <time>2026-06-23T03:30:27Z</time>
   </trkpt>
   <trkpt lat="-3.0788860" lon="37.3635930">
    <ele>5677.6</ele>
    <time>2026-06-23T03:30:28Z</time>
   </trkpt>
   <trkpt lat="-3.0788850" lon="37.3635940">
    <ele>5677.6</ele>
    <time>2026-06-23T03:30:29Z</time>
   </trkpt>
   <trkpt lat="-3.0788820" lon="37.3635930">
    <ele>5677.7</ele>
    <time>2026-06-23T03:30:30Z</time>
   </trkpt>
   <trkpt lat="-3.0788800" lon="37.3635930">
    <ele>5677.7</ele>
    <time>2026-06-23T03:30:31Z</time>
   </trkpt>
   <trkpt lat="-3.0788790" lon="37.3635930">
    <ele>5677.8</ele>
    <time>2026-06-23T03:30:32Z</time>
   </trkpt>
   <trkpt lat="-3.0788770" lon="37.3635910">
    <ele>5677.8</ele>
    <time>2026-06-23T03:30:33Z</time>
   </trkpt>
   <trkpt lat="-3.0788740" lon="37.3635910">
    <ele>5677.9</ele>
    <time>2026-06-23T03:30:34Z</time>
   </trkpt>
   <trkpt lat="-3.0788740" lon="37.3635920">
    <ele>5677.9</ele>
    <time>2026-06-23T03:30:35Z</time>
   </trkpt>
   <trkpt lat="-3.0788730" lon="37.3635910">
    <ele>5678.0</ele>
    <time>2026-06-23T03:30:36Z</time>
   </trkpt>
   <trkpt lat="-3.0788710" lon="37.3635930">
    <ele>5678.0</ele>
    <time>2026-06-23T03:30:37Z</time>
   </trkpt>
   <trkpt lat="-3.0788700" lon="37.3635930">
    <ele>5678.1</ele>
    <time>2026-06-23T03:30:38Z</time>
   </trkpt>
   <trkpt lat="-3.0788700" lon="37.3635940">
    <ele>5678.1</ele>
    <time>2026-06-23T03:30:39Z</time>
   </trkpt>
   <trkpt lat="-3.0788690" lon="37.3635940">
    <ele>5678.1</ele>
    <time>2026-06-23T03:30:40Z</time>
   </trkpt>
   <trkpt lat="-3.0788670" lon="37.3635930">
    <ele>5678.2</ele>
    <time>2026-06-23T03:30:41Z</time>
   </trkpt>
   <trkpt lat="-3.0788640" lon="37.3635910">
    <ele>5678.3</ele>
    <time>2026-06-23T03:30:42Z</time>
   </trkpt>
   <trkpt lat="-3.0788620" lon="37.3635900">
    <ele>5678.3</ele>
    <time>2026-06-23T03:30:43Z</time>
   </trkpt>
   <trkpt lat="-3.0788600" lon="37.3635890">
    <ele>5678.4</ele>
    <time>2026-06-23T03:30:44Z</time>
   </trkpt>
   <trkpt lat="-3.0788580" lon="37.3635890">
    <ele>5678.4</ele>
    <time>2026-06-23T03:30:45Z</time>
   </trkpt>
   <trkpt lat="-3.0788560" lon="37.3635850">
    <ele>5678.5</ele>
    <time>2026-06-23T03:30:46Z</time>
   </trkpt>
   <trkpt lat="-3.0788560" lon="37.3635810">
    <ele>5678.6</ele>
    <time>2026-06-23T03:30:47Z</time>
   </trkpt>
   <trkpt lat="-3.0788570" lon="37.3635820">
    <ele>5678.7</ele>
    <time>2026-06-23T03:30:48Z</time>
   </trkpt>
   <trkpt lat="-3.0788500" lon="37.3635860">
    <ele>5678.9</ele>
    <time>2026-06-23T03:30:49Z</time>
   </trkpt>
   <trkpt lat="-3.0788460" lon="37.3635880">
    <ele>5679.0</ele>
    <time>2026-06-23T03:30:50Z</time>
   </trkpt>
   <trkpt lat="-3.0788530" lon="37.3635880">
    <ele>5679.2</ele>
    <time>2026-06-23T03:30:51Z</time>
   </trkpt>
   <trkpt lat="-3.0788520" lon="37.3635890">
    <ele>5679.2</ele>
    <time>2026-06-23T03:30:52Z</time>
   </trkpt>
   <trkpt lat="-3.0788550" lon="37.3635880">
    <ele>5679.3</ele>
    <time>2026-06-23T03:30:53Z</time>
   </trkpt>
   <trkpt lat="-3.0788550" lon="37.3635880">
    <ele>5679.3</ele>
    <time>2026-06-23T03:30:54Z</time>
   </trkpt>
   <trkpt lat="-3.0788560" lon="37.3635880">
    <ele>5679.3</ele>
    <time>2026-06-23T03:30:55Z</time>
   </trkpt>
   <trkpt lat="-3.0788570" lon="37.3635880">
    <ele>5679.3</ele>
    <time>2026-06-23T03:30:56Z</time>
   </trkpt>
   <trkpt lat="-3.0788570" lon="37.3635880">
    <ele>5679.3</ele>
    <time>2026-06-23T03:30:57Z</time>
   </trkpt>
   <trkpt lat="-3.0788590" lon="37.3635890">
    <ele>5679.4</ele>
    <time>2026-06-23T03:30:58Z</time>
   </trkpt>
   <trkpt lat="-3.0788590" lon="37.3635900">
    <ele>5679.4</ele>
    <time>2026-06-23T03:30:59Z</time>
   </trkpt>
   <trkpt lat="-3.0788600" lon="37.3635900">
    <ele>5679.4</ele>
    <time>2026-06-23T03:31:00Z</time>
   </trkpt>
   <trkpt lat="-3.0788610" lon="37.3635900">
    <ele>5679.5</ele>
    <time>2026-06-23T03:31:01Z</time>
   </trkpt>
   <trkpt lat="-3.0788620" lon="37.3635900">
    <ele>5679.5</ele>
    <time>2026-06-23T03:31:02Z</time>
   </trkpt>
   <trkpt lat="-3.0788630" lon="37.3635900">
    <ele>5679.5</ele>
    <time>2026-06-23T03:31:03Z</time>
   </trkpt>
   <trkpt lat="-3.0788640" lon="37.3635900">
    <ele>5679.5</ele>
    <time>2026-06-23T03:31:04Z</time>
   </trkpt>
   <trkpt lat="-3.0788620" lon="37.3635920">
    <ele>5679.6</ele>
    <time>2026-06-23T03:31:05Z</time>
   </trkpt>
   <trkpt lat="-3.0788570" lon="37.3635920">
    <ele>5679.7</ele>
    <time>2026-06-23T03:31:06Z</time>
   </trkpt>
   <trkpt lat="-3.0788570" lon="37.3635890">
    <ele>5679.8</ele>
    <time>2026-06-23T03:31:07Z</time>
   </trkpt>
   <trkpt lat="-3.0788540" lon="37.3635860">
    <ele>5679.9</ele>
    <time>2026-06-23T03:31:08Z</time>
   </trkpt>
   <trkpt lat="-3.0788510" lon="37.3635800">
    <ele>5680.1</ele>
    <time>2026-06-23T03:31:09Z</time>
   </trkpt>
   <trkpt lat="-3.0788530" lon="37.3635780">
    <ele>5680.2</ele>
    <time>2026-06-23T03:31:10Z</time>
   </trkpt>
   <trkpt lat="-3.0788510" lon="37.3635780">
    <ele>5680.2</ele>
    <time>2026-06-23T03:31:11Z</time>
   </trkpt>
   <trkpt lat="-3.0788510" lon="37.3635780">
    <ele>5680.2</ele>
    <time>2026-06-23T03:31:12Z</time>
   </trkpt>
   <trkpt lat="-3.0788470" lon="37.3635780">
    <ele>5680.3</ele>
    <time>2026-06-23T03:31:13Z</time>
   </trkpt>
   <trkpt lat="-3.0788450" lon="37.3635770">
    <ele>5680.4</ele>
    <time>2026-06-23T03:31:14Z</time>
   </trkpt>
   <trkpt lat="-3.0788450" lon="37.3635750">
    <ele>5680.4</ele>
    <time>2026-06-23T03:31:15Z</time>
   </trkpt>
   <trkpt lat="-3.0788430" lon="37.3635730">
    <ele>5680.5</ele>
    <time>2026-06-23T03:31:16Z</time>
   </trkpt>
   <trkpt lat="-3.0788420" lon="37.3635690">
    <ele>5680.6</ele>
    <time>2026-06-23T03:31:17Z</time>
   </trkpt>
   <trkpt lat="-3.0788410" lon="37.3635680">
    <ele>5680.6</ele>
    <time>2026-06-23T03:31:18Z</time>
   </trkpt>
   <trkpt lat="-3.0788410" lon="37.3635670">
    <ele>5680.7</ele>
    <time>2026-06-23T03:31:19Z</time>
   </trkpt>
   <trkpt lat="-3.0788400" lon="37.3635670">
    <ele>5680.7</ele>
    <time>2026-06-23T03:31:20Z</time>
   </trkpt>
   <trkpt lat="-3.0788400" lon="37.3635680">
    <ele>5680.7</ele>
    <time>2026-06-23T03:31:21Z</time>
   </trkpt>
   <trkpt lat="-3.0788380" lon="37.3635660">
    <ele>5680.8</ele>
    <time>2026-06-23T03:31:22Z</time>
   </trkpt>
   <trkpt lat="-3.0788360" lon="37.3635630">
    <ele>5680.9</ele>
    <time>2026-06-23T03:31:23Z</time>
   </trkpt>
   <trkpt lat="-3.0788330" lon="37.3635610">
    <ele>5681.0</ele>
    <time>2026-06-23T03:31:24Z</time>
   </trkpt>
   <trkpt lat="-3.0788300" lon="37.3635570">
    <ele>5681.1</ele>
    <time>2026-06-23T03:31:25Z</time>
   </trkpt>
   <trkpt lat="-3.0788270" lon="37.3635550">
    <ele>5681.2</ele>
    <time>2026-06-23T03:31:26Z</time>
   </trkpt>
   <trkpt lat="-3.0788270" lon="37.3635540">
    <ele>5681.2</ele>
    <time>2026-06-23T03:31:27Z</time>
   </trkpt>
   <trkpt lat="-3.0788230" lon="37.3635530">
    <ele>5681.3</ele>
    <time>2026-06-23T03:31:28Z</time>
   </trkpt>
   <trkpt lat="-3.0788200" lon="37.3635500">
    <ele>5681.4</ele>
    <time>2026-06-23T03:31:29Z</time>
   </trkpt>
   <trkpt lat="-3.0788210" lon="37.3635450">
    <ele>5681.5</ele>
    <time>2026-06-23T03:31:30Z</time>
   </trkpt>
   <trkpt lat="-3.0788190" lon="37.3635460">
    <ele>5681.6</ele>
    <time>2026-06-23T03:31:31Z</time>
   </trkpt>
   <trkpt lat="-3.0788200" lon="37.3635450">
    <ele>5681.6</ele>
    <time>2026-06-23T03:31:32Z</time>
   </trkpt>
   <trkpt lat="-3.0788190" lon="37.3635430">
    <ele>5681.7</ele>
    <time>2026-06-23T03:31:33Z</time>
   </trkpt>
   <trkpt lat="-3.0788180" lon="37.3635450">
    <ele>5681.7</ele>
    <time>2026-06-23T03:31:34Z</time>
   </trkpt>
   <trkpt lat="-3.0788170" lon="37.3635470">
    <ele>5681.8</ele>
    <time>2026-06-23T03:31:35Z</time>
   </trkpt>
   <trkpt lat="-3.0788150" lon="37.3635410">
    <ele>5681.9</ele>
    <time>2026-06-23T03:31:36Z</time>
   </trkpt>
   <trkpt lat="-3.0788040" lon="37.3635280">
    <ele>5682.4</ele>
    <time>2026-06-23T03:31:37Z</time>
   </trkpt>
   <trkpt lat="-3.0788080" lon="37.3635320">
    <ele>5682.5</ele>
    <time>2026-06-23T03:31:38Z</time>
   </trkpt>
   <trkpt lat="-3.0788090" lon="37.3635320">
    <ele>5682.5</ele>
    <time>2026-06-23T03:31:39Z</time>
   </trkpt>
   <trkpt lat="-3.0788090" lon="37.3635290">
    <ele>5682.6</ele>
    <time>2026-06-23T03:31:40Z</time>
   </trkpt>
   <trkpt lat="-3.0788090" lon="37.3635280">
    <ele>5682.6</ele>
    <time>2026-06-23T03:31:41Z</time>
   </trkpt>
   <trkpt lat="-3.0788110" lon="37.3635280">
    <ele>5682.7</ele>
    <time>2026-06-23T03:31:42Z</time>
   </trkpt>
   <trkpt lat="-3.0788100" lon="37.3635240">
    <ele>5682.8</ele>
    <time>2026-06-23T03:31:43Z</time>
   </trkpt>
   <trkpt lat="-3.0788080" lon="37.3635200">
    <ele>5682.9</ele>
    <time>2026-06-23T03:31:44Z</time>
   </trkpt>
   <trkpt lat="-3.0788120" lon="37.3635190">
    <ele>5683.0</ele>
    <time>2026-06-23T03:31:45Z</time>
   </trkpt>
   <trkpt lat="-3.0788050" lon="37.3635160">
    <ele>5683.2</ele>
    <time>2026-06-23T03:31:46Z</time>
   </trkpt>
   <trkpt lat="-3.0788080" lon="37.3635160">
    <ele>5683.2</ele>
    <time>2026-06-23T03:31:47Z</time>
   </trkpt>
   <trkpt lat="-3.0788150" lon="37.3635140">
    <ele>5683.4</ele>
    <time>2026-06-23T03:31:48Z</time>
   </trkpt>
   <trkpt lat="-3.0788090" lon="37.3635100">
    <ele>5683.6</ele>
    <time>2026-06-23T03:31:49Z</time>
   </trkpt>
   <trkpt lat="-3.0788120" lon="37.3635090">
    <ele>5683.7</ele>
    <time>2026-06-23T03:31:50Z</time>
   </trkpt>
   <trkpt lat="-3.0788130" lon="37.3635070">
    <ele>5683.7</ele>
    <time>2026-06-23T03:31:51Z</time>
   </trkpt>
   <trkpt lat="-3.0788140" lon="37.3635060">
    <ele>5683.8</ele>
    <time>2026-06-23T03:31:52Z</time>
   </trkpt>
   <trkpt lat="-3.0788140" lon="37.3635070">
    <ele>5683.8</ele>
    <time>2026-06-23T03:31:53Z</time>
   </trkpt>
   <trkpt lat="-3.0788130" lon="37.3635050">
    <ele>5683.8</ele>
    <time>2026-06-23T03:31:55Z</time>
   </trkpt>
   <trkpt lat="-3.0788140" lon="37.3635050">
    <ele>5683.9</ele>
    <time>2026-06-23T03:31:56Z</time>
   </trkpt>
   <trkpt lat="-3.0788110" lon="37.3635020">
    <ele>5684.0</ele>
    <time>2026-06-23T03:31:57Z</time>
   </trkpt>
   <trkpt lat="-3.0788140" lon="37.3635000">
    <ele>5684.1</ele>
    <time>2026-06-23T03:31:58Z</time>
   </trkpt>
   <trkpt lat="-3.0788150" lon="37.3635000">
    <ele>5684.1</ele>
    <time>2026-06-23T03:31:59Z</time>
   </trkpt>
   <trkpt lat="-3.0788130" lon="37.3634990">
    <ele>5684.1</ele>
    <time>2026-06-23T03:32:00Z</time>
   </trkpt>
   <trkpt lat="-3.0788120" lon="37.3634950">
    <ele>5684.2</ele>
    <time>2026-06-23T03:32:01Z</time>
   </trkpt>
   <trkpt lat="-3.0788130" lon="37.3634940">
    <ele>5684.3</ele>
    <time>2026-06-23T03:32:02Z</time>
   </trkpt>
   <trkpt lat="-3.0788120" lon="37.3634920">
    <ele>5684.3</ele>
    <time>2026-06-23T03:32:03Z</time>
   </trkpt>
   <trkpt lat="-3.0788120" lon="37.3634940">
    <ele>5684.4</ele>
    <time>2026-06-23T03:32:04Z</time>
   </trkpt>
   <trkpt lat="-3.0788100" lon="37.3634920">
    <ele>5684.4</ele>
    <time>2026-06-23T03:32:05Z</time>
   </trkpt>
   <trkpt lat="-3.0788110" lon="37.3634910">
    <ele>5684.5</ele>
    <time>2026-06-23T03:32:06Z</time>
   </trkpt>
   <trkpt lat="-3.0788100" lon="37.3634880">
    <ele>5684.6</ele>
    <time>2026-06-23T03:32:07Z</time>
   </trkpt>
   <trkpt lat="-3.0788120" lon="37.3634860">
    <ele>5684.6</ele>
    <time>2026-06-23T03:32:08Z</time>
   </trkpt>
   <trkpt lat="-3.0788110" lon="37.3634850">
    <ele>5684.7</ele>
    <time>2026-06-23T03:32:09Z</time>
   </trkpt>
   <trkpt lat="-3.0788130" lon="37.3634820">
    <ele>5684.8</ele>
    <time>2026-06-23T03:32:10Z</time>
   </trkpt>
   <trkpt lat="-3.0788110" lon="37.3634790">
    <ele>5684.8</ele>
    <time>2026-06-23T03:32:11Z</time>
   </trkpt>
   <trkpt lat="-3.0788110" lon="37.3634750">
    <ele>5684.9</ele>
    <time>2026-06-23T03:32:12Z</time>
   </trkpt>
   <trkpt lat="-3.0788120" lon="37.3634730">
    <ele>5685.0</ele>
    <time>2026-06-23T03:32:13Z</time>
   </trkpt>
   <trkpt lat="-3.0788130" lon="37.3634710">
    <ele>5685.0</ele>
    <time>2026-06-23T03:32:14Z</time>
   </trkpt>
   <trkpt lat="-3.0788130" lon="37.3634700">
    <ele>5685.1</ele>
    <time>2026-06-23T03:32:15Z</time>
   </trkpt>
   <trkpt lat="-3.0788140" lon="37.3634700">
    <ele>5685.1</ele>
    <time>2026-06-23T03:32:16Z</time>
   </trkpt>
   <trkpt lat="-3.0788140" lon="37.3634680">
    <ele>5685.1</ele>
    <time>2026-06-23T03:32:17Z</time>
   </trkpt>
   <trkpt lat="-3.0788160" lon="37.3634660">
    <ele>5685.2</ele>
    <time>2026-06-23T03:32:18Z</time>
   </trkpt>
   <trkpt lat="-3.0788150" lon="37.3634650">
    <ele>5685.2</ele>
    <time>2026-06-23T03:32:19Z</time>
   </trkpt>
   <trkpt lat="-3.0788150" lon="37.3634650">
    <ele>5685.2</ele>
    <time>2026-06-23T03:32:20Z</time>
   </trkpt>
   <trkpt lat="-3.0788160" lon="37.3634630">
    <ele>5685.3</ele>
    <time>2026-06-23T03:32:21Z</time>
   </trkpt>
   <trkpt lat="-3.0788160" lon="37.3634600">
    <ele>5685.4</ele>
    <time>2026-06-23T03:32:22Z</time>
   </trkpt>
   <trkpt lat="-3.0788190" lon="37.3634600">
    <ele>5685.5</ele>
    <time>2026-06-23T03:32:23Z</time>
   </trkpt>
   <trkpt lat="-3.0788180" lon="37.3634570">
    <ele>5685.5</ele>
    <time>2026-06-23T03:32:24Z</time>
   </trkpt>
   <trkpt lat="-3.0788210" lon="37.3634570">
    <ele>5685.6</ele>
    <time>2026-06-23T03:32:25Z</time>
   </trkpt>
   <trkpt lat="-3.0788200" lon="37.3634550">
    <ele>5685.7</ele>
    <time>2026-06-23T03:32:26Z</time>
   </trkpt>
   <trkpt lat="-3.0788200" lon="37.3634540">
    <ele>5685.7</ele>
    <time>2026-06-23T03:32:27Z</time>
   </trkpt>
   <trkpt lat="-3.0788210" lon="37.3634530">
    <ele>5685.7</ele>
    <time>2026-06-23T03:32:28Z</time>
   </trkpt>
   <trkpt lat="-3.0788210" lon="37.3634490">
    <ele>5685.8</ele>
    <time>2026-06-23T03:32:29Z</time>
   </trkpt>
   <trkpt lat="-3.0788230" lon="37.3634490">
    <ele>5685.9</ele>
    <time>2026-06-23T03:32:30Z</time>
   </trkpt>
   <trkpt lat="-3.0788230" lon="37.3634460">
    <ele>5685.9</ele>
    <time>2026-06-23T03:32:31Z</time>
   </trkpt>
   <trkpt lat="-3.0788240" lon="37.3634450">
    <ele>5686.0</ele>
    <time>2026-06-23T03:32:32Z</time>
   </trkpt>
   <trkpt lat="-3.0788230" lon="37.3634440">
    <ele>5686.0</ele>
    <time>2026-06-23T03:32:33Z</time>
   </trkpt>
   <trkpt lat="-3.0788240" lon="37.3634420">
    <ele>5686.1</ele>
    <time>2026-06-23T03:32:34Z</time>
   </trkpt>
   <trkpt lat="-3.0788250" lon="37.3634430">
    <ele>5686.1</ele>
    <time>2026-06-23T03:32:35Z</time>
   </trkpt>
   <trkpt lat="-3.0788260" lon="37.3634400">
    <ele>5686.2</ele>
    <time>2026-06-23T03:32:36Z</time>
   </trkpt>
   <trkpt lat="-3.0788260" lon="37.3634390">
    <ele>5686.2</ele>
    <time>2026-06-23T03:32:37Z</time>
   </trkpt>
   <trkpt lat="-3.0788270" lon="37.3634390">
    <ele>5686.2</ele>
    <time>2026-06-23T03:32:38Z</time>
   </trkpt>
   <trkpt lat="-3.0788270" lon="37.3634370">
    <ele>5686.3</ele>
    <time>2026-06-23T03:32:39Z</time>
   </trkpt>
   <trkpt lat="-3.0788270" lon="37.3634350">
    <ele>5686.3</ele>
    <time>2026-06-23T03:32:40Z</time>
   </trkpt>
   <trkpt lat="-3.0788290" lon="37.3634350">
    <ele>5686.4</ele>
    <time>2026-06-23T03:32:41Z</time>
   </trkpt>
   <trkpt lat="-3.0788280" lon="37.3634320">
    <ele>5686.5</ele>
    <time>2026-06-23T03:32:42Z</time>
   </trkpt>
   <trkpt lat="-3.0788280" lon="37.3634310">
    <ele>5686.5</ele>
    <time>2026-06-23T03:32:43Z</time>
   </trkpt>
   <trkpt lat="-3.0788260" lon="37.3634290">
    <ele>5686.6</ele>
    <time>2026-06-23T03:32:44Z</time>
   </trkpt>
   <trkpt lat="-3.0788270" lon="37.3634250">
    <ele>5686.7</ele>
    <time>2026-06-23T03:32:45Z</time>
   </trkpt>
   <trkpt lat="-3.0788270" lon="37.3634240">
    <ele>5686.7</ele>
    <time>2026-06-23T03:32:46Z</time>
   </trkpt>
   <trkpt lat="-3.0788280" lon="37.3634210">
    <ele>5686.8</ele>
    <time>2026-06-23T03:32:47Z</time>
   </trkpt>
   <trkpt lat="-3.0788290" lon="37.3634180">
    <ele>5686.8</ele>
    <time>2026-06-23T03:32:48Z</time>
   </trkpt>
   <trkpt lat="-3.0788300" lon="37.3634140">
    <ele>5686.9</ele>
    <time>2026-06-23T03:32:49Z</time>
   </trkpt>
   <trkpt lat="-3.0788280" lon="37.3634120">
    <ele>5687.0</ele>
    <time>2026-06-23T03:32:50Z</time>
   </trkpt>
   <trkpt lat="-3.0788290" lon="37.3634100">
    <ele>5687.1</ele>
    <time>2026-06-23T03:32:51Z</time>
   </trkpt>
   <trkpt lat="-3.0788290" lon="37.3634080">
    <ele>5687.1</ele>
    <time>2026-06-23T03:32:52Z</time>
   </trkpt>
   <trkpt lat="-3.0788290" lon="37.3634070">
    <ele>5687.2</ele>
    <time>2026-06-23T03:32:53Z</time>
   </trkpt>
   <trkpt lat="-3.0788300" lon="37.3634030">
    <ele>5687.3</ele>
    <time>2026-06-23T03:32:54Z</time>
   </trkpt>
   <trkpt lat="-3.0788300" lon="37.3634030">
    <ele>5687.3</ele>
    <time>2026-06-23T03:32:55Z</time>
   </trkpt>
   <trkpt lat="-3.0788260" lon="37.3634020">
    <ele>5687.4</ele>
    <time>2026-06-23T03:32:56Z</time>
   </trkpt>
   <trkpt lat="-3.0788290" lon="37.3633990">
    <ele>5687.5</ele>
    <time>2026-06-23T03:32:57Z</time>
   </trkpt>
   <trkpt lat="-3.0788280" lon="37.3633980">
    <ele>5687.5</ele>
    <time>2026-06-23T03:32:58Z</time>
   </trkpt>
   <trkpt lat="-3.0788280" lon="37.3633960">
    <ele>5687.6</ele>
    <time>2026-06-23T03:32:59Z</time>
   </trkpt>
   <trkpt lat="-3.0788270" lon="37.3633960">
    <ele>5687.6</ele>
    <time>2026-06-23T03:33:00Z</time>
   </trkpt>
   <trkpt lat="-3.0788250" lon="37.3633930">
    <ele>5687.7</ele>
    <time>2026-06-23T03:33:01Z</time>
   </trkpt>
   <trkpt lat="-3.0788260" lon="37.3633940">
    <ele>5687.7</ele>
    <time>2026-06-23T03:33:02Z</time>
   </trkpt>
   <trkpt lat="-3.0788270" lon="37.3633970">
    <ele>5687.8</ele>
    <time>2026-06-23T03:33:03Z</time>
   </trkpt>
   <trkpt lat="-3.0788260" lon="37.3633950">
    <ele>5687.8</ele>
    <time>2026-06-23T03:33:04Z</time>
   </trkpt>
   <trkpt lat="-3.0788250" lon="37.3633940">
    <ele>5687.9</ele>
    <time>2026-06-23T03:33:05Z</time>
   </trkpt>
   <trkpt lat="-3.0788210" lon="37.3633910">
    <ele>5688.0</ele>
    <time>2026-06-23T03:33:06Z</time>
   </trkpt>
   <trkpt lat="-3.0788200" lon="37.3633900">
    <ele>5688.0</ele>
    <time>2026-06-23T03:33:07Z</time>
   </trkpt>
   <trkpt lat="-3.0788190" lon="37.3633910">
    <ele>5688.1</ele>
    <time>2026-06-23T03:33:08Z</time>
   </trkpt>
   <trkpt lat="-3.0788160" lon="37.3633910">
    <ele>5688.2</ele>
    <time>2026-06-23T03:33:09Z</time>
   </trkpt>
   <trkpt lat="-3.0788160" lon="37.3633920">
    <ele>5688.2</ele>
    <time>2026-06-23T03:33:10Z</time>
   </trkpt>
   <trkpt lat="-3.0788160" lon="37.3633930">
    <ele>5688.2</ele>
    <time>2026-06-23T03:33:11Z</time>
   </trkpt>
   <trkpt lat="-3.0788140" lon="37.3633910">
    <ele>5688.3</ele>
    <time>2026-06-23T03:33:12Z</time>
   </trkpt>
   <trkpt lat="-3.0788120" lon="37.3633850">
    <ele>5688.4</ele>
    <time>2026-06-23T03:33:13Z</time>
   </trkpt>
   <trkpt lat="-3.0788110" lon="37.3633870">
    <ele>5688.5</ele>
    <time>2026-06-23T03:33:14Z</time>
   </trkpt>
   <trkpt lat="-3.0788100" lon="37.3633870">
    <ele>5688.5</ele>
    <time>2026-06-23T03:33:15Z</time>
   </trkpt>
   <trkpt lat="-3.0788100" lon="37.3633860">
    <ele>5688.5</ele>
    <time>2026-06-23T03:33:16Z</time>
   </trkpt>
   <trkpt lat="-3.0788100" lon="37.3633850">
    <ele>5688.6</ele>
    <time>2026-06-23T03:33:17Z</time>
   </trkpt>
   <trkpt lat="-3.0788100" lon="37.3633860">
    <ele>5688.6</ele>
    <time>2026-06-23T03:33:18Z</time>
   </trkpt>
   <trkpt lat="-3.0788060" lon="37.3633840">
    <ele>5688.7</ele>
    <time>2026-06-23T03:33:19Z</time>
   </trkpt>
   <trkpt lat="-3.0788060" lon="37.3633860">
    <ele>5688.8</ele>
    <time>2026-06-23T03:33:20Z</time>
   </trkpt>
   <trkpt lat="-3.0788050" lon="37.3633860">
    <ele>5688.8</ele>
    <time>2026-06-23T03:33:21Z</time>
   </trkpt>
   <trkpt lat="-3.0788060" lon="37.3633850">
    <ele>5688.8</ele>
    <time>2026-06-23T03:33:22Z</time>
   </trkpt>
   <trkpt lat="-3.0788050" lon="37.3633860">
    <ele>5688.9</ele>
    <time>2026-06-23T03:33:23Z</time>
   </trkpt>
   <trkpt lat="-3.0788030" lon="37.3633850">
    <ele>5688.9</ele>
    <time>2026-06-23T03:33:24Z</time>
   </trkpt>
   <trkpt lat="-3.0788000" lon="37.3633850">
    <ele>5689.0</ele>
    <time>2026-06-23T03:33:25Z</time>
   </trkpt>
   <trkpt lat="-3.0787990" lon="37.3633850">
    <ele>5689.0</ele>
    <time>2026-06-23T03:33:26Z</time>
   </trkpt>
   <trkpt lat="-3.0787960" lon="37.3633850">
    <ele>5689.1</ele>
    <time>2026-06-23T03:33:27Z</time>
   </trkpt>
   <trkpt lat="-3.0787940" lon="37.3633830">
    <ele>5689.2</ele>
    <time>2026-06-23T03:33:28Z</time>
   </trkpt>
   <trkpt lat="-3.0787910" lon="37.3633840">
    <ele>5689.2</ele>
    <time>2026-06-23T03:33:29Z</time>
   </trkpt>
   <trkpt lat="-3.0787880" lon="37.3633830">
    <ele>5689.3</ele>
    <time>2026-06-23T03:33:30Z</time>
   </trkpt>
   <trkpt lat="-3.0787880" lon="37.3633830">
    <ele>5689.3</ele>
    <time>2026-06-23T03:33:31Z</time>
   </trkpt>
   <trkpt lat="-3.0787870" lon="37.3633830">
    <ele>5689.3</ele>
    <time>2026-06-23T03:33:32Z</time>
   </trkpt>
   <trkpt lat="-3.0787850" lon="37.3633820">
    <ele>5689.4</ele>
    <time>2026-06-23T03:33:33Z</time>
   </trkpt>
   <trkpt lat="-3.0787840" lon="37.3633800">
    <ele>5689.5</ele>
    <time>2026-06-23T03:33:34Z</time>
   </trkpt>
   <trkpt lat="-3.0787830" lon="37.3633810">
    <ele>5689.5</ele>
    <time>2026-06-23T03:33:35Z</time>
   </trkpt>
   <trkpt lat="-3.0787820" lon="37.3633790">
    <ele>5689.6</ele>
    <time>2026-06-23T03:33:36Z</time>
   </trkpt>
   <trkpt lat="-3.0787810" lon="37.3633790">
    <ele>5689.6</ele>
    <time>2026-06-23T03:33:37Z</time>
   </trkpt>
   <trkpt lat="-3.0787800" lon="37.3633780">
    <ele>5689.6</ele>
    <time>2026-06-23T03:33:38Z</time>
   </trkpt>
   <trkpt lat="-3.0787780" lon="37.3633770">
    <ele>5689.7</ele>
    <time>2026-06-23T03:33:39Z</time>
   </trkpt>
   <trkpt lat="-3.0787750" lon="37.3633780">
    <ele>5689.8</ele>
    <time>2026-06-23T03:33:40Z</time>
   </trkpt>
   <trkpt lat="-3.0787750" lon="37.3633770">
    <ele>5689.8</ele>
    <time>2026-06-23T03:33:41Z</time>
   </trkpt>
   <trkpt lat="-3.0787740" lon="37.3633780">
    <ele>5689.8</ele>
    <time>2026-06-23T03:33:42Z</time>
   </trkpt>
   <trkpt lat="-3.0787720" lon="37.3633760">
    <ele>5689.9</ele>
    <time>2026-06-23T03:33:43Z</time>
   </trkpt>
   <trkpt lat="-3.0787740" lon="37.3633780">
    <ele>5690.0</ele>
    <time>2026-06-23T03:33:44Z</time>
   </trkpt>
   <trkpt lat="-3.0787720" lon="37.3633740">
    <ele>5690.1</ele>
    <time>2026-06-23T03:33:45Z</time>
   </trkpt>
   <trkpt lat="-3.0787690" lon="37.3633740">
    <ele>5690.1</ele>
    <time>2026-06-23T03:33:46Z</time>
   </trkpt>
   <trkpt lat="-3.0787680" lon="37.3633710">
    <ele>5690.2</ele>
    <time>2026-06-23T03:33:47Z</time>
   </trkpt>
   <trkpt lat="-3.0787670" lon="37.3633730">
    <ele>5690.3</ele>
    <time>2026-06-23T03:33:48Z</time>
   </trkpt>
   <trkpt lat="-3.0787640" lon="37.3633720">
    <ele>5690.4</ele>
    <time>2026-06-23T03:33:49Z</time>
   </trkpt>
   <trkpt lat="-3.0787650" lon="37.3633730">
    <ele>5690.4</ele>
    <time>2026-06-23T03:33:50Z</time>
   </trkpt>
   <trkpt lat="-3.0787610" lon="37.3633730">
    <ele>5690.5</ele>
    <time>2026-06-23T03:33:51Z</time>
   </trkpt>
   <trkpt lat="-3.0787590" lon="37.3633730">
    <ele>5690.6</ele>
    <time>2026-06-23T03:33:52Z</time>
   </trkpt>
   <trkpt lat="-3.0787580" lon="37.3633740">
    <ele>5690.6</ele>
    <time>2026-06-23T03:33:53Z</time>
   </trkpt>
   <trkpt lat="-3.0787560" lon="37.3633750">
    <ele>5690.7</ele>
    <time>2026-06-23T03:33:54Z</time>
   </trkpt>
   <trkpt lat="-3.0787540" lon="37.3633740">
    <ele>5690.7</ele>
    <time>2026-06-23T03:33:55Z</time>
   </trkpt>
   <trkpt lat="-3.0787540" lon="37.3633750">
    <ele>5690.8</ele>
    <time>2026-06-23T03:33:56Z</time>
   </trkpt>
   <trkpt lat="-3.0787520" lon="37.3633730">
    <ele>5690.8</ele>
    <time>2026-06-23T03:33:57Z</time>
   </trkpt>
   <trkpt lat="-3.0787510" lon="37.3633730">
    <ele>5690.9</ele>
    <time>2026-06-23T03:33:58Z</time>
   </trkpt>
   <trkpt lat="-3.0787490" lon="37.3633730">
    <ele>5690.9</ele>
    <time>2026-06-23T03:33:59Z</time>
   </trkpt>
   <trkpt lat="-3.0787480" lon="37.3633730">
    <ele>5690.9</ele>
    <time>2026-06-23T03:34:00Z</time>
   </trkpt>
   <trkpt lat="-3.0787460" lon="37.3633720">
    <ele>5691.0</ele>
    <time>2026-06-23T03:34:01Z</time>
   </trkpt>
   <trkpt lat="-3.0787450" lon="37.3633710">
    <ele>5691.0</ele>
    <time>2026-06-23T03:34:02Z</time>
   </trkpt>
   <trkpt lat="-3.0787440" lon="37.3633690">
    <ele>5691.1</ele>
    <time>2026-06-23T03:34:03Z</time>
   </trkpt>
   <trkpt lat="-3.0787410" lon="37.3633670">
    <ele>5691.2</ele>
    <time>2026-06-23T03:34:04Z</time>
   </trkpt>
   <trkpt lat="-3.0787420" lon="37.3633630">
    <ele>5691.3</ele>
    <time>2026-06-23T03:34:05Z</time>
   </trkpt>
   <trkpt lat="-3.0787440" lon="37.3633620">
    <ele>5691.4</ele>
    <time>2026-06-23T03:34:06Z</time>
   </trkpt>
   <trkpt lat="-3.0787440" lon="37.3633590">
    <ele>5691.5</ele>
    <time>2026-06-23T03:34:07Z</time>
   </trkpt>
   <trkpt lat="-3.0787440" lon="37.3633570">
    <ele>5691.5</ele>
    <time>2026-06-23T03:34:08Z</time>
   </trkpt>
   <trkpt lat="-3.0787450" lon="37.3633550">
    <ele>5691.6</ele>
    <time>2026-06-23T03:34:09Z</time>
   </trkpt>
   <trkpt lat="-3.0787440" lon="37.3633530">
    <ele>5691.6</ele>
    <time>2026-06-23T03:34:10Z</time>
   </trkpt>
   <trkpt lat="-3.0787440" lon="37.3633510">
    <ele>5691.7</ele>
    <time>2026-06-23T03:34:11Z</time>
   </trkpt>
   <trkpt lat="-3.0787420" lon="37.3633500">
    <ele>5691.7</ele>
    <time>2026-06-23T03:34:12Z</time>
   </trkpt>
   <trkpt lat="-3.0787430" lon="37.3633500">
    <ele>5691.8</ele>
    <time>2026-06-23T03:34:13Z</time>
   </trkpt>
   <trkpt lat="-3.0787420" lon="37.3633500">
    <ele>5691.8</ele>
    <time>2026-06-23T03:34:14Z</time>
   </trkpt>
   <trkpt lat="-3.0787380" lon="37.3633510">
    <ele>5691.9</ele>
    <time>2026-06-23T03:34:15Z</time>
   </trkpt>
   <trkpt lat="-3.0787380" lon="37.3633510">
    <ele>5691.9</ele>
    <time>2026-06-23T03:34:16Z</time>
   </trkpt>
   <trkpt lat="-3.0787350" lon="37.3633510">
    <ele>5692.0</ele>
    <time>2026-06-23T03:34:17Z</time>
   </trkpt>
   <trkpt lat="-3.0787340" lon="37.3633510">
    <ele>5692.0</ele>
    <time>2026-06-23T03:34:18Z</time>
   </trkpt>
   <trkpt lat="-3.0787320" lon="37.3633480">
    <ele>5692.1</ele>
    <time>2026-06-23T03:34:19Z</time>
   </trkpt>
   <trkpt lat="-3.0787310" lon="37.3633480">
    <ele>5692.1</ele>
    <time>2026-06-23T03:34:20Z</time>
   </trkpt>
   <trkpt lat="-3.0787290" lon="37.3633480">
    <ele>5692.2</ele>
    <time>2026-06-23T03:34:21Z</time>
   </trkpt>
   <trkpt lat="-3.0787290" lon="37.3633460">
    <ele>5692.2</ele>
    <time>2026-06-23T03:34:22Z</time>
   </trkpt>
   <trkpt lat="-3.0787280" lon="37.3633460">
    <ele>5692.3</ele>
    <time>2026-06-23T03:34:23Z</time>
   </trkpt>
   <trkpt lat="-3.0787260" lon="37.3633430">
    <ele>5692.4</ele>
    <time>2026-06-23T03:34:24Z</time>
   </trkpt>
   <trkpt lat="-3.0787240" lon="37.3633430">
    <ele>5692.4</ele>
    <time>2026-06-23T03:34:25Z</time>
   </trkpt>
   <trkpt lat="-3.0787240" lon="37.3633420">
    <ele>5692.5</ele>
    <time>2026-06-23T03:34:26Z</time>
   </trkpt>
   <trkpt lat="-3.0787230" lon="37.3633410">
    <ele>5692.5</ele>
    <time>2026-06-23T03:34:27Z</time>
   </trkpt>
   <trkpt lat="-3.0787210" lon="37.3633390">
    <ele>5692.6</ele>
    <time>2026-06-23T03:34:28Z</time>
   </trkpt>
   <trkpt lat="-3.0787220" lon="37.3633370">
    <ele>5692.6</ele>
    <time>2026-06-23T03:34:29Z</time>
   </trkpt>
   <trkpt lat="-3.0787210" lon="37.3633370">
    <ele>5692.7</ele>
    <time>2026-06-23T03:34:30Z</time>
   </trkpt>
   <trkpt lat="-3.0787210" lon="37.3633350">
    <ele>5692.7</ele>
    <time>2026-06-23T03:34:31Z</time>
   </trkpt>
   <trkpt lat="-3.0787200" lon="37.3633330">
    <ele>5692.8</ele>
    <time>2026-06-23T03:34:32Z</time>
   </trkpt>
   <trkpt lat="-3.0787200" lon="37.3633330">
    <ele>5692.8</ele>
    <time>2026-06-23T03:34:33Z</time>
   </trkpt>
   <trkpt lat="-3.0787200" lon="37.3633320">
    <ele>5692.8</ele>
    <time>2026-06-23T03:34:34Z</time>
   </trkpt>
   <trkpt lat="-3.0787190" lon="37.3633290">
    <ele>5692.9</ele>
    <time>2026-06-23T03:34:35Z</time>
   </trkpt>
   <trkpt lat="-3.0787170" lon="37.3633270">
    <ele>5693.0</ele>
    <time>2026-06-23T03:34:36Z</time>
   </trkpt>
   <trkpt lat="-3.0787160" lon="37.3633280">
    <ele>5693.0</ele>
    <time>2026-06-23T03:34:37Z</time>
   </trkpt>
   <trkpt lat="-3.0787140" lon="37.3633290">
    <ele>5693.1</ele>
    <time>2026-06-23T03:34:38Z</time>
   </trkpt>
   <trkpt lat="-3.0787130" lon="37.3633290">
    <ele>5693.1</ele>
    <time>2026-06-23T03:34:39Z</time>
   </trkpt>
   <trkpt lat="-3.0787120" lon="37.3633300">
    <ele>5693.1</ele>
    <time>2026-06-23T03:34:40Z</time>
   </trkpt>
   <trkpt lat="-3.0787090" lon="37.3633290">
    <ele>5693.2</ele>
    <time>2026-06-23T03:34:41Z</time>
   </trkpt>
   <trkpt lat="-3.0787080" lon="37.3633300">
    <ele>5693.2</ele>
    <time>2026-06-23T03:34:42Z</time>
   </trkpt>
   <trkpt lat="-3.0787070" lon="37.3633300">
    <ele>5693.3</ele>
    <time>2026-06-23T03:34:43Z</time>
   </trkpt>
   <trkpt lat="-3.0787080" lon="37.3633300">
    <ele>5693.3</ele>
    <time>2026-06-23T03:34:44Z</time>
   </trkpt>
   <trkpt lat="-3.0787040" lon="37.3633310">
    <ele>5693.4</ele>
    <time>2026-06-23T03:34:45Z</time>
   </trkpt>
   <trkpt lat="-3.0787030" lon="37.3633320">
    <ele>5693.5</ele>
    <time>2026-06-23T03:34:46Z</time>
   </trkpt>
   <trkpt lat="-3.0787020" lon="37.3633320">
    <ele>5693.5</ele>
    <time>2026-06-23T03:34:47Z</time>
   </trkpt>
   <trkpt lat="-3.0787000" lon="37.3633330">
    <ele>5693.5</ele>
    <time>2026-06-23T03:34:48Z</time>
   </trkpt>
   <trkpt lat="-3.0786990" lon="37.3633320">
    <ele>5693.6</ele>
    <time>2026-06-23T03:34:49Z</time>
   </trkpt>
   <trkpt lat="-3.0786980" lon="37.3633340">
    <ele>5693.6</ele>
    <time>2026-06-23T03:34:50Z</time>
   </trkpt>
   <trkpt lat="-3.0786980" lon="37.3633330">
    <ele>5693.7</ele>
    <time>2026-06-23T03:34:51Z</time>
   </trkpt>
   <trkpt lat="-3.0786990" lon="37.3633340">
    <ele>5693.7</ele>
    <time>2026-06-23T03:34:52Z</time>
   </trkpt>
   <trkpt lat="-3.0786980" lon="37.3633340">
    <ele>5693.7</ele>
    <time>2026-06-23T03:34:53Z</time>
   </trkpt>
   <trkpt lat="-3.0786980" lon="37.3633340">
    <ele>5693.7</ele>
    <time>2026-06-23T03:34:54Z</time>
   </trkpt>
   <trkpt lat="-3.0786960" lon="37.3633320">
    <ele>5693.8</ele>
    <time>2026-06-23T03:34:55Z</time>
   </trkpt>
   <trkpt lat="-3.0786950" lon="37.3633340">
    <ele>5693.9</ele>
    <time>2026-06-23T03:34:56Z</time>
   </trkpt>
   <trkpt lat="-3.0786920" lon="37.3633330">
    <ele>5694.0</ele>
    <time>2026-06-23T03:34:57Z</time>
   </trkpt>
   <trkpt lat="-3.0786910" lon="37.3633360">
    <ele>5694.0</ele>
    <time>2026-06-23T03:34:58Z</time>
   </trkpt>
   <trkpt lat="-3.0786900" lon="37.3633360">
    <ele>5694.1</ele>
    <time>2026-06-23T03:34:59Z</time>
   </trkpt>
   <trkpt lat="-3.0786900" lon="37.3633370">
    <ele>5694.1</ele>
    <time>2026-06-23T03:35:00Z</time>
   </trkpt>
   <trkpt lat="-3.0786900" lon="37.3633350">
    <ele>5694.1</ele>
    <time>2026-06-23T03:35:01Z</time>
   </trkpt>
   <trkpt lat="-3.0786860" lon="37.3633350">
    <ele>5694.3</ele>
    <time>2026-06-23T03:35:02Z</time>
   </trkpt>
   <trkpt lat="-3.0786850" lon="37.3633350">
    <ele>5694.3</ele>
    <time>2026-06-23T03:35:03Z</time>
   </trkpt>
   <trkpt lat="-3.0786830" lon="37.3633370">
    <ele>5694.4</ele>
    <time>2026-06-23T03:35:04Z</time>
   </trkpt>
   <trkpt lat="-3.0786800" lon="37.3633370">
    <ele>5694.4</ele>
    <time>2026-06-23T03:35:05Z</time>
   </trkpt>
   <trkpt lat="-3.0786790" lon="37.3633390">
    <ele>5694.5</ele>
    <time>2026-06-23T03:35:06Z</time>
   </trkpt>
   <trkpt lat="-3.0786780" lon="37.3633390">
    <ele>5694.5</ele>
    <time>2026-06-23T03:35:07Z</time>
   </trkpt>
   <trkpt lat="-3.0786780" lon="37.3633410">
    <ele>5694.6</ele>
    <time>2026-06-23T03:35:08Z</time>
   </trkpt>
   <trkpt lat="-3.0786780" lon="37.3633410">
    <ele>5694.6</ele>
    <time>2026-06-23T03:35:09Z</time>
   </trkpt>
   <trkpt lat="-3.0786780" lon="37.3633410">
    <ele>5694.6</ele>
    <time>2026-06-23T03:35:10Z</time>
   </trkpt>
   <trkpt lat="-3.0786780" lon="37.3633410">
    <ele>5694.6</ele>
    <time>2026-06-23T03:35:11Z</time>
   </trkpt>
   <trkpt lat="-3.0786780" lon="37.3633410">
    <ele>5694.6</ele>
    <time>2026-06-23T03:35:12Z</time>
   </trkpt>
   <trkpt lat="-3.0786750" lon="37.3633400">
    <ele>5694.7</ele>
    <time>2026-06-23T03:35:13Z</time>
   </trkpt>
   <trkpt lat="-3.0786730" lon="37.3633410">
    <ele>5694.7</ele>
    <time>2026-06-23T03:35:14Z</time>
   </trkpt>
   <trkpt lat="-3.0786700" lon="37.3633420">
    <ele>5694.8</ele>
    <time>2026-06-23T03:35:15Z</time>
   </trkpt>
   <trkpt lat="-3.0786690" lon="37.3633440">
    <ele>5694.9</ele>
    <time>2026-06-23T03:35:16Z</time>
   </trkpt>
   <trkpt lat="-3.0786660" lon="37.3633440">
    <ele>5695.0</ele>
    <time>2026-06-23T03:35:17Z</time>
   </trkpt>
   <trkpt lat="-3.0786650" lon="37.3633450">
    <ele>5695.0</ele>
    <time>2026-06-23T03:35:18Z</time>
   </trkpt>
   <trkpt lat="-3.0786620" lon="37.3633450">
    <ele>5695.1</ele>
    <time>2026-06-23T03:35:19Z</time>
   </trkpt>
   <trkpt lat="-3.0786610" lon="37.3633440">
    <ele>5695.1</ele>
    <time>2026-06-23T03:35:20Z</time>
   </trkpt>
   <trkpt lat="-3.0786570" lon="37.3633440">
    <ele>5695.2</ele>
    <time>2026-06-23T03:35:21Z</time>
   </trkpt>
   <trkpt lat="-3.0786560" lon="37.3633440">
    <ele>5695.2</ele>
    <time>2026-06-23T03:35:22Z</time>
   </trkpt>
   <trkpt lat="-3.0786540" lon="37.3633420">
    <ele>5695.3</ele>
    <time>2026-06-23T03:35:23Z</time>
   </trkpt>
   <trkpt lat="-3.0786520" lon="37.3633430">
    <ele>5695.4</ele>
    <time>2026-06-23T03:35:24Z</time>
   </trkpt>
   <trkpt lat="-3.0786510" lon="37.3633430">
    <ele>5695.4</ele>
    <time>2026-06-23T03:35:25Z</time>
   </trkpt>
   <trkpt lat="-3.0786500" lon="37.3633420">
    <ele>5695.5</ele>
    <time>2026-06-23T03:35:26Z</time>
   </trkpt>
   <trkpt lat="-3.0786470" lon="37.3633420">
    <ele>5695.5</ele>
    <time>2026-06-23T03:35:27Z</time>
   </trkpt>
   <trkpt lat="-3.0786460" lon="37.3633410">
    <ele>5695.6</ele>
    <time>2026-06-23T03:35:28Z</time>
   </trkpt>
   <trkpt lat="-3.0786440" lon="37.3633420">
    <ele>5695.6</ele>
    <time>2026-06-23T03:35:29Z</time>
   </trkpt>
   <trkpt lat="-3.0786420" lon="37.3633420">
    <ele>5695.7</ele>
    <time>2026-06-23T03:35:30Z</time>
   </trkpt>
   <trkpt lat="-3.0786410" lon="37.3633430">
    <ele>5695.7</ele>
    <time>2026-06-23T03:35:31Z</time>
   </trkpt>
   <trkpt lat="-3.0786390" lon="37.3633430">
    <ele>5695.8</ele>
    <time>2026-06-23T03:35:32Z</time>
   </trkpt>
   <trkpt lat="-3.0786390" lon="37.3633430">
    <ele>5695.8</ele>
    <time>2026-06-23T03:35:33Z</time>
   </trkpt>
   <trkpt lat="-3.0786370" lon="37.3633420">
    <ele>5695.8</ele>
    <time>2026-06-23T03:35:34Z</time>
   </trkpt>
   <trkpt lat="-3.0786360" lon="37.3633420">
    <ele>5695.9</ele>
    <time>2026-06-23T03:35:35Z</time>
   </trkpt>
   <trkpt lat="-3.0786340" lon="37.3633420">
    <ele>5695.9</ele>
    <time>2026-06-23T03:35:36Z</time>
   </trkpt>
   <trkpt lat="-3.0786330" lon="37.3633410">
    <ele>5696.0</ele>
    <time>2026-06-23T03:35:37Z</time>
   </trkpt>
   <trkpt lat="-3.0786320" lon="37.3633420">
    <ele>5696.0</ele>
    <time>2026-06-23T03:35:38Z</time>
   </trkpt>
   <trkpt lat="-3.0786300" lon="37.3633400">
    <ele>5696.1</ele>
    <time>2026-06-23T03:35:39Z</time>
   </trkpt>
   <trkpt lat="-3.0786290" lon="37.3633420">
    <ele>5696.1</ele>
    <time>2026-06-23T03:35:40Z</time>
   </trkpt>
   <trkpt lat="-3.0786260" lon="37.3633410">
    <ele>5696.2</ele>
    <time>2026-06-23T03:35:41Z</time>
   </trkpt>
   <trkpt lat="-3.0786250" lon="37.3633420">
    <ele>5696.3</ele>
    <time>2026-06-23T03:35:42Z</time>
   </trkpt>
   <trkpt lat="-3.0786230" lon="37.3633430">
    <ele>5696.3</ele>
    <time>2026-06-23T03:35:43Z</time>
   </trkpt>
   <trkpt lat="-3.0786220" lon="37.3633440">
    <ele>5696.4</ele>
    <time>2026-06-23T03:35:44Z</time>
   </trkpt>
   <trkpt lat="-3.0786230" lon="37.3633450">
    <ele>5696.4</ele>
    <time>2026-06-23T03:35:45Z</time>
   </trkpt>
   <trkpt lat="-3.0786230" lon="37.3633450">
    <ele>5696.4</ele>
    <time>2026-06-23T03:35:46Z</time>
   </trkpt>
   <trkpt lat="-3.0786210" lon="37.3633450">
    <ele>5696.4</ele>
    <time>2026-06-23T03:35:47Z</time>
   </trkpt>
   <trkpt lat="-3.0786200" lon="37.3633430">
    <ele>5696.5</ele>
    <time>2026-06-23T03:35:48Z</time>
   </trkpt>
   <trkpt lat="-3.0786170" lon="37.3633450">
    <ele>5696.6</ele>
    <time>2026-06-23T03:35:49Z</time>
   </trkpt>
   <trkpt lat="-3.0786150" lon="37.3633440">
    <ele>5696.7</ele>
    <time>2026-06-23T03:35:50Z</time>
   </trkpt>
   <trkpt lat="-3.0786120" lon="37.3633460">
    <ele>5696.8</ele>
    <time>2026-06-23T03:35:51Z</time>
   </trkpt>
   <trkpt lat="-3.0786100" lon="37.3633440">
    <ele>5696.8</ele>
    <time>2026-06-23T03:35:52Z</time>
   </trkpt>
   <trkpt lat="-3.0786090" lon="37.3633450">
    <ele>5696.9</ele>
    <time>2026-06-23T03:35:53Z</time>
   </trkpt>
   <trkpt lat="-3.0786060" lon="37.3633420">
    <ele>5697.0</ele>
    <time>2026-06-23T03:35:54Z</time>
   </trkpt>
   <trkpt lat="-3.0786050" lon="37.3633430">
    <ele>5697.0</ele>
    <time>2026-06-23T03:35:55Z</time>
   </trkpt>
   <trkpt lat="-3.0786040" lon="37.3633410">
    <ele>5697.1</ele>
    <time>2026-06-23T03:35:56Z</time>
   </trkpt>
   <trkpt lat="-3.0786030" lon="37.3633400">
    <ele>5697.1</ele>
    <time>2026-06-23T03:35:57Z</time>
   </trkpt>
   <trkpt lat="-3.0786020" lon="37.3633390">
    <ele>5697.2</ele>
    <time>2026-06-23T03:35:58Z</time>
   </trkpt>
   <trkpt lat="-3.0786010" lon="37.3633390">
    <ele>5697.2</ele>
    <time>2026-06-23T03:35:59Z</time>
   </trkpt>
   <trkpt lat="-3.0786000" lon="37.3633370">
    <ele>5697.3</ele>
    <time>2026-06-23T03:36:00Z</time>
   </trkpt>
   <trkpt lat="-3.0785980" lon="37.3633370">
    <ele>5697.3</ele>
    <time>2026-06-23T03:36:01Z</time>
   </trkpt>
   <trkpt lat="-3.0785980" lon="37.3633370">
    <ele>5697.3</ele>
    <time>2026-06-23T03:36:02Z</time>
   </trkpt>
   <trkpt lat="-3.0785960" lon="37.3633350">
    <ele>5697.4</ele>
    <time>2026-06-23T03:36:03Z</time>
   </trkpt>
   <trkpt lat="-3.0785940" lon="37.3633350">
    <ele>5697.4</ele>
    <time>2026-06-23T03:36:04Z</time>
   </trkpt>
   <trkpt lat="-3.0785930" lon="37.3633340">
    <ele>5697.5</ele>
    <time>2026-06-23T03:36:05Z</time>
   </trkpt>
   <trkpt lat="-3.0785920" lon="37.3633330">
    <ele>5697.5</ele>
    <time>2026-06-23T03:36:06Z</time>
   </trkpt>
   <trkpt lat="-3.0785920" lon="37.3633340">
    <ele>5697.5</ele>
    <time>2026-06-23T03:36:07Z</time>
   </trkpt>
   <trkpt lat="-3.0785920" lon="37.3633340">
    <ele>5697.5</ele>
    <time>2026-06-23T03:36:08Z</time>
   </trkpt>
   <trkpt lat="-3.0785910" lon="37.3633310">
    <ele>5697.6</ele>
    <time>2026-06-23T03:36:09Z</time>
   </trkpt>
   <trkpt lat="-3.0785890" lon="37.3633300">
    <ele>5697.7</ele>
    <time>2026-06-23T03:36:10Z</time>
   </trkpt>
   <trkpt lat="-3.0785880" lon="37.3633280">
    <ele>5697.8</ele>
    <time>2026-06-23T03:36:11Z</time>
   </trkpt>
   <trkpt lat="-3.0785860" lon="37.3633280">
    <ele>5697.8</ele>
    <time>2026-06-23T03:36:12Z</time>
   </trkpt>
   <trkpt lat="-3.0785860" lon="37.3633260">
    <ele>5697.9</ele>
    <time>2026-06-23T03:36:13Z</time>
   </trkpt>
   <trkpt lat="-3.0785860" lon="37.3633260">
    <ele>5697.9</ele>
    <time>2026-06-23T03:36:14Z</time>
   </trkpt>
   <trkpt lat="-3.0785840" lon="37.3633250">
    <ele>5697.9</ele>
    <time>2026-06-23T03:36:15Z</time>
   </trkpt>
   <trkpt lat="-3.0785820" lon="37.3633230">
    <ele>5698.0</ele>
    <time>2026-06-23T03:36:16Z</time>
   </trkpt>
   <trkpt lat="-3.0785810" lon="37.3633210">
    <ele>5698.1</ele>
    <time>2026-06-23T03:36:17Z</time>
   </trkpt>
   <trkpt lat="-3.0785800" lon="37.3633190">
    <ele>5698.1</ele>
    <time>2026-06-23T03:36:18Z</time>
   </trkpt>
   <trkpt lat="-3.0785800" lon="37.3633180">
    <ele>5698.1</ele>
    <time>2026-06-23T03:36:19Z</time>
   </trkpt>
   <trkpt lat="-3.0785790" lon="37.3633170">
    <ele>5698.2</ele>
    <time>2026-06-23T03:36:20Z</time>
   </trkpt>
   <trkpt lat="-3.0785770" lon="37.3633140">
    <ele>5698.3</ele>
    <time>2026-06-23T03:36:21Z</time>
   </trkpt>
   <trkpt lat="-3.0785770" lon="37.3633130">
    <ele>5698.3</ele>
    <time>2026-06-23T03:36:22Z</time>
   </trkpt>
   <trkpt lat="-3.0785760" lon="37.3633130">
    <ele>5698.3</ele>
    <time>2026-06-23T03:36:23Z</time>
   </trkpt>
   <trkpt lat="-3.0785760" lon="37.3633110">
    <ele>5698.4</ele>
    <time>2026-06-23T03:36:24Z</time>
   </trkpt>
   <trkpt lat="-3.0785730" lon="37.3633100">
    <ele>5698.5</ele>
    <time>2026-06-23T03:36:25Z</time>
   </trkpt>
   <trkpt lat="-3.0785750" lon="37.3633090">
    <ele>5698.5</ele>
    <time>2026-06-23T03:36:26Z</time>
   </trkpt>
   <trkpt lat="-3.0785700" lon="37.3633080">
    <ele>5698.7</ele>
    <time>2026-06-23T03:36:27Z</time>
   </trkpt>
   <trkpt lat="-3.0785690" lon="37.3633050">
    <ele>5698.8</ele>
    <time>2026-06-23T03:36:28Z</time>
   </trkpt>
   <trkpt lat="-3.0785670" lon="37.3633050">
    <ele>5698.8</ele>
    <time>2026-06-23T03:36:29Z</time>
   </trkpt>
   <trkpt lat="-3.0785670" lon="37.3633030">
    <ele>5698.9</ele>
    <time>2026-06-23T03:36:30Z</time>
   </trkpt>
   <trkpt lat="-3.0785670" lon="37.3633030">
    <ele>5698.9</ele>
    <time>2026-06-23T03:36:31Z</time>
   </trkpt>
   <trkpt lat="-3.0785670" lon="37.3633020">
    <ele>5698.9</ele>
    <time>2026-06-23T03:36:32Z</time>
   </trkpt>
   <trkpt lat="-3.0785670" lon="37.3633020">
    <ele>5698.9</ele>
    <time>2026-06-23T03:36:33Z</time>
   </trkpt>
   <trkpt lat="-3.0785680" lon="37.3633000">
    <ele>5699.0</ele>
    <time>2026-06-23T03:36:34Z</time>
   </trkpt>
   <trkpt lat="-3.0785690" lon="37.3632990">
    <ele>5699.0</ele>
    <time>2026-06-23T03:36:35Z</time>
   </trkpt>
   <trkpt lat="-3.0785660" lon="37.3632940">
    <ele>5699.2</ele>
    <time>2026-06-23T03:36:36Z</time>
   </trkpt>
   <trkpt lat="-3.0785650" lon="37.3632920">
    <ele>5699.2</ele>
    <time>2026-06-23T03:36:37Z</time>
   </trkpt>
   <trkpt lat="-3.0785660" lon="37.3632910">
    <ele>5699.2</ele>
    <time>2026-06-23T03:36:38Z</time>
   </trkpt>
   <trkpt lat="-3.0785640" lon="37.3632900">
    <ele>5699.3</ele>
    <time>2026-06-23T03:36:39Z</time>
   </trkpt>
   <trkpt lat="-3.0785630" lon="37.3632890">
    <ele>5699.3</ele>
    <time>2026-06-23T03:36:40Z</time>
   </trkpt>
   <trkpt lat="-3.0785650" lon="37.3632870">
    <ele>5699.4</ele>
    <time>2026-06-23T03:36:41Z</time>
   </trkpt>
   <trkpt lat="-3.0785640" lon="37.3632840">
    <ele>5699.5</ele>
    <time>2026-06-23T03:36:42Z</time>
   </trkpt>
   <trkpt lat="-3.0785660" lon="37.3632810">
    <ele>5699.6</ele>
    <time>2026-06-23T03:36:43Z</time>
   </trkpt>
   <trkpt lat="-3.0785650" lon="37.3632810">
    <ele>5699.6</ele>
    <time>2026-06-23T03:36:44Z</time>
   </trkpt>
   <trkpt lat="-3.0785640" lon="37.3632810">
    <ele>5699.7</ele>
    <time>2026-06-23T03:36:45Z</time>
   </trkpt>
   <trkpt lat="-3.0785640" lon="37.3632790">
    <ele>5699.7</ele>
    <time>2026-06-23T03:36:46Z</time>
   </trkpt>
   <trkpt lat="-3.0785620" lon="37.3632760">
    <ele>5699.8</ele>
    <time>2026-06-23T03:36:47Z</time>
   </trkpt>
   <trkpt lat="-3.0785620" lon="37.3632750">
    <ele>5699.8</ele>
    <time>2026-06-23T03:36:48Z</time>
   </trkpt>
   <trkpt lat="-3.0785590" lon="37.3632750">
    <ele>5699.9</ele>
    <time>2026-06-23T03:36:49Z</time>
   </trkpt>
   <trkpt lat="-3.0785580" lon="37.3632720">
    <ele>5700.0</ele>
    <time>2026-06-23T03:36:50Z</time>
   </trkpt>
   <trkpt lat="-3.0785560" lon="37.3632730">
    <ele>5700.1</ele>
    <time>2026-06-23T03:36:51Z</time>
   </trkpt>
   <trkpt lat="-3.0785570" lon="37.3632740">
    <ele>5700.1</ele>
    <time>2026-06-23T03:36:52Z</time>
   </trkpt>
   <trkpt lat="-3.0785570" lon="37.3632730">
    <ele>5700.1</ele>
    <time>2026-06-23T03:36:53Z</time>
   </trkpt>
   <trkpt lat="-3.0785570" lon="37.3632700">
    <ele>5700.2</ele>
    <time>2026-06-23T03:36:54Z</time>
   </trkpt>
   <trkpt lat="-3.0785550" lon="37.3632690">
    <ele>5700.3</ele>
    <time>2026-06-23T03:36:55Z</time>
   </trkpt>
   <trkpt lat="-3.0785520" lon="37.3632650">
    <ele>5700.4</ele>
    <time>2026-06-23T03:36:56Z</time>
   </trkpt>
   <trkpt lat="-3.0785500" lon="37.3632660">
    <ele>5700.5</ele>
    <time>2026-06-23T03:36:57Z</time>
   </trkpt>
   <trkpt lat="-3.0785480" lon="37.3632650">
    <ele>5700.5</ele>
    <time>2026-06-23T03:36:58Z</time>
   </trkpt>
   <trkpt lat="-3.0785470" lon="37.3632660">
    <ele>5700.6</ele>
    <time>2026-06-23T03:36:59Z</time>
   </trkpt>
   <trkpt lat="-3.0785470" lon="37.3632680">
    <ele>5700.6</ele>
    <time>2026-06-23T03:37:00Z</time>
   </trkpt>
   <trkpt lat="-3.0785430" lon="37.3632670">
    <ele>5700.7</ele>
    <time>2026-06-23T03:37:01Z</time>
   </trkpt>
   <trkpt lat="-3.0785420" lon="37.3632670">
    <ele>5700.8</ele>
    <time>2026-06-23T03:37:02Z</time>
   </trkpt>
   <trkpt lat="-3.0785380" lon="37.3632660">
    <ele>5700.9</ele>
    <time>2026-06-23T03:37:03Z</time>
   </trkpt>
   <trkpt lat="-3.0785380" lon="37.3632660">
    <ele>5700.9</ele>
    <time>2026-06-23T03:37:04Z</time>
   </trkpt>
   <trkpt lat="-3.0785340" lon="37.3632690">
    <ele>5701.1</ele>
    <time>2026-06-23T03:37:05Z</time>
   </trkpt>
   <trkpt lat="-3.0785340" lon="37.3632700">
    <ele>5701.1</ele>
    <time>2026-06-23T03:37:06Z</time>
   </trkpt>
   <trkpt lat="-3.0785320" lon="37.3632720">
    <ele>5701.2</ele>
    <time>2026-06-23T03:37:07Z</time>
   </trkpt>
   <trkpt lat="-3.0785320" lon="37.3632730">
    <ele>5701.2</ele>
    <time>2026-06-23T03:37:08Z</time>
   </trkpt>
   <trkpt lat="-3.0785300" lon="37.3632740">
    <ele>5701.3</ele>
    <time>2026-06-23T03:37:09Z</time>
   </trkpt>
   <trkpt lat="-3.0785290" lon="37.3632750">
    <ele>5701.3</ele>
    <time>2026-06-23T03:37:10Z</time>
   </trkpt>
   <trkpt lat="-3.0785270" lon="37.3632750">
    <ele>5701.4</ele>
    <time>2026-06-23T03:37:11Z</time>
   </trkpt>
   <trkpt lat="-3.0785240" lon="37.3632750">
    <ele>5701.5</ele>
    <time>2026-06-23T03:37:12Z</time>
   </trkpt>
   <trkpt lat="-3.0785220" lon="37.3632770">
    <ele>5701.5</ele>
    <time>2026-06-23T03:37:13Z</time>
   </trkpt>
   <trkpt lat="-3.0785200" lon="37.3632750">
    <ele>5701.6</ele>
    <time>2026-06-23T03:37:14Z</time>
   </trkpt>
   <trkpt lat="-3.0785200" lon="37.3632760">
    <ele>5701.7</ele>
    <time>2026-06-23T03:37:15Z</time>
   </trkpt>
   <trkpt lat="-3.0785190" lon="37.3632750">
    <ele>5701.7</ele>
    <time>2026-06-23T03:37:16Z</time>
   </trkpt>
   <trkpt lat="-3.0785170" lon="37.3632750">
    <ele>5701.8</ele>
    <time>2026-06-23T03:37:17Z</time>
   </trkpt>
   <trkpt lat="-3.0785160" lon="37.3632750">
    <ele>5701.8</ele>
    <time>2026-06-23T03:37:18Z</time>
   </trkpt>
   <trkpt lat="-3.0785120" lon="37.3632740">
    <ele>5701.9</ele>
    <time>2026-06-23T03:37:19Z</time>
   </trkpt>
   <trkpt lat="-3.0785110" lon="37.3632730">
    <ele>5702.0</ele>
    <time>2026-06-23T03:37:20Z</time>
   </trkpt>
   <trkpt lat="-3.0785110" lon="37.3632720">
    <ele>5702.0</ele>
    <time>2026-06-23T03:37:21Z</time>
   </trkpt>
   <trkpt lat="-3.0785100" lon="37.3632690">
    <ele>5702.1</ele>
    <time>2026-06-23T03:37:22Z</time>
   </trkpt>
   <trkpt lat="-3.0785100" lon="37.3632690">
    <ele>5702.1</ele>
    <time>2026-06-23T03:37:23Z</time>
   </trkpt>
   <trkpt lat="-3.0785110" lon="37.3632680">
    <ele>5702.1</ele>
    <time>2026-06-23T03:37:24Z</time>
   </trkpt>
   <trkpt lat="-3.0785110" lon="37.3632680">
    <ele>5702.1</ele>
    <time>2026-06-23T03:37:25Z</time>
   </trkpt>
   <trkpt lat="-3.0785110" lon="37.3632680">
    <ele>5702.1</ele>
    <time>2026-06-23T03:37:26Z</time>
   </trkpt>
   <trkpt lat="-3.0785070" lon="37.3632660">
    <ele>5702.3</ele>
    <time>2026-06-23T03:37:27Z</time>
   </trkpt>
   <trkpt lat="-3.0785060" lon="37.3632660">
    <ele>5702.3</ele>
    <time>2026-06-23T03:37:28Z</time>
   </trkpt>
   <trkpt lat="-3.0785040" lon="37.3632650">
    <ele>5702.4</ele>
    <time>2026-06-23T03:37:29Z</time>
   </trkpt>
   <trkpt lat="-3.0785020" lon="37.3632620">
    <ele>5702.5</ele>
    <time>2026-06-23T03:37:30Z</time>
   </trkpt>
   <trkpt lat="-3.0785000" lon="37.3632600">
    <ele>5702.6</ele>
    <time>2026-06-23T03:37:31Z</time>
   </trkpt>
   <trkpt lat="-3.0785000" lon="37.3632580">
    <ele>5702.6</ele>
    <time>2026-06-23T03:37:32Z</time>
   </trkpt>
   <trkpt lat="-3.0784980" lon="37.3632580">
    <ele>5702.7</ele>
    <time>2026-06-23T03:37:33Z</time>
   </trkpt>
   <trkpt lat="-3.0784960" lon="37.3632550">
    <ele>5702.8</ele>
    <time>2026-06-23T03:37:34Z</time>
   </trkpt>
   <trkpt lat="-3.0784950" lon="37.3632550">
    <ele>5702.8</ele>
    <time>2026-06-23T03:37:35Z</time>
   </trkpt>
   <trkpt lat="-3.0784950" lon="37.3632530">
    <ele>5702.9</ele>
    <time>2026-06-23T03:37:36Z</time>
   </trkpt>
   <trkpt lat="-3.0784910" lon="37.3632540">
    <ele>5703.0</ele>
    <time>2026-06-23T03:37:37Z</time>
   </trkpt>
   <trkpt lat="-3.0784900" lon="37.3632520">
    <ele>5703.1</ele>
    <time>2026-06-23T03:37:38Z</time>
   </trkpt>
   <trkpt lat="-3.0784880" lon="37.3632510">
    <ele>5703.1</ele>
    <time>2026-06-23T03:37:39Z</time>
   </trkpt>
   <trkpt lat="-3.0784860" lon="37.3632490">
    <ele>5703.2</ele>
    <time>2026-06-23T03:37:40Z</time>
   </trkpt>
   <trkpt lat="-3.0784840" lon="37.3632470">
    <ele>5703.3</ele>
    <time>2026-06-23T03:37:41Z</time>
   </trkpt>
   <trkpt lat="-3.0784830" lon="37.3632470">
    <ele>5703.3</ele>
    <time>2026-06-23T03:37:42Z</time>
   </trkpt>
   <trkpt lat="-3.0784800" lon="37.3632460">
    <ele>5703.4</ele>
    <time>2026-06-23T03:37:43Z</time>
   </trkpt>
   <trkpt lat="-3.0784790" lon="37.3632460">
    <ele>5703.5</ele>
    <time>2026-06-23T03:37:44Z</time>
   </trkpt>
   <trkpt lat="-3.0784760" lon="37.3632450">
    <ele>5703.6</ele>
    <time>2026-06-23T03:37:45Z</time>
   </trkpt>
   <trkpt lat="-3.0784750" lon="37.3632470">
    <ele>5703.6</ele>
    <time>2026-06-23T03:37:46Z</time>
   </trkpt>
   <trkpt lat="-3.0784770" lon="37.3632450">
    <ele>5703.7</ele>
    <time>2026-06-23T03:37:47Z</time>
   </trkpt>
   <trkpt lat="-3.0784750" lon="37.3632440">
    <ele>5703.8</ele>
    <time>2026-06-23T03:37:48Z</time>
   </trkpt>
   <trkpt lat="-3.0784730" lon="37.3632420">
    <ele>5703.9</ele>
    <time>2026-06-23T03:37:49Z</time>
   </trkpt>
   <trkpt lat="-3.0784720" lon="37.3632430">
    <ele>5703.9</ele>
    <time>2026-06-23T03:37:50Z</time>
   </trkpt>
   <trkpt lat="-3.0784710" lon="37.3632420">
    <ele>5703.9</ele>
    <time>2026-06-23T03:37:51Z</time>
   </trkpt>
   <trkpt lat="-3.0784700" lon="37.3632430">
    <ele>5704.0</ele>
    <time>2026-06-23T03:37:52Z</time>
   </trkpt>
   <trkpt lat="-3.0784680" lon="37.3632410">
    <ele>5704.1</ele>
    <time>2026-06-23T03:37:53Z</time>
   </trkpt>
   <trkpt lat="-3.0784670" lon="37.3632420">
    <ele>5704.1</ele>
    <time>2026-06-23T03:37:54Z</time>
   </trkpt>
   <trkpt lat="-3.0784650" lon="37.3632410">
    <ele>5704.2</ele>
    <time>2026-06-23T03:37:55Z</time>
   </trkpt>
   <trkpt lat="-3.0784640" lon="37.3632420">
    <ele>5704.2</ele>
    <time>2026-06-23T03:37:56Z</time>
   </trkpt>
   <trkpt lat="-3.0784630" lon="37.3632410">
    <ele>5704.3</ele>
    <time>2026-06-23T03:37:57Z</time>
   </trkpt>
   <trkpt lat="-3.0784600" lon="37.3632410">
    <ele>5704.4</ele>
    <time>2026-06-23T03:37:58Z</time>
   </trkpt>
   <trkpt lat="-3.0784580" lon="37.3632400">
    <ele>5704.4</ele>
    <time>2026-06-23T03:37:59Z</time>
   </trkpt>
   <trkpt lat="-3.0784560" lon="37.3632380">
    <ele>5704.5</ele>
    <time>2026-06-23T03:38:00Z</time>
   </trkpt>
   <trkpt lat="-3.0784560" lon="37.3632390">
    <ele>5704.5</ele>
    <time>2026-06-23T03:38:01Z</time>
   </trkpt>
   <trkpt lat="-3.0784550" lon="37.3632380">
    <ele>5704.6</ele>
    <time>2026-06-23T03:38:02Z</time>
   </trkpt>
   <trkpt lat="-3.0784530" lon="37.3632370">
    <ele>5704.7</ele>
    <time>2026-06-23T03:38:03Z</time>
   </trkpt>
   <trkpt lat="-3.0784520" lon="37.3632350">
    <ele>5704.7</ele>
    <time>2026-06-23T03:38:04Z</time>
   </trkpt>
   <trkpt lat="-3.0784510" lon="37.3632340">
    <ele>5704.8</ele>
    <time>2026-06-23T03:38:05Z</time>
   </trkpt>
   <trkpt lat="-3.0784480" lon="37.3632350">
    <ele>5704.9</ele>
    <time>2026-06-23T03:38:06Z</time>
   </trkpt>
   <trkpt lat="-3.0784470" lon="37.3632340">
    <ele>5704.9</ele>
    <time>2026-06-23T03:38:07Z</time>
   </trkpt>
   <trkpt lat="-3.0784460" lon="37.3632320">
    <ele>5705.0</ele>
    <time>2026-06-23T03:38:08Z</time>
   </trkpt>
   <trkpt lat="-3.0784450" lon="37.3632330">
    <ele>5705.0</ele>
    <time>2026-06-23T03:38:09Z</time>
   </trkpt>
   <trkpt lat="-3.0784430" lon="37.3632310">
    <ele>5705.1</ele>
    <time>2026-06-23T03:38:10Z</time>
   </trkpt>
   <trkpt lat="-3.0784410" lon="37.3632300">
    <ele>5705.2</ele>
    <time>2026-06-23T03:38:11Z</time>
   </trkpt>
   <trkpt lat="-3.0784380" lon="37.3632300">
    <ele>5705.3</ele>
    <time>2026-06-23T03:38:12Z</time>
   </trkpt>
   <trkpt lat="-3.0784370" lon="37.3632310">
    <ele>5705.3</ele>
    <time>2026-06-23T03:38:13Z</time>
   </trkpt>
   <trkpt lat="-3.0784350" lon="37.3632300">
    <ele>5705.4</ele>
    <time>2026-06-23T03:38:14Z</time>
   </trkpt>
   <trkpt lat="-3.0784350" lon="37.3632300">
    <ele>5705.4</ele>
    <time>2026-06-23T03:38:15Z</time>
   </trkpt>
   <trkpt lat="-3.0784320" lon="37.3632290">
    <ele>5705.5</ele>
    <time>2026-06-23T03:38:16Z</time>
   </trkpt>
   <trkpt lat="-3.0784310" lon="37.3632280">
    <ele>5705.5</ele>
    <time>2026-06-23T03:38:17Z</time>
   </trkpt>
   <trkpt lat="-3.0784300" lon="37.3632290">
    <ele>5705.5</ele>
    <time>2026-06-23T03:38:18Z</time>
   </trkpt>
   <trkpt lat="-3.0784290" lon="37.3632290">
    <ele>5705.6</ele>
    <time>2026-06-23T03:38:19Z</time>
   </trkpt>
   <trkpt lat="-3.0784290" lon="37.3632290">
    <ele>5705.6</ele>
    <time>2026-06-23T03:38:20Z</time>
   </trkpt>
   <trkpt lat="-3.0784260" lon="37.3632280">
    <ele>5705.7</ele>
    <time>2026-06-23T03:38:21Z</time>
   </trkpt>
   <trkpt lat="-3.0784250" lon="37.3632280">
    <ele>5705.7</ele>
    <time>2026-06-23T03:38:22Z</time>
   </trkpt>
   <trkpt lat="-3.0784240" lon="37.3632290">
    <ele>5705.7</ele>
    <time>2026-06-23T03:38:23Z</time>
   </trkpt>
   <trkpt lat="-3.0784220" lon="37.3632300">
    <ele>5705.8</ele>
    <time>2026-06-23T03:38:24Z</time>
   </trkpt>
   <trkpt lat="-3.0784190" lon="37.3632290">
    <ele>5705.9</ele>
    <time>2026-06-23T03:38:25Z</time>
   </trkpt>
   <trkpt lat="-3.0784170" lon="37.3632300">
    <ele>5706.0</ele>
    <time>2026-06-23T03:38:26Z</time>
   </trkpt>
   <trkpt lat="-3.0784150" lon="37.3632300">
    <ele>5706.0</ele>
    <time>2026-06-23T03:38:27Z</time>
   </trkpt>
   <trkpt lat="-3.0784140" lon="37.3632310">
    <ele>5706.1</ele>
    <time>2026-06-23T03:38:28Z</time>
   </trkpt>
   <trkpt lat="-3.0784110" lon="37.3632300">
    <ele>5706.2</ele>
    <time>2026-06-23T03:38:29Z</time>
   </trkpt>
   <trkpt lat="-3.0784100" lon="37.3632310">
    <ele>5706.2</ele>
    <time>2026-06-23T03:38:30Z</time>
   </trkpt>
   <trkpt lat="-3.0784100" lon="37.3632310">
    <ele>5706.2</ele>
    <time>2026-06-23T03:38:31Z</time>
   </trkpt>
   <trkpt lat="-3.0784100" lon="37.3632310">
    <ele>5706.2</ele>
    <time>2026-06-23T03:38:32Z</time>
   </trkpt>
   <trkpt lat="-3.0784060" lon="37.3632310">
    <ele>5706.3</ele>
    <time>2026-06-23T03:38:33Z</time>
   </trkpt>
   <trkpt lat="-3.0784030" lon="37.3632300">
    <ele>5706.4</ele>
    <time>2026-06-23T03:38:34Z</time>
   </trkpt>
   <trkpt lat="-3.0784030" lon="37.3632310">
    <ele>5706.5</ele>
    <time>2026-06-23T03:38:35Z</time>
   </trkpt>
   <trkpt lat="-3.0784010" lon="37.3632300">
    <ele>5706.5</ele>
    <time>2026-06-23T03:38:36Z</time>
   </trkpt>
   <trkpt lat="-3.0783990" lon="37.3632310">
    <ele>5706.6</ele>
    <time>2026-06-23T03:38:37Z</time>
   </trkpt>
   <trkpt lat="-3.0783980" lon="37.3632300">
    <ele>5706.6</ele>
    <time>2026-06-23T03:38:38Z</time>
   </trkpt>
   <trkpt lat="-3.0783970" lon="37.3632320">
    <ele>5706.7</ele>
    <time>2026-06-23T03:38:39Z</time>
   </trkpt>
   <trkpt lat="-3.0783950" lon="37.3632300">
    <ele>5706.8</ele>
    <time>2026-06-23T03:38:40Z</time>
   </trkpt>
   <trkpt lat="-3.0783930" lon="37.3632310">
    <ele>5706.9</ele>
    <time>2026-06-23T03:38:41Z</time>
   </trkpt>
   <trkpt lat="-3.0783940" lon="37.3632310">
    <ele>5706.9</ele>
    <time>2026-06-23T03:38:42Z</time>
   </trkpt>
   <trkpt lat="-3.0783910" lon="37.3632310">
    <ele>5707.0</ele>
    <time>2026-06-23T03:38:43Z</time>
   </trkpt>
   <trkpt lat="-3.0783910" lon="37.3632300">
    <ele>5707.0</ele>
    <time>2026-06-23T03:38:44Z</time>
   </trkpt>
   <trkpt lat="-3.0783900" lon="37.3632310">
    <ele>5707.1</ele>
    <time>2026-06-23T03:38:45Z</time>
   </trkpt>
   <trkpt lat="-3.0783890" lon="37.3632310">
    <ele>5707.1</ele>
    <time>2026-06-23T03:38:46Z</time>
   </trkpt>
   <trkpt lat="-3.0783880" lon="37.3632310">
    <ele>5707.1</ele>
    <time>2026-06-23T03:38:47Z</time>
   </trkpt>
   <trkpt lat="-3.0783860" lon="37.3632300">
    <ele>5707.2</ele>
    <time>2026-06-23T03:38:48Z</time>
   </trkpt>
   <trkpt lat="-3.0783850" lon="37.3632310">
    <ele>5707.2</ele>
    <time>2026-06-23T03:38:49Z</time>
   </trkpt>
   <trkpt lat="-3.0783840" lon="37.3632320">
    <ele>5707.3</ele>
    <time>2026-06-23T03:38:50Z</time>
   </trkpt>
   <trkpt lat="-3.0783840" lon="37.3632300">
    <ele>5707.3</ele>
    <time>2026-06-23T03:38:51Z</time>
   </trkpt>
   <trkpt lat="-3.0783810" lon="37.3632290">
    <ele>5707.4</ele>
    <time>2026-06-23T03:38:52Z</time>
   </trkpt>
   <trkpt lat="-3.0783810" lon="37.3632290">
    <ele>5707.4</ele>
    <time>2026-06-23T03:38:53Z</time>
   </trkpt>
   <trkpt lat="-3.0783790" lon="37.3632290">
    <ele>5707.5</ele>
    <time>2026-06-23T03:38:54Z</time>
   </trkpt>
   <trkpt lat="-3.0783780" lon="37.3632290">
    <ele>5707.5</ele>
    <time>2026-06-23T03:38:55Z</time>
   </trkpt>
   <trkpt lat="-3.0783770" lon="37.3632290">
    <ele>5707.5</ele>
    <time>2026-06-23T03:38:56Z</time>
   </trkpt>
   <trkpt lat="-3.0783760" lon="37.3632280">
    <ele>5707.6</ele>
    <time>2026-06-23T03:38:57Z</time>
   </trkpt>
   <trkpt lat="-3.0783750" lon="37.3632270">
    <ele>5707.6</ele>
    <time>2026-06-23T03:38:58Z</time>
   </trkpt>
   <trkpt lat="-3.0783720" lon="37.3632270">
    <ele>5707.7</ele>
    <time>2026-06-23T03:38:59Z</time>
   </trkpt>
   <trkpt lat="-3.0783710" lon="37.3632270">
    <ele>5707.8</ele>
    <time>2026-06-23T03:39:00Z</time>
   </trkpt>
   <trkpt lat="-3.0783710" lon="37.3632280">
    <ele>5707.8</ele>
    <time>2026-06-23T03:39:01Z</time>
   </trkpt>
   <trkpt lat="-3.0783670" lon="37.3632270">
    <ele>5707.9</ele>
    <time>2026-06-23T03:39:02Z</time>
   </trkpt>
   <trkpt lat="-3.0783670" lon="37.3632280">
    <ele>5707.9</ele>
    <time>2026-06-23T03:39:03Z</time>
   </trkpt>
   <trkpt lat="-3.0783630" lon="37.3632270">
    <ele>5708.1</ele>
    <time>2026-06-23T03:39:04Z</time>
   </trkpt>
   <trkpt lat="-3.0783630" lon="37.3632270">
    <ele>5708.1</ele>
    <time>2026-06-23T03:39:05Z</time>
   </trkpt>
   <trkpt lat="-3.0783600" lon="37.3632260">
    <ele>5708.2</ele>
    <time>2026-06-23T03:39:06Z</time>
   </trkpt>
   <trkpt lat="-3.0783580" lon="37.3632260">
    <ele>5708.2</ele>
    <time>2026-06-23T03:39:07Z</time>
   </trkpt>
   <trkpt lat="-3.0783590" lon="37.3632250">
    <ele>5708.3</ele>
    <time>2026-06-23T03:39:08Z</time>
   </trkpt>
   <trkpt lat="-3.0783560" lon="37.3632250">
    <ele>5708.3</ele>
    <time>2026-06-23T03:39:09Z</time>
   </trkpt>
   <trkpt lat="-3.0783570" lon="37.3632250">
    <ele>5708.4</ele>
    <time>2026-06-23T03:39:10Z</time>
   </trkpt>
   <trkpt lat="-3.0783560" lon="37.3632240">
    <ele>5708.4</ele>
    <time>2026-06-23T03:39:11Z</time>
   </trkpt>
   <trkpt lat="-3.0783530" lon="37.3632240">
    <ele>5708.5</ele>
    <time>2026-06-23T03:39:12Z</time>
   </trkpt>
   <trkpt lat="-3.0783530" lon="37.3632220">
    <ele>5708.6</ele>
    <time>2026-06-23T03:39:13Z</time>
   </trkpt>
   <trkpt lat="-3.0783500" lon="37.3632220">
    <ele>5708.7</ele>
    <time>2026-06-23T03:39:14Z</time>
   </trkpt>
   <trkpt lat="-3.0783490" lon="37.3632190">
    <ele>5708.8</ele>
    <time>2026-06-23T03:39:15Z</time>
   </trkpt>
   <trkpt lat="-3.0783480" lon="37.3632180">
    <ele>5708.8</ele>
    <time>2026-06-23T03:39:16Z</time>
   </trkpt>
   <trkpt lat="-3.0783470" lon="37.3632180">
    <ele>5708.8</ele>
    <time>2026-06-23T03:39:17Z</time>
   </trkpt>
   <trkpt lat="-3.0783450" lon="37.3632160">
    <ele>5708.9</ele>
    <time>2026-06-23T03:39:18Z</time>
   </trkpt>
   <trkpt lat="-3.0783450" lon="37.3632150">
    <ele>5708.9</ele>
    <time>2026-06-23T03:39:19Z</time>
   </trkpt>
   <trkpt lat="-3.0783430" lon="37.3632130">
    <ele>5709.0</ele>
    <time>2026-06-23T03:39:20Z</time>
   </trkpt>
   <trkpt lat="-3.0783430" lon="37.3632120">
    <ele>5709.1</ele>
    <time>2026-06-23T03:39:21Z</time>
   </trkpt>
   <trkpt lat="-3.0783440" lon="37.3632110">
    <ele>5709.1</ele>
    <time>2026-06-23T03:39:22Z</time>
   </trkpt>
   <trkpt lat="-3.0783420" lon="37.3632080">
    <ele>5709.2</ele>
    <time>2026-06-23T03:39:23Z</time>
   </trkpt>
   <trkpt lat="-3.0783430" lon="37.3632060">
    <ele>5709.3</ele>
    <time>2026-06-23T03:39:24Z</time>
   </trkpt>
   <trkpt lat="-3.0783410" lon="37.3632050">
    <ele>5709.3</ele>
    <time>2026-06-23T03:39:25Z</time>
   </trkpt>
   <trkpt lat="-3.0783420" lon="37.3632030">
    <ele>5709.4</ele>
    <time>2026-06-23T03:39:26Z</time>
   </trkpt>
   <trkpt lat="-3.0783410" lon="37.3632020">
    <ele>5709.5</ele>
    <time>2026-06-23T03:39:27Z</time>
   </trkpt>
   <trkpt lat="-3.0783400" lon="37.3632000">
    <ele>5709.5</ele>
    <time>2026-06-23T03:39:28Z</time>
   </trkpt>
   <trkpt lat="-3.0783390" lon="37.3631980">
    <ele>5709.6</ele>
    <time>2026-06-23T03:39:29Z</time>
   </trkpt>
   <trkpt lat="-3.0783360" lon="37.3631970">
    <ele>5709.7</ele>
    <time>2026-06-23T03:39:30Z</time>
   </trkpt>
   <trkpt lat="-3.0783370" lon="37.3631940">
    <ele>5709.8</ele>
    <time>2026-06-23T03:39:31Z</time>
   </trkpt>
   <trkpt lat="-3.0783350" lon="37.3631960">
    <ele>5709.9</ele>
    <time>2026-06-23T03:39:32Z</time>
   </trkpt>
   <trkpt lat="-3.0783360" lon="37.3631960">
    <ele>5709.9</ele>
    <time>2026-06-23T03:39:33Z</time>
   </trkpt>
   <trkpt lat="-3.0783360" lon="37.3631950">
    <ele>5709.9</ele>
    <time>2026-06-23T03:39:34Z</time>
   </trkpt>
   <trkpt lat="-3.0783360" lon="37.3631950">
    <ele>5709.9</ele>
    <time>2026-06-23T03:39:35Z</time>
   </trkpt>
   <trkpt lat="-3.0783360" lon="37.3631930">
    <ele>5710.0</ele>
    <time>2026-06-23T03:39:36Z</time>
   </trkpt>
   <trkpt lat="-3.0783350" lon="37.3631920">
    <ele>5710.0</ele>
    <time>2026-06-23T03:39:37Z</time>
   </trkpt>
   <trkpt lat="-3.0783370" lon="37.3631890">
    <ele>5710.1</ele>
    <time>2026-06-23T03:39:38Z</time>
   </trkpt>
   <trkpt lat="-3.0783370" lon="37.3631860">
    <ele>5710.2</ele>
    <time>2026-06-23T03:39:39Z</time>
   </trkpt>
   <trkpt lat="-3.0783370" lon="37.3631850">
    <ele>5710.3</ele>
    <time>2026-06-23T03:39:40Z</time>
   </trkpt>
   <trkpt lat="-3.0783360" lon="37.3631830">
    <ele>5710.3</ele>
    <time>2026-06-23T03:39:41Z</time>
   </trkpt>
   <trkpt lat="-3.0783360" lon="37.3631810">
    <ele>5710.4</ele>
    <time>2026-06-23T03:39:42Z</time>
   </trkpt>
   <trkpt lat="-3.0783360" lon="37.3631760">
    <ele>5710.5</ele>
    <time>2026-06-23T03:39:43Z</time>
   </trkpt>
   <trkpt lat="-3.0783360" lon="37.3631760">
    <ele>5710.5</ele>
    <time>2026-06-23T03:39:44Z</time>
   </trkpt>
   <trkpt lat="-3.0783370" lon="37.3631730">
    <ele>5710.6</ele>
    <time>2026-06-23T03:39:45Z</time>
   </trkpt>
   <trkpt lat="-3.0783380" lon="37.3631710">
    <ele>5710.7</ele>
    <time>2026-06-23T03:39:46Z</time>
   </trkpt>
   <trkpt lat="-3.0783360" lon="37.3631680">
    <ele>5710.8</ele>
    <time>2026-06-23T03:39:47Z</time>
   </trkpt>
   <trkpt lat="-3.0783380" lon="37.3631650">
    <ele>5710.9</ele>
    <time>2026-06-23T03:39:48Z</time>
   </trkpt>
   <trkpt lat="-3.0783370" lon="37.3631620">
    <ele>5711.0</ele>
    <time>2026-06-23T03:39:49Z</time>
   </trkpt>
   <trkpt lat="-3.0783390" lon="37.3631630">
    <ele>5711.1</ele>
    <time>2026-06-23T03:39:50Z</time>
   </trkpt>
   <trkpt lat="-3.0783390" lon="37.3631620">
    <ele>5711.1</ele>
    <time>2026-06-23T03:39:51Z</time>
   </trkpt>
   <trkpt lat="-3.0783400" lon="37.3631630">
    <ele>5711.2</ele>
    <time>2026-06-23T03:39:52Z</time>
   </trkpt>
   <trkpt lat="-3.0783400" lon="37.3631630">
    <ele>5711.2</ele>
    <time>2026-06-23T03:39:53Z</time>
   </trkpt>
   <trkpt lat="-3.0783400" lon="37.3631630">
    <ele>5711.2</ele>
    <time>2026-06-23T03:39:54Z</time>
   </trkpt>
   <trkpt lat="-3.0783400" lon="37.3631620">
    <ele>5711.2</ele>
    <time>2026-06-23T03:39:55Z</time>
   </trkpt>
   <trkpt lat="-3.0783400" lon="37.3631620">
    <ele>5711.2</ele>
    <time>2026-06-23T03:39:56Z</time>
   </trkpt>
   <trkpt lat="-3.0783390" lon="37.3631580">
    <ele>5711.3</ele>
    <time>2026-06-23T03:39:57Z</time>
   </trkpt>
   <trkpt lat="-3.0783390" lon="37.3631560">
    <ele>5711.4</ele>
    <time>2026-06-23T03:39:58Z</time>
   </trkpt>
   <trkpt lat="-3.0783380" lon="37.3631530">
    <ele>5711.5</ele>
    <time>2026-06-23T03:39:59Z</time>
   </trkpt>
   <trkpt lat="-3.0783370" lon="37.3631500">
    <ele>5711.6</ele>
    <time>2026-06-23T03:40:00Z</time>
   </trkpt>
   <trkpt lat="-3.0783370" lon="37.3631470">
    <ele>5711.7</ele>
    <time>2026-06-23T03:40:01Z</time>
   </trkpt>
   <trkpt lat="-3.0783370" lon="37.3631460">
    <ele>5711.7</ele>
    <time>2026-06-23T03:40:02Z</time>
   </trkpt>
   <trkpt lat="-3.0783360" lon="37.3631440">
    <ele>5711.8</ele>
    <time>2026-06-23T03:40:03Z</time>
   </trkpt>
   <trkpt lat="-3.0783370" lon="37.3631440">
    <ele>5711.8</ele>
    <time>2026-06-23T03:40:04Z</time>
   </trkpt>
   <trkpt lat="-3.0783370" lon="37.3631440">
    <ele>5711.8</ele>
    <time>2026-06-23T03:40:05Z</time>
   </trkpt>
   <trkpt lat="-3.0783370" lon="37.3631440">
    <ele>5711.8</ele>
    <time>2026-06-23T03:40:06Z</time>
   </trkpt>
   <trkpt lat="-3.0783370" lon="37.3631440">
    <ele>5711.8</ele>
    <time>2026-06-23T03:40:07Z</time>
   </trkpt>
   <trkpt lat="-3.0783380" lon="37.3631410">
    <ele>5711.9</ele>
    <time>2026-06-23T03:40:08Z</time>
   </trkpt>
   <trkpt lat="-3.0783370" lon="37.3631410">
    <ele>5711.9</ele>
    <time>2026-06-23T03:40:09Z</time>
   </trkpt>
   <trkpt lat="-3.0783370" lon="37.3631400">
    <ele>5711.9</ele>
    <time>2026-06-23T03:40:10Z</time>
   </trkpt>
   <trkpt lat="-3.0783370" lon="37.3631410">
    <ele>5712.0</ele>
    <time>2026-06-23T03:40:11Z</time>
   </trkpt>
   <trkpt lat="-3.0783380" lon="37.3631410">
    <ele>5712.0</ele>
    <time>2026-06-23T03:40:12Z</time>
   </trkpt>
   <trkpt lat="-3.0783380" lon="37.3631400">
    <ele>5712.0</ele>
    <time>2026-06-23T03:40:13Z</time>
   </trkpt>
   <trkpt lat="-3.0783400" lon="37.3631390">
    <ele>5712.1</ele>
    <time>2026-06-23T03:40:14Z</time>
   </trkpt>
   <trkpt lat="-3.0783380" lon="37.3631370">
    <ele>5712.2</ele>
    <time>2026-06-23T03:40:15Z</time>
   </trkpt>
   <trkpt lat="-3.0783390" lon="37.3631350">
    <ele>5712.2</ele>
    <time>2026-06-23T03:40:16Z</time>
   </trkpt>
   <trkpt lat="-3.0783360" lon="37.3631340">
    <ele>5712.3</ele>
    <time>2026-06-23T03:40:17Z</time>
   </trkpt>
   <trkpt lat="-3.0783380" lon="37.3631320">
    <ele>5712.4</ele>
    <time>2026-06-23T03:40:18Z</time>
   </trkpt>
   <trkpt lat="-3.0783370" lon="37.3631300">
    <ele>5712.5</ele>
    <time>2026-06-23T03:40:19Z</time>
   </trkpt>
   <trkpt lat="-3.0783380" lon="37.3631290">
    <ele>5712.5</ele>
    <time>2026-06-23T03:40:20Z</time>
   </trkpt>
   <trkpt lat="-3.0783380" lon="37.3631270">
    <ele>5712.6</ele>
    <time>2026-06-23T03:40:21Z</time>
   </trkpt>
   <trkpt lat="-3.0783370" lon="37.3631250">
    <ele>5712.7</ele>
    <time>2026-06-23T03:40:22Z</time>
   </trkpt>
   <trkpt lat="-3.0783360" lon="37.3631220">
    <ele>5712.8</ele>
    <time>2026-06-23T03:40:23Z</time>
   </trkpt>
   <trkpt lat="-3.0783380" lon="37.3631200">
    <ele>5712.8</ele>
    <time>2026-06-23T03:40:24Z</time>
   </trkpt>
   <trkpt lat="-3.0783360" lon="37.3631180">
    <ele>5712.9</ele>
    <time>2026-06-23T03:40:25Z</time>
   </trkpt>
   <trkpt lat="-3.0783370" lon="37.3631170">
    <ele>5713.0</ele>
    <time>2026-06-23T03:40:26Z</time>
   </trkpt>
   <trkpt lat="-3.0783380" lon="37.3631150">
    <ele>5713.0</ele>
    <time>2026-06-23T03:40:27Z</time>
   </trkpt>
   <trkpt lat="-3.0783370" lon="37.3631140">
    <ele>5713.1</ele>
    <time>2026-06-23T03:40:28Z</time>
   </trkpt>
   <trkpt lat="-3.0783390" lon="37.3631120">
    <ele>5713.2</ele>
    <time>2026-06-23T03:40:29Z</time>
   </trkpt>
   <trkpt lat="-3.0783400" lon="37.3631120">
    <ele>5713.2</ele>
    <time>2026-06-23T03:40:30Z</time>
   </trkpt>
   <trkpt lat="-3.0783400" lon="37.3631100">
    <ele>5713.3</ele>
    <time>2026-06-23T03:40:31Z</time>
   </trkpt>
   <trkpt lat="-3.0783400" lon="37.3631070">
    <ele>5713.4</ele>
    <time>2026-06-23T03:40:32Z</time>
   </trkpt>
   <trkpt lat="-3.0783420" lon="37.3631060">
    <ele>5713.4</ele>
    <time>2026-06-23T03:40:33Z</time>
   </trkpt>
   <trkpt lat="-3.0783440" lon="37.3631050">
    <ele>5713.5</ele>
    <time>2026-06-23T03:40:34Z</time>
   </trkpt>
   <trkpt lat="-3.0783450" lon="37.3631030">
    <ele>5713.6</ele>
    <time>2026-06-23T03:40:35Z</time>
   </trkpt>
   <trkpt lat="-3.0783450" lon="37.3631020">
    <ele>5713.6</ele>
    <time>2026-06-23T03:40:36Z</time>
   </trkpt>
   <trkpt lat="-3.0783470" lon="37.3631000">
    <ele>5713.7</ele>
    <time>2026-06-23T03:40:37Z</time>
   </trkpt>
   <trkpt lat="-3.0783470" lon="37.3630980">
    <ele>5713.7</ele>
    <time>2026-06-23T03:40:38Z</time>
   </trkpt>
   <trkpt lat="-3.0783470" lon="37.3630980">
    <ele>5713.7</ele>
    <time>2026-06-23T03:40:39Z</time>
   </trkpt>
   <trkpt lat="-3.0783470" lon="37.3630960">
    <ele>5713.8</ele>
    <time>2026-06-23T03:40:40Z</time>
   </trkpt>
   <trkpt lat="-3.0783480" lon="37.3630940">
    <ele>5713.9</ele>
    <time>2026-06-23T03:40:41Z</time>
   </trkpt>
   <trkpt lat="-3.0783470" lon="37.3630940">
    <ele>5713.9</ele>
    <time>2026-06-23T03:40:42Z</time>
   </trkpt>
   <trkpt lat="-3.0783470" lon="37.3630920">
    <ele>5713.9</ele>
    <time>2026-06-23T03:40:43Z</time>
   </trkpt>
   <trkpt lat="-3.0783470" lon="37.3630930">
    <ele>5714.0</ele>
    <time>2026-06-23T03:40:44Z</time>
   </trkpt>
   <trkpt lat="-3.0783470" lon="37.3630930">
    <ele>5714.0</ele>
    <time>2026-06-23T03:40:45Z</time>
   </trkpt>
   <trkpt lat="-3.0783470" lon="37.3630930">
    <ele>5714.0</ele>
    <time>2026-06-23T03:40:46Z</time>
   </trkpt>
   <trkpt lat="-3.0783470" lon="37.3630930">
    <ele>5714.0</ele>
    <time>2026-06-23T03:40:47Z</time>
   </trkpt>
   <trkpt lat="-3.0783470" lon="37.3630930">
    <ele>5714.0</ele>
    <time>2026-06-23T03:40:48Z</time>
   </trkpt>
   <trkpt lat="-3.0783460" lon="37.3630940">
    <ele>5714.0</ele>
    <time>2026-06-23T03:40:49Z</time>
   </trkpt>
   <trkpt lat="-3.0783470" lon="37.3630950">
    <ele>5714.1</ele>
    <time>2026-06-23T03:40:50Z</time>
   </trkpt>
   <trkpt lat="-3.0783470" lon="37.3630940">
    <ele>5714.1</ele>
    <time>2026-06-23T03:40:51Z</time>
   </trkpt>
   <trkpt lat="-3.0783470" lon="37.3630930">
    <ele>5714.1</ele>
    <time>2026-06-23T03:40:52Z</time>
   </trkpt>
   <trkpt lat="-3.0783470" lon="37.3630910">
    <ele>5714.2</ele>
    <time>2026-06-23T03:40:53Z</time>
   </trkpt>
   <trkpt lat="-3.0783480" lon="37.3630880">
    <ele>5714.3</ele>
    <time>2026-06-23T03:40:54Z</time>
   </trkpt>
   <trkpt lat="-3.0783480" lon="37.3630880">
    <ele>5714.3</ele>
    <time>2026-06-23T03:40:55Z</time>
   </trkpt>
   <trkpt lat="-3.0783470" lon="37.3630880">
    <ele>5714.3</ele>
    <time>2026-06-23T03:40:56Z</time>
   </trkpt>
   <trkpt lat="-3.0783470" lon="37.3630890">
    <ele>5714.3</ele>
    <time>2026-06-23T03:40:57Z</time>
   </trkpt>
   <trkpt lat="-3.0783470" lon="37.3630890">
    <ele>5714.3</ele>
    <time>2026-06-23T03:40:58Z</time>
   </trkpt>
   <trkpt lat="-3.0783450" lon="37.3630880">
    <ele>5714.4</ele>
    <time>2026-06-23T03:40:59Z</time>
   </trkpt>
   <trkpt lat="-3.0783460" lon="37.3630880">
    <ele>5714.4</ele>
    <time>2026-06-23T03:41:00Z</time>
   </trkpt>
   <trkpt lat="-3.0783460" lon="37.3630880">
    <ele>5714.4</ele>
    <time>2026-06-23T03:41:01Z</time>
   </trkpt>
   <trkpt lat="-3.0783460" lon="37.3630890">
    <ele>5714.5</ele>
    <time>2026-06-23T03:41:02Z</time>
   </trkpt>
   <trkpt lat="-3.0783450" lon="37.3630880">
    <ele>5714.5</ele>
    <time>2026-06-23T03:41:03Z</time>
   </trkpt>
   <trkpt lat="-3.0783460" lon="37.3630870">
    <ele>5714.6</ele>
    <time>2026-06-23T03:41:04Z</time>
   </trkpt>
   <trkpt lat="-3.0783460" lon="37.3630850">
    <ele>5714.6</ele>
    <time>2026-06-23T03:41:05Z</time>
   </trkpt>
   <trkpt lat="-3.0783460" lon="37.3630810">
    <ele>5714.8</ele>
    <time>2026-06-23T03:41:06Z</time>
   </trkpt>
   <trkpt lat="-3.0783460" lon="37.3630790">
    <ele>5714.8</ele>
    <time>2026-06-23T03:41:07Z</time>
   </trkpt>
   <trkpt lat="-3.0783450" lon="37.3630770">
    <ele>5714.9</ele>
    <time>2026-06-23T03:41:08Z</time>
   </trkpt>
   <trkpt lat="-3.0783460" lon="37.3630760">
    <ele>5714.9</ele>
    <time>2026-06-23T03:41:09Z</time>
   </trkpt>
   <trkpt lat="-3.0783480" lon="37.3630750">
    <ele>5715.0</ele>
    <time>2026-06-23T03:41:10Z</time>
   </trkpt>
   <trkpt lat="-3.0783470" lon="37.3630750">
    <ele>5715.0</ele>
    <time>2026-06-23T03:41:11Z</time>
   </trkpt>
   <trkpt lat="-3.0783440" lon="37.3630740">
    <ele>5715.1</ele>
    <time>2026-06-23T03:41:12Z</time>
   </trkpt>
   <trkpt lat="-3.0783450" lon="37.3630730">
    <ele>5715.2</ele>
    <time>2026-06-23T03:41:13Z</time>
   </trkpt>
   <trkpt lat="-3.0783450" lon="37.3630710">
    <ele>5715.2</ele>
    <time>2026-06-23T03:41:14Z</time>
   </trkpt>
   <trkpt lat="-3.0783450" lon="37.3630690">
    <ele>5715.3</ele>
    <time>2026-06-23T03:41:15Z</time>
   </trkpt>
   <trkpt lat="-3.0783440" lon="37.3630670">
    <ele>5715.4</ele>
    <time>2026-06-23T03:41:16Z</time>
   </trkpt>
   <trkpt lat="-3.0783460" lon="37.3630650">
    <ele>5715.4</ele>
    <time>2026-06-23T03:41:17Z</time>
   </trkpt>
   <trkpt lat="-3.0783470" lon="37.3630640">
    <ele>5715.5</ele>
    <time>2026-06-23T03:41:18Z</time>
   </trkpt>
   <trkpt lat="-3.0783460" lon="37.3630620">
    <ele>5715.6</ele>
    <time>2026-06-23T03:41:19Z</time>
   </trkpt>
   <trkpt lat="-3.0783460" lon="37.3630610">
    <ele>5715.6</ele>
    <time>2026-06-23T03:41:20Z</time>
   </trkpt>
   <trkpt lat="-3.0783460" lon="37.3630590">
    <ele>5715.7</ele>
    <time>2026-06-23T03:41:21Z</time>
   </trkpt>
   <trkpt lat="-3.0783460" lon="37.3630580">
    <ele>5715.7</ele>
    <time>2026-06-23T03:41:22Z</time>
   </trkpt>
   <trkpt lat="-3.0783470" lon="37.3630580">
    <ele>5715.7</ele>
    <time>2026-06-23T03:41:23Z</time>
   </trkpt>
   <trkpt lat="-3.0783470" lon="37.3630550">
    <ele>5715.8</ele>
    <time>2026-06-23T03:41:24Z</time>
   </trkpt>
   <trkpt lat="-3.0783450" lon="37.3630560">
    <ele>5715.9</ele>
    <time>2026-06-23T03:41:25Z</time>
   </trkpt>
   <trkpt lat="-3.0783450" lon="37.3630530">
    <ele>5716.0</ele>
    <time>2026-06-23T03:41:26Z</time>
   </trkpt>
   <trkpt lat="-3.0783460" lon="37.3630520">
    <ele>5716.0</ele>
    <time>2026-06-23T03:41:27Z</time>
   </trkpt>
   <trkpt lat="-3.0783480" lon="37.3630500">
    <ele>5716.1</ele>
    <time>2026-06-23T03:41:28Z</time>
   </trkpt>
   <trkpt lat="-3.0783490" lon="37.3630480">
    <ele>5716.2</ele>
    <time>2026-06-23T03:41:29Z</time>
   </trkpt>
   <trkpt lat="-3.0783510" lon="37.3630470">
    <ele>5716.2</ele>
    <time>2026-06-23T03:41:30Z</time>
   </trkpt>
   <trkpt lat="-3.0783530" lon="37.3630430">
    <ele>5716.4</ele>
    <time>2026-06-23T03:41:31Z</time>
   </trkpt>
   <trkpt lat="-3.0783510" lon="37.3630400">
    <ele>5716.5</ele>
    <time>2026-06-23T03:41:32Z</time>
   </trkpt>
   <trkpt lat="-3.0783510" lon="37.3630380">
    <ele>5716.6</ele>
    <time>2026-06-23T03:41:33Z</time>
   </trkpt>
   <trkpt lat="-3.0783490" lon="37.3630380">
    <ele>5716.6</ele>
    <time>2026-06-23T03:41:34Z</time>
   </trkpt>
   <trkpt lat="-3.0783490" lon="37.3630380">
    <ele>5716.6</ele>
    <time>2026-06-23T03:41:35Z</time>
   </trkpt>
   <trkpt lat="-3.0783460" lon="37.3630340">
    <ele>5716.8</ele>
    <time>2026-06-23T03:41:36Z</time>
   </trkpt>
   <trkpt lat="-3.0783460" lon="37.3630340">
    <ele>5716.8</ele>
    <time>2026-06-23T03:41:37Z</time>
   </trkpt>
   <trkpt lat="-3.0783440" lon="37.3630340">
    <ele>5716.8</ele>
    <time>2026-06-23T03:41:38Z</time>
   </trkpt>
   <trkpt lat="-3.0783420" lon="37.3630310">
    <ele>5716.9</ele>
    <time>2026-06-23T03:41:39Z</time>
   </trkpt>
   <trkpt lat="-3.0783400" lon="37.3630310">
    <ele>5717.0</ele>
    <time>2026-06-23T03:41:40Z</time>
   </trkpt>
   <trkpt lat="-3.0783400" lon="37.3630310">
    <ele>5717.0</ele>
    <time>2026-06-23T03:41:41Z</time>
   </trkpt>
   <trkpt lat="-3.0783390" lon="37.3630300">
    <ele>5717.0</ele>
    <time>2026-06-23T03:41:42Z</time>
   </trkpt>
   <trkpt lat="-3.0783400" lon="37.3630290">
    <ele>5717.1</ele>
    <time>2026-06-23T03:41:43Z</time>
   </trkpt>
   <trkpt lat="-3.0783350" lon="37.3630240">
    <ele>5717.3</ele>
    <time>2026-06-23T03:41:44Z</time>
   </trkpt>
   <trkpt lat="-3.0783350" lon="37.3630250">
    <ele>5717.3</ele>
    <time>2026-06-23T03:41:45Z</time>
   </trkpt>
   <trkpt lat="-3.0783360" lon="37.3630250">
    <ele>5717.4</ele>
    <time>2026-06-23T03:41:46Z</time>
   </trkpt>
   <trkpt lat="-3.0783360" lon="37.3630240">
    <ele>5717.4</ele>
    <time>2026-06-23T03:41:47Z</time>
   </trkpt>
   <trkpt lat="-3.0783360" lon="37.3630240">
    <ele>5717.4</ele>
    <time>2026-06-23T03:41:48Z</time>
   </trkpt>
   <trkpt lat="-3.0783360" lon="37.3630240">
    <ele>5717.4</ele>
    <time>2026-06-23T03:41:49Z</time>
   </trkpt>
   <trkpt lat="-3.0783360" lon="37.3630250">
    <ele>5717.4</ele>
    <time>2026-06-23T03:41:50Z</time>
   </trkpt>
   <trkpt lat="-3.0783360" lon="37.3630250">
    <ele>5717.4</ele>
    <time>2026-06-23T03:41:51Z</time>
   </trkpt>
   <trkpt lat="-3.0783360" lon="37.3630250">
    <ele>5717.4</ele>
    <time>2026-06-23T03:41:52Z</time>
   </trkpt>
   <trkpt lat="-3.0783360" lon="37.3630250">
    <ele>5717.4</ele>
    <time>2026-06-23T03:41:53Z</time>
   </trkpt>
   <trkpt lat="-3.0783360" lon="37.3630250">
    <ele>5717.4</ele>
    <time>2026-06-23T03:41:54Z</time>
   </trkpt>
   <trkpt lat="-3.0783370" lon="37.3630230">
    <ele>5717.5</ele>
    <time>2026-06-23T03:41:55Z</time>
   </trkpt>
   <trkpt lat="-3.0783370" lon="37.3630230">
    <ele>5717.5</ele>
    <time>2026-06-23T03:41:56Z</time>
   </trkpt>
   <trkpt lat="-3.0783370" lon="37.3630230">
    <ele>5717.5</ele>
    <time>2026-06-23T03:41:57Z</time>
   </trkpt>
   <trkpt lat="-3.0783370" lon="37.3630210">
    <ele>5717.6</ele>
    <time>2026-06-23T03:41:58Z</time>
   </trkpt>
   <trkpt lat="-3.0783360" lon="37.3630190">
    <ele>5717.6</ele>
    <time>2026-06-23T03:41:59Z</time>
   </trkpt>
   <trkpt lat="-3.0783320" lon="37.3630210">
    <ele>5717.8</ele>
    <time>2026-06-23T03:42:00Z</time>
   </trkpt>
   <trkpt lat="-3.0783320" lon="37.3630210">
    <ele>5717.8</ele>
    <time>2026-06-23T03:42:01Z</time>
   </trkpt>
   <trkpt lat="-3.0783300" lon="37.3630200">
    <ele>5717.8</ele>
    <time>2026-06-23T03:42:02Z</time>
   </trkpt>
   <trkpt lat="-3.0783290" lon="37.3630190">
    <ele>5717.9</ele>
    <time>2026-06-23T03:42:03Z</time>
   </trkpt>
   <trkpt lat="-3.0783250" lon="37.3630180">
    <ele>5718.0</ele>
    <time>2026-06-23T03:42:04Z</time>
   </trkpt>
   <trkpt lat="-3.0783230" lon="37.3630170">
    <ele>5718.1</ele>
    <time>2026-06-23T03:42:05Z</time>
   </trkpt>
   <trkpt lat="-3.0783220" lon="37.3630170">
    <ele>5718.1</ele>
    <time>2026-06-23T03:42:06Z</time>
   </trkpt>
   <trkpt lat="-3.0783210" lon="37.3630190">
    <ele>5718.2</ele>
    <time>2026-06-23T03:42:07Z</time>
   </trkpt>
   <trkpt lat="-3.0783200" lon="37.3630190">
    <ele>5718.2</ele>
    <time>2026-06-23T03:42:08Z</time>
   </trkpt>
   <trkpt lat="-3.0783200" lon="37.3630200">
    <ele>5718.2</ele>
    <time>2026-06-23T03:42:09Z</time>
   </trkpt>
   <trkpt lat="-3.0783170" lon="37.3630190">
    <ele>5718.3</ele>
    <time>2026-06-23T03:42:10Z</time>
   </trkpt>
   <trkpt lat="-3.0783130" lon="37.3630190">
    <ele>5718.5</ele>
    <time>2026-06-23T03:42:11Z</time>
   </trkpt>
   <trkpt lat="-3.0783110" lon="37.3630180">
    <ele>5718.5</ele>
    <time>2026-06-23T03:42:12Z</time>
   </trkpt>
   <trkpt lat="-3.0783110" lon="37.3630210">
    <ele>5718.6</ele>
    <time>2026-06-23T03:42:13Z</time>
   </trkpt>
   <trkpt lat="-3.0783100" lon="37.3630200">
    <ele>5718.7</ele>
    <time>2026-06-23T03:42:14Z</time>
   </trkpt>
   <trkpt lat="-3.0783080" lon="37.3630200">
    <ele>5718.7</ele>
    <time>2026-06-23T03:42:15Z</time>
   </trkpt>
   <trkpt lat="-3.0783050" lon="37.3630200">
    <ele>5718.8</ele>
    <time>2026-06-23T03:42:16Z</time>
   </trkpt>
   <trkpt lat="-3.0783050" lon="37.3630220">
    <ele>5718.9</ele>
    <time>2026-06-23T03:42:17Z</time>
   </trkpt>
   <trkpt lat="-3.0783050" lon="37.3630210">
    <ele>5718.9</ele>
    <time>2026-06-23T03:42:18Z</time>
   </trkpt>
   <trkpt lat="-3.0783040" lon="37.3630220">
    <ele>5719.0</ele>
    <time>2026-06-23T03:42:19Z</time>
   </trkpt>
   <trkpt lat="-3.0783040" lon="37.3630230">
    <ele>5719.0</ele>
    <time>2026-06-23T03:42:20Z</time>
   </trkpt>
   <trkpt lat="-3.0783050" lon="37.3630230">
    <ele>5719.0</ele>
    <time>2026-06-23T03:42:21Z</time>
   </trkpt>
   <trkpt lat="-3.0783040" lon="37.3630230">
    <ele>5719.1</ele>
    <time>2026-06-23T03:42:22Z</time>
   </trkpt>
   <trkpt lat="-3.0783040" lon="37.3630250">
    <ele>5719.1</ele>
    <time>2026-06-23T03:42:23Z</time>
   </trkpt>
   <trkpt lat="-3.0783020" lon="37.3630230">
    <ele>5719.2</ele>
    <time>2026-06-23T03:42:24Z</time>
   </trkpt>
   <trkpt lat="-3.0782990" lon="37.3630210">
    <ele>5719.3</ele>
    <time>2026-06-23T03:42:25Z</time>
   </trkpt>
   <trkpt lat="-3.0782970" lon="37.3630210">
    <ele>5719.4</ele>
    <time>2026-06-23T03:42:26Z</time>
   </trkpt>
   <trkpt lat="-3.0782950" lon="37.3630180">
    <ele>5719.5</ele>
    <time>2026-06-23T03:42:27Z</time>
   </trkpt>
   <trkpt lat="-3.0782940" lon="37.3630170">
    <ele>5719.5</ele>
    <time>2026-06-23T03:42:28Z</time>
   </trkpt>
   <trkpt lat="-3.0782910" lon="37.3630160">
    <ele>5719.6</ele>
    <time>2026-06-23T03:42:29Z</time>
   </trkpt>
   <trkpt lat="-3.0782900" lon="37.3630160">
    <ele>5719.7</ele>
    <time>2026-06-23T03:42:30Z</time>
   </trkpt>
   <trkpt lat="-3.0782870" lon="37.3630180">
    <ele>5719.8</ele>
    <time>2026-06-23T03:42:31Z</time>
   </trkpt>
   <trkpt lat="-3.0782870" lon="37.3630210">
    <ele>5719.9</ele>
    <time>2026-06-23T03:42:32Z</time>
   </trkpt>
   <trkpt lat="-3.0782840" lon="37.3630220">
    <ele>5720.0</ele>
    <time>2026-06-23T03:42:33Z</time>
   </trkpt>
   <trkpt lat="-3.0782840" lon="37.3630230">
    <ele>5720.0</ele>
    <time>2026-06-23T03:42:34Z</time>
   </trkpt>
   <trkpt lat="-3.0782840" lon="37.3630230">
    <ele>5720.0</ele>
    <time>2026-06-23T03:42:35Z</time>
   </trkpt>
   <trkpt lat="-3.0782840" lon="37.3630230">
    <ele>5720.0</ele>
    <time>2026-06-23T03:42:36Z</time>
   </trkpt>
   <trkpt lat="-3.0782810" lon="37.3630260">
    <ele>5720.1</ele>
    <time>2026-06-23T03:42:37Z</time>
   </trkpt>
   <trkpt lat="-3.0782800" lon="37.3630250">
    <ele>5720.2</ele>
    <time>2026-06-23T03:42:38Z</time>
   </trkpt>
   <trkpt lat="-3.0782770" lon="37.3630240">
    <ele>5720.3</ele>
    <time>2026-06-23T03:42:39Z</time>
   </trkpt>
   <trkpt lat="-3.0782750" lon="37.3630250">
    <ele>5720.3</ele>
    <time>2026-06-23T03:42:40Z</time>
   </trkpt>
   <trkpt lat="-3.0782740" lon="37.3630260">
    <ele>5720.4</ele>
    <time>2026-06-23T03:42:41Z</time>
   </trkpt>
   <trkpt lat="-3.0782750" lon="37.3630260">
    <ele>5720.4</ele>
    <time>2026-06-23T03:42:42Z</time>
   </trkpt>
   <trkpt lat="-3.0782750" lon="37.3630260">
    <ele>5720.4</ele>
    <time>2026-06-23T03:42:43Z</time>
   </trkpt>
   <trkpt lat="-3.0782750" lon="37.3630260">
    <ele>5720.4</ele>
    <time>2026-06-23T03:42:44Z</time>
   </trkpt>
   <trkpt lat="-3.0782720" lon="37.3630260">
    <ele>5720.5</ele>
    <time>2026-06-23T03:42:45Z</time>
   </trkpt>
   <trkpt lat="-3.0782730" lon="37.3630250">
    <ele>5720.5</ele>
    <time>2026-06-23T03:42:46Z</time>
   </trkpt>
   <trkpt lat="-3.0782730" lon="37.3630260">
    <ele>5720.6</ele>
    <time>2026-06-23T03:42:47Z</time>
   </trkpt>
   <trkpt lat="-3.0782690" lon="37.3630240">
    <ele>5720.7</ele>
    <time>2026-06-23T03:42:48Z</time>
   </trkpt>
   <trkpt lat="-3.0782670" lon="37.3630230">
    <ele>5720.8</ele>
    <time>2026-06-23T03:42:49Z</time>
   </trkpt>
   <trkpt lat="-3.0782650" lon="37.3630240">
    <ele>5720.9</ele>
    <time>2026-06-23T03:42:50Z</time>
   </trkpt>
   <trkpt lat="-3.0782660" lon="37.3630230">
    <ele>5720.9</ele>
    <time>2026-06-23T03:42:51Z</time>
   </trkpt>
   <trkpt lat="-3.0782630" lon="37.3630230">
    <ele>5721.0</ele>
    <time>2026-06-23T03:42:52Z</time>
   </trkpt>
   <trkpt lat="-3.0782630" lon="37.3630230">
    <ele>5721.0</ele>
    <time>2026-06-23T03:42:53Z</time>
   </trkpt>
   <trkpt lat="-3.0782640" lon="37.3630250">
    <ele>5721.1</ele>
    <time>2026-06-23T03:42:54Z</time>
   </trkpt>
   <trkpt lat="-3.0782620" lon="37.3630220">
    <ele>5721.2</ele>
    <time>2026-06-23T03:42:55Z</time>
   </trkpt>
   <trkpt lat="-3.0782630" lon="37.3630220">
    <ele>5721.2</ele>
    <time>2026-06-23T03:42:56Z</time>
   </trkpt>
   <trkpt lat="-3.0782640" lon="37.3630210">
    <ele>5721.2</ele>
    <time>2026-06-23T03:42:57Z</time>
   </trkpt>
   <trkpt lat="-3.0782620" lon="37.3630190">
    <ele>5721.3</ele>
    <time>2026-06-23T03:42:58Z</time>
   </trkpt>
   <trkpt lat="-3.0782610" lon="37.3630170">
    <ele>5721.4</ele>
    <time>2026-06-23T03:42:59Z</time>
   </trkpt>
   <trkpt lat="-3.0782620" lon="37.3630140">
    <ele>5721.5</ele>
    <time>2026-06-23T03:43:00Z</time>
   </trkpt>
   <trkpt lat="-3.0782590" lon="37.3630150">
    <ele>5721.6</ele>
    <time>2026-06-23T03:43:01Z</time>
   </trkpt>
   <trkpt lat="-3.0782590" lon="37.3630150">
    <ele>5721.6</ele>
    <time>2026-06-23T03:43:02Z</time>
   </trkpt>
   <trkpt lat="-3.0782570" lon="37.3630140">
    <ele>5721.7</ele>
    <time>2026-06-23T03:43:03Z</time>
   </trkpt>
   <trkpt lat="-3.0782560" lon="37.3630130">
    <ele>5721.7</ele>
    <time>2026-06-23T03:43:04Z</time>
   </trkpt>
   <trkpt lat="-3.0782530" lon="37.3630110">
    <ele>5721.8</ele>
    <time>2026-06-23T03:43:05Z</time>
   </trkpt>
   <trkpt lat="-3.0782520" lon="37.3630100">
    <ele>5721.9</ele>
    <time>2026-06-23T03:43:06Z</time>
   </trkpt>
   <trkpt lat="-3.0782500" lon="37.3630100">
    <ele>5721.9</ele>
    <time>2026-06-23T03:43:07Z</time>
   </trkpt>
   <trkpt lat="-3.0782460" lon="37.3630080">
    <ele>5722.1</ele>
    <time>2026-06-23T03:43:08Z</time>
   </trkpt>
   <trkpt lat="-3.0782460" lon="37.3630070">
    <ele>5722.1</ele>
    <time>2026-06-23T03:43:09Z</time>
   </trkpt>
   <trkpt lat="-3.0782430" lon="37.3630060">
    <ele>5722.2</ele>
    <time>2026-06-23T03:43:10Z</time>
   </trkpt>
   <trkpt lat="-3.0782410" lon="37.3630070">
    <ele>5722.2</ele>
    <time>2026-06-23T03:43:11Z</time>
   </trkpt>
   <trkpt lat="-3.0782400" lon="37.3630060">
    <ele>5722.3</ele>
    <time>2026-06-23T03:43:12Z</time>
   </trkpt>
   <trkpt lat="-3.0782380" lon="37.3630040">
    <ele>5722.4</ele>
    <time>2026-06-23T03:43:13Z</time>
   </trkpt>
   <trkpt lat="-3.0782350" lon="37.3630030">
    <ele>5722.5</ele>
    <time>2026-06-23T03:43:14Z</time>
   </trkpt>
   <trkpt lat="-3.0782350" lon="37.3630030">
    <ele>5722.5</ele>
    <time>2026-06-23T03:43:15Z</time>
   </trkpt>
   <trkpt lat="-3.0782320" lon="37.3630020">
    <ele>5722.6</ele>
    <time>2026-06-23T03:43:16Z</time>
   </trkpt>
   <trkpt lat="-3.0782300" lon="37.3630010">
    <ele>5722.6</ele>
    <time>2026-06-23T03:43:17Z</time>
   </trkpt>
   <trkpt lat="-3.0782280" lon="37.3629990">
    <ele>5722.7</ele>
    <time>2026-06-23T03:43:18Z</time>
   </trkpt>
   <trkpt lat="-3.0782280" lon="37.3629970">
    <ele>5722.8</ele>
    <time>2026-06-23T03:43:19Z</time>
   </trkpt>
   <trkpt lat="-3.0782280" lon="37.3629940">
    <ele>5722.9</ele>
    <time>2026-06-23T03:43:20Z</time>
   </trkpt>
   <trkpt lat="-3.0782280" lon="37.3629910">
    <ele>5723.0</ele>
    <time>2026-06-23T03:43:21Z</time>
   </trkpt>
   <trkpt lat="-3.0782290" lon="37.3629880">
    <ele>5723.1</ele>
    <time>2026-06-23T03:43:22Z</time>
   </trkpt>
   <trkpt lat="-3.0782300" lon="37.3629860">
    <ele>5723.1</ele>
    <time>2026-06-23T03:43:23Z</time>
   </trkpt>
   <trkpt lat="-3.0782300" lon="37.3629840">
    <ele>5723.2</ele>
    <time>2026-06-23T03:43:24Z</time>
   </trkpt>
   <trkpt lat="-3.0782300" lon="37.3629810">
    <ele>5723.3</ele>
    <time>2026-06-23T03:43:25Z</time>
   </trkpt>
   <trkpt lat="-3.0782300" lon="37.3629780">
    <ele>5723.4</ele>
    <time>2026-06-23T03:43:26Z</time>
   </trkpt>
   <trkpt lat="-3.0782290" lon="37.3629750">
    <ele>5723.5</ele>
    <time>2026-06-23T03:43:27Z</time>
   </trkpt>
   <trkpt lat="-3.0782290" lon="37.3629720">
    <ele>5723.5</ele>
    <time>2026-06-23T03:43:28Z</time>
   </trkpt>
   <trkpt lat="-3.0782280" lon="37.3629710">
    <ele>5723.6</ele>
    <time>2026-06-23T03:43:29Z</time>
   </trkpt>
   <trkpt lat="-3.0782260" lon="37.3629680">
    <ele>5723.7</ele>
    <time>2026-06-23T03:43:30Z</time>
   </trkpt>
   <trkpt lat="-3.0782250" lon="37.3629670">
    <ele>5723.7</ele>
    <time>2026-06-23T03:43:31Z</time>
   </trkpt>
   <trkpt lat="-3.0782230" lon="37.3629670">
    <ele>5723.8</ele>
    <time>2026-06-23T03:43:32Z</time>
   </trkpt>
   <trkpt lat="-3.0782210" lon="37.3629670">
    <ele>5723.9</ele>
    <time>2026-06-23T03:43:33Z</time>
   </trkpt>
   <trkpt lat="-3.0782180" lon="37.3629660">
    <ele>5724.0</ele>
    <time>2026-06-23T03:43:34Z</time>
   </trkpt>
   <trkpt lat="-3.0782170" lon="37.3629680">
    <ele>5724.0</ele>
    <time>2026-06-23T03:43:35Z</time>
   </trkpt>
   <trkpt lat="-3.0782130" lon="37.3629660">
    <ele>5724.2</ele>
    <time>2026-06-23T03:43:36Z</time>
   </trkpt>
   <trkpt lat="-3.0782120" lon="37.3629660">
    <ele>5724.2</ele>
    <time>2026-06-23T03:43:37Z</time>
   </trkpt>
   <trkpt lat="-3.0782090" lon="37.3629670">
    <ele>5724.3</ele>
    <time>2026-06-23T03:43:38Z</time>
   </trkpt>
   <trkpt lat="-3.0782080" lon="37.3629670">
    <ele>5724.3</ele>
    <time>2026-06-23T03:43:39Z</time>
   </trkpt>
   <trkpt lat="-3.0782070" lon="37.3629670">
    <ele>5724.3</ele>
    <time>2026-06-23T03:43:40Z</time>
   </trkpt>
   <trkpt lat="-3.0782040" lon="37.3629670">
    <ele>5724.4</ele>
    <time>2026-06-23T03:43:41Z</time>
   </trkpt>
   <trkpt lat="-3.0782030" lon="37.3629670">
    <ele>5724.5</ele>
    <time>2026-06-23T03:43:42Z</time>
   </trkpt>
   <trkpt lat="-3.0782010" lon="37.3629660">
    <ele>5724.5</ele>
    <time>2026-06-23T03:43:43Z</time>
   </trkpt>
   <trkpt lat="-3.0781990" lon="37.3629660">
    <ele>5724.6</ele>
    <time>2026-06-23T03:43:44Z</time>
   </trkpt>
   <trkpt lat="-3.0781980" lon="37.3629660">
    <ele>5724.6</ele>
    <time>2026-06-23T03:43:45Z</time>
   </trkpt>
   <trkpt lat="-3.0781960" lon="37.3629650">
    <ele>5724.7</ele>
    <time>2026-06-23T03:43:46Z</time>
   </trkpt>
   <trkpt lat="-3.0781950" lon="37.3629650">
    <ele>5724.7</ele>
    <time>2026-06-23T03:43:47Z</time>
   </trkpt>
   <trkpt lat="-3.0781930" lon="37.3629670">
    <ele>5724.8</ele>
    <time>2026-06-23T03:43:48Z</time>
   </trkpt>
   <trkpt lat="-3.0781900" lon="37.3629660">
    <ele>5724.9</ele>
    <time>2026-06-23T03:43:49Z</time>
   </trkpt>
   <trkpt lat="-3.0781890" lon="37.3629670">
    <ele>5724.9</ele>
    <time>2026-06-23T03:43:50Z</time>
   </trkpt>
   <trkpt lat="-3.0781880" lon="37.3629680">
    <ele>5725.0</ele>
    <time>2026-06-23T03:43:51Z</time>
   </trkpt>
   <trkpt lat="-3.0781840" lon="37.3629660">
    <ele>5725.1</ele>
    <time>2026-06-23T03:43:52Z</time>
   </trkpt>
   <trkpt lat="-3.0781830" lon="37.3629680">
    <ele>5725.2</ele>
    <time>2026-06-23T03:43:53Z</time>
   </trkpt>
   <trkpt lat="-3.0781820" lon="37.3629680">
    <ele>5725.2</ele>
    <time>2026-06-23T03:43:54Z</time>
   </trkpt>
   <trkpt lat="-3.0781800" lon="37.3629690">
    <ele>5725.3</ele>
    <time>2026-06-23T03:43:55Z</time>
   </trkpt>
   <trkpt lat="-3.0781780" lon="37.3629680">
    <ele>5725.4</ele>
    <time>2026-06-23T03:43:56Z</time>
   </trkpt>
   <trkpt lat="-3.0781760" lon="37.3629670">
    <ele>5725.4</ele>
    <time>2026-06-23T03:43:57Z</time>
   </trkpt>
   <trkpt lat="-3.0781770" lon="37.3629680">
    <ele>5725.5</ele>
    <time>2026-06-23T03:43:58Z</time>
   </trkpt>
   <trkpt lat="-3.0781720" lon="37.3629680">
    <ele>5725.6</ele>
    <time>2026-06-23T03:43:59Z</time>
   </trkpt>
   <trkpt lat="-3.0781710" lon="37.3629710">
    <ele>5725.7</ele>
    <time>2026-06-23T03:44:00Z</time>
   </trkpt>
   <trkpt lat="-3.0781710" lon="37.3629720">
    <ele>5725.7</ele>
    <time>2026-06-23T03:44:01Z</time>
   </trkpt>
   <trkpt lat="-3.0781680" lon="37.3629710">
    <ele>5725.8</ele>
    <time>2026-06-23T03:44:02Z</time>
   </trkpt>
   <trkpt lat="-3.0781680" lon="37.3629720">
    <ele>5725.9</ele>
    <time>2026-06-23T03:44:03Z</time>
   </trkpt>
   <trkpt lat="-3.0781650" lon="37.3629730">
    <ele>5726.0</ele>
    <time>2026-06-23T03:44:04Z</time>
   </trkpt>
   <trkpt lat="-3.0781620" lon="37.3629720">
    <ele>5726.1</ele>
    <time>2026-06-23T03:44:05Z</time>
   </trkpt>
   <trkpt lat="-3.0781600" lon="37.3629720">
    <ele>5726.1</ele>
    <time>2026-06-23T03:44:06Z</time>
   </trkpt>
   <trkpt lat="-3.0781590" lon="37.3629690">
    <ele>5726.2</ele>
    <time>2026-06-23T03:44:07Z</time>
   </trkpt>
   <trkpt lat="-3.0781590" lon="37.3629680">
    <ele>5726.2</ele>
    <time>2026-06-23T03:44:08Z</time>
   </trkpt>
   <trkpt lat="-3.0781580" lon="37.3629660">
    <ele>5726.3</ele>
    <time>2026-06-23T03:44:09Z</time>
   </trkpt>
   <trkpt lat="-3.0781560" lon="37.3629650">
    <ele>5726.4</ele>
    <time>2026-06-23T03:44:10Z</time>
   </trkpt>
   <trkpt lat="-3.0781570" lon="37.3629620">
    <ele>5726.5</ele>
    <time>2026-06-23T03:44:11Z</time>
   </trkpt>
   <trkpt lat="-3.0781550" lon="37.3629610">
    <ele>5726.5</ele>
    <time>2026-06-23T03:44:12Z</time>
   </trkpt>
   <trkpt lat="-3.0781560" lon="37.3629590">
    <ele>5726.6</ele>
    <time>2026-06-23T03:44:13Z</time>
   </trkpt>
   <trkpt lat="-3.0781550" lon="37.3629570">
    <ele>5726.7</ele>
    <time>2026-06-23T03:44:14Z</time>
   </trkpt>
   <trkpt lat="-3.0781570" lon="37.3629550">
    <ele>5726.8</ele>
    <time>2026-06-23T03:44:15Z</time>
   </trkpt>
   <trkpt lat="-3.0781570" lon="37.3629530">
    <ele>5726.8</ele>
    <time>2026-06-23T03:44:16Z</time>
   </trkpt>
   <trkpt lat="-3.0781580" lon="37.3629510">
    <ele>5726.9</ele>
    <time>2026-06-23T03:44:17Z</time>
   </trkpt>
   <trkpt lat="-3.0781600" lon="37.3629490">
    <ele>5727.0</ele>
    <time>2026-06-23T03:44:18Z</time>
   </trkpt>
   <trkpt lat="-3.0781600" lon="37.3629480">
    <ele>5727.0</ele>
    <time>2026-06-23T03:44:19Z</time>
   </trkpt>
   <trkpt lat="-3.0781590" lon="37.3629440">
    <ele>5727.1</ele>
    <time>2026-06-23T03:44:20Z</time>
   </trkpt>
   <trkpt lat="-3.0781610" lon="37.3629420">
    <ele>5727.2</ele>
    <time>2026-06-23T03:44:21Z</time>
   </trkpt>
   <trkpt lat="-3.0781600" lon="37.3629390">
    <ele>5727.3</ele>
    <time>2026-06-23T03:44:22Z</time>
   </trkpt>
   <trkpt lat="-3.0781620" lon="37.3629380">
    <ele>5727.4</ele>
    <time>2026-06-23T03:44:23Z</time>
   </trkpt>
   <trkpt lat="-3.0781620" lon="37.3629350">
    <ele>5727.5</ele>
    <time>2026-06-23T03:44:24Z</time>
   </trkpt>
   <trkpt lat="-3.0781630" lon="37.3629330">
    <ele>5727.5</ele>
    <time>2026-06-23T03:44:25Z</time>
   </trkpt>
   <trkpt lat="-3.0781640" lon="37.3629300">
    <ele>5727.6</ele>
    <time>2026-06-23T03:44:26Z</time>
   </trkpt>
   <trkpt lat="-3.0781670" lon="37.3629260">
    <ele>5727.8</ele>
    <time>2026-06-23T03:44:27Z</time>
   </trkpt>
   <trkpt lat="-3.0781650" lon="37.3629240">
    <ele>5727.9</ele>
    <time>2026-06-23T03:44:28Z</time>
   </trkpt>
   <trkpt lat="-3.0781670" lon="37.3629230">
    <ele>5727.9</ele>
    <time>2026-06-23T03:44:29Z</time>
   </trkpt>
   <trkpt lat="-3.0781670" lon="37.3629220">
    <ele>5728.0</ele>
    <time>2026-06-23T03:44:30Z</time>
   </trkpt>
   <trkpt lat="-3.0781670" lon="37.3629200">
    <ele>5728.0</ele>
    <time>2026-06-23T03:44:31Z</time>
   </trkpt>
   <trkpt lat="-3.0781670" lon="37.3629190">
    <ele>5728.0</ele>
    <time>2026-06-23T03:44:32Z</time>
   </trkpt>
   <trkpt lat="-3.0781650" lon="37.3629170">
    <ele>5728.1</ele>
    <time>2026-06-23T03:44:33Z</time>
   </trkpt>
   <trkpt lat="-3.0781650" lon="37.3629150">
    <ele>5728.2</ele>
    <time>2026-06-23T03:44:34Z</time>
   </trkpt>
   <trkpt lat="-3.0781650" lon="37.3629130">
    <ele>5728.2</ele>
    <time>2026-06-23T03:44:35Z</time>
   </trkpt>
   <trkpt lat="-3.0781630" lon="37.3629120">
    <ele>5728.3</ele>
    <time>2026-06-23T03:44:36Z</time>
   </trkpt>
   <trkpt lat="-3.0781610" lon="37.3629110">
    <ele>5728.4</ele>
    <time>2026-06-23T03:44:37Z</time>
   </trkpt>
   <trkpt lat="-3.0781610" lon="37.3629110">
    <ele>5728.4</ele>
    <time>2026-06-23T03:44:38Z</time>
   </trkpt>
   <trkpt lat="-3.0781580" lon="37.3629090">
    <ele>5728.5</ele>
    <time>2026-06-23T03:44:39Z</time>
   </trkpt>
   <trkpt lat="-3.0781560" lon="37.3629080">
    <ele>5728.6</ele>
    <time>2026-06-23T03:44:40Z</time>
   </trkpt>
   <trkpt lat="-3.0781550" lon="37.3629090">
    <ele>5728.6</ele>
    <time>2026-06-23T03:44:41Z</time>
   </trkpt>
   <trkpt lat="-3.0781540" lon="37.3629090">
    <ele>5728.6</ele>
    <time>2026-06-23T03:44:42Z</time>
   </trkpt>
   <trkpt lat="-3.0781510" lon="37.3629070">
    <ele>5728.7</ele>
    <time>2026-06-23T03:44:43Z</time>
   </trkpt>
   <trkpt lat="-3.0781470" lon="37.3629070">
    <ele>5728.9</ele>
    <time>2026-06-23T03:44:44Z</time>
   </trkpt>
   <trkpt lat="-3.0781470" lon="37.3629070">
    <ele>5728.9</ele>
    <time>2026-06-23T03:44:45Z</time>
   </trkpt>
   <trkpt lat="-3.0781450" lon="37.3629070">
    <ele>5728.9</ele>
    <time>2026-06-23T03:44:46Z</time>
   </trkpt>
   <trkpt lat="-3.0781440" lon="37.3629080">
    <ele>5729.0</ele>
    <time>2026-06-23T03:44:47Z</time>
   </trkpt>
   <trkpt lat="-3.0781450" lon="37.3629080">
    <ele>5729.0</ele>
    <time>2026-06-23T03:44:48Z</time>
   </trkpt>
   <trkpt lat="-3.0781450" lon="37.3629090">
    <ele>5729.0</ele>
    <time>2026-06-23T03:44:49Z</time>
   </trkpt>
   <trkpt lat="-3.0781450" lon="37.3629090">
    <ele>5729.0</ele>
    <time>2026-06-23T03:44:50Z</time>
   </trkpt>
   <trkpt lat="-3.0781450" lon="37.3629090">
    <ele>5729.0</ele>
    <time>2026-06-23T03:44:51Z</time>
   </trkpt>
   <trkpt lat="-3.0781450" lon="37.3629090">
    <ele>5729.0</ele>
    <time>2026-06-23T03:44:52Z</time>
   </trkpt>
   <trkpt lat="-3.0781450" lon="37.3629090">
    <ele>5729.0</ele>
    <time>2026-06-23T03:44:53Z</time>
   </trkpt>
   <trkpt lat="-3.0781450" lon="37.3629090">
    <ele>5729.0</ele>
    <time>2026-06-23T03:44:54Z</time>
   </trkpt>
   <trkpt lat="-3.0781430" lon="37.3629080">
    <ele>5729.1</ele>
    <time>2026-06-23T03:44:55Z</time>
   </trkpt>
   <trkpt lat="-3.0781410" lon="37.3629100">
    <ele>5729.2</ele>
    <time>2026-06-23T03:44:56Z</time>
   </trkpt>
   <trkpt lat="-3.0781410" lon="37.3629120">
    <ele>5729.2</ele>
    <time>2026-06-23T03:44:57Z</time>
   </trkpt>
   <trkpt lat="-3.0781410" lon="37.3629120">
    <ele>5729.2</ele>
    <time>2026-06-23T03:44:58Z</time>
   </trkpt>
   <trkpt lat="-3.0781410" lon="37.3629120">
    <ele>5729.2</ele>
    <time>2026-06-23T03:44:59Z</time>
   </trkpt>
   <trkpt lat="-3.0781410" lon="37.3629120">
    <ele>5729.2</ele>
    <time>2026-06-23T03:45:00Z</time>
   </trkpt>
   <trkpt lat="-3.0781410" lon="37.3629120">
    <ele>5729.2</ele>
    <time>2026-06-23T03:45:01Z</time>
   </trkpt>
   <trkpt lat="-3.0781410" lon="37.3629110">
    <ele>5729.3</ele>
    <time>2026-06-23T03:45:02Z</time>
   </trkpt>
   <trkpt lat="-3.0781380" lon="37.3629110">
    <ele>5729.3</ele>
    <time>2026-06-23T03:45:03Z</time>
   </trkpt>
   <trkpt lat="-3.0781350" lon="37.3629120">
    <ele>5729.4</ele>
    <time>2026-06-23T03:45:04Z</time>
   </trkpt>
   <trkpt lat="-3.0781310" lon="37.3629130">
    <ele>5729.6</ele>
    <time>2026-06-23T03:45:05Z</time>
   </trkpt>
   <trkpt lat="-3.0781280" lon="37.3629130">
    <ele>5729.6</ele>
    <time>2026-06-23T03:45:06Z</time>
   </trkpt>
   <trkpt lat="-3.0781210" lon="37.3629140">
    <ele>5729.9</ele>
    <time>2026-06-23T03:45:07Z</time>
   </trkpt>
   <trkpt lat="-3.0781200" lon="37.3629170">
    <ele>5729.9</ele>
    <time>2026-06-23T03:45:08Z</time>
   </trkpt>
   <trkpt lat="-3.0781200" lon="37.3629200">
    <ele>5730.0</ele>
    <time>2026-06-23T03:45:09Z</time>
   </trkpt>
   <trkpt lat="-3.0781140" lon="37.3629160">
    <ele>5730.3</ele>
    <time>2026-06-23T03:45:10Z</time>
   </trkpt>
   <trkpt lat="-3.0781120" lon="37.3629140">
    <ele>5730.3</ele>
    <time>2026-06-23T03:45:11Z</time>
   </trkpt>
   <trkpt lat="-3.0781090" lon="37.3629130">
    <ele>5730.4</ele>
    <time>2026-06-23T03:45:12Z</time>
   </trkpt>
   <trkpt lat="-3.0781070" lon="37.3629140">
    <ele>5730.5</ele>
    <time>2026-06-23T03:45:13Z</time>
   </trkpt>
   <trkpt lat="-3.0781040" lon="37.3629130">
    <ele>5730.6</ele>
    <time>2026-06-23T03:45:14Z</time>
   </trkpt>
   <trkpt lat="-3.0781010" lon="37.3629120">
    <ele>5730.7</ele>
    <time>2026-06-23T03:45:15Z</time>
   </trkpt>
   <trkpt lat="-3.0781010" lon="37.3629120">
    <ele>5730.7</ele>
    <time>2026-06-23T03:45:16Z</time>
   </trkpt>
   <trkpt lat="-3.0781000" lon="37.3629090">
    <ele>5730.8</ele>
    <time>2026-06-23T03:45:17Z</time>
   </trkpt>
   <trkpt lat="-3.0781010" lon="37.3629100">
    <ele>5730.8</ele>
    <time>2026-06-23T03:45:18Z</time>
   </trkpt>
   <trkpt lat="-3.0780980" lon="37.3629090">
    <ele>5730.9</ele>
    <time>2026-06-23T03:45:19Z</time>
   </trkpt>
   <trkpt lat="-3.0780970" lon="37.3629110">
    <ele>5731.0</ele>
    <time>2026-06-23T03:45:20Z</time>
   </trkpt>
   <trkpt lat="-3.0780950" lon="37.3629100">
    <ele>5731.0</ele>
    <time>2026-06-23T03:45:21Z</time>
   </trkpt>
   <trkpt lat="-3.0780950" lon="37.3629070">
    <ele>5731.1</ele>
    <time>2026-06-23T03:45:22Z</time>
   </trkpt>
   <trkpt lat="-3.0780920" lon="37.3629060">
    <ele>5731.2</ele>
    <time>2026-06-23T03:45:23Z</time>
   </trkpt>
   <trkpt lat="-3.0780920" lon="37.3629020">
    <ele>5731.3</ele>
    <time>2026-06-23T03:45:24Z</time>
   </trkpt>
   <trkpt lat="-3.0780930" lon="37.3629000">
    <ele>5731.4</ele>
    <time>2026-06-23T03:45:25Z</time>
   </trkpt>
   <trkpt lat="-3.0780940" lon="37.3628980">
    <ele>5731.5</ele>
    <time>2026-06-23T03:45:26Z</time>
   </trkpt>
   <trkpt lat="-3.0780930" lon="37.3628940">
    <ele>5731.6</ele>
    <time>2026-06-23T03:45:27Z</time>
   </trkpt>
   <trkpt lat="-3.0780940" lon="37.3628930">
    <ele>5731.6</ele>
    <time>2026-06-23T03:45:28Z</time>
   </trkpt>
   <trkpt lat="-3.0780940" lon="37.3628910">
    <ele>5731.7</ele>
    <time>2026-06-23T03:45:29Z</time>
   </trkpt>
   <trkpt lat="-3.0780950" lon="37.3628880">
    <ele>5731.8</ele>
    <time>2026-06-23T03:45:30Z</time>
   </trkpt>
   <trkpt lat="-3.0780940" lon="37.3628860">
    <ele>5731.8</ele>
    <time>2026-06-23T03:45:31Z</time>
   </trkpt>
   <trkpt lat="-3.0780950" lon="37.3628850">
    <ele>5731.9</ele>
    <time>2026-06-23T03:45:32Z</time>
   </trkpt>
   <trkpt lat="-3.0780950" lon="37.3628820">
    <ele>5732.0</ele>
    <time>2026-06-23T03:45:33Z</time>
   </trkpt>
   <trkpt lat="-3.0780950" lon="37.3628790">
    <ele>5732.0</ele>
    <time>2026-06-23T03:45:34Z</time>
   </trkpt>
   <trkpt lat="-3.0780950" lon="37.3628760">
    <ele>5732.1</ele>
    <time>2026-06-23T03:45:35Z</time>
   </trkpt>
   <trkpt lat="-3.0780950" lon="37.3628720">
    <ele>5732.2</ele>
    <time>2026-06-23T03:45:36Z</time>
   </trkpt>
   <trkpt lat="-3.0780940" lon="37.3628710">
    <ele>5732.3</ele>
    <time>2026-06-23T03:45:37Z</time>
   </trkpt>
   <trkpt lat="-3.0780940" lon="37.3628690">
    <ele>5732.3</ele>
    <time>2026-06-23T03:45:38Z</time>
   </trkpt>
   <trkpt lat="-3.0780930" lon="37.3628650">
    <ele>5732.5</ele>
    <time>2026-06-23T03:45:39Z</time>
   </trkpt>
   <trkpt lat="-3.0780930" lon="37.3628630">
    <ele>5732.5</ele>
    <time>2026-06-23T03:45:40Z</time>
   </trkpt>
   <trkpt lat="-3.0780930" lon="37.3628630">
    <ele>5732.5</ele>
    <time>2026-06-23T03:45:41Z</time>
   </trkpt>
   <trkpt lat="-3.0780930" lon="37.3628620">
    <ele>5732.5</ele>
    <time>2026-06-23T03:45:42Z</time>
   </trkpt>
   <trkpt lat="-3.0780940" lon="37.3628620">
    <ele>5732.6</ele>
    <time>2026-06-23T03:45:43Z</time>
   </trkpt>
   <trkpt lat="-3.0780930" lon="37.3628590">
    <ele>5732.7</ele>
    <time>2026-06-23T03:45:44Z</time>
   </trkpt>
   <trkpt lat="-3.0780930" lon="37.3628560">
    <ele>5732.7</ele>
    <time>2026-06-23T03:45:45Z</time>
   </trkpt>
   <trkpt lat="-3.0780950" lon="37.3628540">
    <ele>5732.8</ele>
    <time>2026-06-23T03:45:46Z</time>
   </trkpt>
   <trkpt lat="-3.0780940" lon="37.3628520">
    <ele>5732.9</ele>
    <time>2026-06-23T03:45:47Z</time>
   </trkpt>
   <trkpt lat="-3.0780940" lon="37.3628500">
    <ele>5732.9</ele>
    <time>2026-06-23T03:45:48Z</time>
   </trkpt>
   <trkpt lat="-3.0780930" lon="37.3628470">
    <ele>5733.0</ele>
    <time>2026-06-23T03:45:49Z</time>
   </trkpt>
   <trkpt lat="-3.0780930" lon="37.3628440">
    <ele>5733.1</ele>
    <time>2026-06-23T03:45:50Z</time>
   </trkpt>
   <trkpt lat="-3.0780930" lon="37.3628430">
    <ele>5733.1</ele>
    <time>2026-06-23T03:45:51Z</time>
   </trkpt>
   <trkpt lat="-3.0780930" lon="37.3628410">
    <ele>5733.2</ele>
    <time>2026-06-23T03:45:52Z</time>
   </trkpt>
   <trkpt lat="-3.0780920" lon="37.3628390">
    <ele>5733.2</ele>
    <time>2026-06-23T03:45:53Z</time>
   </trkpt>
   <trkpt lat="-3.0780920" lon="37.3628390">
    <ele>5733.2</ele>
    <time>2026-06-23T03:45:54Z</time>
   </trkpt>
   <trkpt lat="-3.0780900" lon="37.3628370">
    <ele>5733.3</ele>
    <time>2026-06-23T03:45:55Z</time>
   </trkpt>
   <trkpt lat="-3.0780910" lon="37.3628370">
    <ele>5733.4</ele>
    <time>2026-06-23T03:45:56Z</time>
   </trkpt>
   <trkpt lat="-3.0780900" lon="37.3628340">
    <ele>5733.4</ele>
    <time>2026-06-23T03:45:57Z</time>
   </trkpt>
   <trkpt lat="-3.0780890" lon="37.3628330">
    <ele>5733.5</ele>
    <time>2026-06-23T03:45:58Z</time>
   </trkpt>
   <trkpt lat="-3.0780900" lon="37.3628300">
    <ele>5733.6</ele>
    <time>2026-06-23T03:45:59Z</time>
   </trkpt>
   <trkpt lat="-3.0780890" lon="37.3628290">
    <ele>5733.6</ele>
    <time>2026-06-23T03:46:00Z</time>
   </trkpt>
   <trkpt lat="-3.0780900" lon="37.3628300">
    <ele>5733.6</ele>
    <time>2026-06-23T03:46:01Z</time>
   </trkpt>
   <trkpt lat="-3.0780900" lon="37.3628280">
    <ele>5733.7</ele>
    <time>2026-06-23T03:46:02Z</time>
   </trkpt>
   <trkpt lat="-3.0780890" lon="37.3628260">
    <ele>5733.8</ele>
    <time>2026-06-23T03:46:03Z</time>
   </trkpt>
   <trkpt lat="-3.0780890" lon="37.3628220">
    <ele>5733.9</ele>
    <time>2026-06-23T03:46:04Z</time>
   </trkpt>
   <trkpt lat="-3.0780890" lon="37.3628200">
    <ele>5733.9</ele>
    <time>2026-06-23T03:46:05Z</time>
   </trkpt>
   <trkpt lat="-3.0780880" lon="37.3628170">
    <ele>5734.0</ele>
    <time>2026-06-23T03:46:06Z</time>
   </trkpt>
   <trkpt lat="-3.0780890" lon="37.3628150">
    <ele>5734.1</ele>
    <time>2026-06-23T03:46:07Z</time>
   </trkpt>
   <trkpt lat="-3.0780870" lon="37.3628120">
    <ele>5734.2</ele>
    <time>2026-06-23T03:46:08Z</time>
   </trkpt>
   <trkpt lat="-3.0780870" lon="37.3628100">
    <ele>5734.2</ele>
    <time>2026-06-23T03:46:09Z</time>
   </trkpt>
   <trkpt lat="-3.0780880" lon="37.3628090">
    <ele>5734.3</ele>
    <time>2026-06-23T03:46:10Z</time>
   </trkpt>
   <trkpt lat="-3.0780870" lon="37.3628070">
    <ele>5734.3</ele>
    <time>2026-06-23T03:46:11Z</time>
   </trkpt>
   <trkpt lat="-3.0780870" lon="37.3628040">
    <ele>5734.4</ele>
    <time>2026-06-23T03:46:12Z</time>
   </trkpt>
   <trkpt lat="-3.0780860" lon="37.3628020">
    <ele>5734.5</ele>
    <time>2026-06-23T03:46:13Z</time>
   </trkpt>
   <trkpt lat="-3.0780860" lon="37.3628010">
    <ele>5734.5</ele>
    <time>2026-06-23T03:46:14Z</time>
   </trkpt>
   <trkpt lat="-3.0780840" lon="37.3627990">
    <ele>5734.6</ele>
    <time>2026-06-23T03:46:15Z</time>
   </trkpt>
   <trkpt lat="-3.0780850" lon="37.3627970">
    <ele>5734.6</ele>
    <time>2026-06-23T03:46:16Z</time>
   </trkpt>
   <trkpt lat="-3.0780850" lon="37.3627960">
    <ele>5734.6</ele>
    <time>2026-06-23T03:46:17Z</time>
   </trkpt>
   <trkpt lat="-3.0780830" lon="37.3627930">
    <ele>5734.7</ele>
    <time>2026-06-23T03:46:18Z</time>
   </trkpt>
   <trkpt lat="-3.0780840" lon="37.3627900">
    <ele>5734.8</ele>
    <time>2026-06-23T03:46:19Z</time>
   </trkpt>
   <trkpt lat="-3.0780830" lon="37.3627870">
    <ele>5734.9</ele>
    <time>2026-06-23T03:46:20Z</time>
   </trkpt>
   <trkpt lat="-3.0780840" lon="37.3627850">
    <ele>5735.0</ele>
    <time>2026-06-23T03:46:21Z</time>
   </trkpt>
   <trkpt lat="-3.0780830" lon="37.3627820">
    <ele>5735.1</ele>
    <time>2026-06-23T03:46:22Z</time>
   </trkpt>
   <trkpt lat="-3.0780830" lon="37.3627810">
    <ele>5735.1</ele>
    <time>2026-06-23T03:46:23Z</time>
   </trkpt>
   <trkpt lat="-3.0780820" lon="37.3627800">
    <ele>5735.1</ele>
    <time>2026-06-23T03:46:24Z</time>
   </trkpt>
   <trkpt lat="-3.0780820" lon="37.3627800">
    <ele>5735.1</ele>
    <time>2026-06-23T03:46:25Z</time>
   </trkpt>
   <trkpt lat="-3.0780810" lon="37.3627780">
    <ele>5735.2</ele>
    <time>2026-06-23T03:46:26Z</time>
   </trkpt>
   <trkpt lat="-3.0780820" lon="37.3627760">
    <ele>5735.3</ele>
    <time>2026-06-23T03:46:27Z</time>
   </trkpt>
   <trkpt lat="-3.0780800" lon="37.3627740">
    <ele>5735.3</ele>
    <time>2026-06-23T03:46:28Z</time>
   </trkpt>
   <trkpt lat="-3.0780810" lon="37.3627720">
    <ele>5735.4</ele>
    <time>2026-06-23T03:46:29Z</time>
   </trkpt>
   <trkpt lat="-3.0780790" lon="37.3627700">
    <ele>5735.5</ele>
    <time>2026-06-23T03:46:30Z</time>
   </trkpt>
   <trkpt lat="-3.0780810" lon="37.3627670">
    <ele>5735.6</ele>
    <time>2026-06-23T03:46:31Z</time>
   </trkpt>
   <trkpt lat="-3.0780810" lon="37.3627670">
    <ele>5735.6</ele>
    <time>2026-06-23T03:46:32Z</time>
   </trkpt>
   <trkpt lat="-3.0780820" lon="37.3627660">
    <ele>5735.6</ele>
    <time>2026-06-23T03:46:33Z</time>
   </trkpt>
   <trkpt lat="-3.0780810" lon="37.3627660">
    <ele>5735.6</ele>
    <time>2026-06-23T03:46:34Z</time>
   </trkpt>
   <trkpt lat="-3.0780800" lon="37.3627620">
    <ele>5735.7</ele>
    <time>2026-06-23T03:46:35Z</time>
   </trkpt>
   <trkpt lat="-3.0780790" lon="37.3627580">
    <ele>5735.9</ele>
    <time>2026-06-23T03:46:36Z</time>
   </trkpt>
   <trkpt lat="-3.0780790" lon="37.3627540">
    <ele>5736.0</ele>
    <time>2026-06-23T03:46:37Z</time>
   </trkpt>
   <trkpt lat="-3.0780790" lon="37.3627530">
    <ele>5736.0</ele>
    <time>2026-06-23T03:46:38Z</time>
   </trkpt>
   <trkpt lat="-3.0780800" lon="37.3627500">
    <ele>5736.1</ele>
    <time>2026-06-23T03:46:39Z</time>
   </trkpt>
   <trkpt lat="-3.0780800" lon="37.3627480">
    <ele>5736.1</ele>
    <time>2026-06-23T03:46:40Z</time>
   </trkpt>
   <trkpt lat="-3.0780810" lon="37.3627470">
    <ele>5736.2</ele>
    <time>2026-06-23T03:46:41Z</time>
   </trkpt>
   <trkpt lat="-3.0780810" lon="37.3627470">
    <ele>5736.2</ele>
    <time>2026-06-23T03:46:42Z</time>
   </trkpt>
   <trkpt lat="-3.0780800" lon="37.3627470">
    <ele>5736.2</ele>
    <time>2026-06-23T03:46:43Z</time>
   </trkpt>
   <trkpt lat="-3.0780800" lon="37.3627440">
    <ele>5736.3</ele>
    <time>2026-06-23T03:46:44Z</time>
   </trkpt>
   <trkpt lat="-3.0780800" lon="37.3627410">
    <ele>5736.3</ele>
    <time>2026-06-23T03:46:45Z</time>
   </trkpt>
   <trkpt lat="-3.0780780" lon="37.3627380">
    <ele>5736.3</ele>
    <time>2026-06-23T03:46:46Z</time>
   </trkpt>
   <trkpt lat="-3.0780790" lon="37.3627370">
    <ele>5736.3</ele>
    <time>2026-06-23T03:46:47Z</time>
   </trkpt>
   <trkpt lat="-3.0780800" lon="37.3627370">
    <ele>5736.3</ele>
    <time>2026-06-23T03:46:48Z</time>
   </trkpt>
   <trkpt lat="-3.0780830" lon="37.3627350">
    <ele>5736.3</ele>
    <time>2026-06-23T03:46:49Z</time>
   </trkpt>
   <trkpt lat="-3.0780770" lon="37.3627310">
    <ele>5736.3</ele>
    <time>2026-06-23T03:46:50Z</time>
   </trkpt>
   <trkpt lat="-3.0780800" lon="37.3627280">
    <ele>5736.3</ele>
    <time>2026-06-23T03:46:51Z</time>
   </trkpt>
   <trkpt lat="-3.0780810" lon="37.3627270">
    <ele>5736.3</ele>
    <time>2026-06-23T03:46:52Z</time>
   </trkpt>
   <trkpt lat="-3.0780810" lon="37.3627240">
    <ele>5736.3</ele>
    <time>2026-06-23T03:46:53Z</time>
   </trkpt>
   <trkpt lat="-3.0780790" lon="37.3627220">
    <ele>5736.3</ele>
    <time>2026-06-23T03:46:54Z</time>
   </trkpt>
   <trkpt lat="-3.0780770" lon="37.3627190">
    <ele>5736.3</ele>
    <time>2026-06-23T03:46:55Z</time>
   </trkpt>
   <trkpt lat="-3.0780780" lon="37.3627220">
    <ele>5736.4</ele>
    <time>2026-06-23T03:46:56Z</time>
   </trkpt>
   <trkpt lat="-3.0780780" lon="37.3627220">
    <ele>5736.4</ele>
    <time>2026-06-23T03:46:57Z</time>
   </trkpt>
   <trkpt lat="-3.0780760" lon="37.3627190">
    <ele>5736.4</ele>
    <time>2026-06-23T03:46:58Z</time>
   </trkpt>
   <trkpt lat="-3.0780770" lon="37.3627170">
    <ele>5736.4</ele>
    <time>2026-06-23T03:46:59Z</time>
   </trkpt>
   <trkpt lat="-3.0780760" lon="37.3627150">
    <ele>5736.4</ele>
    <time>2026-06-23T03:47:00Z</time>
   </trkpt>
   <trkpt lat="-3.0780800" lon="37.3627150">
    <ele>5736.4</ele>
    <time>2026-06-23T03:47:01Z</time>
   </trkpt>
   <trkpt lat="-3.0780790" lon="37.3627120">
    <ele>5736.4</ele>
    <time>2026-06-23T03:47:02Z</time>
   </trkpt>
   <trkpt lat="-3.0780810" lon="37.3627120">
    <ele>5736.4</ele>
    <time>2026-06-23T03:47:03Z</time>
   </trkpt>
   <trkpt lat="-3.0780810" lon="37.3627100">
    <ele>5736.4</ele>
    <time>2026-06-23T03:47:04Z</time>
   </trkpt>
   <trkpt lat="-3.0780810" lon="37.3627100">
    <ele>5736.4</ele>
    <time>2026-06-23T03:47:05Z</time>
   </trkpt>
   <trkpt lat="-3.0780810" lon="37.3627110">
    <ele>5736.4</ele>
    <time>2026-06-23T03:47:06Z</time>
   </trkpt>
   <trkpt lat="-3.0780810" lon="37.3627110">
    <ele>5736.4</ele>
    <time>2026-06-23T03:47:07Z</time>
   </trkpt>
   <trkpt lat="-3.0780810" lon="37.3627110">
    <ele>5736.4</ele>
    <time>2026-06-23T03:47:08Z</time>
   </trkpt>
   <trkpt lat="-3.0780820" lon="37.3627090">
    <ele>5736.4</ele>
    <time>2026-06-23T03:47:09Z</time>
   </trkpt>
   <trkpt lat="-3.0780830" lon="37.3627070">
    <ele>5736.4</ele>
    <time>2026-06-23T03:47:10Z</time>
   </trkpt>
   <trkpt lat="-3.0780830" lon="37.3627050">
    <ele>5736.4</ele>
    <time>2026-06-23T03:47:11Z</time>
   </trkpt>
   <trkpt lat="-3.0780850" lon="37.3627030">
    <ele>5736.4</ele>
    <time>2026-06-23T03:47:12Z</time>
   </trkpt>
   <trkpt lat="-3.0780850" lon="37.3627010">
    <ele>5736.4</ele>
    <time>2026-06-23T03:47:13Z</time>
   </trkpt>
   <trkpt lat="-3.0780850" lon="37.3627020">
    <ele>5736.4</ele>
    <time>2026-06-23T03:47:14Z</time>
   </trkpt>
   <trkpt lat="-3.0780850" lon="37.3627020">
    <ele>5736.4</ele>
    <time>2026-06-23T03:47:15Z</time>
   </trkpt>
   <trkpt lat="-3.0780850" lon="37.3627010">
    <ele>5736.4</ele>
    <time>2026-06-23T03:47:16Z</time>
   </trkpt>
   <trkpt lat="-3.0780860" lon="37.3626980">
    <ele>5736.5</ele>
    <time>2026-06-23T03:47:17Z</time>
   </trkpt>
   <trkpt lat="-3.0780860" lon="37.3626990">
    <ele>5736.5</ele>
    <time>2026-06-23T03:47:18Z</time>
   </trkpt>
   <trkpt lat="-3.0780860" lon="37.3626970">
    <ele>5736.5</ele>
    <time>2026-06-23T03:47:19Z</time>
   </trkpt>
   <trkpt lat="-3.0780880" lon="37.3626950">
    <ele>5736.5</ele>
    <time>2026-06-23T03:47:20Z</time>
   </trkpt>
   <trkpt lat="-3.0780870" lon="37.3626930">
    <ele>5736.5</ele>
    <time>2026-06-23T03:47:21Z</time>
   </trkpt>
   <trkpt lat="-3.0780890" lon="37.3626920">
    <ele>5736.5</ele>
    <time>2026-06-23T03:47:22Z</time>
   </trkpt>
   <trkpt lat="-3.0780860" lon="37.3626890">
    <ele>5736.5</ele>
    <time>2026-06-23T03:47:23Z</time>
   </trkpt>
   <trkpt lat="-3.0780870" lon="37.3626860">
    <ele>5736.5</ele>
    <time>2026-06-23T03:47:24Z</time>
   </trkpt>
   <trkpt lat="-3.0780860" lon="37.3626850">
    <ele>5736.5</ele>
    <time>2026-06-23T03:47:25Z</time>
   </trkpt>
   <trkpt lat="-3.0780870" lon="37.3626830">
    <ele>5736.5</ele>
    <time>2026-06-23T03:47:26Z</time>
   </trkpt>
   <trkpt lat="-3.0780880" lon="37.3626850">
    <ele>5736.5</ele>
    <time>2026-06-23T03:47:27Z</time>
   </trkpt>
   <trkpt lat="-3.0780880" lon="37.3626850">
    <ele>5736.5</ele>
    <time>2026-06-23T03:47:28Z</time>
   </trkpt>
   <trkpt lat="-3.0780870" lon="37.3626860">
    <ele>5736.5</ele>
    <time>2026-06-23T03:47:29Z</time>
   </trkpt>
   <trkpt lat="-3.0780880" lon="37.3626860">
    <ele>5736.5</ele>
    <time>2026-06-23T03:47:30Z</time>
   </trkpt>
   <trkpt lat="-3.0780880" lon="37.3626860">
    <ele>5736.5</ele>
    <time>2026-06-23T03:47:31Z</time>
   </trkpt>
   <trkpt lat="-3.0780870" lon="37.3626850">
    <ele>5736.5</ele>
    <time>2026-06-23T03:47:32Z</time>
   </trkpt>
   <trkpt lat="-3.0780870" lon="37.3626850">
    <ele>5736.5</ele>
    <time>2026-06-23T03:47:33Z</time>
   </trkpt>
   <trkpt lat="-3.0780850" lon="37.3626820">
    <ele>5736.5</ele>
    <time>2026-06-23T03:47:34Z</time>
   </trkpt>
   <trkpt lat="-3.0780830" lon="37.3626780">
    <ele>5736.6</ele>
    <time>2026-06-23T03:47:35Z</time>
   </trkpt>
   <trkpt lat="-3.0780840" lon="37.3626760">
    <ele>5736.6</ele>
    <time>2026-06-23T03:47:36Z</time>
   </trkpt>
   <trkpt lat="-3.0780840" lon="37.3626760">
    <ele>5736.6</ele>
    <time>2026-06-23T03:47:37Z</time>
   </trkpt>
   <trkpt lat="-3.0780850" lon="37.3626760">
    <ele>5736.6</ele>
    <time>2026-06-23T03:47:38Z</time>
   </trkpt>
   <trkpt lat="-3.0780870" lon="37.3626770">
    <ele>5736.6</ele>
    <time>2026-06-23T03:47:39Z</time>
   </trkpt>
   <trkpt lat="-3.0780860" lon="37.3626760">
    <ele>5736.6</ele>
    <time>2026-06-23T03:47:40Z</time>
   </trkpt>
   <trkpt lat="-3.0780840" lon="37.3626750">
    <ele>5736.6</ele>
    <time>2026-06-23T03:47:41Z</time>
   </trkpt>
   <trkpt lat="-3.0780830" lon="37.3626730">
    <ele>5736.6</ele>
    <time>2026-06-23T03:47:42Z</time>
   </trkpt>
   <trkpt lat="-3.0780860" lon="37.3626710">
    <ele>5736.6</ele>
    <time>2026-06-23T03:47:43Z</time>
   </trkpt>
   <trkpt lat="-3.0780840" lon="37.3626660">
    <ele>5736.6</ele>
    <time>2026-06-23T03:47:44Z</time>
   </trkpt>
   <trkpt lat="-3.0780850" lon="37.3626670">
    <ele>5736.6</ele>
    <time>2026-06-23T03:47:45Z</time>
   </trkpt>
   <trkpt lat="-3.0780860" lon="37.3626680">
    <ele>5736.6</ele>
    <time>2026-06-23T03:47:46Z</time>
   </trkpt>
   <trkpt lat="-3.0780890" lon="37.3626680">
    <ele>5736.6</ele>
    <time>2026-06-23T03:47:47Z</time>
   </trkpt>
   <trkpt lat="-3.0780910" lon="37.3626660">
    <ele>5736.6</ele>
    <time>2026-06-23T03:47:48Z</time>
   </trkpt>
   <trkpt lat="-3.0780930" lon="37.3626610">
    <ele>5736.6</ele>
    <time>2026-06-23T03:47:49Z</time>
   </trkpt>
   <trkpt lat="-3.0780980" lon="37.3626560">
    <ele>5736.7</ele>
    <time>2026-06-23T03:47:50Z</time>
   </trkpt>
   <trkpt lat="-3.0781000" lon="37.3626490">
    <ele>5736.7</ele>
    <time>2026-06-23T03:47:51Z</time>
   </trkpt>
   <trkpt lat="-3.0781060" lon="37.3626410">
    <ele>5736.7</ele>
    <time>2026-06-23T03:47:52Z</time>
   </trkpt>
   <trkpt lat="-3.0781070" lon="37.3626350">
    <ele>5736.7</ele>
    <time>2026-06-23T03:47:53Z</time>
   </trkpt>
   <trkpt lat="-3.0781120" lon="37.3626270">
    <ele>5736.8</ele>
    <time>2026-06-23T03:47:54Z</time>
   </trkpt>
   <trkpt lat="-3.0781150" lon="37.3626210">
    <ele>5736.8</ele>
    <time>2026-06-23T03:47:55Z</time>
   </trkpt>
   <trkpt lat="-3.0781140" lon="37.3626200">
    <ele>5736.8</ele>
    <time>2026-06-23T03:47:56Z</time>
   </trkpt>
   <trkpt lat="-3.0781150" lon="37.3626180">
    <ele>5736.8</ele>
    <time>2026-06-23T03:47:57Z</time>
   </trkpt>
   <trkpt lat="-3.0781150" lon="37.3626180">
    <ele>5736.8</ele>
    <time>2026-06-23T03:47:58Z</time>
   </trkpt>
   <trkpt lat="-3.0781150" lon="37.3626180">
    <ele>5736.8</ele>
    <time>2026-06-23T03:47:59Z</time>
   </trkpt>
   <trkpt lat="-3.0781150" lon="37.3626190">
    <ele>5736.8</ele>
    <time>2026-06-23T03:48:00Z</time>
   </trkpt>
   <trkpt lat="-3.0781150" lon="37.3626190">
    <ele>5736.8</ele>
    <time>2026-06-23T03:48:01Z</time>
   </trkpt>
   <trkpt lat="-3.0781160" lon="37.3626190">
    <ele>5736.8</ele>
    <time>2026-06-23T03:48:02Z</time>
   </trkpt>
   <trkpt lat="-3.0781160" lon="37.3626190">
    <ele>5736.8</ele>
    <time>2026-06-23T03:48:03Z</time>
   </trkpt>
   <trkpt lat="-3.0781160" lon="37.3626190">
    <ele>5736.8</ele>
    <time>2026-06-23T03:48:04Z</time>
   </trkpt>
   <trkpt lat="-3.0781160" lon="37.3626190">
    <ele>5736.8</ele>
    <time>2026-06-23T03:48:05Z</time>
   </trkpt>
   <trkpt lat="-3.0781160" lon="37.3626200">
    <ele>5736.8</ele>
    <time>2026-06-23T03:48:06Z</time>
   </trkpt>
   <trkpt lat="-3.0781160" lon="37.3626200">
    <ele>5736.8</ele>
    <time>2026-06-23T03:48:07Z</time>
   </trkpt>
   <trkpt lat="-3.0781160" lon="37.3626190">
    <ele>5736.8</ele>
    <time>2026-06-23T03:48:08Z</time>
   </trkpt>
   <trkpt lat="-3.0781170" lon="37.3626190">
    <ele>5736.8</ele>
    <time>2026-06-23T03:48:09Z</time>
   </trkpt>
   <trkpt lat="-3.0781170" lon="37.3626190">
    <ele>5736.8</ele>
    <time>2026-06-23T03:48:10Z</time>
   </trkpt>
   <trkpt lat="-3.0781170" lon="37.3626190">
    <ele>5736.8</ele>
    <time>2026-06-23T03:48:11Z</time>
   </trkpt>
   <trkpt lat="-3.0781170" lon="37.3626190">
    <ele>5736.8</ele>
    <time>2026-06-23T03:48:12Z</time>
   </trkpt>
   <trkpt lat="-3.0781170" lon="37.3626190">
    <ele>5736.8</ele>
    <time>2026-06-23T03:48:13Z</time>
   </trkpt>
   <trkpt lat="-3.0781170" lon="37.3626180">
    <ele>5736.8</ele>
    <time>2026-06-23T03:48:14Z</time>
   </trkpt>
   <trkpt lat="-3.0781170" lon="37.3626180">
    <ele>5736.8</ele>
    <time>2026-06-23T03:48:15Z</time>
   </trkpt>
   <trkpt lat="-3.0781150" lon="37.3626200">
    <ele>5736.8</ele>
    <time>2026-06-23T03:48:16Z</time>
   </trkpt>
   <trkpt lat="-3.0781160" lon="37.3626210">
    <ele>5736.8</ele>
    <time>2026-06-23T03:48:17Z</time>
   </trkpt>
   <trkpt lat="-3.0781150" lon="37.3626230">
    <ele>5736.8</ele>
    <time>2026-06-23T03:48:18Z</time>
   </trkpt>
   <trkpt lat="-3.0781150" lon="37.3626240">
    <ele>5736.8</ele>
    <time>2026-06-23T03:48:19Z</time>
   </trkpt>
   <trkpt lat="-3.0781150" lon="37.3626280">
    <ele>5736.8</ele>
    <time>2026-06-23T03:48:20Z</time>
   </trkpt>
   <trkpt lat="-3.0781130" lon="37.3626340">
    <ele>5736.8</ele>
    <time>2026-06-23T03:48:21Z</time>
   </trkpt>
   <trkpt lat="-3.0781130" lon="37.3626400">
    <ele>5736.9</ele>
    <time>2026-06-23T03:48:22Z</time>
   </trkpt>
   <trkpt lat="-3.0781130" lon="37.3626430">
    <ele>5736.9</ele>
    <time>2026-06-23T03:48:23Z</time>
   </trkpt>
   <trkpt lat="-3.0781130" lon="37.3626420">
    <ele>5736.9</ele>
    <time>2026-06-23T03:48:24Z</time>
   </trkpt>
   <trkpt lat="-3.0781120" lon="37.3626430">
    <ele>5736.9</ele>
    <time>2026-06-23T03:48:25Z</time>
   </trkpt>
   <trkpt lat="-3.0781120" lon="37.3626430">
    <ele>5736.9</ele>
    <time>2026-06-23T03:48:26Z</time>
   </trkpt>
   <trkpt lat="-3.0781110" lon="37.3626430">
    <ele>5736.9</ele>
    <time>2026-06-23T03:48:27Z</time>
   </trkpt>
   <trkpt lat="-3.0781110" lon="37.3626430">
    <ele>5736.9</ele>
    <time>2026-06-23T03:48:28Z</time>
   </trkpt>
   <trkpt lat="-3.0781110" lon="37.3626430">
    <ele>5736.9</ele>
    <time>2026-06-23T03:48:29Z</time>
   </trkpt>
   <trkpt lat="-3.0781110" lon="37.3626430">
    <ele>5736.9</ele>
    <time>2026-06-23T03:48:30Z</time>
   </trkpt>
   <trkpt lat="-3.0781110" lon="37.3626430">
    <ele>5736.9</ele>
    <time>2026-06-23T03:48:31Z</time>
   </trkpt>
   <trkpt lat="-3.0781120" lon="37.3626430">
    <ele>5736.9</ele>
    <time>2026-06-23T03:48:32Z</time>
   </trkpt>
   <trkpt lat="-3.0781150" lon="37.3626410">
    <ele>5736.9</ele>
    <time>2026-06-23T03:48:33Z</time>
   </trkpt>
   <trkpt lat="-3.0781150" lon="37.3626400">
    <ele>5736.9</ele>
    <time>2026-06-23T03:48:34Z</time>
   </trkpt>
   <trkpt lat="-3.0781170" lon="37.3626400">
    <ele>5736.9</ele>
    <time>2026-06-23T03:48:35Z</time>
   </trkpt>
   <trkpt lat="-3.0781160" lon="37.3626400">
    <ele>5736.9</ele>
    <time>2026-06-23T03:48:36Z</time>
   </trkpt>
   <trkpt lat="-3.0781160" lon="37.3626400">
    <ele>5736.9</ele>
    <time>2026-06-23T03:48:37Z</time>
   </trkpt>
   <trkpt lat="-3.0781160" lon="37.3626400">
    <ele>5736.9</ele>
    <time>2026-06-23T03:48:38Z</time>
   </trkpt>
   <trkpt lat="-3.0781160" lon="37.3626400">
    <ele>5736.9</ele>
    <time>2026-06-23T03:48:39Z</time>
   </trkpt>
   <trkpt lat="-3.0781160" lon="37.3626400">
    <ele>5736.9</ele>
    <time>2026-06-23T03:48:40Z</time>
   </trkpt>
   <trkpt lat="-3.0781160" lon="37.3626400">
    <ele>5736.9</ele>
    <time>2026-06-23T03:48:41Z</time>
   </trkpt>
   <trkpt lat="-3.0781160" lon="37.3626400">
    <ele>5736.9</ele>
    <time>2026-06-23T03:48:42Z</time>
   </trkpt>
   <trkpt lat="-3.0781170" lon="37.3626400">
    <ele>5736.9</ele>
    <time>2026-06-23T03:48:43Z</time>
   </trkpt>
   <trkpt lat="-3.0781160" lon="37.3626400">
    <ele>5736.9</ele>
    <time>2026-06-23T03:48:44Z</time>
   </trkpt>
   <trkpt lat="-3.0781160" lon="37.3626400">
    <ele>5736.9</ele>
    <time>2026-06-23T03:48:45Z</time>
   </trkpt>
   <trkpt lat="-3.0781160" lon="37.3626410">
    <ele>5736.9</ele>
    <time>2026-06-23T03:48:46Z</time>
   </trkpt>
   <trkpt lat="-3.0781160" lon="37.3626410">
    <ele>5736.9</ele>
    <time>2026-06-23T03:48:47Z</time>
   </trkpt>
   <trkpt lat="-3.0781160" lon="37.3626410">
    <ele>5736.9</ele>
    <time>2026-06-23T03:48:48Z</time>
   </trkpt>
   <trkpt lat="-3.0781160" lon="37.3626410">
    <ele>5736.9</ele>
    <time>2026-06-23T03:48:49Z</time>
   </trkpt>
   <trkpt lat="-3.0781160" lon="37.3626410">
    <ele>5736.9</ele>
    <time>2026-06-23T03:48:50Z</time>
   </trkpt>
   <trkpt lat="-3.0781160" lon="37.3626410">
    <ele>5736.9</ele>
    <time>2026-06-23T03:48:51Z</time>
   </trkpt>
   <trkpt lat="-3.0781160" lon="37.3626400">
    <ele>5736.9</ele>
    <time>2026-06-23T03:48:52Z</time>
   </trkpt>
   <trkpt lat="-3.0781150" lon="37.3626390">
    <ele>5736.9</ele>
    <time>2026-06-23T03:48:53Z</time>
   </trkpt>
   <trkpt lat="-3.0781150" lon="37.3626360">
    <ele>5736.9</ele>
    <time>2026-06-23T03:48:54Z</time>
   </trkpt>
   <trkpt lat="-3.0781100" lon="37.3626350">
    <ele>5736.9</ele>
    <time>2026-06-23T03:48:55Z</time>
   </trkpt>
   <trkpt lat="-3.0781060" lon="37.3626340">
    <ele>5736.9</ele>
    <time>2026-06-23T03:48:56Z</time>
   </trkpt>
   <trkpt lat="-3.0781010" lon="37.3626380">
    <ele>5737.0</ele>
    <time>2026-06-23T03:48:57Z</time>
   </trkpt>
   <trkpt lat="-3.0780920" lon="37.3626410">
    <ele>5737.0</ele>
    <time>2026-06-23T03:48:58Z</time>
   </trkpt>
   <trkpt lat="-3.0780840" lon="37.3626460">
    <ele>5737.0</ele>
    <time>2026-06-23T03:48:59Z</time>
   </trkpt>
   <trkpt lat="-3.0780790" lon="37.3626490">
    <ele>5737.0</ele>
    <time>2026-06-23T03:49:00Z</time>
   </trkpt>
   <trkpt lat="-3.0780770" lon="37.3626520">
    <ele>5737.0</ele>
    <time>2026-06-23T03:49:01Z</time>
   </trkpt>
   <trkpt lat="-3.0780770" lon="37.3626540">
    <ele>5737.0</ele>
    <time>2026-06-23T03:49:02Z</time>
   </trkpt>
   <trkpt lat="-3.0780770" lon="37.3626530">
    <ele>5737.0</ele>
    <time>2026-06-23T03:49:03Z</time>
   </trkpt>
   <trkpt lat="-3.0780770" lon="37.3626540">
    <ele>5737.1</ele>
    <time>2026-06-23T03:49:04Z</time>
   </trkpt>
   <trkpt lat="-3.0780770" lon="37.3626540">
    <ele>5737.1</ele>
    <time>2026-06-23T03:49:05Z</time>
   </trkpt>
   <trkpt lat="-3.0780770" lon="37.3626540">
    <ele>5737.1</ele>
    <time>2026-06-23T03:49:06Z</time>
   </trkpt>
   <trkpt lat="-3.0780770" lon="37.3626540">
    <ele>5737.1</ele>
    <time>2026-06-23T03:49:07Z</time>
   </trkpt>
   <trkpt lat="-3.0780770" lon="37.3626530">
    <ele>5737.1</ele>
    <time>2026-06-23T03:49:08Z</time>
   </trkpt>
   <trkpt lat="-3.0780770" lon="37.3626520">
    <ele>5737.1</ele>
    <time>2026-06-23T03:49:09Z</time>
   </trkpt>
   <trkpt lat="-3.0780780" lon="37.3626510">
    <ele>5737.1</ele>
    <time>2026-06-23T03:49:10Z</time>
   </trkpt>
   <trkpt lat="-3.0780790" lon="37.3626500">
    <ele>5737.1</ele>
    <time>2026-06-23T03:49:11Z</time>
   </trkpt>
   <trkpt lat="-3.0780830" lon="37.3626470">
    <ele>5737.1</ele>
    <time>2026-06-23T03:49:12Z</time>
   </trkpt>
   <trkpt lat="-3.0780870" lon="37.3626450">
    <ele>5737.1</ele>
    <time>2026-06-23T03:49:13Z</time>
   </trkpt>
   <trkpt lat="-3.0780910" lon="37.3626400">
    <ele>5737.1</ele>
    <time>2026-06-23T03:49:14Z</time>
   </trkpt>
   <trkpt lat="-3.0780970" lon="37.3626350">
    <ele>5737.1</ele>
    <time>2026-06-23T03:49:15Z</time>
   </trkpt>
   <trkpt lat="-3.0781050" lon="37.3626300">
    <ele>5737.2</ele>
    <time>2026-06-23T03:49:16Z</time>
   </trkpt>
   <trkpt lat="-3.0781130" lon="37.3626260">
    <ele>5737.2</ele>
    <time>2026-06-23T03:49:17Z</time>
   </trkpt>
   <trkpt lat="-3.0781160" lon="37.3626240">
    <ele>5737.2</ele>
    <time>2026-06-23T03:49:18Z</time>
   </trkpt>
   <trkpt lat="-3.0781170" lon="37.3626260">
    <ele>5737.2</ele>
    <time>2026-06-23T03:49:19Z</time>
   </trkpt>
   <trkpt lat="-3.0781150" lon="37.3626260">
    <ele>5737.2</ele>
    <time>2026-06-23T03:49:20Z</time>
   </trkpt>
   <trkpt lat="-3.0781120" lon="37.3626270">
    <ele>5737.2</ele>
    <time>2026-06-23T03:49:21Z</time>
   </trkpt>
   <trkpt lat="-3.0781130" lon="37.3626270">
    <ele>5737.2</ele>
    <time>2026-06-23T03:49:22Z</time>
   </trkpt>
   <trkpt lat="-3.0781110" lon="37.3626270">
    <ele>5737.2</ele>
    <time>2026-06-23T03:49:23Z</time>
   </trkpt>
   <trkpt lat="-3.0781120" lon="37.3626250">
    <ele>5737.2</ele>
    <time>2026-06-23T03:49:24Z</time>
   </trkpt>
   <trkpt lat="-3.0781130" lon="37.3626270">
    <ele>5737.2</ele>
    <time>2026-06-23T03:49:25Z</time>
   </trkpt>
   <trkpt lat="-3.0781120" lon="37.3626270">
    <ele>5737.2</ele>
    <time>2026-06-23T03:49:26Z</time>
   </trkpt>
   <trkpt lat="-3.0781110" lon="37.3626260">
    <ele>5737.2</ele>
    <time>2026-06-23T03:49:27Z</time>
   </trkpt>
   <trkpt lat="-3.0781120" lon="37.3626260">
    <ele>5737.2</ele>
    <time>2026-06-23T03:49:28Z</time>
   </trkpt>
   <trkpt lat="-3.0781110" lon="37.3626270">
    <ele>5737.2</ele>
    <time>2026-06-23T03:49:29Z</time>
   </trkpt>
   <trkpt lat="-3.0781110" lon="37.3626270">
    <ele>5737.2</ele>
    <time>2026-06-23T03:49:30Z</time>
   </trkpt>
   <trkpt lat="-3.0781110" lon="37.3626270">
    <ele>5737.2</ele>
    <time>2026-06-23T03:49:31Z</time>
   </trkpt>
   <trkpt lat="-3.0781120" lon="37.3626280">
    <ele>5737.2</ele>
    <time>2026-06-23T03:49:32Z</time>
   </trkpt>
   <trkpt lat="-3.0781090" lon="37.3626260">
    <ele>5737.3</ele>
    <time>2026-06-23T03:49:33Z</time>
   </trkpt>
   <trkpt lat="-3.0781090" lon="37.3626270">
    <ele>5737.3</ele>
    <time>2026-06-23T03:49:34Z</time>
   </trkpt>
   <trkpt lat="-3.0781120" lon="37.3626280">
    <ele>5737.3</ele>
    <time>2026-06-23T03:49:35Z</time>
   </trkpt>
   <trkpt lat="-3.0781120" lon="37.3626280">
    <ele>5737.3</ele>
    <time>2026-06-23T03:49:36Z</time>
   </trkpt>
   <trkpt lat="-3.0781110" lon="37.3626310">
    <ele>5737.3</ele>
    <time>2026-06-23T03:49:37Z</time>
   </trkpt>
   <trkpt lat="-3.0781110" lon="37.3626330">
    <ele>5737.3</ele>
    <time>2026-06-23T03:49:38Z</time>
   </trkpt>
   <trkpt lat="-3.0781100" lon="37.3626340">
    <ele>5737.3</ele>
    <time>2026-06-23T03:49:39Z</time>
   </trkpt>
   <trkpt lat="-3.0781120" lon="37.3626320">
    <ele>5737.3</ele>
    <time>2026-06-23T03:49:40Z</time>
   </trkpt>
   <trkpt lat="-3.0781130" lon="37.3626310">
    <ele>5737.3</ele>
    <time>2026-06-23T03:49:41Z</time>
   </trkpt>
   <trkpt lat="-3.0781110" lon="37.3626340">
    <ele>5737.3</ele>
    <time>2026-06-23T03:49:42Z</time>
   </trkpt>
   <trkpt lat="-3.0781130" lon="37.3626330">
    <ele>5737.3</ele>
    <time>2026-06-23T03:49:43Z</time>
   </trkpt>
   <trkpt lat="-3.0781100" lon="37.3626320">
    <ele>5737.3</ele>
    <time>2026-06-23T03:49:44Z</time>
   </trkpt>
   <trkpt lat="-3.0781090" lon="37.3626320">
    <ele>5737.3</ele>
    <time>2026-06-23T03:49:45Z</time>
   </trkpt>
   <trkpt lat="-3.0781110" lon="37.3626330">
    <ele>5737.3</ele>
    <time>2026-06-23T03:49:46Z</time>
   </trkpt>
   <trkpt lat="-3.0781120" lon="37.3626370">
    <ele>5737.3</ele>
    <time>2026-06-23T03:49:47Z</time>
   </trkpt>
   <trkpt lat="-3.0781060" lon="37.3626490">
    <ele>5737.4</ele>
    <time>2026-06-23T03:49:48Z</time>
   </trkpt>
   <trkpt lat="-3.0781000" lon="37.3626380">
    <ele>5737.4</ele>
    <time>2026-06-23T03:49:49Z</time>
   </trkpt>
   <trkpt lat="-3.0780990" lon="37.3626370">
    <ele>5737.4</ele>
    <time>2026-06-23T03:49:50Z</time>
   </trkpt>
   <trkpt lat="-3.0780990" lon="37.3626370">
    <ele>5737.4</ele>
    <time>2026-06-23T03:49:51Z</time>
   </trkpt>
   <trkpt lat="-3.0781040" lon="37.3626370">
    <ele>5737.4</ele>
    <time>2026-06-23T03:49:52Z</time>
   </trkpt>
   <trkpt lat="-3.0781060" lon="37.3626370">
    <ele>5737.4</ele>
    <time>2026-06-23T03:49:53Z</time>
   </trkpt>
   <trkpt lat="-3.0781070" lon="37.3626410">
    <ele>5737.4</ele>
    <time>2026-06-23T03:49:54Z</time>
   </trkpt>
   <trkpt lat="-3.0781190" lon="37.3626370">
    <ele>5737.5</ele>
    <time>2026-06-23T03:49:55Z</time>
   </trkpt>
   <trkpt lat="-3.0781090" lon="37.3626360">
    <ele>5737.5</ele>
    <time>2026-06-23T03:49:56Z</time>
   </trkpt>
   <trkpt lat="-3.0781100" lon="37.3626380">
    <ele>5737.5</ele>
    <time>2026-06-23T03:49:57Z</time>
   </trkpt>
   <trkpt lat="-3.0781060" lon="37.3626430">
    <ele>5737.5</ele>
    <time>2026-06-23T03:49:58Z</time>
   </trkpt>
   <trkpt lat="-3.0780990" lon="37.3626500">
    <ele>5737.6</ele>
    <time>2026-06-23T03:49:59Z</time>
   </trkpt>
   <trkpt lat="-3.0780960" lon="37.3626530">
    <ele>5737.6</ele>
    <time>2026-06-23T03:50:00Z</time>
   </trkpt>
   <trkpt lat="-3.0780980" lon="37.3626560">
    <ele>5737.6</ele>
    <time>2026-06-23T03:50:01Z</time>
   </trkpt>
   <trkpt lat="-3.0780980" lon="37.3626550">
    <ele>5737.6</ele>
    <time>2026-06-23T03:50:02Z</time>
   </trkpt>
   <trkpt lat="-3.0780970" lon="37.3626530">
    <ele>5737.6</ele>
    <time>2026-06-23T03:50:03Z</time>
   </trkpt>
   <trkpt lat="-3.0781000" lon="37.3626540">
    <ele>5737.6</ele>
    <time>2026-06-23T03:50:04Z</time>
   </trkpt>
   <trkpt lat="-3.0780980" lon="37.3626540">
    <ele>5737.6</ele>
    <time>2026-06-23T03:50:05Z</time>
   </trkpt>
   <trkpt lat="-3.0780970" lon="37.3626520">
    <ele>5737.6</ele>
    <time>2026-06-23T03:50:06Z</time>
   </trkpt>
   <trkpt lat="-3.0781010" lon="37.3626540">
    <ele>5737.6</ele>
    <time>2026-06-23T03:50:07Z</time>
   </trkpt>
   <trkpt lat="-3.0780980" lon="37.3626510">
    <ele>5737.6</ele>
    <time>2026-06-23T03:50:08Z</time>
   </trkpt>
   <trkpt lat="-3.0780980" lon="37.3626510">
    <ele>5737.6</ele>
    <time>2026-06-23T03:50:09Z</time>
   </trkpt>
   <trkpt lat="-3.0780960" lon="37.3626510">
    <ele>5737.6</ele>
    <time>2026-06-23T03:50:10Z</time>
   </trkpt>
   <trkpt lat="-3.0780930" lon="37.3626540">
    <ele>5737.6</ele>
    <time>2026-06-23T03:50:11Z</time>
   </trkpt>
   <trkpt lat="-3.0780910" lon="37.3626530">
    <ele>5737.6</ele>
    <time>2026-06-23T03:50:12Z</time>
   </trkpt>
   <trkpt lat="-3.0780920" lon="37.3626530">
    <ele>5737.7</ele>
    <time>2026-06-23T03:50:13Z</time>
   </trkpt>
   <trkpt lat="-3.0780910" lon="37.3626530">
    <ele>5737.7</ele>
    <time>2026-06-23T03:50:14Z</time>
   </trkpt>
   <trkpt lat="-3.0780910" lon="37.3626530">
    <ele>5737.7</ele>
    <time>2026-06-23T03:50:15Z</time>
   </trkpt>
   <trkpt lat="-3.0780910" lon="37.3626530">
    <ele>5737.7</ele>
    <time>2026-06-23T03:50:16Z</time>
   </trkpt>
   <trkpt lat="-3.0780950" lon="37.3626540">
    <ele>5737.7</ele>
    <time>2026-06-23T03:50:17Z</time>
   </trkpt>
   <trkpt lat="-3.0780950" lon="37.3626530">
    <ele>5737.7</ele>
    <time>2026-06-23T03:50:18Z</time>
   </trkpt>
   <trkpt lat="-3.0780940" lon="37.3626530">
    <ele>5737.7</ele>
    <time>2026-06-23T03:50:19Z</time>
   </trkpt>
   <trkpt lat="-3.0780940" lon="37.3626530">
    <ele>5737.7</ele>
    <time>2026-06-23T03:50:20Z</time>
   </trkpt>
   <trkpt lat="-3.0780930" lon="37.3626540">
    <ele>5737.7</ele>
    <time>2026-06-23T03:50:21Z</time>
   </trkpt>
   <trkpt lat="-3.0780920" lon="37.3626540">
    <ele>5737.7</ele>
    <time>2026-06-23T03:50:22Z</time>
   </trkpt>
   <trkpt lat="-3.0780920" lon="37.3626550">
    <ele>5737.7</ele>
    <time>2026-06-23T03:50:23Z</time>
   </trkpt>
   <trkpt lat="-3.0780920" lon="37.3626550">
    <ele>5737.7</ele>
    <time>2026-06-23T03:50:24Z</time>
   </trkpt>
   <trkpt lat="-3.0780920" lon="37.3626550">
    <ele>5737.7</ele>
    <time>2026-06-23T03:50:25Z</time>
   </trkpt>
   <trkpt lat="-3.0780930" lon="37.3626550">
    <ele>5737.7</ele>
    <time>2026-06-23T03:50:26Z</time>
   </trkpt>
   <trkpt lat="-3.0780970" lon="37.3626590">
    <ele>5737.7</ele>
    <time>2026-06-23T03:50:27Z</time>
   </trkpt>
   <trkpt lat="-3.0780980" lon="37.3626590">
    <ele>5737.7</ele>
    <time>2026-06-23T03:50:28Z</time>
   </trkpt>
   <trkpt lat="-3.0780960" lon="37.3626570">
    <ele>5737.7</ele>
    <time>2026-06-23T03:50:29Z</time>
   </trkpt>
   <trkpt lat="-3.0780950" lon="37.3626590">
    <ele>5737.7</ele>
    <time>2026-06-23T03:50:30Z</time>
   </trkpt>
   <trkpt lat="-3.0780970" lon="37.3626570">
    <ele>5737.7</ele>
    <time>2026-06-23T03:50:31Z</time>
   </trkpt>
   <trkpt lat="-3.0780980" lon="37.3626570">
    <ele>5737.7</ele>
    <time>2026-06-23T03:50:32Z</time>
   </trkpt>
   <trkpt lat="-3.0780970" lon="37.3626540">
    <ele>5737.7</ele>
    <time>2026-06-23T03:50:33Z</time>
   </trkpt>
   <trkpt lat="-3.0780950" lon="37.3626520">
    <ele>5737.7</ele>
    <time>2026-06-23T03:50:34Z</time>
   </trkpt>
   <trkpt lat="-3.0780950" lon="37.3626500">
    <ele>5737.7</ele>
    <time>2026-06-23T03:50:35Z</time>
   </trkpt>
   <trkpt lat="-3.0780950" lon="37.3626500">
    <ele>5737.7</ele>
    <time>2026-06-23T03:50:36Z</time>
   </trkpt>
   <trkpt lat="-3.0780940" lon="37.3626490">
    <ele>5737.7</ele>
    <time>2026-06-23T03:50:37Z</time>
   </trkpt>
   <trkpt lat="-3.0780970" lon="37.3626460">
    <ele>5737.8</ele>
    <time>2026-06-23T03:50:38Z</time>
   </trkpt>
   <trkpt lat="-3.0781050" lon="37.3626420">
    <ele>5737.8</ele>
    <time>2026-06-23T03:50:39Z</time>
   </trkpt>
   <trkpt lat="-3.0781120" lon="37.3626330">
    <ele>5737.8</ele>
    <time>2026-06-23T03:50:40Z</time>
   </trkpt>
   <trkpt lat="-3.0781170" lon="37.3626330">
    <ele>5737.8</ele>
    <time>2026-06-23T03:50:41Z</time>
   </trkpt>
   <trkpt lat="-3.0781170" lon="37.3626330">
    <ele>5737.8</ele>
    <time>2026-06-23T03:50:42Z</time>
   </trkpt>
   <trkpt lat="-3.0781160" lon="37.3626290">
    <ele>5737.8</ele>
    <time>2026-06-23T03:50:43Z</time>
   </trkpt>
   <trkpt lat="-3.0781110" lon="37.3626290">
    <ele>5737.8</ele>
    <time>2026-06-23T03:50:44Z</time>
   </trkpt>
   <trkpt lat="-3.0781100" lon="37.3626320">
    <ele>5737.9</ele>
    <time>2026-06-23T03:50:45Z</time>
   </trkpt>
   <trkpt lat="-3.0781090" lon="37.3626340">
    <ele>5737.9</ele>
    <time>2026-06-23T03:50:46Z</time>
   </trkpt>
   <trkpt lat="-3.0781100" lon="37.3626340">
    <ele>5737.9</ele>
    <time>2026-06-23T03:50:47Z</time>
   </trkpt>
   <trkpt lat="-3.0781080" lon="37.3626340">
    <ele>5737.9</ele>
    <time>2026-06-23T03:50:49Z</time>
   </trkpt>
   <trkpt lat="-3.0781090" lon="37.3626360">
    <ele>5737.9</ele>
    <time>2026-06-23T03:50:50Z</time>
   </trkpt>
   <trkpt lat="-3.0781090" lon="37.3626350">
    <ele>5737.9</ele>
    <time>2026-06-23T03:50:51Z</time>
   </trkpt>
   <trkpt lat="-3.0781100" lon="37.3626350">
    <ele>5737.9</ele>
    <time>2026-06-23T03:50:52Z</time>
   </trkpt>
   <trkpt lat="-3.0781100" lon="37.3626350">
    <ele>5737.9</ele>
    <time>2026-06-23T03:50:53Z</time>
   </trkpt>
   <trkpt lat="-3.0781100" lon="37.3626350">
    <ele>5737.9</ele>
    <time>2026-06-23T03:50:54Z</time>
   </trkpt>
   <trkpt lat="-3.0781090" lon="37.3626360">
    <ele>5737.9</ele>
    <time>2026-06-23T03:50:55Z</time>
   </trkpt>
   <trkpt lat="-3.0781100" lon="37.3626330">
    <ele>5737.9</ele>
    <time>2026-06-23T03:50:56Z</time>
   </trkpt>
   <trkpt lat="-3.0781100" lon="37.3626320">
    <ele>5737.9</ele>
    <time>2026-06-23T03:50:57Z</time>
   </trkpt>
   <trkpt lat="-3.0781100" lon="37.3626310">
    <ele>5737.9</ele>
    <time>2026-06-23T03:50:58Z</time>
   </trkpt>
   <trkpt lat="-3.0781100" lon="37.3626320">
    <ele>5737.9</ele>
    <time>2026-06-23T03:50:59Z</time>
   </trkpt>
   <trkpt lat="-3.0781100" lon="37.3626310">
    <ele>5737.9</ele>
    <time>2026-06-23T03:51:00Z</time>
   </trkpt>
   <trkpt lat="-3.0781080" lon="37.3626320">
    <ele>5737.9</ele>
    <time>2026-06-23T03:51:01Z</time>
   </trkpt>
   <trkpt lat="-3.0781100" lon="37.3626310">
    <ele>5737.9</ele>
    <time>2026-06-23T03:51:02Z</time>
   </trkpt>
   <trkpt lat="-3.0781050" lon="37.3626310">
    <ele>5737.9</ele>
    <time>2026-06-23T03:51:03Z</time>
   </trkpt>
   <trkpt lat="-3.0781070" lon="37.3626310">
    <ele>5737.9</ele>
    <time>2026-06-23T03:51:04Z</time>
   </trkpt>
   <trkpt lat="-3.0781050" lon="37.3626300">
    <ele>5737.9</ele>
    <time>2026-06-23T03:51:05Z</time>
   </trkpt>
   <trkpt lat="-3.0781080" lon="37.3626280">
    <ele>5737.9</ele>
    <time>2026-06-23T03:51:06Z</time>
   </trkpt>
   <trkpt lat="-3.0781090" lon="37.3626290">
    <ele>5737.9</ele>
    <time>2026-06-23T03:51:07Z</time>
   </trkpt>
   <trkpt lat="-3.0781030" lon="37.3626250">
    <ele>5738.0</ele>
    <time>2026-06-23T03:51:08Z</time>
   </trkpt>
   <trkpt lat="-3.0781060" lon="37.3626300">
    <ele>5738.0</ele>
    <time>2026-06-23T03:51:09Z</time>
   </trkpt>
   <trkpt lat="-3.0781060" lon="37.3626310">
    <ele>5738.0</ele>
    <time>2026-06-23T03:51:10Z</time>
   </trkpt>
   <trkpt lat="-3.0781020" lon="37.3626320">
    <ele>5738.0</ele>
    <time>2026-06-23T03:51:11Z</time>
   </trkpt>
   <trkpt lat="-3.0781050" lon="37.3626330">
    <ele>5738.0</ele>
    <time>2026-06-23T03:51:12Z</time>
   </trkpt>
   <trkpt lat="-3.0781050" lon="37.3626330">
    <ele>5738.0</ele>
    <time>2026-06-23T03:51:13Z</time>
   </trkpt>
   <trkpt lat="-3.0781060" lon="37.3626330">
    <ele>5738.0</ele>
    <time>2026-06-23T03:51:14Z</time>
   </trkpt>
   <trkpt lat="-3.0781070" lon="37.3626330">
    <ele>5738.0</ele>
    <time>2026-06-23T03:51:15Z</time>
   </trkpt>
   <trkpt lat="-3.0781090" lon="37.3626330">
    <ele>5738.0</ele>
    <time>2026-06-23T03:51:16Z</time>
   </trkpt>
   <trkpt lat="-3.0781090" lon="37.3626320">
    <ele>5738.0</ele>
    <time>2026-06-23T03:51:17Z</time>
   </trkpt>
   <trkpt lat="-3.0781090" lon="37.3626320">
    <ele>5738.0</ele>
    <time>2026-06-23T03:51:18Z</time>
   </trkpt>
   <trkpt lat="-3.0781100" lon="37.3626320">
    <ele>5738.0</ele>
    <time>2026-06-23T03:51:19Z</time>
   </trkpt>
   <trkpt lat="-3.0781100" lon="37.3626330">
    <ele>5738.0</ele>
    <time>2026-06-23T03:51:20Z</time>
   </trkpt>
   <trkpt lat="-3.0781120" lon="37.3626320">
    <ele>5738.0</ele>
    <time>2026-06-23T03:51:21Z</time>
   </trkpt>
   <trkpt lat="-3.0781150" lon="37.3626340">
    <ele>5738.0</ele>
    <time>2026-06-23T03:51:22Z</time>
   </trkpt>
   <trkpt lat="-3.0781180" lon="37.3626340">
    <ele>5738.0</ele>
    <time>2026-06-23T03:51:23Z</time>
   </trkpt>
   <trkpt lat="-3.0781230" lon="37.3626370">
    <ele>5738.1</ele>
    <time>2026-06-23T03:51:24Z</time>
   </trkpt>
   <trkpt lat="-3.0781280" lon="37.3626380">
    <ele>5738.1</ele>
    <time>2026-06-23T03:51:25Z</time>
   </trkpt>
   <trkpt lat="-3.0781310" lon="37.3626380">
    <ele>5738.1</ele>
    <time>2026-06-23T03:51:26Z</time>
   </trkpt>
   <trkpt lat="-3.0781360" lon="37.3626380">
    <ele>5738.1</ele>
    <time>2026-06-23T03:51:27Z</time>
   </trkpt>
   <trkpt lat="-3.0781450" lon="37.3626410">
    <ele>5738.1</ele>
    <time>2026-06-23T03:51:28Z</time>
   </trkpt>
   <trkpt lat="-3.0781490" lon="37.3626410">
    <ele>5738.1</ele>
    <time>2026-06-23T03:51:29Z</time>
   </trkpt>
   <trkpt lat="-3.0781590" lon="37.3626440">
    <ele>5738.2</ele>
    <time>2026-06-23T03:51:30Z</time>
   </trkpt>
   <trkpt lat="-3.0781650" lon="37.3626410">
    <ele>5738.2</ele>
    <time>2026-06-23T03:51:31Z</time>
   </trkpt>
   <trkpt lat="-3.0781680" lon="37.3626380">
    <ele>5738.2</ele>
    <time>2026-06-23T03:51:32Z</time>
   </trkpt>
   <trkpt lat="-3.0781720" lon="37.3626340">
    <ele>5738.2</ele>
    <time>2026-06-23T03:51:33Z</time>
   </trkpt>
   <trkpt lat="-3.0781760" lon="37.3626250">
    <ele>5738.2</ele>
    <time>2026-06-23T03:51:34Z</time>
   </trkpt>
   <trkpt lat="-3.0781760" lon="37.3626200">
    <ele>5738.2</ele>
    <time>2026-06-23T03:51:35Z</time>
   </trkpt>
   <trkpt lat="-3.0781800" lon="37.3626200">
    <ele>5738.2</ele>
    <time>2026-06-23T03:51:36Z</time>
   </trkpt>
   <trkpt lat="-3.0782140" lon="37.3626100">
    <ele>5738.3</ele>
    <time>2026-06-23T03:51:37Z</time>
   </trkpt>
   <trkpt lat="-3.0782530" lon="37.3626130">
    <ele>5738.4</ele>
    <time>2026-06-23T03:51:38Z</time>
   </trkpt>
   <trkpt lat="-3.0782050" lon="37.3626130">
    <ele>5738.6</ele>
    <time>2026-06-23T03:51:39Z</time>
   </trkpt>
   <trkpt lat="-3.0781910" lon="37.3626040">
    <ele>5738.6</ele>
    <time>2026-06-23T03:51:40Z</time>
   </trkpt>
   <trkpt lat="-3.0781900" lon="37.3625970">
    <ele>5738.6</ele>
    <time>2026-06-23T03:51:41Z</time>
   </trkpt>
   <trkpt lat="-3.0781740" lon="37.3626280">
    <ele>5738.7</ele>
    <time>2026-06-23T03:51:42Z</time>
   </trkpt>
   <trkpt lat="-3.0781750" lon="37.3626240">
    <ele>5738.7</ele>
    <time>2026-06-23T03:51:43Z</time>
   </trkpt>
   <trkpt lat="-3.0781750" lon="37.3626240">
    <ele>5738.7</ele>
    <time>2026-06-23T03:51:44Z</time>
   </trkpt>
   <trkpt lat="-3.0781730" lon="37.3626240">
    <ele>5738.7</ele>
    <time>2026-06-23T03:51:45Z</time>
   </trkpt>
   <trkpt lat="-3.0781710" lon="37.3626230">
    <ele>5738.7</ele>
    <time>2026-06-23T03:51:46Z</time>
   </trkpt>
   <trkpt lat="-3.0781710" lon="37.3626240">
    <ele>5738.7</ele>
    <time>2026-06-23T03:51:47Z</time>
   </trkpt>
   <trkpt lat="-3.0781760" lon="37.3626250">
    <ele>5738.8</ele>
    <time>2026-06-23T03:51:48Z</time>
   </trkpt>
   <trkpt lat="-3.0781750" lon="37.3626290">
    <ele>5738.8</ele>
    <time>2026-06-23T03:51:49Z</time>
   </trkpt>
   <trkpt lat="-3.0781700" lon="37.3626290">
    <ele>5738.8</ele>
    <time>2026-06-23T03:51:50Z</time>
   </trkpt>
   <trkpt lat="-3.0781710" lon="37.3626270">
    <ele>5738.8</ele>
    <time>2026-06-23T03:51:51Z</time>
   </trkpt>
   <trkpt lat="-3.0781700" lon="37.3626240">
    <ele>5738.8</ele>
    <time>2026-06-23T03:51:52Z</time>
   </trkpt>
   <trkpt lat="-3.0781630" lon="37.3626250">
    <ele>5738.8</ele>
    <time>2026-06-23T03:51:53Z</time>
   </trkpt>
   <trkpt lat="-3.0781610" lon="37.3626230">
    <ele>5738.8</ele>
    <time>2026-06-23T03:51:54Z</time>
   </trkpt>
   <trkpt lat="-3.0781590" lon="37.3626300">
    <ele>5738.8</ele>
    <time>2026-06-23T03:51:55Z</time>
   </trkpt>
   <trkpt lat="-3.0781570" lon="37.3626320">
    <ele>5738.8</ele>
    <time>2026-06-23T03:51:56Z</time>
   </trkpt>
   <trkpt lat="-3.0781570" lon="37.3626370">
    <ele>5738.9</ele>
    <time>2026-06-23T03:51:57Z</time>
   </trkpt>
   <trkpt lat="-3.0781560" lon="37.3626390">
    <ele>5738.9</ele>
    <time>2026-06-23T03:51:58Z</time>
   </trkpt>
   <trkpt lat="-3.0781560" lon="37.3626390">
    <ele>5738.9</ele>
    <time>2026-06-23T03:51:59Z</time>
   </trkpt>
   <trkpt lat="-3.0781590" lon="37.3626400">
    <ele>5738.9</ele>
    <time>2026-06-23T03:52:00Z</time>
   </trkpt>
   <trkpt lat="-3.0781590" lon="37.3626400">
    <ele>5738.9</ele>
    <time>2026-06-23T03:52:01Z</time>
   </trkpt>
   <trkpt lat="-3.0781620" lon="37.3626320">
    <ele>5738.9</ele>
    <time>2026-06-23T03:52:02Z</time>
   </trkpt>
   <trkpt lat="-3.0781630" lon="37.3626320">
    <ele>5738.9</ele>
    <time>2026-06-23T03:52:03Z</time>
   </trkpt>
   <trkpt lat="-3.0781660" lon="37.3626330">
    <ele>5738.9</ele>
    <time>2026-06-23T03:52:04Z</time>
   </trkpt>
   <trkpt lat="-3.0781660" lon="37.3626330">
    <ele>5738.9</ele>
    <time>2026-06-23T03:52:05Z</time>
   </trkpt>
   <trkpt lat="-3.0781670" lon="37.3626350">
    <ele>5738.9</ele>
    <time>2026-06-23T03:52:06Z</time>
   </trkpt>
   <trkpt lat="-3.0781620" lon="37.3626350">
    <ele>5738.9</ele>
    <time>2026-06-23T03:52:07Z</time>
   </trkpt>
   <trkpt lat="-3.0781650" lon="37.3626440">
    <ele>5738.9</ele>
    <time>2026-06-23T03:52:08Z</time>
   </trkpt>
   <trkpt lat="-3.0781700" lon="37.3626370">
    <ele>5739.0</ele>
    <time>2026-06-23T03:52:09Z</time>
   </trkpt>
   <trkpt lat="-3.0781730" lon="37.3626300">
    <ele>5739.0</ele>
    <time>2026-06-23T03:52:10Z</time>
   </trkpt>
   <trkpt lat="-3.0781740" lon="37.3626290">
    <ele>5739.0</ele>
    <time>2026-06-23T03:52:11Z</time>
   </trkpt>
   <trkpt lat="-3.0781710" lon="37.3626300">
    <ele>5739.0</ele>
    <time>2026-06-23T03:52:12Z</time>
   </trkpt>
   <trkpt lat="-3.0781710" lon="37.3626310">
    <ele>5739.0</ele>
    <time>2026-06-23T03:52:13Z</time>
   </trkpt>
   <trkpt lat="-3.0781640" lon="37.3626340">
    <ele>5739.0</ele>
    <time>2026-06-23T03:52:14Z</time>
   </trkpt>
   <trkpt lat="-3.0781630" lon="37.3626340">
    <ele>5739.0</ele>
    <time>2026-06-23T03:52:15Z</time>
   </trkpt>
   <trkpt lat="-3.0781620" lon="37.3626350">
    <ele>5739.0</ele>
    <time>2026-06-23T03:52:16Z</time>
   </trkpt>
   <trkpt lat="-3.0781610" lon="37.3626350">
    <ele>5739.0</ele>
    <time>2026-06-23T03:52:17Z</time>
   </trkpt>
   <trkpt lat="-3.0781610" lon="37.3626360">
    <ele>5739.0</ele>
    <time>2026-06-23T03:52:18Z</time>
   </trkpt>
   <trkpt lat="-3.0781610" lon="37.3626300">
    <ele>5739.0</ele>
    <time>2026-06-23T03:52:19Z</time>
   </trkpt>
   <trkpt lat="-3.0781600" lon="37.3626300">
    <ele>5739.0</ele>
    <time>2026-06-23T03:52:20Z</time>
   </trkpt>
   <trkpt lat="-3.0781630" lon="37.3626310">
    <ele>5739.1</ele>
    <time>2026-06-23T03:52:21Z</time>
   </trkpt>
   <trkpt lat="-3.0781620" lon="37.3626320">
    <ele>5739.1</ele>
    <time>2026-06-23T03:52:22Z</time>
   </trkpt>
   <trkpt lat="-3.0781630" lon="37.3626310">
    <ele>5739.1</ele>
    <time>2026-06-23T03:52:23Z</time>
   </trkpt>
   <trkpt lat="-3.0781630" lon="37.3626370">
    <ele>5739.1</ele>
    <time>2026-06-23T03:52:24Z</time>
   </trkpt>
   <trkpt lat="-3.0781640" lon="37.3626380">
    <ele>5739.1</ele>
    <time>2026-06-23T03:52:25Z</time>
   </trkpt>
   <trkpt lat="-3.0781640" lon="37.3626380">
    <ele>5739.1</ele>
    <time>2026-06-23T03:52:26Z</time>
   </trkpt>
   <trkpt lat="-3.0781630" lon="37.3626380">
    <ele>5739.1</ele>
    <time>2026-06-23T03:52:27Z</time>
   </trkpt>
   <trkpt lat="-3.0781630" lon="37.3626380">
    <ele>5739.1</ele>
    <time>2026-06-23T03:52:28Z</time>
   </trkpt>
   <trkpt lat="-3.0781620" lon="37.3626390">
    <ele>5739.1</ele>
    <time>2026-06-23T03:52:29Z</time>
   </trkpt>
   <trkpt lat="-3.0781630" lon="37.3626350">
    <ele>5739.1</ele>
    <time>2026-06-23T03:52:30Z</time>
   </trkpt>
   <trkpt lat="-3.0781660" lon="37.3626360">
    <ele>5739.1</ele>
    <time>2026-06-23T03:52:31Z</time>
   </trkpt>
   <trkpt lat="-3.0781650" lon="37.3626360">
    <ele>5739.1</ele>
    <time>2026-06-23T03:52:32Z</time>
   </trkpt>
   <trkpt lat="-3.0781640" lon="37.3626360">
    <ele>5739.1</ele>
    <time>2026-06-23T03:52:33Z</time>
   </trkpt>
   <trkpt lat="-3.0781640" lon="37.3626360">
    <ele>5739.1</ele>
    <time>2026-06-23T03:52:34Z</time>
   </trkpt>
   <trkpt lat="-3.0781640" lon="37.3626360">
    <ele>5739.1</ele>
    <time>2026-06-23T03:52:35Z</time>
   </trkpt>
   <trkpt lat="-3.0781630" lon="37.3626370">
    <ele>5739.1</ele>
    <time>2026-06-23T03:52:36Z</time>
   </trkpt>
   <trkpt lat="-3.0781620" lon="37.3626380">
    <ele>5739.1</ele>
    <time>2026-06-23T03:52:37Z</time>
   </trkpt>
   <trkpt lat="-3.0781620" lon="37.3626380">
    <ele>5739.1</ele>
    <time>2026-06-23T03:52:38Z</time>
   </trkpt>
   <trkpt lat="-3.0781610" lon="37.3626370">
    <ele>5739.1</ele>
    <time>2026-06-23T03:52:39Z</time>
   </trkpt>
   <trkpt lat="-3.0781610" lon="37.3626390">
    <ele>5739.1</ele>
    <time>2026-06-23T03:52:40Z</time>
   </trkpt>
   <trkpt lat="-3.0781610" lon="37.3626390">
    <ele>5739.1</ele>
    <time>2026-06-23T03:52:41Z</time>
   </trkpt>
   <trkpt lat="-3.0781610" lon="37.3626390">
    <ele>5739.1</ele>
    <time>2026-06-23T03:52:42Z</time>
   </trkpt>
   <trkpt lat="-3.0781610" lon="37.3626390">
    <ele>5739.1</ele>
    <time>2026-06-23T03:52:43Z</time>
   </trkpt>
   <trkpt lat="-3.0781620" lon="37.3626370">
    <ele>5739.1</ele>
    <time>2026-06-23T03:52:44Z</time>
   </trkpt>
   <trkpt lat="-3.0781600" lon="37.3626380">
    <ele>5739.1</ele>
    <time>2026-06-23T03:52:45Z</time>
   </trkpt>
   <trkpt lat="-3.0781620" lon="37.3626380">
    <ele>5739.1</ele>
    <time>2026-06-23T03:52:46Z</time>
   </trkpt>
   <trkpt lat="-3.0781610" lon="37.3626350">
    <ele>5739.2</ele>
    <time>2026-06-23T03:52:47Z</time>
   </trkpt>
   <trkpt lat="-3.0781620" lon="37.3626390">
    <ele>5739.2</ele>
    <time>2026-06-23T03:52:48Z</time>
   </trkpt>
   <trkpt lat="-3.0781630" lon="37.3626360">
    <ele>5739.2</ele>
    <time>2026-06-23T03:52:49Z</time>
   </trkpt>
   <trkpt lat="-3.0781630" lon="37.3626360">
    <ele>5739.2</ele>
    <time>2026-06-23T03:52:50Z</time>
   </trkpt>
   <trkpt lat="-3.0781660" lon="37.3626380">
    <ele>5739.2</ele>
    <time>2026-06-23T03:52:51Z</time>
   </trkpt>
   <trkpt lat="-3.0781620" lon="37.3626360">
    <ele>5739.2</ele>
    <time>2026-06-23T03:52:52Z</time>
   </trkpt>
   <trkpt lat="-3.0781650" lon="37.3626360">
    <ele>5739.2</ele>
    <time>2026-06-23T03:52:53Z</time>
   </trkpt>
   <trkpt lat="-3.0781640" lon="37.3626360">
    <ele>5739.2</ele>
    <time>2026-06-23T03:52:55Z</time>
   </trkpt>
   <trkpt lat="-3.0781640" lon="37.3626360">
    <ele>5739.2</ele>
    <time>2026-06-23T03:52:56Z</time>
   </trkpt>
   <trkpt lat="-3.0781620" lon="37.3626350">
    <ele>5739.2</ele>
    <time>2026-06-23T03:52:57Z</time>
   </trkpt>
   <trkpt lat="-3.0781640" lon="37.3626360">
    <ele>5739.2</ele>
    <time>2026-06-23T03:52:58Z</time>
   </trkpt>
   <trkpt lat="-3.0781610" lon="37.3626350">
    <ele>5739.2</ele>
    <time>2026-06-23T03:52:59Z</time>
   </trkpt>
   <trkpt lat="-3.0781610" lon="37.3626340">
    <ele>5739.2</ele>
    <time>2026-06-23T03:53:00Z</time>
   </trkpt>
   <trkpt lat="-3.0781640" lon="37.3626320">
    <ele>5739.2</ele>
    <time>2026-06-23T03:53:01Z</time>
   </trkpt>
   <trkpt lat="-3.0781650" lon="37.3626300">
    <ele>5739.2</ele>
    <time>2026-06-23T03:53:02Z</time>
   </trkpt>
   <trkpt lat="-3.0781670" lon="37.3626320">
    <ele>5739.3</ele>
    <time>2026-06-23T03:53:03Z</time>
   </trkpt>
   <trkpt lat="-3.0781660" lon="37.3626300">
    <ele>5739.3</ele>
    <time>2026-06-23T03:53:04Z</time>
   </trkpt>
   <trkpt lat="-3.0781670" lon="37.3626300">
    <ele>5739.3</ele>
    <time>2026-06-23T03:53:05Z</time>
   </trkpt>
   <trkpt lat="-3.0781670" lon="37.3626290">
    <ele>5739.3</ele>
    <time>2026-06-23T03:53:06Z</time>
   </trkpt>
   <trkpt lat="-3.0781680" lon="37.3626280">
    <ele>5739.3</ele>
    <time>2026-06-23T03:53:07Z</time>
   </trkpt>
   <trkpt lat="-3.0781690" lon="37.3626280">
    <ele>5739.3</ele>
    <time>2026-06-23T03:53:08Z</time>
   </trkpt>
   <trkpt lat="-3.0781670" lon="37.3626280">
    <ele>5739.3</ele>
    <time>2026-06-23T03:53:09Z</time>
   </trkpt>
   <trkpt lat="-3.0781680" lon="37.3626280">
    <ele>5739.3</ele>
    <time>2026-06-23T03:53:10Z</time>
   </trkpt>
   <trkpt lat="-3.0781670" lon="37.3626280">
    <ele>5739.3</ele>
    <time>2026-06-23T03:53:11Z</time>
   </trkpt>
   <trkpt lat="-3.0781680" lon="37.3626280">
    <ele>5739.3</ele>
    <time>2026-06-23T03:53:12Z</time>
   </trkpt>
   <trkpt lat="-3.0781680" lon="37.3626280">
    <ele>5739.3</ele>
    <time>2026-06-23T03:53:13Z</time>
   </trkpt>
   <trkpt lat="-3.0781670" lon="37.3626280">
    <ele>5739.3</ele>
    <time>2026-06-23T03:53:14Z</time>
   </trkpt>
   <trkpt lat="-3.0781680" lon="37.3626280">
    <ele>5739.3</ele>
    <time>2026-06-23T03:53:15Z</time>
   </trkpt>
   <trkpt lat="-3.0781680" lon="37.3626280">
    <ele>5739.3</ele>
    <time>2026-06-23T03:53:16Z</time>
   </trkpt>
   <trkpt lat="-3.0781680" lon="37.3626280">
    <ele>5739.3</ele>
    <time>2026-06-23T03:53:17Z</time>
   </trkpt>
   <trkpt lat="-3.0781680" lon="37.3626280">
    <ele>5739.3</ele>
    <time>2026-06-23T03:53:18Z</time>
   </trkpt>
   <trkpt lat="-3.0781670" lon="37.3626290">
    <ele>5739.3</ele>
    <time>2026-06-23T03:53:19Z</time>
   </trkpt>
   <trkpt lat="-3.0781660" lon="37.3626280">
    <ele>5739.3</ele>
    <time>2026-06-23T03:53:20Z</time>
   </trkpt>
   <trkpt lat="-3.0781650" lon="37.3626290">
    <ele>5739.3</ele>
    <time>2026-06-23T03:53:21Z</time>
   </trkpt>
   <trkpt lat="-3.0781650" lon="37.3626310">
    <ele>5739.3</ele>
    <time>2026-06-23T03:53:22Z</time>
   </trkpt>
   <trkpt lat="-3.0781640" lon="37.3626300">
    <ele>5739.3</ele>
    <time>2026-06-23T03:53:23Z</time>
   </trkpt>
   <trkpt lat="-3.0781650" lon="37.3626290">
    <ele>5739.3</ele>
    <time>2026-06-23T03:53:24Z</time>
   </trkpt>
   <trkpt lat="-3.0781640" lon="37.3626290">
    <ele>5739.3</ele>
    <time>2026-06-23T03:53:25Z</time>
   </trkpt>
   <trkpt lat="-3.0781640" lon="37.3626300">
    <ele>5739.3</ele>
    <time>2026-06-23T03:53:26Z</time>
   </trkpt>
   <trkpt lat="-3.0781640" lon="37.3626300">
    <ele>5739.3</ele>
    <time>2026-06-23T03:53:27Z</time>
   </trkpt>
   <trkpt lat="-3.0781630" lon="37.3626290">
    <ele>5739.3</ele>
    <time>2026-06-23T03:53:28Z</time>
   </trkpt>
   <trkpt lat="-3.0781630" lon="37.3626310">
    <ele>5739.3</ele>
    <time>2026-06-23T03:53:29Z</time>
   </trkpt>
   <trkpt lat="-3.0781630" lon="37.3626310">
    <ele>5739.3</ele>
    <time>2026-06-23T03:53:30Z</time>
   </trkpt>
   <trkpt lat="-3.0781630" lon="37.3626310">
    <ele>5739.3</ele>
    <time>2026-06-23T03:53:31Z</time>
   </trkpt>
   <trkpt lat="-3.0781630" lon="37.3626310">
    <ele>5739.3</ele>
    <time>2026-06-23T03:53:32Z</time>
   </trkpt>
   <trkpt lat="-3.0781630" lon="37.3626310">
    <ele>5739.3</ele>
    <time>2026-06-23T03:53:33Z</time>
   </trkpt>
   <trkpt lat="-3.0781620" lon="37.3626300">
    <ele>5739.3</ele>
    <time>2026-06-23T03:53:34Z</time>
   </trkpt>
   <trkpt lat="-3.0781630" lon="37.3626310">
    <ele>5739.3</ele>
    <time>2026-06-23T03:53:35Z</time>
   </trkpt>
   <trkpt lat="-3.0781630" lon="37.3626300">
    <ele>5739.3</ele>
    <time>2026-06-23T03:53:36Z</time>
   </trkpt>
   <trkpt lat="-3.0781630" lon="37.3626300">
    <ele>5739.3</ele>
    <time>2026-06-23T03:53:37Z</time>
   </trkpt>
   <trkpt lat="-3.0781620" lon="37.3626300">
    <ele>5739.3</ele>
    <time>2026-06-23T03:53:38Z</time>
   </trkpt>
   <trkpt lat="-3.0781620" lon="37.3626290">
    <ele>5739.3</ele>
    <time>2026-06-23T03:53:39Z</time>
   </trkpt>
   <trkpt lat="-3.0781620" lon="37.3626280">
    <ele>5739.3</ele>
    <time>2026-06-23T03:53:40Z</time>
   </trkpt>
   <trkpt lat="-3.0781630" lon="37.3626300">
    <ele>5739.3</ele>
    <time>2026-06-23T03:53:41Z</time>
   </trkpt>
   <trkpt lat="-3.0781630" lon="37.3626300">
    <ele>5739.3</ele>
    <time>2026-06-23T03:53:42Z</time>
   </trkpt>
   <trkpt lat="-3.0781630" lon="37.3626300">
    <ele>5739.3</ele>
    <time>2026-06-23T03:53:43Z</time>
   </trkpt>
   <trkpt lat="-3.0781630" lon="37.3626310">
    <ele>5739.3</ele>
    <time>2026-06-23T03:53:44Z</time>
   </trkpt>
   <trkpt lat="-3.0781630" lon="37.3626300">
    <ele>5739.4</ele>
    <time>2026-06-23T03:53:45Z</time>
   </trkpt>
   <trkpt lat="-3.0781630" lon="37.3626270">
    <ele>5739.4</ele>
    <time>2026-06-23T03:53:46Z</time>
   </trkpt>
   <trkpt lat="-3.0781640" lon="37.3626260">
    <ele>5739.4</ele>
    <time>2026-06-23T03:53:47Z</time>
   </trkpt>
   <trkpt lat="-3.0781640" lon="37.3626240">
    <ele>5739.4</ele>
    <time>2026-06-23T03:53:48Z</time>
   </trkpt>
   <trkpt lat="-3.0781670" lon="37.3626260">
    <ele>5739.4</ele>
    <time>2026-06-23T03:53:49Z</time>
   </trkpt>
   <trkpt lat="-3.0781670" lon="37.3626260">
    <ele>5739.4</ele>
    <time>2026-06-23T03:53:50Z</time>
   </trkpt>
   <trkpt lat="-3.0781680" lon="37.3626250">
    <ele>5739.4</ele>
    <time>2026-06-23T03:53:51Z</time>
   </trkpt>
   <trkpt lat="-3.0781690" lon="37.3626250">
    <ele>5739.4</ele>
    <time>2026-06-23T03:53:52Z</time>
   </trkpt>
   <trkpt lat="-3.0781690" lon="37.3626250">
    <ele>5739.4</ele>
    <time>2026-06-23T03:53:53Z</time>
   </trkpt>
   <trkpt lat="-3.0781720" lon="37.3626250">
    <ele>5739.4</ele>
    <time>2026-06-23T03:53:54Z</time>
   </trkpt>
   <trkpt lat="-3.0781710" lon="37.3626260">
    <ele>5739.4</ele>
    <time>2026-06-23T03:53:55Z</time>
   </trkpt>
   <trkpt lat="-3.0781710" lon="37.3626250">
    <ele>5739.4</ele>
    <time>2026-06-23T03:53:56Z</time>
   </trkpt>
   <trkpt lat="-3.0781710" lon="37.3626250">
    <ele>5739.4</ele>
    <time>2026-06-23T03:53:57Z</time>
   </trkpt>
   <trkpt lat="-3.0781710" lon="37.3626260">
    <ele>5739.4</ele>
    <time>2026-06-23T03:53:58Z</time>
   </trkpt>
   <trkpt lat="-3.0781710" lon="37.3626260">
    <ele>5739.4</ele>
    <time>2026-06-23T03:53:59Z</time>
   </trkpt>
   <trkpt lat="-3.0781720" lon="37.3626260">
    <ele>5739.4</ele>
    <time>2026-06-23T03:54:00Z</time>
   </trkpt>
   <trkpt lat="-3.0781720" lon="37.3626250">
    <ele>5739.4</ele>
    <time>2026-06-23T03:54:01Z</time>
   </trkpt>
   <trkpt lat="-3.0781720" lon="37.3626250">
    <ele>5739.4</ele>
    <time>2026-06-23T03:54:02Z</time>
   </trkpt>
   <trkpt lat="-3.0781720" lon="37.3626250">
    <ele>5739.4</ele>
    <time>2026-06-23T03:54:03Z</time>
   </trkpt>
   <trkpt lat="-3.0781750" lon="37.3626250">
    <ele>5739.4</ele>
    <time>2026-06-23T03:54:04Z</time>
   </trkpt>
   <trkpt lat="-3.0781750" lon="37.3626250">
    <ele>5739.4</ele>
    <time>2026-06-23T03:54:05Z</time>
   </trkpt>
   <trkpt lat="-3.0781750" lon="37.3626250">
    <ele>5739.4</ele>
    <time>2026-06-23T03:54:06Z</time>
   </trkpt>
   <trkpt lat="-3.0781750" lon="37.3626250">
    <ele>5739.4</ele>
    <time>2026-06-23T03:54:07Z</time>
   </trkpt>
   <trkpt lat="-3.0781750" lon="37.3626250">
    <ele>5739.4</ele>
    <time>2026-06-23T03:54:08Z</time>
   </trkpt>
   <trkpt lat="-3.0781730" lon="37.3626250">
    <ele>5739.4</ele>
    <time>2026-06-23T03:54:09Z</time>
   </trkpt>
   <trkpt lat="-3.0781730" lon="37.3626250">
    <ele>5739.4</ele>
    <time>2026-06-23T03:54:10Z</time>
   </trkpt>
   <trkpt lat="-3.0781710" lon="37.3626250">
    <ele>5739.4</ele>
    <time>2026-06-23T03:54:11Z</time>
   </trkpt>
   <trkpt lat="-3.0781720" lon="37.3626250">
    <ele>5739.4</ele>
    <time>2026-06-23T03:54:12Z</time>
   </trkpt>
   <trkpt lat="-3.0781720" lon="37.3626240">
    <ele>5739.4</ele>
    <time>2026-06-23T03:54:13Z</time>
   </trkpt>
   <trkpt lat="-3.0781710" lon="37.3626240">
    <ele>5739.4</ele>
    <time>2026-06-23T03:54:14Z</time>
   </trkpt>
   <trkpt lat="-3.0781720" lon="37.3626250">
    <ele>5739.4</ele>
    <time>2026-06-23T03:54:15Z</time>
   </trkpt>
   <trkpt lat="-3.0781720" lon="37.3626250">
    <ele>5739.4</ele>
    <time>2026-06-23T03:54:16Z</time>
   </trkpt>
   <trkpt lat="-3.0781720" lon="37.3626260">
    <ele>5739.4</ele>
    <time>2026-06-23T03:54:17Z</time>
   </trkpt>
   <trkpt lat="-3.0781710" lon="37.3626240">
    <ele>5739.4</ele>
    <time>2026-06-23T03:54:18Z</time>
   </trkpt>
   <trkpt lat="-3.0781700" lon="37.3626240">
    <ele>5739.4</ele>
    <time>2026-06-23T03:54:19Z</time>
   </trkpt>
   <trkpt lat="-3.0781700" lon="37.3626250">
    <ele>5739.4</ele>
    <time>2026-06-23T03:54:20Z</time>
   </trkpt>
   <trkpt lat="-3.0781700" lon="37.3626250">
    <ele>5739.4</ele>
    <time>2026-06-23T03:54:21Z</time>
   </trkpt>
   <trkpt lat="-3.0781700" lon="37.3626250">
    <ele>5739.4</ele>
    <time>2026-06-23T03:54:22Z</time>
   </trkpt>
   <trkpt lat="-3.0781690" lon="37.3626250">
    <ele>5739.5</ele>
    <time>2026-06-23T03:54:23Z</time>
   </trkpt>
   <trkpt lat="-3.0781690" lon="37.3626250">
    <ele>5739.5</ele>
    <time>2026-06-23T03:54:24Z</time>
   </trkpt>
   <trkpt lat="-3.0781690" lon="37.3626260">
    <ele>5739.5</ele>
    <time>2026-06-23T03:54:25Z</time>
   </trkpt>
   <trkpt lat="-3.0781680" lon="37.3626260">
    <ele>5739.5</ele>
    <time>2026-06-23T03:54:26Z</time>
   </trkpt>
   <trkpt lat="-3.0781700" lon="37.3626270">
    <ele>5739.5</ele>
    <time>2026-06-23T03:54:27Z</time>
   </trkpt>
   <trkpt lat="-3.0781690" lon="37.3626260">
    <ele>5739.5</ele>
    <time>2026-06-23T03:54:28Z</time>
   </trkpt>
   <trkpt lat="-3.0781690" lon="37.3626270">
    <ele>5739.5</ele>
    <time>2026-06-23T03:54:29Z</time>
   </trkpt>
   <trkpt lat="-3.0781690" lon="37.3626270">
    <ele>5739.5</ele>
    <time>2026-06-23T03:54:30Z</time>
   </trkpt>
   <trkpt lat="-3.0781690" lon="37.3626260">
    <ele>5739.5</ele>
    <time>2026-06-23T03:54:31Z</time>
   </trkpt>
   <trkpt lat="-3.0781690" lon="37.3626280">
    <ele>5739.5</ele>
    <time>2026-06-23T03:54:32Z</time>
   </trkpt>
   <trkpt lat="-3.0781690" lon="37.3626270">
    <ele>5739.5</ele>
    <time>2026-06-23T03:54:33Z</time>
   </trkpt>
   <trkpt lat="-3.0781690" lon="37.3626270">
    <ele>5739.5</ele>
    <time>2026-06-23T03:54:34Z</time>
   </trkpt>
   <trkpt lat="-3.0781690" lon="37.3626270">
    <ele>5739.5</ele>
    <time>2026-06-23T03:54:35Z</time>
   </trkpt>
   <trkpt lat="-3.0781700" lon="37.3626270">
    <ele>5739.5</ele>
    <time>2026-06-23T03:54:36Z</time>
   </trkpt>
   <trkpt lat="-3.0781700" lon="37.3626270">
    <ele>5739.5</ele>
    <time>2026-06-23T03:54:37Z</time>
   </trkpt>
   <trkpt lat="-3.0781710" lon="37.3626270">
    <ele>5739.5</ele>
    <time>2026-06-23T03:54:38Z</time>
   </trkpt>
   <trkpt lat="-3.0781710" lon="37.3626260">
    <ele>5739.5</ele>
    <time>2026-06-23T03:54:39Z</time>
   </trkpt>
   <trkpt lat="-3.0781700" lon="37.3626280">
    <ele>5739.5</ele>
    <time>2026-06-23T03:54:40Z</time>
   </trkpt>
   <trkpt lat="-3.0781700" lon="37.3626270">
    <ele>5739.5</ele>
    <time>2026-06-23T03:54:41Z</time>
   </trkpt>
   <trkpt lat="-3.0781710" lon="37.3626280">
    <ele>5739.5</ele>
    <time>2026-06-23T03:54:42Z</time>
   </trkpt>
   <trkpt lat="-3.0781700" lon="37.3626270">
    <ele>5739.5</ele>
    <time>2026-06-23T03:54:43Z</time>
   </trkpt>
   <trkpt lat="-3.0781700" lon="37.3626270">
    <ele>5739.5</ele>
    <time>2026-06-23T03:54:44Z</time>
   </trkpt>
   <trkpt lat="-3.0781700" lon="37.3626280">
    <ele>5739.5</ele>
    <time>2026-06-23T03:54:45Z</time>
   </trkpt>
   <trkpt lat="-3.0781700" lon="37.3626280">
    <ele>5739.5</ele>
    <time>2026-06-23T03:54:46Z</time>
   </trkpt>
   <trkpt lat="-3.0781700" lon="37.3626280">
    <ele>5739.5</ele>
    <time>2026-06-23T03:54:47Z</time>
   </trkpt>
   <trkpt lat="-3.0781710" lon="37.3626280">
    <ele>5739.5</ele>
    <time>2026-06-23T03:54:48Z</time>
   </trkpt>
   <trkpt lat="-3.0781700" lon="37.3626310">
    <ele>5739.5</ele>
    <time>2026-06-23T03:54:49Z</time>
   </trkpt>
   <trkpt lat="-3.0781710" lon="37.3626290">
    <ele>5739.5</ele>
    <time>2026-06-23T03:54:50Z</time>
   </trkpt>
   <trkpt lat="-3.0781700" lon="37.3626280">
    <ele>5739.5</ele>
    <time>2026-06-23T03:54:51Z</time>
   </trkpt>
   <trkpt lat="-3.0781710" lon="37.3626260">
    <ele>5739.5</ele>
    <time>2026-06-23T03:54:52Z</time>
   </trkpt>
   <trkpt lat="-3.0781710" lon="37.3626260">
    <ele>5739.5</ele>
    <time>2026-06-23T03:54:53Z</time>
   </trkpt>
   <trkpt lat="-3.0781710" lon="37.3626260">
    <ele>5739.5</ele>
    <time>2026-06-23T03:54:54Z</time>
   </trkpt>
   <trkpt lat="-3.0781720" lon="37.3626280">
    <ele>5739.5</ele>
    <time>2026-06-23T03:54:55Z</time>
   </trkpt>
   <trkpt lat="-3.0781710" lon="37.3626270">
    <ele>5739.5</ele>
    <time>2026-06-23T03:54:56Z</time>
   </trkpt>
   <trkpt lat="-3.0781700" lon="37.3626270">
    <ele>5739.5</ele>
    <time>2026-06-23T03:54:57Z</time>
   </trkpt>
   <trkpt lat="-3.0781700" lon="37.3626270">
    <ele>5739.5</ele>
    <time>2026-06-23T03:54:58Z</time>
   </trkpt>
   <trkpt lat="-3.0781690" lon="37.3626260">
    <ele>5739.5</ele>
    <time>2026-06-23T03:54:59Z</time>
   </trkpt>
   <trkpt lat="-3.0781700" lon="37.3626250">
    <ele>5739.5</ele>
    <time>2026-06-23T03:55:00Z</time>
   </trkpt>
   <trkpt lat="-3.0781690" lon="37.3626230">
    <ele>5739.6</ele>
    <time>2026-06-23T03:55:01Z</time>
   </trkpt>
   <trkpt lat="-3.0781690" lon="37.3626240">
    <ele>5739.6</ele>
    <time>2026-06-23T03:55:02Z</time>
   </trkpt>
   <trkpt lat="-3.0781710" lon="37.3626230">
    <ele>5739.6</ele>
    <time>2026-06-23T03:55:03Z</time>
   </trkpt>
   <trkpt lat="-3.0781710" lon="37.3626270">
    <ele>5739.6</ele>
    <time>2026-06-23T03:55:04Z</time>
   </trkpt>
   <trkpt lat="-3.0781740" lon="37.3626280">
    <ele>5739.6</ele>
    <time>2026-06-23T03:55:05Z</time>
   </trkpt>
   <trkpt lat="-3.0781750" lon="37.3626280">
    <ele>5739.6</ele>
    <time>2026-06-23T03:55:06Z</time>
   </trkpt>
   <trkpt lat="-3.0781740" lon="37.3626300">
    <ele>5739.6</ele>
    <time>2026-06-23T03:55:07Z</time>
   </trkpt>
   <trkpt lat="-3.0781750" lon="37.3626290">
    <ele>5739.6</ele>
    <time>2026-06-23T03:55:08Z</time>
   </trkpt>
   <trkpt lat="-3.0781760" lon="37.3626300">
    <ele>5739.6</ele>
    <time>2026-06-23T03:55:09Z</time>
   </trkpt>
   <trkpt lat="-3.0781770" lon="37.3626290">
    <ele>5739.6</ele>
    <time>2026-06-23T03:55:10Z</time>
   </trkpt>
   <trkpt lat="-3.0781770" lon="37.3626300">
    <ele>5739.6</ele>
    <time>2026-06-23T03:55:11Z</time>
   </trkpt>
   <trkpt lat="-3.0781780" lon="37.3626300">
    <ele>5739.6</ele>
    <time>2026-06-23T03:55:12Z</time>
   </trkpt>
   <trkpt lat="-3.0781780" lon="37.3626290">
    <ele>5739.6</ele>
    <time>2026-06-23T03:55:13Z</time>
   </trkpt>
   <trkpt lat="-3.0781790" lon="37.3626290">
    <ele>5739.6</ele>
    <time>2026-06-23T03:55:14Z</time>
   </trkpt>
   <trkpt lat="-3.0781800" lon="37.3626290">
    <ele>5739.6</ele>
    <time>2026-06-23T03:55:15Z</time>
   </trkpt>
   <trkpt lat="-3.0781800" lon="37.3626290">
    <ele>5739.6</ele>
    <time>2026-06-23T03:55:16Z</time>
   </trkpt>
   <trkpt lat="-3.0781800" lon="37.3626270">
    <ele>5739.6</ele>
    <time>2026-06-23T03:55:17Z</time>
   </trkpt>
   <trkpt lat="-3.0781800" lon="37.3626270">
    <ele>5739.6</ele>
    <time>2026-06-23T03:55:18Z</time>
   </trkpt>
   <trkpt lat="-3.0781820" lon="37.3626220">
    <ele>5739.6</ele>
    <time>2026-06-23T03:55:19Z</time>
   </trkpt>
   <trkpt lat="-3.0781840" lon="37.3626180">
    <ele>5739.6</ele>
    <time>2026-06-23T03:55:20Z</time>
   </trkpt>
   <trkpt lat="-3.0781810" lon="37.3626170">
    <ele>5739.7</ele>
    <time>2026-06-23T03:55:21Z</time>
   </trkpt>
   <trkpt lat="-3.0781840" lon="37.3626140">
    <ele>5739.7</ele>
    <time>2026-06-23T03:55:22Z</time>
   </trkpt>
   <trkpt lat="-3.0781830" lon="37.3626140">
    <ele>5739.7</ele>
    <time>2026-06-23T03:55:23Z</time>
   </trkpt>
   <trkpt lat="-3.0781800" lon="37.3626120">
    <ele>5739.7</ele>
    <time>2026-06-23T03:55:24Z</time>
   </trkpt>
   <trkpt lat="-3.0781770" lon="37.3626100">
    <ele>5739.7</ele>
    <time>2026-06-23T03:55:25Z</time>
   </trkpt>
   <trkpt lat="-3.0781750" lon="37.3626110">
    <ele>5739.7</ele>
    <time>2026-06-23T03:55:26Z</time>
   </trkpt>
   <trkpt lat="-3.0781720" lon="37.3626070">
    <ele>5739.7</ele>
    <time>2026-06-23T03:55:27Z</time>
   </trkpt>
   <trkpt lat="-3.0781690" lon="37.3626010">
    <ele>5739.8</ele>
    <time>2026-06-23T03:55:28Z</time>
   </trkpt>
   <trkpt lat="-3.0781730" lon="37.3625970">
    <ele>5739.8</ele>
    <time>2026-06-23T03:55:29Z</time>
   </trkpt>
   <trkpt lat="-3.0781740" lon="37.3625910">
    <ele>5739.9</ele>
    <time>2026-06-23T03:55:30Z</time>
   </trkpt>
   <trkpt lat="-3.0781760" lon="37.3625840">
    <ele>5740.0</ele>
    <time>2026-06-23T03:55:31Z</time>
   </trkpt>
   <trkpt lat="-3.0781730" lon="37.3625760">
    <ele>5740.1</ele>
    <time>2026-06-23T03:55:32Z</time>
   </trkpt>
   <trkpt lat="-3.0781740" lon="37.3625690">
    <ele>5740.1</ele>
    <time>2026-06-23T03:55:33Z</time>
   </trkpt>
   <trkpt lat="-3.0781720" lon="37.3625620">
    <ele>5740.2</ele>
    <time>2026-06-23T03:55:34Z</time>
   </trkpt>
   <trkpt lat="-3.0781760" lon="37.3625540">
    <ele>5740.3</ele>
    <time>2026-06-23T03:55:35Z</time>
   </trkpt>
   <trkpt lat="-3.0781860" lon="37.3625500">
    <ele>5740.4</ele>
    <time>2026-06-23T03:55:36Z</time>
   </trkpt>
   <trkpt lat="-3.0781920" lon="37.3625380">
    <ele>5740.6</ele>
    <time>2026-06-23T03:55:37Z</time>
   </trkpt>
   <trkpt lat="-3.0781980" lon="37.3625290">
    <ele>5740.7</ele>
    <time>2026-06-23T03:55:38Z</time>
   </trkpt>
   <trkpt lat="-3.0782010" lon="37.3625210">
    <ele>5740.8</ele>
    <time>2026-06-23T03:55:39Z</time>
   </trkpt>
   <trkpt lat="-3.0782040" lon="37.3625110">
    <ele>5740.9</ele>
    <time>2026-06-23T03:55:40Z</time>
   </trkpt>
   <trkpt lat="-3.0782090" lon="37.3625040">
    <ele>5741.0</ele>
    <time>2026-06-23T03:55:41Z</time>
   </trkpt>
   <trkpt lat="-3.0782160" lon="37.3624980">
    <ele>5741.1</ele>
    <time>2026-06-23T03:55:42Z</time>
   </trkpt>
   <trkpt lat="-3.0782220" lon="37.3624920">
    <ele>5741.2</ele>
    <time>2026-06-23T03:55:43Z</time>
   </trkpt>
   <trkpt lat="-3.0782260" lon="37.3624850">
    <ele>5741.3</ele>
    <time>2026-06-23T03:55:44Z</time>
   </trkpt>
   <trkpt lat="-3.0782310" lon="37.3624810">
    <ele>5741.3</ele>
    <time>2026-06-23T03:55:45Z</time>
   </trkpt>
   <trkpt lat="-3.0782360" lon="37.3624750">
    <ele>5741.4</ele>
    <time>2026-06-23T03:55:46Z</time>
   </trkpt>
   <trkpt lat="-3.0782420" lon="37.3624700">
    <ele>5741.5</ele>
    <time>2026-06-23T03:55:47Z</time>
   </trkpt>
   <trkpt lat="-3.0782480" lon="37.3624640">
    <ele>5741.6</ele>
    <time>2026-06-23T03:55:48Z</time>
   </trkpt>
   <trkpt lat="-3.0782540" lon="37.3624580">
    <ele>5741.7</ele>
    <time>2026-06-23T03:55:49Z</time>
   </trkpt>
   <trkpt lat="-3.0782590" lon="37.3624530">
    <ele>5741.7</ele>
    <time>2026-06-23T03:55:50Z</time>
   </trkpt>
   <trkpt lat="-3.0782660" lon="37.3624470">
    <ele>5741.8</ele>
    <time>2026-06-23T03:55:51Z</time>
   </trkpt>
   <trkpt lat="-3.0782720" lon="37.3624410">
    <ele>5741.9</ele>
    <time>2026-06-23T03:55:52Z</time>
   </trkpt>
   <trkpt lat="-3.0782780" lon="37.3624360">
    <ele>5742.0</ele>
    <time>2026-06-23T03:55:53Z</time>
   </trkpt>
   <trkpt lat="-3.0782850" lon="37.3624290">
    <ele>5742.1</ele>
    <time>2026-06-23T03:55:54Z</time>
   </trkpt>
   <trkpt lat="-3.0782910" lon="37.3624230">
    <ele>5742.2</ele>
    <time>2026-06-23T03:55:55Z</time>
   </trkpt>
   <trkpt lat="-3.0782980" lon="37.3624170">
    <ele>5742.3</ele>
    <time>2026-06-23T03:55:56Z</time>
   </trkpt>
   <trkpt lat="-3.0783020" lon="37.3624100">
    <ele>5742.3</ele>
    <time>2026-06-23T03:55:57Z</time>
   </trkpt>
   <trkpt lat="-3.0783070" lon="37.3624030">
    <ele>5742.4</ele>
    <time>2026-06-23T03:55:58Z</time>
   </trkpt>
   <trkpt lat="-3.0783120" lon="37.3623980">
    <ele>5742.5</ele>
    <time>2026-06-23T03:55:59Z</time>
   </trkpt>
   <trkpt lat="-3.0783180" lon="37.3623940">
    <ele>5742.6</ele>
    <time>2026-06-23T03:56:00Z</time>
   </trkpt>
   <trkpt lat="-3.0783230" lon="37.3623910">
    <ele>5742.6</ele>
    <time>2026-06-23T03:56:01Z</time>
   </trkpt>
   <trkpt lat="-3.0783280" lon="37.3623840">
    <ele>5742.7</ele>
    <time>2026-06-23T03:56:02Z</time>
   </trkpt>
   <trkpt lat="-3.0783310" lon="37.3623770">
    <ele>5742.8</ele>
    <time>2026-06-23T03:56:03Z</time>
   </trkpt>
   <trkpt lat="-3.0783320" lon="37.3623700">
    <ele>5742.8</ele>
    <time>2026-06-23T03:56:04Z</time>
   </trkpt>
   <trkpt lat="-3.0783340" lon="37.3623640">
    <ele>5742.9</ele>
    <time>2026-06-23T03:56:05Z</time>
   </trkpt>
   <trkpt lat="-3.0783350" lon="37.3623580">
    <ele>5743.0</ele>
    <time>2026-06-23T03:56:06Z</time>
   </trkpt>
   <trkpt lat="-3.0783380" lon="37.3623550">
    <ele>5743.0</ele>
    <time>2026-06-23T03:56:07Z</time>
   </trkpt>
   <trkpt lat="-3.0783410" lon="37.3623520">
    <ele>5743.0</ele>
    <time>2026-06-23T03:56:08Z</time>
   </trkpt>
   <trkpt lat="-3.0783450" lon="37.3623510">
    <ele>5743.1</ele>
    <time>2026-06-23T03:56:09Z</time>
   </trkpt>
   <trkpt lat="-3.0783470" lon="37.3623470">
    <ele>5743.1</ele>
    <time>2026-06-23T03:56:10Z</time>
   </trkpt>
   <trkpt lat="-3.0783510" lon="37.3623410">
    <ele>5743.2</ele>
    <time>2026-06-23T03:56:11Z</time>
   </trkpt>
   <trkpt lat="-3.0783530" lon="37.3623380">
    <ele>5743.2</ele>
    <time>2026-06-23T03:56:12Z</time>
   </trkpt>
   <trkpt lat="-3.0783550" lon="37.3623340">
    <ele>5743.3</ele>
    <time>2026-06-23T03:56:13Z</time>
   </trkpt>
   <trkpt lat="-3.0783580" lon="37.3623290">
    <ele>5743.3</ele>
    <time>2026-06-23T03:56:14Z</time>
   </trkpt>
   <trkpt lat="-3.0783610" lon="37.3623260">
    <ele>5743.4</ele>
    <time>2026-06-23T03:56:15Z</time>
   </trkpt>
   <trkpt lat="-3.0783610" lon="37.3623250">
    <ele>5743.4</ele>
    <time>2026-06-23T03:56:16Z</time>
   </trkpt>
   <trkpt lat="-3.0783650" lon="37.3623200">
    <ele>5743.5</ele>
    <time>2026-06-23T03:56:17Z</time>
   </trkpt>
   <trkpt lat="-3.0783660" lon="37.3623170">
    <ele>5743.5</ele>
    <time>2026-06-23T03:56:18Z</time>
   </trkpt>
   <trkpt lat="-3.0783690" lon="37.3623140">
    <ele>5743.5</ele>
    <time>2026-06-23T03:56:19Z</time>
   </trkpt>
   <trkpt lat="-3.0783720" lon="37.3623110">
    <ele>5743.6</ele>
    <time>2026-06-23T03:56:20Z</time>
   </trkpt>
   <trkpt lat="-3.0783730" lon="37.3623080">
    <ele>5743.6</ele>
    <time>2026-06-23T03:56:21Z</time>
   </trkpt>
   <trkpt lat="-3.0783760" lon="37.3623030">
    <ele>5743.6</ele>
    <time>2026-06-23T03:56:22Z</time>
   </trkpt>
   <trkpt lat="-3.0783790" lon="37.3622990">
    <ele>5743.7</ele>
    <time>2026-06-23T03:56:23Z</time>
   </trkpt>
   <trkpt lat="-3.0783790" lon="37.3622960">
    <ele>5743.7</ele>
    <time>2026-06-23T03:56:24Z</time>
   </trkpt>
   <trkpt lat="-3.0783790" lon="37.3622900">
    <ele>5743.8</ele>
    <time>2026-06-23T03:56:25Z</time>
   </trkpt>
   <trkpt lat="-3.0783800" lon="37.3622870">
    <ele>5743.8</ele>
    <time>2026-06-23T03:56:26Z</time>
   </trkpt>
   <trkpt lat="-3.0783800" lon="37.3622830">
    <ele>5743.8</ele>
    <time>2026-06-23T03:56:27Z</time>
   </trkpt>
   <trkpt lat="-3.0783840" lon="37.3622790">
    <ele>5743.9</ele>
    <time>2026-06-23T03:56:28Z</time>
   </trkpt>
   <trkpt lat="-3.0783880" lon="37.3622760">
    <ele>5743.9</ele>
    <time>2026-06-23T03:56:29Z</time>
   </trkpt>
   <trkpt lat="-3.0783890" lon="37.3622760">
    <ele>5743.9</ele>
    <time>2026-06-23T03:56:30Z</time>
   </trkpt>
   <trkpt lat="-3.0783930" lon="37.3622700">
    <ele>5744.0</ele>
    <time>2026-06-23T03:56:31Z</time>
   </trkpt>
   <trkpt lat="-3.0783960" lon="37.3622660">
    <ele>5744.0</ele>
    <time>2026-06-23T03:56:32Z</time>
   </trkpt>
   <trkpt lat="-3.0783980" lon="37.3622620">
    <ele>5744.1</ele>
    <time>2026-06-23T03:56:33Z</time>
   </trkpt>
   <trkpt lat="-3.0784010" lon="37.3622580">
    <ele>5744.1</ele>
    <time>2026-06-23T03:56:34Z</time>
   </trkpt>
   <trkpt lat="-3.0784030" lon="37.3622530">
    <ele>5744.2</ele>
    <time>2026-06-23T03:56:35Z</time>
   </trkpt>
   <trkpt lat="-3.0784040" lon="37.3622500">
    <ele>5744.2</ele>
    <time>2026-06-23T03:56:36Z</time>
   </trkpt>
   <trkpt lat="-3.0784070" lon="37.3622470">
    <ele>5744.2</ele>
    <time>2026-06-23T03:56:37Z</time>
   </trkpt>
   <trkpt lat="-3.0784060" lon="37.3622450">
    <ele>5744.3</ele>
    <time>2026-06-23T03:56:38Z</time>
   </trkpt>
   <trkpt lat="-3.0784090" lon="37.3622400">
    <ele>5744.3</ele>
    <time>2026-06-23T03:56:39Z</time>
   </trkpt>
   <trkpt lat="-3.0784110" lon="37.3622350">
    <ele>5744.3</ele>
    <time>2026-06-23T03:56:40Z</time>
   </trkpt>
   <trkpt lat="-3.0784120" lon="37.3622320">
    <ele>5744.4</ele>
    <time>2026-06-23T03:56:41Z</time>
   </trkpt>
   <trkpt lat="-3.0784180" lon="37.3622240">
    <ele>5744.5</ele>
    <time>2026-06-23T03:56:42Z</time>
   </trkpt>
   <trkpt lat="-3.0784230" lon="37.3622170">
    <ele>5744.5</ele>
    <time>2026-06-23T03:56:43Z</time>
   </trkpt>
   <trkpt lat="-3.0784200" lon="37.3622170">
    <ele>5744.5</ele>
    <time>2026-06-23T03:56:44Z</time>
   </trkpt>
   <trkpt lat="-3.0784230" lon="37.3622140">
    <ele>5744.6</ele>
    <time>2026-06-23T03:56:45Z</time>
   </trkpt>
   <trkpt lat="-3.0784240" lon="37.3622100">
    <ele>5744.6</ele>
    <time>2026-06-23T03:56:46Z</time>
   </trkpt>
   <trkpt lat="-3.0784270" lon="37.3622050">
    <ele>5744.6</ele>
    <time>2026-06-23T03:56:47Z</time>
   </trkpt>
   <trkpt lat="-3.0784320" lon="37.3622010">
    <ele>5744.7</ele>
    <time>2026-06-23T03:56:48Z</time>
   </trkpt>
   <trkpt lat="-3.0784370" lon="37.3621950">
    <ele>5744.7</ele>
    <time>2026-06-23T03:56:49Z</time>
   </trkpt>
   <trkpt lat="-3.0784390" lon="37.3621910">
    <ele>5744.8</ele>
    <time>2026-06-23T03:56:50Z</time>
   </trkpt>
   <trkpt lat="-3.0784430" lon="37.3621850">
    <ele>5744.8</ele>
    <time>2026-06-23T03:56:51Z</time>
   </trkpt>
   <trkpt lat="-3.0784440" lon="37.3621830">
    <ele>5744.8</ele>
    <time>2026-06-23T03:56:52Z</time>
   </trkpt>
   <trkpt lat="-3.0784460" lon="37.3621790">
    <ele>5744.9</ele>
    <time>2026-06-23T03:56:53Z</time>
   </trkpt>
   <trkpt lat="-3.0784490" lon="37.3621730">
    <ele>5744.9</ele>
    <time>2026-06-23T03:56:54Z</time>
   </trkpt>
   <trkpt lat="-3.0784510" lon="37.3621680">
    <ele>5744.9</ele>
    <time>2026-06-23T03:56:55Z</time>
   </trkpt>
   <trkpt lat="-3.0784540" lon="37.3621640">
    <ele>5745.0</ele>
    <time>2026-06-23T03:56:56Z</time>
   </trkpt>
   <trkpt lat="-3.0784570" lon="37.3621600">
    <ele>5745.0</ele>
    <time>2026-06-23T03:56:57Z</time>
   </trkpt>
   <trkpt lat="-3.0784620" lon="37.3621560">
    <ele>5745.0</ele>
    <time>2026-06-23T03:56:58Z</time>
   </trkpt>
   <trkpt lat="-3.0784650" lon="37.3621540">
    <ele>5745.0</ele>
    <time>2026-06-23T03:56:59Z</time>
   </trkpt>
   <trkpt lat="-3.0784690" lon="37.3621510">
    <ele>5745.1</ele>
    <time>2026-06-23T03:57:00Z</time>
   </trkpt>
   <trkpt lat="-3.0784720" lon="37.3621480">
    <ele>5745.1</ele>
    <time>2026-06-23T03:57:01Z</time>
   </trkpt>
   <trkpt lat="-3.0784780" lon="37.3621460">
    <ele>5745.1</ele>
    <time>2026-06-23T03:57:02Z</time>
   </trkpt>
   <trkpt lat="-3.0784820" lon="37.3621440">
    <ele>5745.1</ele>
    <time>2026-06-23T03:57:03Z</time>
   </trkpt>
   <trkpt lat="-3.0784870" lon="37.3621430">
    <ele>5745.2</ele>
    <time>2026-06-23T03:57:04Z</time>
   </trkpt>
   <trkpt lat="-3.0784910" lon="37.3621400">
    <ele>5745.2</ele>
    <time>2026-06-23T03:57:05Z</time>
   </trkpt>
   <trkpt lat="-3.0784930" lon="37.3621390">
    <ele>5745.2</ele>
    <time>2026-06-23T03:57:06Z</time>
   </trkpt>
   <trkpt lat="-3.0784980" lon="37.3621370">
    <ele>5745.2</ele>
    <time>2026-06-23T03:57:07Z</time>
   </trkpt>
   <trkpt lat="-3.0785030" lon="37.3621330">
    <ele>5745.2</ele>
    <time>2026-06-23T03:57:08Z</time>
   </trkpt>
   <trkpt lat="-3.0785070" lon="37.3621320">
    <ele>5745.3</ele>
    <time>2026-06-23T03:57:09Z</time>
   </trkpt>
   <trkpt lat="-3.0785120" lon="37.3621310">
    <ele>5745.3</ele>
    <time>2026-06-23T03:57:10Z</time>
   </trkpt>
   <trkpt lat="-3.0785170" lon="37.3621300">
    <ele>5745.3</ele>
    <time>2026-06-23T03:57:11Z</time>
   </trkpt>
   <trkpt lat="-3.0785230" lon="37.3621280">
    <ele>5745.3</ele>
    <time>2026-06-23T03:57:12Z</time>
   </trkpt>
   <trkpt lat="-3.0785280" lon="37.3621260">
    <ele>5745.3</ele>
    <time>2026-06-23T03:57:13Z</time>
   </trkpt>
   <trkpt lat="-3.0785340" lon="37.3621230">
    <ele>5745.4</ele>
    <time>2026-06-23T03:57:14Z</time>
   </trkpt>
   <trkpt lat="-3.0785440" lon="37.3621220">
    <ele>5745.4</ele>
    <time>2026-06-23T03:57:15Z</time>
   </trkpt>
   <trkpt lat="-3.0785470" lon="37.3621200">
    <ele>5745.4</ele>
    <time>2026-06-23T03:57:16Z</time>
   </trkpt>
   <trkpt lat="-3.0785530" lon="37.3621170">
    <ele>5745.4</ele>
    <time>2026-06-23T03:57:17Z</time>
   </trkpt>
   <trkpt lat="-3.0785580" lon="37.3621140">
    <ele>5745.5</ele>
    <time>2026-06-23T03:57:18Z</time>
   </trkpt>
   <trkpt lat="-3.0785630" lon="37.3621090">
    <ele>5745.5</ele>
    <time>2026-06-23T03:57:19Z</time>
   </trkpt>
   <trkpt lat="-3.0785680" lon="37.3621080">
    <ele>5745.5</ele>
    <time>2026-06-23T03:57:20Z</time>
   </trkpt>
   <trkpt lat="-3.0785750" lon="37.3621030">
    <ele>5745.5</ele>
    <time>2026-06-23T03:57:21Z</time>
   </trkpt>
   <trkpt lat="-3.0785820" lon="37.3620990">
    <ele>5745.5</ele>
    <time>2026-06-23T03:57:22Z</time>
   </trkpt>
   <trkpt lat="-3.0785860" lon="37.3620980">
    <ele>5745.6</ele>
    <time>2026-06-23T03:57:23Z</time>
   </trkpt>
   <trkpt lat="-3.0785900" lon="37.3620960">
    <ele>5745.6</ele>
    <time>2026-06-23T03:57:24Z</time>
   </trkpt>
   <trkpt lat="-3.0785950" lon="37.3620930">
    <ele>5745.6</ele>
    <time>2026-06-23T03:57:25Z</time>
   </trkpt>
   <trkpt lat="-3.0786010" lon="37.3620900">
    <ele>5745.6</ele>
    <time>2026-06-23T03:57:26Z</time>
   </trkpt>
   <trkpt lat="-3.0786050" lon="37.3620860">
    <ele>5745.6</ele>
    <time>2026-06-23T03:57:27Z</time>
   </trkpt>
   <trkpt lat="-3.0786120" lon="37.3620820">
    <ele>5745.7</ele>
    <time>2026-06-23T03:57:28Z</time>
   </trkpt>
   <trkpt lat="-3.0786160" lon="37.3620800">
    <ele>5745.7</ele>
    <time>2026-06-23T03:57:29Z</time>
   </trkpt>
   <trkpt lat="-3.0786200" lon="37.3620780">
    <ele>5745.7</ele>
    <time>2026-06-23T03:57:30Z</time>
   </trkpt>
   <trkpt lat="-3.0786260" lon="37.3620740">
    <ele>5745.7</ele>
    <time>2026-06-23T03:57:31Z</time>
   </trkpt>
   <trkpt lat="-3.0786310" lon="37.3620700">
    <ele>5745.8</ele>
    <time>2026-06-23T03:57:32Z</time>
   </trkpt>
   <trkpt lat="-3.0786350" lon="37.3620660">
    <ele>5745.8</ele>
    <time>2026-06-23T03:57:33Z</time>
   </trkpt>
   <trkpt lat="-3.0786400" lon="37.3620610">
    <ele>5745.8</ele>
    <time>2026-06-23T03:57:34Z</time>
   </trkpt>
   <trkpt lat="-3.0786450" lon="37.3620580">
    <ele>5745.8</ele>
    <time>2026-06-23T03:57:35Z</time>
   </trkpt>
   <trkpt lat="-3.0786480" lon="37.3620550">
    <ele>5745.9</ele>
    <time>2026-06-23T03:57:36Z</time>
   </trkpt>
   <trkpt lat="-3.0786540" lon="37.3620490">
    <ele>5745.9</ele>
    <time>2026-06-23T03:57:37Z</time>
   </trkpt>
   <trkpt lat="-3.0786580" lon="37.3620430">
    <ele>5745.9</ele>
    <time>2026-06-23T03:57:38Z</time>
   </trkpt>
   <trkpt lat="-3.0786610" lon="37.3620390">
    <ele>5746.0</ele>
    <time>2026-06-23T03:57:39Z</time>
   </trkpt>
   <trkpt lat="-3.0786640" lon="37.3620360">
    <ele>5746.0</ele>
    <time>2026-06-23T03:57:40Z</time>
   </trkpt>
   <trkpt lat="-3.0786690" lon="37.3620300">
    <ele>5746.1</ele>
    <time>2026-06-23T03:57:41Z</time>
   </trkpt>
   <trkpt lat="-3.0786720" lon="37.3620270">
    <ele>5746.1</ele>
    <time>2026-06-23T03:57:42Z</time>
   </trkpt>
   <trkpt lat="-3.0786750" lon="37.3620240">
    <ele>5746.1</ele>
    <time>2026-06-23T03:57:43Z</time>
   </trkpt>
   <trkpt lat="-3.0786790" lon="37.3620200">
    <ele>5746.1</ele>
    <time>2026-06-23T03:57:44Z</time>
   </trkpt>
   <trkpt lat="-3.0786830" lon="37.3620170">
    <ele>5746.2</ele>
    <time>2026-06-23T03:57:45Z</time>
   </trkpt>
   <trkpt lat="-3.0786850" lon="37.3620140">
    <ele>5746.2</ele>
    <time>2026-06-23T03:57:46Z</time>
   </trkpt>
   <trkpt lat="-3.0786860" lon="37.3620090">
    <ele>5746.2</ele>
    <time>2026-06-23T03:57:47Z</time>
   </trkpt>
   <trkpt lat="-3.0786880" lon="37.3620040">
    <ele>5746.3</ele>
    <time>2026-06-23T03:57:48Z</time>
   </trkpt>
   <trkpt lat="-3.0786890" lon="37.3620010">
    <ele>5746.3</ele>
    <time>2026-06-23T03:57:49Z</time>
   </trkpt>
   <trkpt lat="-3.0786910" lon="37.3619970">
    <ele>5746.3</ele>
    <time>2026-06-23T03:57:50Z</time>
   </trkpt>
   <trkpt lat="-3.0786930" lon="37.3619930">
    <ele>5746.4</ele>
    <time>2026-06-23T03:57:51Z</time>
   </trkpt>
   <trkpt lat="-3.0786950" lon="37.3619900">
    <ele>5746.4</ele>
    <time>2026-06-23T03:57:52Z</time>
   </trkpt>
   <trkpt lat="-3.0786970" lon="37.3619850">
    <ele>5746.5</ele>
    <time>2026-06-23T03:57:53Z</time>
   </trkpt>
   <trkpt lat="-3.0786980" lon="37.3619830">
    <ele>5746.5</ele>
    <time>2026-06-23T03:57:54Z</time>
   </trkpt>
   <trkpt lat="-3.0787000" lon="37.3619790">
    <ele>5746.5</ele>
    <time>2026-06-23T03:57:55Z</time>
   </trkpt>
   <trkpt lat="-3.0787040" lon="37.3619760">
    <ele>5746.6</ele>
    <time>2026-06-23T03:57:56Z</time>
   </trkpt>
   <trkpt lat="-3.0787070" lon="37.3619720">
    <ele>5746.6</ele>
    <time>2026-06-23T03:57:57Z</time>
   </trkpt>
   <trkpt lat="-3.0787100" lon="37.3619710">
    <ele>5746.7</ele>
    <time>2026-06-23T03:57:58Z</time>
   </trkpt>
   <trkpt lat="-3.0787130" lon="37.3619680">
    <ele>5746.7</ele>
    <time>2026-06-23T03:57:59Z</time>
   </trkpt>
   <trkpt lat="-3.0787150" lon="37.3619660">
    <ele>5746.7</ele>
    <time>2026-06-23T03:58:00Z</time>
   </trkpt>
   <trkpt lat="-3.0787190" lon="37.3619610">
    <ele>5746.8</ele>
    <time>2026-06-23T03:58:01Z</time>
   </trkpt>
   <trkpt lat="-3.0787210" lon="37.3619590">
    <ele>5746.8</ele>
    <time>2026-06-23T03:58:02Z</time>
   </trkpt>
   <trkpt lat="-3.0787230" lon="37.3619570">
    <ele>5746.9</ele>
    <time>2026-06-23T03:58:03Z</time>
   </trkpt>
   <trkpt lat="-3.0787260" lon="37.3619530">
    <ele>5746.9</ele>
    <time>2026-06-23T03:58:04Z</time>
   </trkpt>
   <trkpt lat="-3.0787260" lon="37.3619500">
    <ele>5747.0</ele>
    <time>2026-06-23T03:58:05Z</time>
   </trkpt>
   <trkpt lat="-3.0787300" lon="37.3619460">
    <ele>5747.0</ele>
    <time>2026-06-23T03:58:06Z</time>
   </trkpt>
   <trkpt lat="-3.0787300" lon="37.3619430">
    <ele>5747.1</ele>
    <time>2026-06-23T03:58:07Z</time>
   </trkpt>
   <trkpt lat="-3.0787330" lon="37.3619410">
    <ele>5747.1</ele>
    <time>2026-06-23T03:58:08Z</time>
   </trkpt>
   <trkpt lat="-3.0787360" lon="37.3619390">
    <ele>5747.2</ele>
    <time>2026-06-23T03:58:09Z</time>
   </trkpt>
   <trkpt lat="-3.0787370" lon="37.3619370">
    <ele>5747.2</ele>
    <time>2026-06-23T03:58:10Z</time>
   </trkpt>
   <trkpt lat="-3.0787390" lon="37.3619350">
    <ele>5747.2</ele>
    <time>2026-06-23T03:58:11Z</time>
   </trkpt>
   <trkpt lat="-3.0787410" lon="37.3619320">
    <ele>5747.3</ele>
    <time>2026-06-23T03:58:12Z</time>
   </trkpt>
   <trkpt lat="-3.0787430" lon="37.3619300">
    <ele>5747.3</ele>
    <time>2026-06-23T03:58:13Z</time>
   </trkpt>
   <trkpt lat="-3.0787460" lon="37.3619270">
    <ele>5747.4</ele>
    <time>2026-06-23T03:58:14Z</time>
   </trkpt>
   <trkpt lat="-3.0787470" lon="37.3619270">
    <ele>5747.4</ele>
    <time>2026-06-23T03:58:15Z</time>
   </trkpt>
   <trkpt lat="-3.0787500" lon="37.3619260">
    <ele>5747.4</ele>
    <time>2026-06-23T03:58:16Z</time>
   </trkpt>
   <trkpt lat="-3.0787520" lon="37.3619270">
    <ele>5747.5</ele>
    <time>2026-06-23T03:58:17Z</time>
   </trkpt>
   <trkpt lat="-3.0787530" lon="37.3619270">
    <ele>5747.5</ele>
    <time>2026-06-23T03:58:18Z</time>
   </trkpt>
   <trkpt lat="-3.0787560" lon="37.3619240">
    <ele>5747.6</ele>
    <time>2026-06-23T03:58:19Z</time>
   </trkpt>
   <trkpt lat="-3.0787600" lon="37.3619220">
    <ele>5747.6</ele>
    <time>2026-06-23T03:58:20Z</time>
   </trkpt>
   <trkpt lat="-3.0787620" lon="37.3619200">
    <ele>5747.7</ele>
    <time>2026-06-23T03:58:21Z</time>
   </trkpt>
   <trkpt lat="-3.0787630" lon="37.3619210">
    <ele>5747.7</ele>
    <time>2026-06-23T03:58:22Z</time>
   </trkpt>
   <trkpt lat="-3.0787630" lon="37.3619200">
    <ele>5747.7</ele>
    <time>2026-06-23T03:58:23Z</time>
   </trkpt>
   <trkpt lat="-3.0787640" lon="37.3619190">
    <ele>5747.7</ele>
    <time>2026-06-23T03:58:24Z</time>
   </trkpt>
   <trkpt lat="-3.0787660" lon="37.3619170">
    <ele>5747.8</ele>
    <time>2026-06-23T03:58:25Z</time>
   </trkpt>
   <trkpt lat="-3.0787660" lon="37.3619180">
    <ele>5747.8</ele>
    <time>2026-06-23T03:58:26Z</time>
   </trkpt>
   <trkpt lat="-3.0787670" lon="37.3619150">
    <ele>5747.8</ele>
    <time>2026-06-23T03:58:27Z</time>
   </trkpt>
   <trkpt lat="-3.0787710" lon="37.3619120">
    <ele>5747.9</ele>
    <time>2026-06-23T03:58:28Z</time>
   </trkpt>
   <trkpt lat="-3.0787730" lon="37.3619100">
    <ele>5748.0</ele>
    <time>2026-06-23T03:58:29Z</time>
   </trkpt>
   <trkpt lat="-3.0787750" lon="37.3619060">
    <ele>5748.0</ele>
    <time>2026-06-23T03:58:30Z</time>
   </trkpt>
   <trkpt lat="-3.0787770" lon="37.3619030">
    <ele>5748.1</ele>
    <time>2026-06-23T03:58:31Z</time>
   </trkpt>
   <trkpt lat="-3.0787800" lon="37.3619000">
    <ele>5748.2</ele>
    <time>2026-06-23T03:58:32Z</time>
   </trkpt>
   <trkpt lat="-3.0787810" lon="37.3618970">
    <ele>5748.2</ele>
    <time>2026-06-23T03:58:33Z</time>
   </trkpt>
   <trkpt lat="-3.0787790" lon="37.3618990">
    <ele>5748.3</ele>
    <time>2026-06-23T03:58:34Z</time>
   </trkpt>
   <trkpt lat="-3.0787800" lon="37.3619000">
    <ele>5748.3</ele>
    <time>2026-06-23T03:58:35Z</time>
   </trkpt>
   <trkpt lat="-3.0787790" lon="37.3619000">
    <ele>5748.3</ele>
    <time>2026-06-23T03:58:36Z</time>
   </trkpt>
   <trkpt lat="-3.0787790" lon="37.3619000">
    <ele>5748.3</ele>
    <time>2026-06-23T03:58:37Z</time>
   </trkpt>
   <trkpt lat="-3.0787810" lon="37.3618960">
    <ele>5748.4</ele>
    <time>2026-06-23T03:58:38Z</time>
   </trkpt>
   <trkpt lat="-3.0787840" lon="37.3618910">
    <ele>5748.5</ele>
    <time>2026-06-23T03:58:39Z</time>
   </trkpt>
   <trkpt lat="-3.0787890" lon="37.3618910">
    <ele>5748.6</ele>
    <time>2026-06-23T03:58:40Z</time>
   </trkpt>
   <trkpt lat="-3.0787930" lon="37.3618880">
    <ele>5748.7</ele>
    <time>2026-06-23T03:58:41Z</time>
   </trkpt>
   <trkpt lat="-3.0787950" lon="37.3618860">
    <ele>5748.7</ele>
    <time>2026-06-23T03:58:42Z</time>
   </trkpt>
   <trkpt lat="-3.0787990" lon="37.3618830">
    <ele>5748.8</ele>
    <time>2026-06-23T03:58:43Z</time>
   </trkpt>
   <trkpt lat="-3.0788010" lon="37.3618800">
    <ele>5748.9</ele>
    <time>2026-06-23T03:58:44Z</time>
   </trkpt>
   <trkpt lat="-3.0788040" lon="37.3618770">
    <ele>5748.9</ele>
    <time>2026-06-23T03:58:45Z</time>
   </trkpt>
   <trkpt lat="-3.0788070" lon="37.3618740">
    <ele>5749.0</ele>
    <time>2026-06-23T03:58:46Z</time>
   </trkpt>
   <trkpt lat="-3.0788080" lon="37.3618730">
    <ele>5749.0</ele>
    <time>2026-06-23T03:58:47Z</time>
   </trkpt>
   <trkpt lat="-3.0788120" lon="37.3618690">
    <ele>5749.1</ele>
    <time>2026-06-23T03:58:48Z</time>
   </trkpt>
   <trkpt lat="-3.0788140" lon="37.3618680">
    <ele>5749.2</ele>
    <time>2026-06-23T03:58:49Z</time>
   </trkpt>
   <trkpt lat="-3.0788180" lon="37.3618650">
    <ele>5749.3</ele>
    <time>2026-06-23T03:58:50Z</time>
   </trkpt>
   <trkpt lat="-3.0788210" lon="37.3618630">
    <ele>5749.3</ele>
    <time>2026-06-23T03:58:51Z</time>
   </trkpt>
   <trkpt lat="-3.0788230" lon="37.3618610">
    <ele>5749.4</ele>
    <time>2026-06-23T03:58:52Z</time>
   </trkpt>
   <trkpt lat="-3.0788260" lon="37.3618580">
    <ele>5749.5</ele>
    <time>2026-06-23T03:58:53Z</time>
   </trkpt>
   <trkpt lat="-3.0788280" lon="37.3618560">
    <ele>5749.5</ele>
    <time>2026-06-23T03:58:54Z</time>
   </trkpt>
   <trkpt lat="-3.0788300" lon="37.3618540">
    <ele>5749.6</ele>
    <time>2026-06-23T03:58:55Z</time>
   </trkpt>
   <trkpt lat="-3.0788340" lon="37.3618520">
    <ele>5749.7</ele>
    <time>2026-06-23T03:58:56Z</time>
   </trkpt>
   <trkpt lat="-3.0788370" lon="37.3618500">
    <ele>5749.8</ele>
    <time>2026-06-23T03:58:57Z</time>
   </trkpt>
   <trkpt lat="-3.0788390" lon="37.3618490">
    <ele>5749.8</ele>
    <time>2026-06-23T03:58:58Z</time>
   </trkpt>
   <trkpt lat="-3.0788420" lon="37.3618470">
    <ele>5749.9</ele>
    <time>2026-06-23T03:58:59Z</time>
   </trkpt>
   <trkpt lat="-3.0788430" lon="37.3618450">
    <ele>5749.9</ele>
    <time>2026-06-23T03:59:00Z</time>
   </trkpt>
   <trkpt lat="-3.0788440" lon="37.3618450">
    <ele>5749.9</ele>
    <time>2026-06-23T03:59:01Z</time>
   </trkpt>
   <trkpt lat="-3.0788470" lon="37.3618420">
    <ele>5750.0</ele>
    <time>2026-06-23T03:59:02Z</time>
   </trkpt>
   <trkpt lat="-3.0788490" lon="37.3618400">
    <ele>5750.1</ele>
    <time>2026-06-23T03:59:03Z</time>
   </trkpt>
   <trkpt lat="-3.0788520" lon="37.3618370">
    <ele>5750.1</ele>
    <time>2026-06-23T03:59:04Z</time>
   </trkpt>
   <trkpt lat="-3.0788540" lon="37.3618360">
    <ele>5750.2</ele>
    <time>2026-06-23T03:59:05Z</time>
   </trkpt>
   <trkpt lat="-3.0788550" lon="37.3618340">
    <ele>5750.2</ele>
    <time>2026-06-23T03:59:06Z</time>
   </trkpt>
   <trkpt lat="-3.0788580" lon="37.3618310">
    <ele>5750.3</ele>
    <time>2026-06-23T03:59:07Z</time>
   </trkpt>
   <trkpt lat="-3.0788600" lon="37.3618300">
    <ele>5750.4</ele>
    <time>2026-06-23T03:59:08Z</time>
   </trkpt>
   <trkpt lat="-3.0788630" lon="37.3618270">
    <ele>5750.4</ele>
    <time>2026-06-23T03:59:09Z</time>
   </trkpt>
   <trkpt lat="-3.0788650" lon="37.3618260">
    <ele>5750.5</ele>
    <time>2026-06-23T03:59:10Z</time>
   </trkpt>
   <trkpt lat="-3.0788670" lon="37.3618240">
    <ele>5750.5</ele>
    <time>2026-06-23T03:59:11Z</time>
   </trkpt>
   <trkpt lat="-3.0788710" lon="37.3618230">
    <ele>5750.6</ele>
    <time>2026-06-23T03:59:12Z</time>
   </trkpt>
   <trkpt lat="-3.0788730" lon="37.3618200">
    <ele>5750.7</ele>
    <time>2026-06-23T03:59:13Z</time>
   </trkpt>
   <trkpt lat="-3.0788750" lon="37.3618190">
    <ele>5750.7</ele>
    <time>2026-06-23T03:59:14Z</time>
   </trkpt>
   <trkpt lat="-3.0788780" lon="37.3618160">
    <ele>5750.8</ele>
    <time>2026-06-23T03:59:15Z</time>
   </trkpt>
   <trkpt lat="-3.0788780" lon="37.3618150">
    <ele>5750.8</ele>
    <time>2026-06-23T03:59:16Z</time>
   </trkpt>
   <trkpt lat="-3.0788800" lon="37.3618130">
    <ele>5750.9</ele>
    <time>2026-06-23T03:59:17Z</time>
   </trkpt>
   <trkpt lat="-3.0788810" lon="37.3618110">
    <ele>5750.9</ele>
    <time>2026-06-23T03:59:18Z</time>
   </trkpt>
   <trkpt lat="-3.0788820" lon="37.3618110">
    <ele>5751.0</ele>
    <time>2026-06-23T03:59:19Z</time>
   </trkpt>
   <trkpt lat="-3.0788850" lon="37.3618070">
    <ele>5751.1</ele>
    <time>2026-06-23T03:59:20Z</time>
   </trkpt>
   <trkpt lat="-3.0788880" lon="37.3618050">
    <ele>5751.1</ele>
    <time>2026-06-23T03:59:21Z</time>
   </trkpt>
   <trkpt lat="-3.0788890" lon="37.3618030">
    <ele>5751.2</ele>
    <time>2026-06-23T03:59:22Z</time>
   </trkpt>
   <trkpt lat="-3.0788920" lon="37.3618000">
    <ele>5751.3</ele>
    <time>2026-06-23T03:59:23Z</time>
   </trkpt>
   <trkpt lat="-3.0788940" lon="37.3617980">
    <ele>5751.3</ele>
    <time>2026-06-23T03:59:24Z</time>
   </trkpt>
   <trkpt lat="-3.0788960" lon="37.3617960">
    <ele>5751.4</ele>
    <time>2026-06-23T03:59:25Z</time>
   </trkpt>
   <trkpt lat="-3.0789000" lon="37.3617940">
    <ele>5751.5</ele>
    <time>2026-06-23T03:59:26Z</time>
   </trkpt>
   <trkpt lat="-3.0789020" lon="37.3617910">
    <ele>5751.5</ele>
    <time>2026-06-23T03:59:27Z</time>
   </trkpt>
   <trkpt lat="-3.0789040" lon="37.3617890">
    <ele>5751.6</ele>
    <time>2026-06-23T03:59:28Z</time>
   </trkpt>
   <trkpt lat="-3.0789050" lon="37.3617860">
    <ele>5751.7</ele>
    <time>2026-06-23T03:59:29Z</time>
   </trkpt>
   <trkpt lat="-3.0789080" lon="37.3617840">
    <ele>5751.7</ele>
    <time>2026-06-23T03:59:30Z</time>
   </trkpt>
   <trkpt lat="-3.0789080" lon="37.3617820">
    <ele>5751.8</ele>
    <time>2026-06-23T03:59:31Z</time>
   </trkpt>
   <trkpt lat="-3.0789110" lon="37.3617790">
    <ele>5751.9</ele>
    <time>2026-06-23T03:59:32Z</time>
   </trkpt>
   <trkpt lat="-3.0789130" lon="37.3617760">
    <ele>5751.9</ele>
    <time>2026-06-23T03:59:33Z</time>
   </trkpt>
   <trkpt lat="-3.0789150" lon="37.3617740">
    <ele>5752.0</ele>
    <time>2026-06-23T03:59:34Z</time>
   </trkpt>
   <trkpt lat="-3.0789160" lon="37.3617730">
    <ele>5752.0</ele>
    <time>2026-06-23T03:59:35Z</time>
   </trkpt>
   <trkpt lat="-3.0789160" lon="37.3617740">
    <ele>5752.1</ele>
    <time>2026-06-23T03:59:36Z</time>
   </trkpt>
   <trkpt lat="-3.0789150" lon="37.3617740">
    <ele>5752.1</ele>
    <time>2026-06-23T03:59:37Z</time>
   </trkpt>
   <trkpt lat="-3.0789140" lon="37.3617740">
    <ele>5752.1</ele>
    <time>2026-06-23T03:59:38Z</time>
   </trkpt>
   <trkpt lat="-3.0789140" lon="37.3617740">
    <ele>5752.1</ele>
    <time>2026-06-23T03:59:39Z</time>
   </trkpt>
   <trkpt lat="-3.0789150" lon="37.3617740">
    <ele>5752.1</ele>
    <time>2026-06-23T03:59:40Z</time>
   </trkpt>
   <trkpt lat="-3.0789150" lon="37.3617740">
    <ele>5752.1</ele>
    <time>2026-06-23T03:59:41Z</time>
   </trkpt>
   <trkpt lat="-3.0789170" lon="37.3617710">
    <ele>5752.2</ele>
    <time>2026-06-23T03:59:42Z</time>
   </trkpt>
   <trkpt lat="-3.0789200" lon="37.3617680">
    <ele>5752.3</ele>
    <time>2026-06-23T03:59:43Z</time>
   </trkpt>
   <trkpt lat="-3.0789220" lon="37.3617670">
    <ele>5752.3</ele>
    <time>2026-06-23T03:59:44Z</time>
   </trkpt>
   <trkpt lat="-3.0789250" lon="37.3617630">
    <ele>5752.4</ele>
    <time>2026-06-23T03:59:45Z</time>
   </trkpt>
   <trkpt lat="-3.0789270" lon="37.3617610">
    <ele>5752.5</ele>
    <time>2026-06-23T03:59:46Z</time>
   </trkpt>
   <trkpt lat="-3.0789280" lon="37.3617600">
    <ele>5752.5</ele>
    <time>2026-06-23T03:59:47Z</time>
   </trkpt>
   <trkpt lat="-3.0789310" lon="37.3617560">
    <ele>5752.6</ele>
    <time>2026-06-23T03:59:48Z</time>
   </trkpt>
   <trkpt lat="-3.0789320" lon="37.3617550">
    <ele>5752.6</ele>
    <time>2026-06-23T03:59:49Z</time>
   </trkpt>
   <trkpt lat="-3.0789340" lon="37.3617520">
    <ele>5752.7</ele>
    <time>2026-06-23T03:59:50Z</time>
   </trkpt>
   <trkpt lat="-3.0789360" lon="37.3617500">
    <ele>5752.8</ele>
    <time>2026-06-23T03:59:51Z</time>
   </trkpt>
   <trkpt lat="-3.0789380" lon="37.3617470">
    <ele>5752.9</ele>
    <time>2026-06-23T03:59:52Z</time>
   </trkpt>
   <trkpt lat="-3.0789420" lon="37.3617460">
    <ele>5752.9</ele>
    <time>2026-06-23T03:59:53Z</time>
   </trkpt>
   <trkpt lat="-3.0789430" lon="37.3617450">
    <ele>5753.0</ele>
    <time>2026-06-23T03:59:54Z</time>
   </trkpt>
   <trkpt lat="-3.0789460" lon="37.3617430">
    <ele>5753.0</ele>
    <time>2026-06-23T03:59:55Z</time>
   </trkpt>
   <trkpt lat="-3.0789480" lon="37.3617400">
    <ele>5753.1</ele>
    <time>2026-06-23T03:59:56Z</time>
   </trkpt>
   <trkpt lat="-3.0789490" lon="37.3617370">
    <ele>5753.2</ele>
    <time>2026-06-23T03:59:57Z</time>
   </trkpt>
   <trkpt lat="-3.0789470" lon="37.3617370">
    <ele>5753.2</ele>
    <time>2026-06-23T03:59:58Z</time>
   </trkpt>
   <trkpt lat="-3.0789460" lon="37.3617370">
    <ele>5753.2</ele>
    <time>2026-06-23T03:59:59Z</time>
   </trkpt>
   <trkpt lat="-3.0789460" lon="37.3617370">
    <ele>5753.2</ele>
    <time>2026-06-23T04:00:00Z</time>
   </trkpt>
   <trkpt lat="-3.0789450" lon="37.3617380">
    <ele>5753.3</ele>
    <time>2026-06-23T04:00:01Z</time>
   </trkpt>
   <trkpt lat="-3.0789440" lon="37.3617390">
    <ele>5753.3</ele>
    <time>2026-06-23T04:00:02Z</time>
   </trkpt>
   <trkpt lat="-3.0789430" lon="37.3617390">
    <ele>5753.3</ele>
    <time>2026-06-23T04:00:03Z</time>
   </trkpt>
   <trkpt lat="-3.0789430" lon="37.3617390">
    <ele>5753.3</ele>
    <time>2026-06-23T04:00:04Z</time>
   </trkpt>
   <trkpt lat="-3.0789450" lon="37.3617370">
    <ele>5753.4</ele>
    <time>2026-06-23T04:00:05Z</time>
   </trkpt>
   <trkpt lat="-3.0789450" lon="37.3617350">
    <ele>5753.4</ele>
    <time>2026-06-23T04:00:06Z</time>
   </trkpt>
   <trkpt lat="-3.0789490" lon="37.3617300">
    <ele>5753.6</ele>
    <time>2026-06-23T04:00:07Z</time>
   </trkpt>
   <trkpt lat="-3.0789510" lon="37.3617240">
    <ele>5753.7</ele>
    <time>2026-06-23T04:00:08Z</time>
   </trkpt>
   <trkpt lat="-3.0789540" lon="37.3617210">
    <ele>5753.8</ele>
    <time>2026-06-23T04:00:09Z</time>
   </trkpt>
   <trkpt lat="-3.0789560" lon="37.3617180">
    <ele>5753.9</ele>
    <time>2026-06-23T04:00:10Z</time>
   </trkpt>
   <trkpt lat="-3.0789570" lon="37.3617160">
    <ele>5753.9</ele>
    <time>2026-06-23T04:00:11Z</time>
   </trkpt>
   <trkpt lat="-3.0789600" lon="37.3617130">
    <ele>5754.0</ele>
    <time>2026-06-23T04:00:12Z</time>
   </trkpt>
   <trkpt lat="-3.0789620" lon="37.3617090">
    <ele>5754.1</ele>
    <time>2026-06-23T04:00:13Z</time>
   </trkpt>
   <trkpt lat="-3.0789630" lon="37.3617070">
    <ele>5754.2</ele>
    <time>2026-06-23T04:00:14Z</time>
   </trkpt>
   <trkpt lat="-3.0789640" lon="37.3617030">
    <ele>5754.2</ele>
    <time>2026-06-23T04:00:15Z</time>
   </trkpt>
   <trkpt lat="-3.0789630" lon="37.3617010">
    <ele>5754.3</ele>
    <time>2026-06-23T04:00:16Z</time>
   </trkpt>
   <trkpt lat="-3.0789620" lon="37.3617030">
    <ele>5754.3</ele>
    <time>2026-06-23T04:00:17Z</time>
   </trkpt>
   <trkpt lat="-3.0789620" lon="37.3617030">
    <ele>5754.3</ele>
    <time>2026-06-23T04:00:18Z</time>
   </trkpt>
   <trkpt lat="-3.0789620" lon="37.3617030">
    <ele>5754.3</ele>
    <time>2026-06-23T04:00:19Z</time>
   </trkpt>
   <trkpt lat="-3.0789610" lon="37.3617030">
    <ele>5754.4</ele>
    <time>2026-06-23T04:00:20Z</time>
   </trkpt>
   <trkpt lat="-3.0789640" lon="37.3616990">
    <ele>5754.5</ele>
    <time>2026-06-23T04:00:21Z</time>
   </trkpt>
   <trkpt lat="-3.0789640" lon="37.3616950">
    <ele>5754.6</ele>
    <time>2026-06-23T04:00:22Z</time>
   </trkpt>
   <trkpt lat="-3.0789660" lon="37.3616920">
    <ele>5754.6</ele>
    <time>2026-06-23T04:00:23Z</time>
   </trkpt>
   <trkpt lat="-3.0789680" lon="37.3616880">
    <ele>5754.7</ele>
    <time>2026-06-23T04:00:24Z</time>
   </trkpt>
   <trkpt lat="-3.0789700" lon="37.3616860">
    <ele>5754.8</ele>
    <time>2026-06-23T04:00:25Z</time>
   </trkpt>
   <trkpt lat="-3.0789740" lon="37.3616830">
    <ele>5754.9</ele>
    <time>2026-06-23T04:00:26Z</time>
   </trkpt>
   <trkpt lat="-3.0789740" lon="37.3616800">
    <ele>5755.0</ele>
    <time>2026-06-23T04:00:27Z</time>
   </trkpt>
   <trkpt lat="-3.0789750" lon="37.3616780">
    <ele>5755.0</ele>
    <time>2026-06-23T04:00:28Z</time>
   </trkpt>
   <trkpt lat="-3.0789760" lon="37.3616740">
    <ele>5755.1</ele>
    <time>2026-06-23T04:00:29Z</time>
   </trkpt>
   <trkpt lat="-3.0789770" lon="37.3616710">
    <ele>5755.2</ele>
    <time>2026-06-23T04:00:30Z</time>
   </trkpt>
   <trkpt lat="-3.0789770" lon="37.3616680">
    <ele>5755.2</ele>
    <time>2026-06-23T04:00:31Z</time>
   </trkpt>
   <trkpt lat="-3.0789790" lon="37.3616650">
    <ele>5755.3</ele>
    <time>2026-06-23T04:00:32Z</time>
   </trkpt>
   <trkpt lat="-3.0789810" lon="37.3616630">
    <ele>5755.4</ele>
    <time>2026-06-23T04:00:33Z</time>
   </trkpt>
   <trkpt lat="-3.0789820" lon="37.3616610">
    <ele>5755.4</ele>
    <time>2026-06-23T04:00:34Z</time>
   </trkpt>
   <trkpt lat="-3.0789840" lon="37.3616590">
    <ele>5755.5</ele>
    <time>2026-06-23T04:00:35Z</time>
   </trkpt>
   <trkpt lat="-3.0789860" lon="37.3616550">
    <ele>5755.6</ele>
    <time>2026-06-23T04:00:36Z</time>
   </trkpt>
   <trkpt lat="-3.0789880" lon="37.3616530">
    <ele>5755.6</ele>
    <time>2026-06-23T04:00:37Z</time>
   </trkpt>
   <trkpt lat="-3.0789880" lon="37.3616510">
    <ele>5755.7</ele>
    <time>2026-06-23T04:00:38Z</time>
   </trkpt>
   <trkpt lat="-3.0789900" lon="37.3616480">
    <ele>5755.8</ele>
    <time>2026-06-23T04:00:39Z</time>
   </trkpt>
   <trkpt lat="-3.0789900" lon="37.3616460">
    <ele>5755.8</ele>
    <time>2026-06-23T04:00:40Z</time>
   </trkpt>
   <trkpt lat="-3.0789920" lon="37.3616440">
    <ele>5755.9</ele>
    <time>2026-06-23T04:00:41Z</time>
   </trkpt>
   <trkpt lat="-3.0789940" lon="37.3616400">
    <ele>5756.0</ele>
    <time>2026-06-23T04:00:42Z</time>
   </trkpt>
   <trkpt lat="-3.0789970" lon="37.3616370">
    <ele>5756.1</ele>
    <time>2026-06-23T04:00:43Z</time>
   </trkpt>
   <trkpt lat="-3.0789970" lon="37.3616350">
    <ele>5756.1</ele>
    <time>2026-06-23T04:00:44Z</time>
   </trkpt>
   <trkpt lat="-3.0789980" lon="37.3616320">
    <ele>5756.2</ele>
    <time>2026-06-23T04:00:45Z</time>
   </trkpt>
   <trkpt lat="-3.0790000" lon="37.3616300">
    <ele>5756.2</ele>
    <time>2026-06-23T04:00:46Z</time>
   </trkpt>
   <trkpt lat="-3.0790010" lon="37.3616290">
    <ele>5756.3</ele>
    <time>2026-06-23T04:00:47Z</time>
   </trkpt>
   <trkpt lat="-3.0790020" lon="37.3616270">
    <ele>5756.3</ele>
    <time>2026-06-23T04:00:48Z</time>
   </trkpt>
   <trkpt lat="-3.0790030" lon="37.3616240">
    <ele>5756.4</ele>
    <time>2026-06-23T04:00:49Z</time>
   </trkpt>
   <trkpt lat="-3.0790050" lon="37.3616230">
    <ele>5756.4</ele>
    <time>2026-06-23T04:00:50Z</time>
   </trkpt>
   <trkpt lat="-3.0790070" lon="37.3616200">
    <ele>5756.5</ele>
    <time>2026-06-23T04:00:51Z</time>
   </trkpt>
   <trkpt lat="-3.0790090" lon="37.3616210">
    <ele>5756.6</ele>
    <time>2026-06-23T04:00:52Z</time>
   </trkpt>
   <trkpt lat="-3.0790100" lon="37.3616180">
    <ele>5756.6</ele>
    <time>2026-06-23T04:00:53Z</time>
   </trkpt>
   <trkpt lat="-3.0790130" lon="37.3616130">
    <ele>5756.7</ele>
    <time>2026-06-23T04:00:54Z</time>
   </trkpt>
   <trkpt lat="-3.0790130" lon="37.3616120">
    <ele>5756.8</ele>
    <time>2026-06-23T04:00:55Z</time>
   </trkpt>
   <trkpt lat="-3.0790150" lon="37.3616100">
    <ele>5756.8</ele>
    <time>2026-06-23T04:00:56Z</time>
   </trkpt>
   <trkpt lat="-3.0790150" lon="37.3616120">
    <ele>5756.9</ele>
    <time>2026-06-23T04:00:57Z</time>
   </trkpt>
   <trkpt lat="-3.0790160" lon="37.3616130">
    <ele>5756.9</ele>
    <time>2026-06-23T04:00:58Z</time>
   </trkpt>
   <trkpt lat="-3.0790170" lon="37.3616140">
    <ele>5756.9</ele>
    <time>2026-06-23T04:00:59Z</time>
   </trkpt>
   <trkpt lat="-3.0790150" lon="37.3616140">
    <ele>5757.0</ele>
    <time>2026-06-23T04:01:00Z</time>
   </trkpt>
   <trkpt lat="-3.0790180" lon="37.3616120">
    <ele>5757.1</ele>
    <time>2026-06-23T04:01:01Z</time>
   </trkpt>
   <trkpt lat="-3.0790170" lon="37.3616140">
    <ele>5757.1</ele>
    <time>2026-06-23T04:01:02Z</time>
   </trkpt>
   <trkpt lat="-3.0790170" lon="37.3616100">
    <ele>5757.2</ele>
    <time>2026-06-23T04:01:03Z</time>
   </trkpt>
   <trkpt lat="-3.0790180" lon="37.3616090">
    <ele>5757.2</ele>
    <time>2026-06-23T04:01:04Z</time>
   </trkpt>
   <trkpt lat="-3.0790210" lon="37.3616050">
    <ele>5757.3</ele>
    <time>2026-06-23T04:01:05Z</time>
   </trkpt>
   <trkpt lat="-3.0790240" lon="37.3616020">
    <ele>5757.4</ele>
    <time>2026-06-23T04:01:06Z</time>
   </trkpt>
   <trkpt lat="-3.0790260" lon="37.3615990">
    <ele>5757.5</ele>
    <time>2026-06-23T04:01:07Z</time>
   </trkpt>
   <trkpt lat="-3.0790280" lon="37.3615980">
    <ele>5757.5</ele>
    <time>2026-06-23T04:01:08Z</time>
   </trkpt>
   <trkpt lat="-3.0790310" lon="37.3615930">
    <ele>5757.7</ele>
    <time>2026-06-23T04:01:09Z</time>
   </trkpt>
   <trkpt lat="-3.0790330" lon="37.3615920">
    <ele>5757.7</ele>
    <time>2026-06-23T04:01:10Z</time>
   </trkpt>
   <trkpt lat="-3.0790360" lon="37.3615890">
    <ele>5757.8</ele>
    <time>2026-06-23T04:01:11Z</time>
   </trkpt>
   <trkpt lat="-3.0790380" lon="37.3615860">
    <ele>5757.9</ele>
    <time>2026-06-23T04:01:12Z</time>
   </trkpt>
   <trkpt lat="-3.0790410" lon="37.3615850">
    <ele>5758.0</ele>
    <time>2026-06-23T04:01:13Z</time>
   </trkpt>
   <trkpt lat="-3.0790430" lon="37.3615820">
    <ele>5758.0</ele>
    <time>2026-06-23T04:01:14Z</time>
   </trkpt>
   <trkpt lat="-3.0790450" lon="37.3615800">
    <ele>5758.1</ele>
    <time>2026-06-23T04:01:15Z</time>
   </trkpt>
   <trkpt lat="-3.0790470" lon="37.3615770">
    <ele>5758.2</ele>
    <time>2026-06-23T04:01:16Z</time>
   </trkpt>
   <trkpt lat="-3.0790490" lon="37.3615750">
    <ele>5758.2</ele>
    <time>2026-06-23T04:01:17Z</time>
   </trkpt>
   <trkpt lat="-3.0790520" lon="37.3615710">
    <ele>5758.3</ele>
    <time>2026-06-23T04:01:18Z</time>
   </trkpt>
   <trkpt lat="-3.0790530" lon="37.3615700">
    <ele>5758.4</ele>
    <time>2026-06-23T04:01:19Z</time>
   </trkpt>
   <trkpt lat="-3.0790560" lon="37.3615650">
    <ele>5758.5</ele>
    <time>2026-06-23T04:01:20Z</time>
   </trkpt>
   <trkpt lat="-3.0790560" lon="37.3615640">
    <ele>5758.5</ele>
    <time>2026-06-23T04:01:21Z</time>
   </trkpt>
   <trkpt lat="-3.0790590" lon="37.3615620">
    <ele>5758.6</ele>
    <time>2026-06-23T04:01:22Z</time>
   </trkpt>
   <trkpt lat="-3.0790620" lon="37.3615580">
    <ele>5758.7</ele>
    <time>2026-06-23T04:01:23Z</time>
   </trkpt>
   <trkpt lat="-3.0790640" lon="37.3615550">
    <ele>5758.8</ele>
    <time>2026-06-23T04:01:24Z</time>
   </trkpt>
   <trkpt lat="-3.0790680" lon="37.3615530">
    <ele>5758.8</ele>
    <time>2026-06-23T04:01:25Z</time>
   </trkpt>
   <trkpt lat="-3.0790710" lon="37.3615510">
    <ele>5758.9</ele>
    <time>2026-06-23T04:01:26Z</time>
   </trkpt>
   <trkpt lat="-3.0790740" lon="37.3615490">
    <ele>5759.0</ele>
    <time>2026-06-23T04:01:27Z</time>
   </trkpt>
   <trkpt lat="-3.0790770" lon="37.3615460">
    <ele>5759.1</ele>
    <time>2026-06-23T04:01:28Z</time>
   </trkpt>
   <trkpt lat="-3.0790790" lon="37.3615440">
    <ele>5759.1</ele>
    <time>2026-06-23T04:01:29Z</time>
   </trkpt>
   <trkpt lat="-3.0790840" lon="37.3615410">
    <ele>5759.3</ele>
    <time>2026-06-23T04:01:30Z</time>
   </trkpt>
   <trkpt lat="-3.0790850" lon="37.3615400">
    <ele>5759.3</ele>
    <time>2026-06-23T04:01:31Z</time>
   </trkpt>
   <trkpt lat="-3.0790900" lon="37.3615360">
    <ele>5759.4</ele>
    <time>2026-06-23T04:01:32Z</time>
   </trkpt>
   <trkpt lat="-3.0790910" lon="37.3615360">
    <ele>5759.5</ele>
    <time>2026-06-23T04:01:33Z</time>
   </trkpt>
   <trkpt lat="-3.0790930" lon="37.3615350">
    <ele>5759.5</ele>
    <time>2026-06-23T04:01:34Z</time>
   </trkpt>
   <trkpt lat="-3.0790950" lon="37.3615320">
    <ele>5759.6</ele>
    <time>2026-06-23T04:01:35Z</time>
   </trkpt>
   <trkpt lat="-3.0790980" lon="37.3615280">
    <ele>5759.7</ele>
    <time>2026-06-23T04:01:36Z</time>
   </trkpt>
   <trkpt lat="-3.0791000" lon="37.3615270">
    <ele>5759.7</ele>
    <time>2026-06-23T04:01:37Z</time>
   </trkpt>
   <trkpt lat="-3.0791020" lon="37.3615240">
    <ele>5759.8</ele>
    <time>2026-06-23T04:01:38Z</time>
   </trkpt>
   <trkpt lat="-3.0791050" lon="37.3615220">
    <ele>5759.9</ele>
    <time>2026-06-23T04:01:39Z</time>
   </trkpt>
   <trkpt lat="-3.0791060" lon="37.3615200">
    <ele>5759.9</ele>
    <time>2026-06-23T04:01:40Z</time>
   </trkpt>
   <trkpt lat="-3.0791080" lon="37.3615190">
    <ele>5760.0</ele>
    <time>2026-06-23T04:01:41Z</time>
   </trkpt>
   <trkpt lat="-3.0791110" lon="37.3615170">
    <ele>5760.0</ele>
    <time>2026-06-23T04:01:42Z</time>
   </trkpt>
   <trkpt lat="-3.0791130" lon="37.3615160">
    <ele>5760.1</ele>
    <time>2026-06-23T04:01:43Z</time>
   </trkpt>
   <trkpt lat="-3.0791120" lon="37.3615160">
    <ele>5760.1</ele>
    <time>2026-06-23T04:01:44Z</time>
   </trkpt>
   <trkpt lat="-3.0791130" lon="37.3615160">
    <ele>5760.1</ele>
    <time>2026-06-23T04:01:45Z</time>
   </trkpt>
   <trkpt lat="-3.0791160" lon="37.3615130">
    <ele>5760.2</ele>
    <time>2026-06-23T04:01:46Z</time>
   </trkpt>
   <trkpt lat="-3.0791190" lon="37.3615110">
    <ele>5760.3</ele>
    <time>2026-06-23T04:01:47Z</time>
   </trkpt>
   <trkpt lat="-3.0791200" lon="37.3615100">
    <ele>5760.3</ele>
    <time>2026-06-23T04:01:48Z</time>
   </trkpt>
   <trkpt lat="-3.0791220" lon="37.3615090">
    <ele>5760.4</ele>
    <time>2026-06-23T04:01:49Z</time>
   </trkpt>
   <trkpt lat="-3.0791230" lon="37.3615050">
    <ele>5760.5</ele>
    <time>2026-06-23T04:01:50Z</time>
   </trkpt>
   <trkpt lat="-3.0791240" lon="37.3615020">
    <ele>5760.5</ele>
    <time>2026-06-23T04:01:51Z</time>
   </trkpt>
   <trkpt lat="-3.0791230" lon="37.3615030">
    <ele>5760.6</ele>
    <time>2026-06-23T04:01:52Z</time>
   </trkpt>
   <trkpt lat="-3.0791230" lon="37.3615030">
    <ele>5760.6</ele>
    <time>2026-06-23T04:01:53Z</time>
   </trkpt>
   <trkpt lat="-3.0791230" lon="37.3615030">
    <ele>5760.6</ele>
    <time>2026-06-23T04:01:54Z</time>
   </trkpt>
   <trkpt lat="-3.0791240" lon="37.3615020">
    <ele>5760.6</ele>
    <time>2026-06-23T04:01:55Z</time>
   </trkpt>
   <trkpt lat="-3.0791240" lon="37.3615030">
    <ele>5760.6</ele>
    <time>2026-06-23T04:01:56Z</time>
   </trkpt>
   <trkpt lat="-3.0791240" lon="37.3615020">
    <ele>5760.6</ele>
    <time>2026-06-23T04:01:57Z</time>
   </trkpt>
   <trkpt lat="-3.0791240" lon="37.3615030">
    <ele>5760.6</ele>
    <time>2026-06-23T04:01:58Z</time>
   </trkpt>
   <trkpt lat="-3.0791240" lon="37.3615030">
    <ele>5760.6</ele>
    <time>2026-06-23T04:01:59Z</time>
   </trkpt>
   <trkpt lat="-3.0791240" lon="37.3615040">
    <ele>5760.7</ele>
    <time>2026-06-23T04:02:00Z</time>
   </trkpt>
   <trkpt lat="-3.0791240" lon="37.3615040">
    <ele>5760.7</ele>
    <time>2026-06-23T04:02:01Z</time>
   </trkpt>
   <trkpt lat="-3.0791240" lon="37.3615040">
    <ele>5760.7</ele>
    <time>2026-06-23T04:02:02Z</time>
   </trkpt>
   <trkpt lat="-3.0791250" lon="37.3615030">
    <ele>5760.7</ele>
    <time>2026-06-23T04:02:03Z</time>
   </trkpt>
   <trkpt lat="-3.0791250" lon="37.3615030">
    <ele>5760.7</ele>
    <time>2026-06-23T04:02:04Z</time>
   </trkpt>
   <trkpt lat="-3.0791250" lon="37.3615030">
    <ele>5760.7</ele>
    <time>2026-06-23T04:02:05Z</time>
   </trkpt>
   <trkpt lat="-3.0791250" lon="37.3615010">
    <ele>5760.7</ele>
    <time>2026-06-23T04:02:06Z</time>
   </trkpt>
   <trkpt lat="-3.0791270" lon="37.3614980">
    <ele>5760.8</ele>
    <time>2026-06-23T04:02:07Z</time>
   </trkpt>
   <trkpt lat="-3.0791300" lon="37.3614950">
    <ele>5760.9</ele>
    <time>2026-06-23T04:02:08Z</time>
   </trkpt>
   <trkpt lat="-3.0791330" lon="37.3614910">
    <ele>5761.0</ele>
    <time>2026-06-23T04:02:09Z</time>
   </trkpt>
   <trkpt lat="-3.0791330" lon="37.3614900">
    <ele>5761.0</ele>
    <time>2026-06-23T04:02:10Z</time>
   </trkpt>
   <trkpt lat="-3.0791360" lon="37.3614840">
    <ele>5761.2</ele>
    <time>2026-06-23T04:02:11Z</time>
   </trkpt>
   <trkpt lat="-3.0791360" lon="37.3614820">
    <ele>5761.2</ele>
    <time>2026-06-23T04:02:12Z</time>
   </trkpt>
   <trkpt lat="-3.0791370" lon="37.3614790">
    <ele>5761.3</ele>
    <time>2026-06-23T04:02:13Z</time>
   </trkpt>
   <trkpt lat="-3.0791390" lon="37.3614750">
    <ele>5761.4</ele>
    <time>2026-06-23T04:02:14Z</time>
   </trkpt>
   <trkpt lat="-3.0791390" lon="37.3614730">
    <ele>5761.4</ele>
    <time>2026-06-23T04:02:15Z</time>
   </trkpt>
   <trkpt lat="-3.0791410" lon="37.3614690">
    <ele>5761.5</ele>
    <time>2026-06-23T04:02:16Z</time>
   </trkpt>
   <trkpt lat="-3.0791410" lon="37.3614660">
    <ele>5761.6</ele>
    <time>2026-06-23T04:02:17Z</time>
   </trkpt>
   <trkpt lat="-3.0791410" lon="37.3614620">
    <ele>5761.6</ele>
    <time>2026-06-23T04:02:18Z</time>
   </trkpt>
   <trkpt lat="-3.0791420" lon="37.3614580">
    <ele>5761.7</ele>
    <time>2026-06-23T04:02:19Z</time>
   </trkpt>
   <trkpt lat="-3.0791430" lon="37.3614550">
    <ele>5761.8</ele>
    <time>2026-06-23T04:02:20Z</time>
   </trkpt>
   <trkpt lat="-3.0791440" lon="37.3614520">
    <ele>5761.9</ele>
    <time>2026-06-23T04:02:21Z</time>
   </trkpt>
   <trkpt lat="-3.0791440" lon="37.3614500">
    <ele>5761.9</ele>
    <time>2026-06-23T04:02:22Z</time>
   </trkpt>
   <trkpt lat="-3.0791450" lon="37.3614460">
    <ele>5762.0</ele>
    <time>2026-06-23T04:02:23Z</time>
   </trkpt>
   <trkpt lat="-3.0791450" lon="37.3614430">
    <ele>5762.1</ele>
    <time>2026-06-23T04:02:24Z</time>
   </trkpt>
   <trkpt lat="-3.0791450" lon="37.3614390">
    <ele>5762.1</ele>
    <time>2026-06-23T04:02:25Z</time>
   </trkpt>
   <trkpt lat="-3.0791450" lon="37.3614360">
    <ele>5762.2</ele>
    <time>2026-06-23T04:02:26Z</time>
   </trkpt>
   <trkpt lat="-3.0791450" lon="37.3614330">
    <ele>5762.3</ele>
    <time>2026-06-23T04:02:27Z</time>
   </trkpt>
   <trkpt lat="-3.0791440" lon="37.3614310">
    <ele>5762.3</ele>
    <time>2026-06-23T04:02:28Z</time>
   </trkpt>
   <trkpt lat="-3.0791440" lon="37.3614280">
    <ele>5762.4</ele>
    <time>2026-06-23T04:02:29Z</time>
   </trkpt>
   <trkpt lat="-3.0791430" lon="37.3614230">
    <ele>5762.5</ele>
    <time>2026-06-23T04:02:30Z</time>
   </trkpt>
   <trkpt lat="-3.0791440" lon="37.3614240">
    <ele>5762.5</ele>
    <time>2026-06-23T04:02:31Z</time>
   </trkpt>
   <trkpt lat="-3.0791440" lon="37.3614190">
    <ele>5762.6</ele>
    <time>2026-06-23T04:02:32Z</time>
   </trkpt>
   <trkpt lat="-3.0791440" lon="37.3614170">
    <ele>5762.7</ele>
    <time>2026-06-23T04:02:33Z</time>
   </trkpt>
   <trkpt lat="-3.0791440" lon="37.3614120">
    <ele>5762.8</ele>
    <time>2026-06-23T04:02:34Z</time>
   </trkpt>
   <trkpt lat="-3.0791450" lon="37.3614110">
    <ele>5762.8</ele>
    <time>2026-06-23T04:02:35Z</time>
   </trkpt>
   <trkpt lat="-3.0791460" lon="37.3614080">
    <ele>5762.9</ele>
    <time>2026-06-23T04:02:36Z</time>
   </trkpt>
   <trkpt lat="-3.0791450" lon="37.3614050">
    <ele>5762.9</ele>
    <time>2026-06-23T04:02:37Z</time>
   </trkpt>
   <trkpt lat="-3.0791450" lon="37.3614020">
    <ele>5763.0</ele>
    <time>2026-06-23T04:02:38Z</time>
   </trkpt>
   <trkpt lat="-3.0791460" lon="37.3613980">
    <ele>5763.1</ele>
    <time>2026-06-23T04:02:39Z</time>
   </trkpt>
   <trkpt lat="-3.0791460" lon="37.3613970">
    <ele>5763.1</ele>
    <time>2026-06-23T04:02:40Z</time>
   </trkpt>
   <trkpt lat="-3.0791470" lon="37.3613970">
    <ele>5763.1</ele>
    <time>2026-06-23T04:02:41Z</time>
   </trkpt>
   <trkpt lat="-3.0791480" lon="37.3613960">
    <ele>5763.2</ele>
    <time>2026-06-23T04:02:42Z</time>
   </trkpt>
   <trkpt lat="-3.0791460" lon="37.3613910">
    <ele>5763.3</ele>
    <time>2026-06-23T04:02:43Z</time>
   </trkpt>
   <trkpt lat="-3.0791480" lon="37.3613890">
    <ele>5763.3</ele>
    <time>2026-06-23T04:02:44Z</time>
   </trkpt>
   <trkpt lat="-3.0791460" lon="37.3613840">
    <ele>5763.4</ele>
    <time>2026-06-23T04:02:45Z</time>
   </trkpt>
   <trkpt lat="-3.0791460" lon="37.3613850">
    <ele>5763.5</ele>
    <time>2026-06-23T04:02:46Z</time>
   </trkpt>
   <trkpt lat="-3.0791470" lon="37.3613820">
    <ele>5763.5</ele>
    <time>2026-06-23T04:02:47Z</time>
   </trkpt>
   <trkpt lat="-3.0791460" lon="37.3613790">
    <ele>5763.6</ele>
    <time>2026-06-23T04:02:48Z</time>
   </trkpt>
   <trkpt lat="-3.0791450" lon="37.3613790">
    <ele>5763.6</ele>
    <time>2026-06-23T04:02:49Z</time>
   </trkpt>
   <trkpt lat="-3.0791440" lon="37.3613800">
    <ele>5763.7</ele>
    <time>2026-06-23T04:02:50Z</time>
   </trkpt>
   <trkpt lat="-3.0791440" lon="37.3613810">
    <ele>5763.7</ele>
    <time>2026-06-23T04:02:51Z</time>
   </trkpt>
   <trkpt lat="-3.0791430" lon="37.3613790">
    <ele>5763.7</ele>
    <time>2026-06-23T04:02:52Z</time>
   </trkpt>
   <trkpt lat="-3.0791450" lon="37.3613770">
    <ele>5763.8</ele>
    <time>2026-06-23T04:02:53Z</time>
   </trkpt>
   <trkpt lat="-3.0791430" lon="37.3613740">
    <ele>5763.9</ele>
    <time>2026-06-23T04:02:54Z</time>
   </trkpt>
   <trkpt lat="-3.0791430" lon="37.3613700">
    <ele>5763.9</ele>
    <time>2026-06-23T04:02:55Z</time>
   </trkpt>
   <trkpt lat="-3.0791420" lon="37.3613670">
    <ele>5764.0</ele>
    <time>2026-06-23T04:02:56Z</time>
   </trkpt>
   <trkpt lat="-3.0791440" lon="37.3613640">
    <ele>5764.1</ele>
    <time>2026-06-23T04:02:57Z</time>
   </trkpt>
   <trkpt lat="-3.0791440" lon="37.3613600">
    <ele>5764.2</ele>
    <time>2026-06-23T04:02:58Z</time>
   </trkpt>
   <trkpt lat="-3.0791440" lon="37.3613570">
    <ele>5764.2</ele>
    <time>2026-06-23T04:02:59Z</time>
   </trkpt>
   <trkpt lat="-3.0791440" lon="37.3613540">
    <ele>5764.3</ele>
    <time>2026-06-23T04:03:00Z</time>
   </trkpt>
   <trkpt lat="-3.0791450" lon="37.3613500">
    <ele>5764.4</ele>
    <time>2026-06-23T04:03:01Z</time>
   </trkpt>
   <trkpt lat="-3.0791440" lon="37.3613460">
    <ele>5764.5</ele>
    <time>2026-06-23T04:03:02Z</time>
   </trkpt>
   <trkpt lat="-3.0791450" lon="37.3613430">
    <ele>5764.5</ele>
    <time>2026-06-23T04:03:03Z</time>
   </trkpt>
   <trkpt lat="-3.0791460" lon="37.3613390">
    <ele>5764.6</ele>
    <time>2026-06-23T04:03:04Z</time>
   </trkpt>
   <trkpt lat="-3.0791460" lon="37.3613370">
    <ele>5764.7</ele>
    <time>2026-06-23T04:03:05Z</time>
   </trkpt>
   <trkpt lat="-3.0791470" lon="37.3613350">
    <ele>5764.7</ele>
    <time>2026-06-23T04:03:06Z</time>
   </trkpt>
   <trkpt lat="-3.0791480" lon="37.3613310">
    <ele>5764.8</ele>
    <time>2026-06-23T04:03:07Z</time>
   </trkpt>
   <trkpt lat="-3.0791500" lon="37.3613270">
    <ele>5764.9</ele>
    <time>2026-06-23T04:03:08Z</time>
   </trkpt>
   <trkpt lat="-3.0791530" lon="37.3613260">
    <ele>5765.0</ele>
    <time>2026-06-23T04:03:09Z</time>
   </trkpt>
   <trkpt lat="-3.0791530" lon="37.3613250">
    <ele>5765.0</ele>
    <time>2026-06-23T04:03:10Z</time>
   </trkpt>
   <trkpt lat="-3.0791540" lon="37.3613210">
    <ele>5765.1</ele>
    <time>2026-06-23T04:03:11Z</time>
   </trkpt>
   <trkpt lat="-3.0791550" lon="37.3613190">
    <ele>5765.1</ele>
    <time>2026-06-23T04:03:12Z</time>
   </trkpt>
   <trkpt lat="-3.0791560" lon="37.3613190">
    <ele>5765.2</ele>
    <time>2026-06-23T04:03:13Z</time>
   </trkpt>
   <trkpt lat="-3.0791550" lon="37.3613170">
    <ele>5765.2</ele>
    <time>2026-06-23T04:03:14Z</time>
   </trkpt>
   <trkpt lat="-3.0791570" lon="37.3613130">
    <ele>5765.3</ele>
    <time>2026-06-23T04:03:15Z</time>
   </trkpt>
   <trkpt lat="-3.0791580" lon="37.3613100">
    <ele>5765.4</ele>
    <time>2026-06-23T04:03:16Z</time>
   </trkpt>
   <trkpt lat="-3.0791590" lon="37.3613060">
    <ele>5765.4</ele>
    <time>2026-06-23T04:03:17Z</time>
   </trkpt>
   <trkpt lat="-3.0791600" lon="37.3613030">
    <ele>5765.5</ele>
    <time>2026-06-23T04:03:18Z</time>
   </trkpt>
   <trkpt lat="-3.0791610" lon="37.3612990">
    <ele>5765.6</ele>
    <time>2026-06-23T04:03:19Z</time>
   </trkpt>
   <trkpt lat="-3.0791620" lon="37.3612960">
    <ele>5765.7</ele>
    <time>2026-06-23T04:03:20Z</time>
   </trkpt>
   <trkpt lat="-3.0791640" lon="37.3612930">
    <ele>5765.7</ele>
    <time>2026-06-23T04:03:21Z</time>
   </trkpt>
   <trkpt lat="-3.0791650" lon="37.3612890">
    <ele>5765.8</ele>
    <time>2026-06-23T04:03:22Z</time>
   </trkpt>
   <trkpt lat="-3.0791660" lon="37.3612860">
    <ele>5765.9</ele>
    <time>2026-06-23T04:03:23Z</time>
   </trkpt>
   <trkpt lat="-3.0791650" lon="37.3612830">
    <ele>5765.9</ele>
    <time>2026-06-23T04:03:24Z</time>
   </trkpt>
   <trkpt lat="-3.0791660" lon="37.3612810">
    <ele>5766.0</ele>
    <time>2026-06-23T04:03:25Z</time>
   </trkpt>
   <trkpt lat="-3.0791660" lon="37.3612790">
    <ele>5766.0</ele>
    <time>2026-06-23T04:03:26Z</time>
   </trkpt>
   <trkpt lat="-3.0791660" lon="37.3612750">
    <ele>5766.1</ele>
    <time>2026-06-23T04:03:27Z</time>
   </trkpt>
   <trkpt lat="-3.0791650" lon="37.3612750">
    <ele>5766.1</ele>
    <time>2026-06-23T04:03:28Z</time>
   </trkpt>
   <trkpt lat="-3.0791650" lon="37.3612720">
    <ele>5766.2</ele>
    <time>2026-06-23T04:03:29Z</time>
   </trkpt>
   <trkpt lat="-3.0791660" lon="37.3612690">
    <ele>5766.3</ele>
    <time>2026-06-23T04:03:30Z</time>
   </trkpt>
   <trkpt lat="-3.0791660" lon="37.3612680">
    <ele>5766.3</ele>
    <time>2026-06-23T04:03:31Z</time>
   </trkpt>
   <trkpt lat="-3.0791660" lon="37.3612680">
    <ele>5766.3</ele>
    <time>2026-06-23T04:03:32Z</time>
   </trkpt>
   <trkpt lat="-3.0791670" lon="37.3612670">
    <ele>5766.3</ele>
    <time>2026-06-23T04:03:33Z</time>
   </trkpt>
   <trkpt lat="-3.0791680" lon="37.3612660">
    <ele>5766.3</ele>
    <time>2026-06-23T04:03:34Z</time>
   </trkpt>
   <trkpt lat="-3.0791700" lon="37.3612640">
    <ele>5766.4</ele>
    <time>2026-06-23T04:03:35Z</time>
   </trkpt>
   <trkpt lat="-3.0791710" lon="37.3612640">
    <ele>5766.4</ele>
    <time>2026-06-23T04:03:36Z</time>
   </trkpt>
   <trkpt lat="-3.0791720" lon="37.3612640">
    <ele>5766.4</ele>
    <time>2026-06-23T04:03:37Z</time>
   </trkpt>
   <trkpt lat="-3.0791720" lon="37.3612650">
    <ele>5766.5</ele>
    <time>2026-06-23T04:03:38Z</time>
   </trkpt>
   <trkpt lat="-3.0791730" lon="37.3612650">
    <ele>5766.5</ele>
    <time>2026-06-23T04:03:39Z</time>
   </trkpt>
   <trkpt lat="-3.0791720" lon="37.3612650">
    <ele>5766.5</ele>
    <time>2026-06-23T04:03:40Z</time>
   </trkpt>
   <trkpt lat="-3.0791710" lon="37.3612650">
    <ele>5766.5</ele>
    <time>2026-06-23T04:03:41Z</time>
   </trkpt>
   <trkpt lat="-3.0791710" lon="37.3612620">
    <ele>5766.6</ele>
    <time>2026-06-23T04:03:42Z</time>
   </trkpt>
   <trkpt lat="-3.0791720" lon="37.3612600">
    <ele>5766.6</ele>
    <time>2026-06-23T04:03:43Z</time>
   </trkpt>
   <trkpt lat="-3.0791730" lon="37.3612610">
    <ele>5766.6</ele>
    <time>2026-06-23T04:03:44Z</time>
   </trkpt>
   <trkpt lat="-3.0791730" lon="37.3612620">
    <ele>5766.7</ele>
    <time>2026-06-23T04:03:45Z</time>
   </trkpt>
   <trkpt lat="-3.0791720" lon="37.3612620">
    <ele>5766.7</ele>
    <time>2026-06-23T04:03:46Z</time>
   </trkpt>
   <trkpt lat="-3.0791720" lon="37.3612630">
    <ele>5766.7</ele>
    <time>2026-06-23T04:03:47Z</time>
   </trkpt>
   <trkpt lat="-3.0791720" lon="37.3612630">
    <ele>5766.7</ele>
    <time>2026-06-23T04:03:48Z</time>
   </trkpt>
   <trkpt lat="-3.0791730" lon="37.3612630">
    <ele>5766.7</ele>
    <time>2026-06-23T04:03:49Z</time>
   </trkpt>
   <trkpt lat="-3.0791720" lon="37.3612630">
    <ele>5766.7</ele>
    <time>2026-06-23T04:03:50Z</time>
   </trkpt>
   <trkpt lat="-3.0791730" lon="37.3612630">
    <ele>5766.8</ele>
    <time>2026-06-23T04:03:51Z</time>
   </trkpt>
   <trkpt lat="-3.0791730" lon="37.3612640">
    <ele>5766.8</ele>
    <time>2026-06-23T04:03:52Z</time>
   </trkpt>
   <trkpt lat="-3.0791720" lon="37.3612650">
    <ele>5766.8</ele>
    <time>2026-06-23T04:03:53Z</time>
   </trkpt>
   <trkpt lat="-3.0791730" lon="37.3612660">
    <ele>5766.8</ele>
    <time>2026-06-23T04:03:54Z</time>
   </trkpt>
   <trkpt lat="-3.0791730" lon="37.3612660">
    <ele>5766.8</ele>
    <time>2026-06-23T04:03:55Z</time>
   </trkpt>
   <trkpt lat="-3.0791730" lon="37.3612670">
    <ele>5766.9</ele>
    <time>2026-06-23T04:03:56Z</time>
   </trkpt>
   <trkpt lat="-3.0791730" lon="37.3612670">
    <ele>5766.9</ele>
    <time>2026-06-23T04:03:57Z</time>
   </trkpt>
   <trkpt lat="-3.0791730" lon="37.3612670">
    <ele>5766.9</ele>
    <time>2026-06-23T04:03:58Z</time>
   </trkpt>
   <trkpt lat="-3.0791730" lon="37.3612670">
    <ele>5766.9</ele>
    <time>2026-06-23T04:03:59Z</time>
   </trkpt>
   <trkpt lat="-3.0791740" lon="37.3612680">
    <ele>5766.9</ele>
    <time>2026-06-23T04:04:00Z</time>
   </trkpt>
   <trkpt lat="-3.0791740" lon="37.3612680">
    <ele>5766.9</ele>
    <time>2026-06-23T04:04:01Z</time>
   </trkpt>
   <trkpt lat="-3.0791750" lon="37.3612670">
    <ele>5766.9</ele>
    <time>2026-06-23T04:04:02Z</time>
   </trkpt>
   <trkpt lat="-3.0791750" lon="37.3612670">
    <ele>5766.9</ele>
    <time>2026-06-23T04:04:03Z</time>
   </trkpt>
   <trkpt lat="-3.0791750" lon="37.3612670">
    <ele>5766.9</ele>
    <time>2026-06-23T04:04:04Z</time>
   </trkpt>
   <trkpt lat="-3.0791750" lon="37.3612650">
    <ele>5767.0</ele>
    <time>2026-06-23T04:04:05Z</time>
   </trkpt>
   <trkpt lat="-3.0791770" lon="37.3612640">
    <ele>5767.0</ele>
    <time>2026-06-23T04:04:06Z</time>
   </trkpt>
   <trkpt lat="-3.0791760" lon="37.3612630">
    <ele>5767.0</ele>
    <time>2026-06-23T04:04:07Z</time>
   </trkpt>
   <trkpt lat="-3.0791770" lon="37.3612640">
    <ele>5767.1</ele>
    <time>2026-06-23T04:04:08Z</time>
   </trkpt>
   <trkpt lat="-3.0791750" lon="37.3612630">
    <ele>5767.1</ele>
    <time>2026-06-23T04:04:09Z</time>
   </trkpt>
   <trkpt lat="-3.0791750" lon="37.3612640">
    <ele>5767.1</ele>
    <time>2026-06-23T04:04:10Z</time>
   </trkpt>
   <trkpt lat="-3.0791760" lon="37.3612630">
    <ele>5767.2</ele>
    <time>2026-06-23T04:04:11Z</time>
   </trkpt>
   <trkpt lat="-3.0791750" lon="37.3612630">
    <ele>5767.2</ele>
    <time>2026-06-23T04:04:12Z</time>
   </trkpt>
   <trkpt lat="-3.0791750" lon="37.3612610">
    <ele>5767.2</ele>
    <time>2026-06-23T04:04:13Z</time>
   </trkpt>
   <trkpt lat="-3.0791760" lon="37.3612620">
    <ele>5767.2</ele>
    <time>2026-06-23T04:04:14Z</time>
   </trkpt>
   <trkpt lat="-3.0791750" lon="37.3612610">
    <ele>5767.3</ele>
    <time>2026-06-23T04:04:15Z</time>
   </trkpt>
   <trkpt lat="-3.0791760" lon="37.3612630">
    <ele>5767.3</ele>
    <time>2026-06-23T04:04:16Z</time>
   </trkpt>
   <trkpt lat="-3.0791760" lon="37.3612630">
    <ele>5767.3</ele>
    <time>2026-06-23T04:04:17Z</time>
   </trkpt>
   <trkpt lat="-3.0791760" lon="37.3612630">
    <ele>5767.3</ele>
    <time>2026-06-23T04:04:18Z</time>
   </trkpt>
   <trkpt lat="-3.0791760" lon="37.3612630">
    <ele>5767.3</ele>
    <time>2026-06-23T04:04:19Z</time>
   </trkpt>
   <trkpt lat="-3.0791750" lon="37.3612630">
    <ele>5767.3</ele>
    <time>2026-06-23T04:04:20Z</time>
   </trkpt>
   <trkpt lat="-3.0791750" lon="37.3612640">
    <ele>5767.4</ele>
    <time>2026-06-23T04:04:21Z</time>
   </trkpt>
   <trkpt lat="-3.0791760" lon="37.3612640">
    <ele>5767.4</ele>
    <time>2026-06-23T04:04:22Z</time>
   </trkpt>
   <trkpt lat="-3.0791750" lon="37.3612640">
    <ele>5767.4</ele>
    <time>2026-06-23T04:04:23Z</time>
   </trkpt>
   <trkpt lat="-3.0791760" lon="37.3612620">
    <ele>5767.4</ele>
    <time>2026-06-23T04:04:24Z</time>
   </trkpt>
   <trkpt lat="-3.0791740" lon="37.3612600">
    <ele>5767.5</ele>
    <time>2026-06-23T04:04:25Z</time>
   </trkpt>
   <trkpt lat="-3.0791750" lon="37.3612570">
    <ele>5767.6</ele>
    <time>2026-06-23T04:04:26Z</time>
   </trkpt>
   <trkpt lat="-3.0791750" lon="37.3612570">
    <ele>5767.6</ele>
    <time>2026-06-23T04:04:27Z</time>
   </trkpt>
   <trkpt lat="-3.0791740" lon="37.3612600">
    <ele>5767.6</ele>
    <time>2026-06-23T04:04:28Z</time>
   </trkpt>
   <trkpt lat="-3.0791750" lon="37.3612590">
    <ele>5767.7</ele>
    <time>2026-06-23T04:04:29Z</time>
   </trkpt>
   <trkpt lat="-3.0791750" lon="37.3612600">
    <ele>5767.7</ele>
    <time>2026-06-23T04:04:30Z</time>
   </trkpt>
   <trkpt lat="-3.0791750" lon="37.3612610">
    <ele>5767.7</ele>
    <time>2026-06-23T04:04:31Z</time>
   </trkpt>
   <trkpt lat="-3.0791750" lon="37.3612610">
    <ele>5767.7</ele>
    <time>2026-06-23T04:04:32Z</time>
   </trkpt>
   <trkpt lat="-3.0791750" lon="37.3612610">
    <ele>5767.7</ele>
    <time>2026-06-23T04:04:33Z</time>
   </trkpt>
   <trkpt lat="-3.0791770" lon="37.3612610">
    <ele>5767.7</ele>
    <time>2026-06-23T04:04:34Z</time>
   </trkpt>
   <trkpt lat="-3.0791770" lon="37.3612610">
    <ele>5767.7</ele>
    <time>2026-06-23T04:04:35Z</time>
   </trkpt>
   <trkpt lat="-3.0791760" lon="37.3612560">
    <ele>5767.8</ele>
    <time>2026-06-23T04:04:36Z</time>
   </trkpt>
   <trkpt lat="-3.0791760" lon="37.3612530">
    <ele>5767.9</ele>
    <time>2026-06-23T04:04:37Z</time>
   </trkpt>
   <trkpt lat="-3.0791790" lon="37.3612540">
    <ele>5767.9</ele>
    <time>2026-06-23T04:04:38Z</time>
   </trkpt>
   <trkpt lat="-3.0791800" lon="37.3612550">
    <ele>5768.0</ele>
    <time>2026-06-23T04:04:39Z</time>
   </trkpt>
   <trkpt lat="-3.0791790" lon="37.3612550">
    <ele>5768.0</ele>
    <time>2026-06-23T04:04:40Z</time>
   </trkpt>
   <trkpt lat="-3.0791790" lon="37.3612550">
    <ele>5768.0</ele>
    <time>2026-06-23T04:04:41Z</time>
   </trkpt>
   <trkpt lat="-3.0791780" lon="37.3612520">
    <ele>5768.0</ele>
    <time>2026-06-23T04:04:42Z</time>
   </trkpt>
   <trkpt lat="-3.0791810" lon="37.3612460">
    <ele>5768.2</ele>
    <time>2026-06-23T04:04:43Z</time>
   </trkpt>
   <trkpt lat="-3.0791820" lon="37.3612430">
    <ele>5768.2</ele>
    <time>2026-06-23T04:04:44Z</time>
   </trkpt>
   <trkpt lat="-3.0791840" lon="37.3612420">
    <ele>5768.3</ele>
    <time>2026-06-23T04:04:45Z</time>
   </trkpt>
   <trkpt lat="-3.0791820" lon="37.3612390">
    <ele>5768.3</ele>
    <time>2026-06-23T04:04:46Z</time>
   </trkpt>
   <trkpt lat="-3.0791810" lon="37.3612360">
    <ele>5768.4</ele>
    <time>2026-06-23T04:04:47Z</time>
   </trkpt>
   <trkpt lat="-3.0791780" lon="37.3612360">
    <ele>5768.4</ele>
    <time>2026-06-23T04:04:48Z</time>
   </trkpt>
   <trkpt lat="-3.0791780" lon="37.3612370">
    <ele>5768.5</ele>
    <time>2026-06-23T04:04:49Z</time>
   </trkpt>
   <trkpt lat="-3.0791780" lon="37.3612370">
    <ele>5768.5</ele>
    <time>2026-06-23T04:04:50Z</time>
   </trkpt>
   <trkpt lat="-3.0791770" lon="37.3612310">
    <ele>5768.6</ele>
    <time>2026-06-23T04:04:51Z</time>
   </trkpt>
   <trkpt lat="-3.0791730" lon="37.3612260">
    <ele>5768.7</ele>
    <time>2026-06-23T04:04:52Z</time>
   </trkpt>
   <trkpt lat="-3.0791740" lon="37.3612210">
    <ele>5768.8</ele>
    <time>2026-06-23T04:04:53Z</time>
   </trkpt>
   <trkpt lat="-3.0791730" lon="37.3612160">
    <ele>5768.9</ele>
    <time>2026-06-23T04:04:54Z</time>
   </trkpt>
   <trkpt lat="-3.0791720" lon="37.3612120">
    <ele>5768.9</ele>
    <time>2026-06-23T04:04:55Z</time>
   </trkpt>
   <trkpt lat="-3.0791720" lon="37.3612050">
    <ele>5769.1</ele>
    <time>2026-06-23T04:04:56Z</time>
   </trkpt>
   <trkpt lat="-3.0791710" lon="37.3612000">
    <ele>5769.1</ele>
    <time>2026-06-23T04:04:57Z</time>
   </trkpt>
   <trkpt lat="-3.0791720" lon="37.3611940">
    <ele>5769.2</ele>
    <time>2026-06-23T04:04:58Z</time>
   </trkpt>
   <trkpt lat="-3.0791710" lon="37.3611880">
    <ele>5769.3</ele>
    <time>2026-06-23T04:04:59Z</time>
   </trkpt>
   <trkpt lat="-3.0791700" lon="37.3611830">
    <ele>5769.4</ele>
    <time>2026-06-23T04:05:00Z</time>
   </trkpt>
   <trkpt lat="-3.0791710" lon="37.3611770">
    <ele>5769.5</ele>
    <time>2026-06-23T04:05:01Z</time>
   </trkpt>
   <trkpt lat="-3.0791720" lon="37.3611700">
    <ele>5769.7</ele>
    <time>2026-06-23T04:05:02Z</time>
   </trkpt>
   <trkpt lat="-3.0791740" lon="37.3611640">
    <ele>5769.8</ele>
    <time>2026-06-23T04:05:03Z</time>
   </trkpt>
   <trkpt lat="-3.0791780" lon="37.3611570">
    <ele>5769.9</ele>
    <time>2026-06-23T04:05:04Z</time>
   </trkpt>
   <trkpt lat="-3.0791820" lon="37.3611520">
    <ele>5770.0</ele>
    <time>2026-06-23T04:05:05Z</time>
   </trkpt>
   <trkpt lat="-3.0791850" lon="37.3611450">
    <ele>5770.1</ele>
    <time>2026-06-23T04:05:06Z</time>
   </trkpt>
   <trkpt lat="-3.0791850" lon="37.3611400">
    <ele>5770.2</ele>
    <time>2026-06-23T04:05:07Z</time>
   </trkpt>
   <trkpt lat="-3.0791860" lon="37.3611320">
    <ele>5770.3</ele>
    <time>2026-06-23T04:05:08Z</time>
   </trkpt>
   <trkpt lat="-3.0791900" lon="37.3611260">
    <ele>5770.4</ele>
    <time>2026-06-23T04:05:09Z</time>
   </trkpt>
   <trkpt lat="-3.0791940" lon="37.3611220">
    <ele>5770.5</ele>
    <time>2026-06-23T04:05:10Z</time>
   </trkpt>
   <trkpt lat="-3.0791990" lon="37.3611170">
    <ele>5770.6</ele>
    <time>2026-06-23T04:05:11Z</time>
   </trkpt>
   <trkpt lat="-3.0791980" lon="37.3611200">
    <ele>5770.7</ele>
    <time>2026-06-23T04:05:12Z</time>
   </trkpt>
   <trkpt lat="-3.0791990" lon="37.3611210">
    <ele>5770.7</ele>
    <time>2026-06-23T04:05:13Z</time>
   </trkpt>
   <trkpt lat="-3.0791990" lon="37.3611230">
    <ele>5770.7</ele>
    <time>2026-06-23T04:05:14Z</time>
   </trkpt>
   <trkpt lat="-3.0792000" lon="37.3611220">
    <ele>5770.8</ele>
    <time>2026-06-23T04:05:15Z</time>
   </trkpt>
   <trkpt lat="-3.0791990" lon="37.3611230">
    <ele>5770.8</ele>
    <time>2026-06-23T04:05:16Z</time>
   </trkpt>
   <trkpt lat="-3.0791990" lon="37.3611230">
    <ele>5770.8</ele>
    <time>2026-06-23T04:05:17Z</time>
   </trkpt>
   <trkpt lat="-3.0791990" lon="37.3611230">
    <ele>5770.8</ele>
    <time>2026-06-23T04:05:18Z</time>
   </trkpt>
   <trkpt lat="-3.0792010" lon="37.3611240">
    <ele>5770.8</ele>
    <time>2026-06-23T04:05:19Z</time>
   </trkpt>
   <trkpt lat="-3.0792010" lon="37.3611240">
    <ele>5770.8</ele>
    <time>2026-06-23T04:05:20Z</time>
   </trkpt>
   <trkpt lat="-3.0792010" lon="37.3611240">
    <ele>5770.8</ele>
    <time>2026-06-23T04:05:21Z</time>
   </trkpt>
   <trkpt lat="-3.0792010" lon="37.3611240">
    <ele>5770.8</ele>
    <time>2026-06-23T04:05:22Z</time>
   </trkpt>
   <trkpt lat="-3.0792010" lon="37.3611240">
    <ele>5770.8</ele>
    <time>2026-06-23T04:05:23Z</time>
   </trkpt>
   <trkpt lat="-3.0792010" lon="37.3611240">
    <ele>5770.8</ele>
    <time>2026-06-23T04:05:24Z</time>
   </trkpt>
   <trkpt lat="-3.0792010" lon="37.3611240">
    <ele>5770.8</ele>
    <time>2026-06-23T04:05:25Z</time>
   </trkpt>
   <trkpt lat="-3.0792010" lon="37.3611240">
    <ele>5770.8</ele>
    <time>2026-06-23T04:05:26Z</time>
   </trkpt>
   <trkpt lat="-3.0792010" lon="37.3611260">
    <ele>5770.8</ele>
    <time>2026-06-23T04:05:27Z</time>
   </trkpt>
   <trkpt lat="-3.0792010" lon="37.3611260">
    <ele>5770.8</ele>
    <time>2026-06-23T04:05:28Z</time>
   </trkpt>
   <trkpt lat="-3.0792010" lon="37.3611270">
    <ele>5770.9</ele>
    <time>2026-06-23T04:05:29Z</time>
   </trkpt>
   <trkpt lat="-3.0792010" lon="37.3611270">
    <ele>5770.9</ele>
    <time>2026-06-23T04:05:30Z</time>
   </trkpt>
   <trkpt lat="-3.0792010" lon="37.3611270">
    <ele>5770.9</ele>
    <time>2026-06-23T04:05:31Z</time>
   </trkpt>
   <trkpt lat="-3.0792010" lon="37.3611270">
    <ele>5770.9</ele>
    <time>2026-06-23T04:05:32Z</time>
   </trkpt>
   <trkpt lat="-3.0792010" lon="37.3611270">
    <ele>5770.9</ele>
    <time>2026-06-23T04:05:33Z</time>
   </trkpt>
   <trkpt lat="-3.0792020" lon="37.3611280">
    <ele>5770.9</ele>
    <time>2026-06-23T04:05:34Z</time>
   </trkpt>
   <trkpt lat="-3.0792020" lon="37.3611280">
    <ele>5770.9</ele>
    <time>2026-06-23T04:05:35Z</time>
   </trkpt>
   <trkpt lat="-3.0792030" lon="37.3611270">
    <ele>5770.9</ele>
    <time>2026-06-23T04:05:36Z</time>
   </trkpt>
   <trkpt lat="-3.0791980" lon="37.3611250">
    <ele>5771.0</ele>
    <time>2026-06-23T04:05:37Z</time>
   </trkpt>
   <trkpt lat="-3.0792080" lon="37.3611190">
    <ele>5771.2</ele>
    <time>2026-06-23T04:05:38Z</time>
   </trkpt>
   <trkpt lat="-3.0792090" lon="37.3611140">
    <ele>5771.2</ele>
    <time>2026-06-23T04:05:39Z</time>
   </trkpt>
   <trkpt lat="-3.0792110" lon="37.3611090">
    <ele>5771.3</ele>
    <time>2026-06-23T04:05:40Z</time>
   </trkpt>
   <trkpt lat="-3.0792130" lon="37.3611050">
    <ele>5771.4</ele>
    <time>2026-06-23T04:05:41Z</time>
   </trkpt>
   <trkpt lat="-3.0792160" lon="37.3610980">
    <ele>5771.5</ele>
    <time>2026-06-23T04:05:42Z</time>
   </trkpt>
   <trkpt lat="-3.0792160" lon="37.3610930">
    <ele>5771.6</ele>
    <time>2026-06-23T04:05:43Z</time>
   </trkpt>
   <trkpt lat="-3.0792150" lon="37.3610870">
    <ele>5771.7</ele>
    <time>2026-06-23T04:05:44Z</time>
   </trkpt>
   <trkpt lat="-3.0792170" lon="37.3610800">
    <ele>5771.8</ele>
    <time>2026-06-23T04:05:45Z</time>
   </trkpt>
   <trkpt lat="-3.0792180" lon="37.3610740">
    <ele>5771.9</ele>
    <time>2026-06-23T04:05:46Z</time>
   </trkpt>
   <trkpt lat="-3.0792180" lon="37.3610680">
    <ele>5771.9</ele>
    <time>2026-06-23T04:05:47Z</time>
   </trkpt>
   <trkpt lat="-3.0792190" lon="37.3610630">
    <ele>5772.0</ele>
    <time>2026-06-23T04:05:48Z</time>
   </trkpt>
   <trkpt lat="-3.0792180" lon="37.3610570">
    <ele>5772.1</ele>
    <time>2026-06-23T04:05:49Z</time>
   </trkpt>
   <trkpt lat="-3.0792180" lon="37.3610500">
    <ele>5772.2</ele>
    <time>2026-06-23T04:05:50Z</time>
   </trkpt>
   <trkpt lat="-3.0792180" lon="37.3610420">
    <ele>5772.3</ele>
    <time>2026-06-23T04:05:51Z</time>
   </trkpt>
   <trkpt lat="-3.0792180" lon="37.3610370">
    <ele>5772.4</ele>
    <time>2026-06-23T04:05:52Z</time>
   </trkpt>
   <trkpt lat="-3.0792180" lon="37.3610290">
    <ele>5772.5</ele>
    <time>2026-06-23T04:05:53Z</time>
   </trkpt>
   <trkpt lat="-3.0792190" lon="37.3610250">
    <ele>5772.5</ele>
    <time>2026-06-23T04:05:54Z</time>
   </trkpt>
   <trkpt lat="-3.0792190" lon="37.3610180">
    <ele>5772.6</ele>
    <time>2026-06-23T04:05:55Z</time>
   </trkpt>
   <trkpt lat="-3.0792200" lon="37.3610130">
    <ele>5772.7</ele>
    <time>2026-06-23T04:05:56Z</time>
   </trkpt>
   <trkpt lat="-3.0792200" lon="37.3610080">
    <ele>5772.7</ele>
    <time>2026-06-23T04:05:57Z</time>
   </trkpt>
   <trkpt lat="-3.0792210" lon="37.3610030">
    <ele>5772.8</ele>
    <time>2026-06-23T04:05:58Z</time>
   </trkpt>
   <trkpt lat="-3.0792220" lon="37.3609960">
    <ele>5772.9</ele>
    <time>2026-06-23T04:05:59Z</time>
   </trkpt>
   <trkpt lat="-3.0792210" lon="37.3609910">
    <ele>5773.0</ele>
    <time>2026-06-23T04:06:00Z</time>
   </trkpt>
   <trkpt lat="-3.0792220" lon="37.3609830">
    <ele>5773.1</ele>
    <time>2026-06-23T04:06:01Z</time>
   </trkpt>
   <trkpt lat="-3.0792220" lon="37.3609770">
    <ele>5773.1</ele>
    <time>2026-06-23T04:06:02Z</time>
   </trkpt>
   <trkpt lat="-3.0792240" lon="37.3609710">
    <ele>5773.2</ele>
    <time>2026-06-23T04:06:03Z</time>
   </trkpt>
   <trkpt lat="-3.0792290" lon="37.3609650">
    <ele>5773.3</ele>
    <time>2026-06-23T04:06:04Z</time>
   </trkpt>
   <trkpt lat="-3.0792320" lon="37.3609600">
    <ele>5773.4</ele>
    <time>2026-06-23T04:06:05Z</time>
   </trkpt>
   <trkpt lat="-3.0792340" lon="37.3609550">
    <ele>5773.4</ele>
    <time>2026-06-23T04:06:06Z</time>
   </trkpt>
   <trkpt lat="-3.0792380" lon="37.3609490">
    <ele>5773.5</ele>
    <time>2026-06-23T04:06:07Z</time>
   </trkpt>
   <trkpt lat="-3.0792390" lon="37.3609430">
    <ele>5773.6</ele>
    <time>2026-06-23T04:06:08Z</time>
   </trkpt>
   <trkpt lat="-3.0792410" lon="37.3609380">
    <ele>5773.7</ele>
    <time>2026-06-23T04:06:09Z</time>
   </trkpt>
   <trkpt lat="-3.0792440" lon="37.3609350">
    <ele>5773.7</ele>
    <time>2026-06-23T04:06:10Z</time>
   </trkpt>
   <trkpt lat="-3.0792480" lon="37.3609330">
    <ele>5773.8</ele>
    <time>2026-06-23T04:06:11Z</time>
   </trkpt>
   <trkpt lat="-3.0792460" lon="37.3609360">
    <ele>5773.8</ele>
    <time>2026-06-23T04:06:12Z</time>
   </trkpt>
   <trkpt lat="-3.0792460" lon="37.3609350">
    <ele>5773.8</ele>
    <time>2026-06-23T04:06:13Z</time>
   </trkpt>
   <trkpt lat="-3.0792490" lon="37.3609320">
    <ele>5773.9</ele>
    <time>2026-06-23T04:06:14Z</time>
   </trkpt>
   <trkpt lat="-3.0792490" lon="37.3609310">
    <ele>5773.9</ele>
    <time>2026-06-23T04:06:15Z</time>
   </trkpt>
   <trkpt lat="-3.0792470" lon="37.3609310">
    <ele>5773.9</ele>
    <time>2026-06-23T04:06:16Z</time>
   </trkpt>
   <trkpt lat="-3.0792460" lon="37.3609310">
    <ele>5773.9</ele>
    <time>2026-06-23T04:06:17Z</time>
   </trkpt>
   <trkpt lat="-3.0792470" lon="37.3609310">
    <ele>5774.0</ele>
    <time>2026-06-23T04:06:18Z</time>
   </trkpt>
   <trkpt lat="-3.0792460" lon="37.3609300">
    <ele>5774.0</ele>
    <time>2026-06-23T04:06:19Z</time>
   </trkpt>
   <trkpt lat="-3.0792440" lon="37.3609320">
    <ele>5774.0</ele>
    <time>2026-06-23T04:06:20Z</time>
   </trkpt>
   <trkpt lat="-3.0792470" lon="37.3609320">
    <ele>5774.0</ele>
    <time>2026-06-23T04:06:21Z</time>
   </trkpt>
   <trkpt lat="-3.0792470" lon="37.3609310">
    <ele>5774.1</ele>
    <time>2026-06-23T04:06:22Z</time>
   </trkpt>
   <trkpt lat="-3.0792490" lon="37.3609300">
    <ele>5774.1</ele>
    <time>2026-06-23T04:06:23Z</time>
   </trkpt>
   <trkpt lat="-3.0792510" lon="37.3609290">
    <ele>5774.1</ele>
    <time>2026-06-23T04:06:24Z</time>
   </trkpt>
   <trkpt lat="-3.0792540" lon="37.3609260">
    <ele>5774.2</ele>
    <time>2026-06-23T04:06:25Z</time>
   </trkpt>
   <trkpt lat="-3.0792590" lon="37.3609220">
    <ele>5774.2</ele>
    <time>2026-06-23T04:06:26Z</time>
   </trkpt>
   <trkpt lat="-3.0792650" lon="37.3609200">
    <ele>5774.3</ele>
    <time>2026-06-23T04:06:27Z</time>
   </trkpt>
   <trkpt lat="-3.0792690" lon="37.3609130">
    <ele>5774.4</ele>
    <time>2026-06-23T04:06:28Z</time>
   </trkpt>
   <trkpt lat="-3.0792720" lon="37.3609110">
    <ele>5774.5</ele>
    <time>2026-06-23T04:06:29Z</time>
   </trkpt>
   <trkpt lat="-3.0792770" lon="37.3609110">
    <ele>5774.5</ele>
    <time>2026-06-23T04:06:30Z</time>
   </trkpt>
   <trkpt lat="-3.0792830" lon="37.3609060">
    <ele>5774.6</ele>
    <time>2026-06-23T04:06:31Z</time>
   </trkpt>
   <trkpt lat="-3.0792870" lon="37.3609010">
    <ele>5774.7</ele>
    <time>2026-06-23T04:06:32Z</time>
   </trkpt>
   <trkpt lat="-3.0792900" lon="37.3608950">
    <ele>5774.8</ele>
    <time>2026-06-23T04:06:33Z</time>
   </trkpt>
   <trkpt lat="-3.0792930" lon="37.3608890">
    <ele>5774.9</ele>
    <time>2026-06-23T04:06:34Z</time>
   </trkpt>
   <trkpt lat="-3.0792960" lon="37.3608830">
    <ele>5775.0</ele>
    <time>2026-06-23T04:06:35Z</time>
   </trkpt>
   <trkpt lat="-3.0792980" lon="37.3608750">
    <ele>5775.1</ele>
    <time>2026-06-23T04:06:36Z</time>
   </trkpt>
   <trkpt lat="-3.0793010" lon="37.3608690">
    <ele>5775.2</ele>
    <time>2026-06-23T04:06:37Z</time>
   </trkpt>
   <trkpt lat="-3.0793020" lon="37.3608650">
    <ele>5775.2</ele>
    <time>2026-06-23T04:06:38Z</time>
   </trkpt>
   <trkpt lat="-3.0793050" lon="37.3608580">
    <ele>5775.3</ele>
    <time>2026-06-23T04:06:39Z</time>
   </trkpt>
   <trkpt lat="-3.0793060" lon="37.3608520">
    <ele>5775.4</ele>
    <time>2026-06-23T04:06:40Z</time>
   </trkpt>
   <trkpt lat="-3.0793070" lon="37.3608450">
    <ele>5775.5</ele>
    <time>2026-06-23T04:06:41Z</time>
   </trkpt>
   <trkpt lat="-3.0793090" lon="37.3608400">
    <ele>5775.6</ele>
    <time>2026-06-23T04:06:42Z</time>
   </trkpt>
   <trkpt lat="-3.0793110" lon="37.3608270">
    <ele>5775.8</ele>
    <time>2026-06-23T04:06:43Z</time>
   </trkpt>
   <trkpt lat="-3.0793120" lon="37.3608280">
    <ele>5775.9</ele>
    <time>2026-06-23T04:06:44Z</time>
   </trkpt>
   <trkpt lat="-3.0793160" lon="37.3608200">
    <ele>5776.0</ele>
    <time>2026-06-23T04:06:45Z</time>
   </trkpt>
   <trkpt lat="-3.0793160" lon="37.3608140">
    <ele>5776.1</ele>
    <time>2026-06-23T04:06:46Z</time>
   </trkpt>
   <trkpt lat="-3.0793160" lon="37.3608080">
    <ele>5776.2</ele>
    <time>2026-06-23T04:06:47Z</time>
   </trkpt>
   <trkpt lat="-3.0793180" lon="37.3608010">
    <ele>5776.3</ele>
    <time>2026-06-23T04:06:48Z</time>
   </trkpt>
   <trkpt lat="-3.0793180" lon="37.3607950">
    <ele>5776.4</ele>
    <time>2026-06-23T04:06:49Z</time>
   </trkpt>
   <trkpt lat="-3.0793190" lon="37.3607820">
    <ele>5776.6</ele>
    <time>2026-06-23T04:06:50Z</time>
   </trkpt>
   <trkpt lat="-3.0793180" lon="37.3607810">
    <ele>5776.6</ele>
    <time>2026-06-23T04:06:51Z</time>
   </trkpt>
   <trkpt lat="-3.0793190" lon="37.3607740">
    <ele>5776.8</ele>
    <time>2026-06-23T04:06:52Z</time>
   </trkpt>
   <trkpt lat="-3.0793180" lon="37.3607720">
    <ele>5776.8</ele>
    <time>2026-06-23T04:06:53Z</time>
   </trkpt>
   <trkpt lat="-3.0793210" lon="37.3607640">
    <ele>5776.9</ele>
    <time>2026-06-23T04:06:54Z</time>
   </trkpt>
   <trkpt lat="-3.0793190" lon="37.3607620">
    <ele>5777.0</ele>
    <time>2026-06-23T04:06:55Z</time>
   </trkpt>
   <trkpt lat="-3.0793170" lon="37.3607580">
    <ele>5777.1</ele>
    <time>2026-06-23T04:06:56Z</time>
   </trkpt>
   <trkpt lat="-3.0793150" lon="37.3607510">
    <ele>5777.2</ele>
    <time>2026-06-23T04:06:57Z</time>
   </trkpt>
   <trkpt lat="-3.0793160" lon="37.3607490">
    <ele>5777.2</ele>
    <time>2026-06-23T04:06:58Z</time>
   </trkpt>
   <trkpt lat="-3.0793220" lon="37.3607460">
    <ele>5777.4</ele>
    <time>2026-06-23T04:06:59Z</time>
   </trkpt>
   <trkpt lat="-3.0793290" lon="37.3607460">
    <ele>5777.5</ele>
    <time>2026-06-23T04:07:00Z</time>
   </trkpt>
   <trkpt lat="-3.0793350" lon="37.3607460">
    <ele>5777.6</ele>
    <time>2026-06-23T04:07:01Z</time>
   </trkpt>
   <trkpt lat="-3.0793320" lon="37.3607480">
    <ele>5777.7</ele>
    <time>2026-06-23T04:07:02Z</time>
   </trkpt>
   <trkpt lat="-3.0793300" lon="37.3607480">
    <ele>5777.7</ele>
    <time>2026-06-23T04:07:03Z</time>
   </trkpt>
   <trkpt lat="-3.0793290" lon="37.3607470">
    <ele>5777.7</ele>
    <time>2026-06-23T04:07:04Z</time>
   </trkpt>
   <trkpt lat="-3.0793290" lon="37.3607470">
    <ele>5777.7</ele>
    <time>2026-06-23T04:07:05Z</time>
   </trkpt>
   <trkpt lat="-3.0793270" lon="37.3607460">
    <ele>5777.8</ele>
    <time>2026-06-23T04:07:06Z</time>
   </trkpt>
   <trkpt lat="-3.0793260" lon="37.3607450">
    <ele>5777.8</ele>
    <time>2026-06-23T04:07:07Z</time>
   </trkpt>
   <trkpt lat="-3.0793240" lon="37.3607450">
    <ele>5777.8</ele>
    <time>2026-06-23T04:07:08Z</time>
   </trkpt>
   <trkpt lat="-3.0793240" lon="37.3607460">
    <ele>5777.8</ele>
    <time>2026-06-23T04:07:09Z</time>
   </trkpt>
   <trkpt lat="-3.0793230" lon="37.3607470">
    <ele>5777.9</ele>
    <time>2026-06-23T04:07:10Z</time>
   </trkpt>
   <trkpt lat="-3.0793230" lon="37.3607480">
    <ele>5777.9</ele>
    <time>2026-06-23T04:07:11Z</time>
   </trkpt>
   <trkpt lat="-3.0793220" lon="37.3607490">
    <ele>5777.9</ele>
    <time>2026-06-23T04:07:12Z</time>
   </trkpt>
   <trkpt lat="-3.0793210" lon="37.3607480">
    <ele>5777.9</ele>
    <time>2026-06-23T04:07:13Z</time>
   </trkpt>
   <trkpt lat="-3.0793230" lon="37.3607500">
    <ele>5778.0</ele>
    <time>2026-06-23T04:07:14Z</time>
   </trkpt>
   <trkpt lat="-3.0793260" lon="37.3607530">
    <ele>5778.1</ele>
    <time>2026-06-23T04:07:15Z</time>
   </trkpt>
   <trkpt lat="-3.0793260" lon="37.3607540">
    <ele>5778.1</ele>
    <time>2026-06-23T04:07:16Z</time>
   </trkpt>
   <trkpt lat="-3.0793240" lon="37.3607520">
    <ele>5778.1</ele>
    <time>2026-06-23T04:07:17Z</time>
   </trkpt>
   <trkpt lat="-3.0793240" lon="37.3607510">
    <ele>5778.2</ele>
    <time>2026-06-23T04:07:18Z</time>
   </trkpt>
   <trkpt lat="-3.0793250" lon="37.3607510">
    <ele>5778.2</ele>
    <time>2026-06-23T04:07:19Z</time>
   </trkpt>
   <trkpt lat="-3.0793250" lon="37.3607510">
    <ele>5778.2</ele>
    <time>2026-06-23T04:07:20Z</time>
   </trkpt>
   <trkpt lat="-3.0793250" lon="37.3607510">
    <ele>5778.2</ele>
    <time>2026-06-23T04:07:21Z</time>
   </trkpt>
   <trkpt lat="-3.0793250" lon="37.3607500">
    <ele>5778.2</ele>
    <time>2026-06-23T04:07:22Z</time>
   </trkpt>
   <trkpt lat="-3.0793250" lon="37.3607440">
    <ele>5778.3</ele>
    <time>2026-06-23T04:07:23Z</time>
   </trkpt>
   <trkpt lat="-3.0793270" lon="37.3607370">
    <ele>5778.4</ele>
    <time>2026-06-23T04:07:24Z</time>
   </trkpt>
   <trkpt lat="-3.0793250" lon="37.3607340">
    <ele>5778.5</ele>
    <time>2026-06-23T04:07:25Z</time>
   </trkpt>
   <trkpt lat="-3.0793230" lon="37.3607280">
    <ele>5778.6</ele>
    <time>2026-06-23T04:07:26Z</time>
   </trkpt>
   <trkpt lat="-3.0793220" lon="37.3607240">
    <ele>5778.7</ele>
    <time>2026-06-23T04:07:27Z</time>
   </trkpt>
   <trkpt lat="-3.0793210" lon="37.3607190">
    <ele>5778.8</ele>
    <time>2026-06-23T04:07:28Z</time>
   </trkpt>
   <trkpt lat="-3.0793240" lon="37.3607130">
    <ele>5778.9</ele>
    <time>2026-06-23T04:07:29Z</time>
   </trkpt>
   <trkpt lat="-3.0793240" lon="37.3607060">
    <ele>5779.0</ele>
    <time>2026-06-23T04:07:30Z</time>
   </trkpt>
   <trkpt lat="-3.0793270" lon="37.3607010">
    <ele>5779.1</ele>
    <time>2026-06-23T04:07:31Z</time>
   </trkpt>
   <trkpt lat="-3.0793250" lon="37.3606930">
    <ele>5779.3</ele>
    <time>2026-06-23T04:07:32Z</time>
   </trkpt>
   <trkpt lat="-3.0793240" lon="37.3606930">
    <ele>5779.3</ele>
    <time>2026-06-23T04:07:33Z</time>
   </trkpt>
   <trkpt lat="-3.0793260" lon="37.3606830">
    <ele>5779.5</ele>
    <time>2026-06-23T04:07:34Z</time>
   </trkpt>
   <trkpt lat="-3.0793200" lon="37.3606750">
    <ele>5779.7</ele>
    <time>2026-06-23T04:07:35Z</time>
   </trkpt>
   <trkpt lat="-3.0793180" lon="37.3606750">
    <ele>5779.7</ele>
    <time>2026-06-23T04:07:37Z</time>
   </trkpt>
   <trkpt lat="-3.0793160" lon="37.3606770">
    <ele>5779.8</ele>
    <time>2026-06-23T04:07:38Z</time>
   </trkpt>
   <trkpt lat="-3.0793140" lon="37.3606730">
    <ele>5779.8</ele>
    <time>2026-06-23T04:07:39Z</time>
   </trkpt>
   <trkpt lat="-3.0793100" lon="37.3606680">
    <ele>5779.9</ele>
    <time>2026-06-23T04:07:40Z</time>
   </trkpt>
   <trkpt lat="-3.0793070" lon="37.3606650">
    <ele>5780.0</ele>
    <time>2026-06-23T04:07:41Z</time>
   </trkpt>
   <trkpt lat="-3.0793030" lon="37.3606610">
    <ele>5780.1</ele>
    <time>2026-06-23T04:07:42Z</time>
   </trkpt>
   <trkpt lat="-3.0792970" lon="37.3606580">
    <ele>5780.2</ele>
    <time>2026-06-23T04:07:43Z</time>
   </trkpt>
   <trkpt lat="-3.0792910" lon="37.3606550">
    <ele>5780.3</ele>
    <time>2026-06-23T04:07:44Z</time>
   </trkpt>
   <trkpt lat="-3.0792860" lon="37.3606530">
    <ele>5780.4</ele>
    <time>2026-06-23T04:07:45Z</time>
   </trkpt>
   <trkpt lat="-3.0792790" lon="37.3606480">
    <ele>5780.6</ele>
    <time>2026-06-23T04:07:46Z</time>
   </trkpt>
   <trkpt lat="-3.0792790" lon="37.3606450">
    <ele>5780.6</ele>
    <time>2026-06-23T04:07:47Z</time>
   </trkpt>
   <trkpt lat="-3.0792770" lon="37.3606400">
    <ele>5780.7</ele>
    <time>2026-06-23T04:07:48Z</time>
   </trkpt>
   <trkpt lat="-3.0792760" lon="37.3606340">
    <ele>5780.8</ele>
    <time>2026-06-23T04:07:49Z</time>
   </trkpt>
   <trkpt lat="-3.0792760" lon="37.3606280">
    <ele>5780.9</ele>
    <time>2026-06-23T04:07:50Z</time>
   </trkpt>
   <trkpt lat="-3.0792750" lon="37.3606240">
    <ele>5781.0</ele>
    <time>2026-06-23T04:07:51Z</time>
   </trkpt>
   <trkpt lat="-3.0792770" lon="37.3606210">
    <ele>5781.0</ele>
    <time>2026-06-23T04:07:52Z</time>
   </trkpt>
   <trkpt lat="-3.0792770" lon="37.3606150">
    <ele>5781.1</ele>
    <time>2026-06-23T04:07:53Z</time>
   </trkpt>
   <trkpt lat="-3.0792760" lon="37.3606090">
    <ele>5781.2</ele>
    <time>2026-06-23T04:07:54Z</time>
   </trkpt>
   <trkpt lat="-3.0792740" lon="37.3606040">
    <ele>5781.3</ele>
    <time>2026-06-23T04:07:55Z</time>
   </trkpt>
   <trkpt lat="-3.0792680" lon="37.3605920">
    <ele>5781.5</ele>
    <time>2026-06-23T04:07:56Z</time>
   </trkpt>
   <trkpt lat="-3.0792680" lon="37.3605890">
    <ele>5781.6</ele>
    <time>2026-06-23T04:07:57Z</time>
   </trkpt>
   <trkpt lat="-3.0792660" lon="37.3605820">
    <ele>5781.7</ele>
    <time>2026-06-23T04:07:58Z</time>
   </trkpt>
   <trkpt lat="-3.0792630" lon="37.3605770">
    <ele>5781.8</ele>
    <time>2026-06-23T04:07:59Z</time>
   </trkpt>
   <trkpt lat="-3.0792610" lon="37.3605730">
    <ele>5781.9</ele>
    <time>2026-06-23T04:08:00Z</time>
   </trkpt>
   <trkpt lat="-3.0792600" lon="37.3605640">
    <ele>5782.0</ele>
    <time>2026-06-23T04:08:01Z</time>
   </trkpt>
   <trkpt lat="-3.0792620" lon="37.3605600">
    <ele>5782.1</ele>
    <time>2026-06-23T04:08:02Z</time>
   </trkpt>
   <trkpt lat="-3.0792630" lon="37.3605520">
    <ele>5782.2</ele>
    <time>2026-06-23T04:08:03Z</time>
   </trkpt>
   <trkpt lat="-3.0792630" lon="37.3605480">
    <ele>5782.3</ele>
    <time>2026-06-23T04:08:04Z</time>
   </trkpt>
   <trkpt lat="-3.0792650" lon="37.3605430">
    <ele>5782.4</ele>
    <time>2026-06-23T04:08:05Z</time>
   </trkpt>
   <trkpt lat="-3.0792670" lon="37.3605410">
    <ele>5782.4</ele>
    <time>2026-06-23T04:08:06Z</time>
   </trkpt>
   <trkpt lat="-3.0792660" lon="37.3605400">
    <ele>5782.4</ele>
    <time>2026-06-23T04:08:07Z</time>
   </trkpt>
   <trkpt lat="-3.0792690" lon="37.3605340">
    <ele>5782.6</ele>
    <time>2026-06-23T04:08:08Z</time>
   </trkpt>
   <trkpt lat="-3.0792690" lon="37.3605290">
    <ele>5782.6</ele>
    <time>2026-06-23T04:08:09Z</time>
   </trkpt>
   <trkpt lat="-3.0792710" lon="37.3605260">
    <ele>5782.7</ele>
    <time>2026-06-23T04:08:10Z</time>
   </trkpt>
   <trkpt lat="-3.0792750" lon="37.3605230">
    <ele>5782.8</ele>
    <time>2026-06-23T04:08:11Z</time>
   </trkpt>
   <trkpt lat="-3.0792780" lon="37.3605200">
    <ele>5782.8</ele>
    <time>2026-06-23T04:08:12Z</time>
   </trkpt>
   <trkpt lat="-3.0792820" lon="37.3605170">
    <ele>5782.9</ele>
    <time>2026-06-23T04:08:13Z</time>
   </trkpt>
   <trkpt lat="-3.0792860" lon="37.3605150">
    <ele>5783.0</ele>
    <time>2026-06-23T04:08:14Z</time>
   </trkpt>
   <trkpt lat="-3.0792880" lon="37.3605110">
    <ele>5783.1</ele>
    <time>2026-06-23T04:08:15Z</time>
   </trkpt>
   <trkpt lat="-3.0792910" lon="37.3605080">
    <ele>5783.1</ele>
    <time>2026-06-23T04:08:16Z</time>
   </trkpt>
   <trkpt lat="-3.0792930" lon="37.3605040">
    <ele>5783.2</ele>
    <time>2026-06-23T04:08:17Z</time>
   </trkpt>
   <trkpt lat="-3.0792950" lon="37.3605040">
    <ele>5783.2</ele>
    <time>2026-06-23T04:08:18Z</time>
   </trkpt>
   <trkpt lat="-3.0792950" lon="37.3605030">
    <ele>5783.3</ele>
    <time>2026-06-23T04:08:19Z</time>
   </trkpt>
   <trkpt lat="-3.0792940" lon="37.3605040">
    <ele>5783.3</ele>
    <time>2026-06-23T04:08:20Z</time>
   </trkpt>
   <trkpt lat="-3.0792950" lon="37.3605030">
    <ele>5783.3</ele>
    <time>2026-06-23T04:08:21Z</time>
   </trkpt>
   <trkpt lat="-3.0792950" lon="37.3605030">
    <ele>5783.3</ele>
    <time>2026-06-23T04:08:22Z</time>
   </trkpt>
   <trkpt lat="-3.0792950" lon="37.3605030">
    <ele>5783.3</ele>
    <time>2026-06-23T04:08:23Z</time>
   </trkpt>
   <trkpt lat="-3.0792970" lon="37.3605010">
    <ele>5783.3</ele>
    <time>2026-06-23T04:08:24Z</time>
   </trkpt>
   <trkpt lat="-3.0793000" lon="37.3604960">
    <ele>5783.4</ele>
    <time>2026-06-23T04:08:25Z</time>
   </trkpt>
   <trkpt lat="-3.0793010" lon="37.3604910">
    <ele>5783.5</ele>
    <time>2026-06-23T04:08:26Z</time>
   </trkpt>
   <trkpt lat="-3.0793000" lon="37.3604880">
    <ele>5783.6</ele>
    <time>2026-06-23T04:08:27Z</time>
   </trkpt>
   <trkpt lat="-3.0793000" lon="37.3604810">
    <ele>5783.7</ele>
    <time>2026-06-23T04:08:28Z</time>
   </trkpt>
   <trkpt lat="-3.0793000" lon="37.3604730">
    <ele>5783.8</ele>
    <time>2026-06-23T04:08:29Z</time>
   </trkpt>
   <trkpt lat="-3.0792990" lon="37.3604680">
    <ele>5783.9</ele>
    <time>2026-06-23T04:08:30Z</time>
   </trkpt>
   <trkpt lat="-3.0793010" lon="37.3604650">
    <ele>5783.9</ele>
    <time>2026-06-23T04:08:31Z</time>
   </trkpt>
   <trkpt lat="-3.0793030" lon="37.3604600">
    <ele>5784.0</ele>
    <time>2026-06-23T04:08:32Z</time>
   </trkpt>
   <trkpt lat="-3.0793020" lon="37.3604550">
    <ele>5784.1</ele>
    <time>2026-06-23T04:08:33Z</time>
   </trkpt>
   <trkpt lat="-3.0793010" lon="37.3604500">
    <ele>5784.2</ele>
    <time>2026-06-23T04:08:34Z</time>
   </trkpt>
   <trkpt lat="-3.0793000" lon="37.3604500">
    <ele>5784.2</ele>
    <time>2026-06-23T04:08:35Z</time>
   </trkpt>
   <trkpt lat="-3.0793010" lon="37.3604510">
    <ele>5784.2</ele>
    <time>2026-06-23T04:08:36Z</time>
   </trkpt>
   <trkpt lat="-3.0793010" lon="37.3604520">
    <ele>5784.2</ele>
    <time>2026-06-23T04:08:37Z</time>
   </trkpt>
   <trkpt lat="-3.0793010" lon="37.3604520">
    <ele>5784.2</ele>
    <time>2026-06-23T04:08:38Z</time>
   </trkpt>
   <trkpt lat="-3.0792980" lon="37.3604460">
    <ele>5784.3</ele>
    <time>2026-06-23T04:08:39Z</time>
   </trkpt>
   <trkpt lat="-3.0792970" lon="37.3604420">
    <ele>5784.4</ele>
    <time>2026-06-23T04:08:40Z</time>
   </trkpt>
   <trkpt lat="-3.0792950" lon="37.3604380">
    <ele>5784.4</ele>
    <time>2026-06-23T04:08:41Z</time>
   </trkpt>
   <trkpt lat="-3.0792930" lon="37.3604320">
    <ele>5784.5</ele>
    <time>2026-06-23T04:08:42Z</time>
   </trkpt>
   <trkpt lat="-3.0792940" lon="37.3604280">
    <ele>5784.6</ele>
    <time>2026-06-23T04:08:43Z</time>
   </trkpt>
   <trkpt lat="-3.0792940" lon="37.3604220">
    <ele>5784.7</ele>
    <time>2026-06-23T04:08:44Z</time>
   </trkpt>
   <trkpt lat="-3.0792950" lon="37.3604190">
    <ele>5784.8</ele>
    <time>2026-06-23T04:08:45Z</time>
   </trkpt>
   <trkpt lat="-3.0792960" lon="37.3604250">
    <ele>5784.8</ele>
    <time>2026-06-23T04:08:46Z</time>
   </trkpt>
   <trkpt lat="-3.0792960" lon="37.3604260">
    <ele>5784.9</ele>
    <time>2026-06-23T04:08:47Z</time>
   </trkpt>
   <trkpt lat="-3.0792960" lon="37.3604260">
    <ele>5784.9</ele>
    <time>2026-06-23T04:08:48Z</time>
   </trkpt>
   <trkpt lat="-3.0792960" lon="37.3604250">
    <ele>5784.9</ele>
    <time>2026-06-23T04:08:49Z</time>
   </trkpt>
   <trkpt lat="-3.0792960" lon="37.3604250">
    <ele>5784.9</ele>
    <time>2026-06-23T04:08:50Z</time>
   </trkpt>
   <trkpt lat="-3.0792970" lon="37.3604250">
    <ele>5784.9</ele>
    <time>2026-06-23T04:08:51Z</time>
   </trkpt>
   <trkpt lat="-3.0792980" lon="37.3604180">
    <ele>5785.0</ele>
    <time>2026-06-23T04:08:52Z</time>
   </trkpt>
   <trkpt lat="-3.0793020" lon="37.3604130">
    <ele>5785.1</ele>
    <time>2026-06-23T04:08:53Z</time>
   </trkpt>
   <trkpt lat="-3.0793000" lon="37.3604090">
    <ele>5785.1</ele>
    <time>2026-06-23T04:08:54Z</time>
   </trkpt>
   <trkpt lat="-3.0793020" lon="37.3604030">
    <ele>5785.2</ele>
    <time>2026-06-23T04:08:55Z</time>
   </trkpt>
   <trkpt lat="-3.0793040" lon="37.3603990">
    <ele>5785.3</ele>
    <time>2026-06-23T04:08:56Z</time>
   </trkpt>
   <trkpt lat="-3.0793060" lon="37.3603940">
    <ele>5785.4</ele>
    <time>2026-06-23T04:08:57Z</time>
   </trkpt>
   <trkpt lat="-3.0793080" lon="37.3603920">
    <ele>5785.4</ele>
    <time>2026-06-23T04:08:58Z</time>
   </trkpt>
   <trkpt lat="-3.0793110" lon="37.3603890">
    <ele>5785.5</ele>
    <time>2026-06-23T04:08:59Z</time>
   </trkpt>
   <trkpt lat="-3.0793160" lon="37.3603860">
    <ele>5785.6</ele>
    <time>2026-06-23T04:09:00Z</time>
   </trkpt>
   <trkpt lat="-3.0793200" lon="37.3603850">
    <ele>5785.6</ele>
    <time>2026-06-23T04:09:01Z</time>
   </trkpt>
   <trkpt lat="-3.0793240" lon="37.3603850">
    <ele>5785.7</ele>
    <time>2026-06-23T04:09:02Z</time>
   </trkpt>
   <trkpt lat="-3.0793290" lon="37.3603860">
    <ele>5785.7</ele>
    <time>2026-06-23T04:09:03Z</time>
   </trkpt>
   <trkpt lat="-3.0793340" lon="37.3603860">
    <ele>5785.8</ele>
    <time>2026-06-23T04:09:04Z</time>
   </trkpt>
   <trkpt lat="-3.0793370" lon="37.3603850">
    <ele>5785.8</ele>
    <time>2026-06-23T04:09:05Z</time>
   </trkpt>
   <trkpt lat="-3.0793390" lon="37.3603820">
    <ele>5785.9</ele>
    <time>2026-06-23T04:09:06Z</time>
   </trkpt>
   <trkpt lat="-3.0793400" lon="37.3603790">
    <ele>5785.9</ele>
    <time>2026-06-23T04:09:07Z</time>
   </trkpt>
   <trkpt lat="-3.0793420" lon="37.3603760">
    <ele>5786.0</ele>
    <time>2026-06-23T04:09:08Z</time>
   </trkpt>
   <trkpt lat="-3.0793440" lon="37.3603730">
    <ele>5786.0</ele>
    <time>2026-06-23T04:09:09Z</time>
   </trkpt>
   <trkpt lat="-3.0793450" lon="37.3603690">
    <ele>5786.1</ele>
    <time>2026-06-23T04:09:10Z</time>
   </trkpt>
   <trkpt lat="-3.0793460" lon="37.3603640">
    <ele>5786.1</ele>
    <time>2026-06-23T04:09:11Z</time>
   </trkpt>
   <trkpt lat="-3.0793480" lon="37.3603610">
    <ele>5786.2</ele>
    <time>2026-06-23T04:09:12Z</time>
   </trkpt>
   <trkpt lat="-3.0793490" lon="37.3603570">
    <ele>5786.2</ele>
    <time>2026-06-23T04:09:13Z</time>
   </trkpt>
   <trkpt lat="-3.0793520" lon="37.3603530">
    <ele>5786.3</ele>
    <time>2026-06-23T04:09:14Z</time>
   </trkpt>
   <trkpt lat="-3.0793520" lon="37.3603480">
    <ele>5786.4</ele>
    <time>2026-06-23T04:09:15Z</time>
   </trkpt>
   <trkpt lat="-3.0793540" lon="37.3603440">
    <ele>5786.4</ele>
    <time>2026-06-23T04:09:16Z</time>
   </trkpt>
   <trkpt lat="-3.0793560" lon="37.3603400">
    <ele>5786.5</ele>
    <time>2026-06-23T04:09:17Z</time>
   </trkpt>
   <trkpt lat="-3.0793580" lon="37.3603370">
    <ele>5786.5</ele>
    <time>2026-06-23T04:09:18Z</time>
   </trkpt>
   <trkpt lat="-3.0793610" lon="37.3603340">
    <ele>5786.6</ele>
    <time>2026-06-23T04:09:19Z</time>
   </trkpt>
   <trkpt lat="-3.0793630" lon="37.3603320">
    <ele>5786.6</ele>
    <time>2026-06-23T04:09:20Z</time>
   </trkpt>
   <trkpt lat="-3.0793670" lon="37.3603300">
    <ele>5786.7</ele>
    <time>2026-06-23T04:09:21Z</time>
   </trkpt>
   <trkpt lat="-3.0793700" lon="37.3603260">
    <ele>5786.7</ele>
    <time>2026-06-23T04:09:22Z</time>
   </trkpt>
   <trkpt lat="-3.0793720" lon="37.3603220">
    <ele>5786.8</ele>
    <time>2026-06-23T04:09:23Z</time>
   </trkpt>
   <trkpt lat="-3.0793740" lon="37.3603180">
    <ele>5786.8</ele>
    <time>2026-06-23T04:09:24Z</time>
   </trkpt>
   <trkpt lat="-3.0793770" lon="37.3603130">
    <ele>5786.9</ele>
    <time>2026-06-23T04:09:25Z</time>
   </trkpt>
   <trkpt lat="-3.0793800" lon="37.3603110">
    <ele>5786.9</ele>
    <time>2026-06-23T04:09:26Z</time>
   </trkpt>
   <trkpt lat="-3.0793830" lon="37.3603050">
    <ele>5787.0</ele>
    <time>2026-06-23T04:09:27Z</time>
   </trkpt>
   <trkpt lat="-3.0793840" lon="37.3603010">
    <ele>5787.0</ele>
    <time>2026-06-23T04:09:28Z</time>
   </trkpt>
   <trkpt lat="-3.0793870" lon="37.3602980">
    <ele>5787.1</ele>
    <time>2026-06-23T04:09:29Z</time>
   </trkpt>
   <trkpt lat="-3.0793890" lon="37.3602940">
    <ele>5787.1</ele>
    <time>2026-06-23T04:09:30Z</time>
   </trkpt>
   <trkpt lat="-3.0793900" lon="37.3602910">
    <ele>5787.2</ele>
    <time>2026-06-23T04:09:31Z</time>
   </trkpt>
   <trkpt lat="-3.0793920" lon="37.3602870">
    <ele>5787.2</ele>
    <time>2026-06-23T04:09:32Z</time>
   </trkpt>
   <trkpt lat="-3.0793960" lon="37.3602830">
    <ele>5787.3</ele>
    <time>2026-06-23T04:09:33Z</time>
   </trkpt>
   <trkpt lat="-3.0793990" lon="37.3602800">
    <ele>5787.3</ele>
    <time>2026-06-23T04:09:34Z</time>
   </trkpt>
   <trkpt lat="-3.0794000" lon="37.3602760">
    <ele>5787.3</ele>
    <time>2026-06-23T04:09:35Z</time>
   </trkpt>
   <trkpt lat="-3.0794030" lon="37.3602710">
    <ele>5787.4</ele>
    <time>2026-06-23T04:09:36Z</time>
   </trkpt>
   <trkpt lat="-3.0794050" lon="37.3602640">
    <ele>5787.5</ele>
    <time>2026-06-23T04:09:37Z</time>
   </trkpt>
   <trkpt lat="-3.0794060" lon="37.3602590">
    <ele>5787.5</ele>
    <time>2026-06-23T04:09:38Z</time>
   </trkpt>
   <trkpt lat="-3.0794070" lon="37.3602540">
    <ele>5787.6</ele>
    <time>2026-06-23T04:09:39Z</time>
   </trkpt>
   <trkpt lat="-3.0794080" lon="37.3602480">
    <ele>5787.7</ele>
    <time>2026-06-23T04:09:40Z</time>
   </trkpt>
   <trkpt lat="-3.0794090" lon="37.3602420">
    <ele>5787.7</ele>
    <time>2026-06-23T04:09:41Z</time>
   </trkpt>
   <trkpt lat="-3.0794090" lon="37.3602360">
    <ele>5787.8</ele>
    <time>2026-06-23T04:09:43Z</time>
   </trkpt>
   <trkpt lat="-3.0794090" lon="37.3602310">
    <ele>5787.8</ele>
    <time>2026-06-23T04:09:44Z</time>
   </trkpt>
   <trkpt lat="-3.0794100" lon="37.3602260">
    <ele>5787.9</ele>
    <time>2026-06-23T04:09:45Z</time>
   </trkpt>
   <trkpt lat="-3.0794110" lon="37.3602200">
    <ele>5787.9</ele>
    <time>2026-06-23T04:09:46Z</time>
   </trkpt>
   <trkpt lat="-3.0794120" lon="37.3602160">
    <ele>5788.0</ele>
    <time>2026-06-23T04:09:47Z</time>
   </trkpt>
   <trkpt lat="-3.0794120" lon="37.3602100">
    <ele>5788.0</ele>
    <time>2026-06-23T04:09:48Z</time>
   </trkpt>
   <trkpt lat="-3.0794120" lon="37.3602060">
    <ele>5788.1</ele>
    <time>2026-06-23T04:09:49Z</time>
   </trkpt>
   <trkpt lat="-3.0794140" lon="37.3601990">
    <ele>5788.2</ele>
    <time>2026-06-23T04:09:50Z</time>
   </trkpt>
   <trkpt lat="-3.0794170" lon="37.3601880">
    <ele>5788.3</ele>
    <time>2026-06-23T04:09:51Z</time>
   </trkpt>
   <trkpt lat="-3.0794200" lon="37.3601820">
    <ele>5788.3</ele>
    <time>2026-06-23T04:09:52Z</time>
   </trkpt>
   <trkpt lat="-3.0794220" lon="37.3601770">
    <ele>5788.4</ele>
    <time>2026-06-23T04:09:53Z</time>
   </trkpt>
   <trkpt lat="-3.0794240" lon="37.3601700">
    <ele>5788.5</ele>
    <time>2026-06-23T04:09:54Z</time>
   </trkpt>
   <trkpt lat="-3.0794250" lon="37.3601630">
    <ele>5788.6</ele>
    <time>2026-06-23T04:09:55Z</time>
   </trkpt>
   <trkpt lat="-3.0794250" lon="37.3601570">
    <ele>5788.6</ele>
    <time>2026-06-23T04:09:56Z</time>
   </trkpt>
   <trkpt lat="-3.0794270" lon="37.3601500">
    <ele>5788.7</ele>
    <time>2026-06-23T04:09:57Z</time>
   </trkpt>
   <trkpt lat="-3.0794280" lon="37.3601450">
    <ele>5788.7</ele>
    <time>2026-06-23T04:09:58Z</time>
   </trkpt>
   <trkpt lat="-3.0794290" lon="37.3601390">
    <ele>5788.8</ele>
    <time>2026-06-23T04:09:59Z</time>
   </trkpt>
   <trkpt lat="-3.0794300" lon="37.3601330">
    <ele>5788.9</ele>
    <time>2026-06-23T04:10:00Z</time>
   </trkpt>
   <trkpt lat="-3.0794310" lon="37.3601280">
    <ele>5788.9</ele>
    <time>2026-06-23T04:10:01Z</time>
   </trkpt>
   <trkpt lat="-3.0794320" lon="37.3601230">
    <ele>5789.0</ele>
    <time>2026-06-23T04:10:02Z</time>
   </trkpt>
   <trkpt lat="-3.0794330" lon="37.3601190">
    <ele>5789.0</ele>
    <time>2026-06-23T04:10:03Z</time>
   </trkpt>
   <trkpt lat="-3.0794340" lon="37.3601140">
    <ele>5789.1</ele>
    <time>2026-06-23T04:10:04Z</time>
   </trkpt>
   <trkpt lat="-3.0794360" lon="37.3601100">
    <ele>5789.1</ele>
    <time>2026-06-23T04:10:05Z</time>
   </trkpt>
   <trkpt lat="-3.0794370" lon="37.3601050">
    <ele>5789.2</ele>
    <time>2026-06-23T04:10:06Z</time>
   </trkpt>
   <trkpt lat="-3.0794390" lon="37.3601000">
    <ele>5789.2</ele>
    <time>2026-06-23T04:10:07Z</time>
   </trkpt>
   <trkpt lat="-3.0794410" lon="37.3600950">
    <ele>5789.3</ele>
    <time>2026-06-23T04:10:08Z</time>
   </trkpt>
   <trkpt lat="-3.0794410" lon="37.3600900">
    <ele>5789.3</ele>
    <time>2026-06-23T04:10:09Z</time>
   </trkpt>
   <trkpt lat="-3.0794420" lon="37.3600840">
    <ele>5789.4</ele>
    <time>2026-06-23T04:10:10Z</time>
   </trkpt>
   <trkpt lat="-3.0794410" lon="37.3600800">
    <ele>5789.5</ele>
    <time>2026-06-23T04:10:11Z</time>
   </trkpt>
   <trkpt lat="-3.0794420" lon="37.3600730">
    <ele>5789.5</ele>
    <time>2026-06-23T04:10:12Z</time>
   </trkpt>
   <trkpt lat="-3.0794430" lon="37.3600690">
    <ele>5789.6</ele>
    <time>2026-06-23T04:10:13Z</time>
   </trkpt>
   <trkpt lat="-3.0794430" lon="37.3600630">
    <ele>5789.7</ele>
    <time>2026-06-23T04:10:14Z</time>
   </trkpt>
   <trkpt lat="-3.0794440" lon="37.3600580">
    <ele>5789.7</ele>
    <time>2026-06-23T04:10:15Z</time>
   </trkpt>
   <trkpt lat="-3.0794440" lon="37.3600540">
    <ele>5789.8</ele>
    <time>2026-06-23T04:10:16Z</time>
   </trkpt>
   <trkpt lat="-3.0794450" lon="37.3600480">
    <ele>5789.8</ele>
    <time>2026-06-23T04:10:17Z</time>
   </trkpt>
   <trkpt lat="-3.0794460" lon="37.3600440">
    <ele>5789.9</ele>
    <time>2026-06-23T04:10:18Z</time>
   </trkpt>
   <trkpt lat="-3.0794470" lon="37.3600390">
    <ele>5789.9</ele>
    <time>2026-06-23T04:10:19Z</time>
   </trkpt>
   <trkpt lat="-3.0794480" lon="37.3600360">
    <ele>5790.0</ele>
    <time>2026-06-23T04:10:20Z</time>
   </trkpt>
   <trkpt lat="-3.0794480" lon="37.3600310">
    <ele>5790.0</ele>
    <time>2026-06-23T04:10:21Z</time>
   </trkpt>
   <trkpt lat="-3.0794490" lon="37.3600260">
    <ele>5790.1</ele>
    <time>2026-06-23T04:10:22Z</time>
   </trkpt>
   <trkpt lat="-3.0794490" lon="37.3600230">
    <ele>5790.1</ele>
    <time>2026-06-23T04:10:23Z</time>
   </trkpt>
   <trkpt lat="-3.0794500" lon="37.3600160">
    <ele>5790.2</ele>
    <time>2026-06-23T04:10:24Z</time>
   </trkpt>
   <trkpt lat="-3.0794510" lon="37.3600120">
    <ele>5790.3</ele>
    <time>2026-06-23T04:10:25Z</time>
   </trkpt>
   <trkpt lat="-3.0794530" lon="37.3600090">
    <ele>5790.3</ele>
    <time>2026-06-23T04:10:26Z</time>
   </trkpt>
   <trkpt lat="-3.0794530" lon="37.3600070">
    <ele>5790.3</ele>
    <time>2026-06-23T04:10:27Z</time>
   </trkpt>
   <trkpt lat="-3.0794520" lon="37.3600080">
    <ele>5790.4</ele>
    <time>2026-06-23T04:10:28Z</time>
   </trkpt>
   <trkpt lat="-3.0794520" lon="37.3600080">
    <ele>5790.4</ele>
    <time>2026-06-23T04:10:29Z</time>
   </trkpt>
   <trkpt lat="-3.0794530" lon="37.3600050">
    <ele>5790.4</ele>
    <time>2026-06-23T04:10:30Z</time>
   </trkpt>
   <trkpt lat="-3.0794530" lon="37.3600010">
    <ele>5790.5</ele>
    <time>2026-06-23T04:10:31Z</time>
   </trkpt>
   <trkpt lat="-3.0794560" lon="37.3599980">
    <ele>5790.5</ele>
    <time>2026-06-23T04:10:32Z</time>
   </trkpt>
   <trkpt lat="-3.0794580" lon="37.3599910">
    <ele>5790.6</ele>
    <time>2026-06-23T04:10:33Z</time>
   </trkpt>
   <trkpt lat="-3.0794600" lon="37.3599870">
    <ele>5790.7</ele>
    <time>2026-06-23T04:10:34Z</time>
   </trkpt>
   <trkpt lat="-3.0794610" lon="37.3599830">
    <ele>5790.7</ele>
    <time>2026-06-23T04:10:35Z</time>
   </trkpt>
   <trkpt lat="-3.0794640" lon="37.3599790">
    <ele>5790.8</ele>
    <time>2026-06-23T04:10:36Z</time>
   </trkpt>
   <trkpt lat="-3.0794640" lon="37.3599750">
    <ele>5790.8</ele>
    <time>2026-06-23T04:10:37Z</time>
   </trkpt>
   <trkpt lat="-3.0794620" lon="37.3599770">
    <ele>5790.9</ele>
    <time>2026-06-23T04:10:38Z</time>
   </trkpt>
   <trkpt lat="-3.0794630" lon="37.3599780">
    <ele>5790.9</ele>
    <time>2026-06-23T04:10:39Z</time>
   </trkpt>
   <trkpt lat="-3.0794630" lon="37.3599780">
    <ele>5790.9</ele>
    <time>2026-06-23T04:10:40Z</time>
   </trkpt>
   <trkpt lat="-3.0794620" lon="37.3599780">
    <ele>5790.9</ele>
    <time>2026-06-23T04:10:41Z</time>
   </trkpt>
   <trkpt lat="-3.0794620" lon="37.3599770">
    <ele>5790.9</ele>
    <time>2026-06-23T04:10:42Z</time>
   </trkpt>
   <trkpt lat="-3.0794640" lon="37.3599720">
    <ele>5791.0</ele>
    <time>2026-06-23T04:10:43Z</time>
   </trkpt>
   <trkpt lat="-3.0794650" lon="37.3599680">
    <ele>5791.0</ele>
    <time>2026-06-23T04:10:44Z</time>
   </trkpt>
   <trkpt lat="-3.0794670" lon="37.3599620">
    <ele>5791.1</ele>
    <time>2026-06-23T04:10:45Z</time>
   </trkpt>
   <trkpt lat="-3.0794700" lon="37.3599570">
    <ele>5791.2</ele>
    <time>2026-06-23T04:10:46Z</time>
   </trkpt>
   <trkpt lat="-3.0794710" lon="37.3599530">
    <ele>5791.3</ele>
    <time>2026-06-23T04:10:47Z</time>
   </trkpt>
   <trkpt lat="-3.0794730" lon="37.3599470">
    <ele>5791.4</ele>
    <time>2026-06-23T04:10:48Z</time>
   </trkpt>
   <trkpt lat="-3.0794730" lon="37.3599420">
    <ele>5791.4</ele>
    <time>2026-06-23T04:10:49Z</time>
   </trkpt>
   <trkpt lat="-3.0794750" lon="37.3599380">
    <ele>5791.5</ele>
    <time>2026-06-23T04:10:50Z</time>
   </trkpt>
   <trkpt lat="-3.0794760" lon="37.3599320">
    <ele>5791.6</ele>
    <time>2026-06-23T04:10:51Z</time>
   </trkpt>
   <trkpt lat="-3.0794760" lon="37.3599290">
    <ele>5791.6</ele>
    <time>2026-06-23T04:10:52Z</time>
   </trkpt>
   <trkpt lat="-3.0794780" lon="37.3599250">
    <ele>5791.7</ele>
    <time>2026-06-23T04:10:53Z</time>
   </trkpt>
   <trkpt lat="-3.0794780" lon="37.3599210">
    <ele>5791.8</ele>
    <time>2026-06-23T04:10:54Z</time>
   </trkpt>
   <trkpt lat="-3.0794800" lon="37.3599160">
    <ele>5791.8</ele>
    <time>2026-06-23T04:10:55Z</time>
   </trkpt>
   <trkpt lat="-3.0794800" lon="37.3599110">
    <ele>5791.9</ele>
    <time>2026-06-23T04:10:56Z</time>
   </trkpt>
   <trkpt lat="-3.0794790" lon="37.3599070">
    <ele>5792.0</ele>
    <time>2026-06-23T04:10:57Z</time>
   </trkpt>
   <trkpt lat="-3.0794790" lon="37.3599040">
    <ele>5792.0</ele>
    <time>2026-06-23T04:10:58Z</time>
   </trkpt>
   <trkpt lat="-3.0794800" lon="37.3598990">
    <ele>5792.1</ele>
    <time>2026-06-23T04:10:59Z</time>
   </trkpt>
   <trkpt lat="-3.0794800" lon="37.3598940">
    <ele>5792.2</ele>
    <time>2026-06-23T04:11:00Z</time>
   </trkpt>
   <trkpt lat="-3.0794810" lon="37.3598910">
    <ele>5792.2</ele>
    <time>2026-06-23T04:11:01Z</time>
   </trkpt>
   <trkpt lat="-3.0794810" lon="37.3598860">
    <ele>5792.3</ele>
    <time>2026-06-23T04:11:02Z</time>
   </trkpt>
   <trkpt lat="-3.0794810" lon="37.3598810">
    <ele>5792.3</ele>
    <time>2026-06-23T04:11:03Z</time>
   </trkpt>
   <trkpt lat="-3.0794810" lon="37.3598770">
    <ele>5792.4</ele>
    <time>2026-06-23T04:11:04Z</time>
   </trkpt>
   <trkpt lat="-3.0794810" lon="37.3598730">
    <ele>5792.5</ele>
    <time>2026-06-23T04:11:05Z</time>
   </trkpt>
   <trkpt lat="-3.0794800" lon="37.3598680">
    <ele>5792.5</ele>
    <time>2026-06-23T04:11:06Z</time>
   </trkpt>
   <trkpt lat="-3.0794800" lon="37.3598650">
    <ele>5792.6</ele>
    <time>2026-06-23T04:11:07Z</time>
   </trkpt>
   <trkpt lat="-3.0794800" lon="37.3598610">
    <ele>5792.6</ele>
    <time>2026-06-23T04:11:08Z</time>
   </trkpt>
   <trkpt lat="-3.0794790" lon="37.3598560">
    <ele>5792.7</ele>
    <time>2026-06-23T04:11:09Z</time>
   </trkpt>
   <trkpt lat="-3.0794800" lon="37.3598530">
    <ele>5792.8</ele>
    <time>2026-06-23T04:11:10Z</time>
   </trkpt>
   <trkpt lat="-3.0794800" lon="37.3598470">
    <ele>5792.9</ele>
    <time>2026-06-23T04:11:11Z</time>
   </trkpt>
   <trkpt lat="-3.0794800" lon="37.3598420">
    <ele>5792.9</ele>
    <time>2026-06-23T04:11:12Z</time>
   </trkpt>
   <trkpt lat="-3.0794820" lon="37.3598390">
    <ele>5793.0</ele>
    <time>2026-06-23T04:11:13Z</time>
   </trkpt>
   <trkpt lat="-3.0794830" lon="37.3598340">
    <ele>5793.1</ele>
    <time>2026-06-23T04:11:14Z</time>
   </trkpt>
   <trkpt lat="-3.0794850" lon="37.3598300">
    <ele>5793.2</ele>
    <time>2026-06-23T04:11:15Z</time>
   </trkpt>
   <trkpt lat="-3.0794850" lon="37.3598250">
    <ele>5793.2</ele>
    <time>2026-06-23T04:11:16Z</time>
   </trkpt>
   <trkpt lat="-3.0794860" lon="37.3598210">
    <ele>5793.3</ele>
    <time>2026-06-23T04:11:17Z</time>
   </trkpt>
   <trkpt lat="-3.0794870" lon="37.3598160">
    <ele>5793.4</ele>
    <time>2026-06-23T04:11:18Z</time>
   </trkpt>
   <trkpt lat="-3.0794890" lon="37.3598140">
    <ele>5793.4</ele>
    <time>2026-06-23T04:11:19Z</time>
   </trkpt>
   <trkpt lat="-3.0794910" lon="37.3598100">
    <ele>5793.5</ele>
    <time>2026-06-23T04:11:20Z</time>
   </trkpt>
   <trkpt lat="-3.0794910" lon="37.3598060">
    <ele>5793.6</ele>
    <time>2026-06-23T04:11:21Z</time>
   </trkpt>
   <trkpt lat="-3.0794920" lon="37.3598010">
    <ele>5793.6</ele>
    <time>2026-06-23T04:11:22Z</time>
   </trkpt>
   <trkpt lat="-3.0794940" lon="37.3597980">
    <ele>5793.7</ele>
    <time>2026-06-23T04:11:23Z</time>
   </trkpt>
   <trkpt lat="-3.0794950" lon="37.3597940">
    <ele>5793.8</ele>
    <time>2026-06-23T04:11:24Z</time>
   </trkpt>
   <trkpt lat="-3.0794960" lon="37.3597900">
    <ele>5793.8</ele>
    <time>2026-06-23T04:11:25Z</time>
   </trkpt>
   <trkpt lat="-3.0794960" lon="37.3597870">
    <ele>5793.9</ele>
    <time>2026-06-23T04:11:26Z</time>
   </trkpt>
   <trkpt lat="-3.0794960" lon="37.3597830">
    <ele>5794.0</ele>
    <time>2026-06-23T04:11:27Z</time>
   </trkpt>
   <trkpt lat="-3.0794960" lon="37.3597790">
    <ele>5794.0</ele>
    <time>2026-06-23T04:11:28Z</time>
   </trkpt>
   <trkpt lat="-3.0794950" lon="37.3597760">
    <ele>5794.1</ele>
    <time>2026-06-23T04:11:29Z</time>
   </trkpt>
   <trkpt lat="-3.0794970" lon="37.3597700">
    <ele>5794.2</ele>
    <time>2026-06-23T04:11:30Z</time>
   </trkpt>
   <trkpt lat="-3.0794960" lon="37.3597690">
    <ele>5794.2</ele>
    <time>2026-06-23T04:11:31Z</time>
   </trkpt>
   <trkpt lat="-3.0794960" lon="37.3597640">
    <ele>5794.3</ele>
    <time>2026-06-23T04:11:32Z</time>
   </trkpt>
   <trkpt lat="-3.0794960" lon="37.3597590">
    <ele>5794.4</ele>
    <time>2026-06-23T04:11:33Z</time>
   </trkpt>
   <trkpt lat="-3.0794960" lon="37.3597570">
    <ele>5794.4</ele>
    <time>2026-06-23T04:11:34Z</time>
   </trkpt>
   <trkpt lat="-3.0794980" lon="37.3597520">
    <ele>5794.5</ele>
    <time>2026-06-23T04:11:35Z</time>
   </trkpt>
   <trkpt lat="-3.0794980" lon="37.3597500">
    <ele>5794.5</ele>
    <time>2026-06-23T04:11:36Z</time>
   </trkpt>
   <trkpt lat="-3.0794990" lon="37.3597460">
    <ele>5794.6</ele>
    <time>2026-06-23T04:11:37Z</time>
   </trkpt>
   <trkpt lat="-3.0794980" lon="37.3597430">
    <ele>5794.6</ele>
    <time>2026-06-23T04:11:38Z</time>
   </trkpt>
   <trkpt lat="-3.0794980" lon="37.3597410">
    <ele>5794.7</ele>
    <time>2026-06-23T04:11:39Z</time>
   </trkpt>
   <trkpt lat="-3.0794990" lon="37.3597370">
    <ele>5794.7</ele>
    <time>2026-06-23T04:11:40Z</time>
   </trkpt>
   <trkpt lat="-3.0794990" lon="37.3597350">
    <ele>5794.8</ele>
    <time>2026-06-23T04:11:41Z</time>
   </trkpt>
   <trkpt lat="-3.0795010" lon="37.3597310">
    <ele>5794.9</ele>
    <time>2026-06-23T04:11:42Z</time>
   </trkpt>
   <trkpt lat="-3.0795010" lon="37.3597290">
    <ele>5794.9</ele>
    <time>2026-06-23T04:11:43Z</time>
   </trkpt>
   <trkpt lat="-3.0795030" lon="37.3597280">
    <ele>5794.9</ele>
    <time>2026-06-23T04:11:44Z</time>
   </trkpt>
   <trkpt lat="-3.0795030" lon="37.3597300">
    <ele>5795.0</ele>
    <time>2026-06-23T04:11:45Z</time>
   </trkpt>
   <trkpt lat="-3.0795030" lon="37.3597300">
    <ele>5795.0</ele>
    <time>2026-06-23T04:11:46Z</time>
   </trkpt>
   <trkpt lat="-3.0795040" lon="37.3597290">
    <ele>5795.0</ele>
    <time>2026-06-23T04:11:47Z</time>
   </trkpt>
   <trkpt lat="-3.0795040" lon="37.3597280">
    <ele>5795.0</ele>
    <time>2026-06-23T04:11:48Z</time>
   </trkpt>
   <trkpt lat="-3.0795070" lon="37.3597220">
    <ele>5795.1</ele>
    <time>2026-06-23T04:11:49Z</time>
   </trkpt>
   <trkpt lat="-3.0795060" lon="37.3597190">
    <ele>5795.2</ele>
    <time>2026-06-23T04:11:50Z</time>
   </trkpt>
   <trkpt lat="-3.0795070" lon="37.3597160">
    <ele>5795.2</ele>
    <time>2026-06-23T04:11:51Z</time>
   </trkpt>
   <trkpt lat="-3.0795080" lon="37.3597120">
    <ele>5795.3</ele>
    <time>2026-06-23T04:11:52Z</time>
   </trkpt>
   <trkpt lat="-3.0795090" lon="37.3597080">
    <ele>5795.3</ele>
    <time>2026-06-23T04:11:53Z</time>
   </trkpt>
   <trkpt lat="-3.0795090" lon="37.3597060">
    <ele>5795.4</ele>
    <time>2026-06-23T04:11:54Z</time>
   </trkpt>
   <trkpt lat="-3.0795100" lon="37.3597020">
    <ele>5795.4</ele>
    <time>2026-06-23T04:11:55Z</time>
   </trkpt>
   <trkpt lat="-3.0795110" lon="37.3596990">
    <ele>5795.5</ele>
    <time>2026-06-23T04:11:56Z</time>
   </trkpt>
   <trkpt lat="-3.0795120" lon="37.3596960">
    <ele>5795.5</ele>
    <time>2026-06-23T04:11:57Z</time>
   </trkpt>
   <trkpt lat="-3.0795140" lon="37.3596930">
    <ele>5795.6</ele>
    <time>2026-06-23T04:11:58Z</time>
   </trkpt>
   <trkpt lat="-3.0795140" lon="37.3596890">
    <ele>5795.7</ele>
    <time>2026-06-23T04:11:59Z</time>
   </trkpt>
   <trkpt lat="-3.0795160" lon="37.3596860">
    <ele>5795.7</ele>
    <time>2026-06-23T04:12:00Z</time>
   </trkpt>
   <trkpt lat="-3.0795170" lon="37.3596830">
    <ele>5795.8</ele>
    <time>2026-06-23T04:12:01Z</time>
   </trkpt>
   <trkpt lat="-3.0795180" lon="37.3596790">
    <ele>5795.9</ele>
    <time>2026-06-23T04:12:02Z</time>
   </trkpt>
   <trkpt lat="-3.0795190" lon="37.3596760">
    <ele>5795.9</ele>
    <time>2026-06-23T04:12:03Z</time>
   </trkpt>
   <trkpt lat="-3.0795200" lon="37.3596740">
    <ele>5795.9</ele>
    <time>2026-06-23T04:12:04Z</time>
   </trkpt>
   <trkpt lat="-3.0795220" lon="37.3596710">
    <ele>5796.0</ele>
    <time>2026-06-23T04:12:05Z</time>
   </trkpt>
   <trkpt lat="-3.0795230" lon="37.3596680">
    <ele>5796.1</ele>
    <time>2026-06-23T04:12:06Z</time>
   </trkpt>
   <trkpt lat="-3.0795240" lon="37.3596660">
    <ele>5796.1</ele>
    <time>2026-06-23T04:12:07Z</time>
   </trkpt>
   <trkpt lat="-3.0795250" lon="37.3596630">
    <ele>5796.2</ele>
    <time>2026-06-23T04:12:08Z</time>
   </trkpt>
   <trkpt lat="-3.0795270" lon="37.3596610">
    <ele>5796.2</ele>
    <time>2026-06-23T04:12:09Z</time>
   </trkpt>
   <trkpt lat="-3.0795290" lon="37.3596600">
    <ele>5796.2</ele>
    <time>2026-06-23T04:12:10Z</time>
   </trkpt>
   <trkpt lat="-3.0795290" lon="37.3596620">
    <ele>5796.3</ele>
    <time>2026-06-23T04:12:11Z</time>
   </trkpt>
   <trkpt lat="-3.0795290" lon="37.3596620">
    <ele>5796.3</ele>
    <time>2026-06-23T04:12:12Z</time>
   </trkpt>
   <trkpt lat="-3.0795290" lon="37.3596620">
    <ele>5796.3</ele>
    <time>2026-06-23T04:12:13Z</time>
   </trkpt>
   <trkpt lat="-3.0795290" lon="37.3596620">
    <ele>5796.3</ele>
    <time>2026-06-23T04:12:14Z</time>
   </trkpt>
   <trkpt lat="-3.0795290" lon="37.3596620">
    <ele>5796.3</ele>
    <time>2026-06-23T04:12:15Z</time>
   </trkpt>
   <trkpt lat="-3.0795290" lon="37.3596620">
    <ele>5796.3</ele>
    <time>2026-06-23T04:12:16Z</time>
   </trkpt>
   <trkpt lat="-3.0795290" lon="37.3596620">
    <ele>5796.3</ele>
    <time>2026-06-23T04:12:17Z</time>
   </trkpt>
   <trkpt lat="-3.0795290" lon="37.3596620">
    <ele>5796.3</ele>
    <time>2026-06-23T04:12:18Z</time>
   </trkpt>
   <trkpt lat="-3.0795290" lon="37.3596620">
    <ele>5796.3</ele>
    <time>2026-06-23T04:12:19Z</time>
   </trkpt>
   <trkpt lat="-3.0795290" lon="37.3596620">
    <ele>5796.3</ele>
    <time>2026-06-23T04:12:20Z</time>
   </trkpt>
   <trkpt lat="-3.0795290" lon="37.3596620">
    <ele>5796.3</ele>
    <time>2026-06-23T04:12:21Z</time>
   </trkpt>
   <trkpt lat="-3.0795290" lon="37.3596620">
    <ele>5796.3</ele>
    <time>2026-06-23T04:12:22Z</time>
   </trkpt>
   <trkpt lat="-3.0795290" lon="37.3596630">
    <ele>5796.3</ele>
    <time>2026-06-23T04:12:23Z</time>
   </trkpt>
   <trkpt lat="-3.0795290" lon="37.3596630">
    <ele>5796.3</ele>
    <time>2026-06-23T04:12:24Z</time>
   </trkpt>
   <trkpt lat="-3.0795290" lon="37.3596630">
    <ele>5796.3</ele>
    <time>2026-06-23T04:12:25Z</time>
   </trkpt>
   <trkpt lat="-3.0795290" lon="37.3596630">
    <ele>5796.3</ele>
    <time>2026-06-23T04:12:26Z</time>
   </trkpt>
   <trkpt lat="-3.0795290" lon="37.3596630">
    <ele>5796.3</ele>
    <time>2026-06-23T04:12:27Z</time>
   </trkpt>
   <trkpt lat="-3.0795290" lon="37.3596630">
    <ele>5796.3</ele>
    <time>2026-06-23T04:12:28Z</time>
   </trkpt>
   <trkpt lat="-3.0795290" lon="37.3596630">
    <ele>5796.3</ele>
    <time>2026-06-23T04:12:29Z</time>
   </trkpt>
   <trkpt lat="-3.0795290" lon="37.3596640">
    <ele>5796.3</ele>
    <time>2026-06-23T04:12:30Z</time>
   </trkpt>
   <trkpt lat="-3.0795290" lon="37.3596650">
    <ele>5796.3</ele>
    <time>2026-06-23T04:12:31Z</time>
   </trkpt>
   <trkpt lat="-3.0795290" lon="37.3596640">
    <ele>5796.4</ele>
    <time>2026-06-23T04:12:32Z</time>
   </trkpt>
   <trkpt lat="-3.0795290" lon="37.3596630">
    <ele>5796.4</ele>
    <time>2026-06-23T04:12:33Z</time>
   </trkpt>
   <trkpt lat="-3.0795290" lon="37.3596610">
    <ele>5796.4</ele>
    <time>2026-06-23T04:12:34Z</time>
   </trkpt>
   <trkpt lat="-3.0795310" lon="37.3596590">
    <ele>5796.5</ele>
    <time>2026-06-23T04:12:35Z</time>
   </trkpt>
   <trkpt lat="-3.0795310" lon="37.3596550">
    <ele>5796.5</ele>
    <time>2026-06-23T04:12:36Z</time>
   </trkpt>
   <trkpt lat="-3.0795330" lon="37.3596530">
    <ele>5796.6</ele>
    <time>2026-06-23T04:12:37Z</time>
   </trkpt>
   <trkpt lat="-3.0795320" lon="37.3596470">
    <ele>5796.7</ele>
    <time>2026-06-23T04:12:38Z</time>
   </trkpt>
   <trkpt lat="-3.0795320" lon="37.3596440">
    <ele>5796.7</ele>
    <time>2026-06-23T04:12:39Z</time>
   </trkpt>
   <trkpt lat="-3.0795320" lon="37.3596410">
    <ele>5796.8</ele>
    <time>2026-06-23T04:12:40Z</time>
   </trkpt>
   <trkpt lat="-3.0795320" lon="37.3596360">
    <ele>5796.9</ele>
    <time>2026-06-23T04:12:41Z</time>
   </trkpt>
   <trkpt lat="-3.0795330" lon="37.3596310">
    <ele>5797.0</ele>
    <time>2026-06-23T04:12:42Z</time>
   </trkpt>
   <trkpt lat="-3.0795330" lon="37.3596280">
    <ele>5797.0</ele>
    <time>2026-06-23T04:12:43Z</time>
   </trkpt>
   <trkpt lat="-3.0795350" lon="37.3596220">
    <ele>5797.1</ele>
    <time>2026-06-23T04:12:44Z</time>
   </trkpt>
   <trkpt lat="-3.0795350" lon="37.3596200">
    <ele>5797.2</ele>
    <time>2026-06-23T04:12:45Z</time>
   </trkpt>
   <trkpt lat="-3.0795350" lon="37.3596160">
    <ele>5797.2</ele>
    <time>2026-06-23T04:12:46Z</time>
   </trkpt>
   <trkpt lat="-3.0795350" lon="37.3596140">
    <ele>5797.3</ele>
    <time>2026-06-23T04:12:47Z</time>
   </trkpt>
   <trkpt lat="-3.0795330" lon="37.3596160">
    <ele>5797.3</ele>
    <time>2026-06-23T04:12:48Z</time>
   </trkpt>
   <trkpt lat="-3.0795330" lon="37.3596160">
    <ele>5797.3</ele>
    <time>2026-06-23T04:12:49Z</time>
   </trkpt>
   <trkpt lat="-3.0795330" lon="37.3596160">
    <ele>5797.3</ele>
    <time>2026-06-23T04:12:50Z</time>
   </trkpt>
   <trkpt lat="-3.0795330" lon="37.3596140">
    <ele>5797.4</ele>
    <time>2026-06-23T04:12:51Z</time>
   </trkpt>
   <trkpt lat="-3.0795340" lon="37.3596160">
    <ele>5797.4</ele>
    <time>2026-06-23T04:12:52Z</time>
   </trkpt>
   <trkpt lat="-3.0795340" lon="37.3596140">
    <ele>5797.4</ele>
    <time>2026-06-23T04:12:53Z</time>
   </trkpt>
   <trkpt lat="-3.0795360" lon="37.3596110">
    <ele>5797.5</ele>
    <time>2026-06-23T04:12:54Z</time>
   </trkpt>
   <trkpt lat="-3.0795390" lon="37.3596080">
    <ele>5797.6</ele>
    <time>2026-06-23T04:12:55Z</time>
   </trkpt>
   <trkpt lat="-3.0795400" lon="37.3596050">
    <ele>5797.6</ele>
    <time>2026-06-23T04:12:56Z</time>
   </trkpt>
   <trkpt lat="-3.0795410" lon="37.3596020">
    <ele>5797.7</ele>
    <time>2026-06-23T04:12:57Z</time>
   </trkpt>
   <trkpt lat="-3.0795410" lon="37.3595980">
    <ele>5797.7</ele>
    <time>2026-06-23T04:12:58Z</time>
   </trkpt>
   <trkpt lat="-3.0795430" lon="37.3595970">
    <ele>5797.8</ele>
    <time>2026-06-23T04:12:59Z</time>
   </trkpt>
   <trkpt lat="-3.0795440" lon="37.3595940">
    <ele>5797.8</ele>
    <time>2026-06-23T04:13:00Z</time>
   </trkpt>
   <trkpt lat="-3.0795440" lon="37.3595900">
    <ele>5797.9</ele>
    <time>2026-06-23T04:13:01Z</time>
   </trkpt>
   <trkpt lat="-3.0795410" lon="37.3595930">
    <ele>5798.0</ele>
    <time>2026-06-23T04:13:02Z</time>
   </trkpt>
   <trkpt lat="-3.0795410" lon="37.3595940">
    <ele>5798.0</ele>
    <time>2026-06-23T04:13:03Z</time>
   </trkpt>
   <trkpt lat="-3.0795410" lon="37.3595940">
    <ele>5798.0</ele>
    <time>2026-06-23T04:13:04Z</time>
   </trkpt>
   <trkpt lat="-3.0795410" lon="37.3595930">
    <ele>5798.0</ele>
    <time>2026-06-23T04:13:05Z</time>
   </trkpt>
   <trkpt lat="-3.0795410" lon="37.3595930">
    <ele>5798.0</ele>
    <time>2026-06-23T04:13:06Z</time>
   </trkpt>
   <trkpt lat="-3.0795400" lon="37.3595900">
    <ele>5798.1</ele>
    <time>2026-06-23T04:13:07Z</time>
   </trkpt>
   <trkpt lat="-3.0795390" lon="37.3595900">
    <ele>5798.1</ele>
    <time>2026-06-23T04:13:08Z</time>
   </trkpt>
   <trkpt lat="-3.0795390" lon="37.3595910">
    <ele>5798.1</ele>
    <time>2026-06-23T04:13:09Z</time>
   </trkpt>
   <trkpt lat="-3.0795390" lon="37.3595900">
    <ele>5798.2</ele>
    <time>2026-06-23T04:13:10Z</time>
   </trkpt>
   <trkpt lat="-3.0795390" lon="37.3595910">
    <ele>5798.2</ele>
    <time>2026-06-23T04:13:11Z</time>
   </trkpt>
   <trkpt lat="-3.0795390" lon="37.3595920">
    <ele>5798.2</ele>
    <time>2026-06-23T04:13:12Z</time>
   </trkpt>
   <trkpt lat="-3.0795390" lon="37.3595920">
    <ele>5798.2</ele>
    <time>2026-06-23T04:13:13Z</time>
   </trkpt>
   <trkpt lat="-3.0795390" lon="37.3595910">
    <ele>5798.2</ele>
    <time>2026-06-23T04:13:14Z</time>
   </trkpt>
   <trkpt lat="-3.0795390" lon="37.3595910">
    <ele>5798.2</ele>
    <time>2026-06-23T04:13:15Z</time>
   </trkpt>
   <trkpt lat="-3.0795390" lon="37.3595910">
    <ele>5798.2</ele>
    <time>2026-06-23T04:13:16Z</time>
   </trkpt>
   <trkpt lat="-3.0795390" lon="37.3595910">
    <ele>5798.2</ele>
    <time>2026-06-23T04:13:17Z</time>
   </trkpt>
   <trkpt lat="-3.0795390" lon="37.3595910">
    <ele>5798.2</ele>
    <time>2026-06-23T04:13:18Z</time>
   </trkpt>
   <trkpt lat="-3.0795390" lon="37.3595910">
    <ele>5798.2</ele>
    <time>2026-06-23T04:13:19Z</time>
   </trkpt>
   <trkpt lat="-3.0795390" lon="37.3595910">
    <ele>5798.2</ele>
    <time>2026-06-23T04:13:20Z</time>
   </trkpt>
   <trkpt lat="-3.0795390" lon="37.3595910">
    <ele>5798.2</ele>
    <time>2026-06-23T04:13:21Z</time>
   </trkpt>
   <trkpt lat="-3.0795400" lon="37.3595910">
    <ele>5798.2</ele>
    <time>2026-06-23T04:13:22Z</time>
   </trkpt>
   <trkpt lat="-3.0795400" lon="37.3595910">
    <ele>5798.2</ele>
    <time>2026-06-23T04:13:23Z</time>
   </trkpt>
   <trkpt lat="-3.0795400" lon="37.3595910">
    <ele>5798.2</ele>
    <time>2026-06-23T04:13:24Z</time>
   </trkpt>
   <trkpt lat="-3.0795400" lon="37.3595910">
    <ele>5798.2</ele>
    <time>2026-06-23T04:13:25Z</time>
   </trkpt>
   <trkpt lat="-3.0795390" lon="37.3595910">
    <ele>5798.2</ele>
    <time>2026-06-23T04:13:26Z</time>
   </trkpt>
   <trkpt lat="-3.0795410" lon="37.3595870">
    <ele>5798.3</ele>
    <time>2026-06-23T04:13:27Z</time>
   </trkpt>
   <trkpt lat="-3.0795440" lon="37.3595850">
    <ele>5798.4</ele>
    <time>2026-06-23T04:13:28Z</time>
   </trkpt>
   <trkpt lat="-3.0795450" lon="37.3595770">
    <ele>5798.6</ele>
    <time>2026-06-23T04:13:29Z</time>
   </trkpt>
   <trkpt lat="-3.0795490" lon="37.3595750">
    <ele>5798.6</ele>
    <time>2026-06-23T04:13:30Z</time>
   </trkpt>
   <trkpt lat="-3.0795520" lon="37.3595700">
    <ele>5798.7</ele>
    <time>2026-06-23T04:13:31Z</time>
   </trkpt>
   <trkpt lat="-3.0795550" lon="37.3595670">
    <ele>5798.8</ele>
    <time>2026-06-23T04:13:32Z</time>
   </trkpt>
   <trkpt lat="-3.0795550" lon="37.3595640">
    <ele>5798.9</ele>
    <time>2026-06-23T04:13:33Z</time>
   </trkpt>
   <trkpt lat="-3.0795560" lon="37.3595580">
    <ele>5799.0</ele>
    <time>2026-06-23T04:13:34Z</time>
   </trkpt>
   <trkpt lat="-3.0795550" lon="37.3595540">
    <ele>5799.1</ele>
    <time>2026-06-23T04:13:35Z</time>
   </trkpt>
   <trkpt lat="-3.0795560" lon="37.3595490">
    <ele>5799.2</ele>
    <time>2026-06-23T04:13:36Z</time>
   </trkpt>
   <trkpt lat="-3.0795570" lon="37.3595450">
    <ele>5799.3</ele>
    <time>2026-06-23T04:13:37Z</time>
   </trkpt>
   <trkpt lat="-3.0795570" lon="37.3595420">
    <ele>5799.3</ele>
    <time>2026-06-23T04:13:38Z</time>
   </trkpt>
   <trkpt lat="-3.0795580" lon="37.3595380">
    <ele>5799.4</ele>
    <time>2026-06-23T04:13:39Z</time>
   </trkpt>
   <trkpt lat="-3.0795590" lon="37.3595350">
    <ele>5799.4</ele>
    <time>2026-06-23T04:13:40Z</time>
   </trkpt>
   <trkpt lat="-3.0795600" lon="37.3595300">
    <ele>5799.5</ele>
    <time>2026-06-23T04:13:41Z</time>
   </trkpt>
   <trkpt lat="-3.0795620" lon="37.3595270">
    <ele>5799.6</ele>
    <time>2026-06-23T04:13:42Z</time>
   </trkpt>
   <trkpt lat="-3.0795630" lon="37.3595250">
    <ele>5799.7</ele>
    <time>2026-06-23T04:13:43Z</time>
   </trkpt>
   <trkpt lat="-3.0795630" lon="37.3595200">
    <ele>5799.7</ele>
    <time>2026-06-23T04:13:44Z</time>
   </trkpt>
   <trkpt lat="-3.0795650" lon="37.3595150">
    <ele>5799.9</ele>
    <time>2026-06-23T04:13:45Z</time>
   </trkpt>
   <trkpt lat="-3.0795660" lon="37.3595130">
    <ele>5799.9</ele>
    <time>2026-06-23T04:13:46Z</time>
   </trkpt>
   <trkpt lat="-3.0795640" lon="37.3595080">
    <ele>5800.0</ele>
    <time>2026-06-23T04:13:47Z</time>
   </trkpt>
   <trkpt lat="-3.0795660" lon="37.3595040">
    <ele>5800.1</ele>
    <time>2026-06-23T04:13:48Z</time>
   </trkpt>
   <trkpt lat="-3.0795660" lon="37.3595020">
    <ele>5800.1</ele>
    <time>2026-06-23T04:13:49Z</time>
   </trkpt>
   <trkpt lat="-3.0795670" lon="37.3594970">
    <ele>5800.2</ele>
    <time>2026-06-23T04:13:50Z</time>
   </trkpt>
   <trkpt lat="-3.0795660" lon="37.3594950">
    <ele>5800.3</ele>
    <time>2026-06-23T04:13:51Z</time>
   </trkpt>
   <trkpt lat="-3.0795680" lon="37.3594920">
    <ele>5800.3</ele>
    <time>2026-06-23T04:13:52Z</time>
   </trkpt>
   <trkpt lat="-3.0795680" lon="37.3594890">
    <ele>5800.4</ele>
    <time>2026-06-23T04:13:53Z</time>
   </trkpt>
   <trkpt lat="-3.0795680" lon="37.3594850">
    <ele>5800.5</ele>
    <time>2026-06-23T04:13:54Z</time>
   </trkpt>
   <trkpt lat="-3.0795700" lon="37.3594820">
    <ele>5800.5</ele>
    <time>2026-06-23T04:13:55Z</time>
   </trkpt>
   <trkpt lat="-3.0795700" lon="37.3594810">
    <ele>5800.5</ele>
    <time>2026-06-23T04:13:56Z</time>
   </trkpt>
   <trkpt lat="-3.0795710" lon="37.3594770">
    <ele>5800.6</ele>
    <time>2026-06-23T04:13:57Z</time>
   </trkpt>
   <trkpt lat="-3.0795710" lon="37.3594730">
    <ele>5800.7</ele>
    <time>2026-06-23T04:13:58Z</time>
   </trkpt>
   <trkpt lat="-3.0795720" lon="37.3594700">
    <ele>5800.8</ele>
    <time>2026-06-23T04:13:59Z</time>
   </trkpt>
   <trkpt lat="-3.0795720" lon="37.3594660">
    <ele>5800.8</ele>
    <time>2026-06-23T04:14:00Z</time>
   </trkpt>
   <trkpt lat="-3.0795710" lon="37.3594660">
    <ele>5800.9</ele>
    <time>2026-06-23T04:14:01Z</time>
   </trkpt>
   <trkpt lat="-3.0795720" lon="37.3594610">
    <ele>5801.0</ele>
    <time>2026-06-23T04:14:02Z</time>
   </trkpt>
   <trkpt lat="-3.0795710" lon="37.3594580">
    <ele>5801.0</ele>
    <time>2026-06-23T04:14:03Z</time>
   </trkpt>
   <trkpt lat="-3.0795710" lon="37.3594560">
    <ele>5801.1</ele>
    <time>2026-06-23T04:14:04Z</time>
   </trkpt>
   <trkpt lat="-3.0795710" lon="37.3594530">
    <ele>5801.1</ele>
    <time>2026-06-23T04:14:05Z</time>
   </trkpt>
   <trkpt lat="-3.0795690" lon="37.3594500">
    <ele>5801.2</ele>
    <time>2026-06-23T04:14:06Z</time>
   </trkpt>
   <trkpt lat="-3.0795700" lon="37.3594470">
    <ele>5801.3</ele>
    <time>2026-06-23T04:14:07Z</time>
   </trkpt>
   <trkpt lat="-3.0795700" lon="37.3594480">
    <ele>5801.3</ele>
    <time>2026-06-23T04:14:08Z</time>
   </trkpt>
   <trkpt lat="-3.0795700" lon="37.3594430">
    <ele>5801.4</ele>
    <time>2026-06-23T04:14:09Z</time>
   </trkpt>
   <trkpt lat="-3.0795700" lon="37.3594400">
    <ele>5801.4</ele>
    <time>2026-06-23T04:14:10Z</time>
   </trkpt>
   <trkpt lat="-3.0795710" lon="37.3594350">
    <ele>5801.5</ele>
    <time>2026-06-23T04:14:11Z</time>
   </trkpt>
   <trkpt lat="-3.0795700" lon="37.3594300">
    <ele>5801.6</ele>
    <time>2026-06-23T04:14:12Z</time>
   </trkpt>
   <trkpt lat="-3.0795710" lon="37.3594280">
    <ele>5801.7</ele>
    <time>2026-06-23T04:14:13Z</time>
   </trkpt>
   <trkpt lat="-3.0795720" lon="37.3594210">
    <ele>5801.8</ele>
    <time>2026-06-23T04:14:14Z</time>
   </trkpt>
   <trkpt lat="-3.0795710" lon="37.3594190">
    <ele>5801.9</ele>
    <time>2026-06-23T04:14:15Z</time>
   </trkpt>
   <trkpt lat="-3.0795720" lon="37.3594160">
    <ele>5801.9</ele>
    <time>2026-06-23T04:14:16Z</time>
   </trkpt>
   <trkpt lat="-3.0795720" lon="37.3594120">
    <ele>5802.0</ele>
    <time>2026-06-23T04:14:17Z</time>
   </trkpt>
   <trkpt lat="-3.0795720" lon="37.3594100">
    <ele>5802.0</ele>
    <time>2026-06-23T04:14:18Z</time>
   </trkpt>
   <trkpt lat="-3.0795740" lon="37.3594080">
    <ele>5802.1</ele>
    <time>2026-06-23T04:14:19Z</time>
   </trkpt>
   <trkpt lat="-3.0795740" lon="37.3594050">
    <ele>5802.2</ele>
    <time>2026-06-23T04:14:20Z</time>
   </trkpt>
   <trkpt lat="-3.0795740" lon="37.3594030">
    <ele>5802.2</ele>
    <time>2026-06-23T04:14:21Z</time>
   </trkpt>
   <trkpt lat="-3.0795730" lon="37.3594000">
    <ele>5802.3</ele>
    <time>2026-06-23T04:14:22Z</time>
   </trkpt>
   <trkpt lat="-3.0795730" lon="37.3593970">
    <ele>5802.3</ele>
    <time>2026-06-23T04:14:23Z</time>
   </trkpt>
   <trkpt lat="-3.0795720" lon="37.3593960">
    <ele>5802.3</ele>
    <time>2026-06-23T04:14:24Z</time>
   </trkpt>
   <trkpt lat="-3.0795720" lon="37.3593970">
    <ele>5802.4</ele>
    <time>2026-06-23T04:14:25Z</time>
   </trkpt>
   <trkpt lat="-3.0795730" lon="37.3593930">
    <ele>5802.5</ele>
    <time>2026-06-23T04:14:26Z</time>
   </trkpt>
   <trkpt lat="-3.0795720" lon="37.3593890">
    <ele>5802.5</ele>
    <time>2026-06-23T04:14:27Z</time>
   </trkpt>
   <trkpt lat="-3.0795720" lon="37.3593870">
    <ele>5802.6</ele>
    <time>2026-06-23T04:14:28Z</time>
   </trkpt>
   <trkpt lat="-3.0795720" lon="37.3593840">
    <ele>5802.6</ele>
    <time>2026-06-23T04:14:29Z</time>
   </trkpt>
   <trkpt lat="-3.0795700" lon="37.3593820">
    <ele>5802.7</ele>
    <time>2026-06-23T04:14:30Z</time>
   </trkpt>
   <trkpt lat="-3.0795710" lon="37.3593770">
    <ele>5802.8</ele>
    <time>2026-06-23T04:14:31Z</time>
   </trkpt>
   <trkpt lat="-3.0795690" lon="37.3593760">
    <ele>5802.8</ele>
    <time>2026-06-23T04:14:32Z</time>
   </trkpt>
   <trkpt lat="-3.0795690" lon="37.3593720">
    <ele>5802.9</ele>
    <time>2026-06-23T04:14:33Z</time>
   </trkpt>
   <trkpt lat="-3.0795690" lon="37.3593710">
    <ele>5802.9</ele>
    <time>2026-06-23T04:14:34Z</time>
   </trkpt>
   <trkpt lat="-3.0795680" lon="37.3593670">
    <ele>5803.0</ele>
    <time>2026-06-23T04:14:35Z</time>
   </trkpt>
   <trkpt lat="-3.0795670" lon="37.3593640">
    <ele>5803.1</ele>
    <time>2026-06-23T04:14:36Z</time>
   </trkpt>
   <trkpt lat="-3.0795660" lon="37.3593610">
    <ele>5803.2</ele>
    <time>2026-06-23T04:14:37Z</time>
   </trkpt>
   <trkpt lat="-3.0795650" lon="37.3593600">
    <ele>5803.2</ele>
    <time>2026-06-23T04:14:38Z</time>
   </trkpt>
   <trkpt lat="-3.0795640" lon="37.3593570">
    <ele>5803.3</ele>
    <time>2026-06-23T04:14:39Z</time>
   </trkpt>
   <trkpt lat="-3.0795620" lon="37.3593550">
    <ele>5803.3</ele>
    <time>2026-06-23T04:14:40Z</time>
   </trkpt>
   <trkpt lat="-3.0795610" lon="37.3593530">
    <ele>5803.4</ele>
    <time>2026-06-23T04:14:41Z</time>
   </trkpt>
   <trkpt lat="-3.0795600" lon="37.3593490">
    <ele>5803.4</ele>
    <time>2026-06-23T04:14:42Z</time>
   </trkpt>
   <trkpt lat="-3.0795600" lon="37.3593500">
    <ele>5803.5</ele>
    <time>2026-06-23T04:14:43Z</time>
   </trkpt>
   <trkpt lat="-3.0795600" lon="37.3593490">
    <ele>5803.5</ele>
    <time>2026-06-23T04:14:44Z</time>
   </trkpt>
   <trkpt lat="-3.0795600" lon="37.3593490">
    <ele>5803.5</ele>
    <time>2026-06-23T04:14:45Z</time>
   </trkpt>
   <trkpt lat="-3.0795580" lon="37.3593460">
    <ele>5803.6</ele>
    <time>2026-06-23T04:14:46Z</time>
   </trkpt>
   <trkpt lat="-3.0795570" lon="37.3593420">
    <ele>5803.7</ele>
    <time>2026-06-23T04:14:47Z</time>
   </trkpt>
   <trkpt lat="-3.0795550" lon="37.3593400">
    <ele>5803.7</ele>
    <time>2026-06-23T04:14:48Z</time>
   </trkpt>
   <trkpt lat="-3.0795540" lon="37.3593370">
    <ele>5803.8</ele>
    <time>2026-06-23T04:14:49Z</time>
   </trkpt>
   <trkpt lat="-3.0795530" lon="37.3593350">
    <ele>5803.8</ele>
    <time>2026-06-23T04:14:50Z</time>
   </trkpt>
   <trkpt lat="-3.0795510" lon="37.3593330">
    <ele>5803.9</ele>
    <time>2026-06-23T04:14:51Z</time>
   </trkpt>
   <trkpt lat="-3.0795500" lon="37.3593330">
    <ele>5803.9</ele>
    <time>2026-06-23T04:14:52Z</time>
   </trkpt>
   <trkpt lat="-3.0795480" lon="37.3593290">
    <ele>5804.0</ele>
    <time>2026-06-23T04:14:53Z</time>
   </trkpt>
   <trkpt lat="-3.0795480" lon="37.3593260">
    <ele>5804.1</ele>
    <time>2026-06-23T04:14:54Z</time>
   </trkpt>
   <trkpt lat="-3.0795470" lon="37.3593250">
    <ele>5804.1</ele>
    <time>2026-06-23T04:14:55Z</time>
   </trkpt>
   <trkpt lat="-3.0795460" lon="37.3593210">
    <ele>5804.2</ele>
    <time>2026-06-23T04:14:56Z</time>
   </trkpt>
   <trkpt lat="-3.0795450" lon="37.3593230">
    <ele>5804.2</ele>
    <time>2026-06-23T04:14:57Z</time>
   </trkpt>
   <trkpt lat="-3.0795440" lon="37.3593180">
    <ele>5804.4</ele>
    <time>2026-06-23T04:14:58Z</time>
   </trkpt>
   <trkpt lat="-3.0795440" lon="37.3593190">
    <ele>5804.4</ele>
    <time>2026-06-23T04:14:59Z</time>
   </trkpt>
   <trkpt lat="-3.0795440" lon="37.3593200">
    <ele>5804.4</ele>
    <time>2026-06-23T04:15:00Z</time>
   </trkpt>
   <trkpt lat="-3.0795430" lon="37.3593200">
    <ele>5804.4</ele>
    <time>2026-06-23T04:15:01Z</time>
   </trkpt>
   <trkpt lat="-3.0795430" lon="37.3593200">
    <ele>5804.4</ele>
    <time>2026-06-23T04:15:02Z</time>
   </trkpt>
   <trkpt lat="-3.0795430" lon="37.3593200">
    <ele>5804.4</ele>
    <time>2026-06-23T04:15:03Z</time>
   </trkpt>
   <trkpt lat="-3.0795430" lon="37.3593200">
    <ele>5804.4</ele>
    <time>2026-06-23T04:15:04Z</time>
   </trkpt>
   <trkpt lat="-3.0795430" lon="37.3593210">
    <ele>5804.5</ele>
    <time>2026-06-23T04:15:05Z</time>
   </trkpt>
   <trkpt lat="-3.0795430" lon="37.3593210">
    <ele>5804.5</ele>
    <time>2026-06-23T04:15:06Z</time>
   </trkpt>
   <trkpt lat="-3.0795430" lon="37.3593200">
    <ele>5804.5</ele>
    <time>2026-06-23T04:15:07Z</time>
   </trkpt>
   <trkpt lat="-3.0795440" lon="37.3593200">
    <ele>5804.5</ele>
    <time>2026-06-23T04:15:08Z</time>
   </trkpt>
   <trkpt lat="-3.0795440" lon="37.3593200">
    <ele>5804.5</ele>
    <time>2026-06-23T04:15:09Z</time>
   </trkpt>
   <trkpt lat="-3.0795430" lon="37.3593180">
    <ele>5804.5</ele>
    <time>2026-06-23T04:15:10Z</time>
   </trkpt>
   <trkpt lat="-3.0795440" lon="37.3593200">
    <ele>5804.6</ele>
    <time>2026-06-23T04:15:11Z</time>
   </trkpt>
   <trkpt lat="-3.0795430" lon="37.3593190">
    <ele>5804.6</ele>
    <time>2026-06-23T04:15:12Z</time>
   </trkpt>
   <trkpt lat="-3.0795440" lon="37.3593150">
    <ele>5804.7</ele>
    <time>2026-06-23T04:15:13Z</time>
   </trkpt>
   <trkpt lat="-3.0795430" lon="37.3593120">
    <ele>5804.8</ele>
    <time>2026-06-23T04:15:14Z</time>
   </trkpt>
   <trkpt lat="-3.0795420" lon="37.3593070">
    <ele>5804.9</ele>
    <time>2026-06-23T04:15:15Z</time>
   </trkpt>
   <trkpt lat="-3.0795410" lon="37.3593070">
    <ele>5804.9</ele>
    <time>2026-06-23T04:15:16Z</time>
   </trkpt>
   <trkpt lat="-3.0795410" lon="37.3593040">
    <ele>5805.0</ele>
    <time>2026-06-23T04:15:17Z</time>
   </trkpt>
   <trkpt lat="-3.0795400" lon="37.3593010">
    <ele>5805.1</ele>
    <time>2026-06-23T04:15:18Z</time>
   </trkpt>
   <trkpt lat="-3.0795410" lon="37.3592980">
    <ele>5805.1</ele>
    <time>2026-06-23T04:15:19Z</time>
   </trkpt>
   <trkpt lat="-3.0795410" lon="37.3592960">
    <ele>5805.2</ele>
    <time>2026-06-23T04:15:20Z</time>
   </trkpt>
   <trkpt lat="-3.0795410" lon="37.3592920">
    <ele>5805.3</ele>
    <time>2026-06-23T04:15:21Z</time>
   </trkpt>
   <trkpt lat="-3.0795400" lon="37.3592900">
    <ele>5805.3</ele>
    <time>2026-06-23T04:15:22Z</time>
   </trkpt>
   <trkpt lat="-3.0795410" lon="37.3592870">
    <ele>5805.4</ele>
    <time>2026-06-23T04:15:23Z</time>
   </trkpt>
   <trkpt lat="-3.0795400" lon="37.3592840">
    <ele>5805.5</ele>
    <time>2026-06-23T04:15:24Z</time>
   </trkpt>
   <trkpt lat="-3.0795410" lon="37.3592820">
    <ele>5805.5</ele>
    <time>2026-06-23T04:15:25Z</time>
   </trkpt>
   <trkpt lat="-3.0795400" lon="37.3592790">
    <ele>5805.6</ele>
    <time>2026-06-23T04:15:26Z</time>
   </trkpt>
   <trkpt lat="-3.0795410" lon="37.3592760">
    <ele>5805.7</ele>
    <time>2026-06-23T04:15:27Z</time>
   </trkpt>
   <trkpt lat="-3.0795410" lon="37.3592720">
    <ele>5805.8</ele>
    <time>2026-06-23T04:15:28Z</time>
   </trkpt>
   <trkpt lat="-3.0795400" lon="37.3592690">
    <ele>5805.8</ele>
    <time>2026-06-23T04:15:29Z</time>
   </trkpt>
   <trkpt lat="-3.0795410" lon="37.3592670">
    <ele>5805.9</ele>
    <time>2026-06-23T04:15:30Z</time>
   </trkpt>
   <trkpt lat="-3.0795400" lon="37.3592630">
    <ele>5806.0</ele>
    <time>2026-06-23T04:15:31Z</time>
   </trkpt>
   <trkpt lat="-3.0795410" lon="37.3592610">
    <ele>5806.0</ele>
    <time>2026-06-23T04:15:32Z</time>
   </trkpt>
   <trkpt lat="-3.0795410" lon="37.3592580">
    <ele>5806.1</ele>
    <time>2026-06-23T04:15:33Z</time>
   </trkpt>
   <trkpt lat="-3.0795420" lon="37.3592550">
    <ele>5806.2</ele>
    <time>2026-06-23T04:15:34Z</time>
   </trkpt>
   <trkpt lat="-3.0795420" lon="37.3592520">
    <ele>5806.2</ele>
    <time>2026-06-23T04:15:35Z</time>
   </trkpt>
   <trkpt lat="-3.0795440" lon="37.3592500">
    <ele>5806.3</ele>
    <time>2026-06-23T04:15:36Z</time>
   </trkpt>
   <trkpt lat="-3.0795440" lon="37.3592470">
    <ele>5806.4</ele>
    <time>2026-06-23T04:15:37Z</time>
   </trkpt>
   <trkpt lat="-3.0795470" lon="37.3592420">
    <ele>5806.5</ele>
    <time>2026-06-23T04:15:38Z</time>
   </trkpt>
   <trkpt lat="-3.0795470" lon="37.3592400">
    <ele>5806.5</ele>
    <time>2026-06-23T04:15:39Z</time>
   </trkpt>
   <trkpt lat="-3.0795470" lon="37.3592350">
    <ele>5806.7</ele>
    <time>2026-06-23T04:15:40Z</time>
   </trkpt>
   <trkpt lat="-3.0795490" lon="37.3592340">
    <ele>5806.7</ele>
    <time>2026-06-23T04:15:41Z</time>
   </trkpt>
   <trkpt lat="-3.0795500" lon="37.3592290">
    <ele>5806.8</ele>
    <time>2026-06-23T04:15:42Z</time>
   </trkpt>
   <trkpt lat="-3.0795500" lon="37.3592270">
    <ele>5806.9</ele>
    <time>2026-06-23T04:15:43Z</time>
   </trkpt>
   <trkpt lat="-3.0795520" lon="37.3592240">
    <ele>5807.0</ele>
    <time>2026-06-23T04:15:44Z</time>
   </trkpt>
   <trkpt lat="-3.0795520" lon="37.3592200">
    <ele>5807.0</ele>
    <time>2026-06-23T04:15:45Z</time>
   </trkpt>
   <trkpt lat="-3.0795530" lon="37.3592190">
    <ele>5807.1</ele>
    <time>2026-06-23T04:15:46Z</time>
   </trkpt>
   <trkpt lat="-3.0795540" lon="37.3592140">
    <ele>5807.2</ele>
    <time>2026-06-23T04:15:47Z</time>
   </trkpt>
   <trkpt lat="-3.0795540" lon="37.3592130">
    <ele>5807.2</ele>
    <time>2026-06-23T04:15:48Z</time>
   </trkpt>
   <trkpt lat="-3.0795540" lon="37.3592090">
    <ele>5807.3</ele>
    <time>2026-06-23T04:15:49Z</time>
   </trkpt>
   <trkpt lat="-3.0795530" lon="37.3592060">
    <ele>5807.4</ele>
    <time>2026-06-23T04:15:50Z</time>
   </trkpt>
   <trkpt lat="-3.0795540" lon="37.3592030">
    <ele>5807.5</ele>
    <time>2026-06-23T04:15:51Z</time>
   </trkpt>
   <trkpt lat="-3.0795530" lon="37.3592010">
    <ele>5807.5</ele>
    <time>2026-06-23T04:15:52Z</time>
   </trkpt>
   <trkpt lat="-3.0795530" lon="37.3591980">
    <ele>5807.6</ele>
    <time>2026-06-23T04:15:53Z</time>
   </trkpt>
   <trkpt lat="-3.0795540" lon="37.3591960">
    <ele>5807.6</ele>
    <time>2026-06-23T04:15:54Z</time>
   </trkpt>
   <trkpt lat="-3.0795530" lon="37.3591950">
    <ele>5807.7</ele>
    <time>2026-06-23T04:15:55Z</time>
   </trkpt>
   <trkpt lat="-3.0795530" lon="37.3591900">
    <ele>5807.8</ele>
    <time>2026-06-23T04:15:56Z</time>
   </trkpt>
   <trkpt lat="-3.0795530" lon="37.3591870">
    <ele>5807.9</ele>
    <time>2026-06-23T04:15:57Z</time>
   </trkpt>
   <trkpt lat="-3.0795530" lon="37.3591840">
    <ele>5807.9</ele>
    <time>2026-06-23T04:15:58Z</time>
   </trkpt>
   <trkpt lat="-3.0795530" lon="37.3591830">
    <ele>5807.9</ele>
    <time>2026-06-23T04:15:59Z</time>
   </trkpt>
   <trkpt lat="-3.0795530" lon="37.3591800">
    <ele>5808.0</ele>
    <time>2026-06-23T04:16:00Z</time>
   </trkpt>
   <trkpt lat="-3.0795530" lon="37.3591770">
    <ele>5808.1</ele>
    <time>2026-06-23T04:16:01Z</time>
   </trkpt>
   <trkpt lat="-3.0795520" lon="37.3591740">
    <ele>5808.2</ele>
    <time>2026-06-23T04:16:02Z</time>
   </trkpt>
   <trkpt lat="-3.0795520" lon="37.3591710">
    <ele>5808.2</ele>
    <time>2026-06-23T04:16:03Z</time>
   </trkpt>
   <trkpt lat="-3.0795510" lon="37.3591710">
    <ele>5808.2</ele>
    <time>2026-06-23T04:16:04Z</time>
   </trkpt>
   <trkpt lat="-3.0795500" lon="37.3591700">
    <ele>5808.3</ele>
    <time>2026-06-23T04:16:05Z</time>
   </trkpt>
   <trkpt lat="-3.0795500" lon="37.3591640">
    <ele>5808.4</ele>
    <time>2026-06-23T04:16:06Z</time>
   </trkpt>
   <trkpt lat="-3.0795510" lon="37.3591640">
    <ele>5808.4</ele>
    <time>2026-06-23T04:16:07Z</time>
   </trkpt>
   <trkpt lat="-3.0795520" lon="37.3591610">
    <ele>5808.5</ele>
    <time>2026-06-23T04:16:08Z</time>
   </trkpt>
   <trkpt lat="-3.0795520" lon="37.3591570">
    <ele>5808.6</ele>
    <time>2026-06-23T04:16:09Z</time>
   </trkpt>
   <trkpt lat="-3.0795520" lon="37.3591530">
    <ele>5808.7</ele>
    <time>2026-06-23T04:16:10Z</time>
   </trkpt>
   <trkpt lat="-3.0795510" lon="37.3591520">
    <ele>5808.7</ele>
    <time>2026-06-23T04:16:11Z</time>
   </trkpt>
   <trkpt lat="-3.0795500" lon="37.3591490">
    <ele>5808.8</ele>
    <time>2026-06-23T04:16:12Z</time>
   </trkpt>
   <trkpt lat="-3.0795500" lon="37.3591470">
    <ele>5808.9</ele>
    <time>2026-06-23T04:16:13Z</time>
   </trkpt>
   <trkpt lat="-3.0795500" lon="37.3591450">
    <ele>5808.9</ele>
    <time>2026-06-23T04:16:14Z</time>
   </trkpt>
   <trkpt lat="-3.0795490" lon="37.3591410">
    <ele>5809.0</ele>
    <time>2026-06-23T04:16:15Z</time>
   </trkpt>
   <trkpt lat="-3.0795500" lon="37.3591390">
    <ele>5809.1</ele>
    <time>2026-06-23T04:16:16Z</time>
   </trkpt>
   <trkpt lat="-3.0795490" lon="37.3591370">
    <ele>5809.1</ele>
    <time>2026-06-23T04:16:17Z</time>
   </trkpt>
   <trkpt lat="-3.0795500" lon="37.3591340">
    <ele>5809.2</ele>
    <time>2026-06-23T04:16:18Z</time>
   </trkpt>
   <trkpt lat="-3.0795500" lon="37.3591340">
    <ele>5809.2</ele>
    <time>2026-06-23T04:16:19Z</time>
   </trkpt>
   <trkpt lat="-3.0795500" lon="37.3591320">
    <ele>5809.2</ele>
    <time>2026-06-23T04:16:20Z</time>
   </trkpt>
   <trkpt lat="-3.0795500" lon="37.3591330">
    <ele>5809.2</ele>
    <time>2026-06-23T04:16:21Z</time>
   </trkpt>
   <trkpt lat="-3.0795510" lon="37.3591320">
    <ele>5809.3</ele>
    <time>2026-06-23T04:16:22Z</time>
   </trkpt>
   <trkpt lat="-3.0795510" lon="37.3591320">
    <ele>5809.3</ele>
    <time>2026-06-23T04:16:23Z</time>
   </trkpt>
   <trkpt lat="-3.0795510" lon="37.3591320">
    <ele>5809.3</ele>
    <time>2026-06-23T04:16:24Z</time>
   </trkpt>
   <trkpt lat="-3.0795500" lon="37.3591300">
    <ele>5809.3</ele>
    <time>2026-06-23T04:16:25Z</time>
   </trkpt>
   <trkpt lat="-3.0795510" lon="37.3591280">
    <ele>5809.4</ele>
    <time>2026-06-23T04:16:26Z</time>
   </trkpt>
   <trkpt lat="-3.0795500" lon="37.3591250">
    <ele>5809.5</ele>
    <time>2026-06-23T04:16:27Z</time>
   </trkpt>
   <trkpt lat="-3.0795510" lon="37.3591220">
    <ele>5809.5</ele>
    <time>2026-06-23T04:16:28Z</time>
   </trkpt>
   <trkpt lat="-3.0795500" lon="37.3591200">
    <ele>5809.6</ele>
    <time>2026-06-23T04:16:29Z</time>
   </trkpt>
   <trkpt lat="-3.0795510" lon="37.3591160">
    <ele>5809.7</ele>
    <time>2026-06-23T04:16:30Z</time>
   </trkpt>
   <trkpt lat="-3.0795510" lon="37.3591150">
    <ele>5809.7</ele>
    <time>2026-06-23T04:16:31Z</time>
   </trkpt>
   <trkpt lat="-3.0795510" lon="37.3591130">
    <ele>5809.7</ele>
    <time>2026-06-23T04:16:32Z</time>
   </trkpt>
   <trkpt lat="-3.0795510" lon="37.3591090">
    <ele>5809.8</ele>
    <time>2026-06-23T04:16:33Z</time>
   </trkpt>
   <trkpt lat="-3.0795510" lon="37.3591070">
    <ele>5809.9</ele>
    <time>2026-06-23T04:16:34Z</time>
   </trkpt>
   <trkpt lat="-3.0795520" lon="37.3591040">
    <ele>5810.0</ele>
    <time>2026-06-23T04:16:35Z</time>
   </trkpt>
   <trkpt lat="-3.0795510" lon="37.3591040">
    <ele>5810.0</ele>
    <time>2026-06-23T04:16:36Z</time>
   </trkpt>
   <trkpt lat="-3.0795510" lon="37.3591040">
    <ele>5810.0</ele>
    <time>2026-06-23T04:16:37Z</time>
   </trkpt>
   <trkpt lat="-3.0795500" lon="37.3591040">
    <ele>5810.0</ele>
    <time>2026-06-23T04:16:38Z</time>
   </trkpt>
   <trkpt lat="-3.0795500" lon="37.3591040">
    <ele>5810.0</ele>
    <time>2026-06-23T04:16:39Z</time>
   </trkpt>
   <trkpt lat="-3.0795500" lon="37.3591040">
    <ele>5810.0</ele>
    <time>2026-06-23T04:16:40Z</time>
   </trkpt>
   <trkpt lat="-3.0795500" lon="37.3591040">
    <ele>5810.0</ele>
    <time>2026-06-23T04:16:41Z</time>
   </trkpt>
   <trkpt lat="-3.0795500" lon="37.3591040">
    <ele>5810.0</ele>
    <time>2026-06-23T04:16:42Z</time>
   </trkpt>
   <trkpt lat="-3.0795500" lon="37.3591030">
    <ele>5810.0</ele>
    <time>2026-06-23T04:16:43Z</time>
   </trkpt>
   <trkpt lat="-3.0795510" lon="37.3591020">
    <ele>5810.1</ele>
    <time>2026-06-23T04:16:44Z</time>
   </trkpt>
   <trkpt lat="-3.0795510" lon="37.3591030">
    <ele>5810.1</ele>
    <time>2026-06-23T04:16:45Z</time>
   </trkpt>
   <trkpt lat="-3.0795510" lon="37.3591020">
    <ele>5810.1</ele>
    <time>2026-06-23T04:16:46Z</time>
   </trkpt>
   <trkpt lat="-3.0795500" lon="37.3591020">
    <ele>5810.1</ele>
    <time>2026-06-23T04:16:47Z</time>
   </trkpt>
   <trkpt lat="-3.0795510" lon="37.3590960">
    <ele>5810.3</ele>
    <time>2026-06-23T04:16:48Z</time>
   </trkpt>
   <trkpt lat="-3.0795510" lon="37.3590940">
    <ele>5810.3</ele>
    <time>2026-06-23T04:16:49Z</time>
   </trkpt>
   <trkpt lat="-3.0795520" lon="37.3590900">
    <ele>5810.4</ele>
    <time>2026-06-23T04:16:50Z</time>
   </trkpt>
   <trkpt lat="-3.0795520" lon="37.3590840">
    <ele>5810.6</ele>
    <time>2026-06-23T04:16:51Z</time>
   </trkpt>
   <trkpt lat="-3.0795520" lon="37.3590840">
    <ele>5810.6</ele>
    <time>2026-06-23T04:16:52Z</time>
   </trkpt>
   <trkpt lat="-3.0795530" lon="37.3590800">
    <ele>5810.6</ele>
    <time>2026-06-23T04:16:53Z</time>
   </trkpt>
   <trkpt lat="-3.0795520" lon="37.3590780">
    <ele>5810.7</ele>
    <time>2026-06-23T04:16:54Z</time>
   </trkpt>
   <trkpt lat="-3.0795530" lon="37.3590750">
    <ele>5810.8</ele>
    <time>2026-06-23T04:16:55Z</time>
   </trkpt>
   <trkpt lat="-3.0795520" lon="37.3590720">
    <ele>5810.8</ele>
    <time>2026-06-23T04:16:56Z</time>
   </trkpt>
   <trkpt lat="-3.0795520" lon="37.3590710">
    <ele>5810.9</ele>
    <time>2026-06-23T04:16:57Z</time>
   </trkpt>
   <trkpt lat="-3.0795510" lon="37.3590680">
    <ele>5810.9</ele>
    <time>2026-06-23T04:16:58Z</time>
   </trkpt>
   <trkpt lat="-3.0795510" lon="37.3590630">
    <ele>5811.1</ele>
    <time>2026-06-23T04:16:59Z</time>
   </trkpt>
   <trkpt lat="-3.0795500" lon="37.3590610">
    <ele>5811.1</ele>
    <time>2026-06-23T04:17:00Z</time>
   </trkpt>
   <trkpt lat="-3.0795510" lon="37.3590580">
    <ele>5811.2</ele>
    <time>2026-06-23T04:17:01Z</time>
   </trkpt>
   <trkpt lat="-3.0795500" lon="37.3590550">
    <ele>5811.3</ele>
    <time>2026-06-23T04:17:02Z</time>
   </trkpt>
   <trkpt lat="-3.0795490" lon="37.3590530">
    <ele>5811.3</ele>
    <time>2026-06-23T04:17:03Z</time>
   </trkpt>
   <trkpt lat="-3.0795500" lon="37.3590490">
    <ele>5811.4</ele>
    <time>2026-06-23T04:17:04Z</time>
   </trkpt>
   <trkpt lat="-3.0795490" lon="37.3590470">
    <ele>5811.5</ele>
    <time>2026-06-23T04:17:05Z</time>
   </trkpt>
   <trkpt lat="-3.0795500" lon="37.3590420">
    <ele>5811.6</ele>
    <time>2026-06-23T04:17:06Z</time>
   </trkpt>
   <trkpt lat="-3.0795490" lon="37.3590390">
    <ele>5811.7</ele>
    <time>2026-06-23T04:17:07Z</time>
   </trkpt>
   <trkpt lat="-3.0795490" lon="37.3590370">
    <ele>5811.7</ele>
    <time>2026-06-23T04:17:08Z</time>
   </trkpt>
   <trkpt lat="-3.0795490" lon="37.3590320">
    <ele>5811.8</ele>
    <time>2026-06-23T04:17:09Z</time>
   </trkpt>
   <trkpt lat="-3.0795480" lon="37.3590310">
    <ele>5811.9</ele>
    <time>2026-06-23T04:17:10Z</time>
   </trkpt>
   <trkpt lat="-3.0795470" lon="37.3590270">
    <ele>5812.0</ele>
    <time>2026-06-23T04:17:11Z</time>
   </trkpt>
   <trkpt lat="-3.0795460" lon="37.3590240">
    <ele>5812.0</ele>
    <time>2026-06-23T04:17:12Z</time>
   </trkpt>
   <trkpt lat="-3.0795460" lon="37.3590200">
    <ele>5812.1</ele>
    <time>2026-06-23T04:17:13Z</time>
   </trkpt>
   <trkpt lat="-3.0795450" lon="37.3590170">
    <ele>5812.2</ele>
    <time>2026-06-23T04:17:14Z</time>
   </trkpt>
   <trkpt lat="-3.0795460" lon="37.3590120">
    <ele>5812.3</ele>
    <time>2026-06-23T04:17:15Z</time>
   </trkpt>
   <trkpt lat="-3.0795470" lon="37.3590090">
    <ele>5812.4</ele>
    <time>2026-06-23T04:17:16Z</time>
   </trkpt>
   <trkpt lat="-3.0795470" lon="37.3590070">
    <ele>5812.5</ele>
    <time>2026-06-23T04:17:17Z</time>
   </trkpt>
   <trkpt lat="-3.0795470" lon="37.3590020">
    <ele>5812.6</ele>
    <time>2026-06-23T04:17:18Z</time>
   </trkpt>
   <trkpt lat="-3.0795460" lon="37.3590060">
    <ele>5812.7</ele>
    <time>2026-06-23T04:17:19Z</time>
   </trkpt>
   <trkpt lat="-3.0795460" lon="37.3589990">
    <ele>5812.9</ele>
    <time>2026-06-23T04:17:20Z</time>
   </trkpt>
   <trkpt lat="-3.0795470" lon="37.3589980">
    <ele>5812.9</ele>
    <time>2026-06-23T04:17:21Z</time>
   </trkpt>
   <trkpt lat="-3.0795460" lon="37.3589950">
    <ele>5813.0</ele>
    <time>2026-06-23T04:17:22Z</time>
   </trkpt>
   <trkpt lat="-3.0795470" lon="37.3589930">
    <ele>5813.0</ele>
    <time>2026-06-23T04:17:23Z</time>
   </trkpt>
   <trkpt lat="-3.0795470" lon="37.3589890">
    <ele>5813.1</ele>
    <time>2026-06-23T04:17:24Z</time>
   </trkpt>
   <trkpt lat="-3.0795470" lon="37.3589870">
    <ele>5813.2</ele>
    <time>2026-06-23T04:17:25Z</time>
   </trkpt>
   <trkpt lat="-3.0795470" lon="37.3589840">
    <ele>5813.2</ele>
    <time>2026-06-23T04:17:26Z</time>
   </trkpt>
   <trkpt lat="-3.0795470" lon="37.3589830">
    <ele>5813.3</ele>
    <time>2026-06-23T04:17:27Z</time>
   </trkpt>
   <trkpt lat="-3.0795460" lon="37.3589820">
    <ele>5813.3</ele>
    <time>2026-06-23T04:17:28Z</time>
   </trkpt>
   <trkpt lat="-3.0795460" lon="37.3589800">
    <ele>5813.3</ele>
    <time>2026-06-23T04:17:29Z</time>
   </trkpt>
   <trkpt lat="-3.0795460" lon="37.3589790">
    <ele>5813.4</ele>
    <time>2026-06-23T04:17:30Z</time>
   </trkpt>
   <trkpt lat="-3.0795460" lon="37.3589770">
    <ele>5813.4</ele>
    <time>2026-06-23T04:17:31Z</time>
   </trkpt>
   <trkpt lat="-3.0795450" lon="37.3589770">
    <ele>5813.4</ele>
    <time>2026-06-23T04:17:32Z</time>
   </trkpt>
   <trkpt lat="-3.0795460" lon="37.3589750">
    <ele>5813.5</ele>
    <time>2026-06-23T04:17:33Z</time>
   </trkpt>
   <trkpt lat="-3.0795450" lon="37.3589740">
    <ele>5813.5</ele>
    <time>2026-06-23T04:17:34Z</time>
   </trkpt>
   <trkpt lat="-3.0795460" lon="37.3589690">
    <ele>5813.7</ele>
    <time>2026-06-23T04:17:35Z</time>
   </trkpt>
   <trkpt lat="-3.0795440" lon="37.3589650">
    <ele>5813.8</ele>
    <time>2026-06-23T04:17:36Z</time>
   </trkpt>
   <trkpt lat="-3.0795450" lon="37.3589640">
    <ele>5813.8</ele>
    <time>2026-06-23T04:17:37Z</time>
   </trkpt>
   <trkpt lat="-3.0795450" lon="37.3589600">
    <ele>5813.9</ele>
    <time>2026-06-23T04:17:38Z</time>
   </trkpt>
   <trkpt lat="-3.0795440" lon="37.3589580">
    <ele>5814.0</ele>
    <time>2026-06-23T04:17:39Z</time>
   </trkpt>
   <trkpt lat="-3.0795420" lon="37.3589560">
    <ele>5814.0</ele>
    <time>2026-06-23T04:17:40Z</time>
   </trkpt>
   <trkpt lat="-3.0795430" lon="37.3589530">
    <ele>5814.1</ele>
    <time>2026-06-23T04:17:41Z</time>
   </trkpt>
   <trkpt lat="-3.0795410" lon="37.3589510">
    <ele>5814.2</ele>
    <time>2026-06-23T04:17:42Z</time>
   </trkpt>
   <trkpt lat="-3.0795390" lon="37.3589480">
    <ele>5814.3</ele>
    <time>2026-06-23T04:17:43Z</time>
   </trkpt>
   <trkpt lat="-3.0795380" lon="37.3589460">
    <ele>5814.3</ele>
    <time>2026-06-23T04:17:44Z</time>
   </trkpt>
   <trkpt lat="-3.0795360" lon="37.3589460">
    <ele>5814.4</ele>
    <time>2026-06-23T04:17:45Z</time>
   </trkpt>
   <trkpt lat="-3.0795350" lon="37.3589460">
    <ele>5814.4</ele>
    <time>2026-06-23T04:17:46Z</time>
   </trkpt>
   <trkpt lat="-3.0795340" lon="37.3589420">
    <ele>5814.5</ele>
    <time>2026-06-23T04:17:47Z</time>
   </trkpt>
   <trkpt lat="-3.0795310" lon="37.3589400">
    <ele>5814.6</ele>
    <time>2026-06-23T04:17:48Z</time>
   </trkpt>
   <trkpt lat="-3.0795290" lon="37.3589360">
    <ele>5814.7</ele>
    <time>2026-06-23T04:17:49Z</time>
   </trkpt>
   <trkpt lat="-3.0795290" lon="37.3589330">
    <ele>5814.8</ele>
    <time>2026-06-23T04:17:50Z</time>
   </trkpt>
   <trkpt lat="-3.0795300" lon="37.3589330">
    <ele>5814.8</ele>
    <time>2026-06-23T04:17:51Z</time>
   </trkpt>
   <trkpt lat="-3.0795290" lon="37.3589320">
    <ele>5814.9</ele>
    <time>2026-06-23T04:17:52Z</time>
   </trkpt>
   <trkpt lat="-3.0795290" lon="37.3589300">
    <ele>5814.9</ele>
    <time>2026-06-23T04:17:53Z</time>
   </trkpt>
   <trkpt lat="-3.0795290" lon="37.3589310">
    <ele>5814.9</ele>
    <time>2026-06-23T04:17:54Z</time>
   </trkpt>
   <trkpt lat="-3.0795290" lon="37.3589320">
    <ele>5815.0</ele>
    <time>2026-06-23T04:17:55Z</time>
   </trkpt>
   <trkpt lat="-3.0795290" lon="37.3589310">
    <ele>5815.0</ele>
    <time>2026-06-23T04:17:56Z</time>
   </trkpt>
   <trkpt lat="-3.0795290" lon="37.3589300">
    <ele>5815.0</ele>
    <time>2026-06-23T04:17:57Z</time>
   </trkpt>
   <trkpt lat="-3.0795300" lon="37.3589300">
    <ele>5815.0</ele>
    <time>2026-06-23T04:17:58Z</time>
   </trkpt>
   <trkpt lat="-3.0795300" lon="37.3589290">
    <ele>5815.1</ele>
    <time>2026-06-23T04:17:59Z</time>
   </trkpt>
   <trkpt lat="-3.0795310" lon="37.3589280">
    <ele>5815.1</ele>
    <time>2026-06-23T04:18:00Z</time>
   </trkpt>
   <trkpt lat="-3.0795300" lon="37.3589240">
    <ele>5815.2</ele>
    <time>2026-06-23T04:18:01Z</time>
   </trkpt>
   <trkpt lat="-3.0795310" lon="37.3589220">
    <ele>5815.2</ele>
    <time>2026-06-23T04:18:02Z</time>
   </trkpt>
   <trkpt lat="-3.0795290" lon="37.3589210">
    <ele>5815.3</ele>
    <time>2026-06-23T04:18:03Z</time>
   </trkpt>
   <trkpt lat="-3.0795280" lon="37.3589190">
    <ele>5815.4</ele>
    <time>2026-06-23T04:18:04Z</time>
   </trkpt>
   <trkpt lat="-3.0795270" lon="37.3589150">
    <ele>5815.5</ele>
    <time>2026-06-23T04:18:05Z</time>
   </trkpt>
   <trkpt lat="-3.0795260" lon="37.3589160">
    <ele>5815.5</ele>
    <time>2026-06-23T04:18:06Z</time>
   </trkpt>
   <trkpt lat="-3.0795240" lon="37.3589130">
    <ele>5815.6</ele>
    <time>2026-06-23T04:18:07Z</time>
   </trkpt>
   <trkpt lat="-3.0795240" lon="37.3589120">
    <ele>5815.6</ele>
    <time>2026-06-23T04:18:08Z</time>
   </trkpt>
   <trkpt lat="-3.0795230" lon="37.3589110">
    <ele>5815.7</ele>
    <time>2026-06-23T04:18:09Z</time>
   </trkpt>
   <trkpt lat="-3.0795220" lon="37.3589080">
    <ele>5815.7</ele>
    <time>2026-06-23T04:18:10Z</time>
   </trkpt>
   <trkpt lat="-3.0795210" lon="37.3589050">
    <ele>5815.8</ele>
    <time>2026-06-23T04:18:11Z</time>
   </trkpt>
   <trkpt lat="-3.0795210" lon="37.3589060">
    <ele>5815.8</ele>
    <time>2026-06-23T04:18:12Z</time>
   </trkpt>
   <trkpt lat="-3.0795200" lon="37.3589070">
    <ele>5815.9</ele>
    <time>2026-06-23T04:18:13Z</time>
   </trkpt>
   <trkpt lat="-3.0795210" lon="37.3589060">
    <ele>5815.9</ele>
    <time>2026-06-23T04:18:14Z</time>
   </trkpt>
   <trkpt lat="-3.0795200" lon="37.3589020">
    <ele>5816.0</ele>
    <time>2026-06-23T04:18:15Z</time>
   </trkpt>
   <trkpt lat="-3.0795200" lon="37.3588970">
    <ele>5816.1</ele>
    <time>2026-06-23T04:18:16Z</time>
   </trkpt>
   <trkpt lat="-3.0795210" lon="37.3588970">
    <ele>5816.2</ele>
    <time>2026-06-23T04:18:17Z</time>
   </trkpt>
   <trkpt lat="-3.0795200" lon="37.3588940">
    <ele>5816.2</ele>
    <time>2026-06-23T04:18:18Z</time>
   </trkpt>
   <trkpt lat="-3.0795170" lon="37.3588900">
    <ele>5816.4</ele>
    <time>2026-06-23T04:18:19Z</time>
   </trkpt>
   <trkpt lat="-3.0795150" lon="37.3588890">
    <ele>5816.4</ele>
    <time>2026-06-23T04:18:20Z</time>
   </trkpt>
   <trkpt lat="-3.0795130" lon="37.3588890">
    <ele>5816.5</ele>
    <time>2026-06-23T04:18:21Z</time>
   </trkpt>
   <trkpt lat="-3.0795110" lon="37.3588880">
    <ele>5816.5</ele>
    <time>2026-06-23T04:18:22Z</time>
   </trkpt>
   <trkpt lat="-3.0795070" lon="37.3588860">
    <ele>5816.6</ele>
    <time>2026-06-23T04:18:23Z</time>
   </trkpt>
   <trkpt lat="-3.0795030" lon="37.3588840">
    <ele>5816.8</ele>
    <time>2026-06-23T04:18:24Z</time>
   </trkpt>
   <trkpt lat="-3.0795010" lon="37.3588860">
    <ele>5816.8</ele>
    <time>2026-06-23T04:18:25Z</time>
   </trkpt>
   <trkpt lat="-3.0794980" lon="37.3588830">
    <ele>5816.9</ele>
    <time>2026-06-23T04:18:26Z</time>
   </trkpt>
   <trkpt lat="-3.0794960" lon="37.3588850">
    <ele>5817.0</ele>
    <time>2026-06-23T04:18:27Z</time>
   </trkpt>
   <trkpt lat="-3.0794940" lon="37.3588820">
    <ele>5817.1</ele>
    <time>2026-06-23T04:18:28Z</time>
   </trkpt>
   <trkpt lat="-3.0794920" lon="37.3588820">
    <ele>5817.1</ele>
    <time>2026-06-23T04:18:29Z</time>
   </trkpt>
   <trkpt lat="-3.0794910" lon="37.3588820">
    <ele>5817.2</ele>
    <time>2026-06-23T04:18:30Z</time>
   </trkpt>
   <trkpt lat="-3.0794900" lon="37.3588790">
    <ele>5817.3</ele>
    <time>2026-06-23T04:18:31Z</time>
   </trkpt>
   <trkpt lat="-3.0794890" lon="37.3588780">
    <ele>5817.3</ele>
    <time>2026-06-23T04:18:32Z</time>
   </trkpt>
   <trkpt lat="-3.0794870" lon="37.3588770">
    <ele>5817.3</ele>
    <time>2026-06-23T04:18:33Z</time>
   </trkpt>
   <trkpt lat="-3.0794840" lon="37.3588750">
    <ele>5817.4</ele>
    <time>2026-06-23T04:18:34Z</time>
   </trkpt>
   <trkpt lat="-3.0794800" lon="37.3588730">
    <ele>5817.5</ele>
    <time>2026-06-23T04:18:35Z</time>
   </trkpt>
   <trkpt lat="-3.0794810" lon="37.3588750">
    <ele>5817.6</ele>
    <time>2026-06-23T04:18:36Z</time>
   </trkpt>
   <trkpt lat="-3.0794790" lon="37.3588730">
    <ele>5817.7</ele>
    <time>2026-06-23T04:18:37Z</time>
   </trkpt>
   <trkpt lat="-3.0794760" lon="37.3588720">
    <ele>5817.8</ele>
    <time>2026-06-23T04:18:38Z</time>
   </trkpt>
   <trkpt lat="-3.0794740" lon="37.3588720">
    <ele>5817.8</ele>
    <time>2026-06-23T04:18:39Z</time>
   </trkpt>
   <trkpt lat="-3.0794700" lon="37.3588740">
    <ele>5817.9</ele>
    <time>2026-06-23T04:18:40Z</time>
   </trkpt>
   <trkpt lat="-3.0794680" lon="37.3588770">
    <ele>5818.0</ele>
    <time>2026-06-23T04:18:41Z</time>
   </trkpt>
   <trkpt lat="-3.0794650" lon="37.3588760">
    <ele>5818.1</ele>
    <time>2026-06-23T04:18:42Z</time>
   </trkpt>
   <trkpt lat="-3.0794600" lon="37.3588770">
    <ele>5818.2</ele>
    <time>2026-06-23T04:18:43Z</time>
   </trkpt>
   <trkpt lat="-3.0794570" lon="37.3588770">
    <ele>5818.3</ele>
    <time>2026-06-23T04:18:44Z</time>
   </trkpt>
   <trkpt lat="-3.0794550" lon="37.3588790">
    <ele>5818.3</ele>
    <time>2026-06-23T04:18:45Z</time>
   </trkpt>
   <trkpt lat="-3.0794520" lon="37.3588740">
    <ele>5818.5</ele>
    <time>2026-06-23T04:18:46Z</time>
   </trkpt>
   <trkpt lat="-3.0794510" lon="37.3588730">
    <ele>5818.5</ele>
    <time>2026-06-23T04:18:47Z</time>
   </trkpt>
   <trkpt lat="-3.0794510" lon="37.3588700">
    <ele>5818.6</ele>
    <time>2026-06-23T04:18:48Z</time>
   </trkpt>
   <trkpt lat="-3.0794490" lon="37.3588680">
    <ele>5818.6</ele>
    <time>2026-06-23T04:18:49Z</time>
   </trkpt>
   <trkpt lat="-3.0794490" lon="37.3588640">
    <ele>5818.7</ele>
    <time>2026-06-23T04:18:50Z</time>
   </trkpt>
   <trkpt lat="-3.0794480" lon="37.3588630">
    <ele>5818.8</ele>
    <time>2026-06-23T04:18:51Z</time>
   </trkpt>
   <trkpt lat="-3.0794460" lon="37.3588620">
    <ele>5818.8</ele>
    <time>2026-06-23T04:18:52Z</time>
   </trkpt>
   <trkpt lat="-3.0794440" lon="37.3588600">
    <ele>5818.9</ele>
    <time>2026-06-23T04:18:53Z</time>
   </trkpt>
   <trkpt lat="-3.0794440" lon="37.3588630">
    <ele>5818.9</ele>
    <time>2026-06-23T04:18:54Z</time>
   </trkpt>
   <trkpt lat="-3.0794440" lon="37.3588630">
    <ele>5818.9</ele>
    <time>2026-06-23T04:18:55Z</time>
   </trkpt>
   <trkpt lat="-3.0794440" lon="37.3588630">
    <ele>5818.9</ele>
    <time>2026-06-23T04:18:56Z</time>
   </trkpt>
   <trkpt lat="-3.0794440" lon="37.3588570">
    <ele>5819.1</ele>
    <time>2026-06-23T04:18:57Z</time>
   </trkpt>
   <trkpt lat="-3.0794420" lon="37.3588550">
    <ele>5819.1</ele>
    <time>2026-06-23T04:18:58Z</time>
   </trkpt>
   <trkpt lat="-3.0794410" lon="37.3588550">
    <ele>5819.2</ele>
    <time>2026-06-23T04:18:59Z</time>
   </trkpt>
   <trkpt lat="-3.0794400" lon="37.3588560">
    <ele>5819.2</ele>
    <time>2026-06-23T04:19:00Z</time>
   </trkpt>
   <trkpt lat="-3.0794390" lon="37.3588530">
    <ele>5819.3</ele>
    <time>2026-06-23T04:19:01Z</time>
   </trkpt>
   <trkpt lat="-3.0794390" lon="37.3588550">
    <ele>5819.3</ele>
    <time>2026-06-23T04:19:02Z</time>
   </trkpt>
   <trkpt lat="-3.0794390" lon="37.3588530">
    <ele>5819.4</ele>
    <time>2026-06-23T04:19:03Z</time>
   </trkpt>
   <trkpt lat="-3.0794400" lon="37.3588530">
    <ele>5819.4</ele>
    <time>2026-06-23T04:19:04Z</time>
   </trkpt>
   <trkpt lat="-3.0794390" lon="37.3588530">
    <ele>5819.4</ele>
    <time>2026-06-23T04:19:05Z</time>
   </trkpt>
   <trkpt lat="-3.0794400" lon="37.3588530">
    <ele>5819.4</ele>
    <time>2026-06-23T04:19:06Z</time>
   </trkpt>
   <trkpt lat="-3.0794400" lon="37.3588520">
    <ele>5819.5</ele>
    <time>2026-06-23T04:19:07Z</time>
   </trkpt>
   <trkpt lat="-3.0794400" lon="37.3588520">
    <ele>5819.5</ele>
    <time>2026-06-23T04:19:08Z</time>
   </trkpt>
   <trkpt lat="-3.0794380" lon="37.3588520">
    <ele>5819.5</ele>
    <time>2026-06-23T04:19:09Z</time>
   </trkpt>
   <trkpt lat="-3.0794380" lon="37.3588510">
    <ele>5819.5</ele>
    <time>2026-06-23T04:19:10Z</time>
   </trkpt>
   <trkpt lat="-3.0794370" lon="37.3588500">
    <ele>5819.6</ele>
    <time>2026-06-23T04:19:11Z</time>
   </trkpt>
   <trkpt lat="-3.0794370" lon="37.3588460">
    <ele>5819.7</ele>
    <time>2026-06-23T04:19:12Z</time>
   </trkpt>
   <trkpt lat="-3.0794370" lon="37.3588460">
    <ele>5819.7</ele>
    <time>2026-06-23T04:19:13Z</time>
   </trkpt>
   <trkpt lat="-3.0794370" lon="37.3588470">
    <ele>5819.7</ele>
    <time>2026-06-23T04:19:14Z</time>
   </trkpt>
   <trkpt lat="-3.0794370" lon="37.3588470">
    <ele>5819.7</ele>
    <time>2026-06-23T04:19:15Z</time>
   </trkpt>
   <trkpt lat="-3.0794380" lon="37.3588460">
    <ele>5819.7</ele>
    <time>2026-06-23T04:19:16Z</time>
   </trkpt>
   <trkpt lat="-3.0794370" lon="37.3588470">
    <ele>5819.8</ele>
    <time>2026-06-23T04:19:17Z</time>
   </trkpt>
   <trkpt lat="-3.0794370" lon="37.3588470">
    <ele>5819.8</ele>
    <time>2026-06-23T04:19:18Z</time>
   </trkpt>
   <trkpt lat="-3.0794360" lon="37.3588470">
    <ele>5819.8</ele>
    <time>2026-06-23T04:19:19Z</time>
   </trkpt>
   <trkpt lat="-3.0794360" lon="37.3588470">
    <ele>5819.8</ele>
    <time>2026-06-23T04:19:20Z</time>
   </trkpt>
   <trkpt lat="-3.0794360" lon="37.3588470">
    <ele>5819.8</ele>
    <time>2026-06-23T04:19:21Z</time>
   </trkpt>
   <trkpt lat="-3.0794360" lon="37.3588470">
    <ele>5819.8</ele>
    <time>2026-06-23T04:19:22Z</time>
   </trkpt>
   <trkpt lat="-3.0794350" lon="37.3588470">
    <ele>5819.8</ele>
    <time>2026-06-23T04:19:23Z</time>
   </trkpt>
   <trkpt lat="-3.0794350" lon="37.3588480">
    <ele>5819.8</ele>
    <time>2026-06-23T04:19:24Z</time>
   </trkpt>
   <trkpt lat="-3.0794350" lon="37.3588470">
    <ele>5819.8</ele>
    <time>2026-06-23T04:19:25Z</time>
   </trkpt>
   <trkpt lat="-3.0794340" lon="37.3588480">
    <ele>5819.9</ele>
    <time>2026-06-23T04:19:26Z</time>
   </trkpt>
   <trkpt lat="-3.0794340" lon="37.3588470">
    <ele>5819.9</ele>
    <time>2026-06-23T04:19:27Z</time>
   </trkpt>
   <trkpt lat="-3.0794340" lon="37.3588480">
    <ele>5819.9</ele>
    <time>2026-06-23T04:19:28Z</time>
   </trkpt>
   <trkpt lat="-3.0794340" lon="37.3588480">
    <ele>5819.9</ele>
    <time>2026-06-23T04:19:29Z</time>
   </trkpt>
   <trkpt lat="-3.0794340" lon="37.3588480">
    <ele>5819.9</ele>
    <time>2026-06-23T04:19:30Z</time>
   </trkpt>
   <trkpt lat="-3.0794340" lon="37.3588480">
    <ele>5819.9</ele>
    <time>2026-06-23T04:19:31Z</time>
   </trkpt>
   <trkpt lat="-3.0794340" lon="37.3588480">
    <ele>5819.9</ele>
    <time>2026-06-23T04:19:32Z</time>
   </trkpt>
   <trkpt lat="-3.0794340" lon="37.3588480">
    <ele>5819.9</ele>
    <time>2026-06-23T04:19:33Z</time>
   </trkpt>
   <trkpt lat="-3.0794330" lon="37.3588470">
    <ele>5820.0</ele>
    <time>2026-06-23T04:19:34Z</time>
   </trkpt>
   <trkpt lat="-3.0794330" lon="37.3588470">
    <ele>5820.0</ele>
    <time>2026-06-23T04:19:35Z</time>
   </trkpt>
   <trkpt lat="-3.0794320" lon="37.3588480">
    <ele>5820.0</ele>
    <time>2026-06-23T04:19:36Z</time>
   </trkpt>
   <trkpt lat="-3.0794340" lon="37.3588500">
    <ele>5820.1</ele>
    <time>2026-06-23T04:19:37Z</time>
   </trkpt>
   <trkpt lat="-3.0794340" lon="37.3588500">
    <ele>5820.1</ele>
    <time>2026-06-23T04:19:38Z</time>
   </trkpt>
   <trkpt lat="-3.0794340" lon="37.3588500">
    <ele>5820.1</ele>
    <time>2026-06-23T04:19:39Z</time>
   </trkpt>
   <trkpt lat="-3.0794330" lon="37.3588500">
    <ele>5820.1</ele>
    <time>2026-06-23T04:19:40Z</time>
   </trkpt>
   <trkpt lat="-3.0794320" lon="37.3588510">
    <ele>5820.1</ele>
    <time>2026-06-23T04:19:41Z</time>
   </trkpt>
   <trkpt lat="-3.0794320" lon="37.3588510">
    <ele>5820.1</ele>
    <time>2026-06-23T04:19:42Z</time>
   </trkpt>
   <trkpt lat="-3.0794320" lon="37.3588520">
    <ele>5820.1</ele>
    <time>2026-06-23T04:19:43Z</time>
   </trkpt>
   <trkpt lat="-3.0794320" lon="37.3588520">
    <ele>5820.1</ele>
    <time>2026-06-23T04:19:44Z</time>
   </trkpt>
   <trkpt lat="-3.0794320" lon="37.3588520">
    <ele>5820.1</ele>
    <time>2026-06-23T04:19:45Z</time>
   </trkpt>
   <trkpt lat="-3.0794320" lon="37.3588530">
    <ele>5820.2</ele>
    <time>2026-06-23T04:19:46Z</time>
   </trkpt>
   <trkpt lat="-3.0794320" lon="37.3588530">
    <ele>5820.2</ele>
    <time>2026-06-23T04:19:47Z</time>
   </trkpt>
   <trkpt lat="-3.0794320" lon="37.3588530">
    <ele>5820.2</ele>
    <time>2026-06-23T04:19:48Z</time>
   </trkpt>
   <trkpt lat="-3.0794320" lon="37.3588530">
    <ele>5820.2</ele>
    <time>2026-06-23T04:19:49Z</time>
   </trkpt>
   <trkpt lat="-3.0794320" lon="37.3588520">
    <ele>5820.2</ele>
    <time>2026-06-23T04:19:50Z</time>
   </trkpt>
   <trkpt lat="-3.0794320" lon="37.3588530">
    <ele>5820.2</ele>
    <time>2026-06-23T04:19:51Z</time>
   </trkpt>
   <trkpt lat="-3.0794320" lon="37.3588510">
    <ele>5820.3</ele>
    <time>2026-06-23T04:19:52Z</time>
   </trkpt>
   <trkpt lat="-3.0794320" lon="37.3588470">
    <ele>5820.3</ele>
    <time>2026-06-23T04:19:53Z</time>
   </trkpt>
   <trkpt lat="-3.0794320" lon="37.3588480">
    <ele>5820.4</ele>
    <time>2026-06-23T04:19:54Z</time>
   </trkpt>
   <trkpt lat="-3.0794320" lon="37.3588490">
    <ele>5820.4</ele>
    <time>2026-06-23T04:19:55Z</time>
   </trkpt>
   <trkpt lat="-3.0794320" lon="37.3588490">
    <ele>5820.4</ele>
    <time>2026-06-23T04:19:56Z</time>
   </trkpt>
   <trkpt lat="-3.0794320" lon="37.3588480">
    <ele>5820.4</ele>
    <time>2026-06-23T04:19:57Z</time>
   </trkpt>
   <trkpt lat="-3.0794330" lon="37.3588470">
    <ele>5820.4</ele>
    <time>2026-06-23T04:19:58Z</time>
   </trkpt>
   <trkpt lat="-3.0794330" lon="37.3588480">
    <ele>5820.5</ele>
    <time>2026-06-23T04:19:59Z</time>
   </trkpt>
   <trkpt lat="-3.0794330" lon="37.3588480">
    <ele>5820.5</ele>
    <time>2026-06-23T04:20:00Z</time>
   </trkpt>
   <trkpt lat="-3.0794330" lon="37.3588480">
    <ele>5820.5</ele>
    <time>2026-06-23T04:20:01Z</time>
   </trkpt>
   <trkpt lat="-3.0794320" lon="37.3588480">
    <ele>5820.5</ele>
    <time>2026-06-23T04:20:02Z</time>
   </trkpt>
   <trkpt lat="-3.0794320" lon="37.3588470">
    <ele>5820.5</ele>
    <time>2026-06-23T04:20:03Z</time>
   </trkpt>
   <trkpt lat="-3.0794320" lon="37.3588480">
    <ele>5820.5</ele>
    <time>2026-06-23T04:20:04Z</time>
   </trkpt>
   <trkpt lat="-3.0794320" lon="37.3588480">
    <ele>5820.5</ele>
    <time>2026-06-23T04:20:05Z</time>
   </trkpt>
   <trkpt lat="-3.0794310" lon="37.3588480">
    <ele>5820.5</ele>
    <time>2026-06-23T04:20:06Z</time>
   </trkpt>
   <trkpt lat="-3.0794310" lon="37.3588480">
    <ele>5820.5</ele>
    <time>2026-06-23T04:20:07Z</time>
   </trkpt>
   <trkpt lat="-3.0794310" lon="37.3588490">
    <ele>5820.6</ele>
    <time>2026-06-23T04:20:08Z</time>
   </trkpt>
   <trkpt lat="-3.0794310" lon="37.3588470">
    <ele>5820.6</ele>
    <time>2026-06-23T04:20:09Z</time>
   </trkpt>
   <trkpt lat="-3.0794310" lon="37.3588480">
    <ele>5820.6</ele>
    <time>2026-06-23T04:20:10Z</time>
   </trkpt>
   <trkpt lat="-3.0794310" lon="37.3588480">
    <ele>5820.6</ele>
    <time>2026-06-23T04:20:11Z</time>
   </trkpt>
   <trkpt lat="-3.0794310" lon="37.3588480">
    <ele>5820.6</ele>
    <time>2026-06-23T04:20:12Z</time>
   </trkpt>
   <trkpt lat="-3.0794310" lon="37.3588480">
    <ele>5820.6</ele>
    <time>2026-06-23T04:20:13Z</time>
   </trkpt>
   <trkpt lat="-3.0794310" lon="37.3588480">
    <ele>5820.6</ele>
    <time>2026-06-23T04:20:14Z</time>
   </trkpt>
   <trkpt lat="-3.0794310" lon="37.3588480">
    <ele>5820.6</ele>
    <time>2026-06-23T04:20:15Z</time>
   </trkpt>
   <trkpt lat="-3.0794320" lon="37.3588470">
    <ele>5820.7</ele>
    <time>2026-06-23T04:20:16Z</time>
   </trkpt>
   <trkpt lat="-3.0794320" lon="37.3588480">
    <ele>5820.7</ele>
    <time>2026-06-23T04:20:17Z</time>
   </trkpt>
   <trkpt lat="-3.0794330" lon="37.3588470">
    <ele>5820.7</ele>
    <time>2026-06-23T04:20:18Z</time>
   </trkpt>
   <trkpt lat="-3.0794330" lon="37.3588470">
    <ele>5820.7</ele>
    <time>2026-06-23T04:20:19Z</time>
   </trkpt>
   <trkpt lat="-3.0794330" lon="37.3588470">
    <ele>5820.7</ele>
    <time>2026-06-23T04:20:20Z</time>
   </trkpt>
   <trkpt lat="-3.0794330" lon="37.3588470">
    <ele>5820.7</ele>
    <time>2026-06-23T04:20:21Z</time>
   </trkpt>
   <trkpt lat="-3.0794330" lon="37.3588470">
    <ele>5820.7</ele>
    <time>2026-06-23T04:20:22Z</time>
   </trkpt>
   <trkpt lat="-3.0794330" lon="37.3588470">
    <ele>5820.7</ele>
    <time>2026-06-23T04:20:23Z</time>
   </trkpt>
   <trkpt lat="-3.0794330" lon="37.3588470">
    <ele>5820.7</ele>
    <time>2026-06-23T04:20:24Z</time>
   </trkpt>
   <trkpt lat="-3.0794320" lon="37.3588460">
    <ele>5820.8</ele>
    <time>2026-06-23T04:20:25Z</time>
   </trkpt>
   <trkpt lat="-3.0794320" lon="37.3588460">
    <ele>5820.8</ele>
    <time>2026-06-23T04:20:26Z</time>
   </trkpt>
   <trkpt lat="-3.0794320" lon="37.3588460">
    <ele>5820.8</ele>
    <time>2026-06-23T04:20:27Z</time>
   </trkpt>
   <trkpt lat="-3.0794310" lon="37.3588460">
    <ele>5820.8</ele>
    <time>2026-06-23T04:20:28Z</time>
   </trkpt>
   <trkpt lat="-3.0794310" lon="37.3588460">
    <ele>5820.8</ele>
    <time>2026-06-23T04:20:29Z</time>
   </trkpt>
   <trkpt lat="-3.0794310" lon="37.3588460">
    <ele>5820.8</ele>
    <time>2026-06-23T04:20:30Z</time>
   </trkpt>
   <trkpt lat="-3.0794310" lon="37.3588470">
    <ele>5820.8</ele>
    <time>2026-06-23T04:20:31Z</time>
   </trkpt>
   <trkpt lat="-3.0794310" lon="37.3588470">
    <ele>5820.8</ele>
    <time>2026-06-23T04:20:32Z</time>
   </trkpt>
   <trkpt lat="-3.0794310" lon="37.3588470">
    <ele>5820.8</ele>
    <time>2026-06-23T04:20:33Z</time>
   </trkpt>
   <trkpt lat="-3.0794310" lon="37.3588470">
    <ele>5820.8</ele>
    <time>2026-06-23T04:20:34Z</time>
   </trkpt>
   <trkpt lat="-3.0794310" lon="37.3588470">
    <ele>5820.8</ele>
    <time>2026-06-23T04:20:35Z</time>
   </trkpt>
   <trkpt lat="-3.0794310" lon="37.3588470">
    <ele>5820.8</ele>
    <time>2026-06-23T04:20:36Z</time>
   </trkpt>
   <trkpt lat="-3.0794320" lon="37.3588460">
    <ele>5820.8</ele>
    <time>2026-06-23T04:20:37Z</time>
   </trkpt>
   <trkpt lat="-3.0794310" lon="37.3588460">
    <ele>5820.8</ele>
    <time>2026-06-23T04:20:38Z</time>
   </trkpt>
   <trkpt lat="-3.0794320" lon="37.3588450">
    <ele>5820.9</ele>
    <time>2026-06-23T04:20:39Z</time>
   </trkpt>
   <trkpt lat="-3.0794320" lon="37.3588460">
    <ele>5820.9</ele>
    <time>2026-06-23T04:20:40Z</time>
   </trkpt>
   <trkpt lat="-3.0794310" lon="37.3588460">
    <ele>5820.9</ele>
    <time>2026-06-23T04:20:41Z</time>
   </trkpt>
   <trkpt lat="-3.0794310" lon="37.3588460">
    <ele>5820.9</ele>
    <time>2026-06-23T04:20:42Z</time>
   </trkpt>
   <trkpt lat="-3.0794310" lon="37.3588470">
    <ele>5820.9</ele>
    <time>2026-06-23T04:20:43Z</time>
   </trkpt>
   <trkpt lat="-3.0794310" lon="37.3588460">
    <ele>5821.0</ele>
    <time>2026-06-23T04:20:44Z</time>
   </trkpt>
   <trkpt lat="-3.0794310" lon="37.3588470">
    <ele>5821.0</ele>
    <time>2026-06-23T04:20:45Z</time>
   </trkpt>
   <trkpt lat="-3.0794310" lon="37.3588470">
    <ele>5821.0</ele>
    <time>2026-06-23T04:20:46Z</time>
   </trkpt>
   <trkpt lat="-3.0794320" lon="37.3588470">
    <ele>5821.0</ele>
    <time>2026-06-23T04:20:47Z</time>
   </trkpt>
   <trkpt lat="-3.0794320" lon="37.3588470">
    <ele>5821.0</ele>
    <time>2026-06-23T04:20:48Z</time>
   </trkpt>
   <trkpt lat="-3.0794310" lon="37.3588480">
    <ele>5821.0</ele>
    <time>2026-06-23T04:20:49Z</time>
   </trkpt>
   <trkpt lat="-3.0794320" lon="37.3588480">
    <ele>5821.1</ele>
    <time>2026-06-23T04:20:50Z</time>
   </trkpt>
   <trkpt lat="-3.0794320" lon="37.3588470">
    <ele>5821.1</ele>
    <time>2026-06-23T04:20:51Z</time>
   </trkpt>
   <trkpt lat="-3.0794320" lon="37.3588480">
    <ele>5821.1</ele>
    <time>2026-06-23T04:20:52Z</time>
   </trkpt>
   <trkpt lat="-3.0794310" lon="37.3588470">
    <ele>5821.1</ele>
    <time>2026-06-23T04:20:53Z</time>
   </trkpt>
   <trkpt lat="-3.0794310" lon="37.3588470">
    <ele>5821.1</ele>
    <time>2026-06-23T04:20:54Z</time>
   </trkpt>
   <trkpt lat="-3.0794330" lon="37.3588480">
    <ele>5821.2</ele>
    <time>2026-06-23T04:20:55Z</time>
   </trkpt>
   <trkpt lat="-3.0794330" lon="37.3588470">
    <ele>5821.2</ele>
    <time>2026-06-23T04:20:56Z</time>
   </trkpt>
   <trkpt lat="-3.0794320" lon="37.3588470">
    <ele>5821.2</ele>
    <time>2026-06-23T04:20:57Z</time>
   </trkpt>
   <trkpt lat="-3.0794310" lon="37.3588480">
    <ele>5821.3</ele>
    <time>2026-06-23T04:20:58Z</time>
   </trkpt>
   <trkpt lat="-3.0794310" lon="37.3588480">
    <ele>5821.3</ele>
    <time>2026-06-23T04:20:59Z</time>
   </trkpt>
   <trkpt lat="-3.0794290" lon="37.3588490">
    <ele>5821.3</ele>
    <time>2026-06-23T04:21:00Z</time>
   </trkpt>
   <trkpt lat="-3.0794290" lon="37.3588500">
    <ele>5821.3</ele>
    <time>2026-06-23T04:21:01Z</time>
   </trkpt>
   <trkpt lat="-3.0794280" lon="37.3588480">
    <ele>5821.4</ele>
    <time>2026-06-23T04:21:02Z</time>
   </trkpt>
   <trkpt lat="-3.0794310" lon="37.3588480">
    <ele>5821.5</ele>
    <time>2026-06-23T04:21:03Z</time>
   </trkpt>
   <trkpt lat="-3.0794310" lon="37.3588480">
    <ele>5821.5</ele>
    <time>2026-06-23T04:21:04Z</time>
   </trkpt>
   <trkpt lat="-3.0794300" lon="37.3588480">
    <ele>5821.5</ele>
    <time>2026-06-23T04:21:05Z</time>
   </trkpt>
   <trkpt lat="-3.0794300" lon="37.3588480">
    <ele>5821.5</ele>
    <time>2026-06-23T04:21:06Z</time>
   </trkpt>
   <trkpt lat="-3.0794300" lon="37.3588480">
    <ele>5821.5</ele>
    <time>2026-06-23T04:21:07Z</time>
   </trkpt>
   <trkpt lat="-3.0794300" lon="37.3588480">
    <ele>5821.5</ele>
    <time>2026-06-23T04:21:08Z</time>
   </trkpt>
   <trkpt lat="-3.0794300" lon="37.3588480">
    <ele>5821.5</ele>
    <time>2026-06-23T04:21:09Z</time>
   </trkpt>
   <trkpt lat="-3.0794310" lon="37.3588480">
    <ele>5821.5</ele>
    <time>2026-06-23T04:21:10Z</time>
   </trkpt>
   <trkpt lat="-3.0794310" lon="37.3588480">
    <ele>5821.5</ele>
    <time>2026-06-23T04:21:11Z</time>
   </trkpt>
   <trkpt lat="-3.0794310" lon="37.3588470">
    <ele>5821.5</ele>
    <time>2026-06-23T04:21:12Z</time>
   </trkpt>
   <trkpt lat="-3.0794300" lon="37.3588470">
    <ele>5821.5</ele>
    <time>2026-06-23T04:21:13Z</time>
   </trkpt>
   <trkpt lat="-3.0794290" lon="37.3588500">
    <ele>5821.6</ele>
    <time>2026-06-23T04:21:14Z</time>
   </trkpt>
   <trkpt lat="-3.0794280" lon="37.3588510">
    <ele>5821.6</ele>
    <time>2026-06-23T04:21:15Z</time>
   </trkpt>
   <trkpt lat="-3.0794290" lon="37.3588510">
    <ele>5821.7</ele>
    <time>2026-06-23T04:21:16Z</time>
   </trkpt>
   <trkpt lat="-3.0794290" lon="37.3588510">
    <ele>5821.7</ele>
    <time>2026-06-23T04:21:17Z</time>
   </trkpt>
   <trkpt lat="-3.0794290" lon="37.3588520">
    <ele>5821.7</ele>
    <time>2026-06-23T04:21:18Z</time>
   </trkpt>
   <trkpt lat="-3.0794290" lon="37.3588510">
    <ele>5821.7</ele>
    <time>2026-06-23T04:21:19Z</time>
   </trkpt>
   <trkpt lat="-3.0794290" lon="37.3588510">
    <ele>5821.7</ele>
    <time>2026-06-23T04:21:20Z</time>
   </trkpt>
   <trkpt lat="-3.0794300" lon="37.3588500">
    <ele>5821.7</ele>
    <time>2026-06-23T04:21:21Z</time>
   </trkpt>
   <trkpt lat="-3.0794310" lon="37.3588500">
    <ele>5821.8</ele>
    <time>2026-06-23T04:21:22Z</time>
   </trkpt>
   <trkpt lat="-3.0794310" lon="37.3588490">
    <ele>5821.8</ele>
    <time>2026-06-23T04:21:23Z</time>
   </trkpt>
   <trkpt lat="-3.0794310" lon="37.3588490">
    <ele>5821.8</ele>
    <time>2026-06-23T04:21:24Z</time>
   </trkpt>
   <trkpt lat="-3.0794300" lon="37.3588480">
    <ele>5821.8</ele>
    <time>2026-06-23T04:21:25Z</time>
   </trkpt>
   <trkpt lat="-3.0794300" lon="37.3588490">
    <ele>5821.8</ele>
    <time>2026-06-23T04:21:26Z</time>
   </trkpt>
   <trkpt lat="-3.0794300" lon="37.3588480">
    <ele>5821.9</ele>
    <time>2026-06-23T04:21:27Z</time>
   </trkpt>
   <trkpt lat="-3.0794300" lon="37.3588480">
    <ele>5821.9</ele>
    <time>2026-06-23T04:21:28Z</time>
   </trkpt>
   <trkpt lat="-3.0794300" lon="37.3588470">
    <ele>5821.9</ele>
    <time>2026-06-23T04:21:29Z</time>
   </trkpt>
   <trkpt lat="-3.0794300" lon="37.3588470">
    <ele>5821.9</ele>
    <time>2026-06-23T04:21:30Z</time>
   </trkpt>
   <trkpt lat="-3.0794290" lon="37.3588460">
    <ele>5821.9</ele>
    <time>2026-06-23T04:21:31Z</time>
   </trkpt>
   <trkpt lat="-3.0794280" lon="37.3588470">
    <ele>5821.9</ele>
    <time>2026-06-23T04:21:32Z</time>
   </trkpt>
   <trkpt lat="-3.0794280" lon="37.3588470">
    <ele>5821.9</ele>
    <time>2026-06-23T04:21:33Z</time>
   </trkpt>
   <trkpt lat="-3.0794280" lon="37.3588470">
    <ele>5821.9</ele>
    <time>2026-06-23T04:21:34Z</time>
   </trkpt>
   <trkpt lat="-3.0794280" lon="37.3588470">
    <ele>5821.9</ele>
    <time>2026-06-23T04:21:35Z</time>
   </trkpt>
   <trkpt lat="-3.0794300" lon="37.3588480">
    <ele>5822.0</ele>
    <time>2026-06-23T04:21:36Z</time>
   </trkpt>
   <trkpt lat="-3.0794300" lon="37.3588470">
    <ele>5822.0</ele>
    <time>2026-06-23T04:21:37Z</time>
   </trkpt>
   <trkpt lat="-3.0794290" lon="37.3588470">
    <ele>5822.0</ele>
    <time>2026-06-23T04:21:38Z</time>
   </trkpt>
   <trkpt lat="-3.0794290" lon="37.3588460">
    <ele>5822.1</ele>
    <time>2026-06-23T04:21:39Z</time>
   </trkpt>
   <trkpt lat="-3.0794300" lon="37.3588450">
    <ele>5822.1</ele>
    <time>2026-06-23T04:21:40Z</time>
   </trkpt>
   <trkpt lat="-3.0794310" lon="37.3588450">
    <ele>5822.1</ele>
    <time>2026-06-23T04:21:41Z</time>
   </trkpt>
   <trkpt lat="-3.0794300" lon="37.3588450">
    <ele>5822.1</ele>
    <time>2026-06-23T04:21:42Z</time>
   </trkpt>
   <trkpt lat="-3.0794300" lon="37.3588460">
    <ele>5822.2</ele>
    <time>2026-06-23T04:21:43Z</time>
   </trkpt>
   <trkpt lat="-3.0794300" lon="37.3588460">
    <ele>5822.2</ele>
    <time>2026-06-23T04:21:44Z</time>
   </trkpt>
   <trkpt lat="-3.0794300" lon="37.3588460">
    <ele>5822.2</ele>
    <time>2026-06-23T04:21:45Z</time>
   </trkpt>
   <trkpt lat="-3.0794300" lon="37.3588460">
    <ele>5822.2</ele>
    <time>2026-06-23T04:21:46Z</time>
   </trkpt>
   <trkpt lat="-3.0794300" lon="37.3588460">
    <ele>5822.2</ele>
    <time>2026-06-23T04:21:47Z</time>
   </trkpt>
   <trkpt lat="-3.0794300" lon="37.3588460">
    <ele>5822.2</ele>
    <time>2026-06-23T04:21:48Z</time>
   </trkpt>
   <trkpt lat="-3.0794310" lon="37.3588430">
    <ele>5822.2</ele>
    <time>2026-06-23T04:21:49Z</time>
   </trkpt>
   <trkpt lat="-3.0794300" lon="37.3588430">
    <ele>5822.3</ele>
    <time>2026-06-23T04:21:50Z</time>
   </trkpt>
   <trkpt lat="-3.0794290" lon="37.3588450">
    <ele>5822.3</ele>
    <time>2026-06-23T04:21:51Z</time>
   </trkpt>
   <trkpt lat="-3.0794300" lon="37.3588440">
    <ele>5822.3</ele>
    <time>2026-06-23T04:21:52Z</time>
   </trkpt>
   <trkpt lat="-3.0794320" lon="37.3588430">
    <ele>5822.4</ele>
    <time>2026-06-23T04:21:53Z</time>
   </trkpt>
   <trkpt lat="-3.0794340" lon="37.3588450">
    <ele>5822.4</ele>
    <time>2026-06-23T04:21:54Z</time>
   </trkpt>
   <trkpt lat="-3.0794340" lon="37.3588460">
    <ele>5822.5</ele>
    <time>2026-06-23T04:21:55Z</time>
   </trkpt>
   <trkpt lat="-3.0794340" lon="37.3588470">
    <ele>5822.5</ele>
    <time>2026-06-23T04:21:56Z</time>
   </trkpt>
   <trkpt lat="-3.0794350" lon="37.3588480">
    <ele>5822.5</ele>
    <time>2026-06-23T04:21:57Z</time>
   </trkpt>
   <trkpt lat="-3.0794350" lon="37.3588490">
    <ele>5822.5</ele>
    <time>2026-06-23T04:21:58Z</time>
   </trkpt>
   <trkpt lat="-3.0794350" lon="37.3588490">
    <ele>5822.5</ele>
    <time>2026-06-23T04:21:59Z</time>
   </trkpt>
   <trkpt lat="-3.0794330" lon="37.3588490">
    <ele>5822.6</ele>
    <time>2026-06-23T04:22:00Z</time>
   </trkpt>
   <trkpt lat="-3.0794330" lon="37.3588480">
    <ele>5822.6</ele>
    <time>2026-06-23T04:22:01Z</time>
   </trkpt>
   <trkpt lat="-3.0794310" lon="37.3588480">
    <ele>5822.6</ele>
    <time>2026-06-23T04:22:02Z</time>
   </trkpt>
   <trkpt lat="-3.0794310" lon="37.3588490">
    <ele>5822.7</ele>
    <time>2026-06-23T04:22:03Z</time>
   </trkpt>
   <trkpt lat="-3.0794310" lon="37.3588480">
    <ele>5822.7</ele>
    <time>2026-06-23T04:22:04Z</time>
   </trkpt>
   <trkpt lat="-3.0794300" lon="37.3588490">
    <ele>5822.7</ele>
    <time>2026-06-23T04:22:05Z</time>
   </trkpt>
   <trkpt lat="-3.0794300" lon="37.3588490">
    <ele>5822.7</ele>
    <time>2026-06-23T04:22:06Z</time>
   </trkpt>
   <trkpt lat="-3.0794310" lon="37.3588480">
    <ele>5822.7</ele>
    <time>2026-06-23T04:22:07Z</time>
   </trkpt>
   <trkpt lat="-3.0794320" lon="37.3588490">
    <ele>5822.8</ele>
    <time>2026-06-23T04:22:08Z</time>
   </trkpt>
   <trkpt lat="-3.0794320" lon="37.3588490">
    <ele>5822.8</ele>
    <time>2026-06-23T04:22:09Z</time>
   </trkpt>
   <trkpt lat="-3.0794320" lon="37.3588490">
    <ele>5822.8</ele>
    <time>2026-06-23T04:22:10Z</time>
   </trkpt>
   <trkpt lat="-3.0794320" lon="37.3588500">
    <ele>5822.8</ele>
    <time>2026-06-23T04:22:11Z</time>
   </trkpt>
   <trkpt lat="-3.0794320" lon="37.3588500">
    <ele>5822.8</ele>
    <time>2026-06-23T04:22:12Z</time>
   </trkpt>
   <trkpt lat="-3.0794320" lon="37.3588500">
    <ele>5822.8</ele>
    <time>2026-06-23T04:22:13Z</time>
   </trkpt>
   <trkpt lat="-3.0794320" lon="37.3588500">
    <ele>5822.8</ele>
    <time>2026-06-23T04:22:14Z</time>
   </trkpt>
   <trkpt lat="-3.0794320" lon="37.3588500">
    <ele>5822.8</ele>
    <time>2026-06-23T04:22:15Z</time>
   </trkpt>
   <trkpt lat="-3.0794310" lon="37.3588500">
    <ele>5822.8</ele>
    <time>2026-06-23T04:22:16Z</time>
   </trkpt>
   <trkpt lat="-3.0794300" lon="37.3588510">
    <ele>5822.8</ele>
    <time>2026-06-23T04:22:17Z</time>
   </trkpt>
   <trkpt lat="-3.0794300" lon="37.3588510">
    <ele>5822.8</ele>
    <time>2026-06-23T04:22:18Z</time>
   </trkpt>
   <trkpt lat="-3.0794300" lon="37.3588500">
    <ele>5822.9</ele>
    <time>2026-06-23T04:22:19Z</time>
   </trkpt>
   <trkpt lat="-3.0794290" lon="37.3588510">
    <ele>5822.9</ele>
    <time>2026-06-23T04:22:20Z</time>
   </trkpt>
   <trkpt lat="-3.0794290" lon="37.3588510">
    <ele>5822.9</ele>
    <time>2026-06-23T04:22:21Z</time>
   </trkpt>
   <trkpt lat="-3.0794290" lon="37.3588500">
    <ele>5822.9</ele>
    <time>2026-06-23T04:22:22Z</time>
   </trkpt>
   <trkpt lat="-3.0794300" lon="37.3588510">
    <ele>5822.9</ele>
    <time>2026-06-23T04:22:23Z</time>
   </trkpt>
   <trkpt lat="-3.0794300" lon="37.3588510">
    <ele>5822.9</ele>
    <time>2026-06-23T04:22:24Z</time>
   </trkpt>
   <trkpt lat="-3.0794300" lon="37.3588510">
    <ele>5822.9</ele>
    <time>2026-06-23T04:22:25Z</time>
   </trkpt>
   <trkpt lat="-3.0794300" lon="37.3588510">
    <ele>5822.9</ele>
    <time>2026-06-23T04:22:26Z</time>
   </trkpt>
   <trkpt lat="-3.0794300" lon="37.3588510">
    <ele>5822.9</ele>
    <time>2026-06-23T04:22:27Z</time>
   </trkpt>
   <trkpt lat="-3.0794310" lon="37.3588510">
    <ele>5823.0</ele>
    <time>2026-06-23T04:22:28Z</time>
   </trkpt>
   <trkpt lat="-3.0794300" lon="37.3588510">
    <ele>5823.0</ele>
    <time>2026-06-23T04:22:29Z</time>
   </trkpt>
   <trkpt lat="-3.0794300" lon="37.3588510">
    <ele>5823.0</ele>
    <time>2026-06-23T04:22:30Z</time>
   </trkpt>
   <trkpt lat="-3.0794320" lon="37.3588500">
    <ele>5823.0</ele>
    <time>2026-06-23T04:22:31Z</time>
   </trkpt>
   <trkpt lat="-3.0794320" lon="37.3588500">
    <ele>5823.0</ele>
    <time>2026-06-23T04:22:32Z</time>
   </trkpt>
   <trkpt lat="-3.0794310" lon="37.3588500">
    <ele>5823.0</ele>
    <time>2026-06-23T04:22:33Z</time>
   </trkpt>
   <trkpt lat="-3.0794310" lon="37.3588500">
    <ele>5823.0</ele>
    <time>2026-06-23T04:22:34Z</time>
   </trkpt>
   <trkpt lat="-3.0794310" lon="37.3588510">
    <ele>5823.1</ele>
    <time>2026-06-23T04:22:35Z</time>
   </trkpt>
   <trkpt lat="-3.0794310" lon="37.3588500">
    <ele>5823.1</ele>
    <time>2026-06-23T04:22:36Z</time>
   </trkpt>
   <trkpt lat="-3.0794310" lon="37.3588510">
    <ele>5823.1</ele>
    <time>2026-06-23T04:22:37Z</time>
   </trkpt>
   <trkpt lat="-3.0794310" lon="37.3588510">
    <ele>5823.1</ele>
    <time>2026-06-23T04:22:38Z</time>
   </trkpt>
   <trkpt lat="-3.0794310" lon="37.3588510">
    <ele>5823.1</ele>
    <time>2026-06-23T04:22:39Z</time>
   </trkpt>
   <trkpt lat="-3.0794310" lon="37.3588510">
    <ele>5823.1</ele>
    <time>2026-06-23T04:22:40Z</time>
   </trkpt>
   <trkpt lat="-3.0794320" lon="37.3588500">
    <ele>5823.1</ele>
    <time>2026-06-23T04:22:41Z</time>
   </trkpt>
   <trkpt lat="-3.0794320" lon="37.3588500">
    <ele>5823.1</ele>
    <time>2026-06-23T04:22:42Z</time>
   </trkpt>
   <trkpt lat="-3.0794320" lon="37.3588500">
    <ele>5823.1</ele>
    <time>2026-06-23T04:22:43Z</time>
   </trkpt>
   <trkpt lat="-3.0794320" lon="37.3588500">
    <ele>5823.1</ele>
    <time>2026-06-23T04:22:44Z</time>
   </trkpt>
   <trkpt lat="-3.0794320" lon="37.3588500">
    <ele>5823.1</ele>
    <time>2026-06-23T04:22:45Z</time>
   </trkpt>
   <trkpt lat="-3.0794330" lon="37.3588510">
    <ele>5823.2</ele>
    <time>2026-06-23T04:22:46Z</time>
   </trkpt>
   <trkpt lat="-3.0794330" lon="37.3588500">
    <ele>5823.2</ele>
    <time>2026-06-23T04:22:47Z</time>
   </trkpt>
   <trkpt lat="-3.0794330" lon="37.3588500">
    <ele>5823.2</ele>
    <time>2026-06-23T04:22:48Z</time>
   </trkpt>
   <trkpt lat="-3.0794330" lon="37.3588500">
    <ele>5823.2</ele>
    <time>2026-06-23T04:22:49Z</time>
   </trkpt>
   <trkpt lat="-3.0794340" lon="37.3588510">
    <ele>5823.2</ele>
    <time>2026-06-23T04:22:50Z</time>
   </trkpt>
   <trkpt lat="-3.0794340" lon="37.3588510">
    <ele>5823.2</ele>
    <time>2026-06-23T04:22:51Z</time>
   </trkpt>
   <trkpt lat="-3.0794340" lon="37.3588510">
    <ele>5823.2</ele>
    <time>2026-06-23T04:22:52Z</time>
   </trkpt>
   <trkpt lat="-3.0794340" lon="37.3588510">
    <ele>5823.2</ele>
    <time>2026-06-23T04:22:53Z</time>
   </trkpt>
   <trkpt lat="-3.0794310" lon="37.3588500">
    <ele>5823.3</ele>
    <time>2026-06-23T04:22:54Z</time>
   </trkpt>
   <trkpt lat="-3.0794320" lon="37.3588490">
    <ele>5823.3</ele>
    <time>2026-06-23T04:22:55Z</time>
   </trkpt>
   <trkpt lat="-3.0794310" lon="37.3588490">
    <ele>5823.3</ele>
    <time>2026-06-23T04:22:56Z</time>
   </trkpt>
   <trkpt lat="-3.0794310" lon="37.3588490">
    <ele>5823.3</ele>
    <time>2026-06-23T04:22:57Z</time>
   </trkpt>
   <trkpt lat="-3.0794320" lon="37.3588490">
    <ele>5823.3</ele>
    <time>2026-06-23T04:22:58Z</time>
   </trkpt>
   <trkpt lat="-3.0794320" lon="37.3588490">
    <ele>5823.3</ele>
    <time>2026-06-23T04:22:59Z</time>
   </trkpt>
   <trkpt lat="-3.0794310" lon="37.3588490">
    <ele>5823.4</ele>
    <time>2026-06-23T04:23:00Z</time>
   </trkpt>
   <trkpt lat="-3.0794320" lon="37.3588490">
    <ele>5823.4</ele>
    <time>2026-06-23T04:23:01Z</time>
   </trkpt>
   <trkpt lat="-3.0794320" lon="37.3588500">
    <ele>5823.4</ele>
    <time>2026-06-23T04:23:02Z</time>
   </trkpt>
   <trkpt lat="-3.0794320" lon="37.3588480">
    <ele>5823.5</ele>
    <time>2026-06-23T04:23:03Z</time>
   </trkpt>
   <trkpt lat="-3.0794330" lon="37.3588490">
    <ele>5823.5</ele>
    <time>2026-06-23T04:23:04Z</time>
   </trkpt>
   <trkpt lat="-3.0794320" lon="37.3588470">
    <ele>5823.5</ele>
    <time>2026-06-23T04:23:05Z</time>
   </trkpt>
   <trkpt lat="-3.0794310" lon="37.3588480">
    <ele>5823.6</ele>
    <time>2026-06-23T04:23:06Z</time>
   </trkpt>
   <trkpt lat="-3.0794320" lon="37.3588480">
    <ele>5823.6</ele>
    <time>2026-06-23T04:23:07Z</time>
   </trkpt>
   <trkpt lat="-3.0794330" lon="37.3588470">
    <ele>5823.6</ele>
    <time>2026-06-23T04:23:08Z</time>
   </trkpt>
   <trkpt lat="-3.0794330" lon="37.3588480">
    <ele>5823.6</ele>
    <time>2026-06-23T04:23:09Z</time>
   </trkpt>
   <trkpt lat="-3.0794310" lon="37.3588470">
    <ele>5823.7</ele>
    <time>2026-06-23T04:23:10Z</time>
   </trkpt>
   <trkpt lat="-3.0794320" lon="37.3588480">
    <ele>5823.7</ele>
    <time>2026-06-23T04:23:11Z</time>
   </trkpt>
   <trkpt lat="-3.0794310" lon="37.3588490">
    <ele>5823.7</ele>
    <time>2026-06-23T04:23:12Z</time>
   </trkpt>
   <trkpt lat="-3.0794310" lon="37.3588490">
    <ele>5823.7</ele>
    <time>2026-06-23T04:23:13Z</time>
   </trkpt>
   <trkpt lat="-3.0794310" lon="37.3588490">
    <ele>5823.7</ele>
    <time>2026-06-23T04:23:14Z</time>
   </trkpt>
   <trkpt lat="-3.0794300" lon="37.3588490">
    <ele>5823.7</ele>
    <time>2026-06-23T04:23:15Z</time>
   </trkpt>
   <trkpt lat="-3.0794310" lon="37.3588480">
    <ele>5823.8</ele>
    <time>2026-06-23T04:23:16Z</time>
   </trkpt>
   <trkpt lat="-3.0794320" lon="37.3588480">
    <ele>5823.8</ele>
    <time>2026-06-23T04:23:17Z</time>
   </trkpt>
   <trkpt lat="-3.0794310" lon="37.3588480">
    <ele>5823.8</ele>
    <time>2026-06-23T04:23:18Z</time>
   </trkpt>
   <trkpt lat="-3.0794300" lon="37.3588480">
    <ele>5823.8</ele>
    <time>2026-06-23T04:23:19Z</time>
   </trkpt>
   <trkpt lat="-3.0794310" lon="37.3588480">
    <ele>5823.8</ele>
    <time>2026-06-23T04:23:20Z</time>
   </trkpt>
   <trkpt lat="-3.0794320" lon="37.3588490">
    <ele>5823.9</ele>
    <time>2026-06-23T04:23:21Z</time>
   </trkpt>
   <trkpt lat="-3.0794320" lon="37.3588490">
    <ele>5823.9</ele>
    <time>2026-06-23T04:23:22Z</time>
   </trkpt>
   <trkpt lat="-3.0794320" lon="37.3588490">
    <ele>5823.9</ele>
    <time>2026-06-23T04:23:23Z</time>
   </trkpt>
   <trkpt lat="-3.0794310" lon="37.3588480">
    <ele>5823.9</ele>
    <time>2026-06-23T04:23:24Z</time>
   </trkpt>
   <trkpt lat="-3.0794320" lon="37.3588490">
    <ele>5823.9</ele>
    <time>2026-06-23T04:23:25Z</time>
   </trkpt>
   <trkpt lat="-3.0794320" lon="37.3588490">
    <ele>5823.9</ele>
    <time>2026-06-23T04:23:26Z</time>
   </trkpt>
   <trkpt lat="-3.0794320" lon="37.3588490">
    <ele>5823.9</ele>
    <time>2026-06-23T04:23:27Z</time>
   </trkpt>
   <trkpt lat="-3.0794320" lon="37.3588480">
    <ele>5823.9</ele>
    <time>2026-06-23T04:23:28Z</time>
   </trkpt>
   <trkpt lat="-3.0794320" lon="37.3588470">
    <ele>5824.0</ele>
    <time>2026-06-23T04:23:29Z</time>
   </trkpt>
   <trkpt lat="-3.0794310" lon="37.3588450">
    <ele>5824.0</ele>
    <time>2026-06-23T04:23:30Z</time>
   </trkpt>
   <trkpt lat="-3.0794310" lon="37.3588450">
    <ele>5824.0</ele>
    <time>2026-06-23T04:23:31Z</time>
   </trkpt>
   <trkpt lat="-3.0794310" lon="37.3588420">
    <ele>5824.0</ele>
    <time>2026-06-23T04:23:32Z</time>
   </trkpt>
   <trkpt lat="-3.0794300" lon="37.3588420">
    <ele>5824.1</ele>
    <time>2026-06-23T04:23:33Z</time>
   </trkpt>
   <trkpt lat="-3.0794310" lon="37.3588410">
    <ele>5824.1</ele>
    <time>2026-06-23T04:23:34Z</time>
   </trkpt>
   <trkpt lat="-3.0794310" lon="37.3588410">
    <ele>5824.1</ele>
    <time>2026-06-23T04:23:35Z</time>
   </trkpt>
   <trkpt lat="-3.0794310" lon="37.3588420">
    <ele>5824.1</ele>
    <time>2026-06-23T04:23:36Z</time>
   </trkpt>
   <trkpt lat="-3.0794300" lon="37.3588410">
    <ele>5824.1</ele>
    <time>2026-06-23T04:23:37Z</time>
   </trkpt>
   <trkpt lat="-3.0794280" lon="37.3588380">
    <ele>5824.2</ele>
    <time>2026-06-23T04:23:38Z</time>
   </trkpt>
   <trkpt lat="-3.0794260" lon="37.3588320">
    <ele>5824.3</ele>
    <time>2026-06-23T04:23:39Z</time>
   </trkpt>
   <trkpt lat="-3.0794210" lon="37.3588310">
    <ele>5824.4</ele>
    <time>2026-06-23T04:23:40Z</time>
   </trkpt>
   <trkpt lat="-3.0794170" lon="37.3588270">
    <ele>5824.5</ele>
    <time>2026-06-23T04:23:41Z</time>
   </trkpt>
   <trkpt lat="-3.0794140" lon="37.3588250">
    <ele>5824.6</ele>
    <time>2026-06-23T04:23:42Z</time>
   </trkpt>
   <trkpt lat="-3.0794130" lon="37.3588220">
    <ele>5824.6</ele>
    <time>2026-06-23T04:23:43Z</time>
   </trkpt>
   <trkpt lat="-3.0794100" lon="37.3588200">
    <ele>5824.7</ele>
    <time>2026-06-23T04:23:44Z</time>
   </trkpt>
   <trkpt lat="-3.0794110" lon="37.3588220">
    <ele>5824.7</ele>
    <time>2026-06-23T04:23:45Z</time>
   </trkpt>
   <trkpt lat="-3.0794070" lon="37.3588160">
    <ele>5824.9</ele>
    <time>2026-06-23T04:23:46Z</time>
   </trkpt>
   <trkpt lat="-3.0794070" lon="37.3588130">
    <ele>5824.9</ele>
    <time>2026-06-23T04:23:47Z</time>
   </trkpt>
   <trkpt lat="-3.0794080" lon="37.3588090">
    <ele>5825.0</ele>
    <time>2026-06-23T04:23:48Z</time>
   </trkpt>
   <trkpt lat="-3.0794080" lon="37.3588090">
    <ele>5825.0</ele>
    <time>2026-06-23T04:23:49Z</time>
   </trkpt>
   <trkpt lat="-3.0794070" lon="37.3588050">
    <ele>5825.0</ele>
    <time>2026-06-23T04:23:50Z</time>
   </trkpt>
   <trkpt lat="-3.0794070" lon="37.3588030">
    <ele>5825.1</ele>
    <time>2026-06-23T04:23:51Z</time>
   </trkpt>
   <trkpt lat="-3.0794060" lon="37.3588020">
    <ele>5825.1</ele>
    <time>2026-06-23T04:23:52Z</time>
   </trkpt>
   <trkpt lat="-3.0794040" lon="37.3587980">
    <ele>5825.2</ele>
    <time>2026-06-23T04:23:53Z</time>
   </trkpt>
   <trkpt lat="-3.0794020" lon="37.3587980">
    <ele>5825.2</ele>
    <time>2026-06-23T04:23:54Z</time>
   </trkpt>
   <trkpt lat="-3.0793990" lon="37.3587960">
    <ele>5825.3</ele>
    <time>2026-06-23T04:23:55Z</time>
   </trkpt>
   <trkpt lat="-3.0793990" lon="37.3587920">
    <ele>5825.3</ele>
    <time>2026-06-23T04:23:56Z</time>
   </trkpt>
   <trkpt lat="-3.0793990" lon="37.3587930">
    <ele>5825.3</ele>
    <time>2026-06-23T04:23:57Z</time>
   </trkpt>
   <trkpt lat="-3.0794010" lon="37.3587900">
    <ele>5825.4</ele>
    <time>2026-06-23T04:23:58Z</time>
   </trkpt>
   <trkpt lat="-3.0794030" lon="37.3587910">
    <ele>5825.4</ele>
    <time>2026-06-23T04:23:59Z</time>
   </trkpt>
   <trkpt lat="-3.0794030" lon="37.3587860">
    <ele>5825.5</ele>
    <time>2026-06-23T04:24:00Z</time>
   </trkpt>
   <trkpt lat="-3.0794020" lon="37.3587850">
    <ele>5825.5</ele>
    <time>2026-06-23T04:24:01Z</time>
   </trkpt>
   <trkpt lat="-3.0794030" lon="37.3587800">
    <ele>5825.6</ele>
    <time>2026-06-23T04:24:02Z</time>
   </trkpt>
   <trkpt lat="-3.0794020" lon="37.3587780">
    <ele>5825.6</ele>
    <time>2026-06-23T04:24:03Z</time>
   </trkpt>
   <trkpt lat="-3.0794020" lon="37.3587760">
    <ele>5825.7</ele>
    <time>2026-06-23T04:24:04Z</time>
   </trkpt>
   <trkpt lat="-3.0794020" lon="37.3587780">
    <ele>5825.7</ele>
    <time>2026-06-23T04:24:05Z</time>
   </trkpt>
   <trkpt lat="-3.0794010" lon="37.3587730">
    <ele>5825.8</ele>
    <time>2026-06-23T04:24:06Z</time>
   </trkpt>
   <trkpt lat="-3.0794020" lon="37.3587700">
    <ele>5825.8</ele>
    <time>2026-06-23T04:24:07Z</time>
   </trkpt>
   <trkpt lat="-3.0794010" lon="37.3587660">
    <ele>5825.9</ele>
    <time>2026-06-23T04:24:08Z</time>
   </trkpt>
   <trkpt lat="-3.0794000" lon="37.3587690">
    <ele>5825.9</ele>
    <time>2026-06-23T04:24:09Z</time>
   </trkpt>
   <trkpt lat="-3.0793990" lon="37.3587720">
    <ele>5826.0</ele>
    <time>2026-06-23T04:24:10Z</time>
   </trkpt>
   <trkpt lat="-3.0793980" lon="37.3587660">
    <ele>5826.0</ele>
    <time>2026-06-23T04:24:11Z</time>
   </trkpt>
   <trkpt lat="-3.0793970" lon="37.3587650">
    <ele>5826.1</ele>
    <time>2026-06-23T04:24:12Z</time>
   </trkpt>
   <trkpt lat="-3.0793960" lon="37.3587640">
    <ele>5826.1</ele>
    <time>2026-06-23T04:24:13Z</time>
   </trkpt>
   <trkpt lat="-3.0793950" lon="37.3587610">
    <ele>5826.1</ele>
    <time>2026-06-23T04:24:14Z</time>
   </trkpt>
   <trkpt lat="-3.0793960" lon="37.3587590">
    <ele>5826.2</ele>
    <time>2026-06-23T04:24:15Z</time>
   </trkpt>
   <trkpt lat="-3.0793910" lon="37.3587560">
    <ele>5826.2</ele>
    <time>2026-06-23T04:24:16Z</time>
   </trkpt>
   <trkpt lat="-3.0793900" lon="37.3587540">
    <ele>5826.3</ele>
    <time>2026-06-23T04:24:17Z</time>
   </trkpt>
   <trkpt lat="-3.0793870" lon="37.3587510">
    <ele>5826.3</ele>
    <time>2026-06-23T04:24:18Z</time>
   </trkpt>
   <trkpt lat="-3.0793850" lon="37.3587520">
    <ele>5826.3</ele>
    <time>2026-06-23T04:24:19Z</time>
   </trkpt>
   <trkpt lat="-3.0793850" lon="37.3587520">
    <ele>5826.3</ele>
    <time>2026-06-23T04:24:20Z</time>
   </trkpt>
   <trkpt lat="-3.0793850" lon="37.3587480">
    <ele>5826.4</ele>
    <time>2026-06-23T04:24:21Z</time>
   </trkpt>
   <trkpt lat="-3.0793860" lon="37.3587450">
    <ele>5826.4</ele>
    <time>2026-06-23T04:24:22Z</time>
   </trkpt>
   <trkpt lat="-3.0793850" lon="37.3587460">
    <ele>5826.4</ele>
    <time>2026-06-23T04:24:23Z</time>
   </trkpt>
   <trkpt lat="-3.0793890" lon="37.3587440">
    <ele>5826.5</ele>
    <time>2026-06-23T04:24:24Z</time>
   </trkpt>
   <trkpt lat="-3.0793890" lon="37.3587420">
    <ele>5826.5</ele>
    <time>2026-06-23T04:24:25Z</time>
   </trkpt>
   <trkpt lat="-3.0793890" lon="37.3587430">
    <ele>5826.5</ele>
    <time>2026-06-23T04:24:26Z</time>
   </trkpt>
   <trkpt lat="-3.0793900" lon="37.3587400">
    <ele>5826.6</ele>
    <time>2026-06-23T04:24:27Z</time>
   </trkpt>
   <trkpt lat="-3.0793930" lon="37.3587380">
    <ele>5826.6</ele>
    <time>2026-06-23T04:24:28Z</time>
   </trkpt>
   <trkpt lat="-3.0793930" lon="37.3587390">
    <ele>5826.6</ele>
    <time>2026-06-23T04:24:29Z</time>
   </trkpt>
   <trkpt lat="-3.0793930" lon="37.3587390">
    <ele>5826.6</ele>
    <time>2026-06-23T04:24:30Z</time>
   </trkpt>
   <trkpt lat="-3.0793930" lon="37.3587390">
    <ele>5826.6</ele>
    <time>2026-06-23T04:24:31Z</time>
   </trkpt>
   <trkpt lat="-3.0793940" lon="37.3587350">
    <ele>5826.7</ele>
    <time>2026-06-23T04:24:32Z</time>
   </trkpt>
   <trkpt lat="-3.0793940" lon="37.3587340">
    <ele>5826.7</ele>
    <time>2026-06-23T04:24:33Z</time>
   </trkpt>
   <trkpt lat="-3.0793950" lon="37.3587340">
    <ele>5826.7</ele>
    <time>2026-06-23T04:24:34Z</time>
   </trkpt>
   <trkpt lat="-3.0793970" lon="37.3587320">
    <ele>5826.8</ele>
    <time>2026-06-23T04:24:35Z</time>
   </trkpt>
   <trkpt lat="-3.0793990" lon="37.3587300">
    <ele>5826.8</ele>
    <time>2026-06-23T04:24:36Z</time>
   </trkpt>
   <trkpt lat="-3.0793990" lon="37.3587260">
    <ele>5826.8</ele>
    <time>2026-06-23T04:24:37Z</time>
   </trkpt>
   <trkpt lat="-3.0794020" lon="37.3587250">
    <ele>5826.9</ele>
    <time>2026-06-23T04:24:38Z</time>
   </trkpt>
   <trkpt lat="-3.0794070" lon="37.3587230">
    <ele>5826.9</ele>
    <time>2026-06-23T04:24:39Z</time>
   </trkpt>
   <trkpt lat="-3.0794080" lon="37.3587230">
    <ele>5826.9</ele>
    <time>2026-06-23T04:24:40Z</time>
   </trkpt>
   <trkpt lat="-3.0794080" lon="37.3587210">
    <ele>5827.0</ele>
    <time>2026-06-23T04:24:41Z</time>
   </trkpt>
   <trkpt lat="-3.0794060" lon="37.3587140">
    <ele>5827.1</ele>
    <time>2026-06-23T04:24:42Z</time>
   </trkpt>
   <trkpt lat="-3.0794080" lon="37.3587170">
    <ele>5827.1</ele>
    <time>2026-06-23T04:24:43Z</time>
   </trkpt>
   <trkpt lat="-3.0794090" lon="37.3587150">
    <ele>5827.1</ele>
    <time>2026-06-23T04:24:44Z</time>
   </trkpt>
   <trkpt lat="-3.0794100" lon="37.3587150">
    <ele>5827.1</ele>
    <time>2026-06-23T04:24:45Z</time>
   </trkpt>
   <trkpt lat="-3.0794130" lon="37.3587120">
    <ele>5827.2</ele>
    <time>2026-06-23T04:24:46Z</time>
   </trkpt>
   <trkpt lat="-3.0794140" lon="37.3587050">
    <ele>5827.3</ele>
    <time>2026-06-23T04:24:47Z</time>
   </trkpt>
   <trkpt lat="-3.0794170" lon="37.3587030">
    <ele>5827.3</ele>
    <time>2026-06-23T04:24:48Z</time>
   </trkpt>
   <trkpt lat="-3.0794160" lon="37.3587010">
    <ele>5827.3</ele>
    <time>2026-06-23T04:24:49Z</time>
   </trkpt>
   <trkpt lat="-3.0794160" lon="37.3587010">
    <ele>5827.3</ele>
    <time>2026-06-23T04:24:50Z</time>
   </trkpt>
   <trkpt lat="-3.0794050" lon="37.3586940">
    <ele>5827.5</ele>
    <time>2026-06-23T04:24:51Z</time>
   </trkpt>
   <trkpt lat="-3.0794160" lon="37.3586970">
    <ele>5827.6</ele>
    <time>2026-06-23T04:24:52Z</time>
   </trkpt>
   <trkpt lat="-3.0794170" lon="37.3586950">
    <ele>5827.6</ele>
    <time>2026-06-23T04:24:53Z</time>
   </trkpt>
   <trkpt lat="-3.0794180" lon="37.3586910">
    <ele>5827.7</ele>
    <time>2026-06-23T04:24:54Z</time>
   </trkpt>
   <trkpt lat="-3.0794180" lon="37.3586910">
    <ele>5827.7</ele>
    <time>2026-06-23T04:24:55Z</time>
   </trkpt>
   <trkpt lat="-3.0794190" lon="37.3586910">
    <ele>5827.7</ele>
    <time>2026-06-23T04:24:56Z</time>
   </trkpt>
   <trkpt lat="-3.0794210" lon="37.3586900">
    <ele>5827.7</ele>
    <time>2026-06-23T04:24:57Z</time>
   </trkpt>
   <trkpt lat="-3.0794210" lon="37.3586890">
    <ele>5827.7</ele>
    <time>2026-06-23T04:24:58Z</time>
   </trkpt>
   <trkpt lat="-3.0794230" lon="37.3586870">
    <ele>5827.8</ele>
    <time>2026-06-23T04:24:59Z</time>
   </trkpt>
   <trkpt lat="-3.0794230" lon="37.3586870">
    <ele>5827.8</ele>
    <time>2026-06-23T04:25:00Z</time>
   </trkpt>
   <trkpt lat="-3.0794230" lon="37.3586870">
    <ele>5827.8</ele>
    <time>2026-06-23T04:25:01Z</time>
   </trkpt>
   <trkpt lat="-3.0794230" lon="37.3586840">
    <ele>5827.8</ele>
    <time>2026-06-23T04:25:02Z</time>
   </trkpt>
   <trkpt lat="-3.0794230" lon="37.3586840">
    <ele>5827.8</ele>
    <time>2026-06-23T04:25:03Z</time>
   </trkpt>
   <trkpt lat="-3.0794240" lon="37.3586810">
    <ele>5827.8</ele>
    <time>2026-06-23T04:25:04Z</time>
   </trkpt>
   <trkpt lat="-3.0794250" lon="37.3586780">
    <ele>5827.9</ele>
    <time>2026-06-23T04:25:05Z</time>
   </trkpt>
   <trkpt lat="-3.0794260" lon="37.3586770">
    <ele>5827.9</ele>
    <time>2026-06-23T04:25:06Z</time>
   </trkpt>
   <trkpt lat="-3.0794240" lon="37.3586730">
    <ele>5827.9</ele>
    <time>2026-06-23T04:25:07Z</time>
   </trkpt>
   <trkpt lat="-3.0794260" lon="37.3586730">
    <ele>5828.0</ele>
    <time>2026-06-23T04:25:08Z</time>
   </trkpt>
   <trkpt lat="-3.0794280" lon="37.3586700">
    <ele>5828.0</ele>
    <time>2026-06-23T04:25:09Z</time>
   </trkpt>
   <trkpt lat="-3.0794280" lon="37.3586690">
    <ele>5828.0</ele>
    <time>2026-06-23T04:25:10Z</time>
   </trkpt>
   <trkpt lat="-3.0794290" lon="37.3586690">
    <ele>5828.0</ele>
    <time>2026-06-23T04:25:11Z</time>
   </trkpt>
   <trkpt lat="-3.0794310" lon="37.3586670">
    <ele>5828.1</ele>
    <time>2026-06-23T04:25:12Z</time>
   </trkpt>
   <trkpt lat="-3.0794300" lon="37.3586630">
    <ele>5828.1</ele>
    <time>2026-06-23T04:25:13Z</time>
   </trkpt>
   <trkpt lat="-3.0794310" lon="37.3586650">
    <ele>5828.1</ele>
    <time>2026-06-23T04:25:14Z</time>
   </trkpt>
   <trkpt lat="-3.0794270" lon="37.3586630">
    <ele>5828.2</ele>
    <time>2026-06-23T04:25:15Z</time>
   </trkpt>
   <trkpt lat="-3.0794280" lon="37.3586610">
    <ele>5828.2</ele>
    <time>2026-06-23T04:25:16Z</time>
   </trkpt>
   <trkpt lat="-3.0794260" lon="37.3586590">
    <ele>5828.2</ele>
    <time>2026-06-23T04:25:17Z</time>
   </trkpt>
   <trkpt lat="-3.0794250" lon="37.3586560">
    <ele>5828.3</ele>
    <time>2026-06-23T04:25:18Z</time>
   </trkpt>
   <trkpt lat="-3.0794250" lon="37.3586550">
    <ele>5828.3</ele>
    <time>2026-06-23T04:25:19Z</time>
   </trkpt>
   <trkpt lat="-3.0794220" lon="37.3586540">
    <ele>5828.3</ele>
    <time>2026-06-23T04:25:20Z</time>
   </trkpt>
   <trkpt lat="-3.0794200" lon="37.3586500">
    <ele>5828.4</ele>
    <time>2026-06-23T04:25:21Z</time>
   </trkpt>
   <trkpt lat="-3.0794180" lon="37.3586490">
    <ele>5828.4</ele>
    <time>2026-06-23T04:25:22Z</time>
   </trkpt>
   <trkpt lat="-3.0794170" lon="37.3586470">
    <ele>5828.4</ele>
    <time>2026-06-23T04:25:23Z</time>
   </trkpt>
   <trkpt lat="-3.0794160" lon="37.3586470">
    <ele>5828.4</ele>
    <time>2026-06-23T04:25:24Z</time>
   </trkpt>
   <trkpt lat="-3.0794130" lon="37.3586460">
    <ele>5828.4</ele>
    <time>2026-06-23T04:25:25Z</time>
   </trkpt>
   <trkpt lat="-3.0794100" lon="37.3586460">
    <ele>5828.5</ele>
    <time>2026-06-23T04:25:26Z</time>
   </trkpt>
   <trkpt lat="-3.0794070" lon="37.3586430">
    <ele>5828.5</ele>
    <time>2026-06-23T04:25:27Z</time>
   </trkpt>
   <trkpt lat="-3.0794040" lon="37.3586460">
    <ele>5828.6</ele>
    <time>2026-06-23T04:25:28Z</time>
   </trkpt>
   <trkpt lat="-3.0794030" lon="37.3586440">
    <ele>5828.6</ele>
    <time>2026-06-23T04:25:29Z</time>
   </trkpt>
   <trkpt lat="-3.0794020" lon="37.3586440">
    <ele>5828.6</ele>
    <time>2026-06-23T04:25:30Z</time>
   </trkpt>
   <trkpt lat="-3.0793990" lon="37.3586430">
    <ele>5828.6</ele>
    <time>2026-06-23T04:25:31Z</time>
   </trkpt>
   <trkpt lat="-3.0793950" lon="37.3586410">
    <ele>5828.7</ele>
    <time>2026-06-23T04:25:32Z</time>
   </trkpt>
   <trkpt lat="-3.0793940" lon="37.3586400">
    <ele>5828.7</ele>
    <time>2026-06-23T04:25:33Z</time>
   </trkpt>
   <trkpt lat="-3.0793930" lon="37.3586390">
    <ele>5828.7</ele>
    <time>2026-06-23T04:25:34Z</time>
   </trkpt>
   <trkpt lat="-3.0793890" lon="37.3586360">
    <ele>5828.7</ele>
    <time>2026-06-23T04:25:35Z</time>
   </trkpt>
   <trkpt lat="-3.0793880" lon="37.3586350">
    <ele>5828.8</ele>
    <time>2026-06-23T04:25:36Z</time>
   </trkpt>
   <trkpt lat="-3.0793880" lon="37.3586320">
    <ele>5828.8</ele>
    <time>2026-06-23T04:25:37Z</time>
   </trkpt>
   <trkpt lat="-3.0793840" lon="37.3586300">
    <ele>5828.8</ele>
    <time>2026-06-23T04:25:38Z</time>
   </trkpt>
   <trkpt lat="-3.0793800" lon="37.3586290">
    <ele>5828.9</ele>
    <time>2026-06-23T04:25:39Z</time>
   </trkpt>
   <trkpt lat="-3.0793770" lon="37.3586270">
    <ele>5828.9</ele>
    <time>2026-06-23T04:25:40Z</time>
   </trkpt>
   <trkpt lat="-3.0793760" lon="37.3586270">
    <ele>5828.9</ele>
    <time>2026-06-23T04:25:41Z</time>
   </trkpt>
   <trkpt lat="-3.0793730" lon="37.3586240">
    <ele>5829.0</ele>
    <time>2026-06-23T04:25:42Z</time>
   </trkpt>
   <trkpt lat="-3.0793710" lon="37.3586220">
    <ele>5829.0</ele>
    <time>2026-06-23T04:25:43Z</time>
   </trkpt>
   <trkpt lat="-3.0793700" lon="37.3586190">
    <ele>5829.0</ele>
    <time>2026-06-23T04:25:44Z</time>
   </trkpt>
   <trkpt lat="-3.0793690" lon="37.3586160">
    <ele>5829.0</ele>
    <time>2026-06-23T04:25:45Z</time>
   </trkpt>
   <trkpt lat="-3.0793680" lon="37.3586140">
    <ele>5829.1</ele>
    <time>2026-06-23T04:25:46Z</time>
   </trkpt>
   <trkpt lat="-3.0793680" lon="37.3586110">
    <ele>5829.1</ele>
    <time>2026-06-23T04:25:47Z</time>
   </trkpt>
   <trkpt lat="-3.0793650" lon="37.3586100">
    <ele>5829.1</ele>
    <time>2026-06-23T04:25:48Z</time>
   </trkpt>
   <trkpt lat="-3.0793640" lon="37.3586050">
    <ele>5829.2</ele>
    <time>2026-06-23T04:25:49Z</time>
   </trkpt>
   <trkpt lat="-3.0793630" lon="37.3586060">
    <ele>5829.2</ele>
    <time>2026-06-23T04:25:50Z</time>
   </trkpt>
   <trkpt lat="-3.0793650" lon="37.3586070">
    <ele>5829.2</ele>
    <time>2026-06-23T04:25:51Z</time>
   </trkpt>
   <trkpt lat="-3.0793640" lon="37.3586060">
    <ele>5829.2</ele>
    <time>2026-06-23T04:25:52Z</time>
   </trkpt>
   <trkpt lat="-3.0793650" lon="37.3586060">
    <ele>5829.2</ele>
    <time>2026-06-23T04:25:53Z</time>
   </trkpt>
   <trkpt lat="-3.0793650" lon="37.3586060">
    <ele>5829.2</ele>
    <time>2026-06-23T04:25:54Z</time>
   </trkpt>
   <trkpt lat="-3.0793640" lon="37.3586050">
    <ele>5829.2</ele>
    <time>2026-06-23T04:25:55Z</time>
   </trkpt>
   <trkpt lat="-3.0793620" lon="37.3586010">
    <ele>5829.2</ele>
    <time>2026-06-23T04:25:56Z</time>
   </trkpt>
   <trkpt lat="-3.0793590" lon="37.3586010">
    <ele>5829.3</ele>
    <time>2026-06-23T04:25:57Z</time>
   </trkpt>
   <trkpt lat="-3.0793500" lon="37.3586010">
    <ele>5829.3</ele>
    <time>2026-06-23T04:25:58Z</time>
   </trkpt>
   <trkpt lat="-3.0793500" lon="37.3585960">
    <ele>5829.4</ele>
    <time>2026-06-23T04:25:59Z</time>
   </trkpt>
   <trkpt lat="-3.0793460" lon="37.3585940">
    <ele>5829.4</ele>
    <time>2026-06-23T04:26:00Z</time>
   </trkpt>
   <trkpt lat="-3.0793440" lon="37.3585910">
    <ele>5829.4</ele>
    <time>2026-06-23T04:26:01Z</time>
   </trkpt>
   <trkpt lat="-3.0793420" lon="37.3585880">
    <ele>5829.5</ele>
    <time>2026-06-23T04:26:02Z</time>
   </trkpt>
   <trkpt lat="-3.0793400" lon="37.3585840">
    <ele>5829.5</ele>
    <time>2026-06-23T04:26:03Z</time>
   </trkpt>
   <trkpt lat="-3.0793390" lon="37.3585800">
    <ele>5829.5</ele>
    <time>2026-06-23T04:26:04Z</time>
   </trkpt>
   <trkpt lat="-3.0793360" lon="37.3585780">
    <ele>5829.5</ele>
    <time>2026-06-23T04:26:05Z</time>
   </trkpt>
   <trkpt lat="-3.0793350" lon="37.3585750">
    <ele>5829.6</ele>
    <time>2026-06-23T04:26:06Z</time>
   </trkpt>
   <trkpt lat="-3.0793290" lon="37.3585710">
    <ele>5829.6</ele>
    <time>2026-06-23T04:26:07Z</time>
   </trkpt>
   <trkpt lat="-3.0793290" lon="37.3585700">
    <ele>5829.6</ele>
    <time>2026-06-23T04:26:08Z</time>
   </trkpt>
   <trkpt lat="-3.0793310" lon="37.3585670">
    <ele>5829.6</ele>
    <time>2026-06-23T04:26:09Z</time>
   </trkpt>
   <trkpt lat="-3.0793300" lon="37.3585650">
    <ele>5829.7</ele>
    <time>2026-06-23T04:26:10Z</time>
   </trkpt>
   <trkpt lat="-3.0793310" lon="37.3585630">
    <ele>5829.7</ele>
    <time>2026-06-23T04:26:11Z</time>
   </trkpt>
   <trkpt lat="-3.0793350" lon="37.3585620">
    <ele>5829.7</ele>
    <time>2026-06-23T04:26:12Z</time>
   </trkpt>
   <trkpt lat="-3.0793350" lon="37.3585580">
    <ele>5829.7</ele>
    <time>2026-06-23T04:26:13Z</time>
   </trkpt>
   <trkpt lat="-3.0793350" lon="37.3585520">
    <ele>5829.8</ele>
    <time>2026-06-23T04:26:14Z</time>
   </trkpt>
   <trkpt lat="-3.0793350" lon="37.3585450">
    <ele>5829.8</ele>
    <time>2026-06-23T04:26:15Z</time>
   </trkpt>
   <trkpt lat="-3.0793320" lon="37.3585400">
    <ele>5829.8</ele>
    <time>2026-06-23T04:26:16Z</time>
   </trkpt>
   <trkpt lat="-3.0793300" lon="37.3585370">
    <ele>5829.9</ele>
    <time>2026-06-23T04:26:17Z</time>
   </trkpt>
   <trkpt lat="-3.0793280" lon="37.3585340">
    <ele>5829.9</ele>
    <time>2026-06-23T04:26:18Z</time>
   </trkpt>
   <trkpt lat="-3.0793260" lon="37.3585260">
    <ele>5829.9</ele>
    <time>2026-06-23T04:26:19Z</time>
   </trkpt>
   <trkpt lat="-3.0793270" lon="37.3585210">
    <ele>5830.0</ele>
    <time>2026-06-23T04:26:20Z</time>
   </trkpt>
   <trkpt lat="-3.0793280" lon="37.3585160">
    <ele>5830.0</ele>
    <time>2026-06-23T04:26:21Z</time>
   </trkpt>
   <trkpt lat="-3.0793270" lon="37.3585110">
    <ele>5830.0</ele>
    <time>2026-06-23T04:26:22Z</time>
   </trkpt>
   <trkpt lat="-3.0793280" lon="37.3585060">
    <ele>5830.1</ele>
    <time>2026-06-23T04:26:23Z</time>
   </trkpt>
   <trkpt lat="-3.0793290" lon="37.3585010">
    <ele>5830.1</ele>
    <time>2026-06-23T04:26:24Z</time>
   </trkpt>
   <trkpt lat="-3.0793290" lon="37.3584970">
    <ele>5830.1</ele>
    <time>2026-06-23T04:26:25Z</time>
   </trkpt>
   <trkpt lat="-3.0793290" lon="37.3584940">
    <ele>5830.1</ele>
    <time>2026-06-23T04:26:26Z</time>
   </trkpt>
   <trkpt lat="-3.0793300" lon="37.3584910">
    <ele>5830.2</ele>
    <time>2026-06-23T04:26:27Z</time>
   </trkpt>
   <trkpt lat="-3.0793290" lon="37.3584860">
    <ele>5830.2</ele>
    <time>2026-06-23T04:26:28Z</time>
   </trkpt>
   <trkpt lat="-3.0793280" lon="37.3584840">
    <ele>5830.2</ele>
    <time>2026-06-23T04:26:29Z</time>
   </trkpt>
   <trkpt lat="-3.0793290" lon="37.3584830">
    <ele>5830.2</ele>
    <time>2026-06-23T04:26:30Z</time>
   </trkpt>
   <trkpt lat="-3.0793260" lon="37.3584770">
    <ele>5830.3</ele>
    <time>2026-06-23T04:26:31Z</time>
   </trkpt>
   <trkpt lat="-3.0793260" lon="37.3584750">
    <ele>5830.3</ele>
    <time>2026-06-23T04:26:32Z</time>
   </trkpt>
   <trkpt lat="-3.0793270" lon="37.3584750">
    <ele>5830.3</ele>
    <time>2026-06-23T04:26:33Z</time>
   </trkpt>
   <trkpt lat="-3.0793260" lon="37.3584700">
    <ele>5830.3</ele>
    <time>2026-06-23T04:26:34Z</time>
   </trkpt>
   <trkpt lat="-3.0793260" lon="37.3584700">
    <ele>5830.3</ele>
    <time>2026-06-23T04:26:35Z</time>
   </trkpt>
   <trkpt lat="-3.0793260" lon="37.3584690">
    <ele>5830.3</ele>
    <time>2026-06-23T04:26:36Z</time>
   </trkpt>
   <trkpt lat="-3.0793260" lon="37.3584700">
    <ele>5830.3</ele>
    <time>2026-06-23T04:26:37Z</time>
   </trkpt>
   <trkpt lat="-3.0793260" lon="37.3584680">
    <ele>5830.3</ele>
    <time>2026-06-23T04:26:38Z</time>
   </trkpt>
   <trkpt lat="-3.0793260" lon="37.3584660">
    <ele>5830.4</ele>
    <time>2026-06-23T04:26:39Z</time>
   </trkpt>
   <trkpt lat="-3.0793230" lon="37.3584620">
    <ele>5830.4</ele>
    <time>2026-06-23T04:26:40Z</time>
   </trkpt>
   <trkpt lat="-3.0793250" lon="37.3584620">
    <ele>5830.4</ele>
    <time>2026-06-23T04:26:41Z</time>
   </trkpt>
   <trkpt lat="-3.0793250" lon="37.3584600">
    <ele>5830.4</ele>
    <time>2026-06-23T04:26:42Z</time>
   </trkpt>
   <trkpt lat="-3.0793230" lon="37.3584600">
    <ele>5830.4</ele>
    <time>2026-06-23T04:26:43Z</time>
   </trkpt>
   <trkpt lat="-3.0793220" lon="37.3584580">
    <ele>5830.4</ele>
    <time>2026-06-23T04:26:44Z</time>
   </trkpt>
   <trkpt lat="-3.0793210" lon="37.3584570">
    <ele>5830.5</ele>
    <time>2026-06-23T04:26:45Z</time>
   </trkpt>
   <trkpt lat="-3.0793260" lon="37.3584560">
    <ele>5830.5</ele>
    <time>2026-06-23T04:26:46Z</time>
   </trkpt>
   <trkpt lat="-3.0793280" lon="37.3584570">
    <ele>5830.5</ele>
    <time>2026-06-23T04:26:47Z</time>
   </trkpt>
   <trkpt lat="-3.0793310" lon="37.3584550">
    <ele>5830.5</ele>
    <time>2026-06-23T04:26:48Z</time>
   </trkpt>
   <trkpt lat="-3.0793350" lon="37.3584540">
    <ele>5830.6</ele>
    <time>2026-06-23T04:26:49Z</time>
   </trkpt>
   <trkpt lat="-3.0793350" lon="37.3584510">
    <ele>5830.6</ele>
    <time>2026-06-23T04:26:50Z</time>
   </trkpt>
   <trkpt lat="-3.0793360" lon="37.3584530">
    <ele>5830.6</ele>
    <time>2026-06-23T04:26:51Z</time>
   </trkpt>
   <trkpt lat="-3.0793360" lon="37.3584490">
    <ele>5830.6</ele>
    <time>2026-06-23T04:26:52Z</time>
   </trkpt>
   <trkpt lat="-3.0793370" lon="37.3584510">
    <ele>5830.6</ele>
    <time>2026-06-23T04:26:53Z</time>
   </trkpt>
   <trkpt lat="-3.0793370" lon="37.3584470">
    <ele>5830.7</ele>
    <time>2026-06-23T04:26:54Z</time>
   </trkpt>
   <trkpt lat="-3.0793410" lon="37.3584440">
    <ele>5830.7</ele>
    <time>2026-06-23T04:26:55Z</time>
   </trkpt>
   <trkpt lat="-3.0793420" lon="37.3584420">
    <ele>5830.7</ele>
    <time>2026-06-23T04:26:56Z</time>
   </trkpt>
   <trkpt lat="-3.0793420" lon="37.3584410">
    <ele>5830.7</ele>
    <time>2026-06-23T04:26:57Z</time>
   </trkpt>
   <trkpt lat="-3.0793430" lon="37.3584390">
    <ele>5830.8</ele>
    <time>2026-06-23T04:26:58Z</time>
   </trkpt>
   <trkpt lat="-3.0793450" lon="37.3584360">
    <ele>5830.8</ele>
    <time>2026-06-23T04:26:59Z</time>
   </trkpt>
   <trkpt lat="-3.0793450" lon="37.3584320">
    <ele>5830.8</ele>
    <time>2026-06-23T04:27:00Z</time>
   </trkpt>
   <trkpt lat="-3.0793470" lon="37.3584280">
    <ele>5830.8</ele>
    <time>2026-06-23T04:27:01Z</time>
   </trkpt>
   <trkpt lat="-3.0793510" lon="37.3584290">
    <ele>5830.9</ele>
    <time>2026-06-23T04:27:02Z</time>
   </trkpt>
   <trkpt lat="-3.0793520" lon="37.3584260">
    <ele>5830.9</ele>
    <time>2026-06-23T04:27:03Z</time>
   </trkpt>
   <trkpt lat="-3.0793550" lon="37.3584240">
    <ele>5830.9</ele>
    <time>2026-06-23T04:27:04Z</time>
   </trkpt>
   <trkpt lat="-3.0793550" lon="37.3584190">
    <ele>5831.0</ele>
    <time>2026-06-23T04:27:05Z</time>
   </trkpt>
   <trkpt lat="-3.0793540" lon="37.3584150">
    <ele>5831.0</ele>
    <time>2026-06-23T04:27:06Z</time>
   </trkpt>
   <trkpt lat="-3.0793530" lon="37.3584110">
    <ele>5831.0</ele>
    <time>2026-06-23T04:27:07Z</time>
   </trkpt>
   <trkpt lat="-3.0793550" lon="37.3584060">
    <ele>5831.1</ele>
    <time>2026-06-23T04:27:08Z</time>
   </trkpt>
   <trkpt lat="-3.0793540" lon="37.3584010">
    <ele>5831.1</ele>
    <time>2026-06-23T04:27:09Z</time>
   </trkpt>
   <trkpt lat="-3.0793570" lon="37.3583960">
    <ele>5831.2</ele>
    <time>2026-06-23T04:27:10Z</time>
   </trkpt>
   <trkpt lat="-3.0793590" lon="37.3583930">
    <ele>5831.2</ele>
    <time>2026-06-23T04:27:11Z</time>
   </trkpt>
   <trkpt lat="-3.0793620" lon="37.3583900">
    <ele>5831.2</ele>
    <time>2026-06-23T04:27:12Z</time>
   </trkpt>
   <trkpt lat="-3.0793640" lon="37.3583860">
    <ele>5831.3</ele>
    <time>2026-06-23T04:27:13Z</time>
   </trkpt>
   <trkpt lat="-3.0793630" lon="37.3583800">
    <ele>5831.3</ele>
    <time>2026-06-23T04:27:14Z</time>
   </trkpt>
   <trkpt lat="-3.0793630" lon="37.3583770">
    <ele>5831.4</ele>
    <time>2026-06-23T04:27:15Z</time>
   </trkpt>
   <trkpt lat="-3.0793600" lon="37.3583710">
    <ele>5831.4</ele>
    <time>2026-06-23T04:27:16Z</time>
   </trkpt>
   <trkpt lat="-3.0793590" lon="37.3583660">
    <ele>5831.5</ele>
    <time>2026-06-23T04:27:17Z</time>
   </trkpt>
   <trkpt lat="-3.0793570" lon="37.3583630">
    <ele>5831.5</ele>
    <time>2026-06-23T04:27:18Z</time>
   </trkpt>
   <trkpt lat="-3.0793550" lon="37.3583570">
    <ele>5831.6</ele>
    <time>2026-06-23T04:27:19Z</time>
   </trkpt>
   <trkpt lat="-3.0793550" lon="37.3583530">
    <ele>5831.6</ele>
    <time>2026-06-23T04:27:20Z</time>
   </trkpt>
   <trkpt lat="-3.0793540" lon="37.3583490">
    <ele>5831.6</ele>
    <time>2026-06-23T04:27:21Z</time>
   </trkpt>
   <trkpt lat="-3.0793550" lon="37.3583460">
    <ele>5831.7</ele>
    <time>2026-06-23T04:27:22Z</time>
   </trkpt>
   <trkpt lat="-3.0793550" lon="37.3583410">
    <ele>5831.7</ele>
    <time>2026-06-23T04:27:23Z</time>
   </trkpt>
   <trkpt lat="-3.0793560" lon="37.3583370">
    <ele>5831.7</ele>
    <time>2026-06-23T04:27:24Z</time>
   </trkpt>
   <trkpt lat="-3.0793560" lon="37.3583320">
    <ele>5831.8</ele>
    <time>2026-06-23T04:27:25Z</time>
   </trkpt>
   <trkpt lat="-3.0793550" lon="37.3583270">
    <ele>5831.8</ele>
    <time>2026-06-23T04:27:26Z</time>
   </trkpt>
   <trkpt lat="-3.0793550" lon="37.3583230">
    <ele>5831.9</ele>
    <time>2026-06-23T04:27:27Z</time>
   </trkpt>
   <trkpt lat="-3.0793550" lon="37.3583180">
    <ele>5831.9</ele>
    <time>2026-06-23T04:27:28Z</time>
   </trkpt>
   <trkpt lat="-3.0793540" lon="37.3583150">
    <ele>5832.0</ele>
    <time>2026-06-23T04:27:29Z</time>
   </trkpt>
   <trkpt lat="-3.0793560" lon="37.3583120">
    <ele>5832.0</ele>
    <time>2026-06-23T04:27:30Z</time>
   </trkpt>
   <trkpt lat="-3.0793590" lon="37.3583090">
    <ele>5832.0</ele>
    <time>2026-06-23T04:27:31Z</time>
   </trkpt>
   <trkpt lat="-3.0793620" lon="37.3583030">
    <ele>5832.1</ele>
    <time>2026-06-23T04:27:32Z</time>
   </trkpt>
   <trkpt lat="-3.0793650" lon="37.3582990">
    <ele>5832.1</ele>
    <time>2026-06-23T04:27:33Z</time>
   </trkpt>
   <trkpt lat="-3.0793650" lon="37.3582960">
    <ele>5832.2</ele>
    <time>2026-06-23T04:27:34Z</time>
   </trkpt>
   <trkpt lat="-3.0793640" lon="37.3582960">
    <ele>5832.2</ele>
    <time>2026-06-23T04:27:35Z</time>
   </trkpt>
   <trkpt lat="-3.0793630" lon="37.3582960">
    <ele>5832.2</ele>
    <time>2026-06-23T04:27:36Z</time>
   </trkpt>
   <trkpt lat="-3.0793620" lon="37.3582970">
    <ele>5832.2</ele>
    <time>2026-06-23T04:27:37Z</time>
   </trkpt>
   <trkpt lat="-3.0793630" lon="37.3582970">
    <ele>5832.2</ele>
    <time>2026-06-23T04:27:38Z</time>
   </trkpt>
   <trkpt lat="-3.0793640" lon="37.3582980">
    <ele>5832.2</ele>
    <time>2026-06-23T04:27:39Z</time>
   </trkpt>
   <trkpt lat="-3.0793630" lon="37.3582980">
    <ele>5832.2</ele>
    <time>2026-06-23T04:27:40Z</time>
   </trkpt>
   <trkpt lat="-3.0793650" lon="37.3582970">
    <ele>5832.3</ele>
    <time>2026-06-23T04:27:41Z</time>
   </trkpt>
   <trkpt lat="-3.0793640" lon="37.3582970">
    <ele>5832.3</ele>
    <time>2026-06-23T04:27:42Z</time>
   </trkpt>
   <trkpt lat="-3.0793620" lon="37.3582940">
    <ele>5832.3</ele>
    <time>2026-06-23T04:27:43Z</time>
   </trkpt>
   <trkpt lat="-3.0793610" lon="37.3582930">
    <ele>5832.3</ele>
    <time>2026-06-23T04:27:44Z</time>
   </trkpt>
   <trkpt lat="-3.0793610" lon="37.3582950">
    <ele>5832.3</ele>
    <time>2026-06-23T04:27:45Z</time>
   </trkpt>
   <trkpt lat="-3.0793620" lon="37.3582930">
    <ele>5832.4</ele>
    <time>2026-06-23T04:27:46Z</time>
   </trkpt>
   <trkpt lat="-3.0793610" lon="37.3582900">
    <ele>5832.4</ele>
    <time>2026-06-23T04:27:47Z</time>
   </trkpt>
   <trkpt lat="-3.0793600" lon="37.3582840">
    <ele>5832.5</ele>
    <time>2026-06-23T04:27:48Z</time>
   </trkpt>
   <trkpt lat="-3.0793580" lon="37.3582790">
    <ele>5832.5</ele>
    <time>2026-06-23T04:27:49Z</time>
   </trkpt>
   <trkpt lat="-3.0793560" lon="37.3582770">
    <ele>5832.5</ele>
    <time>2026-06-23T04:27:50Z</time>
   </trkpt>
   <trkpt lat="-3.0793550" lon="37.3582700">
    <ele>5832.6</ele>
    <time>2026-06-23T04:27:51Z</time>
   </trkpt>
   <trkpt lat="-3.0793530" lon="37.3582660">
    <ele>5832.6</ele>
    <time>2026-06-23T04:27:52Z</time>
   </trkpt>
   <trkpt lat="-3.0793530" lon="37.3582610">
    <ele>5832.7</ele>
    <time>2026-06-23T04:27:53Z</time>
   </trkpt>
   <trkpt lat="-3.0793510" lon="37.3582570">
    <ele>5832.7</ele>
    <time>2026-06-23T04:27:54Z</time>
   </trkpt>
   <trkpt lat="-3.0793500" lon="37.3582530">
    <ele>5832.8</ele>
    <time>2026-06-23T04:27:55Z</time>
   </trkpt>
   <trkpt lat="-3.0793480" lon="37.3582500">
    <ele>5832.8</ele>
    <time>2026-06-23T04:27:56Z</time>
   </trkpt>
   <trkpt lat="-3.0793460" lon="37.3582470">
    <ele>5832.9</ele>
    <time>2026-06-23T04:27:57Z</time>
   </trkpt>
   <trkpt lat="-3.0793440" lon="37.3582430">
    <ele>5832.9</ele>
    <time>2026-06-23T04:27:58Z</time>
   </trkpt>
   <trkpt lat="-3.0793410" lon="37.3582410">
    <ele>5832.9</ele>
    <time>2026-06-23T04:27:59Z</time>
   </trkpt>
   <trkpt lat="-3.0793380" lon="37.3582380">
    <ele>5833.0</ele>
    <time>2026-06-23T04:28:00Z</time>
   </trkpt>
   <trkpt lat="-3.0793370" lon="37.3582360">
    <ele>5833.0</ele>
    <time>2026-06-23T04:28:01Z</time>
   </trkpt>
   <trkpt lat="-3.0793360" lon="37.3582330">
    <ele>5833.0</ele>
    <time>2026-06-23T04:28:02Z</time>
   </trkpt>
   <trkpt lat="-3.0793320" lon="37.3582270">
    <ele>5833.1</ele>
    <time>2026-06-23T04:28:03Z</time>
   </trkpt>
   <trkpt lat="-3.0793320" lon="37.3582230">
    <ele>5833.2</ele>
    <time>2026-06-23T04:28:04Z</time>
   </trkpt>
   <trkpt lat="-3.0793310" lon="37.3582190">
    <ele>5833.2</ele>
    <time>2026-06-23T04:28:05Z</time>
   </trkpt>
   <trkpt lat="-3.0793300" lon="37.3582150">
    <ele>5833.2</ele>
    <time>2026-06-23T04:28:06Z</time>
   </trkpt>
   <trkpt lat="-3.0793270" lon="37.3582090">
    <ele>5833.3</ele>
    <time>2026-06-23T04:28:07Z</time>
   </trkpt>
   <trkpt lat="-3.0793260" lon="37.3582080">
    <ele>5833.3</ele>
    <time>2026-06-23T04:28:08Z</time>
   </trkpt>
   <trkpt lat="-3.0793260" lon="37.3582040">
    <ele>5833.4</ele>
    <time>2026-06-23T04:28:09Z</time>
   </trkpt>
   <trkpt lat="-3.0793240" lon="37.3582000">
    <ele>5833.4</ele>
    <time>2026-06-23T04:28:10Z</time>
   </trkpt>
   <trkpt lat="-3.0793230" lon="37.3581970">
    <ele>5833.5</ele>
    <time>2026-06-23T04:28:11Z</time>
   </trkpt>
   <trkpt lat="-3.0793220" lon="37.3581930">
    <ele>5833.5</ele>
    <time>2026-06-23T04:28:12Z</time>
   </trkpt>
   <trkpt lat="-3.0793200" lon="37.3581910">
    <ele>5833.5</ele>
    <time>2026-06-23T04:28:13Z</time>
   </trkpt>
   <trkpt lat="-3.0793180" lon="37.3581850">
    <ele>5833.6</ele>
    <time>2026-06-23T04:28:14Z</time>
   </trkpt>
   <trkpt lat="-3.0793170" lon="37.3581820">
    <ele>5833.6</ele>
    <time>2026-06-23T04:28:15Z</time>
   </trkpt>
   <trkpt lat="-3.0793160" lon="37.3581790">
    <ele>5833.7</ele>
    <time>2026-06-23T04:28:16Z</time>
   </trkpt>
   <trkpt lat="-3.0793160" lon="37.3581770">
    <ele>5833.7</ele>
    <time>2026-06-23T04:28:17Z</time>
   </trkpt>
   <trkpt lat="-3.0793130" lon="37.3581750">
    <ele>5833.7</ele>
    <time>2026-06-23T04:28:18Z</time>
   </trkpt>
   <trkpt lat="-3.0793110" lon="37.3581690">
    <ele>5833.8</ele>
    <time>2026-06-23T04:28:19Z</time>
   </trkpt>
   <trkpt lat="-3.0793100" lon="37.3581650">
    <ele>5833.8</ele>
    <time>2026-06-23T04:28:20Z</time>
   </trkpt>
   <trkpt lat="-3.0793080" lon="37.3581610">
    <ele>5833.9</ele>
    <time>2026-06-23T04:28:21Z</time>
   </trkpt>
   <trkpt lat="-3.0793060" lon="37.3581560">
    <ele>5833.9</ele>
    <time>2026-06-23T04:28:22Z</time>
   </trkpt>
   <trkpt lat="-3.0793060" lon="37.3581570">
    <ele>5833.9</ele>
    <time>2026-06-23T04:28:23Z</time>
   </trkpt>
   <trkpt lat="-3.0793050" lon="37.3581520">
    <ele>5834.0</ele>
    <time>2026-06-23T04:28:24Z</time>
   </trkpt>
   <trkpt lat="-3.0793010" lon="37.3581490">
    <ele>5834.1</ele>
    <time>2026-06-23T04:28:25Z</time>
   </trkpt>
   <trkpt lat="-3.0793010" lon="37.3581460">
    <ele>5834.1</ele>
    <time>2026-06-23T04:28:26Z</time>
   </trkpt>
   <trkpt lat="-3.0792990" lon="37.3581430">
    <ele>5834.1</ele>
    <time>2026-06-23T04:28:27Z</time>
   </trkpt>
   <trkpt lat="-3.0792970" lon="37.3581380">
    <ele>5834.2</ele>
    <time>2026-06-23T04:28:28Z</time>
   </trkpt>
   <trkpt lat="-3.0792950" lon="37.3581340">
    <ele>5834.3</ele>
    <time>2026-06-23T04:28:29Z</time>
   </trkpt>
   <trkpt lat="-3.0792940" lon="37.3581300">
    <ele>5834.3</ele>
    <time>2026-06-23T04:28:30Z</time>
   </trkpt>
   <trkpt lat="-3.0792920" lon="37.3581250">
    <ele>5834.4</ele>
    <time>2026-06-23T04:28:31Z</time>
   </trkpt>
   <trkpt lat="-3.0792910" lon="37.3581230">
    <ele>5834.4</ele>
    <time>2026-06-23T04:28:32Z</time>
   </trkpt>
   <trkpt lat="-3.0792890" lon="37.3581200">
    <ele>5834.4</ele>
    <time>2026-06-23T04:28:33Z</time>
   </trkpt>
   <trkpt lat="-3.0792880" lon="37.3581180">
    <ele>5834.5</ele>
    <time>2026-06-23T04:28:34Z</time>
   </trkpt>
   <trkpt lat="-3.0792860" lon="37.3581140">
    <ele>5834.5</ele>
    <time>2026-06-23T04:28:35Z</time>
   </trkpt>
   <trkpt lat="-3.0792840" lon="37.3581100">
    <ele>5834.6</ele>
    <time>2026-06-23T04:28:36Z</time>
   </trkpt>
   <trkpt lat="-3.0792820" lon="37.3581080">
    <ele>5834.6</ele>
    <time>2026-06-23T04:28:37Z</time>
   </trkpt>
   <trkpt lat="-3.0792820" lon="37.3581040">
    <ele>5834.6</ele>
    <time>2026-06-23T04:28:38Z</time>
   </trkpt>
   <trkpt lat="-3.0792800" lon="37.3581010">
    <ele>5834.7</ele>
    <time>2026-06-23T04:28:39Z</time>
   </trkpt>
   <trkpt lat="-3.0792790" lon="37.3580980">
    <ele>5834.7</ele>
    <time>2026-06-23T04:28:40Z</time>
   </trkpt>
   <trkpt lat="-3.0792790" lon="37.3580970">
    <ele>5834.7</ele>
    <time>2026-06-23T04:28:41Z</time>
   </trkpt>
   <trkpt lat="-3.0792740" lon="37.3580900">
    <ele>5834.8</ele>
    <time>2026-06-23T04:28:42Z</time>
   </trkpt>
   <trkpt lat="-3.0792750" lon="37.3580890">
    <ele>5834.8</ele>
    <time>2026-06-23T04:28:43Z</time>
   </trkpt>
   <trkpt lat="-3.0792730" lon="37.3580860">
    <ele>5834.9</ele>
    <time>2026-06-23T04:28:44Z</time>
   </trkpt>
   <trkpt lat="-3.0792710" lon="37.3580820">
    <ele>5834.9</ele>
    <time>2026-06-23T04:28:45Z</time>
   </trkpt>
   <trkpt lat="-3.0792700" lon="37.3580790">
    <ele>5835.0</ele>
    <time>2026-06-23T04:28:46Z</time>
   </trkpt>
   <trkpt lat="-3.0792680" lon="37.3580760">
    <ele>5835.0</ele>
    <time>2026-06-23T04:28:47Z</time>
   </trkpt>
   <trkpt lat="-3.0792660" lon="37.3580720">
    <ele>5835.1</ele>
    <time>2026-06-23T04:28:48Z</time>
   </trkpt>
   <trkpt lat="-3.0792640" lon="37.3580690">
    <ele>5835.1</ele>
    <time>2026-06-23T04:28:49Z</time>
   </trkpt>
   <trkpt lat="-3.0792620" lon="37.3580660">
    <ele>5835.2</ele>
    <time>2026-06-23T04:28:50Z</time>
   </trkpt>
   <trkpt lat="-3.0792590" lon="37.3580620">
    <ele>5835.2</ele>
    <time>2026-06-23T04:28:51Z</time>
   </trkpt>
   <trkpt lat="-3.0792580" lon="37.3580620">
    <ele>5835.2</ele>
    <time>2026-06-23T04:28:52Z</time>
   </trkpt>
   <trkpt lat="-3.0792570" lon="37.3580570">
    <ele>5835.3</ele>
    <time>2026-06-23T04:28:53Z</time>
   </trkpt>
   <trkpt lat="-3.0792550" lon="37.3580560">
    <ele>5835.3</ele>
    <time>2026-06-23T04:28:54Z</time>
   </trkpt>
   <trkpt lat="-3.0792530" lon="37.3580520">
    <ele>5835.4</ele>
    <time>2026-06-23T04:28:55Z</time>
   </trkpt>
   <trkpt lat="-3.0792510" lon="37.3580490">
    <ele>5835.4</ele>
    <time>2026-06-23T04:28:56Z</time>
   </trkpt>
   <trkpt lat="-3.0792500" lon="37.3580460">
    <ele>5835.5</ele>
    <time>2026-06-23T04:28:57Z</time>
   </trkpt>
   <trkpt lat="-3.0792480" lon="37.3580430">
    <ele>5835.5</ele>
    <time>2026-06-23T04:28:58Z</time>
   </trkpt>
   <trkpt lat="-3.0792470" lon="37.3580410">
    <ele>5835.5</ele>
    <time>2026-06-23T04:28:59Z</time>
   </trkpt>
   <trkpt lat="-3.0792450" lon="37.3580380">
    <ele>5835.6</ele>
    <time>2026-06-23T04:29:00Z</time>
   </trkpt>
   <trkpt lat="-3.0792440" lon="37.3580380">
    <ele>5835.6</ele>
    <time>2026-06-23T04:29:01Z</time>
   </trkpt>
   <trkpt lat="-3.0792420" lon="37.3580320">
    <ele>5835.7</ele>
    <time>2026-06-23T04:29:02Z</time>
   </trkpt>
   <trkpt lat="-3.0792390" lon="37.3580300">
    <ele>5835.7</ele>
    <time>2026-06-23T04:29:03Z</time>
   </trkpt>
   <trkpt lat="-3.0792380" lon="37.3580260">
    <ele>5835.8</ele>
    <time>2026-06-23T04:29:04Z</time>
   </trkpt>
   <trkpt lat="-3.0792360" lon="37.3580230">
    <ele>5835.8</ele>
    <time>2026-06-23T04:29:05Z</time>
   </trkpt>
   <trkpt lat="-3.0792330" lon="37.3580210">
    <ele>5835.9</ele>
    <time>2026-06-23T04:29:06Z</time>
   </trkpt>
   <trkpt lat="-3.0792330" lon="37.3580180">
    <ele>5835.9</ele>
    <time>2026-06-23T04:29:07Z</time>
   </trkpt>
   <trkpt lat="-3.0792300" lon="37.3580140">
    <ele>5836.0</ele>
    <time>2026-06-23T04:29:08Z</time>
   </trkpt>
   <trkpt lat="-3.0792290" lon="37.3580130">
    <ele>5836.0</ele>
    <time>2026-06-23T04:29:09Z</time>
   </trkpt>
   <trkpt lat="-3.0792270" lon="37.3580110">
    <ele>5836.0</ele>
    <time>2026-06-23T04:29:10Z</time>
   </trkpt>
   <trkpt lat="-3.0792260" lon="37.3580060">
    <ele>5836.1</ele>
    <time>2026-06-23T04:29:11Z</time>
   </trkpt>
   <trkpt lat="-3.0792250" lon="37.3580050">
    <ele>5836.1</ele>
    <time>2026-06-23T04:29:12Z</time>
   </trkpt>
   <trkpt lat="-3.0792240" lon="37.3580020">
    <ele>5836.1</ele>
    <time>2026-06-23T04:29:13Z</time>
   </trkpt>
   <trkpt lat="-3.0792220" lon="37.3579980">
    <ele>5836.2</ele>
    <time>2026-06-23T04:29:14Z</time>
   </trkpt>
   <trkpt lat="-3.0792200" lon="37.3579960">
    <ele>5836.2</ele>
    <time>2026-06-23T04:29:15Z</time>
   </trkpt>
   <trkpt lat="-3.0792190" lon="37.3579940">
    <ele>5836.2</ele>
    <time>2026-06-23T04:29:16Z</time>
   </trkpt>
   <trkpt lat="-3.0792170" lon="37.3579910">
    <ele>5836.3</ele>
    <time>2026-06-23T04:29:17Z</time>
   </trkpt>
   <trkpt lat="-3.0792150" lon="37.3579900">
    <ele>5836.3</ele>
    <time>2026-06-23T04:29:18Z</time>
   </trkpt>
   <trkpt lat="-3.0792140" lon="37.3579880">
    <ele>5836.3</ele>
    <time>2026-06-23T04:29:19Z</time>
   </trkpt>
   <trkpt lat="-3.0792160" lon="37.3579870">
    <ele>5836.4</ele>
    <time>2026-06-23T04:29:20Z</time>
   </trkpt>
   <trkpt lat="-3.0792160" lon="37.3579880">
    <ele>5836.4</ele>
    <time>2026-06-23T04:29:21Z</time>
   </trkpt>
   <trkpt lat="-3.0792140" lon="37.3579870">
    <ele>5836.4</ele>
    <time>2026-06-23T04:29:22Z</time>
   </trkpt>
   <trkpt lat="-3.0792140" lon="37.3579860">
    <ele>5836.4</ele>
    <time>2026-06-23T04:29:23Z</time>
   </trkpt>
   <trkpt lat="-3.0792130" lon="37.3579860">
    <ele>5836.4</ele>
    <time>2026-06-23T04:29:24Z</time>
   </trkpt>
   <trkpt lat="-3.0792130" lon="37.3579870">
    <ele>5836.4</ele>
    <time>2026-06-23T04:29:25Z</time>
   </trkpt>
   <trkpt lat="-3.0792120" lon="37.3579830">
    <ele>5836.5</ele>
    <time>2026-06-23T04:29:26Z</time>
   </trkpt>
   <trkpt lat="-3.0792110" lon="37.3579800">
    <ele>5836.5</ele>
    <time>2026-06-23T04:29:27Z</time>
   </trkpt>
   <trkpt lat="-3.0792090" lon="37.3579760">
    <ele>5836.6</ele>
    <time>2026-06-23T04:29:28Z</time>
   </trkpt>
   <trkpt lat="-3.0792080" lon="37.3579750">
    <ele>5836.6</ele>
    <time>2026-06-23T04:29:29Z</time>
   </trkpt>
   <trkpt lat="-3.0792060" lon="37.3579710">
    <ele>5836.7</ele>
    <time>2026-06-23T04:29:30Z</time>
   </trkpt>
   <trkpt lat="-3.0792040" lon="37.3579680">
    <ele>5836.7</ele>
    <time>2026-06-23T04:29:31Z</time>
   </trkpt>
   <trkpt lat="-3.0792030" lon="37.3579650">
    <ele>5836.8</ele>
    <time>2026-06-23T04:29:32Z</time>
   </trkpt>
   <trkpt lat="-3.0792020" lon="37.3579610">
    <ele>5836.8</ele>
    <time>2026-06-23T04:29:33Z</time>
   </trkpt>
   <trkpt lat="-3.0792000" lon="37.3579580">
    <ele>5836.9</ele>
    <time>2026-06-23T04:29:34Z</time>
   </trkpt>
   <trkpt lat="-3.0791990" lon="37.3579550">
    <ele>5836.9</ele>
    <time>2026-06-23T04:29:35Z</time>
   </trkpt>
   <trkpt lat="-3.0791980" lon="37.3579530">
    <ele>5836.9</ele>
    <time>2026-06-23T04:29:36Z</time>
   </trkpt>
   <trkpt lat="-3.0791950" lon="37.3579490">
    <ele>5837.0</ele>
    <time>2026-06-23T04:29:37Z</time>
   </trkpt>
   <trkpt lat="-3.0791940" lon="37.3579450">
    <ele>5837.1</ele>
    <time>2026-06-23T04:29:38Z</time>
   </trkpt>
   <trkpt lat="-3.0791920" lon="37.3579430">
    <ele>5837.1</ele>
    <time>2026-06-23T04:29:39Z</time>
   </trkpt>
   <trkpt lat="-3.0791910" lon="37.3579380">
    <ele>5837.2</ele>
    <time>2026-06-23T04:29:40Z</time>
   </trkpt>
   <trkpt lat="-3.0791880" lon="37.3579390">
    <ele>5837.2</ele>
    <time>2026-06-23T04:29:41Z</time>
   </trkpt>
   <trkpt lat="-3.0791870" lon="37.3579330">
    <ele>5837.3</ele>
    <time>2026-06-23T04:29:42Z</time>
   </trkpt>
   <trkpt lat="-3.0791870" lon="37.3579280">
    <ele>5837.3</ele>
    <time>2026-06-23T04:29:43Z</time>
   </trkpt>
   <trkpt lat="-3.0791870" lon="37.3579270">
    <ele>5837.4</ele>
    <time>2026-06-23T04:29:44Z</time>
   </trkpt>
   <trkpt lat="-3.0791860" lon="37.3579210">
    <ele>5837.4</ele>
    <time>2026-06-23T04:29:45Z</time>
   </trkpt>
   <trkpt lat="-3.0791840" lon="37.3579190">
    <ele>5837.5</ele>
    <time>2026-06-23T04:29:46Z</time>
   </trkpt>
   <trkpt lat="-3.0791830" lon="37.3579150">
    <ele>5837.5</ele>
    <time>2026-06-23T04:29:47Z</time>
   </trkpt>
   <trkpt lat="-3.0791820" lon="37.3579110">
    <ele>5837.6</ele>
    <time>2026-06-23T04:29:48Z</time>
   </trkpt>
   <trkpt lat="-3.0791810" lon="37.3579090">
    <ele>5837.6</ele>
    <time>2026-06-23T04:29:49Z</time>
   </trkpt>
   <trkpt lat="-3.0791800" lon="37.3579030">
    <ele>5837.7</ele>
    <time>2026-06-23T04:29:50Z</time>
   </trkpt>
   <trkpt lat="-3.0791790" lon="37.3579000">
    <ele>5837.7</ele>
    <time>2026-06-23T04:29:51Z</time>
   </trkpt>
   <trkpt lat="-3.0791790" lon="37.3578960">
    <ele>5837.8</ele>
    <time>2026-06-23T04:29:52Z</time>
   </trkpt>
   <trkpt lat="-3.0791800" lon="37.3578910">
    <ele>5837.8</ele>
    <time>2026-06-23T04:29:53Z</time>
   </trkpt>
   <trkpt lat="-3.0791790" lon="37.3578860">
    <ele>5837.9</ele>
    <time>2026-06-23T04:29:54Z</time>
   </trkpt>
   <trkpt lat="-3.0791790" lon="37.3578800">
    <ele>5838.0</ele>
    <time>2026-06-23T04:29:55Z</time>
   </trkpt>
   <trkpt lat="-3.0791790" lon="37.3578770">
    <ele>5838.0</ele>
    <time>2026-06-23T04:29:56Z</time>
   </trkpt>
   <trkpt lat="-3.0791790" lon="37.3578740">
    <ele>5838.1</ele>
    <time>2026-06-23T04:29:57Z</time>
   </trkpt>
   <trkpt lat="-3.0791780" lon="37.3578710">
    <ele>5838.1</ele>
    <time>2026-06-23T04:29:58Z</time>
   </trkpt>
   <trkpt lat="-3.0791760" lon="37.3578690">
    <ele>5838.1</ele>
    <time>2026-06-23T04:29:59Z</time>
   </trkpt>
   <trkpt lat="-3.0791750" lon="37.3578670">
    <ele>5838.2</ele>
    <time>2026-06-23T04:30:00Z</time>
   </trkpt>
   <trkpt lat="-3.0791730" lon="37.3578620">
    <ele>5838.2</ele>
    <time>2026-06-23T04:30:01Z</time>
   </trkpt>
   <trkpt lat="-3.0791720" lon="37.3578590">
    <ele>5838.3</ele>
    <time>2026-06-23T04:30:02Z</time>
   </trkpt>
   <trkpt lat="-3.0791710" lon="37.3578580">
    <ele>5838.3</ele>
    <time>2026-06-23T04:30:03Z</time>
   </trkpt>
   <trkpt lat="-3.0791700" lon="37.3578520">
    <ele>5838.4</ele>
    <time>2026-06-23T04:30:04Z</time>
   </trkpt>
   <trkpt lat="-3.0791680" lon="37.3578490">
    <ele>5838.4</ele>
    <time>2026-06-23T04:30:05Z</time>
   </trkpt>
   <trkpt lat="-3.0791670" lon="37.3578460">
    <ele>5838.5</ele>
    <time>2026-06-23T04:30:06Z</time>
   </trkpt>
   <trkpt lat="-3.0791650" lon="37.3578440">
    <ele>5838.5</ele>
    <time>2026-06-23T04:30:07Z</time>
   </trkpt>
   <trkpt lat="-3.0791640" lon="37.3578410">
    <ele>5838.5</ele>
    <time>2026-06-23T04:30:08Z</time>
   </trkpt>
   <trkpt lat="-3.0791620" lon="37.3578380">
    <ele>5838.6</ele>
    <time>2026-06-23T04:30:09Z</time>
   </trkpt>
   <trkpt lat="-3.0791610" lon="37.3578360">
    <ele>5838.6</ele>
    <time>2026-06-23T04:30:10Z</time>
   </trkpt>
   <trkpt lat="-3.0791600" lon="37.3578350">
    <ele>5838.6</ele>
    <time>2026-06-23T04:30:11Z</time>
   </trkpt>
   <trkpt lat="-3.0791580" lon="37.3578310">
    <ele>5838.7</ele>
    <time>2026-06-23T04:30:12Z</time>
   </trkpt>
   <trkpt lat="-3.0791570" lon="37.3578270">
    <ele>5838.7</ele>
    <time>2026-06-23T04:30:13Z</time>
   </trkpt>
   <trkpt lat="-3.0791540" lon="37.3578220">
    <ele>5838.8</ele>
    <time>2026-06-23T04:30:14Z</time>
   </trkpt>
   <trkpt lat="-3.0791520" lon="37.3578190">
    <ele>5838.9</ele>
    <time>2026-06-23T04:30:15Z</time>
   </trkpt>
   <trkpt lat="-3.0791520" lon="37.3578140">
    <ele>5838.9</ele>
    <time>2026-06-23T04:30:16Z</time>
   </trkpt>
   <trkpt lat="-3.0791520" lon="37.3578120">
    <ele>5839.0</ele>
    <time>2026-06-23T04:30:17Z</time>
   </trkpt>
   <trkpt lat="-3.0791500" lon="37.3578110">
    <ele>5839.0</ele>
    <time>2026-06-23T04:30:18Z</time>
   </trkpt>
   <trkpt lat="-3.0791510" lon="37.3578080">
    <ele>5839.0</ele>
    <time>2026-06-23T04:30:19Z</time>
   </trkpt>
   <trkpt lat="-3.0791520" lon="37.3578120">
    <ele>5839.1</ele>
    <time>2026-06-23T04:30:20Z</time>
   </trkpt>
   <trkpt lat="-3.0791490" lon="37.3578040">
    <ele>5839.2</ele>
    <time>2026-06-23T04:30:21Z</time>
   </trkpt>
   <trkpt lat="-3.0791480" lon="37.3578020">
    <ele>5839.2</ele>
    <time>2026-06-23T04:30:22Z</time>
   </trkpt>
   <trkpt lat="-3.0791460" lon="37.3577990">
    <ele>5839.3</ele>
    <time>2026-06-23T04:30:23Z</time>
   </trkpt>
   <trkpt lat="-3.0791440" lon="37.3577960">
    <ele>5839.3</ele>
    <time>2026-06-23T04:30:24Z</time>
   </trkpt>
   <trkpt lat="-3.0791420" lon="37.3577920">
    <ele>5839.4</ele>
    <time>2026-06-23T04:30:25Z</time>
   </trkpt>
   <trkpt lat="-3.0791410" lon="37.3577900">
    <ele>5839.4</ele>
    <time>2026-06-23T04:30:26Z</time>
   </trkpt>
   <trkpt lat="-3.0791400" lon="37.3577860">
    <ele>5839.4</ele>
    <time>2026-06-23T04:30:27Z</time>
   </trkpt>
   <trkpt lat="-3.0791390" lon="37.3577840">
    <ele>5839.5</ele>
    <time>2026-06-23T04:30:28Z</time>
   </trkpt>
   <trkpt lat="-3.0791370" lon="37.3577810">
    <ele>5839.5</ele>
    <time>2026-06-23T04:30:29Z</time>
   </trkpt>
   <trkpt lat="-3.0791360" lon="37.3577760">
    <ele>5839.6</ele>
    <time>2026-06-23T04:30:30Z</time>
   </trkpt>
   <trkpt lat="-3.0791360" lon="37.3577770">
    <ele>5839.6</ele>
    <time>2026-06-23T04:30:31Z</time>
   </trkpt>
   <trkpt lat="-3.0791370" lon="37.3577770">
    <ele>5839.6</ele>
    <time>2026-06-23T04:30:32Z</time>
   </trkpt>
   <trkpt lat="-3.0791340" lon="37.3577770">
    <ele>5839.6</ele>
    <time>2026-06-23T04:30:33Z</time>
   </trkpt>
   <trkpt lat="-3.0791320" lon="37.3577710">
    <ele>5839.7</ele>
    <time>2026-06-23T04:30:34Z</time>
   </trkpt>
   <trkpt lat="-3.0791310" lon="37.3577700">
    <ele>5839.7</ele>
    <time>2026-06-23T04:30:35Z</time>
   </trkpt>
   <trkpt lat="-3.0791310" lon="37.3577690">
    <ele>5839.8</ele>
    <time>2026-06-23T04:30:36Z</time>
   </trkpt>
   <trkpt lat="-3.0791300" lon="37.3577680">
    <ele>5839.8</ele>
    <time>2026-06-23T04:30:37Z</time>
   </trkpt>
   <trkpt lat="-3.0791270" lon="37.3577660">
    <ele>5839.8</ele>
    <time>2026-06-23T04:30:38Z</time>
   </trkpt>
   <trkpt lat="-3.0791250" lon="37.3577620">
    <ele>5839.9</ele>
    <time>2026-06-23T04:30:39Z</time>
   </trkpt>
   <trkpt lat="-3.0791240" lon="37.3577590">
    <ele>5839.9</ele>
    <time>2026-06-23T04:30:40Z</time>
   </trkpt>
   <trkpt lat="-3.0791230" lon="37.3577570">
    <ele>5839.9</ele>
    <time>2026-06-23T04:30:41Z</time>
   </trkpt>
   <trkpt lat="-3.0791220" lon="37.3577540">
    <ele>5840.0</ele>
    <time>2026-06-23T04:30:42Z</time>
   </trkpt>
   <trkpt lat="-3.0791180" lon="37.3577500">
    <ele>5840.1</ele>
    <time>2026-06-23T04:30:43Z</time>
   </trkpt>
   <trkpt lat="-3.0791190" lon="37.3577470">
    <ele>5840.1</ele>
    <time>2026-06-23T04:30:44Z</time>
   </trkpt>
   <trkpt lat="-3.0791190" lon="37.3577450">
    <ele>5840.1</ele>
    <time>2026-06-23T04:30:45Z</time>
   </trkpt>
   <trkpt lat="-3.0791170" lon="37.3577420">
    <ele>5840.2</ele>
    <time>2026-06-23T04:30:46Z</time>
   </trkpt>
   <trkpt lat="-3.0791170" lon="37.3577380">
    <ele>5840.2</ele>
    <time>2026-06-23T04:30:47Z</time>
   </trkpt>
   <trkpt lat="-3.0791160" lon="37.3577360">
    <ele>5840.2</ele>
    <time>2026-06-23T04:30:48Z</time>
   </trkpt>
   <trkpt lat="-3.0791140" lon="37.3577330">
    <ele>5840.3</ele>
    <time>2026-06-23T04:30:49Z</time>
   </trkpt>
   <trkpt lat="-3.0791140" lon="37.3577320">
    <ele>5840.3</ele>
    <time>2026-06-23T04:30:50Z</time>
   </trkpt>
   <trkpt lat="-3.0791120" lon="37.3577270">
    <ele>5840.4</ele>
    <time>2026-06-23T04:30:51Z</time>
   </trkpt>
   <trkpt lat="-3.0791100" lon="37.3577250">
    <ele>5840.4</ele>
    <time>2026-06-23T04:30:52Z</time>
   </trkpt>
   <trkpt lat="-3.0791080" lon="37.3577240">
    <ele>5840.4</ele>
    <time>2026-06-23T04:30:53Z</time>
   </trkpt>
   <trkpt lat="-3.0791080" lon="37.3577200">
    <ele>5840.5</ele>
    <time>2026-06-23T04:30:54Z</time>
   </trkpt>
   <trkpt lat="-3.0791060" lon="37.3577160">
    <ele>5840.5</ele>
    <time>2026-06-23T04:30:55Z</time>
   </trkpt>
   <trkpt lat="-3.0791050" lon="37.3577130">
    <ele>5840.6</ele>
    <time>2026-06-23T04:30:56Z</time>
   </trkpt>
   <trkpt lat="-3.0791040" lon="37.3577120">
    <ele>5840.6</ele>
    <time>2026-06-23T04:30:57Z</time>
   </trkpt>
   <trkpt lat="-3.0791020" lon="37.3577090">
    <ele>5840.7</ele>
    <time>2026-06-23T04:30:58Z</time>
   </trkpt>
   <trkpt lat="-3.0791010" lon="37.3577060">
    <ele>5840.7</ele>
    <time>2026-06-23T04:30:59Z</time>
   </trkpt>
   <trkpt lat="-3.0791000" lon="37.3577020">
    <ele>5840.7</ele>
    <time>2026-06-23T04:31:00Z</time>
   </trkpt>
   <trkpt lat="-3.0790990" lon="37.3577010">
    <ele>5840.8</ele>
    <time>2026-06-23T04:31:01Z</time>
   </trkpt>
   <trkpt lat="-3.0790980" lon="37.3576970">
    <ele>5840.8</ele>
    <time>2026-06-23T04:31:02Z</time>
   </trkpt>
   <trkpt lat="-3.0790970" lon="37.3576940">
    <ele>5840.9</ele>
    <time>2026-06-23T04:31:03Z</time>
   </trkpt>
   <trkpt lat="-3.0790960" lon="37.3576900">
    <ele>5840.9</ele>
    <time>2026-06-23T04:31:04Z</time>
   </trkpt>
   <trkpt lat="-3.0790960" lon="37.3576880">
    <ele>5840.9</ele>
    <time>2026-06-23T04:31:05Z</time>
   </trkpt>
   <trkpt lat="-3.0790940" lon="37.3576850">
    <ele>5841.0</ele>
    <time>2026-06-23T04:31:06Z</time>
   </trkpt>
   <trkpt lat="-3.0790940" lon="37.3576820">
    <ele>5841.0</ele>
    <time>2026-06-23T04:31:07Z</time>
   </trkpt>
   <trkpt lat="-3.0790920" lon="37.3576790">
    <ele>5841.1</ele>
    <time>2026-06-23T04:31:08Z</time>
   </trkpt>
   <trkpt lat="-3.0790920" lon="37.3576780">
    <ele>5841.1</ele>
    <time>2026-06-23T04:31:09Z</time>
   </trkpt>
   <trkpt lat="-3.0790910" lon="37.3576730">
    <ele>5841.1</ele>
    <time>2026-06-23T04:31:10Z</time>
   </trkpt>
   <trkpt lat="-3.0790910" lon="37.3576730">
    <ele>5841.1</ele>
    <time>2026-06-23T04:31:11Z</time>
   </trkpt>
   <trkpt lat="-3.0790910" lon="37.3576710">
    <ele>5841.2</ele>
    <time>2026-06-23T04:31:12Z</time>
   </trkpt>
   <trkpt lat="-3.0790900" lon="37.3576680">
    <ele>5841.2</ele>
    <time>2026-06-23T04:31:13Z</time>
   </trkpt>
   <trkpt lat="-3.0790900" lon="37.3576660">
    <ele>5841.2</ele>
    <time>2026-06-23T04:31:14Z</time>
   </trkpt>
   <trkpt lat="-3.0790900" lon="37.3576650">
    <ele>5841.2</ele>
    <time>2026-06-23T04:31:15Z</time>
   </trkpt>
   <trkpt lat="-3.0790890" lon="37.3576630">
    <ele>5841.3</ele>
    <time>2026-06-23T04:31:16Z</time>
   </trkpt>
   <trkpt lat="-3.0790890" lon="37.3576630">
    <ele>5841.3</ele>
    <time>2026-06-23T04:31:17Z</time>
   </trkpt>
   <trkpt lat="-3.0790890" lon="37.3576600">
    <ele>5841.3</ele>
    <time>2026-06-23T04:31:18Z</time>
   </trkpt>
   <trkpt lat="-3.0790880" lon="37.3576570">
    <ele>5841.3</ele>
    <time>2026-06-23T04:31:19Z</time>
   </trkpt>
   <trkpt lat="-3.0790870" lon="37.3576530">
    <ele>5841.4</ele>
    <time>2026-06-23T04:31:20Z</time>
   </trkpt>
   <trkpt lat="-3.0790870" lon="37.3576520">
    <ele>5841.4</ele>
    <time>2026-06-23T04:31:21Z</time>
   </trkpt>
   <trkpt lat="-3.0790860" lon="37.3576500">
    <ele>5841.4</ele>
    <time>2026-06-23T04:31:22Z</time>
   </trkpt>
   <trkpt lat="-3.0790860" lon="37.3576480">
    <ele>5841.5</ele>
    <time>2026-06-23T04:31:23Z</time>
   </trkpt>
   <trkpt lat="-3.0790860" lon="37.3576440">
    <ele>5841.5</ele>
    <time>2026-06-23T04:31:24Z</time>
   </trkpt>
   <trkpt lat="-3.0790870" lon="37.3576410">
    <ele>5841.6</ele>
    <time>2026-06-23T04:31:25Z</time>
   </trkpt>
   <trkpt lat="-3.0790860" lon="37.3576370">
    <ele>5841.6</ele>
    <time>2026-06-23T04:31:26Z</time>
   </trkpt>
   <trkpt lat="-3.0790860" lon="37.3576350">
    <ele>5841.6</ele>
    <time>2026-06-23T04:31:27Z</time>
   </trkpt>
   <trkpt lat="-3.0790850" lon="37.3576330">
    <ele>5841.7</ele>
    <time>2026-06-23T04:31:28Z</time>
   </trkpt>
   <trkpt lat="-3.0790840" lon="37.3576290">
    <ele>5841.7</ele>
    <time>2026-06-23T04:31:29Z</time>
   </trkpt>
   <trkpt lat="-3.0790820" lon="37.3576290">
    <ele>5841.7</ele>
    <time>2026-06-23T04:31:30Z</time>
   </trkpt>
   <trkpt lat="-3.0790820" lon="37.3576250">
    <ele>5841.8</ele>
    <time>2026-06-23T04:31:31Z</time>
   </trkpt>
   <trkpt lat="-3.0790800" lon="37.3576230">
    <ele>5841.8</ele>
    <time>2026-06-23T04:31:32Z</time>
   </trkpt>
   <trkpt lat="-3.0790800" lon="37.3576190">
    <ele>5841.9</ele>
    <time>2026-06-23T04:31:33Z</time>
   </trkpt>
   <trkpt lat="-3.0790780" lon="37.3576170">
    <ele>5841.9</ele>
    <time>2026-06-23T04:31:34Z</time>
   </trkpt>
   <trkpt lat="-3.0790780" lon="37.3576140">
    <ele>5842.0</ele>
    <time>2026-06-23T04:31:35Z</time>
   </trkpt>
   <trkpt lat="-3.0790770" lon="37.3576110">
    <ele>5842.0</ele>
    <time>2026-06-23T04:31:36Z</time>
   </trkpt>
   <trkpt lat="-3.0790770" lon="37.3576090">
    <ele>5842.0</ele>
    <time>2026-06-23T04:31:37Z</time>
   </trkpt>
   <trkpt lat="-3.0790750" lon="37.3576050">
    <ele>5842.1</ele>
    <time>2026-06-23T04:31:38Z</time>
   </trkpt>
   <trkpt lat="-3.0790740" lon="37.3576020">
    <ele>5842.1</ele>
    <time>2026-06-23T04:31:39Z</time>
   </trkpt>
   <trkpt lat="-3.0790730" lon="37.3576000">
    <ele>5842.2</ele>
    <time>2026-06-23T04:31:40Z</time>
   </trkpt>
   <trkpt lat="-3.0790720" lon="37.3575940">
    <ele>5842.2</ele>
    <time>2026-06-23T04:31:41Z</time>
   </trkpt>
   <trkpt lat="-3.0790720" lon="37.3575930">
    <ele>5842.3</ele>
    <time>2026-06-23T04:31:42Z</time>
   </trkpt>
   <trkpt lat="-3.0790720" lon="37.3575870">
    <ele>5842.3</ele>
    <time>2026-06-23T04:31:43Z</time>
   </trkpt>
   <trkpt lat="-3.0790700" lon="37.3575850">
    <ele>5842.4</ele>
    <time>2026-06-23T04:31:44Z</time>
   </trkpt>
   <trkpt lat="-3.0790690" lon="37.3575800">
    <ele>5842.4</ele>
    <time>2026-06-23T04:31:45Z</time>
   </trkpt>
   <trkpt lat="-3.0790680" lon="37.3575770">
    <ele>5842.5</ele>
    <time>2026-06-23T04:31:46Z</time>
   </trkpt>
   <trkpt lat="-3.0790670" lon="37.3575740">
    <ele>5842.5</ele>
    <time>2026-06-23T04:31:47Z</time>
   </trkpt>
   <trkpt lat="-3.0790650" lon="37.3575700">
    <ele>5842.6</ele>
    <time>2026-06-23T04:31:48Z</time>
   </trkpt>
   <trkpt lat="-3.0790630" lon="37.3575670">
    <ele>5842.6</ele>
    <time>2026-06-23T04:31:49Z</time>
   </trkpt>
   <trkpt lat="-3.0790620" lon="37.3575630">
    <ele>5842.7</ele>
    <time>2026-06-23T04:31:50Z</time>
   </trkpt>
   <trkpt lat="-3.0790600" lon="37.3575600">
    <ele>5842.7</ele>
    <time>2026-06-23T04:31:51Z</time>
   </trkpt>
   <trkpt lat="-3.0790590" lon="37.3575560">
    <ele>5842.8</ele>
    <time>2026-06-23T04:31:52Z</time>
   </trkpt>
   <trkpt lat="-3.0790570" lon="37.3575550">
    <ele>5842.8</ele>
    <time>2026-06-23T04:31:53Z</time>
   </trkpt>
   <trkpt lat="-3.0790560" lon="37.3575500">
    <ele>5842.9</ele>
    <time>2026-06-23T04:31:54Z</time>
   </trkpt>
   <trkpt lat="-3.0790540" lon="37.3575470">
    <ele>5843.0</ele>
    <time>2026-06-23T04:31:55Z</time>
   </trkpt>
   <trkpt lat="-3.0790520" lon="37.3575430">
    <ele>5843.0</ele>
    <time>2026-06-23T04:31:56Z</time>
   </trkpt>
   <trkpt lat="-3.0790500" lon="37.3575390">
    <ele>5843.1</ele>
    <time>2026-06-23T04:31:57Z</time>
   </trkpt>
   <trkpt lat="-3.0790500" lon="37.3575360">
    <ele>5843.1</ele>
    <time>2026-06-23T04:31:58Z</time>
   </trkpt>
   <trkpt lat="-3.0790500" lon="37.3575310">
    <ele>5843.2</ele>
    <time>2026-06-23T04:31:59Z</time>
   </trkpt>
   <trkpt lat="-3.0790490" lon="37.3575260">
    <ele>5843.3</ele>
    <time>2026-06-23T04:32:00Z</time>
   </trkpt>
   <trkpt lat="-3.0790480" lon="37.3575220">
    <ele>5843.3</ele>
    <time>2026-06-23T04:32:01Z</time>
   </trkpt>
   <trkpt lat="-3.0790470" lon="37.3575180">
    <ele>5843.4</ele>
    <time>2026-06-23T04:32:02Z</time>
   </trkpt>
   <trkpt lat="-3.0790460" lon="37.3575140">
    <ele>5843.5</ele>
    <time>2026-06-23T04:32:03Z</time>
   </trkpt>
   <trkpt lat="-3.0790440" lon="37.3575100">
    <ele>5843.5</ele>
    <time>2026-06-23T04:32:04Z</time>
   </trkpt>
   <trkpt lat="-3.0790430" lon="37.3575070">
    <ele>5843.6</ele>
    <time>2026-06-23T04:32:05Z</time>
   </trkpt>
   <trkpt lat="-3.0790400" lon="37.3575020">
    <ele>5843.7</ele>
    <time>2026-06-23T04:32:06Z</time>
   </trkpt>
   <trkpt lat="-3.0790390" lon="37.3574990">
    <ele>5843.7</ele>
    <time>2026-06-23T04:32:07Z</time>
   </trkpt>
   <trkpt lat="-3.0790370" lon="37.3574940">
    <ele>5843.8</ele>
    <time>2026-06-23T04:32:08Z</time>
   </trkpt>
   <trkpt lat="-3.0790360" lon="37.3574900">
    <ele>5843.9</ele>
    <time>2026-06-23T04:32:09Z</time>
   </trkpt>
   <trkpt lat="-3.0790340" lon="37.3574850">
    <ele>5844.0</ele>
    <time>2026-06-23T04:32:10Z</time>
   </trkpt>
   <trkpt lat="-3.0790330" lon="37.3574810">
    <ele>5844.0</ele>
    <time>2026-06-23T04:32:11Z</time>
   </trkpt>
   <trkpt lat="-3.0790320" lon="37.3574770">
    <ele>5844.1</ele>
    <time>2026-06-23T04:32:12Z</time>
   </trkpt>
   <trkpt lat="-3.0790300" lon="37.3574720">
    <ele>5844.2</ele>
    <time>2026-06-23T04:32:13Z</time>
   </trkpt>
   <trkpt lat="-3.0790290" lon="37.3574680">
    <ele>5844.2</ele>
    <time>2026-06-23T04:32:14Z</time>
   </trkpt>
   <trkpt lat="-3.0790280" lon="37.3574630">
    <ele>5844.3</ele>
    <time>2026-06-23T04:32:15Z</time>
   </trkpt>
   <trkpt lat="-3.0790270" lon="37.3574580">
    <ele>5844.4</ele>
    <time>2026-06-23T04:32:16Z</time>
   </trkpt>
   <trkpt lat="-3.0790260" lon="37.3574530">
    <ele>5844.5</ele>
    <time>2026-06-23T04:32:17Z</time>
   </trkpt>
   <trkpt lat="-3.0790240" lon="37.3574500">
    <ele>5844.6</ele>
    <time>2026-06-23T04:32:18Z</time>
   </trkpt>
   <trkpt lat="-3.0790220" lon="37.3574450">
    <ele>5844.7</ele>
    <time>2026-06-23T04:32:19Z</time>
   </trkpt>
   <trkpt lat="-3.0790210" lon="37.3574390">
    <ele>5844.8</ele>
    <time>2026-06-23T04:32:20Z</time>
   </trkpt>
   <trkpt lat="-3.0790200" lon="37.3574360">
    <ele>5844.8</ele>
    <time>2026-06-23T04:32:21Z</time>
   </trkpt>
   <trkpt lat="-3.0790190" lon="37.3574320">
    <ele>5844.9</ele>
    <time>2026-06-23T04:32:22Z</time>
   </trkpt>
   <trkpt lat="-3.0790170" lon="37.3574270">
    <ele>5845.0</ele>
    <time>2026-06-23T04:32:23Z</time>
   </trkpt>
   <trkpt lat="-3.0790150" lon="37.3574230">
    <ele>5845.1</ele>
    <time>2026-06-23T04:32:24Z</time>
   </trkpt>
   <trkpt lat="-3.0790130" lon="37.3574200">
    <ele>5845.1</ele>
    <time>2026-06-23T04:32:25Z</time>
   </trkpt>
   <trkpt lat="-3.0790110" lon="37.3574140">
    <ele>5845.2</ele>
    <time>2026-06-23T04:32:26Z</time>
   </trkpt>
   <trkpt lat="-3.0790090" lon="37.3574090">
    <ele>5845.3</ele>
    <time>2026-06-23T04:32:27Z</time>
   </trkpt>
   <trkpt lat="-3.0790070" lon="37.3574040">
    <ele>5845.4</ele>
    <time>2026-06-23T04:32:28Z</time>
   </trkpt>
   <trkpt lat="-3.0790070" lon="37.3574020">
    <ele>5845.5</ele>
    <time>2026-06-23T04:32:29Z</time>
   </trkpt>
   <trkpt lat="-3.0790060" lon="37.3573950">
    <ele>5845.6</ele>
    <time>2026-06-23T04:32:30Z</time>
   </trkpt>
   <trkpt lat="-3.0790060" lon="37.3573920">
    <ele>5845.7</ele>
    <time>2026-06-23T04:32:31Z</time>
   </trkpt>
   <trkpt lat="-3.0790050" lon="37.3573890">
    <ele>5845.7</ele>
    <time>2026-06-23T04:32:32Z</time>
   </trkpt>
   <trkpt lat="-3.0790030" lon="37.3573850">
    <ele>5845.8</ele>
    <time>2026-06-23T04:32:33Z</time>
   </trkpt>
   <trkpt lat="-3.0790010" lon="37.3573820">
    <ele>5845.9</ele>
    <time>2026-06-23T04:32:34Z</time>
   </trkpt>
   <trkpt lat="-3.0789990" lon="37.3573780">
    <ele>5845.9</ele>
    <time>2026-06-23T04:32:35Z</time>
   </trkpt>
   <trkpt lat="-3.0789980" lon="37.3573730">
    <ele>5846.0</ele>
    <time>2026-06-23T04:32:36Z</time>
   </trkpt>
   <trkpt lat="-3.0789970" lon="37.3573700">
    <ele>5846.1</ele>
    <time>2026-06-23T04:32:37Z</time>
   </trkpt>
   <trkpt lat="-3.0789950" lon="37.3573660">
    <ele>5846.2</ele>
    <time>2026-06-23T04:32:38Z</time>
   </trkpt>
   <trkpt lat="-3.0789930" lon="37.3573620">
    <ele>5846.3</ele>
    <time>2026-06-23T04:32:39Z</time>
   </trkpt>
   <trkpt lat="-3.0789910" lon="37.3573570">
    <ele>5846.4</ele>
    <time>2026-06-23T04:32:40Z</time>
   </trkpt>
   <trkpt lat="-3.0789890" lon="37.3573530">
    <ele>5846.4</ele>
    <time>2026-06-23T04:32:41Z</time>
   </trkpt>
   <trkpt lat="-3.0789870" lon="37.3573490">
    <ele>5846.5</ele>
    <time>2026-06-23T04:32:42Z</time>
   </trkpt>
   <trkpt lat="-3.0789850" lon="37.3573470">
    <ele>5846.6</ele>
    <time>2026-06-23T04:32:43Z</time>
   </trkpt>
   <trkpt lat="-3.0789830" lon="37.3573430">
    <ele>5846.7</ele>
    <time>2026-06-23T04:32:44Z</time>
   </trkpt>
   <trkpt lat="-3.0789810" lon="37.3573390">
    <ele>5846.8</ele>
    <time>2026-06-23T04:32:45Z</time>
   </trkpt>
   <trkpt lat="-3.0789790" lon="37.3573350">
    <ele>5846.8</ele>
    <time>2026-06-23T04:32:46Z</time>
   </trkpt>
   <trkpt lat="-3.0789780" lon="37.3573310">
    <ele>5846.9</ele>
    <time>2026-06-23T04:32:47Z</time>
   </trkpt>
   <trkpt lat="-3.0789760" lon="37.3573270">
    <ele>5847.0</ele>
    <time>2026-06-23T04:32:48Z</time>
   </trkpt>
   <trkpt lat="-3.0789760" lon="37.3573220">
    <ele>5847.1</ele>
    <time>2026-06-23T04:32:49Z</time>
   </trkpt>
   <trkpt lat="-3.0789760" lon="37.3573180">
    <ele>5847.2</ele>
    <time>2026-06-23T04:32:50Z</time>
   </trkpt>
   <trkpt lat="-3.0789750" lon="37.3573150">
    <ele>5847.2</ele>
    <time>2026-06-23T04:32:51Z</time>
   </trkpt>
   <trkpt lat="-3.0789740" lon="37.3573100">
    <ele>5847.3</ele>
    <time>2026-06-23T04:32:52Z</time>
   </trkpt>
   <trkpt lat="-3.0789720" lon="37.3573080">
    <ele>5847.4</ele>
    <time>2026-06-23T04:32:53Z</time>
   </trkpt>
   <trkpt lat="-3.0789700" lon="37.3573040">
    <ele>5847.5</ele>
    <time>2026-06-23T04:32:54Z</time>
   </trkpt>
   <trkpt lat="-3.0789670" lon="37.3573000">
    <ele>5847.6</ele>
    <time>2026-06-23T04:32:55Z</time>
   </trkpt>
   <trkpt lat="-3.0789650" lon="37.3572980">
    <ele>5847.6</ele>
    <time>2026-06-23T04:32:56Z</time>
   </trkpt>
   <trkpt lat="-3.0789630" lon="37.3572930">
    <ele>5847.7</ele>
    <time>2026-06-23T04:32:57Z</time>
   </trkpt>
   <trkpt lat="-3.0789630" lon="37.3572890">
    <ele>5847.8</ele>
    <time>2026-06-23T04:32:58Z</time>
   </trkpt>
   <trkpt lat="-3.0789630" lon="37.3572850">
    <ele>5847.9</ele>
    <time>2026-06-23T04:32:59Z</time>
   </trkpt>
   <trkpt lat="-3.0789630" lon="37.3572820">
    <ele>5847.9</ele>
    <time>2026-06-23T04:33:00Z</time>
   </trkpt>
   <trkpt lat="-3.0789630" lon="37.3572770">
    <ele>5848.0</ele>
    <time>2026-06-23T04:33:01Z</time>
   </trkpt>
   <trkpt lat="-3.0789640" lon="37.3572740">
    <ele>5848.1</ele>
    <time>2026-06-23T04:33:02Z</time>
   </trkpt>
   <trkpt lat="-3.0789650" lon="37.3572700">
    <ele>5848.1</ele>
    <time>2026-06-23T04:33:03Z</time>
   </trkpt>
   <trkpt lat="-3.0789650" lon="37.3572640">
    <ele>5848.3</ele>
    <time>2026-06-23T04:33:04Z</time>
   </trkpt>
   <trkpt lat="-3.0789640" lon="37.3572610">
    <ele>5848.3</ele>
    <time>2026-06-23T04:33:05Z</time>
   </trkpt>
   <trkpt lat="-3.0789640" lon="37.3572570">
    <ele>5848.4</ele>
    <time>2026-06-23T04:33:06Z</time>
   </trkpt>
   <trkpt lat="-3.0789620" lon="37.3572520">
    <ele>5848.5</ele>
    <time>2026-06-23T04:33:07Z</time>
   </trkpt>
   <trkpt lat="-3.0789610" lon="37.3572490">
    <ele>5848.6</ele>
    <time>2026-06-23T04:33:08Z</time>
   </trkpt>
   <trkpt lat="-3.0789590" lon="37.3572460">
    <ele>5848.6</ele>
    <time>2026-06-23T04:33:09Z</time>
   </trkpt>
   <trkpt lat="-3.0789560" lon="37.3572430">
    <ele>5848.7</ele>
    <time>2026-06-23T04:33:10Z</time>
   </trkpt>
   <trkpt lat="-3.0789530" lon="37.3572410">
    <ele>5848.8</ele>
    <time>2026-06-23T04:33:11Z</time>
   </trkpt>
   <trkpt lat="-3.0789500" lon="37.3572410">
    <ele>5848.8</ele>
    <time>2026-06-23T04:33:12Z</time>
   </trkpt>
   <trkpt lat="-3.0789450" lon="37.3572400">
    <ele>5848.9</ele>
    <time>2026-06-23T04:33:13Z</time>
   </trkpt>
   <trkpt lat="-3.0789420" lon="37.3572410">
    <ele>5849.0</ele>
    <time>2026-06-23T04:33:14Z</time>
   </trkpt>
   <trkpt lat="-3.0789400" lon="37.3572410">
    <ele>5849.0</ele>
    <time>2026-06-23T04:33:15Z</time>
   </trkpt>
   <trkpt lat="-3.0789350" lon="37.3572400">
    <ele>5849.1</ele>
    <time>2026-06-23T04:33:16Z</time>
   </trkpt>
   <trkpt lat="-3.0789320" lon="37.3572380">
    <ele>5849.2</ele>
    <time>2026-06-23T04:33:17Z</time>
   </trkpt>
   <trkpt lat="-3.0789300" lon="37.3572380">
    <ele>5849.2</ele>
    <time>2026-06-23T04:33:18Z</time>
   </trkpt>
   <trkpt lat="-3.0789280" lon="37.3572350">
    <ele>5849.3</ele>
    <time>2026-06-23T04:33:19Z</time>
   </trkpt>
   <trkpt lat="-3.0789250" lon="37.3572330">
    <ele>5849.4</ele>
    <time>2026-06-23T04:33:20Z</time>
   </trkpt>
   <trkpt lat="-3.0789230" lon="37.3572300">
    <ele>5849.5</ele>
    <time>2026-06-23T04:33:21Z</time>
   </trkpt>
   <trkpt lat="-3.0789210" lon="37.3572280">
    <ele>5849.5</ele>
    <time>2026-06-23T04:33:22Z</time>
   </trkpt>
   <trkpt lat="-3.0789200" lon="37.3572260">
    <ele>5849.6</ele>
    <time>2026-06-23T04:33:23Z</time>
   </trkpt>
   <trkpt lat="-3.0789190" lon="37.3572240">
    <ele>5849.6</ele>
    <time>2026-06-23T04:33:24Z</time>
   </trkpt>
   <trkpt lat="-3.0789190" lon="37.3572210">
    <ele>5849.7</ele>
    <time>2026-06-23T04:33:25Z</time>
   </trkpt>
   <trkpt lat="-3.0789170" lon="37.3572200">
    <ele>5849.7</ele>
    <time>2026-06-23T04:33:26Z</time>
   </trkpt>
   <trkpt lat="-3.0789150" lon="37.3572170">
    <ele>5849.8</ele>
    <time>2026-06-23T04:33:27Z</time>
   </trkpt>
   <trkpt lat="-3.0789130" lon="37.3572150">
    <ele>5849.9</ele>
    <time>2026-06-23T04:33:28Z</time>
   </trkpt>
   <trkpt lat="-3.0789110" lon="37.3572120">
    <ele>5849.9</ele>
    <time>2026-06-23T04:33:29Z</time>
   </trkpt>
   <trkpt lat="-3.0789090" lon="37.3572090">
    <ele>5850.0</ele>
    <time>2026-06-23T04:33:30Z</time>
   </trkpt>
   <trkpt lat="-3.0789070" lon="37.3572060">
    <ele>5850.1</ele>
    <time>2026-06-23T04:33:31Z</time>
   </trkpt>
   <trkpt lat="-3.0789060" lon="37.3572060">
    <ele>5850.1</ele>
    <time>2026-06-23T04:33:32Z</time>
   </trkpt>
   <trkpt lat="-3.0789040" lon="37.3572020">
    <ele>5850.2</ele>
    <time>2026-06-23T04:33:33Z</time>
   </trkpt>
   <trkpt lat="-3.0789030" lon="37.3572030">
    <ele>5850.2</ele>
    <time>2026-06-23T04:33:34Z</time>
   </trkpt>
   <trkpt lat="-3.0789010" lon="37.3571980">
    <ele>5850.3</ele>
    <time>2026-06-23T04:33:35Z</time>
   </trkpt>
   <trkpt lat="-3.0788990" lon="37.3571970">
    <ele>5850.4</ele>
    <time>2026-06-23T04:33:36Z</time>
   </trkpt>
   <trkpt lat="-3.0788970" lon="37.3571930">
    <ele>5850.5</ele>
    <time>2026-06-23T04:33:37Z</time>
   </trkpt>
   <trkpt lat="-3.0788950" lon="37.3571930">
    <ele>5850.5</ele>
    <time>2026-06-23T04:33:38Z</time>
   </trkpt>
   <trkpt lat="-3.0788940" lon="37.3571900">
    <ele>5850.6</ele>
    <time>2026-06-23T04:33:39Z</time>
   </trkpt>
   <trkpt lat="-3.0788920" lon="37.3571900">
    <ele>5850.6</ele>
    <time>2026-06-23T04:33:40Z</time>
   </trkpt>
   <trkpt lat="-3.0788900" lon="37.3571860">
    <ele>5850.7</ele>
    <time>2026-06-23T04:33:41Z</time>
   </trkpt>
   <trkpt lat="-3.0788890" lon="37.3571850">
    <ele>5850.7</ele>
    <time>2026-06-23T04:33:42Z</time>
   </trkpt>
   <trkpt lat="-3.0788870" lon="37.3571810">
    <ele>5850.8</ele>
    <time>2026-06-23T04:33:43Z</time>
   </trkpt>
   <trkpt lat="-3.0788850" lon="37.3571800">
    <ele>5850.9</ele>
    <time>2026-06-23T04:33:44Z</time>
   </trkpt>
   <trkpt lat="-3.0788840" lon="37.3571780">
    <ele>5850.9</ele>
    <time>2026-06-23T04:33:45Z</time>
   </trkpt>
   <trkpt lat="-3.0788820" lon="37.3571760">
    <ele>5851.0</ele>
    <time>2026-06-23T04:33:46Z</time>
   </trkpt>
   <trkpt lat="-3.0788800" lon="37.3571740">
    <ele>5851.0</ele>
    <time>2026-06-23T04:33:47Z</time>
   </trkpt>
   <trkpt lat="-3.0788780" lon="37.3571720">
    <ele>5851.1</ele>
    <time>2026-06-23T04:33:48Z</time>
   </trkpt>
   <trkpt lat="-3.0788760" lon="37.3571680">
    <ele>5851.2</ele>
    <time>2026-06-23T04:33:49Z</time>
   </trkpt>
   <trkpt lat="-3.0788740" lon="37.3571670">
    <ele>5851.2</ele>
    <time>2026-06-23T04:33:50Z</time>
   </trkpt>
   <trkpt lat="-3.0788720" lon="37.3571640">
    <ele>5851.3</ele>
    <time>2026-06-23T04:33:51Z</time>
   </trkpt>
   <trkpt lat="-3.0788710" lon="37.3571640">
    <ele>5851.3</ele>
    <time>2026-06-23T04:33:52Z</time>
   </trkpt>
   <trkpt lat="-3.0788690" lon="37.3571620">
    <ele>5851.4</ele>
    <time>2026-06-23T04:33:53Z</time>
   </trkpt>
   <trkpt lat="-3.0788670" lon="37.3571610">
    <ele>5851.4</ele>
    <time>2026-06-23T04:33:54Z</time>
   </trkpt>
   <trkpt lat="-3.0788660" lon="37.3571570">
    <ele>5851.5</ele>
    <time>2026-06-23T04:33:55Z</time>
   </trkpt>
   <trkpt lat="-3.0788640" lon="37.3571580">
    <ele>5851.5</ele>
    <time>2026-06-23T04:33:56Z</time>
   </trkpt>
   <trkpt lat="-3.0788630" lon="37.3571540">
    <ele>5851.6</ele>
    <time>2026-06-23T04:33:57Z</time>
   </trkpt>
   <trkpt lat="-3.0788620" lon="37.3571540">
    <ele>5851.6</ele>
    <time>2026-06-23T04:33:58Z</time>
   </trkpt>
   <trkpt lat="-3.0788600" lon="37.3571500">
    <ele>5851.7</ele>
    <time>2026-06-23T04:33:59Z</time>
   </trkpt>
   <trkpt lat="-3.0788590" lon="37.3571500">
    <ele>5851.8</ele>
    <time>2026-06-23T04:34:00Z</time>
   </trkpt>
   <trkpt lat="-3.0788580" lon="37.3571470">
    <ele>5851.8</ele>
    <time>2026-06-23T04:34:01Z</time>
   </trkpt>
   <trkpt lat="-3.0788550" lon="37.3571440">
    <ele>5851.9</ele>
    <time>2026-06-23T04:34:02Z</time>
   </trkpt>
   <trkpt lat="-3.0788550" lon="37.3571430">
    <ele>5851.9</ele>
    <time>2026-06-23T04:34:03Z</time>
   </trkpt>
   <trkpt lat="-3.0788540" lon="37.3571400">
    <ele>5852.0</ele>
    <time>2026-06-23T04:34:04Z</time>
   </trkpt>
   <trkpt lat="-3.0788530" lon="37.3571380">
    <ele>5852.0</ele>
    <time>2026-06-23T04:34:05Z</time>
   </trkpt>
   <trkpt lat="-3.0788520" lon="37.3571360">
    <ele>5852.1</ele>
    <time>2026-06-23T04:34:06Z</time>
   </trkpt>
   <trkpt lat="-3.0788520" lon="37.3571340">
    <ele>5852.1</ele>
    <time>2026-06-23T04:34:07Z</time>
   </trkpt>
   <trkpt lat="-3.0788490" lon="37.3571310">
    <ele>5852.2</ele>
    <time>2026-06-23T04:34:08Z</time>
   </trkpt>
   <trkpt lat="-3.0788490" lon="37.3571300">
    <ele>5852.2</ele>
    <time>2026-06-23T04:34:09Z</time>
   </trkpt>
   <trkpt lat="-3.0788470" lon="37.3571280">
    <ele>5852.3</ele>
    <time>2026-06-23T04:34:10Z</time>
   </trkpt>
   <trkpt lat="-3.0788460" lon="37.3571250">
    <ele>5852.4</ele>
    <time>2026-06-23T04:34:11Z</time>
   </trkpt>
   <trkpt lat="-3.0788430" lon="37.3571240">
    <ele>5852.4</ele>
    <time>2026-06-23T04:34:12Z</time>
   </trkpt>
   <trkpt lat="-3.0788420" lon="37.3571230">
    <ele>5852.4</ele>
    <time>2026-06-23T04:34:13Z</time>
   </trkpt>
   <trkpt lat="-3.0788400" lon="37.3571190">
    <ele>5852.5</ele>
    <time>2026-06-23T04:34:14Z</time>
   </trkpt>
   <trkpt lat="-3.0788380" lon="37.3571170">
    <ele>5852.6</ele>
    <time>2026-06-23T04:34:15Z</time>
   </trkpt>
   <trkpt lat="-3.0788360" lon="37.3571150">
    <ele>5852.7</ele>
    <time>2026-06-23T04:34:16Z</time>
   </trkpt>
   <trkpt lat="-3.0788340" lon="37.3571130">
    <ele>5852.7</ele>
    <time>2026-06-23T04:34:17Z</time>
   </trkpt>
   <trkpt lat="-3.0788330" lon="37.3571110">
    <ele>5852.8</ele>
    <time>2026-06-23T04:34:18Z</time>
   </trkpt>
   <trkpt lat="-3.0788310" lon="37.3571090">
    <ele>5852.8</ele>
    <time>2026-06-23T04:34:19Z</time>
   </trkpt>
   <trkpt lat="-3.0788300" lon="37.3571070">
    <ele>5852.9</ele>
    <time>2026-06-23T04:34:20Z</time>
   </trkpt>
   <trkpt lat="-3.0788280" lon="37.3571060">
    <ele>5852.9</ele>
    <time>2026-06-23T04:34:21Z</time>
   </trkpt>
   <trkpt lat="-3.0788280" lon="37.3571030">
    <ele>5853.0</ele>
    <time>2026-06-23T04:34:22Z</time>
   </trkpt>
   <trkpt lat="-3.0788250" lon="37.3571020">
    <ele>5853.0</ele>
    <time>2026-06-23T04:34:23Z</time>
   </trkpt>
   <trkpt lat="-3.0788240" lon="37.3570980">
    <ele>5853.1</ele>
    <time>2026-06-23T04:34:24Z</time>
   </trkpt>
   <trkpt lat="-3.0788230" lon="37.3570970">
    <ele>5853.1</ele>
    <time>2026-06-23T04:34:25Z</time>
   </trkpt>
   <trkpt lat="-3.0788210" lon="37.3570940">
    <ele>5853.2</ele>
    <time>2026-06-23T04:34:26Z</time>
   </trkpt>
   <trkpt lat="-3.0788190" lon="37.3570930">
    <ele>5853.3</ele>
    <time>2026-06-23T04:34:27Z</time>
   </trkpt>
   <trkpt lat="-3.0788170" lon="37.3570900">
    <ele>5853.3</ele>
    <time>2026-06-23T04:34:28Z</time>
   </trkpt>
   <trkpt lat="-3.0788150" lon="37.3570890">
    <ele>5853.4</ele>
    <time>2026-06-23T04:34:29Z</time>
   </trkpt>
   <trkpt lat="-3.0788130" lon="37.3570870">
    <ele>5853.4</ele>
    <time>2026-06-23T04:34:30Z</time>
   </trkpt>
   <trkpt lat="-3.0788110" lon="37.3570840">
    <ele>5853.5</ele>
    <time>2026-06-23T04:34:31Z</time>
   </trkpt>
   <trkpt lat="-3.0788100" lon="37.3570830">
    <ele>5853.5</ele>
    <time>2026-06-23T04:34:32Z</time>
   </trkpt>
   <trkpt lat="-3.0788070" lon="37.3570820">
    <ele>5853.6</ele>
    <time>2026-06-23T04:34:33Z</time>
   </trkpt>
   <trkpt lat="-3.0788060" lon="37.3570810">
    <ele>5853.6</ele>
    <time>2026-06-23T04:34:34Z</time>
   </trkpt>
   <trkpt lat="-3.0788020" lon="37.3570770">
    <ele>5853.7</ele>
    <time>2026-06-23T04:34:35Z</time>
   </trkpt>
   <trkpt lat="-3.0788010" lon="37.3570760">
    <ele>5853.8</ele>
    <time>2026-06-23T04:34:36Z</time>
   </trkpt>
   <trkpt lat="-3.0787970" lon="37.3570720">
    <ele>5853.9</ele>
    <time>2026-06-23T04:34:37Z</time>
   </trkpt>
   <trkpt lat="-3.0787950" lon="37.3570720">
    <ele>5853.9</ele>
    <time>2026-06-23T04:34:38Z</time>
   </trkpt>
   <trkpt lat="-3.0787930" lon="37.3570700">
    <ele>5854.0</ele>
    <time>2026-06-23T04:34:39Z</time>
   </trkpt>
   <trkpt lat="-3.0787900" lon="37.3570690">
    <ele>5854.0</ele>
    <time>2026-06-23T04:34:40Z</time>
   </trkpt>
   <trkpt lat="-3.0787870" lon="37.3570660">
    <ele>5854.1</ele>
    <time>2026-06-23T04:34:41Z</time>
   </trkpt>
   <trkpt lat="-3.0787850" lon="37.3570650">
    <ele>5854.2</ele>
    <time>2026-06-23T04:34:42Z</time>
   </trkpt>
   <trkpt lat="-3.0787820" lon="37.3570630">
    <ele>5854.2</ele>
    <time>2026-06-23T04:34:43Z</time>
   </trkpt>
   <trkpt lat="-3.0787790" lon="37.3570610">
    <ele>5854.3</ele>
    <time>2026-06-23T04:34:44Z</time>
   </trkpt>
   <trkpt lat="-3.0787780" lon="37.3570600">
    <ele>5854.3</ele>
    <time>2026-06-23T04:34:45Z</time>
   </trkpt>
   <trkpt lat="-3.0787750" lon="37.3570580">
    <ele>5854.4</ele>
    <time>2026-06-23T04:34:46Z</time>
   </trkpt>
   <trkpt lat="-3.0787730" lon="37.3570560">
    <ele>5854.4</ele>
    <time>2026-06-23T04:34:47Z</time>
   </trkpt>
   <trkpt lat="-3.0787700" lon="37.3570540">
    <ele>5854.5</ele>
    <time>2026-06-23T04:34:48Z</time>
   </trkpt>
   <trkpt lat="-3.0787690" lon="37.3570520">
    <ele>5854.5</ele>
    <time>2026-06-23T04:34:49Z</time>
   </trkpt>
   <trkpt lat="-3.0787660" lon="37.3570500">
    <ele>5854.6</ele>
    <time>2026-06-23T04:34:50Z</time>
   </trkpt>
   <trkpt lat="-3.0787640" lon="37.3570480">
    <ele>5854.7</ele>
    <time>2026-06-23T04:34:51Z</time>
   </trkpt>
   <trkpt lat="-3.0787620" lon="37.3570470">
    <ele>5854.7</ele>
    <time>2026-06-23T04:34:52Z</time>
   </trkpt>
   <trkpt lat="-3.0787600" lon="37.3570440">
    <ele>5854.8</ele>
    <time>2026-06-23T04:34:53Z</time>
   </trkpt>
   <trkpt lat="-3.0787560" lon="37.3570420">
    <ele>5854.9</ele>
    <time>2026-06-23T04:34:54Z</time>
   </trkpt>
   <trkpt lat="-3.0787540" lon="37.3570410">
    <ele>5854.9</ele>
    <time>2026-06-23T04:34:55Z</time>
   </trkpt>
   <trkpt lat="-3.0787520" lon="37.3570390">
    <ele>5855.0</ele>
    <time>2026-06-23T04:34:56Z</time>
   </trkpt>
   <trkpt lat="-3.0787500" lon="37.3570370">
    <ele>5855.0</ele>
    <time>2026-06-23T04:34:57Z</time>
   </trkpt>
   <trkpt lat="-3.0787470" lon="37.3570350">
    <ele>5855.1</ele>
    <time>2026-06-23T04:34:58Z</time>
   </trkpt>
   <trkpt lat="-3.0787460" lon="37.3570330">
    <ele>5855.1</ele>
    <time>2026-06-23T04:34:59Z</time>
   </trkpt>
   <trkpt lat="-3.0787420" lon="37.3570310">
    <ele>5855.2</ele>
    <time>2026-06-23T04:35:00Z</time>
   </trkpt>
   <trkpt lat="-3.0787400" lon="37.3570300">
    <ele>5855.2</ele>
    <time>2026-06-23T04:35:01Z</time>
   </trkpt>
   <trkpt lat="-3.0787380" lon="37.3570290">
    <ele>5855.3</ele>
    <time>2026-06-23T04:35:02Z</time>
   </trkpt>
   <trkpt lat="-3.0787350" lon="37.3570280">
    <ele>5855.3</ele>
    <time>2026-06-23T04:35:03Z</time>
   </trkpt>
   <trkpt lat="-3.0787340" lon="37.3570280">
    <ele>5855.3</ele>
    <time>2026-06-23T04:35:04Z</time>
   </trkpt>
   <trkpt lat="-3.0787300" lon="37.3570280">
    <ele>5855.4</ele>
    <time>2026-06-23T04:35:05Z</time>
   </trkpt>
   <trkpt lat="-3.0787270" lon="37.3570280">
    <ele>5855.4</ele>
    <time>2026-06-23T04:35:06Z</time>
   </trkpt>
   <trkpt lat="-3.0787230" lon="37.3570270">
    <ele>5855.5</ele>
    <time>2026-06-23T04:35:07Z</time>
   </trkpt>
   <trkpt lat="-3.0787200" lon="37.3570260">
    <ele>5855.6</ele>
    <time>2026-06-23T04:35:08Z</time>
   </trkpt>
   <trkpt lat="-3.0787160" lon="37.3570250">
    <ele>5855.6</ele>
    <time>2026-06-23T04:35:09Z</time>
   </trkpt>
   <trkpt lat="-3.0787130" lon="37.3570230">
    <ele>5855.7</ele>
    <time>2026-06-23T04:35:10Z</time>
   </trkpt>
   <trkpt lat="-3.0787120" lon="37.3570220">
    <ele>5855.7</ele>
    <time>2026-06-23T04:35:11Z</time>
   </trkpt>
   <trkpt lat="-3.0787090" lon="37.3570210">
    <ele>5855.8</ele>
    <time>2026-06-23T04:35:12Z</time>
   </trkpt>
   <trkpt lat="-3.0787060" lon="37.3570190">
    <ele>5855.8</ele>
    <time>2026-06-23T04:35:13Z</time>
   </trkpt>
   <trkpt lat="-3.0787030" lon="37.3570190">
    <ele>5855.9</ele>
    <time>2026-06-23T04:35:14Z</time>
   </trkpt>
   <trkpt lat="-3.0787000" lon="37.3570180">
    <ele>5855.9</ele>
    <time>2026-06-23T04:35:15Z</time>
   </trkpt>
   <trkpt lat="-3.0786980" lon="37.3570190">
    <ele>5856.0</ele>
    <time>2026-06-23T04:35:16Z</time>
   </trkpt>
   <trkpt lat="-3.0786950" lon="37.3570190">
    <ele>5856.0</ele>
    <time>2026-06-23T04:35:17Z</time>
   </trkpt>
   <trkpt lat="-3.0786910" lon="37.3570200">
    <ele>5856.1</ele>
    <time>2026-06-23T04:35:18Z</time>
   </trkpt>
   <trkpt lat="-3.0786880" lon="37.3570190">
    <ele>5856.1</ele>
    <time>2026-06-23T04:35:19Z</time>
   </trkpt>
   <trkpt lat="-3.0786860" lon="37.3570160">
    <ele>5856.2</ele>
    <time>2026-06-23T04:35:20Z</time>
   </trkpt>
   <trkpt lat="-3.0786840" lon="37.3570140">
    <ele>5856.2</ele>
    <time>2026-06-23T04:35:21Z</time>
   </trkpt>
   <trkpt lat="-3.0786830" lon="37.3570140">
    <ele>5856.2</ele>
    <time>2026-06-23T04:35:22Z</time>
   </trkpt>
   <trkpt lat="-3.0786820" lon="37.3570100">
    <ele>5856.3</ele>
    <time>2026-06-23T04:35:23Z</time>
   </trkpt>
   <trkpt lat="-3.0786800" lon="37.3570110">
    <ele>5856.3</ele>
    <time>2026-06-23T04:35:24Z</time>
   </trkpt>
   <trkpt lat="-3.0786770" lon="37.3570090">
    <ele>5856.4</ele>
    <time>2026-06-23T04:35:25Z</time>
   </trkpt>
   <trkpt lat="-3.0786730" lon="37.3570110">
    <ele>5856.5</ele>
    <time>2026-06-23T04:35:26Z</time>
   </trkpt>
   <trkpt lat="-3.0786710" lon="37.3570130">
    <ele>5856.5</ele>
    <time>2026-06-23T04:35:27Z</time>
   </trkpt>
   <trkpt lat="-3.0786690" lon="37.3570150">
    <ele>5856.5</ele>
    <time>2026-06-23T04:35:28Z</time>
   </trkpt>
   <trkpt lat="-3.0786670" lon="37.3570160">
    <ele>5856.6</ele>
    <time>2026-06-23T04:35:29Z</time>
   </trkpt>
   <trkpt lat="-3.0786640" lon="37.3570180">
    <ele>5856.6</ele>
    <time>2026-06-23T04:35:30Z</time>
   </trkpt>
   <trkpt lat="-3.0786600" lon="37.3570180">
    <ele>5856.7</ele>
    <time>2026-06-23T04:35:31Z</time>
   </trkpt>
   <trkpt lat="-3.0786580" lon="37.3570180">
    <ele>5856.7</ele>
    <time>2026-06-23T04:35:32Z</time>
   </trkpt>
   <trkpt lat="-3.0786560" lon="37.3570170">
    <ele>5856.7</ele>
    <time>2026-06-23T04:35:33Z</time>
   </trkpt>
   <trkpt lat="-3.0786540" lon="37.3570150">
    <ele>5856.8</ele>
    <time>2026-06-23T04:35:34Z</time>
   </trkpt>
   <trkpt lat="-3.0786520" lon="37.3570130">
    <ele>5856.8</ele>
    <time>2026-06-23T04:35:35Z</time>
   </trkpt>
   <trkpt lat="-3.0786520" lon="37.3570110">
    <ele>5856.9</ele>
    <time>2026-06-23T04:35:36Z</time>
   </trkpt>
   <trkpt lat="-3.0786490" lon="37.3570100">
    <ele>5856.9</ele>
    <time>2026-06-23T04:35:37Z</time>
   </trkpt>
   <trkpt lat="-3.0786480" lon="37.3570060">
    <ele>5857.0</ele>
    <time>2026-06-23T04:35:38Z</time>
   </trkpt>
   <trkpt lat="-3.0786450" lon="37.3570050">
    <ele>5857.0</ele>
    <time>2026-06-23T04:35:39Z</time>
   </trkpt>
   <trkpt lat="-3.0786450" lon="37.3570010">
    <ele>5857.0</ele>
    <time>2026-06-23T04:35:40Z</time>
   </trkpt>
   <trkpt lat="-3.0786430" lon="37.3570000">
    <ele>5857.1</ele>
    <time>2026-06-23T04:35:41Z</time>
   </trkpt>
   <trkpt lat="-3.0786420" lon="37.3569960">
    <ele>5857.1</ele>
    <time>2026-06-23T04:35:42Z</time>
   </trkpt>
   <trkpt lat="-3.0786420" lon="37.3569990">
    <ele>5857.2</ele>
    <time>2026-06-23T04:35:43Z</time>
   </trkpt>
   <trkpt lat="-3.0786400" lon="37.3569960">
    <ele>5857.2</ele>
    <time>2026-06-23T04:35:44Z</time>
   </trkpt>
   <trkpt lat="-3.0786390" lon="37.3569960">
    <ele>5857.2</ele>
    <time>2026-06-23T04:35:45Z</time>
   </trkpt>
   <trkpt lat="-3.0786380" lon="37.3569980">
    <ele>5857.3</ele>
    <time>2026-06-23T04:35:46Z</time>
   </trkpt>
   <trkpt lat="-3.0786350" lon="37.3569980">
    <ele>5857.3</ele>
    <time>2026-06-23T04:35:47Z</time>
   </trkpt>
   <trkpt lat="-3.0786340" lon="37.3570000">
    <ele>5857.3</ele>
    <time>2026-06-23T04:35:48Z</time>
   </trkpt>
   <trkpt lat="-3.0786330" lon="37.3570020">
    <ele>5857.4</ele>
    <time>2026-06-23T04:35:49Z</time>
   </trkpt>
   <trkpt lat="-3.0786300" lon="37.3570030">
    <ele>5857.4</ele>
    <time>2026-06-23T04:35:50Z</time>
   </trkpt>
   <trkpt lat="-3.0786280" lon="37.3570040">
    <ele>5857.4</ele>
    <time>2026-06-23T04:35:51Z</time>
   </trkpt>
   <trkpt lat="-3.0786260" lon="37.3570040">
    <ele>5857.5</ele>
    <time>2026-06-23T04:35:52Z</time>
   </trkpt>
   <trkpt lat="-3.0786240" lon="37.3570030">
    <ele>5857.5</ele>
    <time>2026-06-23T04:35:53Z</time>
   </trkpt>
   <trkpt lat="-3.0786200" lon="37.3570030">
    <ele>5857.5</ele>
    <time>2026-06-23T04:35:54Z</time>
   </trkpt>
   <trkpt lat="-3.0786160" lon="37.3570020">
    <ele>5857.6</ele>
    <time>2026-06-23T04:35:55Z</time>
   </trkpt>
   <trkpt lat="-3.0786160" lon="37.3570000">
    <ele>5857.6</ele>
    <time>2026-06-23T04:35:56Z</time>
   </trkpt>
   <trkpt lat="-3.0786170" lon="37.3570020">
    <ele>5857.7</ele>
    <time>2026-06-23T04:35:57Z</time>
   </trkpt>
   <trkpt lat="-3.0786170" lon="37.3570030">
    <ele>5857.7</ele>
    <time>2026-06-23T04:35:58Z</time>
   </trkpt>
   <trkpt lat="-3.0786170" lon="37.3570040">
    <ele>5857.7</ele>
    <time>2026-06-23T04:35:59Z</time>
   </trkpt>
   <trkpt lat="-3.0786170" lon="37.3570040">
    <ele>5857.7</ele>
    <time>2026-06-23T04:36:00Z</time>
   </trkpt>
   <trkpt lat="-3.0786180" lon="37.3570020">
    <ele>5857.7</ele>
    <time>2026-06-23T04:36:01Z</time>
   </trkpt>
   <trkpt lat="-3.0786180" lon="37.3570030">
    <ele>5857.7</ele>
    <time>2026-06-23T04:36:02Z</time>
   </trkpt>
   <trkpt lat="-3.0786190" lon="37.3570040">
    <ele>5857.7</ele>
    <time>2026-06-23T04:36:03Z</time>
   </trkpt>
   <trkpt lat="-3.0786180" lon="37.3570030">
    <ele>5857.8</ele>
    <time>2026-06-23T04:36:04Z</time>
   </trkpt>
   <trkpt lat="-3.0786180" lon="37.3570030">
    <ele>5857.8</ele>
    <time>2026-06-23T04:36:05Z</time>
   </trkpt>
   <trkpt lat="-3.0786160" lon="37.3570020">
    <ele>5857.8</ele>
    <time>2026-06-23T04:36:06Z</time>
   </trkpt>
   <trkpt lat="-3.0786150" lon="37.3569970">
    <ele>5857.9</ele>
    <time>2026-06-23T04:36:07Z</time>
   </trkpt>
   <trkpt lat="-3.0786160" lon="37.3569930">
    <ele>5857.9</ele>
    <time>2026-06-23T04:36:08Z</time>
   </trkpt>
   <trkpt lat="-3.0786160" lon="37.3569900">
    <ele>5857.9</ele>
    <time>2026-06-23T04:36:09Z</time>
   </trkpt>
   <trkpt lat="-3.0786180" lon="37.3569870">
    <ele>5858.0</ele>
    <time>2026-06-23T04:36:10Z</time>
   </trkpt>
   <trkpt lat="-3.0786190" lon="37.3569870">
    <ele>5858.0</ele>
    <time>2026-06-23T04:36:11Z</time>
   </trkpt>
   <trkpt lat="-3.0786200" lon="37.3569880">
    <ele>5858.0</ele>
    <time>2026-06-23T04:36:12Z</time>
   </trkpt>
   <trkpt lat="-3.0786210" lon="37.3569870">
    <ele>5858.0</ele>
    <time>2026-06-23T04:36:13Z</time>
   </trkpt>
   <trkpt lat="-3.0786220" lon="37.3569880">
    <ele>5858.1</ele>
    <time>2026-06-23T04:36:14Z</time>
   </trkpt>
   <trkpt lat="-3.0786220" lon="37.3569880">
    <ele>5858.1</ele>
    <time>2026-06-23T04:36:15Z</time>
   </trkpt>
   <trkpt lat="-3.0786250" lon="37.3569860">
    <ele>5858.1</ele>
    <time>2026-06-23T04:36:16Z</time>
   </trkpt>
   <trkpt lat="-3.0786270" lon="37.3569860">
    <ele>5858.1</ele>
    <time>2026-06-23T04:36:17Z</time>
   </trkpt>
   <trkpt lat="-3.0786300" lon="37.3569820">
    <ele>5858.2</ele>
    <time>2026-06-23T04:36:18Z</time>
   </trkpt>
   <trkpt lat="-3.0786350" lon="37.3569800">
    <ele>5858.3</ele>
    <time>2026-06-23T04:36:19Z</time>
   </trkpt>
   <trkpt lat="-3.0786400" lon="37.3569750">
    <ele>5858.4</ele>
    <time>2026-06-23T04:36:20Z</time>
   </trkpt>
   <trkpt lat="-3.0786420" lon="37.3569720">
    <ele>5858.4</ele>
    <time>2026-06-23T04:36:21Z</time>
   </trkpt>
   <trkpt lat="-3.0786420" lon="37.3569680">
    <ele>5858.4</ele>
    <time>2026-06-23T04:36:22Z</time>
   </trkpt>
   <trkpt lat="-3.0786450" lon="37.3569680">
    <ele>5858.5</ele>
    <time>2026-06-23T04:36:23Z</time>
   </trkpt>
   <trkpt lat="-3.0786470" lon="37.3569630">
    <ele>5858.6</ele>
    <time>2026-06-23T04:36:24Z</time>
   </trkpt>
   <trkpt lat="-3.0786510" lon="37.3569610">
    <ele>5858.6</ele>
    <time>2026-06-23T04:36:25Z</time>
   </trkpt>
   <trkpt lat="-3.0786510" lon="37.3569550">
    <ele>5858.7</ele>
    <time>2026-06-23T04:36:26Z</time>
   </trkpt>
   <trkpt lat="-3.0786540" lon="37.3569520">
    <ele>5858.7</ele>
    <time>2026-06-23T04:36:27Z</time>
   </trkpt>
   <trkpt lat="-3.0786540" lon="37.3569500">
    <ele>5858.8</ele>
    <time>2026-06-23T04:36:28Z</time>
   </trkpt>
   <trkpt lat="-3.0786550" lon="37.3569440">
    <ele>5858.8</ele>
    <time>2026-06-23T04:36:29Z</time>
   </trkpt>
   <trkpt lat="-3.0786540" lon="37.3569410">
    <ele>5858.9</ele>
    <time>2026-06-23T04:36:30Z</time>
   </trkpt>
   <trkpt lat="-3.0786550" lon="37.3569370">
    <ele>5858.9</ele>
    <time>2026-06-23T04:36:31Z</time>
   </trkpt>
   <trkpt lat="-3.0786550" lon="37.3569340">
    <ele>5859.0</ele>
    <time>2026-06-23T04:36:32Z</time>
   </trkpt>
   <trkpt lat="-3.0786570" lon="37.3569310">
    <ele>5859.0</ele>
    <time>2026-06-23T04:36:33Z</time>
   </trkpt>
   <trkpt lat="-3.0786560" lon="37.3569250">
    <ele>5859.1</ele>
    <time>2026-06-23T04:36:34Z</time>
   </trkpt>
   <trkpt lat="-3.0786570" lon="37.3569210">
    <ele>5859.2</ele>
    <time>2026-06-23T04:36:35Z</time>
   </trkpt>
   <trkpt lat="-3.0786570" lon="37.3569170">
    <ele>5859.2</ele>
    <time>2026-06-23T04:36:36Z</time>
   </trkpt>
   <trkpt lat="-3.0786580" lon="37.3569140">
    <ele>5859.2</ele>
    <time>2026-06-23T04:36:37Z</time>
   </trkpt>
   <trkpt lat="-3.0786580" lon="37.3569100">
    <ele>5859.3</ele>
    <time>2026-06-23T04:36:38Z</time>
   </trkpt>
   <trkpt lat="-3.0786580" lon="37.3569060">
    <ele>5859.4</ele>
    <time>2026-06-23T04:36:39Z</time>
   </trkpt>
   <trkpt lat="-3.0786590" lon="37.3569020">
    <ele>5859.4</ele>
    <time>2026-06-23T04:36:40Z</time>
   </trkpt>
   <trkpt lat="-3.0786590" lon="37.3568980">
    <ele>5859.5</ele>
    <time>2026-06-23T04:36:41Z</time>
   </trkpt>
   <trkpt lat="-3.0786590" lon="37.3568940">
    <ele>5859.5</ele>
    <time>2026-06-23T04:36:42Z</time>
   </trkpt>
   <trkpt lat="-3.0786580" lon="37.3568900">
    <ele>5859.6</ele>
    <time>2026-06-23T04:36:43Z</time>
   </trkpt>
   <trkpt lat="-3.0786600" lon="37.3568840">
    <ele>5859.6</ele>
    <time>2026-06-23T04:36:44Z</time>
   </trkpt>
   <trkpt lat="-3.0786580" lon="37.3568800">
    <ele>5859.7</ele>
    <time>2026-06-23T04:36:45Z</time>
   </trkpt>
   <trkpt lat="-3.0786590" lon="37.3568760">
    <ele>5859.8</ele>
    <time>2026-06-23T04:36:46Z</time>
   </trkpt>
   <trkpt lat="-3.0786570" lon="37.3568730">
    <ele>5859.8</ele>
    <time>2026-06-23T04:36:47Z</time>
   </trkpt>
   <trkpt lat="-3.0786570" lon="37.3568680">
    <ele>5859.9</ele>
    <time>2026-06-23T04:36:48Z</time>
   </trkpt>
   <trkpt lat="-3.0786550" lon="37.3568650">
    <ele>5859.9</ele>
    <time>2026-06-23T04:36:49Z</time>
   </trkpt>
   <trkpt lat="-3.0786550" lon="37.3568610">
    <ele>5860.0</ele>
    <time>2026-06-23T04:36:50Z</time>
   </trkpt>
   <trkpt lat="-3.0786540" lon="37.3568580">
    <ele>5860.0</ele>
    <time>2026-06-23T04:36:51Z</time>
   </trkpt>
   <trkpt lat="-3.0786550" lon="37.3568540">
    <ele>5860.1</ele>
    <time>2026-06-23T04:36:52Z</time>
   </trkpt>
   <trkpt lat="-3.0786540" lon="37.3568500">
    <ele>5860.1</ele>
    <time>2026-06-23T04:36:53Z</time>
   </trkpt>
   <trkpt lat="-3.0786550" lon="37.3568450">
    <ele>5860.2</ele>
    <time>2026-06-23T04:36:54Z</time>
   </trkpt>
   <trkpt lat="-3.0786540" lon="37.3568410">
    <ele>5860.3</ele>
    <time>2026-06-23T04:36:55Z</time>
   </trkpt>
   <trkpt lat="-3.0786530" lon="37.3568380">
    <ele>5860.3</ele>
    <time>2026-06-23T04:36:56Z</time>
   </trkpt>
   <trkpt lat="-3.0786490" lon="37.3568340">
    <ele>5860.4</ele>
    <time>2026-06-23T04:36:57Z</time>
   </trkpt>
   <trkpt lat="-3.0786470" lon="37.3568320">
    <ele>5860.4</ele>
    <time>2026-06-23T04:36:58Z</time>
   </trkpt>
   <trkpt lat="-3.0786440" lon="37.3568290">
    <ele>5860.5</ele>
    <time>2026-06-23T04:36:59Z</time>
   </trkpt>
   <trkpt lat="-3.0786450" lon="37.3568230">
    <ele>5860.6</ele>
    <time>2026-06-23T04:37:00Z</time>
   </trkpt>
   <trkpt lat="-3.0786430" lon="37.3568200">
    <ele>5860.6</ele>
    <time>2026-06-23T04:37:01Z</time>
   </trkpt>
   <trkpt lat="-3.0786420" lon="37.3568150">
    <ele>5860.7</ele>
    <time>2026-06-23T04:37:02Z</time>
   </trkpt>
   <trkpt lat="-3.0786400" lon="37.3568100">
    <ele>5860.8</ele>
    <time>2026-06-23T04:37:03Z</time>
   </trkpt>
   <trkpt lat="-3.0786380" lon="37.3568070">
    <ele>5860.8</ele>
    <time>2026-06-23T04:37:04Z</time>
   </trkpt>
   <trkpt lat="-3.0786370" lon="37.3568030">
    <ele>5860.9</ele>
    <time>2026-06-23T04:37:05Z</time>
   </trkpt>
   <trkpt lat="-3.0786350" lon="37.3567990">
    <ele>5861.0</ele>
    <time>2026-06-23T04:37:06Z</time>
   </trkpt>
   <trkpt lat="-3.0786330" lon="37.3567970">
    <ele>5861.0</ele>
    <time>2026-06-23T04:37:07Z</time>
   </trkpt>
   <trkpt lat="-3.0786320" lon="37.3567940">
    <ele>5861.1</ele>
    <time>2026-06-23T04:37:08Z</time>
   </trkpt>
   <trkpt lat="-3.0786300" lon="37.3567900">
    <ele>5861.1</ele>
    <time>2026-06-23T04:37:09Z</time>
   </trkpt>
   <trkpt lat="-3.0786280" lon="37.3567850">
    <ele>5861.2</ele>
    <time>2026-06-23T04:37:10Z</time>
   </trkpt>
   <trkpt lat="-3.0786250" lon="37.3567810">
    <ele>5861.3</ele>
    <time>2026-06-23T04:37:11Z</time>
   </trkpt>
   <trkpt lat="-3.0786240" lon="37.3567800">
    <ele>5861.3</ele>
    <time>2026-06-23T04:37:12Z</time>
   </trkpt>
   <trkpt lat="-3.0786220" lon="37.3567760">
    <ele>5861.4</ele>
    <time>2026-06-23T04:37:13Z</time>
   </trkpt>
   <trkpt lat="-3.0786210" lon="37.3567720">
    <ele>5861.5</ele>
    <time>2026-06-23T04:37:14Z</time>
   </trkpt>
   <trkpt lat="-3.0786200" lon="37.3567680">
    <ele>5861.5</ele>
    <time>2026-06-23T04:37:15Z</time>
   </trkpt>
   <trkpt lat="-3.0786180" lon="37.3567650">
    <ele>5861.6</ele>
    <time>2026-06-23T04:37:16Z</time>
   </trkpt>
   <trkpt lat="-3.0786160" lon="37.3567610">
    <ele>5861.7</ele>
    <time>2026-06-23T04:37:17Z</time>
   </trkpt>
   <trkpt lat="-3.0786140" lon="37.3567600">
    <ele>5861.7</ele>
    <time>2026-06-23T04:37:18Z</time>
   </trkpt>
   <trkpt lat="-3.0786100" lon="37.3567560">
    <ele>5861.8</ele>
    <time>2026-06-23T04:37:19Z</time>
   </trkpt>
   <trkpt lat="-3.0786080" lon="37.3567550">
    <ele>5861.8</ele>
    <time>2026-06-23T04:37:20Z</time>
   </trkpt>
   <trkpt lat="-3.0786040" lon="37.3567500">
    <ele>5861.9</ele>
    <time>2026-06-23T04:37:21Z</time>
   </trkpt>
   <trkpt lat="-3.0786010" lon="37.3567490">
    <ele>5862.0</ele>
    <time>2026-06-23T04:37:22Z</time>
   </trkpt>
   <trkpt lat="-3.0785990" lon="37.3567450">
    <ele>5862.0</ele>
    <time>2026-06-23T04:37:23Z</time>
   </trkpt>
   <trkpt lat="-3.0785970" lon="37.3567420">
    <ele>5862.1</ele>
    <time>2026-06-23T04:37:24Z</time>
   </trkpt>
   <trkpt lat="-3.0785940" lon="37.3567380">
    <ele>5862.2</ele>
    <time>2026-06-23T04:37:25Z</time>
   </trkpt>
   <trkpt lat="-3.0785940" lon="37.3567360">
    <ele>5862.2</ele>
    <time>2026-06-23T04:37:26Z</time>
   </trkpt>
   <trkpt lat="-3.0785900" lon="37.3567320">
    <ele>5862.3</ele>
    <time>2026-06-23T04:37:27Z</time>
   </trkpt>
   <trkpt lat="-3.0785890" lon="37.3567290">
    <ele>5862.4</ele>
    <time>2026-06-23T04:37:28Z</time>
   </trkpt>
   <trkpt lat="-3.0785870" lon="37.3567260">
    <ele>5862.4</ele>
    <time>2026-06-23T04:37:29Z</time>
   </trkpt>
   <trkpt lat="-3.0785850" lon="37.3567220">
    <ele>5862.5</ele>
    <time>2026-06-23T04:37:30Z</time>
   </trkpt>
   <trkpt lat="-3.0785820" lon="37.3567200">
    <ele>5862.5</ele>
    <time>2026-06-23T04:37:31Z</time>
   </trkpt>
   <trkpt lat="-3.0785800" lon="37.3567160">
    <ele>5862.6</ele>
    <time>2026-06-23T04:37:32Z</time>
   </trkpt>
   <trkpt lat="-3.0785770" lon="37.3567140">
    <ele>5862.7</ele>
    <time>2026-06-23T04:37:33Z</time>
   </trkpt>
   <trkpt lat="-3.0785750" lon="37.3567090">
    <ele>5862.8</ele>
    <time>2026-06-23T04:37:34Z</time>
   </trkpt>
   <trkpt lat="-3.0785730" lon="37.3567070">
    <ele>5862.8</ele>
    <time>2026-06-23T04:37:35Z</time>
   </trkpt>
   <trkpt lat="-3.0785710" lon="37.3567030">
    <ele>5862.9</ele>
    <time>2026-06-23T04:37:36Z</time>
   </trkpt>
   <trkpt lat="-3.0785680" lon="37.3567000">
    <ele>5862.9</ele>
    <time>2026-06-23T04:37:37Z</time>
   </trkpt>
   <trkpt lat="-3.0785660" lon="37.3566950">
    <ele>5863.0</ele>
    <time>2026-06-23T04:37:38Z</time>
   </trkpt>
   <trkpt lat="-3.0785630" lon="37.3566930">
    <ele>5863.1</ele>
    <time>2026-06-23T04:37:39Z</time>
   </trkpt>
   <trkpt lat="-3.0785610" lon="37.3566900">
    <ele>5863.1</ele>
    <time>2026-06-23T04:37:40Z</time>
   </trkpt>
   <trkpt lat="-3.0785600" lon="37.3566870">
    <ele>5863.2</ele>
    <time>2026-06-23T04:37:41Z</time>
   </trkpt>
   <trkpt lat="-3.0785580" lon="37.3566830">
    <ele>5863.3</ele>
    <time>2026-06-23T04:37:42Z</time>
   </trkpt>
   <trkpt lat="-3.0785560" lon="37.3566800">
    <ele>5863.3</ele>
    <time>2026-06-23T04:37:43Z</time>
   </trkpt>
   <trkpt lat="-3.0785540" lon="37.3566770">
    <ele>5863.4</ele>
    <time>2026-06-23T04:37:44Z</time>
   </trkpt>
   <trkpt lat="-3.0785520" lon="37.3566740">
    <ele>5863.4</ele>
    <time>2026-06-23T04:37:45Z</time>
   </trkpt>
   <trkpt lat="-3.0785500" lon="37.3566700">
    <ele>5863.5</ele>
    <time>2026-06-23T04:37:46Z</time>
   </trkpt>
   <trkpt lat="-3.0785480" lon="37.3566680">
    <ele>5863.6</ele>
    <time>2026-06-23T04:37:47Z</time>
   </trkpt>
   <trkpt lat="-3.0785460" lon="37.3566650">
    <ele>5863.6</ele>
    <time>2026-06-23T04:37:48Z</time>
   </trkpt>
   <trkpt lat="-3.0785430" lon="37.3566610">
    <ele>5863.7</ele>
    <time>2026-06-23T04:37:49Z</time>
   </trkpt>
   <trkpt lat="-3.0785410" lon="37.3566590">
    <ele>5863.7</ele>
    <time>2026-06-23T04:37:50Z</time>
   </trkpt>
   <trkpt lat="-3.0785380" lon="37.3566560">
    <ele>5863.8</ele>
    <time>2026-06-23T04:37:51Z</time>
   </trkpt>
   <trkpt lat="-3.0785350" lon="37.3566540">
    <ele>5863.9</ele>
    <time>2026-06-23T04:37:52Z</time>
   </trkpt>
   <trkpt lat="-3.0785330" lon="37.3566520">
    <ele>5863.9</ele>
    <time>2026-06-23T04:37:53Z</time>
   </trkpt>
   <trkpt lat="-3.0785320" lon="37.3566520">
    <ele>5863.9</ele>
    <time>2026-06-23T04:37:54Z</time>
   </trkpt>
   <trkpt lat="-3.0785280" lon="37.3566460">
    <ele>5864.1</ele>
    <time>2026-06-23T04:37:55Z</time>
   </trkpt>
   <trkpt lat="-3.0785260" lon="37.3566450">
    <ele>5864.1</ele>
    <time>2026-06-23T04:37:56Z</time>
   </trkpt>
   <trkpt lat="-3.0785240" lon="37.3566420">
    <ele>5864.2</ele>
    <time>2026-06-23T04:37:57Z</time>
   </trkpt>
   <trkpt lat="-3.0785210" lon="37.3566400">
    <ele>5864.2</ele>
    <time>2026-06-23T04:37:58Z</time>
   </trkpt>
   <trkpt lat="-3.0785180" lon="37.3566370">
    <ele>5864.3</ele>
    <time>2026-06-23T04:37:59Z</time>
   </trkpt>
   <trkpt lat="-3.0785170" lon="37.3566350">
    <ele>5864.3</ele>
    <time>2026-06-23T04:38:00Z</time>
   </trkpt>
   <trkpt lat="-3.0785130" lon="37.3566310">
    <ele>5864.4</ele>
    <time>2026-06-23T04:38:01Z</time>
   </trkpt>
   <trkpt lat="-3.0785110" lon="37.3566280">
    <ele>5864.5</ele>
    <time>2026-06-23T04:38:02Z</time>
   </trkpt>
   <trkpt lat="-3.0785090" lon="37.3566260">
    <ele>5864.5</ele>
    <time>2026-06-23T04:38:03Z</time>
   </trkpt>
   <trkpt lat="-3.0785060" lon="37.3566230">
    <ele>5864.6</ele>
    <time>2026-06-23T04:38:04Z</time>
   </trkpt>
   <trkpt lat="-3.0785040" lon="37.3566210">
    <ele>5864.7</ele>
    <time>2026-06-23T04:38:05Z</time>
   </trkpt>
   <trkpt lat="-3.0785020" lon="37.3566180">
    <ele>5864.7</ele>
    <time>2026-06-23T04:38:06Z</time>
   </trkpt>
   <trkpt lat="-3.0784990" lon="37.3566150">
    <ele>5864.8</ele>
    <time>2026-06-23T04:38:07Z</time>
   </trkpt>
   <trkpt lat="-3.0784960" lon="37.3566120">
    <ele>5864.9</ele>
    <time>2026-06-23T04:38:08Z</time>
   </trkpt>
   <trkpt lat="-3.0784940" lon="37.3566100">
    <ele>5864.9</ele>
    <time>2026-06-23T04:38:09Z</time>
   </trkpt>
   <trkpt lat="-3.0784910" lon="37.3566070">
    <ele>5865.0</ele>
    <time>2026-06-23T04:38:10Z</time>
   </trkpt>
   <trkpt lat="-3.0784880" lon="37.3566040">
    <ele>5865.1</ele>
    <time>2026-06-23T04:38:11Z</time>
   </trkpt>
   <trkpt lat="-3.0784860" lon="37.3566020">
    <ele>5865.1</ele>
    <time>2026-06-23T04:38:12Z</time>
   </trkpt>
   <trkpt lat="-3.0784850" lon="37.3565990">
    <ele>5865.2</ele>
    <time>2026-06-23T04:38:13Z</time>
   </trkpt>
   <trkpt lat="-3.0784820" lon="37.3565970">
    <ele>5865.2</ele>
    <time>2026-06-23T04:38:14Z</time>
   </trkpt>
   <trkpt lat="-3.0784800" lon="37.3565930">
    <ele>5865.3</ele>
    <time>2026-06-23T04:38:15Z</time>
   </trkpt>
   <trkpt lat="-3.0784780" lon="37.3565910">
    <ele>5865.3</ele>
    <time>2026-06-23T04:38:16Z</time>
   </trkpt>
   <trkpt lat="-3.0784750" lon="37.3565870">
    <ele>5865.4</ele>
    <time>2026-06-23T04:38:17Z</time>
   </trkpt>
   <trkpt lat="-3.0784730" lon="37.3565840">
    <ele>5865.5</ele>
    <time>2026-06-23T04:38:18Z</time>
   </trkpt>
   <trkpt lat="-3.0784710" lon="37.3565800">
    <ele>5865.6</ele>
    <time>2026-06-23T04:38:19Z</time>
   </trkpt>
   <trkpt lat="-3.0784690" lon="37.3565770">
    <ele>5865.6</ele>
    <time>2026-06-23T04:38:20Z</time>
   </trkpt>
   <trkpt lat="-3.0784670" lon="37.3565730">
    <ele>5865.7</ele>
    <time>2026-06-23T04:38:21Z</time>
   </trkpt>
   <trkpt lat="-3.0784650" lon="37.3565690">
    <ele>5865.8</ele>
    <time>2026-06-23T04:38:22Z</time>
   </trkpt>
   <trkpt lat="-3.0784630" lon="37.3565650">
    <ele>5865.8</ele>
    <time>2026-06-23T04:38:23Z</time>
   </trkpt>
   <trkpt lat="-3.0784620" lon="37.3565620">
    <ele>5865.9</ele>
    <time>2026-06-23T04:38:24Z</time>
   </trkpt>
   <trkpt lat="-3.0784590" lon="37.3565580">
    <ele>5866.0</ele>
    <time>2026-06-23T04:38:25Z</time>
   </trkpt>
   <trkpt lat="-3.0784580" lon="37.3565550">
    <ele>5866.0</ele>
    <time>2026-06-23T04:38:26Z</time>
   </trkpt>
   <trkpt lat="-3.0784540" lon="37.3565520">
    <ele>5866.1</ele>
    <time>2026-06-23T04:38:27Z</time>
   </trkpt>
   <trkpt lat="-3.0784540" lon="37.3565490">
    <ele>5866.2</ele>
    <time>2026-06-23T04:38:28Z</time>
   </trkpt>
   <trkpt lat="-3.0784510" lon="37.3565460">
    <ele>5866.2</ele>
    <time>2026-06-23T04:38:29Z</time>
   </trkpt>
   <trkpt lat="-3.0784480" lon="37.3565440">
    <ele>5866.3</ele>
    <time>2026-06-23T04:38:30Z</time>
   </trkpt>
   <trkpt lat="-3.0784430" lon="37.3565390">
    <ele>5866.4</ele>
    <time>2026-06-23T04:38:31Z</time>
   </trkpt>
   <trkpt lat="-3.0784420" lon="37.3565370">
    <ele>5866.5</ele>
    <time>2026-06-23T04:38:32Z</time>
   </trkpt>
   <trkpt lat="-3.0784410" lon="37.3565350">
    <ele>5866.5</ele>
    <time>2026-06-23T04:38:33Z</time>
   </trkpt>
   <trkpt lat="-3.0784380" lon="37.3565290">
    <ele>5866.6</ele>
    <time>2026-06-23T04:38:34Z</time>
   </trkpt>
   <trkpt lat="-3.0784350" lon="37.3565290">
    <ele>5866.7</ele>
    <time>2026-06-23T04:38:35Z</time>
   </trkpt>
   <trkpt lat="-3.0784340" lon="37.3565250">
    <ele>5866.7</ele>
    <time>2026-06-23T04:38:36Z</time>
   </trkpt>
   <trkpt lat="-3.0784320" lon="37.3565230">
    <ele>5866.8</ele>
    <time>2026-06-23T04:38:37Z</time>
   </trkpt>
   <trkpt lat="-3.0784310" lon="37.3565200">
    <ele>5866.8</ele>
    <time>2026-06-23T04:38:38Z</time>
   </trkpt>
   <trkpt lat="-3.0784280" lon="37.3565170">
    <ele>5866.9</ele>
    <time>2026-06-23T04:38:39Z</time>
   </trkpt>
   <trkpt lat="-3.0784270" lon="37.3565150">
    <ele>5866.9</ele>
    <time>2026-06-23T04:38:40Z</time>
   </trkpt>
   <trkpt lat="-3.0784240" lon="37.3565120">
    <ele>5867.0</ele>
    <time>2026-06-23T04:38:41Z</time>
   </trkpt>
   <trkpt lat="-3.0784230" lon="37.3565110">
    <ele>5867.0</ele>
    <time>2026-06-23T04:38:42Z</time>
   </trkpt>
   <trkpt lat="-3.0784220" lon="37.3565090">
    <ele>5867.1</ele>
    <time>2026-06-23T04:38:43Z</time>
   </trkpt>
   <trkpt lat="-3.0784190" lon="37.3565070">
    <ele>5867.1</ele>
    <time>2026-06-23T04:38:44Z</time>
   </trkpt>
   <trkpt lat="-3.0784160" lon="37.3565040">
    <ele>5867.2</ele>
    <time>2026-06-23T04:38:45Z</time>
   </trkpt>
   <trkpt lat="-3.0784150" lon="37.3565030">
    <ele>5867.2</ele>
    <time>2026-06-23T04:38:46Z</time>
   </trkpt>
   <trkpt lat="-3.0784130" lon="37.3564990">
    <ele>5867.3</ele>
    <time>2026-06-23T04:38:47Z</time>
   </trkpt>
   <trkpt lat="-3.0784110" lon="37.3564980">
    <ele>5867.3</ele>
    <time>2026-06-23T04:38:48Z</time>
   </trkpt>
   <trkpt lat="-3.0784080" lon="37.3564930">
    <ele>5867.4</ele>
    <time>2026-06-23T04:38:49Z</time>
   </trkpt>
   <trkpt lat="-3.0784080" lon="37.3564900">
    <ele>5867.5</ele>
    <time>2026-06-23T04:38:50Z</time>
   </trkpt>
   <trkpt lat="-3.0784060" lon="37.3564870">
    <ele>5867.5</ele>
    <time>2026-06-23T04:38:51Z</time>
   </trkpt>
   <trkpt lat="-3.0784040" lon="37.3564850">
    <ele>5867.6</ele>
    <time>2026-06-23T04:38:52Z</time>
   </trkpt>
   <trkpt lat="-3.0784020" lon="37.3564820">
    <ele>5867.6</ele>
    <time>2026-06-23T04:38:53Z</time>
   </trkpt>
   <trkpt lat="-3.0784000" lon="37.3564790">
    <ele>5867.7</ele>
    <time>2026-06-23T04:38:54Z</time>
   </trkpt>
   <trkpt lat="-3.0783980" lon="37.3564780">
    <ele>5867.7</ele>
    <time>2026-06-23T04:38:55Z</time>
   </trkpt>
   <trkpt lat="-3.0783960" lon="37.3564750">
    <ele>5867.8</ele>
    <time>2026-06-23T04:38:56Z</time>
   </trkpt>
   <trkpt lat="-3.0783940" lon="37.3564730">
    <ele>5867.8</ele>
    <time>2026-06-23T04:38:57Z</time>
   </trkpt>
   <trkpt lat="-3.0783930" lon="37.3564690">
    <ele>5867.9</ele>
    <time>2026-06-23T04:38:58Z</time>
   </trkpt>
   <trkpt lat="-3.0783910" lon="37.3564680">
    <ele>5867.9</ele>
    <time>2026-06-23T04:38:59Z</time>
   </trkpt>
   <trkpt lat="-3.0783900" lon="37.3564640">
    <ele>5868.0</ele>
    <time>2026-06-23T04:39:00Z</time>
   </trkpt>
   <trkpt lat="-3.0783880" lon="37.3564630">
    <ele>5868.0</ele>
    <time>2026-06-23T04:39:01Z</time>
   </trkpt>
   <trkpt lat="-3.0783860" lon="37.3564600">
    <ele>5868.1</ele>
    <time>2026-06-23T04:39:02Z</time>
   </trkpt>
   <trkpt lat="-3.0783840" lon="37.3564560">
    <ele>5868.2</ele>
    <time>2026-06-23T04:39:03Z</time>
   </trkpt>
   <trkpt lat="-3.0783830" lon="37.3564550">
    <ele>5868.2</ele>
    <time>2026-06-23T04:39:04Z</time>
   </trkpt>
   <trkpt lat="-3.0783810" lon="37.3564500">
    <ele>5868.3</ele>
    <time>2026-06-23T04:39:05Z</time>
   </trkpt>
   <trkpt lat="-3.0783790" lon="37.3564490">
    <ele>5868.3</ele>
    <time>2026-06-23T04:39:06Z</time>
   </trkpt>
   <trkpt lat="-3.0783760" lon="37.3564450">
    <ele>5868.4</ele>
    <time>2026-06-23T04:39:07Z</time>
   </trkpt>
   <trkpt lat="-3.0783760" lon="37.3564430">
    <ele>5868.4</ele>
    <time>2026-06-23T04:39:08Z</time>
   </trkpt>
   <trkpt lat="-3.0783730" lon="37.3564400">
    <ele>5868.5</ele>
    <time>2026-06-23T04:39:09Z</time>
   </trkpt>
   <trkpt lat="-3.0783710" lon="37.3564390">
    <ele>5868.5</ele>
    <time>2026-06-23T04:39:10Z</time>
   </trkpt>
   <trkpt lat="-3.0783680" lon="37.3564340">
    <ele>5868.6</ele>
    <time>2026-06-23T04:39:11Z</time>
   </trkpt>
   <trkpt lat="-3.0783670" lon="37.3564300">
    <ele>5868.7</ele>
    <time>2026-06-23T04:39:12Z</time>
   </trkpt>
   <trkpt lat="-3.0783640" lon="37.3564280">
    <ele>5868.7</ele>
    <time>2026-06-23T04:39:13Z</time>
   </trkpt>
   <trkpt lat="-3.0783630" lon="37.3564250">
    <ele>5868.8</ele>
    <time>2026-06-23T04:39:14Z</time>
   </trkpt>
   <trkpt lat="-3.0783610" lon="37.3564220">
    <ele>5868.8</ele>
    <time>2026-06-23T04:39:15Z</time>
   </trkpt>
   <trkpt lat="-3.0783580" lon="37.3564190">
    <ele>5868.9</ele>
    <time>2026-06-23T04:39:16Z</time>
   </trkpt>
   <trkpt lat="-3.0783570" lon="37.3564150">
    <ele>5868.9</ele>
    <time>2026-06-23T04:39:17Z</time>
   </trkpt>
   <trkpt lat="-3.0783530" lon="37.3564120">
    <ele>5869.0</ele>
    <time>2026-06-23T04:39:18Z</time>
   </trkpt>
   <trkpt lat="-3.0783520" lon="37.3564090">
    <ele>5869.1</ele>
    <time>2026-06-23T04:39:19Z</time>
   </trkpt>
   <trkpt lat="-3.0783500" lon="37.3564070">
    <ele>5869.1</ele>
    <time>2026-06-23T04:39:20Z</time>
   </trkpt>
   <trkpt lat="-3.0783480" lon="37.3564030">
    <ele>5869.2</ele>
    <time>2026-06-23T04:39:21Z</time>
   </trkpt>
   <trkpt lat="-3.0783450" lon="37.3564010">
    <ele>5869.2</ele>
    <time>2026-06-23T04:39:22Z</time>
   </trkpt>
   <trkpt lat="-3.0783430" lon="37.3563960">
    <ele>5869.3</ele>
    <time>2026-06-23T04:39:23Z</time>
   </trkpt>
   <trkpt lat="-3.0783420" lon="37.3563930">
    <ele>5869.3</ele>
    <time>2026-06-23T04:39:24Z</time>
   </trkpt>
   <trkpt lat="-3.0783400" lon="37.3563890">
    <ele>5869.4</ele>
    <time>2026-06-23T04:39:25Z</time>
   </trkpt>
   <trkpt lat="-3.0783370" lon="37.3563840">
    <ele>5869.5</ele>
    <time>2026-06-23T04:39:26Z</time>
   </trkpt>
   <trkpt lat="-3.0783360" lon="37.3563820">
    <ele>5869.5</ele>
    <time>2026-06-23T04:39:27Z</time>
   </trkpt>
   <trkpt lat="-3.0783340" lon="37.3563760">
    <ele>5869.6</ele>
    <time>2026-06-23T04:39:28Z</time>
   </trkpt>
   <trkpt lat="-3.0783320" lon="37.3563720">
    <ele>5869.6</ele>
    <time>2026-06-23T04:39:29Z</time>
   </trkpt>
   <trkpt lat="-3.0783310" lon="37.3563690">
    <ele>5869.7</ele>
    <time>2026-06-23T04:39:30Z</time>
   </trkpt>
   <trkpt lat="-3.0783280" lon="37.3563650">
    <ele>5869.7</ele>
    <time>2026-06-23T04:39:31Z</time>
   </trkpt>
   <trkpt lat="-3.0783270" lon="37.3563620">
    <ele>5869.8</ele>
    <time>2026-06-23T04:39:32Z</time>
   </trkpt>
   <trkpt lat="-3.0783250" lon="37.3563580">
    <ele>5869.8</ele>
    <time>2026-06-23T04:39:33Z</time>
   </trkpt>
   <trkpt lat="-3.0783230" lon="37.3563530">
    <ele>5869.9</ele>
    <time>2026-06-23T04:39:34Z</time>
   </trkpt>
   <trkpt lat="-3.0783210" lon="37.3563500">
    <ele>5870.0</ele>
    <time>2026-06-23T04:39:35Z</time>
   </trkpt>
   <trkpt lat="-3.0783190" lon="37.3563460">
    <ele>5870.0</ele>
    <time>2026-06-23T04:39:36Z</time>
   </trkpt>
   <trkpt lat="-3.0783160" lon="37.3563410">
    <ele>5870.1</ele>
    <time>2026-06-23T04:39:37Z</time>
   </trkpt>
   <trkpt lat="-3.0783190" lon="37.3563390">
    <ele>5870.1</ele>
    <time>2026-06-23T04:39:38Z</time>
   </trkpt>
   <trkpt lat="-3.0783140" lon="37.3563360">
    <ele>5870.2</ele>
    <time>2026-06-23T04:39:39Z</time>
   </trkpt>
   <trkpt lat="-3.0783130" lon="37.3563310">
    <ele>5870.2</ele>
    <time>2026-06-23T04:39:40Z</time>
   </trkpt>
   <trkpt lat="-3.0783110" lon="37.3563280">
    <ele>5870.3</ele>
    <time>2026-06-23T04:39:41Z</time>
   </trkpt>
   <trkpt lat="-3.0783100" lon="37.3563260">
    <ele>5870.3</ele>
    <time>2026-06-23T04:39:42Z</time>
   </trkpt>
   <trkpt lat="-3.0783080" lon="37.3563230">
    <ele>5870.4</ele>
    <time>2026-06-23T04:39:43Z</time>
   </trkpt>
   <trkpt lat="-3.0783070" lon="37.3563180">
    <ele>5870.4</ele>
    <time>2026-06-23T04:39:44Z</time>
   </trkpt>
   <trkpt lat="-3.0783040" lon="37.3563170">
    <ele>5870.4</ele>
    <time>2026-06-23T04:39:45Z</time>
   </trkpt>
   <trkpt lat="-3.0783040" lon="37.3563130">
    <ele>5870.5</ele>
    <time>2026-06-23T04:39:46Z</time>
   </trkpt>
   <trkpt lat="-3.0783010" lon="37.3563100">
    <ele>5870.5</ele>
    <time>2026-06-23T04:39:47Z</time>
   </trkpt>
   <trkpt lat="-3.0783000" lon="37.3563070">
    <ele>5870.6</ele>
    <time>2026-06-23T04:39:48Z</time>
   </trkpt>
   <trkpt lat="-3.0782980" lon="37.3563030">
    <ele>5870.6</ele>
    <time>2026-06-23T04:39:49Z</time>
   </trkpt>
   <trkpt lat="-3.0782980" lon="37.3563000">
    <ele>5870.6</ele>
    <time>2026-06-23T04:39:50Z</time>
   </trkpt>
   <trkpt lat="-3.0782960" lon="37.3562960">
    <ele>5870.7</ele>
    <time>2026-06-23T04:39:51Z</time>
   </trkpt>
   <trkpt lat="-3.0782950" lon="37.3562930">
    <ele>5870.7</ele>
    <time>2026-06-23T04:39:52Z</time>
   </trkpt>
   <trkpt lat="-3.0782940" lon="37.3562870">
    <ele>5870.8</ele>
    <time>2026-06-23T04:39:53Z</time>
   </trkpt>
   <trkpt lat="-3.0782940" lon="37.3562830">
    <ele>5870.8</ele>
    <time>2026-06-23T04:39:54Z</time>
   </trkpt>
   <trkpt lat="-3.0782950" lon="37.3562790">
    <ele>5870.8</ele>
    <time>2026-06-23T04:39:55Z</time>
   </trkpt>
   <trkpt lat="-3.0782960" lon="37.3562740">
    <ele>5870.9</ele>
    <time>2026-06-23T04:39:56Z</time>
   </trkpt>
   <trkpt lat="-3.0782960" lon="37.3562690">
    <ele>5870.9</ele>
    <time>2026-06-23T04:39:57Z</time>
   </trkpt>
   <trkpt lat="-3.0782960" lon="37.3562660">
    <ele>5871.0</ele>
    <time>2026-06-23T04:39:58Z</time>
   </trkpt>
   <trkpt lat="-3.0782970" lon="37.3562620">
    <ele>5871.0</ele>
    <time>2026-06-23T04:39:59Z</time>
   </trkpt>
   <trkpt lat="-3.0782970" lon="37.3562580">
    <ele>5871.0</ele>
    <time>2026-06-23T04:40:00Z</time>
   </trkpt>
   <trkpt lat="-3.0782970" lon="37.3562530">
    <ele>5871.1</ele>
    <time>2026-06-23T04:40:01Z</time>
   </trkpt>
   <trkpt lat="-3.0782970" lon="37.3562500">
    <ele>5871.1</ele>
    <time>2026-06-23T04:40:02Z</time>
   </trkpt>
   <trkpt lat="-3.0782970" lon="37.3562470">
    <ele>5871.1</ele>
    <time>2026-06-23T04:40:03Z</time>
   </trkpt>
   <trkpt lat="-3.0782970" lon="37.3562410">
    <ele>5871.2</ele>
    <time>2026-06-23T04:40:04Z</time>
   </trkpt>
   <trkpt lat="-3.0782960" lon="37.3562370">
    <ele>5871.2</ele>
    <time>2026-06-23T04:40:05Z</time>
   </trkpt>
   <trkpt lat="-3.0782950" lon="37.3562340">
    <ele>5871.2</ele>
    <time>2026-06-23T04:40:06Z</time>
   </trkpt>
   <trkpt lat="-3.0782940" lon="37.3562290">
    <ele>5871.3</ele>
    <time>2026-06-23T04:40:07Z</time>
   </trkpt>
   <trkpt lat="-3.0782930" lon="37.3562260">
    <ele>5871.3</ele>
    <time>2026-06-23T04:40:08Z</time>
   </trkpt>
   <trkpt lat="-3.0782920" lon="37.3562210">
    <ele>5871.3</ele>
    <time>2026-06-23T04:40:09Z</time>
   </trkpt>
   <trkpt lat="-3.0782910" lon="37.3562160">
    <ele>5871.4</ele>
    <time>2026-06-23T04:40:10Z</time>
   </trkpt>
   <trkpt lat="-3.0782890" lon="37.3562100">
    <ele>5871.4</ele>
    <time>2026-06-23T04:40:11Z</time>
   </trkpt>
   <trkpt lat="-3.0782890" lon="37.3562070">
    <ele>5871.4</ele>
    <time>2026-06-23T04:40:12Z</time>
   </trkpt>
   <trkpt lat="-3.0782860" lon="37.3562010">
    <ele>5871.5</ele>
    <time>2026-06-23T04:40:13Z</time>
   </trkpt>
   <trkpt lat="-3.0782870" lon="37.3561970">
    <ele>5871.5</ele>
    <time>2026-06-23T04:40:14Z</time>
   </trkpt>
   <trkpt lat="-3.0782860" lon="37.3561950">
    <ele>5871.5</ele>
    <time>2026-06-23T04:40:15Z</time>
   </trkpt>
   <trkpt lat="-3.0782850" lon="37.3561890">
    <ele>5871.6</ele>
    <time>2026-06-23T04:40:16Z</time>
   </trkpt>
   <trkpt lat="-3.0782840" lon="37.3561860">
    <ele>5871.6</ele>
    <time>2026-06-23T04:40:17Z</time>
   </trkpt>
   <trkpt lat="-3.0782840" lon="37.3561820">
    <ele>5871.6</ele>
    <time>2026-06-23T04:40:18Z</time>
   </trkpt>
   <trkpt lat="-3.0782830" lon="37.3561790">
    <ele>5871.6</ele>
    <time>2026-06-23T04:40:19Z</time>
   </trkpt>
   <trkpt lat="-3.0782830" lon="37.3561730">
    <ele>5871.7</ele>
    <time>2026-06-23T04:40:20Z</time>
   </trkpt>
   <trkpt lat="-3.0782820" lon="37.3561700">
    <ele>5871.7</ele>
    <time>2026-06-23T04:40:21Z</time>
   </trkpt>
   <trkpt lat="-3.0782810" lon="37.3561660">
    <ele>5871.7</ele>
    <time>2026-06-23T04:40:22Z</time>
   </trkpt>
   <trkpt lat="-3.0782790" lon="37.3561620">
    <ele>5871.7</ele>
    <time>2026-06-23T04:40:23Z</time>
   </trkpt>
   <trkpt lat="-3.0782780" lon="37.3561580">
    <ele>5871.8</ele>
    <time>2026-06-23T04:40:24Z</time>
   </trkpt>
   <trkpt lat="-3.0782760" lon="37.3561540">
    <ele>5871.8</ele>
    <time>2026-06-23T04:40:25Z</time>
   </trkpt>
   <trkpt lat="-3.0782760" lon="37.3561500">
    <ele>5871.8</ele>
    <time>2026-06-23T04:40:26Z</time>
   </trkpt>
   <trkpt lat="-3.0782750" lon="37.3561460">
    <ele>5871.8</ele>
    <time>2026-06-23T04:40:27Z</time>
   </trkpt>
   <trkpt lat="-3.0782750" lon="37.3561430">
    <ele>5871.9</ele>
    <time>2026-06-23T04:40:28Z</time>
   </trkpt>
   <trkpt lat="-3.0782740" lon="37.3561370">
    <ele>5871.9</ele>
    <time>2026-06-23T04:40:29Z</time>
   </trkpt>
   <trkpt lat="-3.0782720" lon="37.3561320">
    <ele>5871.9</ele>
    <time>2026-06-23T04:40:30Z</time>
   </trkpt>
   <trkpt lat="-3.0782710" lon="37.3561300">
    <ele>5871.9</ele>
    <time>2026-06-23T04:40:31Z</time>
   </trkpt>
   <trkpt lat="-3.0782700" lon="37.3561250">
    <ele>5871.9</ele>
    <time>2026-06-23T04:40:32Z</time>
   </trkpt>
   <trkpt lat="-3.0782690" lon="37.3561220">
    <ele>5871.9</ele>
    <time>2026-06-23T04:40:33Z</time>
   </trkpt>
   <trkpt lat="-3.0782680" lon="37.3561170">
    <ele>5872.0</ele>
    <time>2026-06-23T04:40:34Z</time>
   </trkpt>
   <trkpt lat="-3.0782670" lon="37.3561130">
    <ele>5872.0</ele>
    <time>2026-06-23T04:40:35Z</time>
   </trkpt>
   <trkpt lat="-3.0782660" lon="37.3561090">
    <ele>5872.0</ele>
    <time>2026-06-23T04:40:36Z</time>
   </trkpt>
   <trkpt lat="-3.0782640" lon="37.3561040">
    <ele>5872.0</ele>
    <time>2026-06-23T04:40:37Z</time>
   </trkpt>
   <trkpt lat="-3.0782630" lon="37.3561010">
    <ele>5872.0</ele>
    <time>2026-06-23T04:40:38Z</time>
   </trkpt>
   <trkpt lat="-3.0782610" lon="37.3560960">
    <ele>5872.1</ele>
    <time>2026-06-23T04:40:39Z</time>
   </trkpt>
   <trkpt lat="-3.0782600" lon="37.3560920">
    <ele>5872.1</ele>
    <time>2026-06-23T04:40:40Z</time>
   </trkpt>
   <trkpt lat="-3.0782580" lon="37.3560870">
    <ele>5872.1</ele>
    <time>2026-06-23T04:40:41Z</time>
   </trkpt>
   <trkpt lat="-3.0782570" lon="37.3560840">
    <ele>5872.1</ele>
    <time>2026-06-23T04:40:42Z</time>
   </trkpt>
   <trkpt lat="-3.0782550" lon="37.3560790">
    <ele>5872.1</ele>
    <time>2026-06-23T04:40:43Z</time>
   </trkpt>
   <trkpt lat="-3.0782530" lon="37.3560760">
    <ele>5872.1</ele>
    <time>2026-06-23T04:40:44Z</time>
   </trkpt>
   <trkpt lat="-3.0782510" lon="37.3560700">
    <ele>5872.1</ele>
    <time>2026-06-23T04:40:45Z</time>
   </trkpt>
   <trkpt lat="-3.0782500" lon="37.3560650">
    <ele>5872.1</ele>
    <time>2026-06-23T04:40:46Z</time>
   </trkpt>
   <trkpt lat="-3.0782490" lon="37.3560610">
    <ele>5872.1</ele>
    <time>2026-06-23T04:40:47Z</time>
   </trkpt>
   <trkpt lat="-3.0782480" lon="37.3560560">
    <ele>5872.1</ele>
    <time>2026-06-23T04:40:48Z</time>
   </trkpt>
   <trkpt lat="-3.0782470" lon="37.3560520">
    <ele>5872.2</ele>
    <time>2026-06-23T04:40:49Z</time>
   </trkpt>
   <trkpt lat="-3.0782460" lon="37.3560470">
    <ele>5872.2</ele>
    <time>2026-06-23T04:40:50Z</time>
   </trkpt>
   <trkpt lat="-3.0782450" lon="37.3560420">
    <ele>5872.2</ele>
    <time>2026-06-23T04:40:51Z</time>
   </trkpt>
   <trkpt lat="-3.0782430" lon="37.3560360">
    <ele>5872.2</ele>
    <time>2026-06-23T04:40:52Z</time>
   </trkpt>
   <trkpt lat="-3.0782420" lon="37.3560320">
    <ele>5872.2</ele>
    <time>2026-06-23T04:40:53Z</time>
   </trkpt>
   <trkpt lat="-3.0782400" lon="37.3560270">
    <ele>5872.2</ele>
    <time>2026-06-23T04:40:54Z</time>
   </trkpt>
   <trkpt lat="-3.0782390" lon="37.3560230">
    <ele>5872.2</ele>
    <time>2026-06-23T04:40:55Z</time>
   </trkpt>
   <trkpt lat="-3.0782390" lon="37.3560190">
    <ele>5872.2</ele>
    <time>2026-06-23T04:40:56Z</time>
   </trkpt>
   <trkpt lat="-3.0782400" lon="37.3560180">
    <ele>5872.2</ele>
    <time>2026-06-23T04:40:57Z</time>
   </trkpt>
   <trkpt lat="-3.0782420" lon="37.3560100">
    <ele>5872.2</ele>
    <time>2026-06-23T04:40:58Z</time>
   </trkpt>
   <trkpt lat="-3.0782410" lon="37.3560060">
    <ele>5872.2</ele>
    <time>2026-06-23T04:40:59Z</time>
   </trkpt>
   <trkpt lat="-3.0782410" lon="37.3560020">
    <ele>5872.2</ele>
    <time>2026-06-23T04:41:00Z</time>
   </trkpt>
   <trkpt lat="-3.0782390" lon="37.3560010">
    <ele>5872.2</ele>
    <time>2026-06-23T04:41:01Z</time>
   </trkpt>
   <trkpt lat="-3.0782390" lon="37.3560000">
    <ele>5872.2</ele>
    <time>2026-06-23T04:41:02Z</time>
   </trkpt>
   <trkpt lat="-3.0782380" lon="37.3560010">
    <ele>5872.2</ele>
    <time>2026-06-23T04:41:03Z</time>
   </trkpt>
   <trkpt lat="-3.0782370" lon="37.3559980">
    <ele>5872.2</ele>
    <time>2026-06-23T04:41:04Z</time>
   </trkpt>
   <trkpt lat="-3.0782340" lon="37.3559940">
    <ele>5872.2</ele>
    <time>2026-06-23T04:41:05Z</time>
   </trkpt>
   <trkpt lat="-3.0782310" lon="37.3559960">
    <ele>5872.2</ele>
    <time>2026-06-23T04:41:06Z</time>
   </trkpt>
   <trkpt lat="-3.0782310" lon="37.3559940">
    <ele>5872.2</ele>
    <time>2026-06-23T04:41:07Z</time>
   </trkpt>
   <trkpt lat="-3.0782300" lon="37.3559940">
    <ele>5872.2</ele>
    <time>2026-06-23T04:41:08Z</time>
   </trkpt>
   <trkpt lat="-3.0782290" lon="37.3559910">
    <ele>5872.2</ele>
    <time>2026-06-23T04:41:09Z</time>
   </trkpt>
   <trkpt lat="-3.0782290" lon="37.3559920">
    <ele>5872.2</ele>
    <time>2026-06-23T04:41:10Z</time>
   </trkpt>
   <trkpt lat="-3.0782280" lon="37.3559920">
    <ele>5872.2</ele>
    <time>2026-06-23T04:41:11Z</time>
   </trkpt>
   <trkpt lat="-3.0782230" lon="37.3559910">
    <ele>5872.2</ele>
    <time>2026-06-23T04:41:12Z</time>
   </trkpt>
   <trkpt lat="-3.0782170" lon="37.3559850">
    <ele>5872.1</ele>
    <time>2026-06-23T04:41:13Z</time>
   </trkpt>
   <trkpt lat="-3.0782120" lon="37.3559820">
    <ele>5872.1</ele>
    <time>2026-06-23T04:41:14Z</time>
   </trkpt>
   <trkpt lat="-3.0782110" lon="37.3559770">
    <ele>5872.1</ele>
    <time>2026-06-23T04:41:15Z</time>
   </trkpt>
   <trkpt lat="-3.0782060" lon="37.3559710">
    <ele>5872.1</ele>
    <time>2026-06-23T04:41:16Z</time>
   </trkpt>
   <trkpt lat="-3.0782040" lon="37.3559660">
    <ele>5872.1</ele>
    <time>2026-06-23T04:41:17Z</time>
   </trkpt>
   <trkpt lat="-3.0782020" lon="37.3559620">
    <ele>5872.1</ele>
    <time>2026-06-23T04:41:18Z</time>
   </trkpt>
   <trkpt lat="-3.0782020" lon="37.3559600">
    <ele>5872.1</ele>
    <time>2026-06-23T04:41:19Z</time>
   </trkpt>
   <trkpt lat="-3.0782040" lon="37.3559620">
    <ele>5872.1</ele>
    <time>2026-06-23T04:41:20Z</time>
   </trkpt>
   <trkpt lat="-3.0782040" lon="37.3559620">
    <ele>5872.1</ele>
    <time>2026-06-23T04:41:21Z</time>
   </trkpt>
   <trkpt lat="-3.0782040" lon="37.3559620">
    <ele>5872.1</ele>
    <time>2026-06-23T04:41:22Z</time>
   </trkpt>
   <trkpt lat="-3.0782050" lon="37.3559620">
    <ele>5872.1</ele>
    <time>2026-06-23T04:41:23Z</time>
   </trkpt>
   <trkpt lat="-3.0782050" lon="37.3559620">
    <ele>5872.1</ele>
    <time>2026-06-23T04:41:24Z</time>
   </trkpt>
   <trkpt lat="-3.0782050" lon="37.3559620">
    <ele>5872.1</ele>
    <time>2026-06-23T04:41:25Z</time>
   </trkpt>
   <trkpt lat="-3.0782050" lon="37.3559620">
    <ele>5872.1</ele>
    <time>2026-06-23T04:41:26Z</time>
   </trkpt>
   <trkpt lat="-3.0782050" lon="37.3559620">
    <ele>5872.1</ele>
    <time>2026-06-23T04:41:27Z</time>
   </trkpt>
   <trkpt lat="-3.0782050" lon="37.3559620">
    <ele>5872.1</ele>
    <time>2026-06-23T04:41:28Z</time>
   </trkpt>
   <trkpt lat="-3.0782050" lon="37.3559620">
    <ele>5872.1</ele>
    <time>2026-06-23T04:41:29Z</time>
   </trkpt>
   <trkpt lat="-3.0782050" lon="37.3559620">
    <ele>5872.1</ele>
    <time>2026-06-23T04:41:30Z</time>
   </trkpt>
   <trkpt lat="-3.0782040" lon="37.3559620">
    <ele>5872.1</ele>
    <time>2026-06-23T04:41:31Z</time>
   </trkpt>
   <trkpt lat="-3.0782040" lon="37.3559620">
    <ele>5872.1</ele>
    <time>2026-06-23T04:41:32Z</time>
   </trkpt>
   <trkpt lat="-3.0782040" lon="37.3559600">
    <ele>5872.1</ele>
    <time>2026-06-23T04:41:33Z</time>
   </trkpt>
   <trkpt lat="-3.0782050" lon="37.3559600">
    <ele>5872.1</ele>
    <time>2026-06-23T04:41:34Z</time>
   </trkpt>
   <trkpt lat="-3.0782040" lon="37.3559600">
    <ele>5872.1</ele>
    <time>2026-06-23T04:41:35Z</time>
   </trkpt>
   <trkpt lat="-3.0782030" lon="37.3559580">
    <ele>5872.1</ele>
    <time>2026-06-23T04:41:36Z</time>
   </trkpt>
   <trkpt lat="-3.0782020" lon="37.3559550">
    <ele>5872.1</ele>
    <time>2026-06-23T04:41:37Z</time>
   </trkpt>
   <trkpt lat="-3.0781990" lon="37.3559510">
    <ele>5872.0</ele>
    <time>2026-06-23T04:41:38Z</time>
   </trkpt>
   <trkpt lat="-3.0781950" lon="37.3559460">
    <ele>5872.0</ele>
    <time>2026-06-23T04:41:39Z</time>
   </trkpt>
   <trkpt lat="-3.0781930" lon="37.3559420">
    <ele>5872.0</ele>
    <time>2026-06-23T04:41:40Z</time>
   </trkpt>
   <trkpt lat="-3.0781890" lon="37.3559360">
    <ele>5872.0</ele>
    <time>2026-06-23T04:41:41Z</time>
   </trkpt>
   <trkpt lat="-3.0781870" lon="37.3559330">
    <ele>5872.0</ele>
    <time>2026-06-23T04:41:42Z</time>
   </trkpt>
   <trkpt lat="-3.0781830" lon="37.3559290">
    <ele>5872.0</ele>
    <time>2026-06-23T04:41:43Z</time>
   </trkpt>
   <trkpt lat="-3.0781800" lon="37.3559250">
    <ele>5872.0</ele>
    <time>2026-06-23T04:41:44Z</time>
   </trkpt>
   <trkpt lat="-3.0781770" lon="37.3559190">
    <ele>5872.0</ele>
    <time>2026-06-23T04:41:45Z</time>
   </trkpt>
   <trkpt lat="-3.0781730" lon="37.3559160">
    <ele>5871.9</ele>
    <time>2026-06-23T04:41:46Z</time>
   </trkpt>
   <trkpt lat="-3.0781690" lon="37.3559120">
    <ele>5871.9</ele>
    <time>2026-06-23T04:41:47Z</time>
   </trkpt>
   <trkpt lat="-3.0781650" lon="37.3559060">
    <ele>5871.9</ele>
    <time>2026-06-23T04:41:48Z</time>
   </trkpt>
   <trkpt lat="-3.0781610" lon="37.3559030">
    <ele>5871.9</ele>
    <time>2026-06-23T04:41:49Z</time>
   </trkpt>
   <trkpt lat="-3.0781580" lon="37.3558990">
    <ele>5871.9</ele>
    <time>2026-06-23T04:41:50Z</time>
   </trkpt>
   <trkpt lat="-3.0781580" lon="37.3558980">
    <ele>5871.9</ele>
    <time>2026-06-23T04:41:51Z</time>
   </trkpt>
   <trkpt lat="-3.0781530" lon="37.3558920">
    <ele>5871.9</ele>
    <time>2026-06-23T04:41:52Z</time>
   </trkpt>
   <trkpt lat="-3.0781490" lon="37.3558880">
    <ele>5871.8</ele>
    <time>2026-06-23T04:41:53Z</time>
   </trkpt>
   <trkpt lat="-3.0781450" lon="37.3558850">
    <ele>5871.8</ele>
    <time>2026-06-23T04:41:54Z</time>
   </trkpt>
   <trkpt lat="-3.0781420" lon="37.3558810">
    <ele>5871.8</ele>
    <time>2026-06-23T04:41:55Z</time>
   </trkpt>
   <trkpt lat="-3.0781380" lon="37.3558770">
    <ele>5871.8</ele>
    <time>2026-06-23T04:41:56Z</time>
   </trkpt>
   <trkpt lat="-3.0781340" lon="37.3558730">
    <ele>5871.8</ele>
    <time>2026-06-23T04:41:57Z</time>
   </trkpt>
   <trkpt lat="-3.0781300" lon="37.3558670">
    <ele>5871.8</ele>
    <time>2026-06-23T04:41:58Z</time>
   </trkpt>
   <trkpt lat="-3.0781270" lon="37.3558630">
    <ele>5871.8</ele>
    <time>2026-06-23T04:41:59Z</time>
   </trkpt>
   <trkpt lat="-3.0781240" lon="37.3558600">
    <ele>5871.8</ele>
    <time>2026-06-23T04:42:00Z</time>
   </trkpt>
   <trkpt lat="-3.0781200" lon="37.3558560">
    <ele>5871.8</ele>
    <time>2026-06-23T04:42:01Z</time>
   </trkpt>
   <trkpt lat="-3.0781160" lon="37.3558510">
    <ele>5871.8</ele>
    <time>2026-06-23T04:42:02Z</time>
   </trkpt>
   <trkpt lat="-3.0781140" lon="37.3558480">
    <ele>5871.8</ele>
    <time>2026-06-23T04:42:03Z</time>
   </trkpt>
   <trkpt lat="-3.0781100" lon="37.3558440">
    <ele>5871.8</ele>
    <time>2026-06-23T04:42:04Z</time>
   </trkpt>
   <trkpt lat="-3.0781070" lon="37.3558410">
    <ele>5871.8</ele>
    <time>2026-06-23T04:42:05Z</time>
   </trkpt>
   <trkpt lat="-3.0781040" lon="37.3558360">
    <ele>5871.7</ele>
    <time>2026-06-23T04:42:06Z</time>
   </trkpt>
   <trkpt lat="-3.0781020" lon="37.3558320">
    <ele>5871.7</ele>
    <time>2026-06-23T04:42:07Z</time>
   </trkpt>
   <trkpt lat="-3.0781000" lon="37.3558310">
    <ele>5871.7</ele>
    <time>2026-06-23T04:42:08Z</time>
   </trkpt>
   <trkpt lat="-3.0781010" lon="37.3558320">
    <ele>5871.7</ele>
    <time>2026-06-23T04:42:09Z</time>
   </trkpt>
   <trkpt lat="-3.0780980" lon="37.3558290">
    <ele>5871.7</ele>
    <time>2026-06-23T04:42:10Z</time>
   </trkpt>
   <trkpt lat="-3.0780970" lon="37.3558250">
    <ele>5871.7</ele>
    <time>2026-06-23T04:42:11Z</time>
   </trkpt>
   <trkpt lat="-3.0780940" lon="37.3558200">
    <ele>5871.7</ele>
    <time>2026-06-23T04:42:12Z</time>
   </trkpt>
   <trkpt lat="-3.0780920" lon="37.3558170">
    <ele>5871.7</ele>
    <time>2026-06-23T04:42:13Z</time>
   </trkpt>
   <trkpt lat="-3.0780870" lon="37.3558100">
    <ele>5871.7</ele>
    <time>2026-06-23T04:42:14Z</time>
   </trkpt>
   <trkpt lat="-3.0780850" lon="37.3558080">
    <ele>5871.7</ele>
    <time>2026-06-23T04:42:15Z</time>
   </trkpt>
   <trkpt lat="-3.0780820" lon="37.3558020">
    <ele>5871.7</ele>
    <time>2026-06-23T04:42:16Z</time>
   </trkpt>
   <trkpt lat="-3.0780790" lon="37.3557990">
    <ele>5871.7</ele>
    <time>2026-06-23T04:42:17Z</time>
   </trkpt>
   <trkpt lat="-3.0780760" lon="37.3557950">
    <ele>5871.7</ele>
    <time>2026-06-23T04:42:18Z</time>
   </trkpt>
   <trkpt lat="-3.0780750" lon="37.3557910">
    <ele>5871.8</ele>
    <time>2026-06-23T04:42:19Z</time>
   </trkpt>
   <trkpt lat="-3.0780710" lon="37.3557850">
    <ele>5871.8</ele>
    <time>2026-06-23T04:42:20Z</time>
   </trkpt>
   <trkpt lat="-3.0780690" lon="37.3557820">
    <ele>5871.8</ele>
    <time>2026-06-23T04:42:21Z</time>
   </trkpt>
   <trkpt lat="-3.0780650" lon="37.3557770">
    <ele>5871.8</ele>
    <time>2026-06-23T04:42:22Z</time>
   </trkpt>
   <trkpt lat="-3.0780620" lon="37.3557720">
    <ele>5871.8</ele>
    <time>2026-06-23T04:42:23Z</time>
   </trkpt>
   <trkpt lat="-3.0780590" lon="37.3557680">
    <ele>5871.8</ele>
    <time>2026-06-23T04:42:24Z</time>
   </trkpt>
   <trkpt lat="-3.0780570" lon="37.3557630">
    <ele>5871.8</ele>
    <time>2026-06-23T04:42:25Z</time>
   </trkpt>
   <trkpt lat="-3.0780540" lon="37.3557610">
    <ele>5871.8</ele>
    <time>2026-06-23T04:42:26Z</time>
   </trkpt>
   <trkpt lat="-3.0780500" lon="37.3557570">
    <ele>5871.8</ele>
    <time>2026-06-23T04:42:27Z</time>
   </trkpt>
   <trkpt lat="-3.0780490" lon="37.3557540">
    <ele>5871.8</ele>
    <time>2026-06-23T04:42:28Z</time>
   </trkpt>
   <trkpt lat="-3.0780450" lon="37.3557510">
    <ele>5871.8</ele>
    <time>2026-06-23T04:42:29Z</time>
   </trkpt>
   <trkpt lat="-3.0780410" lon="37.3557470">
    <ele>5871.8</ele>
    <time>2026-06-23T04:42:30Z</time>
   </trkpt>
   <trkpt lat="-3.0780370" lon="37.3557430">
    <ele>5871.8</ele>
    <time>2026-06-23T04:42:31Z</time>
   </trkpt>
   <trkpt lat="-3.0780340" lon="37.3557400">
    <ele>5871.9</ele>
    <time>2026-06-23T04:42:32Z</time>
   </trkpt>
   <trkpt lat="-3.0780310" lon="37.3557360">
    <ele>5871.9</ele>
    <time>2026-06-23T04:42:33Z</time>
   </trkpt>
   <trkpt lat="-3.0780270" lon="37.3557320">
    <ele>5871.9</ele>
    <time>2026-06-23T04:42:34Z</time>
   </trkpt>
   <trkpt lat="-3.0780230" lon="37.3557280">
    <ele>5871.9</ele>
    <time>2026-06-23T04:42:35Z</time>
   </trkpt>
   <trkpt lat="-3.0780190" lon="37.3557250">
    <ele>5871.9</ele>
    <time>2026-06-23T04:42:36Z</time>
   </trkpt>
   <trkpt lat="-3.0780160" lon="37.3557210">
    <ele>5871.9</ele>
    <time>2026-06-23T04:42:37Z</time>
   </trkpt>
   <trkpt lat="-3.0780120" lon="37.3557170">
    <ele>5871.9</ele>
    <time>2026-06-23T04:42:38Z</time>
   </trkpt>
   <trkpt lat="-3.0780090" lon="37.3557140">
    <ele>5871.9</ele>
    <time>2026-06-23T04:42:39Z</time>
   </trkpt>
   <trkpt lat="-3.0780040" lon="37.3557090">
    <ele>5872.0</ele>
    <time>2026-06-23T04:42:40Z</time>
   </trkpt>
   <trkpt lat="-3.0780010" lon="37.3557060">
    <ele>5872.0</ele>
    <time>2026-06-23T04:42:41Z</time>
   </trkpt>
   <trkpt lat="-3.0779970" lon="37.3557020">
    <ele>5872.0</ele>
    <time>2026-06-23T04:42:42Z</time>
   </trkpt>
   <trkpt lat="-3.0779920" lon="37.3556970">
    <ele>5872.0</ele>
    <time>2026-06-23T04:42:43Z</time>
   </trkpt>
   <trkpt lat="-3.0779880" lon="37.3556940">
    <ele>5872.0</ele>
    <time>2026-06-23T04:42:44Z</time>
   </trkpt>
   <trkpt lat="-3.0779860" lon="37.3556930">
    <ele>5872.0</ele>
    <time>2026-06-23T04:42:45Z</time>
   </trkpt>
   <trkpt lat="-3.0779820" lon="37.3556880">
    <ele>5872.0</ele>
    <time>2026-06-23T04:42:46Z</time>
   </trkpt>
   <trkpt lat="-3.0779770" lon="37.3556840">
    <ele>5872.1</ele>
    <time>2026-06-23T04:42:47Z</time>
   </trkpt>
   <trkpt lat="-3.0779740" lon="37.3556800">
    <ele>5872.1</ele>
    <time>2026-06-23T04:42:48Z</time>
   </trkpt>
   <trkpt lat="-3.0779710" lon="37.3556760">
    <ele>5872.1</ele>
    <time>2026-06-23T04:42:49Z</time>
   </trkpt>
   <trkpt lat="-3.0779680" lon="37.3556720">
    <ele>5872.1</ele>
    <time>2026-06-23T04:42:50Z</time>
   </trkpt>
   <trkpt lat="-3.0779640" lon="37.3556670">
    <ele>5872.1</ele>
    <time>2026-06-23T04:42:51Z</time>
   </trkpt>
   <trkpt lat="-3.0779610" lon="37.3556610">
    <ele>5872.1</ele>
    <time>2026-06-23T04:42:52Z</time>
   </trkpt>
   <trkpt lat="-3.0779590" lon="37.3556590">
    <ele>5872.1</ele>
    <time>2026-06-23T04:42:53Z</time>
   </trkpt>
   <trkpt lat="-3.0779550" lon="37.3556530">
    <ele>5872.2</ele>
    <time>2026-06-23T04:42:54Z</time>
   </trkpt>
   <trkpt lat="-3.0779510" lon="37.3556500">
    <ele>5872.2</ele>
    <time>2026-06-23T04:42:55Z</time>
   </trkpt>
   <trkpt lat="-3.0779480" lon="37.3556440">
    <ele>5872.2</ele>
    <time>2026-06-23T04:42:56Z</time>
   </trkpt>
   <trkpt lat="-3.0779450" lon="37.3556410">
    <ele>5872.2</ele>
    <time>2026-06-23T04:42:57Z</time>
   </trkpt>
   <trkpt lat="-3.0779420" lon="37.3556350">
    <ele>5872.2</ele>
    <time>2026-06-23T04:42:58Z</time>
   </trkpt>
   <trkpt lat="-3.0779390" lon="37.3556320">
    <ele>5872.2</ele>
    <time>2026-06-23T04:42:59Z</time>
   </trkpt>
   <trkpt lat="-3.0779350" lon="37.3556270">
    <ele>5872.3</ele>
    <time>2026-06-23T04:43:00Z</time>
   </trkpt>
   <trkpt lat="-3.0779320" lon="37.3556230">
    <ele>5872.3</ele>
    <time>2026-06-23T04:43:01Z</time>
   </trkpt>
   <trkpt lat="-3.0779300" lon="37.3556190">
    <ele>5872.3</ele>
    <time>2026-06-23T04:43:02Z</time>
   </trkpt>
   <trkpt lat="-3.0779270" lon="37.3556150">
    <ele>5872.3</ele>
    <time>2026-06-23T04:43:03Z</time>
   </trkpt>
   <trkpt lat="-3.0779230" lon="37.3556100">
    <ele>5872.3</ele>
    <time>2026-06-23T04:43:04Z</time>
   </trkpt>
   <trkpt lat="-3.0779200" lon="37.3556050">
    <ele>5872.3</ele>
    <time>2026-06-23T04:43:05Z</time>
   </trkpt>
   <trkpt lat="-3.0779190" lon="37.3556030">
    <ele>5872.3</ele>
    <time>2026-06-23T04:43:06Z</time>
   </trkpt>
   <trkpt lat="-3.0779150" lon="37.3555980">
    <ele>5872.3</ele>
    <time>2026-06-23T04:43:07Z</time>
   </trkpt>
   <trkpt lat="-3.0779110" lon="37.3555930">
    <ele>5872.3</ele>
    <time>2026-06-23T04:43:08Z</time>
   </trkpt>
   <trkpt lat="-3.0779080" lon="37.3555890">
    <ele>5872.4</ele>
    <time>2026-06-23T04:43:09Z</time>
   </trkpt>
   <trkpt lat="-3.0779060" lon="37.3555870">
    <ele>5872.4</ele>
    <time>2026-06-23T04:43:10Z</time>
   </trkpt>
   <trkpt lat="-3.0779030" lon="37.3555800">
    <ele>5872.4</ele>
    <time>2026-06-23T04:43:11Z</time>
   </trkpt>
   <trkpt lat="-3.0779000" lon="37.3555750">
    <ele>5872.4</ele>
    <time>2026-06-23T04:43:12Z</time>
   </trkpt>
   <trkpt lat="-3.0778980" lon="37.3555720">
    <ele>5872.4</ele>
    <time>2026-06-23T04:43:13Z</time>
   </trkpt>
   <trkpt lat="-3.0778930" lon="37.3555660">
    <ele>5872.4</ele>
    <time>2026-06-23T04:43:14Z</time>
   </trkpt>
   <trkpt lat="-3.0778910" lon="37.3555620">
    <ele>5872.4</ele>
    <time>2026-06-23T04:43:15Z</time>
   </trkpt>
   <trkpt lat="-3.0778870" lon="37.3555560">
    <ele>5872.4</ele>
    <time>2026-06-23T04:43:16Z</time>
   </trkpt>
   <trkpt lat="-3.0778840" lon="37.3555490">
    <ele>5872.4</ele>
    <time>2026-06-23T04:43:17Z</time>
   </trkpt>
   <trkpt lat="-3.0778810" lon="37.3555460">
    <ele>5872.4</ele>
    <time>2026-06-23T04:43:18Z</time>
   </trkpt>
   <trkpt lat="-3.0778780" lon="37.3555420">
    <ele>5872.4</ele>
    <time>2026-06-23T04:43:19Z</time>
   </trkpt>
   <trkpt lat="-3.0778730" lon="37.3555360">
    <ele>5872.4</ele>
    <time>2026-06-23T04:43:20Z</time>
   </trkpt>
   <trkpt lat="-3.0778710" lon="37.3555340">
    <ele>5872.4</ele>
    <time>2026-06-23T04:43:21Z</time>
   </trkpt>
   <trkpt lat="-3.0778660" lon="37.3555280">
    <ele>5872.4</ele>
    <time>2026-06-23T04:43:22Z</time>
   </trkpt>
   <trkpt lat="-3.0778640" lon="37.3555240">
    <ele>5872.4</ele>
    <time>2026-06-23T04:43:23Z</time>
   </trkpt>
   <trkpt lat="-3.0778590" lon="37.3555190">
    <ele>5872.4</ele>
    <time>2026-06-23T04:43:24Z</time>
   </trkpt>
   <trkpt lat="-3.0778560" lon="37.3555150">
    <ele>5872.4</ele>
    <time>2026-06-23T04:43:25Z</time>
   </trkpt>
   <trkpt lat="-3.0778520" lon="37.3555110">
    <ele>5872.4</ele>
    <time>2026-06-23T04:43:26Z</time>
   </trkpt>
   <trkpt lat="-3.0778490" lon="37.3555070">
    <ele>5872.4</ele>
    <time>2026-06-23T04:43:27Z</time>
   </trkpt>
   <trkpt lat="-3.0778450" lon="37.3555030">
    <ele>5872.4</ele>
    <time>2026-06-23T04:43:28Z</time>
   </trkpt>
   <trkpt lat="-3.0778420" lon="37.3554990">
    <ele>5872.4</ele>
    <time>2026-06-23T04:43:29Z</time>
   </trkpt>
   <trkpt lat="-3.0778380" lon="37.3554940">
    <ele>5872.5</ele>
    <time>2026-06-23T04:43:30Z</time>
   </trkpt>
   <trkpt lat="-3.0778350" lon="37.3554910">
    <ele>5872.5</ele>
    <time>2026-06-23T04:43:31Z</time>
   </trkpt>
   <trkpt lat="-3.0778340" lon="37.3554880">
    <ele>5872.5</ele>
    <time>2026-06-23T04:43:32Z</time>
   </trkpt>
   <trkpt lat="-3.0778320" lon="37.3554840">
    <ele>5872.5</ele>
    <time>2026-06-23T04:43:33Z</time>
   </trkpt>
   <trkpt lat="-3.0778280" lon="37.3554790">
    <ele>5872.5</ele>
    <time>2026-06-23T04:43:34Z</time>
   </trkpt>
   <trkpt lat="-3.0778250" lon="37.3554750">
    <ele>5872.5</ele>
    <time>2026-06-23T04:43:35Z</time>
   </trkpt>
   <trkpt lat="-3.0778220" lon="37.3554720">
    <ele>5872.5</ele>
    <time>2026-06-23T04:43:36Z</time>
   </trkpt>
   <trkpt lat="-3.0778190" lon="37.3554680">
    <ele>5872.5</ele>
    <time>2026-06-23T04:43:37Z</time>
   </trkpt>
   <trkpt lat="-3.0778160" lon="37.3554630">
    <ele>5872.5</ele>
    <time>2026-06-23T04:43:38Z</time>
   </trkpt>
   <trkpt lat="-3.0778140" lon="37.3554630">
    <ele>5872.5</ele>
    <time>2026-06-23T04:43:39Z</time>
   </trkpt>
   <trkpt lat="-3.0778110" lon="37.3554550">
    <ele>5872.5</ele>
    <time>2026-06-23T04:43:40Z</time>
   </trkpt>
   <trkpt lat="-3.0778070" lon="37.3554510">
    <ele>5872.5</ele>
    <time>2026-06-23T04:43:41Z</time>
   </trkpt>
   <trkpt lat="-3.0778030" lon="37.3554470">
    <ele>5872.5</ele>
    <time>2026-06-23T04:43:42Z</time>
   </trkpt>
   <trkpt lat="-3.0778010" lon="37.3554440">
    <ele>5872.5</ele>
    <time>2026-06-23T04:43:43Z</time>
   </trkpt>
   <trkpt lat="-3.0778000" lon="37.3554400">
    <ele>5872.5</ele>
    <time>2026-06-23T04:43:44Z</time>
   </trkpt>
   <trkpt lat="-3.0777930" lon="37.3554330">
    <ele>5872.5</ele>
    <time>2026-06-23T04:43:45Z</time>
   </trkpt>
   <trkpt lat="-3.0777880" lon="37.3554280">
    <ele>5872.5</ele>
    <time>2026-06-23T04:43:46Z</time>
   </trkpt>
   <trkpt lat="-3.0777840" lon="37.3554260">
    <ele>5872.5</ele>
    <time>2026-06-23T04:43:47Z</time>
   </trkpt>
   <trkpt lat="-3.0777820" lon="37.3554230">
    <ele>5872.5</ele>
    <time>2026-06-23T04:43:48Z</time>
   </trkpt>
   <trkpt lat="-3.0777780" lon="37.3554200">
    <ele>5872.5</ele>
    <time>2026-06-23T04:43:49Z</time>
   </trkpt>
   <trkpt lat="-3.0777740" lon="37.3554130">
    <ele>5872.5</ele>
    <time>2026-06-23T04:43:50Z</time>
   </trkpt>
   <trkpt lat="-3.0777700" lon="37.3554110">
    <ele>5872.5</ele>
    <time>2026-06-23T04:43:51Z</time>
   </trkpt>
   <trkpt lat="-3.0777640" lon="37.3554060">
    <ele>5872.5</ele>
    <time>2026-06-23T04:43:52Z</time>
   </trkpt>
   <trkpt lat="-3.0777600" lon="37.3554020">
    <ele>5872.5</ele>
    <time>2026-06-23T04:43:53Z</time>
   </trkpt>
   <trkpt lat="-3.0777540" lon="37.3553980">
    <ele>5872.5</ele>
    <time>2026-06-23T04:43:54Z</time>
   </trkpt>
   <trkpt lat="-3.0777520" lon="37.3553950">
    <ele>5872.5</ele>
    <time>2026-06-23T04:43:55Z</time>
   </trkpt>
   <trkpt lat="-3.0777470" lon="37.3553900">
    <ele>5872.5</ele>
    <time>2026-06-23T04:43:56Z</time>
   </trkpt>
   <trkpt lat="-3.0777440" lon="37.3553860">
    <ele>5872.5</ele>
    <time>2026-06-23T04:43:57Z</time>
   </trkpt>
   <trkpt lat="-3.0777400" lon="37.3553820">
    <ele>5872.5</ele>
    <time>2026-06-23T04:43:58Z</time>
   </trkpt>
   <trkpt lat="-3.0777380" lon="37.3553780">
    <ele>5872.5</ele>
    <time>2026-06-23T04:43:59Z</time>
   </trkpt>
   <trkpt lat="-3.0777350" lon="37.3553740">
    <ele>5872.5</ele>
    <time>2026-06-23T04:44:00Z</time>
   </trkpt>
   <trkpt lat="-3.0777320" lon="37.3553670">
    <ele>5872.5</ele>
    <time>2026-06-23T04:44:01Z</time>
   </trkpt>
   <trkpt lat="-3.0777300" lon="37.3553650">
    <ele>5872.5</ele>
    <time>2026-06-23T04:44:02Z</time>
   </trkpt>
   <trkpt lat="-3.0777270" lon="37.3553580">
    <ele>5872.5</ele>
    <time>2026-06-23T04:44:03Z</time>
   </trkpt>
   <trkpt lat="-3.0777240" lon="37.3553520">
    <ele>5872.5</ele>
    <time>2026-06-23T04:44:04Z</time>
   </trkpt>
   <trkpt lat="-3.0777200" lon="37.3553470">
    <ele>5872.5</ele>
    <time>2026-06-23T04:44:05Z</time>
   </trkpt>
   <trkpt lat="-3.0777180" lon="37.3553440">
    <ele>5872.5</ele>
    <time>2026-06-23T04:44:06Z</time>
   </trkpt>
   <trkpt lat="-3.0777160" lon="37.3553430">
    <ele>5872.5</ele>
    <time>2026-06-23T04:44:07Z</time>
   </trkpt>
   <trkpt lat="-3.0777160" lon="37.3553390">
    <ele>5872.5</ele>
    <time>2026-06-23T04:44:08Z</time>
   </trkpt>
   <trkpt lat="-3.0777080" lon="37.3553310">
    <ele>5872.6</ele>
    <time>2026-06-23T04:44:09Z</time>
   </trkpt>
   <trkpt lat="-3.0777070" lon="37.3553280">
    <ele>5872.6</ele>
    <time>2026-06-23T04:44:10Z</time>
   </trkpt>
   <trkpt lat="-3.0777020" lon="37.3553220">
    <ele>5872.6</ele>
    <time>2026-06-23T04:44:11Z</time>
   </trkpt>
   <trkpt lat="-3.0776990" lon="37.3553190">
    <ele>5872.6</ele>
    <time>2026-06-23T04:44:12Z</time>
   </trkpt>
   <trkpt lat="-3.0776970" lon="37.3553150">
    <ele>5872.6</ele>
    <time>2026-06-23T04:44:13Z</time>
   </trkpt>
   <trkpt lat="-3.0776980" lon="37.3553150">
    <ele>5872.6</ele>
    <time>2026-06-23T04:44:14Z</time>
   </trkpt>
   <trkpt lat="-3.0776980" lon="37.3553130">
    <ele>5872.6</ele>
    <time>2026-06-23T04:44:15Z</time>
   </trkpt>
   <trkpt lat="-3.0776990" lon="37.3553030">
    <ele>5872.6</ele>
    <time>2026-06-23T04:44:16Z</time>
   </trkpt>
   <trkpt lat="-3.0776980" lon="37.3553000">
    <ele>5872.7</ele>
    <time>2026-06-23T04:44:17Z</time>
   </trkpt>
   <trkpt lat="-3.0776970" lon="37.3552990">
    <ele>5872.7</ele>
    <time>2026-06-23T04:44:18Z</time>
   </trkpt>
   <trkpt lat="-3.0776940" lon="37.3552950">
    <ele>5872.7</ele>
    <time>2026-06-23T04:44:19Z</time>
   </trkpt>
   <trkpt lat="-3.0776920" lon="37.3552900">
    <ele>5872.7</ele>
    <time>2026-06-23T04:44:20Z</time>
   </trkpt>
   <trkpt lat="-3.0776880" lon="37.3552850">
    <ele>5872.7</ele>
    <time>2026-06-23T04:44:21Z</time>
   </trkpt>
   <trkpt lat="-3.0776850" lon="37.3552810">
    <ele>5872.7</ele>
    <time>2026-06-23T04:44:22Z</time>
   </trkpt>
   <trkpt lat="-3.0776830" lon="37.3552770">
    <ele>5872.7</ele>
    <time>2026-06-23T04:44:23Z</time>
   </trkpt>
   <trkpt lat="-3.0776790" lon="37.3552720">
    <ele>5872.7</ele>
    <time>2026-06-23T04:44:24Z</time>
   </trkpt>
   <trkpt lat="-3.0776760" lon="37.3552650">
    <ele>5872.8</ele>
    <time>2026-06-23T04:44:25Z</time>
   </trkpt>
   <trkpt lat="-3.0776720" lon="37.3552620">
    <ele>5872.8</ele>
    <time>2026-06-23T04:44:26Z</time>
   </trkpt>
   <trkpt lat="-3.0776710" lon="37.3552570">
    <ele>5872.8</ele>
    <time>2026-06-23T04:44:27Z</time>
   </trkpt>
   <trkpt lat="-3.0776680" lon="37.3552540">
    <ele>5872.8</ele>
    <time>2026-06-23T04:44:28Z</time>
   </trkpt>
   <trkpt lat="-3.0776650" lon="37.3552480">
    <ele>5872.8</ele>
    <time>2026-06-23T04:44:29Z</time>
   </trkpt>
   <trkpt lat="-3.0776620" lon="37.3552430">
    <ele>5872.8</ele>
    <time>2026-06-23T04:44:30Z</time>
   </trkpt>
   <trkpt lat="-3.0776570" lon="37.3552360">
    <ele>5872.8</ele>
    <time>2026-06-23T04:44:31Z</time>
   </trkpt>
   <trkpt lat="-3.0776550" lon="37.3552310">
    <ele>5872.9</ele>
    <time>2026-06-23T04:44:32Z</time>
   </trkpt>
   <trkpt lat="-3.0776520" lon="37.3552250">
    <ele>5872.9</ele>
    <time>2026-06-23T04:44:33Z</time>
   </trkpt>
   <trkpt lat="-3.0776490" lon="37.3552200">
    <ele>5872.9</ele>
    <time>2026-06-23T04:44:34Z</time>
   </trkpt>
   <trkpt lat="-3.0776480" lon="37.3552150">
    <ele>5872.9</ele>
    <time>2026-06-23T04:44:35Z</time>
   </trkpt>
   <trkpt lat="-3.0776480" lon="37.3552100">
    <ele>5872.9</ele>
    <time>2026-06-23T04:44:36Z</time>
   </trkpt>
   <trkpt lat="-3.0776450" lon="37.3552070">
    <ele>5872.9</ele>
    <time>2026-06-23T04:44:37Z</time>
   </trkpt>
   <trkpt lat="-3.0776420" lon="37.3552040">
    <ele>5872.9</ele>
    <time>2026-06-23T04:44:38Z</time>
   </trkpt>
   <trkpt lat="-3.0776370" lon="37.3552000">
    <ele>5872.9</ele>
    <time>2026-06-23T04:44:39Z</time>
   </trkpt>
   <trkpt lat="-3.0776350" lon="37.3551970">
    <ele>5872.9</ele>
    <time>2026-06-23T04:44:40Z</time>
   </trkpt>
   <trkpt lat="-3.0776320" lon="37.3551940">
    <ele>5873.0</ele>
    <time>2026-06-23T04:44:41Z</time>
   </trkpt>
   <trkpt lat="-3.0776300" lon="37.3551900">
    <ele>5873.0</ele>
    <time>2026-06-23T04:44:42Z</time>
   </trkpt>
   <trkpt lat="-3.0776270" lon="37.3551840">
    <ele>5873.0</ele>
    <time>2026-06-23T04:44:43Z</time>
   </trkpt>
   <trkpt lat="-3.0776240" lon="37.3551790">
    <ele>5873.0</ele>
    <time>2026-06-23T04:44:44Z</time>
   </trkpt>
   <trkpt lat="-3.0776200" lon="37.3551750">
    <ele>5873.0</ele>
    <time>2026-06-23T04:44:45Z</time>
   </trkpt>
   <trkpt lat="-3.0776160" lon="37.3551710">
    <ele>5873.0</ele>
    <time>2026-06-23T04:44:46Z</time>
   </trkpt>
   <trkpt lat="-3.0776120" lon="37.3551670">
    <ele>5873.0</ele>
    <time>2026-06-23T04:44:47Z</time>
   </trkpt>
   <trkpt lat="-3.0776100" lon="37.3551630">
    <ele>5873.0</ele>
    <time>2026-06-23T04:44:48Z</time>
   </trkpt>
   <trkpt lat="-3.0776070" lon="37.3551590">
    <ele>5873.0</ele>
    <time>2026-06-23T04:44:49Z</time>
   </trkpt>
   <trkpt lat="-3.0776040" lon="37.3551550">
    <ele>5873.0</ele>
    <time>2026-06-23T04:44:50Z</time>
   </trkpt>
   <trkpt lat="-3.0775990" lon="37.3551530">
    <ele>5873.0</ele>
    <time>2026-06-23T04:44:51Z</time>
   </trkpt>
   <trkpt lat="-3.0775940" lon="37.3551480">
    <ele>5873.1</ele>
    <time>2026-06-23T04:44:52Z</time>
   </trkpt>
   <trkpt lat="-3.0775920" lon="37.3551450">
    <ele>5873.1</ele>
    <time>2026-06-23T04:44:53Z</time>
   </trkpt>
   <trkpt lat="-3.0775910" lon="37.3551430">
    <ele>5873.1</ele>
    <time>2026-06-23T04:44:54Z</time>
   </trkpt>
   <trkpt lat="-3.0775870" lon="37.3551370">
    <ele>5873.1</ele>
    <time>2026-06-23T04:44:55Z</time>
   </trkpt>
   <trkpt lat="-3.0775840" lon="37.3551320">
    <ele>5873.1</ele>
    <time>2026-06-23T04:44:56Z</time>
   </trkpt>
   <trkpt lat="-3.0775830" lon="37.3551280">
    <ele>5873.1</ele>
    <time>2026-06-23T04:44:57Z</time>
   </trkpt>
   <trkpt lat="-3.0775790" lon="37.3551240">
    <ele>5873.1</ele>
    <time>2026-06-23T04:44:58Z</time>
   </trkpt>
   <trkpt lat="-3.0775770" lon="37.3551200">
    <ele>5873.1</ele>
    <time>2026-06-23T04:44:59Z</time>
   </trkpt>
   <trkpt lat="-3.0775750" lon="37.3551170">
    <ele>5873.1</ele>
    <time>2026-06-23T04:45:00Z</time>
   </trkpt>
   <trkpt lat="-3.0775720" lon="37.3551110">
    <ele>5873.1</ele>
    <time>2026-06-23T04:45:01Z</time>
   </trkpt>
   <trkpt lat="-3.0775690" lon="37.3551070">
    <ele>5873.1</ele>
    <time>2026-06-23T04:45:02Z</time>
   </trkpt>
   <trkpt lat="-3.0775660" lon="37.3551040">
    <ele>5873.1</ele>
    <time>2026-06-23T04:45:03Z</time>
   </trkpt>
   <trkpt lat="-3.0775630" lon="37.3551000">
    <ele>5873.1</ele>
    <time>2026-06-23T04:45:04Z</time>
   </trkpt>
   <trkpt lat="-3.0775580" lon="37.3550950">
    <ele>5873.1</ele>
    <time>2026-06-23T04:45:05Z</time>
   </trkpt>
   <trkpt lat="-3.0775530" lon="37.3550900">
    <ele>5873.1</ele>
    <time>2026-06-23T04:45:06Z</time>
   </trkpt>
   <trkpt lat="-3.0775500" lon="37.3550870">
    <ele>5873.1</ele>
    <time>2026-06-23T04:45:07Z</time>
   </trkpt>
   <trkpt lat="-3.0775460" lon="37.3550820">
    <ele>5873.1</ele>
    <time>2026-06-23T04:45:08Z</time>
   </trkpt>
   <trkpt lat="-3.0775430" lon="37.3550780">
    <ele>5873.1</ele>
    <time>2026-06-23T04:45:09Z</time>
   </trkpt>
   <trkpt lat="-3.0775410" lon="37.3550720">
    <ele>5873.1</ele>
    <time>2026-06-23T04:45:10Z</time>
   </trkpt>
   <trkpt lat="-3.0775390" lon="37.3550670">
    <ele>5873.1</ele>
    <time>2026-06-23T04:45:11Z</time>
   </trkpt>
   <trkpt lat="-3.0775340" lon="37.3550600">
    <ele>5873.0</ele>
    <time>2026-06-23T04:45:12Z</time>
   </trkpt>
   <trkpt lat="-3.0775290" lon="37.3550560">
    <ele>5873.0</ele>
    <time>2026-06-23T04:45:13Z</time>
   </trkpt>
   <trkpt lat="-3.0775240" lon="37.3550530">
    <ele>5873.0</ele>
    <time>2026-06-23T04:45:14Z</time>
   </trkpt>
   <trkpt lat="-3.0775190" lon="37.3550470">
    <ele>5873.0</ele>
    <time>2026-06-23T04:45:15Z</time>
   </trkpt>
   <trkpt lat="-3.0775150" lon="37.3550400">
    <ele>5873.0</ele>
    <time>2026-06-23T04:45:16Z</time>
   </trkpt>
   <trkpt lat="-3.0775110" lon="37.3550340">
    <ele>5873.0</ele>
    <time>2026-06-23T04:45:17Z</time>
   </trkpt>
   <trkpt lat="-3.0775080" lon="37.3550290">
    <ele>5873.0</ele>
    <time>2026-06-23T04:45:18Z</time>
   </trkpt>
   <trkpt lat="-3.0775040" lon="37.3550240">
    <ele>5873.0</ele>
    <time>2026-06-23T04:45:19Z</time>
   </trkpt>
   <trkpt lat="-3.0774990" lon="37.3550190">
    <ele>5873.0</ele>
    <time>2026-06-23T04:45:20Z</time>
   </trkpt>
   <trkpt lat="-3.0774950" lon="37.3550130">
    <ele>5872.9</ele>
    <time>2026-06-23T04:45:21Z</time>
   </trkpt>
   <trkpt lat="-3.0774900" lon="37.3550070">
    <ele>5872.9</ele>
    <time>2026-06-23T04:45:22Z</time>
   </trkpt>
   <trkpt lat="-3.0774850" lon="37.3550010">
    <ele>5872.9</ele>
    <time>2026-06-23T04:45:23Z</time>
   </trkpt>
   <trkpt lat="-3.0774810" lon="37.3549940">
    <ele>5872.9</ele>
    <time>2026-06-23T04:45:24Z</time>
   </trkpt>
   <trkpt lat="-3.0774780" lon="37.3549900">
    <ele>5872.9</ele>
    <time>2026-06-23T04:45:25Z</time>
   </trkpt>
   <trkpt lat="-3.0774720" lon="37.3549850">
    <ele>5872.9</ele>
    <time>2026-06-23T04:45:26Z</time>
   </trkpt>
   <trkpt lat="-3.0774690" lon="37.3549780">
    <ele>5872.9</ele>
    <time>2026-06-23T04:45:27Z</time>
   </trkpt>
   <trkpt lat="-3.0774640" lon="37.3549720">
    <ele>5872.8</ele>
    <time>2026-06-23T04:45:28Z</time>
   </trkpt>
   <trkpt lat="-3.0774600" lon="37.3549660">
    <ele>5872.8</ele>
    <time>2026-06-23T04:45:29Z</time>
   </trkpt>
   <trkpt lat="-3.0774550" lon="37.3549610">
    <ele>5872.8</ele>
    <time>2026-06-23T04:45:30Z</time>
   </trkpt>
   <trkpt lat="-3.0774500" lon="37.3549560">
    <ele>5872.8</ele>
    <time>2026-06-23T04:45:31Z</time>
   </trkpt>
   <trkpt lat="-3.0774450" lon="37.3549510">
    <ele>5872.8</ele>
    <time>2026-06-23T04:45:32Z</time>
   </trkpt>
   <trkpt lat="-3.0774410" lon="37.3549450">
    <ele>5872.8</ele>
    <time>2026-06-23T04:45:33Z</time>
   </trkpt>
   <trkpt lat="-3.0774370" lon="37.3549390">
    <ele>5872.8</ele>
    <time>2026-06-23T04:45:34Z</time>
   </trkpt>
   <trkpt lat="-3.0774350" lon="37.3549330">
    <ele>5872.8</ele>
    <time>2026-06-23T04:45:35Z</time>
   </trkpt>
   <trkpt lat="-3.0774310" lon="37.3549260">
    <ele>5872.8</ele>
    <time>2026-06-23T04:45:36Z</time>
   </trkpt>
   <trkpt lat="-3.0774260" lon="37.3549210">
    <ele>5872.8</ele>
    <time>2026-06-23T04:45:37Z</time>
   </trkpt>
   <trkpt lat="-3.0774220" lon="37.3549150">
    <ele>5872.8</ele>
    <time>2026-06-23T04:45:38Z</time>
   </trkpt>
   <trkpt lat="-3.0774160" lon="37.3549100">
    <ele>5872.8</ele>
    <time>2026-06-23T04:45:39Z</time>
   </trkpt>
   <trkpt lat="-3.0774110" lon="37.3549050">
    <ele>5872.8</ele>
    <time>2026-06-23T04:45:40Z</time>
   </trkpt>
   <trkpt lat="-3.0774080" lon="37.3549030">
    <ele>5872.8</ele>
    <time>2026-06-23T04:45:41Z</time>
   </trkpt>
   <trkpt lat="-3.0774010" lon="37.3548960">
    <ele>5872.8</ele>
    <time>2026-06-23T04:45:42Z</time>
   </trkpt>
   <trkpt lat="-3.0773970" lon="37.3548910">
    <ele>5872.8</ele>
    <time>2026-06-23T04:45:43Z</time>
   </trkpt>
   <trkpt lat="-3.0773930" lon="37.3548870">
    <ele>5872.8</ele>
    <time>2026-06-23T04:45:44Z</time>
   </trkpt>
   <trkpt lat="-3.0773880" lon="37.3548810">
    <ele>5872.8</ele>
    <time>2026-06-23T04:45:45Z</time>
   </trkpt>
   <trkpt lat="-3.0773840" lon="37.3548770">
    <ele>5872.8</ele>
    <time>2026-06-23T04:45:46Z</time>
   </trkpt>
   <trkpt lat="-3.0773790" lon="37.3548710">
    <ele>5872.8</ele>
    <time>2026-06-23T04:45:47Z</time>
   </trkpt>
   <trkpt lat="-3.0773740" lon="37.3548640">
    <ele>5872.8</ele>
    <time>2026-06-23T04:45:48Z</time>
   </trkpt>
   <trkpt lat="-3.0773690" lon="37.3548590">
    <ele>5872.8</ele>
    <time>2026-06-23T04:45:49Z</time>
   </trkpt>
   <trkpt lat="-3.0773640" lon="37.3548550">
    <ele>5872.8</ele>
    <time>2026-06-23T04:45:50Z</time>
   </trkpt>
   <trkpt lat="-3.0773630" lon="37.3548550">
    <ele>5872.8</ele>
    <time>2026-06-23T04:45:51Z</time>
   </trkpt>
   <trkpt lat="-3.0773550" lon="37.3548510">
    <ele>5872.8</ele>
    <time>2026-06-23T04:45:52Z</time>
   </trkpt>
   <trkpt lat="-3.0773490" lon="37.3548480">
    <ele>5872.9</ele>
    <time>2026-06-23T04:45:53Z</time>
   </trkpt>
   <trkpt lat="-3.0773460" lon="37.3548480">
    <ele>5872.9</ele>
    <time>2026-06-23T04:45:54Z</time>
   </trkpt>
   <trkpt lat="-3.0773400" lon="37.3548450">
    <ele>5872.9</ele>
    <time>2026-06-23T04:45:55Z</time>
   </trkpt>
   <trkpt lat="-3.0773360" lon="37.3548450">
    <ele>5872.9</ele>
    <time>2026-06-23T04:45:56Z</time>
   </trkpt>
   <trkpt lat="-3.0773350" lon="37.3548410">
    <ele>5872.9</ele>
    <time>2026-06-23T04:45:57Z</time>
   </trkpt>
   <trkpt lat="-3.0773300" lon="37.3548370">
    <ele>5872.9</ele>
    <time>2026-06-23T04:45:58Z</time>
   </trkpt>
   <trkpt lat="-3.0773290" lon="37.3548350">
    <ele>5872.9</ele>
    <time>2026-06-23T04:45:59Z</time>
   </trkpt>
   <trkpt lat="-3.0773240" lon="37.3548300">
    <ele>5872.9</ele>
    <time>2026-06-23T04:46:00Z</time>
   </trkpt>
   <trkpt lat="-3.0773200" lon="37.3548260">
    <ele>5872.9</ele>
    <time>2026-06-23T04:46:01Z</time>
   </trkpt>
   <trkpt lat="-3.0773160" lon="37.3548240">
    <ele>5872.9</ele>
    <time>2026-06-23T04:46:02Z</time>
   </trkpt>
   <trkpt lat="-3.0773130" lon="37.3548210">
    <ele>5872.9</ele>
    <time>2026-06-23T04:46:03Z</time>
   </trkpt>
   <trkpt lat="-3.0773090" lon="37.3548190">
    <ele>5872.9</ele>
    <time>2026-06-23T04:46:04Z</time>
   </trkpt>
   <trkpt lat="-3.0773060" lon="37.3548160">
    <ele>5872.9</ele>
    <time>2026-06-23T04:46:05Z</time>
   </trkpt>
   <trkpt lat="-3.0773020" lon="37.3548130">
    <ele>5872.9</ele>
    <time>2026-06-23T04:46:06Z</time>
   </trkpt>
   <trkpt lat="-3.0772990" lon="37.3548090">
    <ele>5872.9</ele>
    <time>2026-06-23T04:46:07Z</time>
   </trkpt>
   <trkpt lat="-3.0772980" lon="37.3548050">
    <ele>5872.9</ele>
    <time>2026-06-23T04:46:08Z</time>
   </trkpt>
   <trkpt lat="-3.0772950" lon="37.3548030">
    <ele>5872.9</ele>
    <time>2026-06-23T04:46:09Z</time>
   </trkpt>
   <trkpt lat="-3.0772920" lon="37.3548000">
    <ele>5872.9</ele>
    <time>2026-06-23T04:46:10Z</time>
   </trkpt>
   <trkpt lat="-3.0772900" lon="37.3547980">
    <ele>5872.9</ele>
    <time>2026-06-23T04:46:11Z</time>
   </trkpt>
   <trkpt lat="-3.0772890" lon="37.3547990">
    <ele>5872.9</ele>
    <time>2026-06-23T04:46:12Z</time>
   </trkpt>
   <trkpt lat="-3.0772830" lon="37.3547990">
    <ele>5873.0</ele>
    <time>2026-06-23T04:46:13Z</time>
   </trkpt>
   <trkpt lat="-3.0772830" lon="37.3547930">
    <ele>5873.0</ele>
    <time>2026-06-23T04:46:14Z</time>
   </trkpt>
   <trkpt lat="-3.0772820" lon="37.3547930">
    <ele>5873.0</ele>
    <time>2026-06-23T04:46:15Z</time>
   </trkpt>
   <trkpt lat="-3.0772810" lon="37.3547930">
    <ele>5873.0</ele>
    <time>2026-06-23T04:46:16Z</time>
   </trkpt>
   <trkpt lat="-3.0772700" lon="37.3547900">
    <ele>5873.0</ele>
    <time>2026-06-23T04:46:17Z</time>
   </trkpt>
   <trkpt lat="-3.0772680" lon="37.3547900">
    <ele>5873.0</ele>
    <time>2026-06-23T04:46:18Z</time>
   </trkpt>
   <trkpt lat="-3.0772660" lon="37.3547860">
    <ele>5873.0</ele>
    <time>2026-06-23T04:46:19Z</time>
   </trkpt>
   <trkpt lat="-3.0772630" lon="37.3547810">
    <ele>5873.0</ele>
    <time>2026-06-23T04:46:20Z</time>
   </trkpt>
   <trkpt lat="-3.0772610" lon="37.3547760">
    <ele>5873.0</ele>
    <time>2026-06-23T04:46:21Z</time>
   </trkpt>
   <trkpt lat="-3.0772560" lon="37.3547710">
    <ele>5873.0</ele>
    <time>2026-06-23T04:46:22Z</time>
   </trkpt>
   <trkpt lat="-3.0772530" lon="37.3547660">
    <ele>5873.0</ele>
    <time>2026-06-23T04:46:23Z</time>
   </trkpt>
   <trkpt lat="-3.0772510" lon="37.3547610">
    <ele>5873.1</ele>
    <time>2026-06-23T04:46:24Z</time>
   </trkpt>
   <trkpt lat="-3.0772470" lon="37.3547570">
    <ele>5873.1</ele>
    <time>2026-06-23T04:46:25Z</time>
   </trkpt>
   <trkpt lat="-3.0772440" lon="37.3547530">
    <ele>5873.1</ele>
    <time>2026-06-23T04:46:26Z</time>
   </trkpt>
   <trkpt lat="-3.0772390" lon="37.3547490">
    <ele>5873.1</ele>
    <time>2026-06-23T04:46:27Z</time>
   </trkpt>
   <trkpt lat="-3.0772370" lon="37.3547470">
    <ele>5873.1</ele>
    <time>2026-06-23T04:46:28Z</time>
   </trkpt>
   <trkpt lat="-3.0772350" lon="37.3547440">
    <ele>5873.1</ele>
    <time>2026-06-23T04:46:29Z</time>
   </trkpt>
   <trkpt lat="-3.0772310" lon="37.3547410">
    <ele>5873.1</ele>
    <time>2026-06-23T04:46:30Z</time>
   </trkpt>
   <trkpt lat="-3.0772280" lon="37.3547390">
    <ele>5873.1</ele>
    <time>2026-06-23T04:46:31Z</time>
   </trkpt>
   <trkpt lat="-3.0772250" lon="37.3547370">
    <ele>5873.1</ele>
    <time>2026-06-23T04:46:32Z</time>
   </trkpt>
   <trkpt lat="-3.0772230" lon="37.3547340">
    <ele>5873.1</ele>
    <time>2026-06-23T04:46:33Z</time>
   </trkpt>
   <trkpt lat="-3.0772180" lon="37.3547300">
    <ele>5873.2</ele>
    <time>2026-06-23T04:46:34Z</time>
   </trkpt>
   <trkpt lat="-3.0772160" lon="37.3547270">
    <ele>5873.2</ele>
    <time>2026-06-23T04:46:35Z</time>
   </trkpt>
   <trkpt lat="-3.0772100" lon="37.3547220">
    <ele>5873.2</ele>
    <time>2026-06-23T04:46:36Z</time>
   </trkpt>
   <trkpt lat="-3.0772070" lon="37.3547180">
    <ele>5873.2</ele>
    <time>2026-06-23T04:46:37Z</time>
   </trkpt>
   <trkpt lat="-3.0772050" lon="37.3547140">
    <ele>5873.2</ele>
    <time>2026-06-23T04:46:38Z</time>
   </trkpt>
   <trkpt lat="-3.0772000" lon="37.3547110">
    <ele>5873.2</ele>
    <time>2026-06-23T04:46:39Z</time>
   </trkpt>
   <trkpt lat="-3.0771980" lon="37.3547070">
    <ele>5873.2</ele>
    <time>2026-06-23T04:46:40Z</time>
   </trkpt>
   <trkpt lat="-3.0771940" lon="37.3547040">
    <ele>5873.3</ele>
    <time>2026-06-23T04:46:41Z</time>
   </trkpt>
   <trkpt lat="-3.0771900" lon="37.3547000">
    <ele>5873.3</ele>
    <time>2026-06-23T04:46:42Z</time>
   </trkpt>
   <trkpt lat="-3.0771850" lon="37.3546960">
    <ele>5873.3</ele>
    <time>2026-06-23T04:46:43Z</time>
   </trkpt>
   <trkpt lat="-3.0771810" lon="37.3546910">
    <ele>5873.3</ele>
    <time>2026-06-23T04:46:44Z</time>
   </trkpt>
   <trkpt lat="-3.0771780" lon="37.3546880">
    <ele>5873.3</ele>
    <time>2026-06-23T04:46:45Z</time>
   </trkpt>
   <trkpt lat="-3.0771750" lon="37.3546840">
    <ele>5873.3</ele>
    <time>2026-06-23T04:46:46Z</time>
   </trkpt>
   <trkpt lat="-3.0771740" lon="37.3546800">
    <ele>5873.3</ele>
    <time>2026-06-23T04:46:47Z</time>
   </trkpt>
   <trkpt lat="-3.0771740" lon="37.3546750">
    <ele>5873.4</ele>
    <time>2026-06-23T04:46:48Z</time>
   </trkpt>
   <trkpt lat="-3.0771690" lon="37.3546680">
    <ele>5873.4</ele>
    <time>2026-06-23T04:46:49Z</time>
   </trkpt>
   <trkpt lat="-3.0771640" lon="37.3546630">
    <ele>5873.4</ele>
    <time>2026-06-23T04:46:50Z</time>
   </trkpt>
   <trkpt lat="-3.0771620" lon="37.3546560">
    <ele>5873.4</ele>
    <time>2026-06-23T04:46:51Z</time>
   </trkpt>
   <trkpt lat="-3.0771580" lon="37.3546510">
    <ele>5873.5</ele>
    <time>2026-06-23T04:46:52Z</time>
   </trkpt>
   <trkpt lat="-3.0771540" lon="37.3546470">
    <ele>5873.5</ele>
    <time>2026-06-23T04:46:53Z</time>
   </trkpt>
   <trkpt lat="-3.0771510" lon="37.3546460">
    <ele>5873.5</ele>
    <time>2026-06-23T04:46:54Z</time>
   </trkpt>
   <trkpt lat="-3.0771470" lon="37.3546400">
    <ele>5873.5</ele>
    <time>2026-06-23T04:46:55Z</time>
   </trkpt>
   <trkpt lat="-3.0771410" lon="37.3546350">
    <ele>5873.6</ele>
    <time>2026-06-23T04:46:56Z</time>
   </trkpt>
   <trkpt lat="-3.0771370" lon="37.3546310">
    <ele>5873.6</ele>
    <time>2026-06-23T04:46:57Z</time>
   </trkpt>
   <trkpt lat="-3.0771310" lon="37.3546260">
    <ele>5873.6</ele>
    <time>2026-06-23T04:46:58Z</time>
   </trkpt>
   <trkpt lat="-3.0771270" lon="37.3546220">
    <ele>5873.6</ele>
    <time>2026-06-23T04:46:59Z</time>
   </trkpt>
   <trkpt lat="-3.0771210" lon="37.3546160">
    <ele>5873.7</ele>
    <time>2026-06-23T04:47:00Z</time>
   </trkpt>
   <trkpt lat="-3.0771180" lon="37.3546120">
    <ele>5873.7</ele>
    <time>2026-06-23T04:47:01Z</time>
   </trkpt>
   <trkpt lat="-3.0771150" lon="37.3546070">
    <ele>5873.7</ele>
    <time>2026-06-23T04:47:02Z</time>
   </trkpt>
   <trkpt lat="-3.0771120" lon="37.3546030">
    <ele>5873.7</ele>
    <time>2026-06-23T04:47:03Z</time>
   </trkpt>
   <trkpt lat="-3.0771080" lon="37.3545960">
    <ele>5873.8</ele>
    <time>2026-06-23T04:47:04Z</time>
   </trkpt>
   <trkpt lat="-3.0771030" lon="37.3545900">
    <ele>5873.8</ele>
    <time>2026-06-23T04:47:05Z</time>
   </trkpt>
   <trkpt lat="-3.0771000" lon="37.3545870">
    <ele>5873.8</ele>
    <time>2026-06-23T04:47:06Z</time>
   </trkpt>
   <trkpt lat="-3.0770970" lon="37.3545840">
    <ele>5873.8</ele>
    <time>2026-06-23T04:47:07Z</time>
   </trkpt>
   <trkpt lat="-3.0770970" lon="37.3545840">
    <ele>5873.8</ele>
    <time>2026-06-23T04:47:08Z</time>
   </trkpt>
   <trkpt lat="-3.0770980" lon="37.3545860">
    <ele>5873.8</ele>
    <time>2026-06-23T04:47:09Z</time>
   </trkpt>
   <trkpt lat="-3.0770990" lon="37.3545860">
    <ele>5873.8</ele>
    <time>2026-06-23T04:47:10Z</time>
   </trkpt>
   <trkpt lat="-3.0770990" lon="37.3545850">
    <ele>5873.8</ele>
    <time>2026-06-23T04:47:11Z</time>
   </trkpt>
   <trkpt lat="-3.0770950" lon="37.3545820">
    <ele>5873.9</ele>
    <time>2026-06-23T04:47:12Z</time>
   </trkpt>
   <trkpt lat="-3.0770890" lon="37.3545750">
    <ele>5873.9</ele>
    <time>2026-06-23T04:47:13Z</time>
   </trkpt>
   <trkpt lat="-3.0770860" lon="37.3545750">
    <ele>5873.9</ele>
    <time>2026-06-23T04:47:14Z</time>
   </trkpt>
   <trkpt lat="-3.0770810" lon="37.3545700">
    <ele>5873.9</ele>
    <time>2026-06-23T04:47:15Z</time>
   </trkpt>
   <trkpt lat="-3.0770760" lon="37.3545690">
    <ele>5874.0</ele>
    <time>2026-06-23T04:47:16Z</time>
   </trkpt>
   <trkpt lat="-3.0770710" lon="37.3545650">
    <ele>5874.0</ele>
    <time>2026-06-23T04:47:17Z</time>
   </trkpt>
   <trkpt lat="-3.0770650" lon="37.3545620">
    <ele>5874.0</ele>
    <time>2026-06-23T04:47:18Z</time>
   </trkpt>
   <trkpt lat="-3.0770610" lon="37.3545610">
    <ele>5874.0</ele>
    <time>2026-06-23T04:47:19Z</time>
   </trkpt>
   <trkpt lat="-3.0770570" lon="37.3545610">
    <ele>5874.0</ele>
    <time>2026-06-23T04:47:20Z</time>
   </trkpt>
   <trkpt lat="-3.0770520" lon="37.3545610">
    <ele>5874.1</ele>
    <time>2026-06-23T04:47:21Z</time>
   </trkpt>
   <trkpt lat="-3.0770470" lon="37.3545590">
    <ele>5874.1</ele>
    <time>2026-06-23T04:47:22Z</time>
   </trkpt>
   <trkpt lat="-3.0770410" lon="37.3545560">
    <ele>5874.1</ele>
    <time>2026-06-23T04:47:23Z</time>
   </trkpt>
   <trkpt lat="-3.0770360" lon="37.3545520">
    <ele>5874.1</ele>
    <time>2026-06-23T04:47:24Z</time>
   </trkpt>
   <trkpt lat="-3.0770340" lon="37.3545490">
    <ele>5874.2</ele>
    <time>2026-06-23T04:47:25Z</time>
   </trkpt>
   <trkpt lat="-3.0770290" lon="37.3545450">
    <ele>5874.2</ele>
    <time>2026-06-23T04:47:26Z</time>
   </trkpt>
   <trkpt lat="-3.0770240" lon="37.3545440">
    <ele>5874.2</ele>
    <time>2026-06-23T04:47:27Z</time>
   </trkpt>
   <trkpt lat="-3.0770210" lon="37.3545450">
    <ele>5874.2</ele>
    <time>2026-06-23T04:47:28Z</time>
   </trkpt>
   <trkpt lat="-3.0770120" lon="37.3545410">
    <ele>5874.2</ele>
    <time>2026-06-23T04:47:29Z</time>
   </trkpt>
   <trkpt lat="-3.0770070" lon="37.3545390">
    <ele>5874.3</ele>
    <time>2026-06-23T04:47:30Z</time>
   </trkpt>
   <trkpt lat="-3.0769990" lon="37.3545360">
    <ele>5874.3</ele>
    <time>2026-06-23T04:47:31Z</time>
   </trkpt>
   <trkpt lat="-3.0769940" lon="37.3545360">
    <ele>5874.3</ele>
    <time>2026-06-23T04:47:32Z</time>
   </trkpt>
   <trkpt lat="-3.0769860" lon="37.3545330">
    <ele>5874.3</ele>
    <time>2026-06-23T04:47:33Z</time>
   </trkpt>
   <trkpt lat="-3.0769800" lon="37.3545300">
    <ele>5874.4</ele>
    <time>2026-06-23T04:47:34Z</time>
   </trkpt>
   <trkpt lat="-3.0769740" lon="37.3545250">
    <ele>5874.4</ele>
    <time>2026-06-23T04:47:35Z</time>
   </trkpt>
   <trkpt lat="-3.0769700" lon="37.3545220">
    <ele>5874.4</ele>
    <time>2026-06-23T04:47:36Z</time>
   </trkpt>
   <trkpt lat="-3.0769620" lon="37.3545190">
    <ele>5874.4</ele>
    <time>2026-06-23T04:47:37Z</time>
   </trkpt>
   <trkpt lat="-3.0769570" lon="37.3545160">
    <ele>5874.4</ele>
    <time>2026-06-23T04:47:38Z</time>
   </trkpt>
   <trkpt lat="-3.0769510" lon="37.3545120">
    <ele>5874.5</ele>
    <time>2026-06-23T04:47:39Z</time>
   </trkpt>
   <trkpt lat="-3.0769450" lon="37.3545070">
    <ele>5874.5</ele>
    <time>2026-06-23T04:47:40Z</time>
   </trkpt>
   <trkpt lat="-3.0769390" lon="37.3545030">
    <ele>5874.5</ele>
    <time>2026-06-23T04:47:41Z</time>
   </trkpt>
   <trkpt lat="-3.0769330" lon="37.3544980">
    <ele>5874.5</ele>
    <time>2026-06-23T04:47:42Z</time>
   </trkpt>
   <trkpt lat="-3.0769270" lon="37.3544940">
    <ele>5874.5</ele>
    <time>2026-06-23T04:47:43Z</time>
   </trkpt>
   <trkpt lat="-3.0769220" lon="37.3544900">
    <ele>5874.6</ele>
    <time>2026-06-23T04:47:44Z</time>
   </trkpt>
   <trkpt lat="-3.0769170" lon="37.3544870">
    <ele>5874.6</ele>
    <time>2026-06-23T04:47:45Z</time>
   </trkpt>
   <trkpt lat="-3.0769130" lon="37.3544840">
    <ele>5874.6</ele>
    <time>2026-06-23T04:47:46Z</time>
   </trkpt>
   <trkpt lat="-3.0769110" lon="37.3544830">
    <ele>5874.6</ele>
    <time>2026-06-23T04:47:47Z</time>
   </trkpt>
   <trkpt lat="-3.0769060" lon="37.3544800">
    <ele>5874.6</ele>
    <time>2026-06-23T04:47:48Z</time>
   </trkpt>
   <trkpt lat="-3.0769010" lon="37.3544750">
    <ele>5874.6</ele>
    <time>2026-06-23T04:47:49Z</time>
   </trkpt>
   <trkpt lat="-3.0768960" lon="37.3544720">
    <ele>5874.6</ele>
    <time>2026-06-23T04:47:50Z</time>
   </trkpt>
   <trkpt lat="-3.0768920" lon="37.3544700">
    <ele>5874.7</ele>
    <time>2026-06-23T04:47:51Z</time>
   </trkpt>
   <trkpt lat="-3.0768850" lon="37.3544670">
    <ele>5874.7</ele>
    <time>2026-06-23T04:47:52Z</time>
   </trkpt>
   <trkpt lat="-3.0768790" lon="37.3544630">
    <ele>5874.7</ele>
    <time>2026-06-23T04:47:53Z</time>
   </trkpt>
   <trkpt lat="-3.0768750" lon="37.3544590">
    <ele>5874.7</ele>
    <time>2026-06-23T04:47:54Z</time>
   </trkpt>
   <trkpt lat="-3.0768700" lon="37.3544550">
    <ele>5874.7</ele>
    <time>2026-06-23T04:47:55Z</time>
   </trkpt>
   <trkpt lat="-3.0768650" lon="37.3544500">
    <ele>5874.7</ele>
    <time>2026-06-23T04:47:56Z</time>
   </trkpt>
   <trkpt lat="-3.0768600" lon="37.3544450">
    <ele>5874.7</ele>
    <time>2026-06-23T04:47:57Z</time>
   </trkpt>
   <trkpt lat="-3.0768540" lon="37.3544410">
    <ele>5874.8</ele>
    <time>2026-06-23T04:47:58Z</time>
   </trkpt>
   <trkpt lat="-3.0768500" lon="37.3544360">
    <ele>5874.8</ele>
    <time>2026-06-23T04:47:59Z</time>
   </trkpt>
   <trkpt lat="-3.0768460" lon="37.3544310">
    <ele>5874.8</ele>
    <time>2026-06-23T04:48:00Z</time>
   </trkpt>
   <trkpt lat="-3.0768420" lon="37.3544270">
    <ele>5874.8</ele>
    <time>2026-06-23T04:48:01Z</time>
   </trkpt>
   <trkpt lat="-3.0768350" lon="37.3544220">
    <ele>5874.8</ele>
    <time>2026-06-23T04:48:02Z</time>
   </trkpt>
   <trkpt lat="-3.0768300" lon="37.3544190">
    <ele>5874.8</ele>
    <time>2026-06-23T04:48:03Z</time>
   </trkpt>
   <trkpt lat="-3.0768240" lon="37.3544150">
    <ele>5874.8</ele>
    <time>2026-06-23T04:48:04Z</time>
   </trkpt>
   <trkpt lat="-3.0768190" lon="37.3544100">
    <ele>5874.8</ele>
    <time>2026-06-23T04:48:05Z</time>
   </trkpt>
   <trkpt lat="-3.0768130" lon="37.3544050">
    <ele>5874.8</ele>
    <time>2026-06-23T04:48:06Z</time>
   </trkpt>
   <trkpt lat="-3.0768090" lon="37.3544000">
    <ele>5874.9</ele>
    <time>2026-06-23T04:48:07Z</time>
   </trkpt>
   <trkpt lat="-3.0768050" lon="37.3543960">
    <ele>5874.9</ele>
    <time>2026-06-23T04:48:08Z</time>
   </trkpt>
   <trkpt lat="-3.0768070" lon="37.3543980">
    <ele>5874.9</ele>
    <time>2026-06-23T04:48:09Z</time>
   </trkpt>
   <trkpt lat="-3.0768080" lon="37.3543990">
    <ele>5874.9</ele>
    <time>2026-06-23T04:48:10Z</time>
   </trkpt>
   <trkpt lat="-3.0768080" lon="37.3543990">
    <ele>5874.9</ele>
    <time>2026-06-23T04:48:11Z</time>
   </trkpt>
   <trkpt lat="-3.0768070" lon="37.3544000">
    <ele>5874.9</ele>
    <time>2026-06-23T04:48:12Z</time>
   </trkpt>
   <trkpt lat="-3.0768070" lon="37.3544000">
    <ele>5874.9</ele>
    <time>2026-06-23T04:48:13Z</time>
   </trkpt>
   <trkpt lat="-3.0768070" lon="37.3543980">
    <ele>5874.9</ele>
    <time>2026-06-23T04:48:14Z</time>
   </trkpt>
   <trkpt lat="-3.0768010" lon="37.3543950">
    <ele>5874.9</ele>
    <time>2026-06-23T04:48:15Z</time>
   </trkpt>
   <trkpt lat="-3.0767980" lon="37.3543930">
    <ele>5874.9</ele>
    <time>2026-06-23T04:48:16Z</time>
   </trkpt>
   <trkpt lat="-3.0767930" lon="37.3543900">
    <ele>5874.9</ele>
    <time>2026-06-23T04:48:17Z</time>
   </trkpt>
   <trkpt lat="-3.0767850" lon="37.3543840">
    <ele>5874.9</ele>
    <time>2026-06-23T04:48:18Z</time>
   </trkpt>
   <trkpt lat="-3.0767810" lon="37.3543790">
    <ele>5874.9</ele>
    <time>2026-06-23T04:48:19Z</time>
   </trkpt>
   <trkpt lat="-3.0767750" lon="37.3543760">
    <ele>5874.9</ele>
    <time>2026-06-23T04:48:20Z</time>
   </trkpt>
   <trkpt lat="-3.0767690" lon="37.3543720">
    <ele>5874.9</ele>
    <time>2026-06-23T04:48:21Z</time>
   </trkpt>
   <trkpt lat="-3.0767630" lon="37.3543700">
    <ele>5874.9</ele>
    <time>2026-06-23T04:48:22Z</time>
   </trkpt>
   <trkpt lat="-3.0767580" lon="37.3543670">
    <ele>5875.0</ele>
    <time>2026-06-23T04:48:23Z</time>
   </trkpt>
   <trkpt lat="-3.0767530" lon="37.3543640">
    <ele>5875.0</ele>
    <time>2026-06-23T04:48:24Z</time>
   </trkpt>
   <trkpt lat="-3.0767460" lon="37.3543600">
    <ele>5875.0</ele>
    <time>2026-06-23T04:48:25Z</time>
   </trkpt>
   <trkpt lat="-3.0767390" lon="37.3543560">
    <ele>5875.0</ele>
    <time>2026-06-23T04:48:26Z</time>
   </trkpt>
   <trkpt lat="-3.0767330" lon="37.3543520">
    <ele>5875.0</ele>
    <time>2026-06-23T04:48:27Z</time>
   </trkpt>
   <trkpt lat="-3.0767280" lon="37.3543490">
    <ele>5875.0</ele>
    <time>2026-06-23T04:48:28Z</time>
   </trkpt>
   <trkpt lat="-3.0767200" lon="37.3543470">
    <ele>5875.0</ele>
    <time>2026-06-23T04:48:29Z</time>
   </trkpt>
   <trkpt lat="-3.0767140" lon="37.3543460">
    <ele>5875.0</ele>
    <time>2026-06-23T04:48:30Z</time>
   </trkpt>
   <trkpt lat="-3.0767080" lon="37.3543460">
    <ele>5875.0</ele>
    <time>2026-06-23T04:48:31Z</time>
   </trkpt>
   <trkpt lat="-3.0767040" lon="37.3543450">
    <ele>5875.0</ele>
    <time>2026-06-23T04:48:32Z</time>
   </trkpt>
   <trkpt lat="-3.0766990" lon="37.3543410">
    <ele>5875.0</ele>
    <time>2026-06-23T04:48:33Z</time>
   </trkpt>
   <trkpt lat="-3.0766940" lon="37.3543380">
    <ele>5875.1</ele>
    <time>2026-06-23T04:48:34Z</time>
   </trkpt>
   <trkpt lat="-3.0766910" lon="37.3543360">
    <ele>5875.1</ele>
    <time>2026-06-23T04:48:35Z</time>
   </trkpt>
   <trkpt lat="-3.0766890" lon="37.3543340">
    <ele>5875.1</ele>
    <time>2026-06-23T04:48:36Z</time>
   </trkpt>
   <trkpt lat="-3.0766920" lon="37.3543360">
    <ele>5875.1</ele>
    <time>2026-06-23T04:48:37Z</time>
   </trkpt>
   <trkpt lat="-3.0766930" lon="37.3543370">
    <ele>5875.1</ele>
    <time>2026-06-23T04:48:38Z</time>
   </trkpt>
   <trkpt lat="-3.0766920" lon="37.3543370">
    <ele>5875.1</ele>
    <time>2026-06-23T04:48:39Z</time>
   </trkpt>
   <trkpt lat="-3.0766920" lon="37.3543370">
    <ele>5875.1</ele>
    <time>2026-06-23T04:48:40Z</time>
   </trkpt>
   <trkpt lat="-3.0766920" lon="37.3543380">
    <ele>5875.1</ele>
    <time>2026-06-23T04:48:41Z</time>
   </trkpt>
   <trkpt lat="-3.0766920" lon="37.3543380">
    <ele>5875.1</ele>
    <time>2026-06-23T04:48:42Z</time>
   </trkpt>
   <trkpt lat="-3.0766920" lon="37.3543380">
    <ele>5875.1</ele>
    <time>2026-06-23T04:48:43Z</time>
   </trkpt>
   <trkpt lat="-3.0766920" lon="37.3543360">
    <ele>5875.1</ele>
    <time>2026-06-23T04:48:44Z</time>
   </trkpt>
   <trkpt lat="-3.0766920" lon="37.3543370">
    <ele>5875.1</ele>
    <time>2026-06-23T04:48:45Z</time>
   </trkpt>
   <trkpt lat="-3.0766920" lon="37.3543360">
    <ele>5875.1</ele>
    <time>2026-06-23T04:48:46Z</time>
   </trkpt>
   <trkpt lat="-3.0766910" lon="37.3543350">
    <ele>5875.1</ele>
    <time>2026-06-23T04:48:47Z</time>
   </trkpt>
   <trkpt lat="-3.0766910" lon="37.3543350">
    <ele>5875.1</ele>
    <time>2026-06-23T04:48:48Z</time>
   </trkpt>
   <trkpt lat="-3.0766910" lon="37.3543350">
    <ele>5875.1</ele>
    <time>2026-06-23T04:48:49Z</time>
   </trkpt>
   <trkpt lat="-3.0766910" lon="37.3543350">
    <ele>5875.1</ele>
    <time>2026-06-23T04:48:50Z</time>
   </trkpt>
   <trkpt lat="-3.0766920" lon="37.3543350">
    <ele>5875.1</ele>
    <time>2026-06-23T04:48:51Z</time>
   </trkpt>
   <trkpt lat="-3.0766920" lon="37.3543350">
    <ele>5875.1</ele>
    <time>2026-06-23T04:48:52Z</time>
   </trkpt>
   <trkpt lat="-3.0766920" lon="37.3543340">
    <ele>5875.1</ele>
    <time>2026-06-23T04:48:53Z</time>
   </trkpt>
   <trkpt lat="-3.0766930" lon="37.3543350">
    <ele>5875.1</ele>
    <time>2026-06-23T04:48:54Z</time>
   </trkpt>
   <trkpt lat="-3.0766920" lon="37.3543330">
    <ele>5875.1</ele>
    <time>2026-06-23T04:48:55Z</time>
   </trkpt>
   <trkpt lat="-3.0766920" lon="37.3543340">
    <ele>5875.1</ele>
    <time>2026-06-23T04:48:56Z</time>
   </trkpt>
   <trkpt lat="-3.0766920" lon="37.3543340">
    <ele>5875.1</ele>
    <time>2026-06-23T04:48:57Z</time>
   </trkpt>
   <trkpt lat="-3.0766920" lon="37.3543340">
    <ele>5875.1</ele>
    <time>2026-06-23T04:48:58Z</time>
   </trkpt>
   <trkpt lat="-3.0766920" lon="37.3543330">
    <ele>5875.1</ele>
    <time>2026-06-23T04:48:59Z</time>
   </trkpt>
   <trkpt lat="-3.0766920" lon="37.3543340">
    <ele>5875.1</ele>
    <time>2026-06-23T04:49:00Z</time>
   </trkpt>
   <trkpt lat="-3.0766930" lon="37.3543340">
    <ele>5875.1</ele>
    <time>2026-06-23T04:49:01Z</time>
   </trkpt>
   <trkpt lat="-3.0766920" lon="37.3543330">
    <ele>5875.1</ele>
    <time>2026-06-23T04:49:02Z</time>
   </trkpt>
   <trkpt lat="-3.0766930" lon="37.3543320">
    <ele>5875.1</ele>
    <time>2026-06-23T04:49:03Z</time>
   </trkpt>
   <trkpt lat="-3.0766930" lon="37.3543320">
    <ele>5875.1</ele>
    <time>2026-06-23T04:49:04Z</time>
   </trkpt>
   <trkpt lat="-3.0766930" lon="37.3543320">
    <ele>5875.1</ele>
    <time>2026-06-23T04:49:05Z</time>
   </trkpt>
   <trkpt lat="-3.0766930" lon="37.3543320">
    <ele>5875.1</ele>
    <time>2026-06-23T04:49:06Z</time>
   </trkpt>
   <trkpt lat="-3.0766930" lon="37.3543320">
    <ele>5875.1</ele>
    <time>2026-06-23T04:49:07Z</time>
   </trkpt>
   <trkpt lat="-3.0766920" lon="37.3543310">
    <ele>5875.1</ele>
    <time>2026-06-23T04:49:08Z</time>
   </trkpt>
   <trkpt lat="-3.0766920" lon="37.3543310">
    <ele>5875.1</ele>
    <time>2026-06-23T04:49:09Z</time>
   </trkpt>
   <trkpt lat="-3.0766890" lon="37.3543300">
    <ele>5875.1</ele>
    <time>2026-06-23T04:49:10Z</time>
   </trkpt>
   <trkpt lat="-3.0766900" lon="37.3543320">
    <ele>5875.1</ele>
    <time>2026-06-23T04:49:11Z</time>
   </trkpt>
   <trkpt lat="-3.0766900" lon="37.3543320">
    <ele>5875.1</ele>
    <time>2026-06-23T04:49:12Z</time>
   </trkpt>
   <trkpt lat="-3.0766910" lon="37.3543320">
    <ele>5875.1</ele>
    <time>2026-06-23T04:49:13Z</time>
   </trkpt>
   <trkpt lat="-3.0766920" lon="37.3543340">
    <ele>5875.1</ele>
    <time>2026-06-23T04:49:14Z</time>
   </trkpt>
   <trkpt lat="-3.0766930" lon="37.3543330">
    <ele>5875.1</ele>
    <time>2026-06-23T04:49:15Z</time>
   </trkpt>
   <trkpt lat="-3.0766930" lon="37.3543320">
    <ele>5875.1</ele>
    <time>2026-06-23T04:49:16Z</time>
   </trkpt>
   <trkpt lat="-3.0766930" lon="37.3543320">
    <ele>5875.1</ele>
    <time>2026-06-23T04:49:17Z</time>
   </trkpt>
   <trkpt lat="-3.0766930" lon="37.3543320">
    <ele>5875.1</ele>
    <time>2026-06-23T04:49:18Z</time>
   </trkpt>
   <trkpt lat="-3.0766930" lon="37.3543320">
    <ele>5875.1</ele>
    <time>2026-06-23T04:49:19Z</time>
   </trkpt>
   <trkpt lat="-3.0766930" lon="37.3543320">
    <ele>5875.1</ele>
    <time>2026-06-23T04:49:20Z</time>
   </trkpt>
   <trkpt lat="-3.0766930" lon="37.3543320">
    <ele>5875.1</ele>
    <time>2026-06-23T04:49:21Z</time>
   </trkpt>
   <trkpt lat="-3.0766930" lon="37.3543320">
    <ele>5875.1</ele>
    <time>2026-06-23T04:49:22Z</time>
   </trkpt>
   <trkpt lat="-3.0766940" lon="37.3543310">
    <ele>5875.1</ele>
    <time>2026-06-23T04:49:23Z</time>
   </trkpt>
   <trkpt lat="-3.0766940" lon="37.3543310">
    <ele>5875.1</ele>
    <time>2026-06-23T04:49:24Z</time>
   </trkpt>
   <trkpt lat="-3.0766940" lon="37.3543310">
    <ele>5875.1</ele>
    <time>2026-06-23T04:49:25Z</time>
   </trkpt>
   <trkpt lat="-3.0766930" lon="37.3543310">
    <ele>5875.1</ele>
    <time>2026-06-23T04:49:26Z</time>
   </trkpt>
   <trkpt lat="-3.0766940" lon="37.3543310">
    <ele>5875.1</ele>
    <time>2026-06-23T04:49:27Z</time>
   </trkpt>
   <trkpt lat="-3.0766940" lon="37.3543310">
    <ele>5875.1</ele>
    <time>2026-06-23T04:49:28Z</time>
   </trkpt>
   <trkpt lat="-3.0766910" lon="37.3543280">
    <ele>5875.1</ele>
    <time>2026-06-23T04:49:29Z</time>
   </trkpt>
   <trkpt lat="-3.0766910" lon="37.3543280">
    <ele>5875.1</ele>
    <time>2026-06-23T04:49:30Z</time>
   </trkpt>
   <trkpt lat="-3.0766910" lon="37.3543290">
    <ele>5875.1</ele>
    <time>2026-06-23T04:49:31Z</time>
   </trkpt>
   <trkpt lat="-3.0766900" lon="37.3543290">
    <ele>5875.1</ele>
    <time>2026-06-23T04:49:32Z</time>
   </trkpt>
   <trkpt lat="-3.0766900" lon="37.3543290">
    <ele>5875.1</ele>
    <time>2026-06-23T04:49:33Z</time>
   </trkpt>
   <trkpt lat="-3.0766910" lon="37.3543290">
    <ele>5875.1</ele>
    <time>2026-06-23T04:49:34Z</time>
   </trkpt>
   <trkpt lat="-3.0766920" lon="37.3543270">
    <ele>5875.1</ele>
    <time>2026-06-23T04:49:35Z</time>
   </trkpt>
   <trkpt lat="-3.0766920" lon="37.3543260">
    <ele>5875.1</ele>
    <time>2026-06-23T04:49:36Z</time>
   </trkpt>
   <trkpt lat="-3.0766890" lon="37.3543260">
    <ele>5875.1</ele>
    <time>2026-06-23T04:49:37Z</time>
   </trkpt>
   <trkpt lat="-3.0766910" lon="37.3543260">
    <ele>5875.2</ele>
    <time>2026-06-23T04:49:38Z</time>
   </trkpt>
   <trkpt lat="-3.0766910" lon="37.3543260">
    <ele>5875.2</ele>
    <time>2026-06-23T04:49:39Z</time>
   </trkpt>
   <trkpt lat="-3.0766920" lon="37.3543260">
    <ele>5875.2</ele>
    <time>2026-06-23T04:49:40Z</time>
   </trkpt>
   <trkpt lat="-3.0766920" lon="37.3543260">
    <ele>5875.2</ele>
    <time>2026-06-23T04:49:41Z</time>
   </trkpt>
   <trkpt lat="-3.0766920" lon="37.3543250">
    <ele>5875.2</ele>
    <time>2026-06-23T04:49:42Z</time>
   </trkpt>
   <trkpt lat="-3.0766900" lon="37.3543230">
    <ele>5875.2</ele>
    <time>2026-06-23T04:49:43Z</time>
   </trkpt>
   <trkpt lat="-3.0766860" lon="37.3543190">
    <ele>5875.2</ele>
    <time>2026-06-23T04:49:44Z</time>
   </trkpt>
   <trkpt lat="-3.0766830" lon="37.3543170">
    <ele>5875.2</ele>
    <time>2026-06-23T04:49:45Z</time>
   </trkpt>
   <trkpt lat="-3.0766810" lon="37.3543160">
    <ele>5875.2</ele>
    <time>2026-06-23T04:49:46Z</time>
   </trkpt>
   <trkpt lat="-3.0766770" lon="37.3543100">
    <ele>5875.2</ele>
    <time>2026-06-23T04:49:47Z</time>
   </trkpt>
   <trkpt lat="-3.0766750" lon="37.3543060">
    <ele>5875.2</ele>
    <time>2026-06-23T04:49:48Z</time>
   </trkpt>
   <trkpt lat="-3.0766710" lon="37.3543020">
    <ele>5875.2</ele>
    <time>2026-06-23T04:49:49Z</time>
   </trkpt>
   <trkpt lat="-3.0766640" lon="37.3542950">
    <ele>5875.2</ele>
    <time>2026-06-23T04:49:50Z</time>
   </trkpt>
   <trkpt lat="-3.0766640" lon="37.3542930">
    <ele>5875.2</ele>
    <time>2026-06-23T04:49:51Z</time>
   </trkpt>
   <trkpt lat="-3.0766600" lon="37.3542920">
    <ele>5875.2</ele>
    <time>2026-06-23T04:49:52Z</time>
   </trkpt>
   <trkpt lat="-3.0766530" lon="37.3542880">
    <ele>5875.3</ele>
    <time>2026-06-23T04:49:53Z</time>
   </trkpt>
   <trkpt lat="-3.0766470" lon="37.3542850">
    <ele>5875.3</ele>
    <time>2026-06-23T04:49:54Z</time>
   </trkpt>
   <trkpt lat="-3.0766420" lon="37.3542810">
    <ele>5875.3</ele>
    <time>2026-06-23T04:49:55Z</time>
   </trkpt>
   <trkpt lat="-3.0766420" lon="37.3542770">
    <ele>5875.3</ele>
    <time>2026-06-23T04:49:56Z</time>
   </trkpt>
   <trkpt lat="-3.0766440" lon="37.3542700">
    <ele>5875.3</ele>
    <time>2026-06-23T04:49:57Z</time>
   </trkpt>
   <trkpt lat="-3.0766430" lon="37.3542650">
    <ele>5875.4</ele>
    <time>2026-06-23T04:49:58Z</time>
   </trkpt>
   <trkpt lat="-3.0766390" lon="37.3542640">
    <ele>5875.4</ele>
    <time>2026-06-23T04:49:59Z</time>
   </trkpt>
   <trkpt lat="-3.0766340" lon="37.3542610">
    <ele>5875.4</ele>
    <time>2026-06-23T04:50:00Z</time>
   </trkpt>
   <trkpt lat="-3.0766300" lon="37.3542560">
    <ele>5875.4</ele>
    <time>2026-06-23T04:50:01Z</time>
   </trkpt>
   <trkpt lat="-3.0766280" lon="37.3542530">
    <ele>5875.4</ele>
    <time>2026-06-23T04:50:02Z</time>
   </trkpt>
   <trkpt lat="-3.0766230" lon="37.3542490">
    <ele>5875.4</ele>
    <time>2026-06-23T04:50:03Z</time>
   </trkpt>
   <trkpt lat="-3.0766220" lon="37.3542430">
    <ele>5875.5</ele>
    <time>2026-06-23T04:50:04Z</time>
   </trkpt>
   <trkpt lat="-3.0766190" lon="37.3542400">
    <ele>5875.5</ele>
    <time>2026-06-23T04:50:05Z</time>
   </trkpt>
   <trkpt lat="-3.0766200" lon="37.3542390">
    <ele>5875.5</ele>
    <time>2026-06-23T04:50:06Z</time>
   </trkpt>
   <trkpt lat="-3.0766200" lon="37.3542370">
    <ele>5875.5</ele>
    <time>2026-06-23T04:50:07Z</time>
   </trkpt>
   <trkpt lat="-3.0766190" lon="37.3542340">
    <ele>5875.5</ele>
    <time>2026-06-23T04:50:08Z</time>
   </trkpt>
   <trkpt lat="-3.0766150" lon="37.3542310">
    <ele>5875.5</ele>
    <time>2026-06-23T04:50:09Z</time>
   </trkpt>
   <trkpt lat="-3.0766130" lon="37.3542260">
    <ele>5875.5</ele>
    <time>2026-06-23T04:50:10Z</time>
   </trkpt>
   <trkpt lat="-3.0766110" lon="37.3542250">
    <ele>5875.5</ele>
    <time>2026-06-23T04:50:11Z</time>
   </trkpt>
   <trkpt lat="-3.0766090" lon="37.3542230">
    <ele>5875.5</ele>
    <time>2026-06-23T04:50:12Z</time>
   </trkpt>
   <trkpt lat="-3.0766080" lon="37.3542210">
    <ele>5875.6</ele>
    <time>2026-06-23T04:50:13Z</time>
   </trkpt>
   <trkpt lat="-3.0766070" lon="37.3542200">
    <ele>5875.6</ele>
    <time>2026-06-23T04:50:14Z</time>
   </trkpt>
   <trkpt lat="-3.0766050" lon="37.3542210">
    <ele>5875.6</ele>
    <time>2026-06-23T04:50:15Z</time>
   </trkpt>
   <trkpt lat="-3.0766010" lon="37.3542170">
    <ele>5875.6</ele>
    <time>2026-06-23T04:50:16Z</time>
   </trkpt>
   <trkpt lat="-3.0765980" lon="37.3542160">
    <ele>5875.6</ele>
    <time>2026-06-23T04:50:17Z</time>
   </trkpt>
   <trkpt lat="-3.0765960" lon="37.3542140">
    <ele>5875.6</ele>
    <time>2026-06-23T04:50:18Z</time>
   </trkpt>
   <trkpt lat="-3.0765900" lon="37.3542100">
    <ele>5875.6</ele>
    <time>2026-06-23T04:50:19Z</time>
   </trkpt>
   <trkpt lat="-3.0765870" lon="37.3542060">
    <ele>5875.7</ele>
    <time>2026-06-23T04:50:20Z</time>
   </trkpt>
   <trkpt lat="-3.0765840" lon="37.3542010">
    <ele>5875.7</ele>
    <time>2026-06-23T04:50:21Z</time>
   </trkpt>
   <trkpt lat="-3.0765820" lon="37.3541980">
    <ele>5875.7</ele>
    <time>2026-06-23T04:50:22Z</time>
   </trkpt>
   <trkpt lat="-3.0765840" lon="37.3542000">
    <ele>5875.7</ele>
    <time>2026-06-23T04:50:23Z</time>
   </trkpt>
   <trkpt lat="-3.0765840" lon="37.3541990">
    <ele>5875.7</ele>
    <time>2026-06-23T04:50:24Z</time>
   </trkpt>
   <trkpt lat="-3.0765840" lon="37.3542010">
    <ele>5875.7</ele>
    <time>2026-06-23T04:50:25Z</time>
   </trkpt>
   <trkpt lat="-3.0765840" lon="37.3542010">
    <ele>5875.7</ele>
    <time>2026-06-23T04:50:26Z</time>
   </trkpt>
   <trkpt lat="-3.0765840" lon="37.3542010">
    <ele>5875.7</ele>
    <time>2026-06-23T04:50:27Z</time>
   </trkpt>
   <trkpt lat="-3.0765860" lon="37.3542030">
    <ele>5875.7</ele>
    <time>2026-06-23T04:50:28Z</time>
   </trkpt>
   <trkpt lat="-3.0765850" lon="37.3542030">
    <ele>5875.7</ele>
    <time>2026-06-23T04:50:29Z</time>
   </trkpt>
   <trkpt lat="-3.0765850" lon="37.3542030">
    <ele>5875.7</ele>
    <time>2026-06-23T04:50:30Z</time>
   </trkpt>
   <trkpt lat="-3.0765810" lon="37.3541980">
    <ele>5875.8</ele>
    <time>2026-06-23T04:50:31Z</time>
   </trkpt>
   <trkpt lat="-3.0765820" lon="37.3541950">
    <ele>5875.8</ele>
    <time>2026-06-23T04:50:32Z</time>
   </trkpt>
   <trkpt lat="-3.0765800" lon="37.3541900">
    <ele>5875.8</ele>
    <time>2026-06-23T04:50:33Z</time>
   </trkpt>
   <trkpt lat="-3.0765810" lon="37.3541860">
    <ele>5875.8</ele>
    <time>2026-06-23T04:50:34Z</time>
   </trkpt>
   <trkpt lat="-3.0765780" lon="37.3541810">
    <ele>5875.8</ele>
    <time>2026-06-23T04:50:35Z</time>
   </trkpt>
   <trkpt lat="-3.0765770" lon="37.3541780">
    <ele>5875.8</ele>
    <time>2026-06-23T04:50:36Z</time>
   </trkpt>
   <trkpt lat="-3.0765760" lon="37.3541750">
    <ele>5875.9</ele>
    <time>2026-06-23T04:50:37Z</time>
   </trkpt>
   <trkpt lat="-3.0765770" lon="37.3541760">
    <ele>5875.9</ele>
    <time>2026-06-23T04:50:38Z</time>
   </trkpt>
   <trkpt lat="-3.0765770" lon="37.3541760">
    <ele>5875.9</ele>
    <time>2026-06-23T04:50:39Z</time>
   </trkpt>
   <trkpt lat="-3.0765760" lon="37.3541750">
    <ele>5875.9</ele>
    <time>2026-06-23T04:50:40Z</time>
   </trkpt>
   <trkpt lat="-3.0765760" lon="37.3541750">
    <ele>5875.9</ele>
    <time>2026-06-23T04:50:41Z</time>
   </trkpt>
   <trkpt lat="-3.0765760" lon="37.3541770">
    <ele>5875.9</ele>
    <time>2026-06-23T04:50:42Z</time>
   </trkpt>
   <trkpt lat="-3.0765740" lon="37.3541760">
    <ele>5875.9</ele>
    <time>2026-06-23T04:50:43Z</time>
   </trkpt>
   <trkpt lat="-3.0765730" lon="37.3541780">
    <ele>5875.9</ele>
    <time>2026-06-23T04:50:44Z</time>
   </trkpt>
   <trkpt lat="-3.0765700" lon="37.3541750">
    <ele>5875.9</ele>
    <time>2026-06-23T04:50:45Z</time>
   </trkpt>
   <trkpt lat="-3.0765690" lon="37.3541720">
    <ele>5875.9</ele>
    <time>2026-06-23T04:50:46Z</time>
   </trkpt>
   <trkpt lat="-3.0765650" lon="37.3541680">
    <ele>5876.0</ele>
    <time>2026-06-23T04:50:47Z</time>
   </trkpt>
   <trkpt lat="-3.0765630" lon="37.3541640">
    <ele>5876.0</ele>
    <time>2026-06-23T04:50:48Z</time>
   </trkpt>
   <trkpt lat="-3.0765590" lon="37.3541610">
    <ele>5876.0</ele>
    <time>2026-06-23T04:50:49Z</time>
   </trkpt>
   <trkpt lat="-3.0765570" lon="37.3541570">
    <ele>5876.0</ele>
    <time>2026-06-23T04:50:50Z</time>
   </trkpt>
   <trkpt lat="-3.0765520" lon="37.3541540">
    <ele>5876.1</ele>
    <time>2026-06-23T04:50:51Z</time>
   </trkpt>
   <trkpt lat="-3.0765470" lon="37.3541500">
    <ele>5876.1</ele>
    <time>2026-06-23T04:50:52Z</time>
   </trkpt>
   <trkpt lat="-3.0765420" lon="37.3541480">
    <ele>5876.1</ele>
    <time>2026-06-23T04:50:53Z</time>
   </trkpt>
   <trkpt lat="-3.0765370" lon="37.3541460">
    <ele>5876.2</ele>
    <time>2026-06-23T04:50:54Z</time>
   </trkpt>
   <trkpt lat="-3.0765320" lon="37.3541440">
    <ele>5876.2</ele>
    <time>2026-06-23T04:50:55Z</time>
   </trkpt>
   <trkpt lat="-3.0765280" lon="37.3541430">
    <ele>5876.2</ele>
    <time>2026-06-23T04:50:56Z</time>
   </trkpt>
   <trkpt lat="-3.0765220" lon="37.3541420">
    <ele>5876.2</ele>
    <time>2026-06-23T04:50:57Z</time>
   </trkpt>
   <trkpt lat="-3.0765170" lon="37.3541410">
    <ele>5876.3</ele>
    <time>2026-06-23T04:50:58Z</time>
   </trkpt>
   <trkpt lat="-3.0765140" lon="37.3541400">
    <ele>5876.3</ele>
    <time>2026-06-23T04:50:59Z</time>
   </trkpt>
   <trkpt lat="-3.0765150" lon="37.3541400">
    <ele>5876.3</ele>
    <time>2026-06-23T04:51:00Z</time>
   </trkpt>
   <trkpt lat="-3.0765150" lon="37.3541400">
    <ele>5876.3</ele>
    <time>2026-06-23T04:51:01Z</time>
   </trkpt>
   <trkpt lat="-3.0765130" lon="37.3541390">
    <ele>5876.3</ele>
    <time>2026-06-23T04:51:02Z</time>
   </trkpt>
   <trkpt lat="-3.0765110" lon="37.3541370">
    <ele>5876.3</ele>
    <time>2026-06-23T04:51:03Z</time>
   </trkpt>
   <trkpt lat="-3.0765110" lon="37.3541380">
    <ele>5876.3</ele>
    <time>2026-06-23T04:51:04Z</time>
   </trkpt>
   <trkpt lat="-3.0765120" lon="37.3541380">
    <ele>5876.3</ele>
    <time>2026-06-23T04:51:05Z</time>
   </trkpt>
   <trkpt lat="-3.0765110" lon="37.3541370">
    <ele>5876.3</ele>
    <time>2026-06-23T04:51:06Z</time>
   </trkpt>
   <trkpt lat="-3.0765100" lon="37.3541360">
    <ele>5876.4</ele>
    <time>2026-06-23T04:51:07Z</time>
   </trkpt>
   <trkpt lat="-3.0765090" lon="37.3541340">
    <ele>5876.4</ele>
    <time>2026-06-23T04:51:08Z</time>
   </trkpt>
   <trkpt lat="-3.0765080" lon="37.3541330">
    <ele>5876.4</ele>
    <time>2026-06-23T04:51:09Z</time>
   </trkpt>
   <trkpt lat="-3.0765010" lon="37.3541250">
    <ele>5876.4</ele>
    <time>2026-06-23T04:51:10Z</time>
   </trkpt>
   <trkpt lat="-3.0764990" lon="37.3541230">
    <ele>5876.5</ele>
    <time>2026-06-23T04:51:11Z</time>
   </trkpt>
   <trkpt lat="-3.0765010" lon="37.3541220">
    <ele>5876.5</ele>
    <time>2026-06-23T04:51:12Z</time>
   </trkpt>
   <trkpt lat="-3.0764980" lon="37.3541170">
    <ele>5876.5</ele>
    <time>2026-06-23T04:51:13Z</time>
   </trkpt>
   <trkpt lat="-3.0764940" lon="37.3541160">
    <ele>5876.5</ele>
    <time>2026-06-23T04:51:14Z</time>
   </trkpt>
   <trkpt lat="-3.0764910" lon="37.3541120">
    <ele>5876.6</ele>
    <time>2026-06-23T04:51:15Z</time>
   </trkpt>
   <trkpt lat="-3.0764820" lon="37.3541070">
    <ele>5876.6</ele>
    <time>2026-06-23T04:51:16Z</time>
   </trkpt>
   <trkpt lat="-3.0764800" lon="37.3541050">
    <ele>5876.6</ele>
    <time>2026-06-23T04:51:17Z</time>
   </trkpt>
   <trkpt lat="-3.0764760" lon="37.3541030">
    <ele>5876.7</ele>
    <time>2026-06-23T04:51:18Z</time>
   </trkpt>
   <trkpt lat="-3.0764710" lon="37.3540990">
    <ele>5876.7</ele>
    <time>2026-06-23T04:51:19Z</time>
   </trkpt>
   <trkpt lat="-3.0764660" lon="37.3540980">
    <ele>5876.7</ele>
    <time>2026-06-23T04:51:20Z</time>
   </trkpt>
   <trkpt lat="-3.0764630" lon="37.3540930">
    <ele>5876.8</ele>
    <time>2026-06-23T04:51:21Z</time>
   </trkpt>
   <trkpt lat="-3.0764580" lon="37.3540890">
    <ele>5876.8</ele>
    <time>2026-06-23T04:51:22Z</time>
   </trkpt>
   <trkpt lat="-3.0764590" lon="37.3540890">
    <ele>5876.8</ele>
    <time>2026-06-23T04:51:23Z</time>
   </trkpt>
   <trkpt lat="-3.0764540" lon="37.3540880">
    <ele>5876.9</ele>
    <time>2026-06-23T04:51:24Z</time>
   </trkpt>
   <trkpt lat="-3.0764560" lon="37.3540880">
    <ele>5876.9</ele>
    <time>2026-06-23T04:51:25Z</time>
   </trkpt>
   <trkpt lat="-3.0764560" lon="37.3540890">
    <ele>5876.9</ele>
    <time>2026-06-23T04:51:26Z</time>
   </trkpt>
   <trkpt lat="-3.0764560" lon="37.3540880">
    <ele>5876.9</ele>
    <time>2026-06-23T04:51:27Z</time>
   </trkpt>
   <trkpt lat="-3.0764570" lon="37.3540900">
    <ele>5876.9</ele>
    <time>2026-06-23T04:51:28Z</time>
   </trkpt>
   <trkpt lat="-3.0764550" lon="37.3540890">
    <ele>5876.9</ele>
    <time>2026-06-23T04:51:29Z</time>
   </trkpt>
   <trkpt lat="-3.0764540" lon="37.3540880">
    <ele>5876.9</ele>
    <time>2026-06-23T04:51:30Z</time>
   </trkpt>
   <trkpt lat="-3.0764540" lon="37.3540880">
    <ele>5876.9</ele>
    <time>2026-06-23T04:51:31Z</time>
   </trkpt>
   <trkpt lat="-3.0764510" lon="37.3540880">
    <ele>5876.9</ele>
    <time>2026-06-23T04:51:32Z</time>
   </trkpt>
   <trkpt lat="-3.0764480" lon="37.3540880">
    <ele>5877.0</ele>
    <time>2026-06-23T04:51:33Z</time>
   </trkpt>
   <trkpt lat="-3.0764450" lon="37.3540850">
    <ele>5877.0</ele>
    <time>2026-06-23T04:51:34Z</time>
   </trkpt>
   <trkpt lat="-3.0764440" lon="37.3540830">
    <ele>5877.0</ele>
    <time>2026-06-23T04:51:35Z</time>
   </trkpt>
   <trkpt lat="-3.0764420" lon="37.3540780">
    <ele>5877.0</ele>
    <time>2026-06-23T04:51:36Z</time>
   </trkpt>
   <trkpt lat="-3.0764370" lon="37.3540740">
    <ele>5877.1</ele>
    <time>2026-06-23T04:51:37Z</time>
   </trkpt>
   <trkpt lat="-3.0764370" lon="37.3540720">
    <ele>5877.1</ele>
    <time>2026-06-23T04:51:38Z</time>
   </trkpt>
   <trkpt lat="-3.0764330" lon="37.3540670">
    <ele>5877.1</ele>
    <time>2026-06-23T04:51:39Z</time>
   </trkpt>
   <trkpt lat="-3.0764290" lon="37.3540620">
    <ele>5877.2</ele>
    <time>2026-06-23T04:51:40Z</time>
   </trkpt>
   <trkpt lat="-3.0764260" lon="37.3540590">
    <ele>5877.2</ele>
    <time>2026-06-23T04:51:41Z</time>
   </trkpt>
   <trkpt lat="-3.0764210" lon="37.3540570">
    <ele>5877.2</ele>
    <time>2026-06-23T04:51:42Z</time>
   </trkpt>
   <trkpt lat="-3.0764170" lon="37.3540560">
    <ele>5877.3</ele>
    <time>2026-06-23T04:51:43Z</time>
   </trkpt>
   <trkpt lat="-3.0764190" lon="37.3540550">
    <ele>5877.3</ele>
    <time>2026-06-23T04:51:44Z</time>
   </trkpt>
   <trkpt lat="-3.0764150" lon="37.3540470">
    <ele>5877.3</ele>
    <time>2026-06-23T04:51:45Z</time>
   </trkpt>
   <trkpt lat="-3.0764150" lon="37.3540450">
    <ele>5877.3</ele>
    <time>2026-06-23T04:51:46Z</time>
   </trkpt>
   <trkpt lat="-3.0764130" lon="37.3540430">
    <ele>5877.4</ele>
    <time>2026-06-23T04:51:47Z</time>
   </trkpt>
   <trkpt lat="-3.0764120" lon="37.3540420">
    <ele>5877.4</ele>
    <time>2026-06-23T04:51:48Z</time>
   </trkpt>
   <trkpt lat="-3.0764120" lon="37.3540430">
    <ele>5877.4</ele>
    <time>2026-06-23T04:51:49Z</time>
   </trkpt>
   <trkpt lat="-3.0764090" lon="37.3540430">
    <ele>5877.4</ele>
    <time>2026-06-23T04:51:50Z</time>
   </trkpt>
   <trkpt lat="-3.0764100" lon="37.3540420">
    <ele>5877.4</ele>
    <time>2026-06-23T04:51:51Z</time>
   </trkpt>
   <trkpt lat="-3.0764080" lon="37.3540420">
    <ele>5877.4</ele>
    <time>2026-06-23T04:51:52Z</time>
   </trkpt>
   <trkpt lat="-3.0764090" lon="37.3540420">
    <ele>5877.4</ele>
    <time>2026-06-23T04:51:53Z</time>
   </trkpt>
   <trkpt lat="-3.0764090" lon="37.3540420">
    <ele>5877.4</ele>
    <time>2026-06-23T04:51:54Z</time>
   </trkpt>
   <trkpt lat="-3.0764090" lon="37.3540420">
    <ele>5877.4</ele>
    <time>2026-06-23T04:51:55Z</time>
   </trkpt>
   <trkpt lat="-3.0764090" lon="37.3540420">
    <ele>5877.4</ele>
    <time>2026-06-23T04:51:56Z</time>
   </trkpt>
   <trkpt lat="-3.0764090" lon="37.3540420">
    <ele>5877.4</ele>
    <time>2026-06-23T04:51:57Z</time>
   </trkpt>
   <trkpt lat="-3.0764090" lon="37.3540420">
    <ele>5877.4</ele>
    <time>2026-06-23T04:51:58Z</time>
   </trkpt>
   <trkpt lat="-3.0764090" lon="37.3540420">
    <ele>5877.4</ele>
    <time>2026-06-23T04:51:59Z</time>
   </trkpt>
   <trkpt lat="-3.0764080" lon="37.3540430">
    <ele>5877.4</ele>
    <time>2026-06-23T04:52:00Z</time>
   </trkpt>
   <trkpt lat="-3.0764080" lon="37.3540430">
    <ele>5877.4</ele>
    <time>2026-06-23T04:52:01Z</time>
   </trkpt>
   <trkpt lat="-3.0764070" lon="37.3540430">
    <ele>5877.4</ele>
    <time>2026-06-23T04:52:02Z</time>
   </trkpt>
   <trkpt lat="-3.0764080" lon="37.3540430">
    <ele>5877.4</ele>
    <time>2026-06-23T04:52:03Z</time>
   </trkpt>
   <trkpt lat="-3.0764070" lon="37.3540430">
    <ele>5877.4</ele>
    <time>2026-06-23T04:52:04Z</time>
   </trkpt>
   <trkpt lat="-3.0764080" lon="37.3540420">
    <ele>5877.5</ele>
    <time>2026-06-23T04:52:05Z</time>
   </trkpt>
   <trkpt lat="-3.0764080" lon="37.3540430">
    <ele>5877.5</ele>
    <time>2026-06-23T04:52:06Z</time>
   </trkpt>
   <trkpt lat="-3.0764080" lon="37.3540420">
    <ele>5877.5</ele>
    <time>2026-06-23T04:52:07Z</time>
   </trkpt>
   <trkpt lat="-3.0764080" lon="37.3540420">
    <ele>5877.5</ele>
    <time>2026-06-23T04:52:08Z</time>
   </trkpt>
   <trkpt lat="-3.0764090" lon="37.3540410">
    <ele>5877.5</ele>
    <time>2026-06-23T04:52:09Z</time>
   </trkpt>
   <trkpt lat="-3.0764090" lon="37.3540410">
    <ele>5877.5</ele>
    <time>2026-06-23T04:52:10Z</time>
   </trkpt>
   <trkpt lat="-3.0764090" lon="37.3540410">
    <ele>5877.5</ele>
    <time>2026-06-23T04:52:11Z</time>
   </trkpt>
   <trkpt lat="-3.0764100" lon="37.3540410">
    <ele>5877.5</ele>
    <time>2026-06-23T04:52:12Z</time>
   </trkpt>
   <trkpt lat="-3.0764100" lon="37.3540420">
    <ele>5877.5</ele>
    <time>2026-06-23T04:52:13Z</time>
   </trkpt>
   <trkpt lat="-3.0764130" lon="37.3540430">
    <ele>5877.5</ele>
    <time>2026-06-23T04:52:14Z</time>
   </trkpt>
   <trkpt lat="-3.0764140" lon="37.3540440">
    <ele>5877.5</ele>
    <time>2026-06-23T04:52:15Z</time>
   </trkpt>
   <trkpt lat="-3.0764150" lon="37.3540430">
    <ele>5877.5</ele>
    <time>2026-06-23T04:52:16Z</time>
   </trkpt>
   <trkpt lat="-3.0764140" lon="37.3540440">
    <ele>5877.5</ele>
    <time>2026-06-23T04:52:17Z</time>
   </trkpt>
   <trkpt lat="-3.0764160" lon="37.3540440">
    <ele>5877.5</ele>
    <time>2026-06-23T04:52:18Z</time>
   </trkpt>
   <trkpt lat="-3.0764160" lon="37.3540440">
    <ele>5877.5</ele>
    <time>2026-06-23T04:52:19Z</time>
   </trkpt>
   <trkpt lat="-3.0764150" lon="37.3540440">
    <ele>5877.6</ele>
    <time>2026-06-23T04:52:20Z</time>
   </trkpt>
   <trkpt lat="-3.0764150" lon="37.3540440">
    <ele>5877.6</ele>
    <time>2026-06-23T04:52:21Z</time>
   </trkpt>
   <trkpt lat="-3.0764150" lon="37.3540450">
    <ele>5877.6</ele>
    <time>2026-06-23T04:52:22Z</time>
   </trkpt>
   <trkpt lat="-3.0764160" lon="37.3540450">
    <ele>5877.6</ele>
    <time>2026-06-23T04:52:23Z</time>
   </trkpt>
   <trkpt lat="-3.0764170" lon="37.3540450">
    <ele>5877.6</ele>
    <time>2026-06-23T04:52:24Z</time>
   </trkpt>
   <trkpt lat="-3.0764160" lon="37.3540480">
    <ele>5877.6</ele>
    <time>2026-06-23T04:52:25Z</time>
   </trkpt>
   <trkpt lat="-3.0764170" lon="37.3540490">
    <ele>5877.6</ele>
    <time>2026-06-23T04:52:26Z</time>
   </trkpt>
   <trkpt lat="-3.0764190" lon="37.3540520">
    <ele>5877.6</ele>
    <time>2026-06-23T04:52:27Z</time>
   </trkpt>
   <trkpt lat="-3.0764180" lon="37.3540540">
    <ele>5877.6</ele>
    <time>2026-06-23T04:52:28Z</time>
   </trkpt>
   <trkpt lat="-3.0764190" lon="37.3540540">
    <ele>5877.6</ele>
    <time>2026-06-23T04:52:29Z</time>
   </trkpt>
   <trkpt lat="-3.0764190" lon="37.3540530">
    <ele>5877.6</ele>
    <time>2026-06-23T04:52:30Z</time>
   </trkpt>
   <trkpt lat="-3.0764200" lon="37.3540540">
    <ele>5877.7</ele>
    <time>2026-06-23T04:52:31Z</time>
   </trkpt>
   <trkpt lat="-3.0764210" lon="37.3540550">
    <ele>5877.7</ele>
    <time>2026-06-23T04:52:32Z</time>
   </trkpt>
   <trkpt lat="-3.0764210" lon="37.3540560">
    <ele>5877.7</ele>
    <time>2026-06-23T04:52:33Z</time>
   </trkpt>
   <trkpt lat="-3.0764170" lon="37.3540590">
    <ele>5877.7</ele>
    <time>2026-06-23T04:52:34Z</time>
   </trkpt>
   <trkpt lat="-3.0764120" lon="37.3540600">
    <ele>5877.7</ele>
    <time>2026-06-23T04:52:35Z</time>
   </trkpt>
   <trkpt lat="-3.0764090" lon="37.3540670">
    <ele>5877.8</ele>
    <time>2026-06-23T04:52:36Z</time>
   </trkpt>
   <trkpt lat="-3.0764110" lon="37.3540720">
    <ele>5877.8</ele>
    <time>2026-06-23T04:52:37Z</time>
   </trkpt>
   <trkpt lat="-3.0764140" lon="37.3540740">
    <ele>5877.8</ele>
    <time>2026-06-23T04:52:38Z</time>
   </trkpt>
   <trkpt lat="-3.0764120" lon="37.3540730">
    <ele>5877.8</ele>
    <time>2026-06-23T04:52:39Z</time>
   </trkpt>
   <trkpt lat="-3.0764100" lon="37.3540720">
    <ele>5877.9</ele>
    <time>2026-06-23T04:52:40Z</time>
   </trkpt>
   <trkpt lat="-3.0764090" lon="37.3540690">
    <ele>5877.9</ele>
    <time>2026-06-23T04:52:41Z</time>
   </trkpt>
   <trkpt lat="-3.0764100" lon="37.3540680">
    <ele>5877.9</ele>
    <time>2026-06-23T04:52:42Z</time>
   </trkpt>
   <trkpt lat="-3.0764090" lon="37.3540670">
    <ele>5877.9</ele>
    <time>2026-06-23T04:52:43Z</time>
   </trkpt>
   <trkpt lat="-3.0764110" lon="37.3540680">
    <ele>5877.9</ele>
    <time>2026-06-23T04:52:44Z</time>
   </trkpt>
   <trkpt lat="-3.0764100" lon="37.3540670">
    <ele>5877.9</ele>
    <time>2026-06-23T04:52:45Z</time>
   </trkpt>
   <trkpt lat="-3.0764100" lon="37.3540670">
    <ele>5877.9</ele>
    <time>2026-06-23T04:52:46Z</time>
   </trkpt>
   <trkpt lat="-3.0764110" lon="37.3540670">
    <ele>5877.9</ele>
    <time>2026-06-23T04:52:47Z</time>
   </trkpt>
   <trkpt lat="-3.0764110" lon="37.3540670">
    <ele>5877.9</ele>
    <time>2026-06-23T04:52:48Z</time>
   </trkpt>
   <trkpt lat="-3.0764110" lon="37.3540670">
    <ele>5877.9</ele>
    <time>2026-06-23T04:52:49Z</time>
   </trkpt>
   <trkpt lat="-3.0764110" lon="37.3540670">
    <ele>5877.9</ele>
    <time>2026-06-23T04:52:50Z</time>
   </trkpt>
   <trkpt lat="-3.0764110" lon="37.3540670">
    <ele>5877.9</ele>
    <time>2026-06-23T04:52:51Z</time>
   </trkpt>
   <trkpt lat="-3.0764120" lon="37.3540670">
    <ele>5877.9</ele>
    <time>2026-06-23T04:52:52Z</time>
   </trkpt>
   <trkpt lat="-3.0764120" lon="37.3540660">
    <ele>5877.9</ele>
    <time>2026-06-23T04:52:53Z</time>
   </trkpt>
   <trkpt lat="-3.0764120" lon="37.3540660">
    <ele>5877.9</ele>
    <time>2026-06-23T04:52:54Z</time>
   </trkpt>
   <trkpt lat="-3.0764110" lon="37.3540660">
    <ele>5877.9</ele>
    <time>2026-06-23T04:52:55Z</time>
   </trkpt>
   <trkpt lat="-3.0764120" lon="37.3540660">
    <ele>5878.0</ele>
    <time>2026-06-23T04:52:56Z</time>
   </trkpt>
   <trkpt lat="-3.0764120" lon="37.3540650">
    <ele>5878.0</ele>
    <time>2026-06-23T04:52:57Z</time>
   </trkpt>
   <trkpt lat="-3.0764110" lon="37.3540650">
    <ele>5878.0</ele>
    <time>2026-06-23T04:52:58Z</time>
   </trkpt>
   <trkpt lat="-3.0764130" lon="37.3540650">
    <ele>5878.0</ele>
    <time>2026-06-23T04:52:59Z</time>
   </trkpt>
   <trkpt lat="-3.0764120" lon="37.3540650">
    <ele>5878.0</ele>
    <time>2026-06-23T04:53:00Z</time>
   </trkpt>
   <trkpt lat="-3.0764150" lon="37.3540640">
    <ele>5878.0</ele>
    <time>2026-06-23T04:53:01Z</time>
   </trkpt>
   <trkpt lat="-3.0764190" lon="37.3540630">
    <ele>5878.0</ele>
    <time>2026-06-23T04:53:02Z</time>
   </trkpt>
   <trkpt lat="-3.0764190" lon="37.3540640">
    <ele>5878.0</ele>
    <time>2026-06-23T04:53:03Z</time>
   </trkpt>
   <trkpt lat="-3.0764180" lon="37.3540660">
    <ele>5878.0</ele>
    <time>2026-06-23T04:53:04Z</time>
   </trkpt>
   <trkpt lat="-3.0764180" lon="37.3540660">
    <ele>5878.0</ele>
    <time>2026-06-23T04:53:05Z</time>
   </trkpt>
   <trkpt lat="-3.0764180" lon="37.3540660">
    <ele>5878.0</ele>
    <time>2026-06-23T04:53:06Z</time>
   </trkpt>
   <trkpt lat="-3.0764160" lon="37.3540650">
    <ele>5878.1</ele>
    <time>2026-06-23T04:53:07Z</time>
   </trkpt>
   <trkpt lat="-3.0764150" lon="37.3540630">
    <ele>5878.1</ele>
    <time>2026-06-23T04:53:08Z</time>
   </trkpt>
   <trkpt lat="-3.0764140" lon="37.3540630">
    <ele>5878.1</ele>
    <time>2026-06-23T04:53:09Z</time>
   </trkpt>
   <trkpt lat="-3.0764130" lon="37.3540650">
    <ele>5878.1</ele>
    <time>2026-06-23T04:53:10Z</time>
   </trkpt>
   <trkpt lat="-3.0764130" lon="37.3540650">
    <ele>5878.1</ele>
    <time>2026-06-23T04:53:11Z</time>
   </trkpt>
   <trkpt lat="-3.0764110" lon="37.3540670">
    <ele>5878.1</ele>
    <time>2026-06-23T04:53:12Z</time>
   </trkpt>
   <trkpt lat="-3.0764150" lon="37.3540710">
    <ele>5878.1</ele>
    <time>2026-06-23T04:53:13Z</time>
   </trkpt>
   <trkpt lat="-3.0764100" lon="37.3540730">
    <ele>5878.2</ele>
    <time>2026-06-23T04:53:14Z</time>
   </trkpt>
   <trkpt lat="-3.0763990" lon="37.3540750">
    <ele>5878.2</ele>
    <time>2026-06-23T04:53:15Z</time>
   </trkpt>
   <trkpt lat="-3.0764050" lon="37.3540730">
    <ele>5878.3</ele>
    <time>2026-06-23T04:53:16Z</time>
   </trkpt>
   <trkpt lat="-3.0764050" lon="37.3540740">
    <ele>5878.3</ele>
    <time>2026-06-23T04:53:17Z</time>
   </trkpt>
   <trkpt lat="-3.0764050" lon="37.3540750">
    <ele>5878.3</ele>
    <time>2026-06-23T04:53:18Z</time>
   </trkpt>
   <trkpt lat="-3.0764050" lon="37.3540740">
    <ele>5878.3</ele>
    <time>2026-06-23T04:53:19Z</time>
   </trkpt>
   <trkpt lat="-3.0764060" lon="37.3540710">
    <ele>5878.3</ele>
    <time>2026-06-23T04:53:20Z</time>
   </trkpt>
   <trkpt lat="-3.0764120" lon="37.3540690">
    <ele>5878.4</ele>
    <time>2026-06-23T04:53:21Z</time>
   </trkpt>
   <trkpt lat="-3.0763960" lon="37.3540690">
    <ele>5878.5</ele>
    <time>2026-06-23T04:53:22Z</time>
   </trkpt>
   <trkpt lat="-3.0764040" lon="37.3540700">
    <ele>5878.5</ele>
    <time>2026-06-23T04:53:23Z</time>
   </trkpt>
   <trkpt lat="-3.0763950" lon="37.3540680">
    <ele>5878.6</ele>
    <time>2026-06-23T04:53:24Z</time>
   </trkpt>
   <trkpt lat="-3.0763990" lon="37.3540690">
    <ele>5878.6</ele>
    <time>2026-06-23T04:53:25Z</time>
   </trkpt>
   <trkpt lat="-3.0764040" lon="37.3540690">
    <ele>5878.6</ele>
    <time>2026-06-23T04:53:26Z</time>
   </trkpt>
   <trkpt lat="-3.0763930" lon="37.3540740">
    <ele>5878.7</ele>
    <time>2026-06-23T04:53:27Z</time>
   </trkpt>
   <trkpt lat="-3.0763960" lon="37.3540680">
    <ele>5878.7</ele>
    <time>2026-06-23T04:53:28Z</time>
   </trkpt>
   <trkpt lat="-3.0763980" lon="37.3540690">
    <ele>5878.7</ele>
    <time>2026-06-23T04:53:29Z</time>
   </trkpt>
   <trkpt lat="-3.0763960" lon="37.3540690">
    <ele>5878.7</ele>
    <time>2026-06-23T04:53:30Z</time>
   </trkpt>
   <trkpt lat="-3.0763980" lon="37.3540710">
    <ele>5878.7</ele>
    <time>2026-06-23T04:53:31Z</time>
   </trkpt>
   <trkpt lat="-3.0764000" lon="37.3540730">
    <ele>5878.8</ele>
    <time>2026-06-23T04:53:32Z</time>
   </trkpt>
   <trkpt lat="-3.0764020" lon="37.3540730">
    <ele>5878.8</ele>
    <time>2026-06-23T04:53:33Z</time>
   </trkpt>
   <trkpt lat="-3.0764030" lon="37.3540730">
    <ele>5878.8</ele>
    <time>2026-06-23T04:53:34Z</time>
   </trkpt>
   <trkpt lat="-3.0764040" lon="37.3540740">
    <ele>5878.8</ele>
    <time>2026-06-23T04:53:35Z</time>
   </trkpt>
   <trkpt lat="-3.0764050" lon="37.3540740">
    <ele>5878.8</ele>
    <time>2026-06-23T04:53:36Z</time>
   </trkpt>
   <trkpt lat="-3.0764020" lon="37.3540750">
    <ele>5878.8</ele>
    <time>2026-06-23T04:53:37Z</time>
   </trkpt>
   <trkpt lat="-3.0764020" lon="37.3540740">
    <ele>5878.8</ele>
    <time>2026-06-23T04:53:38Z</time>
   </trkpt>
   <trkpt lat="-3.0764020" lon="37.3540730">
    <ele>5878.8</ele>
    <time>2026-06-23T04:53:39Z</time>
   </trkpt>
   <trkpt lat="-3.0764020" lon="37.3540720">
    <ele>5878.8</ele>
    <time>2026-06-23T04:53:40Z</time>
   </trkpt>
   <trkpt lat="-3.0764020" lon="37.3540720">
    <ele>5878.8</ele>
    <time>2026-06-23T04:53:41Z</time>
   </trkpt>
   <trkpt lat="-3.0764020" lon="37.3540730">
    <ele>5878.8</ele>
    <time>2026-06-23T04:53:42Z</time>
   </trkpt>
   <trkpt lat="-3.0764030" lon="37.3540730">
    <ele>5878.8</ele>
    <time>2026-06-23T04:53:43Z</time>
   </trkpt>
   <trkpt lat="-3.0764020" lon="37.3540740">
    <ele>5878.8</ele>
    <time>2026-06-23T04:53:44Z</time>
   </trkpt>
   <trkpt lat="-3.0764030" lon="37.3540750">
    <ele>5878.9</ele>
    <time>2026-06-23T04:53:45Z</time>
   </trkpt>
   <trkpt lat="-3.0764040" lon="37.3540750">
    <ele>5878.9</ele>
    <time>2026-06-23T04:53:46Z</time>
   </trkpt>
   <trkpt lat="-3.0764050" lon="37.3540750">
    <ele>5878.9</ele>
    <time>2026-06-23T04:53:47Z</time>
   </trkpt>
   <trkpt lat="-3.0764030" lon="37.3540760">
    <ele>5878.9</ele>
    <time>2026-06-23T04:53:48Z</time>
   </trkpt>
   <trkpt lat="-3.0764050" lon="37.3540760">
    <ele>5878.9</ele>
    <time>2026-06-23T04:53:49Z</time>
   </trkpt>
   <trkpt lat="-3.0764050" lon="37.3540770">
    <ele>5878.9</ele>
    <time>2026-06-23T04:53:50Z</time>
   </trkpt>
   <trkpt lat="-3.0764070" lon="37.3540770">
    <ele>5878.9</ele>
    <time>2026-06-23T04:53:51Z</time>
   </trkpt>
   <trkpt lat="-3.0764100" lon="37.3540760">
    <ele>5878.9</ele>
    <time>2026-06-23T04:53:52Z</time>
   </trkpt>
   <trkpt lat="-3.0764160" lon="37.3540760">
    <ele>5879.0</ele>
    <time>2026-06-23T04:53:53Z</time>
   </trkpt>
   <trkpt lat="-3.0764180" lon="37.3540750">
    <ele>5879.0</ele>
    <time>2026-06-23T04:53:54Z</time>
   </trkpt>
   <trkpt lat="-3.0764180" lon="37.3540760">
    <ele>5879.0</ele>
    <time>2026-06-23T04:53:55Z</time>
   </trkpt>
   <trkpt lat="-3.0764180" lon="37.3540760">
    <ele>5879.0</ele>
    <time>2026-06-23T04:53:56Z</time>
   </trkpt>
   <trkpt lat="-3.0764200" lon="37.3540760">
    <ele>5879.0</ele>
    <time>2026-06-23T04:53:57Z</time>
   </trkpt>
   <trkpt lat="-3.0764190" lon="37.3540760">
    <ele>5879.0</ele>
    <time>2026-06-23T04:53:58Z</time>
   </trkpt>
   <trkpt lat="-3.0764170" lon="37.3540760">
    <ele>5879.0</ele>
    <time>2026-06-23T04:53:59Z</time>
   </trkpt>
   <trkpt lat="-3.0764180" lon="37.3540760">
    <ele>5879.0</ele>
    <time>2026-06-23T04:54:00Z</time>
   </trkpt>
   <trkpt lat="-3.0764180" lon="37.3540750">
    <ele>5879.0</ele>
    <time>2026-06-23T04:54:01Z</time>
   </trkpt>
   <trkpt lat="-3.0764190" lon="37.3540750">
    <ele>5879.0</ele>
    <time>2026-06-23T04:54:02Z</time>
   </trkpt>
   <trkpt lat="-3.0764200" lon="37.3540750">
    <ele>5879.0</ele>
    <time>2026-06-23T04:54:03Z</time>
   </trkpt>
   <trkpt lat="-3.0764210" lon="37.3540770">
    <ele>5879.0</ele>
    <time>2026-06-23T04:54:04Z</time>
   </trkpt>
   <trkpt lat="-3.0764220" lon="37.3540780">
    <ele>5879.0</ele>
    <time>2026-06-23T04:54:05Z</time>
   </trkpt>
   <trkpt lat="-3.0764240" lon="37.3540780">
    <ele>5879.1</ele>
    <time>2026-06-23T04:54:06Z</time>
   </trkpt>
   <trkpt lat="-3.0764280" lon="37.3540820">
    <ele>5879.1</ele>
    <time>2026-06-23T04:54:07Z</time>
   </trkpt>
   <trkpt lat="-3.0764300" lon="37.3540880">
    <ele>5879.1</ele>
    <time>2026-06-23T04:54:08Z</time>
   </trkpt>
   <trkpt lat="-3.0764310" lon="37.3540900">
    <ele>5879.1</ele>
    <time>2026-06-23T04:54:09Z</time>
   </trkpt>
   <trkpt lat="-3.0764320" lon="37.3540940">
    <ele>5879.2</ele>
    <time>2026-06-23T04:54:10Z</time>
   </trkpt>
   <trkpt lat="-3.0764330" lon="37.3540960">
    <ele>5879.2</ele>
    <time>2026-06-23T04:54:11Z</time>
   </trkpt>
   <trkpt lat="-3.0764340" lon="37.3540950">
    <ele>5879.2</ele>
    <time>2026-06-23T04:54:12Z</time>
   </trkpt>
   <trkpt lat="-3.0764360" lon="37.3540980">
    <ele>5879.2</ele>
    <time>2026-06-23T04:54:13Z</time>
   </trkpt>
   <trkpt lat="-3.0764360" lon="37.3540970">
    <ele>5879.2</ele>
    <time>2026-06-23T04:54:14Z</time>
   </trkpt>
   <trkpt lat="-3.0764360" lon="37.3540970">
    <ele>5879.2</ele>
    <time>2026-06-23T04:54:15Z</time>
   </trkpt>
   <trkpt lat="-3.0764360" lon="37.3540980">
    <ele>5879.2</ele>
    <time>2026-06-23T04:54:16Z</time>
   </trkpt>
   <trkpt lat="-3.0764350" lon="37.3540990">
    <ele>5879.2</ele>
    <time>2026-06-23T04:54:17Z</time>
   </trkpt>
   <trkpt lat="-3.0764340" lon="37.3540980">
    <ele>5879.2</ele>
    <time>2026-06-23T04:54:18Z</time>
   </trkpt>
   <trkpt lat="-3.0764330" lon="37.3540960">
    <ele>5879.2</ele>
    <time>2026-06-23T04:54:19Z</time>
   </trkpt>
   <trkpt lat="-3.0764340" lon="37.3540980">
    <ele>5879.3</ele>
    <time>2026-06-23T04:54:20Z</time>
   </trkpt>
   <trkpt lat="-3.0764340" lon="37.3540970">
    <ele>5879.3</ele>
    <time>2026-06-23T04:54:21Z</time>
   </trkpt>
   <trkpt lat="-3.0764340" lon="37.3540980">
    <ele>5879.3</ele>
    <time>2026-06-23T04:54:22Z</time>
   </trkpt>
   <trkpt lat="-3.0764350" lon="37.3540970">
    <ele>5879.3</ele>
    <time>2026-06-23T04:54:23Z</time>
   </trkpt>
   <trkpt lat="-3.0764340" lon="37.3540970">
    <ele>5879.3</ele>
    <time>2026-06-23T04:54:24Z</time>
   </trkpt>
   <trkpt lat="-3.0764340" lon="37.3540970">
    <ele>5879.3</ele>
    <time>2026-06-23T04:54:25Z</time>
   </trkpt>
   <trkpt lat="-3.0764340" lon="37.3540970">
    <ele>5879.3</ele>
    <time>2026-06-23T04:54:26Z</time>
   </trkpt>
   <trkpt lat="-3.0764340" lon="37.3540970">
    <ele>5879.3</ele>
    <time>2026-06-23T04:54:27Z</time>
   </trkpt>
   <trkpt lat="-3.0764340" lon="37.3540980">
    <ele>5879.3</ele>
    <time>2026-06-23T04:54:28Z</time>
   </trkpt>
   <trkpt lat="-3.0764340" lon="37.3540980">
    <ele>5879.3</ele>
    <time>2026-06-23T04:54:29Z</time>
   </trkpt>
   <trkpt lat="-3.0764330" lon="37.3540990">
    <ele>5879.3</ele>
    <time>2026-06-23T04:54:30Z</time>
   </trkpt>
   <trkpt lat="-3.0764330" lon="37.3540990">
    <ele>5879.3</ele>
    <time>2026-06-23T04:54:31Z</time>
   </trkpt>
   <trkpt lat="-3.0764340" lon="37.3540980">
    <ele>5879.3</ele>
    <time>2026-06-23T04:54:32Z</time>
   </trkpt>
   <trkpt lat="-3.0764320" lon="37.3540980">
    <ele>5879.3</ele>
    <time>2026-06-23T04:54:33Z</time>
   </trkpt>
   <trkpt lat="-3.0764330" lon="37.3540980">
    <ele>5879.3</ele>
    <time>2026-06-23T04:54:34Z</time>
   </trkpt>
   <trkpt lat="-3.0764350" lon="37.3541000">
    <ele>5879.3</ele>
    <time>2026-06-23T04:54:35Z</time>
   </trkpt>
   <trkpt lat="-3.0764350" lon="37.3541000">
    <ele>5879.3</ele>
    <time>2026-06-23T04:54:36Z</time>
   </trkpt>
   <trkpt lat="-3.0764340" lon="37.3541000">
    <ele>5879.3</ele>
    <time>2026-06-23T04:54:37Z</time>
   </trkpt>
   <trkpt lat="-3.0764340" lon="37.3541000">
    <ele>5879.3</ele>
    <time>2026-06-23T04:54:38Z</time>
   </trkpt>
   <trkpt lat="-3.0764340" lon="37.3541000">
    <ele>5879.3</ele>
    <time>2026-06-23T04:54:39Z</time>
   </trkpt>
   <trkpt lat="-3.0764350" lon="37.3541000">
    <ele>5879.3</ele>
    <time>2026-06-23T04:54:40Z</time>
   </trkpt>
   <trkpt lat="-3.0764340" lon="37.3541000">
    <ele>5879.3</ele>
    <time>2026-06-23T04:54:41Z</time>
   </trkpt>
   <trkpt lat="-3.0764340" lon="37.3541000">
    <ele>5879.3</ele>
    <time>2026-06-23T04:54:42Z</time>
   </trkpt>
   <trkpt lat="-3.0764340" lon="37.3541000">
    <ele>5879.3</ele>
    <time>2026-06-23T04:54:43Z</time>
   </trkpt>
   <trkpt lat="-3.0764340" lon="37.3541000">
    <ele>5879.3</ele>
    <time>2026-06-23T04:54:44Z</time>
   </trkpt>
   <trkpt lat="-3.0764340" lon="37.3540990">
    <ele>5879.4</ele>
    <time>2026-06-23T04:54:45Z</time>
   </trkpt>
   <trkpt lat="-3.0764330" lon="37.3540990">
    <ele>5879.4</ele>
    <time>2026-06-23T04:54:46Z</time>
   </trkpt>
   <trkpt lat="-3.0764330" lon="37.3540990">
    <ele>5879.4</ele>
    <time>2026-06-23T04:54:47Z</time>
   </trkpt>
   <trkpt lat="-3.0764320" lon="37.3540990">
    <ele>5879.4</ele>
    <time>2026-06-23T04:54:48Z</time>
   </trkpt>
   <trkpt lat="-3.0764330" lon="37.3541000">
    <ele>5879.4</ele>
    <time>2026-06-23T04:54:49Z</time>
   </trkpt>
   <trkpt lat="-3.0764330" lon="37.3541000">
    <ele>5879.4</ele>
    <time>2026-06-23T04:54:50Z</time>
   </trkpt>
   <trkpt lat="-3.0764330" lon="37.3541000">
    <ele>5879.4</ele>
    <time>2026-06-23T04:54:51Z</time>
   </trkpt>
   <trkpt lat="-3.0764340" lon="37.3541000">
    <ele>5879.4</ele>
    <time>2026-06-23T04:54:52Z</time>
   </trkpt>
   <trkpt lat="-3.0764350" lon="37.3540980">
    <ele>5879.4</ele>
    <time>2026-06-23T04:54:53Z</time>
   </trkpt>
   <trkpt lat="-3.0764350" lon="37.3540990">
    <ele>5879.4</ele>
    <time>2026-06-23T04:54:54Z</time>
   </trkpt>
   <trkpt lat="-3.0764350" lon="37.3541000">
    <ele>5879.4</ele>
    <time>2026-06-23T04:54:55Z</time>
   </trkpt>
   <trkpt lat="-3.0764360" lon="37.3541000">
    <ele>5879.4</ele>
    <time>2026-06-23T04:54:56Z</time>
   </trkpt>
   <trkpt lat="-3.0764370" lon="37.3541010">
    <ele>5879.4</ele>
    <time>2026-06-23T04:54:57Z</time>
   </trkpt>
   <trkpt lat="-3.0764420" lon="37.3541040">
    <ele>5879.4</ele>
    <time>2026-06-23T04:54:58Z</time>
   </trkpt>
   <trkpt lat="-3.0764490" lon="37.3541050">
    <ele>5879.5</ele>
    <time>2026-06-23T04:54:59Z</time>
   </trkpt>
   <trkpt lat="-3.0764560" lon="37.3541050">
    <ele>5879.5</ele>
    <time>2026-06-23T04:55:00Z</time>
   </trkpt>
   <trkpt lat="-3.0764610" lon="37.3541040">
    <ele>5879.5</ele>
    <time>2026-06-23T04:55:01Z</time>
   </trkpt>
   <trkpt lat="-3.0764640" lon="37.3541030">
    <ele>5879.5</ele>
    <time>2026-06-23T04:55:02Z</time>
   </trkpt>
   <trkpt lat="-3.0764640" lon="37.3541020">
    <ele>5879.6</ele>
    <time>2026-06-23T04:55:03Z</time>
   </trkpt>
   <trkpt lat="-3.0764640" lon="37.3541020">
    <ele>5879.6</ele>
    <time>2026-06-23T04:55:04Z</time>
   </trkpt>
   <trkpt lat="-3.0764640" lon="37.3541030">
    <ele>5879.6</ele>
    <time>2026-06-23T04:55:05Z</time>
   </trkpt>
   <trkpt lat="-3.0764640" lon="37.3541030">
    <ele>5879.6</ele>
    <time>2026-06-23T04:55:06Z</time>
   </trkpt>
   <trkpt lat="-3.0764650" lon="37.3541030">
    <ele>5879.6</ele>
    <time>2026-06-23T04:55:07Z</time>
   </trkpt>
   <trkpt lat="-3.0764650" lon="37.3541030">
    <ele>5879.6</ele>
    <time>2026-06-23T04:55:08Z</time>
   </trkpt>
   <trkpt lat="-3.0764650" lon="37.3541040">
    <ele>5879.6</ele>
    <time>2026-06-23T04:55:09Z</time>
   </trkpt>
   <trkpt lat="-3.0764650" lon="37.3541040">
    <ele>5879.6</ele>
    <time>2026-06-23T04:55:10Z</time>
   </trkpt>
   <trkpt lat="-3.0764650" lon="37.3541040">
    <ele>5879.6</ele>
    <time>2026-06-23T04:55:11Z</time>
   </trkpt>
   <trkpt lat="-3.0764650" lon="37.3541040">
    <ele>5879.6</ele>
    <time>2026-06-23T04:55:12Z</time>
   </trkpt>
   <trkpt lat="-3.0764650" lon="37.3541040">
    <ele>5879.6</ele>
    <time>2026-06-23T04:55:13Z</time>
   </trkpt>
   <trkpt lat="-3.0764650" lon="37.3541040">
    <ele>5879.6</ele>
    <time>2026-06-23T04:55:14Z</time>
   </trkpt>
   <trkpt lat="-3.0764650" lon="37.3541040">
    <ele>5879.6</ele>
    <time>2026-06-23T04:55:15Z</time>
   </trkpt>
   <trkpt lat="-3.0764650" lon="37.3541030">
    <ele>5879.6</ele>
    <time>2026-06-23T04:55:16Z</time>
   </trkpt>
   <trkpt lat="-3.0764640" lon="37.3541040">
    <ele>5879.6</ele>
    <time>2026-06-23T04:55:17Z</time>
   </trkpt>
   <trkpt lat="-3.0764650" lon="37.3541030">
    <ele>5879.6</ele>
    <time>2026-06-23T04:55:18Z</time>
   </trkpt>
   <trkpt lat="-3.0764650" lon="37.3541030">
    <ele>5879.6</ele>
    <time>2026-06-23T04:55:19Z</time>
   </trkpt>
   <trkpt lat="-3.0764640" lon="37.3541040">
    <ele>5879.6</ele>
    <time>2026-06-23T04:55:20Z</time>
   </trkpt>
   <trkpt lat="-3.0764640" lon="37.3541030">
    <ele>5879.6</ele>
    <time>2026-06-23T04:55:21Z</time>
   </trkpt>
   <trkpt lat="-3.0764640" lon="37.3541030">
    <ele>5879.6</ele>
    <time>2026-06-23T04:55:22Z</time>
   </trkpt>
   <trkpt lat="-3.0764640" lon="37.3541040">
    <ele>5879.6</ele>
    <time>2026-06-23T04:55:23Z</time>
   </trkpt>
   <trkpt lat="-3.0764630" lon="37.3541030">
    <ele>5879.6</ele>
    <time>2026-06-23T04:55:24Z</time>
   </trkpt>
   <trkpt lat="-3.0764640" lon="37.3541040">
    <ele>5879.6</ele>
    <time>2026-06-23T04:55:25Z</time>
   </trkpt>
   <trkpt lat="-3.0764640" lon="37.3541040">
    <ele>5879.6</ele>
    <time>2026-06-23T04:55:26Z</time>
   </trkpt>
   <trkpt lat="-3.0764640" lon="37.3541030">
    <ele>5879.6</ele>
    <time>2026-06-23T04:55:27Z</time>
   </trkpt>
   <trkpt lat="-3.0764640" lon="37.3541040">
    <ele>5879.6</ele>
    <time>2026-06-23T04:55:28Z</time>
   </trkpt>
   <trkpt lat="-3.0764640" lon="37.3541040">
    <ele>5879.6</ele>
    <time>2026-06-23T04:55:29Z</time>
   </trkpt>
   <trkpt lat="-3.0764650" lon="37.3541040">
    <ele>5879.6</ele>
    <time>2026-06-23T04:55:30Z</time>
   </trkpt>
   <trkpt lat="-3.0764640" lon="37.3541040">
    <ele>5879.6</ele>
    <time>2026-06-23T04:55:31Z</time>
   </trkpt>
   <trkpt lat="-3.0764630" lon="37.3541050">
    <ele>5879.6</ele>
    <time>2026-06-23T04:55:32Z</time>
   </trkpt>
   <trkpt lat="-3.0764610" lon="37.3541050">
    <ele>5879.7</ele>
    <time>2026-06-23T04:55:33Z</time>
   </trkpt>
   <trkpt lat="-3.0764590" lon="37.3541050">
    <ele>5879.7</ele>
    <time>2026-06-23T04:55:34Z</time>
   </trkpt>
   <trkpt lat="-3.0764600" lon="37.3541050">
    <ele>5879.7</ele>
    <time>2026-06-23T04:55:35Z</time>
   </trkpt>
   <trkpt lat="-3.0764590" lon="37.3541050">
    <ele>5879.7</ele>
    <time>2026-06-23T04:55:36Z</time>
   </trkpt>
   <trkpt lat="-3.0764590" lon="37.3541050">
    <ele>5879.7</ele>
    <time>2026-06-23T04:55:37Z</time>
   </trkpt>
   <trkpt lat="-3.0764600" lon="37.3541050">
    <ele>5879.7</ele>
    <time>2026-06-23T04:55:38Z</time>
   </trkpt>
   <trkpt lat="-3.0764590" lon="37.3541050">
    <ele>5879.7</ele>
    <time>2026-06-23T04:55:39Z</time>
   </trkpt>
   <trkpt lat="-3.0764600" lon="37.3541050">
    <ele>5879.7</ele>
    <time>2026-06-23T04:55:40Z</time>
   </trkpt>
   <trkpt lat="-3.0764590" lon="37.3541050">
    <ele>5879.7</ele>
    <time>2026-06-23T04:55:41Z</time>
   </trkpt>
   <trkpt lat="-3.0764600" lon="37.3541050">
    <ele>5879.7</ele>
    <time>2026-06-23T04:55:42Z</time>
   </trkpt>
   <trkpt lat="-3.0764590" lon="37.3541050">
    <ele>5879.7</ele>
    <time>2026-06-23T04:55:43Z</time>
   </trkpt>
   <trkpt lat="-3.0764610" lon="37.3541040">
    <ele>5879.7</ele>
    <time>2026-06-23T04:55:44Z</time>
   </trkpt>
   <trkpt lat="-3.0764620" lon="37.3541040">
    <ele>5879.7</ele>
    <time>2026-06-23T04:55:45Z</time>
   </trkpt>
   <trkpt lat="-3.0764620" lon="37.3541040">
    <ele>5879.7</ele>
    <time>2026-06-23T04:55:46Z</time>
   </trkpt>
   <trkpt lat="-3.0764610" lon="37.3541040">
    <ele>5879.7</ele>
    <time>2026-06-23T04:55:47Z</time>
   </trkpt>
   <trkpt lat="-3.0764610" lon="37.3541030">
    <ele>5879.7</ele>
    <time>2026-06-23T04:55:48Z</time>
   </trkpt>
   <trkpt lat="-3.0764620" lon="37.3541030">
    <ele>5879.7</ele>
    <time>2026-06-23T04:55:49Z</time>
   </trkpt>
   <trkpt lat="-3.0764620" lon="37.3541030">
    <ele>5879.7</ele>
    <time>2026-06-23T04:55:50Z</time>
   </trkpt>
   <trkpt lat="-3.0764620" lon="37.3541030">
    <ele>5879.7</ele>
    <time>2026-06-23T04:55:51Z</time>
   </trkpt>
   <trkpt lat="-3.0764620" lon="37.3541030">
    <ele>5879.7</ele>
    <time>2026-06-23T04:55:52Z</time>
   </trkpt>
   <trkpt lat="-3.0764610" lon="37.3541040">
    <ele>5879.7</ele>
    <time>2026-06-23T04:55:54Z</time>
   </trkpt>
   <trkpt lat="-3.0764620" lon="37.3541030">
    <ele>5879.7</ele>
    <time>2026-06-23T04:55:55Z</time>
   </trkpt>
   <trkpt lat="-3.0764620" lon="37.3541040">
    <ele>5879.8</ele>
    <time>2026-06-23T04:55:56Z</time>
   </trkpt>
   <trkpt lat="-3.0764610" lon="37.3541050">
    <ele>5879.8</ele>
    <time>2026-06-23T04:55:57Z</time>
   </trkpt>
   <trkpt lat="-3.0764620" lon="37.3541050">
    <ele>5879.8</ele>
    <time>2026-06-23T04:55:58Z</time>
   </trkpt>
   <trkpt lat="-3.0764630" lon="37.3541050">
    <ele>5879.8</ele>
    <time>2026-06-23T04:55:59Z</time>
   </trkpt>
   <trkpt lat="-3.0764630" lon="37.3541040">
    <ele>5879.8</ele>
    <time>2026-06-23T04:56:00Z</time>
   </trkpt>
   <trkpt lat="-3.0764630" lon="37.3541040">
    <ele>5879.8</ele>
    <time>2026-06-23T04:56:01Z</time>
   </trkpt>
   <trkpt lat="-3.0764630" lon="37.3541050">
    <ele>5879.8</ele>
    <time>2026-06-23T04:56:02Z</time>
   </trkpt>
   <trkpt lat="-3.0764630" lon="37.3541040">
    <ele>5879.8</ele>
    <time>2026-06-23T04:56:03Z</time>
   </trkpt>
   <trkpt lat="-3.0764620" lon="37.3541040">
    <ele>5879.8</ele>
    <time>2026-06-23T04:56:04Z</time>
   </trkpt>
   <trkpt lat="-3.0764630" lon="37.3541040">
    <ele>5879.8</ele>
    <time>2026-06-23T04:56:05Z</time>
   </trkpt>
   <trkpt lat="-3.0764630" lon="37.3541040">
    <ele>5879.8</ele>
    <time>2026-06-23T04:56:06Z</time>
   </trkpt>
   <trkpt lat="-3.0764630" lon="37.3541050">
    <ele>5879.8</ele>
    <time>2026-06-23T04:56:07Z</time>
   </trkpt>
   <trkpt lat="-3.0764620" lon="37.3541040">
    <ele>5879.8</ele>
    <time>2026-06-23T04:56:08Z</time>
   </trkpt>
   <trkpt lat="-3.0764620" lon="37.3541030">
    <ele>5879.8</ele>
    <time>2026-06-23T04:56:09Z</time>
   </trkpt>
   <trkpt lat="-3.0764620" lon="37.3541030">
    <ele>5879.8</ele>
    <time>2026-06-23T04:56:10Z</time>
   </trkpt>
   <trkpt lat="-3.0764620" lon="37.3541030">
    <ele>5879.8</ele>
    <time>2026-06-23T04:56:11Z</time>
   </trkpt>
   <trkpt lat="-3.0764630" lon="37.3541040">
    <ele>5879.8</ele>
    <time>2026-06-23T04:56:12Z</time>
   </trkpt>
   <trkpt lat="-3.0764630" lon="37.3541040">
    <ele>5879.8</ele>
    <time>2026-06-23T04:56:13Z</time>
   </trkpt>
   <trkpt lat="-3.0764630" lon="37.3541040">
    <ele>5879.8</ele>
    <time>2026-06-23T04:56:14Z</time>
   </trkpt>
   <trkpt lat="-3.0764630" lon="37.3541040">
    <ele>5879.8</ele>
    <time>2026-06-23T04:56:15Z</time>
   </trkpt>
   <trkpt lat="-3.0764630" lon="37.3541030">
    <ele>5879.8</ele>
    <time>2026-06-23T04:56:16Z</time>
   </trkpt>
   <trkpt lat="-3.0764620" lon="37.3541030">
    <ele>5879.8</ele>
    <time>2026-06-23T04:56:17Z</time>
   </trkpt>
   <trkpt lat="-3.0764620" lon="37.3541040">
    <ele>5879.8</ele>
    <time>2026-06-23T04:56:18Z</time>
   </trkpt>
   <trkpt lat="-3.0764610" lon="37.3541040">
    <ele>5879.8</ele>
    <time>2026-06-23T04:56:19Z</time>
   </trkpt>
   <trkpt lat="-3.0764610" lon="37.3541040">
    <ele>5879.8</ele>
    <time>2026-06-23T04:56:20Z</time>
   </trkpt>
   <trkpt lat="-3.0764610" lon="37.3541050">
    <ele>5879.8</ele>
    <time>2026-06-23T04:56:21Z</time>
   </trkpt>
   <trkpt lat="-3.0764610" lon="37.3541050">
    <ele>5879.8</ele>
    <time>2026-06-23T04:56:22Z</time>
   </trkpt>
   <trkpt lat="-3.0764610" lon="37.3541050">
    <ele>5879.8</ele>
    <time>2026-06-23T04:56:23Z</time>
   </trkpt>
   <trkpt lat="-3.0764620" lon="37.3541030">
    <ele>5879.8</ele>
    <time>2026-06-23T04:56:24Z</time>
   </trkpt>
   <trkpt lat="-3.0764630" lon="37.3541020">
    <ele>5879.8</ele>
    <time>2026-06-23T04:56:25Z</time>
   </trkpt>
   <trkpt lat="-3.0764630" lon="37.3541020">
    <ele>5879.8</ele>
    <time>2026-06-23T04:56:26Z</time>
   </trkpt>
   <trkpt lat="-3.0764620" lon="37.3541020">
    <ele>5879.9</ele>
    <time>2026-06-23T04:56:27Z</time>
   </trkpt>
   <trkpt lat="-3.0764630" lon="37.3541030">
    <ele>5879.9</ele>
    <time>2026-06-23T04:56:28Z</time>
   </trkpt>
   <trkpt lat="-3.0764600" lon="37.3541030">
    <ele>5879.9</ele>
    <time>2026-06-23T04:56:29Z</time>
   </trkpt>
   <trkpt lat="-3.0764590" lon="37.3541030">
    <ele>5879.9</ele>
    <time>2026-06-23T04:56:30Z</time>
   </trkpt>
   <trkpt lat="-3.0764560" lon="37.3541020">
    <ele>5879.9</ele>
    <time>2026-06-23T04:56:31Z</time>
   </trkpt>
   <trkpt lat="-3.0764570" lon="37.3541030">
    <ele>5879.9</ele>
    <time>2026-06-23T04:56:32Z</time>
   </trkpt>
   <trkpt lat="-3.0764550" lon="37.3541040">
    <ele>5879.9</ele>
    <time>2026-06-23T04:56:33Z</time>
   </trkpt>
   <trkpt lat="-3.0764550" lon="37.3541040">
    <ele>5879.9</ele>
    <time>2026-06-23T04:56:34Z</time>
   </trkpt>
   <trkpt lat="-3.0764550" lon="37.3541040">
    <ele>5879.9</ele>
    <time>2026-06-23T04:56:35Z</time>
   </trkpt>
   <trkpt lat="-3.0764550" lon="37.3541040">
    <ele>5879.9</ele>
    <time>2026-06-23T04:56:36Z</time>
   </trkpt>
   <trkpt lat="-3.0764550" lon="37.3541030">
    <ele>5879.9</ele>
    <time>2026-06-23T04:56:37Z</time>
   </trkpt>
   <trkpt lat="-3.0764550" lon="37.3541030">
    <ele>5879.9</ele>
    <time>2026-06-23T04:56:38Z</time>
   </trkpt>
   <trkpt lat="-3.0764550" lon="37.3541030">
    <ele>5879.9</ele>
    <time>2026-06-23T04:56:39Z</time>
   </trkpt>
   <trkpt lat="-3.0764550" lon="37.3541030">
    <ele>5879.9</ele>
    <time>2026-06-23T04:56:40Z</time>
   </trkpt>
   <trkpt lat="-3.0764550" lon="37.3541030">
    <ele>5879.9</ele>
    <time>2026-06-23T04:56:41Z</time>
   </trkpt>
   <trkpt lat="-3.0764550" lon="37.3541030">
    <ele>5879.9</ele>
    <time>2026-06-23T04:56:42Z</time>
   </trkpt>
   <trkpt lat="-3.0764550" lon="37.3541030">
    <ele>5879.9</ele>
    <time>2026-06-23T04:56:43Z</time>
   </trkpt>
   <trkpt lat="-3.0764550" lon="37.3541030">
    <ele>5879.9</ele>
    <time>2026-06-23T04:56:44Z</time>
   </trkpt>
   <trkpt lat="-3.0764550" lon="37.3541020">
    <ele>5879.9</ele>
    <time>2026-06-23T04:56:45Z</time>
   </trkpt>
   <trkpt lat="-3.0764560" lon="37.3541020">
    <ele>5879.9</ele>
    <time>2026-06-23T04:56:46Z</time>
   </trkpt>
   <trkpt lat="-3.0764560" lon="37.3541020">
    <ele>5879.9</ele>
    <time>2026-06-23T04:56:47Z</time>
   </trkpt>
   <trkpt lat="-3.0764580" lon="37.3541010">
    <ele>5879.9</ele>
    <time>2026-06-23T04:56:48Z</time>
   </trkpt>
   <trkpt lat="-3.0764590" lon="37.3541010">
    <ele>5879.9</ele>
    <time>2026-06-23T04:56:49Z</time>
   </trkpt>
   <trkpt lat="-3.0764580" lon="37.3541010">
    <ele>5879.9</ele>
    <time>2026-06-23T04:56:50Z</time>
   </trkpt>
   <trkpt lat="-3.0764580" lon="37.3541010">
    <ele>5879.9</ele>
    <time>2026-06-23T04:56:51Z</time>
   </trkpt>
   <trkpt lat="-3.0764560" lon="37.3541010">
    <ele>5879.9</ele>
    <time>2026-06-23T04:56:52Z</time>
   </trkpt>
   <trkpt lat="-3.0764570" lon="37.3541010">
    <ele>5880.0</ele>
    <time>2026-06-23T04:56:53Z</time>
   </trkpt>
   <trkpt lat="-3.0764570" lon="37.3541010">
    <ele>5880.0</ele>
    <time>2026-06-23T04:56:54Z</time>
   </trkpt>
   <trkpt lat="-3.0764570" lon="37.3540990">
    <ele>5880.0</ele>
    <time>2026-06-23T04:56:55Z</time>
   </trkpt>
   <trkpt lat="-3.0764570" lon="37.3540980">
    <ele>5880.0</ele>
    <time>2026-06-23T04:56:56Z</time>
   </trkpt>
   <trkpt lat="-3.0764570" lon="37.3540980">
    <ele>5880.0</ele>
    <time>2026-06-23T04:56:57Z</time>
   </trkpt>
   <trkpt lat="-3.0764570" lon="37.3540980">
    <ele>5880.0</ele>
    <time>2026-06-23T04:56:58Z</time>
   </trkpt>
   <trkpt lat="-3.0764560" lon="37.3541000">
    <ele>5880.0</ele>
    <time>2026-06-23T04:56:59Z</time>
   </trkpt>
   <trkpt lat="-3.0764570" lon="37.3541010">
    <ele>5880.0</ele>
    <time>2026-06-23T04:57:00Z</time>
   </trkpt>
   <trkpt lat="-3.0764540" lon="37.3541020">
    <ele>5880.0</ele>
    <time>2026-06-23T04:57:01Z</time>
   </trkpt>
   <trkpt lat="-3.0764560" lon="37.3541010">
    <ele>5880.0</ele>
    <time>2026-06-23T04:57:02Z</time>
   </trkpt>
   <trkpt lat="-3.0764560" lon="37.3541020">
    <ele>5880.0</ele>
    <time>2026-06-23T04:57:03Z</time>
   </trkpt>
   <trkpt lat="-3.0764560" lon="37.3541020">
    <ele>5880.0</ele>
    <time>2026-06-23T04:57:04Z</time>
   </trkpt>
   <trkpt lat="-3.0764560" lon="37.3541030">
    <ele>5880.0</ele>
    <time>2026-06-23T04:57:05Z</time>
   </trkpt>
   <trkpt lat="-3.0764570" lon="37.3541030">
    <ele>5880.0</ele>
    <time>2026-06-23T04:57:06Z</time>
   </trkpt>
   <trkpt lat="-3.0764570" lon="37.3541020">
    <ele>5880.0</ele>
    <time>2026-06-23T04:57:07Z</time>
   </trkpt>
   <trkpt lat="-3.0764580" lon="37.3541020">
    <ele>5880.0</ele>
    <time>2026-06-23T04:57:08Z</time>
   </trkpt>
   <trkpt lat="-3.0764570" lon="37.3541000">
    <ele>5880.0</ele>
    <time>2026-06-23T04:57:09Z</time>
   </trkpt>
   <trkpt lat="-3.0764570" lon="37.3541000">
    <ele>5880.0</ele>
    <time>2026-06-23T04:57:10Z</time>
   </trkpt>
   <trkpt lat="-3.0764580" lon="37.3540980">
    <ele>5880.0</ele>
    <time>2026-06-23T04:57:11Z</time>
   </trkpt>
   <trkpt lat="-3.0764560" lon="37.3540980">
    <ele>5880.1</ele>
    <time>2026-06-23T04:57:12Z</time>
   </trkpt>
   <trkpt lat="-3.0764570" lon="37.3540980">
    <ele>5880.1</ele>
    <time>2026-06-23T04:57:13Z</time>
   </trkpt>
   <trkpt lat="-3.0764580" lon="37.3540970">
    <ele>5880.1</ele>
    <time>2026-06-23T04:57:14Z</time>
   </trkpt>
   <trkpt lat="-3.0764580" lon="37.3540970">
    <ele>5880.1</ele>
    <time>2026-06-23T04:57:15Z</time>
   </trkpt>
   <trkpt lat="-3.0764580" lon="37.3540980">
    <ele>5880.1</ele>
    <time>2026-06-23T04:57:16Z</time>
   </trkpt>
   <trkpt lat="-3.0764580" lon="37.3540980">
    <ele>5880.1</ele>
    <time>2026-06-23T04:57:17Z</time>
   </trkpt>
   <trkpt lat="-3.0764590" lon="37.3540980">
    <ele>5880.1</ele>
    <time>2026-06-23T04:57:18Z</time>
   </trkpt>
   <trkpt lat="-3.0764580" lon="37.3540980">
    <ele>5880.1</ele>
    <time>2026-06-23T04:57:19Z</time>
   </trkpt>
   <trkpt lat="-3.0764580" lon="37.3540970">
    <ele>5880.1</ele>
    <time>2026-06-23T04:57:20Z</time>
   </trkpt>
   <trkpt lat="-3.0764590" lon="37.3540970">
    <ele>5880.1</ele>
    <time>2026-06-23T04:57:21Z</time>
   </trkpt>
   <trkpt lat="-3.0764590" lon="37.3540980">
    <ele>5880.1</ele>
    <time>2026-06-23T04:57:22Z</time>
   </trkpt>
   <trkpt lat="-3.0764590" lon="37.3540980">
    <ele>5880.1</ele>
    <time>2026-06-23T04:57:23Z</time>
   </trkpt>
   <trkpt lat="-3.0764590" lon="37.3540980">
    <ele>5880.1</ele>
    <time>2026-06-23T04:57:24Z</time>
   </trkpt>
   <trkpt lat="-3.0764580" lon="37.3540970">
    <ele>5880.1</ele>
    <time>2026-06-23T04:57:25Z</time>
   </trkpt>
   <trkpt lat="-3.0764590" lon="37.3540970">
    <ele>5880.1</ele>
    <time>2026-06-23T04:57:26Z</time>
   </trkpt>
   <trkpt lat="-3.0764590" lon="37.3540960">
    <ele>5880.1</ele>
    <time>2026-06-23T04:57:27Z</time>
   </trkpt>
   <trkpt lat="-3.0764590" lon="37.3540960">
    <ele>5880.1</ele>
    <time>2026-06-23T04:57:28Z</time>
   </trkpt>
   <trkpt lat="-3.0764590" lon="37.3540960">
    <ele>5880.1</ele>
    <time>2026-06-23T04:57:29Z</time>
   </trkpt>
   <trkpt lat="-3.0764590" lon="37.3540960">
    <ele>5880.1</ele>
    <time>2026-06-23T04:57:30Z</time>
   </trkpt>
   <trkpt lat="-3.0764590" lon="37.3540960">
    <ele>5880.1</ele>
    <time>2026-06-23T04:57:31Z</time>
   </trkpt>
   <trkpt lat="-3.0764580" lon="37.3540960">
    <ele>5880.1</ele>
    <time>2026-06-23T04:57:32Z</time>
   </trkpt>
   <trkpt lat="-3.0764590" lon="37.3540960">
    <ele>5880.1</ele>
    <time>2026-06-23T04:57:33Z</time>
   </trkpt>
   <trkpt lat="-3.0764590" lon="37.3540970">
    <ele>5880.1</ele>
    <time>2026-06-23T04:57:34Z</time>
   </trkpt>
   <trkpt lat="-3.0764580" lon="37.3540970">
    <ele>5880.1</ele>
    <time>2026-06-23T04:57:35Z</time>
   </trkpt>
   <trkpt lat="-3.0764590" lon="37.3540960">
    <ele>5880.1</ele>
    <time>2026-06-23T04:57:36Z</time>
   </trkpt>
   <trkpt lat="-3.0764590" lon="37.3540960">
    <ele>5880.1</ele>
    <time>2026-06-23T04:57:37Z</time>
   </trkpt>
   <trkpt lat="-3.0764590" lon="37.3540960">
    <ele>5880.1</ele>
    <time>2026-06-23T04:57:38Z</time>
   </trkpt>
   <trkpt lat="-3.0764590" lon="37.3540960">
    <ele>5880.1</ele>
    <time>2026-06-23T04:57:39Z</time>
   </trkpt>
   <trkpt lat="-3.0764600" lon="37.3540950">
    <ele>5880.1</ele>
    <time>2026-06-23T04:57:40Z</time>
   </trkpt>
   <trkpt lat="-3.0764590" lon="37.3540950">
    <ele>5880.1</ele>
    <time>2026-06-23T04:57:41Z</time>
   </trkpt>
   <trkpt lat="-3.0764590" lon="37.3540950">
    <ele>5880.1</ele>
    <time>2026-06-23T04:57:42Z</time>
   </trkpt>
   <trkpt lat="-3.0764590" lon="37.3540940">
    <ele>5880.1</ele>
    <time>2026-06-23T04:57:43Z</time>
   </trkpt>
   <trkpt lat="-3.0764590" lon="37.3540940">
    <ele>5880.1</ele>
    <time>2026-06-23T04:57:44Z</time>
   </trkpt>
   <trkpt lat="-3.0764590" lon="37.3540940">
    <ele>5880.1</ele>
    <time>2026-06-23T04:57:45Z</time>
   </trkpt>
   <trkpt lat="-3.0764570" lon="37.3540910">
    <ele>5880.1</ele>
    <time>2026-06-23T04:57:46Z</time>
   </trkpt>
   <trkpt lat="-3.0764550" lon="37.3540860">
    <ele>5880.2</ele>
    <time>2026-06-23T04:57:47Z</time>
   </trkpt>
   <trkpt lat="-3.0764460" lon="37.3540800">
    <ele>5880.2</ele>
    <time>2026-06-23T04:57:48Z</time>
   </trkpt>
   <trkpt lat="-3.0764420" lon="37.3540730">
    <ele>5880.2</ele>
    <time>2026-06-23T04:57:49Z</time>
   </trkpt>
   <trkpt lat="-3.0764380" lon="37.3540680">
    <ele>5880.3</ele>
    <time>2026-06-23T04:57:50Z</time>
   </trkpt>
   <trkpt lat="-3.0764330" lon="37.3540600">
    <ele>5880.3</ele>
    <time>2026-06-23T04:57:51Z</time>
   </trkpt>
   <trkpt lat="-3.0764290" lon="37.3540540">
    <ele>5880.3</ele>
    <time>2026-06-23T04:57:52Z</time>
   </trkpt>
   <trkpt lat="-3.0764260" lon="37.3540500">
    <ele>5880.3</ele>
    <time>2026-06-23T04:57:53Z</time>
   </trkpt>
   <trkpt lat="-3.0764220" lon="37.3540480">
    <ele>5880.4</ele>
    <time>2026-06-23T04:57:54Z</time>
   </trkpt>
   <trkpt lat="-3.0764170" lon="37.3540470">
    <ele>5880.4</ele>
    <time>2026-06-23T04:57:55Z</time>
   </trkpt>
   <trkpt lat="-3.0764140" lon="37.3540510">
    <ele>5880.4</ele>
    <time>2026-06-23T04:57:56Z</time>
   </trkpt>
   <trkpt lat="-3.0764120" lon="37.3540520">
    <ele>5880.4</ele>
    <time>2026-06-23T04:57:57Z</time>
   </trkpt>
   <trkpt lat="-3.0764120" lon="37.3540520">
    <ele>5880.4</ele>
    <time>2026-06-23T04:57:58Z</time>
   </trkpt>
   <trkpt lat="-3.0764110" lon="37.3540520">
    <ele>5880.4</ele>
    <time>2026-06-23T04:58:00Z</time>
   </trkpt>
   <trkpt lat="-3.0764120" lon="37.3540520">
    <ele>5880.4</ele>
    <time>2026-06-23T04:58:01Z</time>
   </trkpt>
   <trkpt lat="-3.0764100" lon="37.3540520">
    <ele>5880.4</ele>
    <time>2026-06-23T04:58:02Z</time>
   </trkpt>
   <trkpt lat="-3.0764110" lon="37.3540510">
    <ele>5880.4</ele>
    <time>2026-06-23T04:58:03Z</time>
   </trkpt>
   <trkpt lat="-3.0764110" lon="37.3540490">
    <ele>5880.4</ele>
    <time>2026-06-23T04:58:04Z</time>
   </trkpt>
   <trkpt lat="-3.0764130" lon="37.3540480">
    <ele>5880.4</ele>
    <time>2026-06-23T04:58:05Z</time>
   </trkpt>
   <trkpt lat="-3.0764100" lon="37.3540490">
    <ele>5880.4</ele>
    <time>2026-06-23T04:58:06Z</time>
   </trkpt>
   <trkpt lat="-3.0764120" lon="37.3540480">
    <ele>5880.4</ele>
    <time>2026-06-23T04:58:07Z</time>
   </trkpt>
   <trkpt lat="-3.0764120" lon="37.3540490">
    <ele>5880.4</ele>
    <time>2026-06-23T04:58:08Z</time>
   </trkpt>
   <trkpt lat="-3.0764130" lon="37.3540490">
    <ele>5880.4</ele>
    <time>2026-06-23T04:58:09Z</time>
   </trkpt>
   <trkpt lat="-3.0764110" lon="37.3540490">
    <ele>5880.4</ele>
    <time>2026-06-23T04:58:10Z</time>
   </trkpt>
   <trkpt lat="-3.0764110" lon="37.3540480">
    <ele>5880.4</ele>
    <time>2026-06-23T04:58:11Z</time>
   </trkpt>
   <trkpt lat="-3.0764110" lon="37.3540470">
    <ele>5880.5</ele>
    <time>2026-06-23T04:58:12Z</time>
   </trkpt>
   <trkpt lat="-3.0764120" lon="37.3540460">
    <ele>5880.5</ele>
    <time>2026-06-23T04:58:13Z</time>
   </trkpt>
   <trkpt lat="-3.0764110" lon="37.3540460">
    <ele>5880.5</ele>
    <time>2026-06-23T04:58:14Z</time>
   </trkpt>
   <trkpt lat="-3.0764110" lon="37.3540460">
    <ele>5880.5</ele>
    <time>2026-06-23T04:58:15Z</time>
   </trkpt>
   <trkpt lat="-3.0764110" lon="37.3540460">
    <ele>5880.5</ele>
    <time>2026-06-23T04:58:16Z</time>
   </trkpt>
   <trkpt lat="-3.0764090" lon="37.3540430">
    <ele>5880.5</ele>
    <time>2026-06-23T04:58:17Z</time>
   </trkpt>
   <trkpt lat="-3.0764100" lon="37.3540430">
    <ele>5880.5</ele>
    <time>2026-06-23T04:58:18Z</time>
   </trkpt>
   <trkpt lat="-3.0764110" lon="37.3540440">
    <ele>5880.5</ele>
    <time>2026-06-23T04:58:19Z</time>
   </trkpt>
   <trkpt lat="-3.0764110" lon="37.3540440">
    <ele>5880.5</ele>
    <time>2026-06-23T04:58:20Z</time>
   </trkpt>
   <trkpt lat="-3.0764110" lon="37.3540440">
    <ele>5880.5</ele>
    <time>2026-06-23T04:58:21Z</time>
   </trkpt>
   <trkpt lat="-3.0764110" lon="37.3540440">
    <ele>5880.5</ele>
    <time>2026-06-23T04:58:22Z</time>
   </trkpt>
   <trkpt lat="-3.0764100" lon="37.3540400">
    <ele>5880.5</ele>
    <time>2026-06-23T04:58:23Z</time>
   </trkpt>
   <trkpt lat="-3.0764100" lon="37.3540400">
    <ele>5880.5</ele>
    <time>2026-06-23T04:58:24Z</time>
   </trkpt>
   <trkpt lat="-3.0764100" lon="37.3540400">
    <ele>5880.5</ele>
    <time>2026-06-23T04:58:25Z</time>
   </trkpt>
   <trkpt lat="-3.0764100" lon="37.3540400">
    <ele>5880.5</ele>
    <time>2026-06-23T04:58:26Z</time>
   </trkpt>
   <trkpt lat="-3.0764100" lon="37.3540400">
    <ele>5880.5</ele>
    <time>2026-06-23T04:58:27Z</time>
   </trkpt>
   <trkpt lat="-3.0764100" lon="37.3540390">
    <ele>5880.5</ele>
    <time>2026-06-23T04:58:28Z</time>
   </trkpt>
   <trkpt lat="-3.0764100" lon="37.3540390">
    <ele>5880.5</ele>
    <time>2026-06-23T04:58:29Z</time>
   </trkpt>
   <trkpt lat="-3.0764110" lon="37.3540370">
    <ele>5880.5</ele>
    <time>2026-06-23T04:58:30Z</time>
   </trkpt>
   <trkpt lat="-3.0764100" lon="37.3540370">
    <ele>5880.5</ele>
    <time>2026-06-23T04:58:31Z</time>
   </trkpt>
   <trkpt lat="-3.0764110" lon="37.3540370">
    <ele>5880.5</ele>
    <time>2026-06-23T04:58:32Z</time>
   </trkpt>
   <trkpt lat="-3.0764090" lon="37.3540370">
    <ele>5880.5</ele>
    <time>2026-06-23T04:58:33Z</time>
   </trkpt>
   <trkpt lat="-3.0764100" lon="37.3540370">
    <ele>5880.5</ele>
    <time>2026-06-23T04:58:34Z</time>
   </trkpt>
   <trkpt lat="-3.0764100" lon="37.3540370">
    <ele>5880.5</ele>
    <time>2026-06-23T04:58:35Z</time>
   </trkpt>
   <trkpt lat="-3.0764100" lon="37.3540370">
    <ele>5880.5</ele>
    <time>2026-06-23T04:58:36Z</time>
   </trkpt>
   <trkpt lat="-3.0764090" lon="37.3540370">
    <ele>5880.5</ele>
    <time>2026-06-23T04:58:37Z</time>
   </trkpt>
   <trkpt lat="-3.0764100" lon="37.3540370">
    <ele>5880.5</ele>
    <time>2026-06-23T04:58:38Z</time>
   </trkpt>
   <trkpt lat="-3.0764100" lon="37.3540370">
    <ele>5880.5</ele>
    <time>2026-06-23T04:58:39Z</time>
   </trkpt>
   <trkpt lat="-3.0764100" lon="37.3540370">
    <ele>5880.5</ele>
    <time>2026-06-23T04:58:40Z</time>
   </trkpt>
   <trkpt lat="-3.0764100" lon="37.3540370">
    <ele>5880.5</ele>
    <time>2026-06-23T04:58:41Z</time>
   </trkpt>
   <trkpt lat="-3.0764100" lon="37.3540370">
    <ele>5880.5</ele>
    <time>2026-06-23T04:58:42Z</time>
   </trkpt>
   <trkpt lat="-3.0764100" lon="37.3540370">
    <ele>5880.5</ele>
    <time>2026-06-23T04:58:43Z</time>
   </trkpt>
   <trkpt lat="-3.0764100" lon="37.3540370">
    <ele>5880.5</ele>
    <time>2026-06-23T04:58:44Z</time>
   </trkpt>
   <trkpt lat="-3.0764100" lon="37.3540370">
    <ele>5880.5</ele>
    <time>2026-06-23T04:58:45Z</time>
   </trkpt>
   <trkpt lat="-3.0764100" lon="37.3540370">
    <ele>5880.5</ele>
    <time>2026-06-23T04:58:46Z</time>
   </trkpt>
   <trkpt lat="-3.0764100" lon="37.3540370">
    <ele>5880.5</ele>
    <time>2026-06-23T04:58:47Z</time>
   </trkpt>
   <trkpt lat="-3.0764100" lon="37.3540370">
    <ele>5880.5</ele>
    <time>2026-06-23T04:58:48Z</time>
   </trkpt>
   <trkpt lat="-3.0764100" lon="37.3540370">
    <ele>5880.5</ele>
    <time>2026-06-23T04:58:49Z</time>
   </trkpt>
   <trkpt lat="-3.0764080" lon="37.3540400">
    <ele>5880.5</ele>
    <time>2026-06-23T04:58:50Z</time>
   </trkpt>
   <trkpt lat="-3.0764080" lon="37.3540400">
    <ele>5880.5</ele>
    <time>2026-06-23T04:58:51Z</time>
   </trkpt>
   <trkpt lat="-3.0764080" lon="37.3540400">
    <ele>5880.5</ele>
    <time>2026-06-23T04:58:52Z</time>
   </trkpt>
   <trkpt lat="-3.0764080" lon="37.3540400">
    <ele>5880.5</ele>
    <time>2026-06-23T04:58:53Z</time>
   </trkpt>
   <trkpt lat="-3.0764070" lon="37.3540400">
    <ele>5880.5</ele>
    <time>2026-06-23T04:58:54Z</time>
   </trkpt>
   <trkpt lat="-3.0764080" lon="37.3540400">
    <ele>5880.5</ele>
    <time>2026-06-23T04:58:55Z</time>
   </trkpt>
   <trkpt lat="-3.0764080" lon="37.3540400">
    <ele>5880.5</ele>
    <time>2026-06-23T04:58:56Z</time>
   </trkpt>
   <trkpt lat="-3.0764080" lon="37.3540400">
    <ele>5880.5</ele>
    <time>2026-06-23T04:58:57Z</time>
   </trkpt>
   <trkpt lat="-3.0764070" lon="37.3540410">
    <ele>5880.5</ele>
    <time>2026-06-23T04:58:58Z</time>
   </trkpt>
   <trkpt lat="-3.0764070" lon="37.3540410">
    <ele>5880.5</ele>
    <time>2026-06-23T04:58:59Z</time>
   </trkpt>
   <trkpt lat="-3.0764070" lon="37.3540410">
    <ele>5880.5</ele>
    <time>2026-06-23T04:59:00Z</time>
   </trkpt>
   <trkpt lat="-3.0764070" lon="37.3540400">
    <ele>5880.5</ele>
    <time>2026-06-23T04:59:01Z</time>
   </trkpt>
   <trkpt lat="-3.0764070" lon="37.3540410">
    <ele>5880.5</ele>
    <time>2026-06-23T04:59:02Z</time>
   </trkpt>
   <trkpt lat="-3.0764080" lon="37.3540410">
    <ele>5880.5</ele>
    <time>2026-06-23T04:59:03Z</time>
   </trkpt>
   <trkpt lat="-3.0764060" lon="37.3540420">
    <ele>5880.6</ele>
    <time>2026-06-23T04:59:04Z</time>
   </trkpt>
   <trkpt lat="-3.0764060" lon="37.3540440">
    <ele>5880.6</ele>
    <time>2026-06-23T04:59:05Z</time>
   </trkpt>
   <trkpt lat="-3.0764070" lon="37.3540440">
    <ele>5880.6</ele>
    <time>2026-06-23T04:59:06Z</time>
   </trkpt>
   <trkpt lat="-3.0764090" lon="37.3540430">
    <ele>5880.6</ele>
    <time>2026-06-23T04:59:07Z</time>
   </trkpt>
   <trkpt lat="-3.0764100" lon="37.3540420">
    <ele>5880.6</ele>
    <time>2026-06-23T04:59:08Z</time>
   </trkpt>
   <trkpt lat="-3.0764080" lon="37.3540430">
    <ele>5880.6</ele>
    <time>2026-06-23T04:59:09Z</time>
   </trkpt>
   <trkpt lat="-3.0764090" lon="37.3540430">
    <ele>5880.6</ele>
    <time>2026-06-23T04:59:10Z</time>
   </trkpt>
   <trkpt lat="-3.0764080" lon="37.3540440">
    <ele>5880.6</ele>
    <time>2026-06-23T04:59:11Z</time>
   </trkpt>
   <trkpt lat="-3.0764090" lon="37.3540430">
    <ele>5880.6</ele>
    <time>2026-06-23T04:59:12Z</time>
   </trkpt>
   <trkpt lat="-3.0764080" lon="37.3540420">
    <ele>5880.6</ele>
    <time>2026-06-23T04:59:13Z</time>
   </trkpt>
   <trkpt lat="-3.0764090" lon="37.3540430">
    <ele>5880.6</ele>
    <time>2026-06-23T04:59:14Z</time>
   </trkpt>
   <trkpt lat="-3.0764090" lon="37.3540440">
    <ele>5880.6</ele>
    <time>2026-06-23T04:59:15Z</time>
   </trkpt>
   <trkpt lat="-3.0764060" lon="37.3540520">
    <ele>5880.6</ele>
    <time>2026-06-23T04:59:16Z</time>
   </trkpt>
   <trkpt lat="-3.0764070" lon="37.3540680">
    <ele>5880.7</ele>
    <time>2026-06-23T04:59:17Z</time>
   </trkpt>
   <trkpt lat="-3.0764190" lon="37.3540750">
    <ele>5880.7</ele>
    <time>2026-06-23T04:59:18Z</time>
   </trkpt>
   <trkpt lat="-3.0764260" lon="37.3540710">
    <ele>5880.7</ele>
    <time>2026-06-23T04:59:19Z</time>
   </trkpt>
   <trkpt lat="-3.0764210" lon="37.3540730">
    <ele>5880.7</ele>
    <time>2026-06-23T04:59:20Z</time>
   </trkpt>
   <trkpt lat="-3.0764200" lon="37.3540720">
    <ele>5880.7</ele>
    <time>2026-06-23T04:59:21Z</time>
   </trkpt>
   <trkpt lat="-3.0764170" lon="37.3540720">
    <ele>5880.8</ele>
    <time>2026-06-23T04:59:22Z</time>
   </trkpt>
   <trkpt lat="-3.0764200" lon="37.3540720">
    <ele>5880.8</ele>
    <time>2026-06-23T04:59:23Z</time>
   </trkpt>
   <trkpt lat="-3.0764170" lon="37.3540730">
    <ele>5880.8</ele>
    <time>2026-06-23T04:59:24Z</time>
   </trkpt>
   <trkpt lat="-3.0764170" lon="37.3540730">
    <ele>5880.8</ele>
    <time>2026-06-23T04:59:25Z</time>
   </trkpt>
   <trkpt lat="-3.0764180" lon="37.3540740">
    <ele>5880.8</ele>
    <time>2026-06-23T04:59:26Z</time>
   </trkpt>
   <trkpt lat="-3.0764180" lon="37.3540740">
    <ele>5880.8</ele>
    <time>2026-06-23T04:59:27Z</time>
   </trkpt>
   <trkpt lat="-3.0764180" lon="37.3540740">
    <ele>5880.8</ele>
    <time>2026-06-23T04:59:28Z</time>
   </trkpt>
   <trkpt lat="-3.0764170" lon="37.3540740">
    <ele>5880.8</ele>
    <time>2026-06-23T04:59:29Z</time>
   </trkpt>
   <trkpt lat="-3.0764170" lon="37.3540750">
    <ele>5880.8</ele>
    <time>2026-06-23T04:59:30Z</time>
   </trkpt>
   <trkpt lat="-3.0764170" lon="37.3540750">
    <ele>5880.8</ele>
    <time>2026-06-23T04:59:31Z</time>
   </trkpt>
   <trkpt lat="-3.0764170" lon="37.3540760">
    <ele>5880.8</ele>
    <time>2026-06-23T04:59:32Z</time>
   </trkpt>
   <trkpt lat="-3.0764180" lon="37.3540760">
    <ele>5880.8</ele>
    <time>2026-06-23T04:59:33Z</time>
   </trkpt>
   <trkpt lat="-3.0764180" lon="37.3540760">
    <ele>5880.8</ele>
    <time>2026-06-23T04:59:34Z</time>
   </trkpt>
   <trkpt lat="-3.0764170" lon="37.3540760">
    <ele>5880.8</ele>
    <time>2026-06-23T04:59:35Z</time>
   </trkpt>
   <trkpt lat="-3.0764150" lon="37.3540740">
    <ele>5880.8</ele>
    <time>2026-06-23T04:59:36Z</time>
   </trkpt>
   <trkpt lat="-3.0764140" lon="37.3540710">
    <ele>5880.8</ele>
    <time>2026-06-23T04:59:37Z</time>
   </trkpt>
   <trkpt lat="-3.0764120" lon="37.3540670">
    <ele>5880.8</ele>
    <time>2026-06-23T04:59:38Z</time>
   </trkpt>
   <trkpt lat="-3.0764120" lon="37.3540670">
    <ele>5880.8</ele>
    <time>2026-06-23T04:59:39Z</time>
   </trkpt>
   <trkpt lat="-3.0764150" lon="37.3540700">
    <ele>5880.8</ele>
    <time>2026-06-23T04:59:40Z</time>
   </trkpt>
   <trkpt lat="-3.0764140" lon="37.3540710">
    <ele>5880.8</ele>
    <time>2026-06-23T04:59:41Z</time>
   </trkpt>
   <trkpt lat="-3.0764110" lon="37.3540670">
    <ele>5880.9</ele>
    <time>2026-06-23T04:59:42Z</time>
   </trkpt>
   <trkpt lat="-3.0764110" lon="37.3540630">
    <ele>5880.9</ele>
    <time>2026-06-23T04:59:43Z</time>
   </trkpt>
   <trkpt lat="-3.0764110" lon="37.3540570">
    <ele>5880.9</ele>
    <time>2026-06-23T04:59:44Z</time>
   </trkpt>
   <trkpt lat="-3.0764110" lon="37.3540550">
    <ele>5880.9</ele>
    <time>2026-06-23T04:59:45Z</time>
   </trkpt>
   <trkpt lat="-3.0764100" lon="37.3540560">
    <ele>5880.9</ele>
    <time>2026-06-23T04:59:46Z</time>
   </trkpt>
   <trkpt lat="-3.0764100" lon="37.3540560">
    <ele>5880.9</ele>
    <time>2026-06-23T04:59:47Z</time>
   </trkpt>
   <trkpt lat="-3.0764100" lon="37.3540560">
    <ele>5880.9</ele>
    <time>2026-06-23T04:59:48Z</time>
   </trkpt>
   <trkpt lat="-3.0764090" lon="37.3540560">
    <ele>5880.9</ele>
    <time>2026-06-23T04:59:49Z</time>
   </trkpt>
   <trkpt lat="-3.0764090" lon="37.3540570">
    <ele>5880.9</ele>
    <time>2026-06-23T04:59:50Z</time>
   </trkpt>
   <trkpt lat="-3.0764080" lon="37.3540590">
    <ele>5880.9</ele>
    <time>2026-06-23T04:59:51Z</time>
   </trkpt>
   <trkpt lat="-3.0764060" lon="37.3540650">
    <ele>5880.9</ele>
    <time>2026-06-23T04:59:52Z</time>
   </trkpt>
   <trkpt lat="-3.0764100" lon="37.3540740">
    <ele>5880.9</ele>
    <time>2026-06-23T04:59:53Z</time>
   </trkpt>
   <trkpt lat="-3.0764180" lon="37.3540800">
    <ele>5880.9</ele>
    <time>2026-06-23T04:59:54Z</time>
   </trkpt>
   <trkpt lat="-3.0764230" lon="37.3540830">
    <ele>5880.9</ele>
    <time>2026-06-23T04:59:55Z</time>
   </trkpt>
   <trkpt lat="-3.0764250" lon="37.3540830">
    <ele>5880.9</ele>
    <time>2026-06-23T04:59:56Z</time>
   </trkpt>
   <trkpt lat="-3.0764250" lon="37.3540810">
    <ele>5880.9</ele>
    <time>2026-06-23T04:59:57Z</time>
   </trkpt>
   <trkpt lat="-3.0764250" lon="37.3540790">
    <ele>5880.9</ele>
    <time>2026-06-23T04:59:58Z</time>
   </trkpt>
   <trkpt lat="-3.0764270" lon="37.3540810">
    <ele>5880.8</ele>
    <time>2026-06-23T04:59:59Z</time>
   </trkpt>
   <trkpt lat="-3.0764240" lon="37.3540810">
    <ele>5880.8</ele>
    <time>2026-06-23T05:00:00Z</time>
   </trkpt>
   <trkpt lat="-3.0764270" lon="37.3540820">
    <ele>5880.8</ele>
    <time>2026-06-23T05:00:01Z</time>
   </trkpt>
   <trkpt lat="-3.0764260" lon="37.3540820">
    <ele>5880.8</ele>
    <time>2026-06-23T05:00:02Z</time>
   </trkpt>
   <trkpt lat="-3.0764260" lon="37.3540830">
    <ele>5880.8</ele>
    <time>2026-06-23T05:00:03Z</time>
   </trkpt>
   <trkpt lat="-3.0764250" lon="37.3540830">
    <ele>5880.8</ele>
    <time>2026-06-23T05:00:04Z</time>
   </trkpt>
   <trkpt lat="-3.0764240" lon="37.3540810">
    <ele>5880.8</ele>
    <time>2026-06-23T05:00:06Z</time>
   </trkpt>
   <trkpt lat="-3.0764260" lon="37.3540820">
    <ele>5880.8</ele>
    <time>2026-06-23T05:00:07Z</time>
   </trkpt>
   <trkpt lat="-3.0764230" lon="37.3540780">
    <ele>5880.8</ele>
    <time>2026-06-23T05:00:08Z</time>
   </trkpt>
   <trkpt lat="-3.0764270" lon="37.3540830">
    <ele>5880.8</ele>
    <time>2026-06-23T05:00:09Z</time>
   </trkpt>
   <trkpt lat="-3.0764270" lon="37.3540850">
    <ele>5880.8</ele>
    <time>2026-06-23T05:00:10Z</time>
   </trkpt>
   <trkpt lat="-3.0764270" lon="37.3540810">
    <ele>5880.8</ele>
    <time>2026-06-23T05:00:11Z</time>
   </trkpt>
   <trkpt lat="-3.0764270" lon="37.3540820">
    <ele>5880.8</ele>
    <time>2026-06-23T05:00:12Z</time>
   </trkpt>
   <trkpt lat="-3.0764270" lon="37.3540820">
    <ele>5880.8</ele>
    <time>2026-06-23T05:00:13Z</time>
   </trkpt>
   <trkpt lat="-3.0764270" lon="37.3540810">
    <ele>5880.8</ele>
    <time>2026-06-23T05:00:14Z</time>
   </trkpt>
   <trkpt lat="-3.0764220" lon="37.3540790">
    <ele>5880.7</ele>
    <time>2026-06-23T05:00:15Z</time>
   </trkpt>
   <trkpt lat="-3.0764220" lon="37.3540790">
    <ele>5880.7</ele>
    <time>2026-06-23T05:00:16Z</time>
   </trkpt>
   <trkpt lat="-3.0764220" lon="37.3540810">
    <ele>5880.7</ele>
    <time>2026-06-23T05:00:17Z</time>
   </trkpt>
   <trkpt lat="-3.0764230" lon="37.3540810">
    <ele>5880.7</ele>
    <time>2026-06-23T05:00:18Z</time>
   </trkpt>
   <trkpt lat="-3.0764220" lon="37.3540810">
    <ele>5880.7</ele>
    <time>2026-06-23T05:00:19Z</time>
   </trkpt>
   <trkpt lat="-3.0764220" lon="37.3540810">
    <ele>5880.7</ele>
    <time>2026-06-23T05:00:20Z</time>
   </trkpt>
   <trkpt lat="-3.0764230" lon="37.3540790">
    <ele>5880.7</ele>
    <time>2026-06-23T05:00:21Z</time>
   </trkpt>
   <trkpt lat="-3.0764230" lon="37.3540780">
    <ele>5880.7</ele>
    <time>2026-06-23T05:00:22Z</time>
   </trkpt>
   <trkpt lat="-3.0764240" lon="37.3540790">
    <ele>5880.7</ele>
    <time>2026-06-23T05:00:23Z</time>
   </trkpt>
   <trkpt lat="-3.0764250" lon="37.3540800">
    <ele>5880.7</ele>
    <time>2026-06-23T05:00:24Z</time>
   </trkpt>
   <trkpt lat="-3.0764260" lon="37.3540790">
    <ele>5880.7</ele>
    <time>2026-06-23T05:00:25Z</time>
   </trkpt>
   <trkpt lat="-3.0764260" lon="37.3540790">
    <ele>5880.7</ele>
    <time>2026-06-23T05:00:26Z</time>
   </trkpt>
   <trkpt lat="-3.0764260" lon="37.3540780">
    <ele>5880.7</ele>
    <time>2026-06-23T05:00:27Z</time>
   </trkpt>
   <trkpt lat="-3.0764260" lon="37.3540790">
    <ele>5880.7</ele>
    <time>2026-06-23T05:00:28Z</time>
   </trkpt>
   <trkpt lat="-3.0764260" lon="37.3540780">
    <ele>5880.7</ele>
    <time>2026-06-23T05:00:29Z</time>
   </trkpt>
   <trkpt lat="-3.0764250" lon="37.3540780">
    <ele>5880.7</ele>
    <time>2026-06-23T05:00:30Z</time>
   </trkpt>
   <trkpt lat="-3.0764250" lon="37.3540780">
    <ele>5880.7</ele>
    <time>2026-06-23T05:00:31Z</time>
   </trkpt>
   <trkpt lat="-3.0764250" lon="37.3540790">
    <ele>5880.7</ele>
    <time>2026-06-23T05:00:32Z</time>
   </trkpt>
   <trkpt lat="-3.0764250" lon="37.3540790">
    <ele>5880.7</ele>
    <time>2026-06-23T05:00:33Z</time>
   </trkpt>
   <trkpt lat="-3.0764240" lon="37.3540790">
    <ele>5880.7</ele>
    <time>2026-06-23T05:00:34Z</time>
   </trkpt>
   <trkpt lat="-3.0764220" lon="37.3540770">
    <ele>5880.7</ele>
    <time>2026-06-23T05:00:35Z</time>
   </trkpt>
   <trkpt lat="-3.0764210" lon="37.3540760">
    <ele>5880.7</ele>
    <time>2026-06-23T05:00:36Z</time>
   </trkpt>
   <trkpt lat="-3.0764200" lon="37.3540760">
    <ele>5880.7</ele>
    <time>2026-06-23T05:00:37Z</time>
   </trkpt>
   <trkpt lat="-3.0764210" lon="37.3540760">
    <ele>5880.7</ele>
    <time>2026-06-23T05:00:38Z</time>
   </trkpt>
   <trkpt lat="-3.0764210" lon="37.3540770">
    <ele>5880.7</ele>
    <time>2026-06-23T05:00:39Z</time>
   </trkpt>
   <trkpt lat="-3.0764240" lon="37.3540790">
    <ele>5880.7</ele>
    <time>2026-06-23T05:00:40Z</time>
   </trkpt>
   <trkpt lat="-3.0764210" lon="37.3540800">
    <ele>5880.7</ele>
    <time>2026-06-23T05:00:41Z</time>
   </trkpt>
   <trkpt lat="-3.0764170" lon="37.3540780">
    <ele>5880.7</ele>
    <time>2026-06-23T05:00:42Z</time>
   </trkpt>
   <trkpt lat="-3.0764110" lon="37.3540720">
    <ele>5880.6</ele>
    <time>2026-06-23T05:00:43Z</time>
   </trkpt>
   <trkpt lat="-3.0764100" lon="37.3540610">
    <ele>5880.6</ele>
    <time>2026-06-23T05:00:44Z</time>
   </trkpt>
   <trkpt lat="-3.0764080" lon="37.3540540">
    <ele>5880.6</ele>
    <time>2026-06-23T05:00:45Z</time>
   </trkpt>
   <trkpt lat="-3.0764070" lon="37.3540540">
    <ele>5880.6</ele>
    <time>2026-06-23T05:00:46Z</time>
   </trkpt>
   <trkpt lat="-3.0764080" lon="37.3540580">
    <ele>5880.6</ele>
    <time>2026-06-23T05:00:47Z</time>
   </trkpt>
   <trkpt lat="-3.0764090" lon="37.3540560">
    <ele>5880.6</ele>
    <time>2026-06-23T05:00:48Z</time>
   </trkpt>
   <trkpt lat="-3.0764090" lon="37.3540550">
    <ele>5880.6</ele>
    <time>2026-06-23T05:00:49Z</time>
   </trkpt>
   <trkpt lat="-3.0764070" lon="37.3540540">
    <ele>5880.6</ele>
    <time>2026-06-23T05:00:50Z</time>
   </trkpt>
   <trkpt lat="-3.0764080" lon="37.3540530">
    <ele>5880.6</ele>
    <time>2026-06-23T05:00:51Z</time>
   </trkpt>
   <trkpt lat="-3.0764070" lon="37.3540520">
    <ele>5880.5</ele>
    <time>2026-06-23T05:00:52Z</time>
   </trkpt>
   <trkpt lat="-3.0764070" lon="37.3540510">
    <ele>5880.5</ele>
    <time>2026-06-23T05:00:53Z</time>
   </trkpt>
   <trkpt lat="-3.0764150" lon="37.3540530">
    <ele>5880.5</ele>
    <time>2026-06-23T05:00:54Z</time>
   </trkpt>
   <trkpt lat="-3.0764070" lon="37.3540510">
    <ele>5880.5</ele>
    <time>2026-06-23T05:00:55Z</time>
   </trkpt>
   <trkpt lat="-3.0764070" lon="37.3540510">
    <ele>5880.5</ele>
    <time>2026-06-23T05:00:56Z</time>
   </trkpt>
   <trkpt lat="-3.0764060" lon="37.3540480">
    <ele>5880.5</ele>
    <time>2026-06-23T05:00:57Z</time>
   </trkpt>
   <trkpt lat="-3.0764080" lon="37.3540470">
    <ele>5880.5</ele>
    <time>2026-06-23T05:00:58Z</time>
   </trkpt>
   <trkpt lat="-3.0764060" lon="37.3540460">
    <ele>5880.5</ele>
    <time>2026-06-23T05:00:59Z</time>
   </trkpt>
   <trkpt lat="-3.0764060" lon="37.3540460">
    <ele>5880.5</ele>
    <time>2026-06-23T05:01:00Z</time>
   </trkpt>
   <trkpt lat="-3.0764080" lon="37.3540450">
    <ele>5880.5</ele>
    <time>2026-06-23T05:01:01Z</time>
   </trkpt>
   <trkpt lat="-3.0764070" lon="37.3540450">
    <ele>5880.5</ele>
    <time>2026-06-23T05:01:02Z</time>
   </trkpt>
   <trkpt lat="-3.0764070" lon="37.3540450">
    <ele>5880.5</ele>
    <time>2026-06-23T05:01:03Z</time>
   </trkpt>
   <trkpt lat="-3.0764080" lon="37.3540440">
    <ele>5880.5</ele>
    <time>2026-06-23T05:01:04Z</time>
   </trkpt>
   <trkpt lat="-3.0764080" lon="37.3540440">
    <ele>5880.5</ele>
    <time>2026-06-23T05:01:05Z</time>
   </trkpt>
   <trkpt lat="-3.0764090" lon="37.3540440">
    <ele>5880.5</ele>
    <time>2026-06-23T05:01:06Z</time>
   </trkpt>
   <trkpt lat="-3.0764120" lon="37.3540440">
    <ele>5880.5</ele>
    <time>2026-06-23T05:01:07Z</time>
   </trkpt>
   <trkpt lat="-3.0764110" lon="37.3540440">
    <ele>5880.5</ele>
    <time>2026-06-23T05:01:08Z</time>
   </trkpt>
   <trkpt lat="-3.0764100" lon="37.3540430">
    <ele>5880.5</ele>
    <time>2026-06-23T05:01:09Z</time>
   </trkpt>
   <trkpt lat="-3.0764110" lon="37.3540430">
    <ele>5880.4</ele>
    <time>2026-06-23T05:01:10Z</time>
   </trkpt>
   <trkpt lat="-3.0764110" lon="37.3540440">
    <ele>5880.4</ele>
    <time>2026-06-23T05:01:11Z</time>
   </trkpt>
   <trkpt lat="-3.0764110" lon="37.3540440">
    <ele>5880.4</ele>
    <time>2026-06-23T05:01:12Z</time>
   </trkpt>
   <trkpt lat="-3.0764130" lon="37.3540440">
    <ele>5880.4</ele>
    <time>2026-06-23T05:01:13Z</time>
   </trkpt>
   <trkpt lat="-3.0764200" lon="37.3540440">
    <ele>5880.4</ele>
    <time>2026-06-23T05:01:14Z</time>
   </trkpt>
   <trkpt lat="-3.0764190" lon="37.3540460">
    <ele>5880.4</ele>
    <time>2026-06-23T05:01:15Z</time>
   </trkpt>
   <trkpt lat="-3.0764170" lon="37.3540470">
    <ele>5880.4</ele>
    <time>2026-06-23T05:01:16Z</time>
   </trkpt>
   <trkpt lat="-3.0764170" lon="37.3540490">
    <ele>5880.4</ele>
    <time>2026-06-23T05:01:17Z</time>
   </trkpt>
   <trkpt lat="-3.0764160" lon="37.3540490">
    <ele>5880.4</ele>
    <time>2026-06-23T05:01:18Z</time>
   </trkpt>
   <trkpt lat="-3.0764160" lon="37.3540480">
    <ele>5880.4</ele>
    <time>2026-06-23T05:01:19Z</time>
   </trkpt>
   <trkpt lat="-3.0764170" lon="37.3540510">
    <ele>5880.4</ele>
    <time>2026-06-23T05:01:20Z</time>
   </trkpt>
   <trkpt lat="-3.0764260" lon="37.3540540">
    <ele>5880.4</ele>
    <time>2026-06-23T05:01:21Z</time>
   </trkpt>
   <trkpt lat="-3.0764300" lon="37.3540570">
    <ele>5880.4</ele>
    <time>2026-06-23T05:01:22Z</time>
   </trkpt>
   <trkpt lat="-3.0764350" lon="37.3540610">
    <ele>5880.3</ele>
    <time>2026-06-23T05:01:23Z</time>
   </trkpt>
   <trkpt lat="-3.0764360" lon="37.3540620">
    <ele>5880.3</ele>
    <time>2026-06-23T05:01:24Z</time>
   </trkpt>
   <trkpt lat="-3.0764350" lon="37.3540610">
    <ele>5880.3</ele>
    <time>2026-06-23T05:01:25Z</time>
   </trkpt>
   <trkpt lat="-3.0764350" lon="37.3540610">
    <ele>5880.3</ele>
    <time>2026-06-23T05:01:26Z</time>
   </trkpt>
   <trkpt lat="-3.0764350" lon="37.3540610">
    <ele>5880.3</ele>
    <time>2026-06-23T05:01:27Z</time>
   </trkpt>
   <trkpt lat="-3.0764370" lon="37.3540650">
    <ele>5880.3</ele>
    <time>2026-06-23T05:01:28Z</time>
   </trkpt>
   <trkpt lat="-3.0764370" lon="37.3540680">
    <ele>5880.3</ele>
    <time>2026-06-23T05:01:29Z</time>
   </trkpt>
   <trkpt lat="-3.0764360" lon="37.3540650">
    <ele>5880.3</ele>
    <time>2026-06-23T05:01:30Z</time>
   </trkpt>
   <trkpt lat="-3.0764400" lon="37.3540640">
    <ele>5880.3</ele>
    <time>2026-06-23T05:01:31Z</time>
   </trkpt>
   <trkpt lat="-3.0764390" lon="37.3540630">
    <ele>5880.3</ele>
    <time>2026-06-23T05:01:32Z</time>
   </trkpt>
   <trkpt lat="-3.0764390" lon="37.3540640">
    <ele>5880.3</ele>
    <time>2026-06-23T05:01:33Z</time>
   </trkpt>
   <trkpt lat="-3.0764400" lon="37.3540650">
    <ele>5880.3</ele>
    <time>2026-06-23T05:01:34Z</time>
   </trkpt>
   <trkpt lat="-3.0764390" lon="37.3540650">
    <ele>5880.3</ele>
    <time>2026-06-23T05:01:35Z</time>
   </trkpt>
   <trkpt lat="-3.0764400" lon="37.3540670">
    <ele>5880.3</ele>
    <time>2026-06-23T05:01:36Z</time>
   </trkpt>
   <trkpt lat="-3.0764420" lon="37.3540690">
    <ele>5880.2</ele>
    <time>2026-06-23T05:01:37Z</time>
   </trkpt>
   <trkpt lat="-3.0764400" lon="37.3540680">
    <ele>5880.2</ele>
    <time>2026-06-23T05:01:38Z</time>
   </trkpt>
   <trkpt lat="-3.0764400" lon="37.3540680">
    <ele>5880.2</ele>
    <time>2026-06-23T05:01:39Z</time>
   </trkpt>
   <trkpt lat="-3.0764400" lon="37.3540690">
    <ele>5880.2</ele>
    <time>2026-06-23T05:01:40Z</time>
   </trkpt>
   <trkpt lat="-3.0764400" lon="37.3540700">
    <ele>5880.2</ele>
    <time>2026-06-23T05:01:41Z</time>
   </trkpt>
   <trkpt lat="-3.0764400" lon="37.3540690">
    <ele>5880.2</ele>
    <time>2026-06-23T05:01:42Z</time>
   </trkpt>
   <trkpt lat="-3.0764400" lon="37.3540700">
    <ele>5880.2</ele>
    <time>2026-06-23T05:01:43Z</time>
   </trkpt>
   <trkpt lat="-3.0764390" lon="37.3540700">
    <ele>5880.2</ele>
    <time>2026-06-23T05:01:44Z</time>
   </trkpt>
   <trkpt lat="-3.0764380" lon="37.3540700">
    <ele>5880.2</ele>
    <time>2026-06-23T05:01:45Z</time>
   </trkpt>
   <trkpt lat="-3.0764400" lon="37.3540710">
    <ele>5880.2</ele>
    <time>2026-06-23T05:01:46Z</time>
   </trkpt>
   <trkpt lat="-3.0764400" lon="37.3540710">
    <ele>5880.2</ele>
    <time>2026-06-23T05:01:47Z</time>
   </trkpt>
   <trkpt lat="-3.0764430" lon="37.3540720">
    <ele>5880.2</ele>
    <time>2026-06-23T05:01:48Z</time>
   </trkpt>
   <trkpt lat="-3.0764400" lon="37.3540740">
    <ele>5880.2</ele>
    <time>2026-06-23T05:01:49Z</time>
   </trkpt>
   <trkpt lat="-3.0764370" lon="37.3540750">
    <ele>5880.2</ele>
    <time>2026-06-23T05:01:50Z</time>
   </trkpt>
   <trkpt lat="-3.0764360" lon="37.3540760">
    <ele>5880.2</ele>
    <time>2026-06-23T05:01:51Z</time>
   </trkpt>
   <trkpt lat="-3.0764360" lon="37.3540760">
    <ele>5880.2</ele>
    <time>2026-06-23T05:01:52Z</time>
   </trkpt>
   <trkpt lat="-3.0764370" lon="37.3540760">
    <ele>5880.2</ele>
    <time>2026-06-23T05:01:53Z</time>
   </trkpt>
   <trkpt lat="-3.0764360" lon="37.3540760">
    <ele>5880.2</ele>
    <time>2026-06-23T05:01:54Z</time>
   </trkpt>
   <trkpt lat="-3.0764360" lon="37.3540760">
    <ele>5880.2</ele>
    <time>2026-06-23T05:01:55Z</time>
   </trkpt>
   <trkpt lat="-3.0764360" lon="37.3540760">
    <ele>5880.2</ele>
    <time>2026-06-23T05:01:56Z</time>
   </trkpt>
   <trkpt lat="-3.0764360" lon="37.3540770">
    <ele>5880.2</ele>
    <time>2026-06-23T05:01:57Z</time>
   </trkpt>
   <trkpt lat="-3.0764350" lon="37.3540760">
    <ele>5880.1</ele>
    <time>2026-06-23T05:01:58Z</time>
   </trkpt>
   <trkpt lat="-3.0764340" lon="37.3540750">
    <ele>5880.1</ele>
    <time>2026-06-23T05:01:59Z</time>
   </trkpt>
   <trkpt lat="-3.0764320" lon="37.3540760">
    <ele>5880.1</ele>
    <time>2026-06-23T05:02:00Z</time>
   </trkpt>
   <trkpt lat="-3.0764300" lon="37.3540760">
    <ele>5880.1</ele>
    <time>2026-06-23T05:02:01Z</time>
   </trkpt>
   <trkpt lat="-3.0764290" lon="37.3540790">
    <ele>5880.1</ele>
    <time>2026-06-23T05:02:02Z</time>
   </trkpt>
   <trkpt lat="-3.0764280" lon="37.3540800">
    <ele>5880.1</ele>
    <time>2026-06-23T05:02:03Z</time>
   </trkpt>
   <trkpt lat="-3.0764280" lon="37.3540810">
    <ele>5880.1</ele>
    <time>2026-06-23T05:02:04Z</time>
   </trkpt>
   <trkpt lat="-3.0764280" lon="37.3540820">
    <ele>5880.1</ele>
    <time>2026-06-23T05:02:05Z</time>
   </trkpt>
   <trkpt lat="-3.0764280" lon="37.3540820">
    <ele>5880.1</ele>
    <time>2026-06-23T05:02:06Z</time>
   </trkpt>
   <trkpt lat="-3.0764280" lon="37.3540830">
    <ele>5880.1</ele>
    <time>2026-06-23T05:02:07Z</time>
   </trkpt>
   <trkpt lat="-3.0764310" lon="37.3540840">
    <ele>5880.1</ele>
    <time>2026-06-23T05:02:08Z</time>
   </trkpt>
   <trkpt lat="-3.0764300" lon="37.3540840">
    <ele>5880.1</ele>
    <time>2026-06-23T05:02:09Z</time>
   </trkpt>
   <trkpt lat="-3.0764310" lon="37.3540840">
    <ele>5880.1</ele>
    <time>2026-06-23T05:02:10Z</time>
   </trkpt>
   <trkpt lat="-3.0764310" lon="37.3540830">
    <ele>5880.1</ele>
    <time>2026-06-23T05:02:12Z</time>
   </trkpt>
   <trkpt lat="-3.0764300" lon="37.3540840">
    <ele>5880.1</ele>
    <time>2026-06-23T05:02:13Z</time>
   </trkpt>
   <trkpt lat="-3.0764300" lon="37.3540860">
    <ele>5880.1</ele>
    <time>2026-06-23T05:02:14Z</time>
   </trkpt>
   <trkpt lat="-3.0764290" lon="37.3540860">
    <ele>5880.1</ele>
    <time>2026-06-23T05:02:15Z</time>
   </trkpt>
   <trkpt lat="-3.0764320" lon="37.3540860">
    <ele>5880.1</ele>
    <time>2026-06-23T05:02:16Z</time>
   </trkpt>
   <trkpt lat="-3.0764320" lon="37.3540880">
    <ele>5880.0</ele>
    <time>2026-06-23T05:02:17Z</time>
   </trkpt>
   <trkpt lat="-3.0764310" lon="37.3540870">
    <ele>5880.0</ele>
    <time>2026-06-23T05:02:18Z</time>
   </trkpt>
   <trkpt lat="-3.0764290" lon="37.3540870">
    <ele>5880.0</ele>
    <time>2026-06-23T05:02:19Z</time>
   </trkpt>
   <trkpt lat="-3.0764300" lon="37.3540880">
    <ele>5880.0</ele>
    <time>2026-06-23T05:02:20Z</time>
   </trkpt>
   <trkpt lat="-3.0764330" lon="37.3540900">
    <ele>5880.0</ele>
    <time>2026-06-23T05:02:21Z</time>
   </trkpt>
   <trkpt lat="-3.0764300" lon="37.3540880">
    <ele>5880.0</ele>
    <time>2026-06-23T05:02:22Z</time>
   </trkpt>
   <trkpt lat="-3.0764290" lon="37.3540870">
    <ele>5880.0</ele>
    <time>2026-06-23T05:02:23Z</time>
   </trkpt>
   <trkpt lat="-3.0764240" lon="37.3540870">
    <ele>5880.0</ele>
    <time>2026-06-23T05:02:24Z</time>
   </trkpt>
   <trkpt lat="-3.0764290" lon="37.3540880">
    <ele>5880.0</ele>
    <time>2026-06-23T05:02:25Z</time>
   </trkpt>
   <trkpt lat="-3.0764270" lon="37.3540880">
    <ele>5879.9</ele>
    <time>2026-06-23T05:02:26Z</time>
   </trkpt>
   <trkpt lat="-3.0764260" lon="37.3540880">
    <ele>5879.9</ele>
    <time>2026-06-23T05:02:27Z</time>
   </trkpt>
   <trkpt lat="-3.0764260" lon="37.3540870">
    <ele>5879.9</ele>
    <time>2026-06-23T05:02:28Z</time>
   </trkpt>
   <trkpt lat="-3.0764260" lon="37.3540870">
    <ele>5879.9</ele>
    <time>2026-06-23T05:02:29Z</time>
   </trkpt>
   <trkpt lat="-3.0764260" lon="37.3540870">
    <ele>5879.9</ele>
    <time>2026-06-23T05:02:30Z</time>
   </trkpt>
   <trkpt lat="-3.0764260" lon="37.3540880">
    <ele>5879.9</ele>
    <time>2026-06-23T05:02:31Z</time>
   </trkpt>
   <trkpt lat="-3.0764260" lon="37.3540870">
    <ele>5879.9</ele>
    <time>2026-06-23T05:02:32Z</time>
   </trkpt>
   <trkpt lat="-3.0764260" lon="37.3540870">
    <ele>5879.9</ele>
    <time>2026-06-23T05:02:33Z</time>
   </trkpt>
   <trkpt lat="-3.0764260" lon="37.3540860">
    <ele>5879.9</ele>
    <time>2026-06-23T05:02:34Z</time>
   </trkpt>
   <trkpt lat="-3.0764290" lon="37.3540880">
    <ele>5879.9</ele>
    <time>2026-06-23T05:02:35Z</time>
   </trkpt>
   <trkpt lat="-3.0764290" lon="37.3540850">
    <ele>5879.9</ele>
    <time>2026-06-23T05:02:36Z</time>
   </trkpt>
   <trkpt lat="-3.0764280" lon="37.3540830">
    <ele>5879.9</ele>
    <time>2026-06-23T05:02:37Z</time>
   </trkpt>
   <trkpt lat="-3.0764280" lon="37.3540830">
    <ele>5879.9</ele>
    <time>2026-06-23T05:02:38Z</time>
   </trkpt>
   <trkpt lat="-3.0764270" lon="37.3540830">
    <ele>5879.9</ele>
    <time>2026-06-23T05:02:39Z</time>
   </trkpt>
   <trkpt lat="-3.0764270" lon="37.3540830">
    <ele>5879.9</ele>
    <time>2026-06-23T05:02:40Z</time>
   </trkpt>
   <trkpt lat="-3.0764270" lon="37.3540830">
    <ele>5879.9</ele>
    <time>2026-06-23T05:02:41Z</time>
   </trkpt>
   <trkpt lat="-3.0764270" lon="37.3540830">
    <ele>5879.9</ele>
    <time>2026-06-23T05:02:42Z</time>
   </trkpt>
   <trkpt lat="-3.0764270" lon="37.3540830">
    <ele>5879.9</ele>
    <time>2026-06-23T05:02:43Z</time>
   </trkpt>
   <trkpt lat="-3.0764270" lon="37.3540830">
    <ele>5879.9</ele>
    <time>2026-06-23T05:02:44Z</time>
   </trkpt>
   <trkpt lat="-3.0764270" lon="37.3540830">
    <ele>5879.9</ele>
    <time>2026-06-23T05:02:45Z</time>
   </trkpt>
   <trkpt lat="-3.0764270" lon="37.3540830">
    <ele>5879.9</ele>
    <time>2026-06-23T05:02:46Z</time>
   </trkpt>
   <trkpt lat="-3.0764270" lon="37.3540830">
    <ele>5879.9</ele>
    <time>2026-06-23T05:02:47Z</time>
   </trkpt>
   <trkpt lat="-3.0764270" lon="37.3540830">
    <ele>5879.9</ele>
    <time>2026-06-23T05:02:48Z</time>
   </trkpt>
   <trkpt lat="-3.0764280" lon="37.3540890">
    <ele>5879.9</ele>
    <time>2026-06-23T05:02:49Z</time>
   </trkpt>
   <trkpt lat="-3.0764290" lon="37.3540890">
    <ele>5879.9</ele>
    <time>2026-06-23T05:02:50Z</time>
   </trkpt>
   <trkpt lat="-3.0764270" lon="37.3540880">
    <ele>5879.8</ele>
    <time>2026-06-23T05:02:51Z</time>
   </trkpt>
   <trkpt lat="-3.0764260" lon="37.3540860">
    <ele>5879.8</ele>
    <time>2026-06-23T05:02:52Z</time>
   </trkpt>
   <trkpt lat="-3.0764210" lon="37.3540830">
    <ele>5879.8</ele>
    <time>2026-06-23T05:02:53Z</time>
   </trkpt>
   <trkpt lat="-3.0764160" lon="37.3540790">
    <ele>5879.8</ele>
    <time>2026-06-23T05:02:54Z</time>
   </trkpt>
   <trkpt lat="-3.0764140" lon="37.3540760">
    <ele>5879.8</ele>
    <time>2026-06-23T05:02:55Z</time>
   </trkpt>
   <trkpt lat="-3.0764130" lon="37.3540740">
    <ele>5879.8</ele>
    <time>2026-06-23T05:02:56Z</time>
   </trkpt>
   <trkpt lat="-3.0764140" lon="37.3540720">
    <ele>5879.8</ele>
    <time>2026-06-23T05:02:57Z</time>
   </trkpt>
   <trkpt lat="-3.0764100" lon="37.3540670">
    <ele>5879.7</ele>
    <time>2026-06-23T05:02:58Z</time>
   </trkpt>
   <trkpt lat="-3.0764130" lon="37.3540600">
    <ele>5879.7</ele>
    <time>2026-06-23T05:02:59Z</time>
   </trkpt>
   <trkpt lat="-3.0764120" lon="37.3540570">
    <ele>5879.7</ele>
    <time>2026-06-23T05:03:00Z</time>
   </trkpt>
   <trkpt lat="-3.0764120" lon="37.3540550">
    <ele>5879.7</ele>
    <time>2026-06-23T05:03:01Z</time>
   </trkpt>
   <trkpt lat="-3.0764140" lon="37.3540550">
    <ele>5879.7</ele>
    <time>2026-06-23T05:03:02Z</time>
   </trkpt>
   <trkpt lat="-3.0764230" lon="37.3540580">
    <ele>5879.6</ele>
    <time>2026-06-23T05:03:03Z</time>
   </trkpt>
   <trkpt lat="-3.0764350" lon="37.3540630">
    <ele>5879.6</ele>
    <time>2026-06-23T05:03:04Z</time>
   </trkpt>
   <trkpt lat="-3.0764200" lon="37.3540590">
    <ele>5879.5</ele>
    <time>2026-06-23T05:03:05Z</time>
   </trkpt>
   <trkpt lat="-3.0764190" lon="37.3540610">
    <ele>5879.5</ele>
    <time>2026-06-23T05:03:06Z</time>
   </trkpt>
   <trkpt lat="-3.0764180" lon="37.3540620">
    <ele>5879.5</ele>
    <time>2026-06-23T05:03:07Z</time>
   </trkpt>
   <trkpt lat="-3.0764190" lon="37.3540610">
    <ele>5879.5</ele>
    <time>2026-06-23T05:03:08Z</time>
   </trkpt>
   <trkpt lat="-3.0764190" lon="37.3540600">
    <ele>5879.5</ele>
    <time>2026-06-23T05:03:09Z</time>
   </trkpt>
   <trkpt lat="-3.0764160" lon="37.3540600">
    <ele>5879.4</ele>
    <time>2026-06-23T05:03:10Z</time>
   </trkpt>
   <trkpt lat="-3.0764150" lon="37.3540610">
    <ele>5879.4</ele>
    <time>2026-06-23T05:03:11Z</time>
   </trkpt>
   <trkpt lat="-3.0764130" lon="37.3540600">
    <ele>5879.4</ele>
    <time>2026-06-23T05:03:12Z</time>
   </trkpt>
   <trkpt lat="-3.0764130" lon="37.3540600">
    <ele>5879.4</ele>
    <time>2026-06-23T05:03:13Z</time>
   </trkpt>
   <trkpt lat="-3.0764140" lon="37.3540590">
    <ele>5879.4</ele>
    <time>2026-06-23T05:03:14Z</time>
   </trkpt>
   <trkpt lat="-3.0764140" lon="37.3540580">
    <ele>5879.4</ele>
    <time>2026-06-23T05:03:15Z</time>
   </trkpt>
   <trkpt lat="-3.0764140" lon="37.3540570">
    <ele>5879.4</ele>
    <time>2026-06-23T05:03:16Z</time>
   </trkpt>
   <trkpt lat="-3.0764140" lon="37.3540570">
    <ele>5879.4</ele>
    <time>2026-06-23T05:03:17Z</time>
   </trkpt>
   <trkpt lat="-3.0764130" lon="37.3540580">
    <ele>5879.4</ele>
    <time>2026-06-23T05:03:18Z</time>
   </trkpt>
   <trkpt lat="-3.0764140" lon="37.3540570">
    <ele>5879.4</ele>
    <time>2026-06-23T05:03:19Z</time>
   </trkpt>
   <trkpt lat="-3.0764140" lon="37.3540560">
    <ele>5879.4</ele>
    <time>2026-06-23T05:03:20Z</time>
   </trkpt>
   <trkpt lat="-3.0764130" lon="37.3540560">
    <ele>5879.4</ele>
    <time>2026-06-23T05:03:21Z</time>
   </trkpt>
   <trkpt lat="-3.0764160" lon="37.3540590">
    <ele>5879.4</ele>
    <time>2026-06-23T05:03:22Z</time>
   </trkpt>
   <trkpt lat="-3.0764180" lon="37.3540590">
    <ele>5879.4</ele>
    <time>2026-06-23T05:03:23Z</time>
   </trkpt>
   <trkpt lat="-3.0764230" lon="37.3540630">
    <ele>5879.3</ele>
    <time>2026-06-23T05:03:24Z</time>
   </trkpt>
   <trkpt lat="-3.0764260" lon="37.3540660">
    <ele>5879.3</ele>
    <time>2026-06-23T05:03:25Z</time>
   </trkpt>
   <trkpt lat="-3.0764280" lon="37.3540650">
    <ele>5879.3</ele>
    <time>2026-06-23T05:03:26Z</time>
   </trkpt>
   <trkpt lat="-3.0764320" lon="37.3540660">
    <ele>5879.3</ele>
    <time>2026-06-23T05:03:27Z</time>
   </trkpt>
   <trkpt lat="-3.0764340" lon="37.3540640">
    <ele>5879.3</ele>
    <time>2026-06-23T05:03:28Z</time>
   </trkpt>
   <trkpt lat="-3.0764360" lon="37.3540630">
    <ele>5879.2</ele>
    <time>2026-06-23T05:03:29Z</time>
   </trkpt>
   <trkpt lat="-3.0764360" lon="37.3540630">
    <ele>5879.2</ele>
    <time>2026-06-23T05:03:30Z</time>
   </trkpt>
   <trkpt lat="-3.0764370" lon="37.3540630">
    <ele>5879.2</ele>
    <time>2026-06-23T05:03:31Z</time>
   </trkpt>
   <trkpt lat="-3.0764360" lon="37.3540630">
    <ele>5879.2</ele>
    <time>2026-06-23T05:03:32Z</time>
   </trkpt>
   <trkpt lat="-3.0764380" lon="37.3540630">
    <ele>5879.2</ele>
    <time>2026-06-23T05:03:33Z</time>
   </trkpt>
   <trkpt lat="-3.0764390" lon="37.3540630">
    <ele>5879.2</ele>
    <time>2026-06-23T05:03:34Z</time>
   </trkpt>
   <trkpt lat="-3.0764380" lon="37.3540650">
    <ele>5879.2</ele>
    <time>2026-06-23T05:03:35Z</time>
   </trkpt>
   <trkpt lat="-3.0764380" lon="37.3540640">
    <ele>5879.2</ele>
    <time>2026-06-23T05:03:36Z</time>
   </trkpt>
   <trkpt lat="-3.0764370" lon="37.3540630">
    <ele>5879.2</ele>
    <time>2026-06-23T05:03:37Z</time>
   </trkpt>
   <trkpt lat="-3.0764400" lon="37.3540650">
    <ele>5879.2</ele>
    <time>2026-06-23T05:03:38Z</time>
   </trkpt>
   <trkpt lat="-3.0764410" lon="37.3540620">
    <ele>5879.2</ele>
    <time>2026-06-23T05:03:39Z</time>
   </trkpt>
   <trkpt lat="-3.0764420" lon="37.3540620">
    <ele>5879.2</ele>
    <time>2026-06-23T05:03:40Z</time>
   </trkpt>
   <trkpt lat="-3.0764430" lon="37.3540640">
    <ele>5879.1</ele>
    <time>2026-06-23T05:03:41Z</time>
   </trkpt>
   <trkpt lat="-3.0764420" lon="37.3540630">
    <ele>5879.1</ele>
    <time>2026-06-23T05:03:42Z</time>
   </trkpt>
   <trkpt lat="-3.0764430" lon="37.3540630">
    <ele>5879.1</ele>
    <time>2026-06-23T05:03:43Z</time>
   </trkpt>
   <trkpt lat="-3.0764420" lon="37.3540620">
    <ele>5879.1</ele>
    <time>2026-06-23T05:03:44Z</time>
   </trkpt>
   <trkpt lat="-3.0764420" lon="37.3540630">
    <ele>5879.1</ele>
    <time>2026-06-23T05:03:45Z</time>
   </trkpt>
   <trkpt lat="-3.0764410" lon="37.3540620">
    <ele>5879.1</ele>
    <time>2026-06-23T05:03:46Z</time>
   </trkpt>
   <trkpt lat="-3.0764400" lon="37.3540570">
    <ele>5879.1</ele>
    <time>2026-06-23T05:03:47Z</time>
   </trkpt>
   <trkpt lat="-3.0764380" lon="37.3540530">
    <ele>5879.1</ele>
    <time>2026-06-23T05:03:48Z</time>
   </trkpt>
   <trkpt lat="-3.0764380" lon="37.3540510">
    <ele>5879.1</ele>
    <time>2026-06-23T05:03:49Z</time>
   </trkpt>
   <trkpt lat="-3.0764390" lon="37.3540480">
    <ele>5879.0</ele>
    <time>2026-06-23T05:03:50Z</time>
   </trkpt>
   <trkpt lat="-3.0764400" lon="37.3540490">
    <ele>5879.0</ele>
    <time>2026-06-23T05:03:51Z</time>
   </trkpt>
   <trkpt lat="-3.0764440" lon="37.3540540">
    <ele>5879.0</ele>
    <time>2026-06-23T05:03:52Z</time>
   </trkpt>
   <trkpt lat="-3.0764410" lon="37.3540580">
    <ele>5879.0</ele>
    <time>2026-06-23T05:03:53Z</time>
   </trkpt>
   <trkpt lat="-3.0764400" lon="37.3540630">
    <ele>5878.9</ele>
    <time>2026-06-23T05:03:54Z</time>
   </trkpt>
   <trkpt lat="-3.0764420" lon="37.3540660">
    <ele>5878.9</ele>
    <time>2026-06-23T05:03:55Z</time>
   </trkpt>
   <trkpt lat="-3.0764450" lon="37.3540700">
    <ele>5878.9</ele>
    <time>2026-06-23T05:03:56Z</time>
   </trkpt>
   <trkpt lat="-3.0764510" lon="37.3540760">
    <ele>5878.9</ele>
    <time>2026-06-23T05:03:57Z</time>
   </trkpt>
   <trkpt lat="-3.0764590" lon="37.3540790">
    <ele>5878.8</ele>
    <time>2026-06-23T05:03:58Z</time>
   </trkpt>
   <trkpt lat="-3.0764690" lon="37.3540760">
    <ele>5878.8</ele>
    <time>2026-06-23T05:03:59Z</time>
   </trkpt>
   <trkpt lat="-3.0764710" lon="37.3540670">
    <ele>5878.7</ele>
    <time>2026-06-23T05:04:00Z</time>
   </trkpt>
   <trkpt lat="-3.0764690" lon="37.3540650">
    <ele>5878.7</ele>
    <time>2026-06-23T05:04:01Z</time>
   </trkpt>
   <trkpt lat="-3.0764690" lon="37.3540660">
    <ele>5878.7</ele>
    <time>2026-06-23T05:04:02Z</time>
   </trkpt>
   <trkpt lat="-3.0764680" lon="37.3540650">
    <ele>5878.7</ele>
    <time>2026-06-23T05:04:03Z</time>
   </trkpt>
   <trkpt lat="-3.0764680" lon="37.3540640">
    <ele>5878.7</ele>
    <time>2026-06-23T05:04:04Z</time>
   </trkpt>
   <trkpt lat="-3.0764670" lon="37.3540630">
    <ele>5878.7</ele>
    <time>2026-06-23T05:04:05Z</time>
   </trkpt>
   <trkpt lat="-3.0764660" lon="37.3540630">
    <ele>5878.7</ele>
    <time>2026-06-23T05:04:06Z</time>
   </trkpt>
   <trkpt lat="-3.0764680" lon="37.3540640">
    <ele>5878.7</ele>
    <time>2026-06-23T05:04:07Z</time>
   </trkpt>
   <trkpt lat="-3.0764710" lon="37.3540670">
    <ele>5878.6</ele>
    <time>2026-06-23T05:04:08Z</time>
   </trkpt>
   <trkpt lat="-3.0764740" lon="37.3540660">
    <ele>5878.6</ele>
    <time>2026-06-23T05:04:09Z</time>
   </trkpt>
   <trkpt lat="-3.0764760" lon="37.3540700">
    <ele>5878.6</ele>
    <time>2026-06-23T05:04:10Z</time>
   </trkpt>
   <trkpt lat="-3.0764740" lon="37.3540720">
    <ele>5878.6</ele>
    <time>2026-06-23T05:04:11Z</time>
   </trkpt>
   <trkpt lat="-3.0764780" lon="37.3540690">
    <ele>5878.6</ele>
    <time>2026-06-23T05:04:12Z</time>
   </trkpt>
   <trkpt lat="-3.0764750" lon="37.3540740">
    <ele>5878.5</ele>
    <time>2026-06-23T05:04:13Z</time>
   </trkpt>
   <trkpt lat="-3.0764740" lon="37.3540770">
    <ele>5878.5</ele>
    <time>2026-06-23T05:04:14Z</time>
   </trkpt>
   <trkpt lat="-3.0764740" lon="37.3540750">
    <ele>5878.5</ele>
    <time>2026-06-23T05:04:15Z</time>
   </trkpt>
   <trkpt lat="-3.0764750" lon="37.3540750">
    <ele>5878.5</ele>
    <time>2026-06-23T05:04:16Z</time>
   </trkpt>
   <trkpt lat="-3.0764750" lon="37.3540750">
    <ele>5878.5</ele>
    <time>2026-06-23T05:04:18Z</time>
   </trkpt>
   <trkpt lat="-3.0764740" lon="37.3540750">
    <ele>5878.5</ele>
    <time>2026-06-23T05:04:19Z</time>
   </trkpt>
   <trkpt lat="-3.0764730" lon="37.3540760">
    <ele>5878.5</ele>
    <time>2026-06-23T05:04:20Z</time>
   </trkpt>
   <trkpt lat="-3.0764730" lon="37.3540790">
    <ele>5878.5</ele>
    <time>2026-06-23T05:04:21Z</time>
   </trkpt>
   <trkpt lat="-3.0764710" lon="37.3540830">
    <ele>5878.4</ele>
    <time>2026-06-23T05:04:22Z</time>
   </trkpt>
   <trkpt lat="-3.0764740" lon="37.3540830">
    <ele>5878.4</ele>
    <time>2026-06-23T05:04:23Z</time>
   </trkpt>
   <trkpt lat="-3.0764690" lon="37.3540820">
    <ele>5878.4</ele>
    <time>2026-06-23T05:04:24Z</time>
   </trkpt>
   <trkpt lat="-3.0764710" lon="37.3540800">
    <ele>5878.4</ele>
    <time>2026-06-23T05:04:25Z</time>
   </trkpt>
   <trkpt lat="-3.0764710" lon="37.3540840">
    <ele>5878.4</ele>
    <time>2026-06-23T05:04:26Z</time>
   </trkpt>
   <trkpt lat="-3.0764700" lon="37.3540840">
    <ele>5878.3</ele>
    <time>2026-06-23T05:04:27Z</time>
   </trkpt>
   <trkpt lat="-3.0764700" lon="37.3540830">
    <ele>5878.3</ele>
    <time>2026-06-23T05:04:28Z</time>
   </trkpt>
   <trkpt lat="-3.0764700" lon="37.3540850">
    <ele>5878.3</ele>
    <time>2026-06-23T05:04:29Z</time>
   </trkpt>
   <trkpt lat="-3.0764700" lon="37.3540840">
    <ele>5878.3</ele>
    <time>2026-06-23T05:04:30Z</time>
   </trkpt>
   <trkpt lat="-3.0764700" lon="37.3540820">
    <ele>5878.3</ele>
    <time>2026-06-23T05:04:31Z</time>
   </trkpt>
   <trkpt lat="-3.0764690" lon="37.3540820">
    <ele>5878.3</ele>
    <time>2026-06-23T05:04:32Z</time>
   </trkpt>
   <trkpt lat="-3.0764710" lon="37.3540810">
    <ele>5878.3</ele>
    <time>2026-06-23T05:04:33Z</time>
   </trkpt>
   <trkpt lat="-3.0764720" lon="37.3540840">
    <ele>5878.3</ele>
    <time>2026-06-23T05:04:34Z</time>
   </trkpt>
   <trkpt lat="-3.0764690" lon="37.3540860">
    <ele>5878.3</ele>
    <time>2026-06-23T05:04:35Z</time>
   </trkpt>
   <trkpt lat="-3.0764700" lon="37.3540810">
    <ele>5878.2</ele>
    <time>2026-06-23T05:04:36Z</time>
   </trkpt>
   <trkpt lat="-3.0764720" lon="37.3540840">
    <ele>5878.2</ele>
    <time>2026-06-23T05:04:37Z</time>
   </trkpt>
   <trkpt lat="-3.0764710" lon="37.3540840">
    <ele>5878.2</ele>
    <time>2026-06-23T05:04:38Z</time>
   </trkpt>
   <trkpt lat="-3.0764690" lon="37.3540850">
    <ele>5878.2</ele>
    <time>2026-06-23T05:04:39Z</time>
   </trkpt>
   <trkpt lat="-3.0764700" lon="37.3540880">
    <ele>5878.2</ele>
    <time>2026-06-23T05:04:40Z</time>
   </trkpt>
   <trkpt lat="-3.0764730" lon="37.3540860">
    <ele>5878.2</ele>
    <time>2026-06-23T05:04:41Z</time>
   </trkpt>
   <trkpt lat="-3.0764690" lon="37.3540860">
    <ele>5878.1</ele>
    <time>2026-06-23T05:04:42Z</time>
   </trkpt>
   <trkpt lat="-3.0764690" lon="37.3540890">
    <ele>5878.1</ele>
    <time>2026-06-23T05:04:43Z</time>
   </trkpt>
   <trkpt lat="-3.0764680" lon="37.3540880">
    <ele>5878.1</ele>
    <time>2026-06-23T05:04:44Z</time>
   </trkpt>
   <trkpt lat="-3.0764670" lon="37.3540860">
    <ele>5878.1</ele>
    <time>2026-06-23T05:04:45Z</time>
   </trkpt>
   <trkpt lat="-3.0764660" lon="37.3540870">
    <ele>5878.1</ele>
    <time>2026-06-23T05:04:46Z</time>
   </trkpt>
   <trkpt lat="-3.0764640" lon="37.3540880">
    <ele>5878.1</ele>
    <time>2026-06-23T05:04:47Z</time>
   </trkpt>
   <trkpt lat="-3.0764660" lon="37.3540870">
    <ele>5878.1</ele>
    <time>2026-06-23T05:04:48Z</time>
   </trkpt>
   <trkpt lat="-3.0764670" lon="37.3540850">
    <ele>5878.0</ele>
    <time>2026-06-23T05:04:49Z</time>
   </trkpt>
   <trkpt lat="-3.0764670" lon="37.3540840">
    <ele>5878.0</ele>
    <time>2026-06-23T05:04:50Z</time>
   </trkpt>
   <trkpt lat="-3.0764670" lon="37.3540840">
    <ele>5878.0</ele>
    <time>2026-06-23T05:04:51Z</time>
   </trkpt>
   <trkpt lat="-3.0764680" lon="37.3540830">
    <ele>5878.0</ele>
    <time>2026-06-23T05:04:52Z</time>
   </trkpt>
   <trkpt lat="-3.0764690" lon="37.3540820">
    <ele>5878.0</ele>
    <time>2026-06-23T05:04:53Z</time>
   </trkpt>
   <trkpt lat="-3.0764690" lon="37.3540830">
    <ele>5878.0</ele>
    <time>2026-06-23T05:04:54Z</time>
   </trkpt>
   <trkpt lat="-3.0764700" lon="37.3540810">
    <ele>5878.0</ele>
    <time>2026-06-23T05:04:55Z</time>
   </trkpt>
   <trkpt lat="-3.0764690" lon="37.3540830">
    <ele>5878.0</ele>
    <time>2026-06-23T05:04:56Z</time>
   </trkpt>
   <trkpt lat="-3.0764690" lon="37.3540830">
    <ele>5878.0</ele>
    <time>2026-06-23T05:04:57Z</time>
   </trkpt>
   <trkpt lat="-3.0764710" lon="37.3540810">
    <ele>5878.0</ele>
    <time>2026-06-23T05:04:58Z</time>
   </trkpt>
   <trkpt lat="-3.0764710" lon="37.3540820">
    <ele>5878.0</ele>
    <time>2026-06-23T05:04:59Z</time>
   </trkpt>
   <trkpt lat="-3.0764710" lon="37.3540810">
    <ele>5878.0</ele>
    <time>2026-06-23T05:05:00Z</time>
   </trkpt>
   <trkpt lat="-3.0764720" lon="37.3540810">
    <ele>5878.0</ele>
    <time>2026-06-23T05:05:01Z</time>
   </trkpt>
   <trkpt lat="-3.0764720" lon="37.3540810">
    <ele>5878.0</ele>
    <time>2026-06-23T05:05:02Z</time>
   </trkpt>
   <trkpt lat="-3.0764720" lon="37.3540820">
    <ele>5878.0</ele>
    <time>2026-06-23T05:05:03Z</time>
   </trkpt>
   <trkpt lat="-3.0764720" lon="37.3540820">
    <ele>5878.0</ele>
    <time>2026-06-23T05:05:04Z</time>
   </trkpt>
   <trkpt lat="-3.0764700" lon="37.3540820">
    <ele>5877.9</ele>
    <time>2026-06-23T05:05:05Z</time>
   </trkpt>
   <trkpt lat="-3.0764710" lon="37.3540820">
    <ele>5877.9</ele>
    <time>2026-06-23T05:05:06Z</time>
   </trkpt>
   <trkpt lat="-3.0764730" lon="37.3540820">
    <ele>5877.9</ele>
    <time>2026-06-23T05:05:07Z</time>
   </trkpt>
   <trkpt lat="-3.0764750" lon="37.3540860">
    <ele>5877.9</ele>
    <time>2026-06-23T05:05:08Z</time>
   </trkpt>
   <trkpt lat="-3.0764790" lon="37.3540830">
    <ele>5877.9</ele>
    <time>2026-06-23T05:05:09Z</time>
   </trkpt>
   <trkpt lat="-3.0764810" lon="37.3540880">
    <ele>5877.8</ele>
    <time>2026-06-23T05:05:10Z</time>
   </trkpt>
   <trkpt lat="-3.0764860" lon="37.3540900">
    <ele>5877.8</ele>
    <time>2026-06-23T05:05:11Z</time>
   </trkpt>
   <trkpt lat="-3.0764870" lon="37.3540950">
    <ele>5877.8</ele>
    <time>2026-06-23T05:05:12Z</time>
   </trkpt>
   <trkpt lat="-3.0764890" lon="37.3541010">
    <ele>5877.7</ele>
    <time>2026-06-23T05:05:13Z</time>
   </trkpt>
   <trkpt lat="-3.0764920" lon="37.3541020">
    <ele>5877.7</ele>
    <time>2026-06-23T05:05:14Z</time>
   </trkpt>
   <trkpt lat="-3.0764950" lon="37.3541070">
    <ele>5877.7</ele>
    <time>2026-06-23T05:05:15Z</time>
   </trkpt>
   <trkpt lat="-3.0764980" lon="37.3541100">
    <ele>5877.7</ele>
    <time>2026-06-23T05:05:16Z</time>
   </trkpt>
   <trkpt lat="-3.0765010" lon="37.3541140">
    <ele>5877.6</ele>
    <time>2026-06-23T05:05:17Z</time>
   </trkpt>
   <trkpt lat="-3.0765040" lon="37.3541130">
    <ele>5877.6</ele>
    <time>2026-06-23T05:05:18Z</time>
   </trkpt>
   <trkpt lat="-3.0765010" lon="37.3541110">
    <ele>5877.6</ele>
    <time>2026-06-23T05:05:19Z</time>
   </trkpt>
   <trkpt lat="-3.0764980" lon="37.3541090">
    <ele>5877.6</ele>
    <time>2026-06-23T05:05:20Z</time>
   </trkpt>
   <trkpt lat="-3.0764980" lon="37.3541080">
    <ele>5877.6</ele>
    <time>2026-06-23T05:05:21Z</time>
   </trkpt>
   <trkpt lat="-3.0764980" lon="37.3541080">
    <ele>5877.6</ele>
    <time>2026-06-23T05:05:22Z</time>
   </trkpt>
   <trkpt lat="-3.0764980" lon="37.3541080">
    <ele>5877.6</ele>
    <time>2026-06-23T05:05:23Z</time>
   </trkpt>
   <trkpt lat="-3.0764980" lon="37.3541080">
    <ele>5877.6</ele>
    <time>2026-06-23T05:05:24Z</time>
   </trkpt>
   <trkpt lat="-3.0764980" lon="37.3541080">
    <ele>5877.6</ele>
    <time>2026-06-23T05:05:25Z</time>
   </trkpt>
   <trkpt lat="-3.0764990" lon="37.3541060">
    <ele>5877.6</ele>
    <time>2026-06-23T05:05:26Z</time>
   </trkpt>
   <trkpt lat="-3.0764980" lon="37.3541080">
    <ele>5877.6</ele>
    <time>2026-06-23T05:05:27Z</time>
   </trkpt>
   <trkpt lat="-3.0764990" lon="37.3541070">
    <ele>5877.5</ele>
    <time>2026-06-23T05:05:28Z</time>
   </trkpt>
   <trkpt lat="-3.0764980" lon="37.3541070">
    <ele>5877.5</ele>
    <time>2026-06-23T05:05:29Z</time>
   </trkpt>
   <trkpt lat="-3.0765000" lon="37.3541060">
    <ele>5877.5</ele>
    <time>2026-06-23T05:05:30Z</time>
   </trkpt>
   <trkpt lat="-3.0764990" lon="37.3541070">
    <ele>5877.5</ele>
    <time>2026-06-23T05:05:31Z</time>
   </trkpt>
   <trkpt lat="-3.0764990" lon="37.3541070">
    <ele>5877.5</ele>
    <time>2026-06-23T05:05:32Z</time>
   </trkpt>
   <trkpt lat="-3.0764990" lon="37.3541070">
    <ele>5877.5</ele>
    <time>2026-06-23T05:05:33Z</time>
   </trkpt>
   <trkpt lat="-3.0764990" lon="37.3541070">
    <ele>5877.5</ele>
    <time>2026-06-23T05:05:34Z</time>
   </trkpt>
   <trkpt lat="-3.0764990" lon="37.3541080">
    <ele>5877.5</ele>
    <time>2026-06-23T05:05:35Z</time>
   </trkpt>
   <trkpt lat="-3.0765000" lon="37.3541060">
    <ele>5877.5</ele>
    <time>2026-06-23T05:05:36Z</time>
   </trkpt>
   <trkpt lat="-3.0764990" lon="37.3541070">
    <ele>5877.5</ele>
    <time>2026-06-23T05:05:37Z</time>
   </trkpt>
   <trkpt lat="-3.0764980" lon="37.3541060">
    <ele>5877.5</ele>
    <time>2026-06-23T05:05:38Z</time>
   </trkpt>
   <trkpt lat="-3.0765000" lon="37.3541040">
    <ele>5877.5</ele>
    <time>2026-06-23T05:05:39Z</time>
   </trkpt>
   <trkpt lat="-3.0764970" lon="37.3541040">
    <ele>5877.5</ele>
    <time>2026-06-23T05:05:40Z</time>
   </trkpt>
   <trkpt lat="-3.0764980" lon="37.3541040">
    <ele>5877.4</ele>
    <time>2026-06-23T05:05:41Z</time>
   </trkpt>
   <trkpt lat="-3.0764980" lon="37.3541050">
    <ele>5877.4</ele>
    <time>2026-06-23T05:05:42Z</time>
   </trkpt>
   <trkpt lat="-3.0765000" lon="37.3541010">
    <ele>5877.4</ele>
    <time>2026-06-23T05:05:43Z</time>
   </trkpt>
   <trkpt lat="-3.0764990" lon="37.3541010">
    <ele>5877.4</ele>
    <time>2026-06-23T05:05:44Z</time>
   </trkpt>
   <trkpt lat="-3.0764980" lon="37.3541000">
    <ele>5877.4</ele>
    <time>2026-06-23T05:05:45Z</time>
   </trkpt>
   <trkpt lat="-3.0764980" lon="37.3540980">
    <ele>5877.4</ele>
    <time>2026-06-23T05:05:46Z</time>
   </trkpt>
   <trkpt lat="-3.0764990" lon="37.3540940">
    <ele>5877.4</ele>
    <time>2026-06-23T05:05:47Z</time>
   </trkpt>
   <trkpt lat="-3.0764990" lon="37.3540890">
    <ele>5877.3</ele>
    <time>2026-06-23T05:05:48Z</time>
   </trkpt>
   <trkpt lat="-3.0765020" lon="37.3540790">
    <ele>5877.3</ele>
    <time>2026-06-23T05:05:49Z</time>
   </trkpt>
   <trkpt lat="-3.0765090" lon="37.3540690">
    <ele>5877.2</ele>
    <time>2026-06-23T05:05:50Z</time>
   </trkpt>
   <trkpt lat="-3.0765140" lon="37.3540600">
    <ele>5877.1</ele>
    <time>2026-06-23T05:05:51Z</time>
   </trkpt>
   <trkpt lat="-3.0765160" lon="37.3540550">
    <ele>5877.1</ele>
    <time>2026-06-23T05:05:52Z</time>
   </trkpt>
   <trkpt lat="-3.0765190" lon="37.3540470">
    <ele>5877.1</ele>
    <time>2026-06-23T05:05:53Z</time>
   </trkpt>
   <trkpt lat="-3.0765190" lon="37.3540330">
    <ele>5877.0</ele>
    <time>2026-06-23T05:05:54Z</time>
   </trkpt>
   <trkpt lat="-3.0765120" lon="37.3540260">
    <ele>5876.9</ele>
    <time>2026-06-23T05:05:55Z</time>
   </trkpt>
   <trkpt lat="-3.0765050" lon="37.3540180">
    <ele>5876.9</ele>
    <time>2026-06-23T05:05:56Z</time>
   </trkpt>
   <trkpt lat="-3.0765030" lon="37.3540130">
    <ele>5876.8</ele>
    <time>2026-06-23T05:05:57Z</time>
   </trkpt>
   <trkpt lat="-3.0765050" lon="37.3540100">
    <ele>5876.8</ele>
    <time>2026-06-23T05:05:58Z</time>
   </trkpt>
   <trkpt lat="-3.0765050" lon="37.3540050">
    <ele>5876.8</ele>
    <time>2026-06-23T05:05:59Z</time>
   </trkpt>
   <trkpt lat="-3.0765060" lon="37.3539890">
    <ele>5876.7</ele>
    <time>2026-06-23T05:06:00Z</time>
   </trkpt>
   <trkpt lat="-3.0765070" lon="37.3539760">
    <ele>5876.6</ele>
    <time>2026-06-23T05:06:01Z</time>
   </trkpt>
   <trkpt lat="-3.0765120" lon="37.3539770">
    <ele>5876.6</ele>
    <time>2026-06-23T05:06:02Z</time>
   </trkpt>
   <trkpt lat="-3.0765190" lon="37.3539770">
    <ele>5876.5</ele>
    <time>2026-06-23T05:06:03Z</time>
   </trkpt>
   <trkpt lat="-3.0765210" lon="37.3539760">
    <ele>5876.5</ele>
    <time>2026-06-23T05:06:04Z</time>
   </trkpt>
   <trkpt lat="-3.0765220" lon="37.3539760">
    <ele>5876.5</ele>
    <time>2026-06-23T05:06:05Z</time>
   </trkpt>
   <trkpt lat="-3.0765220" lon="37.3539750">
    <ele>5876.5</ele>
    <time>2026-06-23T05:06:06Z</time>
   </trkpt>
   <trkpt lat="-3.0765220" lon="37.3539760">
    <ele>5876.5</ele>
    <time>2026-06-23T05:06:07Z</time>
   </trkpt>
   <trkpt lat="-3.0765220" lon="37.3539760">
    <ele>5876.5</ele>
    <time>2026-06-23T05:06:08Z</time>
   </trkpt>
   <trkpt lat="-3.0765220" lon="37.3539760">
    <ele>5876.5</ele>
    <time>2026-06-23T05:06:09Z</time>
   </trkpt>
   <trkpt lat="-3.0765230" lon="37.3539780">
    <ele>5876.5</ele>
    <time>2026-06-23T05:06:10Z</time>
   </trkpt>
   <trkpt lat="-3.0765250" lon="37.3539840">
    <ele>5876.5</ele>
    <time>2026-06-23T05:06:11Z</time>
   </trkpt>
   <trkpt lat="-3.0765260" lon="37.3539840">
    <ele>5876.5</ele>
    <time>2026-06-23T05:06:12Z</time>
   </trkpt>
   <trkpt lat="-3.0765240" lon="37.3539830">
    <ele>5876.4</ele>
    <time>2026-06-23T05:06:13Z</time>
   </trkpt>
   <trkpt lat="-3.0765240" lon="37.3539850">
    <ele>5876.4</ele>
    <time>2026-06-23T05:06:14Z</time>
   </trkpt>
   <trkpt lat="-3.0765290" lon="37.3539880">
    <ele>5876.4</ele>
    <time>2026-06-23T05:06:15Z</time>
   </trkpt>
   <trkpt lat="-3.0765340" lon="37.3539920">
    <ele>5876.4</ele>
    <time>2026-06-23T05:06:16Z</time>
   </trkpt>
   <trkpt lat="-3.0765340" lon="37.3539930">
    <ele>5876.4</ele>
    <time>2026-06-23T05:06:17Z</time>
   </trkpt>
   <trkpt lat="-3.0765300" lon="37.3539910">
    <ele>5876.3</ele>
    <time>2026-06-23T05:06:18Z</time>
   </trkpt>
   <trkpt lat="-3.0765200" lon="37.3539880">
    <ele>5876.3</ele>
    <time>2026-06-23T05:06:19Z</time>
   </trkpt>
   <trkpt lat="-3.0765260" lon="37.3539890">
    <ele>5876.3</ele>
    <time>2026-06-23T05:06:20Z</time>
   </trkpt>
   <trkpt lat="-3.0765270" lon="37.3539900">
    <ele>5876.2</ele>
    <time>2026-06-23T05:06:21Z</time>
   </trkpt>
   <trkpt lat="-3.0765270" lon="37.3539910">
    <ele>5876.2</ele>
    <time>2026-06-23T05:06:22Z</time>
   </trkpt>
   <trkpt lat="-3.0765280" lon="37.3539910">
    <ele>5876.2</ele>
    <time>2026-06-23T05:06:23Z</time>
   </trkpt>
   <trkpt lat="-3.0765280" lon="37.3539910">
    <ele>5876.2</ele>
    <time>2026-06-23T05:06:24Z</time>
   </trkpt>
   <trkpt lat="-3.0765290" lon="37.3539900">
    <ele>5876.2</ele>
    <time>2026-06-23T05:06:25Z</time>
   </trkpt>
   <trkpt lat="-3.0765280" lon="37.3539900">
    <ele>5876.2</ele>
    <time>2026-06-23T05:06:26Z</time>
   </trkpt>
   <trkpt lat="-3.0765280" lon="37.3539900">
    <ele>5876.2</ele>
    <time>2026-06-23T05:06:27Z</time>
   </trkpt>
   <trkpt lat="-3.0765290" lon="37.3539900">
    <ele>5876.2</ele>
    <time>2026-06-23T05:06:28Z</time>
   </trkpt>
   <trkpt lat="-3.0765280" lon="37.3539910">
    <ele>5876.2</ele>
    <time>2026-06-23T05:06:29Z</time>
   </trkpt>
   <trkpt lat="-3.0765280" lon="37.3539910">
    <ele>5876.2</ele>
    <time>2026-06-23T05:06:30Z</time>
   </trkpt>
   <trkpt lat="-3.0765280" lon="37.3539910">
    <ele>5876.2</ele>
    <time>2026-06-23T05:06:31Z</time>
   </trkpt>
   <trkpt lat="-3.0765270" lon="37.3539910">
    <ele>5876.2</ele>
    <time>2026-06-23T05:06:32Z</time>
   </trkpt>
   <trkpt lat="-3.0765270" lon="37.3539910">
    <ele>5876.2</ele>
    <time>2026-06-23T05:06:33Z</time>
   </trkpt>
   <trkpt lat="-3.0765270" lon="37.3539910">
    <ele>5876.2</ele>
    <time>2026-06-23T05:06:34Z</time>
   </trkpt>
   <trkpt lat="-3.0765270" lon="37.3539910">
    <ele>5876.2</ele>
    <time>2026-06-23T05:06:35Z</time>
   </trkpt>
   <trkpt lat="-3.0765270" lon="37.3539910">
    <ele>5876.2</ele>
    <time>2026-06-23T05:06:36Z</time>
   </trkpt>
   <trkpt lat="-3.0765280" lon="37.3539890">
    <ele>5876.2</ele>
    <time>2026-06-23T05:06:37Z</time>
   </trkpt>
   <trkpt lat="-3.0765280" lon="37.3539890">
    <ele>5876.2</ele>
    <time>2026-06-23T05:06:38Z</time>
   </trkpt>
   <trkpt lat="-3.0765280" lon="37.3539890">
    <ele>5876.2</ele>
    <time>2026-06-23T05:06:39Z</time>
   </trkpt>
   <trkpt lat="-3.0765280" lon="37.3539880">
    <ele>5876.2</ele>
    <time>2026-06-23T05:06:40Z</time>
   </trkpt>
   <trkpt lat="-3.0765280" lon="37.3539890">
    <ele>5876.2</ele>
    <time>2026-06-23T05:06:41Z</time>
   </trkpt>
   <trkpt lat="-3.0765270" lon="37.3539880">
    <ele>5876.2</ele>
    <time>2026-06-23T05:06:42Z</time>
   </trkpt>
   <trkpt lat="-3.0765250" lon="37.3539900">
    <ele>5876.2</ele>
    <time>2026-06-23T05:06:43Z</time>
   </trkpt>
   <trkpt lat="-3.0765240" lon="37.3539950">
    <ele>5876.1</ele>
    <time>2026-06-23T05:06:44Z</time>
   </trkpt>
   <trkpt lat="-3.0765270" lon="37.3539980">
    <ele>5876.1</ele>
    <time>2026-06-23T05:06:45Z</time>
   </trkpt>
   <trkpt lat="-3.0765270" lon="37.3539990">
    <ele>5876.1</ele>
    <time>2026-06-23T05:06:46Z</time>
   </trkpt>
   <trkpt lat="-3.0765310" lon="37.3540010">
    <ele>5876.1</ele>
    <time>2026-06-23T05:06:47Z</time>
   </trkpt>
   <trkpt lat="-3.0765340" lon="37.3540030">
    <ele>5876.1</ele>
    <time>2026-06-23T05:06:48Z</time>
   </trkpt>
   <trkpt lat="-3.0765350" lon="37.3540020">
    <ele>5876.1</ele>
    <time>2026-06-23T05:06:49Z</time>
   </trkpt>
   <trkpt lat="-3.0765360" lon="37.3540040">
    <ele>5876.1</ele>
    <time>2026-06-23T05:06:50Z</time>
   </trkpt>
   <trkpt lat="-3.0765350" lon="37.3540080">
    <ele>5876.0</ele>
    <time>2026-06-23T05:06:51Z</time>
   </trkpt>
   <trkpt lat="-3.0765330" lon="37.3540110">
    <ele>5876.0</ele>
    <time>2026-06-23T05:06:52Z</time>
   </trkpt>
   <trkpt lat="-3.0765300" lon="37.3540170">
    <ele>5876.0</ele>
    <time>2026-06-23T05:06:53Z</time>
   </trkpt>
   <trkpt lat="-3.0765280" lon="37.3540210">
    <ele>5876.0</ele>
    <time>2026-06-23T05:06:54Z</time>
   </trkpt>
   <trkpt lat="-3.0765270" lon="37.3540230">
    <ele>5876.0</ele>
    <time>2026-06-23T05:06:55Z</time>
   </trkpt>
   <trkpt lat="-3.0765280" lon="37.3540250">
    <ele>5875.9</ele>
    <time>2026-06-23T05:06:56Z</time>
   </trkpt>
   <trkpt lat="-3.0765270" lon="37.3540240">
    <ele>5875.9</ele>
    <time>2026-06-23T05:06:57Z</time>
   </trkpt>
   <trkpt lat="-3.0765280" lon="37.3540250">
    <ele>5875.9</ele>
    <time>2026-06-23T05:06:58Z</time>
   </trkpt>
   <trkpt lat="-3.0765280" lon="37.3540250">
    <ele>5875.9</ele>
    <time>2026-06-23T05:06:59Z</time>
   </trkpt>
   <trkpt lat="-3.0765260" lon="37.3540280">
    <ele>5875.9</ele>
    <time>2026-06-23T05:07:00Z</time>
   </trkpt>
   <trkpt lat="-3.0765240" lon="37.3540320">
    <ele>5875.9</ele>
    <time>2026-06-23T05:07:01Z</time>
   </trkpt>
   <trkpt lat="-3.0765240" lon="37.3540370">
    <ele>5875.9</ele>
    <time>2026-06-23T05:07:02Z</time>
   </trkpt>
   <trkpt lat="-3.0765240" lon="37.3540420">
    <ele>5875.9</ele>
    <time>2026-06-23T05:07:03Z</time>
   </trkpt>
   <trkpt lat="-3.0765230" lon="37.3540480">
    <ele>5875.8</ele>
    <time>2026-06-23T05:07:04Z</time>
   </trkpt>
   <trkpt lat="-3.0765200" lon="37.3540510">
    <ele>5875.8</ele>
    <time>2026-06-23T05:07:05Z</time>
   </trkpt>
   <trkpt lat="-3.0765190" lon="37.3540580">
    <ele>5875.8</ele>
    <time>2026-06-23T05:07:06Z</time>
   </trkpt>
   <trkpt lat="-3.0765190" lon="37.3540620">
    <ele>5875.8</ele>
    <time>2026-06-23T05:07:07Z</time>
   </trkpt>
   <trkpt lat="-3.0765180" lon="37.3540650">
    <ele>5875.8</ele>
    <time>2026-06-23T05:07:08Z</time>
   </trkpt>
   <trkpt lat="-3.0765160" lon="37.3540690">
    <ele>5875.7</ele>
    <time>2026-06-23T05:07:09Z</time>
   </trkpt>
   <trkpt lat="-3.0765150" lon="37.3540730">
    <ele>5875.7</ele>
    <time>2026-06-23T05:07:10Z</time>
   </trkpt>
   <trkpt lat="-3.0765110" lon="37.3540790">
    <ele>5875.7</ele>
    <time>2026-06-23T05:07:11Z</time>
   </trkpt>
   <trkpt lat="-3.0765080" lon="37.3540840">
    <ele>5875.7</ele>
    <time>2026-06-23T05:07:12Z</time>
   </trkpt>
   <trkpt lat="-3.0765060" lon="37.3540880">
    <ele>5875.7</ele>
    <time>2026-06-23T05:07:13Z</time>
   </trkpt>
   <trkpt lat="-3.0765020" lon="37.3540930">
    <ele>5875.6</ele>
    <time>2026-06-23T05:07:14Z</time>
   </trkpt>
   <trkpt lat="-3.0765000" lon="37.3540970">
    <ele>5875.6</ele>
    <time>2026-06-23T05:07:15Z</time>
   </trkpt>
   <trkpt lat="-3.0765000" lon="37.3540970">
    <ele>5875.6</ele>
    <time>2026-06-23T05:07:16Z</time>
   </trkpt>
   <trkpt lat="-3.0764980" lon="37.3540980">
    <ele>5875.6</ele>
    <time>2026-06-23T05:07:17Z</time>
   </trkpt>
   <trkpt lat="-3.0765000" lon="37.3540990">
    <ele>5875.6</ele>
    <time>2026-06-23T05:07:18Z</time>
   </trkpt>
   <trkpt lat="-3.0765010" lon="37.3541010">
    <ele>5875.6</ele>
    <time>2026-06-23T05:07:19Z</time>
   </trkpt>
   <trkpt lat="-3.0765010" lon="37.3541010">
    <ele>5875.6</ele>
    <time>2026-06-23T05:07:20Z</time>
   </trkpt>
   <trkpt lat="-3.0764960" lon="37.3541010">
    <ele>5875.6</ele>
    <time>2026-06-23T05:07:21Z</time>
   </trkpt>
   <trkpt lat="-3.0764940" lon="37.3541030">
    <ele>5875.6</ele>
    <time>2026-06-23T05:07:22Z</time>
   </trkpt>
   <trkpt lat="-3.0764930" lon="37.3541040">
    <ele>5875.6</ele>
    <time>2026-06-23T05:07:23Z</time>
   </trkpt>
   <trkpt lat="-3.0764930" lon="37.3541040">
    <ele>5875.6</ele>
    <time>2026-06-23T05:07:24Z</time>
   </trkpt>
   <trkpt lat="-3.0764930" lon="37.3541040">
    <ele>5875.6</ele>
    <time>2026-06-23T05:07:25Z</time>
   </trkpt>
   <trkpt lat="-3.0764940" lon="37.3541040">
    <ele>5875.6</ele>
    <time>2026-06-23T05:07:26Z</time>
   </trkpt>
   <trkpt lat="-3.0764940" lon="37.3541040">
    <ele>5875.6</ele>
    <time>2026-06-23T05:07:27Z</time>
   </trkpt>
   <trkpt lat="-3.0764930" lon="37.3541040">
    <ele>5875.6</ele>
    <time>2026-06-23T05:07:28Z</time>
   </trkpt>
   <trkpt lat="-3.0764930" lon="37.3541040">
    <ele>5875.6</ele>
    <time>2026-06-23T05:07:29Z</time>
   </trkpt>
   <trkpt lat="-3.0764920" lon="37.3541040">
    <ele>5875.6</ele>
    <time>2026-06-23T05:07:30Z</time>
   </trkpt>
   <trkpt lat="-3.0764920" lon="37.3541040">
    <ele>5875.6</ele>
    <time>2026-06-23T05:07:31Z</time>
   </trkpt>
   <trkpt lat="-3.0764930" lon="37.3541050">
    <ele>5875.6</ele>
    <time>2026-06-23T05:07:32Z</time>
   </trkpt>
   <trkpt lat="-3.0764930" lon="37.3541060">
    <ele>5875.5</ele>
    <time>2026-06-23T05:07:33Z</time>
   </trkpt>
   <trkpt lat="-3.0764920" lon="37.3541070">
    <ele>5875.5</ele>
    <time>2026-06-23T05:07:34Z</time>
   </trkpt>
   <trkpt lat="-3.0764970" lon="37.3541060">
    <ele>5875.5</ele>
    <time>2026-06-23T05:07:35Z</time>
   </trkpt>
   <trkpt lat="-3.0765020" lon="37.3541100">
    <ele>5875.5</ele>
    <time>2026-06-23T05:07:36Z</time>
   </trkpt>
   <trkpt lat="-3.0765050" lon="37.3541130">
    <ele>5875.5</ele>
    <time>2026-06-23T05:07:37Z</time>
   </trkpt>
   <trkpt lat="-3.0765090" lon="37.3541150">
    <ele>5875.5</ele>
    <time>2026-06-23T05:07:38Z</time>
   </trkpt>
   <trkpt lat="-3.0765150" lon="37.3541190">
    <ele>5875.5</ele>
    <time>2026-06-23T05:07:39Z</time>
   </trkpt>
   <trkpt lat="-3.0765210" lon="37.3541200">
    <ele>5875.4</ele>
    <time>2026-06-23T05:07:40Z</time>
   </trkpt>
   <trkpt lat="-3.0765240" lon="37.3541250">
    <ele>5875.4</ele>
    <time>2026-06-23T05:07:41Z</time>
   </trkpt>
   <trkpt lat="-3.0765260" lon="37.3541280">
    <ele>5875.4</ele>
    <time>2026-06-23T05:07:42Z</time>
   </trkpt>
   <trkpt lat="-3.0765290" lon="37.3541330">
    <ele>5875.4</ele>
    <time>2026-06-23T05:07:43Z</time>
   </trkpt>
   <trkpt lat="-3.0765340" lon="37.3541350">
    <ele>5875.4</ele>
    <time>2026-06-23T05:07:44Z</time>
   </trkpt>
   <trkpt lat="-3.0765380" lon="37.3541390">
    <ele>5875.4</ele>
    <time>2026-06-23T05:07:45Z</time>
   </trkpt>
   <trkpt lat="-3.0765430" lon="37.3541410">
    <ele>5875.4</ele>
    <time>2026-06-23T05:07:46Z</time>
   </trkpt>
   <trkpt lat="-3.0765510" lon="37.3541460">
    <ele>5875.3</ele>
    <time>2026-06-23T05:07:47Z</time>
   </trkpt>
   <trkpt lat="-3.0765550" lon="37.3541480">
    <ele>5875.3</ele>
    <time>2026-06-23T05:07:48Z</time>
   </trkpt>
   <trkpt lat="-3.0765600" lon="37.3541530">
    <ele>5875.3</ele>
    <time>2026-06-23T05:07:49Z</time>
   </trkpt>
   <trkpt lat="-3.0765640" lon="37.3541590">
    <ele>5875.3</ele>
    <time>2026-06-23T05:07:50Z</time>
   </trkpt>
   <trkpt lat="-3.0765700" lon="37.3541640">
    <ele>5875.3</ele>
    <time>2026-06-23T05:07:51Z</time>
   </trkpt>
   <trkpt lat="-3.0765720" lon="37.3541680">
    <ele>5875.2</ele>
    <time>2026-06-23T05:07:52Z</time>
   </trkpt>
   <trkpt lat="-3.0765780" lon="37.3541740">
    <ele>5875.2</ele>
    <time>2026-06-23T05:07:53Z</time>
   </trkpt>
   <trkpt lat="-3.0765850" lon="37.3541790">
    <ele>5875.2</ele>
    <time>2026-06-23T05:07:54Z</time>
   </trkpt>
   <trkpt lat="-3.0765900" lon="37.3541850">
    <ele>5875.2</ele>
    <time>2026-06-23T05:07:55Z</time>
   </trkpt>
   <trkpt lat="-3.0765920" lon="37.3541910">
    <ele>5875.2</ele>
    <time>2026-06-23T05:07:56Z</time>
   </trkpt>
   <trkpt lat="-3.0765950" lon="37.3541980">
    <ele>5875.2</ele>
    <time>2026-06-23T05:07:57Z</time>
   </trkpt>
   <trkpt lat="-3.0765990" lon="37.3542050">
    <ele>5875.2</ele>
    <time>2026-06-23T05:07:58Z</time>
   </trkpt>
   <trkpt lat="-3.0766060" lon="37.3542100">
    <ele>5875.1</ele>
    <time>2026-06-23T05:07:59Z</time>
   </trkpt>
   <trkpt lat="-3.0766090" lon="37.3542160">
    <ele>5875.1</ele>
    <time>2026-06-23T05:08:00Z</time>
   </trkpt>
   <trkpt lat="-3.0766100" lon="37.3542220">
    <ele>5875.1</ele>
    <time>2026-06-23T05:08:01Z</time>
   </trkpt>
   <trkpt lat="-3.0766150" lon="37.3542280">
    <ele>5875.1</ele>
    <time>2026-06-23T05:08:02Z</time>
   </trkpt>
   <trkpt lat="-3.0766190" lon="37.3542350">
    <ele>5875.1</ele>
    <time>2026-06-23T05:08:03Z</time>
   </trkpt>
   <trkpt lat="-3.0766230" lon="37.3542410">
    <ele>5875.1</ele>
    <time>2026-06-23T05:08:04Z</time>
   </trkpt>
   <trkpt lat="-3.0766260" lon="37.3542470">
    <ele>5875.1</ele>
    <time>2026-06-23T05:08:05Z</time>
   </trkpt>
   <trkpt lat="-3.0766320" lon="37.3542500">
    <ele>5875.1</ele>
    <time>2026-06-23T05:08:06Z</time>
   </trkpt>
   <trkpt lat="-3.0766380" lon="37.3542560">
    <ele>5875.1</ele>
    <time>2026-06-23T05:08:07Z</time>
   </trkpt>
   <trkpt lat="-3.0766440" lon="37.3542620">
    <ele>5875.0</ele>
    <time>2026-06-23T05:08:08Z</time>
   </trkpt>
   <trkpt lat="-3.0766480" lon="37.3542670">
    <ele>5875.0</ele>
    <time>2026-06-23T05:08:09Z</time>
   </trkpt>
   <trkpt lat="-3.0766530" lon="37.3542710">
    <ele>5875.0</ele>
    <time>2026-06-23T05:08:10Z</time>
   </trkpt>
   <trkpt lat="-3.0766590" lon="37.3542770">
    <ele>5875.0</ele>
    <time>2026-06-23T05:08:11Z</time>
   </trkpt>
   <trkpt lat="-3.0766650" lon="37.3542830">
    <ele>5875.0</ele>
    <time>2026-06-23T05:08:12Z</time>
   </trkpt>
   <trkpt lat="-3.0766720" lon="37.3542890">
    <ele>5875.0</ele>
    <time>2026-06-23T05:08:13Z</time>
   </trkpt>
   <trkpt lat="-3.0766790" lon="37.3542970">
    <ele>5875.0</ele>
    <time>2026-06-23T05:08:14Z</time>
   </trkpt>
   <trkpt lat="-3.0766840" lon="37.3543030">
    <ele>5875.0</ele>
    <time>2026-06-23T05:08:15Z</time>
   </trkpt>
   <trkpt lat="-3.0766910" lon="37.3543090">
    <ele>5875.0</ele>
    <time>2026-06-23T05:08:16Z</time>
   </trkpt>
   <trkpt lat="-3.0766970" lon="37.3543150">
    <ele>5875.0</ele>
    <time>2026-06-23T05:08:17Z</time>
   </trkpt>
   <trkpt lat="-3.0767020" lon="37.3543210">
    <ele>5874.9</ele>
    <time>2026-06-23T05:08:18Z</time>
   </trkpt>
   <trkpt lat="-3.0767080" lon="37.3543290">
    <ele>5874.9</ele>
    <time>2026-06-23T05:08:19Z</time>
   </trkpt>
   <trkpt lat="-3.0767100" lon="37.3543350">
    <ele>5874.9</ele>
    <time>2026-06-23T05:08:20Z</time>
   </trkpt>
   <trkpt lat="-3.0767130" lon="37.3543400">
    <ele>5874.9</ele>
    <time>2026-06-23T05:08:21Z</time>
   </trkpt>
   <trkpt lat="-3.0767140" lon="37.3543430">
    <ele>5874.9</ele>
    <time>2026-06-23T05:08:22Z</time>
   </trkpt>
   <trkpt lat="-3.0767170" lon="37.3543460">
    <ele>5874.9</ele>
    <time>2026-06-23T05:08:23Z</time>
   </trkpt>
   <trkpt lat="-3.0767180" lon="37.3543480">
    <ele>5874.9</ele>
    <time>2026-06-23T05:08:24Z</time>
   </trkpt>
   <trkpt lat="-3.0767210" lon="37.3543470">
    <ele>5874.9</ele>
    <time>2026-06-23T05:08:25Z</time>
   </trkpt>
   <trkpt lat="-3.0767240" lon="37.3543490">
    <ele>5874.9</ele>
    <time>2026-06-23T05:08:26Z</time>
   </trkpt>
   <trkpt lat="-3.0767270" lon="37.3543500">
    <ele>5874.9</ele>
    <time>2026-06-23T05:08:27Z</time>
   </trkpt>
   <trkpt lat="-3.0767280" lon="37.3543510">
    <ele>5874.9</ele>
    <time>2026-06-23T05:08:28Z</time>
   </trkpt>
   <trkpt lat="-3.0767280" lon="37.3543510">
    <ele>5874.9</ele>
    <time>2026-06-23T05:08:29Z</time>
   </trkpt>
   <trkpt lat="-3.0767290" lon="37.3543520">
    <ele>5874.9</ele>
    <time>2026-06-23T05:08:30Z</time>
   </trkpt>
   <trkpt lat="-3.0767290" lon="37.3543520">
    <ele>5874.9</ele>
    <time>2026-06-23T05:08:31Z</time>
   </trkpt>
   <trkpt lat="-3.0767290" lon="37.3543520">
    <ele>5874.9</ele>
    <time>2026-06-23T05:08:32Z</time>
   </trkpt>
   <trkpt lat="-3.0767300" lon="37.3543510">
    <ele>5874.9</ele>
    <time>2026-06-23T05:08:33Z</time>
   </trkpt>
   <trkpt lat="-3.0767300" lon="37.3543500">
    <ele>5874.9</ele>
    <time>2026-06-23T05:08:34Z</time>
   </trkpt>
   <trkpt lat="-3.0767360" lon="37.3543510">
    <ele>5874.9</ele>
    <time>2026-06-23T05:08:35Z</time>
   </trkpt>
   <trkpt lat="-3.0767430" lon="37.3543550">
    <ele>5874.9</ele>
    <time>2026-06-23T05:08:36Z</time>
   </trkpt>
   <trkpt lat="-3.0767510" lon="37.3543580">
    <ele>5874.9</ele>
    <time>2026-06-23T05:08:37Z</time>
   </trkpt>
   <trkpt lat="-3.0767590" lon="37.3543650">
    <ele>5874.8</ele>
    <time>2026-06-23T05:08:38Z</time>
   </trkpt>
   <trkpt lat="-3.0767690" lon="37.3543700">
    <ele>5874.8</ele>
    <time>2026-06-23T05:08:39Z</time>
   </trkpt>
   <trkpt lat="-3.0767830" lon="37.3543760">
    <ele>5874.8</ele>
    <time>2026-06-23T05:08:40Z</time>
   </trkpt>
   <trkpt lat="-3.0767980" lon="37.3543890">
    <ele>5874.8</ele>
    <time>2026-06-23T05:08:41Z</time>
   </trkpt>
   <trkpt lat="-3.0768080" lon="37.3543970">
    <ele>5874.8</ele>
    <time>2026-06-23T05:08:42Z</time>
   </trkpt>
   <trkpt lat="-3.0768190" lon="37.3544060">
    <ele>5874.7</ele>
    <time>2026-06-23T05:08:43Z</time>
   </trkpt>
   <trkpt lat="-3.0768270" lon="37.3544140">
    <ele>5874.7</ele>
    <time>2026-06-23T05:08:44Z</time>
   </trkpt>
   <trkpt lat="-3.0768360" lon="37.3544230">
    <ele>5874.7</ele>
    <time>2026-06-23T05:08:45Z</time>
   </trkpt>
   <trkpt lat="-3.0768470" lon="37.3544320">
    <ele>5874.7</ele>
    <time>2026-06-23T05:08:46Z</time>
   </trkpt>
   <trkpt lat="-3.0768570" lon="37.3544400">
    <ele>5874.6</ele>
    <time>2026-06-23T05:08:47Z</time>
   </trkpt>
   <trkpt lat="-3.0768650" lon="37.3544480">
    <ele>5874.6</ele>
    <time>2026-06-23T05:08:48Z</time>
   </trkpt>
   <trkpt lat="-3.0768760" lon="37.3544570">
    <ele>5874.6</ele>
    <time>2026-06-23T05:08:49Z</time>
   </trkpt>
   <trkpt lat="-3.0768830" lon="37.3544640">
    <ele>5874.5</ele>
    <time>2026-06-23T05:08:50Z</time>
   </trkpt>
   <trkpt lat="-3.0768930" lon="37.3544720">
    <ele>5874.5</ele>
    <time>2026-06-23T05:08:51Z</time>
   </trkpt>
   <trkpt lat="-3.0769020" lon="37.3544780">
    <ele>5874.5</ele>
    <time>2026-06-23T05:08:52Z</time>
   </trkpt>
   <trkpt lat="-3.0769100" lon="37.3544840">
    <ele>5874.5</ele>
    <time>2026-06-23T05:08:53Z</time>
   </trkpt>
   <trkpt lat="-3.0769190" lon="37.3544910">
    <ele>5874.4</ele>
    <time>2026-06-23T05:08:54Z</time>
   </trkpt>
   <trkpt lat="-3.0769290" lon="37.3544960">
    <ele>5874.4</ele>
    <time>2026-06-23T05:08:55Z</time>
   </trkpt>
   <trkpt lat="-3.0769350" lon="37.3544990">
    <ele>5874.4</ele>
    <time>2026-06-23T05:08:56Z</time>
   </trkpt>
   <trkpt lat="-3.0769420" lon="37.3545050">
    <ele>5874.3</ele>
    <time>2026-06-23T05:08:57Z</time>
   </trkpt>
   <trkpt lat="-3.0769470" lon="37.3545100">
    <ele>5874.3</ele>
    <time>2026-06-23T05:08:58Z</time>
   </trkpt>
   <trkpt lat="-3.0769520" lon="37.3545150">
    <ele>5874.3</ele>
    <time>2026-06-23T05:08:59Z</time>
   </trkpt>
   <trkpt lat="-3.0769600" lon="37.3545200">
    <ele>5874.3</ele>
    <time>2026-06-23T05:09:00Z</time>
   </trkpt>
   <trkpt lat="-3.0769680" lon="37.3545250">
    <ele>5874.2</ele>
    <time>2026-06-23T05:09:01Z</time>
   </trkpt>
   <trkpt lat="-3.0769740" lon="37.3545280">
    <ele>5874.2</ele>
    <time>2026-06-23T05:09:02Z</time>
   </trkpt>
   <trkpt lat="-3.0769820" lon="37.3545320">
    <ele>5874.2</ele>
    <time>2026-06-23T05:09:03Z</time>
   </trkpt>
   <trkpt lat="-3.0769890" lon="37.3545380">
    <ele>5874.1</ele>
    <time>2026-06-23T05:09:04Z</time>
   </trkpt>
   <trkpt lat="-3.0769940" lon="37.3545420">
    <ele>5874.1</ele>
    <time>2026-06-23T05:09:05Z</time>
   </trkpt>
   <trkpt lat="-3.0770020" lon="37.3545460">
    <ele>5874.1</ele>
    <time>2026-06-23T05:09:06Z</time>
   </trkpt>
   <trkpt lat="-3.0770110" lon="37.3545500">
    <ele>5874.1</ele>
    <time>2026-06-23T05:09:07Z</time>
   </trkpt>
   <trkpt lat="-3.0770190" lon="37.3545540">
    <ele>5874.0</ele>
    <time>2026-06-23T05:09:08Z</time>
   </trkpt>
   <trkpt lat="-3.0770280" lon="37.3545600">
    <ele>5874.0</ele>
    <time>2026-06-23T05:09:09Z</time>
   </trkpt>
   <trkpt lat="-3.0770320" lon="37.3545630">
    <ele>5874.0</ele>
    <time>2026-06-23T05:09:10Z</time>
   </trkpt>
   <trkpt lat="-3.0770380" lon="37.3545670">
    <ele>5873.9</ele>
    <time>2026-06-23T05:09:11Z</time>
   </trkpt>
   <trkpt lat="-3.0770450" lon="37.3545730">
    <ele>5873.9</ele>
    <time>2026-06-23T05:09:12Z</time>
   </trkpt>
   <trkpt lat="-3.0770550" lon="37.3545800">
    <ele>5873.9</ele>
    <time>2026-06-23T05:09:13Z</time>
   </trkpt>
   <trkpt lat="-3.0770650" lon="37.3545850">
    <ele>5873.8</ele>
    <time>2026-06-23T05:09:14Z</time>
   </trkpt>
   <trkpt lat="-3.0770710" lon="37.3545890">
    <ele>5873.8</ele>
    <time>2026-06-23T05:09:15Z</time>
   </trkpt>
   <trkpt lat="-3.0770790" lon="37.3545960">
    <ele>5873.8</ele>
    <time>2026-06-23T05:09:16Z</time>
   </trkpt>
   <trkpt lat="-3.0770840" lon="37.3546000">
    <ele>5873.7</ele>
    <time>2026-06-23T05:09:17Z</time>
   </trkpt>
   <trkpt lat="-3.0770930" lon="37.3546070">
    <ele>5873.7</ele>
    <time>2026-06-23T05:09:18Z</time>
   </trkpt>
   <trkpt lat="-3.0770970" lon="37.3546110">
    <ele>5873.7</ele>
    <time>2026-06-23T05:09:19Z</time>
   </trkpt>
   <trkpt lat="-3.0771070" lon="37.3546170">
    <ele>5873.6</ele>
    <time>2026-06-23T05:09:20Z</time>
   </trkpt>
   <trkpt lat="-3.0771140" lon="37.3546210">
    <ele>5873.6</ele>
    <time>2026-06-23T05:09:21Z</time>
   </trkpt>
   <trkpt lat="-3.0771270" lon="37.3546250">
    <ele>5873.5</ele>
    <time>2026-06-23T05:09:22Z</time>
   </trkpt>
   <trkpt lat="-3.0771350" lon="37.3546310">
    <ele>5873.5</ele>
    <time>2026-06-23T05:09:23Z</time>
   </trkpt>
   <trkpt lat="-3.0771430" lon="37.3546390">
    <ele>5873.5</ele>
    <time>2026-06-23T05:09:24Z</time>
   </trkpt>
   <trkpt lat="-3.0771510" lon="37.3546470">
    <ele>5873.4</ele>
    <time>2026-06-23T05:09:25Z</time>
   </trkpt>
   <trkpt lat="-3.0771570" lon="37.3546530">
    <ele>5873.4</ele>
    <time>2026-06-23T05:09:26Z</time>
   </trkpt>
   <trkpt lat="-3.0771640" lon="37.3546590">
    <ele>5873.4</ele>
    <time>2026-06-23T05:09:27Z</time>
   </trkpt>
   <trkpt lat="-3.0771690" lon="37.3546650">
    <ele>5873.4</ele>
    <time>2026-06-23T05:09:28Z</time>
   </trkpt>
   <trkpt lat="-3.0771750" lon="37.3546710">
    <ele>5873.3</ele>
    <time>2026-06-23T05:09:29Z</time>
   </trkpt>
   <trkpt lat="-3.0771800" lon="37.3546780">
    <ele>5873.3</ele>
    <time>2026-06-23T05:09:30Z</time>
   </trkpt>
   <trkpt lat="-3.0771820" lon="37.3546840">
    <ele>5873.3</ele>
    <time>2026-06-23T05:09:31Z</time>
   </trkpt>
   <trkpt lat="-3.0771830" lon="37.3546890">
    <ele>5873.3</ele>
    <time>2026-06-23T05:09:32Z</time>
   </trkpt>
   <trkpt lat="-3.0771860" lon="37.3546970">
    <ele>5873.2</ele>
    <time>2026-06-23T05:09:33Z</time>
   </trkpt>
   <trkpt lat="-3.0771910" lon="37.3547020">
    <ele>5873.2</ele>
    <time>2026-06-23T05:09:34Z</time>
   </trkpt>
   <trkpt lat="-3.0771960" lon="37.3547060">
    <ele>5873.2</ele>
    <time>2026-06-23T05:09:35Z</time>
   </trkpt>
   <trkpt lat="-3.0772030" lon="37.3547100">
    <ele>5873.2</ele>
    <time>2026-06-23T05:09:36Z</time>
   </trkpt>
   <trkpt lat="-3.0772100" lon="37.3547150">
    <ele>5873.2</ele>
    <time>2026-06-23T05:09:37Z</time>
   </trkpt>
   <trkpt lat="-3.0772160" lon="37.3547210">
    <ele>5873.2</ele>
    <time>2026-06-23T05:09:38Z</time>
   </trkpt>
   <trkpt lat="-3.0772210" lon="37.3547250">
    <ele>5873.1</ele>
    <time>2026-06-23T05:09:39Z</time>
   </trkpt>
   <trkpt lat="-3.0772250" lon="37.3547290">
    <ele>5873.1</ele>
    <time>2026-06-23T05:09:40Z</time>
   </trkpt>
   <trkpt lat="-3.0772300" lon="37.3547330">
    <ele>5873.1</ele>
    <time>2026-06-23T05:09:41Z</time>
   </trkpt>
   <trkpt lat="-3.0772330" lon="37.3547370">
    <ele>5873.1</ele>
    <time>2026-06-23T05:09:42Z</time>
   </trkpt>
   <trkpt lat="-3.0772370" lon="37.3547400">
    <ele>5873.1</ele>
    <time>2026-06-23T05:09:43Z</time>
   </trkpt>
   <trkpt lat="-3.0772390" lon="37.3547430">
    <ele>5873.1</ele>
    <time>2026-06-23T05:09:44Z</time>
   </trkpt>
   <trkpt lat="-3.0772430" lon="37.3547470">
    <ele>5873.1</ele>
    <time>2026-06-23T05:09:45Z</time>
   </trkpt>
   <trkpt lat="-3.0772470" lon="37.3547510">
    <ele>5873.1</ele>
    <time>2026-06-23T05:09:46Z</time>
   </trkpt>
   <trkpt lat="-3.0772530" lon="37.3547560">
    <ele>5873.0</ele>
    <time>2026-06-23T05:09:47Z</time>
   </trkpt>
   <trkpt lat="-3.0772550" lon="37.3547600">
    <ele>5873.0</ele>
    <time>2026-06-23T05:09:48Z</time>
   </trkpt>
   <trkpt lat="-3.0772600" lon="37.3547640">
    <ele>5873.0</ele>
    <time>2026-06-23T05:09:49Z</time>
   </trkpt>
   <trkpt lat="-3.0772630" lon="37.3547670">
    <ele>5873.0</ele>
    <time>2026-06-23T05:09:50Z</time>
   </trkpt>
   <trkpt lat="-3.0772620" lon="37.3547690">
    <ele>5873.0</ele>
    <time>2026-06-23T05:09:51Z</time>
   </trkpt>
   <trkpt lat="-3.0772670" lon="37.3547780">
    <ele>5873.0</ele>
    <time>2026-06-23T05:09:52Z</time>
   </trkpt>
   <trkpt lat="-3.0772710" lon="37.3547850">
    <ele>5873.0</ele>
    <time>2026-06-23T05:09:53Z</time>
   </trkpt>
   <trkpt lat="-3.0772760" lon="37.3547910">
    <ele>5873.0</ele>
    <time>2026-06-23T05:09:54Z</time>
   </trkpt>
   <trkpt lat="-3.0772800" lon="37.3547990">
    <ele>5873.0</ele>
    <time>2026-06-23T05:09:55Z</time>
   </trkpt>
   <trkpt lat="-3.0772840" lon="37.3548050">
    <ele>5872.9</ele>
    <time>2026-06-23T05:09:56Z</time>
   </trkpt>
   <trkpt lat="-3.0772910" lon="37.3548130">
    <ele>5872.9</ele>
    <time>2026-06-23T05:09:57Z</time>
   </trkpt>
   <trkpt lat="-3.0772970" lon="37.3548210">
    <ele>5872.9</ele>
    <time>2026-06-23T05:09:58Z</time>
   </trkpt>
   <trkpt lat="-3.0773040" lon="37.3548300">
    <ele>5872.9</ele>
    <time>2026-06-23T05:09:59Z</time>
   </trkpt>
   <trkpt lat="-3.0773100" lon="37.3548360">
    <ele>5872.9</ele>
    <time>2026-06-23T05:10:00Z</time>
   </trkpt>
   <trkpt lat="-3.0773170" lon="37.3548430">
    <ele>5872.9</ele>
    <time>2026-06-23T05:10:01Z</time>
   </trkpt>
   <trkpt lat="-3.0773220" lon="37.3548480">
    <ele>5872.9</ele>
    <time>2026-06-23T05:10:02Z</time>
   </trkpt>
   <trkpt lat="-3.0773290" lon="37.3548530">
    <ele>5872.9</ele>
    <time>2026-06-23T05:10:03Z</time>
   </trkpt>
   <trkpt lat="-3.0773360" lon="37.3548580">
    <ele>5872.9</ele>
    <time>2026-06-23T05:10:04Z</time>
   </trkpt>
   <trkpt lat="-3.0773440" lon="37.3548640">
    <ele>5872.9</ele>
    <time>2026-06-23T05:10:05Z</time>
   </trkpt>
   <trkpt lat="-3.0773500" lon="37.3548680">
    <ele>5872.9</ele>
    <time>2026-06-23T05:10:06Z</time>
   </trkpt>
   <trkpt lat="-3.0773560" lon="37.3548720">
    <ele>5872.8</ele>
    <time>2026-06-23T05:10:07Z</time>
   </trkpt>
   <trkpt lat="-3.0773620" lon="37.3548770">
    <ele>5872.8</ele>
    <time>2026-06-23T05:10:08Z</time>
   </trkpt>
   <trkpt lat="-3.0773670" lon="37.3548810">
    <ele>5872.8</ele>
    <time>2026-06-23T05:10:09Z</time>
   </trkpt>
   <trkpt lat="-3.0773720" lon="37.3548840">
    <ele>5872.8</ele>
    <time>2026-06-23T05:10:10Z</time>
   </trkpt>
   <trkpt lat="-3.0773760" lon="37.3548870">
    <ele>5872.8</ele>
    <time>2026-06-23T05:10:11Z</time>
   </trkpt>
   <trkpt lat="-3.0773800" lon="37.3548900">
    <ele>5872.8</ele>
    <time>2026-06-23T05:10:12Z</time>
   </trkpt>
   <trkpt lat="-3.0773840" lon="37.3548940">
    <ele>5872.8</ele>
    <time>2026-06-23T05:10:13Z</time>
   </trkpt>
   <trkpt lat="-3.0773900" lon="37.3548980">
    <ele>5872.8</ele>
    <time>2026-06-23T05:10:14Z</time>
   </trkpt>
   <trkpt lat="-3.0773960" lon="37.3548960">
    <ele>5872.8</ele>
    <time>2026-06-23T05:10:15Z</time>
   </trkpt>
   <trkpt lat="-3.0774090" lon="37.3548980">
    <ele>5872.8</ele>
    <time>2026-06-23T05:10:16Z</time>
   </trkpt>
   <trkpt lat="-3.0774120" lon="37.3549000">
    <ele>5872.8</ele>
    <time>2026-06-23T05:10:17Z</time>
   </trkpt>
   <trkpt lat="-3.0774160" lon="37.3549060">
    <ele>5872.8</ele>
    <time>2026-06-23T05:10:18Z</time>
   </trkpt>
   <trkpt lat="-3.0774160" lon="37.3549100">
    <ele>5872.8</ele>
    <time>2026-06-23T05:10:19Z</time>
   </trkpt>
   <trkpt lat="-3.0774200" lon="37.3549150">
    <ele>5872.8</ele>
    <time>2026-06-23T05:10:20Z</time>
   </trkpt>
   <trkpt lat="-3.0774250" lon="37.3549210">
    <ele>5872.8</ele>
    <time>2026-06-23T05:10:21Z</time>
   </trkpt>
   <trkpt lat="-3.0774290" lon="37.3549260">
    <ele>5872.8</ele>
    <time>2026-06-23T05:10:22Z</time>
   </trkpt>
   <trkpt lat="-3.0774320" lon="37.3549330">
    <ele>5872.8</ele>
    <time>2026-06-23T05:10:23Z</time>
   </trkpt>
   <trkpt lat="-3.0774350" lon="37.3549370">
    <ele>5872.8</ele>
    <time>2026-06-23T05:10:24Z</time>
   </trkpt>
   <trkpt lat="-3.0774400" lon="37.3549440">
    <ele>5872.8</ele>
    <time>2026-06-23T05:10:25Z</time>
   </trkpt>
   <trkpt lat="-3.0774430" lon="37.3549490">
    <ele>5872.8</ele>
    <time>2026-06-23T05:10:26Z</time>
   </trkpt>
   <trkpt lat="-3.0774470" lon="37.3549550">
    <ele>5872.8</ele>
    <time>2026-06-23T05:10:27Z</time>
   </trkpt>
   <trkpt lat="-3.0774500" lon="37.3549610">
    <ele>5872.8</ele>
    <time>2026-06-23T05:10:28Z</time>
   </trkpt>
   <trkpt lat="-3.0774550" lon="37.3549670">
    <ele>5872.8</ele>
    <time>2026-06-23T05:10:29Z</time>
   </trkpt>
   <trkpt lat="-3.0774620" lon="37.3549720">
    <ele>5872.8</ele>
    <time>2026-06-23T05:10:30Z</time>
   </trkpt>
   <trkpt lat="-3.0774670" lon="37.3549780">
    <ele>5872.8</ele>
    <time>2026-06-23T05:10:31Z</time>
   </trkpt>
   <trkpt lat="-3.0774680" lon="37.3549810">
    <ele>5872.8</ele>
    <time>2026-06-23T05:10:32Z</time>
   </trkpt>
   <trkpt lat="-3.0774720" lon="37.3549840">
    <ele>5872.8</ele>
    <time>2026-06-23T05:10:33Z</time>
   </trkpt>
   <trkpt lat="-3.0774780" lon="37.3549900">
    <ele>5872.8</ele>
    <time>2026-06-23T05:10:34Z</time>
   </trkpt>
   <trkpt lat="-3.0774830" lon="37.3549940">
    <ele>5872.9</ele>
    <time>2026-06-23T05:10:36Z</time>
   </trkpt>
   <trkpt lat="-3.0774870" lon="37.3549970">
    <ele>5872.9</ele>
    <time>2026-06-23T05:10:37Z</time>
   </trkpt>
   <trkpt lat="-3.0774910" lon="37.3550030">
    <ele>5872.9</ele>
    <time>2026-06-23T05:10:38Z</time>
   </trkpt>
   <trkpt lat="-3.0774970" lon="37.3550100">
    <ele>5872.9</ele>
    <time>2026-06-23T05:10:39Z</time>
   </trkpt>
   <trkpt lat="-3.0775000" lon="37.3550150">
    <ele>5872.9</ele>
    <time>2026-06-23T05:10:40Z</time>
   </trkpt>
   <trkpt lat="-3.0775020" lon="37.3550200">
    <ele>5872.9</ele>
    <time>2026-06-23T05:10:41Z</time>
   </trkpt>
   <trkpt lat="-3.0775040" lon="37.3550270">
    <ele>5872.9</ele>
    <time>2026-06-23T05:10:42Z</time>
   </trkpt>
   <trkpt lat="-3.0775070" lon="37.3550310">
    <ele>5873.0</ele>
    <time>2026-06-23T05:10:43Z</time>
   </trkpt>
   <trkpt lat="-3.0775110" lon="37.3550350">
    <ele>5873.0</ele>
    <time>2026-06-23T05:10:44Z</time>
   </trkpt>
   <trkpt lat="-3.0775160" lon="37.3550400">
    <ele>5873.0</ele>
    <time>2026-06-23T05:10:45Z</time>
   </trkpt>
   <trkpt lat="-3.0775200" lon="37.3550440">
    <ele>5873.0</ele>
    <time>2026-06-23T05:10:46Z</time>
   </trkpt>
   <trkpt lat="-3.0775220" lon="37.3550470">
    <ele>5873.0</ele>
    <time>2026-06-23T05:10:47Z</time>
   </trkpt>
   <trkpt lat="-3.0775250" lon="37.3550520">
    <ele>5873.0</ele>
    <time>2026-06-23T05:10:48Z</time>
   </trkpt>
   <trkpt lat="-3.0775290" lon="37.3550560">
    <ele>5873.0</ele>
    <time>2026-06-23T05:10:49Z</time>
   </trkpt>
   <trkpt lat="-3.0775320" lon="37.3550590">
    <ele>5873.0</ele>
    <time>2026-06-23T05:10:50Z</time>
   </trkpt>
   <trkpt lat="-3.0775380" lon="37.3550630">
    <ele>5873.0</ele>
    <time>2026-06-23T05:10:51Z</time>
   </trkpt>
   <trkpt lat="-3.0775390" lon="37.3550660">
    <ele>5873.0</ele>
    <time>2026-06-23T05:10:52Z</time>
   </trkpt>
   <trkpt lat="-3.0775450" lon="37.3550700">
    <ele>5873.1</ele>
    <time>2026-06-23T05:10:53Z</time>
   </trkpt>
   <trkpt lat="-3.0775470" lon="37.3550730">
    <ele>5873.1</ele>
    <time>2026-06-23T05:10:54Z</time>
   </trkpt>
   <trkpt lat="-3.0775490" lon="37.3550760">
    <ele>5873.1</ele>
    <time>2026-06-23T05:10:55Z</time>
   </trkpt>
   <trkpt lat="-3.0775500" lon="37.3550790">
    <ele>5873.1</ele>
    <time>2026-06-23T05:10:56Z</time>
   </trkpt>
   <trkpt lat="-3.0775520" lon="37.3550850">
    <ele>5873.1</ele>
    <time>2026-06-23T05:10:57Z</time>
   </trkpt>
   <trkpt lat="-3.0775540" lon="37.3550880">
    <ele>5873.1</ele>
    <time>2026-06-23T05:10:58Z</time>
   </trkpt>
   <trkpt lat="-3.0775590" lon="37.3550920">
    <ele>5873.1</ele>
    <time>2026-06-23T05:10:59Z</time>
   </trkpt>
   <trkpt lat="-3.0775600" lon="37.3550930">
    <ele>5873.1</ele>
    <time>2026-06-23T05:11:00Z</time>
   </trkpt>
   <trkpt lat="-3.0775650" lon="37.3550970">
    <ele>5873.1</ele>
    <time>2026-06-23T05:11:01Z</time>
   </trkpt>
   <trkpt lat="-3.0775660" lon="37.3550990">
    <ele>5873.1</ele>
    <time>2026-06-23T05:11:02Z</time>
   </trkpt>
   <trkpt lat="-3.0775670" lon="37.3551000">
    <ele>5873.1</ele>
    <time>2026-06-23T05:11:03Z</time>
   </trkpt>
   <trkpt lat="-3.0775710" lon="37.3551050">
    <ele>5873.1</ele>
    <time>2026-06-23T05:11:04Z</time>
   </trkpt>
   <trkpt lat="-3.0775720" lon="37.3551070">
    <ele>5873.1</ele>
    <time>2026-06-23T05:11:05Z</time>
   </trkpt>
   <trkpt lat="-3.0775740" lon="37.3551100">
    <ele>5873.1</ele>
    <time>2026-06-23T05:11:06Z</time>
   </trkpt>
   <trkpt lat="-3.0775770" lon="37.3551130">
    <ele>5873.1</ele>
    <time>2026-06-23T05:11:07Z</time>
   </trkpt>
   <trkpt lat="-3.0775800" lon="37.3551180">
    <ele>5873.1</ele>
    <time>2026-06-23T05:11:08Z</time>
   </trkpt>
   <trkpt lat="-3.0775830" lon="37.3551220">
    <ele>5873.1</ele>
    <time>2026-06-23T05:11:09Z</time>
   </trkpt>
   <trkpt lat="-3.0775850" lon="37.3551270">
    <ele>5873.1</ele>
    <time>2026-06-23T05:11:10Z</time>
   </trkpt>
   <trkpt lat="-3.0775870" lon="37.3551300">
    <ele>5873.1</ele>
    <time>2026-06-23T05:11:11Z</time>
   </trkpt>
   <trkpt lat="-3.0775910" lon="37.3551350">
    <ele>5873.1</ele>
    <time>2026-06-23T05:11:12Z</time>
   </trkpt>
   <trkpt lat="-3.0775930" lon="37.3551400">
    <ele>5873.1</ele>
    <time>2026-06-23T05:11:13Z</time>
   </trkpt>
   <trkpt lat="-3.0775960" lon="37.3551430">
    <ele>5873.1</ele>
    <time>2026-06-23T05:11:14Z</time>
   </trkpt>
   <trkpt lat="-3.0775990" lon="37.3551490">
    <ele>5873.1</ele>
    <time>2026-06-23T05:11:15Z</time>
   </trkpt>
   <trkpt lat="-3.0776020" lon="37.3551530">
    <ele>5873.1</ele>
    <time>2026-06-23T05:11:16Z</time>
   </trkpt>
   <trkpt lat="-3.0776050" lon="37.3551570">
    <ele>5873.0</ele>
    <time>2026-06-23T05:11:17Z</time>
   </trkpt>
   <trkpt lat="-3.0776080" lon="37.3551620">
    <ele>5873.0</ele>
    <time>2026-06-23T05:11:18Z</time>
   </trkpt>
   <trkpt lat="-3.0776150" lon="37.3551690">
    <ele>5873.0</ele>
    <time>2026-06-23T05:11:19Z</time>
   </trkpt>
   <trkpt lat="-3.0776160" lon="37.3551750">
    <ele>5873.0</ele>
    <time>2026-06-23T05:11:20Z</time>
   </trkpt>
   <trkpt lat="-3.0776180" lon="37.3551770">
    <ele>5873.0</ele>
    <time>2026-06-23T05:11:21Z</time>
   </trkpt>
   <trkpt lat="-3.0776220" lon="37.3551800">
    <ele>5873.0</ele>
    <time>2026-06-23T05:11:22Z</time>
   </trkpt>
   <trkpt lat="-3.0776270" lon="37.3551820">
    <ele>5873.0</ele>
    <time>2026-06-23T05:11:23Z</time>
   </trkpt>
   <trkpt lat="-3.0776310" lon="37.3551860">
    <ele>5873.0</ele>
    <time>2026-06-23T05:11:24Z</time>
   </trkpt>
   <trkpt lat="-3.0776340" lon="37.3551900">
    <ele>5873.0</ele>
    <time>2026-06-23T05:11:25Z</time>
   </trkpt>
   <trkpt lat="-3.0776380" lon="37.3551950">
    <ele>5873.0</ele>
    <time>2026-06-23T05:11:26Z</time>
   </trkpt>
   <trkpt lat="-3.0776390" lon="37.3551980">
    <ele>5873.0</ele>
    <time>2026-06-23T05:11:27Z</time>
   </trkpt>
   <trkpt lat="-3.0776420" lon="37.3552020">
    <ele>5872.9</ele>
    <time>2026-06-23T05:11:28Z</time>
   </trkpt>
   <trkpt lat="-3.0776440" lon="37.3552060">
    <ele>5872.9</ele>
    <time>2026-06-23T05:11:29Z</time>
   </trkpt>
   <trkpt lat="-3.0776460" lon="37.3552080">
    <ele>5872.9</ele>
    <time>2026-06-23T05:11:30Z</time>
   </trkpt>
   <trkpt lat="-3.0776500" lon="37.3552120">
    <ele>5872.9</ele>
    <time>2026-06-23T05:11:31Z</time>
   </trkpt>
   <trkpt lat="-3.0776530" lon="37.3552170">
    <ele>5872.9</ele>
    <time>2026-06-23T05:11:32Z</time>
   </trkpt>
   <trkpt lat="-3.0776540" lon="37.3552220">
    <ele>5872.9</ele>
    <time>2026-06-23T05:11:33Z</time>
   </trkpt>
   <trkpt lat="-3.0776560" lon="37.3552250">
    <ele>5872.9</ele>
    <time>2026-06-23T05:11:34Z</time>
   </trkpt>
   <trkpt lat="-3.0776580" lon="37.3552300">
    <ele>5872.9</ele>
    <time>2026-06-23T05:11:35Z</time>
   </trkpt>
   <trkpt lat="-3.0776610" lon="37.3552350">
    <ele>5872.9</ele>
    <time>2026-06-23T05:11:36Z</time>
   </trkpt>
   <trkpt lat="-3.0776610" lon="37.3552370">
    <ele>5872.8</ele>
    <time>2026-06-23T05:11:37Z</time>
   </trkpt>
   <trkpt lat="-3.0776670" lon="37.3552430">
    <ele>5872.8</ele>
    <time>2026-06-23T05:11:38Z</time>
   </trkpt>
   <trkpt lat="-3.0776660" lon="37.3552460">
    <ele>5872.8</ele>
    <time>2026-06-23T05:11:39Z</time>
   </trkpt>
   <trkpt lat="-3.0776700" lon="37.3552510">
    <ele>5872.8</ele>
    <time>2026-06-23T05:11:40Z</time>
   </trkpt>
   <trkpt lat="-3.0776700" lon="37.3552530">
    <ele>5872.8</ele>
    <time>2026-06-23T05:11:41Z</time>
   </trkpt>
   <trkpt lat="-3.0776710" lon="37.3552540">
    <ele>5872.8</ele>
    <time>2026-06-23T05:11:42Z</time>
   </trkpt>
   <trkpt lat="-3.0776740" lon="37.3552580">
    <ele>5872.8</ele>
    <time>2026-06-23T05:11:43Z</time>
   </trkpt>
   <trkpt lat="-3.0776760" lon="37.3552620">
    <ele>5872.8</ele>
    <time>2026-06-23T05:11:44Z</time>
   </trkpt>
   <trkpt lat="-3.0776780" lon="37.3552650">
    <ele>5872.8</ele>
    <time>2026-06-23T05:11:45Z</time>
   </trkpt>
   <trkpt lat="-3.0776810" lon="37.3552680">
    <ele>5872.8</ele>
    <time>2026-06-23T05:11:46Z</time>
   </trkpt>
   <trkpt lat="-3.0776820" lon="37.3552720">
    <ele>5872.7</ele>
    <time>2026-06-23T05:11:47Z</time>
   </trkpt>
   <trkpt lat="-3.0776860" lon="37.3552740">
    <ele>5872.7</ele>
    <time>2026-06-23T05:11:48Z</time>
   </trkpt>
   <trkpt lat="-3.0776860" lon="37.3552770">
    <ele>5872.7</ele>
    <time>2026-06-23T05:11:49Z</time>
   </trkpt>
   <trkpt lat="-3.0776890" lon="37.3552810">
    <ele>5872.7</ele>
    <time>2026-06-23T05:11:50Z</time>
   </trkpt>
   <trkpt lat="-3.0776910" lon="37.3552830">
    <ele>5872.7</ele>
    <time>2026-06-23T05:11:51Z</time>
   </trkpt>
   <trkpt lat="-3.0776910" lon="37.3552870">
    <ele>5872.7</ele>
    <time>2026-06-23T05:11:52Z</time>
   </trkpt>
   <trkpt lat="-3.0776930" lon="37.3552910">
    <ele>5872.7</ele>
    <time>2026-06-23T05:11:53Z</time>
   </trkpt>
   <trkpt lat="-3.0776950" lon="37.3552950">
    <ele>5872.7</ele>
    <time>2026-06-23T05:11:54Z</time>
   </trkpt>
   <trkpt lat="-3.0776980" lon="37.3553000">
    <ele>5872.7</ele>
    <time>2026-06-23T05:11:55Z</time>
   </trkpt>
   <trkpt lat="-3.0776990" lon="37.3553040">
    <ele>5872.6</ele>
    <time>2026-06-23T05:11:56Z</time>
   </trkpt>
   <trkpt lat="-3.0777020" lon="37.3553080">
    <ele>5872.6</ele>
    <time>2026-06-23T05:11:57Z</time>
   </trkpt>
   <trkpt lat="-3.0777050" lon="37.3553120">
    <ele>5872.6</ele>
    <time>2026-06-23T05:11:58Z</time>
   </trkpt>
   <trkpt lat="-3.0777080" lon="37.3553130">
    <ele>5872.6</ele>
    <time>2026-06-23T05:11:59Z</time>
   </trkpt>
   <trkpt lat="-3.0777120" lon="37.3553190">
    <ele>5872.6</ele>
    <time>2026-06-23T05:12:00Z</time>
   </trkpt>
   <trkpt lat="-3.0777150" lon="37.3553240">
    <ele>5872.6</ele>
    <time>2026-06-23T05:12:01Z</time>
   </trkpt>
   <trkpt lat="-3.0777180" lon="37.3553270">
    <ele>5872.6</ele>
    <time>2026-06-23T05:12:02Z</time>
   </trkpt>
   <trkpt lat="-3.0777200" lon="37.3553330">
    <ele>5872.6</ele>
    <time>2026-06-23T05:12:03Z</time>
   </trkpt>
   <trkpt lat="-3.0777240" lon="37.3553410">
    <ele>5872.5</ele>
    <time>2026-06-23T05:12:04Z</time>
   </trkpt>
   <trkpt lat="-3.0777280" lon="37.3553460">
    <ele>5872.5</ele>
    <time>2026-06-23T05:12:05Z</time>
   </trkpt>
   <trkpt lat="-3.0777330" lon="37.3553520">
    <ele>5872.5</ele>
    <time>2026-06-23T05:12:06Z</time>
   </trkpt>
   <trkpt lat="-3.0777370" lon="37.3553580">
    <ele>5872.5</ele>
    <time>2026-06-23T05:12:07Z</time>
   </trkpt>
   <trkpt lat="-3.0777400" lon="37.3553630">
    <ele>5872.5</ele>
    <time>2026-06-23T05:12:08Z</time>
   </trkpt>
   <trkpt lat="-3.0777400" lon="37.3553670">
    <ele>5872.5</ele>
    <time>2026-06-23T05:12:09Z</time>
   </trkpt>
   <trkpt lat="-3.0777430" lon="37.3553730">
    <ele>5872.5</ele>
    <time>2026-06-23T05:12:10Z</time>
   </trkpt>
   <trkpt lat="-3.0777440" lon="37.3553800">
    <ele>5872.5</ele>
    <time>2026-06-23T05:12:11Z</time>
   </trkpt>
   <trkpt lat="-3.0777450" lon="37.3553860">
    <ele>5872.5</ele>
    <time>2026-06-23T05:12:12Z</time>
   </trkpt>
   <trkpt lat="-3.0777480" lon="37.3553920">
    <ele>5872.5</ele>
    <time>2026-06-23T05:12:13Z</time>
   </trkpt>
   <trkpt lat="-3.0777500" lon="37.3553940">
    <ele>5872.5</ele>
    <time>2026-06-23T05:12:14Z</time>
   </trkpt>
   <trkpt lat="-3.0777570" lon="37.3554020">
    <ele>5872.5</ele>
    <time>2026-06-23T05:12:15Z</time>
   </trkpt>
   <trkpt lat="-3.0777630" lon="37.3554040">
    <ele>5872.5</ele>
    <time>2026-06-23T05:12:16Z</time>
   </trkpt>
   <trkpt lat="-3.0777660" lon="37.3554070">
    <ele>5872.5</ele>
    <time>2026-06-23T05:12:17Z</time>
   </trkpt>
   <trkpt lat="-3.0777680" lon="37.3554090">
    <ele>5872.5</ele>
    <time>2026-06-23T05:12:18Z</time>
   </trkpt>
   <trkpt lat="-3.0777700" lon="37.3554110">
    <ele>5872.5</ele>
    <time>2026-06-23T05:12:19Z</time>
   </trkpt>
   <trkpt lat="-3.0777720" lon="37.3554120">
    <ele>5872.5</ele>
    <time>2026-06-23T05:12:20Z</time>
   </trkpt>
   <trkpt lat="-3.0777760" lon="37.3554160">
    <ele>5872.5</ele>
    <time>2026-06-23T05:12:21Z</time>
   </trkpt>
   <trkpt lat="-3.0777770" lon="37.3554160">
    <ele>5872.5</ele>
    <time>2026-06-23T05:12:22Z</time>
   </trkpt>
   <trkpt lat="-3.0777800" lon="37.3554200">
    <ele>5872.5</ele>
    <time>2026-06-23T05:12:23Z</time>
   </trkpt>
   <trkpt lat="-3.0777830" lon="37.3554220">
    <ele>5872.5</ele>
    <time>2026-06-23T05:12:24Z</time>
   </trkpt>
   <trkpt lat="-3.0777850" lon="37.3554250">
    <ele>5872.5</ele>
    <time>2026-06-23T05:12:25Z</time>
   </trkpt>
   <trkpt lat="-3.0777890" lon="37.3554280">
    <ele>5872.5</ele>
    <time>2026-06-23T05:12:26Z</time>
   </trkpt>
   <trkpt lat="-3.0777890" lon="37.3554300">
    <ele>5872.5</ele>
    <time>2026-06-23T05:12:27Z</time>
   </trkpt>
   <trkpt lat="-3.0777950" lon="37.3554340">
    <ele>5872.5</ele>
    <time>2026-06-23T05:12:28Z</time>
   </trkpt>
   <trkpt lat="-3.0777950" lon="37.3554350">
    <ele>5872.5</ele>
    <time>2026-06-23T05:12:29Z</time>
   </trkpt>
   <trkpt lat="-3.0778030" lon="37.3554450">
    <ele>5872.5</ele>
    <time>2026-06-23T05:12:30Z</time>
   </trkpt>
   <trkpt lat="-3.0778030" lon="37.3554450">
    <ele>5872.5</ele>
    <time>2026-06-23T05:12:31Z</time>
   </trkpt>
   <trkpt lat="-3.0778060" lon="37.3554520">
    <ele>5872.5</ele>
    <time>2026-06-23T05:12:32Z</time>
   </trkpt>
   <trkpt lat="-3.0778100" lon="37.3554560">
    <ele>5872.5</ele>
    <time>2026-06-23T05:12:33Z</time>
   </trkpt>
   <trkpt lat="-3.0778140" lon="37.3554610">
    <ele>5872.4</ele>
    <time>2026-06-23T05:12:34Z</time>
   </trkpt>
   <trkpt lat="-3.0778170" lon="37.3554650">
    <ele>5872.4</ele>
    <time>2026-06-23T05:12:35Z</time>
   </trkpt>
   <trkpt lat="-3.0778210" lon="37.3554700">
    <ele>5872.4</ele>
    <time>2026-06-23T05:12:36Z</time>
   </trkpt>
   <trkpt lat="-3.0778230" lon="37.3554740">
    <ele>5872.4</ele>
    <time>2026-06-23T05:12:37Z</time>
   </trkpt>
   <trkpt lat="-3.0778250" lon="37.3554760">
    <ele>5872.4</ele>
    <time>2026-06-23T05:12:38Z</time>
   </trkpt>
   <trkpt lat="-3.0778280" lon="37.3554810">
    <ele>5872.4</ele>
    <time>2026-06-23T05:12:39Z</time>
   </trkpt>
   <trkpt lat="-3.0778300" lon="37.3554840">
    <ele>5872.4</ele>
    <time>2026-06-23T05:12:40Z</time>
   </trkpt>
   <trkpt lat="-3.0778340" lon="37.3554890">
    <ele>5872.4</ele>
    <time>2026-06-23T05:12:42Z</time>
   </trkpt>
   <trkpt lat="-3.0778380" lon="37.3554930">
    <ele>5872.4</ele>
    <time>2026-06-23T05:12:43Z</time>
   </trkpt>
   <trkpt lat="-3.0778410" lon="37.3554970">
    <ele>5872.4</ele>
    <time>2026-06-23T05:12:44Z</time>
   </trkpt>
   <trkpt lat="-3.0778430" lon="37.3555000">
    <ele>5872.4</ele>
    <time>2026-06-23T05:12:45Z</time>
   </trkpt>
   <trkpt lat="-3.0778460" lon="37.3555030">
    <ele>5872.4</ele>
    <time>2026-06-23T05:12:46Z</time>
   </trkpt>
   <trkpt lat="-3.0778500" lon="37.3555080">
    <ele>5872.4</ele>
    <time>2026-06-23T05:12:47Z</time>
   </trkpt>
   <trkpt lat="-3.0778520" lon="37.3555100">
    <ele>5872.4</ele>
    <time>2026-06-23T05:12:48Z</time>
   </trkpt>
   <trkpt lat="-3.0778550" lon="37.3555130">
    <ele>5872.4</ele>
    <time>2026-06-23T05:12:49Z</time>
   </trkpt>
   <trkpt lat="-3.0778570" lon="37.3555150">
    <ele>5872.4</ele>
    <time>2026-06-23T05:12:50Z</time>
   </trkpt>
   <trkpt lat="-3.0778580" lon="37.3555170">
    <ele>5872.4</ele>
    <time>2026-06-23T05:12:51Z</time>
   </trkpt>
   <trkpt lat="-3.0778640" lon="37.3555240">
    <ele>5872.4</ele>
    <time>2026-06-23T05:12:52Z</time>
   </trkpt>
   <trkpt lat="-3.0778650" lon="37.3555250">
    <ele>5872.4</ele>
    <time>2026-06-23T05:12:53Z</time>
   </trkpt>
   <trkpt lat="-3.0778690" lon="37.3555300">
    <ele>5872.4</ele>
    <time>2026-06-23T05:12:54Z</time>
   </trkpt>
   <trkpt lat="-3.0778700" lon="37.3555330">
    <ele>5872.4</ele>
    <time>2026-06-23T05:12:55Z</time>
   </trkpt>
   <trkpt lat="-3.0778760" lon="37.3555390">
    <ele>5872.4</ele>
    <time>2026-06-23T05:12:56Z</time>
   </trkpt>
   <trkpt lat="-3.0778760" lon="37.3555410">
    <ele>5872.4</ele>
    <time>2026-06-23T05:12:57Z</time>
   </trkpt>
   <trkpt lat="-3.0778800" lon="37.3555450">
    <ele>5872.3</ele>
    <time>2026-06-23T05:12:58Z</time>
   </trkpt>
   <trkpt lat="-3.0778820" lon="37.3555500">
    <ele>5872.3</ele>
    <time>2026-06-23T05:12:59Z</time>
   </trkpt>
   <trkpt lat="-3.0778850" lon="37.3555540">
    <ele>5872.3</ele>
    <time>2026-06-23T05:13:00Z</time>
   </trkpt>
   <trkpt lat="-3.0778870" lon="37.3555580">
    <ele>5872.3</ele>
    <time>2026-06-23T05:13:01Z</time>
   </trkpt>
   <trkpt lat="-3.0778900" lon="37.3555620">
    <ele>5872.3</ele>
    <time>2026-06-23T05:13:02Z</time>
   </trkpt>
   <trkpt lat="-3.0778930" lon="37.3555670">
    <ele>5872.3</ele>
    <time>2026-06-23T05:13:03Z</time>
   </trkpt>
   <trkpt lat="-3.0778980" lon="37.3555740">
    <ele>5872.3</ele>
    <time>2026-06-23T05:13:04Z</time>
   </trkpt>
   <trkpt lat="-3.0779000" lon="37.3555750">
    <ele>5872.2</ele>
    <time>2026-06-23T05:13:05Z</time>
   </trkpt>
   <trkpt lat="-3.0779010" lon="37.3555750">
    <ele>5872.2</ele>
    <time>2026-06-23T05:13:06Z</time>
   </trkpt>
   <trkpt lat="-3.0779030" lon="37.3555810">
    <ele>5872.2</ele>
    <time>2026-06-23T05:13:07Z</time>
   </trkpt>
   <trkpt lat="-3.0779060" lon="37.3555820">
    <ele>5872.2</ele>
    <time>2026-06-23T05:13:08Z</time>
   </trkpt>
   <trkpt lat="-3.0779080" lon="37.3555870">
    <ele>5872.2</ele>
    <time>2026-06-23T05:13:09Z</time>
   </trkpt>
   <trkpt lat="-3.0779110" lon="37.3555910">
    <ele>5872.2</ele>
    <time>2026-06-23T05:13:10Z</time>
   </trkpt>
   <trkpt lat="-3.0779150" lon="37.3555950">
    <ele>5872.2</ele>
    <time>2026-06-23T05:13:11Z</time>
   </trkpt>
   <trkpt lat="-3.0779190" lon="37.3556000">
    <ele>5872.2</ele>
    <time>2026-06-23T05:13:12Z</time>
   </trkpt>
   <trkpt lat="-3.0779210" lon="37.3556040">
    <ele>5872.1</ele>
    <time>2026-06-23T05:13:13Z</time>
   </trkpt>
   <trkpt lat="-3.0779250" lon="37.3556080">
    <ele>5872.1</ele>
    <time>2026-06-23T05:13:14Z</time>
   </trkpt>
   <trkpt lat="-3.0779270" lon="37.3556120">
    <ele>5872.1</ele>
    <time>2026-06-23T05:13:15Z</time>
   </trkpt>
   <trkpt lat="-3.0779290" lon="37.3556140">
    <ele>5872.1</ele>
    <time>2026-06-23T05:13:16Z</time>
   </trkpt>
   <trkpt lat="-3.0779320" lon="37.3556190">
    <ele>5872.1</ele>
    <time>2026-06-23T05:13:17Z</time>
   </trkpt>
   <trkpt lat="-3.0779340" lon="37.3556230">
    <ele>5872.1</ele>
    <time>2026-06-23T05:13:18Z</time>
   </trkpt>
   <trkpt lat="-3.0779360" lon="37.3556270">
    <ele>5872.1</ele>
    <time>2026-06-23T05:13:19Z</time>
   </trkpt>
   <trkpt lat="-3.0779390" lon="37.3556310">
    <ele>5872.0</ele>
    <time>2026-06-23T05:13:20Z</time>
   </trkpt>
   <trkpt lat="-3.0779420" lon="37.3556350">
    <ele>5872.0</ele>
    <time>2026-06-23T05:13:21Z</time>
   </trkpt>
   <trkpt lat="-3.0779440" lon="37.3556380">
    <ele>5872.0</ele>
    <time>2026-06-23T05:13:22Z</time>
   </trkpt>
   <trkpt lat="-3.0779520" lon="37.3556480">
    <ele>5872.0</ele>
    <time>2026-06-23T05:13:23Z</time>
   </trkpt>
   <trkpt lat="-3.0779540" lon="37.3556520">
    <ele>5872.0</ele>
    <time>2026-06-23T05:13:24Z</time>
   </trkpt>
   <trkpt lat="-3.0779580" lon="37.3556570">
    <ele>5871.9</ele>
    <time>2026-06-23T05:13:25Z</time>
   </trkpt>
   <trkpt lat="-3.0779610" lon="37.3556620">
    <ele>5871.9</ele>
    <time>2026-06-23T05:13:26Z</time>
   </trkpt>
   <trkpt lat="-3.0779640" lon="37.3556660">
    <ele>5871.9</ele>
    <time>2026-06-23T05:13:27Z</time>
   </trkpt>
   <trkpt lat="-3.0779670" lon="37.3556710">
    <ele>5871.9</ele>
    <time>2026-06-23T05:13:28Z</time>
   </trkpt>
   <trkpt lat="-3.0779700" lon="37.3556760">
    <ele>5871.9</ele>
    <time>2026-06-23T05:13:29Z</time>
   </trkpt>
   <trkpt lat="-3.0779740" lon="37.3556800">
    <ele>5871.9</ele>
    <time>2026-06-23T05:13:30Z</time>
   </trkpt>
   <trkpt lat="-3.0779790" lon="37.3556850">
    <ele>5871.9</ele>
    <time>2026-06-23T05:13:31Z</time>
   </trkpt>
   <trkpt lat="-3.0779820" lon="37.3556880">
    <ele>5871.8</ele>
    <time>2026-06-23T05:13:32Z</time>
   </trkpt>
   <trkpt lat="-3.0779870" lon="37.3556930">
    <ele>5871.8</ele>
    <time>2026-06-23T05:13:33Z</time>
   </trkpt>
   <trkpt lat="-3.0779940" lon="37.3556990">
    <ele>5871.8</ele>
    <time>2026-06-23T05:13:34Z</time>
   </trkpt>
   <trkpt lat="-3.0779950" lon="37.3556990">
    <ele>5871.8</ele>
    <time>2026-06-23T05:13:35Z</time>
   </trkpt>
   <trkpt lat="-3.0779990" lon="37.3557030">
    <ele>5871.8</ele>
    <time>2026-06-23T05:13:36Z</time>
   </trkpt>
   <trkpt lat="-3.0780020" lon="37.3557060">
    <ele>5871.8</ele>
    <time>2026-06-23T05:13:37Z</time>
   </trkpt>
   <trkpt lat="-3.0780050" lon="37.3557090">
    <ele>5871.8</ele>
    <time>2026-06-23T05:13:38Z</time>
   </trkpt>
   <trkpt lat="-3.0780110" lon="37.3557160">
    <ele>5871.8</ele>
    <time>2026-06-23T05:13:39Z</time>
   </trkpt>
   <trkpt lat="-3.0780150" lon="37.3557180">
    <ele>5871.8</ele>
    <time>2026-06-23T05:13:40Z</time>
   </trkpt>
   <trkpt lat="-3.0780170" lon="37.3557210">
    <ele>5871.8</ele>
    <time>2026-06-23T05:13:41Z</time>
   </trkpt>
   <trkpt lat="-3.0780190" lon="37.3557240">
    <ele>5871.8</ele>
    <time>2026-06-23T05:13:42Z</time>
   </trkpt>
   <trkpt lat="-3.0780250" lon="37.3557300">
    <ele>5871.7</ele>
    <time>2026-06-23T05:13:43Z</time>
   </trkpt>
   <trkpt lat="-3.0780270" lon="37.3557320">
    <ele>5871.7</ele>
    <time>2026-06-23T05:13:44Z</time>
   </trkpt>
   <trkpt lat="-3.0780310" lon="37.3557370">
    <ele>5871.7</ele>
    <time>2026-06-23T05:13:45Z</time>
   </trkpt>
   <trkpt lat="-3.0780350" lon="37.3557420">
    <ele>5871.7</ele>
    <time>2026-06-23T05:13:46Z</time>
   </trkpt>
   <trkpt lat="-3.0780370" lon="37.3557430">
    <ele>5871.7</ele>
    <time>2026-06-23T05:13:47Z</time>
   </trkpt>
   <trkpt lat="-3.0780400" lon="37.3557470">
    <ele>5871.7</ele>
    <time>2026-06-23T05:13:48Z</time>
   </trkpt>
   <trkpt lat="-3.0780430" lon="37.3557500">
    <ele>5871.7</ele>
    <time>2026-06-23T05:13:49Z</time>
   </trkpt>
   <trkpt lat="-3.0780430" lon="37.3557500">
    <ele>5871.7</ele>
    <time>2026-06-23T05:13:50Z</time>
   </trkpt>
   <trkpt lat="-3.0780450" lon="37.3557510">
    <ele>5871.7</ele>
    <time>2026-06-23T05:13:51Z</time>
   </trkpt>
   <trkpt lat="-3.0780470" lon="37.3557560">
    <ele>5871.7</ele>
    <time>2026-06-23T05:13:52Z</time>
   </trkpt>
   <trkpt lat="-3.0780530" lon="37.3557590">
    <ele>5871.7</ele>
    <time>2026-06-23T05:13:53Z</time>
   </trkpt>
   <trkpt lat="-3.0780520" lon="37.3557600">
    <ele>5871.7</ele>
    <time>2026-06-23T05:13:54Z</time>
   </trkpt>
   <trkpt lat="-3.0780600" lon="37.3557670">
    <ele>5871.8</ele>
    <time>2026-06-23T05:13:55Z</time>
   </trkpt>
   <trkpt lat="-3.0780630" lon="37.3557700">
    <ele>5871.8</ele>
    <time>2026-06-23T05:13:56Z</time>
   </trkpt>
   <trkpt lat="-3.0780660" lon="37.3557740">
    <ele>5871.8</ele>
    <time>2026-06-23T05:13:57Z</time>
   </trkpt>
   <trkpt lat="-3.0780680" lon="37.3557780">
    <ele>5871.8</ele>
    <time>2026-06-23T05:13:58Z</time>
   </trkpt>
   <trkpt lat="-3.0780710" lon="37.3557820">
    <ele>5871.8</ele>
    <time>2026-06-23T05:13:59Z</time>
   </trkpt>
   <trkpt lat="-3.0780720" lon="37.3557840">
    <ele>5871.8</ele>
    <time>2026-06-23T05:14:00Z</time>
   </trkpt>
   <trkpt lat="-3.0780720" lon="37.3557850">
    <ele>5871.8</ele>
    <time>2026-06-23T05:14:01Z</time>
   </trkpt>
   <trkpt lat="-3.0780760" lon="37.3557880">
    <ele>5871.8</ele>
    <time>2026-06-23T05:14:02Z</time>
   </trkpt>
   <trkpt lat="-3.0780760" lon="37.3557890">
    <ele>5871.8</ele>
    <time>2026-06-23T05:14:03Z</time>
   </trkpt>
   <trkpt lat="-3.0780780" lon="37.3557940">
    <ele>5871.8</ele>
    <time>2026-06-23T05:14:04Z</time>
   </trkpt>
   <trkpt lat="-3.0780810" lon="37.3557970">
    <ele>5871.8</ele>
    <time>2026-06-23T05:14:05Z</time>
   </trkpt>
   <trkpt lat="-3.0780830" lon="37.3558010">
    <ele>5871.8</ele>
    <time>2026-06-23T05:14:06Z</time>
   </trkpt>
   <trkpt lat="-3.0780850" lon="37.3558050">
    <ele>5871.8</ele>
    <time>2026-06-23T05:14:07Z</time>
   </trkpt>
   <trkpt lat="-3.0780880" lon="37.3558080">
    <ele>5871.8</ele>
    <time>2026-06-23T05:14:08Z</time>
   </trkpt>
   <trkpt lat="-3.0780910" lon="37.3558130">
    <ele>5871.9</ele>
    <time>2026-06-23T05:14:09Z</time>
   </trkpt>
   <trkpt lat="-3.0780930" lon="37.3558150">
    <ele>5871.9</ele>
    <time>2026-06-23T05:14:10Z</time>
   </trkpt>
   <trkpt lat="-3.0780960" lon="37.3558200">
    <ele>5871.9</ele>
    <time>2026-06-23T05:14:11Z</time>
   </trkpt>
   <trkpt lat="-3.0780980" lon="37.3558230">
    <ele>5871.9</ele>
    <time>2026-06-23T05:14:12Z</time>
   </trkpt>
   <trkpt lat="-3.0781010" lon="37.3558270">
    <ele>5871.9</ele>
    <time>2026-06-23T05:14:13Z</time>
   </trkpt>
   <trkpt lat="-3.0781040" lon="37.3558320">
    <ele>5871.9</ele>
    <time>2026-06-23T05:14:14Z</time>
   </trkpt>
   <trkpt lat="-3.0781070" lon="37.3558350">
    <ele>5871.9</ele>
    <time>2026-06-23T05:14:15Z</time>
   </trkpt>
   <trkpt lat="-3.0781110" lon="37.3558400">
    <ele>5871.9</ele>
    <time>2026-06-23T05:14:16Z</time>
   </trkpt>
   <trkpt lat="-3.0781130" lon="37.3558440">
    <ele>5872.0</ele>
    <time>2026-06-23T05:14:17Z</time>
   </trkpt>
   <trkpt lat="-3.0781160" lon="37.3558470">
    <ele>5872.0</ele>
    <time>2026-06-23T05:14:18Z</time>
   </trkpt>
   <trkpt lat="-3.0781200" lon="37.3558510">
    <ele>5872.0</ele>
    <time>2026-06-23T05:14:19Z</time>
   </trkpt>
   <trkpt lat="-3.0781230" lon="37.3558560">
    <ele>5872.0</ele>
    <time>2026-06-23T05:14:20Z</time>
   </trkpt>
   <trkpt lat="-3.0781250" lon="37.3558580">
    <ele>5872.0</ele>
    <time>2026-06-23T05:14:21Z</time>
   </trkpt>
   <trkpt lat="-3.0781280" lon="37.3558630">
    <ele>5872.0</ele>
    <time>2026-06-23T05:14:22Z</time>
   </trkpt>
   <trkpt lat="-3.0781310" lon="37.3558660">
    <ele>5872.0</ele>
    <time>2026-06-23T05:14:23Z</time>
   </trkpt>
   <trkpt lat="-3.0781340" lon="37.3558700">
    <ele>5872.0</ele>
    <time>2026-06-23T05:14:24Z</time>
   </trkpt>
   <trkpt lat="-3.0781380" lon="37.3558740">
    <ele>5872.1</ele>
    <time>2026-06-23T05:14:25Z</time>
   </trkpt>
   <trkpt lat="-3.0781420" lon="37.3558780">
    <ele>5872.1</ele>
    <time>2026-06-23T05:14:26Z</time>
   </trkpt>
   <trkpt lat="-3.0781450" lon="37.3558820">
    <ele>5872.1</ele>
    <time>2026-06-23T05:14:27Z</time>
   </trkpt>
   <trkpt lat="-3.0781460" lon="37.3558840">
    <ele>5872.1</ele>
    <time>2026-06-23T05:14:28Z</time>
   </trkpt>
   <trkpt lat="-3.0781520" lon="37.3558910">
    <ele>5872.1</ele>
    <time>2026-06-23T05:14:29Z</time>
   </trkpt>
   <trkpt lat="-3.0781540" lon="37.3558930">
    <ele>5872.1</ele>
    <time>2026-06-23T05:14:30Z</time>
   </trkpt>
   <trkpt lat="-3.0781570" lon="37.3558970">
    <ele>5872.1</ele>
    <time>2026-06-23T05:14:31Z</time>
   </trkpt>
   <trkpt lat="-3.0781590" lon="37.3558990">
    <ele>5872.1</ele>
    <time>2026-06-23T05:14:32Z</time>
   </trkpt>
   <trkpt lat="-3.0781630" lon="37.3559030">
    <ele>5872.1</ele>
    <time>2026-06-23T05:14:33Z</time>
   </trkpt>
   <trkpt lat="-3.0781660" lon="37.3559070">
    <ele>5872.1</ele>
    <time>2026-06-23T05:14:34Z</time>
   </trkpt>
   <trkpt lat="-3.0781690" lon="37.3559120">
    <ele>5872.2</ele>
    <time>2026-06-23T05:14:35Z</time>
   </trkpt>
   <trkpt lat="-3.0781730" lon="37.3559170">
    <ele>5872.2</ele>
    <time>2026-06-23T05:14:36Z</time>
   </trkpt>
   <trkpt lat="-3.0781770" lon="37.3559230">
    <ele>5872.2</ele>
    <time>2026-06-23T05:14:37Z</time>
   </trkpt>
   <trkpt lat="-3.0781810" lon="37.3559280">
    <ele>5872.2</ele>
    <time>2026-06-23T05:14:38Z</time>
   </trkpt>
   <trkpt lat="-3.0781850" lon="37.3559330">
    <ele>5872.2</ele>
    <time>2026-06-23T05:14:39Z</time>
   </trkpt>
   <trkpt lat="-3.0781890" lon="37.3559380">
    <ele>5872.2</ele>
    <time>2026-06-23T05:14:40Z</time>
   </trkpt>
   <trkpt lat="-3.0781930" lon="37.3559430">
    <ele>5872.2</ele>
    <time>2026-06-23T05:14:41Z</time>
   </trkpt>
   <trkpt lat="-3.0781960" lon="37.3559490">
    <ele>5872.2</ele>
    <time>2026-06-23T05:14:42Z</time>
   </trkpt>
   <trkpt lat="-3.0781990" lon="37.3559530">
    <ele>5872.2</ele>
    <time>2026-06-23T05:14:43Z</time>
   </trkpt>
   <trkpt lat="-3.0782020" lon="37.3559580">
    <ele>5872.2</ele>
    <time>2026-06-23T05:14:44Z</time>
   </trkpt>
   <trkpt lat="-3.0782080" lon="37.3559670">
    <ele>5872.2</ele>
    <time>2026-06-23T05:14:45Z</time>
   </trkpt>
   <trkpt lat="-3.0782120" lon="37.3559730">
    <ele>5872.1</ele>
    <time>2026-06-23T05:14:46Z</time>
   </trkpt>
   <trkpt lat="-3.0782150" lon="37.3559790">
    <ele>5872.1</ele>
    <time>2026-06-23T05:14:48Z</time>
   </trkpt>
   <trkpt lat="-3.0782180" lon="37.3559840">
    <ele>5872.1</ele>
    <time>2026-06-23T05:14:49Z</time>
   </trkpt>
   <trkpt lat="-3.0782210" lon="37.3559900">
    <ele>5872.1</ele>
    <time>2026-06-23T05:14:50Z</time>
   </trkpt>
   <trkpt lat="-3.0782240" lon="37.3559970">
    <ele>5872.1</ele>
    <time>2026-06-23T05:14:51Z</time>
   </trkpt>
   <trkpt lat="-3.0782260" lon="37.3560020">
    <ele>5872.1</ele>
    <time>2026-06-23T05:14:52Z</time>
   </trkpt>
   <trkpt lat="-3.0782300" lon="37.3560070">
    <ele>5872.1</ele>
    <time>2026-06-23T05:14:53Z</time>
   </trkpt>
   <trkpt lat="-3.0782330" lon="37.3560140">
    <ele>5872.0</ele>
    <time>2026-06-23T05:14:54Z</time>
   </trkpt>
   <trkpt lat="-3.0782370" lon="37.3560210">
    <ele>5872.0</ele>
    <time>2026-06-23T05:14:55Z</time>
   </trkpt>
   <trkpt lat="-3.0782390" lon="37.3560270">
    <ele>5872.0</ele>
    <time>2026-06-23T05:14:56Z</time>
   </trkpt>
   <trkpt lat="-3.0782410" lon="37.3560340">
    <ele>5871.9</ele>
    <time>2026-06-23T05:14:57Z</time>
   </trkpt>
   <trkpt lat="-3.0782430" lon="37.3560400">
    <ele>5871.9</ele>
    <time>2026-06-23T05:14:58Z</time>
   </trkpt>
   <trkpt lat="-3.0782450" lon="37.3560470">
    <ele>5871.9</ele>
    <time>2026-06-23T05:14:59Z</time>
   </trkpt>
   <trkpt lat="-3.0782470" lon="37.3560550">
    <ele>5871.8</ele>
    <time>2026-06-23T05:15:00Z</time>
   </trkpt>
   <trkpt lat="-3.0782480" lon="37.3560630">
    <ele>5871.8</ele>
    <time>2026-06-23T05:15:01Z</time>
   </trkpt>
   <trkpt lat="-3.0782510" lon="37.3560690">
    <ele>5871.7</ele>
    <time>2026-06-23T05:15:02Z</time>
   </trkpt>
   <trkpt lat="-3.0782520" lon="37.3560750">
    <ele>5871.7</ele>
    <time>2026-06-23T05:15:03Z</time>
   </trkpt>
   <trkpt lat="-3.0782530" lon="37.3560800">
    <ele>5871.6</ele>
    <time>2026-06-23T05:15:04Z</time>
   </trkpt>
   <trkpt lat="-3.0782560" lon="37.3560880">
    <ele>5871.6</ele>
    <time>2026-06-23T05:15:05Z</time>
   </trkpt>
   <trkpt lat="-3.0782560" lon="37.3560940">
    <ele>5871.6</ele>
    <time>2026-06-23T05:15:06Z</time>
   </trkpt>
   <trkpt lat="-3.0782570" lon="37.3561030">
    <ele>5871.5</ele>
    <time>2026-06-23T05:15:07Z</time>
   </trkpt>
   <trkpt lat="-3.0782580" lon="37.3561110">
    <ele>5871.4</ele>
    <time>2026-06-23T05:15:08Z</time>
   </trkpt>
   <trkpt lat="-3.0782580" lon="37.3561180">
    <ele>5871.4</ele>
    <time>2026-06-23T05:15:09Z</time>
   </trkpt>
   <trkpt lat="-3.0782600" lon="37.3561230">
    <ele>5871.3</ele>
    <time>2026-06-23T05:15:10Z</time>
   </trkpt>
   <trkpt lat="-3.0782620" lon="37.3561300">
    <ele>5871.3</ele>
    <time>2026-06-23T05:15:11Z</time>
   </trkpt>
   <trkpt lat="-3.0782650" lon="37.3561350">
    <ele>5871.2</ele>
    <time>2026-06-23T05:15:12Z</time>
   </trkpt>
   <trkpt lat="-3.0782720" lon="37.3561410">
    <ele>5871.1</ele>
    <time>2026-06-23T05:15:13Z</time>
   </trkpt>
   <trkpt lat="-3.0782750" lon="37.3561490">
    <ele>5871.0</ele>
    <time>2026-06-23T05:15:14Z</time>
   </trkpt>
   <trkpt lat="-3.0782750" lon="37.3561520">
    <ele>5871.0</ele>
    <time>2026-06-23T05:15:15Z</time>
   </trkpt>
   <trkpt lat="-3.0782780" lon="37.3561620">
    <ele>5870.9</ele>
    <time>2026-06-23T05:15:16Z</time>
   </trkpt>
   <trkpt lat="-3.0782760" lon="37.3561650">
    <ele>5870.9</ele>
    <time>2026-06-23T05:15:17Z</time>
   </trkpt>
   <trkpt lat="-3.0782780" lon="37.3561740">
    <ele>5870.8</ele>
    <time>2026-06-23T05:15:18Z</time>
   </trkpt>
   <trkpt lat="-3.0782800" lon="37.3561820">
    <ele>5870.7</ele>
    <time>2026-06-23T05:15:19Z</time>
   </trkpt>
   <trkpt lat="-3.0782810" lon="37.3561860">
    <ele>5870.6</ele>
    <time>2026-06-23T05:15:20Z</time>
   </trkpt>
   <trkpt lat="-3.0782830" lon="37.3561950">
    <ele>5870.5</ele>
    <time>2026-06-23T05:15:21Z</time>
   </trkpt>
   <trkpt lat="-3.0782820" lon="37.3562010">
    <ele>5870.5</ele>
    <time>2026-06-23T05:15:22Z</time>
   </trkpt>
   <trkpt lat="-3.0782840" lon="37.3562080">
    <ele>5870.4</ele>
    <time>2026-06-23T05:15:23Z</time>
   </trkpt>
   <trkpt lat="-3.0782860" lon="37.3562130">
    <ele>5870.3</ele>
    <time>2026-06-23T05:15:24Z</time>
   </trkpt>
   <trkpt lat="-3.0782890" lon="37.3562200">
    <ele>5870.2</ele>
    <time>2026-06-23T05:15:25Z</time>
   </trkpt>
   <trkpt lat="-3.0782910" lon="37.3562230">
    <ele>5870.2</ele>
    <time>2026-06-23T05:15:26Z</time>
   </trkpt>
   <trkpt lat="-3.0782960" lon="37.3562350">
    <ele>5870.0</ele>
    <time>2026-06-23T05:15:27Z</time>
   </trkpt>
   <trkpt lat="-3.0782970" lon="37.3562410">
    <ele>5869.9</ele>
    <time>2026-06-23T05:15:28Z</time>
   </trkpt>
   <trkpt lat="-3.0782990" lon="37.3562490">
    <ele>5869.8</ele>
    <time>2026-06-23T05:15:29Z</time>
   </trkpt>
   <trkpt lat="-3.0783000" lon="37.3562560">
    <ele>5869.7</ele>
    <time>2026-06-23T05:15:30Z</time>
   </trkpt>
   <trkpt lat="-3.0783000" lon="37.3562640">
    <ele>5869.6</ele>
    <time>2026-06-23T05:15:31Z</time>
   </trkpt>
   <trkpt lat="-3.0783000" lon="37.3562700">
    <ele>5869.5</ele>
    <time>2026-06-23T05:15:32Z</time>
   </trkpt>
   <trkpt lat="-3.0783010" lon="37.3562770">
    <ele>5869.4</ele>
    <time>2026-06-23T05:15:33Z</time>
   </trkpt>
   <trkpt lat="-3.0783000" lon="37.3562840">
    <ele>5869.3</ele>
    <time>2026-06-23T05:15:34Z</time>
   </trkpt>
   <trkpt lat="-3.0782980" lon="37.3562890">
    <ele>5869.2</ele>
    <time>2026-06-23T05:15:35Z</time>
   </trkpt>
   <trkpt lat="-3.0782990" lon="37.3562960">
    <ele>5869.1</ele>
    <time>2026-06-23T05:15:36Z</time>
   </trkpt>
   <trkpt lat="-3.0782990" lon="37.3563000">
    <ele>5869.0</ele>
    <time>2026-06-23T05:15:37Z</time>
   </trkpt>
   <trkpt lat="-3.0783010" lon="37.3563050">
    <ele>5868.9</ele>
    <time>2026-06-23T05:15:38Z</time>
   </trkpt>
   <trkpt lat="-3.0783030" lon="37.3563110">
    <ele>5868.8</ele>
    <time>2026-06-23T05:15:39Z</time>
   </trkpt>
   <trkpt lat="-3.0783050" lon="37.3563170">
    <ele>5868.7</ele>
    <time>2026-06-23T05:15:40Z</time>
   </trkpt>
   <trkpt lat="-3.0783080" lon="37.3563230">
    <ele>5868.6</ele>
    <time>2026-06-23T05:15:41Z</time>
   </trkpt>
   <trkpt lat="-3.0783110" lon="37.3563290">
    <ele>5868.5</ele>
    <time>2026-06-23T05:15:42Z</time>
   </trkpt>
   <trkpt lat="-3.0783170" lon="37.3563360">
    <ele>5868.4</ele>
    <time>2026-06-23T05:15:43Z</time>
   </trkpt>
   <trkpt lat="-3.0783210" lon="37.3563430">
    <ele>5868.2</ele>
    <time>2026-06-23T05:15:44Z</time>
   </trkpt>
   <trkpt lat="-3.0783240" lon="37.3563470">
    <ele>5868.1</ele>
    <time>2026-06-23T05:15:45Z</time>
   </trkpt>
   <trkpt lat="-3.0783270" lon="37.3563570">
    <ele>5868.0</ele>
    <time>2026-06-23T05:15:46Z</time>
   </trkpt>
   <trkpt lat="-3.0783300" lon="37.3563650">
    <ele>5867.8</ele>
    <time>2026-06-23T05:15:47Z</time>
   </trkpt>
   <trkpt lat="-3.0783310" lon="37.3563730">
    <ele>5867.7</ele>
    <time>2026-06-23T05:15:48Z</time>
   </trkpt>
   <trkpt lat="-3.0783360" lon="37.3563790">
    <ele>5867.5</ele>
    <time>2026-06-23T05:15:49Z</time>
   </trkpt>
   <trkpt lat="-3.0783410" lon="37.3563870">
    <ele>5867.3</ele>
    <time>2026-06-23T05:15:50Z</time>
   </trkpt>
   <trkpt lat="-3.0783450" lon="37.3563950">
    <ele>5867.2</ele>
    <time>2026-06-23T05:15:51Z</time>
   </trkpt>
   <trkpt lat="-3.0783470" lon="37.3564030">
    <ele>5867.0</ele>
    <time>2026-06-23T05:15:52Z</time>
   </trkpt>
   <trkpt lat="-3.0783520" lon="37.3564120">
    <ele>5866.8</ele>
    <time>2026-06-23T05:15:53Z</time>
   </trkpt>
   <trkpt lat="-3.0783560" lon="37.3564200">
    <ele>5866.7</ele>
    <time>2026-06-23T05:15:54Z</time>
   </trkpt>
   <trkpt lat="-3.0783600" lon="37.3564280">
    <ele>5866.5</ele>
    <time>2026-06-23T05:15:55Z</time>
   </trkpt>
   <trkpt lat="-3.0783630" lon="37.3564340">
    <ele>5866.4</ele>
    <time>2026-06-23T05:15:56Z</time>
   </trkpt>
   <trkpt lat="-3.0783700" lon="37.3564410">
    <ele>5866.2</ele>
    <time>2026-06-23T05:15:57Z</time>
   </trkpt>
   <trkpt lat="-3.0783750" lon="37.3564480">
    <ele>5866.0</ele>
    <time>2026-06-23T05:15:58Z</time>
   </trkpt>
   <trkpt lat="-3.0783800" lon="37.3564550">
    <ele>5865.9</ele>
    <time>2026-06-23T05:15:59Z</time>
   </trkpt>
   <trkpt lat="-3.0783830" lon="37.3564590">
    <ele>5865.8</ele>
    <time>2026-06-23T05:16:00Z</time>
   </trkpt>
   <trkpt lat="-3.0783880" lon="37.3564640">
    <ele>5865.7</ele>
    <time>2026-06-23T05:16:01Z</time>
   </trkpt>
   <trkpt lat="-3.0783910" lon="37.3564690">
    <ele>5865.5</ele>
    <time>2026-06-23T05:16:02Z</time>
   </trkpt>
   <trkpt lat="-3.0783920" lon="37.3564720">
    <ele>5865.5</ele>
    <time>2026-06-23T05:16:03Z</time>
   </trkpt>
   <trkpt lat="-3.0783960" lon="37.3564790">
    <ele>5865.3</ele>
    <time>2026-06-23T05:16:04Z</time>
   </trkpt>
   <trkpt lat="-3.0784010" lon="37.3564860">
    <ele>5865.2</ele>
    <time>2026-06-23T05:16:05Z</time>
   </trkpt>
   <trkpt lat="-3.0784050" lon="37.3564910">
    <ele>5865.1</ele>
    <time>2026-06-23T05:16:06Z</time>
   </trkpt>
   <trkpt lat="-3.0784070" lon="37.3564950">
    <ele>5865.0</ele>
    <time>2026-06-23T05:16:07Z</time>
   </trkpt>
   <trkpt lat="-3.0784110" lon="37.3565010">
    <ele>5864.8</ele>
    <time>2026-06-23T05:16:08Z</time>
   </trkpt>
   <trkpt lat="-3.0784160" lon="37.3565060">
    <ele>5864.7</ele>
    <time>2026-06-23T05:16:09Z</time>
   </trkpt>
   <trkpt lat="-3.0784200" lon="37.3565120">
    <ele>5864.6</ele>
    <time>2026-06-23T05:16:10Z</time>
   </trkpt>
   <trkpt lat="-3.0784240" lon="37.3565170">
    <ele>5864.5</ele>
    <time>2026-06-23T05:16:11Z</time>
   </trkpt>
   <trkpt lat="-3.0784270" lon="37.3565220">
    <ele>5864.4</ele>
    <time>2026-06-23T05:16:12Z</time>
   </trkpt>
   <trkpt lat="-3.0784300" lon="37.3565270">
    <ele>5864.2</ele>
    <time>2026-06-23T05:16:13Z</time>
   </trkpt>
   <trkpt lat="-3.0784350" lon="37.3565310">
    <ele>5864.1</ele>
    <time>2026-06-23T05:16:14Z</time>
   </trkpt>
   <trkpt lat="-3.0784400" lon="37.3565360">
    <ele>5864.0</ele>
    <time>2026-06-23T05:16:15Z</time>
   </trkpt>
   <trkpt lat="-3.0784430" lon="37.3565440">
    <ele>5863.8</ele>
    <time>2026-06-23T05:16:16Z</time>
   </trkpt>
   <trkpt lat="-3.0784470" lon="37.3565530">
    <ele>5863.6</ele>
    <time>2026-06-23T05:16:17Z</time>
   </trkpt>
   <trkpt lat="-3.0784520" lon="37.3565620">
    <ele>5863.5</ele>
    <time>2026-06-23T05:16:18Z</time>
   </trkpt>
   <trkpt lat="-3.0784580" lon="37.3565720">
    <ele>5863.3</ele>
    <time>2026-06-23T05:16:19Z</time>
   </trkpt>
   <trkpt lat="-3.0784620" lon="37.3565790">
    <ele>5863.1</ele>
    <time>2026-06-23T05:16:20Z</time>
   </trkpt>
   <trkpt lat="-3.0784670" lon="37.3565890">
    <ele>5862.9</ele>
    <time>2026-06-23T05:16:21Z</time>
   </trkpt>
   <trkpt lat="-3.0784730" lon="37.3565990">
    <ele>5862.7</ele>
    <time>2026-06-23T05:16:22Z</time>
   </trkpt>
   <trkpt lat="-3.0784760" lon="37.3566080">
    <ele>5862.5</ele>
    <time>2026-06-23T05:16:23Z</time>
   </trkpt>
   <trkpt lat="-3.0784830" lon="37.3566200">
    <ele>5862.3</ele>
    <time>2026-06-23T05:16:24Z</time>
   </trkpt>
   <trkpt lat="-3.0784880" lon="37.3566280">
    <ele>5862.1</ele>
    <time>2026-06-23T05:16:25Z</time>
   </trkpt>
   <trkpt lat="-3.0784960" lon="37.3566320">
    <ele>5862.0</ele>
    <time>2026-06-23T05:16:26Z</time>
   </trkpt>
   <trkpt lat="-3.0785040" lon="37.3566390">
    <ele>5861.8</ele>
    <time>2026-06-23T05:16:27Z</time>
   </trkpt>
   <trkpt lat="-3.0785100" lon="37.3566460">
    <ele>5861.6</ele>
    <time>2026-06-23T05:16:28Z</time>
   </trkpt>
   <trkpt lat="-3.0785170" lon="37.3566530">
    <ele>5861.4</ele>
    <time>2026-06-23T05:16:29Z</time>
   </trkpt>
   <trkpt lat="-3.0785240" lon="37.3566590">
    <ele>5861.3</ele>
    <time>2026-06-23T05:16:30Z</time>
   </trkpt>
   <trkpt lat="-3.0785300" lon="37.3566620">
    <ele>5861.2</ele>
    <time>2026-06-23T05:16:31Z</time>
   </trkpt>
   <trkpt lat="-3.0785370" lon="37.3566680">
    <ele>5861.0</ele>
    <time>2026-06-23T05:16:32Z</time>
   </trkpt>
   <trkpt lat="-3.0785410" lon="37.3566740">
    <ele>5860.9</ele>
    <time>2026-06-23T05:16:33Z</time>
   </trkpt>
   <trkpt lat="-3.0785460" lon="37.3566810">
    <ele>5860.7</ele>
    <time>2026-06-23T05:16:34Z</time>
   </trkpt>
   <trkpt lat="-3.0785490" lon="37.3566870">
    <ele>5860.6</ele>
    <time>2026-06-23T05:16:35Z</time>
   </trkpt>
   <trkpt lat="-3.0785550" lon="37.3566930">
    <ele>5860.5</ele>
    <time>2026-06-23T05:16:36Z</time>
   </trkpt>
   <trkpt lat="-3.0785610" lon="37.3566990">
    <ele>5860.4</ele>
    <time>2026-06-23T05:16:37Z</time>
   </trkpt>
   <trkpt lat="-3.0785660" lon="37.3567090">
    <ele>5860.2</ele>
    <time>2026-06-23T05:16:38Z</time>
   </trkpt>
   <trkpt lat="-3.0785710" lon="37.3567180">
    <ele>5860.0</ele>
    <time>2026-06-23T05:16:39Z</time>
   </trkpt>
   <trkpt lat="-3.0785750" lon="37.3567250">
    <ele>5859.9</ele>
    <time>2026-06-23T05:16:40Z</time>
   </trkpt>
   <trkpt lat="-3.0785800" lon="37.3567310">
    <ele>5859.8</ele>
    <time>2026-06-23T05:16:41Z</time>
   </trkpt>
   <trkpt lat="-3.0785840" lon="37.3567400">
    <ele>5859.6</ele>
    <time>2026-06-23T05:16:42Z</time>
   </trkpt>
   <trkpt lat="-3.0785890" lon="37.3567470">
    <ele>5859.5</ele>
    <time>2026-06-23T05:16:43Z</time>
   </trkpt>
   <trkpt lat="-3.0785950" lon="37.3567540">
    <ele>5859.4</ele>
    <time>2026-06-23T05:16:44Z</time>
   </trkpt>
   <trkpt lat="-3.0786000" lon="37.3567560">
    <ele>5859.3</ele>
    <time>2026-06-23T05:16:45Z</time>
   </trkpt>
   <trkpt lat="-3.0786060" lon="37.3567610">
    <ele>5859.2</ele>
    <time>2026-06-23T05:16:46Z</time>
   </trkpt>
   <trkpt lat="-3.0786140" lon="37.3567680">
    <ele>5859.0</ele>
    <time>2026-06-23T05:16:47Z</time>
   </trkpt>
   <trkpt lat="-3.0786180" lon="37.3567730">
    <ele>5859.0</ele>
    <time>2026-06-23T05:16:48Z</time>
   </trkpt>
   <trkpt lat="-3.0786230" lon="37.3567790">
    <ele>5858.8</ele>
    <time>2026-06-23T05:16:49Z</time>
   </trkpt>
   <trkpt lat="-3.0786270" lon="37.3567850">
    <ele>5858.7</ele>
    <time>2026-06-23T05:16:50Z</time>
   </trkpt>
   <trkpt lat="-3.0786310" lon="37.3567930">
    <ele>5858.6</ele>
    <time>2026-06-23T05:16:51Z</time>
   </trkpt>
   <trkpt lat="-3.0786350" lon="37.3568010">
    <ele>5858.5</ele>
    <time>2026-06-23T05:16:52Z</time>
   </trkpt>
   <trkpt lat="-3.0786380" lon="37.3568080">
    <ele>5858.4</ele>
    <time>2026-06-23T05:16:54Z</time>
   </trkpt>
   <trkpt lat="-3.0786410" lon="37.3568150">
    <ele>5858.3</ele>
    <time>2026-06-23T05:16:55Z</time>
   </trkpt>
   <trkpt lat="-3.0786440" lon="37.3568220">
    <ele>5858.2</ele>
    <time>2026-06-23T05:16:56Z</time>
   </trkpt>
   <trkpt lat="-3.0786440" lon="37.3568280">
    <ele>5858.1</ele>
    <time>2026-06-23T05:16:57Z</time>
   </trkpt>
   <trkpt lat="-3.0786440" lon="37.3568360">
    <ele>5858.0</ele>
    <time>2026-06-23T05:16:58Z</time>
   </trkpt>
   <trkpt lat="-3.0786440" lon="37.3568430">
    <ele>5857.9</ele>
    <time>2026-06-23T05:16:59Z</time>
   </trkpt>
   <trkpt lat="-3.0786480" lon="37.3568470">
    <ele>5857.8</ele>
    <time>2026-06-23T05:17:00Z</time>
   </trkpt>
   <trkpt lat="-3.0786520" lon="37.3568520">
    <ele>5857.7</ele>
    <time>2026-06-23T05:17:01Z</time>
   </trkpt>
   <trkpt lat="-3.0786530" lon="37.3568590">
    <ele>5857.6</ele>
    <time>2026-06-23T05:17:02Z</time>
   </trkpt>
   <trkpt lat="-3.0786540" lon="37.3568670">
    <ele>5857.5</ele>
    <time>2026-06-23T05:17:03Z</time>
   </trkpt>
   <trkpt lat="-3.0786520" lon="37.3568730">
    <ele>5857.4</ele>
    <time>2026-06-23T05:17:04Z</time>
   </trkpt>
   <trkpt lat="-3.0786530" lon="37.3568810">
    <ele>5857.3</ele>
    <time>2026-06-23T05:17:05Z</time>
   </trkpt>
   <trkpt lat="-3.0786550" lon="37.3568900">
    <ele>5857.1</ele>
    <time>2026-06-23T05:17:06Z</time>
   </trkpt>
   <trkpt lat="-3.0786570" lon="37.3568960">
    <ele>5857.0</ele>
    <time>2026-06-23T05:17:07Z</time>
   </trkpt>
   <trkpt lat="-3.0786590" lon="37.3569000">
    <ele>5857.0</ele>
    <time>2026-06-23T05:17:08Z</time>
   </trkpt>
   <trkpt lat="-3.0786570" lon="37.3569060">
    <ele>5856.9</ele>
    <time>2026-06-23T05:17:09Z</time>
   </trkpt>
   <trkpt lat="-3.0786540" lon="37.3569130">
    <ele>5856.8</ele>
    <time>2026-06-23T05:17:10Z</time>
   </trkpt>
   <trkpt lat="-3.0786510" lon="37.3569170">
    <ele>5856.7</ele>
    <time>2026-06-23T05:17:11Z</time>
   </trkpt>
   <trkpt lat="-3.0786510" lon="37.3569240">
    <ele>5856.6</ele>
    <time>2026-06-23T05:17:12Z</time>
   </trkpt>
   <trkpt lat="-3.0786540" lon="37.3569310">
    <ele>5856.4</ele>
    <time>2026-06-23T05:17:13Z</time>
   </trkpt>
   <trkpt lat="-3.0786560" lon="37.3569410">
    <ele>5856.3</ele>
    <time>2026-06-23T05:17:14Z</time>
   </trkpt>
   <trkpt lat="-3.0786570" lon="37.3569480">
    <ele>5856.2</ele>
    <time>2026-06-23T05:17:15Z</time>
   </trkpt>
   <trkpt lat="-3.0786560" lon="37.3569550">
    <ele>5856.0</ele>
    <time>2026-06-23T05:17:16Z</time>
   </trkpt>
   <trkpt lat="-3.0786540" lon="37.3569610">
    <ele>5855.9</ele>
    <time>2026-06-23T05:17:17Z</time>
   </trkpt>
   <trkpt lat="-3.0786540" lon="37.3569690">
    <ele>5855.8</ele>
    <time>2026-06-23T05:17:18Z</time>
   </trkpt>
   <trkpt lat="-3.0786570" lon="37.3569770">
    <ele>5855.6</ele>
    <time>2026-06-23T05:17:19Z</time>
   </trkpt>
   <trkpt lat="-3.0786580" lon="37.3569790">
    <ele>5855.6</ele>
    <time>2026-06-23T05:17:20Z</time>
   </trkpt>
   <trkpt lat="-3.0786590" lon="37.3569820">
    <ele>5855.5</ele>
    <time>2026-06-23T05:17:21Z</time>
   </trkpt>
   <trkpt lat="-3.0786580" lon="37.3569850">
    <ele>5855.5</ele>
    <time>2026-06-23T05:17:22Z</time>
   </trkpt>
   <trkpt lat="-3.0786580" lon="37.3569890">
    <ele>5855.4</ele>
    <time>2026-06-23T05:17:23Z</time>
   </trkpt>
   <trkpt lat="-3.0786570" lon="37.3569890">
    <ele>5855.4</ele>
    <time>2026-06-23T05:17:24Z</time>
   </trkpt>
   <trkpt lat="-3.0786560" lon="37.3569920">
    <ele>5855.3</ele>
    <time>2026-06-23T05:17:25Z</time>
   </trkpt>
   <trkpt lat="-3.0786550" lon="37.3569960">
    <ele>5855.2</ele>
    <time>2026-06-23T05:17:26Z</time>
   </trkpt>
   <trkpt lat="-3.0786560" lon="37.3569980">
    <ele>5855.2</ele>
    <time>2026-06-23T05:17:27Z</time>
   </trkpt>
   <trkpt lat="-3.0786580" lon="37.3570110">
    <ele>5854.9</ele>
    <time>2026-06-23T05:17:28Z</time>
   </trkpt>
   <trkpt lat="-3.0786560" lon="37.3570160">
    <ele>5854.8</ele>
    <time>2026-06-23T05:17:29Z</time>
   </trkpt>
   <trkpt lat="-3.0786630" lon="37.3570270">
    <ele>5854.6</ele>
    <time>2026-06-23T05:17:30Z</time>
   </trkpt>
   <trkpt lat="-3.0786700" lon="37.3570290">
    <ele>5854.4</ele>
    <time>2026-06-23T05:17:31Z</time>
   </trkpt>
   <trkpt lat="-3.0786780" lon="37.3570320">
    <ele>5854.2</ele>
    <time>2026-06-23T05:17:32Z</time>
   </trkpt>
   <trkpt lat="-3.0786860" lon="37.3570370">
    <ele>5854.0</ele>
    <time>2026-06-23T05:17:33Z</time>
   </trkpt>
   <trkpt lat="-3.0786870" lon="37.3570380">
    <ele>5854.0</ele>
    <time>2026-06-23T05:17:34Z</time>
   </trkpt>
   <trkpt lat="-3.0786900" lon="37.3570410">
    <ele>5853.9</ele>
    <time>2026-06-23T05:17:35Z</time>
   </trkpt>
   <trkpt lat="-3.0786940" lon="37.3570420">
    <ele>5853.8</ele>
    <time>2026-06-23T05:17:36Z</time>
   </trkpt>
   <trkpt lat="-3.0786940" lon="37.3570390">
    <ele>5853.8</ele>
    <time>2026-06-23T05:17:37Z</time>
   </trkpt>
   <trkpt lat="-3.0786970" lon="37.3570410">
    <ele>5853.7</ele>
    <time>2026-06-23T05:17:38Z</time>
   </trkpt>
   <trkpt lat="-3.0786990" lon="37.3570420">
    <ele>5853.6</ele>
    <time>2026-06-23T05:17:39Z</time>
   </trkpt>
   <trkpt lat="-3.0787050" lon="37.3570510">
    <ele>5853.4</ele>
    <time>2026-06-23T05:17:40Z</time>
   </trkpt>
   <trkpt lat="-3.0787060" lon="37.3570570">
    <ele>5853.3</ele>
    <time>2026-06-23T05:17:41Z</time>
   </trkpt>
   <trkpt lat="-3.0787060" lon="37.3570640">
    <ele>5853.1</ele>
    <time>2026-06-23T05:17:42Z</time>
   </trkpt>
   <trkpt lat="-3.0787080" lon="37.3570680">
    <ele>5853.0</ele>
    <time>2026-06-23T05:17:43Z</time>
   </trkpt>
   <trkpt lat="-3.0787130" lon="37.3570720">
    <ele>5852.9</ele>
    <time>2026-06-23T05:17:44Z</time>
   </trkpt>
   <trkpt lat="-3.0787190" lon="37.3570760">
    <ele>5852.7</ele>
    <time>2026-06-23T05:17:45Z</time>
   </trkpt>
   <trkpt lat="-3.0787250" lon="37.3570780">
    <ele>5852.6</ele>
    <time>2026-06-23T05:17:46Z</time>
   </trkpt>
   <trkpt lat="-3.0787340" lon="37.3570800">
    <ele>5852.3</ele>
    <time>2026-06-23T05:17:47Z</time>
   </trkpt>
   <trkpt lat="-3.0787410" lon="37.3570820">
    <ele>5852.2</ele>
    <time>2026-06-23T05:17:48Z</time>
   </trkpt>
   <trkpt lat="-3.0787470" lon="37.3570850">
    <ele>5852.0</ele>
    <time>2026-06-23T05:17:49Z</time>
   </trkpt>
   <trkpt lat="-3.0787510" lon="37.3570890">
    <ele>5851.9</ele>
    <time>2026-06-23T05:17:50Z</time>
   </trkpt>
   <trkpt lat="-3.0787570" lon="37.3570930">
    <ele>5851.7</ele>
    <time>2026-06-23T05:17:51Z</time>
   </trkpt>
   <trkpt lat="-3.0787620" lon="37.3570930">
    <ele>5851.6</ele>
    <time>2026-06-23T05:17:52Z</time>
   </trkpt>
   <trkpt lat="-3.0787690" lon="37.3570950">
    <ele>5851.5</ele>
    <time>2026-06-23T05:17:53Z</time>
   </trkpt>
   <trkpt lat="-3.0787760" lon="37.3570970">
    <ele>5851.3</ele>
    <time>2026-06-23T05:17:54Z</time>
   </trkpt>
   <trkpt lat="-3.0787820" lon="37.3570980">
    <ele>5851.2</ele>
    <time>2026-06-23T05:17:55Z</time>
   </trkpt>
   <trkpt lat="-3.0787890" lon="37.3571010">
    <ele>5851.0</ele>
    <time>2026-06-23T05:17:56Z</time>
   </trkpt>
   <trkpt lat="-3.0787930" lon="37.3571030">
    <ele>5850.9</ele>
    <time>2026-06-23T05:17:57Z</time>
   </trkpt>
   <trkpt lat="-3.0787980" lon="37.3571100">
    <ele>5850.7</ele>
    <time>2026-06-23T05:17:58Z</time>
   </trkpt>
   <trkpt lat="-3.0788000" lon="37.3571180">
    <ele>5850.5</ele>
    <time>2026-06-23T05:17:59Z</time>
   </trkpt>
   <trkpt lat="-3.0788020" lon="37.3571280">
    <ele>5850.3</ele>
    <time>2026-06-23T05:18:00Z</time>
   </trkpt>
   <trkpt lat="-3.0788050" lon="37.3571340">
    <ele>5850.1</ele>
    <time>2026-06-23T05:18:01Z</time>
   </trkpt>
   <trkpt lat="-3.0788080" lon="37.3571400">
    <ele>5850.0</ele>
    <time>2026-06-23T05:18:02Z</time>
   </trkpt>
   <trkpt lat="-3.0788130" lon="37.3571460">
    <ele>5849.8</ele>
    <time>2026-06-23T05:18:03Z</time>
   </trkpt>
   <trkpt lat="-3.0788180" lon="37.3571500">
    <ele>5849.7</ele>
    <time>2026-06-23T05:18:04Z</time>
   </trkpt>
   <trkpt lat="-3.0788230" lon="37.3571560">
    <ele>5849.5</ele>
    <time>2026-06-23T05:18:05Z</time>
   </trkpt>
   <trkpt lat="-3.0788300" lon="37.3571580">
    <ele>5849.3</ele>
    <time>2026-06-23T05:18:06Z</time>
   </trkpt>
   <trkpt lat="-3.0788370" lon="37.3571620">
    <ele>5849.1</ele>
    <time>2026-06-23T05:18:07Z</time>
   </trkpt>
   <trkpt lat="-3.0788390" lon="37.3571660">
    <ele>5849.0</ele>
    <time>2026-06-23T05:18:08Z</time>
   </trkpt>
   <trkpt lat="-3.0788420" lon="37.3571730">
    <ele>5848.9</ele>
    <time>2026-06-23T05:18:09Z</time>
   </trkpt>
   <trkpt lat="-3.0788460" lon="37.3571780">
    <ele>5848.7</ele>
    <time>2026-06-23T05:18:10Z</time>
   </trkpt>
   <trkpt lat="-3.0788490" lon="37.3571830">
    <ele>5848.6</ele>
    <time>2026-06-23T05:18:11Z</time>
   </trkpt>
   <trkpt lat="-3.0788530" lon="37.3571870">
    <ele>5848.5</ele>
    <time>2026-06-23T05:18:12Z</time>
   </trkpt>
   <trkpt lat="-3.0788580" lon="37.3571890">
    <ele>5848.4</ele>
    <time>2026-06-23T05:18:13Z</time>
   </trkpt>
   <trkpt lat="-3.0788650" lon="37.3571910">
    <ele>5848.2</ele>
    <time>2026-06-23T05:18:14Z</time>
   </trkpt>
   <trkpt lat="-3.0788730" lon="37.3571950">
    <ele>5848.0</ele>
    <time>2026-06-23T05:18:15Z</time>
   </trkpt>
   <trkpt lat="-3.0788760" lon="37.3571970">
    <ele>5848.0</ele>
    <time>2026-06-23T05:18:16Z</time>
   </trkpt>
   <trkpt lat="-3.0788800" lon="37.3572020">
    <ele>5847.8</ele>
    <time>2026-06-23T05:18:17Z</time>
   </trkpt>
   <trkpt lat="-3.0788840" lon="37.3572060">
    <ele>5847.7</ele>
    <time>2026-06-23T05:18:18Z</time>
   </trkpt>
   <trkpt lat="-3.0788850" lon="37.3572110">
    <ele>5847.6</ele>
    <time>2026-06-23T05:18:19Z</time>
   </trkpt>
   <trkpt lat="-3.0788860" lon="37.3572120">
    <ele>5847.6</ele>
    <time>2026-06-23T05:18:20Z</time>
   </trkpt>
   <trkpt lat="-3.0788910" lon="37.3572180">
    <ele>5847.4</ele>
    <time>2026-06-23T05:18:21Z</time>
   </trkpt>
   <trkpt lat="-3.0788970" lon="37.3572230">
    <ele>5847.3</ele>
    <time>2026-06-23T05:18:22Z</time>
   </trkpt>
   <trkpt lat="-3.0788970" lon="37.3572280">
    <ele>5847.2</ele>
    <time>2026-06-23T05:18:23Z</time>
   </trkpt>
   <trkpt lat="-3.0788960" lon="37.3572260">
    <ele>5847.1</ele>
    <time>2026-06-23T05:18:24Z</time>
   </trkpt>
   <trkpt lat="-3.0789000" lon="37.3572370">
    <ele>5846.9</ele>
    <time>2026-06-23T05:18:25Z</time>
   </trkpt>
   <trkpt lat="-3.0789010" lon="37.3572450">
    <ele>5846.7</ele>
    <time>2026-06-23T05:18:26Z</time>
   </trkpt>
   <trkpt lat="-3.0789040" lon="37.3572500">
    <ele>5846.6</ele>
    <time>2026-06-23T05:18:27Z</time>
   </trkpt>
   <trkpt lat="-3.0789070" lon="37.3572550">
    <ele>5846.5</ele>
    <time>2026-06-23T05:18:28Z</time>
   </trkpt>
   <trkpt lat="-3.0789110" lon="37.3572600">
    <ele>5846.3</ele>
    <time>2026-06-23T05:18:29Z</time>
   </trkpt>
   <trkpt lat="-3.0789150" lon="37.3572630">
    <ele>5846.2</ele>
    <time>2026-06-23T05:18:30Z</time>
   </trkpt>
   <trkpt lat="-3.0789220" lon="37.3572660">
    <ele>5846.1</ele>
    <time>2026-06-23T05:18:31Z</time>
   </trkpt>
   <trkpt lat="-3.0789300" lon="37.3572690">
    <ele>5845.9</ele>
    <time>2026-06-23T05:18:32Z</time>
   </trkpt>
   <trkpt lat="-3.0789350" lon="37.3572720">
    <ele>5845.8</ele>
    <time>2026-06-23T05:18:33Z</time>
   </trkpt>
   <trkpt lat="-3.0789390" lon="37.3572760">
    <ele>5845.7</ele>
    <time>2026-06-23T05:18:34Z</time>
   </trkpt>
   <trkpt lat="-3.0789400" lon="37.3572790">
    <ele>5845.6</ele>
    <time>2026-06-23T05:18:35Z</time>
   </trkpt>
   <trkpt lat="-3.0789370" lon="37.3572770">
    <ele>5845.5</ele>
    <time>2026-06-23T05:18:36Z</time>
   </trkpt>
   <trkpt lat="-3.0789390" lon="37.3572780">
    <ele>5845.5</ele>
    <time>2026-06-23T05:18:37Z</time>
   </trkpt>
   <trkpt lat="-3.0789390" lon="37.3572780">
    <ele>5845.5</ele>
    <time>2026-06-23T05:18:38Z</time>
   </trkpt>
   <trkpt lat="-3.0789390" lon="37.3572820">
    <ele>5845.4</ele>
    <time>2026-06-23T05:18:39Z</time>
   </trkpt>
   <trkpt lat="-3.0789430" lon="37.3572860">
    <ele>5845.3</ele>
    <time>2026-06-23T05:18:40Z</time>
   </trkpt>
   <trkpt lat="-3.0789400" lon="37.3572910">
    <ele>5845.2</ele>
    <time>2026-06-23T05:18:41Z</time>
   </trkpt>
   <trkpt lat="-3.0789380" lon="37.3572950">
    <ele>5845.1</ele>
    <time>2026-06-23T05:18:42Z</time>
   </trkpt>
   <trkpt lat="-3.0789400" lon="37.3573010">
    <ele>5844.9</ele>
    <time>2026-06-23T05:18:43Z</time>
   </trkpt>
   <trkpt lat="-3.0789380" lon="37.3572980">
    <ele>5844.9</ele>
    <time>2026-06-23T05:18:44Z</time>
   </trkpt>
   <trkpt lat="-3.0789380" lon="37.3572990">
    <ele>5844.9</ele>
    <time>2026-06-23T05:18:45Z</time>
   </trkpt>
   <trkpt lat="-3.0789390" lon="37.3572980">
    <ele>5844.8</ele>
    <time>2026-06-23T05:18:46Z</time>
   </trkpt>
   <trkpt lat="-3.0789390" lon="37.3572980">
    <ele>5844.8</ele>
    <time>2026-06-23T05:18:47Z</time>
   </trkpt>
   <trkpt lat="-3.0789370" lon="37.3573030">
    <ele>5844.7</ele>
    <time>2026-06-23T05:18:48Z</time>
   </trkpt>
   <trkpt lat="-3.0789380" lon="37.3573030">
    <ele>5844.7</ele>
    <time>2026-06-23T05:18:49Z</time>
   </trkpt>
   <trkpt lat="-3.0789410" lon="37.3573050">
    <ele>5844.6</ele>
    <time>2026-06-23T05:18:50Z</time>
   </trkpt>
   <trkpt lat="-3.0789400" lon="37.3573030">
    <ele>5844.6</ele>
    <time>2026-06-23T05:18:51Z</time>
   </trkpt>
   <trkpt lat="-3.0789400" lon="37.3573030">
    <ele>5844.6</ele>
    <time>2026-06-23T05:18:52Z</time>
   </trkpt>
   <trkpt lat="-3.0789400" lon="37.3573030">
    <ele>5844.6</ele>
    <time>2026-06-23T05:18:53Z</time>
   </trkpt>
   <trkpt lat="-3.0789400" lon="37.3573020">
    <ele>5844.6</ele>
    <time>2026-06-23T05:18:54Z</time>
   </trkpt>
   <trkpt lat="-3.0789400" lon="37.3573020">
    <ele>5844.6</ele>
    <time>2026-06-23T05:18:55Z</time>
   </trkpt>
   <trkpt lat="-3.0789390" lon="37.3573020">
    <ele>5844.6</ele>
    <time>2026-06-23T05:18:56Z</time>
   </trkpt>
   <trkpt lat="-3.0789380" lon="37.3573050">
    <ele>5844.5</ele>
    <time>2026-06-23T05:18:57Z</time>
   </trkpt>
   <trkpt lat="-3.0789380" lon="37.3573060">
    <ele>5844.5</ele>
    <time>2026-06-23T05:18:59Z</time>
   </trkpt>
   <trkpt lat="-3.0789390" lon="37.3573070">
    <ele>5844.5</ele>
    <time>2026-06-23T05:19:00Z</time>
   </trkpt>
   <trkpt lat="-3.0789380" lon="37.3573050">
    <ele>5844.4</ele>
    <time>2026-06-23T05:19:01Z</time>
   </trkpt>
   <trkpt lat="-3.0789380" lon="37.3573040">
    <ele>5844.4</ele>
    <time>2026-06-23T05:19:02Z</time>
   </trkpt>
   <trkpt lat="-3.0789370" lon="37.3573050">
    <ele>5844.4</ele>
    <time>2026-06-23T05:19:03Z</time>
   </trkpt>
   <trkpt lat="-3.0789370" lon="37.3573060">
    <ele>5844.4</ele>
    <time>2026-06-23T05:19:04Z</time>
   </trkpt>
   <trkpt lat="-3.0789360" lon="37.3573050">
    <ele>5844.3</ele>
    <time>2026-06-23T05:19:05Z</time>
   </trkpt>
   <trkpt lat="-3.0789370" lon="37.3573060">
    <ele>5844.3</ele>
    <time>2026-06-23T05:19:06Z</time>
   </trkpt>
   <trkpt lat="-3.0789360" lon="37.3573050">
    <ele>5844.3</ele>
    <time>2026-06-23T05:19:07Z</time>
   </trkpt>
   <trkpt lat="-3.0789360" lon="37.3573040">
    <ele>5844.3</ele>
    <time>2026-06-23T05:19:08Z</time>
   </trkpt>
   <trkpt lat="-3.0789360" lon="37.3573060">
    <ele>5844.2</ele>
    <time>2026-06-23T05:19:09Z</time>
   </trkpt>
   <trkpt lat="-3.0789360" lon="37.3573070">
    <ele>5844.2</ele>
    <time>2026-06-23T05:19:10Z</time>
   </trkpt>
   <trkpt lat="-3.0789360" lon="37.3573050">
    <ele>5844.2</ele>
    <time>2026-06-23T05:19:11Z</time>
   </trkpt>
   <trkpt lat="-3.0789370" lon="37.3573050">
    <ele>5844.2</ele>
    <time>2026-06-23T05:19:12Z</time>
   </trkpt>
   <trkpt lat="-3.0789380" lon="37.3573070">
    <ele>5844.1</ele>
    <time>2026-06-23T05:19:13Z</time>
   </trkpt>
   <trkpt lat="-3.0789380" lon="37.3573070">
    <ele>5844.1</ele>
    <time>2026-06-23T05:19:14Z</time>
   </trkpt>
   <trkpt lat="-3.0789370" lon="37.3573050">
    <ele>5844.1</ele>
    <time>2026-06-23T05:19:15Z</time>
   </trkpt>
   <trkpt lat="-3.0789380" lon="37.3573060">
    <ele>5844.0</ele>
    <time>2026-06-23T05:19:16Z</time>
   </trkpt>
   <trkpt lat="-3.0789380" lon="37.3573070">
    <ele>5844.0</ele>
    <time>2026-06-23T05:19:17Z</time>
   </trkpt>
   <trkpt lat="-3.0789380" lon="37.3573080">
    <ele>5844.0</ele>
    <time>2026-06-23T05:19:18Z</time>
   </trkpt>
   <trkpt lat="-3.0789390" lon="37.3573090">
    <ele>5844.0</ele>
    <time>2026-06-23T05:19:19Z</time>
   </trkpt>
   <trkpt lat="-3.0789380" lon="37.3573080">
    <ele>5844.0</ele>
    <time>2026-06-23T05:19:20Z</time>
   </trkpt>
   <trkpt lat="-3.0789380" lon="37.3573070">
    <ele>5843.9</ele>
    <time>2026-06-23T05:19:21Z</time>
   </trkpt>
   <trkpt lat="-3.0789390" lon="37.3573080">
    <ele>5843.9</ele>
    <time>2026-06-23T05:19:22Z</time>
   </trkpt>
   <trkpt lat="-3.0789410" lon="37.3573060">
    <ele>5843.9</ele>
    <time>2026-06-23T05:19:23Z</time>
   </trkpt>
   <trkpt lat="-3.0789400" lon="37.3573060">
    <ele>5843.9</ele>
    <time>2026-06-23T05:19:24Z</time>
   </trkpt>
   <trkpt lat="-3.0789380" lon="37.3573060">
    <ele>5843.8</ele>
    <time>2026-06-23T05:19:25Z</time>
   </trkpt>
   <trkpt lat="-3.0789390" lon="37.3573050">
    <ele>5843.8</ele>
    <time>2026-06-23T05:19:26Z</time>
   </trkpt>
   <trkpt lat="-3.0789380" lon="37.3573040">
    <ele>5843.8</ele>
    <time>2026-06-23T05:19:27Z</time>
   </trkpt>
   <trkpt lat="-3.0789390" lon="37.3573060">
    <ele>5843.7</ele>
    <time>2026-06-23T05:19:28Z</time>
   </trkpt>
   <trkpt lat="-3.0789380" lon="37.3573050">
    <ele>5843.7</ele>
    <time>2026-06-23T05:19:29Z</time>
   </trkpt>
   <trkpt lat="-3.0789380" lon="37.3573050">
    <ele>5843.7</ele>
    <time>2026-06-23T05:19:30Z</time>
   </trkpt>
   <trkpt lat="-3.0789390" lon="37.3573050">
    <ele>5843.7</ele>
    <time>2026-06-23T05:19:31Z</time>
   </trkpt>
   <trkpt lat="-3.0789380" lon="37.3573050">
    <ele>5843.7</ele>
    <time>2026-06-23T05:19:32Z</time>
   </trkpt>
   <trkpt lat="-3.0789390" lon="37.3573050">
    <ele>5843.7</ele>
    <time>2026-06-23T05:19:33Z</time>
   </trkpt>
   <trkpt lat="-3.0789380" lon="37.3573050">
    <ele>5843.6</ele>
    <time>2026-06-23T05:19:34Z</time>
   </trkpt>
   <trkpt lat="-3.0789380" lon="37.3573050">
    <ele>5843.6</ele>
    <time>2026-06-23T05:19:35Z</time>
   </trkpt>
   <trkpt lat="-3.0789380" lon="37.3573050">
    <ele>5843.6</ele>
    <time>2026-06-23T05:19:36Z</time>
   </trkpt>
   <trkpt lat="-3.0789390" lon="37.3573050">
    <ele>5843.6</ele>
    <time>2026-06-23T05:19:37Z</time>
   </trkpt>
   <trkpt lat="-3.0789390" lon="37.3573040">
    <ele>5843.6</ele>
    <time>2026-06-23T05:19:38Z</time>
   </trkpt>
   <trkpt lat="-3.0789390" lon="37.3573040">
    <ele>5843.6</ele>
    <time>2026-06-23T05:19:39Z</time>
   </trkpt>
   <trkpt lat="-3.0789390" lon="37.3573040">
    <ele>5843.6</ele>
    <time>2026-06-23T05:19:40Z</time>
   </trkpt>
   <trkpt lat="-3.0789390" lon="37.3573040">
    <ele>5843.6</ele>
    <time>2026-06-23T05:19:41Z</time>
   </trkpt>
   <trkpt lat="-3.0789390" lon="37.3573040">
    <ele>5843.6</ele>
    <time>2026-06-23T05:19:42Z</time>
   </trkpt>
   <trkpt lat="-3.0789390" lon="37.3573050">
    <ele>5843.6</ele>
    <time>2026-06-23T05:19:43Z</time>
   </trkpt>
   <trkpt lat="-3.0789390" lon="37.3573050">
    <ele>5843.6</ele>
    <time>2026-06-23T05:19:44Z</time>
   </trkpt>
   <trkpt lat="-3.0789390" lon="37.3573050">
    <ele>5843.6</ele>
    <time>2026-06-23T05:19:45Z</time>
   </trkpt>
   <trkpt lat="-3.0789390" lon="37.3573050">
    <ele>5843.6</ele>
    <time>2026-06-23T05:19:46Z</time>
   </trkpt>
   <trkpt lat="-3.0789390" lon="37.3573050">
    <ele>5843.6</ele>
    <time>2026-06-23T05:19:47Z</time>
   </trkpt>
   <trkpt lat="-3.0789390" lon="37.3573050">
    <ele>5843.6</ele>
    <time>2026-06-23T05:19:48Z</time>
   </trkpt>
   <trkpt lat="-3.0789390" lon="37.3573050">
    <ele>5843.6</ele>
    <time>2026-06-23T05:19:49Z</time>
   </trkpt>
   <trkpt lat="-3.0789400" lon="37.3573040">
    <ele>5843.6</ele>
    <time>2026-06-23T05:19:50Z</time>
   </trkpt>
   <trkpt lat="-3.0789390" lon="37.3573040">
    <ele>5843.5</ele>
    <time>2026-06-23T05:19:51Z</time>
   </trkpt>
   <trkpt lat="-3.0789390" lon="37.3573040">
    <ele>5843.5</ele>
    <time>2026-06-23T05:19:52Z</time>
   </trkpt>
   <trkpt lat="-3.0789390" lon="37.3573030">
    <ele>5843.5</ele>
    <time>2026-06-23T05:19:53Z</time>
   </trkpt>
   <trkpt lat="-3.0789390" lon="37.3573040">
    <ele>5843.5</ele>
    <time>2026-06-23T05:19:54Z</time>
   </trkpt>
   <trkpt lat="-3.0789390" lon="37.3573030">
    <ele>5843.5</ele>
    <time>2026-06-23T05:19:55Z</time>
   </trkpt>
   <trkpt lat="-3.0789390" lon="37.3573040">
    <ele>5843.5</ele>
    <time>2026-06-23T05:19:56Z</time>
   </trkpt>
   <trkpt lat="-3.0789390" lon="37.3573040">
    <ele>5843.5</ele>
    <time>2026-06-23T05:19:57Z</time>
   </trkpt>
   <trkpt lat="-3.0789390" lon="37.3573040">
    <ele>5843.5</ele>
    <time>2026-06-23T05:19:58Z</time>
   </trkpt>
   <trkpt lat="-3.0789390" lon="37.3573040">
    <ele>5843.5</ele>
    <time>2026-06-23T05:19:59Z</time>
   </trkpt>
   <trkpt lat="-3.0789390" lon="37.3573040">
    <ele>5843.5</ele>
    <time>2026-06-23T05:20:00Z</time>
   </trkpt>
   <trkpt lat="-3.0789390" lon="37.3573050">
    <ele>5843.5</ele>
    <time>2026-06-23T05:20:01Z</time>
   </trkpt>
   <trkpt lat="-3.0789390" lon="37.3573050">
    <ele>5843.5</ele>
    <time>2026-06-23T05:20:02Z</time>
   </trkpt>
   <trkpt lat="-3.0789390" lon="37.3573050">
    <ele>5843.5</ele>
    <time>2026-06-23T05:20:03Z</time>
   </trkpt>
   <trkpt lat="-3.0789390" lon="37.3573050">
    <ele>5843.5</ele>
    <time>2026-06-23T05:20:04Z</time>
   </trkpt>
   <trkpt lat="-3.0789390" lon="37.3573050">
    <ele>5843.5</ele>
    <time>2026-06-23T05:20:05Z</time>
   </trkpt>
   <trkpt lat="-3.0789390" lon="37.3573050">
    <ele>5843.5</ele>
    <time>2026-06-23T05:20:06Z</time>
   </trkpt>
   <trkpt lat="-3.0789390" lon="37.3573050">
    <ele>5843.5</ele>
    <time>2026-06-23T05:20:07Z</time>
   </trkpt>
   <trkpt lat="-3.0789390" lon="37.3573070">
    <ele>5843.4</ele>
    <time>2026-06-23T05:20:08Z</time>
   </trkpt>
   <trkpt lat="-3.0789390" lon="37.3573060">
    <ele>5843.4</ele>
    <time>2026-06-23T05:20:09Z</time>
   </trkpt>
   <trkpt lat="-3.0789390" lon="37.3573060">
    <ele>5843.4</ele>
    <time>2026-06-23T05:20:10Z</time>
   </trkpt>
   <trkpt lat="-3.0789380" lon="37.3573060">
    <ele>5843.4</ele>
    <time>2026-06-23T05:20:11Z</time>
   </trkpt>
   <trkpt lat="-3.0789380" lon="37.3573050">
    <ele>5843.4</ele>
    <time>2026-06-23T05:20:12Z</time>
   </trkpt>
   <trkpt lat="-3.0789400" lon="37.3573060">
    <ele>5843.3</ele>
    <time>2026-06-23T05:20:13Z</time>
   </trkpt>
   <trkpt lat="-3.0789420" lon="37.3573070">
    <ele>5843.3</ele>
    <time>2026-06-23T05:20:14Z</time>
   </trkpt>
   <trkpt lat="-3.0789400" lon="37.3573060">
    <ele>5843.3</ele>
    <time>2026-06-23T05:20:15Z</time>
   </trkpt>
   <trkpt lat="-3.0789400" lon="37.3573070">
    <ele>5843.2</ele>
    <time>2026-06-23T05:20:16Z</time>
   </trkpt>
   <trkpt lat="-3.0789410" lon="37.3573070">
    <ele>5843.2</ele>
    <time>2026-06-23T05:20:17Z</time>
   </trkpt>
   <trkpt lat="-3.0789410" lon="37.3573050">
    <ele>5843.2</ele>
    <time>2026-06-23T05:20:18Z</time>
   </trkpt>
   <trkpt lat="-3.0789400" lon="37.3573050">
    <ele>5843.2</ele>
    <time>2026-06-23T05:20:19Z</time>
   </trkpt>
   <trkpt lat="-3.0789390" lon="37.3573050">
    <ele>5843.2</ele>
    <time>2026-06-23T05:20:20Z</time>
   </trkpt>
   <trkpt lat="-3.0789390" lon="37.3573050">
    <ele>5843.2</ele>
    <time>2026-06-23T05:20:21Z</time>
   </trkpt>
   <trkpt lat="-3.0789390" lon="37.3573050">
    <ele>5843.2</ele>
    <time>2026-06-23T05:20:22Z</time>
   </trkpt>
   <trkpt lat="-3.0789400" lon="37.3573060">
    <ele>5843.1</ele>
    <time>2026-06-23T05:20:23Z</time>
   </trkpt>
   <trkpt lat="-3.0789390" lon="37.3573050">
    <ele>5843.1</ele>
    <time>2026-06-23T05:20:24Z</time>
   </trkpt>
   <trkpt lat="-3.0789390" lon="37.3573070">
    <ele>5843.1</ele>
    <time>2026-06-23T05:20:25Z</time>
   </trkpt>
   <trkpt lat="-3.0789400" lon="37.3573100">
    <ele>5843.0</ele>
    <time>2026-06-23T05:20:26Z</time>
   </trkpt>
   <trkpt lat="-3.0789400" lon="37.3573120">
    <ele>5843.0</ele>
    <time>2026-06-23T05:20:27Z</time>
   </trkpt>
   <trkpt lat="-3.0789430" lon="37.3573150">
    <ele>5842.9</ele>
    <time>2026-06-23T05:20:28Z</time>
   </trkpt>
   <trkpt lat="-3.0789450" lon="37.3573170">
    <ele>5842.9</ele>
    <time>2026-06-23T05:20:29Z</time>
   </trkpt>
   <trkpt lat="-3.0789490" lon="37.3573190">
    <ele>5842.8</ele>
    <time>2026-06-23T05:20:30Z</time>
   </trkpt>
   <trkpt lat="-3.0789480" lon="37.3573210">
    <ele>5842.8</ele>
    <time>2026-06-23T05:20:31Z</time>
   </trkpt>
   <trkpt lat="-3.0789500" lon="37.3573220">
    <ele>5842.8</ele>
    <time>2026-06-23T05:20:32Z</time>
   </trkpt>
   <trkpt lat="-3.0789580" lon="37.3573260">
    <ele>5842.6</ele>
    <time>2026-06-23T05:20:33Z</time>
   </trkpt>
   <trkpt lat="-3.0789600" lon="37.3573240">
    <ele>5842.6</ele>
    <time>2026-06-23T05:20:34Z</time>
   </trkpt>
   <trkpt lat="-3.0789630" lon="37.3573260">
    <ele>5842.5</ele>
    <time>2026-06-23T05:20:35Z</time>
   </trkpt>
   <trkpt lat="-3.0789670" lon="37.3573280">
    <ele>5842.4</ele>
    <time>2026-06-23T05:20:36Z</time>
   </trkpt>
   <trkpt lat="-3.0789680" lon="37.3573340">
    <ele>5842.4</ele>
    <time>2026-06-23T05:20:37Z</time>
   </trkpt>
   <trkpt lat="-3.0789710" lon="37.3573390">
    <ele>5842.3</ele>
    <time>2026-06-23T05:20:38Z</time>
   </trkpt>
   <trkpt lat="-3.0789720" lon="37.3573460">
    <ele>5842.2</ele>
    <time>2026-06-23T05:20:39Z</time>
   </trkpt>
   <trkpt lat="-3.0789730" lon="37.3573570">
    <ele>5842.0</ele>
    <time>2026-06-23T05:20:40Z</time>
   </trkpt>
   <trkpt lat="-3.0789720" lon="37.3573680">
    <ele>5841.8</ele>
    <time>2026-06-23T05:20:41Z</time>
   </trkpt>
   <trkpt lat="-3.0789710" lon="37.3573770">
    <ele>5841.7</ele>
    <time>2026-06-23T05:20:42Z</time>
   </trkpt>
   <trkpt lat="-3.0789740" lon="37.3573870">
    <ele>5841.6</ele>
    <time>2026-06-23T05:20:43Z</time>
   </trkpt>
   <trkpt lat="-3.0789760" lon="37.3573960">
    <ele>5841.4</ele>
    <time>2026-06-23T05:20:44Z</time>
   </trkpt>
   <trkpt lat="-3.0789810" lon="37.3574030">
    <ele>5841.3</ele>
    <time>2026-06-23T05:20:45Z</time>
   </trkpt>
   <trkpt lat="-3.0789870" lon="37.3574120">
    <ele>5841.2</ele>
    <time>2026-06-23T05:20:46Z</time>
   </trkpt>
   <trkpt lat="-3.0789900" lon="37.3574220">
    <ele>5841.0</ele>
    <time>2026-06-23T05:20:47Z</time>
   </trkpt>
   <trkpt lat="-3.0789910" lon="37.3574310">
    <ele>5840.9</ele>
    <time>2026-06-23T05:20:48Z</time>
   </trkpt>
   <trkpt lat="-3.0789930" lon="37.3574410">
    <ele>5840.8</ele>
    <time>2026-06-23T05:20:49Z</time>
   </trkpt>
   <trkpt lat="-3.0789990" lon="37.3574530">
    <ele>5840.6</ele>
    <time>2026-06-23T05:20:50Z</time>
   </trkpt>
   <trkpt lat="-3.0790090" lon="37.3574650">
    <ele>5840.3</ele>
    <time>2026-06-23T05:20:51Z</time>
   </trkpt>
   <trkpt lat="-3.0790130" lon="37.3574750">
    <ele>5840.2</ele>
    <time>2026-06-23T05:20:52Z</time>
   </trkpt>
   <trkpt lat="-3.0790200" lon="37.3574880">
    <ele>5840.0</ele>
    <time>2026-06-23T05:20:53Z</time>
   </trkpt>
   <trkpt lat="-3.0790270" lon="37.3574990">
    <ele>5839.8</ele>
    <time>2026-06-23T05:20:54Z</time>
   </trkpt>
   <trkpt lat="-3.0790320" lon="37.3575130">
    <ele>5839.6</ele>
    <time>2026-06-23T05:20:55Z</time>
   </trkpt>
   <trkpt lat="-3.0790370" lon="37.3575260">
    <ele>5839.4</ele>
    <time>2026-06-23T05:20:56Z</time>
   </trkpt>
   <trkpt lat="-3.0790430" lon="37.3575390">
    <ele>5839.2</ele>
    <time>2026-06-23T05:20:57Z</time>
   </trkpt>
   <trkpt lat="-3.0790480" lon="37.3575510">
    <ele>5839.0</ele>
    <time>2026-06-23T05:20:58Z</time>
   </trkpt>
   <trkpt lat="-3.0790540" lon="37.3575650">
    <ele>5838.8</ele>
    <time>2026-06-23T05:20:59Z</time>
   </trkpt>
   <trkpt lat="-3.0790580" lon="37.3575770">
    <ele>5838.6</ele>
    <time>2026-06-23T05:21:00Z</time>
   </trkpt>
   <trkpt lat="-3.0790620" lon="37.3575900">
    <ele>5838.4</ele>
    <time>2026-06-23T05:21:01Z</time>
   </trkpt>
   <trkpt lat="-3.0790660" lon="37.3576020">
    <ele>5838.2</ele>
    <time>2026-06-23T05:21:02Z</time>
   </trkpt>
   <trkpt lat="-3.0790700" lon="37.3576150">
    <ele>5838.0</ele>
    <time>2026-06-23T05:21:03Z</time>
   </trkpt>
   <trkpt lat="-3.0790740" lon="37.3576280">
    <ele>5837.9</ele>
    <time>2026-06-23T05:21:05Z</time>
   </trkpt>
   <trkpt lat="-3.0790780" lon="37.3576400">
    <ele>5837.7</ele>
    <time>2026-06-23T05:21:06Z</time>
   </trkpt>
   <trkpt lat="-3.0790820" lon="37.3576540">
    <ele>5837.5</ele>
    <time>2026-06-23T05:21:07Z</time>
   </trkpt>
   <trkpt lat="-3.0790840" lon="37.3576680">
    <ele>5837.3</ele>
    <time>2026-06-23T05:21:08Z</time>
   </trkpt>
   <trkpt lat="-3.0790900" lon="37.3576820">
    <ele>5837.0</ele>
    <time>2026-06-23T05:21:09Z</time>
   </trkpt>
   <trkpt lat="-3.0790960" lon="37.3576970">
    <ele>5836.8</ele>
    <time>2026-06-23T05:21:10Z</time>
   </trkpt>
   <trkpt lat="-3.0791000" lon="37.3577130">
    <ele>5836.6</ele>
    <time>2026-06-23T05:21:11Z</time>
   </trkpt>
   <trkpt lat="-3.0791070" lon="37.3577250">
    <ele>5836.4</ele>
    <time>2026-06-23T05:21:12Z</time>
   </trkpt>
   <trkpt lat="-3.0791120" lon="37.3577400">
    <ele>5836.2</ele>
    <time>2026-06-23T05:21:13Z</time>
   </trkpt>
   <trkpt lat="-3.0791160" lon="37.3577540">
    <ele>5836.0</ele>
    <time>2026-06-23T05:21:14Z</time>
   </trkpt>
   <trkpt lat="-3.0791240" lon="37.3577670">
    <ele>5835.8</ele>
    <time>2026-06-23T05:21:15Z</time>
   </trkpt>
   <trkpt lat="-3.0791300" lon="37.3577800">
    <ele>5835.6</ele>
    <time>2026-06-23T05:21:16Z</time>
   </trkpt>
   <trkpt lat="-3.0791340" lon="37.3577940">
    <ele>5835.4</ele>
    <time>2026-06-23T05:21:17Z</time>
   </trkpt>
   <trkpt lat="-3.0791390" lon="37.3578070">
    <ele>5835.2</ele>
    <time>2026-06-23T05:21:18Z</time>
   </trkpt>
   <trkpt lat="-3.0791450" lon="37.3578190">
    <ele>5835.0</ele>
    <time>2026-06-23T05:21:19Z</time>
   </trkpt>
   <trkpt lat="-3.0791560" lon="37.3578280">
    <ele>5834.8</ele>
    <time>2026-06-23T05:21:20Z</time>
   </trkpt>
   <trkpt lat="-3.0791660" lon="37.3578370">
    <ele>5834.6</ele>
    <time>2026-06-23T05:21:21Z</time>
   </trkpt>
   <trkpt lat="-3.0791710" lon="37.3578520">
    <ele>5834.4</ele>
    <time>2026-06-23T05:21:22Z</time>
   </trkpt>
   <trkpt lat="-3.0791690" lon="37.3578650">
    <ele>5834.3</ele>
    <time>2026-06-23T05:21:23Z</time>
   </trkpt>
   <trkpt lat="-3.0791710" lon="37.3578780">
    <ele>5834.1</ele>
    <time>2026-06-23T05:21:24Z</time>
   </trkpt>
   <trkpt lat="-3.0791750" lon="37.3578920">
    <ele>5833.9</ele>
    <time>2026-06-23T05:21:25Z</time>
   </trkpt>
   <trkpt lat="-3.0791830" lon="37.3579040">
    <ele>5833.7</ele>
    <time>2026-06-23T05:21:26Z</time>
   </trkpt>
   <trkpt lat="-3.0791850" lon="37.3579170">
    <ele>5833.6</ele>
    <time>2026-06-23T05:21:27Z</time>
   </trkpt>
   <trkpt lat="-3.0791850" lon="37.3579300">
    <ele>5833.4</ele>
    <time>2026-06-23T05:21:28Z</time>
   </trkpt>
   <trkpt lat="-3.0791900" lon="37.3579420">
    <ele>5833.3</ele>
    <time>2026-06-23T05:21:29Z</time>
   </trkpt>
   <trkpt lat="-3.0791950" lon="37.3579550">
    <ele>5833.1</ele>
    <time>2026-06-23T05:21:30Z</time>
   </trkpt>
   <trkpt lat="-3.0791990" lon="37.3579670">
    <ele>5833.0</ele>
    <time>2026-06-23T05:21:31Z</time>
   </trkpt>
   <trkpt lat="-3.0792040" lon="37.3579780">
    <ele>5832.8</ele>
    <time>2026-06-23T05:21:32Z</time>
   </trkpt>
   <trkpt lat="-3.0792100" lon="37.3579890">
    <ele>5832.7</ele>
    <time>2026-06-23T05:21:33Z</time>
   </trkpt>
   <trkpt lat="-3.0792170" lon="37.3580010">
    <ele>5832.6</ele>
    <time>2026-06-23T05:21:34Z</time>
   </trkpt>
   <trkpt lat="-3.0792210" lon="37.3580110">
    <ele>5832.4</ele>
    <time>2026-06-23T05:21:35Z</time>
   </trkpt>
   <trkpt lat="-3.0792290" lon="37.3580190">
    <ele>5832.3</ele>
    <time>2026-06-23T05:21:36Z</time>
   </trkpt>
   <trkpt lat="-3.0792350" lon="37.3580270">
    <ele>5832.2</ele>
    <time>2026-06-23T05:21:37Z</time>
   </trkpt>
   <trkpt lat="-3.0792410" lon="37.3580360">
    <ele>5832.1</ele>
    <time>2026-06-23T05:21:38Z</time>
   </trkpt>
   <trkpt lat="-3.0792470" lon="37.3580460">
    <ele>5832.0</ele>
    <time>2026-06-23T05:21:39Z</time>
   </trkpt>
   <trkpt lat="-3.0792510" lon="37.3580580">
    <ele>5831.8</ele>
    <time>2026-06-23T05:21:40Z</time>
   </trkpt>
   <trkpt lat="-3.0792580" lon="37.3580680">
    <ele>5831.7</ele>
    <time>2026-06-23T05:21:41Z</time>
   </trkpt>
   <trkpt lat="-3.0792650" lon="37.3580790">
    <ele>5831.6</ele>
    <time>2026-06-23T05:21:42Z</time>
   </trkpt>
   <trkpt lat="-3.0792720" lon="37.3580900">
    <ele>5831.4</ele>
    <time>2026-06-23T05:21:43Z</time>
   </trkpt>
   <trkpt lat="-3.0792770" lon="37.3581010">
    <ele>5831.3</ele>
    <time>2026-06-23T05:21:44Z</time>
   </trkpt>
   <trkpt lat="-3.0792880" lon="37.3581200">
    <ele>5831.1</ele>
    <time>2026-06-23T05:21:45Z</time>
   </trkpt>
   <trkpt lat="-3.0792930" lon="37.3581270">
    <ele>5831.0</ele>
    <time>2026-06-23T05:21:46Z</time>
   </trkpt>
   <trkpt lat="-3.0792980" lon="37.3581350">
    <ele>5830.9</ele>
    <time>2026-06-23T05:21:47Z</time>
   </trkpt>
   <trkpt lat="-3.0793020" lon="37.3581450">
    <ele>5830.8</ele>
    <time>2026-06-23T05:21:48Z</time>
   </trkpt>
   <trkpt lat="-3.0793050" lon="37.3581560">
    <ele>5830.8</ele>
    <time>2026-06-23T05:21:49Z</time>
   </trkpt>
   <trkpt lat="-3.0793090" lon="37.3581680">
    <ele>5830.7</ele>
    <time>2026-06-23T05:21:50Z</time>
   </trkpt>
   <trkpt lat="-3.0793130" lon="37.3581780">
    <ele>5830.6</ele>
    <time>2026-06-23T05:21:51Z</time>
   </trkpt>
   <trkpt lat="-3.0793190" lon="37.3581900">
    <ele>5830.5</ele>
    <time>2026-06-23T05:21:52Z</time>
   </trkpt>
   <trkpt lat="-3.0793220" lon="37.3582020">
    <ele>5830.4</ele>
    <time>2026-06-23T05:21:53Z</time>
   </trkpt>
   <trkpt lat="-3.0793270" lon="37.3582140">
    <ele>5830.3</ele>
    <time>2026-06-23T05:21:54Z</time>
   </trkpt>
   <trkpt lat="-3.0793320" lon="37.3582230">
    <ele>5830.2</ele>
    <time>2026-06-23T05:21:55Z</time>
   </trkpt>
   <trkpt lat="-3.0793340" lon="37.3582310">
    <ele>5830.1</ele>
    <time>2026-06-23T05:21:56Z</time>
   </trkpt>
   <trkpt lat="-3.0793330" lon="37.3582440">
    <ele>5830.1</ele>
    <time>2026-06-23T05:21:57Z</time>
   </trkpt>
   <trkpt lat="-3.0793350" lon="37.3582570">
    <ele>5830.0</ele>
    <time>2026-06-23T05:21:58Z</time>
   </trkpt>
   <trkpt lat="-3.0793430" lon="37.3582660">
    <ele>5829.9</ele>
    <time>2026-06-23T05:21:59Z</time>
   </trkpt>
   <trkpt lat="-3.0793530" lon="37.3582750">
    <ele>5829.8</ele>
    <time>2026-06-23T05:22:00Z</time>
   </trkpt>
   <trkpt lat="-3.0793600" lon="37.3582840">
    <ele>5829.7</ele>
    <time>2026-06-23T05:22:01Z</time>
   </trkpt>
   <trkpt lat="-3.0793660" lon="37.3582970">
    <ele>5829.6</ele>
    <time>2026-06-23T05:22:02Z</time>
   </trkpt>
   <trkpt lat="-3.0793660" lon="37.3583100">
    <ele>5829.5</ele>
    <time>2026-06-23T05:22:03Z</time>
   </trkpt>
   <trkpt lat="-3.0793640" lon="37.3583250">
    <ele>5829.4</ele>
    <time>2026-06-23T05:22:04Z</time>
   </trkpt>
   <trkpt lat="-3.0793610" lon="37.3583370">
    <ele>5829.3</ele>
    <time>2026-06-23T05:22:05Z</time>
   </trkpt>
   <trkpt lat="-3.0793590" lon="37.3583480">
    <ele>5829.2</ele>
    <time>2026-06-23T05:22:06Z</time>
   </trkpt>
   <trkpt lat="-3.0793620" lon="37.3583610">
    <ele>5829.1</ele>
    <time>2026-06-23T05:22:07Z</time>
   </trkpt>
   <trkpt lat="-3.0793650" lon="37.3583740">
    <ele>5828.9</ele>
    <time>2026-06-23T05:22:08Z</time>
   </trkpt>
   <trkpt lat="-3.0793690" lon="37.3583850">
    <ele>5828.8</ele>
    <time>2026-06-23T05:22:09Z</time>
   </trkpt>
   <trkpt lat="-3.0793700" lon="37.3583980">
    <ele>5828.7</ele>
    <time>2026-06-23T05:22:10Z</time>
   </trkpt>
   <trkpt lat="-3.0793700" lon="37.3584090">
    <ele>5828.6</ele>
    <time>2026-06-23T05:22:11Z</time>
   </trkpt>
   <trkpt lat="-3.0793690" lon="37.3584210">
    <ele>5828.4</ele>
    <time>2026-06-23T05:22:12Z</time>
   </trkpt>
   <trkpt lat="-3.0793670" lon="37.3584320">
    <ele>5828.3</ele>
    <time>2026-06-23T05:22:13Z</time>
   </trkpt>
   <trkpt lat="-3.0793630" lon="37.3584420">
    <ele>5828.2</ele>
    <time>2026-06-23T05:22:14Z</time>
   </trkpt>
   <trkpt lat="-3.0793570" lon="37.3584480">
    <ele>5828.1</ele>
    <time>2026-06-23T05:22:15Z</time>
   </trkpt>
   <trkpt lat="-3.0793490" lon="37.3584520">
    <ele>5827.9</ele>
    <time>2026-06-23T05:22:16Z</time>
   </trkpt>
   <trkpt lat="-3.0793430" lon="37.3584600">
    <ele>5827.8</ele>
    <time>2026-06-23T05:22:17Z</time>
   </trkpt>
   <trkpt lat="-3.0793370" lon="37.3584630">
    <ele>5827.7</ele>
    <time>2026-06-23T05:22:18Z</time>
   </trkpt>
   <trkpt lat="-3.0793300" lon="37.3584670">
    <ele>5827.6</ele>
    <time>2026-06-23T05:22:19Z</time>
   </trkpt>
   <trkpt lat="-3.0793290" lon="37.3584690">
    <ele>5827.6</ele>
    <time>2026-06-23T05:22:20Z</time>
   </trkpt>
   <trkpt lat="-3.0793300" lon="37.3584740">
    <ele>5827.5</ele>
    <time>2026-06-23T05:22:21Z</time>
   </trkpt>
   <trkpt lat="-3.0793310" lon="37.3584820">
    <ele>5827.4</ele>
    <time>2026-06-23T05:22:22Z</time>
   </trkpt>
   <trkpt lat="-3.0793320" lon="37.3584920">
    <ele>5827.3</ele>
    <time>2026-06-23T05:22:23Z</time>
   </trkpt>
   <trkpt lat="-3.0793350" lon="37.3585050">
    <ele>5827.1</ele>
    <time>2026-06-23T05:22:24Z</time>
   </trkpt>
   <trkpt lat="-3.0793380" lon="37.3585150">
    <ele>5827.0</ele>
    <time>2026-06-23T05:22:25Z</time>
   </trkpt>
   <trkpt lat="-3.0793400" lon="37.3585220">
    <ele>5826.9</ele>
    <time>2026-06-23T05:22:26Z</time>
   </trkpt>
   <trkpt lat="-3.0793400" lon="37.3585340">
    <ele>5826.7</ele>
    <time>2026-06-23T05:22:27Z</time>
   </trkpt>
   <trkpt lat="-3.0793420" lon="37.3585420">
    <ele>5826.6</ele>
    <time>2026-06-23T05:22:28Z</time>
   </trkpt>
   <trkpt lat="-3.0793460" lon="37.3585490">
    <ele>5826.5</ele>
    <time>2026-06-23T05:22:29Z</time>
   </trkpt>
   <trkpt lat="-3.0793450" lon="37.3585570">
    <ele>5826.4</ele>
    <time>2026-06-23T05:22:30Z</time>
   </trkpt>
   <trkpt lat="-3.0793450" lon="37.3585580">
    <ele>5826.4</ele>
    <time>2026-06-23T05:22:31Z</time>
   </trkpt>
   <trkpt lat="-3.0793420" lon="37.3585610">
    <ele>5826.3</ele>
    <time>2026-06-23T05:22:32Z</time>
   </trkpt>
   <trkpt lat="-3.0793360" lon="37.3585650">
    <ele>5826.2</ele>
    <time>2026-06-23T05:22:33Z</time>
   </trkpt>
   <trkpt lat="-3.0793330" lon="37.3585720">
    <ele>5826.1</ele>
    <time>2026-06-23T05:22:34Z</time>
   </trkpt>
   <trkpt lat="-3.0793340" lon="37.3585810">
    <ele>5826.0</ele>
    <time>2026-06-23T05:22:35Z</time>
   </trkpt>
   <trkpt lat="-3.0793370" lon="37.3585870">
    <ele>5825.9</ele>
    <time>2026-06-23T05:22:36Z</time>
   </trkpt>
   <trkpt lat="-3.0793440" lon="37.3585920">
    <ele>5825.7</ele>
    <time>2026-06-23T05:22:37Z</time>
   </trkpt>
   <trkpt lat="-3.0793510" lon="37.3586010">
    <ele>5825.6</ele>
    <time>2026-06-23T05:22:38Z</time>
   </trkpt>
   <trkpt lat="-3.0793590" lon="37.3586080">
    <ele>5825.4</ele>
    <time>2026-06-23T05:22:39Z</time>
   </trkpt>
   <trkpt lat="-3.0793670" lon="37.3586120">
    <ele>5825.2</ele>
    <time>2026-06-23T05:22:40Z</time>
   </trkpt>
   <trkpt lat="-3.0793760" lon="37.3586160">
    <ele>5825.1</ele>
    <time>2026-06-23T05:22:41Z</time>
   </trkpt>
   <trkpt lat="-3.0793830" lon="37.3586210">
    <ele>5824.9</ele>
    <time>2026-06-23T05:22:42Z</time>
   </trkpt>
   <trkpt lat="-3.0793900" lon="37.3586310">
    <ele>5824.7</ele>
    <time>2026-06-23T05:22:43Z</time>
   </trkpt>
   <trkpt lat="-3.0793930" lon="37.3586370">
    <ele>5824.5</ele>
    <time>2026-06-23T05:22:44Z</time>
   </trkpt>
   <trkpt lat="-3.0793990" lon="37.3586400">
    <ele>5824.4</ele>
    <time>2026-06-23T05:22:45Z</time>
   </trkpt>
   <trkpt lat="-3.0794060" lon="37.3586450">
    <ele>5824.2</ele>
    <time>2026-06-23T05:22:46Z</time>
   </trkpt>
   <trkpt lat="-3.0794110" lon="37.3586500">
    <ele>5824.1</ele>
    <time>2026-06-23T05:22:47Z</time>
   </trkpt>
   <trkpt lat="-3.0794180" lon="37.3586520">
    <ele>5823.9</ele>
    <time>2026-06-23T05:22:48Z</time>
   </trkpt>
   <trkpt lat="-3.0794260" lon="37.3586550">
    <ele>5823.8</ele>
    <time>2026-06-23T05:22:49Z</time>
   </trkpt>
   <trkpt lat="-3.0794310" lon="37.3586560">
    <ele>5823.7</ele>
    <time>2026-06-23T05:22:50Z</time>
   </trkpt>
   <trkpt lat="-3.0794320" lon="37.3586600">
    <ele>5823.6</ele>
    <time>2026-06-23T05:22:51Z</time>
   </trkpt>
   <trkpt lat="-3.0794350" lon="37.3586640">
    <ele>5823.5</ele>
    <time>2026-06-23T05:22:52Z</time>
   </trkpt>
   <trkpt lat="-3.0794380" lon="37.3586710">
    <ele>5823.3</ele>
    <time>2026-06-23T05:22:53Z</time>
   </trkpt>
   <trkpt lat="-3.0794350" lon="37.3586780">
    <ele>5823.1</ele>
    <time>2026-06-23T05:22:54Z</time>
   </trkpt>
   <trkpt lat="-3.0794320" lon="37.3586840">
    <ele>5823.0</ele>
    <time>2026-06-23T05:22:55Z</time>
   </trkpt>
   <trkpt lat="-3.0794300" lon="37.3586910">
    <ele>5822.8</ele>
    <time>2026-06-23T05:22:56Z</time>
   </trkpt>
   <trkpt lat="-3.0794350" lon="37.3586940">
    <ele>5822.7</ele>
    <time>2026-06-23T05:22:57Z</time>
   </trkpt>
   <trkpt lat="-3.0794430" lon="37.3586940">
    <ele>5822.5</ele>
    <time>2026-06-23T05:22:58Z</time>
   </trkpt>
   <trkpt lat="-3.0794500" lon="37.3586950">
    <ele>5822.3</ele>
    <time>2026-06-23T05:22:59Z</time>
   </trkpt>
   <trkpt lat="-3.0794540" lon="37.3586970">
    <ele>5822.2</ele>
    <time>2026-06-23T05:23:00Z</time>
   </trkpt>
   <trkpt lat="-3.0794540" lon="37.3587020">
    <ele>5822.1</ele>
    <time>2026-06-23T05:23:01Z</time>
   </trkpt>
   <trkpt lat="-3.0794560" lon="37.3587100">
    <ele>5821.9</ele>
    <time>2026-06-23T05:23:02Z</time>
   </trkpt>
   <trkpt lat="-3.0794600" lon="37.3587160">
    <ele>5821.7</ele>
    <time>2026-06-23T05:23:03Z</time>
   </trkpt>
   <trkpt lat="-3.0794640" lon="37.3587190">
    <ele>5821.6</ele>
    <time>2026-06-23T05:23:04Z</time>
   </trkpt>
   <trkpt lat="-3.0794700" lon="37.3587240">
    <ele>5821.4</ele>
    <time>2026-06-23T05:23:05Z</time>
   </trkpt>
   <trkpt lat="-3.0794750" lon="37.3587250">
    <ele>5821.3</ele>
    <time>2026-06-23T05:23:06Z</time>
   </trkpt>
   <trkpt lat="-3.0794790" lon="37.3587270">
    <ele>5821.1</ele>
    <time>2026-06-23T05:23:07Z</time>
   </trkpt>
   <trkpt lat="-3.0794800" lon="37.3587280">
    <ele>5821.1</ele>
    <time>2026-06-23T05:23:08Z</time>
   </trkpt>
   <trkpt lat="-3.0794810" lon="37.3587350">
    <ele>5820.9</ele>
    <time>2026-06-23T05:23:09Z</time>
   </trkpt>
   <trkpt lat="-3.0794830" lon="37.3587430">
    <ele>5820.7</ele>
    <time>2026-06-23T05:23:11Z</time>
   </trkpt>
   <trkpt lat="-3.0794860" lon="37.3587470">
    <ele>5820.6</ele>
    <time>2026-06-23T05:23:12Z</time>
   </trkpt>
   <trkpt lat="-3.0794870" lon="37.3587500">
    <ele>5820.5</ele>
    <time>2026-06-23T05:23:13Z</time>
   </trkpt>
   <trkpt lat="-3.0794870" lon="37.3587540">
    <ele>5820.4</ele>
    <time>2026-06-23T05:23:14Z</time>
   </trkpt>
   <trkpt lat="-3.0794870" lon="37.3587640">
    <ele>5820.2</ele>
    <time>2026-06-23T05:23:15Z</time>
   </trkpt>
   <trkpt lat="-3.0794890" lon="37.3587680">
    <ele>5820.1</ele>
    <time>2026-06-23T05:23:16Z</time>
   </trkpt>
   <trkpt lat="-3.0794930" lon="37.3587720">
    <ele>5819.9</ele>
    <time>2026-06-23T05:23:17Z</time>
   </trkpt>
   <trkpt lat="-3.0794960" lon="37.3587800">
    <ele>5819.7</ele>
    <time>2026-06-23T05:23:18Z</time>
   </trkpt>
   <trkpt lat="-3.0794940" lon="37.3587830">
    <ele>5819.6</ele>
    <time>2026-06-23T05:23:19Z</time>
   </trkpt>
   <trkpt lat="-3.0794920" lon="37.3587900">
    <ele>5819.4</ele>
    <time>2026-06-23T05:23:20Z</time>
   </trkpt>
   <trkpt lat="-3.0794850" lon="37.3587970">
    <ele>5819.2</ele>
    <time>2026-06-23T05:23:21Z</time>
   </trkpt>
   <trkpt lat="-3.0794810" lon="37.3588050">
    <ele>5818.9</ele>
    <time>2026-06-23T05:23:22Z</time>
   </trkpt>
   <trkpt lat="-3.0794790" lon="37.3588130">
    <ele>5818.7</ele>
    <time>2026-06-23T05:23:23Z</time>
   </trkpt>
   <trkpt lat="-3.0794780" lon="37.3588180">
    <ele>5818.6</ele>
    <time>2026-06-23T05:23:24Z</time>
   </trkpt>
   <trkpt lat="-3.0794770" lon="37.3588250">
    <ele>5818.4</ele>
    <time>2026-06-23T05:23:25Z</time>
   </trkpt>
   <trkpt lat="-3.0794770" lon="37.3588310">
    <ele>5818.3</ele>
    <time>2026-06-23T05:23:26Z</time>
   </trkpt>
   <trkpt lat="-3.0794780" lon="37.3588370">
    <ele>5818.1</ele>
    <time>2026-06-23T05:23:27Z</time>
   </trkpt>
   <trkpt lat="-3.0794770" lon="37.3588450">
    <ele>5817.9</ele>
    <time>2026-06-23T05:23:28Z</time>
   </trkpt>
   <trkpt lat="-3.0794750" lon="37.3588540">
    <ele>5817.7</ele>
    <time>2026-06-23T05:23:29Z</time>
   </trkpt>
   <trkpt lat="-3.0794700" lon="37.3588610">
    <ele>5817.4</ele>
    <time>2026-06-23T05:23:30Z</time>
   </trkpt>
   <trkpt lat="-3.0794680" lon="37.3588680">
    <ele>5817.2</ele>
    <time>2026-06-23T05:23:31Z</time>
   </trkpt>
   <trkpt lat="-3.0794700" lon="37.3588750">
    <ele>5817.0</ele>
    <time>2026-06-23T05:23:32Z</time>
   </trkpt>
   <trkpt lat="-3.0794740" lon="37.3588820">
    <ele>5816.8</ele>
    <time>2026-06-23T05:23:33Z</time>
   </trkpt>
   <trkpt lat="-3.0794780" lon="37.3588840">
    <ele>5816.7</ele>
    <time>2026-06-23T05:23:34Z</time>
   </trkpt>
   <trkpt lat="-3.0794850" lon="37.3588870">
    <ele>5816.4</ele>
    <time>2026-06-23T05:23:35Z</time>
   </trkpt>
   <trkpt lat="-3.0794930" lon="37.3588900">
    <ele>5816.2</ele>
    <time>2026-06-23T05:23:36Z</time>
   </trkpt>
   <trkpt lat="-3.0794990" lon="37.3588920">
    <ele>5816.0</ele>
    <time>2026-06-23T05:23:37Z</time>
   </trkpt>
   <trkpt lat="-3.0795080" lon="37.3588940">
    <ele>5815.8</ele>
    <time>2026-06-23T05:23:38Z</time>
   </trkpt>
   <trkpt lat="-3.0795140" lon="37.3588960">
    <ele>5815.6</ele>
    <time>2026-06-23T05:23:39Z</time>
   </trkpt>
   <trkpt lat="-3.0795230" lon="37.3588990">
    <ele>5815.3</ele>
    <time>2026-06-23T05:23:40Z</time>
   </trkpt>
   <trkpt lat="-3.0795300" lon="37.3589040">
    <ele>5815.1</ele>
    <time>2026-06-23T05:23:41Z</time>
   </trkpt>
   <trkpt lat="-3.0795330" lon="37.3589100">
    <ele>5814.9</ele>
    <time>2026-06-23T05:23:42Z</time>
   </trkpt>
   <trkpt lat="-3.0795370" lon="37.3589150">
    <ele>5814.7</ele>
    <time>2026-06-23T05:23:43Z</time>
   </trkpt>
   <trkpt lat="-3.0795430" lon="37.3589240">
    <ele>5814.4</ele>
    <time>2026-06-23T05:23:44Z</time>
   </trkpt>
   <trkpt lat="-3.0795460" lon="37.3589310">
    <ele>5814.2</ele>
    <time>2026-06-23T05:23:45Z</time>
   </trkpt>
   <trkpt lat="-3.0795520" lon="37.3589370">
    <ele>5814.0</ele>
    <time>2026-06-23T05:23:46Z</time>
   </trkpt>
   <trkpt lat="-3.0795540" lon="37.3589400">
    <ele>5813.9</ele>
    <time>2026-06-23T05:23:47Z</time>
   </trkpt>
   <trkpt lat="-3.0795570" lon="37.3589470">
    <ele>5813.7</ele>
    <time>2026-06-23T05:23:48Z</time>
   </trkpt>
   <trkpt lat="-3.0795570" lon="37.3589560">
    <ele>5813.4</ele>
    <time>2026-06-23T05:23:49Z</time>
   </trkpt>
   <trkpt lat="-3.0795560" lon="37.3589660">
    <ele>5813.2</ele>
    <time>2026-06-23T05:23:50Z</time>
   </trkpt>
   <trkpt lat="-3.0795490" lon="37.3589860">
    <ele>5812.6</ele>
    <time>2026-06-23T05:23:51Z</time>
   </trkpt>
   <trkpt lat="-3.0795490" lon="37.3589950">
    <ele>5812.4</ele>
    <time>2026-06-23T05:23:52Z</time>
   </trkpt>
   <trkpt lat="-3.0795500" lon="37.3590070">
    <ele>5812.0</ele>
    <time>2026-06-23T05:23:53Z</time>
   </trkpt>
   <trkpt lat="-3.0795500" lon="37.3590150">
    <ele>5811.8</ele>
    <time>2026-06-23T05:23:54Z</time>
   </trkpt>
   <trkpt lat="-3.0795470" lon="37.3590220">
    <ele>5811.6</ele>
    <time>2026-06-23T05:23:55Z</time>
   </trkpt>
   <trkpt lat="-3.0795460" lon="37.3590310">
    <ele>5811.4</ele>
    <time>2026-06-23T05:23:56Z</time>
   </trkpt>
   <trkpt lat="-3.0795470" lon="37.3590420">
    <ele>5811.1</ele>
    <time>2026-06-23T05:23:57Z</time>
   </trkpt>
   <trkpt lat="-3.0795490" lon="37.3590490">
    <ele>5810.9</ele>
    <time>2026-06-23T05:23:58Z</time>
   </trkpt>
   <trkpt lat="-3.0795510" lon="37.3590550">
    <ele>5810.7</ele>
    <time>2026-06-23T05:23:59Z</time>
   </trkpt>
   <trkpt lat="-3.0795550" lon="37.3590590">
    <ele>5810.6</ele>
    <time>2026-06-23T05:24:00Z</time>
   </trkpt>
   <trkpt lat="-3.0795580" lon="37.3590620">
    <ele>5810.5</ele>
    <time>2026-06-23T05:24:01Z</time>
   </trkpt>
   <trkpt lat="-3.0795620" lon="37.3590730">
    <ele>5810.2</ele>
    <time>2026-06-23T05:24:02Z</time>
   </trkpt>
   <trkpt lat="-3.0795630" lon="37.3590840">
    <ele>5809.9</ele>
    <time>2026-06-23T05:24:03Z</time>
   </trkpt>
   <trkpt lat="-3.0795630" lon="37.3590930">
    <ele>5809.7</ele>
    <time>2026-06-23T05:24:04Z</time>
   </trkpt>
   <trkpt lat="-3.0795620" lon="37.3591010">
    <ele>5809.5</ele>
    <time>2026-06-23T05:24:05Z</time>
   </trkpt>
   <trkpt lat="-3.0795620" lon="37.3591100">
    <ele>5809.2</ele>
    <time>2026-06-23T05:24:06Z</time>
   </trkpt>
   <trkpt lat="-3.0795620" lon="37.3591220">
    <ele>5808.9</ele>
    <time>2026-06-23T05:24:07Z</time>
   </trkpt>
   <trkpt lat="-3.0795590" lon="37.3591340">
    <ele>5808.6</ele>
    <time>2026-06-23T05:24:08Z</time>
   </trkpt>
   <trkpt lat="-3.0795590" lon="37.3591420">
    <ele>5808.4</ele>
    <time>2026-06-23T05:24:09Z</time>
   </trkpt>
   <trkpt lat="-3.0795590" lon="37.3591520">
    <ele>5808.1</ele>
    <time>2026-06-23T05:24:10Z</time>
   </trkpt>
   <trkpt lat="-3.0795590" lon="37.3591620">
    <ele>5807.9</ele>
    <time>2026-06-23T05:24:11Z</time>
   </trkpt>
   <trkpt lat="-3.0795580" lon="37.3591740">
    <ele>5807.6</ele>
    <time>2026-06-23T05:24:12Z</time>
   </trkpt>
   <trkpt lat="-3.0795570" lon="37.3591850">
    <ele>5807.3</ele>
    <time>2026-06-23T05:24:13Z</time>
   </trkpt>
   <trkpt lat="-3.0795570" lon="37.3591960">
    <ele>5807.0</ele>
    <time>2026-06-23T05:24:14Z</time>
   </trkpt>
   <trkpt lat="-3.0795570" lon="37.3592070">
    <ele>5806.7</ele>
    <time>2026-06-23T05:24:15Z</time>
   </trkpt>
   <trkpt lat="-3.0795580" lon="37.3592190">
    <ele>5806.4</ele>
    <time>2026-06-23T05:24:16Z</time>
   </trkpt>
   <trkpt lat="-3.0795560" lon="37.3592290">
    <ele>5806.2</ele>
    <time>2026-06-23T05:24:17Z</time>
   </trkpt>
   <trkpt lat="-3.0795550" lon="37.3592380">
    <ele>5805.9</ele>
    <time>2026-06-23T05:24:18Z</time>
   </trkpt>
   <trkpt lat="-3.0795560" lon="37.3592450">
    <ele>5805.8</ele>
    <time>2026-06-23T05:24:19Z</time>
   </trkpt>
   <trkpt lat="-3.0795570" lon="37.3592590">
    <ele>5805.4</ele>
    <time>2026-06-23T05:24:20Z</time>
   </trkpt>
   <trkpt lat="-3.0795580" lon="37.3592690">
    <ele>5805.2</ele>
    <time>2026-06-23T05:24:21Z</time>
   </trkpt>
   <trkpt lat="-3.0795570" lon="37.3592800">
    <ele>5804.9</ele>
    <time>2026-06-23T05:24:22Z</time>
   </trkpt>
   <trkpt lat="-3.0795570" lon="37.3592900">
    <ele>5804.6</ele>
    <time>2026-06-23T05:24:23Z</time>
   </trkpt>
   <trkpt lat="-3.0795560" lon="37.3592990">
    <ele>5804.4</ele>
    <time>2026-06-23T05:24:24Z</time>
   </trkpt>
   <trkpt lat="-3.0795570" lon="37.3593080">
    <ele>5804.2</ele>
    <time>2026-06-23T05:24:25Z</time>
   </trkpt>
   <trkpt lat="-3.0795620" lon="37.3593140">
    <ele>5804.0</ele>
    <time>2026-06-23T05:24:26Z</time>
   </trkpt>
   <trkpt lat="-3.0795660" lon="37.3593280">
    <ele>5803.6</ele>
    <time>2026-06-23T05:24:27Z</time>
   </trkpt>
   <trkpt lat="-3.0795630" lon="37.3593410">
    <ele>5803.3</ele>
    <time>2026-06-23T05:24:28Z</time>
   </trkpt>
   <trkpt lat="-3.0795630" lon="37.3593490">
    <ele>5803.1</ele>
    <time>2026-06-23T05:24:29Z</time>
   </trkpt>
   <trkpt lat="-3.0795630" lon="37.3593610">
    <ele>5802.9</ele>
    <time>2026-06-23T05:24:30Z</time>
   </trkpt>
   <trkpt lat="-3.0795670" lon="37.3593700">
    <ele>5802.7</ele>
    <time>2026-06-23T05:24:31Z</time>
   </trkpt>
   <trkpt lat="-3.0795700" lon="37.3593780">
    <ele>5802.5</ele>
    <time>2026-06-23T05:24:32Z</time>
   </trkpt>
   <trkpt lat="-3.0795740" lon="37.3593860">
    <ele>5802.3</ele>
    <time>2026-06-23T05:24:33Z</time>
   </trkpt>
   <trkpt lat="-3.0795750" lon="37.3593940">
    <ele>5802.1</ele>
    <time>2026-06-23T05:24:34Z</time>
   </trkpt>
   <trkpt lat="-3.0795760" lon="37.3594050">
    <ele>5801.8</ele>
    <time>2026-06-23T05:24:35Z</time>
   </trkpt>
   <trkpt lat="-3.0795780" lon="37.3594150">
    <ele>5801.6</ele>
    <time>2026-06-23T05:24:36Z</time>
   </trkpt>
   <trkpt lat="-3.0795790" lon="37.3594230">
    <ele>5801.4</ele>
    <time>2026-06-23T05:24:37Z</time>
   </trkpt>
   <trkpt lat="-3.0795780" lon="37.3594350">
    <ele>5801.2</ele>
    <time>2026-06-23T05:24:38Z</time>
   </trkpt>
   <trkpt lat="-3.0795770" lon="37.3594440">
    <ele>5801.0</ele>
    <time>2026-06-23T05:24:39Z</time>
   </trkpt>
   <trkpt lat="-3.0795760" lon="37.3594540">
    <ele>5800.8</ele>
    <time>2026-06-23T05:24:40Z</time>
   </trkpt>
   <trkpt lat="-3.0795740" lon="37.3594660">
    <ele>5800.5</ele>
    <time>2026-06-23T05:24:41Z</time>
   </trkpt>
   <trkpt lat="-3.0795720" lon="37.3594780">
    <ele>5800.3</ele>
    <time>2026-06-23T05:24:42Z</time>
   </trkpt>
   <trkpt lat="-3.0795690" lon="37.3594910">
    <ele>5800.0</ele>
    <time>2026-06-23T05:24:43Z</time>
   </trkpt>
   <trkpt lat="-3.0795670" lon="37.3595000">
    <ele>5799.8</ele>
    <time>2026-06-23T05:24:44Z</time>
   </trkpt>
   <trkpt lat="-3.0795660" lon="37.3595080">
    <ele>5799.6</ele>
    <time>2026-06-23T05:24:45Z</time>
   </trkpt>
   <trkpt lat="-3.0795630" lon="37.3595160">
    <ele>5799.4</ele>
    <time>2026-06-23T05:24:46Z</time>
   </trkpt>
   <trkpt lat="-3.0795620" lon="37.3595360">
    <ele>5799.0</ele>
    <time>2026-06-23T05:24:47Z</time>
   </trkpt>
   <trkpt lat="-3.0795610" lon="37.3595460">
    <ele>5798.8</ele>
    <time>2026-06-23T05:24:48Z</time>
   </trkpt>
   <trkpt lat="-3.0795550" lon="37.3595540">
    <ele>5798.6</ele>
    <time>2026-06-23T05:24:49Z</time>
   </trkpt>
   <trkpt lat="-3.0795510" lon="37.3595610">
    <ele>5798.4</ele>
    <time>2026-06-23T05:24:50Z</time>
   </trkpt>
   <trkpt lat="-3.0795480" lon="37.3595700">
    <ele>5798.2</ele>
    <time>2026-06-23T05:24:51Z</time>
   </trkpt>
   <trkpt lat="-3.0795430" lon="37.3595800">
    <ele>5798.0</ele>
    <time>2026-06-23T05:24:52Z</time>
   </trkpt>
   <trkpt lat="-3.0795390" lon="37.3595920">
    <ele>5797.7</ele>
    <time>2026-06-23T05:24:53Z</time>
   </trkpt>
   <trkpt lat="-3.0795380" lon="37.3595990">
    <ele>5797.6</ele>
    <time>2026-06-23T05:24:54Z</time>
   </trkpt>
   <trkpt lat="-3.0795360" lon="37.3596080">
    <ele>5797.4</ele>
    <time>2026-06-23T05:24:55Z</time>
   </trkpt>
   <trkpt lat="-3.0795340" lon="37.3596170">
    <ele>5797.2</ele>
    <time>2026-06-23T05:24:56Z</time>
   </trkpt>
   <trkpt lat="-3.0795310" lon="37.3596300">
    <ele>5797.0</ele>
    <time>2026-06-23T05:24:57Z</time>
   </trkpt>
   <trkpt lat="-3.0795290" lon="37.3596400">
    <ele>5796.8</ele>
    <time>2026-06-23T05:24:58Z</time>
   </trkpt>
   <trkpt lat="-3.0795290" lon="37.3596520">
    <ele>5796.6</ele>
    <time>2026-06-23T05:24:59Z</time>
   </trkpt>
   <trkpt lat="-3.0795280" lon="37.3596610">
    <ele>5796.4</ele>
    <time>2026-06-23T05:25:00Z</time>
   </trkpt>
   <trkpt lat="-3.0795280" lon="37.3596680">
    <ele>5796.2</ele>
    <time>2026-06-23T05:25:01Z</time>
   </trkpt>
   <trkpt lat="-3.0795270" lon="37.3596760">
    <ele>5796.1</ele>
    <time>2026-06-23T05:25:02Z</time>
   </trkpt>
   <trkpt lat="-3.0795230" lon="37.3596850">
    <ele>5795.9</ele>
    <time>2026-06-23T05:25:03Z</time>
   </trkpt>
   <trkpt lat="-3.0795180" lon="37.3596960">
    <ele>5795.7</ele>
    <time>2026-06-23T05:25:04Z</time>
   </trkpt>
   <trkpt lat="-3.0795130" lon="37.3597040">
    <ele>5795.5</ele>
    <time>2026-06-23T05:25:05Z</time>
   </trkpt>
   <trkpt lat="-3.0795080" lon="37.3597130">
    <ele>5795.3</ele>
    <time>2026-06-23T05:25:06Z</time>
   </trkpt>
   <trkpt lat="-3.0795050" lon="37.3597230">
    <ele>5795.1</ele>
    <time>2026-06-23T05:25:07Z</time>
   </trkpt>
   <trkpt lat="-3.0795020" lon="37.3597330">
    <ele>5794.9</ele>
    <time>2026-06-23T05:25:08Z</time>
   </trkpt>
   <trkpt lat="-3.0795020" lon="37.3597440">
    <ele>5794.7</ele>
    <time>2026-06-23T05:25:09Z</time>
   </trkpt>
   <trkpt lat="-3.0794990" lon="37.3597480">
    <ele>5794.6</ele>
    <time>2026-06-23T05:25:10Z</time>
   </trkpt>
   <trkpt lat="-3.0794940" lon="37.3597610">
    <ele>5794.4</ele>
    <time>2026-06-23T05:25:11Z</time>
   </trkpt>
   <trkpt lat="-3.0794950" lon="37.3597730">
    <ele>5794.2</ele>
    <time>2026-06-23T05:25:12Z</time>
   </trkpt>
   <trkpt lat="-3.0794980" lon="37.3597800">
    <ele>5794.0</ele>
    <time>2026-06-23T05:25:13Z</time>
   </trkpt>
   <trkpt lat="-3.0794970" lon="37.3597850">
    <ele>5793.9</ele>
    <time>2026-06-23T05:25:14Z</time>
   </trkpt>
   <trkpt lat="-3.0794950" lon="37.3597960">
    <ele>5793.7</ele>
    <time>2026-06-23T05:25:15Z</time>
   </trkpt>
   <trkpt lat="-3.0794900" lon="37.3598050">
    <ele>5793.5</ele>
    <time>2026-06-23T05:25:17Z</time>
   </trkpt>
   <trkpt lat="-3.0794850" lon="37.3598130">
    <ele>5793.4</ele>
    <time>2026-06-23T05:25:18Z</time>
   </trkpt>
   <trkpt lat="-3.0794840" lon="37.3598210">
    <ele>5793.2</ele>
    <time>2026-06-23T05:25:19Z</time>
   </trkpt>
   <trkpt lat="-3.0794820" lon="37.3598330">
    <ele>5793.0</ele>
    <time>2026-06-23T05:25:20Z</time>
   </trkpt>
   <trkpt lat="-3.0794810" lon="37.3598450">
    <ele>5792.8</ele>
    <time>2026-06-23T05:25:21Z</time>
   </trkpt>
   <trkpt lat="-3.0794800" lon="37.3598570">
    <ele>5792.6</ele>
    <time>2026-06-23T05:25:22Z</time>
   </trkpt>
   <trkpt lat="-3.0794790" lon="37.3598620">
    <ele>5792.5</ele>
    <time>2026-06-23T05:25:23Z</time>
   </trkpt>
   <trkpt lat="-3.0794780" lon="37.3598760">
    <ele>5792.3</ele>
    <time>2026-06-23T05:25:24Z</time>
   </trkpt>
   <trkpt lat="-3.0794780" lon="37.3598890">
    <ele>5792.1</ele>
    <time>2026-06-23T05:25:25Z</time>
   </trkpt>
   <trkpt lat="-3.0794780" lon="37.3599010">
    <ele>5791.9</ele>
    <time>2026-06-23T05:25:26Z</time>
   </trkpt>
   <trkpt lat="-3.0794790" lon="37.3599130">
    <ele>5791.7</ele>
    <time>2026-06-23T05:25:27Z</time>
   </trkpt>
   <trkpt lat="-3.0794790" lon="37.3599240">
    <ele>5791.5</ele>
    <time>2026-06-23T05:25:28Z</time>
   </trkpt>
   <trkpt lat="-3.0794790" lon="37.3599350">
    <ele>5791.4</ele>
    <time>2026-06-23T05:25:29Z</time>
   </trkpt>
   <trkpt lat="-3.0794780" lon="37.3599460">
    <ele>5791.2</ele>
    <time>2026-06-23T05:25:30Z</time>
   </trkpt>
   <trkpt lat="-3.0794750" lon="37.3599580">
    <ele>5791.0</ele>
    <time>2026-06-23T05:25:31Z</time>
   </trkpt>
   <trkpt lat="-3.0794680" lon="37.3599700">
    <ele>5790.8</ele>
    <time>2026-06-23T05:25:32Z</time>
   </trkpt>
   <trkpt lat="-3.0794650" lon="37.3599800">
    <ele>5790.6</ele>
    <time>2026-06-23T05:25:33Z</time>
   </trkpt>
   <trkpt lat="-3.0794620" lon="37.3599930">
    <ele>5790.4</ele>
    <time>2026-06-23T05:25:34Z</time>
   </trkpt>
   <trkpt lat="-3.0794570" lon="37.3600030">
    <ele>5790.3</ele>
    <time>2026-06-23T05:25:35Z</time>
   </trkpt>
   <trkpt lat="-3.0794540" lon="37.3600160">
    <ele>5790.1</ele>
    <time>2026-06-23T05:25:36Z</time>
   </trkpt>
   <trkpt lat="-3.0794510" lon="37.3600270">
    <ele>5790.0</ele>
    <time>2026-06-23T05:25:37Z</time>
   </trkpt>
   <trkpt lat="-3.0794480" lon="37.3600400">
    <ele>5789.8</ele>
    <time>2026-06-23T05:25:38Z</time>
   </trkpt>
   <trkpt lat="-3.0794450" lon="37.3600530">
    <ele>5789.6</ele>
    <time>2026-06-23T05:25:39Z</time>
   </trkpt>
   <trkpt lat="-3.0794450" lon="37.3600640">
    <ele>5789.5</ele>
    <time>2026-06-23T05:25:40Z</time>
   </trkpt>
   <trkpt lat="-3.0794430" lon="37.3600780">
    <ele>5789.3</ele>
    <time>2026-06-23T05:25:41Z</time>
   </trkpt>
   <trkpt lat="-3.0794420" lon="37.3600890">
    <ele>5789.2</ele>
    <time>2026-06-23T05:25:42Z</time>
   </trkpt>
   <trkpt lat="-3.0794400" lon="37.3601030">
    <ele>5789.0</ele>
    <time>2026-06-23T05:25:43Z</time>
   </trkpt>
   <trkpt lat="-3.0794360" lon="37.3601130">
    <ele>5788.9</ele>
    <time>2026-06-23T05:25:44Z</time>
   </trkpt>
   <trkpt lat="-3.0794300" lon="37.3601250">
    <ele>5788.7</ele>
    <time>2026-06-23T05:25:45Z</time>
   </trkpt>
   <trkpt lat="-3.0794260" lon="37.3601370">
    <ele>5788.6</ele>
    <time>2026-06-23T05:25:46Z</time>
   </trkpt>
   <trkpt lat="-3.0794260" lon="37.3601480">
    <ele>5788.4</ele>
    <time>2026-06-23T05:25:47Z</time>
   </trkpt>
   <trkpt lat="-3.0794230" lon="37.3601640">
    <ele>5788.3</ele>
    <time>2026-06-23T05:25:48Z</time>
   </trkpt>
   <trkpt lat="-3.0794180" lon="37.3601730">
    <ele>5788.1</ele>
    <time>2026-06-23T05:25:49Z</time>
   </trkpt>
   <trkpt lat="-3.0794120" lon="37.3601880">
    <ele>5788.0</ele>
    <time>2026-06-23T05:25:50Z</time>
   </trkpt>
   <trkpt lat="-3.0794100" lon="37.3601980">
    <ele>5787.8</ele>
    <time>2026-06-23T05:25:51Z</time>
   </trkpt>
   <trkpt lat="-3.0794060" lon="37.3602140">
    <ele>5787.7</ele>
    <time>2026-06-23T05:25:52Z</time>
   </trkpt>
   <trkpt lat="-3.0794040" lon="37.3602230">
    <ele>5787.6</ele>
    <time>2026-06-23T05:25:53Z</time>
   </trkpt>
   <trkpt lat="-3.0794010" lon="37.3602370">
    <ele>5787.4</ele>
    <time>2026-06-23T05:25:54Z</time>
   </trkpt>
   <trkpt lat="-3.0793980" lon="37.3602490">
    <ele>5787.3</ele>
    <time>2026-06-23T05:25:55Z</time>
   </trkpt>
   <trkpt lat="-3.0793970" lon="37.3602620">
    <ele>5787.1</ele>
    <time>2026-06-23T05:25:56Z</time>
   </trkpt>
   <trkpt lat="-3.0793960" lon="37.3602760">
    <ele>5786.9</ele>
    <time>2026-06-23T05:25:57Z</time>
   </trkpt>
   <trkpt lat="-3.0793880" lon="37.3602990">
    <ele>5786.6</ele>
    <time>2026-06-23T05:25:58Z</time>
   </trkpt>
   <trkpt lat="-3.0793770" lon="37.3603130">
    <ele>5786.4</ele>
    <time>2026-06-23T05:25:59Z</time>
   </trkpt>
   <trkpt lat="-3.0793710" lon="37.3603200">
    <ele>5786.3</ele>
    <time>2026-06-23T05:26:00Z</time>
   </trkpt>
   <trkpt lat="-3.0793660" lon="37.3603250">
    <ele>5786.2</ele>
    <time>2026-06-23T05:26:01Z</time>
   </trkpt>
   <trkpt lat="-3.0793590" lon="37.3603360">
    <ele>5786.0</ele>
    <time>2026-06-23T05:26:02Z</time>
   </trkpt>
   <trkpt lat="-3.0793540" lon="37.3603460">
    <ele>5785.8</ele>
    <time>2026-06-23T05:26:03Z</time>
   </trkpt>
   <trkpt lat="-3.0793490" lon="37.3603570">
    <ele>5785.6</ele>
    <time>2026-06-23T05:26:04Z</time>
   </trkpt>
   <trkpt lat="-3.0793430" lon="37.3603670">
    <ele>5785.5</ele>
    <time>2026-06-23T05:26:05Z</time>
   </trkpt>
   <trkpt lat="-3.0793370" lon="37.3603770">
    <ele>5785.3</ele>
    <time>2026-06-23T05:26:06Z</time>
   </trkpt>
   <trkpt lat="-3.0793350" lon="37.3603870">
    <ele>5785.1</ele>
    <time>2026-06-23T05:26:07Z</time>
   </trkpt>
   <trkpt lat="-3.0793300" lon="37.3603940">
    <ele>5785.0</ele>
    <time>2026-06-23T05:26:08Z</time>
   </trkpt>
   <trkpt lat="-3.0793260" lon="37.3604000">
    <ele>5784.9</ele>
    <time>2026-06-23T05:26:09Z</time>
   </trkpt>
   <trkpt lat="-3.0793240" lon="37.3604000">
    <ele>5784.8</ele>
    <time>2026-06-23T05:26:10Z</time>
   </trkpt>
   <trkpt lat="-3.0793160" lon="37.3604020">
    <ele>5784.7</ele>
    <time>2026-06-23T05:26:11Z</time>
   </trkpt>
   <trkpt lat="-3.0793030" lon="37.3604060">
    <ele>5784.5</ele>
    <time>2026-06-23T05:26:12Z</time>
   </trkpt>
   <trkpt lat="-3.0792950" lon="37.3604150">
    <ele>5784.3</ele>
    <time>2026-06-23T05:26:13Z</time>
   </trkpt>
   <trkpt lat="-3.0792920" lon="37.3604280">
    <ele>5784.0</ele>
    <time>2026-06-23T05:26:14Z</time>
   </trkpt>
   <trkpt lat="-3.0792910" lon="37.3604370">
    <ele>5783.9</ele>
    <time>2026-06-23T05:26:15Z</time>
   </trkpt>
   <trkpt lat="-3.0792920" lon="37.3604500">
    <ele>5783.7</ele>
    <time>2026-06-23T05:26:16Z</time>
   </trkpt>
   <trkpt lat="-3.0792950" lon="37.3604630">
    <ele>5783.4</ele>
    <time>2026-06-23T05:26:17Z</time>
   </trkpt>
   <trkpt lat="-3.0793020" lon="37.3604720">
    <ele>5783.2</ele>
    <time>2026-06-23T05:26:18Z</time>
   </trkpt>
   <trkpt lat="-3.0793040" lon="37.3604790">
    <ele>5783.1</ele>
    <time>2026-06-23T05:26:19Z</time>
   </trkpt>
   <trkpt lat="-3.0793040" lon="37.3604860">
    <ele>5783.0</ele>
    <time>2026-06-23T05:26:20Z</time>
   </trkpt>
   <trkpt lat="-3.0793000" lon="37.3604950">
    <ele>5782.8</ele>
    <time>2026-06-23T05:26:21Z</time>
   </trkpt>
   <trkpt lat="-3.0792990" lon="37.3605060">
    <ele>5782.6</ele>
    <time>2026-06-23T05:26:22Z</time>
   </trkpt>
   <trkpt lat="-3.0793020" lon="37.3605130">
    <ele>5782.5</ele>
    <time>2026-06-23T05:26:23Z</time>
   </trkpt>
   <trkpt lat="-3.0792960" lon="37.3605240">
    <ele>5782.3</ele>
    <time>2026-06-23T05:26:24Z</time>
   </trkpt>
   <trkpt lat="-3.0792850" lon="37.3605290">
    <ele>5782.0</ele>
    <time>2026-06-23T05:26:25Z</time>
   </trkpt>
   <trkpt lat="-3.0792700" lon="37.3605370">
    <ele>5781.7</ele>
    <time>2026-06-23T05:26:26Z</time>
   </trkpt>
   <trkpt lat="-3.0792620" lon="37.3605440">
    <ele>5781.6</ele>
    <time>2026-06-23T05:26:27Z</time>
   </trkpt>
   <trkpt lat="-3.0792600" lon="37.3605550">
    <ele>5781.4</ele>
    <time>2026-06-23T05:26:28Z</time>
   </trkpt>
   <trkpt lat="-3.0792600" lon="37.3605640">
    <ele>5781.2</ele>
    <time>2026-06-23T05:26:29Z</time>
   </trkpt>
   <trkpt lat="-3.0792630" lon="37.3605780">
    <ele>5780.9</ele>
    <time>2026-06-23T05:26:30Z</time>
   </trkpt>
   <trkpt lat="-3.0792670" lon="37.3605900">
    <ele>5780.7</ele>
    <time>2026-06-23T05:26:31Z</time>
   </trkpt>
   <trkpt lat="-3.0792700" lon="37.3606010">
    <ele>5780.5</ele>
    <time>2026-06-23T05:26:32Z</time>
   </trkpt>
   <trkpt lat="-3.0792720" lon="37.3606130">
    <ele>5780.3</ele>
    <time>2026-06-23T05:26:33Z</time>
   </trkpt>
   <trkpt lat="-3.0792770" lon="37.3606240">
    <ele>5780.0</ele>
    <time>2026-06-23T05:26:34Z</time>
   </trkpt>
   <trkpt lat="-3.0792800" lon="37.3606350">
    <ele>5779.8</ele>
    <time>2026-06-23T05:26:35Z</time>
   </trkpt>
   <trkpt lat="-3.0792830" lon="37.3606470">
    <ele>5779.6</ele>
    <time>2026-06-23T05:26:36Z</time>
   </trkpt>
   <trkpt lat="-3.0792840" lon="37.3606580">
    <ele>5779.3</ele>
    <time>2026-06-23T05:26:37Z</time>
   </trkpt>
   <trkpt lat="-3.0792900" lon="37.3606650">
    <ele>5779.2</ele>
    <time>2026-06-23T05:26:38Z</time>
   </trkpt>
   <trkpt lat="-3.0793010" lon="37.3606730">
    <ele>5778.9</ele>
    <time>2026-06-23T05:26:39Z</time>
   </trkpt>
   <trkpt lat="-3.0793080" lon="37.3606780">
    <ele>5778.7</ele>
    <time>2026-06-23T05:26:40Z</time>
   </trkpt>
   <trkpt lat="-3.0793160" lon="37.3606850">
    <ele>5778.5</ele>
    <time>2026-06-23T05:26:41Z</time>
   </trkpt>
   <trkpt lat="-3.0793180" lon="37.3606920">
    <ele>5778.4</ele>
    <time>2026-06-23T05:26:42Z</time>
   </trkpt>
   <trkpt lat="-3.0793180" lon="37.3607010">
    <ele>5778.2</ele>
    <time>2026-06-23T05:26:43Z</time>
   </trkpt>
   <trkpt lat="-3.0793180" lon="37.3607100">
    <ele>5778.0</ele>
    <time>2026-06-23T05:26:44Z</time>
   </trkpt>
   <trkpt lat="-3.0793190" lon="37.3607180">
    <ele>5777.8</ele>
    <time>2026-06-23T05:26:45Z</time>
   </trkpt>
   <trkpt lat="-3.0793170" lon="37.3607280">
    <ele>5777.6</ele>
    <time>2026-06-23T05:26:46Z</time>
   </trkpt>
   <trkpt lat="-3.0793150" lon="37.3607390">
    <ele>5777.4</ele>
    <time>2026-06-23T05:26:47Z</time>
   </trkpt>
   <trkpt lat="-3.0793130" lon="37.3607480">
    <ele>5777.2</ele>
    <time>2026-06-23T05:26:48Z</time>
   </trkpt>
   <trkpt lat="-3.0793120" lon="37.3607600">
    <ele>5777.0</ele>
    <time>2026-06-23T05:26:49Z</time>
   </trkpt>
   <trkpt lat="-3.0793140" lon="37.3607720">
    <ele>5776.8</ele>
    <time>2026-06-23T05:26:50Z</time>
   </trkpt>
   <trkpt lat="-3.0793130" lon="37.3607820">
    <ele>5776.6</ele>
    <time>2026-06-23T05:26:51Z</time>
   </trkpt>
   <trkpt lat="-3.0793120" lon="37.3607930">
    <ele>5776.4</ele>
    <time>2026-06-23T05:26:52Z</time>
   </trkpt>
   <trkpt lat="-3.0793130" lon="37.3608050">
    <ele>5776.1</ele>
    <time>2026-06-23T05:26:53Z</time>
   </trkpt>
   <trkpt lat="-3.0793130" lon="37.3608160">
    <ele>5776.0</ele>
    <time>2026-06-23T05:26:54Z</time>
   </trkpt>
   <trkpt lat="-3.0793110" lon="37.3608290">
    <ele>5775.7</ele>
    <time>2026-06-23T05:26:55Z</time>
   </trkpt>
   <trkpt lat="-3.0793060" lon="37.3608430">
    <ele>5775.5</ele>
    <time>2026-06-23T05:26:56Z</time>
   </trkpt>
   <trkpt lat="-3.0793020" lon="37.3608560">
    <ele>5775.3</ele>
    <time>2026-06-23T05:26:57Z</time>
   </trkpt>
   <trkpt lat="-3.0793000" lon="37.3608690">
    <ele>5775.1</ele>
    <time>2026-06-23T05:26:58Z</time>
   </trkpt>
   <trkpt lat="-3.0792990" lon="37.3608780">
    <ele>5774.9</ele>
    <time>2026-06-23T05:26:59Z</time>
   </trkpt>
   <trkpt lat="-3.0792950" lon="37.3608880">
    <ele>5774.8</ele>
    <time>2026-06-23T05:27:00Z</time>
   </trkpt>
   <trkpt lat="-3.0792890" lon="37.3609010">
    <ele>5774.6</ele>
    <time>2026-06-23T05:27:01Z</time>
   </trkpt>
   <trkpt lat="-3.0792800" lon="37.3609100">
    <ele>5774.4</ele>
    <time>2026-06-23T05:27:02Z</time>
   </trkpt>
   <trkpt lat="-3.0792690" lon="37.3609200">
    <ele>5774.2</ele>
    <time>2026-06-23T05:27:03Z</time>
   </trkpt>
   <trkpt lat="-3.0792590" lon="37.3609280">
    <ele>5774.0</ele>
    <time>2026-06-23T05:27:04Z</time>
   </trkpt>
   <trkpt lat="-3.0792480" lon="37.3609370">
    <ele>5773.8</ele>
    <time>2026-06-23T05:27:05Z</time>
   </trkpt>
   <trkpt lat="-3.0792380" lon="37.3609480">
    <ele>5773.6</ele>
    <time>2026-06-23T05:27:06Z</time>
   </trkpt>
   <trkpt lat="-3.0792270" lon="37.3609600">
    <ele>5773.4</ele>
    <time>2026-06-23T05:27:07Z</time>
   </trkpt>
   <trkpt lat="-3.0792220" lon="37.3609720">
    <ele>5773.2</ele>
    <time>2026-06-23T05:27:08Z</time>
   </trkpt>
   <trkpt lat="-3.0792180" lon="37.3609860">
    <ele>5773.0</ele>
    <time>2026-06-23T05:27:09Z</time>
   </trkpt>
   <trkpt lat="-3.0792140" lon="37.3609980">
    <ele>5772.8</ele>
    <time>2026-06-23T05:27:10Z</time>
   </trkpt>
   <trkpt lat="-3.0792090" lon="37.3610100">
    <ele>5772.7</ele>
    <time>2026-06-23T05:27:11Z</time>
   </trkpt>
   <trkpt lat="-3.0792060" lon="37.3610240">
    <ele>5772.5</ele>
    <time>2026-06-23T05:27:12Z</time>
   </trkpt>
   <trkpt lat="-3.0792040" lon="37.3610350">
    <ele>5772.3</ele>
    <time>2026-06-23T05:27:13Z</time>
   </trkpt>
   <trkpt lat="-3.0792070" lon="37.3610480">
    <ele>5772.1</ele>
    <time>2026-06-23T05:27:14Z</time>
   </trkpt>
   <trkpt lat="-3.0792080" lon="37.3610600">
    <ele>5771.9</ele>
    <time>2026-06-23T05:27:15Z</time>
   </trkpt>
   <trkpt lat="-3.0792060" lon="37.3610700">
    <ele>5771.7</ele>
    <time>2026-06-23T05:27:16Z</time>
   </trkpt>
   <trkpt lat="-3.0792070" lon="37.3610800">
    <ele>5771.6</ele>
    <time>2026-06-23T05:27:17Z</time>
   </trkpt>
   <trkpt lat="-3.0792080" lon="37.3610890">
    <ele>5771.4</ele>
    <time>2026-06-23T05:27:18Z</time>
   </trkpt>
   <trkpt lat="-3.0792050" lon="37.3610980">
    <ele>5771.3</ele>
    <time>2026-06-23T05:27:19Z</time>
   </trkpt>
   <trkpt lat="-3.0792040" lon="37.3611060">
    <ele>5771.1</ele>
    <time>2026-06-23T05:27:20Z</time>
   </trkpt>
   <trkpt lat="-3.0792000" lon="37.3611140">
    <ele>5771.0</ele>
    <time>2026-06-23T05:27:22Z</time>
   </trkpt>
   <trkpt lat="-3.0791970" lon="37.3611250">
    <ele>5770.8</ele>
    <time>2026-06-23T05:27:23Z</time>
   </trkpt>
   <trkpt lat="-3.0791930" lon="37.3611350">
    <ele>5770.6</ele>
    <time>2026-06-23T05:27:24Z</time>
   </trkpt>
   <trkpt lat="-3.0791860" lon="37.3611410">
    <ele>5770.5</ele>
    <time>2026-06-23T05:27:25Z</time>
   </trkpt>
   <trkpt lat="-3.0791750" lon="37.3611580">
    <ele>5770.1</ele>
    <time>2026-06-23T05:27:26Z</time>
   </trkpt>
   <trkpt lat="-3.0791700" lon="37.3611660">
    <ele>5769.9</ele>
    <time>2026-06-23T05:27:27Z</time>
   </trkpt>
   <trkpt lat="-3.0791670" lon="37.3611730">
    <ele>5769.8</ele>
    <time>2026-06-23T05:27:28Z</time>
   </trkpt>
   <trkpt lat="-3.0791650" lon="37.3611800">
    <ele>5769.7</ele>
    <time>2026-06-23T05:27:29Z</time>
   </trkpt>
   <trkpt lat="-3.0791620" lon="37.3611910">
    <ele>5769.5</ele>
    <time>2026-06-23T05:27:30Z</time>
   </trkpt>
   <trkpt lat="-3.0791570" lon="37.3612010">
    <ele>5769.2</ele>
    <time>2026-06-23T05:27:31Z</time>
   </trkpt>
   <trkpt lat="-3.0791500" lon="37.3612150">
    <ele>5769.0</ele>
    <time>2026-06-23T05:27:32Z</time>
   </trkpt>
   <trkpt lat="-3.0791460" lon="37.3612240">
    <ele>5768.8</ele>
    <time>2026-06-23T05:27:33Z</time>
   </trkpt>
   <trkpt lat="-3.0791460" lon="37.3612350">
    <ele>5768.6</ele>
    <time>2026-06-23T05:27:34Z</time>
   </trkpt>
   <trkpt lat="-3.0791460" lon="37.3612460">
    <ele>5768.3</ele>
    <time>2026-06-23T05:27:35Z</time>
   </trkpt>
   <trkpt lat="-3.0791410" lon="37.3612570">
    <ele>5768.1</ele>
    <time>2026-06-23T05:27:36Z</time>
   </trkpt>
   <trkpt lat="-3.0791390" lon="37.3612650">
    <ele>5767.9</ele>
    <time>2026-06-23T05:27:37Z</time>
   </trkpt>
   <trkpt lat="-3.0791390" lon="37.3612760">
    <ele>5767.7</ele>
    <time>2026-06-23T05:27:38Z</time>
   </trkpt>
   <trkpt lat="-3.0791420" lon="37.3612850">
    <ele>5767.5</ele>
    <time>2026-06-23T05:27:39Z</time>
   </trkpt>
   <trkpt lat="-3.0791430" lon="37.3612950">
    <ele>5767.3</ele>
    <time>2026-06-23T05:27:40Z</time>
   </trkpt>
   <trkpt lat="-3.0791450" lon="37.3613030">
    <ele>5767.1</ele>
    <time>2026-06-23T05:27:41Z</time>
   </trkpt>
   <trkpt lat="-3.0791390" lon="37.3613240">
    <ele>5766.6</ele>
    <time>2026-06-23T05:27:42Z</time>
   </trkpt>
   <trkpt lat="-3.0791350" lon="37.3613330">
    <ele>5766.4</ele>
    <time>2026-06-23T05:27:43Z</time>
   </trkpt>
   <trkpt lat="-3.0791280" lon="37.3613500">
    <ele>5766.0</ele>
    <time>2026-06-23T05:27:44Z</time>
   </trkpt>
   <trkpt lat="-3.0791270" lon="37.3613580">
    <ele>5765.8</ele>
    <time>2026-06-23T05:27:45Z</time>
   </trkpt>
   <trkpt lat="-3.0791320" lon="37.3613700">
    <ele>5765.5</ele>
    <time>2026-06-23T05:27:46Z</time>
   </trkpt>
   <trkpt lat="-3.0791350" lon="37.3613830">
    <ele>5765.2</ele>
    <time>2026-06-23T05:27:47Z</time>
   </trkpt>
   <trkpt lat="-3.0791340" lon="37.3613880">
    <ele>5765.1</ele>
    <time>2026-06-23T05:27:48Z</time>
   </trkpt>
   <trkpt lat="-3.0791330" lon="37.3614020">
    <ele>5764.7</ele>
    <time>2026-06-23T05:27:49Z</time>
   </trkpt>
   <trkpt lat="-3.0791320" lon="37.3614150">
    <ele>5764.4</ele>
    <time>2026-06-23T05:27:50Z</time>
   </trkpt>
   <trkpt lat="-3.0791300" lon="37.3614280">
    <ele>5764.1</ele>
    <time>2026-06-23T05:27:51Z</time>
   </trkpt>
   <trkpt lat="-3.0791270" lon="37.3614370">
    <ele>5763.9</ele>
    <time>2026-06-23T05:27:52Z</time>
   </trkpt>
   <trkpt lat="-3.0791260" lon="37.3614420">
    <ele>5763.8</ele>
    <time>2026-06-23T05:27:53Z</time>
   </trkpt>
   <trkpt lat="-3.0791270" lon="37.3614430">
    <ele>5763.7</ele>
    <time>2026-06-23T05:27:54Z</time>
   </trkpt>
   <trkpt lat="-3.0791270" lon="37.3614440">
    <ele>5763.7</ele>
    <time>2026-06-23T05:27:55Z</time>
   </trkpt>
   <trkpt lat="-3.0791270" lon="37.3614440">
    <ele>5763.7</ele>
    <time>2026-06-23T05:27:56Z</time>
   </trkpt>
   <trkpt lat="-3.0791260" lon="37.3614450">
    <ele>5763.7</ele>
    <time>2026-06-23T05:27:57Z</time>
   </trkpt>
   <trkpt lat="-3.0791270" lon="37.3614440">
    <ele>5763.6</ele>
    <time>2026-06-23T05:27:58Z</time>
   </trkpt>
   <trkpt lat="-3.0791260" lon="37.3614460">
    <ele>5763.6</ele>
    <time>2026-06-23T05:27:59Z</time>
   </trkpt>
   <trkpt lat="-3.0791250" lon="37.3614470">
    <ele>5763.6</ele>
    <time>2026-06-23T05:28:00Z</time>
   </trkpt>
   <trkpt lat="-3.0791240" lon="37.3614470">
    <ele>5763.5</ele>
    <time>2026-06-23T05:28:01Z</time>
   </trkpt>
   <trkpt lat="-3.0791230" lon="37.3614470">
    <ele>5763.5</ele>
    <time>2026-06-23T05:28:02Z</time>
   </trkpt>
   <trkpt lat="-3.0791230" lon="37.3614460">
    <ele>5763.5</ele>
    <time>2026-06-23T05:28:03Z</time>
   </trkpt>
   <trkpt lat="-3.0791230" lon="37.3614450">
    <ele>5763.5</ele>
    <time>2026-06-23T05:28:04Z</time>
   </trkpt>
   <trkpt lat="-3.0791230" lon="37.3614450">
    <ele>5763.5</ele>
    <time>2026-06-23T05:28:05Z</time>
   </trkpt>
   <trkpt lat="-3.0791230" lon="37.3614450">
    <ele>5763.5</ele>
    <time>2026-06-23T05:28:06Z</time>
   </trkpt>
   <trkpt lat="-3.0791250" lon="37.3614450">
    <ele>5763.4</ele>
    <time>2026-06-23T05:28:07Z</time>
   </trkpt>
   <trkpt lat="-3.0791240" lon="37.3614450">
    <ele>5763.4</ele>
    <time>2026-06-23T05:28:08Z</time>
   </trkpt>
   <trkpt lat="-3.0791250" lon="37.3614440">
    <ele>5763.4</ele>
    <time>2026-06-23T05:28:09Z</time>
   </trkpt>
   <trkpt lat="-3.0791250" lon="37.3614440">
    <ele>5763.4</ele>
    <time>2026-06-23T05:28:10Z</time>
   </trkpt>
   <trkpt lat="-3.0791260" lon="37.3614450">
    <ele>5763.3</ele>
    <time>2026-06-23T05:28:11Z</time>
   </trkpt>
   <trkpt lat="-3.0791260" lon="37.3614450">
    <ele>5763.3</ele>
    <time>2026-06-23T05:28:12Z</time>
   </trkpt>
   <trkpt lat="-3.0791270" lon="37.3614430">
    <ele>5763.3</ele>
    <time>2026-06-23T05:28:13Z</time>
   </trkpt>
   <trkpt lat="-3.0791280" lon="37.3614440">
    <ele>5763.2</ele>
    <time>2026-06-23T05:28:14Z</time>
   </trkpt>
   <trkpt lat="-3.0791280" lon="37.3614440">
    <ele>5763.2</ele>
    <time>2026-06-23T05:28:15Z</time>
   </trkpt>
   <trkpt lat="-3.0791270" lon="37.3614440">
    <ele>5763.2</ele>
    <time>2026-06-23T05:28:16Z</time>
   </trkpt>
   <trkpt lat="-3.0791270" lon="37.3614450">
    <ele>5763.2</ele>
    <time>2026-06-23T05:28:17Z</time>
   </trkpt>
   <trkpt lat="-3.0791280" lon="37.3614440">
    <ele>5763.2</ele>
    <time>2026-06-23T05:28:18Z</time>
   </trkpt>
   <trkpt lat="-3.0791280" lon="37.3614440">
    <ele>5763.2</ele>
    <time>2026-06-23T05:28:19Z</time>
   </trkpt>
   <trkpt lat="-3.0791270" lon="37.3614460">
    <ele>5763.1</ele>
    <time>2026-06-23T05:28:20Z</time>
   </trkpt>
   <trkpt lat="-3.0791270" lon="37.3614440">
    <ele>5763.1</ele>
    <time>2026-06-23T05:28:21Z</time>
   </trkpt>
   <trkpt lat="-3.0791300" lon="37.3614470">
    <ele>5763.0</ele>
    <time>2026-06-23T05:28:22Z</time>
   </trkpt>
   <trkpt lat="-3.0791300" lon="37.3614450">
    <ele>5762.9</ele>
    <time>2026-06-23T05:28:23Z</time>
   </trkpt>
   <trkpt lat="-3.0791300" lon="37.3614450">
    <ele>5762.9</ele>
    <time>2026-06-23T05:28:24Z</time>
   </trkpt>
   <trkpt lat="-3.0791300" lon="37.3614450">
    <ele>5762.9</ele>
    <time>2026-06-23T05:28:25Z</time>
   </trkpt>
   <trkpt lat="-3.0791300" lon="37.3614450">
    <ele>5762.9</ele>
    <time>2026-06-23T05:28:26Z</time>
   </trkpt>
   <trkpt lat="-3.0791290" lon="37.3614450">
    <ele>5762.9</ele>
    <time>2026-06-23T05:28:27Z</time>
   </trkpt>
   <trkpt lat="-3.0791280" lon="37.3614440">
    <ele>5762.9</ele>
    <time>2026-06-23T05:28:28Z</time>
   </trkpt>
   <trkpt lat="-3.0791290" lon="37.3614450">
    <ele>5762.8</ele>
    <time>2026-06-23T05:28:29Z</time>
   </trkpt>
   <trkpt lat="-3.0791280" lon="37.3614450">
    <ele>5762.8</ele>
    <time>2026-06-23T05:28:30Z</time>
   </trkpt>
   <trkpt lat="-3.0791280" lon="37.3614460">
    <ele>5762.8</ele>
    <time>2026-06-23T05:28:31Z</time>
   </trkpt>
   <trkpt lat="-3.0791280" lon="37.3614460">
    <ele>5762.8</ele>
    <time>2026-06-23T05:28:32Z</time>
   </trkpt>
   <trkpt lat="-3.0791290" lon="37.3614470">
    <ele>5762.7</ele>
    <time>2026-06-23T05:28:33Z</time>
   </trkpt>
   <trkpt lat="-3.0791290" lon="37.3614470">
    <ele>5762.7</ele>
    <time>2026-06-23T05:28:34Z</time>
   </trkpt>
   <trkpt lat="-3.0791280" lon="37.3614480">
    <ele>5762.7</ele>
    <time>2026-06-23T05:28:35Z</time>
   </trkpt>
   <trkpt lat="-3.0791280" lon="37.3614490">
    <ele>5762.7</ele>
    <time>2026-06-23T05:28:36Z</time>
   </trkpt>
   <trkpt lat="-3.0791280" lon="37.3614490">
    <ele>5762.7</ele>
    <time>2026-06-23T05:28:37Z</time>
   </trkpt>
   <trkpt lat="-3.0791270" lon="37.3614520">
    <ele>5762.6</ele>
    <time>2026-06-23T05:28:38Z</time>
   </trkpt>
   <trkpt lat="-3.0791260" lon="37.3614550">
    <ele>5762.5</ele>
    <time>2026-06-23T05:28:39Z</time>
   </trkpt>
   <trkpt lat="-3.0791250" lon="37.3614630">
    <ele>5762.3</ele>
    <time>2026-06-23T05:28:40Z</time>
   </trkpt>
   <trkpt lat="-3.0791230" lon="37.3614710">
    <ele>5762.2</ele>
    <time>2026-06-23T05:28:41Z</time>
   </trkpt>
   <trkpt lat="-3.0791190" lon="37.3614840">
    <ele>5761.8</ele>
    <time>2026-06-23T05:28:42Z</time>
   </trkpt>
   <trkpt lat="-3.0791200" lon="37.3614910">
    <ele>5761.7</ele>
    <time>2026-06-23T05:28:43Z</time>
   </trkpt>
   <trkpt lat="-3.0791170" lon="37.3614980">
    <ele>5761.5</ele>
    <time>2026-06-23T05:28:44Z</time>
   </trkpt>
   <trkpt lat="-3.0791110" lon="37.3615040">
    <ele>5761.3</ele>
    <time>2026-06-23T05:28:45Z</time>
   </trkpt>
   <trkpt lat="-3.0791040" lon="37.3615150">
    <ele>5761.0</ele>
    <time>2026-06-23T05:28:46Z</time>
   </trkpt>
   <trkpt lat="-3.0790990" lon="37.3615240">
    <ele>5760.8</ele>
    <time>2026-06-23T05:28:47Z</time>
   </trkpt>
   <trkpt lat="-3.0790920" lon="37.3615310">
    <ele>5760.5</ele>
    <time>2026-06-23T05:28:48Z</time>
   </trkpt>
   <trkpt lat="-3.0790830" lon="37.3615370">
    <ele>5760.3</ele>
    <time>2026-06-23T05:28:49Z</time>
   </trkpt>
   <trkpt lat="-3.0790730" lon="37.3615470">
    <ele>5760.0</ele>
    <time>2026-06-23T05:28:50Z</time>
   </trkpt>
   <trkpt lat="-3.0790640" lon="37.3615490">
    <ele>5759.7</ele>
    <time>2026-06-23T05:28:51Z</time>
   </trkpt>
   <trkpt lat="-3.0790560" lon="37.3615570">
    <ele>5759.5</ele>
    <time>2026-06-23T05:28:52Z</time>
   </trkpt>
   <trkpt lat="-3.0790440" lon="37.3615680">
    <ele>5759.1</ele>
    <time>2026-06-23T05:28:53Z</time>
   </trkpt>
   <trkpt lat="-3.0790350" lon="37.3615770">
    <ele>5758.8</ele>
    <time>2026-06-23T05:28:54Z</time>
   </trkpt>
   <trkpt lat="-3.0790270" lon="37.3615850">
    <ele>5758.6</ele>
    <time>2026-06-23T05:28:55Z</time>
   </trkpt>
   <trkpt lat="-3.0790180" lon="37.3615950">
    <ele>5758.2</ele>
    <time>2026-06-23T05:28:56Z</time>
   </trkpt>
   <trkpt lat="-3.0790100" lon="37.3616070">
    <ele>5757.9</ele>
    <time>2026-06-23T05:28:57Z</time>
   </trkpt>
   <trkpt lat="-3.0790030" lon="37.3616170">
    <ele>5757.6</ele>
    <time>2026-06-23T05:28:58Z</time>
   </trkpt>
   <trkpt lat="-3.0789930" lon="37.3616260">
    <ele>5757.3</ele>
    <time>2026-06-23T05:28:59Z</time>
   </trkpt>
   <trkpt lat="-3.0789820" lon="37.3616340">
    <ele>5757.0</ele>
    <time>2026-06-23T05:29:00Z</time>
   </trkpt>
   <trkpt lat="-3.0789740" lon="37.3616460">
    <ele>5756.6</ele>
    <time>2026-06-23T05:29:01Z</time>
   </trkpt>
   <trkpt lat="-3.0789700" lon="37.3616590">
    <ele>5756.3</ele>
    <time>2026-06-23T05:29:02Z</time>
   </trkpt>
   <trkpt lat="-3.0789630" lon="37.3616690">
    <ele>5756.0</ele>
    <time>2026-06-23T05:29:03Z</time>
   </trkpt>
   <trkpt lat="-3.0789570" lon="37.3616830">
    <ele>5755.7</ele>
    <time>2026-06-23T05:29:04Z</time>
   </trkpt>
   <trkpt lat="-3.0789540" lon="37.3616960">
    <ele>5755.3</ele>
    <time>2026-06-23T05:29:05Z</time>
   </trkpt>
   <trkpt lat="-3.0789510" lon="37.3617080">
    <ele>5755.0</ele>
    <time>2026-06-23T05:29:06Z</time>
   </trkpt>
   <trkpt lat="-3.0789470" lon="37.3617200">
    <ele>5754.7</ele>
    <time>2026-06-23T05:29:07Z</time>
   </trkpt>
   <trkpt lat="-3.0789420" lon="37.3617340">
    <ele>5754.4</ele>
    <time>2026-06-23T05:29:08Z</time>
   </trkpt>
   <trkpt lat="-3.0789310" lon="37.3617410">
    <ele>5754.1</ele>
    <time>2026-06-23T05:29:09Z</time>
   </trkpt>
   <trkpt lat="-3.0789240" lon="37.3617530">
    <ele>5753.7</ele>
    <time>2026-06-23T05:29:10Z</time>
   </trkpt>
   <trkpt lat="-3.0789120" lon="37.3617620">
    <ele>5753.4</ele>
    <time>2026-06-23T05:29:11Z</time>
   </trkpt>
   <trkpt lat="-3.0789030" lon="37.3617720">
    <ele>5753.1</ele>
    <time>2026-06-23T05:29:12Z</time>
   </trkpt>
   <trkpt lat="-3.0788930" lon="37.3617800">
    <ele>5752.8</ele>
    <time>2026-06-23T05:29:13Z</time>
   </trkpt>
   <trkpt lat="-3.0788770" lon="37.3617860">
    <ele>5752.4</ele>
    <time>2026-06-23T05:29:14Z</time>
   </trkpt>
   <trkpt lat="-3.0788650" lon="37.3617950">
    <ele>5752.0</ele>
    <time>2026-06-23T05:29:15Z</time>
   </trkpt>
   <trkpt lat="-3.0788570" lon="37.3618000">
    <ele>5751.8</ele>
    <time>2026-06-23T05:29:16Z</time>
   </trkpt>
   <trkpt lat="-3.0788470" lon="37.3618110">
    <ele>5751.5</ele>
    <time>2026-06-23T05:29:17Z</time>
   </trkpt>
   <trkpt lat="-3.0788360" lon="37.3618160">
    <ele>5751.2</ele>
    <time>2026-06-23T05:29:18Z</time>
   </trkpt>
   <trkpt lat="-3.0788270" lon="37.3618230">
    <ele>5751.0</ele>
    <time>2026-06-23T05:29:19Z</time>
   </trkpt>
   <trkpt lat="-3.0788220" lon="37.3618350">
    <ele>5750.7</ele>
    <time>2026-06-23T05:29:20Z</time>
   </trkpt>
   <trkpt lat="-3.0788160" lon="37.3618430">
    <ele>5750.5</ele>
    <time>2026-06-23T05:29:21Z</time>
   </trkpt>
   <trkpt lat="-3.0788050" lon="37.3618510">
    <ele>5750.2</ele>
    <time>2026-06-23T05:29:22Z</time>
   </trkpt>
   <trkpt lat="-3.0787960" lon="37.3618590">
    <ele>5749.9</ele>
    <time>2026-06-23T05:29:23Z</time>
   </trkpt>
   <trkpt lat="-3.0787900" lon="37.3618690">
    <ele>5749.7</ele>
    <time>2026-06-23T05:29:24Z</time>
   </trkpt>
   <trkpt lat="-3.0787820" lon="37.3618780">
    <ele>5749.4</ele>
    <time>2026-06-23T05:29:25Z</time>
   </trkpt>
   <trkpt lat="-3.0787730" lon="37.3618820">
    <ele>5749.2</ele>
    <time>2026-06-23T05:29:27Z</time>
   </trkpt>
   <trkpt lat="-3.0787640" lon="37.3618900">
    <ele>5748.9</ele>
    <time>2026-06-23T05:29:28Z</time>
   </trkpt>
   <trkpt lat="-3.0787600" lon="37.3619030">
    <ele>5748.7</ele>
    <time>2026-06-23T05:29:29Z</time>
   </trkpt>
   <trkpt lat="-3.0787510" lon="37.3619140">
    <ele>5748.4</ele>
    <time>2026-06-23T05:29:30Z</time>
   </trkpt>
   <trkpt lat="-3.0787440" lon="37.3619220">
    <ele>5748.2</ele>
    <time>2026-06-23T05:29:31Z</time>
   </trkpt>
   <trkpt lat="-3.0787340" lon="37.3619310">
    <ele>5748.0</ele>
    <time>2026-06-23T05:29:32Z</time>
   </trkpt>
   <trkpt lat="-3.0787250" lon="37.3619430">
    <ele>5747.7</ele>
    <time>2026-06-23T05:29:33Z</time>
   </trkpt>
   <trkpt lat="-3.0787160" lon="37.3619550">
    <ele>5747.4</ele>
    <time>2026-06-23T05:29:34Z</time>
   </trkpt>
   <trkpt lat="-3.0787090" lon="37.3619620">
    <ele>5747.3</ele>
    <time>2026-06-23T05:29:35Z</time>
   </trkpt>
   <trkpt lat="-3.0787000" lon="37.3619730">
    <ele>5747.1</ele>
    <time>2026-06-23T05:29:36Z</time>
   </trkpt>
   <trkpt lat="-3.0786930" lon="37.3619820">
    <ele>5746.9</ele>
    <time>2026-06-23T05:29:37Z</time>
   </trkpt>
   <trkpt lat="-3.0786840" lon="37.3619920">
    <ele>5746.7</ele>
    <time>2026-06-23T05:29:38Z</time>
   </trkpt>
   <trkpt lat="-3.0786760" lon="37.3620020">
    <ele>5746.6</ele>
    <time>2026-06-23T05:29:39Z</time>
   </trkpt>
   <trkpt lat="-3.0786660" lon="37.3620130">
    <ele>5746.5</ele>
    <time>2026-06-23T05:29:40Z</time>
   </trkpt>
   <trkpt lat="-3.0786580" lon="37.3620230">
    <ele>5746.3</ele>
    <time>2026-06-23T05:29:41Z</time>
   </trkpt>
   <trkpt lat="-3.0786500" lon="37.3620330">
    <ele>5746.2</ele>
    <time>2026-06-23T05:29:42Z</time>
   </trkpt>
   <trkpt lat="-3.0786410" lon="37.3620420">
    <ele>5746.1</ele>
    <time>2026-06-23T05:29:43Z</time>
   </trkpt>
   <trkpt lat="-3.0786300" lon="37.3620510">
    <ele>5746.0</ele>
    <time>2026-06-23T05:29:44Z</time>
   </trkpt>
   <trkpt lat="-3.0786200" lon="37.3620590">
    <ele>5745.9</ele>
    <time>2026-06-23T05:29:45Z</time>
   </trkpt>
   <trkpt lat="-3.0786080" lon="37.3620660">
    <ele>5745.9</ele>
    <time>2026-06-23T05:29:46Z</time>
   </trkpt>
   <trkpt lat="-3.0785970" lon="37.3620720">
    <ele>5745.8</ele>
    <time>2026-06-23T05:29:47Z</time>
   </trkpt>
   <trkpt lat="-3.0785850" lon="37.3620800">
    <ele>5745.7</ele>
    <time>2026-06-23T05:29:48Z</time>
   </trkpt>
   <trkpt lat="-3.0785730" lon="37.3620870">
    <ele>5745.7</ele>
    <time>2026-06-23T05:29:49Z</time>
   </trkpt>
   <trkpt lat="-3.0785600" lon="37.3620920">
    <ele>5745.6</ele>
    <time>2026-06-23T05:29:50Z</time>
   </trkpt>
   <trkpt lat="-3.0785500" lon="37.3620990">
    <ele>5745.6</ele>
    <time>2026-06-23T05:29:51Z</time>
   </trkpt>
   <trkpt lat="-3.0785400" lon="37.3621080">
    <ele>5745.5</ele>
    <time>2026-06-23T05:29:52Z</time>
   </trkpt>
   <trkpt lat="-3.0785290" lon="37.3621160">
    <ele>5745.5</ele>
    <time>2026-06-23T05:29:53Z</time>
   </trkpt>
   <trkpt lat="-3.0785170" lon="37.3621210">
    <ele>5745.4</ele>
    <time>2026-06-23T05:29:54Z</time>
   </trkpt>
   <trkpt lat="-3.0785050" lon="37.3621270">
    <ele>5745.4</ele>
    <time>2026-06-23T05:29:55Z</time>
   </trkpt>
   <trkpt lat="-3.0784940" lon="37.3621340">
    <ele>5745.3</ele>
    <time>2026-06-23T05:29:56Z</time>
   </trkpt>
   <trkpt lat="-3.0784820" lon="37.3621390">
    <ele>5745.3</ele>
    <time>2026-06-23T05:29:57Z</time>
   </trkpt>
   <trkpt lat="-3.0784690" lon="37.3621430">
    <ele>5745.2</ele>
    <time>2026-06-23T05:29:58Z</time>
   </trkpt>
   <trkpt lat="-3.0784570" lon="37.3621490">
    <ele>5745.1</ele>
    <time>2026-06-23T05:29:59Z</time>
   </trkpt>
   <trkpt lat="-3.0784470" lon="37.3621580">
    <ele>5745.1</ele>
    <time>2026-06-23T05:30:00Z</time>
   </trkpt>
   <trkpt lat="-3.0784400" lon="37.3621690">
    <ele>5745.0</ele>
    <time>2026-06-23T05:30:01Z</time>
   </trkpt>
   <trkpt lat="-3.0784360" lon="37.3621820">
    <ele>5744.9</ele>
    <time>2026-06-23T05:30:02Z</time>
   </trkpt>
   <trkpt lat="-3.0784310" lon="37.3621930">
    <ele>5744.8</ele>
    <time>2026-06-23T05:30:03Z</time>
   </trkpt>
   <trkpt lat="-3.0784220" lon="37.3622030">
    <ele>5744.7</ele>
    <time>2026-06-23T05:30:04Z</time>
   </trkpt>
   <trkpt lat="-3.0784140" lon="37.3622130">
    <ele>5744.6</ele>
    <time>2026-06-23T05:30:05Z</time>
   </trkpt>
   <trkpt lat="-3.0784060" lon="37.3622220">
    <ele>5744.5</ele>
    <time>2026-06-23T05:30:06Z</time>
   </trkpt>
   <trkpt lat="-3.0784010" lon="37.3622340">
    <ele>5744.4</ele>
    <time>2026-06-23T05:30:07Z</time>
   </trkpt>
   <trkpt lat="-3.0783890" lon="37.3622550">
    <ele>5744.2</ele>
    <time>2026-06-23T05:30:08Z</time>
   </trkpt>
   <trkpt lat="-3.0783840" lon="37.3622650">
    <ele>5744.1</ele>
    <time>2026-06-23T05:30:09Z</time>
   </trkpt>
   <trkpt lat="-3.0783800" lon="37.3622750">
    <ele>5744.0</ele>
    <time>2026-06-23T05:30:10Z</time>
   </trkpt>
   <trkpt lat="-3.0783750" lon="37.3622860">
    <ele>5743.9</ele>
    <time>2026-06-23T05:30:11Z</time>
   </trkpt>
   <trkpt lat="-3.0783670" lon="37.3622950">
    <ele>5743.7</ele>
    <time>2026-06-23T05:30:12Z</time>
   </trkpt>
   <trkpt lat="-3.0783620" lon="37.3623070">
    <ele>5743.6</ele>
    <time>2026-06-23T05:30:13Z</time>
   </trkpt>
   <trkpt lat="-3.0783560" lon="37.3623180">
    <ele>5743.5</ele>
    <time>2026-06-23T05:30:14Z</time>
   </trkpt>
   <trkpt lat="-3.0783520" lon="37.3623250">
    <ele>5743.4</ele>
    <time>2026-06-23T05:30:15Z</time>
   </trkpt>
   <trkpt lat="-3.0783440" lon="37.3623340">
    <ele>5743.3</ele>
    <time>2026-06-23T05:30:16Z</time>
   </trkpt>
   <trkpt lat="-3.0783360" lon="37.3623430">
    <ele>5743.1</ele>
    <time>2026-06-23T05:30:17Z</time>
   </trkpt>
   <trkpt lat="-3.0783280" lon="37.3623520">
    <ele>5743.0</ele>
    <time>2026-06-23T05:30:18Z</time>
   </trkpt>
   <trkpt lat="-3.0783210" lon="37.3623630">
    <ele>5742.9</ele>
    <time>2026-06-23T05:30:19Z</time>
   </trkpt>
   <trkpt lat="-3.0783180" lon="37.3623710">
    <ele>5742.8</ele>
    <time>2026-06-23T05:30:20Z</time>
   </trkpt>
   <trkpt lat="-3.0783100" lon="37.3623840">
    <ele>5742.6</ele>
    <time>2026-06-23T05:30:21Z</time>
   </trkpt>
   <trkpt lat="-3.0783040" lon="37.3623920">
    <ele>5742.5</ele>
    <time>2026-06-23T05:30:22Z</time>
   </trkpt>
   <trkpt lat="-3.0782930" lon="37.3624050">
    <ele>5742.3</ele>
    <time>2026-06-23T05:30:23Z</time>
   </trkpt>
   <trkpt lat="-3.0782850" lon="37.3624110">
    <ele>5742.2</ele>
    <time>2026-06-23T05:30:24Z</time>
   </trkpt>
   <trkpt lat="-3.0782770" lon="37.3624220">
    <ele>5742.1</ele>
    <time>2026-06-23T05:30:25Z</time>
   </trkpt>
   <trkpt lat="-3.0782670" lon="37.3624320">
    <ele>5741.9</ele>
    <time>2026-06-23T05:30:26Z</time>
   </trkpt>
   <trkpt lat="-3.0782600" lon="37.3624420">
    <ele>5741.8</ele>
    <time>2026-06-23T05:30:27Z</time>
   </trkpt>
   <trkpt lat="-3.0782490" lon="37.3624490">
    <ele>5741.6</ele>
    <time>2026-06-23T05:30:28Z</time>
   </trkpt>
   <trkpt lat="-3.0782400" lon="37.3624600">
    <ele>5741.5</ele>
    <time>2026-06-23T05:30:29Z</time>
   </trkpt>
   <trkpt lat="-3.0782330" lon="37.3624700">
    <ele>5741.3</ele>
    <time>2026-06-23T05:30:30Z</time>
   </trkpt>
   <trkpt lat="-3.0782240" lon="37.3624790">
    <ele>5741.2</ele>
    <time>2026-06-23T05:30:31Z</time>
   </trkpt>
   <trkpt lat="-3.0782150" lon="37.3624880">
    <ele>5741.0</ele>
    <time>2026-06-23T05:30:32Z</time>
   </trkpt>
   <trkpt lat="-3.0782100" lon="37.3624970">
    <ele>5740.9</ele>
    <time>2026-06-23T05:30:33Z</time>
   </trkpt>
   <trkpt lat="-3.0782050" lon="37.3625060">
    <ele>5740.8</ele>
    <time>2026-06-23T05:30:34Z</time>
   </trkpt>
   <trkpt lat="-3.0781970" lon="37.3625170">
    <ele>5740.6</ele>
    <time>2026-06-23T05:30:35Z</time>
   </trkpt>
   <trkpt lat="-3.0781910" lon="37.3625260">
    <ele>5740.5</ele>
    <time>2026-06-23T05:30:36Z</time>
   </trkpt>
   <trkpt lat="-3.0781830" lon="37.3625360">
    <ele>5740.3</ele>
    <time>2026-06-23T05:30:37Z</time>
   </trkpt>
   <trkpt lat="-3.0781760" lon="37.3625470">
    <ele>5740.2</ele>
    <time>2026-06-23T05:30:38Z</time>
   </trkpt>
   <trkpt lat="-3.0781720" lon="37.3625500">
    <ele>5740.1</ele>
    <time>2026-06-23T05:30:39Z</time>
   </trkpt>
   <trkpt lat="-3.0781610" lon="37.3625600">
    <ele>5739.9</ele>
    <time>2026-06-23T05:30:40Z</time>
   </trkpt>
   <trkpt lat="-3.0781540" lon="37.3625660">
    <ele>5739.8</ele>
    <time>2026-06-23T05:30:41Z</time>
   </trkpt>
   <trkpt lat="-3.0781440" lon="37.3625720">
    <ele>5739.7</ele>
    <time>2026-06-23T05:30:42Z</time>
   </trkpt>
   <trkpt lat="-3.0781370" lon="37.3625790">
    <ele>5739.6</ele>
    <time>2026-06-23T05:30:43Z</time>
   </trkpt>
   <trkpt lat="-3.0781310" lon="37.3625850">
    <ele>5739.6</ele>
    <time>2026-06-23T05:30:44Z</time>
   </trkpt>
   <trkpt lat="-3.0781250" lon="37.3625910">
    <ele>5739.5</ele>
    <time>2026-06-23T05:30:45Z</time>
   </trkpt>
   <trkpt lat="-3.0781160" lon="37.3625960">
    <ele>5739.4</ele>
    <time>2026-06-23T05:30:46Z</time>
   </trkpt>
   <trkpt lat="-3.0781080" lon="37.3626020">
    <ele>5739.4</ele>
    <time>2026-06-23T05:30:47Z</time>
   </trkpt>
   <trkpt lat="-3.0781030" lon="37.3626090">
    <ele>5739.3</ele>
    <time>2026-06-23T05:30:48Z</time>
   </trkpt>
   <trkpt lat="-3.0780980" lon="37.3626190">
    <ele>5739.3</ele>
    <time>2026-06-23T05:30:49Z</time>
   </trkpt>
   <trkpt lat="-3.0780940" lon="37.3626290">
    <ele>5739.2</ele>
    <time>2026-06-23T05:30:50Z</time>
   </trkpt>
   <trkpt lat="-3.0780890" lon="37.3626360">
    <ele>5739.2</ele>
    <time>2026-06-23T05:30:51Z</time>
   </trkpt>
   <trkpt lat="-3.0780850" lon="37.3626410">
    <ele>5739.1</ele>
    <time>2026-06-23T05:30:52Z</time>
   </trkpt>
   <trkpt lat="-3.0780860" lon="37.3626430">
    <ele>5739.1</ele>
    <time>2026-06-23T05:30:53Z</time>
   </trkpt>
   <trkpt lat="-3.0780890" lon="37.3626420">
    <ele>5739.1</ele>
    <time>2026-06-23T05:30:54Z</time>
   </trkpt>
   <trkpt lat="-3.0780880" lon="37.3626420">
    <ele>5739.1</ele>
    <time>2026-06-23T05:30:55Z</time>
   </trkpt>
   <trkpt lat="-3.0780900" lon="37.3626420">
    <ele>5739.1</ele>
    <time>2026-06-23T05:30:56Z</time>
   </trkpt>
   <trkpt lat="-3.0780890" lon="37.3626420">
    <ele>5739.1</ele>
    <time>2026-06-23T05:30:57Z</time>
   </trkpt>
   <trkpt lat="-3.0780890" lon="37.3626390">
    <ele>5739.1</ele>
    <time>2026-06-23T05:30:58Z</time>
   </trkpt>
   <trkpt lat="-3.0780900" lon="37.3626390">
    <ele>5739.1</ele>
    <time>2026-06-23T05:30:59Z</time>
   </trkpt>
   <trkpt lat="-3.0780910" lon="37.3626380">
    <ele>5739.0</ele>
    <time>2026-06-23T05:31:00Z</time>
   </trkpt>
   <trkpt lat="-3.0780910" lon="37.3626390">
    <ele>5739.0</ele>
    <time>2026-06-23T05:31:01Z</time>
   </trkpt>
   <trkpt lat="-3.0780920" lon="37.3626380">
    <ele>5739.0</ele>
    <time>2026-06-23T05:31:02Z</time>
   </trkpt>
   <trkpt lat="-3.0780920" lon="37.3626390">
    <ele>5739.0</ele>
    <time>2026-06-23T05:31:03Z</time>
   </trkpt>
   <trkpt lat="-3.0780920" lon="37.3626380">
    <ele>5739.0</ele>
    <time>2026-06-23T05:31:04Z</time>
   </trkpt>
   <trkpt lat="-3.0780920" lon="37.3626380">
    <ele>5739.0</ele>
    <time>2026-06-23T05:31:05Z</time>
   </trkpt>
   <trkpt lat="-3.0780920" lon="37.3626380">
    <ele>5739.0</ele>
    <time>2026-06-23T05:31:06Z</time>
   </trkpt>
   <trkpt lat="-3.0780940" lon="37.3626390">
    <ele>5739.0</ele>
    <time>2026-06-23T05:31:07Z</time>
   </trkpt>
   <trkpt lat="-3.0780940" lon="37.3626400">
    <ele>5739.0</ele>
    <time>2026-06-23T05:31:08Z</time>
   </trkpt>
   <trkpt lat="-3.0780940" lon="37.3626390">
    <ele>5739.0</ele>
    <time>2026-06-23T05:31:09Z</time>
   </trkpt>
   <trkpt lat="-3.0780940" lon="37.3626390">
    <ele>5739.0</ele>
    <time>2026-06-23T05:31:10Z</time>
   </trkpt>
   <trkpt lat="-3.0780930" lon="37.3626400">
    <ele>5739.0</ele>
    <time>2026-06-23T05:31:11Z</time>
   </trkpt>
   <trkpt lat="-3.0780930" lon="37.3626400">
    <ele>5739.0</ele>
    <time>2026-06-23T05:31:12Z</time>
   </trkpt>
   <trkpt lat="-3.0780930" lon="37.3626410">
    <ele>5739.0</ele>
    <time>2026-06-23T05:31:13Z</time>
   </trkpt>
   <trkpt lat="-3.0780940" lon="37.3626410">
    <ele>5739.0</ele>
    <time>2026-06-23T05:31:14Z</time>
   </trkpt>
   <trkpt lat="-3.0780930" lon="37.3626410">
    <ele>5739.0</ele>
    <time>2026-06-23T05:31:15Z</time>
   </trkpt>
   <trkpt lat="-3.0780930" lon="37.3626410">
    <ele>5739.0</ele>
    <time>2026-06-23T05:31:16Z</time>
   </trkpt>
   <trkpt lat="-3.0780940" lon="37.3626420">
    <ele>5739.0</ele>
    <time>2026-06-23T05:31:17Z</time>
   </trkpt>
   <trkpt lat="-3.0780940" lon="37.3626420">
    <ele>5739.0</ele>
    <time>2026-06-23T05:31:18Z</time>
   </trkpt>
   <trkpt lat="-3.0780940" lon="37.3626430">
    <ele>5739.0</ele>
    <time>2026-06-23T05:31:19Z</time>
   </trkpt>
   <trkpt lat="-3.0780940" lon="37.3626420">
    <ele>5738.9</ele>
    <time>2026-06-23T05:31:20Z</time>
   </trkpt>
   <trkpt lat="-3.0780940" lon="37.3626430">
    <ele>5738.9</ele>
    <time>2026-06-23T05:31:21Z</time>
   </trkpt>
   <trkpt lat="-3.0780940" lon="37.3626430">
    <ele>5738.9</ele>
    <time>2026-06-23T05:31:22Z</time>
   </trkpt>
   <trkpt lat="-3.0780940" lon="37.3626430">
    <ele>5738.9</ele>
    <time>2026-06-23T05:31:23Z</time>
   </trkpt>
   <trkpt lat="-3.0780940" lon="37.3626430">
    <ele>5738.9</ele>
    <time>2026-06-23T05:31:24Z</time>
   </trkpt>
   <trkpt lat="-3.0780940" lon="37.3626430">
    <ele>5738.9</ele>
    <time>2026-06-23T05:31:25Z</time>
   </trkpt>
   <trkpt lat="-3.0780950" lon="37.3626430">
    <ele>5738.9</ele>
    <time>2026-06-23T05:31:26Z</time>
   </trkpt>
   <trkpt lat="-3.0780950" lon="37.3626430">
    <ele>5738.9</ele>
    <time>2026-06-23T05:31:27Z</time>
   </trkpt>
   <trkpt lat="-3.0780950" lon="37.3626440">
    <ele>5738.9</ele>
    <time>2026-06-23T05:31:28Z</time>
   </trkpt>
   <trkpt lat="-3.0780940" lon="37.3626440">
    <ele>5738.9</ele>
    <time>2026-06-23T05:31:29Z</time>
   </trkpt>
   <trkpt lat="-3.0780950" lon="37.3626440">
    <ele>5738.9</ele>
    <time>2026-06-23T05:31:30Z</time>
   </trkpt>
   <trkpt lat="-3.0780960" lon="37.3626440">
    <ele>5738.9</ele>
    <time>2026-06-23T05:31:31Z</time>
   </trkpt>
   <trkpt lat="-3.0780960" lon="37.3626440">
    <ele>5738.9</ele>
    <time>2026-06-23T05:31:33Z</time>
   </trkpt>
   <trkpt lat="-3.0780950" lon="37.3626440">
    <ele>5738.9</ele>
    <time>2026-06-23T05:31:34Z</time>
   </trkpt>
   <trkpt lat="-3.0780970" lon="37.3626450">
    <ele>5738.9</ele>
    <time>2026-06-23T05:31:35Z</time>
   </trkpt>
   <trkpt lat="-3.0780960" lon="37.3626450">
    <ele>5738.9</ele>
    <time>2026-06-23T05:31:36Z</time>
   </trkpt>
   <trkpt lat="-3.0780960" lon="37.3626460">
    <ele>5738.9</ele>
    <time>2026-06-23T05:31:37Z</time>
   </trkpt>
   <trkpt lat="-3.0780970" lon="37.3626450">
    <ele>5738.9</ele>
    <time>2026-06-23T05:31:38Z</time>
   </trkpt>
   <trkpt lat="-3.0780960" lon="37.3626440">
    <ele>5738.9</ele>
    <time>2026-06-23T05:31:39Z</time>
   </trkpt>
   <trkpt lat="-3.0780960" lon="37.3626440">
    <ele>5738.9</ele>
    <time>2026-06-23T05:31:40Z</time>
   </trkpt>
   <trkpt lat="-3.0780960" lon="37.3626440">
    <ele>5738.9</ele>
    <time>2026-06-23T05:31:41Z</time>
   </trkpt>
   <trkpt lat="-3.0780950" lon="37.3626460">
    <ele>5738.9</ele>
    <time>2026-06-23T05:31:42Z</time>
   </trkpt>
   <trkpt lat="-3.0780960" lon="37.3626450">
    <ele>5738.8</ele>
    <time>2026-06-23T05:31:43Z</time>
   </trkpt>
   <trkpt lat="-3.0780950" lon="37.3626460">
    <ele>5738.8</ele>
    <time>2026-06-23T05:31:44Z</time>
   </trkpt>
   <trkpt lat="-3.0780960" lon="37.3626460">
    <ele>5738.8</ele>
    <time>2026-06-23T05:31:45Z</time>
   </trkpt>
   <trkpt lat="-3.0780970" lon="37.3626470">
    <ele>5738.8</ele>
    <time>2026-06-23T05:31:46Z</time>
   </trkpt>
   <trkpt lat="-3.0780970" lon="37.3626480">
    <ele>5738.8</ele>
    <time>2026-06-23T05:31:47Z</time>
   </trkpt>
   <trkpt lat="-3.0780990" lon="37.3626470">
    <ele>5738.8</ele>
    <time>2026-06-23T05:31:48Z</time>
   </trkpt>
   <trkpt lat="-3.0780980" lon="37.3626470">
    <ele>5738.8</ele>
    <time>2026-06-23T05:31:49Z</time>
   </trkpt>
   <trkpt lat="-3.0780970" lon="37.3626460">
    <ele>5738.8</ele>
    <time>2026-06-23T05:31:50Z</time>
   </trkpt>
   <trkpt lat="-3.0780960" lon="37.3626470">
    <ele>5738.8</ele>
    <time>2026-06-23T05:31:51Z</time>
   </trkpt>
   <trkpt lat="-3.0780960" lon="37.3626460">
    <ele>5738.8</ele>
    <time>2026-06-23T05:31:52Z</time>
   </trkpt>
   <trkpt lat="-3.0780970" lon="37.3626470">
    <ele>5738.8</ele>
    <time>2026-06-23T05:31:53Z</time>
   </trkpt>
   <trkpt lat="-3.0780970" lon="37.3626480">
    <ele>5738.8</ele>
    <time>2026-06-23T05:31:54Z</time>
   </trkpt>
   <trkpt lat="-3.0780980" lon="37.3626470">
    <ele>5738.8</ele>
    <time>2026-06-23T05:31:55Z</time>
   </trkpt>
   <trkpt lat="-3.0780980" lon="37.3626490">
    <ele>5738.7</ele>
    <time>2026-06-23T05:31:56Z</time>
   </trkpt>
   <trkpt lat="-3.0780980" lon="37.3626480">
    <ele>5738.7</ele>
    <time>2026-06-23T05:31:57Z</time>
   </trkpt>
   <trkpt lat="-3.0780990" lon="37.3626480">
    <ele>5738.7</ele>
    <time>2026-06-23T05:31:58Z</time>
   </trkpt>
   <trkpt lat="-3.0781000" lon="37.3626480">
    <ele>5738.7</ele>
    <time>2026-06-23T05:31:59Z</time>
   </trkpt>
   <trkpt lat="-3.0781000" lon="37.3626480">
    <ele>5738.7</ele>
    <time>2026-06-23T05:32:00Z</time>
   </trkpt>
   <trkpt lat="-3.0781000" lon="37.3626470">
    <ele>5738.7</ele>
    <time>2026-06-23T05:32:01Z</time>
   </trkpt>
   <trkpt lat="-3.0780980" lon="37.3626480">
    <ele>5738.7</ele>
    <time>2026-06-23T05:32:02Z</time>
   </trkpt>
   <trkpt lat="-3.0780980" lon="37.3626470">
    <ele>5738.7</ele>
    <time>2026-06-23T05:32:03Z</time>
   </trkpt>
   <trkpt lat="-3.0780980" lon="37.3626480">
    <ele>5738.7</ele>
    <time>2026-06-23T05:32:04Z</time>
   </trkpt>
   <trkpt lat="-3.0780980" lon="37.3626490">
    <ele>5738.7</ele>
    <time>2026-06-23T05:32:05Z</time>
   </trkpt>
   <trkpt lat="-3.0780970" lon="37.3626500">
    <ele>5738.7</ele>
    <time>2026-06-23T05:32:06Z</time>
   </trkpt>
   <trkpt lat="-3.0780980" lon="37.3626470">
    <ele>5738.7</ele>
    <time>2026-06-23T05:32:07Z</time>
   </trkpt>
   <trkpt lat="-3.0780980" lon="37.3626490">
    <ele>5738.7</ele>
    <time>2026-06-23T05:32:08Z</time>
   </trkpt>
   <trkpt lat="-3.0780980" lon="37.3626490">
    <ele>5738.7</ele>
    <time>2026-06-23T05:32:09Z</time>
   </trkpt>
   <trkpt lat="-3.0781000" lon="37.3626490">
    <ele>5738.6</ele>
    <time>2026-06-23T05:32:10Z</time>
   </trkpt>
   <trkpt lat="-3.0780990" lon="37.3626490">
    <ele>5738.6</ele>
    <time>2026-06-23T05:32:11Z</time>
   </trkpt>
   <trkpt lat="-3.0780980" lon="37.3626490">
    <ele>5738.6</ele>
    <time>2026-06-23T05:32:12Z</time>
   </trkpt>
   <trkpt lat="-3.0780980" lon="37.3626490">
    <ele>5738.6</ele>
    <time>2026-06-23T05:32:13Z</time>
   </trkpt>
   <trkpt lat="-3.0780980" lon="37.3626490">
    <ele>5738.6</ele>
    <time>2026-06-23T05:32:14Z</time>
   </trkpt>
   <trkpt lat="-3.0780980" lon="37.3626490">
    <ele>5738.6</ele>
    <time>2026-06-23T05:32:15Z</time>
   </trkpt>
   <trkpt lat="-3.0780970" lon="37.3626490">
    <ele>5738.6</ele>
    <time>2026-06-23T05:32:16Z</time>
   </trkpt>
   <trkpt lat="-3.0780970" lon="37.3626490">
    <ele>5738.6</ele>
    <time>2026-06-23T05:32:17Z</time>
   </trkpt>
   <trkpt lat="-3.0780970" lon="37.3626490">
    <ele>5738.6</ele>
    <time>2026-06-23T05:32:18Z</time>
   </trkpt>
   <trkpt lat="-3.0780970" lon="37.3626490">
    <ele>5738.6</ele>
    <time>2026-06-23T05:32:19Z</time>
   </trkpt>
   <trkpt lat="-3.0780970" lon="37.3626500">
    <ele>5738.6</ele>
    <time>2026-06-23T05:32:20Z</time>
   </trkpt>
   <trkpt lat="-3.0780950" lon="37.3626510">
    <ele>5738.6</ele>
    <time>2026-06-23T05:32:21Z</time>
   </trkpt>
   <trkpt lat="-3.0780950" lon="37.3626490">
    <ele>5738.6</ele>
    <time>2026-06-23T05:32:22Z</time>
   </trkpt>
   <trkpt lat="-3.0780940" lon="37.3626500">
    <ele>5738.6</ele>
    <time>2026-06-23T05:32:23Z</time>
   </trkpt>
   <trkpt lat="-3.0780940" lon="37.3626490">
    <ele>5738.6</ele>
    <time>2026-06-23T05:32:24Z</time>
   </trkpt>
   <trkpt lat="-3.0780940" lon="37.3626500">
    <ele>5738.6</ele>
    <time>2026-06-23T05:32:25Z</time>
   </trkpt>
   <trkpt lat="-3.0780930" lon="37.3626500">
    <ele>5738.6</ele>
    <time>2026-06-23T05:32:26Z</time>
   </trkpt>
   <trkpt lat="-3.0780940" lon="37.3626490">
    <ele>5738.6</ele>
    <time>2026-06-23T05:32:27Z</time>
   </trkpt>
   <trkpt lat="-3.0780940" lon="37.3626500">
    <ele>5738.6</ele>
    <time>2026-06-23T05:32:28Z</time>
   </trkpt>
   <trkpt lat="-3.0780950" lon="37.3626510">
    <ele>5738.5</ele>
    <time>2026-06-23T05:32:29Z</time>
   </trkpt>
   <trkpt lat="-3.0780950" lon="37.3626500">
    <ele>5738.5</ele>
    <time>2026-06-23T05:32:30Z</time>
   </trkpt>
   <trkpt lat="-3.0780950" lon="37.3626500">
    <ele>5738.5</ele>
    <time>2026-06-23T05:32:31Z</time>
   </trkpt>
   <trkpt lat="-3.0780950" lon="37.3626500">
    <ele>5738.5</ele>
    <time>2026-06-23T05:32:32Z</time>
   </trkpt>
   <trkpt lat="-3.0780960" lon="37.3626490">
    <ele>5738.5</ele>
    <time>2026-06-23T05:32:33Z</time>
   </trkpt>
   <trkpt lat="-3.0780950" lon="37.3626480">
    <ele>5738.5</ele>
    <time>2026-06-23T05:32:34Z</time>
   </trkpt>
   <trkpt lat="-3.0780950" lon="37.3626490">
    <ele>5738.5</ele>
    <time>2026-06-23T05:32:35Z</time>
   </trkpt>
   <trkpt lat="-3.0780950" lon="37.3626490">
    <ele>5738.5</ele>
    <time>2026-06-23T05:32:36Z</time>
   </trkpt>
   <trkpt lat="-3.0780930" lon="37.3626510">
    <ele>5738.5</ele>
    <time>2026-06-23T05:32:37Z</time>
   </trkpt>
   <trkpt lat="-3.0780930" lon="37.3626520">
    <ele>5738.5</ele>
    <time>2026-06-23T05:32:38Z</time>
   </trkpt>
   <trkpt lat="-3.0780920" lon="37.3626510">
    <ele>5738.5</ele>
    <time>2026-06-23T05:32:39Z</time>
   </trkpt>
   <trkpt lat="-3.0780930" lon="37.3626510">
    <ele>5738.5</ele>
    <time>2026-06-23T05:32:40Z</time>
   </trkpt>
   <trkpt lat="-3.0780940" lon="37.3626510">
    <ele>5738.5</ele>
    <time>2026-06-23T05:32:41Z</time>
   </trkpt>
   <trkpt lat="-3.0780940" lon="37.3626510">
    <ele>5738.5</ele>
    <time>2026-06-23T05:32:42Z</time>
   </trkpt>
   <trkpt lat="-3.0780940" lon="37.3626530">
    <ele>5738.5</ele>
    <time>2026-06-23T05:32:43Z</time>
   </trkpt>
   <trkpt lat="-3.0780940" lon="37.3626520">
    <ele>5738.5</ele>
    <time>2026-06-23T05:32:44Z</time>
   </trkpt>
   <trkpt lat="-3.0780940" lon="37.3626530">
    <ele>5738.5</ele>
    <time>2026-06-23T05:32:45Z</time>
   </trkpt>
   <trkpt lat="-3.0780940" lon="37.3626530">
    <ele>5738.5</ele>
    <time>2026-06-23T05:32:46Z</time>
   </trkpt>
   <trkpt lat="-3.0780940" lon="37.3626510">
    <ele>5738.4</ele>
    <time>2026-06-23T05:32:47Z</time>
   </trkpt>
   <trkpt lat="-3.0780930" lon="37.3626520">
    <ele>5738.4</ele>
    <time>2026-06-23T05:32:48Z</time>
   </trkpt>
   <trkpt lat="-3.0780930" lon="37.3626520">
    <ele>5738.4</ele>
    <time>2026-06-23T05:32:49Z</time>
   </trkpt>
   <trkpt lat="-3.0780920" lon="37.3626520">
    <ele>5738.4</ele>
    <time>2026-06-23T05:32:50Z</time>
   </trkpt>
   <trkpt lat="-3.0780920" lon="37.3626510">
    <ele>5738.4</ele>
    <time>2026-06-23T05:32:51Z</time>
   </trkpt>
   <trkpt lat="-3.0780930" lon="37.3626510">
    <ele>5738.4</ele>
    <time>2026-06-23T05:32:52Z</time>
   </trkpt>
   <trkpt lat="-3.0780940" lon="37.3626510">
    <ele>5738.4</ele>
    <time>2026-06-23T05:32:53Z</time>
   </trkpt>
   <trkpt lat="-3.0780950" lon="37.3626510">
    <ele>5738.4</ele>
    <time>2026-06-23T05:32:54Z</time>
   </trkpt>
   <trkpt lat="-3.0780960" lon="37.3626510">
    <ele>5738.4</ele>
    <time>2026-06-23T05:32:55Z</time>
   </trkpt>
   <trkpt lat="-3.0780970" lon="37.3626500">
    <ele>5738.4</ele>
    <time>2026-06-23T05:32:56Z</time>
   </trkpt>
   <trkpt lat="-3.0780960" lon="37.3626510">
    <ele>5738.4</ele>
    <time>2026-06-23T05:32:57Z</time>
   </trkpt>
   <trkpt lat="-3.0780950" lon="37.3626500">
    <ele>5738.4</ele>
    <time>2026-06-23T05:32:58Z</time>
   </trkpt>
   <trkpt lat="-3.0780950" lon="37.3626500">
    <ele>5738.4</ele>
    <time>2026-06-23T05:32:59Z</time>
   </trkpt>
   <trkpt lat="-3.0780950" lon="37.3626500">
    <ele>5738.4</ele>
    <time>2026-06-23T05:33:00Z</time>
   </trkpt>
   <trkpt lat="-3.0780950" lon="37.3626500">
    <ele>5738.4</ele>
    <time>2026-06-23T05:33:01Z</time>
   </trkpt>
   <trkpt lat="-3.0780950" lon="37.3626510">
    <ele>5738.4</ele>
    <time>2026-06-23T05:33:02Z</time>
   </trkpt>
   <trkpt lat="-3.0780950" lon="37.3626510">
    <ele>5738.4</ele>
    <time>2026-06-23T05:33:03Z</time>
   </trkpt>
   <trkpt lat="-3.0780950" lon="37.3626510">
    <ele>5738.4</ele>
    <time>2026-06-23T05:33:04Z</time>
   </trkpt>
   <trkpt lat="-3.0780950" lon="37.3626510">
    <ele>5738.4</ele>
    <time>2026-06-23T05:33:05Z</time>
   </trkpt>
   <trkpt lat="-3.0780940" lon="37.3626510">
    <ele>5738.4</ele>
    <time>2026-06-23T05:33:06Z</time>
   </trkpt>
   <trkpt lat="-3.0780940" lon="37.3626500">
    <ele>5738.4</ele>
    <time>2026-06-23T05:33:07Z</time>
   </trkpt>
   <trkpt lat="-3.0780940" lon="37.3626500">
    <ele>5738.4</ele>
    <time>2026-06-23T05:33:08Z</time>
   </trkpt>
   <trkpt lat="-3.0780940" lon="37.3626500">
    <ele>5738.4</ele>
    <time>2026-06-23T05:33:09Z</time>
   </trkpt>
   <trkpt lat="-3.0780940" lon="37.3626500">
    <ele>5738.4</ele>
    <time>2026-06-23T05:33:10Z</time>
   </trkpt>
   <trkpt lat="-3.0780940" lon="37.3626500">
    <ele>5738.4</ele>
    <time>2026-06-23T05:33:11Z</time>
   </trkpt>
   <trkpt lat="-3.0780940" lon="37.3626500">
    <ele>5738.4</ele>
    <time>2026-06-23T05:33:12Z</time>
   </trkpt>
   <trkpt lat="-3.0780940" lon="37.3626500">
    <ele>5738.4</ele>
    <time>2026-06-23T05:33:13Z</time>
   </trkpt>
   <trkpt lat="-3.0780940" lon="37.3626500">
    <ele>5738.4</ele>
    <time>2026-06-23T05:33:14Z</time>
   </trkpt>
   <trkpt lat="-3.0780940" lon="37.3626500">
    <ele>5738.4</ele>
    <time>2026-06-23T05:33:15Z</time>
   </trkpt>
   <trkpt lat="-3.0780930" lon="37.3626500">
    <ele>5738.4</ele>
    <time>2026-06-23T05:33:16Z</time>
   </trkpt>
   <trkpt lat="-3.0780930" lon="37.3626500">
    <ele>5738.4</ele>
    <time>2026-06-23T05:33:17Z</time>
   </trkpt>
   <trkpt lat="-3.0780930" lon="37.3626500">
    <ele>5738.4</ele>
    <time>2026-06-23T05:33:18Z</time>
   </trkpt>
   <trkpt lat="-3.0780910" lon="37.3626500">
    <ele>5738.3</ele>
    <time>2026-06-23T05:33:19Z</time>
   </trkpt>
   <trkpt lat="-3.0780920" lon="37.3626500">
    <ele>5738.3</ele>
    <time>2026-06-23T05:33:20Z</time>
   </trkpt>
   <trkpt lat="-3.0780910" lon="37.3626500">
    <ele>5738.3</ele>
    <time>2026-06-23T05:33:21Z</time>
   </trkpt>
   <trkpt lat="-3.0780900" lon="37.3626500">
    <ele>5738.3</ele>
    <time>2026-06-23T05:33:22Z</time>
   </trkpt>
   <trkpt lat="-3.0780900" lon="37.3626500">
    <ele>5738.3</ele>
    <time>2026-06-23T05:33:23Z</time>
   </trkpt>
   <trkpt lat="-3.0780900" lon="37.3626500">
    <ele>5738.3</ele>
    <time>2026-06-23T05:33:24Z</time>
   </trkpt>
   <trkpt lat="-3.0780900" lon="37.3626500">
    <ele>5738.3</ele>
    <time>2026-06-23T05:33:25Z</time>
   </trkpt>
   <trkpt lat="-3.0780900" lon="37.3626500">
    <ele>5738.3</ele>
    <time>2026-06-23T05:33:26Z</time>
   </trkpt>
   <trkpt lat="-3.0780890" lon="37.3626500">
    <ele>5738.3</ele>
    <time>2026-06-23T05:33:27Z</time>
   </trkpt>
   <trkpt lat="-3.0780890" lon="37.3626500">
    <ele>5738.3</ele>
    <time>2026-06-23T05:33:28Z</time>
   </trkpt>
   <trkpt lat="-3.0780880" lon="37.3626500">
    <ele>5738.3</ele>
    <time>2026-06-23T05:33:29Z</time>
   </trkpt>
   <trkpt lat="-3.0780880" lon="37.3626500">
    <ele>5738.3</ele>
    <time>2026-06-23T05:33:30Z</time>
   </trkpt>
   <trkpt lat="-3.0780880" lon="37.3626500">
    <ele>5738.3</ele>
    <time>2026-06-23T05:33:31Z</time>
   </trkpt>
   <trkpt lat="-3.0780880" lon="37.3626500">
    <ele>5738.3</ele>
    <time>2026-06-23T05:33:32Z</time>
   </trkpt>
   <trkpt lat="-3.0780880" lon="37.3626500">
    <ele>5738.3</ele>
    <time>2026-06-23T05:33:33Z</time>
   </trkpt>
   <trkpt lat="-3.0780880" lon="37.3626500">
    <ele>5738.3</ele>
    <time>2026-06-23T05:33:34Z</time>
   </trkpt>
   <trkpt lat="-3.0780880" lon="37.3626510">
    <ele>5738.3</ele>
    <time>2026-06-23T05:33:35Z</time>
   </trkpt>
   <trkpt lat="-3.0780880" lon="37.3626510">
    <ele>5738.3</ele>
    <time>2026-06-23T05:33:36Z</time>
   </trkpt>
   <trkpt lat="-3.0780870" lon="37.3626510">
    <ele>5738.3</ele>
    <time>2026-06-23T05:33:37Z</time>
   </trkpt>
   <trkpt lat="-3.0780870" lon="37.3626510">
    <ele>5738.3</ele>
    <time>2026-06-23T05:33:39Z</time>
   </trkpt>
   <trkpt lat="-3.0780870" lon="37.3626510">
    <ele>5738.3</ele>
    <time>2026-06-23T05:33:40Z</time>
   </trkpt>
   <trkpt lat="-3.0780870" lon="37.3626510">
    <ele>5738.3</ele>
    <time>2026-06-23T05:33:41Z</time>
   </trkpt>
   <trkpt lat="-3.0780870" lon="37.3626510">
    <ele>5738.3</ele>
    <time>2026-06-23T05:33:42Z</time>
   </trkpt>
   <trkpt lat="-3.0780870" lon="37.3626500">
    <ele>5738.3</ele>
    <time>2026-06-23T05:33:43Z</time>
   </trkpt>
   <trkpt lat="-3.0780870" lon="37.3626510">
    <ele>5738.3</ele>
    <time>2026-06-23T05:33:44Z</time>
   </trkpt>
   <trkpt lat="-3.0780870" lon="37.3626500">
    <ele>5738.3</ele>
    <time>2026-06-23T05:33:45Z</time>
   </trkpt>
   <trkpt lat="-3.0780870" lon="37.3626510">
    <ele>5738.3</ele>
    <time>2026-06-23T05:33:46Z</time>
   </trkpt>
   <trkpt lat="-3.0780870" lon="37.3626510">
    <ele>5738.3</ele>
    <time>2026-06-23T05:33:47Z</time>
   </trkpt>
   <trkpt lat="-3.0780870" lon="37.3626500">
    <ele>5738.3</ele>
    <time>2026-06-23T05:33:48Z</time>
   </trkpt>
   <trkpt lat="-3.0780870" lon="37.3626500">
    <ele>5738.3</ele>
    <time>2026-06-23T05:33:49Z</time>
   </trkpt>
   <trkpt lat="-3.0780870" lon="37.3626510">
    <ele>5738.3</ele>
    <time>2026-06-23T05:33:50Z</time>
   </trkpt>
   <trkpt lat="-3.0780870" lon="37.3626500">
    <ele>5738.3</ele>
    <time>2026-06-23T05:33:51Z</time>
   </trkpt>
   <trkpt lat="-3.0780870" lon="37.3626500">
    <ele>5738.3</ele>
    <time>2026-06-23T05:33:52Z</time>
   </trkpt>
   <trkpt lat="-3.0780870" lon="37.3626500">
    <ele>5738.3</ele>
    <time>2026-06-23T05:33:53Z</time>
   </trkpt>
   <trkpt lat="-3.0780870" lon="37.3626500">
    <ele>5738.3</ele>
    <time>2026-06-23T05:33:54Z</time>
   </trkpt>
   <trkpt lat="-3.0780870" lon="37.3626500">
    <ele>5738.3</ele>
    <time>2026-06-23T05:33:55Z</time>
   </trkpt>
   <trkpt lat="-3.0780870" lon="37.3626500">
    <ele>5738.3</ele>
    <time>2026-06-23T05:33:56Z</time>
   </trkpt>
   <trkpt lat="-3.0780870" lon="37.3626500">
    <ele>5738.3</ele>
    <time>2026-06-23T05:33:57Z</time>
   </trkpt>
   <trkpt lat="-3.0780860" lon="37.3626510">
    <ele>5738.3</ele>
    <time>2026-06-23T05:33:58Z</time>
   </trkpt>
   <trkpt lat="-3.0780860" lon="37.3626500">
    <ele>5738.2</ele>
    <time>2026-06-23T05:33:59Z</time>
   </trkpt>
   <trkpt lat="-3.0780860" lon="37.3626500">
    <ele>5738.2</ele>
    <time>2026-06-23T05:34:00Z</time>
   </trkpt>
   <trkpt lat="-3.0780870" lon="37.3626500">
    <ele>5738.2</ele>
    <time>2026-06-23T05:34:01Z</time>
   </trkpt>
   <trkpt lat="-3.0780870" lon="37.3626510">
    <ele>5738.2</ele>
    <time>2026-06-23T05:34:02Z</time>
   </trkpt>
   <trkpt lat="-3.0780870" lon="37.3626520">
    <ele>5738.2</ele>
    <time>2026-06-23T05:34:03Z</time>
   </trkpt>
   <trkpt lat="-3.0780870" lon="37.3626510">
    <ele>5738.2</ele>
    <time>2026-06-23T05:34:04Z</time>
   </trkpt>
   <trkpt lat="-3.0780870" lon="37.3626510">
    <ele>5738.2</ele>
    <time>2026-06-23T05:34:05Z</time>
   </trkpt>
   <trkpt lat="-3.0780860" lon="37.3626500">
    <ele>5738.2</ele>
    <time>2026-06-23T05:34:06Z</time>
   </trkpt>
   <trkpt lat="-3.0780860" lon="37.3626500">
    <ele>5738.2</ele>
    <time>2026-06-23T05:34:07Z</time>
   </trkpt>
   <trkpt lat="-3.0780860" lon="37.3626500">
    <ele>5738.2</ele>
    <time>2026-06-23T05:34:08Z</time>
   </trkpt>
   <trkpt lat="-3.0780860" lon="37.3626500">
    <ele>5738.2</ele>
    <time>2026-06-23T05:34:09Z</time>
   </trkpt>
   <trkpt lat="-3.0780870" lon="37.3626510">
    <ele>5738.2</ele>
    <time>2026-06-23T05:34:10Z</time>
   </trkpt>
   <trkpt lat="-3.0780880" lon="37.3626510">
    <ele>5738.2</ele>
    <time>2026-06-23T05:34:11Z</time>
   </trkpt>
   <trkpt lat="-3.0780880" lon="37.3626510">
    <ele>5738.2</ele>
    <time>2026-06-23T05:34:12Z</time>
   </trkpt>
   <trkpt lat="-3.0780880" lon="37.3626510">
    <ele>5738.2</ele>
    <time>2026-06-23T05:34:13Z</time>
   </trkpt>
   <trkpt lat="-3.0780880" lon="37.3626520">
    <ele>5738.2</ele>
    <time>2026-06-23T05:34:14Z</time>
   </trkpt>
   <trkpt lat="-3.0780880" lon="37.3626510">
    <ele>5738.2</ele>
    <time>2026-06-23T05:34:15Z</time>
   </trkpt>
   <trkpt lat="-3.0780880" lon="37.3626520">
    <ele>5738.2</ele>
    <time>2026-06-23T05:34:16Z</time>
   </trkpt>
   <trkpt lat="-3.0780890" lon="37.3626540">
    <ele>5738.2</ele>
    <time>2026-06-23T05:34:17Z</time>
   </trkpt>
   <trkpt lat="-3.0780890" lon="37.3626550">
    <ele>5738.2</ele>
    <time>2026-06-23T05:34:18Z</time>
   </trkpt>
   <trkpt lat="-3.0780870" lon="37.3626590">
    <ele>5738.1</ele>
    <time>2026-06-23T05:34:19Z</time>
   </trkpt>
   <trkpt lat="-3.0780850" lon="37.3626600">
    <ele>5738.1</ele>
    <time>2026-06-23T05:34:20Z</time>
   </trkpt>
   <trkpt lat="-3.0780860" lon="37.3626590">
    <ele>5738.1</ele>
    <time>2026-06-23T05:34:21Z</time>
   </trkpt>
   <trkpt lat="-3.0780850" lon="37.3626600">
    <ele>5738.1</ele>
    <time>2026-06-23T05:34:22Z</time>
   </trkpt>
   <trkpt lat="-3.0780860" lon="37.3626590">
    <ele>5738.1</ele>
    <time>2026-06-23T05:34:23Z</time>
   </trkpt>
   <trkpt lat="-3.0780870" lon="37.3626600">
    <ele>5738.1</ele>
    <time>2026-06-23T05:34:24Z</time>
   </trkpt>
   <trkpt lat="-3.0780880" lon="37.3626580">
    <ele>5738.1</ele>
    <time>2026-06-23T05:34:25Z</time>
   </trkpt>
   <trkpt lat="-3.0780860" lon="37.3626580">
    <ele>5738.1</ele>
    <time>2026-06-23T05:34:26Z</time>
   </trkpt>
   <trkpt lat="-3.0780860" lon="37.3626580">
    <ele>5738.1</ele>
    <time>2026-06-23T05:34:27Z</time>
   </trkpt>
   <trkpt lat="-3.0780860" lon="37.3626580">
    <ele>5738.1</ele>
    <time>2026-06-23T05:34:28Z</time>
   </trkpt>
   <trkpt lat="-3.0780850" lon="37.3626580">
    <ele>5738.1</ele>
    <time>2026-06-23T05:34:29Z</time>
   </trkpt>
   <trkpt lat="-3.0780860" lon="37.3626580">
    <ele>5738.1</ele>
    <time>2026-06-23T05:34:30Z</time>
   </trkpt>
   <trkpt lat="-3.0780840" lon="37.3626570">
    <ele>5738.0</ele>
    <time>2026-06-23T05:34:31Z</time>
   </trkpt>
   <trkpt lat="-3.0780810" lon="37.3626590">
    <ele>5738.0</ele>
    <time>2026-06-23T05:34:32Z</time>
   </trkpt>
   <trkpt lat="-3.0780760" lon="37.3626600">
    <ele>5738.0</ele>
    <time>2026-06-23T05:34:33Z</time>
   </trkpt>
   <trkpt lat="-3.0780760" lon="37.3626590">
    <ele>5738.0</ele>
    <time>2026-06-23T05:34:34Z</time>
   </trkpt>
   <trkpt lat="-3.0780750" lon="37.3626560">
    <ele>5738.0</ele>
    <time>2026-06-23T05:34:35Z</time>
   </trkpt>
   <trkpt lat="-3.0780760" lon="37.3626580">
    <ele>5738.0</ele>
    <time>2026-06-23T05:34:36Z</time>
   </trkpt>
   <trkpt lat="-3.0780760" lon="37.3626560">
    <ele>5737.9</ele>
    <time>2026-06-23T05:34:37Z</time>
   </trkpt>
   <trkpt lat="-3.0780760" lon="37.3626570">
    <ele>5737.9</ele>
    <time>2026-06-23T05:34:38Z</time>
   </trkpt>
   <trkpt lat="-3.0780760" lon="37.3626570">
    <ele>5737.9</ele>
    <time>2026-06-23T05:34:39Z</time>
   </trkpt>
   <trkpt lat="-3.0780760" lon="37.3626570">
    <ele>5737.9</ele>
    <time>2026-06-23T05:34:40Z</time>
   </trkpt>
   <trkpt lat="-3.0780760" lon="37.3626570">
    <ele>5737.9</ele>
    <time>2026-06-23T05:34:41Z</time>
   </trkpt>
   <trkpt lat="-3.0780760" lon="37.3626560">
    <ele>5737.9</ele>
    <time>2026-06-23T05:34:42Z</time>
   </trkpt>
   <trkpt lat="-3.0780760" lon="37.3626570">
    <ele>5737.9</ele>
    <time>2026-06-23T05:34:43Z</time>
   </trkpt>
   <trkpt lat="-3.0780760" lon="37.3626570">
    <ele>5737.9</ele>
    <time>2026-06-23T05:34:44Z</time>
   </trkpt>
   <trkpt lat="-3.0780760" lon="37.3626570">
    <ele>5737.9</ele>
    <time>2026-06-23T05:34:45Z</time>
   </trkpt>
   <trkpt lat="-3.0780770" lon="37.3626570">
    <ele>5737.9</ele>
    <time>2026-06-23T05:34:46Z</time>
   </trkpt>
   <trkpt lat="-3.0780770" lon="37.3626570">
    <ele>5737.9</ele>
    <time>2026-06-23T05:34:47Z</time>
   </trkpt>
   <trkpt lat="-3.0780780" lon="37.3626560">
    <ele>5737.9</ele>
    <time>2026-06-23T05:34:48Z</time>
   </trkpt>
   <trkpt lat="-3.0780790" lon="37.3626570">
    <ele>5737.9</ele>
    <time>2026-06-23T05:34:49Z</time>
   </trkpt>
   <trkpt lat="-3.0780790" lon="37.3626570">
    <ele>5737.9</ele>
    <time>2026-06-23T05:34:50Z</time>
   </trkpt>
   <trkpt lat="-3.0780790" lon="37.3626550">
    <ele>5737.9</ele>
    <time>2026-06-23T05:34:51Z</time>
   </trkpt>
   <trkpt lat="-3.0780780" lon="37.3626580">
    <ele>5737.9</ele>
    <time>2026-06-23T05:34:52Z</time>
   </trkpt>
   <trkpt lat="-3.0780790" lon="37.3626550">
    <ele>5737.9</ele>
    <time>2026-06-23T05:34:53Z</time>
   </trkpt>
   <trkpt lat="-3.0780790" lon="37.3626550">
    <ele>5737.9</ele>
    <time>2026-06-23T05:34:54Z</time>
   </trkpt>
   <trkpt lat="-3.0780800" lon="37.3626560">
    <ele>5737.9</ele>
    <time>2026-06-23T05:34:55Z</time>
   </trkpt>
   <trkpt lat="-3.0780800" lon="37.3626560">
    <ele>5737.9</ele>
    <time>2026-06-23T05:34:56Z</time>
   </trkpt>
   <trkpt lat="-3.0780800" lon="37.3626550">
    <ele>5737.8</ele>
    <time>2026-06-23T05:34:57Z</time>
   </trkpt>
   <trkpt lat="-3.0780800" lon="37.3626550">
    <ele>5737.8</ele>
    <time>2026-06-23T05:34:58Z</time>
   </trkpt>
   <trkpt lat="-3.0780800" lon="37.3626550">
    <ele>5737.8</ele>
    <time>2026-06-23T05:34:59Z</time>
   </trkpt>
   <trkpt lat="-3.0780800" lon="37.3626560">
    <ele>5737.8</ele>
    <time>2026-06-23T05:35:00Z</time>
   </trkpt>
   <trkpt lat="-3.0780800" lon="37.3626560">
    <ele>5737.8</ele>
    <time>2026-06-23T05:35:01Z</time>
   </trkpt>
   <trkpt lat="-3.0780800" lon="37.3626550">
    <ele>5737.8</ele>
    <time>2026-06-23T05:35:02Z</time>
   </trkpt>
   <trkpt lat="-3.0780800" lon="37.3626570">
    <ele>5737.8</ele>
    <time>2026-06-23T05:35:03Z</time>
   </trkpt>
   <trkpt lat="-3.0780800" lon="37.3626560">
    <ele>5737.8</ele>
    <time>2026-06-23T05:35:04Z</time>
   </trkpt>
   <trkpt lat="-3.0780800" lon="37.3626560">
    <ele>5737.8</ele>
    <time>2026-06-23T05:35:05Z</time>
   </trkpt>
   <trkpt lat="-3.0780800" lon="37.3626570">
    <ele>5737.8</ele>
    <time>2026-06-23T05:35:06Z</time>
   </trkpt>
   <trkpt lat="-3.0780800" lon="37.3626570">
    <ele>5737.8</ele>
    <time>2026-06-23T05:35:07Z</time>
   </trkpt>
   <trkpt lat="-3.0780800" lon="37.3626580">
    <ele>5737.8</ele>
    <time>2026-06-23T05:35:08Z</time>
   </trkpt>
   <trkpt lat="-3.0780800" lon="37.3626570">
    <ele>5737.8</ele>
    <time>2026-06-23T05:35:09Z</time>
   </trkpt>
   <trkpt lat="-3.0780800" lon="37.3626580">
    <ele>5737.8</ele>
    <time>2026-06-23T05:35:10Z</time>
   </trkpt>
   <trkpt lat="-3.0780800" lon="37.3626580">
    <ele>5737.8</ele>
    <time>2026-06-23T05:35:11Z</time>
   </trkpt>
   <trkpt lat="-3.0780790" lon="37.3626580">
    <ele>5737.8</ele>
    <time>2026-06-23T05:35:12Z</time>
   </trkpt>
   <trkpt lat="-3.0780800" lon="37.3626590">
    <ele>5737.8</ele>
    <time>2026-06-23T05:35:13Z</time>
   </trkpt>
   <trkpt lat="-3.0780800" lon="37.3626590">
    <ele>5737.8</ele>
    <time>2026-06-23T05:35:14Z</time>
   </trkpt>
   <trkpt lat="-3.0780800" lon="37.3626590">
    <ele>5737.8</ele>
    <time>2026-06-23T05:35:15Z</time>
   </trkpt>
   <trkpt lat="-3.0780790" lon="37.3626590">
    <ele>5737.8</ele>
    <time>2026-06-23T05:35:16Z</time>
   </trkpt>
   <trkpt lat="-3.0780790" lon="37.3626590">
    <ele>5737.8</ele>
    <time>2026-06-23T05:35:17Z</time>
   </trkpt>
   <trkpt lat="-3.0780800" lon="37.3626600">
    <ele>5737.8</ele>
    <time>2026-06-23T05:35:18Z</time>
   </trkpt>
   <trkpt lat="-3.0780800" lon="37.3626590">
    <ele>5737.8</ele>
    <time>2026-06-23T05:35:19Z</time>
   </trkpt>
   <trkpt lat="-3.0780810" lon="37.3626600">
    <ele>5737.8</ele>
    <time>2026-06-23T05:35:20Z</time>
   </trkpt>
   <trkpt lat="-3.0780810" lon="37.3626590">
    <ele>5737.8</ele>
    <time>2026-06-23T05:35:21Z</time>
   </trkpt>
   <trkpt lat="-3.0780800" lon="37.3626600">
    <ele>5737.7</ele>
    <time>2026-06-23T05:35:22Z</time>
   </trkpt>
   <trkpt lat="-3.0780800" lon="37.3626600">
    <ele>5737.7</ele>
    <time>2026-06-23T05:35:23Z</time>
   </trkpt>
   <trkpt lat="-3.0780800" lon="37.3626600">
    <ele>5737.7</ele>
    <time>2026-06-23T05:35:24Z</time>
   </trkpt>
   <trkpt lat="-3.0780800" lon="37.3626600">
    <ele>5737.7</ele>
    <time>2026-06-23T05:35:25Z</time>
   </trkpt>
   <trkpt lat="-3.0780800" lon="37.3626600">
    <ele>5737.7</ele>
    <time>2026-06-23T05:35:26Z</time>
   </trkpt>
   <trkpt lat="-3.0780790" lon="37.3626600">
    <ele>5737.7</ele>
    <time>2026-06-23T05:35:27Z</time>
   </trkpt>
   <trkpt lat="-3.0780790" lon="37.3626590">
    <ele>5737.7</ele>
    <time>2026-06-23T05:35:28Z</time>
   </trkpt>
   <trkpt lat="-3.0780790" lon="37.3626600">
    <ele>5737.7</ele>
    <time>2026-06-23T05:35:29Z</time>
   </trkpt>
   <trkpt lat="-3.0780790" lon="37.3626610">
    <ele>5737.7</ele>
    <time>2026-06-23T05:35:30Z</time>
   </trkpt>
   <trkpt lat="-3.0780800" lon="37.3626600">
    <ele>5737.7</ele>
    <time>2026-06-23T05:35:31Z</time>
   </trkpt>
   <trkpt lat="-3.0780790" lon="37.3626600">
    <ele>5737.7</ele>
    <time>2026-06-23T05:35:32Z</time>
   </trkpt>
   <trkpt lat="-3.0780790" lon="37.3626600">
    <ele>5737.7</ele>
    <time>2026-06-23T05:35:33Z</time>
   </trkpt>
   <trkpt lat="-3.0780790" lon="37.3626600">
    <ele>5737.7</ele>
    <time>2026-06-23T05:35:34Z</time>
   </trkpt>
   <trkpt lat="-3.0780800" lon="37.3626610">
    <ele>5737.7</ele>
    <time>2026-06-23T05:35:35Z</time>
   </trkpt>
   <trkpt lat="-3.0780800" lon="37.3626600">
    <ele>5737.7</ele>
    <time>2026-06-23T05:35:36Z</time>
   </trkpt>
   <trkpt lat="-3.0780800" lon="37.3626590">
    <ele>5737.7</ele>
    <time>2026-06-23T05:35:37Z</time>
   </trkpt>
   <trkpt lat="-3.0780800" lon="37.3626610">
    <ele>5737.7</ele>
    <time>2026-06-23T05:35:38Z</time>
   </trkpt>
   <trkpt lat="-3.0780790" lon="37.3626610">
    <ele>5737.7</ele>
    <time>2026-06-23T05:35:39Z</time>
   </trkpt>
   <trkpt lat="-3.0780790" lon="37.3626600">
    <ele>5737.7</ele>
    <time>2026-06-23T05:35:40Z</time>
   </trkpt>
   <trkpt lat="-3.0780800" lon="37.3626600">
    <ele>5737.7</ele>
    <time>2026-06-23T05:35:41Z</time>
   </trkpt>
   <trkpt lat="-3.0780800" lon="37.3626600">
    <ele>5737.7</ele>
    <time>2026-06-23T05:35:42Z</time>
   </trkpt>
   <trkpt lat="-3.0780800" lon="37.3626600">
    <ele>5737.7</ele>
    <time>2026-06-23T05:35:44Z</time>
   </trkpt>
   <trkpt lat="-3.0780800" lon="37.3626590">
    <ele>5737.7</ele>
    <time>2026-06-23T05:35:45Z</time>
   </trkpt>
   <trkpt lat="-3.0780800" lon="37.3626600">
    <ele>5737.6</ele>
    <time>2026-06-23T05:35:46Z</time>
   </trkpt>
   <trkpt lat="-3.0780800" lon="37.3626600">
    <ele>5737.6</ele>
    <time>2026-06-23T05:35:47Z</time>
   </trkpt>
   <trkpt lat="-3.0780800" lon="37.3626600">
    <ele>5737.6</ele>
    <time>2026-06-23T05:35:48Z</time>
   </trkpt>
   <trkpt lat="-3.0780800" lon="37.3626590">
    <ele>5737.6</ele>
    <time>2026-06-23T05:35:49Z</time>
   </trkpt>
   <trkpt lat="-3.0780800" lon="37.3626600">
    <ele>5737.6</ele>
    <time>2026-06-23T05:35:50Z</time>
   </trkpt>
   <trkpt lat="-3.0780800" lon="37.3626610">
    <ele>5737.6</ele>
    <time>2026-06-23T05:35:51Z</time>
   </trkpt>
   <trkpt lat="-3.0780800" lon="37.3626600">
    <ele>5737.6</ele>
    <time>2026-06-23T05:35:52Z</time>
   </trkpt>
   <trkpt lat="-3.0780810" lon="37.3626590">
    <ele>5737.6</ele>
    <time>2026-06-23T05:35:53Z</time>
   </trkpt>
   <trkpt lat="-3.0780810" lon="37.3626590">
    <ele>5737.6</ele>
    <time>2026-06-23T05:35:54Z</time>
   </trkpt>
   <trkpt lat="-3.0780800" lon="37.3626600">
    <ele>5737.6</ele>
    <time>2026-06-23T05:35:55Z</time>
   </trkpt>
   <trkpt lat="-3.0780800" lon="37.3626600">
    <ele>5737.6</ele>
    <time>2026-06-23T05:35:56Z</time>
   </trkpt>
   <trkpt lat="-3.0780800" lon="37.3626600">
    <ele>5737.6</ele>
    <time>2026-06-23T05:35:57Z</time>
   </trkpt>
   <trkpt lat="-3.0780800" lon="37.3626600">
    <ele>5737.6</ele>
    <time>2026-06-23T05:35:58Z</time>
   </trkpt>
   <trkpt lat="-3.0780800" lon="37.3626600">
    <ele>5737.6</ele>
    <time>2026-06-23T05:35:59Z</time>
   </trkpt>
   <trkpt lat="-3.0780800" lon="37.3626600">
    <ele>5737.6</ele>
    <time>2026-06-23T05:36:00Z</time>
   </trkpt>
   <trkpt lat="-3.0780800" lon="37.3626600">
    <ele>5737.6</ele>
    <time>2026-06-23T05:36:01Z</time>
   </trkpt>
   <trkpt lat="-3.0780800" lon="37.3626600">
    <ele>5737.6</ele>
    <time>2026-06-23T05:36:02Z</time>
   </trkpt>
   <trkpt lat="-3.0780800" lon="37.3626590">
    <ele>5737.6</ele>
    <time>2026-06-23T05:36:03Z</time>
   </trkpt>
   <trkpt lat="-3.0780810" lon="37.3626590">
    <ele>5737.6</ele>
    <time>2026-06-23T05:36:04Z</time>
   </trkpt>
   <trkpt lat="-3.0780820" lon="37.3626580">
    <ele>5737.6</ele>
    <time>2026-06-23T05:36:05Z</time>
   </trkpt>
   <trkpt lat="-3.0780830" lon="37.3626560">
    <ele>5737.6</ele>
    <time>2026-06-23T05:36:06Z</time>
   </trkpt>
   <trkpt lat="-3.0780830" lon="37.3626550">
    <ele>5737.6</ele>
    <time>2026-06-23T05:36:07Z</time>
   </trkpt>
   <trkpt lat="-3.0780840" lon="37.3626570">
    <ele>5737.6</ele>
    <time>2026-06-23T05:36:08Z</time>
   </trkpt>
   <trkpt lat="-3.0780830" lon="37.3626570">
    <ele>5737.5</ele>
    <time>2026-06-23T05:36:09Z</time>
   </trkpt>
   <trkpt lat="-3.0780830" lon="37.3626560">
    <ele>5737.5</ele>
    <time>2026-06-23T05:36:10Z</time>
   </trkpt>
   <trkpt lat="-3.0780820" lon="37.3626570">
    <ele>5737.5</ele>
    <time>2026-06-23T05:36:11Z</time>
   </trkpt>
   <trkpt lat="-3.0780830" lon="37.3626560">
    <ele>5737.5</ele>
    <time>2026-06-23T05:36:12Z</time>
   </trkpt>
   <trkpt lat="-3.0780830" lon="37.3626560">
    <ele>5737.5</ele>
    <time>2026-06-23T05:36:13Z</time>
   </trkpt>
   <trkpt lat="-3.0780800" lon="37.3626560">
    <ele>5737.5</ele>
    <time>2026-06-23T05:36:14Z</time>
   </trkpt>
   <trkpt lat="-3.0780810" lon="37.3626570">
    <ele>5737.5</ele>
    <time>2026-06-23T05:36:15Z</time>
   </trkpt>
   <trkpt lat="-3.0780800" lon="37.3626560">
    <ele>5737.5</ele>
    <time>2026-06-23T05:36:16Z</time>
   </trkpt>
   <trkpt lat="-3.0780800" lon="37.3626550">
    <ele>5737.5</ele>
    <time>2026-06-23T05:36:17Z</time>
   </trkpt>
   <trkpt lat="-3.0780790" lon="37.3626580">
    <ele>5737.5</ele>
    <time>2026-06-23T05:36:18Z</time>
   </trkpt>
   <trkpt lat="-3.0780810" lon="37.3626590">
    <ele>5737.4</ele>
    <time>2026-06-23T05:36:19Z</time>
   </trkpt>
   <trkpt lat="-3.0780810" lon="37.3626590">
    <ele>5737.4</ele>
    <time>2026-06-23T05:36:20Z</time>
   </trkpt>
   <trkpt lat="-3.0780810" lon="37.3626580">
    <ele>5737.4</ele>
    <time>2026-06-23T05:36:21Z</time>
   </trkpt>
   <trkpt lat="-3.0780810" lon="37.3626590">
    <ele>5737.4</ele>
    <time>2026-06-23T05:36:22Z</time>
   </trkpt>
   <trkpt lat="-3.0780820" lon="37.3626580">
    <ele>5737.4</ele>
    <time>2026-06-23T05:36:23Z</time>
   </trkpt>
   <trkpt lat="-3.0780820" lon="37.3626580">
    <ele>5737.4</ele>
    <time>2026-06-23T05:36:24Z</time>
   </trkpt>
   <trkpt lat="-3.0780800" lon="37.3626610">
    <ele>5737.4</ele>
    <time>2026-06-23T05:36:25Z</time>
   </trkpt>
   <trkpt lat="-3.0780810" lon="37.3626600">
    <ele>5737.4</ele>
    <time>2026-06-23T05:36:26Z</time>
   </trkpt>
   <trkpt lat="-3.0780800" lon="37.3626600">
    <ele>5737.4</ele>
    <time>2026-06-23T05:36:27Z</time>
   </trkpt>
   <trkpt lat="-3.0780800" lon="37.3626600">
    <ele>5737.4</ele>
    <time>2026-06-23T05:36:28Z</time>
   </trkpt>
   <trkpt lat="-3.0780800" lon="37.3626580">
    <ele>5737.4</ele>
    <time>2026-06-23T05:36:29Z</time>
   </trkpt>
   <trkpt lat="-3.0780790" lon="37.3626590">
    <ele>5737.4</ele>
    <time>2026-06-23T05:36:30Z</time>
   </trkpt>
   <trkpt lat="-3.0780790" lon="37.3626590">
    <ele>5737.4</ele>
    <time>2026-06-23T05:36:31Z</time>
   </trkpt>
   <trkpt lat="-3.0780790" lon="37.3626590">
    <ele>5737.4</ele>
    <time>2026-06-23T05:36:32Z</time>
   </trkpt>
   <trkpt lat="-3.0780790" lon="37.3626600">
    <ele>5737.4</ele>
    <time>2026-06-23T05:36:33Z</time>
   </trkpt>
   <trkpt lat="-3.0780790" lon="37.3626590">
    <ele>5737.4</ele>
    <time>2026-06-23T05:36:34Z</time>
   </trkpt>
   <trkpt lat="-3.0780810" lon="37.3626610">
    <ele>5737.3</ele>
    <time>2026-06-23T05:36:35Z</time>
   </trkpt>
   <trkpt lat="-3.0780800" lon="37.3626600">
    <ele>5737.3</ele>
    <time>2026-06-23T05:36:36Z</time>
   </trkpt>
   <trkpt lat="-3.0780800" lon="37.3626590">
    <ele>5737.3</ele>
    <time>2026-06-23T05:36:37Z</time>
   </trkpt>
   <trkpt lat="-3.0780790" lon="37.3626600">
    <ele>5737.3</ele>
    <time>2026-06-23T05:36:38Z</time>
   </trkpt>
   <trkpt lat="-3.0780800" lon="37.3626610">
    <ele>5737.3</ele>
    <time>2026-06-23T05:36:39Z</time>
   </trkpt>
   <trkpt lat="-3.0780790" lon="37.3626610">
    <ele>5737.3</ele>
    <time>2026-06-23T05:36:40Z</time>
   </trkpt>
   <trkpt lat="-3.0780780" lon="37.3626610">
    <ele>5737.3</ele>
    <time>2026-06-23T05:36:41Z</time>
   </trkpt>
   <trkpt lat="-3.0780780" lon="37.3626610">
    <ele>5737.3</ele>
    <time>2026-06-23T05:36:42Z</time>
   </trkpt>
   <trkpt lat="-3.0780790" lon="37.3626610">
    <ele>5737.3</ele>
    <time>2026-06-23T05:36:43Z</time>
   </trkpt>
   <trkpt lat="-3.0780780" lon="37.3626600">
    <ele>5737.3</ele>
    <time>2026-06-23T05:36:44Z</time>
   </trkpt>
   <trkpt lat="-3.0780780" lon="37.3626610">
    <ele>5737.3</ele>
    <time>2026-06-23T05:36:45Z</time>
   </trkpt>
   <trkpt lat="-3.0780780" lon="37.3626610">
    <ele>5737.3</ele>
    <time>2026-06-23T05:36:46Z</time>
   </trkpt>
   <trkpt lat="-3.0780780" lon="37.3626600">
    <ele>5737.3</ele>
    <time>2026-06-23T05:36:47Z</time>
   </trkpt>
   <trkpt lat="-3.0780780" lon="37.3626610">
    <ele>5737.3</ele>
    <time>2026-06-23T05:36:48Z</time>
   </trkpt>
   <trkpt lat="-3.0780780" lon="37.3626610">
    <ele>5737.3</ele>
    <time>2026-06-23T05:36:49Z</time>
   </trkpt>
   <trkpt lat="-3.0780780" lon="37.3626610">
    <ele>5737.3</ele>
    <time>2026-06-23T05:36:50Z</time>
   </trkpt>
   <trkpt lat="-3.0780780" lon="37.3626610">
    <ele>5737.3</ele>
    <time>2026-06-23T05:36:51Z</time>
   </trkpt>
   <trkpt lat="-3.0780780" lon="37.3626600">
    <ele>5737.3</ele>
    <time>2026-06-23T05:36:52Z</time>
   </trkpt>
   <trkpt lat="-3.0780780" lon="37.3626610">
    <ele>5737.3</ele>
    <time>2026-06-23T05:36:53Z</time>
   </trkpt>
   <trkpt lat="-3.0780780" lon="37.3626600">
    <ele>5737.2</ele>
    <time>2026-06-23T05:36:54Z</time>
   </trkpt>
   <trkpt lat="-3.0780780" lon="37.3626610">
    <ele>5737.2</ele>
    <time>2026-06-23T05:36:55Z</time>
   </trkpt>
   <trkpt lat="-3.0780780" lon="37.3626600">
    <ele>5737.2</ele>
    <time>2026-06-23T05:36:56Z</time>
   </trkpt>
   <trkpt lat="-3.0780780" lon="37.3626610">
    <ele>5737.2</ele>
    <time>2026-06-23T05:36:57Z</time>
   </trkpt>
   <trkpt lat="-3.0780780" lon="37.3626600">
    <ele>5737.2</ele>
    <time>2026-06-23T05:36:58Z</time>
   </trkpt>
   <trkpt lat="-3.0780780" lon="37.3626610">
    <ele>5737.2</ele>
    <time>2026-06-23T05:36:59Z</time>
   </trkpt>
   <trkpt lat="-3.0780780" lon="37.3626610">
    <ele>5737.2</ele>
    <time>2026-06-23T05:37:00Z</time>
   </trkpt>
   <trkpt lat="-3.0780780" lon="37.3626610">
    <ele>5737.2</ele>
    <time>2026-06-23T05:37:01Z</time>
   </trkpt>
   <trkpt lat="-3.0780770" lon="37.3626610">
    <ele>5737.2</ele>
    <time>2026-06-23T05:37:02Z</time>
   </trkpt>
   <trkpt lat="-3.0780780" lon="37.3626610">
    <ele>5737.2</ele>
    <time>2026-06-23T05:37:03Z</time>
   </trkpt>
   <trkpt lat="-3.0780780" lon="37.3626610">
    <ele>5737.2</ele>
    <time>2026-06-23T05:37:04Z</time>
   </trkpt>
   <trkpt lat="-3.0780780" lon="37.3626610">
    <ele>5737.2</ele>
    <time>2026-06-23T05:37:05Z</time>
   </trkpt>
   <trkpt lat="-3.0780780" lon="37.3626610">
    <ele>5737.2</ele>
    <time>2026-06-23T05:37:06Z</time>
   </trkpt>
   <trkpt lat="-3.0780780" lon="37.3626610">
    <ele>5737.2</ele>
    <time>2026-06-23T05:37:07Z</time>
   </trkpt>
   <trkpt lat="-3.0780780" lon="37.3626610">
    <ele>5737.2</ele>
    <time>2026-06-23T05:37:08Z</time>
   </trkpt>
   <trkpt lat="-3.0780780" lon="37.3626600">
    <ele>5737.2</ele>
    <time>2026-06-23T05:37:09Z</time>
   </trkpt>
   <trkpt lat="-3.0780780" lon="37.3626610">
    <ele>5737.2</ele>
    <time>2026-06-23T05:37:10Z</time>
   </trkpt>
   <trkpt lat="-3.0780790" lon="37.3626610">
    <ele>5737.2</ele>
    <time>2026-06-23T05:37:11Z</time>
   </trkpt>
   <trkpt lat="-3.0780780" lon="37.3626610">
    <ele>5737.2</ele>
    <time>2026-06-23T05:37:12Z</time>
   </trkpt>
   <trkpt lat="-3.0780790" lon="37.3626610">
    <ele>5737.2</ele>
    <time>2026-06-23T05:37:13Z</time>
   </trkpt>
   <trkpt lat="-3.0780790" lon="37.3626600">
    <ele>5737.2</ele>
    <time>2026-06-23T05:37:14Z</time>
   </trkpt>
   <trkpt lat="-3.0780780" lon="37.3626600">
    <ele>5737.2</ele>
    <time>2026-06-23T05:37:15Z</time>
   </trkpt>
   <trkpt lat="-3.0780780" lon="37.3626610">
    <ele>5737.2</ele>
    <time>2026-06-23T05:37:16Z</time>
   </trkpt>
   <trkpt lat="-3.0780790" lon="37.3626610">
    <ele>5737.2</ele>
    <time>2026-06-23T05:37:17Z</time>
   </trkpt>
   <trkpt lat="-3.0780790" lon="37.3626600">
    <ele>5737.1</ele>
    <time>2026-06-23T05:37:18Z</time>
   </trkpt>
   <trkpt lat="-3.0780790" lon="37.3626600">
    <ele>5737.1</ele>
    <time>2026-06-23T05:37:19Z</time>
   </trkpt>
   <trkpt lat="-3.0780790" lon="37.3626600">
    <ele>5737.1</ele>
    <time>2026-06-23T05:37:20Z</time>
   </trkpt>
   <trkpt lat="-3.0780790" lon="37.3626600">
    <ele>5737.1</ele>
    <time>2026-06-23T05:37:21Z</time>
   </trkpt>
   <trkpt lat="-3.0780790" lon="37.3626600">
    <ele>5737.1</ele>
    <time>2026-06-23T05:37:22Z</time>
   </trkpt>
   <trkpt lat="-3.0780780" lon="37.3626600">
    <ele>5737.1</ele>
    <time>2026-06-23T05:37:23Z</time>
   </trkpt>
   <trkpt lat="-3.0780780" lon="37.3626600">
    <ele>5737.1</ele>
    <time>2026-06-23T05:37:24Z</time>
   </trkpt>
   <trkpt lat="-3.0780780" lon="37.3626600">
    <ele>5737.1</ele>
    <time>2026-06-23T05:37:25Z</time>
   </trkpt>
   <trkpt lat="-3.0780780" lon="37.3626600">
    <ele>5737.1</ele>
    <time>2026-06-23T05:37:26Z</time>
   </trkpt>
   <trkpt lat="-3.0780780" lon="37.3626600">
    <ele>5737.1</ele>
    <time>2026-06-23T05:37:27Z</time>
   </trkpt>
   <trkpt lat="-3.0780790" lon="37.3626600">
    <ele>5737.1</ele>
    <time>2026-06-23T05:37:28Z</time>
   </trkpt>
   <trkpt lat="-3.0780780" lon="37.3626600">
    <ele>5737.1</ele>
    <time>2026-06-23T05:37:29Z</time>
   </trkpt>
   <trkpt lat="-3.0780780" lon="37.3626600">
    <ele>5737.1</ele>
    <time>2026-06-23T05:37:30Z</time>
   </trkpt>
   <trkpt lat="-3.0780770" lon="37.3626600">
    <ele>5737.1</ele>
    <time>2026-06-23T05:37:31Z</time>
   </trkpt>
   <trkpt lat="-3.0780770" lon="37.3626610">
    <ele>5737.1</ele>
    <time>2026-06-23T05:37:32Z</time>
   </trkpt>
   <trkpt lat="-3.0780750" lon="37.3626640">
    <ele>5737.1</ele>
    <time>2026-06-23T05:37:33Z</time>
   </trkpt>
   <trkpt lat="-3.0780750" lon="37.3626640">
    <ele>5737.1</ele>
    <time>2026-06-23T05:37:34Z</time>
   </trkpt>
   <trkpt lat="-3.0780720" lon="37.3626650">
    <ele>5737.1</ele>
    <time>2026-06-23T05:37:35Z</time>
   </trkpt>
   <trkpt lat="-3.0780710" lon="37.3626640">
    <ele>5737.1</ele>
    <time>2026-06-23T05:37:36Z</time>
   </trkpt>
   <trkpt lat="-3.0780680" lon="37.3626650">
    <ele>5737.0</ele>
    <time>2026-06-23T05:37:37Z</time>
   </trkpt>
   <trkpt lat="-3.0780660" lon="37.3626680">
    <ele>5737.0</ele>
    <time>2026-06-23T05:37:38Z</time>
   </trkpt>
   <trkpt lat="-3.0780660" lon="37.3626670">
    <ele>5737.0</ele>
    <time>2026-06-23T05:37:39Z</time>
   </trkpt>
   <trkpt lat="-3.0780660" lon="37.3626670">
    <ele>5737.0</ele>
    <time>2026-06-23T05:37:40Z</time>
   </trkpt>
   <trkpt lat="-3.0780690" lon="37.3626660">
    <ele>5737.0</ele>
    <time>2026-06-23T05:37:41Z</time>
   </trkpt>
   <trkpt lat="-3.0780720" lon="37.3626660">
    <ele>5737.0</ele>
    <time>2026-06-23T05:37:42Z</time>
   </trkpt>
   <trkpt lat="-3.0780700" lon="37.3626700">
    <ele>5737.0</ele>
    <time>2026-06-23T05:37:43Z</time>
   </trkpt>
   <trkpt lat="-3.0780730" lon="37.3626730">
    <ele>5736.9</ele>
    <time>2026-06-23T05:37:44Z</time>
   </trkpt>
   <trkpt lat="-3.0780730" lon="37.3626740">
    <ele>5736.9</ele>
    <time>2026-06-23T05:37:45Z</time>
   </trkpt>
   <trkpt lat="-3.0780740" lon="37.3626720">
    <ele>5736.9</ele>
    <time>2026-06-23T05:37:46Z</time>
   </trkpt>
   <trkpt lat="-3.0780760" lon="37.3626720">
    <ele>5736.9</ele>
    <time>2026-06-23T05:37:47Z</time>
   </trkpt>
   <trkpt lat="-3.0780710" lon="37.3626740">
    <ele>5736.9</ele>
    <time>2026-06-23T05:37:48Z</time>
   </trkpt>
   <trkpt lat="-3.0780760" lon="37.3626730">
    <ele>5736.8</ele>
    <time>2026-06-23T05:37:50Z</time>
   </trkpt>
   <trkpt lat="-3.0780750" lon="37.3626720">
    <ele>5736.8</ele>
    <time>2026-06-23T05:37:51Z</time>
   </trkpt>
   <trkpt lat="-3.0780750" lon="37.3626720">
    <ele>5736.8</ele>
    <time>2026-06-23T05:37:52Z</time>
   </trkpt>
   <trkpt lat="-3.0780750" lon="37.3626730">
    <ele>5736.8</ele>
    <time>2026-06-23T05:37:53Z</time>
   </trkpt>
   <trkpt lat="-3.0780750" lon="37.3626720">
    <ele>5736.8</ele>
    <time>2026-06-23T05:37:54Z</time>
   </trkpt>
   <trkpt lat="-3.0780750" lon="37.3626720">
    <ele>5736.8</ele>
    <time>2026-06-23T05:37:55Z</time>
   </trkpt>
   <trkpt lat="-3.0780750" lon="37.3626710">
    <ele>5736.8</ele>
    <time>2026-06-23T05:37:56Z</time>
   </trkpt>
   <trkpt lat="-3.0780760" lon="37.3626710">
    <ele>5736.8</ele>
    <time>2026-06-23T05:37:57Z</time>
   </trkpt>
   <trkpt lat="-3.0780750" lon="37.3626710">
    <ele>5736.8</ele>
    <time>2026-06-23T05:37:58Z</time>
   </trkpt>
   <trkpt lat="-3.0780750" lon="37.3626700">
    <ele>5736.8</ele>
    <time>2026-06-23T05:37:59Z</time>
   </trkpt>
   <trkpt lat="-3.0780750" lon="37.3626700">
    <ele>5736.8</ele>
    <time>2026-06-23T05:38:00Z</time>
   </trkpt>
   <trkpt lat="-3.0780750" lon="37.3626700">
    <ele>5736.8</ele>
    <time>2026-06-23T05:38:01Z</time>
   </trkpt>
   <trkpt lat="-3.0780750" lon="37.3626710">
    <ele>5736.8</ele>
    <time>2026-06-23T05:38:02Z</time>
   </trkpt>
   <trkpt lat="-3.0780750" lon="37.3626700">
    <ele>5736.8</ele>
    <time>2026-06-23T05:38:03Z</time>
   </trkpt>
   <trkpt lat="-3.0780750" lon="37.3626700">
    <ele>5736.8</ele>
    <time>2026-06-23T05:38:04Z</time>
   </trkpt>
   <trkpt lat="-3.0780750" lon="37.3626700">
    <ele>5736.8</ele>
    <time>2026-06-23T05:38:05Z</time>
   </trkpt>
   <trkpt lat="-3.0780740" lon="37.3626700">
    <ele>5736.8</ele>
    <time>2026-06-23T05:38:06Z</time>
   </trkpt>
   <trkpt lat="-3.0780750" lon="37.3626710">
    <ele>5736.8</ele>
    <time>2026-06-23T05:38:07Z</time>
   </trkpt>
   <trkpt lat="-3.0780730" lon="37.3626740">
    <ele>5736.7</ele>
    <time>2026-06-23T05:38:08Z</time>
   </trkpt>
   <trkpt lat="-3.0780720" lon="37.3626740">
    <ele>5736.7</ele>
    <time>2026-06-23T05:38:09Z</time>
   </trkpt>
   <trkpt lat="-3.0780720" lon="37.3626740">
    <ele>5736.7</ele>
    <time>2026-06-23T05:38:10Z</time>
   </trkpt>
   <trkpt lat="-3.0780710" lon="37.3626770">
    <ele>5736.7</ele>
    <time>2026-06-23T05:38:11Z</time>
   </trkpt>
   <trkpt lat="-3.0780690" lon="37.3626850">
    <ele>5736.7</ele>
    <time>2026-06-23T05:38:12Z</time>
   </trkpt>
   <trkpt lat="-3.0780630" lon="37.3626930">
    <ele>5736.6</ele>
    <time>2026-06-23T05:38:13Z</time>
   </trkpt>
   <trkpt lat="-3.0780620" lon="37.3627010">
    <ele>5736.6</ele>
    <time>2026-06-23T05:38:14Z</time>
   </trkpt>
   <trkpt lat="-3.0780620" lon="37.3627110">
    <ele>5736.5</ele>
    <time>2026-06-23T05:38:15Z</time>
   </trkpt>
   <trkpt lat="-3.0780640" lon="37.3627210">
    <ele>5736.4</ele>
    <time>2026-06-23T05:38:16Z</time>
   </trkpt>
   <trkpt lat="-3.0780680" lon="37.3627270">
    <ele>5736.4</ele>
    <time>2026-06-23T05:38:17Z</time>
   </trkpt>
   <trkpt lat="-3.0780690" lon="37.3627350">
    <ele>5736.4</ele>
    <time>2026-06-23T05:38:18Z</time>
   </trkpt>
   <trkpt lat="-3.0780700" lon="37.3627430">
    <ele>5736.3</ele>
    <time>2026-06-23T05:38:19Z</time>
   </trkpt>
   <trkpt lat="-3.0780720" lon="37.3627500">
    <ele>5736.1</ele>
    <time>2026-06-23T05:38:20Z</time>
   </trkpt>
   <trkpt lat="-3.0780770" lon="37.3627620">
    <ele>5735.7</ele>
    <time>2026-06-23T05:38:21Z</time>
   </trkpt>
   <trkpt lat="-3.0780790" lon="37.3627700">
    <ele>5735.4</ele>
    <time>2026-06-23T05:38:22Z</time>
   </trkpt>
   <trkpt lat="-3.0780810" lon="37.3627780">
    <ele>5735.2</ele>
    <time>2026-06-23T05:38:23Z</time>
   </trkpt>
   <trkpt lat="-3.0780830" lon="37.3627870">
    <ele>5734.8</ele>
    <time>2026-06-23T05:38:24Z</time>
   </trkpt>
   <trkpt lat="-3.0780840" lon="37.3627950">
    <ele>5734.6</ele>
    <time>2026-06-23T05:38:25Z</time>
   </trkpt>
   <trkpt lat="-3.0780860" lon="37.3628010">
    <ele>5734.4</ele>
    <time>2026-06-23T05:38:26Z</time>
   </trkpt>
   <trkpt lat="-3.0780840" lon="37.3628060">
    <ele>5734.2</ele>
    <time>2026-06-23T05:38:27Z</time>
   </trkpt>
   <trkpt lat="-3.0780850" lon="37.3628130">
    <ele>5734.0</ele>
    <time>2026-06-23T05:38:28Z</time>
   </trkpt>
   <trkpt lat="-3.0780870" lon="37.3628200">
    <ele>5733.7</ele>
    <time>2026-06-23T05:38:29Z</time>
   </trkpt>
   <trkpt lat="-3.0780890" lon="37.3628310">
    <ele>5733.4</ele>
    <time>2026-06-23T05:38:30Z</time>
   </trkpt>
   <trkpt lat="-3.0780890" lon="37.3628370">
    <ele>5733.2</ele>
    <time>2026-06-23T05:38:31Z</time>
   </trkpt>
   <trkpt lat="-3.0780920" lon="37.3628430">
    <ele>5732.9</ele>
    <time>2026-06-23T05:38:32Z</time>
   </trkpt>
   <trkpt lat="-3.0780930" lon="37.3628520">
    <ele>5732.6</ele>
    <time>2026-06-23T05:38:33Z</time>
   </trkpt>
   <trkpt lat="-3.0780930" lon="37.3628600">
    <ele>5732.3</ele>
    <time>2026-06-23T05:38:34Z</time>
   </trkpt>
   <trkpt lat="-3.0780910" lon="37.3628690">
    <ele>5732.0</ele>
    <time>2026-06-23T05:38:35Z</time>
   </trkpt>
   <trkpt lat="-3.0780900" lon="37.3628750">
    <ele>5731.8</ele>
    <time>2026-06-23T05:38:36Z</time>
   </trkpt>
   <trkpt lat="-3.0780900" lon="37.3628860">
    <ele>5731.4</ele>
    <time>2026-06-23T05:38:37Z</time>
   </trkpt>
   <trkpt lat="-3.0780890" lon="37.3628970">
    <ele>5731.1</ele>
    <time>2026-06-23T05:38:38Z</time>
   </trkpt>
   <trkpt lat="-3.0780820" lon="37.3629030">
    <ele>5730.7</ele>
    <time>2026-06-23T05:38:39Z</time>
   </trkpt>
   <trkpt lat="-3.0780800" lon="37.3629070">
    <ele>5730.6</ele>
    <time>2026-06-23T05:38:40Z</time>
   </trkpt>
   <trkpt lat="-3.0780840" lon="37.3629100">
    <ele>5730.4</ele>
    <time>2026-06-23T05:38:41Z</time>
   </trkpt>
   <trkpt lat="-3.0780890" lon="37.3629130">
    <ele>5730.2</ele>
    <time>2026-06-23T05:38:42Z</time>
   </trkpt>
   <trkpt lat="-3.0780950" lon="37.3629160">
    <ele>5729.9</ele>
    <time>2026-06-23T05:38:43Z</time>
   </trkpt>
   <trkpt lat="-3.0781030" lon="37.3629170">
    <ele>5729.6</ele>
    <time>2026-06-23T05:38:44Z</time>
   </trkpt>
   <trkpt lat="-3.0781110" lon="37.3629160">
    <ele>5729.3</ele>
    <time>2026-06-23T05:38:45Z</time>
   </trkpt>
   <trkpt lat="-3.0781210" lon="37.3629140">
    <ele>5729.0</ele>
    <time>2026-06-23T05:38:46Z</time>
   </trkpt>
   <trkpt lat="-3.0781280" lon="37.3629120">
    <ele>5728.7</ele>
    <time>2026-06-23T05:38:47Z</time>
   </trkpt>
   <trkpt lat="-3.0781360" lon="37.3629090">
    <ele>5728.4</ele>
    <time>2026-06-23T05:38:48Z</time>
   </trkpt>
   <trkpt lat="-3.0781430" lon="37.3629080">
    <ele>5728.1</ele>
    <time>2026-06-23T05:38:49Z</time>
   </trkpt>
   <trkpt lat="-3.0781500" lon="37.3629070">
    <ele>5727.9</ele>
    <time>2026-06-23T05:38:50Z</time>
   </trkpt>
   <trkpt lat="-3.0781570" lon="37.3629070">
    <ele>5727.6</ele>
    <time>2026-06-23T05:38:51Z</time>
   </trkpt>
   <trkpt lat="-3.0781610" lon="37.3629110">
    <ele>5727.4</ele>
    <time>2026-06-23T05:38:52Z</time>
   </trkpt>
   <trkpt lat="-3.0781650" lon="37.3629200">
    <ele>5727.1</ele>
    <time>2026-06-23T05:38:53Z</time>
   </trkpt>
   <trkpt lat="-3.0781630" lon="37.3629310">
    <ele>5726.7</ele>
    <time>2026-06-23T05:38:54Z</time>
   </trkpt>
   <trkpt lat="-3.0781610" lon="37.3629430">
    <ele>5726.2</ele>
    <time>2026-06-23T05:38:55Z</time>
   </trkpt>
   <trkpt lat="-3.0781560" lon="37.3629510">
    <ele>5725.9</ele>
    <time>2026-06-23T05:38:56Z</time>
   </trkpt>
   <trkpt lat="-3.0781510" lon="37.3629600">
    <ele>5725.5</ele>
    <time>2026-06-23T05:38:57Z</time>
   </trkpt>
   <trkpt lat="-3.0781520" lon="37.3629670">
    <ele>5725.2</ele>
    <time>2026-06-23T05:38:58Z</time>
   </trkpt>
   <trkpt lat="-3.0781570" lon="37.3629730">
    <ele>5724.9</ele>
    <time>2026-06-23T05:38:59Z</time>
   </trkpt>
   <trkpt lat="-3.0781670" lon="37.3629760">
    <ele>5724.6</ele>
    <time>2026-06-23T05:39:00Z</time>
   </trkpt>
   <trkpt lat="-3.0781720" lon="37.3629710">
    <ele>5724.3</ele>
    <time>2026-06-23T05:39:01Z</time>
   </trkpt>
   <trkpt lat="-3.0781830" lon="37.3629700">
    <ele>5723.9</ele>
    <time>2026-06-23T05:39:02Z</time>
   </trkpt>
   <trkpt lat="-3.0781940" lon="37.3629670">
    <ele>5723.5</ele>
    <time>2026-06-23T05:39:03Z</time>
   </trkpt>
   <trkpt lat="-3.0782010" lon="37.3629670">
    <ele>5723.2</ele>
    <time>2026-06-23T05:39:04Z</time>
   </trkpt>
   <trkpt lat="-3.0782080" lon="37.3629670">
    <ele>5723.0</ele>
    <time>2026-06-23T05:39:05Z</time>
   </trkpt>
   <trkpt lat="-3.0782190" lon="37.3629680">
    <ele>5722.6</ele>
    <time>2026-06-23T05:39:06Z</time>
   </trkpt>
   <trkpt lat="-3.0782260" lon="37.3629690">
    <ele>5722.3</ele>
    <time>2026-06-23T05:39:07Z</time>
   </trkpt>
   <trkpt lat="-3.0782310" lon="37.3629720">
    <ele>5722.1</ele>
    <time>2026-06-23T05:39:08Z</time>
   </trkpt>
   <trkpt lat="-3.0782340" lon="37.3629780">
    <ele>5721.8</ele>
    <time>2026-06-23T05:39:09Z</time>
   </trkpt>
   <trkpt lat="-3.0782370" lon="37.3629870">
    <ele>5721.5</ele>
    <time>2026-06-23T05:39:10Z</time>
   </trkpt>
   <trkpt lat="-3.0782340" lon="37.3629940">
    <ele>5721.2</ele>
    <time>2026-06-23T05:39:11Z</time>
   </trkpt>
   <trkpt lat="-3.0782330" lon="37.3630030">
    <ele>5720.9</ele>
    <time>2026-06-23T05:39:12Z</time>
   </trkpt>
   <trkpt lat="-3.0782370" lon="37.3630070">
    <ele>5720.6</ele>
    <time>2026-06-23T05:39:13Z</time>
   </trkpt>
   <trkpt lat="-3.0782450" lon="37.3630110">
    <ele>5720.3</ele>
    <time>2026-06-23T05:39:14Z</time>
   </trkpt>
   <trkpt lat="-3.0782550" lon="37.3630120">
    <ele>5719.9</ele>
    <time>2026-06-23T05:39:15Z</time>
   </trkpt>
   <trkpt lat="-3.0782610" lon="37.3630120">
    <ele>5719.7</ele>
    <time>2026-06-23T05:39:16Z</time>
   </trkpt>
   <trkpt lat="-3.0782670" lon="37.3630160">
    <ele>5719.4</ele>
    <time>2026-06-23T05:39:17Z</time>
   </trkpt>
   <trkpt lat="-3.0782750" lon="37.3630230">
    <ele>5719.0</ele>
    <time>2026-06-23T05:39:18Z</time>
   </trkpt>
   <trkpt lat="-3.0782780" lon="37.3630280">
    <ele>5718.8</ele>
    <time>2026-06-23T05:39:19Z</time>
   </trkpt>
   <trkpt lat="-3.0782810" lon="37.3630280">
    <ele>5718.7</ele>
    <time>2026-06-23T05:39:20Z</time>
   </trkpt>
   <trkpt lat="-3.0782880" lon="37.3630290">
    <ele>5718.4</ele>
    <time>2026-06-23T05:39:21Z</time>
   </trkpt>
   <trkpt lat="-3.0782910" lon="37.3630260">
    <ele>5718.3</ele>
    <time>2026-06-23T05:39:22Z</time>
   </trkpt>
   <trkpt lat="-3.0782950" lon="37.3630220">
    <ele>5718.1</ele>
    <time>2026-06-23T05:39:23Z</time>
   </trkpt>
   <trkpt lat="-3.0782970" lon="37.3630200">
    <ele>5718.0</ele>
    <time>2026-06-23T05:39:24Z</time>
   </trkpt>
   <trkpt lat="-3.0782990" lon="37.3630230">
    <ele>5717.8</ele>
    <time>2026-06-23T05:39:25Z</time>
   </trkpt>
   <trkpt lat="-3.0783090" lon="37.3630230">
    <ele>5717.4</ele>
    <time>2026-06-23T05:39:26Z</time>
   </trkpt>
   <trkpt lat="-3.0783180" lon="37.3630220">
    <ele>5717.1</ele>
    <time>2026-06-23T05:39:27Z</time>
   </trkpt>
   <trkpt lat="-3.0783180" lon="37.3630230">
    <ele>5717.1</ele>
    <time>2026-06-23T05:39:28Z</time>
   </trkpt>
   <trkpt lat="-3.0783220" lon="37.3630240">
    <ele>5716.9</ele>
    <time>2026-06-23T05:39:29Z</time>
   </trkpt>
   <trkpt lat="-3.0783250" lon="37.3630260">
    <ele>5716.8</ele>
    <time>2026-06-23T05:39:30Z</time>
   </trkpt>
   <trkpt lat="-3.0783270" lon="37.3630250">
    <ele>5716.7</ele>
    <time>2026-06-23T05:39:31Z</time>
   </trkpt>
   <trkpt lat="-3.0783280" lon="37.3630250">
    <ele>5716.7</ele>
    <time>2026-06-23T05:39:32Z</time>
   </trkpt>
   <trkpt lat="-3.0783280" lon="37.3630260">
    <ele>5716.6</ele>
    <time>2026-06-23T05:39:33Z</time>
   </trkpt>
   <trkpt lat="-3.0783310" lon="37.3630250">
    <ele>5716.5</ele>
    <time>2026-06-23T05:39:34Z</time>
   </trkpt>
   <trkpt lat="-3.0783370" lon="37.3630280">
    <ele>5716.2</ele>
    <time>2026-06-23T05:39:35Z</time>
   </trkpt>
   <trkpt lat="-3.0783430" lon="37.3630330">
    <ele>5715.9</ele>
    <time>2026-06-23T05:39:36Z</time>
   </trkpt>
   <trkpt lat="-3.0783490" lon="37.3630400">
    <ele>5715.6</ele>
    <time>2026-06-23T05:39:37Z</time>
   </trkpt>
   <trkpt lat="-3.0783510" lon="37.3630420">
    <ele>5715.5</ele>
    <time>2026-06-23T05:39:38Z</time>
   </trkpt>
   <trkpt lat="-3.0783550" lon="37.3630460">
    <ele>5715.3</ele>
    <time>2026-06-23T05:39:39Z</time>
   </trkpt>
   <trkpt lat="-3.0783570" lon="37.3630490">
    <ele>5715.1</ele>
    <time>2026-06-23T05:39:40Z</time>
   </trkpt>
   <trkpt lat="-3.0783560" lon="37.3630520">
    <ele>5715.0</ele>
    <time>2026-06-23T05:39:41Z</time>
   </trkpt>
   <trkpt lat="-3.0783530" lon="37.3630550">
    <ele>5714.9</ele>
    <time>2026-06-23T05:39:42Z</time>
   </trkpt>
   <trkpt lat="-3.0783540" lon="37.3630570">
    <ele>5714.8</ele>
    <time>2026-06-23T05:39:43Z</time>
   </trkpt>
   <trkpt lat="-3.0783520" lon="37.3630620">
    <ele>5714.6</ele>
    <time>2026-06-23T05:39:44Z</time>
   </trkpt>
   <trkpt lat="-3.0783510" lon="37.3630660">
    <ele>5714.4</ele>
    <time>2026-06-23T05:39:45Z</time>
   </trkpt>
   <trkpt lat="-3.0783520" lon="37.3630730">
    <ele>5714.2</ele>
    <time>2026-06-23T05:39:46Z</time>
   </trkpt>
   <trkpt lat="-3.0783530" lon="37.3630760">
    <ele>5714.0</ele>
    <time>2026-06-23T05:39:47Z</time>
   </trkpt>
   <trkpt lat="-3.0783530" lon="37.3630820">
    <ele>5713.8</ele>
    <time>2026-06-23T05:39:48Z</time>
   </trkpt>
   <trkpt lat="-3.0783520" lon="37.3630860">
    <ele>5713.7</ele>
    <time>2026-06-23T05:39:49Z</time>
   </trkpt>
   <trkpt lat="-3.0783520" lon="37.3630950">
    <ele>5713.3</ele>
    <time>2026-06-23T05:39:50Z</time>
   </trkpt>
   <trkpt lat="-3.0783550" lon="37.3630990">
    <ele>5713.2</ele>
    <time>2026-06-23T05:39:51Z</time>
   </trkpt>
   <trkpt lat="-3.0783550" lon="37.3631050">
    <ele>5712.9</ele>
    <time>2026-06-23T05:39:52Z</time>
   </trkpt>
   <trkpt lat="-3.0783580" lon="37.3631080">
    <ele>5712.8</ele>
    <time>2026-06-23T05:39:53Z</time>
   </trkpt>
   <trkpt lat="-3.0783630" lon="37.3631140">
    <ele>5712.5</ele>
    <time>2026-06-23T05:39:54Z</time>
   </trkpt>
   <trkpt lat="-3.0783680" lon="37.3631170">
    <ele>5712.3</ele>
    <time>2026-06-23T05:39:56Z</time>
   </trkpt>
   <trkpt lat="-3.0783720" lon="37.3631250">
    <ele>5711.9</ele>
    <time>2026-06-23T05:39:57Z</time>
   </trkpt>
   <trkpt lat="-3.0783730" lon="37.3631320">
    <ele>5711.7</ele>
    <time>2026-06-23T05:39:58Z</time>
   </trkpt>
   <trkpt lat="-3.0783690" lon="37.3631380">
    <ele>5711.4</ele>
    <time>2026-06-23T05:39:59Z</time>
   </trkpt>
   <trkpt lat="-3.0783670" lon="37.3631460">
    <ele>5711.1</ele>
    <time>2026-06-23T05:40:00Z</time>
   </trkpt>
   <trkpt lat="-3.0783650" lon="37.3631570">
    <ele>5710.7</ele>
    <time>2026-06-23T05:40:01Z</time>
   </trkpt>
   <trkpt lat="-3.0783680" lon="37.3631680">
    <ele>5710.3</ele>
    <time>2026-06-23T05:40:02Z</time>
   </trkpt>
   <trkpt lat="-3.0783700" lon="37.3631750">
    <ele>5710.0</ele>
    <time>2026-06-23T05:40:03Z</time>
   </trkpt>
   <trkpt lat="-3.0783710" lon="37.3631830">
    <ele>5709.7</ele>
    <time>2026-06-23T05:40:04Z</time>
   </trkpt>
   <trkpt lat="-3.0783700" lon="37.3631910">
    <ele>5709.4</ele>
    <time>2026-06-23T05:40:05Z</time>
   </trkpt>
   <trkpt lat="-3.0783690" lon="37.3632020">
    <ele>5709.0</ele>
    <time>2026-06-23T05:40:06Z</time>
   </trkpt>
   <trkpt lat="-3.0783670" lon="37.3632100">
    <ele>5708.7</ele>
    <time>2026-06-23T05:40:07Z</time>
   </trkpt>
   <trkpt lat="-3.0783700" lon="37.3632190">
    <ele>5708.4</ele>
    <time>2026-06-23T05:40:08Z</time>
   </trkpt>
   <trkpt lat="-3.0783740" lon="37.3632270">
    <ele>5708.0</ele>
    <time>2026-06-23T05:40:09Z</time>
   </trkpt>
   <trkpt lat="-3.0783810" lon="37.3632300">
    <ele>5707.8</ele>
    <time>2026-06-23T05:40:10Z</time>
   </trkpt>
   <trkpt lat="-3.0783860" lon="37.3632350">
    <ele>5707.5</ele>
    <time>2026-06-23T05:40:11Z</time>
   </trkpt>
   <trkpt lat="-3.0783900" lon="37.3632380">
    <ele>5707.3</ele>
    <time>2026-06-23T05:40:12Z</time>
   </trkpt>
   <trkpt lat="-3.0783930" lon="37.3632400">
    <ele>5707.2</ele>
    <time>2026-06-23T05:40:13Z</time>
   </trkpt>
   <trkpt lat="-3.0783980" lon="37.3632440">
    <ele>5707.0</ele>
    <time>2026-06-23T05:40:14Z</time>
   </trkpt>
   <trkpt lat="-3.0784030" lon="37.3632450">
    <ele>5706.8</ele>
    <time>2026-06-23T05:40:15Z</time>
   </trkpt>
   <trkpt lat="-3.0784120" lon="37.3632460">
    <ele>5706.4</ele>
    <time>2026-06-23T05:40:16Z</time>
   </trkpt>
   <trkpt lat="-3.0784230" lon="37.3632490">
    <ele>5706.0</ele>
    <time>2026-06-23T05:40:17Z</time>
   </trkpt>
   <trkpt lat="-3.0784330" lon="37.3632500">
    <ele>5705.6</ele>
    <time>2026-06-23T05:40:18Z</time>
   </trkpt>
   <trkpt lat="-3.0784420" lon="37.3632520">
    <ele>5705.3</ele>
    <time>2026-06-23T05:40:19Z</time>
   </trkpt>
   <trkpt lat="-3.0784510" lon="37.3632540">
    <ele>5705.0</ele>
    <time>2026-06-23T05:40:20Z</time>
   </trkpt>
   <trkpt lat="-3.0784590" lon="37.3632570">
    <ele>5704.7</ele>
    <time>2026-06-23T05:40:21Z</time>
   </trkpt>
   <trkpt lat="-3.0784660" lon="37.3632630">
    <ele>5704.3</ele>
    <time>2026-06-23T05:40:22Z</time>
   </trkpt>
   <trkpt lat="-3.0784750" lon="37.3632670">
    <ele>5704.0</ele>
    <time>2026-06-23T05:40:23Z</time>
   </trkpt>
   <trkpt lat="-3.0784830" lon="37.3632690">
    <ele>5703.7</ele>
    <time>2026-06-23T05:40:24Z</time>
   </trkpt>
   <trkpt lat="-3.0784930" lon="37.3632730">
    <ele>5703.3</ele>
    <time>2026-06-23T05:40:25Z</time>
   </trkpt>
   <trkpt lat="-3.0785040" lon="37.3632770">
    <ele>5702.8</ele>
    <time>2026-06-23T05:40:26Z</time>
   </trkpt>
   <trkpt lat="-3.0785090" lon="37.3632800">
    <ele>5702.6</ele>
    <time>2026-06-23T05:40:27Z</time>
   </trkpt>
   <trkpt lat="-3.0785150" lon="37.3632850">
    <ele>5702.3</ele>
    <time>2026-06-23T05:40:28Z</time>
   </trkpt>
   <trkpt lat="-3.0785270" lon="37.3632960">
    <ele>5701.7</ele>
    <time>2026-06-23T05:40:29Z</time>
   </trkpt>
   <trkpt lat="-3.0785360" lon="37.3633000">
    <ele>5701.4</ele>
    <time>2026-06-23T05:40:30Z</time>
   </trkpt>
   <trkpt lat="-3.0785450" lon="37.3633050">
    <ele>5701.0</ele>
    <time>2026-06-23T05:40:31Z</time>
   </trkpt>
   <trkpt lat="-3.0785540" lon="37.3633080">
    <ele>5700.6</ele>
    <time>2026-06-23T05:40:32Z</time>
   </trkpt>
   <trkpt lat="-3.0785620" lon="37.3633090">
    <ele>5700.3</ele>
    <time>2026-06-23T05:40:33Z</time>
   </trkpt>
   <trkpt lat="-3.0785690" lon="37.3633100">
    <ele>5700.0</ele>
    <time>2026-06-23T05:40:34Z</time>
   </trkpt>
   <trkpt lat="-3.0785780" lon="37.3633140">
    <ele>5699.7</ele>
    <time>2026-06-23T05:40:35Z</time>
   </trkpt>
   <trkpt lat="-3.0785890" lon="37.3633160">
    <ele>5699.3</ele>
    <time>2026-06-23T05:40:36Z</time>
   </trkpt>
   <trkpt lat="-3.0785960" lon="37.3633200">
    <ele>5699.0</ele>
    <time>2026-06-23T05:40:37Z</time>
   </trkpt>
   <trkpt lat="-3.0786030" lon="37.3633240">
    <ele>5698.7</ele>
    <time>2026-06-23T05:40:38Z</time>
   </trkpt>
   <trkpt lat="-3.0786150" lon="37.3633270">
    <ele>5698.2</ele>
    <time>2026-06-23T05:40:39Z</time>
   </trkpt>
   <trkpt lat="-3.0786240" lon="37.3633330">
    <ele>5697.9</ele>
    <time>2026-06-23T05:40:40Z</time>
   </trkpt>
   <trkpt lat="-3.0786340" lon="37.3633400">
    <ele>5697.4</ele>
    <time>2026-06-23T05:40:41Z</time>
   </trkpt>
   <trkpt lat="-3.0786450" lon="37.3633440">
    <ele>5697.0</ele>
    <time>2026-06-23T05:40:42Z</time>
   </trkpt>
   <trkpt lat="-3.0786570" lon="37.3633430">
    <ele>5696.6</ele>
    <time>2026-06-23T05:40:43Z</time>
   </trkpt>
   <trkpt lat="-3.0786680" lon="37.3633420">
    <ele>5696.2</ele>
    <time>2026-06-23T05:40:44Z</time>
   </trkpt>
   <trkpt lat="-3.0786790" lon="37.3633420">
    <ele>5695.8</ele>
    <time>2026-06-23T05:40:45Z</time>
   </trkpt>
   <trkpt lat="-3.0786880" lon="37.3633430">
    <ele>5695.4</ele>
    <time>2026-06-23T05:40:46Z</time>
   </trkpt>
   <trkpt lat="-3.0786960" lon="37.3633390">
    <ele>5695.1</ele>
    <time>2026-06-23T05:40:47Z</time>
   </trkpt>
   <trkpt lat="-3.0787030" lon="37.3633340">
    <ele>5694.8</ele>
    <time>2026-06-23T05:40:48Z</time>
   </trkpt>
   <trkpt lat="-3.0787090" lon="37.3633300">
    <ele>5694.5</ele>
    <time>2026-06-23T05:40:49Z</time>
   </trkpt>
   <trkpt lat="-3.0787160" lon="37.3633280">
    <ele>5694.3</ele>
    <time>2026-06-23T05:40:50Z</time>
   </trkpt>
   <trkpt lat="-3.0787210" lon="37.3633260">
    <ele>5694.1</ele>
    <time>2026-06-23T05:40:51Z</time>
   </trkpt>
   <trkpt lat="-3.0787260" lon="37.3633260">
    <ele>5693.9</ele>
    <time>2026-06-23T05:40:52Z</time>
   </trkpt>
   <trkpt lat="-3.0787330" lon="37.3633270">
    <ele>5693.6</ele>
    <time>2026-06-23T05:40:53Z</time>
   </trkpt>
   <trkpt lat="-3.0787390" lon="37.3633290">
    <ele>5693.4</ele>
    <time>2026-06-23T05:40:54Z</time>
   </trkpt>
   <trkpt lat="-3.0787440" lon="37.3633370">
    <ele>5693.1</ele>
    <time>2026-06-23T05:40:55Z</time>
   </trkpt>
   <trkpt lat="-3.0787390" lon="37.3633410">
    <ele>5692.8</ele>
    <time>2026-06-23T05:40:56Z</time>
   </trkpt>
   <trkpt lat="-3.0787320" lon="37.3633470">
    <ele>5692.5</ele>
    <time>2026-06-23T05:40:57Z</time>
   </trkpt>
   <trkpt lat="-3.0787380" lon="37.3633500">
    <ele>5692.3</ele>
    <time>2026-06-23T05:40:58Z</time>
   </trkpt>
   <trkpt lat="-3.0787410" lon="37.3633500">
    <ele>5692.2</ele>
    <time>2026-06-23T05:40:59Z</time>
   </trkpt>
   <trkpt lat="-3.0787440" lon="37.3633510">
    <ele>5692.0</ele>
    <time>2026-06-23T05:41:00Z</time>
   </trkpt>
   <trkpt lat="-3.0787440" lon="37.3633520">
    <ele>5692.0</ele>
    <time>2026-06-23T05:41:01Z</time>
   </trkpt>
   <trkpt lat="-3.0787500" lon="37.3633530">
    <ele>5691.8</ele>
    <time>2026-06-23T05:41:02Z</time>
   </trkpt>
   <trkpt lat="-3.0787520" lon="37.3633570">
    <ele>5691.6</ele>
    <time>2026-06-23T05:41:03Z</time>
   </trkpt>
   <trkpt lat="-3.0787500" lon="37.3633620">
    <ele>5691.4</ele>
    <time>2026-06-23T05:41:04Z</time>
   </trkpt>
   <trkpt lat="-3.0787500" lon="37.3633670">
    <ele>5691.3</ele>
    <time>2026-06-23T05:41:05Z</time>
   </trkpt>
   <trkpt lat="-3.0787550" lon="37.3633790">
    <ele>5690.8</ele>
    <time>2026-06-23T05:41:06Z</time>
   </trkpt>
   <trkpt lat="-3.0787570" lon="37.3633760">
    <ele>5690.7</ele>
    <time>2026-06-23T05:41:07Z</time>
   </trkpt>
   <trkpt lat="-3.0787660" lon="37.3633750">
    <ele>5690.3</ele>
    <time>2026-06-23T05:41:08Z</time>
   </trkpt>
   <trkpt lat="-3.0787730" lon="37.3633740">
    <ele>5690.1</ele>
    <time>2026-06-23T05:41:09Z</time>
   </trkpt>
   <trkpt lat="-3.0787780" lon="37.3633770">
    <ele>5689.9</ele>
    <time>2026-06-23T05:41:10Z</time>
   </trkpt>
   <trkpt lat="-3.0787830" lon="37.3633820">
    <ele>5689.6</ele>
    <time>2026-06-23T05:41:11Z</time>
   </trkpt>
   <trkpt lat="-3.0787890" lon="37.3633840">
    <ele>5689.4</ele>
    <time>2026-06-23T05:41:12Z</time>
   </trkpt>
   <trkpt lat="-3.0787970" lon="37.3633870">
    <ele>5689.1</ele>
    <time>2026-06-23T05:41:13Z</time>
   </trkpt>
   <trkpt lat="-3.0788040" lon="37.3633880">
    <ele>5688.9</ele>
    <time>2026-06-23T05:41:14Z</time>
   </trkpt>
   <trkpt lat="-3.0788110" lon="37.3633910">
    <ele>5688.6</ele>
    <time>2026-06-23T05:41:15Z</time>
   </trkpt>
   <trkpt lat="-3.0788160" lon="37.3633920">
    <ele>5688.5</ele>
    <time>2026-06-23T05:41:16Z</time>
   </trkpt>
   <trkpt lat="-3.0788230" lon="37.3633960">
    <ele>5688.2</ele>
    <time>2026-06-23T05:41:17Z</time>
   </trkpt>
   <trkpt lat="-3.0788290" lon="37.3634030">
    <ele>5687.9</ele>
    <time>2026-06-23T05:41:18Z</time>
   </trkpt>
   <trkpt lat="-3.0788290" lon="37.3634110">
    <ele>5687.6</ele>
    <time>2026-06-23T05:41:19Z</time>
   </trkpt>
   <trkpt lat="-3.0788290" lon="37.3634250">
    <ele>5687.1</ele>
    <time>2026-06-23T05:41:20Z</time>
   </trkpt>
   <trkpt lat="-3.0788240" lon="37.3634370">
    <ele>5686.7</ele>
    <time>2026-06-23T05:41:21Z</time>
   </trkpt>
   <trkpt lat="-3.0788180" lon="37.3634470">
    <ele>5686.3</ele>
    <time>2026-06-23T05:41:22Z</time>
   </trkpt>
   <trkpt lat="-3.0788150" lon="37.3634560">
    <ele>5686.0</ele>
    <time>2026-06-23T05:41:23Z</time>
   </trkpt>
   <trkpt lat="-3.0788110" lon="37.3634680">
    <ele>5685.6</ele>
    <time>2026-06-23T05:41:24Z</time>
   </trkpt>
   <trkpt lat="-3.0788080" lon="37.3634780">
    <ele>5685.2</ele>
    <time>2026-06-23T05:41:25Z</time>
   </trkpt>
   <trkpt lat="-3.0788020" lon="37.3634890">
    <ele>5684.8</ele>
    <time>2026-06-23T05:41:26Z</time>
   </trkpt>
   <trkpt lat="-3.0788000" lon="37.3634990">
    <ele>5684.5</ele>
    <time>2026-06-23T05:41:27Z</time>
   </trkpt>
   <trkpt lat="-3.0787990" lon="37.3635080">
    <ele>5684.2</ele>
    <time>2026-06-23T05:41:28Z</time>
   </trkpt>
   <trkpt lat="-3.0788010" lon="37.3635140">
    <ele>5684.0</ele>
    <time>2026-06-23T05:41:29Z</time>
   </trkpt>
   <trkpt lat="-3.0788020" lon="37.3635210">
    <ele>5683.8</ele>
    <time>2026-06-23T05:41:30Z</time>
   </trkpt>
   <trkpt lat="-3.0788030" lon="37.3635250">
    <ele>5683.6</ele>
    <time>2026-06-23T05:41:31Z</time>
   </trkpt>
   <trkpt lat="-3.0788000" lon="37.3635330">
    <ele>5683.3</ele>
    <time>2026-06-23T05:41:32Z</time>
   </trkpt>
   <trkpt lat="-3.0787970" lon="37.3635390">
    <ele>5683.1</ele>
    <time>2026-06-23T05:41:33Z</time>
   </trkpt>
   <trkpt lat="-3.0787980" lon="37.3635420">
    <ele>5683.0</ele>
    <time>2026-06-23T05:41:34Z</time>
   </trkpt>
   <trkpt lat="-3.0788010" lon="37.3635450">
    <ele>5682.9</ele>
    <time>2026-06-23T05:41:35Z</time>
   </trkpt>
   <trkpt lat="-3.0788060" lon="37.3635510">
    <ele>5682.6</ele>
    <time>2026-06-23T05:41:36Z</time>
   </trkpt>
   <trkpt lat="-3.0788110" lon="37.3635560">
    <ele>5682.4</ele>
    <time>2026-06-23T05:41:37Z</time>
   </trkpt>
   <trkpt lat="-3.0788180" lon="37.3635610">
    <ele>5682.1</ele>
    <time>2026-06-23T05:41:38Z</time>
   </trkpt>
   <trkpt lat="-3.0788220" lon="37.3635650">
    <ele>5681.9</ele>
    <time>2026-06-23T05:41:39Z</time>
   </trkpt>
   <trkpt lat="-3.0788240" lon="37.3635680">
    <ele>5681.8</ele>
    <time>2026-06-23T05:41:40Z</time>
   </trkpt>
   <trkpt lat="-3.0788280" lon="37.3635730">
    <ele>5681.6</ele>
    <time>2026-06-23T05:41:41Z</time>
   </trkpt>
   <trkpt lat="-3.0788330" lon="37.3635760">
    <ele>5681.4</ele>
    <time>2026-06-23T05:41:42Z</time>
   </trkpt>
   <trkpt lat="-3.0788420" lon="37.3635800">
    <ele>5681.1</ele>
    <time>2026-06-23T05:41:43Z</time>
   </trkpt>
   <trkpt lat="-3.0788470" lon="37.3635830">
    <ele>5680.9</ele>
    <time>2026-06-23T05:41:44Z</time>
   </trkpt>
   <trkpt lat="-3.0788530" lon="37.3635870">
    <ele>5680.7</ele>
    <time>2026-06-23T05:41:45Z</time>
   </trkpt>
   <trkpt lat="-3.0788580" lon="37.3635950">
    <ele>5680.3</ele>
    <time>2026-06-23T05:41:46Z</time>
   </trkpt>
   <trkpt lat="-3.0788660" lon="37.3636020">
    <ele>5680.0</ele>
    <time>2026-06-23T05:41:47Z</time>
   </trkpt>
   <trkpt lat="-3.0788750" lon="37.3636040">
    <ele>5679.7</ele>
    <time>2026-06-23T05:41:48Z</time>
   </trkpt>
   <trkpt lat="-3.0788840" lon="37.3636030">
    <ele>5679.4</ele>
    <time>2026-06-23T05:41:49Z</time>
   </trkpt>
   <trkpt lat="-3.0788920" lon="37.3636030">
    <ele>5679.1</ele>
    <time>2026-06-23T05:41:50Z</time>
   </trkpt>
   <trkpt lat="-3.0788940" lon="37.3635980">
    <ele>5678.9</ele>
    <time>2026-06-23T05:41:51Z</time>
   </trkpt>
   <trkpt lat="-3.0789000" lon="37.3635900">
    <ele>5678.6</ele>
    <time>2026-06-23T05:41:52Z</time>
   </trkpt>
   <trkpt lat="-3.0789030" lon="37.3635790">
    <ele>5678.2</ele>
    <time>2026-06-23T05:41:53Z</time>
   </trkpt>
   <trkpt lat="-3.0789030" lon="37.3635660">
    <ele>5677.7</ele>
    <time>2026-06-23T05:41:54Z</time>
   </trkpt>
   <trkpt lat="-3.0789060" lon="37.3635590">
    <ele>5677.5</ele>
    <time>2026-06-23T05:41:55Z</time>
   </trkpt>
   <trkpt lat="-3.0789110" lon="37.3635550">
    <ele>5677.3</ele>
    <time>2026-06-23T05:41:56Z</time>
   </trkpt>
   <trkpt lat="-3.0789190" lon="37.3635480">
    <ele>5676.9</ele>
    <time>2026-06-23T05:41:57Z</time>
   </trkpt>
   <trkpt lat="-3.0789290" lon="37.3635430">
    <ele>5676.5</ele>
    <time>2026-06-23T05:41:58Z</time>
   </trkpt>
   <trkpt lat="-3.0789400" lon="37.3635450">
    <ele>5676.1</ele>
    <time>2026-06-23T05:41:59Z</time>
   </trkpt>
   <trkpt lat="-3.0789460" lon="37.3635500">
    <ele>5675.8</ele>
    <time>2026-06-23T05:42:00Z</time>
   </trkpt>
   <trkpt lat="-3.0789570" lon="37.3635590">
    <ele>5675.3</ele>
    <time>2026-06-23T05:42:02Z</time>
   </trkpt>
   <trkpt lat="-3.0789650" lon="37.3635620">
    <ele>5675.0</ele>
    <time>2026-06-23T05:42:03Z</time>
   </trkpt>
   <trkpt lat="-3.0789690" lon="37.3635570">
    <ele>5674.8</ele>
    <time>2026-06-23T05:42:04Z</time>
   </trkpt>
   <trkpt lat="-3.0789800" lon="37.3635530">
    <ele>5674.4</ele>
    <time>2026-06-23T05:42:05Z</time>
   </trkpt>
   <trkpt lat="-3.0789900" lon="37.3635540">
    <ele>5674.1</ele>
    <time>2026-06-23T05:42:06Z</time>
   </trkpt>
   <trkpt lat="-3.0789960" lon="37.3635600">
    <ele>5673.8</ele>
    <time>2026-06-23T05:42:07Z</time>
   </trkpt>
   <trkpt lat="-3.0790060" lon="37.3635630">
    <ele>5673.4</ele>
    <time>2026-06-23T05:42:08Z</time>
   </trkpt>
   <trkpt lat="-3.0790120" lon="37.3635670">
    <ele>5673.1</ele>
    <time>2026-06-23T05:42:09Z</time>
   </trkpt>
   <trkpt lat="-3.0790150" lon="37.3635740">
    <ele>5672.9</ele>
    <time>2026-06-23T05:42:10Z</time>
   </trkpt>
   <trkpt lat="-3.0790200" lon="37.3635830">
    <ele>5672.5</ele>
    <time>2026-06-23T05:42:11Z</time>
   </trkpt>
   <trkpt lat="-3.0790280" lon="37.3635930">
    <ele>5672.1</ele>
    <time>2026-06-23T05:42:12Z</time>
   </trkpt>
   <trkpt lat="-3.0790300" lon="37.3635920">
    <ele>5672.0</ele>
    <time>2026-06-23T05:42:13Z</time>
   </trkpt>
   <trkpt lat="-3.0790380" lon="37.3635960">
    <ele>5671.7</ele>
    <time>2026-06-23T05:42:14Z</time>
   </trkpt>
   <trkpt lat="-3.0790420" lon="37.3635980">
    <ele>5671.5</ele>
    <time>2026-06-23T05:42:15Z</time>
   </trkpt>
   <trkpt lat="-3.0790470" lon="37.3635990">
    <ele>5671.3</ele>
    <time>2026-06-23T05:42:16Z</time>
   </trkpt>
   <trkpt lat="-3.0790510" lon="37.3636010">
    <ele>5671.2</ele>
    <time>2026-06-23T05:42:17Z</time>
   </trkpt>
   <trkpt lat="-3.0790530" lon="37.3636030">
    <ele>5671.1</ele>
    <time>2026-06-23T05:42:18Z</time>
   </trkpt>
   <trkpt lat="-3.0790580" lon="37.3636050">
    <ele>5670.9</ele>
    <time>2026-06-23T05:42:19Z</time>
   </trkpt>
   <trkpt lat="-3.0790590" lon="37.3636050">
    <ele>5670.9</ele>
    <time>2026-06-23T05:42:20Z</time>
   </trkpt>
   <trkpt lat="-3.0790640" lon="37.3636020">
    <ele>5670.7</ele>
    <time>2026-06-23T05:42:21Z</time>
   </trkpt>
   <trkpt lat="-3.0790700" lon="37.3636030">
    <ele>5670.4</ele>
    <time>2026-06-23T05:42:22Z</time>
   </trkpt>
   <trkpt lat="-3.0790750" lon="37.3636030">
    <ele>5670.3</ele>
    <time>2026-06-23T05:42:23Z</time>
   </trkpt>
   <trkpt lat="-3.0790790" lon="37.3636030">
    <ele>5670.1</ele>
    <time>2026-06-23T05:42:24Z</time>
   </trkpt>
   <trkpt lat="-3.0790790" lon="37.3636060">
    <ele>5670.0</ele>
    <time>2026-06-23T05:42:25Z</time>
   </trkpt>
   <trkpt lat="-3.0790830" lon="37.3636150">
    <ele>5669.7</ele>
    <time>2026-06-23T05:42:26Z</time>
   </trkpt>
   <trkpt lat="-3.0790870" lon="37.3636230">
    <ele>5669.4</ele>
    <time>2026-06-23T05:42:27Z</time>
   </trkpt>
   <trkpt lat="-3.0790910" lon="37.3636270">
    <ele>5669.2</ele>
    <time>2026-06-23T05:42:28Z</time>
   </trkpt>
   <trkpt lat="-3.0791000" lon="37.3636320">
    <ele>5668.8</ele>
    <time>2026-06-23T05:42:29Z</time>
   </trkpt>
   <trkpt lat="-3.0791050" lon="37.3636370">
    <ele>5668.6</ele>
    <time>2026-06-23T05:42:30Z</time>
   </trkpt>
   <trkpt lat="-3.0791060" lon="37.3636420">
    <ele>5668.4</ele>
    <time>2026-06-23T05:42:31Z</time>
   </trkpt>
   <trkpt lat="-3.0791050" lon="37.3636500">
    <ele>5668.1</ele>
    <time>2026-06-23T05:42:32Z</time>
   </trkpt>
   <trkpt lat="-3.0791120" lon="37.3636550">
    <ele>5667.8</ele>
    <time>2026-06-23T05:42:33Z</time>
   </trkpt>
   <trkpt lat="-3.0791240" lon="37.3636520">
    <ele>5667.4</ele>
    <time>2026-06-23T05:42:34Z</time>
   </trkpt>
   <trkpt lat="-3.0791350" lon="37.3636450">
    <ele>5666.9</ele>
    <time>2026-06-23T05:42:35Z</time>
   </trkpt>
   <trkpt lat="-3.0791440" lon="37.3636370">
    <ele>5666.5</ele>
    <time>2026-06-23T05:42:36Z</time>
   </trkpt>
   <trkpt lat="-3.0791500" lon="37.3636310">
    <ele>5666.2</ele>
    <time>2026-06-23T05:42:37Z</time>
   </trkpt>
   <trkpt lat="-3.0791570" lon="37.3636290">
    <ele>5665.9</ele>
    <time>2026-06-23T05:42:38Z</time>
   </trkpt>
   <trkpt lat="-3.0791600" lon="37.3636310">
    <ele>5665.8</ele>
    <time>2026-06-23T05:42:39Z</time>
   </trkpt>
   <trkpt lat="-3.0791610" lon="37.3636330">
    <ele>5665.7</ele>
    <time>2026-06-23T05:42:40Z</time>
   </trkpt>
   <trkpt lat="-3.0791650" lon="37.3636440">
    <ele>5665.3</ele>
    <time>2026-06-23T05:42:41Z</time>
   </trkpt>
   <trkpt lat="-3.0791650" lon="37.3636560">
    <ele>5664.9</ele>
    <time>2026-06-23T05:42:42Z</time>
   </trkpt>
   <trkpt lat="-3.0791630" lon="37.3636570">
    <ele>5664.8</ele>
    <time>2026-06-23T05:42:43Z</time>
   </trkpt>
   <trkpt lat="-3.0791690" lon="37.3636650">
    <ele>5664.5</ele>
    <time>2026-06-23T05:42:44Z</time>
   </trkpt>
   <trkpt lat="-3.0791730" lon="37.3636670">
    <ele>5664.3</ele>
    <time>2026-06-23T05:42:45Z</time>
   </trkpt>
   <trkpt lat="-3.0791790" lon="37.3636720">
    <ele>5664.0</ele>
    <time>2026-06-23T05:42:46Z</time>
   </trkpt>
   <trkpt lat="-3.0791800" lon="37.3636740">
    <ele>5663.9</ele>
    <time>2026-06-23T05:42:47Z</time>
   </trkpt>
   <trkpt lat="-3.0791830" lon="37.3636830">
    <ele>5663.6</ele>
    <time>2026-06-23T05:42:48Z</time>
   </trkpt>
   <trkpt lat="-3.0791850" lon="37.3636900">
    <ele>5663.4</ele>
    <time>2026-06-23T05:42:49Z</time>
   </trkpt>
   <trkpt lat="-3.0791820" lon="37.3637020">
    <ele>5662.9</ele>
    <time>2026-06-23T05:42:50Z</time>
   </trkpt>
   <trkpt lat="-3.0791760" lon="37.3637100">
    <ele>5662.6</ele>
    <time>2026-06-23T05:42:51Z</time>
   </trkpt>
   <trkpt lat="-3.0791700" lon="37.3637160">
    <ele>5662.3</ele>
    <time>2026-06-23T05:42:52Z</time>
   </trkpt>
   <trkpt lat="-3.0791690" lon="37.3637270">
    <ele>5661.9</ele>
    <time>2026-06-23T05:42:53Z</time>
   </trkpt>
   <trkpt lat="-3.0791710" lon="37.3637370">
    <ele>5661.5</ele>
    <time>2026-06-23T05:42:54Z</time>
   </trkpt>
   <trkpt lat="-3.0791760" lon="37.3637370">
    <ele>5661.4</ele>
    <time>2026-06-23T05:42:55Z</time>
   </trkpt>
   <trkpt lat="-3.0791800" lon="37.3637460">
    <ele>5661.0</ele>
    <time>2026-06-23T05:42:56Z</time>
   </trkpt>
   <trkpt lat="-3.0791890" lon="37.3637510">
    <ele>5660.7</ele>
    <time>2026-06-23T05:42:57Z</time>
   </trkpt>
   <trkpt lat="-3.0791950" lon="37.3637520">
    <ele>5660.4</ele>
    <time>2026-06-23T05:42:58Z</time>
   </trkpt>
   <trkpt lat="-3.0792020" lon="37.3637560">
    <ele>5660.2</ele>
    <time>2026-06-23T05:42:59Z</time>
   </trkpt>
   <trkpt lat="-3.0792070" lon="37.3637590">
    <ele>5660.0</ele>
    <time>2026-06-23T05:43:00Z</time>
   </trkpt>
   <trkpt lat="-3.0792100" lon="37.3637620">
    <ele>5659.8</ele>
    <time>2026-06-23T05:43:01Z</time>
   </trkpt>
   <trkpt lat="-3.0792120" lon="37.3637680">
    <ele>5659.6</ele>
    <time>2026-06-23T05:43:02Z</time>
   </trkpt>
   <trkpt lat="-3.0792160" lon="37.3637750">
    <ele>5659.3</ele>
    <time>2026-06-23T05:43:03Z</time>
   </trkpt>
   <trkpt lat="-3.0792210" lon="37.3637780">
    <ele>5659.1</ele>
    <time>2026-06-23T05:43:04Z</time>
   </trkpt>
   <trkpt lat="-3.0792280" lon="37.3637780">
    <ele>5658.8</ele>
    <time>2026-06-23T05:43:05Z</time>
   </trkpt>
   <trkpt lat="-3.0792370" lon="37.3637800">
    <ele>5658.5</ele>
    <time>2026-06-23T05:43:06Z</time>
   </trkpt>
   <trkpt lat="-3.0792480" lon="37.3637810">
    <ele>5658.1</ele>
    <time>2026-06-23T05:43:07Z</time>
   </trkpt>
   <trkpt lat="-3.0792520" lon="37.3637800">
    <ele>5658.0</ele>
    <time>2026-06-23T05:43:08Z</time>
   </trkpt>
   <trkpt lat="-3.0792590" lon="37.3637820">
    <ele>5657.8</ele>
    <time>2026-06-23T05:43:09Z</time>
   </trkpt>
   <trkpt lat="-3.0792630" lon="37.3637860">
    <ele>5657.6</ele>
    <time>2026-06-23T05:43:10Z</time>
   </trkpt>
   <trkpt lat="-3.0792670" lon="37.3637920">
    <ele>5657.3</ele>
    <time>2026-06-23T05:43:11Z</time>
   </trkpt>
   <trkpt lat="-3.0792750" lon="37.3638020">
    <ele>5656.9</ele>
    <time>2026-06-23T05:43:12Z</time>
   </trkpt>
   <trkpt lat="-3.0792800" lon="37.3638060">
    <ele>5656.7</ele>
    <time>2026-06-23T05:43:13Z</time>
   </trkpt>
   <trkpt lat="-3.0792840" lon="37.3638130">
    <ele>5656.5</ele>
    <time>2026-06-23T05:43:14Z</time>
   </trkpt>
   <trkpt lat="-3.0792880" lon="37.3638190">
    <ele>5656.2</ele>
    <time>2026-06-23T05:43:15Z</time>
   </trkpt>
   <trkpt lat="-3.0792930" lon="37.3638250">
    <ele>5656.0</ele>
    <time>2026-06-23T05:43:16Z</time>
   </trkpt>
   <trkpt lat="-3.0792960" lon="37.3638290">
    <ele>5655.8</ele>
    <time>2026-06-23T05:43:17Z</time>
   </trkpt>
   <trkpt lat="-3.0792990" lon="37.3638350">
    <ele>5655.6</ele>
    <time>2026-06-23T05:43:18Z</time>
   </trkpt>
   <trkpt lat="-3.0793040" lon="37.3638420">
    <ele>5655.3</ele>
    <time>2026-06-23T05:43:19Z</time>
   </trkpt>
   <trkpt lat="-3.0793030" lon="37.3638510">
    <ele>5655.1</ele>
    <time>2026-06-23T05:43:20Z</time>
   </trkpt>
   <trkpt lat="-3.0792940" lon="37.3638600">
    <ele>5654.6</ele>
    <time>2026-06-23T05:43:21Z</time>
   </trkpt>
   <trkpt lat="-3.0792900" lon="37.3638650">
    <ele>5654.4</ele>
    <time>2026-06-23T05:43:22Z</time>
   </trkpt>
   <trkpt lat="-3.0792820" lon="37.3638760">
    <ele>5654.0</ele>
    <time>2026-06-23T05:43:23Z</time>
   </trkpt>
   <trkpt lat="-3.0792770" lon="37.3638820">
    <ele>5653.8</ele>
    <time>2026-06-23T05:43:24Z</time>
   </trkpt>
   <trkpt lat="-3.0792670" lon="37.3638910">
    <ele>5653.3</ele>
    <time>2026-06-23T05:43:25Z</time>
   </trkpt>
   <trkpt lat="-3.0792600" lon="37.3639000">
    <ele>5653.0</ele>
    <time>2026-06-23T05:43:26Z</time>
   </trkpt>
   <trkpt lat="-3.0792550" lon="37.3639060">
    <ele>5652.7</ele>
    <time>2026-06-23T05:43:27Z</time>
   </trkpt>
   <trkpt lat="-3.0792480" lon="37.3639110">
    <ele>5652.4</ele>
    <time>2026-06-23T05:43:28Z</time>
   </trkpt>
   <trkpt lat="-3.0792380" lon="37.3639160">
    <ele>5652.1</ele>
    <time>2026-06-23T05:43:29Z</time>
   </trkpt>
   <trkpt lat="-3.0792320" lon="37.3639240">
    <ele>5651.7</ele>
    <time>2026-06-23T05:43:30Z</time>
   </trkpt>
   <trkpt lat="-3.0792290" lon="37.3639300">
    <ele>5651.5</ele>
    <time>2026-06-23T05:43:31Z</time>
   </trkpt>
   <trkpt lat="-3.0792230" lon="37.3639350">
    <ele>5651.3</ele>
    <time>2026-06-23T05:43:32Z</time>
   </trkpt>
   <trkpt lat="-3.0792200" lon="37.3639430">
    <ele>5651.0</ele>
    <time>2026-06-23T05:43:33Z</time>
   </trkpt>
   <trkpt lat="-3.0792170" lon="37.3639530">
    <ele>5650.6</ele>
    <time>2026-06-23T05:43:34Z</time>
   </trkpt>
   <trkpt lat="-3.0792220" lon="37.3639580">
    <ele>5650.4</ele>
    <time>2026-06-23T05:43:35Z</time>
   </trkpt>
   <trkpt lat="-3.0792230" lon="37.3639660">
    <ele>5650.1</ele>
    <time>2026-06-23T05:43:36Z</time>
   </trkpt>
   <trkpt lat="-3.0792200" lon="37.3639760">
    <ele>5649.8</ele>
    <time>2026-06-23T05:43:37Z</time>
   </trkpt>
   <trkpt lat="-3.0792170" lon="37.3639870">
    <ele>5649.4</ele>
    <time>2026-06-23T05:43:38Z</time>
   </trkpt>
   <trkpt lat="-3.0792170" lon="37.3639940">
    <ele>5649.2</ele>
    <time>2026-06-23T05:43:39Z</time>
   </trkpt>
   <trkpt lat="-3.0792190" lon="37.3640010">
    <ele>5648.9</ele>
    <time>2026-06-23T05:43:40Z</time>
   </trkpt>
   <trkpt lat="-3.0792260" lon="37.3640090">
    <ele>5648.6</ele>
    <time>2026-06-23T05:43:41Z</time>
   </trkpt>
   <trkpt lat="-3.0792310" lon="37.3640130">
    <ele>5648.4</ele>
    <time>2026-06-23T05:43:42Z</time>
   </trkpt>
   <trkpt lat="-3.0792360" lon="37.3640120">
    <ele>5648.2</ele>
    <time>2026-06-23T05:43:43Z</time>
   </trkpt>
   <trkpt lat="-3.0792400" lon="37.3640150">
    <ele>5648.0</ele>
    <time>2026-06-23T05:43:44Z</time>
   </trkpt>
   <trkpt lat="-3.0792430" lon="37.3640140">
    <ele>5647.9</ele>
    <time>2026-06-23T05:43:45Z</time>
   </trkpt>
   <trkpt lat="-3.0792500" lon="37.3640200">
    <ele>5647.6</ele>
    <time>2026-06-23T05:43:46Z</time>
   </trkpt>
   <trkpt lat="-3.0792560" lon="37.3640260">
    <ele>5647.3</ele>
    <time>2026-06-23T05:43:47Z</time>
   </trkpt>
   <trkpt lat="-3.0792590" lon="37.3640340">
    <ele>5647.0</ele>
    <time>2026-06-23T05:43:48Z</time>
   </trkpt>
   <trkpt lat="-3.0792600" lon="37.3640360">
    <ele>5646.9</ele>
    <time>2026-06-23T05:43:49Z</time>
   </trkpt>
   <trkpt lat="-3.0792630" lon="37.3640420">
    <ele>5646.7</ele>
    <time>2026-06-23T05:43:50Z</time>
   </trkpt>
   <trkpt lat="-3.0792690" lon="37.3640470">
    <ele>5646.4</ele>
    <time>2026-06-23T05:43:51Z</time>
   </trkpt>
   <trkpt lat="-3.0792770" lon="37.3640480">
    <ele>5646.1</ele>
    <time>2026-06-23T05:43:52Z</time>
   </trkpt>
   <trkpt lat="-3.0792850" lon="37.3640490">
    <ele>5645.8</ele>
    <time>2026-06-23T05:43:53Z</time>
   </trkpt>
   <trkpt lat="-3.0792920" lon="37.3640530">
    <ele>5645.6</ele>
    <time>2026-06-23T05:43:54Z</time>
   </trkpt>
   <trkpt lat="-3.0792920" lon="37.3640610">
    <ele>5645.3</ele>
    <time>2026-06-23T05:43:55Z</time>
   </trkpt>
   <trkpt lat="-3.0792920" lon="37.3640690">
    <ele>5645.0</ele>
    <time>2026-06-23T05:43:56Z</time>
   </trkpt>
   <trkpt lat="-3.0792900" lon="37.3640770">
    <ele>5644.7</ele>
    <time>2026-06-23T05:43:57Z</time>
   </trkpt>
   <trkpt lat="-3.0792900" lon="37.3640870">
    <ele>5644.4</ele>
    <time>2026-06-23T05:43:58Z</time>
   </trkpt>
   <trkpt lat="-3.0792920" lon="37.3640930">
    <ele>5644.1</ele>
    <time>2026-06-23T05:43:59Z</time>
   </trkpt>
   <trkpt lat="-3.0792960" lon="37.3640920">
    <ele>5644.0</ele>
    <time>2026-06-23T05:44:00Z</time>
   </trkpt>
   <trkpt lat="-3.0793050" lon="37.3640960">
    <ele>5643.7</ele>
    <time>2026-06-23T05:44:01Z</time>
   </trkpt>
   <trkpt lat="-3.0793120" lon="37.3641010">
    <ele>5643.4</ele>
    <time>2026-06-23T05:44:02Z</time>
   </trkpt>
   <trkpt lat="-3.0793170" lon="37.3641040">
    <ele>5643.2</ele>
    <time>2026-06-23T05:44:03Z</time>
   </trkpt>
   <trkpt lat="-3.0793220" lon="37.3641070">
    <ele>5643.0</ele>
    <time>2026-06-23T05:44:04Z</time>
   </trkpt>
   <trkpt lat="-3.0793280" lon="37.3641110">
    <ele>5642.7</ele>
    <time>2026-06-23T05:44:05Z</time>
   </trkpt>
   <trkpt lat="-3.0793320" lon="37.3641170">
    <ele>5642.5</ele>
    <time>2026-06-23T05:44:06Z</time>
   </trkpt>
   <trkpt lat="-3.0793300" lon="37.3641220">
    <ele>5642.3</ele>
    <time>2026-06-23T05:44:08Z</time>
   </trkpt>
   <trkpt lat="-3.0793350" lon="37.3641340">
    <ele>5641.8</ele>
    <time>2026-06-23T05:44:09Z</time>
   </trkpt>
   <trkpt lat="-3.0793380" lon="37.3641430">
    <ele>5641.5</ele>
    <time>2026-06-23T05:44:10Z</time>
   </trkpt>
   <trkpt lat="-3.0793430" lon="37.3641480">
    <ele>5641.2</ele>
    <time>2026-06-23T05:44:11Z</time>
   </trkpt>
   <trkpt lat="-3.0793470" lon="37.3641530">
    <ele>5641.0</ele>
    <time>2026-06-23T05:44:12Z</time>
   </trkpt>
   <trkpt lat="-3.0793510" lon="37.3641580">
    <ele>5640.8</ele>
    <time>2026-06-23T05:44:13Z</time>
   </trkpt>
   <trkpt lat="-3.0793600" lon="37.3641680">
    <ele>5640.3</ele>
    <time>2026-06-23T05:44:14Z</time>
   </trkpt>
   <trkpt lat="-3.0793630" lon="37.3641740">
    <ele>5640.1</ele>
    <time>2026-06-23T05:44:15Z</time>
   </trkpt>
   <trkpt lat="-3.0793670" lon="37.3641830">
    <ele>5639.8</ele>
    <time>2026-06-23T05:44:16Z</time>
   </trkpt>
   <trkpt lat="-3.0793720" lon="37.3641900">
    <ele>5639.5</ele>
    <time>2026-06-23T05:44:17Z</time>
   </trkpt>
   <trkpt lat="-3.0793780" lon="37.3641960">
    <ele>5639.2</ele>
    <time>2026-06-23T05:44:18Z</time>
   </trkpt>
   <trkpt lat="-3.0793790" lon="37.3642030">
    <ele>5638.9</ele>
    <time>2026-06-23T05:44:19Z</time>
   </trkpt>
   <trkpt lat="-3.0793770" lon="37.3642100">
    <ele>5638.7</ele>
    <time>2026-06-23T05:44:20Z</time>
   </trkpt>
   <trkpt lat="-3.0793740" lon="37.3642180">
    <ele>5638.4</ele>
    <time>2026-06-23T05:44:21Z</time>
   </trkpt>
   <trkpt lat="-3.0793710" lon="37.3642240">
    <ele>5638.1</ele>
    <time>2026-06-23T05:44:22Z</time>
   </trkpt>
   <trkpt lat="-3.0793680" lon="37.3642320">
    <ele>5637.8</ele>
    <time>2026-06-23T05:44:23Z</time>
   </trkpt>
   <trkpt lat="-3.0793640" lon="37.3642410">
    <ele>5637.5</ele>
    <time>2026-06-23T05:44:24Z</time>
   </trkpt>
   <trkpt lat="-3.0793590" lon="37.3642520">
    <ele>5637.1</ele>
    <time>2026-06-23T05:44:25Z</time>
   </trkpt>
   <trkpt lat="-3.0793580" lon="37.3642610">
    <ele>5636.8</ele>
    <time>2026-06-23T05:44:26Z</time>
   </trkpt>
   <trkpt lat="-3.0793550" lon="37.3642700">
    <ele>5636.4</ele>
    <time>2026-06-23T05:44:27Z</time>
   </trkpt>
   <trkpt lat="-3.0793530" lon="37.3642760">
    <ele>5636.2</ele>
    <time>2026-06-23T05:44:28Z</time>
   </trkpt>
   <trkpt lat="-3.0793510" lon="37.3642830">
    <ele>5636.0</ele>
    <time>2026-06-23T05:44:29Z</time>
   </trkpt>
   <trkpt lat="-3.0793500" lon="37.3642900">
    <ele>5635.7</ele>
    <time>2026-06-23T05:44:30Z</time>
   </trkpt>
   <trkpt lat="-3.0793470" lon="37.3642980">
    <ele>5635.4</ele>
    <time>2026-06-23T05:44:31Z</time>
   </trkpt>
   <trkpt lat="-3.0793450" lon="37.3643070">
    <ele>5635.1</ele>
    <time>2026-06-23T05:44:32Z</time>
   </trkpt>
   <trkpt lat="-3.0793440" lon="37.3643170">
    <ele>5634.8</ele>
    <time>2026-06-23T05:44:33Z</time>
   </trkpt>
   <trkpt lat="-3.0793410" lon="37.3643250">
    <ele>5634.5</ele>
    <time>2026-06-23T05:44:34Z</time>
   </trkpt>
   <trkpt lat="-3.0793410" lon="37.3643320">
    <ele>5634.2</ele>
    <time>2026-06-23T05:44:35Z</time>
   </trkpt>
   <trkpt lat="-3.0793470" lon="37.3643460">
    <ele>5633.7</ele>
    <time>2026-06-23T05:44:36Z</time>
   </trkpt>
   <trkpt lat="-3.0793530" lon="37.3643510">
    <ele>5633.4</ele>
    <time>2026-06-23T05:44:37Z</time>
   </trkpt>
   <trkpt lat="-3.0793660" lon="37.3643670">
    <ele>5632.7</ele>
    <time>2026-06-23T05:44:38Z</time>
   </trkpt>
   <trkpt lat="-3.0793720" lon="37.3643710">
    <ele>5632.5</ele>
    <time>2026-06-23T05:44:39Z</time>
   </trkpt>
   <trkpt lat="-3.0793810" lon="37.3643750">
    <ele>5632.1</ele>
    <time>2026-06-23T05:44:40Z</time>
   </trkpt>
   <trkpt lat="-3.0793900" lon="37.3643790">
    <ele>5631.8</ele>
    <time>2026-06-23T05:44:41Z</time>
   </trkpt>
   <trkpt lat="-3.0794000" lon="37.3643760">
    <ele>5631.4</ele>
    <time>2026-06-23T05:44:42Z</time>
   </trkpt>
   <trkpt lat="-3.0794020" lon="37.3643710">
    <ele>5631.3</ele>
    <time>2026-06-23T05:44:43Z</time>
   </trkpt>
   <trkpt lat="-3.0794040" lon="37.3643660">
    <ele>5631.1</ele>
    <time>2026-06-23T05:44:44Z</time>
   </trkpt>
   <trkpt lat="-3.0794090" lon="37.3643630">
    <ele>5630.9</ele>
    <time>2026-06-23T05:44:45Z</time>
   </trkpt>
   <trkpt lat="-3.0794130" lon="37.3643670">
    <ele>5630.7</ele>
    <time>2026-06-23T05:44:46Z</time>
   </trkpt>
   <trkpt lat="-3.0794190" lon="37.3643730">
    <ele>5630.4</ele>
    <time>2026-06-23T05:44:47Z</time>
   </trkpt>
   <trkpt lat="-3.0794240" lon="37.3643790">
    <ele>5630.1</ele>
    <time>2026-06-23T05:44:48Z</time>
   </trkpt>
   <trkpt lat="-3.0794310" lon="37.3643870">
    <ele>5629.8</ele>
    <time>2026-06-23T05:44:49Z</time>
   </trkpt>
   <trkpt lat="-3.0794350" lon="37.3643870">
    <ele>5629.6</ele>
    <time>2026-06-23T05:44:50Z</time>
   </trkpt>
   <trkpt lat="-3.0794430" lon="37.3643850">
    <ele>5629.3</ele>
    <time>2026-06-23T05:44:51Z</time>
   </trkpt>
   <trkpt lat="-3.0794520" lon="37.3643810">
    <ele>5629.0</ele>
    <time>2026-06-23T05:44:52Z</time>
   </trkpt>
   <trkpt lat="-3.0794590" lon="37.3643780">
    <ele>5628.7</ele>
    <time>2026-06-23T05:44:53Z</time>
   </trkpt>
   <trkpt lat="-3.0794660" lon="37.3643760">
    <ele>5628.5</ele>
    <time>2026-06-23T05:44:54Z</time>
   </trkpt>
   <trkpt lat="-3.0794740" lon="37.3643760">
    <ele>5628.2</ele>
    <time>2026-06-23T05:44:55Z</time>
   </trkpt>
   <trkpt lat="-3.0794770" lon="37.3643790">
    <ele>5628.0</ele>
    <time>2026-06-23T05:44:56Z</time>
   </trkpt>
   <trkpt lat="-3.0794760" lon="37.3643850">
    <ele>5627.8</ele>
    <time>2026-06-23T05:44:57Z</time>
   </trkpt>
   <trkpt lat="-3.0794760" lon="37.3643940">
    <ele>5627.5</ele>
    <time>2026-06-23T05:44:58Z</time>
   </trkpt>
   <trkpt lat="-3.0794700" lon="37.3644020">
    <ele>5627.1</ele>
    <time>2026-06-23T05:44:59Z</time>
   </trkpt>
   <trkpt lat="-3.0794690" lon="37.3644090">
    <ele>5626.9</ele>
    <time>2026-06-23T05:45:00Z</time>
   </trkpt>
   <trkpt lat="-3.0794730" lon="37.3644140">
    <ele>5626.7</ele>
    <time>2026-06-23T05:45:01Z</time>
   </trkpt>
   <trkpt lat="-3.0794810" lon="37.3644150">
    <ele>5626.4</ele>
    <time>2026-06-23T05:45:02Z</time>
   </trkpt>
   <trkpt lat="-3.0794860" lon="37.3644130">
    <ele>5626.2</ele>
    <time>2026-06-23T05:45:03Z</time>
   </trkpt>
   <trkpt lat="-3.0794930" lon="37.3644120">
    <ele>5625.9</ele>
    <time>2026-06-23T05:45:04Z</time>
   </trkpt>
   <trkpt lat="-3.0794980" lon="37.3644120">
    <ele>5625.7</ele>
    <time>2026-06-23T05:45:05Z</time>
   </trkpt>
   <trkpt lat="-3.0794990" lon="37.3644120">
    <ele>5625.7</ele>
    <time>2026-06-23T05:45:06Z</time>
   </trkpt>
   <trkpt lat="-3.0795000" lon="37.3644140">
    <ele>5625.6</ele>
    <time>2026-06-23T05:45:07Z</time>
   </trkpt>
   <trkpt lat="-3.0795020" lon="37.3644200">
    <ele>5625.4</ele>
    <time>2026-06-23T05:45:08Z</time>
   </trkpt>
   <trkpt lat="-3.0795070" lon="37.3644240">
    <ele>5625.2</ele>
    <time>2026-06-23T05:45:09Z</time>
   </trkpt>
   <trkpt lat="-3.0795130" lon="37.3644250">
    <ele>5625.0</ele>
    <time>2026-06-23T05:45:10Z</time>
   </trkpt>
   <trkpt lat="-3.0795170" lon="37.3644290">
    <ele>5624.8</ele>
    <time>2026-06-23T05:45:11Z</time>
   </trkpt>
   <trkpt lat="-3.0795230" lon="37.3644330">
    <ele>5624.5</ele>
    <time>2026-06-23T05:45:12Z</time>
   </trkpt>
   <trkpt lat="-3.0795280" lon="37.3644330">
    <ele>5624.3</ele>
    <time>2026-06-23T05:45:13Z</time>
   </trkpt>
   <trkpt lat="-3.0795330" lon="37.3644390">
    <ele>5624.0</ele>
    <time>2026-06-23T05:45:14Z</time>
   </trkpt>
   <trkpt lat="-3.0795330" lon="37.3644430">
    <ele>5623.9</ele>
    <time>2026-06-23T05:45:15Z</time>
   </trkpt>
   <trkpt lat="-3.0795330" lon="37.3644500">
    <ele>5623.6</ele>
    <time>2026-06-23T05:45:16Z</time>
   </trkpt>
   <trkpt lat="-3.0795320" lon="37.3644580">
    <ele>5623.4</ele>
    <time>2026-06-23T05:45:17Z</time>
   </trkpt>
   <trkpt lat="-3.0795290" lon="37.3644660">
    <ele>5623.0</ele>
    <time>2026-06-23T05:45:18Z</time>
   </trkpt>
   <trkpt lat="-3.0795270" lon="37.3644760">
    <ele>5622.7</ele>
    <time>2026-06-23T05:45:19Z</time>
   </trkpt>
   <trkpt lat="-3.0795230" lon="37.3644830">
    <ele>5622.4</ele>
    <time>2026-06-23T05:45:20Z</time>
   </trkpt>
   <trkpt lat="-3.0795200" lon="37.3644870">
    <ele>5622.2</ele>
    <time>2026-06-23T05:45:21Z</time>
   </trkpt>
   <trkpt lat="-3.0795170" lon="37.3644980">
    <ele>5621.8</ele>
    <time>2026-06-23T05:45:22Z</time>
   </trkpt>
   <trkpt lat="-3.0795190" lon="37.3645030">
    <ele>5621.6</ele>
    <time>2026-06-23T05:45:23Z</time>
   </trkpt>
   <trkpt lat="-3.0795210" lon="37.3645010">
    <ele>5621.5</ele>
    <time>2026-06-23T05:45:24Z</time>
   </trkpt>
   <trkpt lat="-3.0795230" lon="37.3645000">
    <ele>5621.4</ele>
    <time>2026-06-23T05:45:25Z</time>
   </trkpt>
   <trkpt lat="-3.0795240" lon="37.3645000">
    <ele>5621.4</ele>
    <time>2026-06-23T05:45:26Z</time>
   </trkpt>
   <trkpt lat="-3.0795230" lon="37.3645000">
    <ele>5621.4</ele>
    <time>2026-06-23T05:45:27Z</time>
   </trkpt>
   <trkpt lat="-3.0795230" lon="37.3645010">
    <ele>5621.3</ele>
    <time>2026-06-23T05:45:28Z</time>
   </trkpt>
   <trkpt lat="-3.0795230" lon="37.3645000">
    <ele>5621.3</ele>
    <time>2026-06-23T05:45:29Z</time>
   </trkpt>
   <trkpt lat="-3.0795240" lon="37.3644990">
    <ele>5621.2</ele>
    <time>2026-06-23T05:45:30Z</time>
   </trkpt>
   <trkpt lat="-3.0795240" lon="37.3645000">
    <ele>5621.2</ele>
    <time>2026-06-23T05:45:31Z</time>
   </trkpt>
   <trkpt lat="-3.0795240" lon="37.3645040">
    <ele>5621.1</ele>
    <time>2026-06-23T05:45:32Z</time>
   </trkpt>
   <trkpt lat="-3.0795260" lon="37.3645000">
    <ele>5620.9</ele>
    <time>2026-06-23T05:45:33Z</time>
   </trkpt>
   <trkpt lat="-3.0795260" lon="37.3644980">
    <ele>5620.8</ele>
    <time>2026-06-23T05:45:34Z</time>
   </trkpt>
   <trkpt lat="-3.0795250" lon="37.3644990">
    <ele>5620.8</ele>
    <time>2026-06-23T05:45:35Z</time>
   </trkpt>
   <trkpt lat="-3.0795250" lon="37.3644990">
    <ele>5620.8</ele>
    <time>2026-06-23T05:45:36Z</time>
   </trkpt>
   <trkpt lat="-3.0795260" lon="37.3644990">
    <ele>5620.7</ele>
    <time>2026-06-23T05:45:37Z</time>
   </trkpt>
   <trkpt lat="-3.0795270" lon="37.3644990">
    <ele>5620.7</ele>
    <time>2026-06-23T05:45:38Z</time>
   </trkpt>
   <trkpt lat="-3.0795250" lon="37.3644990">
    <ele>5620.6</ele>
    <time>2026-06-23T05:45:39Z</time>
   </trkpt>
   <trkpt lat="-3.0795260" lon="37.3645000">
    <ele>5620.6</ele>
    <time>2026-06-23T05:45:40Z</time>
   </trkpt>
   <trkpt lat="-3.0795260" lon="37.3645010">
    <ele>5620.5</ele>
    <time>2026-06-23T05:45:41Z</time>
   </trkpt>
   <trkpt lat="-3.0795260" lon="37.3645000">
    <ele>5620.5</ele>
    <time>2026-06-23T05:45:42Z</time>
   </trkpt>
   <trkpt lat="-3.0795260" lon="37.3645000">
    <ele>5620.5</ele>
    <time>2026-06-23T05:45:43Z</time>
   </trkpt>
   <trkpt lat="-3.0795260" lon="37.3645000">
    <ele>5620.5</ele>
    <time>2026-06-23T05:45:44Z</time>
   </trkpt>
   <trkpt lat="-3.0795270" lon="37.3645000">
    <ele>5620.5</ele>
    <time>2026-06-23T05:45:45Z</time>
   </trkpt>
   <trkpt lat="-3.0795270" lon="37.3645000">
    <ele>5620.5</ele>
    <time>2026-06-23T05:45:46Z</time>
   </trkpt>
   <trkpt lat="-3.0795270" lon="37.3645000">
    <ele>5620.5</ele>
    <time>2026-06-23T05:45:47Z</time>
   </trkpt>
   <trkpt lat="-3.0795280" lon="37.3645000">
    <ele>5620.4</ele>
    <time>2026-06-23T05:45:48Z</time>
   </trkpt>
   <trkpt lat="-3.0795280" lon="37.3645010">
    <ele>5620.4</ele>
    <time>2026-06-23T05:45:49Z</time>
   </trkpt>
   <trkpt lat="-3.0795290" lon="37.3645010">
    <ele>5620.4</ele>
    <time>2026-06-23T05:45:50Z</time>
   </trkpt>
   <trkpt lat="-3.0795280" lon="37.3645020">
    <ele>5620.3</ele>
    <time>2026-06-23T05:45:51Z</time>
   </trkpt>
   <trkpt lat="-3.0795290" lon="37.3645020">
    <ele>5620.3</ele>
    <time>2026-06-23T05:45:52Z</time>
   </trkpt>
   <trkpt lat="-3.0795290" lon="37.3645010">
    <ele>5620.2</ele>
    <time>2026-06-23T05:45:53Z</time>
   </trkpt>
   <trkpt lat="-3.0795290" lon="37.3645010">
    <ele>5620.2</ele>
    <time>2026-06-23T05:45:54Z</time>
   </trkpt>
   <trkpt lat="-3.0795280" lon="37.3645020">
    <ele>5620.2</ele>
    <time>2026-06-23T05:45:55Z</time>
   </trkpt>
   <trkpt lat="-3.0795290" lon="37.3645030">
    <ele>5620.1</ele>
    <time>2026-06-23T05:45:56Z</time>
   </trkpt>
   <trkpt lat="-3.0795280" lon="37.3645020">
    <ele>5620.1</ele>
    <time>2026-06-23T05:45:57Z</time>
   </trkpt>
   <trkpt lat="-3.0795290" lon="37.3645030">
    <ele>5620.0</ele>
    <time>2026-06-23T05:45:58Z</time>
   </trkpt>
   <trkpt lat="-3.0795290" lon="37.3645030">
    <ele>5620.0</ele>
    <time>2026-06-23T05:45:59Z</time>
   </trkpt>
   <trkpt lat="-3.0795290" lon="37.3645030">
    <ele>5620.0</ele>
    <time>2026-06-23T05:46:00Z</time>
   </trkpt>
   <trkpt lat="-3.0795290" lon="37.3645030">
    <ele>5620.0</ele>
    <time>2026-06-23T05:46:01Z</time>
   </trkpt>
   <trkpt lat="-3.0795290" lon="37.3645030">
    <ele>5620.0</ele>
    <time>2026-06-23T05:46:02Z</time>
   </trkpt>
   <trkpt lat="-3.0795290" lon="37.3645020">
    <ele>5620.0</ele>
    <time>2026-06-23T05:46:03Z</time>
   </trkpt>
   <trkpt lat="-3.0795300" lon="37.3645020">
    <ele>5620.0</ele>
    <time>2026-06-23T05:46:04Z</time>
   </trkpt>
   <trkpt lat="-3.0795290" lon="37.3645030">
    <ele>5619.9</ele>
    <time>2026-06-23T05:46:05Z</time>
   </trkpt>
   <trkpt lat="-3.0795300" lon="37.3645040">
    <ele>5619.9</ele>
    <time>2026-06-23T05:46:06Z</time>
   </trkpt>
   <trkpt lat="-3.0795300" lon="37.3645030">
    <ele>5619.8</ele>
    <time>2026-06-23T05:46:07Z</time>
   </trkpt>
   <trkpt lat="-3.0795300" lon="37.3645030">
    <ele>5619.8</ele>
    <time>2026-06-23T05:46:08Z</time>
   </trkpt>
   <trkpt lat="-3.0795310" lon="37.3645020">
    <ele>5619.8</ele>
    <time>2026-06-23T05:46:09Z</time>
   </trkpt>
   <trkpt lat="-3.0795310" lon="37.3645020">
    <ele>5619.8</ele>
    <time>2026-06-23T05:46:10Z</time>
   </trkpt>
   <trkpt lat="-3.0795310" lon="37.3645030">
    <ele>5619.7</ele>
    <time>2026-06-23T05:46:11Z</time>
   </trkpt>
   <trkpt lat="-3.0795310" lon="37.3645030">
    <ele>5619.7</ele>
    <time>2026-06-23T05:46:13Z</time>
   </trkpt>
   <trkpt lat="-3.0795330" lon="37.3645050">
    <ele>5619.6</ele>
    <time>2026-06-23T05:46:14Z</time>
   </trkpt>
   <trkpt lat="-3.0795390" lon="37.3645050">
    <ele>5619.4</ele>
    <time>2026-06-23T05:46:15Z</time>
   </trkpt>
   <trkpt lat="-3.0795450" lon="37.3645060">
    <ele>5619.2</ele>
    <time>2026-06-23T05:46:16Z</time>
   </trkpt>
   <trkpt lat="-3.0795530" lon="37.3645040">
    <ele>5618.9</ele>
    <time>2026-06-23T05:46:17Z</time>
   </trkpt>
   <trkpt lat="-3.0795600" lon="37.3645020">
    <ele>5618.7</ele>
    <time>2026-06-23T05:46:18Z</time>
   </trkpt>
   <trkpt lat="-3.0795660" lon="37.3645050">
    <ele>5618.4</ele>
    <time>2026-06-23T05:46:19Z</time>
   </trkpt>
   <trkpt lat="-3.0795740" lon="37.3645130">
    <ele>5618.0</ele>
    <time>2026-06-23T05:46:20Z</time>
   </trkpt>
   <trkpt lat="-3.0795840" lon="37.3645140">
    <ele>5617.7</ele>
    <time>2026-06-23T05:46:21Z</time>
   </trkpt>
   <trkpt lat="-3.0795910" lon="37.3645150">
    <ele>5617.4</ele>
    <time>2026-06-23T05:46:22Z</time>
   </trkpt>
   <trkpt lat="-3.0796000" lon="37.3645170">
    <ele>5617.1</ele>
    <time>2026-06-23T05:46:23Z</time>
   </trkpt>
   <trkpt lat="-3.0796090" lon="37.3645180">
    <ele>5616.8</ele>
    <time>2026-06-23T05:46:24Z</time>
   </trkpt>
   <trkpt lat="-3.0796190" lon="37.3645180">
    <ele>5616.4</ele>
    <time>2026-06-23T05:46:25Z</time>
   </trkpt>
   <trkpt lat="-3.0796260" lon="37.3645170">
    <ele>5616.2</ele>
    <time>2026-06-23T05:46:26Z</time>
   </trkpt>
   <trkpt lat="-3.0796280" lon="37.3645230">
    <ele>5616.0</ele>
    <time>2026-06-23T05:46:27Z</time>
   </trkpt>
   <trkpt lat="-3.0796290" lon="37.3645300">
    <ele>5615.7</ele>
    <time>2026-06-23T05:46:28Z</time>
   </trkpt>
   <trkpt lat="-3.0796280" lon="37.3645370">
    <ele>5615.5</ele>
    <time>2026-06-23T05:46:29Z</time>
   </trkpt>
   <trkpt lat="-3.0796240" lon="37.3645460">
    <ele>5615.1</ele>
    <time>2026-06-23T05:46:30Z</time>
   </trkpt>
   <trkpt lat="-3.0796190" lon="37.3645520">
    <ele>5614.8</ele>
    <time>2026-06-23T05:46:31Z</time>
   </trkpt>
   <trkpt lat="-3.0796140" lon="37.3645600">
    <ele>5614.5</ele>
    <time>2026-06-23T05:46:32Z</time>
   </trkpt>
   <trkpt lat="-3.0796080" lon="37.3645720">
    <ele>5614.0</ele>
    <time>2026-06-23T05:46:33Z</time>
   </trkpt>
   <trkpt lat="-3.0796060" lon="37.3645830">
    <ele>5613.7</ele>
    <time>2026-06-23T05:46:34Z</time>
   </trkpt>
   <trkpt lat="-3.0796020" lon="37.3645900">
    <ele>5613.4</ele>
    <time>2026-06-23T05:46:35Z</time>
   </trkpt>
   <trkpt lat="-3.0795980" lon="37.3645980">
    <ele>5613.1</ele>
    <time>2026-06-23T05:46:36Z</time>
   </trkpt>
   <trkpt lat="-3.0795960" lon="37.3646100">
    <ele>5612.6</ele>
    <time>2026-06-23T05:46:37Z</time>
   </trkpt>
   <trkpt lat="-3.0795940" lon="37.3646200">
    <ele>5612.3</ele>
    <time>2026-06-23T05:46:38Z</time>
   </trkpt>
   <trkpt lat="-3.0796000" lon="37.3646360">
    <ele>5611.7</ele>
    <time>2026-06-23T05:46:39Z</time>
   </trkpt>
   <trkpt lat="-3.0796100" lon="37.3646370">
    <ele>5611.4</ele>
    <time>2026-06-23T05:46:40Z</time>
   </trkpt>
   <trkpt lat="-3.0796230" lon="37.3646350">
    <ele>5610.9</ele>
    <time>2026-06-23T05:46:41Z</time>
   </trkpt>
   <trkpt lat="-3.0796330" lon="37.3646350">
    <ele>5610.6</ele>
    <time>2026-06-23T05:46:42Z</time>
   </trkpt>
   <trkpt lat="-3.0796410" lon="37.3646340">
    <ele>5610.4</ele>
    <time>2026-06-23T05:46:43Z</time>
   </trkpt>
   <trkpt lat="-3.0796520" lon="37.3646400">
    <ele>5610.0</ele>
    <time>2026-06-23T05:46:44Z</time>
   </trkpt>
   <trkpt lat="-3.0796640" lon="37.3646450">
    <ele>5609.5</ele>
    <time>2026-06-23T05:46:45Z</time>
   </trkpt>
   <trkpt lat="-3.0796670" lon="37.3646450">
    <ele>5609.4</ele>
    <time>2026-06-23T05:46:46Z</time>
   </trkpt>
   <trkpt lat="-3.0796740" lon="37.3646510">
    <ele>5609.1</ele>
    <time>2026-06-23T05:46:47Z</time>
   </trkpt>
   <trkpt lat="-3.0796780" lon="37.3646600">
    <ele>5608.8</ele>
    <time>2026-06-23T05:46:48Z</time>
   </trkpt>
   <trkpt lat="-3.0796820" lon="37.3646680">
    <ele>5608.5</ele>
    <time>2026-06-23T05:46:49Z</time>
   </trkpt>
   <trkpt lat="-3.0796860" lon="37.3646770">
    <ele>5608.2</ele>
    <time>2026-06-23T05:46:50Z</time>
   </trkpt>
   <trkpt lat="-3.0796920" lon="37.3646910">
    <ele>5607.7</ele>
    <time>2026-06-23T05:46:51Z</time>
   </trkpt>
   <trkpt lat="-3.0796930" lon="37.3647040">
    <ele>5607.3</ele>
    <time>2026-06-23T05:46:52Z</time>
   </trkpt>
   <trkpt lat="-3.0796920" lon="37.3647150">
    <ele>5607.0</ele>
    <time>2026-06-23T05:46:53Z</time>
   </trkpt>
   <trkpt lat="-3.0796900" lon="37.3647260">
    <ele>5606.6</ele>
    <time>2026-06-23T05:46:54Z</time>
   </trkpt>
   <trkpt lat="-3.0796940" lon="37.3647350">
    <ele>5606.3</ele>
    <time>2026-06-23T05:46:55Z</time>
   </trkpt>
   <trkpt lat="-3.0797000" lon="37.3647420">
    <ele>5606.0</ele>
    <time>2026-06-23T05:46:56Z</time>
   </trkpt>
   <trkpt lat="-3.0797080" lon="37.3647530">
    <ele>5605.6</ele>
    <time>2026-06-23T05:46:57Z</time>
   </trkpt>
   <trkpt lat="-3.0797140" lon="37.3647620">
    <ele>5605.2</ele>
    <time>2026-06-23T05:46:58Z</time>
   </trkpt>
   <trkpt lat="-3.0797240" lon="37.3647660">
    <ele>5604.9</ele>
    <time>2026-06-23T05:46:59Z</time>
   </trkpt>
   <trkpt lat="-3.0797340" lon="37.3647650">
    <ele>5604.6</ele>
    <time>2026-06-23T05:47:00Z</time>
   </trkpt>
   <trkpt lat="-3.0797450" lon="37.3647630">
    <ele>5604.2</ele>
    <time>2026-06-23T05:47:01Z</time>
   </trkpt>
   <trkpt lat="-3.0797570" lon="37.3647610">
    <ele>5603.8</ele>
    <time>2026-06-23T05:47:02Z</time>
   </trkpt>
   <trkpt lat="-3.0797680" lon="37.3647630">
    <ele>5603.5</ele>
    <time>2026-06-23T05:47:03Z</time>
   </trkpt>
   <trkpt lat="-3.0797760" lon="37.3647660">
    <ele>5603.2</ele>
    <time>2026-06-23T05:47:04Z</time>
   </trkpt>
   <trkpt lat="-3.0797860" lon="37.3647680">
    <ele>5602.9</ele>
    <time>2026-06-23T05:47:05Z</time>
   </trkpt>
   <trkpt lat="-3.0797960" lon="37.3647700">
    <ele>5602.6</ele>
    <time>2026-06-23T05:47:06Z</time>
   </trkpt>
   <trkpt lat="-3.0798060" lon="37.3647710">
    <ele>5602.3</ele>
    <time>2026-06-23T05:47:07Z</time>
   </trkpt>
   <trkpt lat="-3.0798140" lon="37.3647710">
    <ele>5602.0</ele>
    <time>2026-06-23T05:47:08Z</time>
   </trkpt>
   <trkpt lat="-3.0798130" lon="37.3647740">
    <ele>5601.9</ele>
    <time>2026-06-23T05:47:09Z</time>
   </trkpt>
   <trkpt lat="-3.0798030" lon="37.3647830">
    <ele>5601.5</ele>
    <time>2026-06-23T05:47:10Z</time>
   </trkpt>
   <trkpt lat="-3.0797960" lon="37.3647940">
    <ele>5601.0</ele>
    <time>2026-06-23T05:47:11Z</time>
   </trkpt>
   <trkpt lat="-3.0798000" lon="37.3648030">
    <ele>5600.7</ele>
    <time>2026-06-23T05:47:12Z</time>
   </trkpt>
   <trkpt lat="-3.0798080" lon="37.3648050">
    <ele>5600.5</ele>
    <time>2026-06-23T05:47:13Z</time>
   </trkpt>
   <trkpt lat="-3.0798180" lon="37.3648160">
    <ele>5600.0</ele>
    <time>2026-06-23T05:47:14Z</time>
   </trkpt>
   <trkpt lat="-3.0798200" lon="37.3648240">
    <ele>5599.7</ele>
    <time>2026-06-23T05:47:15Z</time>
   </trkpt>
   <trkpt lat="-3.0798210" lon="37.3648300">
    <ele>5599.5</ele>
    <time>2026-06-23T05:47:16Z</time>
   </trkpt>
   <trkpt lat="-3.0798230" lon="37.3648380">
    <ele>5599.3</ele>
    <time>2026-06-23T05:47:17Z</time>
   </trkpt>
   <trkpt lat="-3.0798200" lon="37.3648450">
    <ele>5599.0</ele>
    <time>2026-06-23T05:47:18Z</time>
   </trkpt>
   <trkpt lat="-3.0798140" lon="37.3648500">
    <ele>5598.8</ele>
    <time>2026-06-23T05:47:19Z</time>
   </trkpt>
   <trkpt lat="-3.0798110" lon="37.3648570">
    <ele>5598.5</ele>
    <time>2026-06-23T05:47:20Z</time>
   </trkpt>
   <trkpt lat="-3.0798040" lon="37.3648670">
    <ele>5598.1</ele>
    <time>2026-06-23T05:47:21Z</time>
   </trkpt>
   <trkpt lat="-3.0797960" lon="37.3648740">
    <ele>5597.8</ele>
    <time>2026-06-23T05:47:22Z</time>
   </trkpt>
   <trkpt lat="-3.0797910" lon="37.3648780">
    <ele>5597.6</ele>
    <time>2026-06-23T05:47:23Z</time>
   </trkpt>
   <trkpt lat="-3.0797860" lon="37.3648840">
    <ele>5597.3</ele>
    <time>2026-06-23T05:47:24Z</time>
   </trkpt>
   <trkpt lat="-3.0797860" lon="37.3648900">
    <ele>5597.1</ele>
    <time>2026-06-23T05:47:25Z</time>
   </trkpt>
   <trkpt lat="-3.0797820" lon="37.3648980">
    <ele>5596.8</ele>
    <time>2026-06-23T05:47:26Z</time>
   </trkpt>
   <trkpt lat="-3.0797750" lon="37.3649020">
    <ele>5596.6</ele>
    <time>2026-06-23T05:47:27Z</time>
   </trkpt>
   <trkpt lat="-3.0797680" lon="37.3649060">
    <ele>5596.3</ele>
    <time>2026-06-23T05:47:28Z</time>
   </trkpt>
   <trkpt lat="-3.0797620" lon="37.3649110">
    <ele>5596.1</ele>
    <time>2026-06-23T05:47:29Z</time>
   </trkpt>
   <trkpt lat="-3.0797620" lon="37.3649170">
    <ele>5595.9</ele>
    <time>2026-06-23T05:47:30Z</time>
   </trkpt>
   <trkpt lat="-3.0797670" lon="37.3649210">
    <ele>5595.7</ele>
    <time>2026-06-23T05:47:31Z</time>
   </trkpt>
   <trkpt lat="-3.0797700" lon="37.3649270">
    <ele>5595.5</ele>
    <time>2026-06-23T05:47:32Z</time>
   </trkpt>
   <trkpt lat="-3.0797660" lon="37.3649340">
    <ele>5595.2</ele>
    <time>2026-06-23T05:47:33Z</time>
   </trkpt>
   <trkpt lat="-3.0797630" lon="37.3649420">
    <ele>5594.9</ele>
    <time>2026-06-23T05:47:34Z</time>
   </trkpt>
   <trkpt lat="-3.0797620" lon="37.3649430">
    <ele>5594.9</ele>
    <time>2026-06-23T05:47:35Z</time>
   </trkpt>
   <trkpt lat="-3.0797660" lon="37.3649420">
    <ele>5594.8</ele>
    <time>2026-06-23T05:47:36Z</time>
   </trkpt>
   <trkpt lat="-3.0797680" lon="37.3649430">
    <ele>5594.7</ele>
    <time>2026-06-23T05:47:37Z</time>
   </trkpt>
   <trkpt lat="-3.0797760" lon="37.3649520">
    <ele>5594.3</ele>
    <time>2026-06-23T05:47:38Z</time>
   </trkpt>
   <trkpt lat="-3.0797830" lon="37.3649540">
    <ele>5594.1</ele>
    <time>2026-06-23T05:47:39Z</time>
   </trkpt>
   <trkpt lat="-3.0797890" lon="37.3649560">
    <ele>5593.9</ele>
    <time>2026-06-23T05:47:40Z</time>
   </trkpt>
   <trkpt lat="-3.0797940" lon="37.3649580">
    <ele>5593.7</ele>
    <time>2026-06-23T05:47:41Z</time>
   </trkpt>
   <trkpt lat="-3.0798010" lon="37.3649590">
    <ele>5593.5</ele>
    <time>2026-06-23T05:47:42Z</time>
   </trkpt>
   <trkpt lat="-3.0798060" lon="37.3649610">
    <ele>5593.4</ele>
    <time>2026-06-23T05:47:43Z</time>
   </trkpt>
   <trkpt lat="-3.0798110" lon="37.3649610">
    <ele>5593.2</ele>
    <time>2026-06-23T05:47:44Z</time>
   </trkpt>
   <trkpt lat="-3.0798160" lon="37.3649620">
    <ele>5593.1</ele>
    <time>2026-06-23T05:47:45Z</time>
   </trkpt>
   <trkpt lat="-3.0798240" lon="37.3649650">
    <ele>5592.8</ele>
    <time>2026-06-23T05:47:46Z</time>
   </trkpt>
   <trkpt lat="-3.0798270" lon="37.3649670">
    <ele>5592.7</ele>
    <time>2026-06-23T05:47:47Z</time>
   </trkpt>
   <trkpt lat="-3.0798270" lon="37.3649660">
    <ele>5592.7</ele>
    <time>2026-06-23T05:47:48Z</time>
   </trkpt>
   <trkpt lat="-3.0798260" lon="37.3649660">
    <ele>5592.6</ele>
    <time>2026-06-23T05:47:49Z</time>
   </trkpt>
   <trkpt lat="-3.0798270" lon="37.3649660">
    <ele>5592.6</ele>
    <time>2026-06-23T05:47:50Z</time>
   </trkpt>
   <trkpt lat="-3.0798260" lon="37.3649650">
    <ele>5592.6</ele>
    <time>2026-06-23T05:47:51Z</time>
   </trkpt>
   <trkpt lat="-3.0798250" lon="37.3649640">
    <ele>5592.5</ele>
    <time>2026-06-23T05:47:52Z</time>
   </trkpt>
   <trkpt lat="-3.0798210" lon="37.3649670">
    <ele>5592.4</ele>
    <time>2026-06-23T05:47:53Z</time>
   </trkpt>
   <trkpt lat="-3.0798200" lon="37.3649700">
    <ele>5592.3</ele>
    <time>2026-06-23T05:47:54Z</time>
   </trkpt>
   <trkpt lat="-3.0798150" lon="37.3649730">
    <ele>5592.1</ele>
    <time>2026-06-23T05:47:55Z</time>
   </trkpt>
   <trkpt lat="-3.0798140" lon="37.3649740">
    <ele>5592.0</ele>
    <time>2026-06-23T05:47:56Z</time>
   </trkpt>
   <trkpt lat="-3.0798140" lon="37.3649760">
    <ele>5592.0</ele>
    <time>2026-06-23T05:47:57Z</time>
   </trkpt>
   <trkpt lat="-3.0798140" lon="37.3649790">
    <ele>5591.9</ele>
    <time>2026-06-23T05:47:58Z</time>
   </trkpt>
   <trkpt lat="-3.0798190" lon="37.3649830">
    <ele>5591.7</ele>
    <time>2026-06-23T05:47:59Z</time>
   </trkpt>
   <trkpt lat="-3.0798200" lon="37.3649910">
    <ele>5591.5</ele>
    <time>2026-06-23T05:48:00Z</time>
   </trkpt>
   <trkpt lat="-3.0798230" lon="37.3649930">
    <ele>5591.3</ele>
    <time>2026-06-23T05:48:01Z</time>
   </trkpt>
   <trkpt lat="-3.0798280" lon="37.3650010">
    <ele>5591.1</ele>
    <time>2026-06-23T05:48:02Z</time>
   </trkpt>
   <trkpt lat="-3.0798370" lon="37.3650040">
    <ele>5590.8</ele>
    <time>2026-06-23T05:48:03Z</time>
   </trkpt>
   <trkpt lat="-3.0798460" lon="37.3650100">
    <ele>5590.4</ele>
    <time>2026-06-23T05:48:04Z</time>
   </trkpt>
   <trkpt lat="-3.0798520" lon="37.3650150">
    <ele>5590.2</ele>
    <time>2026-06-23T05:48:05Z</time>
   </trkpt>
   <trkpt lat="-3.0798590" lon="37.3650210">
    <ele>5589.9</ele>
    <time>2026-06-23T05:48:06Z</time>
   </trkpt>
   <trkpt lat="-3.0798650" lon="37.3650260">
    <ele>5589.7</ele>
    <time>2026-06-23T05:48:07Z</time>
   </trkpt>
   <trkpt lat="-3.0798700" lon="37.3650300">
    <ele>5589.5</ele>
    <time>2026-06-23T05:48:08Z</time>
   </trkpt>
   <trkpt lat="-3.0798760" lon="37.3650370">
    <ele>5589.2</ele>
    <time>2026-06-23T05:48:09Z</time>
   </trkpt>
   <trkpt lat="-3.0798850" lon="37.3650450">
    <ele>5588.8</ele>
    <time>2026-06-23T05:48:10Z</time>
   </trkpt>
   <trkpt lat="-3.0798890" lon="37.3650510">
    <ele>5588.6</ele>
    <time>2026-06-23T05:48:11Z</time>
   </trkpt>
   <trkpt lat="-3.0798910" lon="37.3650610">
    <ele>5588.3</ele>
    <time>2026-06-23T05:48:12Z</time>
   </trkpt>
   <trkpt lat="-3.0798920" lon="37.3650650">
    <ele>5588.2</ele>
    <time>2026-06-23T05:48:13Z</time>
   </trkpt>
   <trkpt lat="-3.0798900" lon="37.3650750">
    <ele>5587.9</ele>
    <time>2026-06-23T05:48:14Z</time>
   </trkpt>
   <trkpt lat="-3.0798870" lon="37.3650830">
    <ele>5587.6</ele>
    <time>2026-06-23T05:48:15Z</time>
   </trkpt>
   <trkpt lat="-3.0798810" lon="37.3650920">
    <ele>5587.3</ele>
    <time>2026-06-23T05:48:16Z</time>
   </trkpt>
   <trkpt lat="-3.0798740" lon="37.3651000">
    <ele>5587.0</ele>
    <time>2026-06-23T05:48:17Z</time>
   </trkpt>
   <trkpt lat="-3.0798700" lon="37.3651110">
    <ele>5586.6</ele>
    <time>2026-06-23T05:48:19Z</time>
   </trkpt>
   <trkpt lat="-3.0798590" lon="37.3651190">
    <ele>5586.2</ele>
    <time>2026-06-23T05:48:20Z</time>
   </trkpt>
   <trkpt lat="-3.0798480" lon="37.3651290">
    <ele>5585.7</ele>
    <time>2026-06-23T05:48:21Z</time>
   </trkpt>
   <trkpt lat="-3.0798390" lon="37.3651340">
    <ele>5585.4</ele>
    <time>2026-06-23T05:48:22Z</time>
   </trkpt>
   <trkpt lat="-3.0798360" lon="37.3651430">
    <ele>5585.1</ele>
    <time>2026-06-23T05:48:23Z</time>
   </trkpt>
   <trkpt lat="-3.0798390" lon="37.3651550">
    <ele>5584.7</ele>
    <time>2026-06-23T05:48:24Z</time>
   </trkpt>
   <trkpt lat="-3.0798450" lon="37.3651670">
    <ele>5584.2</ele>
    <time>2026-06-23T05:48:25Z</time>
   </trkpt>
   <trkpt lat="-3.0798510" lon="37.3651760">
    <ele>5583.9</ele>
    <time>2026-06-23T05:48:26Z</time>
   </trkpt>
   <trkpt lat="-3.0798600" lon="37.3651840">
    <ele>5583.5</ele>
    <time>2026-06-23T05:48:27Z</time>
   </trkpt>
   <trkpt lat="-3.0798680" lon="37.3651890">
    <ele>5583.2</ele>
    <time>2026-06-23T05:48:28Z</time>
   </trkpt>
   <trkpt lat="-3.0798690" lon="37.3651930">
    <ele>5583.1</ele>
    <time>2026-06-23T05:48:29Z</time>
   </trkpt>
   <trkpt lat="-3.0798710" lon="37.3652000">
    <ele>5582.8</ele>
    <time>2026-06-23T05:48:30Z</time>
   </trkpt>
   <trkpt lat="-3.0798760" lon="37.3652090">
    <ele>5582.5</ele>
    <time>2026-06-23T05:48:31Z</time>
   </trkpt>
   <trkpt lat="-3.0798850" lon="37.3652190">
    <ele>5582.0</ele>
    <time>2026-06-23T05:48:32Z</time>
   </trkpt>
   <trkpt lat="-3.0798930" lon="37.3652250">
    <ele>5581.7</ele>
    <time>2026-06-23T05:48:33Z</time>
   </trkpt>
   <trkpt lat="-3.0798970" lon="37.3652340">
    <ele>5581.3</ele>
    <time>2026-06-23T05:48:34Z</time>
   </trkpt>
   <trkpt lat="-3.0799040" lon="37.3652420">
    <ele>5581.0</ele>
    <time>2026-06-23T05:48:35Z</time>
   </trkpt>
   <trkpt lat="-3.0799080" lon="37.3652500">
    <ele>5580.6</ele>
    <time>2026-06-23T05:48:36Z</time>
   </trkpt>
   <trkpt lat="-3.0799100" lon="37.3652590">
    <ele>5580.3</ele>
    <time>2026-06-23T05:48:37Z</time>
   </trkpt>
   <trkpt lat="-3.0799100" lon="37.3652640">
    <ele>5580.1</ele>
    <time>2026-06-23T05:48:38Z</time>
   </trkpt>
   <trkpt lat="-3.0799110" lon="37.3652730">
    <ele>5579.8</ele>
    <time>2026-06-23T05:48:39Z</time>
   </trkpt>
   <trkpt lat="-3.0799120" lon="37.3652810">
    <ele>5579.5</ele>
    <time>2026-06-23T05:48:40Z</time>
   </trkpt>
   <trkpt lat="-3.0799180" lon="37.3652900">
    <ele>5579.2</ele>
    <time>2026-06-23T05:48:41Z</time>
   </trkpt>
   <trkpt lat="-3.0799210" lon="37.3652980">
    <ele>5578.9</ele>
    <time>2026-06-23T05:48:42Z</time>
   </trkpt>
   <trkpt lat="-3.0799240" lon="37.3653090">
    <ele>5578.5</ele>
    <time>2026-06-23T05:48:43Z</time>
   </trkpt>
   <trkpt lat="-3.0799250" lon="37.3653140">
    <ele>5578.3</ele>
    <time>2026-06-23T05:48:44Z</time>
   </trkpt>
   <trkpt lat="-3.0799350" lon="37.3653330">
    <ele>5577.5</ele>
    <time>2026-06-23T05:48:45Z</time>
   </trkpt>
   <trkpt lat="-3.0799400" lon="37.3653410">
    <ele>5577.2</ele>
    <time>2026-06-23T05:48:46Z</time>
   </trkpt>
   <trkpt lat="-3.0799480" lon="37.3653500">
    <ele>5576.8</ele>
    <time>2026-06-23T05:48:47Z</time>
   </trkpt>
   <trkpt lat="-3.0799540" lon="37.3653590">
    <ele>5576.4</ele>
    <time>2026-06-23T05:48:48Z</time>
   </trkpt>
   <trkpt lat="-3.0799610" lon="37.3653690">
    <ele>5575.9</ele>
    <time>2026-06-23T05:48:49Z</time>
   </trkpt>
   <trkpt lat="-3.0799660" lon="37.3653790">
    <ele>5575.5</ele>
    <time>2026-06-23T05:48:50Z</time>
   </trkpt>
   <trkpt lat="-3.0799700" lon="37.3653910">
    <ele>5575.1</ele>
    <time>2026-06-23T05:48:51Z</time>
   </trkpt>
   <trkpt lat="-3.0799720" lon="37.3654010">
    <ele>5574.7</ele>
    <time>2026-06-23T05:48:52Z</time>
   </trkpt>
   <trkpt lat="-3.0799760" lon="37.3654100">
    <ele>5574.3</ele>
    <time>2026-06-23T05:48:53Z</time>
   </trkpt>
   <trkpt lat="-3.0799720" lon="37.3654200">
    <ele>5573.9</ele>
    <time>2026-06-23T05:48:54Z</time>
   </trkpt>
   <trkpt lat="-3.0799650" lon="37.3654290">
    <ele>5573.5</ele>
    <time>2026-06-23T05:48:55Z</time>
   </trkpt>
   <trkpt lat="-3.0799580" lon="37.3654400">
    <ele>5573.0</ele>
    <time>2026-06-23T05:48:56Z</time>
   </trkpt>
   <trkpt lat="-3.0799530" lon="37.3654490">
    <ele>5572.7</ele>
    <time>2026-06-23T05:48:57Z</time>
   </trkpt>
   <trkpt lat="-3.0799470" lon="37.3654580">
    <ele>5572.3</ele>
    <time>2026-06-23T05:48:58Z</time>
   </trkpt>
   <trkpt lat="-3.0799390" lon="37.3654650">
    <ele>5571.9</ele>
    <time>2026-06-23T05:48:59Z</time>
   </trkpt>
   <trkpt lat="-3.0799320" lon="37.3654700">
    <ele>5571.6</ele>
    <time>2026-06-23T05:49:00Z</time>
   </trkpt>
   <trkpt lat="-3.0799270" lon="37.3654780">
    <ele>5571.2</ele>
    <time>2026-06-23T05:49:01Z</time>
   </trkpt>
   <trkpt lat="-3.0799280" lon="37.3654890">
    <ele>5570.8</ele>
    <time>2026-06-23T05:49:02Z</time>
   </trkpt>
   <trkpt lat="-3.0799260" lon="37.3654950">
    <ele>5570.6</ele>
    <time>2026-06-23T05:49:03Z</time>
   </trkpt>
   <trkpt lat="-3.0799250" lon="37.3654920">
    <ele>5570.5</ele>
    <time>2026-06-23T05:49:04Z</time>
   </trkpt>
   <trkpt lat="-3.0799220" lon="37.3655020">
    <ele>5570.1</ele>
    <time>2026-06-23T05:49:05Z</time>
   </trkpt>
   <trkpt lat="-3.0799220" lon="37.3655030">
    <ele>5570.0</ele>
    <time>2026-06-23T05:49:06Z</time>
   </trkpt>
   <trkpt lat="-3.0799220" lon="37.3655010">
    <ele>5570.0</ele>
    <time>2026-06-23T05:49:07Z</time>
   </trkpt>
   <trkpt lat="-3.0799230" lon="37.3655020">
    <ele>5569.9</ele>
    <time>2026-06-23T05:49:08Z</time>
   </trkpt>
   <trkpt lat="-3.0799220" lon="37.3655020">
    <ele>5569.9</ele>
    <time>2026-06-23T05:49:09Z</time>
   </trkpt>
   <trkpt lat="-3.0799230" lon="37.3655040">
    <ele>5569.8</ele>
    <time>2026-06-23T05:49:10Z</time>
   </trkpt>
   <trkpt lat="-3.0799220" lon="37.3655060">
    <ele>5569.7</ele>
    <time>2026-06-23T05:49:11Z</time>
   </trkpt>
   <trkpt lat="-3.0799230" lon="37.3655060">
    <ele>5569.7</ele>
    <time>2026-06-23T05:49:12Z</time>
   </trkpt>
   <trkpt lat="-3.0799230" lon="37.3655070">
    <ele>5569.6</ele>
    <time>2026-06-23T05:49:13Z</time>
   </trkpt>
   <trkpt lat="-3.0799240" lon="37.3655060">
    <ele>5569.6</ele>
    <time>2026-06-23T05:49:14Z</time>
   </trkpt>
   <trkpt lat="-3.0799230" lon="37.3655070">
    <ele>5569.5</ele>
    <time>2026-06-23T05:49:15Z</time>
   </trkpt>
   <trkpt lat="-3.0799230" lon="37.3655060">
    <ele>5569.5</ele>
    <time>2026-06-23T05:49:16Z</time>
   </trkpt>
   <trkpt lat="-3.0799230" lon="37.3655060">
    <ele>5569.5</ele>
    <time>2026-06-23T05:49:17Z</time>
   </trkpt>
   <trkpt lat="-3.0799240" lon="37.3655060">
    <ele>5569.5</ele>
    <time>2026-06-23T05:49:18Z</time>
   </trkpt>
   <trkpt lat="-3.0799240" lon="37.3655060">
    <ele>5569.5</ele>
    <time>2026-06-23T05:49:19Z</time>
   </trkpt>
   <trkpt lat="-3.0799240" lon="37.3655070">
    <ele>5569.4</ele>
    <time>2026-06-23T05:49:20Z</time>
   </trkpt>
   <trkpt lat="-3.0799230" lon="37.3655060">
    <ele>5569.4</ele>
    <time>2026-06-23T05:49:21Z</time>
   </trkpt>
   <trkpt lat="-3.0799230" lon="37.3655050">
    <ele>5569.3</ele>
    <time>2026-06-23T05:49:22Z</time>
   </trkpt>
   <trkpt lat="-3.0799230" lon="37.3655050">
    <ele>5569.3</ele>
    <time>2026-06-23T05:49:23Z</time>
   </trkpt>
   <trkpt lat="-3.0799230" lon="37.3655040">
    <ele>5569.3</ele>
    <time>2026-06-23T05:49:24Z</time>
   </trkpt>
   <trkpt lat="-3.0799230" lon="37.3655050">
    <ele>5569.3</ele>
    <time>2026-06-23T05:49:25Z</time>
   </trkpt>
   <trkpt lat="-3.0799230" lon="37.3655040">
    <ele>5569.2</ele>
    <time>2026-06-23T05:49:26Z</time>
   </trkpt>
   <trkpt lat="-3.0799230" lon="37.3655040">
    <ele>5569.2</ele>
    <time>2026-06-23T05:49:27Z</time>
   </trkpt>
   <trkpt lat="-3.0799220" lon="37.3655060">
    <ele>5569.2</ele>
    <time>2026-06-23T05:49:28Z</time>
   </trkpt>
   <trkpt lat="-3.0799240" lon="37.3655040">
    <ele>5569.0</ele>
    <time>2026-06-23T05:49:29Z</time>
   </trkpt>
   <trkpt lat="-3.0799230" lon="37.3655050">
    <ele>5569.0</ele>
    <time>2026-06-23T05:49:30Z</time>
   </trkpt>
   <trkpt lat="-3.0799230" lon="37.3655070">
    <ele>5568.9</ele>
    <time>2026-06-23T05:49:31Z</time>
   </trkpt>
   <trkpt lat="-3.0799240" lon="37.3655060">
    <ele>5568.9</ele>
    <time>2026-06-23T05:49:32Z</time>
   </trkpt>
   <trkpt lat="-3.0799240" lon="37.3655060">
    <ele>5568.9</ele>
    <time>2026-06-23T05:49:33Z</time>
   </trkpt>
   <trkpt lat="-3.0799240" lon="37.3655060">
    <ele>5568.9</ele>
    <time>2026-06-23T05:49:34Z</time>
   </trkpt>
   <trkpt lat="-3.0799240" lon="37.3655060">
    <ele>5568.9</ele>
    <time>2026-06-23T05:49:35Z</time>
   </trkpt>
   <trkpt lat="-3.0799250" lon="37.3655080">
    <ele>5568.8</ele>
    <time>2026-06-23T05:49:36Z</time>
   </trkpt>
   <trkpt lat="-3.0799250" lon="37.3655080">
    <ele>5568.8</ele>
    <time>2026-06-23T05:49:37Z</time>
   </trkpt>
   <trkpt lat="-3.0799250" lon="37.3655080">
    <ele>5568.8</ele>
    <time>2026-06-23T05:49:38Z</time>
   </trkpt>
   <trkpt lat="-3.0799260" lon="37.3655090">
    <ele>5568.7</ele>
    <time>2026-06-23T05:49:39Z</time>
   </trkpt>
   <trkpt lat="-3.0799260" lon="37.3655080">
    <ele>5568.7</ele>
    <time>2026-06-23T05:49:40Z</time>
   </trkpt>
   <trkpt lat="-3.0799260" lon="37.3655080">
    <ele>5568.7</ele>
    <time>2026-06-23T05:49:41Z</time>
   </trkpt>
   <trkpt lat="-3.0799260" lon="37.3655080">
    <ele>5568.7</ele>
    <time>2026-06-23T05:49:42Z</time>
   </trkpt>
   <trkpt lat="-3.0799260" lon="37.3655080">
    <ele>5568.7</ele>
    <time>2026-06-23T05:49:43Z</time>
   </trkpt>
   <trkpt lat="-3.0799260" lon="37.3655080">
    <ele>5568.7</ele>
    <time>2026-06-23T05:49:44Z</time>
   </trkpt>
   <trkpt lat="-3.0799260" lon="37.3655080">
    <ele>5568.7</ele>
    <time>2026-06-23T05:49:45Z</time>
   </trkpt>
   <trkpt lat="-3.0799260" lon="37.3655080">
    <ele>5568.7</ele>
    <time>2026-06-23T05:49:46Z</time>
   </trkpt>
   <trkpt lat="-3.0799260" lon="37.3655080">
    <ele>5568.7</ele>
    <time>2026-06-23T05:49:47Z</time>
   </trkpt>
   <trkpt lat="-3.0799260" lon="37.3655070">
    <ele>5568.7</ele>
    <time>2026-06-23T05:49:48Z</time>
   </trkpt>
   <trkpt lat="-3.0799260" lon="37.3655070">
    <ele>5568.7</ele>
    <time>2026-06-23T05:49:49Z</time>
   </trkpt>
   <trkpt lat="-3.0799260" lon="37.3655090">
    <ele>5568.6</ele>
    <time>2026-06-23T05:49:50Z</time>
   </trkpt>
   <trkpt lat="-3.0799260" lon="37.3655090">
    <ele>5568.6</ele>
    <time>2026-06-23T05:49:51Z</time>
   </trkpt>
   <trkpt lat="-3.0799260" lon="37.3655090">
    <ele>5568.6</ele>
    <time>2026-06-23T05:49:52Z</time>
   </trkpt>
   <trkpt lat="-3.0799260" lon="37.3655090">
    <ele>5568.6</ele>
    <time>2026-06-23T05:49:53Z</time>
   </trkpt>
   <trkpt lat="-3.0799250" lon="37.3655090">
    <ele>5568.6</ele>
    <time>2026-06-23T05:49:54Z</time>
   </trkpt>
   <trkpt lat="-3.0799250" lon="37.3655100">
    <ele>5568.5</ele>
    <time>2026-06-23T05:49:55Z</time>
   </trkpt>
   <trkpt lat="-3.0799250" lon="37.3655100">
    <ele>5568.5</ele>
    <time>2026-06-23T05:49:56Z</time>
   </trkpt>
   <trkpt lat="-3.0799250" lon="37.3655100">
    <ele>5568.5</ele>
    <time>2026-06-23T05:49:57Z</time>
   </trkpt>
   <trkpt lat="-3.0799250" lon="37.3655100">
    <ele>5568.5</ele>
    <time>2026-06-23T05:49:58Z</time>
   </trkpt>
   <trkpt lat="-3.0799260" lon="37.3655100">
    <ele>5568.5</ele>
    <time>2026-06-23T05:49:59Z</time>
   </trkpt>
   <trkpt lat="-3.0799260" lon="37.3655100">
    <ele>5568.5</ele>
    <time>2026-06-23T05:50:00Z</time>
   </trkpt>
   <trkpt lat="-3.0799270" lon="37.3655100">
    <ele>5568.4</ele>
    <time>2026-06-23T05:50:01Z</time>
   </trkpt>
   <trkpt lat="-3.0799270" lon="37.3655100">
    <ele>5568.4</ele>
    <time>2026-06-23T05:50:02Z</time>
   </trkpt>
   <trkpt lat="-3.0799270" lon="37.3655100">
    <ele>5568.4</ele>
    <time>2026-06-23T05:50:03Z</time>
   </trkpt>
   <trkpt lat="-3.0799270" lon="37.3655110">
    <ele>5568.4</ele>
    <time>2026-06-23T05:50:04Z</time>
   </trkpt>
   <trkpt lat="-3.0799270" lon="37.3655090">
    <ele>5568.3</ele>
    <time>2026-06-23T05:50:05Z</time>
   </trkpt>
   <trkpt lat="-3.0799270" lon="37.3655100">
    <ele>5568.3</ele>
    <time>2026-06-23T05:50:06Z</time>
   </trkpt>
   <trkpt lat="-3.0799270" lon="37.3655090">
    <ele>5568.3</ele>
    <time>2026-06-23T05:50:07Z</time>
   </trkpt>
   <trkpt lat="-3.0799280" lon="37.3655110">
    <ele>5568.2</ele>
    <time>2026-06-23T05:50:08Z</time>
   </trkpt>
   <trkpt lat="-3.0799270" lon="37.3655130">
    <ele>5568.1</ele>
    <time>2026-06-23T05:50:09Z</time>
   </trkpt>
   <trkpt lat="-3.0799280" lon="37.3655110">
    <ele>5568.0</ele>
    <time>2026-06-23T05:50:10Z</time>
   </trkpt>
   <trkpt lat="-3.0799280" lon="37.3655110">
    <ele>5568.0</ele>
    <time>2026-06-23T05:50:11Z</time>
   </trkpt>
   <trkpt lat="-3.0799270" lon="37.3655120">
    <ele>5568.0</ele>
    <time>2026-06-23T05:50:12Z</time>
   </trkpt>
   <trkpt lat="-3.0799270" lon="37.3655120">
    <ele>5568.0</ele>
    <time>2026-06-23T05:50:13Z</time>
   </trkpt>
   <trkpt lat="-3.0799270" lon="37.3655120">
    <ele>5568.0</ele>
    <time>2026-06-23T05:50:14Z</time>
   </trkpt>
   <trkpt lat="-3.0799280" lon="37.3655160">
    <ele>5567.8</ele>
    <time>2026-06-23T05:50:15Z</time>
   </trkpt>
   <trkpt lat="-3.0799260" lon="37.3655120">
    <ele>5567.6</ele>
    <time>2026-06-23T05:50:16Z</time>
   </trkpt>
   <trkpt lat="-3.0799260" lon="37.3655120">
    <ele>5567.6</ele>
    <time>2026-06-23T05:50:17Z</time>
   </trkpt>
   <trkpt lat="-3.0799260" lon="37.3655100">
    <ele>5567.6</ele>
    <time>2026-06-23T05:50:18Z</time>
   </trkpt>
   <trkpt lat="-3.0799250" lon="37.3655100">
    <ele>5567.5</ele>
    <time>2026-06-23T05:50:19Z</time>
   </trkpt>
   <trkpt lat="-3.0799250" lon="37.3655100">
    <ele>5567.5</ele>
    <time>2026-06-23T05:50:20Z</time>
   </trkpt>
   <trkpt lat="-3.0799240" lon="37.3655100">
    <ele>5567.5</ele>
    <time>2026-06-23T05:50:21Z</time>
   </trkpt>
   <trkpt lat="-3.0799240" lon="37.3655090">
    <ele>5567.5</ele>
    <time>2026-06-23T05:50:22Z</time>
   </trkpt>
   <trkpt lat="-3.0799240" lon="37.3655090">
    <ele>5567.5</ele>
    <time>2026-06-23T05:50:23Z</time>
   </trkpt>
   <trkpt lat="-3.0799240" lon="37.3655080">
    <ele>5567.4</ele>
    <time>2026-06-23T05:50:25Z</time>
   </trkpt>
   <trkpt lat="-3.0799240" lon="37.3655090">
    <ele>5567.4</ele>
    <time>2026-06-23T05:50:26Z</time>
   </trkpt>
   <trkpt lat="-3.0799250" lon="37.3655070">
    <ele>5567.3</ele>
    <time>2026-06-23T05:50:27Z</time>
   </trkpt>
   <trkpt lat="-3.0799240" lon="37.3655060">
    <ele>5567.3</ele>
    <time>2026-06-23T05:50:28Z</time>
   </trkpt>
   <trkpt lat="-3.0799240" lon="37.3655040">
    <ele>5567.2</ele>
    <time>2026-06-23T05:50:29Z</time>
   </trkpt>
   <trkpt lat="-3.0799240" lon="37.3655030">
    <ele>5567.1</ele>
    <time>2026-06-23T05:50:30Z</time>
   </trkpt>
   <trkpt lat="-3.0799230" lon="37.3655020">
    <ele>5567.1</ele>
    <time>2026-06-23T05:50:31Z</time>
   </trkpt>
   <trkpt lat="-3.0799230" lon="37.3655010">
    <ele>5567.1</ele>
    <time>2026-06-23T05:50:32Z</time>
   </trkpt>
   <trkpt lat="-3.0799230" lon="37.3655020">
    <ele>5567.0</ele>
    <time>2026-06-23T05:50:33Z</time>
   </trkpt>
   <trkpt lat="-3.0799230" lon="37.3655020">
    <ele>5567.0</ele>
    <time>2026-06-23T05:50:34Z</time>
   </trkpt>
   <trkpt lat="-3.0799230" lon="37.3655020">
    <ele>5567.0</ele>
    <time>2026-06-23T05:50:35Z</time>
   </trkpt>
   <trkpt lat="-3.0799230" lon="37.3655020">
    <ele>5567.0</ele>
    <time>2026-06-23T05:50:36Z</time>
   </trkpt>
   <trkpt lat="-3.0799240" lon="37.3655010">
    <ele>5567.0</ele>
    <time>2026-06-23T05:50:37Z</time>
   </trkpt>
   <trkpt lat="-3.0799240" lon="37.3655010">
    <ele>5567.0</ele>
    <time>2026-06-23T05:50:38Z</time>
   </trkpt>
   <trkpt lat="-3.0799240" lon="37.3655010">
    <ele>5567.0</ele>
    <time>2026-06-23T05:50:39Z</time>
   </trkpt>
   <trkpt lat="-3.0799240" lon="37.3655010">
    <ele>5567.0</ele>
    <time>2026-06-23T05:50:40Z</time>
   </trkpt>
   <trkpt lat="-3.0799240" lon="37.3655010">
    <ele>5567.0</ele>
    <time>2026-06-23T05:50:41Z</time>
   </trkpt>
   <trkpt lat="-3.0799230" lon="37.3655010">
    <ele>5566.9</ele>
    <time>2026-06-23T05:50:42Z</time>
   </trkpt>
   <trkpt lat="-3.0799230" lon="37.3655000">
    <ele>5566.9</ele>
    <time>2026-06-23T05:50:43Z</time>
   </trkpt>
   <trkpt lat="-3.0799220" lon="37.3655010">
    <ele>5566.8</ele>
    <time>2026-06-23T05:50:44Z</time>
   </trkpt>
   <trkpt lat="-3.0799210" lon="37.3655010">
    <ele>5566.8</ele>
    <time>2026-06-23T05:50:45Z</time>
   </trkpt>
   <trkpt lat="-3.0799220" lon="37.3655010">
    <ele>5566.8</ele>
    <time>2026-06-23T05:50:46Z</time>
   </trkpt>
   <trkpt lat="-3.0799210" lon="37.3655010">
    <ele>5566.7</ele>
    <time>2026-06-23T05:50:47Z</time>
   </trkpt>
   <trkpt lat="-3.0799210" lon="37.3655000">
    <ele>5566.7</ele>
    <time>2026-06-23T05:50:48Z</time>
   </trkpt>
   <trkpt lat="-3.0799220" lon="37.3655020">
    <ele>5566.6</ele>
    <time>2026-06-23T05:50:49Z</time>
   </trkpt>
   <trkpt lat="-3.0799220" lon="37.3655020">
    <ele>5566.6</ele>
    <time>2026-06-23T05:50:50Z</time>
   </trkpt>
   <trkpt lat="-3.0799230" lon="37.3655020">
    <ele>5566.6</ele>
    <time>2026-06-23T05:50:51Z</time>
   </trkpt>
   <trkpt lat="-3.0799230" lon="37.3655020">
    <ele>5566.6</ele>
    <time>2026-06-23T05:50:52Z</time>
   </trkpt>
   <trkpt lat="-3.0799230" lon="37.3655020">
    <ele>5566.6</ele>
    <time>2026-06-23T05:50:53Z</time>
   </trkpt>
   <trkpt lat="-3.0799240" lon="37.3655020">
    <ele>5566.5</ele>
    <time>2026-06-23T05:50:54Z</time>
   </trkpt>
   <trkpt lat="-3.0799240" lon="37.3655020">
    <ele>5566.5</ele>
    <time>2026-06-23T05:50:55Z</time>
   </trkpt>
   <trkpt lat="-3.0799240" lon="37.3655020">
    <ele>5566.5</ele>
    <time>2026-06-23T05:50:56Z</time>
   </trkpt>
   <trkpt lat="-3.0799240" lon="37.3655020">
    <ele>5566.5</ele>
    <time>2026-06-23T05:50:57Z</time>
   </trkpt>
   <trkpt lat="-3.0799240" lon="37.3655020">
    <ele>5566.5</ele>
    <time>2026-06-23T05:50:58Z</time>
   </trkpt>
   <trkpt lat="-3.0799230" lon="37.3655030">
    <ele>5566.5</ele>
    <time>2026-06-23T05:50:59Z</time>
   </trkpt>
   <trkpt lat="-3.0799230" lon="37.3655020">
    <ele>5566.5</ele>
    <time>2026-06-23T05:51:00Z</time>
   </trkpt>
   <trkpt lat="-3.0799230" lon="37.3655010">
    <ele>5566.4</ele>
    <time>2026-06-23T05:51:01Z</time>
   </trkpt>
   <trkpt lat="-3.0799230" lon="37.3655020">
    <ele>5566.4</ele>
    <time>2026-06-23T05:51:02Z</time>
   </trkpt>
   <trkpt lat="-3.0799230" lon="37.3655020">
    <ele>5566.4</ele>
    <time>2026-06-23T05:51:03Z</time>
   </trkpt>
   <trkpt lat="-3.0799240" lon="37.3655040">
    <ele>5566.3</ele>
    <time>2026-06-23T05:51:04Z</time>
   </trkpt>
   <trkpt lat="-3.0799240" lon="37.3655040">
    <ele>5566.3</ele>
    <time>2026-06-23T05:51:05Z</time>
   </trkpt>
   <trkpt lat="-3.0799250" lon="37.3655030">
    <ele>5566.2</ele>
    <time>2026-06-23T05:51:06Z</time>
   </trkpt>
   <trkpt lat="-3.0799270" lon="37.3655040">
    <ele>5566.2</ele>
    <time>2026-06-23T05:51:07Z</time>
   </trkpt>
   <trkpt lat="-3.0799250" lon="37.3655040">
    <ele>5566.1</ele>
    <time>2026-06-23T05:51:08Z</time>
   </trkpt>
   <trkpt lat="-3.0799260" lon="37.3655030">
    <ele>5566.0</ele>
    <time>2026-06-23T05:51:09Z</time>
   </trkpt>
   <trkpt lat="-3.0799260" lon="37.3655030">
    <ele>5566.0</ele>
    <time>2026-06-23T05:51:10Z</time>
   </trkpt>
   <trkpt lat="-3.0799270" lon="37.3655030">
    <ele>5566.0</ele>
    <time>2026-06-23T05:51:11Z</time>
   </trkpt>
   <trkpt lat="-3.0799270" lon="37.3655040">
    <ele>5566.0</ele>
    <time>2026-06-23T05:51:12Z</time>
   </trkpt>
   <trkpt lat="-3.0799270" lon="37.3655030">
    <ele>5565.9</ele>
    <time>2026-06-23T05:51:13Z</time>
   </trkpt>
   <trkpt lat="-3.0799270" lon="37.3655040">
    <ele>5565.9</ele>
    <time>2026-06-23T05:51:14Z</time>
   </trkpt>
   <trkpt lat="-3.0799280" lon="37.3655030">
    <ele>5565.8</ele>
    <time>2026-06-23T05:51:15Z</time>
   </trkpt>
   <trkpt lat="-3.0799280" lon="37.3655030">
    <ele>5565.8</ele>
    <time>2026-06-23T05:51:16Z</time>
   </trkpt>
   <trkpt lat="-3.0799280" lon="37.3655040">
    <ele>5565.8</ele>
    <time>2026-06-23T05:51:17Z</time>
   </trkpt>
   <trkpt lat="-3.0799270" lon="37.3655070">
    <ele>5565.7</ele>
    <time>2026-06-23T05:51:18Z</time>
   </trkpt>
   <trkpt lat="-3.0799270" lon="37.3655080">
    <ele>5565.7</ele>
    <time>2026-06-23T05:51:19Z</time>
   </trkpt>
   <trkpt lat="-3.0799290" lon="37.3655110">
    <ele>5565.5</ele>
    <time>2026-06-23T05:51:20Z</time>
   </trkpt>
   <trkpt lat="-3.0799310" lon="37.3655180">
    <ele>5565.3</ele>
    <time>2026-06-23T05:51:21Z</time>
   </trkpt>
   <trkpt lat="-3.0799380" lon="37.3655290">
    <ele>5564.8</ele>
    <time>2026-06-23T05:51:22Z</time>
   </trkpt>
   <trkpt lat="-3.0799460" lon="37.3655280">
    <ele>5564.5</ele>
    <time>2026-06-23T05:51:23Z</time>
   </trkpt>
   <trkpt lat="-3.0799530" lon="37.3655420">
    <ele>5563.9</ele>
    <time>2026-06-23T05:51:24Z</time>
   </trkpt>
   <trkpt lat="-3.0799560" lon="37.3655460">
    <ele>5563.7</ele>
    <time>2026-06-23T05:51:25Z</time>
   </trkpt>
   <trkpt lat="-3.0799610" lon="37.3655510">
    <ele>5563.5</ele>
    <time>2026-06-23T05:51:26Z</time>
   </trkpt>
   <trkpt lat="-3.0799680" lon="37.3655580">
    <ele>5563.1</ele>
    <time>2026-06-23T05:51:27Z</time>
   </trkpt>
   <trkpt lat="-3.0799750" lon="37.3655630">
    <ele>5562.8</ele>
    <time>2026-06-23T05:51:28Z</time>
   </trkpt>
   <trkpt lat="-3.0799800" lon="37.3655690">
    <ele>5562.5</ele>
    <time>2026-06-23T05:51:29Z</time>
   </trkpt>
   <trkpt lat="-3.0799810" lon="37.3655760">
    <ele>5562.2</ele>
    <time>2026-06-23T05:51:30Z</time>
   </trkpt>
   <trkpt lat="-3.0799770" lon="37.3655790">
    <ele>5562.0</ele>
    <time>2026-06-23T05:51:31Z</time>
   </trkpt>
   <trkpt lat="-3.0799730" lon="37.3655830">
    <ele>5561.8</ele>
    <time>2026-06-23T05:51:32Z</time>
   </trkpt>
   <trkpt lat="-3.0799720" lon="37.3655850">
    <ele>5561.7</ele>
    <time>2026-06-23T05:51:33Z</time>
   </trkpt>
   <trkpt lat="-3.0799740" lon="37.3655860">
    <ele>5561.6</ele>
    <time>2026-06-23T05:51:34Z</time>
   </trkpt>
   <trkpt lat="-3.0799710" lon="37.3655920">
    <ele>5561.4</ele>
    <time>2026-06-23T05:51:35Z</time>
   </trkpt>
   <trkpt lat="-3.0799730" lon="37.3656020">
    <ele>5561.0</ele>
    <time>2026-06-23T05:51:36Z</time>
   </trkpt>
   <trkpt lat="-3.0799750" lon="37.3656100">
    <ele>5560.7</ele>
    <time>2026-06-23T05:51:37Z</time>
   </trkpt>
   <trkpt lat="-3.0799710" lon="37.3656180">
    <ele>5560.3</ele>
    <time>2026-06-23T05:51:38Z</time>
   </trkpt>
   <trkpt lat="-3.0799610" lon="37.3656230">
    <ele>5559.9</ele>
    <time>2026-06-23T05:51:39Z</time>
   </trkpt>
   <trkpt lat="-3.0799550" lon="37.3656350">
    <ele>5559.4</ele>
    <time>2026-06-23T05:51:40Z</time>
   </trkpt>
   <trkpt lat="-3.0799590" lon="37.3656450">
    <ele>5559.0</ele>
    <time>2026-06-23T05:51:41Z</time>
   </trkpt>
   <trkpt lat="-3.0799650" lon="37.3656520">
    <ele>5558.6</ele>
    <time>2026-06-23T05:51:42Z</time>
   </trkpt>
   <trkpt lat="-3.0799720" lon="37.3656610">
    <ele>5558.2</ele>
    <time>2026-06-23T05:51:43Z</time>
   </trkpt>
   <trkpt lat="-3.0799800" lon="37.3656680">
    <ele>5557.8</ele>
    <time>2026-06-23T05:51:44Z</time>
   </trkpt>
   <trkpt lat="-3.0799860" lon="37.3656770">
    <ele>5557.4</ele>
    <time>2026-06-23T05:51:45Z</time>
   </trkpt>
   <trkpt lat="-3.0799910" lon="37.3656860">
    <ele>5557.0</ele>
    <time>2026-06-23T05:51:46Z</time>
   </trkpt>
   <trkpt lat="-3.0799950" lon="37.3656970">
    <ele>5556.5</ele>
    <time>2026-06-23T05:51:47Z</time>
   </trkpt>
   <trkpt lat="-3.0800010" lon="37.3657070">
    <ele>5556.1</ele>
    <time>2026-06-23T05:51:48Z</time>
   </trkpt>
   <trkpt lat="-3.0800070" lon="37.3657150">
    <ele>5555.7</ele>
    <time>2026-06-23T05:51:49Z</time>
   </trkpt>
   <trkpt lat="-3.0800120" lon="37.3657260">
    <ele>5555.2</ele>
    <time>2026-06-23T05:51:50Z</time>
   </trkpt>
   <trkpt lat="-3.0800140" lon="37.3657360">
    <ele>5554.8</ele>
    <time>2026-06-23T05:51:51Z</time>
   </trkpt>
   <trkpt lat="-3.0800180" lon="37.3657460">
    <ele>5554.4</ele>
    <time>2026-06-23T05:51:52Z</time>
   </trkpt>
   <trkpt lat="-3.0800250" lon="37.3657540">
    <ele>5554.0</ele>
    <time>2026-06-23T05:51:53Z</time>
   </trkpt>
   <trkpt lat="-3.0800400" lon="37.3657570">
    <ele>5553.4</ele>
    <time>2026-06-23T05:51:54Z</time>
   </trkpt>
   <trkpt lat="-3.0800500" lon="37.3657600">
    <ele>5553.0</ele>
    <time>2026-06-23T05:51:55Z</time>
   </trkpt>
   <trkpt lat="-3.0800590" lon="37.3657650">
    <ele>5552.6</ele>
    <time>2026-06-23T05:51:56Z</time>
   </trkpt>
   <trkpt lat="-3.0800660" lon="37.3657730">
    <ele>5552.2</ele>
    <time>2026-06-23T05:51:57Z</time>
   </trkpt>
   <trkpt lat="-3.0800720" lon="37.3657830">
    <ele>5551.8</ele>
    <time>2026-06-23T05:51:58Z</time>
   </trkpt>
   <trkpt lat="-3.0800730" lon="37.3657940">
    <ele>5551.4</ele>
    <time>2026-06-23T05:51:59Z</time>
   </trkpt>
   <trkpt lat="-3.0800760" lon="37.3658060">
    <ele>5550.9</ele>
    <time>2026-06-23T05:52:00Z</time>
   </trkpt>
   <trkpt lat="-3.0800810" lon="37.3658220">
    <ele>5550.2</ele>
    <time>2026-06-23T05:52:01Z</time>
   </trkpt>
   <trkpt lat="-3.0800840" lon="37.3658280">
    <ele>5550.0</ele>
    <time>2026-06-23T05:52:02Z</time>
   </trkpt>
   <trkpt lat="-3.0800870" lon="37.3658330">
    <ele>5549.8</ele>
    <time>2026-06-23T05:52:03Z</time>
   </trkpt>
   <trkpt lat="-3.0800920" lon="37.3658390">
    <ele>5549.5</ele>
    <time>2026-06-23T05:52:04Z</time>
   </trkpt>
   <trkpt lat="-3.0800950" lon="37.3658480">
    <ele>5549.1</ele>
    <time>2026-06-23T05:52:05Z</time>
   </trkpt>
   <trkpt lat="-3.0800940" lon="37.3658560">
    <ele>5548.8</ele>
    <time>2026-06-23T05:52:06Z</time>
   </trkpt>
   <trkpt lat="-3.0800920" lon="37.3658670">
    <ele>5548.3</ele>
    <time>2026-06-23T05:52:07Z</time>
   </trkpt>
   <trkpt lat="-3.0800940" lon="37.3658810">
    <ele>5547.8</ele>
    <time>2026-06-23T05:52:08Z</time>
   </trkpt>
   <trkpt lat="-3.0800990" lon="37.3658890">
    <ele>5547.4</ele>
    <time>2026-06-23T05:52:09Z</time>
   </trkpt>
   <trkpt lat="-3.0801020" lon="37.3658970">
    <ele>5547.1</ele>
    <time>2026-06-23T05:52:10Z</time>
   </trkpt>
   <trkpt lat="-3.0800980" lon="37.3659010">
    <ele>5546.9</ele>
    <time>2026-06-23T05:52:11Z</time>
   </trkpt>
   <trkpt lat="-3.0800930" lon="37.3659120">
    <ele>5546.4</ele>
    <time>2026-06-23T05:52:12Z</time>
   </trkpt>
   <trkpt lat="-3.0800900" lon="37.3659210">
    <ele>5546.0</ele>
    <time>2026-06-23T05:52:13Z</time>
   </trkpt>
   <trkpt lat="-3.0800890" lon="37.3659280">
    <ele>5545.7</ele>
    <time>2026-06-23T05:52:14Z</time>
   </trkpt>
   <trkpt lat="-3.0800910" lon="37.3659410">
    <ele>5545.2</ele>
    <time>2026-06-23T05:52:15Z</time>
   </trkpt>
   <trkpt lat="-3.0800960" lon="37.3659490">
    <ele>5544.8</ele>
    <time>2026-06-23T05:52:16Z</time>
   </trkpt>
   <trkpt lat="-3.0801010" lon="37.3659580">
    <ele>5544.4</ele>
    <time>2026-06-23T05:52:17Z</time>
   </trkpt>
   <trkpt lat="-3.0801040" lon="37.3659650">
    <ele>5544.1</ele>
    <time>2026-06-23T05:52:18Z</time>
   </trkpt>
   <trkpt lat="-3.0801070" lon="37.3659750">
    <ele>5543.7</ele>
    <time>2026-06-23T05:52:19Z</time>
   </trkpt>
   <trkpt lat="-3.0801150" lon="37.3659820">
    <ele>5543.3</ele>
    <time>2026-06-23T05:52:20Z</time>
   </trkpt>
   <trkpt lat="-3.0801210" lon="37.3659900">
    <ele>5542.9</ele>
    <time>2026-06-23T05:52:21Z</time>
   </trkpt>
   <trkpt lat="-3.0801260" lon="37.3659960">
    <ele>5542.6</ele>
    <time>2026-06-23T05:52:22Z</time>
   </trkpt>
   <trkpt lat="-3.0801300" lon="37.3660040">
    <ele>5542.2</ele>
    <time>2026-06-23T05:52:23Z</time>
   </trkpt>
   <trkpt lat="-3.0801340" lon="37.3660120">
    <ele>5541.8</ele>
    <time>2026-06-23T05:52:24Z</time>
   </trkpt>
   <trkpt lat="-3.0801400" lon="37.3660170">
    <ele>5541.5</ele>
    <time>2026-06-23T05:52:25Z</time>
   </trkpt>
   <trkpt lat="-3.0801430" lon="37.3660260">
    <ele>5541.1</ele>
    <time>2026-06-23T05:52:26Z</time>
   </trkpt>
   <trkpt lat="-3.0801460" lon="37.3660340">
    <ele>5540.8</ele>
    <time>2026-06-23T05:52:27Z</time>
   </trkpt>
   <trkpt lat="-3.0801460" lon="37.3660430">
    <ele>5540.4</ele>
    <time>2026-06-23T05:52:28Z</time>
   </trkpt>
   <trkpt lat="-3.0801450" lon="37.3660510">
    <ele>5540.1</ele>
    <time>2026-06-23T05:52:29Z</time>
   </trkpt>
   <trkpt lat="-3.0801440" lon="37.3660660">
    <ele>5539.5</ele>
    <time>2026-06-23T05:52:31Z</time>
   </trkpt>
   <trkpt lat="-3.0801430" lon="37.3660760">
    <ele>5539.1</ele>
    <time>2026-06-23T05:52:32Z</time>
   </trkpt>
   <trkpt lat="-3.0801450" lon="37.3660840">
    <ele>5538.8</ele>
    <time>2026-06-23T05:52:33Z</time>
   </trkpt>
   <trkpt lat="-3.0801510" lon="37.3660870">
    <ele>5538.5</ele>
    <time>2026-06-23T05:52:34Z</time>
   </trkpt>
   <trkpt lat="-3.0801640" lon="37.3660890">
    <ele>5537.9</ele>
    <time>2026-06-23T05:52:35Z</time>
   </trkpt>
   <trkpt lat="-3.0801750" lon="37.3660900">
    <ele>5537.5</ele>
    <time>2026-06-23T05:52:36Z</time>
   </trkpt>
   <trkpt lat="-3.0801850" lon="37.3660940">
    <ele>5537.1</ele>
    <time>2026-06-23T05:52:37Z</time>
   </trkpt>
   <trkpt lat="-3.0801930" lon="37.3660940">
    <ele>5536.7</ele>
    <time>2026-06-23T05:52:38Z</time>
   </trkpt>
   <trkpt lat="-3.0801990" lon="37.3661010">
    <ele>5536.4</ele>
    <time>2026-06-23T05:52:39Z</time>
   </trkpt>
   <trkpt lat="-3.0802100" lon="37.3661080">
    <ele>5535.8</ele>
    <time>2026-06-23T05:52:40Z</time>
   </trkpt>
   <trkpt lat="-3.0802160" lon="37.3661130">
    <ele>5535.5</ele>
    <time>2026-06-23T05:52:41Z</time>
   </trkpt>
   <trkpt lat="-3.0802240" lon="37.3661190">
    <ele>5535.1</ele>
    <time>2026-06-23T05:52:42Z</time>
   </trkpt>
   <trkpt lat="-3.0802250" lon="37.3661190">
    <ele>5535.1</ele>
    <time>2026-06-23T05:52:43Z</time>
   </trkpt>
   <trkpt lat="-3.0802300" lon="37.3661320">
    <ele>5534.5</ele>
    <time>2026-06-23T05:52:44Z</time>
   </trkpt>
   <trkpt lat="-3.0802330" lon="37.3661410">
    <ele>5534.2</ele>
    <time>2026-06-23T05:52:45Z</time>
   </trkpt>
   <trkpt lat="-3.0802350" lon="37.3661520">
    <ele>5533.7</ele>
    <time>2026-06-23T05:52:46Z</time>
   </trkpt>
   <trkpt lat="-3.0802410" lon="37.3661620">
    <ele>5533.3</ele>
    <time>2026-06-23T05:52:47Z</time>
   </trkpt>
   <trkpt lat="-3.0802420" lon="37.3661730">
    <ele>5532.8</ele>
    <time>2026-06-23T05:52:48Z</time>
   </trkpt>
   <trkpt lat="-3.0802460" lon="37.3661820">
    <ele>5532.4</ele>
    <time>2026-06-23T05:52:49Z</time>
   </trkpt>
   <trkpt lat="-3.0802520" lon="37.3661940">
    <ele>5531.9</ele>
    <time>2026-06-23T05:52:50Z</time>
   </trkpt>
   <trkpt lat="-3.0802560" lon="37.3662040">
    <ele>5531.5</ele>
    <time>2026-06-23T05:52:51Z</time>
   </trkpt>
   <trkpt lat="-3.0802670" lon="37.3662250">
    <ele>5530.5</ele>
    <time>2026-06-23T05:52:52Z</time>
   </trkpt>
   <trkpt lat="-3.0802670" lon="37.3662380">
    <ele>5530.0</ele>
    <time>2026-06-23T05:52:53Z</time>
   </trkpt>
   <trkpt lat="-3.0802620" lon="37.3662490">
    <ele>5529.5</ele>
    <time>2026-06-23T05:52:54Z</time>
   </trkpt>
   <trkpt lat="-3.0802610" lon="37.3662620">
    <ele>5529.0</ele>
    <time>2026-06-23T05:52:55Z</time>
   </trkpt>
   <trkpt lat="-3.0802730" lon="37.3662710">
    <ele>5528.4</ele>
    <time>2026-06-23T05:52:56Z</time>
   </trkpt>
   <trkpt lat="-3.0802880" lon="37.3662730">
    <ele>5527.8</ele>
    <time>2026-06-23T05:52:57Z</time>
   </trkpt>
   <trkpt lat="-3.0802950" lon="37.3662790">
    <ele>5527.4</ele>
    <time>2026-06-23T05:52:58Z</time>
   </trkpt>
   <trkpt lat="-3.0802990" lon="37.3662910">
    <ele>5526.9</ele>
    <time>2026-06-23T05:52:59Z</time>
   </trkpt>
   <trkpt lat="-3.0803060" lon="37.3663000">
    <ele>5526.5</ele>
    <time>2026-06-23T05:53:00Z</time>
   </trkpt>
   <trkpt lat="-3.0803080" lon="37.3663090">
    <ele>5526.1</ele>
    <time>2026-06-23T05:53:01Z</time>
   </trkpt>
   <trkpt lat="-3.0803080" lon="37.3663210">
    <ele>5525.6</ele>
    <time>2026-06-23T05:53:02Z</time>
   </trkpt>
   <trkpt lat="-3.0803100" lon="37.3663300">
    <ele>5525.3</ele>
    <time>2026-06-23T05:53:03Z</time>
   </trkpt>
   <trkpt lat="-3.0803140" lon="37.3663360">
    <ele>5525.0</ele>
    <time>2026-06-23T05:53:04Z</time>
   </trkpt>
   <trkpt lat="-3.0803220" lon="37.3663390">
    <ele>5524.6</ele>
    <time>2026-06-23T05:53:05Z</time>
   </trkpt>
   <trkpt lat="-3.0803320" lon="37.3663420">
    <ele>5524.2</ele>
    <time>2026-06-23T05:53:06Z</time>
   </trkpt>
   <trkpt lat="-3.0803340" lon="37.3663460">
    <ele>5524.1</ele>
    <time>2026-06-23T05:53:07Z</time>
   </trkpt>
   <trkpt lat="-3.0803400" lon="37.3663600">
    <ele>5523.4</ele>
    <time>2026-06-23T05:53:08Z</time>
   </trkpt>
   <trkpt lat="-3.0803390" lon="37.3663710">
    <ele>5523.0</ele>
    <time>2026-06-23T05:53:09Z</time>
   </trkpt>
   <trkpt lat="-3.0803380" lon="37.3663840">
    <ele>5522.5</ele>
    <time>2026-06-23T05:53:10Z</time>
   </trkpt>
   <trkpt lat="-3.0803410" lon="37.3663960">
    <ele>5522.0</ele>
    <time>2026-06-23T05:53:11Z</time>
   </trkpt>
   <trkpt lat="-3.0803480" lon="37.3664050">
    <ele>5521.5</ele>
    <time>2026-06-23T05:53:12Z</time>
   </trkpt>
   <trkpt lat="-3.0803580" lon="37.3664090">
    <ele>5521.1</ele>
    <time>2026-06-23T05:53:13Z</time>
   </trkpt>
   <trkpt lat="-3.0803690" lon="37.3664130">
    <ele>5520.6</ele>
    <time>2026-06-23T05:53:14Z</time>
   </trkpt>
   <trkpt lat="-3.0803790" lon="37.3664190">
    <ele>5520.2</ele>
    <time>2026-06-23T05:53:15Z</time>
   </trkpt>
   <trkpt lat="-3.0803890" lon="37.3664270">
    <ele>5519.7</ele>
    <time>2026-06-23T05:53:16Z</time>
   </trkpt>
   <trkpt lat="-3.0803980" lon="37.3664340">
    <ele>5519.2</ele>
    <time>2026-06-23T05:53:17Z</time>
   </trkpt>
   <trkpt lat="-3.0804070" lon="37.3664370">
    <ele>5518.8</ele>
    <time>2026-06-23T05:53:18Z</time>
   </trkpt>
   <trkpt lat="-3.0804150" lon="37.3664400">
    <ele>5518.5</ele>
    <time>2026-06-23T05:53:19Z</time>
   </trkpt>
   <trkpt lat="-3.0804210" lon="37.3664460">
    <ele>5518.2</ele>
    <time>2026-06-23T05:53:20Z</time>
   </trkpt>
   <trkpt lat="-3.0804310" lon="37.3664520">
    <ele>5517.7</ele>
    <time>2026-06-23T05:53:21Z</time>
   </trkpt>
   <trkpt lat="-3.0804400" lon="37.3664560">
    <ele>5517.3</ele>
    <time>2026-06-23T05:53:22Z</time>
   </trkpt>
   <trkpt lat="-3.0804440" lon="37.3664650">
    <ele>5516.9</ele>
    <time>2026-06-23T05:53:23Z</time>
   </trkpt>
   <trkpt lat="-3.0804440" lon="37.3664740">
    <ele>5516.6</ele>
    <time>2026-06-23T05:53:24Z</time>
   </trkpt>
   <trkpt lat="-3.0804470" lon="37.3664860">
    <ele>5516.1</ele>
    <time>2026-06-23T05:53:25Z</time>
   </trkpt>
   <trkpt lat="-3.0804470" lon="37.3664980">
    <ele>5515.7</ele>
    <time>2026-06-23T05:53:26Z</time>
   </trkpt>
   <trkpt lat="-3.0804480" lon="37.3665070">
    <ele>5515.3</ele>
    <time>2026-06-23T05:53:27Z</time>
   </trkpt>
   <trkpt lat="-3.0804540" lon="37.3665170">
    <ele>5514.9</ele>
    <time>2026-06-23T05:53:28Z</time>
   </trkpt>
   <trkpt lat="-3.0804620" lon="37.3665250">
    <ele>5514.4</ele>
    <time>2026-06-23T05:53:29Z</time>
   </trkpt>
   <trkpt lat="-3.0804710" lon="37.3665320">
    <ele>5514.0</ele>
    <time>2026-06-23T05:53:30Z</time>
   </trkpt>
   <trkpt lat="-3.0804820" lon="37.3665360">
    <ele>5513.6</ele>
    <time>2026-06-23T05:53:31Z</time>
   </trkpt>
   <trkpt lat="-3.0804930" lon="37.3665420">
    <ele>5513.1</ele>
    <time>2026-06-23T05:53:32Z</time>
   </trkpt>
   <trkpt lat="-3.0805050" lon="37.3665430">
    <ele>5512.6</ele>
    <time>2026-06-23T05:53:33Z</time>
   </trkpt>
   <trkpt lat="-3.0805170" lon="37.3665440">
    <ele>5512.2</ele>
    <time>2026-06-23T05:53:34Z</time>
   </trkpt>
   <trkpt lat="-3.0805270" lon="37.3665460">
    <ele>5511.8</ele>
    <time>2026-06-23T05:53:35Z</time>
   </trkpt>
   <trkpt lat="-3.0805400" lon="37.3665500">
    <ele>5511.3</ele>
    <time>2026-06-23T05:53:36Z</time>
   </trkpt>
   <trkpt lat="-3.0805530" lon="37.3665500">
    <ele>5510.8</ele>
    <time>2026-06-23T05:53:37Z</time>
   </trkpt>
   <trkpt lat="-3.0805660" lon="37.3665520">
    <ele>5510.4</ele>
    <time>2026-06-23T05:53:38Z</time>
   </trkpt>
   <trkpt lat="-3.0805760" lon="37.3665510">
    <ele>5510.0</ele>
    <time>2026-06-23T05:53:39Z</time>
   </trkpt>
   <trkpt lat="-3.0805840" lon="37.3665470">
    <ele>5509.7</ele>
    <time>2026-06-23T05:53:40Z</time>
   </trkpt>
   <trkpt lat="-3.0805960" lon="37.3665500">
    <ele>5509.3</ele>
    <time>2026-06-23T05:53:41Z</time>
   </trkpt>
   <trkpt lat="-3.0806080" lon="37.3665530">
    <ele>5508.8</ele>
    <time>2026-06-23T05:53:42Z</time>
   </trkpt>
   <trkpt lat="-3.0806190" lon="37.3665530">
    <ele>5508.4</ele>
    <time>2026-06-23T05:53:43Z</time>
   </trkpt>
   <trkpt lat="-3.0806320" lon="37.3665520">
    <ele>5508.0</ele>
    <time>2026-06-23T05:53:44Z</time>
   </trkpt>
   <trkpt lat="-3.0806420" lon="37.3665550">
    <ele>5507.6</ele>
    <time>2026-06-23T05:53:45Z</time>
   </trkpt>
   <trkpt lat="-3.0806490" lon="37.3665630">
    <ele>5507.2</ele>
    <time>2026-06-23T05:53:46Z</time>
   </trkpt>
   <trkpt lat="-3.0806520" lon="37.3665770">
    <ele>5506.7</ele>
    <time>2026-06-23T05:53:47Z</time>
   </trkpt>
   <trkpt lat="-3.0806560" lon="37.3665890">
    <ele>5506.3</ele>
    <time>2026-06-23T05:53:48Z</time>
   </trkpt>
   <trkpt lat="-3.0806700" lon="37.3665940">
    <ele>5505.8</ele>
    <time>2026-06-23T05:53:49Z</time>
   </trkpt>
   <trkpt lat="-3.0806850" lon="37.3665880">
    <ele>5505.2</ele>
    <time>2026-06-23T05:53:50Z</time>
   </trkpt>
   <trkpt lat="-3.0806960" lon="37.3665860">
    <ele>5504.9</ele>
    <time>2026-06-23T05:53:51Z</time>
   </trkpt>
   <trkpt lat="-3.0807070" lon="37.3665900">
    <ele>5504.5</ele>
    <time>2026-06-23T05:53:52Z</time>
   </trkpt>
   <trkpt lat="-3.0807190" lon="37.3665920">
    <ele>5504.1</ele>
    <time>2026-06-23T05:53:53Z</time>
   </trkpt>
   <trkpt lat="-3.0807310" lon="37.3665940">
    <ele>5503.6</ele>
    <time>2026-06-23T05:53:54Z</time>
   </trkpt>
   <trkpt lat="-3.0807390" lon="37.3665970">
    <ele>5503.4</ele>
    <time>2026-06-23T05:53:55Z</time>
   </trkpt>
   <trkpt lat="-3.0807490" lon="37.3666000">
    <ele>5503.0</ele>
    <time>2026-06-23T05:53:56Z</time>
   </trkpt>
   <trkpt lat="-3.0807620" lon="37.3665960">
    <ele>5502.5</ele>
    <time>2026-06-23T05:53:57Z</time>
   </trkpt>
   <trkpt lat="-3.0807720" lon="37.3665980">
    <ele>5502.2</ele>
    <time>2026-06-23T05:53:58Z</time>
   </trkpt>
   <trkpt lat="-3.0807820" lon="37.3666100">
    <ele>5501.7</ele>
    <time>2026-06-23T05:53:59Z</time>
   </trkpt>
   <trkpt lat="-3.0807910" lon="37.3666190">
    <ele>5501.2</ele>
    <time>2026-06-23T05:54:00Z</time>
   </trkpt>
   <trkpt lat="-3.0808020" lon="37.3666230">
    <ele>5500.8</ele>
    <time>2026-06-23T05:54:01Z</time>
   </trkpt>
   <trkpt lat="-3.0808130" lon="37.3666230">
    <ele>5500.5</ele>
    <time>2026-06-23T05:54:02Z</time>
   </trkpt>
   <trkpt lat="-3.0808210" lon="37.3666280">
    <ele>5500.1</ele>
    <time>2026-06-23T05:54:03Z</time>
   </trkpt>
   <trkpt lat="-3.0808270" lon="37.3666390">
    <ele>5499.7</ele>
    <time>2026-06-23T05:54:04Z</time>
   </trkpt>
   <trkpt lat="-3.0808360" lon="37.3666470">
    <ele>5499.3</ele>
    <time>2026-06-23T05:54:05Z</time>
   </trkpt>
   <trkpt lat="-3.0808450" lon="37.3666540">
    <ele>5498.9</ele>
    <time>2026-06-23T05:54:06Z</time>
   </trkpt>
   <trkpt lat="-3.0808560" lon="37.3666580">
    <ele>5498.5</ele>
    <time>2026-06-23T05:54:07Z</time>
   </trkpt>
   <trkpt lat="-3.0808690" lon="37.3666560">
    <ele>5498.1</ele>
    <time>2026-06-23T05:54:08Z</time>
   </trkpt>
   <trkpt lat="-3.0808810" lon="37.3666560">
    <ele>5497.7</ele>
    <time>2026-06-23T05:54:09Z</time>
   </trkpt>
   <trkpt lat="-3.0808930" lon="37.3666560">
    <ele>5497.3</ele>
    <time>2026-06-23T05:54:10Z</time>
   </trkpt>
   <trkpt lat="-3.0809050" lon="37.3666600">
    <ele>5496.8</ele>
    <time>2026-06-23T05:54:11Z</time>
   </trkpt>
   <trkpt lat="-3.0809110" lon="37.3666640">
    <ele>5496.6</ele>
    <time>2026-06-23T05:54:12Z</time>
   </trkpt>
   <trkpt lat="-3.0809210" lon="37.3666730">
    <ele>5496.1</ele>
    <time>2026-06-23T05:54:13Z</time>
   </trkpt>
   <trkpt lat="-3.0809340" lon="37.3666720">
    <ele>5495.7</ele>
    <time>2026-06-23T05:54:14Z</time>
   </trkpt>
   <trkpt lat="-3.0809470" lon="37.3666720">
    <ele>5495.2</ele>
    <time>2026-06-23T05:54:15Z</time>
   </trkpt>
   <trkpt lat="-3.0809530" lon="37.3666800">
    <ele>5494.9</ele>
    <time>2026-06-23T05:54:16Z</time>
   </trkpt>
   <trkpt lat="-3.0809620" lon="37.3666910">
    <ele>5494.4</ele>
    <time>2026-06-23T05:54:17Z</time>
   </trkpt>
   <trkpt lat="-3.0809750" lon="37.3667010">
    <ele>5493.8</ele>
    <time>2026-06-23T05:54:18Z</time>
   </trkpt>
   <trkpt lat="-3.0809850" lon="37.3667070">
    <ele>5493.4</ele>
    <time>2026-06-23T05:54:19Z</time>
   </trkpt>
   <trkpt lat="-3.0809960" lon="37.3667110">
    <ele>5493.0</ele>
    <time>2026-06-23T05:54:20Z</time>
   </trkpt>
   <trkpt lat="-3.0810090" lon="37.3667110">
    <ele>5492.5</ele>
    <time>2026-06-23T05:54:21Z</time>
   </trkpt>
   <trkpt lat="-3.0810200" lon="37.3667050">
    <ele>5492.1</ele>
    <time>2026-06-23T05:54:22Z</time>
   </trkpt>
   <trkpt lat="-3.0810290" lon="37.3667060">
    <ele>5491.8</ele>
    <time>2026-06-23T05:54:23Z</time>
   </trkpt>
   <trkpt lat="-3.0810390" lon="37.3667180">
    <ele>5491.2</ele>
    <time>2026-06-23T05:54:24Z</time>
   </trkpt>
   <trkpt lat="-3.0810440" lon="37.3667280">
    <ele>5490.8</ele>
    <time>2026-06-23T05:54:25Z</time>
   </trkpt>
   <trkpt lat="-3.0810380" lon="37.3667400">
    <ele>5490.4</ele>
    <time>2026-06-23T05:54:26Z</time>
   </trkpt>
   <trkpt lat="-3.0810330" lon="37.3667470">
    <ele>5490.1</ele>
    <time>2026-06-23T05:54:27Z</time>
   </trkpt>
   <trkpt lat="-3.0810230" lon="37.3667570">
    <ele>5489.6</ele>
    <time>2026-06-23T05:54:28Z</time>
   </trkpt>
   <trkpt lat="-3.0810100" lon="37.3667640">
    <ele>5489.1</ele>
    <time>2026-06-23T05:54:29Z</time>
   </trkpt>
   <trkpt lat="-3.0810030" lon="37.3667710">
    <ele>5488.7</ele>
    <time>2026-06-23T05:54:30Z</time>
   </trkpt>
   <trkpt lat="-3.0810070" lon="37.3667830">
    <ele>5488.3</ele>
    <time>2026-06-23T05:54:31Z</time>
   </trkpt>
   <trkpt lat="-3.0810040" lon="37.3667910">
    <ele>5488.0</ele>
    <time>2026-06-23T05:54:32Z</time>
   </trkpt>
   <trkpt lat="-3.0810050" lon="37.3667980">
    <ele>5487.7</ele>
    <time>2026-06-23T05:54:33Z</time>
   </trkpt>
   <trkpt lat="-3.0810130" lon="37.3667980">
    <ele>5487.4</ele>
    <time>2026-06-23T05:54:34Z</time>
   </trkpt>
   <trkpt lat="-3.0810190" lon="37.3668020">
    <ele>5487.2</ele>
    <time>2026-06-23T05:54:35Z</time>
   </trkpt>
   <trkpt lat="-3.0810240" lon="37.3668080">
    <ele>5486.9</ele>
    <time>2026-06-23T05:54:37Z</time>
   </trkpt>
   <trkpt lat="-3.0810290" lon="37.3668100">
    <ele>5486.7</ele>
    <time>2026-06-23T05:54:38Z</time>
   </trkpt>
   <trkpt lat="-3.0810370" lon="37.3668130">
    <ele>5486.4</ele>
    <time>2026-06-23T05:54:39Z</time>
   </trkpt>
   <trkpt lat="-3.0810450" lon="37.3668090">
    <ele>5486.1</ele>
    <time>2026-06-23T05:54:40Z</time>
   </trkpt>
   <trkpt lat="-3.0810530" lon="37.3668070">
    <ele>5485.8</ele>
    <time>2026-06-23T05:54:41Z</time>
   </trkpt>
   <trkpt lat="-3.0810580" lon="37.3668070">
    <ele>5485.6</ele>
    <time>2026-06-23T05:54:42Z</time>
   </trkpt>
   <trkpt lat="-3.0810650" lon="37.3668070">
    <ele>5485.4</ele>
    <time>2026-06-23T05:54:43Z</time>
   </trkpt>
   <trkpt lat="-3.0810740" lon="37.3668090">
    <ele>5485.0</ele>
    <time>2026-06-23T05:54:44Z</time>
   </trkpt>
   <trkpt lat="-3.0810760" lon="37.3668160">
    <ele>5484.8</ele>
    <time>2026-06-23T05:54:45Z</time>
   </trkpt>
   <trkpt lat="-3.0810800" lon="37.3668260">
    <ele>5484.4</ele>
    <time>2026-06-23T05:54:46Z</time>
   </trkpt>
   <trkpt lat="-3.0810770" lon="37.3668350">
    <ele>5484.1</ele>
    <time>2026-06-23T05:54:47Z</time>
   </trkpt>
   <trkpt lat="-3.0810780" lon="37.3668420">
    <ele>5483.8</ele>
    <time>2026-06-23T05:54:48Z</time>
   </trkpt>
   <trkpt lat="-3.0810850" lon="37.3668480">
    <ele>5483.5</ele>
    <time>2026-06-23T05:54:49Z</time>
   </trkpt>
   <trkpt lat="-3.0810950" lon="37.3668490">
    <ele>5483.1</ele>
    <time>2026-06-23T05:54:50Z</time>
   </trkpt>
   <trkpt lat="-3.0811070" lon="37.3668420">
    <ele>5482.6</ele>
    <time>2026-06-23T05:54:51Z</time>
   </trkpt>
   <trkpt lat="-3.0811140" lon="37.3668380">
    <ele>5482.3</ele>
    <time>2026-06-23T05:54:52Z</time>
   </trkpt>
   <trkpt lat="-3.0811210" lon="37.3668410">
    <ele>5482.1</ele>
    <time>2026-06-23T05:54:53Z</time>
   </trkpt>
   <trkpt lat="-3.0811220" lon="37.3668470">
    <ele>5481.8</ele>
    <time>2026-06-23T05:54:54Z</time>
   </trkpt>
   <trkpt lat="-3.0811210" lon="37.3668530">
    <ele>5481.6</ele>
    <time>2026-06-23T05:54:55Z</time>
   </trkpt>
   <trkpt lat="-3.0811190" lon="37.3668610">
    <ele>5481.3</ele>
    <time>2026-06-23T05:54:56Z</time>
   </trkpt>
   <trkpt lat="-3.0811170" lon="37.3668760">
    <ele>5480.8</ele>
    <time>2026-06-23T05:54:57Z</time>
   </trkpt>
   <trkpt lat="-3.0811150" lon="37.3668880">
    <ele>5480.4</ele>
    <time>2026-06-23T05:54:58Z</time>
   </trkpt>
   <trkpt lat="-3.0811180" lon="37.3668970">
    <ele>5480.0</ele>
    <time>2026-06-23T05:54:59Z</time>
   </trkpt>
   <trkpt lat="-3.0811250" lon="37.3669000">
    <ele>5479.8</ele>
    <time>2026-06-23T05:55:00Z</time>
   </trkpt>
   <trkpt lat="-3.0811330" lon="37.3669080">
    <ele>5479.3</ele>
    <time>2026-06-23T05:55:01Z</time>
   </trkpt>
   <trkpt lat="-3.0811380" lon="37.3669160">
    <ele>5479.0</ele>
    <time>2026-06-23T05:55:02Z</time>
   </trkpt>
   <trkpt lat="-3.0811470" lon="37.3669210">
    <ele>5478.6</ele>
    <time>2026-06-23T05:55:03Z</time>
   </trkpt>
   <trkpt lat="-3.0811560" lon="37.3669200">
    <ele>5478.3</ele>
    <time>2026-06-23T05:55:04Z</time>
   </trkpt>
   <trkpt lat="-3.0811670" lon="37.3669170">
    <ele>5477.9</ele>
    <time>2026-06-23T05:55:05Z</time>
   </trkpt>
   <trkpt lat="-3.0811750" lon="37.3669130">
    <ele>5477.6</ele>
    <time>2026-06-23T05:55:06Z</time>
   </trkpt>
   <trkpt lat="-3.0811820" lon="37.3669110">
    <ele>5477.3</ele>
    <time>2026-06-23T05:55:07Z</time>
   </trkpt>
   <trkpt lat="-3.0811890" lon="37.3669120">
    <ele>5477.1</ele>
    <time>2026-06-23T05:55:08Z</time>
   </trkpt>
   <trkpt lat="-3.0811940" lon="37.3669170">
    <ele>5476.9</ele>
    <time>2026-06-23T05:55:09Z</time>
   </trkpt>
   <trkpt lat="-3.0812080" lon="37.3669230">
    <ele>5476.3</ele>
    <time>2026-06-23T05:55:10Z</time>
   </trkpt>
   <trkpt lat="-3.0812160" lon="37.3669250">
    <ele>5476.0</ele>
    <time>2026-06-23T05:55:11Z</time>
   </trkpt>
   <trkpt lat="-3.0812260" lon="37.3669280">
    <ele>5475.7</ele>
    <time>2026-06-23T05:55:12Z</time>
   </trkpt>
   <trkpt lat="-3.0812270" lon="37.3669330">
    <ele>5475.5</ele>
    <time>2026-06-23T05:55:13Z</time>
   </trkpt>
   <trkpt lat="-3.0812300" lon="37.3669440">
    <ele>5475.1</ele>
    <time>2026-06-23T05:55:14Z</time>
   </trkpt>
   <trkpt lat="-3.0812350" lon="37.3669570">
    <ele>5474.6</ele>
    <time>2026-06-23T05:55:15Z</time>
   </trkpt>
   <trkpt lat="-3.0812420" lon="37.3669640">
    <ele>5474.3</ele>
    <time>2026-06-23T05:55:16Z</time>
   </trkpt>
   <trkpt lat="-3.0812500" lon="37.3669590">
    <ele>5473.9</ele>
    <time>2026-06-23T05:55:17Z</time>
   </trkpt>
   <trkpt lat="-3.0812550" lon="37.3669540">
    <ele>5473.7</ele>
    <time>2026-06-23T05:55:18Z</time>
   </trkpt>
   <trkpt lat="-3.0812610" lon="37.3669480">
    <ele>5473.4</ele>
    <time>2026-06-23T05:55:19Z</time>
   </trkpt>
   <trkpt lat="-3.0812690" lon="37.3669480">
    <ele>5473.1</ele>
    <time>2026-06-23T05:55:20Z</time>
   </trkpt>
   <trkpt lat="-3.0812780" lon="37.3669510">
    <ele>5472.8</ele>
    <time>2026-06-23T05:55:21Z</time>
   </trkpt>
   <trkpt lat="-3.0812870" lon="37.3669540">
    <ele>5472.5</ele>
    <time>2026-06-23T05:55:22Z</time>
   </trkpt>
   <trkpt lat="-3.0812950" lon="37.3669590">
    <ele>5472.1</ele>
    <time>2026-06-23T05:55:23Z</time>
   </trkpt>
   <trkpt lat="-3.0813020" lon="37.3669610">
    <ele>5471.9</ele>
    <time>2026-06-23T05:55:24Z</time>
   </trkpt>
   <trkpt lat="-3.0813090" lon="37.3669660">
    <ele>5471.6</ele>
    <time>2026-06-23T05:55:25Z</time>
   </trkpt>
   <trkpt lat="-3.0813130" lon="37.3669720">
    <ele>5471.3</ele>
    <time>2026-06-23T05:55:26Z</time>
   </trkpt>
   <trkpt lat="-3.0813150" lon="37.3669820">
    <ele>5471.0</ele>
    <time>2026-06-23T05:55:27Z</time>
   </trkpt>
   <trkpt lat="-3.0813110" lon="37.3669910">
    <ele>5470.6</ele>
    <time>2026-06-23T05:55:28Z</time>
   </trkpt>
   <trkpt lat="-3.0813050" lon="37.3670010">
    <ele>5470.2</ele>
    <time>2026-06-23T05:55:29Z</time>
   </trkpt>
   <trkpt lat="-3.0813050" lon="37.3670140">
    <ele>5469.8</ele>
    <time>2026-06-23T05:55:30Z</time>
   </trkpt>
   <trkpt lat="-3.0813140" lon="37.3670140">
    <ele>5469.5</ele>
    <time>2026-06-23T05:55:31Z</time>
   </trkpt>
   <trkpt lat="-3.0813220" lon="37.3670120">
    <ele>5469.2</ele>
    <time>2026-06-23T05:55:32Z</time>
   </trkpt>
   <trkpt lat="-3.0813310" lon="37.3670080">
    <ele>5468.8</ele>
    <time>2026-06-23T05:55:33Z</time>
   </trkpt>
   <trkpt lat="-3.0813390" lon="37.3670040">
    <ele>5468.5</ele>
    <time>2026-06-23T05:55:34Z</time>
   </trkpt>
   <trkpt lat="-3.0813450" lon="37.3670050">
    <ele>5468.3</ele>
    <time>2026-06-23T05:55:35Z</time>
   </trkpt>
   <trkpt lat="-3.0813530" lon="37.3670060">
    <ele>5468.0</ele>
    <time>2026-06-23T05:55:36Z</time>
   </trkpt>
   <trkpt lat="-3.0813620" lon="37.3670070">
    <ele>5467.6</ele>
    <time>2026-06-23T05:55:37Z</time>
   </trkpt>
   <trkpt lat="-3.0813700" lon="37.3670090">
    <ele>5467.3</ele>
    <time>2026-06-23T05:55:38Z</time>
   </trkpt>
   <trkpt lat="-3.0813770" lon="37.3670110">
    <ele>5467.1</ele>
    <time>2026-06-23T05:55:39Z</time>
   </trkpt>
   <trkpt lat="-3.0813840" lon="37.3670130">
    <ele>5466.8</ele>
    <time>2026-06-23T05:55:40Z</time>
   </trkpt>
   <trkpt lat="-3.0813880" lon="37.3670170">
    <ele>5466.6</ele>
    <time>2026-06-23T05:55:41Z</time>
   </trkpt>
   <trkpt lat="-3.0813900" lon="37.3670220">
    <ele>5466.4</ele>
    <time>2026-06-23T05:55:42Z</time>
   </trkpt>
   <trkpt lat="-3.0813920" lon="37.3670300">
    <ele>5466.1</ele>
    <time>2026-06-23T05:55:43Z</time>
   </trkpt>
   <trkpt lat="-3.0813910" lon="37.3670370">
    <ele>5465.9</ele>
    <time>2026-06-23T05:55:44Z</time>
   </trkpt>
   <trkpt lat="-3.0813870" lon="37.3670430">
    <ele>5465.6</ele>
    <time>2026-06-23T05:55:45Z</time>
   </trkpt>
   <trkpt lat="-3.0813840" lon="37.3670560">
    <ele>5465.1</ele>
    <time>2026-06-23T05:55:46Z</time>
   </trkpt>
   <trkpt lat="-3.0813850" lon="37.3670630">
    <ele>5464.8</ele>
    <time>2026-06-23T05:55:47Z</time>
   </trkpt>
   <trkpt lat="-3.0813860" lon="37.3670690">
    <ele>5464.6</ele>
    <time>2026-06-23T05:55:48Z</time>
   </trkpt>
   <trkpt lat="-3.0813880" lon="37.3670740">
    <ele>5464.4</ele>
    <time>2026-06-23T05:55:49Z</time>
   </trkpt>
   <trkpt lat="-3.0813910" lon="37.3670850">
    <ele>5463.9</ele>
    <time>2026-06-23T05:55:50Z</time>
   </trkpt>
   <trkpt lat="-3.0813970" lon="37.3670890">
    <ele>5463.7</ele>
    <time>2026-06-23T05:55:51Z</time>
   </trkpt>
   <trkpt lat="-3.0814060" lon="37.3670950">
    <ele>5463.3</ele>
    <time>2026-06-23T05:55:52Z</time>
   </trkpt>
   <trkpt lat="-3.0814110" lon="37.3670970">
    <ele>5463.0</ele>
    <time>2026-06-23T05:55:53Z</time>
   </trkpt>
   <trkpt lat="-3.0814110" lon="37.3671050">
    <ele>5462.7</ele>
    <time>2026-06-23T05:55:54Z</time>
   </trkpt>
   <trkpt lat="-3.0814110" lon="37.3671140">
    <ele>5462.4</ele>
    <time>2026-06-23T05:55:55Z</time>
   </trkpt>
   <trkpt lat="-3.0814070" lon="37.3671230">
    <ele>5462.0</ele>
    <time>2026-06-23T05:55:56Z</time>
   </trkpt>
   <trkpt lat="-3.0814070" lon="37.3671330">
    <ele>5461.6</ele>
    <time>2026-06-23T05:55:57Z</time>
   </trkpt>
   <trkpt lat="-3.0814060" lon="37.3671380">
    <ele>5461.4</ele>
    <time>2026-06-23T05:55:58Z</time>
   </trkpt>
   <trkpt lat="-3.0814010" lon="37.3671430">
    <ele>5461.2</ele>
    <time>2026-06-23T05:55:59Z</time>
   </trkpt>
   <trkpt lat="-3.0813950" lon="37.3671470">
    <ele>5460.9</ele>
    <time>2026-06-23T05:56:00Z</time>
   </trkpt>
   <trkpt lat="-3.0813940" lon="37.3671530">
    <ele>5460.7</ele>
    <time>2026-06-23T05:56:01Z</time>
   </trkpt>
   <trkpt lat="-3.0813990" lon="37.3671590">
    <ele>5460.4</ele>
    <time>2026-06-23T05:56:02Z</time>
   </trkpt>
   <trkpt lat="-3.0814040" lon="37.3671680">
    <ele>5460.0</ele>
    <time>2026-06-23T05:56:03Z</time>
   </trkpt>
   <trkpt lat="-3.0814090" lon="37.3671760">
    <ele>5459.6</ele>
    <time>2026-06-23T05:56:04Z</time>
   </trkpt>
   <trkpt lat="-3.0814150" lon="37.3671780">
    <ele>5459.3</ele>
    <time>2026-06-23T05:56:05Z</time>
   </trkpt>
   <trkpt lat="-3.0814220" lon="37.3671800">
    <ele>5459.1</ele>
    <time>2026-06-23T05:56:06Z</time>
   </trkpt>
   <trkpt lat="-3.0814280" lon="37.3671780">
    <ele>5458.8</ele>
    <time>2026-06-23T05:56:07Z</time>
   </trkpt>
   <trkpt lat="-3.0814340" lon="37.3671770">
    <ele>5458.6</ele>
    <time>2026-06-23T05:56:08Z</time>
   </trkpt>
   <trkpt lat="-3.0814420" lon="37.3671810">
    <ele>5458.2</ele>
    <time>2026-06-23T05:56:09Z</time>
   </trkpt>
   <trkpt lat="-3.0814470" lon="37.3671860">
    <ele>5458.0</ele>
    <time>2026-06-23T05:56:10Z</time>
   </trkpt>
   <trkpt lat="-3.0814490" lon="37.3671910">
    <ele>5457.8</ele>
    <time>2026-06-23T05:56:11Z</time>
   </trkpt>
   <trkpt lat="-3.0814540" lon="37.3671940">
    <ele>5457.5</ele>
    <time>2026-06-23T05:56:12Z</time>
   </trkpt>
   <trkpt lat="-3.0814600" lon="37.3671990">
    <ele>5457.2</ele>
    <time>2026-06-23T05:56:13Z</time>
   </trkpt>
   <trkpt lat="-3.0814650" lon="37.3672030">
    <ele>5457.0</ele>
    <time>2026-06-23T05:56:14Z</time>
   </trkpt>
   <trkpt lat="-3.0814710" lon="37.3672070">
    <ele>5456.7</ele>
    <time>2026-06-23T05:56:15Z</time>
   </trkpt>
   <trkpt lat="-3.0814730" lon="37.3672100">
    <ele>5456.6</ele>
    <time>2026-06-23T05:56:16Z</time>
   </trkpt>
   <trkpt lat="-3.0814740" lon="37.3672140">
    <ele>5456.4</ele>
    <time>2026-06-23T05:56:17Z</time>
   </trkpt>
   <trkpt lat="-3.0814760" lon="37.3672270">
    <ele>5455.9</ele>
    <time>2026-06-23T05:56:18Z</time>
   </trkpt>
   <trkpt lat="-3.0814790" lon="37.3672270">
    <ele>5455.8</ele>
    <time>2026-06-23T05:56:19Z</time>
   </trkpt>
   <trkpt lat="-3.0814840" lon="37.3672310">
    <ele>5455.5</ele>
    <time>2026-06-23T05:56:20Z</time>
   </trkpt>
   <trkpt lat="-3.0814970" lon="37.3672390">
    <ele>5454.9</ele>
    <time>2026-06-23T05:56:21Z</time>
   </trkpt>
   <trkpt lat="-3.0815080" lon="37.3672410">
    <ele>5454.5</ele>
    <time>2026-06-23T05:56:22Z</time>
   </trkpt>
   <trkpt lat="-3.0815180" lon="37.3672370">
    <ele>5454.1</ele>
    <time>2026-06-23T05:56:23Z</time>
   </trkpt>
   <trkpt lat="-3.0815230" lon="37.3672330">
    <ele>5453.8</ele>
    <time>2026-06-23T05:56:24Z</time>
   </trkpt>
   <trkpt lat="-3.0815320" lon="37.3672280">
    <ele>5453.4</ele>
    <time>2026-06-23T05:56:25Z</time>
   </trkpt>
   <trkpt lat="-3.0815370" lon="37.3672250">
    <ele>5453.2</ele>
    <time>2026-06-23T05:56:26Z</time>
   </trkpt>
   <trkpt lat="-3.0815430" lon="37.3672220">
    <ele>5452.9</ele>
    <time>2026-06-23T05:56:27Z</time>
   </trkpt>
   <trkpt lat="-3.0815500" lon="37.3672210">
    <ele>5452.7</ele>
    <time>2026-06-23T05:56:28Z</time>
   </trkpt>
   <trkpt lat="-3.0815560" lon="37.3672230">
    <ele>5452.4</ele>
    <time>2026-06-23T05:56:29Z</time>
   </trkpt>
   <trkpt lat="-3.0815620" lon="37.3672290">
    <ele>5452.1</ele>
    <time>2026-06-23T05:56:30Z</time>
   </trkpt>
   <trkpt lat="-3.0815680" lon="37.3672360">
    <ele>5451.7</ele>
    <time>2026-06-23T05:56:31Z</time>
   </trkpt>
   <trkpt lat="-3.0815760" lon="37.3672410">
    <ele>5451.4</ele>
    <time>2026-06-23T05:56:32Z</time>
   </trkpt>
   <trkpt lat="-3.0815830" lon="37.3672450">
    <ele>5451.0</ele>
    <time>2026-06-23T05:56:33Z</time>
   </trkpt>
   <trkpt lat="-3.0815850" lon="37.3672470">
    <ele>5450.9</ele>
    <time>2026-06-23T05:56:34Z</time>
   </trkpt>
   <trkpt lat="-3.0815870" lon="37.3672520">
    <ele>5450.7</ele>
    <time>2026-06-23T05:56:35Z</time>
   </trkpt>
   <trkpt lat="-3.0815870" lon="37.3672610">
    <ele>5450.4</ele>
    <time>2026-06-23T05:56:36Z</time>
   </trkpt>
   <trkpt lat="-3.0815840" lon="37.3672690">
    <ele>5450.0</ele>
    <time>2026-06-23T05:56:37Z</time>
   </trkpt>
   <trkpt lat="-3.0815800" lon="37.3672790">
    <ele>5449.6</ele>
    <time>2026-06-23T05:56:38Z</time>
   </trkpt>
   <trkpt lat="-3.0815740" lon="37.3672860">
    <ele>5449.3</ele>
    <time>2026-06-23T05:56:39Z</time>
   </trkpt>
   <trkpt lat="-3.0815680" lon="37.3672970">
    <ele>5448.8</ele>
    <time>2026-06-23T05:56:40Z</time>
   </trkpt>
   <trkpt lat="-3.0815650" lon="37.3673070">
    <ele>5448.4</ele>
    <time>2026-06-23T05:56:42Z</time>
   </trkpt>
   <trkpt lat="-3.0815680" lon="37.3673130">
    <ele>5448.1</ele>
    <time>2026-06-23T05:56:43Z</time>
   </trkpt>
   <trkpt lat="-3.0815720" lon="37.3673220">
    <ele>5447.7</ele>
    <time>2026-06-23T05:56:44Z</time>
   </trkpt>
   <trkpt lat="-3.0815790" lon="37.3673280">
    <ele>5447.3</ele>
    <time>2026-06-23T05:56:45Z</time>
   </trkpt>
   <trkpt lat="-3.0815890" lon="37.3673310">
    <ele>5446.9</ele>
    <time>2026-06-23T05:56:46Z</time>
   </trkpt>
   <trkpt lat="-3.0815990" lon="37.3673360">
    <ele>5446.5</ele>
    <time>2026-06-23T05:56:47Z</time>
   </trkpt>
   <trkpt lat="-3.0816080" lon="37.3673400">
    <ele>5446.1</ele>
    <time>2026-06-23T05:56:48Z</time>
   </trkpt>
   <trkpt lat="-3.0816200" lon="37.3673390">
    <ele>5445.6</ele>
    <time>2026-06-23T05:56:49Z</time>
   </trkpt>
   <trkpt lat="-3.0816270" lon="37.3673350">
    <ele>5445.3</ele>
    <time>2026-06-23T05:56:50Z</time>
   </trkpt>
   <trkpt lat="-3.0816350" lon="37.3673310">
    <ele>5445.0</ele>
    <time>2026-06-23T05:56:51Z</time>
   </trkpt>
   <trkpt lat="-3.0816390" lon="37.3673270">
    <ele>5444.8</ele>
    <time>2026-06-23T05:56:52Z</time>
   </trkpt>
   <trkpt lat="-3.0816470" lon="37.3673210">
    <ele>5444.4</ele>
    <time>2026-06-23T05:56:53Z</time>
   </trkpt>
   <trkpt lat="-3.0816520" lon="37.3673140">
    <ele>5444.0</ele>
    <time>2026-06-23T05:56:54Z</time>
   </trkpt>
   <trkpt lat="-3.0816580" lon="37.3673090">
    <ele>5443.7</ele>
    <time>2026-06-23T05:56:55Z</time>
   </trkpt>
   <trkpt lat="-3.0816670" lon="37.3673080">
    <ele>5443.4</ele>
    <time>2026-06-23T05:56:56Z</time>
   </trkpt>
   <trkpt lat="-3.0816730" lon="37.3673120">
    <ele>5443.1</ele>
    <time>2026-06-23T05:56:57Z</time>
   </trkpt>
   <trkpt lat="-3.0816780" lon="37.3673110">
    <ele>5442.9</ele>
    <time>2026-06-23T05:56:58Z</time>
   </trkpt>
   <trkpt lat="-3.0816800" lon="37.3673140">
    <ele>5442.8</ele>
    <time>2026-06-23T05:56:59Z</time>
   </trkpt>
   <trkpt lat="-3.0816830" lon="37.3673180">
    <ele>5442.6</ele>
    <time>2026-06-23T05:57:00Z</time>
   </trkpt>
   <trkpt lat="-3.0816840" lon="37.3673230">
    <ele>5442.4</ele>
    <time>2026-06-23T05:57:01Z</time>
   </trkpt>
   <trkpt lat="-3.0816840" lon="37.3673300">
    <ele>5442.1</ele>
    <time>2026-06-23T05:57:02Z</time>
   </trkpt>
   <trkpt lat="-3.0816840" lon="37.3673470">
    <ele>5441.4</ele>
    <time>2026-06-23T05:57:03Z</time>
   </trkpt>
   <trkpt lat="-3.0816880" lon="37.3673510">
    <ele>5441.2</ele>
    <time>2026-06-23T05:57:04Z</time>
   </trkpt>
   <trkpt lat="-3.0816920" lon="37.3673570">
    <ele>5440.9</ele>
    <time>2026-06-23T05:57:05Z</time>
   </trkpt>
   <trkpt lat="-3.0816950" lon="37.3673660">
    <ele>5440.5</ele>
    <time>2026-06-23T05:57:06Z</time>
   </trkpt>
   <trkpt lat="-3.0816960" lon="37.3673750">
    <ele>5440.2</ele>
    <time>2026-06-23T05:57:07Z</time>
   </trkpt>
   <trkpt lat="-3.0816970" lon="37.3673790">
    <ele>5440.0</ele>
    <time>2026-06-23T05:57:08Z</time>
   </trkpt>
   <trkpt lat="-3.0817030" lon="37.3673790">
    <ele>5439.8</ele>
    <time>2026-06-23T05:57:09Z</time>
   </trkpt>
   <trkpt lat="-3.0817110" lon="37.3673750">
    <ele>5439.4</ele>
    <time>2026-06-23T05:57:10Z</time>
   </trkpt>
   <trkpt lat="-3.0817160" lon="37.3673690">
    <ele>5439.1</ele>
    <time>2026-06-23T05:57:11Z</time>
   </trkpt>
   <trkpt lat="-3.0817190" lon="37.3673620">
    <ele>5438.8</ele>
    <time>2026-06-23T05:57:12Z</time>
   </trkpt>
   <trkpt lat="-3.0817230" lon="37.3673550">
    <ele>5438.5</ele>
    <time>2026-06-23T05:57:13Z</time>
   </trkpt>
   <trkpt lat="-3.0817280" lon="37.3673500">
    <ele>5438.2</ele>
    <time>2026-06-23T05:57:14Z</time>
   </trkpt>
   <trkpt lat="-3.0817310" lon="37.3673520">
    <ele>5438.1</ele>
    <time>2026-06-23T05:57:15Z</time>
   </trkpt>
   <trkpt lat="-3.0817380" lon="37.3673540">
    <ele>5437.8</ele>
    <time>2026-06-23T05:57:16Z</time>
   </trkpt>
   <trkpt lat="-3.0817470" lon="37.3673540">
    <ele>5437.4</ele>
    <time>2026-06-23T05:57:17Z</time>
   </trkpt>
   <trkpt lat="-3.0817520" lon="37.3673560">
    <ele>5437.2</ele>
    <time>2026-06-23T05:57:18Z</time>
   </trkpt>
   <trkpt lat="-3.0817580" lon="37.3673590">
    <ele>5437.0</ele>
    <time>2026-06-23T05:57:19Z</time>
   </trkpt>
   <trkpt lat="-3.0817630" lon="37.3673600">
    <ele>5436.8</ele>
    <time>2026-06-23T05:57:20Z</time>
   </trkpt>
   <trkpt lat="-3.0817720" lon="37.3673630">
    <ele>5436.4</ele>
    <time>2026-06-23T05:57:21Z</time>
   </trkpt>
   <trkpt lat="-3.0817790" lon="37.3673640">
    <ele>5436.1</ele>
    <time>2026-06-23T05:57:22Z</time>
   </trkpt>
   <trkpt lat="-3.0817810" lon="37.3673610">
    <ele>5436.0</ele>
    <time>2026-06-23T05:57:23Z</time>
   </trkpt>
   <trkpt lat="-3.0817890" lon="37.3673620">
    <ele>5435.6</ele>
    <time>2026-06-23T05:57:24Z</time>
   </trkpt>
   <trkpt lat="-3.0817960" lon="37.3673640">
    <ele>5435.3</ele>
    <time>2026-06-23T05:57:25Z</time>
   </trkpt>
   <trkpt lat="-3.0818000" lon="37.3673660">
    <ele>5435.2</ele>
    <time>2026-06-23T05:57:26Z</time>
   </trkpt>
   <trkpt lat="-3.0818060" lon="37.3673710">
    <ele>5434.8</ele>
    <time>2026-06-23T05:57:27Z</time>
   </trkpt>
   <trkpt lat="-3.0818090" lon="37.3673750">
    <ele>5434.6</ele>
    <time>2026-06-23T05:57:28Z</time>
   </trkpt>
   <trkpt lat="-3.0818130" lon="37.3673750">
    <ele>5434.5</ele>
    <time>2026-06-23T05:57:29Z</time>
   </trkpt>
   <trkpt lat="-3.0818210" lon="37.3673760">
    <ele>5434.2</ele>
    <time>2026-06-23T05:57:30Z</time>
   </trkpt>
   <trkpt lat="-3.0818270" lon="37.3673780">
    <ele>5433.9</ele>
    <time>2026-06-23T05:57:31Z</time>
   </trkpt>
   <trkpt lat="-3.0818290" lon="37.3673830">
    <ele>5433.7</ele>
    <time>2026-06-23T05:57:32Z</time>
   </trkpt>
   <trkpt lat="-3.0818350" lon="37.3673860">
    <ele>5433.4</ele>
    <time>2026-06-23T05:57:33Z</time>
   </trkpt>
   <trkpt lat="-3.0818400" lon="37.3673870">
    <ele>5433.2</ele>
    <time>2026-06-23T05:57:34Z</time>
   </trkpt>
   <trkpt lat="-3.0818440" lon="37.3673890">
    <ele>5433.0</ele>
    <time>2026-06-23T05:57:35Z</time>
   </trkpt>
   <trkpt lat="-3.0818490" lon="37.3673940">
    <ele>5432.7</ele>
    <time>2026-06-23T05:57:36Z</time>
   </trkpt>
   <trkpt lat="-3.0818510" lon="37.3674000">
    <ele>5432.5</ele>
    <time>2026-06-23T05:57:37Z</time>
   </trkpt>
   <trkpt lat="-3.0818500" lon="37.3674080">
    <ele>5432.2</ele>
    <time>2026-06-23T05:57:38Z</time>
   </trkpt>
   <trkpt lat="-3.0818490" lon="37.3674190">
    <ele>5431.7</ele>
    <time>2026-06-23T05:57:39Z</time>
   </trkpt>
   <trkpt lat="-3.0818490" lon="37.3674250">
    <ele>5431.5</ele>
    <time>2026-06-23T05:57:40Z</time>
   </trkpt>
   <trkpt lat="-3.0818530" lon="37.3674310">
    <ele>5431.2</ele>
    <time>2026-06-23T05:57:41Z</time>
   </trkpt>
   <trkpt lat="-3.0818540" lon="37.3674390">
    <ele>5430.9</ele>
    <time>2026-06-23T05:57:42Z</time>
   </trkpt>
   <trkpt lat="-3.0818580" lon="37.3674430">
    <ele>5430.6</ele>
    <time>2026-06-23T05:57:43Z</time>
   </trkpt>
   <trkpt lat="-3.0818620" lon="37.3674470">
    <ele>5430.4</ele>
    <time>2026-06-23T05:57:44Z</time>
   </trkpt>
   <trkpt lat="-3.0818690" lon="37.3674550">
    <ele>5430.0</ele>
    <time>2026-06-23T05:57:45Z</time>
   </trkpt>
   <trkpt lat="-3.0818750" lon="37.3674620">
    <ele>5429.6</ele>
    <time>2026-06-23T05:57:46Z</time>
   </trkpt>
   <trkpt lat="-3.0818800" lon="37.3674660">
    <ele>5429.3</ele>
    <time>2026-06-23T05:57:47Z</time>
   </trkpt>
   <trkpt lat="-3.0818860" lon="37.3674740">
    <ele>5428.9</ele>
    <time>2026-06-23T05:57:48Z</time>
   </trkpt>
   <trkpt lat="-3.0818930" lon="37.3674810">
    <ele>5428.5</ele>
    <time>2026-06-23T05:57:49Z</time>
   </trkpt>
   <trkpt lat="-3.0819030" lon="37.3674840">
    <ele>5428.1</ele>
    <time>2026-06-23T05:57:50Z</time>
   </trkpt>
   <trkpt lat="-3.0819100" lon="37.3674820">
    <ele>5427.8</ele>
    <time>2026-06-23T05:57:51Z</time>
   </trkpt>
   <trkpt lat="-3.0819200" lon="37.3674830">
    <ele>5427.4</ele>
    <time>2026-06-23T05:57:52Z</time>
   </trkpt>
   <trkpt lat="-3.0819280" lon="37.3674850">
    <ele>5427.1</ele>
    <time>2026-06-23T05:57:53Z</time>
   </trkpt>
   <trkpt lat="-3.0819340" lon="37.3674870">
    <ele>5426.8</ele>
    <time>2026-06-23T05:57:54Z</time>
   </trkpt>
   <trkpt lat="-3.0819380" lon="37.3674890">
    <ele>5426.6</ele>
    <time>2026-06-23T05:57:55Z</time>
   </trkpt>
   <trkpt lat="-3.0819350" lon="37.3674890">
    <ele>5426.5</ele>
    <time>2026-06-23T05:57:56Z</time>
   </trkpt>
   <trkpt lat="-3.0819360" lon="37.3674890">
    <ele>5426.5</ele>
    <time>2026-06-23T05:57:57Z</time>
   </trkpt>
   <trkpt lat="-3.0819330" lon="37.3674880">
    <ele>5426.4</ele>
    <time>2026-06-23T05:57:58Z</time>
   </trkpt>
   <trkpt lat="-3.0819340" lon="37.3674890">
    <ele>5426.3</ele>
    <time>2026-06-23T05:57:59Z</time>
   </trkpt>
   <trkpt lat="-3.0819330" lon="37.3674890">
    <ele>5426.3</ele>
    <time>2026-06-23T05:58:00Z</time>
   </trkpt>
   <trkpt lat="-3.0819340" lon="37.3674910">
    <ele>5426.2</ele>
    <time>2026-06-23T05:58:01Z</time>
   </trkpt>
   <trkpt lat="-3.0819360" lon="37.3674900">
    <ele>5426.1</ele>
    <time>2026-06-23T05:58:02Z</time>
   </trkpt>
   <trkpt lat="-3.0819390" lon="37.3674930">
    <ele>5425.9</ele>
    <time>2026-06-23T05:58:03Z</time>
   </trkpt>
   <trkpt lat="-3.0819350" lon="37.3674930">
    <ele>5425.8</ele>
    <time>2026-06-23T05:58:04Z</time>
   </trkpt>
   <trkpt lat="-3.0819340" lon="37.3674930">
    <ele>5425.7</ele>
    <time>2026-06-23T05:58:05Z</time>
   </trkpt>
   <trkpt lat="-3.0819340" lon="37.3674930">
    <ele>5425.7</ele>
    <time>2026-06-23T05:58:06Z</time>
   </trkpt>
   <trkpt lat="-3.0819350" lon="37.3674930">
    <ele>5425.7</ele>
    <time>2026-06-23T05:58:07Z</time>
   </trkpt>
   <trkpt lat="-3.0819340" lon="37.3674970">
    <ele>5425.5</ele>
    <time>2026-06-23T05:58:08Z</time>
   </trkpt>
   <trkpt lat="-3.0819320" lon="37.3675000">
    <ele>5425.4</ele>
    <time>2026-06-23T05:58:09Z</time>
   </trkpt>
   <trkpt lat="-3.0819270" lon="37.3675030">
    <ele>5425.2</ele>
    <time>2026-06-23T05:58:10Z</time>
   </trkpt>
   <trkpt lat="-3.0819220" lon="37.3675060">
    <ele>5424.9</ele>
    <time>2026-06-23T05:58:11Z</time>
   </trkpt>
   <trkpt lat="-3.0819170" lon="37.3675090">
    <ele>5424.7</ele>
    <time>2026-06-23T05:58:12Z</time>
   </trkpt>
   <trkpt lat="-3.0819100" lon="37.3675130">
    <ele>5424.4</ele>
    <time>2026-06-23T05:58:13Z</time>
   </trkpt>
   <trkpt lat="-3.0819030" lon="37.3675180">
    <ele>5424.1</ele>
    <time>2026-06-23T05:58:14Z</time>
   </trkpt>
   <trkpt lat="-3.0818980" lon="37.3675240">
    <ele>5423.8</ele>
    <time>2026-06-23T05:58:15Z</time>
   </trkpt>
   <trkpt lat="-3.0818940" lon="37.3675280">
    <ele>5423.5</ele>
    <time>2026-06-23T05:58:16Z</time>
   </trkpt>
   <trkpt lat="-3.0818900" lon="37.3675340">
    <ele>5423.3</ele>
    <time>2026-06-23T05:58:17Z</time>
   </trkpt>
   <trkpt lat="-3.0818880" lon="37.3675410">
    <ele>5423.0</ele>
    <time>2026-06-23T05:58:18Z</time>
   </trkpt>
   <trkpt lat="-3.0818830" lon="37.3675530">
    <ele>5422.5</ele>
    <time>2026-06-23T05:58:19Z</time>
   </trkpt>
   <trkpt lat="-3.0818810" lon="37.3675590">
    <ele>5422.3</ele>
    <time>2026-06-23T05:58:20Z</time>
   </trkpt>
   <trkpt lat="-3.0818780" lon="37.3675650">
    <ele>5422.0</ele>
    <time>2026-06-23T05:58:21Z</time>
   </trkpt>
   <trkpt lat="-3.0818740" lon="37.3675710">
    <ele>5421.8</ele>
    <time>2026-06-23T05:58:22Z</time>
   </trkpt>
   <trkpt lat="-3.0818690" lon="37.3675780">
    <ele>5421.4</ele>
    <time>2026-06-23T05:58:23Z</time>
   </trkpt>
   <trkpt lat="-3.0818610" lon="37.3675860">
    <ele>5421.0</ele>
    <time>2026-06-23T05:58:24Z</time>
   </trkpt>
   <trkpt lat="-3.0818570" lon="37.3675900">
    <ele>5420.8</ele>
    <time>2026-06-23T05:58:25Z</time>
   </trkpt>
   <trkpt lat="-3.0818580" lon="37.3675930">
    <ele>5420.7</ele>
    <time>2026-06-23T05:58:26Z</time>
   </trkpt>
   <trkpt lat="-3.0818580" lon="37.3675930">
    <ele>5420.7</ele>
    <time>2026-06-23T05:58:27Z</time>
   </trkpt>
   <trkpt lat="-3.0818590" lon="37.3675920">
    <ele>5420.7</ele>
    <time>2026-06-23T05:58:28Z</time>
   </trkpt>
   <trkpt lat="-3.0818590" lon="37.3675900">
    <ele>5420.6</ele>
    <time>2026-06-23T05:58:29Z</time>
   </trkpt>
   <trkpt lat="-3.0818590" lon="37.3675900">
    <ele>5420.6</ele>
    <time>2026-06-23T05:58:30Z</time>
   </trkpt>
   <trkpt lat="-3.0818570" lon="37.3675920">
    <ele>5420.5</ele>
    <time>2026-06-23T05:58:31Z</time>
   </trkpt>
   <trkpt lat="-3.0818580" lon="37.3675910">
    <ele>5420.4</ele>
    <time>2026-06-23T05:58:32Z</time>
   </trkpt>
   <trkpt lat="-3.0818580" lon="37.3675910">
    <ele>5420.4</ele>
    <time>2026-06-23T05:58:33Z</time>
   </trkpt>
   <trkpt lat="-3.0818560" lon="37.3675930">
    <ele>5420.3</ele>
    <time>2026-06-23T05:58:34Z</time>
   </trkpt>
   <trkpt lat="-3.0818550" lon="37.3675930">
    <ele>5420.3</ele>
    <time>2026-06-23T05:58:35Z</time>
   </trkpt>
   <trkpt lat="-3.0818550" lon="37.3675920">
    <ele>5420.3</ele>
    <time>2026-06-23T05:58:36Z</time>
   </trkpt>
   <trkpt lat="-3.0818540" lon="37.3675940">
    <ele>5420.2</ele>
    <time>2026-06-23T05:58:37Z</time>
   </trkpt>
   <trkpt lat="-3.0818530" lon="37.3675950">
    <ele>5420.1</ele>
    <time>2026-06-23T05:58:38Z</time>
   </trkpt>
   <trkpt lat="-3.0818530" lon="37.3675950">
    <ele>5420.1</ele>
    <time>2026-06-23T05:58:39Z</time>
   </trkpt>
   <trkpt lat="-3.0818530" lon="37.3675960">
    <ele>5420.1</ele>
    <time>2026-06-23T05:58:40Z</time>
   </trkpt>
   <trkpt lat="-3.0818540" lon="37.3675950">
    <ele>5420.0</ele>
    <time>2026-06-23T05:58:41Z</time>
   </trkpt>
   <trkpt lat="-3.0818530" lon="37.3675960">
    <ele>5420.0</ele>
    <time>2026-06-23T05:58:42Z</time>
   </trkpt>
   <trkpt lat="-3.0818530" lon="37.3675960">
    <ele>5420.0</ele>
    <time>2026-06-23T05:58:43Z</time>
   </trkpt>
   <trkpt lat="-3.0818540" lon="37.3675960">
    <ele>5420.0</ele>
    <time>2026-06-23T05:58:44Z</time>
   </trkpt>
   <trkpt lat="-3.0818530" lon="37.3675970">
    <ele>5419.9</ele>
    <time>2026-06-23T05:58:45Z</time>
   </trkpt>
   <trkpt lat="-3.0818520" lon="37.3675980">
    <ele>5419.9</ele>
    <time>2026-06-23T05:58:46Z</time>
   </trkpt>
   <trkpt lat="-3.0818520" lon="37.3675970">
    <ele>5419.8</ele>
    <time>2026-06-23T05:58:48Z</time>
   </trkpt>
   <trkpt lat="-3.0818520" lon="37.3675970">
    <ele>5419.8</ele>
    <time>2026-06-23T05:58:49Z</time>
   </trkpt>
   <trkpt lat="-3.0818520" lon="37.3675960">
    <ele>5419.8</ele>
    <time>2026-06-23T05:58:50Z</time>
   </trkpt>
   <trkpt lat="-3.0818510" lon="37.3675960">
    <ele>5419.7</ele>
    <time>2026-06-23T05:58:51Z</time>
   </trkpt>
   <trkpt lat="-3.0818510" lon="37.3675950">
    <ele>5419.7</ele>
    <time>2026-06-23T05:58:52Z</time>
   </trkpt>
   <trkpt lat="-3.0818520" lon="37.3675940">
    <ele>5419.7</ele>
    <time>2026-06-23T05:58:53Z</time>
   </trkpt>
   <trkpt lat="-3.0818520" lon="37.3675940">
    <ele>5419.7</ele>
    <time>2026-06-23T05:58:54Z</time>
   </trkpt>
   <trkpt lat="-3.0818520" lon="37.3675940">
    <ele>5419.7</ele>
    <time>2026-06-23T05:58:55Z</time>
   </trkpt>
   <trkpt lat="-3.0818520" lon="37.3675950">
    <ele>5419.6</ele>
    <time>2026-06-23T05:58:56Z</time>
   </trkpt>
   <trkpt lat="-3.0818540" lon="37.3675950">
    <ele>5419.5</ele>
    <time>2026-06-23T05:58:57Z</time>
   </trkpt>
   <trkpt lat="-3.0818540" lon="37.3675940">
    <ele>5419.5</ele>
    <time>2026-06-23T05:58:58Z</time>
   </trkpt>
   <trkpt lat="-3.0818530" lon="37.3675940">
    <ele>5419.5</ele>
    <time>2026-06-23T05:58:59Z</time>
   </trkpt>
   <trkpt lat="-3.0818540" lon="37.3675950">
    <ele>5419.4</ele>
    <time>2026-06-23T05:59:00Z</time>
   </trkpt>
   <trkpt lat="-3.0818540" lon="37.3675950">
    <ele>5419.4</ele>
    <time>2026-06-23T05:59:01Z</time>
   </trkpt>
   <trkpt lat="-3.0818540" lon="37.3675950">
    <ele>5419.4</ele>
    <time>2026-06-23T05:59:02Z</time>
   </trkpt>
   <trkpt lat="-3.0818560" lon="37.3675940">
    <ele>5419.3</ele>
    <time>2026-06-23T05:59:03Z</time>
   </trkpt>
   <trkpt lat="-3.0818560" lon="37.3675930">
    <ele>5419.3</ele>
    <time>2026-06-23T05:59:04Z</time>
   </trkpt>
   <trkpt lat="-3.0818560" lon="37.3675920">
    <ele>5419.3</ele>
    <time>2026-06-23T05:59:05Z</time>
   </trkpt>
   <trkpt lat="-3.0818560" lon="37.3675920">
    <ele>5419.3</ele>
    <time>2026-06-23T05:59:06Z</time>
   </trkpt>
   <trkpt lat="-3.0818560" lon="37.3675920">
    <ele>5419.3</ele>
    <time>2026-06-23T05:59:07Z</time>
   </trkpt>
   <trkpt lat="-3.0818560" lon="37.3675930">
    <ele>5419.2</ele>
    <time>2026-06-23T05:59:08Z</time>
   </trkpt>
   <trkpt lat="-3.0818560" lon="37.3675930">
    <ele>5419.2</ele>
    <time>2026-06-23T05:59:09Z</time>
   </trkpt>
   <trkpt lat="-3.0818550" lon="37.3675940">
    <ele>5419.2</ele>
    <time>2026-06-23T05:59:10Z</time>
   </trkpt>
   <trkpt lat="-3.0818540" lon="37.3675950">
    <ele>5419.1</ele>
    <time>2026-06-23T05:59:11Z</time>
   </trkpt>
   <trkpt lat="-3.0818530" lon="37.3675950">
    <ele>5419.1</ele>
    <time>2026-06-23T05:59:12Z</time>
   </trkpt>
   <trkpt lat="-3.0818490" lon="37.3675990">
    <ele>5418.9</ele>
    <time>2026-06-23T05:59:13Z</time>
   </trkpt>
   <trkpt lat="-3.0818510" lon="37.3675980">
    <ele>5418.8</ele>
    <time>2026-06-23T05:59:14Z</time>
   </trkpt>
   <trkpt lat="-3.0818520" lon="37.3675980">
    <ele>5418.8</ele>
    <time>2026-06-23T05:59:15Z</time>
   </trkpt>
   <trkpt lat="-3.0818510" lon="37.3675980">
    <ele>5418.7</ele>
    <time>2026-06-23T05:59:16Z</time>
   </trkpt>
   <trkpt lat="-3.0818510" lon="37.3675980">
    <ele>5418.7</ele>
    <time>2026-06-23T05:59:17Z</time>
   </trkpt>
   <trkpt lat="-3.0818520" lon="37.3675980">
    <ele>5418.7</ele>
    <time>2026-06-23T05:59:18Z</time>
   </trkpt>
   <trkpt lat="-3.0818530" lon="37.3675980">
    <ele>5418.7</ele>
    <time>2026-06-23T05:59:19Z</time>
   </trkpt>
   <trkpt lat="-3.0818520" lon="37.3675970">
    <ele>5418.6</ele>
    <time>2026-06-23T05:59:20Z</time>
   </trkpt>
   <trkpt lat="-3.0818530" lon="37.3675980">
    <ele>5418.6</ele>
    <time>2026-06-23T05:59:21Z</time>
   </trkpt>
   <trkpt lat="-3.0818530" lon="37.3675980">
    <ele>5418.6</ele>
    <time>2026-06-23T05:59:22Z</time>
   </trkpt>
   <trkpt lat="-3.0818520" lon="37.3675970">
    <ele>5418.5</ele>
    <time>2026-06-23T05:59:23Z</time>
   </trkpt>
   <trkpt lat="-3.0818520" lon="37.3675960">
    <ele>5418.5</ele>
    <time>2026-06-23T05:59:24Z</time>
   </trkpt>
   <trkpt lat="-3.0818520" lon="37.3675940">
    <ele>5418.4</ele>
    <time>2026-06-23T05:59:25Z</time>
   </trkpt>
   <trkpt lat="-3.0818500" lon="37.3675960">
    <ele>5418.3</ele>
    <time>2026-06-23T05:59:26Z</time>
   </trkpt>
   <trkpt lat="-3.0818510" lon="37.3675960">
    <ele>5418.3</ele>
    <time>2026-06-23T05:59:27Z</time>
   </trkpt>
   <trkpt lat="-3.0818500" lon="37.3675960">
    <ele>5418.2</ele>
    <time>2026-06-23T05:59:28Z</time>
   </trkpt>
   <trkpt lat="-3.0818500" lon="37.3675960">
    <ele>5418.2</ele>
    <time>2026-06-23T05:59:29Z</time>
   </trkpt>
   <trkpt lat="-3.0818500" lon="37.3675960">
    <ele>5418.2</ele>
    <time>2026-06-23T05:59:30Z</time>
   </trkpt>
   <trkpt lat="-3.0818510" lon="37.3675960">
    <ele>5418.2</ele>
    <time>2026-06-23T05:59:31Z</time>
   </trkpt>
   <trkpt lat="-3.0818510" lon="37.3675960">
    <ele>5418.2</ele>
    <time>2026-06-23T05:59:32Z</time>
   </trkpt>
   <trkpt lat="-3.0818510" lon="37.3675960">
    <ele>5418.2</ele>
    <time>2026-06-23T05:59:33Z</time>
   </trkpt>
   <trkpt lat="-3.0818500" lon="37.3675970">
    <ele>5418.1</ele>
    <time>2026-06-23T05:59:34Z</time>
   </trkpt>
   <trkpt lat="-3.0818520" lon="37.3675960">
    <ele>5418.1</ele>
    <time>2026-06-23T05:59:35Z</time>
   </trkpt>
   <trkpt lat="-3.0818520" lon="37.3675960">
    <ele>5418.1</ele>
    <time>2026-06-23T05:59:36Z</time>
   </trkpt>
   <trkpt lat="-3.0818500" lon="37.3675980">
    <ele>5417.9</ele>
    <time>2026-06-23T05:59:37Z</time>
   </trkpt>
   <trkpt lat="-3.0818510" lon="37.3675970">
    <ele>5417.9</ele>
    <time>2026-06-23T05:59:38Z</time>
   </trkpt>
   <trkpt lat="-3.0818510" lon="37.3675970">
    <ele>5417.9</ele>
    <time>2026-06-23T05:59:39Z</time>
   </trkpt>
   <trkpt lat="-3.0818510" lon="37.3675950">
    <ele>5417.8</ele>
    <time>2026-06-23T05:59:40Z</time>
   </trkpt>
   <trkpt lat="-3.0818490" lon="37.3675980">
    <ele>5417.7</ele>
    <time>2026-06-23T05:59:41Z</time>
   </trkpt>
   <trkpt lat="-3.0818520" lon="37.3675950">
    <ele>5417.5</ele>
    <time>2026-06-23T05:59:42Z</time>
   </trkpt>
   <trkpt lat="-3.0818520" lon="37.3675970">
    <ele>5417.5</ele>
    <time>2026-06-23T05:59:43Z</time>
   </trkpt>
   <trkpt lat="-3.0818510" lon="37.3675980">
    <ele>5417.4</ele>
    <time>2026-06-23T05:59:44Z</time>
   </trkpt>
   <trkpt lat="-3.0818520" lon="37.3675970">
    <ele>5417.4</ele>
    <time>2026-06-23T05:59:45Z</time>
   </trkpt>
   <trkpt lat="-3.0818520" lon="37.3675970">
    <ele>5417.4</ele>
    <time>2026-06-23T05:59:46Z</time>
   </trkpt>
   <trkpt lat="-3.0818520" lon="37.3675980">
    <ele>5417.3</ele>
    <time>2026-06-23T05:59:47Z</time>
   </trkpt>
   <trkpt lat="-3.0818520" lon="37.3675980">
    <ele>5417.3</ele>
    <time>2026-06-23T05:59:48Z</time>
   </trkpt>
   <trkpt lat="-3.0818520" lon="37.3675980">
    <ele>5417.3</ele>
    <time>2026-06-23T05:59:49Z</time>
   </trkpt>
   <trkpt lat="-3.0818520" lon="37.3675970">
    <ele>5417.3</ele>
    <time>2026-06-23T05:59:50Z</time>
   </trkpt>
   <trkpt lat="-3.0818530" lon="37.3675960">
    <ele>5417.2</ele>
    <time>2026-06-23T05:59:51Z</time>
   </trkpt>
   <trkpt lat="-3.0818530" lon="37.3675960">
    <ele>5417.2</ele>
    <time>2026-06-23T05:59:52Z</time>
   </trkpt>
   <trkpt lat="-3.0818530" lon="37.3675960">
    <ele>5417.2</ele>
    <time>2026-06-23T05:59:53Z</time>
   </trkpt>
   <trkpt lat="-3.0818530" lon="37.3675960">
    <ele>5417.2</ele>
    <time>2026-06-23T05:59:54Z</time>
   </trkpt>
   <trkpt lat="-3.0818550" lon="37.3675960">
    <ele>5417.2</ele>
    <time>2026-06-23T05:59:55Z</time>
   </trkpt>
   <trkpt lat="-3.0818540" lon="37.3675950">
    <ele>5417.1</ele>
    <time>2026-06-23T05:59:56Z</time>
   </trkpt>
   <trkpt lat="-3.0818540" lon="37.3675950">
    <ele>5417.1</ele>
    <time>2026-06-23T05:59:57Z</time>
   </trkpt>
   <trkpt lat="-3.0818550" lon="37.3675950">
    <ele>5417.1</ele>
    <time>2026-06-23T05:59:58Z</time>
   </trkpt>
   <trkpt lat="-3.0818540" lon="37.3675950">
    <ele>5417.0</ele>
    <time>2026-06-23T05:59:59Z</time>
   </trkpt>
   <trkpt lat="-3.0818540" lon="37.3675950">
    <ele>5417.0</ele>
    <time>2026-06-23T06:00:00Z</time>
   </trkpt>
   <trkpt lat="-3.0818540" lon="37.3675950">
    <ele>5417.0</ele>
    <time>2026-06-23T06:00:01Z</time>
   </trkpt>
   <trkpt lat="-3.0818550" lon="37.3675940">
    <ele>5417.0</ele>
    <time>2026-06-23T06:00:02Z</time>
   </trkpt>
   <trkpt lat="-3.0818550" lon="37.3675940">
    <ele>5417.0</ele>
    <time>2026-06-23T06:00:03Z</time>
   </trkpt>
   <trkpt lat="-3.0818550" lon="37.3675940">
    <ele>5417.0</ele>
    <time>2026-06-23T06:00:04Z</time>
   </trkpt>
   <trkpt lat="-3.0818560" lon="37.3675950">
    <ele>5416.9</ele>
    <time>2026-06-23T06:00:05Z</time>
   </trkpt>
   <trkpt lat="-3.0818560" lon="37.3675970">
    <ele>5416.9</ele>
    <time>2026-06-23T06:00:06Z</time>
   </trkpt>
   <trkpt lat="-3.0818550" lon="37.3676030">
    <ele>5416.6</ele>
    <time>2026-06-23T06:00:07Z</time>
   </trkpt>
   <trkpt lat="-3.0818610" lon="37.3676140">
    <ele>5416.2</ele>
    <time>2026-06-23T06:00:08Z</time>
   </trkpt>
   <trkpt lat="-3.0818720" lon="37.3676200">
    <ele>5415.7</ele>
    <time>2026-06-23T06:00:09Z</time>
   </trkpt>
   <trkpt lat="-3.0818810" lon="37.3676200">
    <ele>5415.4</ele>
    <time>2026-06-23T06:00:10Z</time>
   </trkpt>
   <trkpt lat="-3.0818920" lon="37.3676220">
    <ele>5415.0</ele>
    <time>2026-06-23T06:00:11Z</time>
   </trkpt>
   <trkpt lat="-3.0819010" lon="37.3676230">
    <ele>5414.7</ele>
    <time>2026-06-23T06:00:12Z</time>
   </trkpt>
   <trkpt lat="-3.0819130" lon="37.3676260">
    <ele>5414.2</ele>
    <time>2026-06-23T06:00:13Z</time>
   </trkpt>
   <trkpt lat="-3.0819230" lon="37.3676280">
    <ele>5413.9</ele>
    <time>2026-06-23T06:00:14Z</time>
   </trkpt>
   <trkpt lat="-3.0819310" lon="37.3676280">
    <ele>5413.6</ele>
    <time>2026-06-23T06:00:15Z</time>
   </trkpt>
   <trkpt lat="-3.0819380" lon="37.3676320">
    <ele>5413.3</ele>
    <time>2026-06-23T06:00:16Z</time>
   </trkpt>
   <trkpt lat="-3.0819420" lon="37.3676410">
    <ele>5412.9</ele>
    <time>2026-06-23T06:00:17Z</time>
   </trkpt>
   <trkpt lat="-3.0819510" lon="37.3676470">
    <ele>5412.5</ele>
    <time>2026-06-23T06:00:18Z</time>
   </trkpt>
   <trkpt lat="-3.0819620" lon="37.3676520">
    <ele>5412.0</ele>
    <time>2026-06-23T06:00:19Z</time>
   </trkpt>
   <trkpt lat="-3.0819740" lon="37.3676540">
    <ele>5411.5</ele>
    <time>2026-06-23T06:00:20Z</time>
   </trkpt>
   <trkpt lat="-3.0819780" lon="37.3676590">
    <ele>5411.3</ele>
    <time>2026-06-23T06:00:21Z</time>
   </trkpt>
   <trkpt lat="-3.0819820" lon="37.3676630">
    <ele>5411.1</ele>
    <time>2026-06-23T06:00:22Z</time>
   </trkpt>
   <trkpt lat="-3.0819860" lon="37.3676640">
    <ele>5410.9</ele>
    <time>2026-06-23T06:00:23Z</time>
   </trkpt>
   <trkpt lat="-3.0819890" lon="37.3676620">
    <ele>5410.8</ele>
    <time>2026-06-23T06:00:24Z</time>
   </trkpt>
   <trkpt lat="-3.0819940" lon="37.3676580">
    <ele>5410.5</ele>
    <time>2026-06-23T06:00:25Z</time>
   </trkpt>
   <trkpt lat="-3.0819950" lon="37.3676560">
    <ele>5410.4</ele>
    <time>2026-06-23T06:00:26Z</time>
   </trkpt>
   <trkpt lat="-3.0819950" lon="37.3676560">
    <ele>5410.4</ele>
    <time>2026-06-23T06:00:27Z</time>
   </trkpt>
   <trkpt lat="-3.0820010" lon="37.3676530">
    <ele>5410.2</ele>
    <time>2026-06-23T06:00:28Z</time>
   </trkpt>
   <trkpt lat="-3.0820040" lon="37.3676540">
    <ele>5410.0</ele>
    <time>2026-06-23T06:00:29Z</time>
   </trkpt>
   <trkpt lat="-3.0820060" lon="37.3676580">
    <ele>5409.8</ele>
    <time>2026-06-23T06:00:30Z</time>
   </trkpt>
   <trkpt lat="-3.0820080" lon="37.3676620">
    <ele>5409.7</ele>
    <time>2026-06-23T06:00:31Z</time>
   </trkpt>
   <trkpt lat="-3.0820120" lon="37.3676650">
    <ele>5409.5</ele>
    <time>2026-06-23T06:00:32Z</time>
   </trkpt>
   <trkpt lat="-3.0820120" lon="37.3676650">
    <ele>5409.5</ele>
    <time>2026-06-23T06:00:33Z</time>
   </trkpt>
   <trkpt lat="-3.0820150" lon="37.3676660">
    <ele>5409.3</ele>
    <time>2026-06-23T06:00:34Z</time>
   </trkpt>
   <trkpt lat="-3.0820180" lon="37.3676630">
    <ele>5409.2</ele>
    <time>2026-06-23T06:00:35Z</time>
   </trkpt>
   <trkpt lat="-3.0820190" lon="37.3676640">
    <ele>5409.1</ele>
    <time>2026-06-23T06:00:36Z</time>
   </trkpt>
   <trkpt lat="-3.0820230" lon="37.3676660">
    <ele>5408.9</ele>
    <time>2026-06-23T06:00:37Z</time>
   </trkpt>
   <trkpt lat="-3.0820280" lon="37.3676720">
    <ele>5408.6</ele>
    <time>2026-06-23T06:00:38Z</time>
   </trkpt>
   <trkpt lat="-3.0820290" lon="37.3676800">
    <ele>5408.3</ele>
    <time>2026-06-23T06:00:39Z</time>
   </trkpt>
   <trkpt lat="-3.0820280" lon="37.3676870">
    <ele>5408.0</ele>
    <time>2026-06-23T06:00:40Z</time>
   </trkpt>
   <trkpt lat="-3.0820280" lon="37.3676910">
    <ele>5407.8</ele>
    <time>2026-06-23T06:00:41Z</time>
   </trkpt>
   <trkpt lat="-3.0820270" lon="37.3676980">
    <ele>5407.6</ele>
    <time>2026-06-23T06:00:42Z</time>
   </trkpt>
   <trkpt lat="-3.0820280" lon="37.3677000">
    <ele>5407.5</ele>
    <time>2026-06-23T06:00:43Z</time>
   </trkpt>
   <trkpt lat="-3.0820280" lon="37.3677070">
    <ele>5407.2</ele>
    <time>2026-06-23T06:00:44Z</time>
   </trkpt>
   <trkpt lat="-3.0820280" lon="37.3677100">
    <ele>5407.1</ele>
    <time>2026-06-23T06:00:45Z</time>
   </trkpt>
   <trkpt lat="-3.0820290" lon="37.3677120">
    <ele>5407.0</ele>
    <time>2026-06-23T06:00:46Z</time>
   </trkpt>
   <trkpt lat="-3.0820290" lon="37.3677150">
    <ele>5406.8</ele>
    <time>2026-06-23T06:00:47Z</time>
   </trkpt>
   <trkpt lat="-3.0820310" lon="37.3677150">
    <ele>5406.8</ele>
    <time>2026-06-23T06:00:48Z</time>
   </trkpt>
   <trkpt lat="-3.0820310" lon="37.3677180">
    <ele>5406.6</ele>
    <time>2026-06-23T06:00:49Z</time>
   </trkpt>
   <trkpt lat="-3.0820350" lon="37.3677190">
    <ele>5406.5</ele>
    <time>2026-06-23T06:00:50Z</time>
   </trkpt>
   <trkpt lat="-3.0820390" lon="37.3677200">
    <ele>5406.4</ele>
    <time>2026-06-23T06:00:51Z</time>
   </trkpt>
   <trkpt lat="-3.0820420" lon="37.3677220">
    <ele>5406.2</ele>
    <time>2026-06-23T06:00:52Z</time>
   </trkpt>
   <trkpt lat="-3.0820450" lon="37.3677260">
    <ele>5406.0</ele>
    <time>2026-06-23T06:00:54Z</time>
   </trkpt>
   <trkpt lat="-3.0820500" lon="37.3677300">
    <ele>5405.8</ele>
    <time>2026-06-23T06:00:55Z</time>
   </trkpt>
   <trkpt lat="-3.0820500" lon="37.3677300">
    <ele>5405.8</ele>
    <time>2026-06-23T06:00:56Z</time>
   </trkpt>
   <trkpt lat="-3.0820470" lon="37.3677330">
    <ele>5405.6</ele>
    <time>2026-06-23T06:00:57Z</time>
   </trkpt>
   <trkpt lat="-3.0820490" lon="37.3677340">
    <ele>5405.5</ele>
    <time>2026-06-23T06:00:58Z</time>
   </trkpt>
   <trkpt lat="-3.0820530" lon="37.3677350">
    <ele>5405.4</ele>
    <time>2026-06-23T06:00:59Z</time>
   </trkpt>
   <trkpt lat="-3.0820560" lon="37.3677370">
    <ele>5405.2</ele>
    <time>2026-06-23T06:01:00Z</time>
   </trkpt>
   <trkpt lat="-3.0820610" lon="37.3677380">
    <ele>5405.0</ele>
    <time>2026-06-23T06:01:01Z</time>
   </trkpt>
   <trkpt lat="-3.0820620" lon="37.3677410">
    <ele>5404.9</ele>
    <time>2026-06-23T06:01:02Z</time>
   </trkpt>
   <trkpt lat="-3.0820640" lon="37.3677420">
    <ele>5404.8</ele>
    <time>2026-06-23T06:01:03Z</time>
   </trkpt>
   <trkpt lat="-3.0820660" lon="37.3677440">
    <ele>5404.7</ele>
    <time>2026-06-23T06:01:04Z</time>
   </trkpt>
   <trkpt lat="-3.0820710" lon="37.3677440">
    <ele>5404.5</ele>
    <time>2026-06-23T06:01:05Z</time>
   </trkpt>
   <trkpt lat="-3.0820770" lon="37.3677460">
    <ele>5404.3</ele>
    <time>2026-06-23T06:01:06Z</time>
   </trkpt>
   <trkpt lat="-3.0820790" lon="37.3677480">
    <ele>5404.1</ele>
    <time>2026-06-23T06:01:07Z</time>
   </trkpt>
   <trkpt lat="-3.0820870" lon="37.3677480">
    <ele>5403.8</ele>
    <time>2026-06-23T06:01:08Z</time>
   </trkpt>
   <trkpt lat="-3.0820960" lon="37.3677470">
    <ele>5403.5</ele>
    <time>2026-06-23T06:01:09Z</time>
   </trkpt>
   <trkpt lat="-3.0821000" lon="37.3677450">
    <ele>5403.3</ele>
    <time>2026-06-23T06:01:10Z</time>
   </trkpt>
   <trkpt lat="-3.0821050" lon="37.3677420">
    <ele>5403.1</ele>
    <time>2026-06-23T06:01:11Z</time>
   </trkpt>
   <trkpt lat="-3.0821120" lon="37.3677450">
    <ele>5402.8</ele>
    <time>2026-06-23T06:01:12Z</time>
   </trkpt>
   <trkpt lat="-3.0821160" lon="37.3677490">
    <ele>5402.5</ele>
    <time>2026-06-23T06:01:13Z</time>
   </trkpt>
   <trkpt lat="-3.0821170" lon="37.3677550">
    <ele>5402.3</ele>
    <time>2026-06-23T06:01:14Z</time>
   </trkpt>
   <trkpt lat="-3.0821200" lon="37.3677590">
    <ele>5402.1</ele>
    <time>2026-06-23T06:01:15Z</time>
   </trkpt>
   <trkpt lat="-3.0821250" lon="37.3677620">
    <ele>5401.9</ele>
    <time>2026-06-23T06:01:16Z</time>
   </trkpt>
   <trkpt lat="-3.0821270" lon="37.3677630">
    <ele>5401.8</ele>
    <time>2026-06-23T06:01:17Z</time>
   </trkpt>
   <trkpt lat="-3.0821350" lon="37.3677640">
    <ele>5401.5</ele>
    <time>2026-06-23T06:01:18Z</time>
   </trkpt>
   <trkpt lat="-3.0821420" lon="37.3677660">
    <ele>5401.2</ele>
    <time>2026-06-23T06:01:19Z</time>
   </trkpt>
   <trkpt lat="-3.0821440" lon="37.3677700">
    <ele>5401.0</ele>
    <time>2026-06-23T06:01:20Z</time>
   </trkpt>
   <trkpt lat="-3.0821460" lon="37.3677760">
    <ele>5400.8</ele>
    <time>2026-06-23T06:01:21Z</time>
   </trkpt>
   <trkpt lat="-3.0821500" lon="37.3677810">
    <ele>5400.5</ele>
    <time>2026-06-23T06:01:22Z</time>
   </trkpt>
   <trkpt lat="-3.0821520" lon="37.3677800">
    <ele>5400.4</ele>
    <time>2026-06-23T06:01:23Z</time>
   </trkpt>
   <trkpt lat="-3.0821580" lon="37.3677800">
    <ele>5400.2</ele>
    <time>2026-06-23T06:01:24Z</time>
   </trkpt>
   <trkpt lat="-3.0821670" lon="37.3677810">
    <ele>5399.8</ele>
    <time>2026-06-23T06:01:25Z</time>
   </trkpt>
   <trkpt lat="-3.0821740" lon="37.3677810">
    <ele>5399.6</ele>
    <time>2026-06-23T06:01:26Z</time>
   </trkpt>
   <trkpt lat="-3.0821800" lon="37.3677800">
    <ele>5399.3</ele>
    <time>2026-06-23T06:01:27Z</time>
   </trkpt>
   <trkpt lat="-3.0821860" lon="37.3677780">
    <ele>5399.1</ele>
    <time>2026-06-23T06:01:28Z</time>
   </trkpt>
   <trkpt lat="-3.0821910" lon="37.3677760">
    <ele>5398.8</ele>
    <time>2026-06-23T06:01:29Z</time>
   </trkpt>
   <trkpt lat="-3.0821970" lon="37.3677740">
    <ele>5398.6</ele>
    <time>2026-06-23T06:01:30Z</time>
   </trkpt>
   <trkpt lat="-3.0822030" lon="37.3677720">
    <ele>5398.3</ele>
    <time>2026-06-23T06:01:31Z</time>
   </trkpt>
   <trkpt lat="-3.0822070" lon="37.3677700">
    <ele>5398.2</ele>
    <time>2026-06-23T06:01:32Z</time>
   </trkpt>
   <trkpt lat="-3.0822140" lon="37.3677690">
    <ele>5397.9</ele>
    <time>2026-06-23T06:01:33Z</time>
   </trkpt>
   <trkpt lat="-3.0822190" lon="37.3677700">
    <ele>5397.7</ele>
    <time>2026-06-23T06:01:34Z</time>
   </trkpt>
   <trkpt lat="-3.0822230" lon="37.3677710">
    <ele>5397.5</ele>
    <time>2026-06-23T06:01:35Z</time>
   </trkpt>
   <trkpt lat="-3.0822270" lon="37.3677740">
    <ele>5397.3</ele>
    <time>2026-06-23T06:01:36Z</time>
   </trkpt>
   <trkpt lat="-3.0822330" lon="37.3677820">
    <ele>5396.9</ele>
    <time>2026-06-23T06:01:37Z</time>
   </trkpt>
   <trkpt lat="-3.0822350" lon="37.3677830">
    <ele>5396.8</ele>
    <time>2026-06-23T06:01:38Z</time>
   </trkpt>
   <trkpt lat="-3.0822400" lon="37.3677870">
    <ele>5396.5</ele>
    <time>2026-06-23T06:01:39Z</time>
   </trkpt>
   <trkpt lat="-3.0822410" lon="37.3677910">
    <ele>5396.4</ele>
    <time>2026-06-23T06:01:40Z</time>
   </trkpt>
   <trkpt lat="-3.0822450" lon="37.3677960">
    <ele>5396.1</ele>
    <time>2026-06-23T06:01:41Z</time>
   </trkpt>
   <trkpt lat="-3.0822460" lon="37.3678000">
    <ele>5395.9</ele>
    <time>2026-06-23T06:01:42Z</time>
   </trkpt>
   <trkpt lat="-3.0822470" lon="37.3678040">
    <ele>5395.8</ele>
    <time>2026-06-23T06:01:43Z</time>
   </trkpt>
   <trkpt lat="-3.0822470" lon="37.3678090">
    <ele>5395.6</ele>
    <time>2026-06-23T06:01:44Z</time>
   </trkpt>
   <trkpt lat="-3.0822470" lon="37.3678110">
    <ele>5395.5</ele>
    <time>2026-06-23T06:01:45Z</time>
   </trkpt>
   <trkpt lat="-3.0822460" lon="37.3678130">
    <ele>5395.4</ele>
    <time>2026-06-23T06:01:46Z</time>
   </trkpt>
   <trkpt lat="-3.0822500" lon="37.3678190">
    <ele>5395.1</ele>
    <time>2026-06-23T06:01:47Z</time>
   </trkpt>
   <trkpt lat="-3.0822510" lon="37.3678210">
    <ele>5395.0</ele>
    <time>2026-06-23T06:01:48Z</time>
   </trkpt>
   <trkpt lat="-3.0822520" lon="37.3678210">
    <ele>5395.0</ele>
    <time>2026-06-23T06:01:49Z</time>
   </trkpt>
   <trkpt lat="-3.0822510" lon="37.3678180">
    <ele>5394.9</ele>
    <time>2026-06-23T06:01:50Z</time>
   </trkpt>
   <trkpt lat="-3.0822520" lon="37.3678210">
    <ele>5394.7</ele>
    <time>2026-06-23T06:01:51Z</time>
   </trkpt>
   <trkpt lat="-3.0822560" lon="37.3678230">
    <ele>5394.6</ele>
    <time>2026-06-23T06:01:52Z</time>
   </trkpt>
   <trkpt lat="-3.0822630" lon="37.3678250">
    <ele>5394.3</ele>
    <time>2026-06-23T06:01:53Z</time>
   </trkpt>
   <trkpt lat="-3.0822660" lon="37.3678260">
    <ele>5394.1</ele>
    <time>2026-06-23T06:01:54Z</time>
   </trkpt>
   <trkpt lat="-3.0822690" lon="37.3678300">
    <ele>5393.9</ele>
    <time>2026-06-23T06:01:55Z</time>
   </trkpt>
   <trkpt lat="-3.0822720" lon="37.3678290">
    <ele>5393.8</ele>
    <time>2026-06-23T06:01:56Z</time>
   </trkpt>
   <trkpt lat="-3.0822740" lon="37.3678290">
    <ele>5393.7</ele>
    <time>2026-06-23T06:01:57Z</time>
   </trkpt>
   <trkpt lat="-3.0822770" lon="37.3678300">
    <ele>5393.6</ele>
    <time>2026-06-23T06:01:58Z</time>
   </trkpt>
   <trkpt lat="-3.0822810" lon="37.3678310">
    <ele>5393.4</ele>
    <time>2026-06-23T06:01:59Z</time>
   </trkpt>
   <trkpt lat="-3.0822790" lon="37.3678300">
    <ele>5393.3</ele>
    <time>2026-06-23T06:02:00Z</time>
   </trkpt>
   <trkpt lat="-3.0822820" lon="37.3678320">
    <ele>5393.2</ele>
    <time>2026-06-23T06:02:01Z</time>
   </trkpt>
   <trkpt lat="-3.0822820" lon="37.3678310">
    <ele>5393.1</ele>
    <time>2026-06-23T06:02:02Z</time>
   </trkpt>
   <trkpt lat="-3.0822830" lon="37.3678300">
    <ele>5393.1</ele>
    <time>2026-06-23T06:02:03Z</time>
   </trkpt>
   <trkpt lat="-3.0822860" lon="37.3678320">
    <ele>5392.9</ele>
    <time>2026-06-23T06:02:04Z</time>
   </trkpt>
   <trkpt lat="-3.0822930" lon="37.3678350">
    <ele>5392.6</ele>
    <time>2026-06-23T06:02:05Z</time>
   </trkpt>
   <trkpt lat="-3.0822930" lon="37.3678340">
    <ele>5392.6</ele>
    <time>2026-06-23T06:02:06Z</time>
   </trkpt>
   <trkpt lat="-3.0822950" lon="37.3678350">
    <ele>5392.5</ele>
    <time>2026-06-23T06:02:07Z</time>
   </trkpt>
   <trkpt lat="-3.0822970" lon="37.3678380">
    <ele>5392.4</ele>
    <time>2026-06-23T06:02:08Z</time>
   </trkpt>
   <trkpt lat="-3.0823000" lon="37.3678430">
    <ele>5392.1</ele>
    <time>2026-06-23T06:02:09Z</time>
   </trkpt>
   <trkpt lat="-3.0823000" lon="37.3678400">
    <ele>5392.0</ele>
    <time>2026-06-23T06:02:10Z</time>
   </trkpt>
   <trkpt lat="-3.0823020" lon="37.3678390">
    <ele>5391.9</ele>
    <time>2026-06-23T06:02:11Z</time>
   </trkpt>
   <trkpt lat="-3.0823060" lon="37.3678440">
    <ele>5391.7</ele>
    <time>2026-06-23T06:02:12Z</time>
   </trkpt>
   <trkpt lat="-3.0823120" lon="37.3678410">
    <ele>5391.4</ele>
    <time>2026-06-23T06:02:13Z</time>
   </trkpt>
   <trkpt lat="-3.0823100" lon="37.3678440">
    <ele>5391.2</ele>
    <time>2026-06-23T06:02:14Z</time>
   </trkpt>
   <trkpt lat="-3.0823090" lon="37.3678430">
    <ele>5391.2</ele>
    <time>2026-06-23T06:02:15Z</time>
   </trkpt>
   <trkpt lat="-3.0823090" lon="37.3678430">
    <ele>5391.2</ele>
    <time>2026-06-23T06:02:16Z</time>
   </trkpt>
   <trkpt lat="-3.0823100" lon="37.3678430">
    <ele>5391.1</ele>
    <time>2026-06-23T06:02:17Z</time>
   </trkpt>
   <trkpt lat="-3.0823120" lon="37.3678440">
    <ele>5391.1</ele>
    <time>2026-06-23T06:02:18Z</time>
   </trkpt>
   <trkpt lat="-3.0823120" lon="37.3678450">
    <ele>5391.0</ele>
    <time>2026-06-23T06:02:19Z</time>
   </trkpt>
   <trkpt lat="-3.0823130" lon="37.3678460">
    <ele>5391.0</ele>
    <time>2026-06-23T06:02:20Z</time>
   </trkpt>
   <trkpt lat="-3.0823130" lon="37.3678450">
    <ele>5390.9</ele>
    <time>2026-06-23T06:02:21Z</time>
   </trkpt>
   <trkpt lat="-3.0823130" lon="37.3678470">
    <ele>5390.8</ele>
    <time>2026-06-23T06:02:22Z</time>
   </trkpt>
   <trkpt lat="-3.0823140" lon="37.3678460">
    <ele>5390.8</ele>
    <time>2026-06-23T06:02:23Z</time>
   </trkpt>
   <trkpt lat="-3.0823110" lon="37.3678470">
    <ele>5390.6</ele>
    <time>2026-06-23T06:02:24Z</time>
   </trkpt>
   <trkpt lat="-3.0823110" lon="37.3678460">
    <ele>5390.6</ele>
    <time>2026-06-23T06:02:25Z</time>
   </trkpt>
   <trkpt lat="-3.0823100" lon="37.3678460">
    <ele>5390.6</ele>
    <time>2026-06-23T06:02:26Z</time>
   </trkpt>
   <trkpt lat="-3.0823120" lon="37.3678490">
    <ele>5390.4</ele>
    <time>2026-06-23T06:02:27Z</time>
   </trkpt>
   <trkpt lat="-3.0823120" lon="37.3678500">
    <ele>5390.4</ele>
    <time>2026-06-23T06:02:28Z</time>
   </trkpt>
   <trkpt lat="-3.0823120" lon="37.3678500">
    <ele>5390.4</ele>
    <time>2026-06-23T06:02:29Z</time>
   </trkpt>
   <trkpt lat="-3.0823120" lon="37.3678500">
    <ele>5390.4</ele>
    <time>2026-06-23T06:02:30Z</time>
   </trkpt>
   <trkpt lat="-3.0823120" lon="37.3678500">
    <ele>5390.4</ele>
    <time>2026-06-23T06:02:31Z</time>
   </trkpt>
   <trkpt lat="-3.0823130" lon="37.3678470">
    <ele>5390.3</ele>
    <time>2026-06-23T06:02:32Z</time>
   </trkpt>
   <trkpt lat="-3.0823140" lon="37.3678440">
    <ele>5390.1</ele>
    <time>2026-06-23T06:02:33Z</time>
   </trkpt>
   <trkpt lat="-3.0823150" lon="37.3678440">
    <ele>5390.1</ele>
    <time>2026-06-23T06:02:34Z</time>
   </trkpt>
   <trkpt lat="-3.0823170" lon="37.3678460">
    <ele>5390.0</ele>
    <time>2026-06-23T06:02:35Z</time>
   </trkpt>
   <trkpt lat="-3.0823190" lon="37.3678480">
    <ele>5389.9</ele>
    <time>2026-06-23T06:02:36Z</time>
   </trkpt>
   <trkpt lat="-3.0823170" lon="37.3678490">
    <ele>5389.8</ele>
    <time>2026-06-23T06:02:37Z</time>
   </trkpt>
   <trkpt lat="-3.0823190" lon="37.3678510">
    <ele>5389.7</ele>
    <time>2026-06-23T06:02:38Z</time>
   </trkpt>
   <trkpt lat="-3.0823240" lon="37.3678530">
    <ele>5389.4</ele>
    <time>2026-06-23T06:02:39Z</time>
   </trkpt>
   <trkpt lat="-3.0823190" lon="37.3678540">
    <ele>5389.2</ele>
    <time>2026-06-23T06:02:40Z</time>
   </trkpt>
   <trkpt lat="-3.0823160" lon="37.3678600">
    <ele>5389.0</ele>
    <time>2026-06-23T06:02:41Z</time>
   </trkpt>
   <trkpt lat="-3.0823200" lon="37.3678650">
    <ele>5388.7</ele>
    <time>2026-06-23T06:02:42Z</time>
   </trkpt>
   <trkpt lat="-3.0823160" lon="37.3678700">
    <ele>5388.4</ele>
    <time>2026-06-23T06:02:43Z</time>
   </trkpt>
   <trkpt lat="-3.0823140" lon="37.3678720">
    <ele>5388.3</ele>
    <time>2026-06-23T06:02:44Z</time>
   </trkpt>
   <trkpt lat="-3.0823140" lon="37.3678750">
    <ele>5388.2</ele>
    <time>2026-06-23T06:02:45Z</time>
   </trkpt>
   <trkpt lat="-3.0823150" lon="37.3678780">
    <ele>5388.1</ele>
    <time>2026-06-23T06:02:46Z</time>
   </trkpt>
   <trkpt lat="-3.0823150" lon="37.3678800">
    <ele>5388.0</ele>
    <time>2026-06-23T06:02:47Z</time>
   </trkpt>
   <trkpt lat="-3.0823140" lon="37.3678810">
    <ele>5387.9</ele>
    <time>2026-06-23T06:02:48Z</time>
   </trkpt>
   <trkpt lat="-3.0823140" lon="37.3678840">
    <ele>5387.8</ele>
    <time>2026-06-23T06:02:49Z</time>
   </trkpt>
   <trkpt lat="-3.0823120" lon="37.3678920">
    <ele>5387.5</ele>
    <time>2026-06-23T06:02:50Z</time>
   </trkpt>
   <trkpt lat="-3.0823110" lon="37.3678970">
    <ele>5387.3</ele>
    <time>2026-06-23T06:02:51Z</time>
   </trkpt>
   <trkpt lat="-3.0823140" lon="37.3679020">
    <ele>5387.1</ele>
    <time>2026-06-23T06:02:52Z</time>
   </trkpt>
   <trkpt lat="-3.0823180" lon="37.3679060">
    <ele>5386.8</ele>
    <time>2026-06-23T06:02:53Z</time>
   </trkpt>
   <trkpt lat="-3.0823220" lon="37.3679130">
    <ele>5386.5</ele>
    <time>2026-06-23T06:02:54Z</time>
   </trkpt>
   <trkpt lat="-3.0823250" lon="37.3679150">
    <ele>5386.4</ele>
    <time>2026-06-23T06:02:55Z</time>
   </trkpt>
   <trkpt lat="-3.0823330" lon="37.3679170">
    <ele>5386.1</ele>
    <time>2026-06-23T06:02:56Z</time>
   </trkpt>
   <trkpt lat="-3.0823370" lon="37.3679200">
    <ele>5385.9</ele>
    <time>2026-06-23T06:02:57Z</time>
   </trkpt>
   <trkpt lat="-3.0823420" lon="37.3679220">
    <ele>5385.7</ele>
    <time>2026-06-23T06:02:58Z</time>
   </trkpt>
   <trkpt lat="-3.0823490" lon="37.3679250">
    <ele>5385.4</ele>
    <time>2026-06-23T06:03:00Z</time>
   </trkpt>
   <trkpt lat="-3.0823520" lon="37.3679270">
    <ele>5385.3</ele>
    <time>2026-06-23T06:03:01Z</time>
   </trkpt>
   <trkpt lat="-3.0823600" lon="37.3679300">
    <ele>5385.0</ele>
    <time>2026-06-23T06:03:02Z</time>
   </trkpt>
   <trkpt lat="-3.0823660" lon="37.3679320">
    <ele>5384.7</ele>
    <time>2026-06-23T06:03:03Z</time>
   </trkpt>
   <trkpt lat="-3.0823740" lon="37.3679360">
    <ele>5384.4</ele>
    <time>2026-06-23T06:03:04Z</time>
   </trkpt>
   <trkpt lat="-3.0823770" lon="37.3679400">
    <ele>5384.2</ele>
    <time>2026-06-23T06:03:05Z</time>
   </trkpt>
   <trkpt lat="-3.0823810" lon="37.3679450">
    <ele>5384.0</ele>
    <time>2026-06-23T06:03:06Z</time>
   </trkpt>
   <trkpt lat="-3.0823840" lon="37.3679510">
    <ele>5383.7</ele>
    <time>2026-06-23T06:03:07Z</time>
   </trkpt>
   <trkpt lat="-3.0823850" lon="37.3679560">
    <ele>5383.5</ele>
    <time>2026-06-23T06:03:08Z</time>
   </trkpt>
   <trkpt lat="-3.0823820" lon="37.3679640">
    <ele>5383.2</ele>
    <time>2026-06-23T06:03:09Z</time>
   </trkpt>
   <trkpt lat="-3.0823780" lon="37.3679710">
    <ele>5382.9</ele>
    <time>2026-06-23T06:03:10Z</time>
   </trkpt>
   <trkpt lat="-3.0823740" lon="37.3679770">
    <ele>5382.6</ele>
    <time>2026-06-23T06:03:11Z</time>
   </trkpt>
   <trkpt lat="-3.0823680" lon="37.3679830">
    <ele>5382.3</ele>
    <time>2026-06-23T06:03:12Z</time>
   </trkpt>
   <trkpt lat="-3.0823660" lon="37.3679910">
    <ele>5382.0</ele>
    <time>2026-06-23T06:03:13Z</time>
   </trkpt>
   <trkpt lat="-3.0823630" lon="37.3680000">
    <ele>5381.7</ele>
    <time>2026-06-23T06:03:14Z</time>
   </trkpt>
   <trkpt lat="-3.0823610" lon="37.3680060">
    <ele>5381.4</ele>
    <time>2026-06-23T06:03:15Z</time>
   </trkpt>
   <trkpt lat="-3.0823600" lon="37.3680150">
    <ele>5381.1</ele>
    <time>2026-06-23T06:03:16Z</time>
   </trkpt>
   <trkpt lat="-3.0823650" lon="37.3680260">
    <ele>5380.6</ele>
    <time>2026-06-23T06:03:17Z</time>
   </trkpt>
   <trkpt lat="-3.0823650" lon="37.3680330">
    <ele>5380.4</ele>
    <time>2026-06-23T06:03:18Z</time>
   </trkpt>
   <trkpt lat="-3.0823660" lon="37.3680400">
    <ele>5380.1</ele>
    <time>2026-06-23T06:03:19Z</time>
   </trkpt>
   <trkpt lat="-3.0823660" lon="37.3680470">
    <ele>5379.8</ele>
    <time>2026-06-23T06:03:20Z</time>
   </trkpt>
   <trkpt lat="-3.0823630" lon="37.3680550">
    <ele>5379.5</ele>
    <time>2026-06-23T06:03:21Z</time>
   </trkpt>
   <trkpt lat="-3.0823590" lon="37.3680660">
    <ele>5379.1</ele>
    <time>2026-06-23T06:03:22Z</time>
   </trkpt>
   <trkpt lat="-3.0823570" lon="37.3680720">
    <ele>5378.8</ele>
    <time>2026-06-23T06:03:23Z</time>
   </trkpt>
   <trkpt lat="-3.0823550" lon="37.3680830">
    <ele>5378.4</ele>
    <time>2026-06-23T06:03:24Z</time>
   </trkpt>
   <trkpt lat="-3.0823580" lon="37.3680920">
    <ele>5378.1</ele>
    <time>2026-06-23T06:03:25Z</time>
   </trkpt>
   <trkpt lat="-3.0823710" lon="37.3680960">
    <ele>5377.6</ele>
    <time>2026-06-23T06:03:26Z</time>
   </trkpt>
   <trkpt lat="-3.0823800" lon="37.3680940">
    <ele>5377.3</ele>
    <time>2026-06-23T06:03:27Z</time>
   </trkpt>
   <trkpt lat="-3.0823860" lon="37.3680890">
    <ele>5377.0</ele>
    <time>2026-06-23T06:03:28Z</time>
   </trkpt>
   <trkpt lat="-3.0823970" lon="37.3680890">
    <ele>5376.7</ele>
    <time>2026-06-23T06:03:29Z</time>
   </trkpt>
   <trkpt lat="-3.0824070" lon="37.3680900">
    <ele>5376.3</ele>
    <time>2026-06-23T06:03:30Z</time>
   </trkpt>
   <trkpt lat="-3.0824120" lon="37.3680920">
    <ele>5376.1</ele>
    <time>2026-06-23T06:03:31Z</time>
   </trkpt>
   <trkpt lat="-3.0824200" lon="37.3680960">
    <ele>5375.8</ele>
    <time>2026-06-23T06:03:32Z</time>
   </trkpt>
   <trkpt lat="-3.0824270" lon="37.3681000">
    <ele>5375.6</ele>
    <time>2026-06-23T06:03:33Z</time>
   </trkpt>
   <trkpt lat="-3.0824320" lon="37.3681030">
    <ele>5375.4</ele>
    <time>2026-06-23T06:03:34Z</time>
   </trkpt>
   <trkpt lat="-3.0824370" lon="37.3681090">
    <ele>5375.1</ele>
    <time>2026-06-23T06:03:35Z</time>
   </trkpt>
   <trkpt lat="-3.0824410" lon="37.3681180">
    <ele>5374.8</ele>
    <time>2026-06-23T06:03:36Z</time>
   </trkpt>
   <trkpt lat="-3.0824460" lon="37.3681250">
    <ele>5374.5</ele>
    <time>2026-06-23T06:03:37Z</time>
   </trkpt>
   <trkpt lat="-3.0824510" lon="37.3681320">
    <ele>5374.2</ele>
    <time>2026-06-23T06:03:38Z</time>
   </trkpt>
   <trkpt lat="-3.0824550" lon="37.3681380">
    <ele>5374.0</ele>
    <time>2026-06-23T06:03:39Z</time>
   </trkpt>
   <trkpt lat="-3.0824570" lon="37.3681440">
    <ele>5373.8</ele>
    <time>2026-06-23T06:03:40Z</time>
   </trkpt>
   <trkpt lat="-3.0824600" lon="37.3681490">
    <ele>5373.6</ele>
    <time>2026-06-23T06:03:41Z</time>
   </trkpt>
   <trkpt lat="-3.0824660" lon="37.3681530">
    <ele>5373.3</ele>
    <time>2026-06-23T06:03:42Z</time>
   </trkpt>
   <trkpt lat="-3.0824720" lon="37.3681500">
    <ele>5373.1</ele>
    <time>2026-06-23T06:03:43Z</time>
   </trkpt>
   <trkpt lat="-3.0824860" lon="37.3681520">
    <ele>5372.6</ele>
    <time>2026-06-23T06:03:44Z</time>
   </trkpt>
   <trkpt lat="-3.0824950" lon="37.3681550">
    <ele>5372.3</ele>
    <time>2026-06-23T06:03:45Z</time>
   </trkpt>
   <trkpt lat="-3.0824970" lon="37.3681610">
    <ele>5372.0</ele>
    <time>2026-06-23T06:03:46Z</time>
   </trkpt>
   <trkpt lat="-3.0824940" lon="37.3681660">
    <ele>5371.8</ele>
    <time>2026-06-23T06:03:47Z</time>
   </trkpt>
   <trkpt lat="-3.0824900" lon="37.3681720">
    <ele>5371.6</ele>
    <time>2026-06-23T06:03:48Z</time>
   </trkpt>
   <trkpt lat="-3.0824890" lon="37.3681810">
    <ele>5371.3</ele>
    <time>2026-06-23T06:03:49Z</time>
   </trkpt>
   <trkpt lat="-3.0824870" lon="37.3681870">
    <ele>5371.1</ele>
    <time>2026-06-23T06:03:50Z</time>
   </trkpt>
   <trkpt lat="-3.0824830" lon="37.3681930">
    <ele>5370.8</ele>
    <time>2026-06-23T06:03:51Z</time>
   </trkpt>
   <trkpt lat="-3.0824800" lon="37.3681980">
    <ele>5370.6</ele>
    <time>2026-06-23T06:03:52Z</time>
   </trkpt>
   <trkpt lat="-3.0824760" lon="37.3682030">
    <ele>5370.4</ele>
    <time>2026-06-23T06:03:53Z</time>
   </trkpt>
   <trkpt lat="-3.0824750" lon="37.3682120">
    <ele>5370.1</ele>
    <time>2026-06-23T06:03:54Z</time>
   </trkpt>
   <trkpt lat="-3.0824730" lon="37.3682160">
    <ele>5369.9</ele>
    <time>2026-06-23T06:03:55Z</time>
   </trkpt>
   <trkpt lat="-3.0824710" lon="37.3682190">
    <ele>5369.8</ele>
    <time>2026-06-23T06:03:56Z</time>
   </trkpt>
   <trkpt lat="-3.0824650" lon="37.3682250">
    <ele>5369.4</ele>
    <time>2026-06-23T06:03:57Z</time>
   </trkpt>
   <trkpt lat="-3.0824640" lon="37.3682270">
    <ele>5369.4</ele>
    <time>2026-06-23T06:03:58Z</time>
   </trkpt>
   <trkpt lat="-3.0824670" lon="37.3682330">
    <ele>5369.1</ele>
    <time>2026-06-23T06:03:59Z</time>
   </trkpt>
   <trkpt lat="-3.0824730" lon="37.3682370">
    <ele>5368.9</ele>
    <time>2026-06-23T06:04:00Z</time>
   </trkpt>
   <trkpt lat="-3.0824780" lon="37.3682420">
    <ele>5368.6</ele>
    <time>2026-06-23T06:04:01Z</time>
   </trkpt>
   <trkpt lat="-3.0824880" lon="37.3682490">
    <ele>5368.1</ele>
    <time>2026-06-23T06:04:02Z</time>
   </trkpt>
   <trkpt lat="-3.0824950" lon="37.3682510">
    <ele>5367.9</ele>
    <time>2026-06-23T06:04:03Z</time>
   </trkpt>
   <trkpt lat="-3.0825020" lon="37.3682530">
    <ele>5367.6</ele>
    <time>2026-06-23T06:04:04Z</time>
   </trkpt>
   <trkpt lat="-3.0824990" lon="37.3682540">
    <ele>5367.5</ele>
    <time>2026-06-23T06:04:05Z</time>
   </trkpt>
   <trkpt lat="-3.0824970" lon="37.3682590">
    <ele>5367.3</ele>
    <time>2026-06-23T06:04:06Z</time>
   </trkpt>
   <trkpt lat="-3.0824940" lon="37.3682620">
    <ele>5367.1</ele>
    <time>2026-06-23T06:04:07Z</time>
   </trkpt>
   <trkpt lat="-3.0824940" lon="37.3682620">
    <ele>5367.1</ele>
    <time>2026-06-23T06:04:08Z</time>
   </trkpt>
   <trkpt lat="-3.0824920" lon="37.3682630">
    <ele>5367.1</ele>
    <time>2026-06-23T06:04:09Z</time>
   </trkpt>
   <trkpt lat="-3.0824910" lon="37.3682640">
    <ele>5367.0</ele>
    <time>2026-06-23T06:04:10Z</time>
   </trkpt>
   <trkpt lat="-3.0824870" lon="37.3682670">
    <ele>5366.8</ele>
    <time>2026-06-23T06:04:11Z</time>
   </trkpt>
   <trkpt lat="-3.0824830" lon="37.3682680">
    <ele>5366.7</ele>
    <time>2026-06-23T06:04:12Z</time>
   </trkpt>
   <trkpt lat="-3.0824780" lon="37.3682690">
    <ele>5366.5</ele>
    <time>2026-06-23T06:04:13Z</time>
   </trkpt>
   <trkpt lat="-3.0824770" lon="37.3682720">
    <ele>5366.4</ele>
    <time>2026-06-23T06:04:14Z</time>
   </trkpt>
   <trkpt lat="-3.0824730" lon="37.3682730">
    <ele>5366.2</ele>
    <time>2026-06-23T06:04:15Z</time>
   </trkpt>
   <trkpt lat="-3.0824690" lon="37.3682760">
    <ele>5366.0</ele>
    <time>2026-06-23T06:04:16Z</time>
   </trkpt>
   <trkpt lat="-3.0824660" lon="37.3682800">
    <ele>5365.8</ele>
    <time>2026-06-23T06:04:17Z</time>
   </trkpt>
   <trkpt lat="-3.0824620" lon="37.3682820">
    <ele>5365.7</ele>
    <time>2026-06-23T06:04:18Z</time>
   </trkpt>
   <trkpt lat="-3.0824570" lon="37.3682830">
    <ele>5365.5</ele>
    <time>2026-06-23T06:04:19Z</time>
   </trkpt>
   <trkpt lat="-3.0824540" lon="37.3682870">
    <ele>5365.3</ele>
    <time>2026-06-23T06:04:20Z</time>
   </trkpt>
   <trkpt lat="-3.0824540" lon="37.3682910">
    <ele>5365.2</ele>
    <time>2026-06-23T06:04:21Z</time>
   </trkpt>
   <trkpt lat="-3.0824540" lon="37.3682940">
    <ele>5365.0</ele>
    <time>2026-06-23T06:04:22Z</time>
   </trkpt>
   <trkpt lat="-3.0824580" lon="37.3682980">
    <ele>5364.8</ele>
    <time>2026-06-23T06:04:23Z</time>
   </trkpt>
   <trkpt lat="-3.0824590" lon="37.3683060">
    <ele>5364.5</ele>
    <time>2026-06-23T06:04:24Z</time>
   </trkpt>
   <trkpt lat="-3.0824580" lon="37.3683120">
    <ele>5364.3</ele>
    <time>2026-06-23T06:04:25Z</time>
   </trkpt>
   <trkpt lat="-3.0824520" lon="37.3683170">
    <ele>5364.0</ele>
    <time>2026-06-23T06:04:26Z</time>
   </trkpt>
   <trkpt lat="-3.0824450" lon="37.3683220">
    <ele>5363.7</ele>
    <time>2026-06-23T06:04:27Z</time>
   </trkpt>
   <trkpt lat="-3.0824400" lon="37.3683280">
    <ele>5363.4</ele>
    <time>2026-06-23T06:04:28Z</time>
   </trkpt>
   <trkpt lat="-3.0824360" lon="37.3683320">
    <ele>5363.2</ele>
    <time>2026-06-23T06:04:29Z</time>
   </trkpt>
   <trkpt lat="-3.0824310" lon="37.3683380">
    <ele>5362.9</ele>
    <time>2026-06-23T06:04:30Z</time>
   </trkpt>
   <trkpt lat="-3.0824320" lon="37.3683450">
    <ele>5362.7</ele>
    <time>2026-06-23T06:04:31Z</time>
   </trkpt>
   <trkpt lat="-3.0824330" lon="37.3683540">
    <ele>5362.3</ele>
    <time>2026-06-23T06:04:32Z</time>
   </trkpt>
   <trkpt lat="-3.0824320" lon="37.3683610">
    <ele>5362.1</ele>
    <time>2026-06-23T06:04:33Z</time>
   </trkpt>
   <trkpt lat="-3.0824330" lon="37.3683670">
    <ele>5361.9</ele>
    <time>2026-06-23T06:04:34Z</time>
   </trkpt>
   <trkpt lat="-3.0824360" lon="37.3683680">
    <ele>5361.7</ele>
    <time>2026-06-23T06:04:35Z</time>
   </trkpt>
   <trkpt lat="-3.0824460" lon="37.3683750">
    <ele>5361.3</ele>
    <time>2026-06-23T06:04:36Z</time>
   </trkpt>
   <trkpt lat="-3.0824530" lon="37.3683790">
    <ele>5361.0</ele>
    <time>2026-06-23T06:04:37Z</time>
   </trkpt>
   <trkpt lat="-3.0824600" lon="37.3683820">
    <ele>5360.7</ele>
    <time>2026-06-23T06:04:38Z</time>
   </trkpt>
   <trkpt lat="-3.0824610" lon="37.3683860">
    <ele>5360.6</ele>
    <time>2026-06-23T06:04:39Z</time>
   </trkpt>
   <trkpt lat="-3.0824610" lon="37.3683920">
    <ele>5360.3</ele>
    <time>2026-06-23T06:04:40Z</time>
   </trkpt>
   <trkpt lat="-3.0824610" lon="37.3683980">
    <ele>5360.1</ele>
    <time>2026-06-23T06:04:41Z</time>
   </trkpt>
   <trkpt lat="-3.0824650" lon="37.3684060">
    <ele>5359.8</ele>
    <time>2026-06-23T06:04:42Z</time>
   </trkpt>
   <trkpt lat="-3.0824680" lon="37.3684100">
    <ele>5359.6</ele>
    <time>2026-06-23T06:04:43Z</time>
   </trkpt>
   <trkpt lat="-3.0824730" lon="37.3684110">
    <ele>5359.4</ele>
    <time>2026-06-23T06:04:44Z</time>
   </trkpt>
   <trkpt lat="-3.0824810" lon="37.3684140">
    <ele>5359.1</ele>
    <time>2026-06-23T06:04:45Z</time>
   </trkpt>
   <trkpt lat="-3.0824850" lon="37.3684150">
    <ele>5359.0</ele>
    <time>2026-06-23T06:04:46Z</time>
   </trkpt>
   <trkpt lat="-3.0824900" lon="37.3684150">
    <ele>5358.8</ele>
    <time>2026-06-23T06:04:47Z</time>
   </trkpt>
   <trkpt lat="-3.0824950" lon="37.3684180">
    <ele>5358.6</ele>
    <time>2026-06-23T06:04:48Z</time>
   </trkpt>
   <trkpt lat="-3.0824990" lon="37.3684190">
    <ele>5358.4</ele>
    <time>2026-06-23T06:04:49Z</time>
   </trkpt>
   <trkpt lat="-3.0825000" lon="37.3684220">
    <ele>5358.3</ele>
    <time>2026-06-23T06:04:50Z</time>
   </trkpt>
   <trkpt lat="-3.0825030" lon="37.3684240">
    <ele>5358.2</ele>
    <time>2026-06-23T06:04:51Z</time>
   </trkpt>
   <trkpt lat="-3.0825030" lon="37.3684260">
    <ele>5358.1</ele>
    <time>2026-06-23T06:04:52Z</time>
   </trkpt>
   <trkpt lat="-3.0825010" lon="37.3684250">
    <ele>5358.0</ele>
    <time>2026-06-23T06:04:53Z</time>
   </trkpt>
   <trkpt lat="-3.0825000" lon="37.3684260">
    <ele>5357.9</ele>
    <time>2026-06-23T06:04:54Z</time>
   </trkpt>
   <trkpt lat="-3.0825000" lon="37.3684290">
    <ele>5357.8</ele>
    <time>2026-06-23T06:04:55Z</time>
   </trkpt>
   <trkpt lat="-3.0824980" lon="37.3684330">
    <ele>5357.7</ele>
    <time>2026-06-23T06:04:56Z</time>
   </trkpt>
   <trkpt lat="-3.0824990" lon="37.3684350">
    <ele>5357.6</ele>
    <time>2026-06-23T06:04:57Z</time>
   </trkpt>
   <trkpt lat="-3.0824970" lon="37.3684440">
    <ele>5357.2</ele>
    <time>2026-06-23T06:04:58Z</time>
   </trkpt>
   <trkpt lat="-3.0824990" lon="37.3684500">
    <ele>5357.0</ele>
    <time>2026-06-23T06:04:59Z</time>
   </trkpt>
   <trkpt lat="-3.0824970" lon="37.3684550">
    <ele>5356.8</ele>
    <time>2026-06-23T06:05:00Z</time>
   </trkpt>
   <trkpt lat="-3.0824970" lon="37.3684640">
    <ele>5356.5</ele>
    <time>2026-06-23T06:05:01Z</time>
   </trkpt>
   <trkpt lat="-3.0824960" lon="37.3684670">
    <ele>5356.4</ele>
    <time>2026-06-23T06:05:02Z</time>
   </trkpt>
   <trkpt lat="-3.0824970" lon="37.3684740">
    <ele>5356.1</ele>
    <time>2026-06-23T06:05:03Z</time>
   </trkpt>
   <trkpt lat="-3.0824940" lon="37.3684760">
    <ele>5356.0</ele>
    <time>2026-06-23T06:05:05Z</time>
   </trkpt>
   <trkpt lat="-3.0824880" lon="37.3684770">
    <ele>5355.8</ele>
    <time>2026-06-23T06:05:06Z</time>
   </trkpt>
   <trkpt lat="-3.0824830" lon="37.3684800">
    <ele>5355.5</ele>
    <time>2026-06-23T06:05:07Z</time>
   </trkpt>
   <trkpt lat="-3.0824770" lon="37.3684810">
    <ele>5355.3</ele>
    <time>2026-06-23T06:05:08Z</time>
   </trkpt>
   <trkpt lat="-3.0824730" lon="37.3684860">
    <ele>5355.1</ele>
    <time>2026-06-23T06:05:09Z</time>
   </trkpt>
   <trkpt lat="-3.0824690" lon="37.3684880">
    <ele>5354.9</ele>
    <time>2026-06-23T06:05:10Z</time>
   </trkpt>
   <trkpt lat="-3.0824640" lon="37.3684930">
    <ele>5354.7</ele>
    <time>2026-06-23T06:05:11Z</time>
   </trkpt>
   <trkpt lat="-3.0824550" lon="37.3684950">
    <ele>5354.3</ele>
    <time>2026-06-23T06:05:12Z</time>
   </trkpt>
   <trkpt lat="-3.0824510" lon="37.3684990">
    <ele>5354.1</ele>
    <time>2026-06-23T06:05:13Z</time>
   </trkpt>
   <trkpt lat="-3.0824490" lon="37.3685140">
    <ele>5353.6</ele>
    <time>2026-06-23T06:05:14Z</time>
   </trkpt>
   <trkpt lat="-3.0824540" lon="37.3685230">
    <ele>5353.3</ele>
    <time>2026-06-23T06:05:15Z</time>
   </trkpt>
   <trkpt lat="-3.0824610" lon="37.3685270">
    <ele>5353.0</ele>
    <time>2026-06-23T06:05:16Z</time>
   </trkpt>
   <trkpt lat="-3.0824710" lon="37.3685330">
    <ele>5352.6</ele>
    <time>2026-06-23T06:05:17Z</time>
   </trkpt>
   <trkpt lat="-3.0824830" lon="37.3685380">
    <ele>5352.1</ele>
    <time>2026-06-23T06:05:18Z</time>
   </trkpt>
   <trkpt lat="-3.0824960" lon="37.3685470">
    <ele>5351.6</ele>
    <time>2026-06-23T06:05:19Z</time>
   </trkpt>
   <trkpt lat="-3.0825030" lon="37.3685560">
    <ele>5351.2</ele>
    <time>2026-06-23T06:05:20Z</time>
   </trkpt>
   <trkpt lat="-3.0825090" lon="37.3685610">
    <ele>5350.9</ele>
    <time>2026-06-23T06:05:21Z</time>
   </trkpt>
   <trkpt lat="-3.0825120" lon="37.3685840">
    <ele>5350.1</ele>
    <time>2026-06-23T06:05:22Z</time>
   </trkpt>
   <trkpt lat="-3.0825070" lon="37.3685920">
    <ele>5349.8</ele>
    <time>2026-06-23T06:05:23Z</time>
   </trkpt>
   <trkpt lat="-3.0824950" lon="37.3685900">
    <ele>5349.3</ele>
    <time>2026-06-23T06:05:24Z</time>
   </trkpt>
   <trkpt lat="-3.0824840" lon="37.3685900">
    <ele>5349.0</ele>
    <time>2026-06-23T06:05:25Z</time>
   </trkpt>
   <trkpt lat="-3.0824790" lon="37.3685920">
    <ele>5348.8</ele>
    <time>2026-06-23T06:05:26Z</time>
   </trkpt>
   <trkpt lat="-3.0824720" lon="37.3685930">
    <ele>5348.5</ele>
    <time>2026-06-23T06:05:27Z</time>
   </trkpt>
   <trkpt lat="-3.0824690" lon="37.3685930">
    <ele>5348.4</ele>
    <time>2026-06-23T06:05:28Z</time>
   </trkpt>
   <trkpt lat="-3.0824630" lon="37.3685940">
    <ele>5348.2</ele>
    <time>2026-06-23T06:05:29Z</time>
   </trkpt>
   <trkpt lat="-3.0824570" lon="37.3685950">
    <ele>5348.0</ele>
    <time>2026-06-23T06:05:30Z</time>
   </trkpt>
   <trkpt lat="-3.0824570" lon="37.3686020">
    <ele>5347.7</ele>
    <time>2026-06-23T06:05:31Z</time>
   </trkpt>
   <trkpt lat="-3.0824510" lon="37.3686130">
    <ele>5347.3</ele>
    <time>2026-06-23T06:05:32Z</time>
   </trkpt>
   <trkpt lat="-3.0824500" lon="37.3686180">
    <ele>5347.1</ele>
    <time>2026-06-23T06:05:33Z</time>
   </trkpt>
   <trkpt lat="-3.0824540" lon="37.3686250">
    <ele>5346.8</ele>
    <time>2026-06-23T06:05:34Z</time>
   </trkpt>
   <trkpt lat="-3.0824560" lon="37.3686300">
    <ele>5346.7</ele>
    <time>2026-06-23T06:05:35Z</time>
   </trkpt>
   <trkpt lat="-3.0824580" lon="37.3686380">
    <ele>5346.4</ele>
    <time>2026-06-23T06:05:36Z</time>
   </trkpt>
   <trkpt lat="-3.0824600" lon="37.3686520">
    <ele>5345.9</ele>
    <time>2026-06-23T06:05:37Z</time>
   </trkpt>
   <trkpt lat="-3.0824670" lon="37.3686650">
    <ele>5345.4</ele>
    <time>2026-06-23T06:05:38Z</time>
   </trkpt>
   <trkpt lat="-3.0824660" lon="37.3686770">
    <ele>5344.9</ele>
    <time>2026-06-23T06:05:39Z</time>
   </trkpt>
   <trkpt lat="-3.0824650" lon="37.3686880">
    <ele>5344.6</ele>
    <time>2026-06-23T06:05:40Z</time>
   </trkpt>
   <trkpt lat="-3.0824700" lon="37.3687000">
    <ele>5344.1</ele>
    <time>2026-06-23T06:05:41Z</time>
   </trkpt>
   <trkpt lat="-3.0824780" lon="37.3687050">
    <ele>5343.7</ele>
    <time>2026-06-23T06:05:42Z</time>
   </trkpt>
   <trkpt lat="-3.0824830" lon="37.3687100">
    <ele>5343.5</ele>
    <time>2026-06-23T06:05:43Z</time>
   </trkpt>
   <trkpt lat="-3.0824850" lon="37.3687140">
    <ele>5343.3</ele>
    <time>2026-06-23T06:05:44Z</time>
   </trkpt>
   <trkpt lat="-3.0824870" lon="37.3687180">
    <ele>5343.1</ele>
    <time>2026-06-23T06:05:45Z</time>
   </trkpt>
   <trkpt lat="-3.0824860" lon="37.3687210">
    <ele>5343.0</ele>
    <time>2026-06-23T06:05:46Z</time>
   </trkpt>
   <trkpt lat="-3.0824850" lon="37.3687230">
    <ele>5342.9</ele>
    <time>2026-06-23T06:05:47Z</time>
   </trkpt>
   <trkpt lat="-3.0824820" lon="37.3687270">
    <ele>5342.7</ele>
    <time>2026-06-23T06:05:48Z</time>
   </trkpt>
   <trkpt lat="-3.0824770" lon="37.3687280">
    <ele>5342.5</ele>
    <time>2026-06-23T06:05:49Z</time>
   </trkpt>
   <trkpt lat="-3.0824690" lon="37.3687290">
    <ele>5342.2</ele>
    <time>2026-06-23T06:05:50Z</time>
   </trkpt>
   <trkpt lat="-3.0824590" lon="37.3687320">
    <ele>5341.8</ele>
    <time>2026-06-23T06:05:51Z</time>
   </trkpt>
   <trkpt lat="-3.0824540" lon="37.3687300">
    <ele>5341.6</ele>
    <time>2026-06-23T06:05:52Z</time>
   </trkpt>
   <trkpt lat="-3.0824540" lon="37.3687280">
    <ele>5341.6</ele>
    <time>2026-06-23T06:05:53Z</time>
   </trkpt>
   <trkpt lat="-3.0824530" lon="37.3687310">
    <ele>5341.5</ele>
    <time>2026-06-23T06:05:54Z</time>
   </trkpt>
   <trkpt lat="-3.0824520" lon="37.3687310">
    <ele>5341.4</ele>
    <time>2026-06-23T06:05:55Z</time>
   </trkpt>
   <trkpt lat="-3.0824440" lon="37.3687400">
    <ele>5341.0</ele>
    <time>2026-06-23T06:05:56Z</time>
   </trkpt>
   <trkpt lat="-3.0824560" lon="37.3687410">
    <ele>5340.5</ele>
    <time>2026-06-23T06:05:57Z</time>
   </trkpt>
   <trkpt lat="-3.0824550" lon="37.3687390">
    <ele>5340.4</ele>
    <time>2026-06-23T06:05:58Z</time>
   </trkpt>
   <trkpt lat="-3.0824570" lon="37.3687390">
    <ele>5340.4</ele>
    <time>2026-06-23T06:05:59Z</time>
   </trkpt>
   <trkpt lat="-3.0824600" lon="37.3687400">
    <ele>5340.2</ele>
    <time>2026-06-23T06:06:00Z</time>
   </trkpt>
   <trkpt lat="-3.0824630" lon="37.3687450">
    <ele>5340.0</ele>
    <time>2026-06-23T06:06:01Z</time>
   </trkpt>
   <trkpt lat="-3.0824630" lon="37.3687440">
    <ele>5340.0</ele>
    <time>2026-06-23T06:06:02Z</time>
   </trkpt>
   <trkpt lat="-3.0824680" lon="37.3687500">
    <ele>5339.7</ele>
    <time>2026-06-23T06:06:03Z</time>
   </trkpt>
   <trkpt lat="-3.0824720" lon="37.3687510">
    <ele>5339.5</ele>
    <time>2026-06-23T06:06:04Z</time>
   </trkpt>
   <trkpt lat="-3.0824750" lon="37.3687530">
    <ele>5339.4</ele>
    <time>2026-06-23T06:06:05Z</time>
   </trkpt>
   <trkpt lat="-3.0824740" lon="37.3687530">
    <ele>5339.4</ele>
    <time>2026-06-23T06:06:06Z</time>
   </trkpt>
   <trkpt lat="-3.0824740" lon="37.3687580">
    <ele>5339.2</ele>
    <time>2026-06-23T06:06:07Z</time>
   </trkpt>
   <trkpt lat="-3.0824740" lon="37.3687590">
    <ele>5339.1</ele>
    <time>2026-06-23T06:06:08Z</time>
   </trkpt>
   <trkpt lat="-3.0824710" lon="37.3687640">
    <ele>5338.9</ele>
    <time>2026-06-23T06:06:09Z</time>
   </trkpt>
   <trkpt lat="-3.0824730" lon="37.3687680">
    <ele>5338.8</ele>
    <time>2026-06-23T06:06:10Z</time>
   </trkpt>
   <trkpt lat="-3.0824740" lon="37.3687680">
    <ele>5338.7</ele>
    <time>2026-06-23T06:06:11Z</time>
   </trkpt>
   <trkpt lat="-3.0824760" lon="37.3687770">
    <ele>5338.4</ele>
    <time>2026-06-23T06:06:12Z</time>
   </trkpt>
   <trkpt lat="-3.0824810" lon="37.3687830">
    <ele>5338.1</ele>
    <time>2026-06-23T06:06:13Z</time>
   </trkpt>
   <trkpt lat="-3.0824840" lon="37.3687930">
    <ele>5337.7</ele>
    <time>2026-06-23T06:06:14Z</time>
   </trkpt>
   <trkpt lat="-3.0824850" lon="37.3687970">
    <ele>5337.5</ele>
    <time>2026-06-23T06:06:15Z</time>
   </trkpt>
   <trkpt lat="-3.0824890" lon="37.3688040">
    <ele>5337.2</ele>
    <time>2026-06-23T06:06:16Z</time>
   </trkpt>
   <trkpt lat="-3.0824980" lon="37.3688130">
    <ele>5336.8</ele>
    <time>2026-06-23T06:06:17Z</time>
   </trkpt>
   <trkpt lat="-3.0825070" lon="37.3688150">
    <ele>5336.4</ele>
    <time>2026-06-23T06:06:18Z</time>
   </trkpt>
   <trkpt lat="-3.0825170" lon="37.3688210">
    <ele>5336.0</ele>
    <time>2026-06-23T06:06:19Z</time>
   </trkpt>
   <trkpt lat="-3.0825210" lon="37.3688240">
    <ele>5335.8</ele>
    <time>2026-06-23T06:06:20Z</time>
   </trkpt>
   <trkpt lat="-3.0825210" lon="37.3688280">
    <ele>5335.6</ele>
    <time>2026-06-23T06:06:21Z</time>
   </trkpt>
   <trkpt lat="-3.0825190" lon="37.3688370">
    <ele>5335.3</ele>
    <time>2026-06-23T06:06:22Z</time>
   </trkpt>
   <trkpt lat="-3.0825130" lon="37.3688540">
    <ele>5334.6</ele>
    <time>2026-06-23T06:06:23Z</time>
   </trkpt>
   <trkpt lat="-3.0825100" lon="37.3688700">
    <ele>5334.0</ele>
    <time>2026-06-23T06:06:24Z</time>
   </trkpt>
   <trkpt lat="-3.0825140" lon="37.3688800">
    <ele>5333.6</ele>
    <time>2026-06-23T06:06:25Z</time>
   </trkpt>
   <trkpt lat="-3.0825200" lon="37.3688960">
    <ele>5333.0</ele>
    <time>2026-06-23T06:06:26Z</time>
   </trkpt>
   <trkpt lat="-3.0825280" lon="37.3689070">
    <ele>5332.5</ele>
    <time>2026-06-23T06:06:27Z</time>
   </trkpt>
   <trkpt lat="-3.0825390" lon="37.3689100">
    <ele>5332.0</ele>
    <time>2026-06-23T06:06:28Z</time>
   </trkpt>
   <trkpt lat="-3.0825540" lon="37.3689090">
    <ele>5331.5</ele>
    <time>2026-06-23T06:06:29Z</time>
   </trkpt>
   <trkpt lat="-3.0825670" lon="37.3689040">
    <ele>5331.0</ele>
    <time>2026-06-23T06:06:30Z</time>
   </trkpt>
   <trkpt lat="-3.0825740" lon="37.3688990">
    <ele>5330.6</ele>
    <time>2026-06-23T06:06:31Z</time>
   </trkpt>
   <trkpt lat="-3.0825850" lon="37.3688930">
    <ele>5330.2</ele>
    <time>2026-06-23T06:06:32Z</time>
   </trkpt>
   <trkpt lat="-3.0825960" lon="37.3688900">
    <ele>5329.7</ele>
    <time>2026-06-23T06:06:33Z</time>
   </trkpt>
   <trkpt lat="-3.0826040" lon="37.3688830">
    <ele>5329.3</ele>
    <time>2026-06-23T06:06:34Z</time>
   </trkpt>
   <trkpt lat="-3.0826120" lon="37.3688790">
    <ele>5329.0</ele>
    <time>2026-06-23T06:06:35Z</time>
   </trkpt>
   <trkpt lat="-3.0826230" lon="37.3688830">
    <ele>5328.6</ele>
    <time>2026-06-23T06:06:36Z</time>
   </trkpt>
   <trkpt lat="-3.0826350" lon="37.3688890">
    <ele>5328.1</ele>
    <time>2026-06-23T06:06:37Z</time>
   </trkpt>
   <trkpt lat="-3.0826450" lon="37.3688960">
    <ele>5327.7</ele>
    <time>2026-06-23T06:06:38Z</time>
   </trkpt>
   <trkpt lat="-3.0826560" lon="37.3688950">
    <ele>5327.3</ele>
    <time>2026-06-23T06:06:39Z</time>
   </trkpt>
   <trkpt lat="-3.0826650" lon="37.3688990">
    <ele>5326.9</ele>
    <time>2026-06-23T06:06:40Z</time>
   </trkpt>
   <trkpt lat="-3.0826700" lon="37.3689070">
    <ele>5326.6</ele>
    <time>2026-06-23T06:06:41Z</time>
   </trkpt>
   <trkpt lat="-3.0826750" lon="37.3689070">
    <ele>5326.4</ele>
    <time>2026-06-23T06:06:42Z</time>
   </trkpt>
   <trkpt lat="-3.0826890" lon="37.3689010">
    <ele>5325.8</ele>
    <time>2026-06-23T06:06:43Z</time>
   </trkpt>
   <trkpt lat="-3.0826980" lon="37.3688930">
    <ele>5325.4</ele>
    <time>2026-06-23T06:06:44Z</time>
   </trkpt>
   <trkpt lat="-3.0827010" lon="37.3688870">
    <ele>5325.1</ele>
    <time>2026-06-23T06:06:45Z</time>
   </trkpt>
   <trkpt lat="-3.0827010" lon="37.3688840">
    <ele>5325.0</ele>
    <time>2026-06-23T06:06:46Z</time>
   </trkpt>
   <trkpt lat="-3.0827100" lon="37.3688810">
    <ele>5324.7</ele>
    <time>2026-06-23T06:06:47Z</time>
   </trkpt>
   <trkpt lat="-3.0827130" lon="37.3688880">
    <ele>5324.4</ele>
    <time>2026-06-23T06:06:48Z</time>
   </trkpt>
   <trkpt lat="-3.0827270" lon="37.3688980">
    <ele>5323.8</ele>
    <time>2026-06-23T06:06:49Z</time>
   </trkpt>
   <trkpt lat="-3.0827390" lon="37.3689070">
    <ele>5323.2</ele>
    <time>2026-06-23T06:06:50Z</time>
   </trkpt>
   <trkpt lat="-3.0827480" lon="37.3689090">
    <ele>5322.9</ele>
    <time>2026-06-23T06:06:51Z</time>
   </trkpt>
   <trkpt lat="-3.0827600" lon="37.3689190">
    <ele>5322.3</ele>
    <time>2026-06-23T06:06:52Z</time>
   </trkpt>
   <trkpt lat="-3.0827560" lon="37.3689290">
    <ele>5321.9</ele>
    <time>2026-06-23T06:06:53Z</time>
   </trkpt>
   <trkpt lat="-3.0827520" lon="37.3689440">
    <ele>5321.4</ele>
    <time>2026-06-23T06:06:54Z</time>
   </trkpt>
   <trkpt lat="-3.0827490" lon="37.3689540">
    <ele>5321.0</ele>
    <time>2026-06-23T06:06:55Z</time>
   </trkpt>
   <trkpt lat="-3.0827550" lon="37.3689640">
    <ele>5320.6</ele>
    <time>2026-06-23T06:06:56Z</time>
   </trkpt>
   <trkpt lat="-3.0827590" lon="37.3689790">
    <ele>5320.0</ele>
    <time>2026-06-23T06:06:57Z</time>
   </trkpt>
   <trkpt lat="-3.0827530" lon="37.3689940">
    <ele>5319.4</ele>
    <time>2026-06-23T06:06:58Z</time>
   </trkpt>
   <trkpt lat="-3.0827490" lon="37.3690060">
    <ele>5319.0</ele>
    <time>2026-06-23T06:06:59Z</time>
   </trkpt>
   <trkpt lat="-3.0827530" lon="37.3690180">
    <ele>5318.5</ele>
    <time>2026-06-23T06:07:00Z</time>
   </trkpt>
   <trkpt lat="-3.0827650" lon="37.3690230">
    <ele>5318.0</ele>
    <time>2026-06-23T06:07:01Z</time>
   </trkpt>
   <trkpt lat="-3.0827790" lon="37.3690170">
    <ele>5317.5</ele>
    <time>2026-06-23T06:07:02Z</time>
   </trkpt>
   <trkpt lat="-3.0827880" lon="37.3690110">
    <ele>5317.1</ele>
    <time>2026-06-23T06:07:03Z</time>
   </trkpt>
   <trkpt lat="-3.0827900" lon="37.3690160">
    <ele>5316.9</ele>
    <time>2026-06-23T06:07:04Z</time>
   </trkpt>
   <trkpt lat="-3.0827830" lon="37.3690260">
    <ele>5316.5</ele>
    <time>2026-06-23T06:07:05Z</time>
   </trkpt>
   <trkpt lat="-3.0827750" lon="37.3690350">
    <ele>5316.0</ele>
    <time>2026-06-23T06:07:06Z</time>
   </trkpt>
   <trkpt lat="-3.0827700" lon="37.3690450">
    <ele>5315.6</ele>
    <time>2026-06-23T06:07:07Z</time>
   </trkpt>
   <trkpt lat="-3.0827730" lon="37.3690510">
    <ele>5315.4</ele>
    <time>2026-06-23T06:07:08Z</time>
   </trkpt>
   <trkpt lat="-3.0827770" lon="37.3690600">
    <ele>5315.0</ele>
    <time>2026-06-23T06:07:09Z</time>
   </trkpt>
   <trkpt lat="-3.0827720" lon="37.3690730">
    <ele>5314.5</ele>
    <time>2026-06-23T06:07:10Z</time>
   </trkpt>
   <trkpt lat="-3.0827660" lon="37.3691090">
    <ele>5313.2</ele>
    <time>2026-06-23T06:07:12Z</time>
   </trkpt>
   <trkpt lat="-3.0827640" lon="37.3691260">
    <ele>5312.6</ele>
    <time>2026-06-23T06:07:13Z</time>
   </trkpt>
   <trkpt lat="-3.0827620" lon="37.3691520">
    <ele>5311.6</ele>
    <time>2026-06-23T06:07:15Z</time>
   </trkpt>
   <trkpt lat="-3.0827590" lon="37.3691650">
    <ele>5311.1</ele>
    <time>2026-06-23T06:07:17Z</time>
   </trkpt>
   <trkpt lat="-3.0827670" lon="37.3691920">
    <ele>5310.1</ele>
    <time>2026-06-23T06:07:18Z</time>
   </trkpt>
   <trkpt lat="-3.0827720" lon="37.3692020">
    <ele>5309.7</ele>
    <time>2026-06-23T06:07:20Z</time>
   </trkpt>
   <trkpt lat="-3.0827960" lon="37.3692190">
    <ele>5308.7</ele>
    <time>2026-06-23T06:07:21Z</time>
   </trkpt>
   <trkpt lat="-3.0828080" lon="37.3692250">
    <ele>5308.2</ele>
    <time>2026-06-23T06:07:22Z</time>
   </trkpt>
   <trkpt lat="-3.0828380" lon="37.3692290">
    <ele>5307.1</ele>
    <time>2026-06-23T06:07:24Z</time>
   </trkpt>
   <trkpt lat="-3.0828510" lon="37.3692310">
    <ele>5306.6</ele>
    <time>2026-06-23T06:07:25Z</time>
   </trkpt>
   <trkpt lat="-3.0828640" lon="37.3692380">
    <ele>5306.1</ele>
    <time>2026-06-23T06:07:26Z</time>
   </trkpt>
   <trkpt lat="-3.0828780" lon="37.3692370">
    <ele>5305.5</ele>
    <time>2026-06-23T06:07:27Z</time>
   </trkpt>
   <trkpt lat="-3.0828910" lon="37.3692380">
    <ele>5305.0</ele>
    <time>2026-06-23T06:07:28Z</time>
   </trkpt>
   <trkpt lat="-3.0829020" lon="37.3692480">
    <ele>5304.5</ele>
    <time>2026-06-23T06:07:29Z</time>
   </trkpt>
   <trkpt lat="-3.0829140" lon="37.3692560">
    <ele>5303.9</ele>
    <time>2026-06-23T06:07:30Z</time>
   </trkpt>
   <trkpt lat="-3.0829260" lon="37.3692620">
    <ele>5303.4</ele>
    <time>2026-06-23T06:07:31Z</time>
   </trkpt>
   <trkpt lat="-3.0829360" lon="37.3692660">
    <ele>5303.0</ele>
    <time>2026-06-23T06:07:32Z</time>
   </trkpt>
   <trkpt lat="-3.0829460" lon="37.3692720">
    <ele>5302.6</ele>
    <time>2026-06-23T06:07:33Z</time>
   </trkpt>
   <trkpt lat="-3.0829570" lon="37.3692830">
    <ele>5302.0</ele>
    <time>2026-06-23T06:07:34Z</time>
   </trkpt>
   <trkpt lat="-3.0829610" lon="37.3692920">
    <ele>5301.6</ele>
    <time>2026-06-23T06:07:35Z</time>
   </trkpt>
   <trkpt lat="-3.0829680" lon="37.3693030">
    <ele>5301.1</ele>
    <time>2026-06-23T06:07:36Z</time>
   </trkpt>
   <trkpt lat="-3.0829760" lon="37.3693120">
    <ele>5300.7</ele>
    <time>2026-06-23T06:07:37Z</time>
   </trkpt>
   <trkpt lat="-3.0829870" lon="37.3693200">
    <ele>5300.2</ele>
    <time>2026-06-23T06:07:38Z</time>
   </trkpt>
   <trkpt lat="-3.0829940" lon="37.3693290">
    <ele>5299.8</ele>
    <time>2026-06-23T06:07:39Z</time>
   </trkpt>
   <trkpt lat="-3.0829980" lon="37.3693380">
    <ele>5299.4</ele>
    <time>2026-06-23T06:07:40Z</time>
   </trkpt>
   <trkpt lat="-3.0830020" lon="37.3693490">
    <ele>5298.9</ele>
    <time>2026-06-23T06:07:41Z</time>
   </trkpt>
   <trkpt lat="-3.0830110" lon="37.3693590">
    <ele>5298.4</ele>
    <time>2026-06-23T06:07:42Z</time>
   </trkpt>
   <trkpt lat="-3.0830190" lon="37.3693660">
    <ele>5298.0</ele>
    <time>2026-06-23T06:07:43Z</time>
   </trkpt>
   <trkpt lat="-3.0830250" lon="37.3693770">
    <ele>5297.5</ele>
    <time>2026-06-23T06:07:44Z</time>
   </trkpt>
   <trkpt lat="-3.0830280" lon="37.3693880">
    <ele>5297.1</ele>
    <time>2026-06-23T06:07:45Z</time>
   </trkpt>
   <trkpt lat="-3.0830330" lon="37.3693970">
    <ele>5296.7</ele>
    <time>2026-06-23T06:07:46Z</time>
   </trkpt>
   <trkpt lat="-3.0830370" lon="37.3694070">
    <ele>5296.2</ele>
    <time>2026-06-23T06:07:47Z</time>
   </trkpt>
   <trkpt lat="-3.0830420" lon="37.3694190">
    <ele>5295.7</ele>
    <time>2026-06-23T06:07:48Z</time>
   </trkpt>
   <trkpt lat="-3.0830450" lon="37.3694260">
    <ele>5295.4</ele>
    <time>2026-06-23T06:07:49Z</time>
   </trkpt>
   <trkpt lat="-3.0830480" lon="37.3694380">
    <ele>5294.9</ele>
    <time>2026-06-23T06:07:50Z</time>
   </trkpt>
   <trkpt lat="-3.0830470" lon="37.3694500">
    <ele>5294.4</ele>
    <time>2026-06-23T06:07:51Z</time>
   </trkpt>
   <trkpt lat="-3.0830510" lon="37.3694630">
    <ele>5293.9</ele>
    <time>2026-06-23T06:07:52Z</time>
   </trkpt>
   <trkpt lat="-3.0830620" lon="37.3694760">
    <ele>5293.2</ele>
    <time>2026-06-23T06:07:53Z</time>
   </trkpt>
   <trkpt lat="-3.0830710" lon="37.3694790">
    <ele>5292.8</ele>
    <time>2026-06-23T06:07:54Z</time>
   </trkpt>
   <trkpt lat="-3.0830760" lon="37.3694840">
    <ele>5292.5</ele>
    <time>2026-06-23T06:07:55Z</time>
   </trkpt>
   <trkpt lat="-3.0830800" lon="37.3694940">
    <ele>5292.1</ele>
    <time>2026-06-23T06:07:56Z</time>
   </trkpt>
   <trkpt lat="-3.0830860" lon="37.3695040">
    <ele>5291.6</ele>
    <time>2026-06-23T06:07:57Z</time>
   </trkpt>
   <trkpt lat="-3.0830960" lon="37.3695060">
    <ele>5291.1</ele>
    <time>2026-06-23T06:07:58Z</time>
   </trkpt>
   <trkpt lat="-3.0831050" lon="37.3695060">
    <ele>5290.8</ele>
    <time>2026-06-23T06:07:59Z</time>
   </trkpt>
   <trkpt lat="-3.0831140" lon="37.3695060">
    <ele>5290.4</ele>
    <time>2026-06-23T06:08:00Z</time>
   </trkpt>
   <trkpt lat="-3.0831190" lon="37.3695150">
    <ele>5290.0</ele>
    <time>2026-06-23T06:08:01Z</time>
   </trkpt>
   <trkpt lat="-3.0831280" lon="37.3695280">
    <ele>5289.3</ele>
    <time>2026-06-23T06:08:02Z</time>
   </trkpt>
   <trkpt lat="-3.0831330" lon="37.3695420">
    <ele>5288.7</ele>
    <time>2026-06-23T06:08:03Z</time>
   </trkpt>
   <trkpt lat="-3.0831370" lon="37.3695550">
    <ele>5288.1</ele>
    <time>2026-06-23T06:08:04Z</time>
   </trkpt>
   <trkpt lat="-3.0831420" lon="37.3695630">
    <ele>5287.7</ele>
    <time>2026-06-23T06:08:05Z</time>
   </trkpt>
   <trkpt lat="-3.0831500" lon="37.3695700">
    <ele>5287.3</ele>
    <time>2026-06-23T06:08:06Z</time>
   </trkpt>
   <trkpt lat="-3.0831590" lon="37.3695760">
    <ele>5286.8</ele>
    <time>2026-06-23T06:08:07Z</time>
   </trkpt>
   <trkpt lat="-3.0831660" lon="37.3695840">
    <ele>5286.3</ele>
    <time>2026-06-23T06:08:08Z</time>
   </trkpt>
   <trkpt lat="-3.0831690" lon="37.3695920">
    <ele>5286.0</ele>
    <time>2026-06-23T06:08:09Z</time>
   </trkpt>
   <trkpt lat="-3.0831780" lon="37.3695950">
    <ele>5285.5</ele>
    <time>2026-06-23T06:08:10Z</time>
   </trkpt>
   <trkpt lat="-3.0831910" lon="37.3695950">
    <ele>5285.0</ele>
    <time>2026-06-23T06:08:11Z</time>
   </trkpt>
   <trkpt lat="-3.0832030" lon="37.3695930">
    <ele>5284.4</ele>
    <time>2026-06-23T06:08:12Z</time>
   </trkpt>
   <trkpt lat="-3.0832150" lon="37.3695920">
    <ele>5283.9</ele>
    <time>2026-06-23T06:08:13Z</time>
   </trkpt>
   <trkpt lat="-3.0832220" lon="37.3695860">
    <ele>5283.5</ele>
    <time>2026-06-23T06:08:14Z</time>
   </trkpt>
   <trkpt lat="-3.0832270" lon="37.3695800">
    <ele>5283.2</ele>
    <time>2026-06-23T06:08:15Z</time>
   </trkpt>
   <trkpt lat="-3.0832340" lon="37.3695790">
    <ele>5282.9</ele>
    <time>2026-06-23T06:08:16Z</time>
   </trkpt>
   <trkpt lat="-3.0832380" lon="37.3695820">
    <ele>5282.6</ele>
    <time>2026-06-23T06:08:17Z</time>
   </trkpt>
   <trkpt lat="-3.0832460" lon="37.3695870">
    <ele>5282.2</ele>
    <time>2026-06-23T06:08:18Z</time>
   </trkpt>
   <trkpt lat="-3.0832530" lon="37.3695990">
    <ele>5281.6</ele>
    <time>2026-06-23T06:08:19Z</time>
   </trkpt>
   <trkpt lat="-3.0832570" lon="37.3696070">
    <ele>5281.2</ele>
    <time>2026-06-23T06:08:20Z</time>
   </trkpt>
   <trkpt lat="-3.0832630" lon="37.3696140">
    <ele>5280.8</ele>
    <time>2026-06-23T06:08:21Z</time>
   </trkpt>
   <trkpt lat="-3.0832670" lon="37.3696160">
    <ele>5280.6</ele>
    <time>2026-06-23T06:08:22Z</time>
   </trkpt>
   <trkpt lat="-3.0832720" lon="37.3696120">
    <ele>5280.3</ele>
    <time>2026-06-23T06:08:23Z</time>
   </trkpt>
   <trkpt lat="-3.0832790" lon="37.3696080">
    <ele>5279.9</ele>
    <time>2026-06-23T06:08:24Z</time>
   </trkpt>
   <trkpt lat="-3.0832860" lon="37.3696020">
    <ele>5279.5</ele>
    <time>2026-06-23T06:08:25Z</time>
   </trkpt>
   <trkpt lat="-3.0832920" lon="37.3696030">
    <ele>5279.2</ele>
    <time>2026-06-23T06:08:26Z</time>
   </trkpt>
   <trkpt lat="-3.0833000" lon="37.3696070">
    <ele>5278.8</ele>
    <time>2026-06-23T06:08:27Z</time>
   </trkpt>
   <trkpt lat="-3.0833100" lon="37.3696070">
    <ele>5278.3</ele>
    <time>2026-06-23T06:08:28Z</time>
   </trkpt>
   <trkpt lat="-3.0833200" lon="37.3696110">
    <ele>5277.8</ele>
    <time>2026-06-23T06:08:29Z</time>
   </trkpt>
   <trkpt lat="-3.0833290" lon="37.3696090">
    <ele>5277.4</ele>
    <time>2026-06-23T06:08:30Z</time>
   </trkpt>
   <trkpt lat="-3.0833360" lon="37.3696070">
    <ele>5277.1</ele>
    <time>2026-06-23T06:08:31Z</time>
   </trkpt>
   <trkpt lat="-3.0833410" lon="37.3696070">
    <ele>5276.8</ele>
    <time>2026-06-23T06:08:32Z</time>
   </trkpt>
   <trkpt lat="-3.0833470" lon="37.3696100">
    <ele>5276.5</ele>
    <time>2026-06-23T06:08:33Z</time>
   </trkpt>
   <trkpt lat="-3.0833560" lon="37.3696150">
    <ele>5276.1</ele>
    <time>2026-06-23T06:08:34Z</time>
   </trkpt>
   <trkpt lat="-3.0833590" lon="37.3696220">
    <ele>5275.7</ele>
    <time>2026-06-23T06:08:35Z</time>
   </trkpt>
   <trkpt lat="-3.0833640" lon="37.3696300">
    <ele>5275.3</ele>
    <time>2026-06-23T06:08:36Z</time>
   </trkpt>
   <trkpt lat="-3.0833670" lon="37.3696370">
    <ele>5274.9</ele>
    <time>2026-06-23T06:08:37Z</time>
   </trkpt>
   <trkpt lat="-3.0833710" lon="37.3696430">
    <ele>5274.6</ele>
    <time>2026-06-23T06:08:38Z</time>
   </trkpt>
   <trkpt lat="-3.0833730" lon="37.3696500">
    <ele>5274.3</ele>
    <time>2026-06-23T06:08:39Z</time>
   </trkpt>
   <trkpt lat="-3.0833830" lon="37.3696550">
    <ele>5273.7</ele>
    <time>2026-06-23T06:08:40Z</time>
   </trkpt>
   <trkpt lat="-3.0833920" lon="37.3696580">
    <ele>5273.3</ele>
    <time>2026-06-23T06:08:41Z</time>
   </trkpt>
   <trkpt lat="-3.0834040" lon="37.3696550">
    <ele>5272.7</ele>
    <time>2026-06-23T06:08:42Z</time>
   </trkpt>
   <trkpt lat="-3.0834160" lon="37.3696570">
    <ele>5272.1</ele>
    <time>2026-06-23T06:08:43Z</time>
   </trkpt>
   <trkpt lat="-3.0834250" lon="37.3696610">
    <ele>5271.7</ele>
    <time>2026-06-23T06:08:44Z</time>
   </trkpt>
   <trkpt lat="-3.0834340" lon="37.3696640">
    <ele>5271.2</ele>
    <time>2026-06-23T06:08:45Z</time>
   </trkpt>
   <trkpt lat="-3.0834410" lon="37.3696650">
    <ele>5270.9</ele>
    <time>2026-06-23T06:08:46Z</time>
   </trkpt>
   <trkpt lat="-3.0834540" lon="37.3696690">
    <ele>5270.3</ele>
    <time>2026-06-23T06:08:47Z</time>
   </trkpt>
   <trkpt lat="-3.0834650" lon="37.3696720">
    <ele>5269.7</ele>
    <time>2026-06-23T06:08:48Z</time>
   </trkpt>
   <trkpt lat="-3.0834800" lon="37.3696760">
    <ele>5269.0</ele>
    <time>2026-06-23T06:08:49Z</time>
   </trkpt>
   <trkpt lat="-3.0834890" lon="37.3696830">
    <ele>5268.4</ele>
    <time>2026-06-23T06:08:50Z</time>
   </trkpt>
   <trkpt lat="-3.0835010" lon="37.3696900">
    <ele>5267.8</ele>
    <time>2026-06-23T06:08:51Z</time>
   </trkpt>
   <trkpt lat="-3.0835100" lon="37.3696960">
    <ele>5267.3</ele>
    <time>2026-06-23T06:08:52Z</time>
   </trkpt>
   <trkpt lat="-3.0835190" lon="37.3697030">
    <ele>5266.7</ele>
    <time>2026-06-23T06:08:53Z</time>
   </trkpt>
   <trkpt lat="-3.0835280" lon="37.3697110">
    <ele>5266.2</ele>
    <time>2026-06-23T06:08:54Z</time>
   </trkpt>
   <trkpt lat="-3.0835360" lon="37.3697200">
    <ele>5265.6</ele>
    <time>2026-06-23T06:08:55Z</time>
   </trkpt>
   <trkpt lat="-3.0835440" lon="37.3697270">
    <ele>5265.1</ele>
    <time>2026-06-23T06:08:56Z</time>
   </trkpt>
   <trkpt lat="-3.0835510" lon="37.3697370">
    <ele>5264.5</ele>
    <time>2026-06-23T06:08:57Z</time>
   </trkpt>
   <trkpt lat="-3.0835580" lon="37.3697460">
    <ele>5264.0</ele>
    <time>2026-06-23T06:08:58Z</time>
   </trkpt>
   <trkpt lat="-3.0835680" lon="37.3697540">
    <ele>5263.4</ele>
    <time>2026-06-23T06:08:59Z</time>
   </trkpt>
   <trkpt lat="-3.0835800" lon="37.3697570">
    <ele>5262.8</ele>
    <time>2026-06-23T06:09:00Z</time>
   </trkpt>
   <trkpt lat="-3.0835910" lon="37.3697600">
    <ele>5262.3</ele>
    <time>2026-06-23T06:09:01Z</time>
   </trkpt>
   <trkpt lat="-3.0836010" lon="37.3697680">
    <ele>5261.7</ele>
    <time>2026-06-23T06:09:02Z</time>
   </trkpt>
   <trkpt lat="-3.0836120" lon="37.3697750">
    <ele>5261.0</ele>
    <time>2026-06-23T06:09:03Z</time>
   </trkpt>
   <trkpt lat="-3.0836200" lon="37.3697810">
    <ele>5260.6</ele>
    <time>2026-06-23T06:09:04Z</time>
   </trkpt>
   <trkpt lat="-3.0836280" lon="37.3697870">
    <ele>5260.1</ele>
    <time>2026-06-23T06:09:05Z</time>
   </trkpt>
   <trkpt lat="-3.0836380" lon="37.3697950">
    <ele>5259.5</ele>
    <time>2026-06-23T06:09:06Z</time>
   </trkpt>
   <trkpt lat="-3.0836480" lon="37.3697980">
    <ele>5259.0</ele>
    <time>2026-06-23T06:09:07Z</time>
   </trkpt>
   <trkpt lat="-3.0836580" lon="37.3698040">
    <ele>5258.4</ele>
    <time>2026-06-23T06:09:08Z</time>
   </trkpt>
   <trkpt lat="-3.0836650" lon="37.3698070">
    <ele>5258.1</ele>
    <time>2026-06-23T06:09:09Z</time>
   </trkpt>
   <trkpt lat="-3.0836750" lon="37.3698120">
    <ele>5257.6</ele>
    <time>2026-06-23T06:09:10Z</time>
   </trkpt>
   <trkpt lat="-3.0836830" lon="37.3698150">
    <ele>5257.2</ele>
    <time>2026-06-23T06:09:11Z</time>
   </trkpt>
   <trkpt lat="-3.0836950" lon="37.3698220">
    <ele>5256.5</ele>
    <time>2026-06-23T06:09:12Z</time>
   </trkpt>
   <trkpt lat="-3.0837060" lon="37.3698290">
    <ele>5255.9</ele>
    <time>2026-06-23T06:09:13Z</time>
   </trkpt>
   <trkpt lat="-3.0837160" lon="37.3698380">
    <ele>5255.2</ele>
    <time>2026-06-23T06:09:14Z</time>
   </trkpt>
   <trkpt lat="-3.0837250" lon="37.3698470">
    <ele>5254.6</ele>
    <time>2026-06-23T06:09:15Z</time>
   </trkpt>
   <trkpt lat="-3.0837370" lon="37.3698560">
    <ele>5253.9</ele>
    <time>2026-06-23T06:09:17Z</time>
   </trkpt>
   <trkpt lat="-3.0837480" lon="37.3698630">
    <ele>5253.3</ele>
    <time>2026-06-23T06:09:18Z</time>
   </trkpt>
   <trkpt lat="-3.0837610" lon="37.3698660">
    <ele>5252.7</ele>
    <time>2026-06-23T06:09:19Z</time>
   </trkpt>
   <trkpt lat="-3.0837730" lon="37.3698710">
    <ele>5252.0</ele>
    <time>2026-06-23T06:09:20Z</time>
   </trkpt>
   <trkpt lat="-3.0837850" lon="37.3698760">
    <ele>5251.4</ele>
    <time>2026-06-23T06:09:21Z</time>
   </trkpt>
   <trkpt lat="-3.0837960" lon="37.3698810">
    <ele>5250.8</ele>
    <time>2026-06-23T06:09:22Z</time>
   </trkpt>
   <trkpt lat="-3.0838080" lon="37.3698900">
    <ele>5250.1</ele>
    <time>2026-06-23T06:09:23Z</time>
   </trkpt>
   <trkpt lat="-3.0838340" lon="37.3699040">
    <ele>5248.7</ele>
    <time>2026-06-23T06:09:24Z</time>
   </trkpt>
   <trkpt lat="-3.0838450" lon="37.3699050">
    <ele>5248.2</ele>
    <time>2026-06-23T06:09:25Z</time>
   </trkpt>
   <trkpt lat="-3.0838570" lon="37.3699130">
    <ele>5247.6</ele>
    <time>2026-06-23T06:09:26Z</time>
   </trkpt>
   <trkpt lat="-3.0838660" lon="37.3699220">
    <ele>5247.0</ele>
    <time>2026-06-23T06:09:27Z</time>
   </trkpt>
   <trkpt lat="-3.0838790" lon="37.3699270">
    <ele>5246.3</ele>
    <time>2026-06-23T06:09:28Z</time>
   </trkpt>
   <trkpt lat="-3.0838940" lon="37.3699290">
    <ele>5245.6</ele>
    <time>2026-06-23T06:09:29Z</time>
   </trkpt>
   <trkpt lat="-3.0839060" lon="37.3699360">
    <ele>5245.0</ele>
    <time>2026-06-23T06:09:30Z</time>
   </trkpt>
   <trkpt lat="-3.0839180" lon="37.3699460">
    <ele>5244.3</ele>
    <time>2026-06-23T06:09:31Z</time>
   </trkpt>
   <trkpt lat="-3.0839300" lon="37.3699500">
    <ele>5243.8</ele>
    <time>2026-06-23T06:09:32Z</time>
   </trkpt>
   <trkpt lat="-3.0839420" lon="37.3699550">
    <ele>5243.2</ele>
    <time>2026-06-23T06:09:33Z</time>
   </trkpt>
   <trkpt lat="-3.0839540" lon="37.3699600">
    <ele>5242.6</ele>
    <time>2026-06-23T06:09:34Z</time>
   </trkpt>
   <trkpt lat="-3.0839660" lon="37.3699670">
    <ele>5242.0</ele>
    <time>2026-06-23T06:09:35Z</time>
   </trkpt>
   <trkpt lat="-3.0839760" lon="37.3699740">
    <ele>5241.5</ele>
    <time>2026-06-23T06:09:36Z</time>
   </trkpt>
   <trkpt lat="-3.0839890" lon="37.3699800">
    <ele>5240.9</ele>
    <time>2026-06-23T06:09:37Z</time>
   </trkpt>
   <trkpt lat="-3.0840010" lon="37.3699870">
    <ele>5240.3</ele>
    <time>2026-06-23T06:09:38Z</time>
   </trkpt>
   <trkpt lat="-3.0840150" lon="37.3699920">
    <ele>5239.6</ele>
    <time>2026-06-23T06:09:39Z</time>
   </trkpt>
   <trkpt lat="-3.0840250" lon="37.3699960">
    <ele>5239.2</ele>
    <time>2026-06-23T06:09:40Z</time>
   </trkpt>
   <trkpt lat="-3.0840370" lon="37.3700020">
    <ele>5238.6</ele>
    <time>2026-06-23T06:09:41Z</time>
   </trkpt>
   <trkpt lat="-3.0840520" lon="37.3700120">
    <ele>5237.8</ele>
    <time>2026-06-23T06:09:42Z</time>
   </trkpt>
   <trkpt lat="-3.0840610" lon="37.3700200">
    <ele>5237.3</ele>
    <time>2026-06-23T06:09:43Z</time>
   </trkpt>
   <trkpt lat="-3.0840750" lon="37.3700280">
    <ele>5236.6</ele>
    <time>2026-06-23T06:09:44Z</time>
   </trkpt>
   <trkpt lat="-3.0840870" lon="37.3700330">
    <ele>5236.1</ele>
    <time>2026-06-23T06:09:45Z</time>
   </trkpt>
   <trkpt lat="-3.0840970" lon="37.3700390">
    <ele>5235.6</ele>
    <time>2026-06-23T06:09:46Z</time>
   </trkpt>
   <trkpt lat="-3.0841110" lon="37.3700440">
    <ele>5235.0</ele>
    <time>2026-06-23T06:09:47Z</time>
   </trkpt>
   <trkpt lat="-3.0841210" lon="37.3700510">
    <ele>5234.5</ele>
    <time>2026-06-23T06:09:48Z</time>
   </trkpt>
   <trkpt lat="-3.0841330" lon="37.3700560">
    <ele>5233.9</ele>
    <time>2026-06-23T06:09:49Z</time>
   </trkpt>
   <trkpt lat="-3.0841420" lon="37.3700640">
    <ele>5233.4</ele>
    <time>2026-06-23T06:09:50Z</time>
   </trkpt>
   <trkpt lat="-3.0841550" lon="37.3700700">
    <ele>5232.9</ele>
    <time>2026-06-23T06:09:51Z</time>
   </trkpt>
   <trkpt lat="-3.0841640" lon="37.3700780">
    <ele>5232.4</ele>
    <time>2026-06-23T06:09:52Z</time>
   </trkpt>
   <trkpt lat="-3.0841740" lon="37.3700860">
    <ele>5232.0</ele>
    <time>2026-06-23T06:09:53Z</time>
   </trkpt>
   <trkpt lat="-3.0841860" lon="37.3700940">
    <ele>5231.4</ele>
    <time>2026-06-23T06:09:54Z</time>
   </trkpt>
   <trkpt lat="-3.0841950" lon="37.3701010">
    <ele>5231.0</ele>
    <time>2026-06-23T06:09:55Z</time>
   </trkpt>
   <trkpt lat="-3.0842080" lon="37.3701090">
    <ele>5230.5</ele>
    <time>2026-06-23T06:09:56Z</time>
   </trkpt>
   <trkpt lat="-3.0842180" lon="37.3701130">
    <ele>5230.1</ele>
    <time>2026-06-23T06:09:57Z</time>
   </trkpt>
   <trkpt lat="-3.0842300" lon="37.3701190">
    <ele>5229.6</ele>
    <time>2026-06-23T06:09:58Z</time>
   </trkpt>
   <trkpt lat="-3.0842380" lon="37.3701220">
    <ele>5229.3</ele>
    <time>2026-06-23T06:09:59Z</time>
   </trkpt>
   <trkpt lat="-3.0842460" lon="37.3701280">
    <ele>5228.9</ele>
    <time>2026-06-23T06:10:00Z</time>
   </trkpt>
   <trkpt lat="-3.0842540" lon="37.3701330">
    <ele>5228.5</ele>
    <time>2026-06-23T06:10:01Z</time>
   </trkpt>
   <trkpt lat="-3.0842630" lon="37.3701400">
    <ele>5228.1</ele>
    <time>2026-06-23T06:10:02Z</time>
   </trkpt>
   <trkpt lat="-3.0842680" lon="37.3701470">
    <ele>5227.8</ele>
    <time>2026-06-23T06:10:03Z</time>
   </trkpt>
   <trkpt lat="-3.0842760" lon="37.3701510">
    <ele>5227.5</ele>
    <time>2026-06-23T06:10:04Z</time>
   </trkpt>
   <trkpt lat="-3.0842790" lon="37.3701510">
    <ele>5227.4</ele>
    <time>2026-06-23T06:10:05Z</time>
   </trkpt>
   <trkpt lat="-3.0842830" lon="37.3701530">
    <ele>5227.2</ele>
    <time>2026-06-23T06:10:06Z</time>
   </trkpt>
   <trkpt lat="-3.0842910" lon="37.3701610">
    <ele>5226.8</ele>
    <time>2026-06-23T06:10:07Z</time>
   </trkpt>
   <trkpt lat="-3.0842970" lon="37.3701670">
    <ele>5226.4</ele>
    <time>2026-06-23T06:10:08Z</time>
   </trkpt>
   <trkpt lat="-3.0843060" lon="37.3701750">
    <ele>5226.0</ele>
    <time>2026-06-23T06:10:09Z</time>
   </trkpt>
   <trkpt lat="-3.0843130" lon="37.3701800">
    <ele>5225.7</ele>
    <time>2026-06-23T06:10:10Z</time>
   </trkpt>
   <trkpt lat="-3.0843200" lon="37.3701860">
    <ele>5225.3</ele>
    <time>2026-06-23T06:10:11Z</time>
   </trkpt>
   <trkpt lat="-3.0843260" lon="37.3701900">
    <ele>5225.0</ele>
    <time>2026-06-23T06:10:12Z</time>
   </trkpt>
   <trkpt lat="-3.0843320" lon="37.3701920">
    <ele>5224.8</ele>
    <time>2026-06-23T06:10:13Z</time>
   </trkpt>
   <trkpt lat="-3.0843380" lon="37.3701890">
    <ele>5224.5</ele>
    <time>2026-06-23T06:10:14Z</time>
   </trkpt>
   <trkpt lat="-3.0843500" lon="37.3701900">
    <ele>5224.1</ele>
    <time>2026-06-23T06:10:15Z</time>
   </trkpt>
   <trkpt lat="-3.0843570" lon="37.3701900">
    <ele>5223.8</ele>
    <time>2026-06-23T06:10:16Z</time>
   </trkpt>
   <trkpt lat="-3.0843650" lon="37.3701920">
    <ele>5223.5</ele>
    <time>2026-06-23T06:10:17Z</time>
   </trkpt>
   <trkpt lat="-3.0843750" lon="37.3701920">
    <ele>5223.1</ele>
    <time>2026-06-23T06:10:18Z</time>
   </trkpt>
   <trkpt lat="-3.0843840" lon="37.3701910">
    <ele>5222.8</ele>
    <time>2026-06-23T06:10:19Z</time>
   </trkpt>
   <trkpt lat="-3.0843920" lon="37.3701920">
    <ele>5222.5</ele>
    <time>2026-06-23T06:10:20Z</time>
   </trkpt>
   <trkpt lat="-3.0844010" lon="37.3701930">
    <ele>5222.1</ele>
    <time>2026-06-23T06:10:21Z</time>
   </trkpt>
   <trkpt lat="-3.0844110" lon="37.3701970">
    <ele>5221.7</ele>
    <time>2026-06-23T06:10:22Z</time>
   </trkpt>
   <trkpt lat="-3.0844180" lon="37.3701970">
    <ele>5221.5</ele>
    <time>2026-06-23T06:10:23Z</time>
   </trkpt>
   <trkpt lat="-3.0844240" lon="37.3701990">
    <ele>5221.2</ele>
    <time>2026-06-23T06:10:24Z</time>
   </trkpt>
   <trkpt lat="-3.0844330" lon="37.3702010">
    <ele>5220.9</ele>
    <time>2026-06-23T06:10:25Z</time>
   </trkpt>
   <trkpt lat="-3.0844450" lon="37.3702030">
    <ele>5220.4</ele>
    <time>2026-06-23T06:10:26Z</time>
   </trkpt>
   <trkpt lat="-3.0844540" lon="37.3702040">
    <ele>5220.1</ele>
    <time>2026-06-23T06:10:27Z</time>
   </trkpt>
   <trkpt lat="-3.0844650" lon="37.3702060">
    <ele>5219.7</ele>
    <time>2026-06-23T06:10:28Z</time>
   </trkpt>
   <trkpt lat="-3.0844730" lon="37.3702050">
    <ele>5219.4</ele>
    <time>2026-06-23T06:10:29Z</time>
   </trkpt>
   <trkpt lat="-3.0844820" lon="37.3702070">
    <ele>5219.0</ele>
    <time>2026-06-23T06:10:30Z</time>
   </trkpt>
   <trkpt lat="-3.0844930" lon="37.3702100">
    <ele>5218.6</ele>
    <time>2026-06-23T06:10:31Z</time>
   </trkpt>
   <trkpt lat="-3.0845040" lon="37.3702110">
    <ele>5218.2</ele>
    <time>2026-06-23T06:10:32Z</time>
   </trkpt>
   <trkpt lat="-3.0845140" lon="37.3702110">
    <ele>5217.8</ele>
    <time>2026-06-23T06:10:33Z</time>
   </trkpt>
   <trkpt lat="-3.0845210" lon="37.3702160">
    <ele>5217.5</ele>
    <time>2026-06-23T06:10:34Z</time>
   </trkpt>
   <trkpt lat="-3.0845300" lon="37.3702170">
    <ele>5217.2</ele>
    <time>2026-06-23T06:10:35Z</time>
   </trkpt>
   <trkpt lat="-3.0845390" lon="37.3702190">
    <ele>5216.8</ele>
    <time>2026-06-23T06:10:36Z</time>
   </trkpt>
   <trkpt lat="-3.0845470" lon="37.3702210">
    <ele>5216.5</ele>
    <time>2026-06-23T06:10:37Z</time>
   </trkpt>
   <trkpt lat="-3.0845570" lon="37.3702280">
    <ele>5216.1</ele>
    <time>2026-06-23T06:10:38Z</time>
   </trkpt>
   <trkpt lat="-3.0845610" lon="37.3702350">
    <ele>5215.8</ele>
    <time>2026-06-23T06:10:39Z</time>
   </trkpt>
   <trkpt lat="-3.0845690" lon="37.3702400">
    <ele>5215.4</ele>
    <time>2026-06-23T06:10:40Z</time>
   </trkpt>
   <trkpt lat="-3.0845770" lon="37.3702460">
    <ele>5215.1</ele>
    <time>2026-06-23T06:10:41Z</time>
   </trkpt>
   <trkpt lat="-3.0845840" lon="37.3702570">
    <ele>5214.6</ele>
    <time>2026-06-23T06:10:42Z</time>
   </trkpt>
   <trkpt lat="-3.0845860" lon="37.3702690">
    <ele>5214.2</ele>
    <time>2026-06-23T06:10:43Z</time>
   </trkpt>
   <trkpt lat="-3.0845900" lon="37.3702780">
    <ele>5213.8</ele>
    <time>2026-06-23T06:10:44Z</time>
   </trkpt>
   <trkpt lat="-3.0845940" lon="37.3702860">
    <ele>5213.5</ele>
    <time>2026-06-23T06:10:45Z</time>
   </trkpt>
   <trkpt lat="-3.0845990" lon="37.3702980">
    <ele>5213.0</ele>
    <time>2026-06-23T06:10:46Z</time>
   </trkpt>
   <trkpt lat="-3.0846070" lon="37.3703080">
    <ele>5212.6</ele>
    <time>2026-06-23T06:10:47Z</time>
   </trkpt>
   <trkpt lat="-3.0846120" lon="37.3703160">
    <ele>5212.3</ele>
    <time>2026-06-23T06:10:48Z</time>
   </trkpt>
   <trkpt lat="-3.0846170" lon="37.3703210">
    <ele>5212.0</ele>
    <time>2026-06-23T06:10:49Z</time>
   </trkpt>
   <trkpt lat="-3.0846240" lon="37.3703260">
    <ele>5211.7</ele>
    <time>2026-06-23T06:10:50Z</time>
   </trkpt>
   <trkpt lat="-3.0846330" lon="37.3703310">
    <ele>5211.4</ele>
    <time>2026-06-23T06:10:51Z</time>
   </trkpt>
   <trkpt lat="-3.0846420" lon="37.3703350">
    <ele>5211.0</ele>
    <time>2026-06-23T06:10:52Z</time>
   </trkpt>
   <trkpt lat="-3.0846420" lon="37.3703390">
    <ele>5210.9</ele>
    <time>2026-06-23T06:10:53Z</time>
   </trkpt>
   <trkpt lat="-3.0846490" lon="37.3703510">
    <ele>5210.4</ele>
    <time>2026-06-23T06:10:54Z</time>
   </trkpt>
   <trkpt lat="-3.0846540" lon="37.3703610">
    <ele>5210.0</ele>
    <time>2026-06-23T06:10:55Z</time>
   </trkpt>
   <trkpt lat="-3.0846610" lon="37.3703600">
    <ele>5209.8</ele>
    <time>2026-06-23T06:10:56Z</time>
   </trkpt>
   <trkpt lat="-3.0846680" lon="37.3703620">
    <ele>5209.5</ele>
    <time>2026-06-23T06:10:57Z</time>
   </trkpt>
   <trkpt lat="-3.0846740" lon="37.3703650">
    <ele>5209.3</ele>
    <time>2026-06-23T06:10:58Z</time>
   </trkpt>
   <trkpt lat="-3.0846730" lon="37.3703700">
    <ele>5209.1</ele>
    <time>2026-06-23T06:10:59Z</time>
   </trkpt>
   <trkpt lat="-3.0846690" lon="37.3703760">
    <ele>5208.9</ele>
    <time>2026-06-23T06:11:00Z</time>
   </trkpt>
   <trkpt lat="-3.0846650" lon="37.3703840">
    <ele>5208.5</ele>
    <time>2026-06-23T06:11:01Z</time>
   </trkpt>
   <trkpt lat="-3.0846640" lon="37.3703810">
    <ele>5208.4</ele>
    <time>2026-06-23T06:11:02Z</time>
   </trkpt>
   <trkpt lat="-3.0846650" lon="37.3703780">
    <ele>5208.3</ele>
    <time>2026-06-23T06:11:03Z</time>
   </trkpt>
   <trkpt lat="-3.0846640" lon="37.3703790">
    <ele>5208.3</ele>
    <time>2026-06-23T06:11:04Z</time>
   </trkpt>
   <trkpt lat="-3.0846640" lon="37.3703800">
    <ele>5208.2</ele>
    <time>2026-06-23T06:11:05Z</time>
   </trkpt>
   <trkpt lat="-3.0846640" lon="37.3703790">
    <ele>5208.2</ele>
    <time>2026-06-23T06:11:06Z</time>
   </trkpt>
   <trkpt lat="-3.0846630" lon="37.3703800">
    <ele>5208.2</ele>
    <time>2026-06-23T06:11:07Z</time>
   </trkpt>
   <trkpt lat="-3.0846630" lon="37.3703800">
    <ele>5208.2</ele>
    <time>2026-06-23T06:11:08Z</time>
   </trkpt>
   <trkpt lat="-3.0846620" lon="37.3703810">
    <ele>5208.1</ele>
    <time>2026-06-23T06:11:09Z</time>
   </trkpt>
   <trkpt lat="-3.0846630" lon="37.3703830">
    <ele>5208.0</ele>
    <time>2026-06-23T06:11:10Z</time>
   </trkpt>
   <trkpt lat="-3.0846630" lon="37.3703830">
    <ele>5208.0</ele>
    <time>2026-06-23T06:11:11Z</time>
   </trkpt>
   <trkpt lat="-3.0846620" lon="37.3703830">
    <ele>5208.0</ele>
    <time>2026-06-23T06:11:12Z</time>
   </trkpt>
   <trkpt lat="-3.0846610" lon="37.3703830">
    <ele>5208.0</ele>
    <time>2026-06-23T06:11:13Z</time>
   </trkpt>
   <trkpt lat="-3.0846610" lon="37.3703830">
    <ele>5208.0</ele>
    <time>2026-06-23T06:11:14Z</time>
   </trkpt>
   <trkpt lat="-3.0846620" lon="37.3703820">
    <ele>5207.9</ele>
    <time>2026-06-23T06:11:15Z</time>
   </trkpt>
   <trkpt lat="-3.0846610" lon="37.3703820">
    <ele>5207.9</ele>
    <time>2026-06-23T06:11:16Z</time>
   </trkpt>
   <trkpt lat="-3.0846600" lon="37.3703840">
    <ele>5207.8</ele>
    <time>2026-06-23T06:11:17Z</time>
   </trkpt>
   <trkpt lat="-3.0846600" lon="37.3703830">
    <ele>5207.8</ele>
    <time>2026-06-23T06:11:18Z</time>
   </trkpt>
   <trkpt lat="-3.0846580" lon="37.3703850">
    <ele>5207.7</ele>
    <time>2026-06-23T06:11:19Z</time>
   </trkpt>
   <trkpt lat="-3.0846550" lon="37.3703870">
    <ele>5207.5</ele>
    <time>2026-06-23T06:11:20Z</time>
   </trkpt>
   <trkpt lat="-3.0846490" lon="37.3703950">
    <ele>5207.2</ele>
    <time>2026-06-23T06:11:21Z</time>
   </trkpt>
   <trkpt lat="-3.0846440" lon="37.3703970">
    <ele>5207.0</ele>
    <time>2026-06-23T06:11:22Z</time>
   </trkpt>
   <trkpt lat="-3.0846370" lon="37.3704010">
    <ele>5206.7</ele>
    <time>2026-06-23T06:11:23Z</time>
   </trkpt>
   <trkpt lat="-3.0846290" lon="37.3704060">
    <ele>5206.4</ele>
    <time>2026-06-23T06:11:24Z</time>
   </trkpt>
   <trkpt lat="-3.0846270" lon="37.3704150">
    <ele>5206.1</ele>
    <time>2026-06-23T06:11:25Z</time>
   </trkpt>
   <trkpt lat="-3.0846330" lon="37.3704220">
    <ele>5205.8</ele>
    <time>2026-06-23T06:11:26Z</time>
   </trkpt>
   <trkpt lat="-3.0846420" lon="37.3704250">
    <ele>5205.4</ele>
    <time>2026-06-23T06:11:27Z</time>
   </trkpt>
   <trkpt lat="-3.0846550" lon="37.3704280">
    <ele>5205.0</ele>
    <time>2026-06-23T06:11:28Z</time>
   </trkpt>
   <trkpt lat="-3.0846680" lon="37.3704320">
    <ele>5204.5</ele>
    <time>2026-06-23T06:11:29Z</time>
   </trkpt>
   <trkpt lat="-3.0846730" lon="37.3704340">
    <ele>5204.3</ele>
    <time>2026-06-23T06:11:30Z</time>
   </trkpt>
   <trkpt lat="-3.0846750" lon="37.3704280">
    <ele>5204.1</ele>
    <time>2026-06-23T06:11:31Z</time>
   </trkpt>
   <trkpt lat="-3.0846870" lon="37.3704290">
    <ele>5203.7</ele>
    <time>2026-06-23T06:11:32Z</time>
   </trkpt>
   <trkpt lat="-3.0846940" lon="37.3704390">
    <ele>5203.3</ele>
    <time>2026-06-23T06:11:33Z</time>
   </trkpt>
   <trkpt lat="-3.0847060" lon="37.3704490">
    <ele>5202.8</ele>
    <time>2026-06-23T06:11:34Z</time>
   </trkpt>
   <trkpt lat="-3.0847210" lon="37.3704560">
    <ele>5202.3</ele>
    <time>2026-06-23T06:11:35Z</time>
   </trkpt>
   <trkpt lat="-3.0847330" lon="37.3704620">
    <ele>5201.8</ele>
    <time>2026-06-23T06:11:36Z</time>
   </trkpt>
   <trkpt lat="-3.0847460" lon="37.3704700">
    <ele>5201.3</ele>
    <time>2026-06-23T06:11:37Z</time>
   </trkpt>
   <trkpt lat="-3.0847620" lon="37.3704760">
    <ele>5200.8</ele>
    <time>2026-06-23T06:11:38Z</time>
   </trkpt>
   <trkpt lat="-3.0847740" lon="37.3704760">
    <ele>5200.4</ele>
    <time>2026-06-23T06:11:39Z</time>
   </trkpt>
   <trkpt lat="-3.0847840" lon="37.3704820">
    <ele>5200.0</ele>
    <time>2026-06-23T06:11:40Z</time>
   </trkpt>
   <trkpt lat="-3.0847970" lon="37.3704900">
    <ele>5199.6</ele>
    <time>2026-06-23T06:11:41Z</time>
   </trkpt>
   <trkpt lat="-3.0848090" lon="37.3704940">
    <ele>5199.2</ele>
    <time>2026-06-23T06:11:42Z</time>
   </trkpt>
   <trkpt lat="-3.0848220" lon="37.3704930">
    <ele>5198.8</ele>
    <time>2026-06-23T06:11:43Z</time>
   </trkpt>
   <trkpt lat="-3.0848320" lon="37.3704930">
    <ele>5198.5</ele>
    <time>2026-06-23T06:11:44Z</time>
   </trkpt>
   <trkpt lat="-3.0848420" lon="37.3704960">
    <ele>5198.1</ele>
    <time>2026-06-23T06:11:45Z</time>
   </trkpt>
   <trkpt lat="-3.0848560" lon="37.3705020">
    <ele>5197.7</ele>
    <time>2026-06-23T06:11:46Z</time>
   </trkpt>
   <trkpt lat="-3.0848680" lon="37.3705040">
    <ele>5197.3</ele>
    <time>2026-06-23T06:11:47Z</time>
   </trkpt>
   <trkpt lat="-3.0848830" lon="37.3705040">
    <ele>5196.9</ele>
    <time>2026-06-23T06:11:48Z</time>
   </trkpt>
   <trkpt lat="-3.0848980" lon="37.3705050">
    <ele>5196.4</ele>
    <time>2026-06-23T06:11:49Z</time>
   </trkpt>
   <trkpt lat="-3.0849110" lon="37.3705060">
    <ele>5196.0</ele>
    <time>2026-06-23T06:11:50Z</time>
   </trkpt>
   <trkpt lat="-3.0849220" lon="37.3705100">
    <ele>5195.7</ele>
    <time>2026-06-23T06:11:51Z</time>
   </trkpt>
   <trkpt lat="-3.0849380" lon="37.3705120">
    <ele>5195.2</ele>
    <time>2026-06-23T06:11:52Z</time>
   </trkpt>
   <trkpt lat="-3.0849480" lon="37.3705130">
    <ele>5194.9</ele>
    <time>2026-06-23T06:11:53Z</time>
   </trkpt>
   <trkpt lat="-3.0849620" lon="37.3705160">
    <ele>5194.5</ele>
    <time>2026-06-23T06:11:54Z</time>
   </trkpt>
   <trkpt lat="-3.0849750" lon="37.3705180">
    <ele>5194.1</ele>
    <time>2026-06-23T06:11:55Z</time>
   </trkpt>
   <trkpt lat="-3.0849880" lon="37.3705180">
    <ele>5193.7</ele>
    <time>2026-06-23T06:11:56Z</time>
   </trkpt>
   <trkpt lat="-3.0850020" lon="37.3705160">
    <ele>5193.3</ele>
    <time>2026-06-23T06:11:57Z</time>
   </trkpt>
   <trkpt lat="-3.0850140" lon="37.3705140">
    <ele>5192.9</ele>
    <time>2026-06-23T06:11:58Z</time>
   </trkpt>
   <trkpt lat="-3.0850270" lon="37.3705170">
    <ele>5192.5</ele>
    <time>2026-06-23T06:11:59Z</time>
   </trkpt>
   <trkpt lat="-3.0850370" lon="37.3705260">
    <ele>5192.1</ele>
    <time>2026-06-23T06:12:00Z</time>
   </trkpt>
   <trkpt lat="-3.0850450" lon="37.3705350">
    <ele>5191.7</ele>
    <time>2026-06-23T06:12:01Z</time>
   </trkpt>
   <trkpt lat="-3.0850550" lon="37.3705420">
    <ele>5191.4</ele>
    <time>2026-06-23T06:12:02Z</time>
   </trkpt>
   <trkpt lat="-3.0850660" lon="37.3705500">
    <ele>5191.0</ele>
    <time>2026-06-23T06:12:03Z</time>
   </trkpt>
   <trkpt lat="-3.0850780" lon="37.3705470">
    <ele>5190.6</ele>
    <time>2026-06-23T06:12:04Z</time>
   </trkpt>
   <trkpt lat="-3.0850920" lon="37.3705490">
    <ele>5190.2</ele>
    <time>2026-06-23T06:12:05Z</time>
   </trkpt>
   <trkpt lat="-3.0851030" lon="37.3705510">
    <ele>5189.8</ele>
    <time>2026-06-23T06:12:06Z</time>
   </trkpt>
   <trkpt lat="-3.0851140" lon="37.3705550">
    <ele>5189.5</ele>
    <time>2026-06-23T06:12:07Z</time>
   </trkpt>
   <trkpt lat="-3.0851280" lon="37.3705600">
    <ele>5189.0</ele>
    <time>2026-06-23T06:12:08Z</time>
   </trkpt>
   <trkpt lat="-3.0851400" lon="37.3705660">
    <ele>5188.6</ele>
    <time>2026-06-23T06:12:09Z</time>
   </trkpt>
   <trkpt lat="-3.0851520" lon="37.3705720">
    <ele>5188.2</ele>
    <time>2026-06-23T06:12:10Z</time>
   </trkpt>
   <trkpt lat="-3.0851580" lon="37.3705830">
    <ele>5187.9</ele>
    <time>2026-06-23T06:12:11Z</time>
   </trkpt>
   <trkpt lat="-3.0851610" lon="37.3705920">
    <ele>5187.6</ele>
    <time>2026-06-23T06:12:12Z</time>
   </trkpt>
   <trkpt lat="-3.0851670" lon="37.3706010">
    <ele>5187.2</ele>
    <time>2026-06-23T06:12:13Z</time>
   </trkpt>
   <trkpt lat="-3.0851770" lon="37.3706110">
    <ele>5186.8</ele>
    <time>2026-06-23T06:12:14Z</time>
   </trkpt>
   <trkpt lat="-3.0851890" lon="37.3706140">
    <ele>5186.5</ele>
    <time>2026-06-23T06:12:15Z</time>
   </trkpt>
   <trkpt lat="-3.0851980" lon="37.3706190">
    <ele>5186.2</ele>
    <time>2026-06-23T06:12:16Z</time>
   </trkpt>
   <trkpt lat="-3.0852110" lon="37.3706250">
    <ele>5185.8</ele>
    <time>2026-06-23T06:12:17Z</time>
   </trkpt>
   <trkpt lat="-3.0852190" lon="37.3706280">
    <ele>5185.5</ele>
    <time>2026-06-23T06:12:18Z</time>
   </trkpt>
   <trkpt lat="-3.0852270" lon="37.3706310">
    <ele>5185.3</ele>
    <time>2026-06-23T06:12:19Z</time>
   </trkpt>
   <trkpt lat="-3.0852410" lon="37.3706300">
    <ele>5184.9</ele>
    <time>2026-06-23T06:12:20Z</time>
   </trkpt>
   <trkpt lat="-3.0852540" lon="37.3706300">
    <ele>5184.5</ele>
    <time>2026-06-23T06:12:21Z</time>
   </trkpt>
   <trkpt lat="-3.0852660" lon="37.3706350">
    <ele>5184.1</ele>
    <time>2026-06-23T06:12:22Z</time>
   </trkpt>
   <trkpt lat="-3.0852800" lon="37.3706360">
    <ele>5183.7</ele>
    <time>2026-06-23T06:12:23Z</time>
   </trkpt>
   <trkpt lat="-3.0852910" lon="37.3706390">
    <ele>5183.4</ele>
    <time>2026-06-23T06:12:24Z</time>
   </trkpt>
   <trkpt lat="-3.0852990" lon="37.3706390">
    <ele>5183.2</ele>
    <time>2026-06-23T06:12:25Z</time>
   </trkpt>
   <trkpt lat="-3.0853150" lon="37.3706410">
    <ele>5182.8</ele>
    <time>2026-06-23T06:12:26Z</time>
   </trkpt>
   <trkpt lat="-3.0853270" lon="37.3706410">
    <ele>5182.5</ele>
    <time>2026-06-23T06:12:27Z</time>
   </trkpt>
   <trkpt lat="-3.0853420" lon="37.3706440">
    <ele>5182.1</ele>
    <time>2026-06-23T06:12:28Z</time>
   </trkpt>
   <trkpt lat="-3.0853540" lon="37.3706450">
    <ele>5181.7</ele>
    <time>2026-06-23T06:12:29Z</time>
   </trkpt>
   <trkpt lat="-3.0853680" lon="37.3706470">
    <ele>5181.4</ele>
    <time>2026-06-23T06:12:30Z</time>
   </trkpt>
   <trkpt lat="-3.0853830" lon="37.3706510">
    <ele>5181.0</ele>
    <time>2026-06-23T06:12:31Z</time>
   </trkpt>
   <trkpt lat="-3.0853940" lon="37.3706540">
    <ele>5180.7</ele>
    <time>2026-06-23T06:12:32Z</time>
   </trkpt>
   <trkpt lat="-3.0854080" lon="37.3706530">
    <ele>5180.4</ele>
    <time>2026-06-23T06:12:33Z</time>
   </trkpt>
   <trkpt lat="-3.0854250" lon="37.3706530">
    <ele>5180.0</ele>
    <time>2026-06-23T06:12:34Z</time>
   </trkpt>
   <trkpt lat="-3.0854370" lon="37.3706530">
    <ele>5179.7</ele>
    <time>2026-06-23T06:12:35Z</time>
   </trkpt>
   <trkpt lat="-3.0854520" lon="37.3706500">
    <ele>5179.4</ele>
    <time>2026-06-23T06:12:36Z</time>
   </trkpt>
   <trkpt lat="-3.0854660" lon="37.3706480">
    <ele>5179.0</ele>
    <time>2026-06-23T06:12:37Z</time>
   </trkpt>
   <trkpt lat="-3.0854800" lon="37.3706430">
    <ele>5178.7</ele>
    <time>2026-06-23T06:12:38Z</time>
   </trkpt>
   <trkpt lat="-3.0854940" lon="37.3706410">
    <ele>5178.4</ele>
    <time>2026-06-23T06:12:39Z</time>
   </trkpt>
   <trkpt lat="-3.0855070" lon="37.3706450">
    <ele>5178.1</ele>
    <time>2026-06-23T06:12:40Z</time>
   </trkpt>
   <trkpt lat="-3.0855230" lon="37.3706480">
    <ele>5177.7</ele>
    <time>2026-06-23T06:12:41Z</time>
   </trkpt>
   <trkpt lat="-3.0855350" lon="37.3706460">
    <ele>5177.4</ele>
    <time>2026-06-23T06:12:42Z</time>
   </trkpt>
   <trkpt lat="-3.0855490" lon="37.3706450">
    <ele>5177.1</ele>
    <time>2026-06-23T06:12:43Z</time>
   </trkpt>
   <trkpt lat="-3.0855590" lon="37.3706440">
    <ele>5176.8</ele>
    <time>2026-06-23T06:12:44Z</time>
   </trkpt>
   <trkpt lat="-3.0855680" lon="37.3706390">
    <ele>5176.6</ele>
    <time>2026-06-23T06:12:45Z</time>
   </trkpt>
   <trkpt lat="-3.0855740" lon="37.3706290">
    <ele>5176.3</ele>
    <time>2026-06-23T06:12:46Z</time>
   </trkpt>
   <trkpt lat="-3.0855770" lon="37.3706200">
    <ele>5176.1</ele>
    <time>2026-06-23T06:12:47Z</time>
   </trkpt>
   <trkpt lat="-3.0855840" lon="37.3706200">
    <ele>5175.9</ele>
    <time>2026-06-23T06:12:48Z</time>
   </trkpt>
   <trkpt lat="-3.0855940" lon="37.3706260">
    <ele>5175.7</ele>
    <time>2026-06-23T06:12:49Z</time>
   </trkpt>
   <trkpt lat="-3.0856070" lon="37.3706370">
    <ele>5175.2</ele>
    <time>2026-06-23T06:12:50Z</time>
   </trkpt>
   <trkpt lat="-3.0856100" lon="37.3706510">
    <ele>5174.9</ele>
    <time>2026-06-23T06:12:51Z</time>
   </trkpt>
   <trkpt lat="-3.0856070" lon="37.3706640">
    <ele>5174.5</ele>
    <time>2026-06-23T06:12:52Z</time>
   </trkpt>
   <trkpt lat="-3.0856110" lon="37.3706690">
    <ele>5174.4</ele>
    <time>2026-06-23T06:12:53Z</time>
   </trkpt>
   <trkpt lat="-3.0856260" lon="37.3706710">
    <ele>5173.9</ele>
    <time>2026-06-23T06:12:54Z</time>
   </trkpt>
   <trkpt lat="-3.0856420" lon="37.3706700">
    <ele>5173.5</ele>
    <time>2026-06-23T06:12:55Z</time>
   </trkpt>
   <trkpt lat="-3.0856560" lon="37.3706760">
    <ele>5173.1</ele>
    <time>2026-06-23T06:12:56Z</time>
   </trkpt>
   <trkpt lat="-3.0856680" lon="37.3706740">
    <ele>5172.8</ele>
    <time>2026-06-23T06:12:57Z</time>
   </trkpt>
   <trkpt lat="-3.0856810" lon="37.3706770">
    <ele>5172.4</ele>
    <time>2026-06-23T06:12:58Z</time>
   </trkpt>
   <trkpt lat="-3.0856920" lon="37.3706810">
    <ele>5172.1</ele>
    <time>2026-06-23T06:12:59Z</time>
   </trkpt>
   <trkpt lat="-3.0856990" lon="37.3706910">
    <ele>5171.7</ele>
    <time>2026-06-23T06:13:00Z</time>
   </trkpt>
   <trkpt lat="-3.0857030" lon="37.3707050">
    <ele>5171.3</ele>
    <time>2026-06-23T06:13:01Z</time>
   </trkpt>
   <trkpt lat="-3.0857050" lon="37.3707160">
    <ele>5171.0</ele>
    <time>2026-06-23T06:13:02Z</time>
   </trkpt>
   <trkpt lat="-3.0857180" lon="37.3707200">
    <ele>5170.7</ele>
    <time>2026-06-23T06:13:03Z</time>
   </trkpt>
   <trkpt lat="-3.0857310" lon="37.3707170">
    <ele>5170.3</ele>
    <time>2026-06-23T06:13:04Z</time>
   </trkpt>
   <trkpt lat="-3.0857480" lon="37.3707160">
    <ele>5169.8</ele>
    <time>2026-06-23T06:13:05Z</time>
   </trkpt>
   <trkpt lat="-3.0857590" lon="37.3707180">
    <ele>5169.5</ele>
    <time>2026-06-23T06:13:06Z</time>
   </trkpt>
   <trkpt lat="-3.0857740" lon="37.3707210">
    <ele>5169.1</ele>
    <time>2026-06-23T06:13:07Z</time>
   </trkpt>
   <trkpt lat="-3.0857870" lon="37.3707250">
    <ele>5168.8</ele>
    <time>2026-06-23T06:13:08Z</time>
   </trkpt>
   <trkpt lat="-3.0858020" lon="37.3707310">
    <ele>5168.3</ele>
    <time>2026-06-23T06:13:09Z</time>
   </trkpt>
   <trkpt lat="-3.0858130" lon="37.3707380">
    <ele>5168.0</ele>
    <time>2026-06-23T06:13:10Z</time>
   </trkpt>
   <trkpt lat="-3.0858240" lon="37.3707450">
    <ele>5167.7</ele>
    <time>2026-06-23T06:13:11Z</time>
   </trkpt>
   <trkpt lat="-3.0858360" lon="37.3707510">
    <ele>5167.3</ele>
    <time>2026-06-23T06:13:12Z</time>
   </trkpt>
   <trkpt lat="-3.0858500" lon="37.3707530">
    <ele>5167.0</ele>
    <time>2026-06-23T06:13:13Z</time>
   </trkpt>
   <trkpt lat="-3.0858640" lon="37.3707600">
    <ele>5166.6</ele>
    <time>2026-06-23T06:13:14Z</time>
   </trkpt>
   <trkpt lat="-3.0858790" lon="37.3707610">
    <ele>5166.2</ele>
    <time>2026-06-23T06:13:15Z</time>
   </trkpt>
   <trkpt lat="-3.0858940" lon="37.3707620">
    <ele>5165.8</ele>
    <time>2026-06-23T06:13:16Z</time>
   </trkpt>
   <trkpt lat="-3.0859080" lon="37.3707640">
    <ele>5165.5</ele>
    <time>2026-06-23T06:13:17Z</time>
   </trkpt>
   <trkpt lat="-3.0859230" lon="37.3707680">
    <ele>5165.1</ele>
    <time>2026-06-23T06:13:18Z</time>
   </trkpt>
   <trkpt lat="-3.0859380" lon="37.3707700">
    <ele>5164.7</ele>
    <time>2026-06-23T06:13:19Z</time>
   </trkpt>
   <trkpt lat="-3.0859510" lon="37.3707720">
    <ele>5164.4</ele>
    <time>2026-06-23T06:13:20Z</time>
   </trkpt>
   <trkpt lat="-3.0859630" lon="37.3707780">
    <ele>5164.1</ele>
    <time>2026-06-23T06:13:21Z</time>
   </trkpt>
   <trkpt lat="-3.0859720" lon="37.3707870">
    <ele>5163.8</ele>
    <time>2026-06-23T06:13:22Z</time>
   </trkpt>
   <trkpt lat="-3.0859820" lon="37.3707950">
    <ele>5163.4</ele>
    <time>2026-06-23T06:13:23Z</time>
   </trkpt>
   <trkpt lat="-3.0859960" lon="37.3707990">
    <ele>5163.1</ele>
    <time>2026-06-23T06:13:24Z</time>
   </trkpt>
   <trkpt lat="-3.0860070" lon="37.3708050">
    <ele>5162.8</ele>
    <time>2026-06-23T06:13:25Z</time>
   </trkpt>
   <trkpt lat="-3.0860170" lon="37.3708150">
    <ele>5162.4</ele>
    <time>2026-06-23T06:13:26Z</time>
   </trkpt>
   <trkpt lat="-3.0860310" lon="37.3708190">
    <ele>5162.1</ele>
    <time>2026-06-23T06:13:27Z</time>
   </trkpt>
   <trkpt lat="-3.0860470" lon="37.3708160">
    <ele>5161.7</ele>
    <time>2026-06-23T06:13:28Z</time>
   </trkpt>
   <trkpt lat="-3.0860620" lon="37.3708070">
    <ele>5161.2</ele>
    <time>2026-06-23T06:13:29Z</time>
   </trkpt>
   <trkpt lat="-3.0860770" lon="37.3708050">
    <ele>5160.8</ele>
    <time>2026-06-23T06:13:30Z</time>
   </trkpt>
   <trkpt lat="-3.0860900" lon="37.3708020">
    <ele>5160.5</ele>
    <time>2026-06-23T06:13:31Z</time>
   </trkpt>
   <trkpt lat="-3.0861020" lon="37.3707950">
    <ele>5160.1</ele>
    <time>2026-06-23T06:13:32Z</time>
   </trkpt>
   <trkpt lat="-3.0861140" lon="37.3707900">
    <ele>5159.8</ele>
    <time>2026-06-23T06:13:33Z</time>
   </trkpt>
   <trkpt lat="-3.0861260" lon="37.3707970">
    <ele>5159.4</ele>
    <time>2026-06-23T06:13:34Z</time>
   </trkpt>
   <trkpt lat="-3.0861440" lon="37.3707980">
    <ele>5159.0</ele>
    <time>2026-06-23T06:13:35Z</time>
   </trkpt>
   <trkpt lat="-3.0861540" lon="37.3707960">
    <ele>5158.7</ele>
    <time>2026-06-23T06:13:36Z</time>
   </trkpt>
   <trkpt lat="-3.0861630" lon="37.3708020">
    <ele>5158.4</ele>
    <time>2026-06-23T06:13:37Z</time>
   </trkpt>
   <trkpt lat="-3.0861690" lon="37.3708040">
    <ele>5158.2</ele>
    <time>2026-06-23T06:13:38Z</time>
   </trkpt>
   <trkpt lat="-3.0861780" lon="37.3708100">
    <ele>5157.9</ele>
    <time>2026-06-23T06:13:39Z</time>
   </trkpt>
   <trkpt lat="-3.0861970" lon="37.3708180">
    <ele>5157.3</ele>
    <time>2026-06-23T06:13:40Z</time>
   </trkpt>
   <trkpt lat="-3.0862050" lon="37.3708070">
    <ele>5156.9</ele>
    <time>2026-06-23T06:13:41Z</time>
   </trkpt>
   <trkpt lat="-3.0862160" lon="37.3708030">
    <ele>5156.6</ele>
    <time>2026-06-23T06:13:42Z</time>
   </trkpt>
   <trkpt lat="-3.0862250" lon="37.3708020">
    <ele>5156.3</ele>
    <time>2026-06-23T06:13:43Z</time>
   </trkpt>
   <trkpt lat="-3.0862390" lon="37.3708070">
    <ele>5155.9</ele>
    <time>2026-06-23T06:13:44Z</time>
   </trkpt>
   <trkpt lat="-3.0862520" lon="37.3708090">
    <ele>5155.4</ele>
    <time>2026-06-23T06:13:45Z</time>
   </trkpt>
   <trkpt lat="-3.0862640" lon="37.3708110">
    <ele>5155.0</ele>
    <time>2026-06-23T06:13:46Z</time>
   </trkpt>
   <trkpt lat="-3.0862730" lon="37.3708110">
    <ele>5154.7</ele>
    <time>2026-06-23T06:13:47Z</time>
   </trkpt>
   <trkpt lat="-3.0862790" lon="37.3708130">
    <ele>5154.5</ele>
    <time>2026-06-23T06:13:48Z</time>
   </trkpt>
   <trkpt lat="-3.0862840" lon="37.3708210">
    <ele>5154.2</ele>
    <time>2026-06-23T06:13:49Z</time>
   </trkpt>
   <trkpt lat="-3.0862910" lon="37.3708280">
    <ele>5153.9</ele>
    <time>2026-06-23T06:13:50Z</time>
   </trkpt>
   <trkpt lat="-3.0862990" lon="37.3708270">
    <ele>5153.6</ele>
    <time>2026-06-23T06:13:51Z</time>
   </trkpt>
   <trkpt lat="-3.0863120" lon="37.3708260">
    <ele>5153.2</ele>
    <time>2026-06-23T06:13:52Z</time>
   </trkpt>
   <trkpt lat="-3.0863130" lon="37.3708310">
    <ele>5153.0</ele>
    <time>2026-06-23T06:13:53Z</time>
   </trkpt>
   <trkpt lat="-3.0863080" lon="37.3708390">
    <ele>5152.7</ele>
    <time>2026-06-23T06:13:54Z</time>
   </trkpt>
   <trkpt lat="-3.0863010" lon="37.3708440">
    <ele>5152.4</ele>
    <time>2026-06-23T06:13:55Z</time>
   </trkpt>
   <trkpt lat="-3.0862990" lon="37.3708560">
    <ele>5152.0</ele>
    <time>2026-06-23T06:13:56Z</time>
   </trkpt>
   <trkpt lat="-3.0862970" lon="37.3708640">
    <ele>5151.7</ele>
    <time>2026-06-23T06:13:57Z</time>
   </trkpt>
   <trkpt lat="-3.0863000" lon="37.3708810">
    <ele>5151.1</ele>
    <time>2026-06-23T06:13:58Z</time>
   </trkpt>
   <trkpt lat="-3.0863100" lon="37.3708860">
    <ele>5150.7</ele>
    <time>2026-06-23T06:13:59Z</time>
   </trkpt>
   <trkpt lat="-3.0863140" lon="37.3708940">
    <ele>5150.4</ele>
    <time>2026-06-23T06:14:00Z</time>
   </trkpt>
   <trkpt lat="-3.0863130" lon="37.3709000">
    <ele>5150.2</ele>
    <time>2026-06-23T06:14:01Z</time>
   </trkpt>
   <trkpt lat="-3.0863060" lon="37.3709090">
    <ele>5149.8</ele>
    <time>2026-06-23T06:14:02Z</time>
   </trkpt>
   <trkpt lat="-3.0862980" lon="37.3709200">
    <ele>5149.3</ele>
    <time>2026-06-23T06:14:03Z</time>
   </trkpt>
   <trkpt lat="-3.0862990" lon="37.3709280">
    <ele>5149.0</ele>
    <time>2026-06-23T06:14:04Z</time>
   </trkpt>
   <trkpt lat="-3.0863000" lon="37.3709380">
    <ele>5148.7</ele>
    <time>2026-06-23T06:14:05Z</time>
   </trkpt>
   <trkpt lat="-3.0862940" lon="37.3709430">
    <ele>5148.4</ele>
    <time>2026-06-23T06:14:06Z</time>
   </trkpt>
   <trkpt lat="-3.0862840" lon="37.3709520">
    <ele>5147.9</ele>
    <time>2026-06-23T06:14:07Z</time>
   </trkpt>
   <trkpt lat="-3.0862770" lon="37.3709660">
    <ele>5147.4</ele>
    <time>2026-06-23T06:14:08Z</time>
   </trkpt>
   <trkpt lat="-3.0862750" lon="37.3709770">
    <ele>5147.0</ele>
    <time>2026-06-23T06:14:09Z</time>
   </trkpt>
   <trkpt lat="-3.0862730" lon="37.3709900">
    <ele>5146.5</ele>
    <time>2026-06-23T06:14:10Z</time>
   </trkpt>
   <trkpt lat="-3.0862770" lon="37.3710030">
    <ele>5146.1</ele>
    <time>2026-06-23T06:14:11Z</time>
   </trkpt>
   <trkpt lat="-3.0862890" lon="37.3710130">
    <ele>5145.5</ele>
    <time>2026-06-23T06:14:12Z</time>
   </trkpt>
   <trkpt lat="-3.0863060" lon="37.3710140">
    <ele>5145.0</ele>
    <time>2026-06-23T06:14:13Z</time>
   </trkpt>
   <trkpt lat="-3.0863160" lon="37.3710160">
    <ele>5144.6</ele>
    <time>2026-06-23T06:14:14Z</time>
   </trkpt>
   <trkpt lat="-3.0863270" lon="37.3710220">
    <ele>5144.2</ele>
    <time>2026-06-23T06:14:15Z</time>
   </trkpt>
   <trkpt lat="-3.0863350" lon="37.3710300">
    <ele>5143.8</ele>
    <time>2026-06-23T06:14:16Z</time>
   </trkpt>
   <trkpt lat="-3.0863400" lon="37.3710390">
    <ele>5143.5</ele>
    <time>2026-06-23T06:14:17Z</time>
   </trkpt>
   <trkpt lat="-3.0863470" lon="37.3710490">
    <ele>5143.1</ele>
    <time>2026-06-23T06:14:18Z</time>
   </trkpt>
   <trkpt lat="-3.0863520" lon="37.3710560">
    <ele>5142.8</ele>
    <time>2026-06-23T06:14:19Z</time>
   </trkpt>
   <trkpt lat="-3.0863600" lon="37.3710620">
    <ele>5142.5</ele>
    <time>2026-06-23T06:14:20Z</time>
   </trkpt>
   <trkpt lat="-3.0863720" lon="37.3710590">
    <ele>5142.1</ele>
    <time>2026-06-23T06:14:21Z</time>
   </trkpt>
   <trkpt lat="-3.0863770" lon="37.3710580">
    <ele>5141.9</ele>
    <time>2026-06-23T06:14:22Z</time>
   </trkpt>
   <trkpt lat="-3.0863760" lon="37.3710660">
    <ele>5141.6</ele>
    <time>2026-06-23T06:14:23Z</time>
   </trkpt>
   <trkpt lat="-3.0863830" lon="37.3710780">
    <ele>5141.2</ele>
    <time>2026-06-23T06:14:24Z</time>
   </trkpt>
   <trkpt lat="-3.0863920" lon="37.3710870">
    <ele>5140.8</ele>
    <time>2026-06-23T06:14:25Z</time>
   </trkpt>
   <trkpt lat="-3.0863960" lon="37.3710890">
    <ele>5140.6</ele>
    <time>2026-06-23T06:14:26Z</time>
   </trkpt>
   <trkpt lat="-3.0864010" lon="37.3710950">
    <ele>5140.4</ele>
    <time>2026-06-23T06:14:27Z</time>
   </trkpt>
   <trkpt lat="-3.0864040" lon="37.3711010">
    <ele>5140.2</ele>
    <time>2026-06-23T06:14:28Z</time>
   </trkpt>
   <trkpt lat="-3.0864110" lon="37.3711080">
    <ele>5139.8</ele>
    <time>2026-06-23T06:14:29Z</time>
   </trkpt>
   <trkpt lat="-3.0864200" lon="37.3711160">
    <ele>5139.5</ele>
    <time>2026-06-23T06:14:30Z</time>
   </trkpt>
   <trkpt lat="-3.0864290" lon="37.3711200">
    <ele>5139.2</ele>
    <time>2026-06-23T06:14:31Z</time>
   </trkpt>
   <trkpt lat="-3.0864380" lon="37.3711220">
    <ele>5138.9</ele>
    <time>2026-06-23T06:14:32Z</time>
   </trkpt>
   <trkpt lat="-3.0864460" lon="37.3711250">
    <ele>5138.6</ele>
    <time>2026-06-23T06:14:33Z</time>
   </trkpt>
   <trkpt lat="-3.0864560" lon="37.3711290">
    <ele>5138.3</ele>
    <time>2026-06-23T06:14:34Z</time>
   </trkpt>
   <trkpt lat="-3.0864650" lon="37.3711350">
    <ele>5137.9</ele>
    <time>2026-06-23T06:14:35Z</time>
   </trkpt>
   <trkpt lat="-3.0864710" lon="37.3711440">
    <ele>5137.6</ele>
    <time>2026-06-23T06:14:36Z</time>
   </trkpt>
   <trkpt lat="-3.0864800" lon="37.3711500">
    <ele>5137.3</ele>
    <time>2026-06-23T06:14:37Z</time>
   </trkpt>
   <trkpt lat="-3.0864840" lon="37.3711540">
    <ele>5137.1</ele>
    <time>2026-06-23T06:14:38Z</time>
   </trkpt>
   <trkpt lat="-3.0864920" lon="37.3711640">
    <ele>5136.7</ele>
    <time>2026-06-23T06:14:39Z</time>
   </trkpt>
   <trkpt lat="-3.0864990" lon="37.3711690">
    <ele>5136.4</ele>
    <time>2026-06-23T06:14:40Z</time>
   </trkpt>
   <trkpt lat="-3.0865030" lon="37.3711790">
    <ele>5136.1</ele>
    <time>2026-06-23T06:14:41Z</time>
   </trkpt>
   <trkpt lat="-3.0865110" lon="37.3711850">
    <ele>5135.8</ele>
    <time>2026-06-23T06:14:42Z</time>
   </trkpt>
   <trkpt lat="-3.0865200" lon="37.3711920">
    <ele>5135.5</ele>
    <time>2026-06-23T06:14:43Z</time>
   </trkpt>
   <trkpt lat="-3.0865300" lon="37.3712000">
    <ele>5135.1</ele>
    <time>2026-06-23T06:14:44Z</time>
   </trkpt>
   <trkpt lat="-3.0865400" lon="37.3712030">
    <ele>5134.8</ele>
    <time>2026-06-23T06:14:45Z</time>
   </trkpt>
   <trkpt lat="-3.0865490" lon="37.3712070">
    <ele>5134.5</ele>
    <time>2026-06-23T06:14:46Z</time>
   </trkpt>
   <trkpt lat="-3.0865550" lon="37.3712120">
    <ele>5134.3</ele>
    <time>2026-06-23T06:14:47Z</time>
   </trkpt>
   <trkpt lat="-3.0865680" lon="37.3712200">
    <ele>5133.9</ele>
    <time>2026-06-23T06:14:48Z</time>
   </trkpt>
   <trkpt lat="-3.0865800" lon="37.3712260">
    <ele>5133.5</ele>
    <time>2026-06-23T06:14:49Z</time>
   </trkpt>
   <trkpt lat="-3.0865860" lon="37.3712320">
    <ele>5133.3</ele>
    <time>2026-06-23T06:14:50Z</time>
   </trkpt>
   <trkpt lat="-3.0865920" lon="37.3712380">
    <ele>5133.0</ele>
    <time>2026-06-23T06:14:51Z</time>
   </trkpt>
   <trkpt lat="-3.0866010" lon="37.3712460">
    <ele>5132.7</ele>
    <time>2026-06-23T06:14:52Z</time>
   </trkpt>
   <trkpt lat="-3.0866130" lon="37.3712510">
    <ele>5132.3</ele>
    <time>2026-06-23T06:14:53Z</time>
   </trkpt>
   <trkpt lat="-3.0866240" lon="37.3712590">
    <ele>5131.9</ele>
    <time>2026-06-23T06:14:54Z</time>
   </trkpt>
   <trkpt lat="-3.0866300" lon="37.3712670">
    <ele>5131.6</ele>
    <time>2026-06-23T06:14:55Z</time>
   </trkpt>
   <trkpt lat="-3.0866350" lon="37.3712790">
    <ele>5131.2</ele>
    <time>2026-06-23T06:14:56Z</time>
   </trkpt>
   <trkpt lat="-3.0866430" lon="37.3712860">
    <ele>5130.9</ele>
    <time>2026-06-23T06:14:57Z</time>
   </trkpt>
   <trkpt lat="-3.0866510" lon="37.3712920">
    <ele>5130.7</ele>
    <time>2026-06-23T06:14:58Z</time>
   </trkpt>
   <trkpt lat="-3.0866610" lon="37.3713010">
    <ele>5130.3</ele>
    <time>2026-06-23T06:14:59Z</time>
   </trkpt>
   <trkpt lat="-3.0866650" lon="37.3713090">
    <ele>5130.0</ele>
    <time>2026-06-23T06:15:00Z</time>
   </trkpt>
   <trkpt lat="-3.0866690" lon="37.3713210">
    <ele>5129.6</ele>
    <time>2026-06-23T06:15:01Z</time>
   </trkpt>
   <trkpt lat="-3.0866760" lon="37.3713300">
    <ele>5129.3</ele>
    <time>2026-06-23T06:15:02Z</time>
   </trkpt>
   <trkpt lat="-3.0866850" lon="37.3713400">
    <ele>5128.9</ele>
    <time>2026-06-23T06:15:03Z</time>
   </trkpt>
   <trkpt lat="-3.0866950" lon="37.3713420">
    <ele>5128.7</ele>
    <time>2026-06-23T06:15:04Z</time>
   </trkpt>
   <trkpt lat="-3.0867050" lon="37.3713480">
    <ele>5128.3</ele>
    <time>2026-06-23T06:15:05Z</time>
   </trkpt>
   <trkpt lat="-3.0867120" lon="37.3713540">
    <ele>5128.1</ele>
    <time>2026-06-23T06:15:06Z</time>
   </trkpt>
   <trkpt lat="-3.0867190" lon="37.3713630">
    <ele>5127.8</ele>
    <time>2026-06-23T06:15:07Z</time>
   </trkpt>
   <trkpt lat="-3.0867220" lon="37.3713740">
    <ele>5127.5</ele>
    <time>2026-06-23T06:15:08Z</time>
   </trkpt>
   <trkpt lat="-3.0867300" lon="37.3713810">
    <ele>5127.2</ele>
    <time>2026-06-23T06:15:09Z</time>
   </trkpt>
   <trkpt lat="-3.0867410" lon="37.3713850">
    <ele>5126.8</ele>
    <time>2026-06-23T06:15:10Z</time>
   </trkpt>
   <trkpt lat="-3.0867490" lon="37.3713920">
    <ele>5126.5</ele>
    <time>2026-06-23T06:15:11Z</time>
   </trkpt>
   <trkpt lat="-3.0867470" lon="37.3714000">
    <ele>5126.3</ele>
    <time>2026-06-23T06:15:12Z</time>
   </trkpt>
   <trkpt lat="-3.0867450" lon="37.3714130">
    <ele>5125.9</ele>
    <time>2026-06-23T06:15:13Z</time>
   </trkpt>
   <trkpt lat="-3.0867440" lon="37.3714270">
    <ele>5125.5</ele>
    <time>2026-06-23T06:15:14Z</time>
   </trkpt>
   <trkpt lat="-3.0867480" lon="37.3714380">
    <ele>5125.2</ele>
    <time>2026-06-23T06:15:15Z</time>
   </trkpt>
   <trkpt lat="-3.0867580" lon="37.3714500">
    <ele>5124.7</ele>
    <time>2026-06-23T06:15:16Z</time>
   </trkpt>
   <trkpt lat="-3.0867660" lon="37.3714580">
    <ele>5124.4</ele>
    <time>2026-06-23T06:15:17Z</time>
   </trkpt>
   <trkpt lat="-3.0867700" lon="37.3714640">
    <ele>5124.2</ele>
    <time>2026-06-23T06:15:18Z</time>
   </trkpt>
   <trkpt lat="-3.0867710" lon="37.3714710">
    <ele>5124.0</ele>
    <time>2026-06-23T06:15:19Z</time>
   </trkpt>
   <trkpt lat="-3.0867660" lon="37.3714810">
    <ele>5123.7</ele>
    <time>2026-06-23T06:15:20Z</time>
   </trkpt>
   <trkpt lat="-3.0867560" lon="37.3714960">
    <ele>5123.1</ele>
    <time>2026-06-23T06:15:21Z</time>
   </trkpt>
   <trkpt lat="-3.0867520" lon="37.3715050">
    <ele>5122.8</ele>
    <time>2026-06-23T06:15:22Z</time>
   </trkpt>
   <trkpt lat="-3.0867580" lon="37.3715160">
    <ele>5122.5</ele>
    <time>2026-06-23T06:15:23Z</time>
   </trkpt>
   <trkpt lat="-3.0867720" lon="37.3715250">
    <ele>5122.0</ele>
    <time>2026-06-23T06:15:24Z</time>
   </trkpt>
   <trkpt lat="-3.0867830" lon="37.3715320">
    <ele>5121.6</ele>
    <time>2026-06-23T06:15:25Z</time>
   </trkpt>
   <trkpt lat="-3.0867880" lon="37.3715420">
    <ele>5121.3</ele>
    <time>2026-06-23T06:15:26Z</time>
   </trkpt>
   <trkpt lat="-3.0867910" lon="37.3715510">
    <ele>5121.0</ele>
    <time>2026-06-23T06:15:27Z</time>
   </trkpt>
   <trkpt lat="-3.0868000" lon="37.3715610">
    <ele>5120.6</ele>
    <time>2026-06-23T06:15:28Z</time>
   </trkpt>
   <trkpt lat="-3.0868080" lon="37.3715650">
    <ele>5120.3</ele>
    <time>2026-06-23T06:15:29Z</time>
   </trkpt>
   <trkpt lat="-3.0868230" lon="37.3715660">
    <ele>5119.8</ele>
    <time>2026-06-23T06:15:30Z</time>
   </trkpt>
   <trkpt lat="-3.0868310" lon="37.3715660">
    <ele>5119.6</ele>
    <time>2026-06-23T06:15:31Z</time>
   </trkpt>
   <trkpt lat="-3.0868370" lon="37.3715700">
    <ele>5119.4</ele>
    <time>2026-06-23T06:15:32Z</time>
   </trkpt>
   <trkpt lat="-3.0868460" lon="37.3715770">
    <ele>5119.0</ele>
    <time>2026-06-23T06:15:33Z</time>
   </trkpt>
   <trkpt lat="-3.0868450" lon="37.3715790">
    <ele>5119.0</ele>
    <time>2026-06-23T06:15:34Z</time>
   </trkpt>
   <trkpt lat="-3.0868520" lon="37.3715950">
    <ele>5118.4</ele>
    <time>2026-06-23T06:15:35Z</time>
   </trkpt>
   <trkpt lat="-3.0868520" lon="37.3716030">
    <ele>5118.2</ele>
    <time>2026-06-23T06:15:36Z</time>
   </trkpt>
   <trkpt lat="-3.0868510" lon="37.3716170">
    <ele>5117.8</ele>
    <time>2026-06-23T06:15:37Z</time>
   </trkpt>
   <trkpt lat="-3.0868430" lon="37.3716220">
    <ele>5117.5</ele>
    <time>2026-06-23T06:15:38Z</time>
   </trkpt>
   <trkpt lat="-3.0868370" lon="37.3716320">
    <ele>5117.1</ele>
    <time>2026-06-23T06:15:39Z</time>
   </trkpt>
   <trkpt lat="-3.0868460" lon="37.3716350">
    <ele>5116.8</ele>
    <time>2026-06-23T06:15:40Z</time>
   </trkpt>
   <trkpt lat="-3.0868640" lon="37.3716330">
    <ele>5116.3</ele>
    <time>2026-06-23T06:15:41Z</time>
   </trkpt>
   <trkpt lat="-3.0868810" lon="37.3716380">
    <ele>5115.8</ele>
    <time>2026-06-23T06:15:42Z</time>
   </trkpt>
   <trkpt lat="-3.0868830" lon="37.3716480">
    <ele>5115.5</ele>
    <time>2026-06-23T06:15:43Z</time>
   </trkpt>
   <trkpt lat="-3.0868900" lon="37.3716520">
    <ele>5115.2</ele>
    <time>2026-06-23T06:15:44Z</time>
   </trkpt>
   <trkpt lat="-3.0869030" lon="37.3716490">
    <ele>5114.8</ele>
    <time>2026-06-23T06:15:45Z</time>
   </trkpt>
   <trkpt lat="-3.0869140" lon="37.3716490">
    <ele>5114.5</ele>
    <time>2026-06-23T06:15:46Z</time>
   </trkpt>
   <trkpt lat="-3.0869210" lon="37.3716570">
    <ele>5114.2</ele>
    <time>2026-06-23T06:15:47Z</time>
   </trkpt>
   <trkpt lat="-3.0869330" lon="37.3716660">
    <ele>5113.8</ele>
    <time>2026-06-23T06:15:48Z</time>
   </trkpt>
   <trkpt lat="-3.0869420" lon="37.3716700">
    <ele>5113.5</ele>
    <time>2026-06-23T06:15:49Z</time>
   </trkpt>
   <trkpt lat="-3.0869570" lon="37.3716660">
    <ele>5113.0</ele>
    <time>2026-06-23T06:15:50Z</time>
   </trkpt>
   <trkpt lat="-3.0869690" lon="37.3716770">
    <ele>5112.6</ele>
    <time>2026-06-23T06:15:51Z</time>
   </trkpt>
   <trkpt lat="-3.0869740" lon="37.3716850">
    <ele>5112.3</ele>
    <time>2026-06-23T06:15:52Z</time>
   </trkpt>
   <trkpt lat="-3.0869810" lon="37.3716940">
    <ele>5112.0</ele>
    <time>2026-06-23T06:15:53Z</time>
   </trkpt>
   <trkpt lat="-3.0869880" lon="37.3717070">
    <ele>5111.6</ele>
    <time>2026-06-23T06:15:54Z</time>
   </trkpt>
   <trkpt lat="-3.0869910" lon="37.3717180">
    <ele>5111.3</ele>
    <time>2026-06-23T06:15:55Z</time>
   </trkpt>
   <trkpt lat="-3.0869970" lon="37.3717220">
    <ele>5111.2</ele>
    <time>2026-06-23T06:15:56Z</time>
   </trkpt>
   <trkpt lat="-3.0870060" lon="37.3717250">
    <ele>5110.9</ele>
    <time>2026-06-23T06:15:57Z</time>
   </trkpt>
   <trkpt lat="-3.0870140" lon="37.3717330">
    <ele>5110.6</ele>
    <time>2026-06-23T06:15:58Z</time>
   </trkpt>
   <trkpt lat="-3.0870200" lon="37.3717460">
    <ele>5110.2</ele>
    <time>2026-06-23T06:15:59Z</time>
   </trkpt>
   <trkpt lat="-3.0870240" lon="37.3717590">
    <ele>5109.9</ele>
    <time>2026-06-23T06:16:00Z</time>
   </trkpt>
   <trkpt lat="-3.0870280" lon="37.3717700">
    <ele>5109.6</ele>
    <time>2026-06-23T06:16:01Z</time>
   </trkpt>
   <trkpt lat="-3.0870390" lon="37.3717840">
    <ele>5109.2</ele>
    <time>2026-06-23T06:16:02Z</time>
   </trkpt>
   <trkpt lat="-3.0870470" lon="37.3717890">
    <ele>5108.9</ele>
    <time>2026-06-23T06:16:03Z</time>
   </trkpt>
   <trkpt lat="-3.0870600" lon="37.3717920">
    <ele>5108.6</ele>
    <time>2026-06-23T06:16:04Z</time>
   </trkpt>
   <trkpt lat="-3.0870670" lon="37.3717950">
    <ele>5108.4</ele>
    <time>2026-06-23T06:16:05Z</time>
   </trkpt>
   <trkpt lat="-3.0870830" lon="37.3717990">
    <ele>5108.0</ele>
    <time>2026-06-23T06:16:06Z</time>
   </trkpt>
   <trkpt lat="-3.0870960" lon="37.3717960">
    <ele>5107.7</ele>
    <time>2026-06-23T06:16:07Z</time>
   </trkpt>
   <trkpt lat="-3.0871100" lon="37.3717940">
    <ele>5107.3</ele>
    <time>2026-06-23T06:16:08Z</time>
   </trkpt>
   <trkpt lat="-3.0871160" lon="37.3718000">
    <ele>5107.1</ele>
    <time>2026-06-23T06:16:09Z</time>
   </trkpt>
   <trkpt lat="-3.0871200" lon="37.3718080">
    <ele>5106.9</ele>
    <time>2026-06-23T06:16:10Z</time>
   </trkpt>
   <trkpt lat="-3.0871200" lon="37.3718170">
    <ele>5106.7</ele>
    <time>2026-06-23T06:16:11Z</time>
   </trkpt>
   <trkpt lat="-3.0871130" lon="37.3718230">
    <ele>5106.5</ele>
    <time>2026-06-23T06:16:12Z</time>
   </trkpt>
   <trkpt lat="-3.0871000" lon="37.3718360">
    <ele>5106.1</ele>
    <time>2026-06-23T06:16:13Z</time>
   </trkpt>
   <trkpt lat="-3.0871010" lon="37.3718450">
    <ele>5105.9</ele>
    <time>2026-06-23T06:16:14Z</time>
   </trkpt>
   <trkpt lat="-3.0871070" lon="37.3718500">
    <ele>5105.7</ele>
    <time>2026-06-23T06:16:15Z</time>
   </trkpt>
   <trkpt lat="-3.0871090" lon="37.3718680">
    <ele>5105.3</ele>
    <time>2026-06-23T06:16:16Z</time>
   </trkpt>
   <trkpt lat="-3.0871130" lon="37.3718830">
    <ele>5105.0</ele>
    <time>2026-06-23T06:16:17Z</time>
   </trkpt>
   <trkpt lat="-3.0871230" lon="37.3718920">
    <ele>5104.7</ele>
    <time>2026-06-23T06:16:18Z</time>
   </trkpt>
   <trkpt lat="-3.0871310" lon="37.3719020">
    <ele>5104.4</ele>
    <time>2026-06-23T06:16:19Z</time>
   </trkpt>
   <trkpt lat="-3.0871400" lon="37.3719090">
    <ele>5104.2</ele>
    <time>2026-06-23T06:16:20Z</time>
   </trkpt>
   <trkpt lat="-3.0871510" lon="37.3719130">
    <ele>5103.9</ele>
    <time>2026-06-23T06:16:21Z</time>
   </trkpt>
   <trkpt lat="-3.0871600" lon="37.3719160">
    <ele>5103.7</ele>
    <time>2026-06-23T06:16:22Z</time>
   </trkpt>
   <trkpt lat="-3.0871700" lon="37.3719190">
    <ele>5103.5</ele>
    <time>2026-06-23T06:16:23Z</time>
   </trkpt>
   <trkpt lat="-3.0871820" lon="37.3719240">
    <ele>5103.2</ele>
    <time>2026-06-23T06:16:24Z</time>
   </trkpt>
   <trkpt lat="-3.0871920" lon="37.3719300">
    <ele>5103.0</ele>
    <time>2026-06-23T06:16:25Z</time>
   </trkpt>
   <trkpt lat="-3.0872030" lon="37.3719350">
    <ele>5102.7</ele>
    <time>2026-06-23T06:16:26Z</time>
   </trkpt>
   <trkpt lat="-3.0872150" lon="37.3719420">
    <ele>5102.4</ele>
    <time>2026-06-23T06:16:27Z</time>
   </trkpt>
   <trkpt lat="-3.0872260" lon="37.3719470">
    <ele>5102.1</ele>
    <time>2026-06-23T06:16:28Z</time>
   </trkpt>
   <trkpt lat="-3.0872360" lon="37.3719530">
    <ele>5101.9</ele>
    <time>2026-06-23T06:16:29Z</time>
   </trkpt>
   <trkpt lat="-3.0872440" lon="37.3719560">
    <ele>5101.7</ele>
    <time>2026-06-23T06:16:30Z</time>
   </trkpt>
   <trkpt lat="-3.0872570" lon="37.3719570">
    <ele>5101.4</ele>
    <time>2026-06-23T06:16:31Z</time>
   </trkpt>
   <trkpt lat="-3.0872680" lon="37.3719580">
    <ele>5101.2</ele>
    <time>2026-06-23T06:16:32Z</time>
   </trkpt>
   <trkpt lat="-3.0872790" lon="37.3719600">
    <ele>5101.0</ele>
    <time>2026-06-23T06:16:33Z</time>
   </trkpt>
   <trkpt lat="-3.0872870" lon="37.3719640">
    <ele>5100.8</ele>
    <time>2026-06-23T06:16:34Z</time>
   </trkpt>
   <trkpt lat="-3.0873000" lon="37.3719740">
    <ele>5100.4</ele>
    <time>2026-06-23T06:16:35Z</time>
   </trkpt>
   <trkpt lat="-3.0873080" lon="37.3719820">
    <ele>5100.2</ele>
    <time>2026-06-23T06:16:36Z</time>
   </trkpt>
   <trkpt lat="-3.0873160" lon="37.3719870">
    <ele>5100.0</ele>
    <time>2026-06-23T06:16:37Z</time>
   </trkpt>
   <trkpt lat="-3.0873250" lon="37.3719940">
    <ele>5099.7</ele>
    <time>2026-06-23T06:16:38Z</time>
   </trkpt>
   <trkpt lat="-3.0873330" lon="37.3719990">
    <ele>5099.5</ele>
    <time>2026-06-23T06:16:39Z</time>
   </trkpt>
   <trkpt lat="-3.0873390" lon="37.3720060">
    <ele>5099.3</ele>
    <time>2026-06-23T06:16:40Z</time>
   </trkpt>
   <trkpt lat="-3.0873460" lon="37.3720140">
    <ele>5099.1</ele>
    <time>2026-06-23T06:16:41Z</time>
   </trkpt>
   <trkpt lat="-3.0873520" lon="37.3720220">
    <ele>5098.8</ele>
    <time>2026-06-23T06:16:42Z</time>
   </trkpt>
   <trkpt lat="-3.0873580" lon="37.3720280">
    <ele>5098.6</ele>
    <time>2026-06-23T06:16:43Z</time>
   </trkpt>
   <trkpt lat="-3.0873700" lon="37.3720350">
    <ele>5098.3</ele>
    <time>2026-06-23T06:16:44Z</time>
   </trkpt>
   <trkpt lat="-3.0873780" lon="37.3720360">
    <ele>5098.1</ele>
    <time>2026-06-23T06:16:45Z</time>
   </trkpt>
   <trkpt lat="-3.0873890" lon="37.3720380">
    <ele>5097.9</ele>
    <time>2026-06-23T06:16:46Z</time>
   </trkpt>
   <trkpt lat="-3.0874000" lon="37.3720410">
    <ele>5097.6</ele>
    <time>2026-06-23T06:16:47Z</time>
   </trkpt>
   <trkpt lat="-3.0874110" lon="37.3720400">
    <ele>5097.4</ele>
    <time>2026-06-23T06:16:48Z</time>
   </trkpt>
   <trkpt lat="-3.0874240" lon="37.3720340">
    <ele>5097.1</ele>
    <time>2026-06-23T06:16:49Z</time>
   </trkpt>
   <trkpt lat="-3.0874350" lon="37.3720350">
    <ele>5096.8</ele>
    <time>2026-06-23T06:16:50Z</time>
   </trkpt>
   <trkpt lat="-3.0874460" lon="37.3720430">
    <ele>5096.5</ele>
    <time>2026-06-23T06:16:51Z</time>
   </trkpt>
   <trkpt lat="-3.0874570" lon="37.3720400">
    <ele>5096.2</ele>
    <time>2026-06-23T06:16:52Z</time>
   </trkpt>
   <trkpt lat="-3.0874710" lon="37.3720420">
    <ele>5095.9</ele>
    <time>2026-06-23T06:16:53Z</time>
   </trkpt>
   <trkpt lat="-3.0874820" lon="37.3720450">
    <ele>5095.7</ele>
    <time>2026-06-23T06:16:54Z</time>
   </trkpt>
   <trkpt lat="-3.0874880" lon="37.3720460">
    <ele>5095.5</ele>
    <time>2026-06-23T06:16:55Z</time>
   </trkpt>
   <trkpt lat="-3.0874990" lon="37.3720510">
    <ele>5095.2</ele>
    <time>2026-06-23T06:16:56Z</time>
   </trkpt>
   <trkpt lat="-3.0875060" lon="37.3720580">
    <ele>5095.0</ele>
    <time>2026-06-23T06:16:57Z</time>
   </trkpt>
   <trkpt lat="-3.0875190" lon="37.3720600">
    <ele>5094.7</ele>
    <time>2026-06-23T06:16:58Z</time>
   </trkpt>
   <trkpt lat="-3.0875280" lon="37.3720580">
    <ele>5094.5</ele>
    <time>2026-06-23T06:16:59Z</time>
   </trkpt>
   <trkpt lat="-3.0875400" lon="37.3720560">
    <ele>5094.2</ele>
    <time>2026-06-23T06:17:00Z</time>
   </trkpt>
   <trkpt lat="-3.0875480" lon="37.3720520">
    <ele>5094.0</ele>
    <time>2026-06-23T06:17:01Z</time>
   </trkpt>
   <trkpt lat="-3.0875600" lon="37.3720480">
    <ele>5093.7</ele>
    <time>2026-06-23T06:17:02Z</time>
   </trkpt>
   <trkpt lat="-3.0875670" lon="37.3720480">
    <ele>5093.5</ele>
    <time>2026-06-23T06:17:03Z</time>
   </trkpt>
   <trkpt lat="-3.0875790" lon="37.3720500">
    <ele>5093.2</ele>
    <time>2026-06-23T06:17:04Z</time>
   </trkpt>
   <trkpt lat="-3.0875910" lon="37.3720510">
    <ele>5092.9</ele>
    <time>2026-06-23T06:17:05Z</time>
   </trkpt>
   <trkpt lat="-3.0876020" lon="37.3720550">
    <ele>5092.6</ele>
    <time>2026-06-23T06:17:06Z</time>
   </trkpt>
   <trkpt lat="-3.0876130" lon="37.3720590">
    <ele>5092.3</ele>
    <time>2026-06-23T06:17:07Z</time>
   </trkpt>
   <trkpt lat="-3.0876180" lon="37.3720640">
    <ele>5092.2</ele>
    <time>2026-06-23T06:17:08Z</time>
   </trkpt>
   <trkpt lat="-3.0876210" lon="37.3720750">
    <ele>5091.9</ele>
    <time>2026-06-23T06:17:09Z</time>
   </trkpt>
   <trkpt lat="-3.0876280" lon="37.3720840">
    <ele>5091.6</ele>
    <time>2026-06-23T06:17:10Z</time>
   </trkpt>
   <trkpt lat="-3.0876370" lon="37.3720920">
    <ele>5091.3</ele>
    <time>2026-06-23T06:17:11Z</time>
   </trkpt>
   <trkpt lat="-3.0876470" lon="37.3720920">
    <ele>5091.0</ele>
    <time>2026-06-23T06:17:12Z</time>
   </trkpt>
   <trkpt lat="-3.0876550" lon="37.3720930">
    <ele>5090.8</ele>
    <time>2026-06-23T06:17:13Z</time>
   </trkpt>
   <trkpt lat="-3.0876620" lon="37.3720950">
    <ele>5090.6</ele>
    <time>2026-06-23T06:17:14Z</time>
   </trkpt>
   <trkpt lat="-3.0876710" lon="37.3721020">
    <ele>5090.3</ele>
    <time>2026-06-23T06:17:15Z</time>
   </trkpt>
   <trkpt lat="-3.0876770" lon="37.3721060">
    <ele>5090.2</ele>
    <time>2026-06-23T06:17:16Z</time>
   </trkpt>
   <trkpt lat="-3.0876840" lon="37.3721110">
    <ele>5089.9</ele>
    <time>2026-06-23T06:17:17Z</time>
   </trkpt>
   <trkpt lat="-3.0876860" lon="37.3721120">
    <ele>5089.9</ele>
    <time>2026-06-23T06:17:18Z</time>
   </trkpt>
   <trkpt lat="-3.0876950" lon="37.3721130">
    <ele>5089.6</ele>
    <time>2026-06-23T06:17:19Z</time>
   </trkpt>
   <trkpt lat="-3.0877030" lon="37.3721130">
    <ele>5089.4</ele>
    <time>2026-06-23T06:17:20Z</time>
   </trkpt>
   <trkpt lat="-3.0877100" lon="37.3721140">
    <ele>5089.3</ele>
    <time>2026-06-23T06:17:21Z</time>
   </trkpt>
   <trkpt lat="-3.0877210" lon="37.3721140">
    <ele>5089.0</ele>
    <time>2026-06-23T06:17:22Z</time>
   </trkpt>
   <trkpt lat="-3.0877290" lon="37.3721090">
    <ele>5088.7</ele>
    <time>2026-06-23T06:17:23Z</time>
   </trkpt>
   <trkpt lat="-3.0877310" lon="37.3721120">
    <ele>5088.6</ele>
    <time>2026-06-23T06:17:24Z</time>
   </trkpt>
   <trkpt lat="-3.0877370" lon="37.3721180">
    <ele>5088.4</ele>
    <time>2026-06-23T06:17:25Z</time>
   </trkpt>
   <trkpt lat="-3.0877420" lon="37.3721190">
    <ele>5088.2</ele>
    <time>2026-06-23T06:17:26Z</time>
   </trkpt>
   <trkpt lat="-3.0877420" lon="37.3721170">
    <ele>5088.2</ele>
    <time>2026-06-23T06:17:27Z</time>
   </trkpt>
   <trkpt lat="-3.0877400" lon="37.3721160">
    <ele>5088.1</ele>
    <time>2026-06-23T06:17:28Z</time>
   </trkpt>
   <trkpt lat="-3.0877460" lon="37.3721150">
    <ele>5088.0</ele>
    <time>2026-06-23T06:17:29Z</time>
   </trkpt>
   <trkpt lat="-3.0877460" lon="37.3721140">
    <ele>5087.9</ele>
    <time>2026-06-23T06:17:30Z</time>
   </trkpt>
   <trkpt lat="-3.0877500" lon="37.3721130">
    <ele>5087.8</ele>
    <time>2026-06-23T06:17:31Z</time>
   </trkpt>
   <trkpt lat="-3.0877530" lon="37.3721090">
    <ele>5087.7</ele>
    <time>2026-06-23T06:17:32Z</time>
   </trkpt>
   <trkpt lat="-3.0877580" lon="37.3721110">
    <ele>5087.5</ele>
    <time>2026-06-23T06:17:33Z</time>
   </trkpt>
   <trkpt lat="-3.0877610" lon="37.3721100">
    <ele>5087.5</ele>
    <time>2026-06-23T06:17:34Z</time>
   </trkpt>
   <trkpt lat="-3.0877640" lon="37.3721150">
    <ele>5087.3</ele>
    <time>2026-06-23T06:17:35Z</time>
   </trkpt>
   <trkpt lat="-3.0877640" lon="37.3721170">
    <ele>5087.2</ele>
    <time>2026-06-23T06:17:36Z</time>
   </trkpt>
   <trkpt lat="-3.0877660" lon="37.3721220">
    <ele>5087.1</ele>
    <time>2026-06-23T06:17:37Z</time>
   </trkpt>
   <trkpt lat="-3.0877710" lon="37.3721280">
    <ele>5086.9</ele>
    <time>2026-06-23T06:17:38Z</time>
   </trkpt>
   <trkpt lat="-3.0877730" lon="37.3721300">
    <ele>5086.8</ele>
    <time>2026-06-23T06:17:39Z</time>
   </trkpt>
   <trkpt lat="-3.0877740" lon="37.3721310">
    <ele>5086.8</ele>
    <time>2026-06-23T06:17:40Z</time>
   </trkpt>
   <trkpt lat="-3.0877780" lon="37.3721330">
    <ele>5086.7</ele>
    <time>2026-06-23T06:17:41Z</time>
   </trkpt>
   <trkpt lat="-3.0877810" lon="37.3721350">
    <ele>5086.6</ele>
    <time>2026-06-23T06:17:42Z</time>
   </trkpt>
   <trkpt lat="-3.0877840" lon="37.3721380">
    <ele>5086.4</ele>
    <time>2026-06-23T06:17:43Z</time>
   </trkpt>
   <trkpt lat="-3.0877860" lon="37.3721400">
    <ele>5086.4</ele>
    <time>2026-06-23T06:17:44Z</time>
   </trkpt>
   <trkpt lat="-3.0877890" lon="37.3721410">
    <ele>5086.3</ele>
    <time>2026-06-23T06:17:45Z</time>
   </trkpt>
   <trkpt lat="-3.0877930" lon="37.3721400">
    <ele>5086.2</ele>
    <time>2026-06-23T06:17:46Z</time>
   </trkpt>
   <trkpt lat="-3.0877980" lon="37.3721400">
    <ele>5086.0</ele>
    <time>2026-06-23T06:17:47Z</time>
   </trkpt>
   <trkpt lat="-3.0878010" lon="37.3721390">
    <ele>5085.9</ele>
    <time>2026-06-23T06:17:48Z</time>
   </trkpt>
   <trkpt lat="-3.0878040" lon="37.3721380">
    <ele>5085.8</ele>
    <time>2026-06-23T06:17:49Z</time>
   </trkpt>
   <trkpt lat="-3.0878090" lon="37.3721360">
    <ele>5085.7</ele>
    <time>2026-06-23T06:17:50Z</time>
   </trkpt>
   <trkpt lat="-3.0878130" lon="37.3721350">
    <ele>5085.5</ele>
    <time>2026-06-23T06:17:51Z</time>
   </trkpt>
   <trkpt lat="-3.0878160" lon="37.3721360">
    <ele>5085.5</ele>
    <time>2026-06-23T06:17:52Z</time>
   </trkpt>
   <trkpt lat="-3.0878220" lon="37.3721380">
    <ele>5085.3</ele>
    <time>2026-06-23T06:17:53Z</time>
   </trkpt>
   <trkpt lat="-3.0878220" lon="37.3721400">
    <ele>5085.2</ele>
    <time>2026-06-23T06:17:54Z</time>
   </trkpt>
   <trkpt lat="-3.0878270" lon="37.3721400">
    <ele>5085.1</ele>
    <time>2026-06-23T06:17:55Z</time>
   </trkpt>
   <trkpt lat="-3.0878290" lon="37.3721370">
    <ele>5085.0</ele>
    <time>2026-06-23T06:17:56Z</time>
   </trkpt>
   <trkpt lat="-3.0878310" lon="37.3721380">
    <ele>5084.9</ele>
    <time>2026-06-23T06:17:57Z</time>
   </trkpt>
   <trkpt lat="-3.0878350" lon="37.3721380">
    <ele>5084.8</ele>
    <time>2026-06-23T06:17:58Z</time>
   </trkpt>
   <trkpt lat="-3.0878400" lon="37.3721390">
    <ele>5084.6</ele>
    <time>2026-06-23T06:17:59Z</time>
   </trkpt>
   <trkpt lat="-3.0878440" lon="37.3721380">
    <ele>5084.5</ele>
    <time>2026-06-23T06:18:00Z</time>
   </trkpt>
   <trkpt lat="-3.0878500" lon="37.3721410">
    <ele>5084.3</ele>
    <time>2026-06-23T06:18:01Z</time>
   </trkpt>
   <trkpt lat="-3.0878540" lon="37.3721390">
    <ele>5084.2</ele>
    <time>2026-06-23T06:18:02Z</time>
   </trkpt>
   <trkpt lat="-3.0878570" lon="37.3721410">
    <ele>5084.1</ele>
    <time>2026-06-23T06:18:03Z</time>
   </trkpt>
   <trkpt lat="-3.0878620" lon="37.3721430">
    <ele>5083.9</ele>
    <time>2026-06-23T06:18:04Z</time>
   </trkpt>
   <trkpt lat="-3.0878630" lon="37.3721440">
    <ele>5083.9</ele>
    <time>2026-06-23T06:18:05Z</time>
   </trkpt>
   <trkpt lat="-3.0878670" lon="37.3721460">
    <ele>5083.8</ele>
    <time>2026-06-23T06:18:06Z</time>
   </trkpt>
   <trkpt lat="-3.0878720" lon="37.3721510">
    <ele>5083.6</ele>
    <time>2026-06-23T06:18:07Z</time>
   </trkpt>
   <trkpt lat="-3.0878780" lon="37.3721550">
    <ele>5083.3</ele>
    <time>2026-06-23T06:18:08Z</time>
   </trkpt>
   <trkpt lat="-3.0878800" lon="37.3721530">
    <ele>5083.3</ele>
    <time>2026-06-23T06:18:09Z</time>
   </trkpt>
   <trkpt lat="-3.0878820" lon="37.3721530">
    <ele>5083.2</ele>
    <time>2026-06-23T06:18:10Z</time>
   </trkpt>
   <trkpt lat="-3.0878900" lon="37.3721520">
    <ele>5083.0</ele>
    <time>2026-06-23T06:18:11Z</time>
   </trkpt>
   <trkpt lat="-3.0878920" lon="37.3721510">
    <ele>5082.9</ele>
    <time>2026-06-23T06:18:12Z</time>
   </trkpt>
   <trkpt lat="-3.0878960" lon="37.3721500">
    <ele>5082.8</ele>
    <time>2026-06-23T06:18:13Z</time>
   </trkpt>
   <trkpt lat="-3.0878990" lon="37.3721500">
    <ele>5082.7</ele>
    <time>2026-06-23T06:18:14Z</time>
   </trkpt>
   <trkpt lat="-3.0879050" lon="37.3721490">
    <ele>5082.5</ele>
    <time>2026-06-23T06:18:15Z</time>
   </trkpt>
   <trkpt lat="-3.0879070" lon="37.3721460">
    <ele>5082.4</ele>
    <time>2026-06-23T06:18:16Z</time>
   </trkpt>
   <trkpt lat="-3.0879140" lon="37.3721450">
    <ele>5082.2</ele>
    <time>2026-06-23T06:18:17Z</time>
   </trkpt>
   <trkpt lat="-3.0879200" lon="37.3721480">
    <ele>5082.0</ele>
    <time>2026-06-23T06:18:18Z</time>
   </trkpt>
   <trkpt lat="-3.0879220" lon="37.3721500">
    <ele>5081.9</ele>
    <time>2026-06-23T06:18:19Z</time>
   </trkpt>
   <trkpt lat="-3.0879220" lon="37.3721510">
    <ele>5081.8</ele>
    <time>2026-06-23T06:18:20Z</time>
   </trkpt>
   <trkpt lat="-3.0879250" lon="37.3721520">
    <ele>5081.7</ele>
    <time>2026-06-23T06:18:21Z</time>
   </trkpt>
   <trkpt lat="-3.0879280" lon="37.3721510">
    <ele>5081.6</ele>
    <time>2026-06-23T06:18:22Z</time>
   </trkpt>
   <trkpt lat="-3.0879320" lon="37.3721520">
    <ele>5081.5</ele>
    <time>2026-06-23T06:18:23Z</time>
   </trkpt>
   <trkpt lat="-3.0879390" lon="37.3721530">
    <ele>5081.3</ele>
    <time>2026-06-23T06:18:24Z</time>
   </trkpt>
   <trkpt lat="-3.0879410" lon="37.3721550">
    <ele>5081.2</ele>
    <time>2026-06-23T06:18:25Z</time>
   </trkpt>
   <trkpt lat="-3.0879420" lon="37.3721600">
    <ele>5081.1</ele>
    <time>2026-06-23T06:18:26Z</time>
   </trkpt>
   <trkpt lat="-3.0879440" lon="37.3721640">
    <ele>5080.9</ele>
    <time>2026-06-23T06:18:27Z</time>
   </trkpt>
   <trkpt lat="-3.0879460" lon="37.3721660">
    <ele>5080.8</ele>
    <time>2026-06-23T06:18:28Z</time>
   </trkpt>
   <trkpt lat="-3.0879500" lon="37.3721650">
    <ele>5080.7</ele>
    <time>2026-06-23T06:18:29Z</time>
   </trkpt>
   <trkpt lat="-3.0879470" lon="37.3721680">
    <ele>5080.6</ele>
    <time>2026-06-23T06:18:30Z</time>
   </trkpt>
   <trkpt lat="-3.0879470" lon="37.3721700">
    <ele>5080.5</ele>
    <time>2026-06-23T06:18:31Z</time>
   </trkpt>
   <trkpt lat="-3.0879490" lon="37.3721740">
    <ele>5080.4</ele>
    <time>2026-06-23T06:18:32Z</time>
   </trkpt>
   <trkpt lat="-3.0879550" lon="37.3721760">
    <ele>5080.2</ele>
    <time>2026-06-23T06:18:33Z</time>
   </trkpt>
   <trkpt lat="-3.0879560" lon="37.3721780">
    <ele>5080.1</ele>
    <time>2026-06-23T06:18:34Z</time>
   </trkpt>
   <trkpt lat="-3.0879610" lon="37.3721790">
    <ele>5080.0</ele>
    <time>2026-06-23T06:18:35Z</time>
   </trkpt>
   <trkpt lat="-3.0879730" lon="37.3721850">
    <ele>5079.5</ele>
    <time>2026-06-23T06:18:36Z</time>
   </trkpt>
   <trkpt lat="-3.0879730" lon="37.3721880">
    <ele>5079.4</ele>
    <time>2026-06-23T06:18:37Z</time>
   </trkpt>
   <trkpt lat="-3.0879840" lon="37.3721870">
    <ele>5079.1</ele>
    <time>2026-06-23T06:18:38Z</time>
   </trkpt>
   <trkpt lat="-3.0879940" lon="37.3721930">
    <ele>5078.7</ele>
    <time>2026-06-23T06:18:39Z</time>
   </trkpt>
   <trkpt lat="-3.0880030" lon="37.3721970">
    <ele>5078.4</ele>
    <time>2026-06-23T06:18:40Z</time>
   </trkpt>
   <trkpt lat="-3.0880160" lon="37.3721990">
    <ele>5078.0</ele>
    <time>2026-06-23T06:18:41Z</time>
   </trkpt>
   <trkpt lat="-3.0880300" lon="37.3721970">
    <ele>5077.5</ele>
    <time>2026-06-23T06:18:42Z</time>
   </trkpt>
   <trkpt lat="-3.0880430" lon="37.3721920">
    <ele>5077.0</ele>
    <time>2026-06-23T06:18:43Z</time>
   </trkpt>
   <trkpt lat="-3.0880560" lon="37.3721880">
    <ele>5076.6</ele>
    <time>2026-06-23T06:18:44Z</time>
   </trkpt>
   <trkpt lat="-3.0880650" lon="37.3721830">
    <ele>5076.3</ele>
    <time>2026-06-23T06:18:45Z</time>
   </trkpt>
   <trkpt lat="-3.0880720" lon="37.3721770">
    <ele>5076.0</ele>
    <time>2026-06-23T06:18:46Z</time>
   </trkpt>
   <trkpt lat="-3.0880800" lon="37.3721760">
    <ele>5075.7</ele>
    <time>2026-06-23T06:18:47Z</time>
   </trkpt>
   <trkpt lat="-3.0880860" lon="37.3721780">
    <ele>5075.5</ele>
    <time>2026-06-23T06:18:48Z</time>
   </trkpt>
   <trkpt lat="-3.0880890" lon="37.3721820">
    <ele>5075.3</ele>
    <time>2026-06-23T06:18:49Z</time>
   </trkpt>
   <trkpt lat="-3.0880980" lon="37.3721900">
    <ele>5074.9</ele>
    <time>2026-06-23T06:18:50Z</time>
   </trkpt>
   <trkpt lat="-3.0881000" lon="37.3721990">
    <ele>5074.6</ele>
    <time>2026-06-23T06:18:51Z</time>
   </trkpt>
   <trkpt lat="-3.0880980" lon="37.3722050">
    <ele>5074.4</ele>
    <time>2026-06-23T06:18:52Z</time>
   </trkpt>
   <trkpt lat="-3.0880940" lon="37.3722110">
    <ele>5074.2</ele>
    <time>2026-06-23T06:18:53Z</time>
   </trkpt>
   <trkpt lat="-3.0880900" lon="37.3722150">
    <ele>5074.0</ele>
    <time>2026-06-23T06:18:54Z</time>
   </trkpt>
   <trkpt lat="-3.0880900" lon="37.3722150">
    <ele>5074.0</ele>
    <time>2026-06-23T06:18:55Z</time>
   </trkpt>
   <trkpt lat="-3.0880900" lon="37.3722190">
    <ele>5073.9</ele>
    <time>2026-06-23T06:18:56Z</time>
   </trkpt>
   <trkpt lat="-3.0880930" lon="37.3722240">
    <ele>5073.7</ele>
    <time>2026-06-23T06:18:57Z</time>
   </trkpt>
   <trkpt lat="-3.0880980" lon="37.3722300">
    <ele>5073.4</ele>
    <time>2026-06-23T06:18:58Z</time>
   </trkpt>
   <trkpt lat="-3.0881010" lon="37.3722470">
    <ele>5072.9</ele>
    <time>2026-06-23T06:18:59Z</time>
   </trkpt>
   <trkpt lat="-3.0880930" lon="37.3722540">
    <ele>5072.5</ele>
    <time>2026-06-23T06:19:00Z</time>
   </trkpt>
   <trkpt lat="-3.0880930" lon="37.3722610">
    <ele>5072.3</ele>
    <time>2026-06-23T06:19:01Z</time>
   </trkpt>
   <trkpt lat="-3.0880910" lon="37.3722660">
    <ele>5072.1</ele>
    <time>2026-06-23T06:19:02Z</time>
   </trkpt>
   <trkpt lat="-3.0880880" lon="37.3722750">
    <ele>5071.8</ele>
    <time>2026-06-23T06:19:03Z</time>
   </trkpt>
   <trkpt lat="-3.0880870" lon="37.3722830">
    <ele>5071.5</ele>
    <time>2026-06-23T06:19:04Z</time>
   </trkpt>
   <trkpt lat="-3.0881040" lon="37.3722830">
    <ele>5071.0</ele>
    <time>2026-06-23T06:19:05Z</time>
   </trkpt>
   <trkpt lat="-3.0881190" lon="37.3722860">
    <ele>5070.5</ele>
    <time>2026-06-23T06:19:06Z</time>
   </trkpt>
   <trkpt lat="-3.0881180" lon="37.3722860">
    <ele>5070.5</ele>
    <time>2026-06-23T06:19:07Z</time>
   </trkpt>
   <trkpt lat="-3.0881180" lon="37.3722870">
    <ele>5070.4</ele>
    <time>2026-06-23T06:19:08Z</time>
   </trkpt>
   <trkpt lat="-3.0881210" lon="37.3722860">
    <ele>5070.3</ele>
    <time>2026-06-23T06:19:09Z</time>
   </trkpt>
   <trkpt lat="-3.0881350" lon="37.3722890">
    <ele>5069.9</ele>
    <time>2026-06-23T06:19:10Z</time>
   </trkpt>
   <trkpt lat="-3.0881460" lon="37.3722910">
    <ele>5069.5</ele>
    <time>2026-06-23T06:19:11Z</time>
   </trkpt>
   <trkpt lat="-3.0881540" lon="37.3722950">
    <ele>5069.2</ele>
    <time>2026-06-23T06:19:12Z</time>
   </trkpt>
   <trkpt lat="-3.0881650" lon="37.3722960">
    <ele>5068.8</ele>
    <time>2026-06-23T06:19:13Z</time>
   </trkpt>
   <trkpt lat="-3.0881830" lon="37.3722990">
    <ele>5068.2</ele>
    <time>2026-06-23T06:19:14Z</time>
   </trkpt>
   <trkpt lat="-3.0881940" lon="37.3723000">
    <ele>5067.9</ele>
    <time>2026-06-23T06:19:15Z</time>
   </trkpt>
   <trkpt lat="-3.0882070" lon="37.3723000">
    <ele>5067.4</ele>
    <time>2026-06-23T06:19:16Z</time>
   </trkpt>
   <trkpt lat="-3.0882160" lon="37.3723030">
    <ele>5067.1</ele>
    <time>2026-06-23T06:19:17Z</time>
   </trkpt>
   <trkpt lat="-3.0882260" lon="37.3723070">
    <ele>5066.7</ele>
    <time>2026-06-23T06:19:18Z</time>
   </trkpt>
   <trkpt lat="-3.0882360" lon="37.3723130">
    <ele>5066.3</ele>
    <time>2026-06-23T06:19:19Z</time>
   </trkpt>
   <trkpt lat="-3.0882480" lon="37.3723170">
    <ele>5065.9</ele>
    <time>2026-06-23T06:19:20Z</time>
   </trkpt>
   <trkpt lat="-3.0882480" lon="37.3723220">
    <ele>5065.7</ele>
    <time>2026-06-23T06:19:21Z</time>
   </trkpt>
   <trkpt lat="-3.0882480" lon="37.3723350">
    <ele>5065.3</ele>
    <time>2026-06-23T06:19:22Z</time>
   </trkpt>
   <trkpt lat="-3.0882450" lon="37.3723460">
    <ele>5064.9</ele>
    <time>2026-06-23T06:19:23Z</time>
   </trkpt>
   <trkpt lat="-3.0882360" lon="37.3723530">
    <ele>5064.5</ele>
    <time>2026-06-23T06:19:24Z</time>
   </trkpt>
   <trkpt lat="-3.0882280" lon="37.3723560">
    <ele>5064.2</ele>
    <time>2026-06-23T06:19:25Z</time>
   </trkpt>
   <trkpt lat="-3.0882190" lon="37.3723560">
    <ele>5063.8</ele>
    <time>2026-06-23T06:19:26Z</time>
   </trkpt>
   <trkpt lat="-3.0882050" lon="37.3723580">
    <ele>5063.3</ele>
    <time>2026-06-23T06:19:27Z</time>
   </trkpt>
   <trkpt lat="-3.0881930" lon="37.3723580">
    <ele>5062.9</ele>
    <time>2026-06-23T06:19:28Z</time>
   </trkpt>
   <trkpt lat="-3.0881840" lon="37.3723620">
    <ele>5062.5</ele>
    <time>2026-06-23T06:19:29Z</time>
   </trkpt>
   <trkpt lat="-3.0881840" lon="37.3723670">
    <ele>5062.3</ele>
    <time>2026-06-23T06:19:30Z</time>
   </trkpt>
   <trkpt lat="-3.0881830" lon="37.3723740">
    <ele>5062.0</ele>
    <time>2026-06-23T06:19:31Z</time>
   </trkpt>
   <trkpt lat="-3.0881800" lon="37.3723780">
    <ele>5061.8</ele>
    <time>2026-06-23T06:19:32Z</time>
   </trkpt>
   <trkpt lat="-3.0881810" lon="37.3723800">
    <ele>5061.8</ele>
    <time>2026-06-23T06:19:33Z</time>
   </trkpt>
   <trkpt lat="-3.0881830" lon="37.3723840">
    <ele>5061.6</ele>
    <time>2026-06-23T06:19:34Z</time>
   </trkpt>
   <trkpt lat="-3.0881860" lon="37.3723860">
    <ele>5061.5</ele>
    <time>2026-06-23T06:19:35Z</time>
   </trkpt>
   <trkpt lat="-3.0881880" lon="37.3723890">
    <ele>5061.3</ele>
    <time>2026-06-23T06:19:36Z</time>
   </trkpt>
   <trkpt lat="-3.0881860" lon="37.3723890">
    <ele>5061.3</ele>
    <time>2026-06-23T06:19:37Z</time>
   </trkpt>
   <trkpt lat="-3.0881880" lon="37.3723900">
    <ele>5061.2</ele>
    <time>2026-06-23T06:19:38Z</time>
   </trkpt>
   <trkpt lat="-3.0881880" lon="37.3723940">
    <ele>5061.0</ele>
    <time>2026-06-23T06:19:39Z</time>
   </trkpt>
   <trkpt lat="-3.0881910" lon="37.3723950">
    <ele>5060.9</ele>
    <time>2026-06-23T06:19:40Z</time>
   </trkpt>
   <trkpt lat="-3.0881940" lon="37.3723990">
    <ele>5060.7</ele>
    <time>2026-06-23T06:19:41Z</time>
   </trkpt>
   <trkpt lat="-3.0881920" lon="37.3724030">
    <ele>5060.5</ele>
    <time>2026-06-23T06:19:42Z</time>
   </trkpt>
   <trkpt lat="-3.0881890" lon="37.3724130">
    <ele>5060.2</ele>
    <time>2026-06-23T06:19:43Z</time>
   </trkpt>
   <trkpt lat="-3.0881850" lon="37.3724160">
    <ele>5060.0</ele>
    <time>2026-06-23T06:19:44Z</time>
   </trkpt>
   <trkpt lat="-3.0881870" lon="37.3724210">
    <ele>5059.8</ele>
    <time>2026-06-23T06:19:45Z</time>
   </trkpt>
   <trkpt lat="-3.0881900" lon="37.3724270">
    <ele>5059.5</ele>
    <time>2026-06-23T06:19:46Z</time>
   </trkpt>
   <trkpt lat="-3.0881880" lon="37.3724340">
    <ele>5059.2</ele>
    <time>2026-06-23T06:19:47Z</time>
   </trkpt>
   <trkpt lat="-3.0881890" lon="37.3724420">
    <ele>5058.9</ele>
    <time>2026-06-23T06:19:48Z</time>
   </trkpt>
   <trkpt lat="-3.0881950" lon="37.3724430">
    <ele>5058.7</ele>
    <time>2026-06-23T06:19:49Z</time>
   </trkpt>
   <trkpt lat="-3.0882040" lon="37.3724480">
    <ele>5058.3</ele>
    <time>2026-06-23T06:19:50Z</time>
   </trkpt>
   <trkpt lat="-3.0882110" lon="37.3724470">
    <ele>5058.1</ele>
    <time>2026-06-23T06:19:51Z</time>
   </trkpt>
   <trkpt lat="-3.0882210" lon="37.3724440">
    <ele>5057.7</ele>
    <time>2026-06-23T06:19:52Z</time>
   </trkpt>
   <trkpt lat="-3.0882310" lon="37.3724450">
    <ele>5057.4</ele>
    <time>2026-06-23T06:19:53Z</time>
   </trkpt>
   <trkpt lat="-3.0882420" lon="37.3724470">
    <ele>5057.0</ele>
    <time>2026-06-23T06:19:54Z</time>
   </trkpt>
   <trkpt lat="-3.0882500" lon="37.3724500">
    <ele>5056.7</ele>
    <time>2026-06-23T06:19:55Z</time>
   </trkpt>
   <trkpt lat="-3.0882560" lon="37.3724520">
    <ele>5056.5</ele>
    <time>2026-06-23T06:19:56Z</time>
   </trkpt>
   <trkpt lat="-3.0882620" lon="37.3724590">
    <ele>5056.2</ele>
    <time>2026-06-23T06:19:57Z</time>
   </trkpt>
   <trkpt lat="-3.0882650" lon="37.3724620">
    <ele>5056.0</ele>
    <time>2026-06-23T06:19:58Z</time>
   </trkpt>
   <trkpt lat="-3.0882700" lon="37.3724700">
    <ele>5055.7</ele>
    <time>2026-06-23T06:19:59Z</time>
   </trkpt>
   <trkpt lat="-3.0882700" lon="37.3724750">
    <ele>5055.6</ele>
    <time>2026-06-23T06:20:00Z</time>
   </trkpt>
   <trkpt lat="-3.0882650" lon="37.3724830">
    <ele>5055.3</ele>
    <time>2026-06-23T06:20:01Z</time>
   </trkpt>
   <trkpt lat="-3.0882600" lon="37.3724900">
    <ele>5055.0</ele>
    <time>2026-06-23T06:20:02Z</time>
   </trkpt>
   <trkpt lat="-3.0882630" lon="37.3724910">
    <ele>5054.9</ele>
    <time>2026-06-23T06:20:03Z</time>
   </trkpt>
   <trkpt lat="-3.0882660" lon="37.3724950">
    <ele>5054.7</ele>
    <time>2026-06-23T06:20:04Z</time>
   </trkpt>
   <trkpt lat="-3.0882660" lon="37.3725020">
    <ele>5054.5</ele>
    <time>2026-06-23T06:20:05Z</time>
   </trkpt>
   <trkpt lat="-3.0882680" lon="37.3725100">
    <ele>5054.2</ele>
    <time>2026-06-23T06:20:06Z</time>
   </trkpt>
   <trkpt lat="-3.0882710" lon="37.3725160">
    <ele>5054.0</ele>
    <time>2026-06-23T06:20:07Z</time>
   </trkpt>
   <trkpt lat="-3.0882770" lon="37.3725210">
    <ele>5053.8</ele>
    <time>2026-06-23T06:20:08Z</time>
   </trkpt>
   <trkpt lat="-3.0882850" lon="37.3725270">
    <ele>5053.5</ele>
    <time>2026-06-23T06:20:09Z</time>
   </trkpt>
   <trkpt lat="-3.0882860" lon="37.3725340">
    <ele>5053.3</ele>
    <time>2026-06-23T06:20:10Z</time>
   </trkpt>
   <trkpt lat="-3.0882880" lon="37.3725460">
    <ele>5052.9</ele>
    <time>2026-06-23T06:20:11Z</time>
   </trkpt>
   <trkpt lat="-3.0882910" lon="37.3725540">
    <ele>5052.6</ele>
    <time>2026-06-23T06:20:12Z</time>
   </trkpt>
   <trkpt lat="-3.0882960" lon="37.3725530">
    <ele>5052.4</ele>
    <time>2026-06-23T06:20:13Z</time>
   </trkpt>
   <trkpt lat="-3.0883040" lon="37.3725580">
    <ele>5052.2</ele>
    <time>2026-06-23T06:20:14Z</time>
   </trkpt>
   <trkpt lat="-3.0883130" lon="37.3725610">
    <ele>5051.9</ele>
    <time>2026-06-23T06:20:15Z</time>
   </trkpt>
   <trkpt lat="-3.0883220" lon="37.3725650">
    <ele>5051.5</ele>
    <time>2026-06-23T06:20:16Z</time>
   </trkpt>
   <trkpt lat="-3.0883330" lon="37.3725700">
    <ele>5051.2</ele>
    <time>2026-06-23T06:20:17Z</time>
   </trkpt>
   <trkpt lat="-3.0883420" lon="37.3725720">
    <ele>5050.9</ele>
    <time>2026-06-23T06:20:18Z</time>
   </trkpt>
   <trkpt lat="-3.0883520" lon="37.3725750">
    <ele>5050.6</ele>
    <time>2026-06-23T06:20:19Z</time>
   </trkpt>
   <trkpt lat="-3.0883590" lon="37.3725760">
    <ele>5050.3</ele>
    <time>2026-06-23T06:20:20Z</time>
   </trkpt>
   <trkpt lat="-3.0883650" lon="37.3725780">
    <ele>5050.1</ele>
    <time>2026-06-23T06:20:21Z</time>
   </trkpt>
   <trkpt lat="-3.0883710" lon="37.3725700">
    <ele>5049.8</ele>
    <time>2026-06-23T06:20:22Z</time>
   </trkpt>
   <trkpt lat="-3.0883780" lon="37.3725600">
    <ele>5049.4</ele>
    <time>2026-06-23T06:20:23Z</time>
   </trkpt>
   <trkpt lat="-3.0883850" lon="37.3725520">
    <ele>5049.1</ele>
    <time>2026-06-23T06:20:24Z</time>
   </trkpt>
   <trkpt lat="-3.0883930" lon="37.3725460">
    <ele>5048.8</ele>
    <time>2026-06-23T06:20:25Z</time>
   </trkpt>
   <trkpt lat="-3.0884030" lon="37.3725510">
    <ele>5048.4</ele>
    <time>2026-06-23T06:20:26Z</time>
   </trkpt>
   <trkpt lat="-3.0884130" lon="37.3725520">
    <ele>5048.1</ele>
    <time>2026-06-23T06:20:27Z</time>
   </trkpt>
   <trkpt lat="-3.0884200" lon="37.3725480">
    <ele>5047.8</ele>
    <time>2026-06-23T06:20:28Z</time>
   </trkpt>
   <trkpt lat="-3.0884220" lon="37.3725480">
    <ele>5047.8</ele>
    <time>2026-06-23T06:20:29Z</time>
   </trkpt>
   <trkpt lat="-3.0884310" lon="37.3725510">
    <ele>5047.4</ele>
    <time>2026-06-23T06:20:30Z</time>
   </trkpt>
   <trkpt lat="-3.0884400" lon="37.3725520">
    <ele>5047.1</ele>
    <time>2026-06-23T06:20:31Z</time>
   </trkpt>
   <trkpt lat="-3.0884460" lon="37.3725560">
    <ele>5046.9</ele>
    <time>2026-06-23T06:20:32Z</time>
   </trkpt>
   <trkpt lat="-3.0884540" lon="37.3725620">
    <ele>5046.6</ele>
    <time>2026-06-23T06:20:33Z</time>
   </trkpt>
   <trkpt lat="-3.0884600" lon="37.3725680">
    <ele>5046.3</ele>
    <time>2026-06-23T06:20:34Z</time>
   </trkpt>
   <trkpt lat="-3.0884680" lon="37.3725700">
    <ele>5046.0</ele>
    <time>2026-06-23T06:20:35Z</time>
   </trkpt>
   <trkpt lat="-3.0884740" lon="37.3725670">
    <ele>5045.8</ele>
    <time>2026-06-23T06:20:36Z</time>
   </trkpt>
   <trkpt lat="-3.0884800" lon="37.3725600">
    <ele>5045.5</ele>
    <time>2026-06-23T06:20:37Z</time>
   </trkpt>
   <trkpt lat="-3.0884820" lon="37.3725580">
    <ele>5045.4</ele>
    <time>2026-06-23T06:20:38Z</time>
   </trkpt>
   <trkpt lat="-3.0884880" lon="37.3725630">
    <ele>5045.1</ele>
    <time>2026-06-23T06:20:39Z</time>
   </trkpt>
   <trkpt lat="-3.0884900" lon="37.3725730">
    <ele>5044.8</ele>
    <time>2026-06-23T06:20:40Z</time>
   </trkpt>
   <trkpt lat="-3.0884930" lon="37.3725810">
    <ele>5044.5</ele>
    <time>2026-06-23T06:20:41Z</time>
   </trkpt>
   <trkpt lat="-3.0884970" lon="37.3725830">
    <ele>5044.4</ele>
    <time>2026-06-23T06:20:42Z</time>
   </trkpt>
   <trkpt lat="-3.0885070" lon="37.3725860">
    <ele>5044.0</ele>
    <time>2026-06-23T06:20:43Z</time>
   </trkpt>
   <trkpt lat="-3.0885160" lon="37.3725890">
    <ele>5043.7</ele>
    <time>2026-06-23T06:20:44Z</time>
   </trkpt>
   <trkpt lat="-3.0885240" lon="37.3725890">
    <ele>5043.4</ele>
    <time>2026-06-23T06:20:45Z</time>
   </trkpt>
   <trkpt lat="-3.0885300" lon="37.3725890">
    <ele>5043.2</ele>
    <time>2026-06-23T06:20:46Z</time>
   </trkpt>
   <trkpt lat="-3.0885390" lon="37.3725870">
    <ele>5042.9</ele>
    <time>2026-06-23T06:20:47Z</time>
   </trkpt>
   <trkpt lat="-3.0885440" lon="37.3725880">
    <ele>5042.8</ele>
    <time>2026-06-23T06:20:48Z</time>
   </trkpt>
   <trkpt lat="-3.0885490" lon="37.3725940">
    <ele>5042.5</ele>
    <time>2026-06-23T06:20:49Z</time>
   </trkpt>
   <trkpt lat="-3.0885530" lon="37.3726030">
    <ele>5042.2</ele>
    <time>2026-06-23T06:20:50Z</time>
   </trkpt>
   <trkpt lat="-3.0885530" lon="37.3726140">
    <ele>5041.8</ele>
    <time>2026-06-23T06:20:51Z</time>
   </trkpt>
   <trkpt lat="-3.0885540" lon="37.3726220">
    <ele>5041.5</ele>
    <time>2026-06-23T06:20:52Z</time>
   </trkpt>
   <trkpt lat="-3.0885550" lon="37.3726320">
    <ele>5041.2</ele>
    <time>2026-06-23T06:20:53Z</time>
   </trkpt>
   <trkpt lat="-3.0885610" lon="37.3726370">
    <ele>5041.0</ele>
    <time>2026-06-23T06:20:54Z</time>
   </trkpt>
   <trkpt lat="-3.0885710" lon="37.3726380">
    <ele>5040.6</ele>
    <time>2026-06-23T06:20:55Z</time>
   </trkpt>
   <trkpt lat="-3.0885840" lon="37.3726410">
    <ele>5040.2</ele>
    <time>2026-06-23T06:20:56Z</time>
   </trkpt>
   <trkpt lat="-3.0885990" lon="37.3726430">
    <ele>5039.7</ele>
    <time>2026-06-23T06:20:57Z</time>
   </trkpt>
   <trkpt lat="-3.0886100" lon="37.3726440">
    <ele>5039.3</ele>
    <time>2026-06-23T06:20:58Z</time>
   </trkpt>
   <trkpt lat="-3.0886160" lon="37.3726400">
    <ele>5039.1</ele>
    <time>2026-06-23T06:20:59Z</time>
   </trkpt>
   <trkpt lat="-3.0886260" lon="37.3726320">
    <ele>5038.6</ele>
    <time>2026-06-23T06:21:00Z</time>
   </trkpt>
   <trkpt lat="-3.0886370" lon="37.3726310">
    <ele>5038.3</ele>
    <time>2026-06-23T06:21:01Z</time>
   </trkpt>
   <trkpt lat="-3.0886410" lon="37.3726290">
    <ele>5038.1</ele>
    <time>2026-06-23T06:21:02Z</time>
   </trkpt>
   <trkpt lat="-3.0886450" lon="37.3726270">
    <ele>5038.0</ele>
    <time>2026-06-23T06:21:03Z</time>
   </trkpt>
   <trkpt lat="-3.0886550" lon="37.3726310">
    <ele>5037.6</ele>
    <time>2026-06-23T06:21:04Z</time>
   </trkpt>
   <trkpt lat="-3.0886560" lon="37.3726400">
    <ele>5037.3</ele>
    <time>2026-06-23T06:21:05Z</time>
   </trkpt>
   <trkpt lat="-3.0886560" lon="37.3726540">
    <ele>5036.8</ele>
    <time>2026-06-23T06:21:06Z</time>
   </trkpt>
   <trkpt lat="-3.0886550" lon="37.3726540">
    <ele>5036.8</ele>
    <time>2026-06-23T06:21:07Z</time>
   </trkpt>
   <trkpt lat="-3.0886660" lon="37.3726580">
    <ele>5036.4</ele>
    <time>2026-06-23T06:21:08Z</time>
   </trkpt>
   <trkpt lat="-3.0886810" lon="37.3726640">
    <ele>5035.8</ele>
    <time>2026-06-23T06:21:09Z</time>
   </trkpt>
   <trkpt lat="-3.0886910" lon="37.3726650">
    <ele>5035.5</ele>
    <time>2026-06-23T06:21:10Z</time>
   </trkpt>
   <trkpt lat="-3.0887020" lon="37.3726660">
    <ele>5035.1</ele>
    <time>2026-06-23T06:21:11Z</time>
   </trkpt>
   <trkpt lat="-3.0887120" lon="37.3726710">
    <ele>5034.7</ele>
    <time>2026-06-23T06:21:12Z</time>
   </trkpt>
   <trkpt lat="-3.0887190" lon="37.3726750">
    <ele>5034.4</ele>
    <time>2026-06-23T06:21:13Z</time>
   </trkpt>
   <trkpt lat="-3.0887310" lon="37.3726820">
    <ele>5034.0</ele>
    <time>2026-06-23T06:21:14Z</time>
   </trkpt>
   <trkpt lat="-3.0887390" lon="37.3726850">
    <ele>5033.7</ele>
    <time>2026-06-23T06:21:15Z</time>
   </trkpt>
   <trkpt lat="-3.0887500" lon="37.3726880">
    <ele>5033.3</ele>
    <time>2026-06-23T06:21:16Z</time>
   </trkpt>
   <trkpt lat="-3.0887540" lon="37.3726940">
    <ele>5033.0</ele>
    <time>2026-06-23T06:21:17Z</time>
   </trkpt>
   <trkpt lat="-3.0887540" lon="37.3727040">
    <ele>5032.7</ele>
    <time>2026-06-23T06:21:18Z</time>
   </trkpt>
   <trkpt lat="-3.0887570" lon="37.3727190">
    <ele>5032.1</ele>
    <time>2026-06-23T06:21:19Z</time>
   </trkpt>
   <trkpt lat="-3.0887600" lon="37.3727280">
    <ele>5031.8</ele>
    <time>2026-06-23T06:21:20Z</time>
   </trkpt>
   <trkpt lat="-3.0887660" lon="37.3727380">
    <ele>5031.4</ele>
    <time>2026-06-23T06:21:21Z</time>
   </trkpt>
   <trkpt lat="-3.0887730" lon="37.3727460">
    <ele>5031.0</ele>
    <time>2026-06-23T06:21:22Z</time>
   </trkpt>
   <trkpt lat="-3.0887860" lon="37.3727480">
    <ele>5030.6</ele>
    <time>2026-06-23T06:21:23Z</time>
   </trkpt>
   <trkpt lat="-3.0887990" lon="37.3727400">
    <ele>5030.1</ele>
    <time>2026-06-23T06:21:24Z</time>
   </trkpt>
   <trkpt lat="-3.0888040" lon="37.3727300">
    <ele>5029.7</ele>
    <time>2026-06-23T06:21:25Z</time>
   </trkpt>
   <trkpt lat="-3.0888100" lon="37.3727230">
    <ele>5029.3</ele>
    <time>2026-06-23T06:21:26Z</time>
   </trkpt>
   <trkpt lat="-3.0888140" lon="37.3727270">
    <ele>5029.1</ele>
    <time>2026-06-23T06:21:27Z</time>
   </trkpt>
   <trkpt lat="-3.0888180" lon="37.3727330">
    <ele>5028.9</ele>
    <time>2026-06-23T06:21:28Z</time>
   </trkpt>
   <trkpt lat="-3.0888270" lon="37.3727400">
    <ele>5028.5</ele>
    <time>2026-06-23T06:21:29Z</time>
   </trkpt>
   <trkpt lat="-3.0888380" lon="37.3727460">
    <ele>5028.1</ele>
    <time>2026-06-23T06:21:30Z</time>
   </trkpt>
   <trkpt lat="-3.0888450" lon="37.3727480">
    <ele>5027.8</ele>
    <time>2026-06-23T06:21:31Z</time>
   </trkpt>
   <trkpt lat="-3.0888520" lon="37.3727510">
    <ele>5027.5</ele>
    <time>2026-06-23T06:21:32Z</time>
   </trkpt>
   <trkpt lat="-3.0888610" lon="37.3727540">
    <ele>5027.2</ele>
    <time>2026-06-23T06:21:33Z</time>
   </trkpt>
   <trkpt lat="-3.0888690" lon="37.3727540">
    <ele>5026.9</ele>
    <time>2026-06-23T06:21:34Z</time>
   </trkpt>
   <trkpt lat="-3.0888790" lon="37.3727570">
    <ele>5026.5</ele>
    <time>2026-06-23T06:21:35Z</time>
   </trkpt>
   <trkpt lat="-3.0888890" lon="37.3727580">
    <ele>5026.1</ele>
    <time>2026-06-23T06:21:36Z</time>
   </trkpt>
   <trkpt lat="-3.0888960" lon="37.3727580">
    <ele>5025.9</ele>
    <time>2026-06-23T06:21:37Z</time>
   </trkpt>
   <trkpt lat="-3.0889020" lon="37.3727570">
    <ele>5025.7</ele>
    <time>2026-06-23T06:21:38Z</time>
   </trkpt>
   <trkpt lat="-3.0889090" lon="37.3727490">
    <ele>5025.3</ele>
    <time>2026-06-23T06:21:39Z</time>
   </trkpt>
   <trkpt lat="-3.0889160" lon="37.3727450">
    <ele>5025.0</ele>
    <time>2026-06-23T06:21:40Z</time>
   </trkpt>
   <trkpt lat="-3.0889250" lon="37.3727420">
    <ele>5024.6</ele>
    <time>2026-06-23T06:21:41Z</time>
   </trkpt>
   <trkpt lat="-3.0889250" lon="37.3727460">
    <ele>5024.5</ele>
    <time>2026-06-23T06:21:42Z</time>
   </trkpt>
   <trkpt lat="-3.0889290" lon="37.3727450">
    <ele>5024.3</ele>
    <time>2026-06-23T06:21:43Z</time>
   </trkpt>
   <trkpt lat="-3.0889370" lon="37.3727440">
    <ele>5024.0</ele>
    <time>2026-06-23T06:21:44Z</time>
   </trkpt>
   <trkpt lat="-3.0889390" lon="37.3727440">
    <ele>5023.9</ele>
    <time>2026-06-23T06:21:45Z</time>
   </trkpt>
   <trkpt lat="-3.0889420" lon="37.3727470">
    <ele>5023.8</ele>
    <time>2026-06-23T06:21:46Z</time>
   </trkpt>
   <trkpt lat="-3.0889440" lon="37.3727520">
    <ele>5023.6</ele>
    <time>2026-06-23T06:21:47Z</time>
   </trkpt>
   <trkpt lat="-3.0889440" lon="37.3727590">
    <ele>5023.3</ele>
    <time>2026-06-23T06:21:48Z</time>
   </trkpt>
   <trkpt lat="-3.0889430" lon="37.3727610">
    <ele>5023.2</ele>
    <time>2026-06-23T06:21:49Z</time>
   </trkpt>
   <trkpt lat="-3.0889420" lon="37.3727740">
    <ele>5022.7</ele>
    <time>2026-06-23T06:21:50Z</time>
   </trkpt>
   <trkpt lat="-3.0889440" lon="37.3727830">
    <ele>5022.4</ele>
    <time>2026-06-23T06:21:51Z</time>
   </trkpt>
   <trkpt lat="-3.0889440" lon="37.3727990">
    <ele>5021.8</ele>
    <time>2026-06-23T06:21:52Z</time>
   </trkpt>
   <trkpt lat="-3.0889420" lon="37.3728070">
    <ele>5021.5</ele>
    <time>2026-06-23T06:21:53Z</time>
   </trkpt>
   <trkpt lat="-3.0889480" lon="37.3728200">
    <ele>5020.9</ele>
    <time>2026-06-23T06:21:54Z</time>
   </trkpt>
   <trkpt lat="-3.0889580" lon="37.3728310">
    <ele>5020.3</ele>
    <time>2026-06-23T06:21:55Z</time>
   </trkpt>
   <trkpt lat="-3.0889660" lon="37.3728380">
    <ele>5019.9</ele>
    <time>2026-06-23T06:21:56Z</time>
   </trkpt>
   <trkpt lat="-3.0889720" lon="37.3728460">
    <ele>5019.6</ele>
    <time>2026-06-23T06:21:57Z</time>
   </trkpt>
   <trkpt lat="-3.0889820" lon="37.3728550">
    <ele>5019.1</ele>
    <time>2026-06-23T06:21:58Z</time>
   </trkpt>
   <trkpt lat="-3.0889900" lon="37.3728630">
    <ele>5018.7</ele>
    <time>2026-06-23T06:21:59Z</time>
   </trkpt>
   <trkpt lat="-3.0889930" lon="37.3728740">
    <ele>5018.3</ele>
    <time>2026-06-23T06:22:00Z</time>
   </trkpt>
   <trkpt lat="-3.0889980" lon="37.3728850">
    <ele>5017.9</ele>
    <time>2026-06-23T06:22:01Z</time>
   </trkpt>
   <trkpt lat="-3.0890030" lon="37.3728920">
    <ele>5017.6</ele>
    <time>2026-06-23T06:22:02Z</time>
   </trkpt>
   <trkpt lat="-3.0890070" lon="37.3729010">
    <ele>5017.3</ele>
    <time>2026-06-23T06:22:03Z</time>
   </trkpt>
   <trkpt lat="-3.0890130" lon="37.3729160">
    <ele>5016.7</ele>
    <time>2026-06-23T06:22:04Z</time>
   </trkpt>
   <trkpt lat="-3.0890200" lon="37.3729270">
    <ele>5016.2</ele>
    <time>2026-06-23T06:22:05Z</time>
   </trkpt>
   <trkpt lat="-3.0890280" lon="37.3729380">
    <ele>5015.8</ele>
    <time>2026-06-23T06:22:06Z</time>
   </trkpt>
   <trkpt lat="-3.0890370" lon="37.3729470">
    <ele>5015.3</ele>
    <time>2026-06-23T06:22:07Z</time>
   </trkpt>
   <trkpt lat="-3.0890470" lon="37.3729540">
    <ele>5014.9</ele>
    <time>2026-06-23T06:22:08Z</time>
   </trkpt>
   <trkpt lat="-3.0890570" lon="37.3729630">
    <ele>5014.5</ele>
    <time>2026-06-23T06:22:09Z</time>
   </trkpt>
   <trkpt lat="-3.0890650" lon="37.3729730">
    <ele>5014.0</ele>
    <time>2026-06-23T06:22:10Z</time>
   </trkpt>
   <trkpt lat="-3.0890720" lon="37.3729850">
    <ele>5013.6</ele>
    <time>2026-06-23T06:22:11Z</time>
   </trkpt>
   <trkpt lat="-3.0890770" lon="37.3729970">
    <ele>5013.1</ele>
    <time>2026-06-23T06:22:12Z</time>
   </trkpt>
   <trkpt lat="-3.0890860" lon="37.3730060">
    <ele>5012.7</ele>
    <time>2026-06-23T06:22:13Z</time>
   </trkpt>
   <trkpt lat="-3.0890960" lon="37.3730150">
    <ele>5012.2</ele>
    <time>2026-06-23T06:22:14Z</time>
   </trkpt>
   <trkpt lat="-3.0891050" lon="37.3730260">
    <ele>5011.8</ele>
    <time>2026-06-23T06:22:15Z</time>
   </trkpt>
   <trkpt lat="-3.0891140" lon="37.3730360">
    <ele>5011.3</ele>
    <time>2026-06-23T06:22:16Z</time>
   </trkpt>
   <trkpt lat="-3.0891180" lon="37.3730480">
    <ele>5010.9</ele>
    <time>2026-06-23T06:22:17Z</time>
   </trkpt>
   <trkpt lat="-3.0891230" lon="37.3730610">
    <ele>5010.5</ele>
    <time>2026-06-23T06:22:18Z</time>
   </trkpt>
   <trkpt lat="-3.0891310" lon="37.3730710">
    <ele>5010.0</ele>
    <time>2026-06-23T06:22:19Z</time>
   </trkpt>
   <trkpt lat="-3.0891350" lon="37.3730820">
    <ele>5009.7</ele>
    <time>2026-06-23T06:22:20Z</time>
   </trkpt>
   <trkpt lat="-3.0891400" lon="37.3730920">
    <ele>5009.3</ele>
    <time>2026-06-23T06:22:21Z</time>
   </trkpt>
   <trkpt lat="-3.0891470" lon="37.3731000">
    <ele>5009.0</ele>
    <time>2026-06-23T06:22:22Z</time>
   </trkpt>
   <trkpt lat="-3.0891600" lon="37.3731060">
    <ele>5008.5</ele>
    <time>2026-06-23T06:22:23Z</time>
   </trkpt>
   <trkpt lat="-3.0891740" lon="37.3731130">
    <ele>5008.0</ele>
    <time>2026-06-23T06:22:24Z</time>
   </trkpt>
   <trkpt lat="-3.0891880" lon="37.3731140">
    <ele>5007.5</ele>
    <time>2026-06-23T06:22:25Z</time>
   </trkpt>
   <trkpt lat="-3.0892040" lon="37.3731190">
    <ele>5007.0</ele>
    <time>2026-06-23T06:22:26Z</time>
   </trkpt>
   <trkpt lat="-3.0892170" lon="37.3731240">
    <ele>5006.5</ele>
    <time>2026-06-23T06:22:27Z</time>
   </trkpt>
   <trkpt lat="-3.0892320" lon="37.3731250">
    <ele>5006.0</ele>
    <time>2026-06-23T06:22:28Z</time>
   </trkpt>
   <trkpt lat="-3.0892490" lon="37.3731280">
    <ele>5005.5</ele>
    <time>2026-06-23T06:22:29Z</time>
   </trkpt>
   <trkpt lat="-3.0892590" lon="37.3731300">
    <ele>5005.1</ele>
    <time>2026-06-23T06:22:30Z</time>
   </trkpt>
   <trkpt lat="-3.0892760" lon="37.3731340">
    <ele>5004.6</ele>
    <time>2026-06-23T06:22:31Z</time>
   </trkpt>
   <trkpt lat="-3.0892910" lon="37.3731370">
    <ele>5004.1</ele>
    <time>2026-06-23T06:22:32Z</time>
   </trkpt>
   <trkpt lat="-3.0893080" lon="37.3731430">
    <ele>5003.5</ele>
    <time>2026-06-23T06:22:33Z</time>
   </trkpt>
   <trkpt lat="-3.0893210" lon="37.3731490">
    <ele>5003.0</ele>
    <time>2026-06-23T06:22:34Z</time>
   </trkpt>
   <trkpt lat="-3.0893360" lon="37.3731550">
    <ele>5002.5</ele>
    <time>2026-06-23T06:22:35Z</time>
   </trkpt>
   <trkpt lat="-3.0893510" lon="37.3731610">
    <ele>5002.0</ele>
    <time>2026-06-23T06:22:36Z</time>
   </trkpt>
   <trkpt lat="-3.0893620" lon="37.3731630">
    <ele>5001.6</ele>
    <time>2026-06-23T06:22:37Z</time>
   </trkpt>
   <trkpt lat="-3.0893770" lon="37.3731590">
    <ele>5001.1</ele>
    <time>2026-06-23T06:22:38Z</time>
   </trkpt>
   <trkpt lat="-3.0893890" lon="37.3731510">
    <ele>5000.6</ele>
    <time>2026-06-23T06:22:39Z</time>
   </trkpt>
   <trkpt lat="-3.0893960" lon="37.3731430">
    <ele>5000.3</ele>
    <time>2026-06-23T06:22:40Z</time>
   </trkpt>
   <trkpt lat="-3.0894020" lon="37.3731350">
    <ele>5000.0</ele>
    <time>2026-06-23T06:22:41Z</time>
   </trkpt>
   <trkpt lat="-3.0894080" lon="37.3731280">
    <ele>4999.7</ele>
    <time>2026-06-23T06:22:42Z</time>
   </trkpt>
   <trkpt lat="-3.0894110" lon="37.3731190">
    <ele>4999.4</ele>
    <time>2026-06-23T06:22:43Z</time>
   </trkpt>
   <trkpt lat="-3.0894140" lon="37.3731130">
    <ele>4999.1</ele>
    <time>2026-06-23T06:22:44Z</time>
   </trkpt>
   <trkpt lat="-3.0894210" lon="37.3731160">
    <ele>4998.9</ele>
    <time>2026-06-23T06:22:45Z</time>
   </trkpt>
   <trkpt lat="-3.0894290" lon="37.3731240">
    <ele>4998.5</ele>
    <time>2026-06-23T06:22:46Z</time>
   </trkpt>
   <trkpt lat="-3.0894340" lon="37.3731310">
    <ele>4998.3</ele>
    <time>2026-06-23T06:22:47Z</time>
   </trkpt>
   <trkpt lat="-3.0894370" lon="37.3731410">
    <ele>4997.9</ele>
    <time>2026-06-23T06:22:48Z</time>
   </trkpt>
   <trkpt lat="-3.0894400" lon="37.3731470">
    <ele>4997.7</ele>
    <time>2026-06-23T06:22:49Z</time>
   </trkpt>
   <trkpt lat="-3.0894410" lon="37.3731490">
    <ele>4997.6</ele>
    <time>2026-06-23T06:22:50Z</time>
   </trkpt>
   <trkpt lat="-3.0894490" lon="37.3731490">
    <ele>4997.4</ele>
    <time>2026-06-23T06:22:51Z</time>
   </trkpt>
   <trkpt lat="-3.0894590" lon="37.3731450">
    <ele>4997.0</ele>
    <time>2026-06-23T06:22:52Z</time>
   </trkpt>
   <trkpt lat="-3.0894640" lon="37.3731430">
    <ele>4996.8</ele>
    <time>2026-06-23T06:22:53Z</time>
   </trkpt>
   <trkpt lat="-3.0894690" lon="37.3731390">
    <ele>4996.6</ele>
    <time>2026-06-23T06:22:54Z</time>
   </trkpt>
   <trkpt lat="-3.0894780" lon="37.3731380">
    <ele>4996.3</ele>
    <time>2026-06-23T06:22:55Z</time>
   </trkpt>
   <trkpt lat="-3.0894910" lon="37.3731290">
    <ele>4995.8</ele>
    <time>2026-06-23T06:22:56Z</time>
   </trkpt>
   <trkpt lat="-3.0894970" lon="37.3731260">
    <ele>4995.6</ele>
    <time>2026-06-23T06:22:57Z</time>
   </trkpt>
   <trkpt lat="-3.0895010" lon="37.3731320">
    <ele>4995.4</ele>
    <time>2026-06-23T06:22:58Z</time>
   </trkpt>
   <trkpt lat="-3.0895000" lon="37.3731390">
    <ele>4995.1</ele>
    <time>2026-06-23T06:22:59Z</time>
   </trkpt>
   <trkpt lat="-3.0894990" lon="37.3731480">
    <ele>4994.8</ele>
    <time>2026-06-23T06:23:00Z</time>
   </trkpt>
   <trkpt lat="-3.0894990" lon="37.3731630">
    <ele>4994.4</ele>
    <time>2026-06-23T06:23:01Z</time>
   </trkpt>
   <trkpt lat="-3.0895030" lon="37.3731660">
    <ele>4994.2</ele>
    <time>2026-06-23T06:23:02Z</time>
   </trkpt>
   <trkpt lat="-3.0895140" lon="37.3731670">
    <ele>4993.9</ele>
    <time>2026-06-23T06:23:03Z</time>
   </trkpt>
   <trkpt lat="-3.0895270" lon="37.3731650">
    <ele>4993.5</ele>
    <time>2026-06-23T06:23:04Z</time>
   </trkpt>
   <trkpt lat="-3.0895400" lon="37.3731650">
    <ele>4993.1</ele>
    <time>2026-06-23T06:23:05Z</time>
   </trkpt>
   <trkpt lat="-3.0895510" lon="37.3731640">
    <ele>4992.7</ele>
    <time>2026-06-23T06:23:06Z</time>
   </trkpt>
   <trkpt lat="-3.0895570" lon="37.3731650">
    <ele>4992.5</ele>
    <time>2026-06-23T06:23:07Z</time>
   </trkpt>
   <trkpt lat="-3.0895610" lon="37.3731710">
    <ele>4992.3</ele>
    <time>2026-06-23T06:23:08Z</time>
   </trkpt>
   <trkpt lat="-3.0895610" lon="37.3731820">
    <ele>4992.0</ele>
    <time>2026-06-23T06:23:09Z</time>
   </trkpt>
   <trkpt lat="-3.0895610" lon="37.3731980">
    <ele>4991.5</ele>
    <time>2026-06-23T06:23:10Z</time>
   </trkpt>
   <trkpt lat="-3.0895590" lon="37.3732080">
    <ele>4991.2</ele>
    <time>2026-06-23T06:23:11Z</time>
   </trkpt>
   <trkpt lat="-3.0895570" lon="37.3732170">
    <ele>4990.9</ele>
    <time>2026-06-23T06:23:12Z</time>
   </trkpt>
   <trkpt lat="-3.0895580" lon="37.3732280">
    <ele>4990.6</ele>
    <time>2026-06-23T06:23:13Z</time>
   </trkpt>
   <trkpt lat="-3.0895600" lon="37.3732370">
    <ele>4990.3</ele>
    <time>2026-06-23T06:23:14Z</time>
   </trkpt>
   <trkpt lat="-3.0895630" lon="37.3732470">
    <ele>4990.0</ele>
    <time>2026-06-23T06:23:15Z</time>
   </trkpt>
   <trkpt lat="-3.0895660" lon="37.3732560">
    <ele>4989.7</ele>
    <time>2026-06-23T06:23:16Z</time>
   </trkpt>
   <trkpt lat="-3.0895670" lon="37.3732640">
    <ele>4989.4</ele>
    <time>2026-06-23T06:23:17Z</time>
   </trkpt>
   <trkpt lat="-3.0895670" lon="37.3732730">
    <ele>4989.2</ele>
    <time>2026-06-23T06:23:18Z</time>
   </trkpt>
   <trkpt lat="-3.0895700" lon="37.3732820">
    <ele>4988.9</ele>
    <time>2026-06-23T06:23:19Z</time>
   </trkpt>
   <trkpt lat="-3.0895730" lon="37.3732930">
    <ele>4988.5</ele>
    <time>2026-06-23T06:23:20Z</time>
   </trkpt>
   <trkpt lat="-3.0895710" lon="37.3733030">
    <ele>4988.2</ele>
    <time>2026-06-23T06:23:21Z</time>
   </trkpt>
   <trkpt lat="-3.0895670" lon="37.3733130">
    <ele>4987.9</ele>
    <time>2026-06-23T06:23:22Z</time>
   </trkpt>
   <trkpt lat="-3.0895610" lon="37.3733230">
    <ele>4987.6</ele>
    <time>2026-06-23T06:23:23Z</time>
   </trkpt>
   <trkpt lat="-3.0895570" lon="37.3733330">
    <ele>4987.2</ele>
    <time>2026-06-23T06:23:24Z</time>
   </trkpt>
   <trkpt lat="-3.0895560" lon="37.3733440">
    <ele>4986.9</ele>
    <time>2026-06-23T06:23:25Z</time>
   </trkpt>
   <trkpt lat="-3.0895650" lon="37.3733500">
    <ele>4986.6</ele>
    <time>2026-06-23T06:23:26Z</time>
   </trkpt>
   <trkpt lat="-3.0895770" lon="37.3733570">
    <ele>4986.2</ele>
    <time>2026-06-23T06:23:27Z</time>
   </trkpt>
   <trkpt lat="-3.0895860" lon="37.3733560">
    <ele>4985.9</ele>
    <time>2026-06-23T06:23:28Z</time>
   </trkpt>
   <trkpt lat="-3.0895950" lon="37.3733550">
    <ele>4985.6</ele>
    <time>2026-06-23T06:23:29Z</time>
   </trkpt>
   <trkpt lat="-3.0896020" lon="37.3733500">
    <ele>4985.4</ele>
    <time>2026-06-23T06:23:30Z</time>
   </trkpt>
   <trkpt lat="-3.0896090" lon="37.3733460">
    <ele>4985.1</ele>
    <time>2026-06-23T06:23:31Z</time>
   </trkpt>
   <trkpt lat="-3.0896190" lon="37.3733430">
    <ele>4984.8</ele>
    <time>2026-06-23T06:23:32Z</time>
   </trkpt>
   <trkpt lat="-3.0896200" lon="37.3733390">
    <ele>4984.7</ele>
    <time>2026-06-23T06:23:33Z</time>
   </trkpt>
   <trkpt lat="-3.0896220" lon="37.3733410">
    <ele>4984.6</ele>
    <time>2026-06-23T06:23:34Z</time>
   </trkpt>
   <trkpt lat="-3.0896290" lon="37.3733500">
    <ele>4984.3</ele>
    <time>2026-06-23T06:23:35Z</time>
   </trkpt>
   <trkpt lat="-3.0896410" lon="37.3733630">
    <ele>4983.7</ele>
    <time>2026-06-23T06:23:36Z</time>
   </trkpt>
   <trkpt lat="-3.0896540" lon="37.3733740">
    <ele>4983.2</ele>
    <time>2026-06-23T06:23:37Z</time>
   </trkpt>
   <trkpt lat="-3.0896660" lon="37.3733770">
    <ele>4982.9</ele>
    <time>2026-06-23T06:23:38Z</time>
   </trkpt>
   <trkpt lat="-3.0896770" lon="37.3733780">
    <ele>4982.5</ele>
    <time>2026-06-23T06:23:39Z</time>
   </trkpt>
   <trkpt lat="-3.0896770" lon="37.3733710">
    <ele>4982.3</ele>
    <time>2026-06-23T06:23:40Z</time>
   </trkpt>
   <trkpt lat="-3.0896830" lon="37.3733680">
    <ele>4982.1</ele>
    <time>2026-06-23T06:23:41Z</time>
   </trkpt>
   <trkpt lat="-3.0896930" lon="37.3733660">
    <ele>4981.8</ele>
    <time>2026-06-23T06:23:42Z</time>
   </trkpt>
   <trkpt lat="-3.0896990" lon="37.3733710">
    <ele>4981.6</ele>
    <time>2026-06-23T06:23:43Z</time>
   </trkpt>
   <trkpt lat="-3.0897100" lon="37.3733770">
    <ele>4981.2</ele>
    <time>2026-06-23T06:23:44Z</time>
   </trkpt>
   <trkpt lat="-3.0897240" lon="37.3733810">
    <ele>4980.8</ele>
    <time>2026-06-23T06:23:45Z</time>
   </trkpt>
   <trkpt lat="-3.0897410" lon="37.3733810">
    <ele>4980.3</ele>
    <time>2026-06-23T06:23:46Z</time>
   </trkpt>
   <trkpt lat="-3.0897540" lon="37.3733740">
    <ele>4979.8</ele>
    <time>2026-06-23T06:23:47Z</time>
   </trkpt>
   <trkpt lat="-3.0897700" lon="37.3733870">
    <ele>4979.2</ele>
    <time>2026-06-23T06:23:48Z</time>
   </trkpt>
   <trkpt lat="-3.0897830" lon="37.3733920">
    <ele>4978.8</ele>
    <time>2026-06-23T06:23:49Z</time>
   </trkpt>
   <trkpt lat="-3.0897960" lon="37.3733970">
    <ele>4978.4</ele>
    <time>2026-06-23T06:23:50Z</time>
   </trkpt>
   <trkpt lat="-3.0898080" lon="37.3734020">
    <ele>4978.0</ele>
    <time>2026-06-23T06:23:51Z</time>
   </trkpt>
   <trkpt lat="-3.0898210" lon="37.3734080">
    <ele>4977.6</ele>
    <time>2026-06-23T06:23:52Z</time>
   </trkpt>
   <trkpt lat="-3.0898330" lon="37.3734130">
    <ele>4977.2</ele>
    <time>2026-06-23T06:23:53Z</time>
   </trkpt>
   <trkpt lat="-3.0898420" lon="37.3734180">
    <ele>4976.9</ele>
    <time>2026-06-23T06:23:54Z</time>
   </trkpt>
   <trkpt lat="-3.0898520" lon="37.3734220">
    <ele>4976.5</ele>
    <time>2026-06-23T06:23:55Z</time>
   </trkpt>
   <trkpt lat="-3.0898580" lon="37.3734300">
    <ele>4976.2</ele>
    <time>2026-06-23T06:23:56Z</time>
   </trkpt>
   <trkpt lat="-3.0898660" lon="37.3734390">
    <ele>4975.9</ele>
    <time>2026-06-23T06:23:57Z</time>
   </trkpt>
   <trkpt lat="-3.0898660" lon="37.3734510">
    <ele>4975.5</ele>
    <time>2026-06-23T06:23:58Z</time>
   </trkpt>
   <trkpt lat="-3.0898560" lon="37.3734610">
    <ele>4975.2</ele>
    <time>2026-06-23T06:23:59Z</time>
   </trkpt>
   <trkpt lat="-3.0898400" lon="37.3734650">
    <ele>4974.7</ele>
    <time>2026-06-23T06:24:00Z</time>
   </trkpt>
   <trkpt lat="-3.0898270" lon="37.3734710">
    <ele>4974.3</ele>
    <time>2026-06-23T06:24:01Z</time>
   </trkpt>
   <trkpt lat="-3.0898280" lon="37.3734810">
    <ele>4974.0</ele>
    <time>2026-06-23T06:24:02Z</time>
   </trkpt>
   <trkpt lat="-3.0898400" lon="37.3734920">
    <ele>4973.6</ele>
    <time>2026-06-23T06:24:03Z</time>
   </trkpt>
   <trkpt lat="-3.0898450" lon="37.3734960">
    <ele>4973.4</ele>
    <time>2026-06-23T06:24:04Z</time>
   </trkpt>
   <trkpt lat="-3.0898410" lon="37.3735000">
    <ele>4973.3</ele>
    <time>2026-06-23T06:24:05Z</time>
   </trkpt>
   <trkpt lat="-3.0898450" lon="37.3735110">
    <ele>4972.9</ele>
    <time>2026-06-23T06:24:06Z</time>
   </trkpt>
   <trkpt lat="-3.0898530" lon="37.3735200">
    <ele>4972.6</ele>
    <time>2026-06-23T06:24:07Z</time>
   </trkpt>
   <trkpt lat="-3.0898640" lon="37.3735310">
    <ele>4972.2</ele>
    <time>2026-06-23T06:24:08Z</time>
   </trkpt>
   <trkpt lat="-3.0898750" lon="37.3735350">
    <ele>4971.9</ele>
    <time>2026-06-23T06:24:09Z</time>
   </trkpt>
   <trkpt lat="-3.0898820" lon="37.3735420">
    <ele>4971.6</ele>
    <time>2026-06-23T06:24:10Z</time>
   </trkpt>
   <trkpt lat="-3.0898810" lon="37.3735480">
    <ele>4971.4</ele>
    <time>2026-06-23T06:24:11Z</time>
   </trkpt>
   <trkpt lat="-3.0898750" lon="37.3735520">
    <ele>4971.2</ele>
    <time>2026-06-23T06:24:12Z</time>
   </trkpt>
   <trkpt lat="-3.0898730" lon="37.3735640">
    <ele>4970.9</ele>
    <time>2026-06-23T06:24:13Z</time>
   </trkpt>
   <trkpt lat="-3.0898710" lon="37.3735760">
    <ele>4970.6</ele>
    <time>2026-06-23T06:24:14Z</time>
   </trkpt>
   <trkpt lat="-3.0898690" lon="37.3735840">
    <ele>4970.3</ele>
    <time>2026-06-23T06:24:15Z</time>
   </trkpt>
   <trkpt lat="-3.0898700" lon="37.3735940">
    <ele>4970.1</ele>
    <time>2026-06-23T06:24:16Z</time>
   </trkpt>
   <trkpt lat="-3.0898710" lon="37.3736020">
    <ele>4969.8</ele>
    <time>2026-06-23T06:24:17Z</time>
   </trkpt>
   <trkpt lat="-3.0898760" lon="37.3736100">
    <ele>4969.6</ele>
    <time>2026-06-23T06:24:18Z</time>
   </trkpt>
   <trkpt lat="-3.0898770" lon="37.3736150">
    <ele>4969.4</ele>
    <time>2026-06-23T06:24:19Z</time>
   </trkpt>
   <trkpt lat="-3.0898830" lon="37.3736260">
    <ele>4969.1</ele>
    <time>2026-06-23T06:24:20Z</time>
   </trkpt>
   <trkpt lat="-3.0898850" lon="37.3736330">
    <ele>4968.9</ele>
    <time>2026-06-23T06:24:21Z</time>
   </trkpt>
   <trkpt lat="-3.0898900" lon="37.3736390">
    <ele>4968.7</ele>
    <time>2026-06-23T06:24:22Z</time>
   </trkpt>
   <trkpt lat="-3.0898940" lon="37.3736470">
    <ele>4968.4</ele>
    <time>2026-06-23T06:24:23Z</time>
   </trkpt>
   <trkpt lat="-3.0898980" lon="37.3736550">
    <ele>4968.2</ele>
    <time>2026-06-23T06:24:24Z</time>
   </trkpt>
   <trkpt lat="-3.0899030" lon="37.3736620">
    <ele>4968.0</ele>
    <time>2026-06-23T06:24:25Z</time>
   </trkpt>
   <trkpt lat="-3.0899060" lon="37.3736700">
    <ele>4967.7</ele>
    <time>2026-06-23T06:24:26Z</time>
   </trkpt>
   <trkpt lat="-3.0899080" lon="37.3736780">
    <ele>4967.5</ele>
    <time>2026-06-23T06:24:27Z</time>
   </trkpt>
   <trkpt lat="-3.0899040" lon="37.3736910">
    <ele>4967.1</ele>
    <time>2026-06-23T06:24:28Z</time>
   </trkpt>
   <trkpt lat="-3.0899020" lon="37.3736980">
    <ele>4966.9</ele>
    <time>2026-06-23T06:24:29Z</time>
   </trkpt>
   <trkpt lat="-3.0899030" lon="37.3737070">
    <ele>4966.7</ele>
    <time>2026-06-23T06:24:30Z</time>
   </trkpt>
   <trkpt lat="-3.0899050" lon="37.3737200">
    <ele>4966.3</ele>
    <time>2026-06-23T06:24:31Z</time>
   </trkpt>
   <trkpt lat="-3.0899120" lon="37.3737330">
    <ele>4965.9</ele>
    <time>2026-06-23T06:24:32Z</time>
   </trkpt>
   <trkpt lat="-3.0899210" lon="37.3737390">
    <ele>4965.6</ele>
    <time>2026-06-23T06:24:33Z</time>
   </trkpt>
   <trkpt lat="-3.0899340" lon="37.3737440">
    <ele>4965.2</ele>
    <time>2026-06-23T06:24:34Z</time>
   </trkpt>
   <trkpt lat="-3.0899400" lon="37.3737460">
    <ele>4965.1</ele>
    <time>2026-06-23T06:24:35Z</time>
   </trkpt>
   <trkpt lat="-3.0899460" lon="37.3737520">
    <ele>4964.8</ele>
    <time>2026-06-23T06:24:36Z</time>
   </trkpt>
   <trkpt lat="-3.0899490" lon="37.3737600">
    <ele>4964.6</ele>
    <time>2026-06-23T06:24:37Z</time>
   </trkpt>
   <trkpt lat="-3.0899530" lon="37.3737680">
    <ele>4964.4</ele>
    <time>2026-06-23T06:24:38Z</time>
   </trkpt>
   <trkpt lat="-3.0899580" lon="37.3737780">
    <ele>4964.1</ele>
    <time>2026-06-23T06:24:39Z</time>
   </trkpt>
   <trkpt lat="-3.0899620" lon="37.3737850">
    <ele>4963.8</ele>
    <time>2026-06-23T06:24:40Z</time>
   </trkpt>
   <trkpt lat="-3.0899660" lon="37.3737940">
    <ele>4963.5</ele>
    <time>2026-06-23T06:24:41Z</time>
   </trkpt>
   <trkpt lat="-3.0899720" lon="37.3738080">
    <ele>4963.1</ele>
    <time>2026-06-23T06:24:42Z</time>
   </trkpt>
   <trkpt lat="-3.0899750" lon="37.3738160">
    <ele>4962.9</ele>
    <time>2026-06-23T06:24:43Z</time>
   </trkpt>
   <trkpt lat="-3.0899800" lon="37.3738260">
    <ele>4962.5</ele>
    <time>2026-06-23T06:24:44Z</time>
   </trkpt>
   <trkpt lat="-3.0899870" lon="37.3738340">
    <ele>4962.2</ele>
    <time>2026-06-23T06:24:45Z</time>
   </trkpt>
   <trkpt lat="-3.0899940" lon="37.3738420">
    <ele>4961.9</ele>
    <time>2026-06-23T06:24:46Z</time>
   </trkpt>
   <trkpt lat="-3.0899970" lon="37.3738500">
    <ele>4961.7</ele>
    <time>2026-06-23T06:24:47Z</time>
   </trkpt>
   <trkpt lat="-3.0899980" lon="37.3738590">
    <ele>4961.4</ele>
    <time>2026-06-23T06:24:48Z</time>
   </trkpt>
   <trkpt lat="-3.0899990" lon="37.3738680">
    <ele>4961.2</ele>
    <time>2026-06-23T06:24:49Z</time>
   </trkpt>
   <trkpt lat="-3.0900030" lon="37.3738770">
    <ele>4960.9</ele>
    <time>2026-06-23T06:24:50Z</time>
   </trkpt>
   <trkpt lat="-3.0900080" lon="37.3738800">
    <ele>4960.7</ele>
    <time>2026-06-23T06:24:51Z</time>
   </trkpt>
   <trkpt lat="-3.0900150" lon="37.3738910">
    <ele>4960.4</ele>
    <time>2026-06-23T06:24:52Z</time>
   </trkpt>
   <trkpt lat="-3.0900190" lon="37.3739050">
    <ele>4960.0</ele>
    <time>2026-06-23T06:24:53Z</time>
   </trkpt>
   <trkpt lat="-3.0900240" lon="37.3739110">
    <ele>4959.7</ele>
    <time>2026-06-23T06:24:54Z</time>
   </trkpt>
   <trkpt lat="-3.0900280" lon="37.3739220">
    <ele>4959.4</ele>
    <time>2026-06-23T06:24:55Z</time>
   </trkpt>
   <trkpt lat="-3.0900330" lon="37.3739300">
    <ele>4959.1</ele>
    <time>2026-06-23T06:24:56Z</time>
   </trkpt>
   <trkpt lat="-3.0900400" lon="37.3739410">
    <ele>4958.8</ele>
    <time>2026-06-23T06:24:57Z</time>
   </trkpt>
   <trkpt lat="-3.0900460" lon="37.3739520">
    <ele>4958.4</ele>
    <time>2026-06-23T06:24:58Z</time>
   </trkpt>
   <trkpt lat="-3.0900500" lon="37.3739610">
    <ele>4958.1</ele>
    <time>2026-06-23T06:24:59Z</time>
   </trkpt>
   <trkpt lat="-3.0900530" lon="37.3739660">
    <ele>4958.0</ele>
    <time>2026-06-23T06:25:00Z</time>
   </trkpt>
   <trkpt lat="-3.0900590" lon="37.3739750">
    <ele>4957.7</ele>
    <time>2026-06-23T06:25:01Z</time>
   </trkpt>
   <trkpt lat="-3.0900610" lon="37.3739840">
    <ele>4957.4</ele>
    <time>2026-06-23T06:25:02Z</time>
   </trkpt>
   <trkpt lat="-3.0900640" lon="37.3739900">
    <ele>4957.2</ele>
    <time>2026-06-23T06:25:03Z</time>
   </trkpt>
   <trkpt lat="-3.0900640" lon="37.3739880">
    <ele>4957.1</ele>
    <time>2026-06-23T06:25:04Z</time>
   </trkpt>
   <trkpt lat="-3.0900620" lon="37.3739840">
    <ele>4957.0</ele>
    <time>2026-06-23T06:25:05Z</time>
   </trkpt>
   <trkpt lat="-3.0900620" lon="37.3739850">
    <ele>4957.0</ele>
    <time>2026-06-23T06:25:06Z</time>
   </trkpt>
   <trkpt lat="-3.0900620" lon="37.3739860">
    <ele>4957.0</ele>
    <time>2026-06-23T06:25:07Z</time>
   </trkpt>
   <trkpt lat="-3.0900620" lon="37.3739850">
    <ele>4956.9</ele>
    <time>2026-06-23T06:25:08Z</time>
   </trkpt>
   <trkpt lat="-3.0900620" lon="37.3739850">
    <ele>4956.9</ele>
    <time>2026-06-23T06:25:09Z</time>
   </trkpt>
   <trkpt lat="-3.0900620" lon="37.3739850">
    <ele>4956.9</ele>
    <time>2026-06-23T06:25:10Z</time>
   </trkpt>
   <trkpt lat="-3.0900630" lon="37.3739880">
    <ele>4956.8</ele>
    <time>2026-06-23T06:25:11Z</time>
   </trkpt>
   <trkpt lat="-3.0900630" lon="37.3739880">
    <ele>4956.8</ele>
    <time>2026-06-23T06:25:12Z</time>
   </trkpt>
   <trkpt lat="-3.0900640" lon="37.3739890">
    <ele>4956.8</ele>
    <time>2026-06-23T06:25:13Z</time>
   </trkpt>
   <trkpt lat="-3.0900640" lon="37.3739890">
    <ele>4956.8</ele>
    <time>2026-06-23T06:25:14Z</time>
   </trkpt>
   <trkpt lat="-3.0900640" lon="37.3739900">
    <ele>4956.8</ele>
    <time>2026-06-23T06:25:15Z</time>
   </trkpt>
   <trkpt lat="-3.0900640" lon="37.3739890">
    <ele>4956.7</ele>
    <time>2026-06-23T06:25:16Z</time>
   </trkpt>
   <trkpt lat="-3.0900640" lon="37.3739890">
    <ele>4956.7</ele>
    <time>2026-06-23T06:25:17Z</time>
   </trkpt>
   <trkpt lat="-3.0900640" lon="37.3739900">
    <ele>4956.7</ele>
    <time>2026-06-23T06:25:18Z</time>
   </trkpt>
   <trkpt lat="-3.0900650" lon="37.3739900">
    <ele>4956.7</ele>
    <time>2026-06-23T06:25:19Z</time>
   </trkpt>
   <trkpt lat="-3.0900650" lon="37.3739900">
    <ele>4956.7</ele>
    <time>2026-06-23T06:25:20Z</time>
   </trkpt>
   <trkpt lat="-3.0900650" lon="37.3739900">
    <ele>4956.7</ele>
    <time>2026-06-23T06:25:21Z</time>
   </trkpt>
   <trkpt lat="-3.0900650" lon="37.3739900">
    <ele>4956.7</ele>
    <time>2026-06-23T06:25:22Z</time>
   </trkpt>
   <trkpt lat="-3.0900650" lon="37.3739900">
    <ele>4956.7</ele>
    <time>2026-06-23T06:25:23Z</time>
   </trkpt>
   <trkpt lat="-3.0900650" lon="37.3739900">
    <ele>4956.7</ele>
    <time>2026-06-23T06:25:24Z</time>
   </trkpt>
   <trkpt lat="-3.0900650" lon="37.3739900">
    <ele>4956.7</ele>
    <time>2026-06-23T06:25:25Z</time>
   </trkpt>
   <trkpt lat="-3.0900650" lon="37.3739900">
    <ele>4956.7</ele>
    <time>2026-06-23T06:25:26Z</time>
   </trkpt>
   <trkpt lat="-3.0900650" lon="37.3739900">
    <ele>4956.7</ele>
    <time>2026-06-23T06:25:27Z</time>
   </trkpt>
   <trkpt lat="-3.0900650" lon="37.3739900">
    <ele>4956.7</ele>
    <time>2026-06-23T06:25:28Z</time>
   </trkpt>
   <trkpt lat="-3.0900640" lon="37.3739900">
    <ele>4956.7</ele>
    <time>2026-06-23T06:25:29Z</time>
   </trkpt>
   <trkpt lat="-3.0900630" lon="37.3739880">
    <ele>4956.6</ele>
    <time>2026-06-23T06:25:30Z</time>
   </trkpt>
   <trkpt lat="-3.0900620" lon="37.3739880">
    <ele>4956.6</ele>
    <time>2026-06-23T06:25:31Z</time>
   </trkpt>
   <trkpt lat="-3.0900620" lon="37.3739880">
    <ele>4956.6</ele>
    <time>2026-06-23T06:25:32Z</time>
   </trkpt>
   <trkpt lat="-3.0900590" lon="37.3739920">
    <ele>4956.4</ele>
    <time>2026-06-23T06:25:33Z</time>
   </trkpt>
   <trkpt lat="-3.0900540" lon="37.3739890">
    <ele>4956.3</ele>
    <time>2026-06-23T06:25:34Z</time>
   </trkpt>
   <trkpt lat="-3.0900530" lon="37.3739880">
    <ele>4956.2</ele>
    <time>2026-06-23T06:25:35Z</time>
   </trkpt>
   <trkpt lat="-3.0900530" lon="37.3739870">
    <ele>4956.2</ele>
    <time>2026-06-23T06:25:36Z</time>
   </trkpt>
   <trkpt lat="-3.0900540" lon="37.3739890">
    <ele>4956.1</ele>
    <time>2026-06-23T06:25:37Z</time>
   </trkpt>
   <trkpt lat="-3.0900540" lon="37.3739910">
    <ele>4956.1</ele>
    <time>2026-06-23T06:25:38Z</time>
   </trkpt>
   <trkpt lat="-3.0900580" lon="37.3739990">
    <ele>4955.8</ele>
    <time>2026-06-23T06:25:39Z</time>
   </trkpt>
   <trkpt lat="-3.0900580" lon="37.3740080">
    <ele>4955.6</ele>
    <time>2026-06-23T06:25:40Z</time>
   </trkpt>
   <trkpt lat="-3.0900580" lon="37.3740190">
    <ele>4955.2</ele>
    <time>2026-06-23T06:25:41Z</time>
   </trkpt>
   <trkpt lat="-3.0900570" lon="37.3740310">
    <ele>4954.9</ele>
    <time>2026-06-23T06:25:42Z</time>
   </trkpt>
   <trkpt lat="-3.0900560" lon="37.3740370">
    <ele>4954.7</ele>
    <time>2026-06-23T06:25:43Z</time>
   </trkpt>
   <trkpt lat="-3.0900570" lon="37.3740450">
    <ele>4954.5</ele>
    <time>2026-06-23T06:25:44Z</time>
   </trkpt>
   <trkpt lat="-3.0900570" lon="37.3740540">
    <ele>4954.2</ele>
    <time>2026-06-23T06:25:45Z</time>
   </trkpt>
   <trkpt lat="-3.0900570" lon="37.3740650">
    <ele>4953.9</ele>
    <time>2026-06-23T06:25:46Z</time>
   </trkpt>
   <trkpt lat="-3.0900600" lon="37.3740720">
    <ele>4953.7</ele>
    <time>2026-06-23T06:25:47Z</time>
   </trkpt>
   <trkpt lat="-3.0900620" lon="37.3740800">
    <ele>4953.5</ele>
    <time>2026-06-23T06:25:48Z</time>
   </trkpt>
   <trkpt lat="-3.0900650" lon="37.3740890">
    <ele>4953.2</ele>
    <time>2026-06-23T06:25:49Z</time>
   </trkpt>
   <trkpt lat="-3.0900710" lon="37.3740980">
    <ele>4952.9</ele>
    <time>2026-06-23T06:25:50Z</time>
   </trkpt>
   <trkpt lat="-3.0900770" lon="37.3741080">
    <ele>4952.6</ele>
    <time>2026-06-23T06:25:51Z</time>
   </trkpt>
   <trkpt lat="-3.0900820" lon="37.3741150">
    <ele>4952.3</ele>
    <time>2026-06-23T06:25:52Z</time>
   </trkpt>
   <trkpt lat="-3.0900880" lon="37.3741220">
    <ele>4952.1</ele>
    <time>2026-06-23T06:25:53Z</time>
   </trkpt>
   <trkpt lat="-3.0900930" lon="37.3741310">
    <ele>4951.8</ele>
    <time>2026-06-23T06:25:54Z</time>
   </trkpt>
   <trkpt lat="-3.0900960" lon="37.3741400">
    <ele>4951.5</ele>
    <time>2026-06-23T06:25:55Z</time>
   </trkpt>
   <trkpt lat="-3.0900980" lon="37.3741490">
    <ele>4951.3</ele>
    <time>2026-06-23T06:25:56Z</time>
   </trkpt>
   <trkpt lat="-3.0901010" lon="37.3741580">
    <ele>4951.0</ele>
    <time>2026-06-23T06:25:57Z</time>
   </trkpt>
   <trkpt lat="-3.0901040" lon="37.3741670">
    <ele>4950.7</ele>
    <time>2026-06-23T06:25:58Z</time>
   </trkpt>
   <trkpt lat="-3.0901080" lon="37.3741750">
    <ele>4950.5</ele>
    <time>2026-06-23T06:25:59Z</time>
   </trkpt>
   <trkpt lat="-3.0901130" lon="37.3741840">
    <ele>4950.2</ele>
    <time>2026-06-23T06:26:00Z</time>
   </trkpt>
   <trkpt lat="-3.0901200" lon="37.3741890">
    <ele>4950.0</ele>
    <time>2026-06-23T06:26:01Z</time>
   </trkpt>
   <trkpt lat="-3.0901280" lon="37.3741960">
    <ele>4949.7</ele>
    <time>2026-06-23T06:26:02Z</time>
   </trkpt>
   <trkpt lat="-3.0901350" lon="37.3742030">
    <ele>4949.4</ele>
    <time>2026-06-23T06:26:03Z</time>
   </trkpt>
   <trkpt lat="-3.0901420" lon="37.3742080">
    <ele>4949.2</ele>
    <time>2026-06-23T06:26:04Z</time>
   </trkpt>
   <trkpt lat="-3.0901470" lon="37.3742170">
    <ele>4948.9</ele>
    <time>2026-06-23T06:26:05Z</time>
   </trkpt>
   <trkpt lat="-3.0901520" lon="37.3742260">
    <ele>4948.6</ele>
    <time>2026-06-23T06:26:06Z</time>
   </trkpt>
   <trkpt lat="-3.0901580" lon="37.3742330">
    <ele>4948.4</ele>
    <time>2026-06-23T06:26:07Z</time>
   </trkpt>
   <trkpt lat="-3.0901630" lon="37.3742420">
    <ele>4948.1</ele>
    <time>2026-06-23T06:26:08Z</time>
   </trkpt>
   <trkpt lat="-3.0901680" lon="37.3742480">
    <ele>4947.9</ele>
    <time>2026-06-23T06:26:09Z</time>
   </trkpt>
   <trkpt lat="-3.0901750" lon="37.3742560">
    <ele>4947.6</ele>
    <time>2026-06-23T06:26:10Z</time>
   </trkpt>
   <trkpt lat="-3.0901840" lon="37.3742640">
    <ele>4947.3</ele>
    <time>2026-06-23T06:26:11Z</time>
   </trkpt>
   <trkpt lat="-3.0901910" lon="37.3742700">
    <ele>4947.0</ele>
    <time>2026-06-23T06:26:12Z</time>
   </trkpt>
   <trkpt lat="-3.0901980" lon="37.3742780">
    <ele>4946.7</ele>
    <time>2026-06-23T06:26:13Z</time>
   </trkpt>
   <trkpt lat="-3.0902040" lon="37.3742860">
    <ele>4946.5</ele>
    <time>2026-06-23T06:26:14Z</time>
   </trkpt>
   <trkpt lat="-3.0902100" lon="37.3742930">
    <ele>4946.2</ele>
    <time>2026-06-23T06:26:15Z</time>
   </trkpt>
   <trkpt lat="-3.0902170" lon="37.3743000">
    <ele>4946.0</ele>
    <time>2026-06-23T06:26:16Z</time>
   </trkpt>
   <trkpt lat="-3.0902240" lon="37.3743070">
    <ele>4945.7</ele>
    <time>2026-06-23T06:26:17Z</time>
   </trkpt>
   <trkpt lat="-3.0902290" lon="37.3743160">
    <ele>4945.4</ele>
    <time>2026-06-23T06:26:18Z</time>
   </trkpt>
   <trkpt lat="-3.0902320" lon="37.3743270">
    <ele>4945.1</ele>
    <time>2026-06-23T06:26:19Z</time>
   </trkpt>
   <trkpt lat="-3.0902370" lon="37.3743350">
    <ele>4944.9</ele>
    <time>2026-06-23T06:26:20Z</time>
   </trkpt>
   <trkpt lat="-3.0902440" lon="37.3743410">
    <ele>4944.6</ele>
    <time>2026-06-23T06:26:21Z</time>
   </trkpt>
   <trkpt lat="-3.0902530" lon="37.3743460">
    <ele>4944.4</ele>
    <time>2026-06-23T06:26:22Z</time>
   </trkpt>
   <trkpt lat="-3.0902640" lon="37.3743540">
    <ele>4944.0</ele>
    <time>2026-06-23T06:26:23Z</time>
   </trkpt>
   <trkpt lat="-3.0902740" lon="37.3743620">
    <ele>4943.6</ele>
    <time>2026-06-23T06:26:24Z</time>
   </trkpt>
   <trkpt lat="-3.0902790" lon="37.3743670">
    <ele>4943.5</ele>
    <time>2026-06-23T06:26:25Z</time>
   </trkpt>
   <trkpt lat="-3.0902860" lon="37.3743710">
    <ele>4943.2</ele>
    <time>2026-06-23T06:26:26Z</time>
   </trkpt>
   <trkpt lat="-3.0902930" lon="37.3743770">
    <ele>4943.0</ele>
    <time>2026-06-23T06:26:27Z</time>
   </trkpt>
   <trkpt lat="-3.0903020" lon="37.3743840">
    <ele>4942.7</ele>
    <time>2026-06-23T06:26:28Z</time>
   </trkpt>
   <trkpt lat="-3.0903070" lon="37.3743870">
    <ele>4942.5</ele>
    <time>2026-06-23T06:26:29Z</time>
   </trkpt>
   <trkpt lat="-3.0903180" lon="37.3744000">
    <ele>4942.1</ele>
    <time>2026-06-23T06:26:30Z</time>
   </trkpt>
   <trkpt lat="-3.0903250" lon="37.3744070">
    <ele>4941.8</ele>
    <time>2026-06-23T06:26:31Z</time>
   </trkpt>
   <trkpt lat="-3.0903290" lon="37.3744160">
    <ele>4941.6</ele>
    <time>2026-06-23T06:26:32Z</time>
   </trkpt>
   <trkpt lat="-3.0903350" lon="37.3744250">
    <ele>4941.3</ele>
    <time>2026-06-23T06:26:33Z</time>
   </trkpt>
   <trkpt lat="-3.0903440" lon="37.3744310">
    <ele>4941.0</ele>
    <time>2026-06-23T06:26:34Z</time>
   </trkpt>
   <trkpt lat="-3.0903530" lon="37.3744350">
    <ele>4940.7</ele>
    <time>2026-06-23T06:26:35Z</time>
   </trkpt>
   <trkpt lat="-3.0903580" lon="37.3744400">
    <ele>4940.5</ele>
    <time>2026-06-23T06:26:36Z</time>
   </trkpt>
   <trkpt lat="-3.0903610" lon="37.3744510">
    <ele>4940.2</ele>
    <time>2026-06-23T06:26:37Z</time>
   </trkpt>
   <trkpt lat="-3.0903680" lon="37.3744600">
    <ele>4939.9</ele>
    <time>2026-06-23T06:26:38Z</time>
   </trkpt>
   <trkpt lat="-3.0903750" lon="37.3744700">
    <ele>4939.6</ele>
    <time>2026-06-23T06:26:39Z</time>
   </trkpt>
   <trkpt lat="-3.0903830" lon="37.3744740">
    <ele>4939.4</ele>
    <time>2026-06-23T06:26:40Z</time>
   </trkpt>
   <trkpt lat="-3.0903900" lon="37.3744770">
    <ele>4939.2</ele>
    <time>2026-06-23T06:26:41Z</time>
   </trkpt>
   <trkpt lat="-3.0903960" lon="37.3744860">
    <ele>4939.0</ele>
    <time>2026-06-23T06:26:42Z</time>
   </trkpt>
   <trkpt lat="-3.0903990" lon="37.3744950">
    <ele>4938.7</ele>
    <time>2026-06-23T06:26:43Z</time>
   </trkpt>
   <trkpt lat="-3.0904030" lon="37.3745040">
    <ele>4938.5</ele>
    <time>2026-06-23T06:26:44Z</time>
   </trkpt>
   <trkpt lat="-3.0904090" lon="37.3745130">
    <ele>4938.2</ele>
    <time>2026-06-23T06:26:45Z</time>
   </trkpt>
   <trkpt lat="-3.0904130" lon="37.3745200">
    <ele>4938.0</ele>
    <time>2026-06-23T06:26:46Z</time>
   </trkpt>
   <trkpt lat="-3.0904190" lon="37.3745280">
    <ele>4937.8</ele>
    <time>2026-06-23T06:26:47Z</time>
   </trkpt>
   <trkpt lat="-3.0904240" lon="37.3745350">
    <ele>4937.6</ele>
    <time>2026-06-23T06:26:48Z</time>
   </trkpt>
   <trkpt lat="-3.0904320" lon="37.3745450">
    <ele>4937.2</ele>
    <time>2026-06-23T06:26:49Z</time>
   </trkpt>
   <trkpt lat="-3.0904380" lon="37.3745510">
    <ele>4937.0</ele>
    <time>2026-06-23T06:26:50Z</time>
   </trkpt>
   <trkpt lat="-3.0904440" lon="37.3745580">
    <ele>4936.8</ele>
    <time>2026-06-23T06:26:51Z</time>
   </trkpt>
   <trkpt lat="-3.0904470" lon="37.3745670">
    <ele>4936.6</ele>
    <time>2026-06-23T06:26:52Z</time>
   </trkpt>
   <trkpt lat="-3.0904510" lon="37.3745750">
    <ele>4936.4</ele>
    <time>2026-06-23T06:26:53Z</time>
   </trkpt>
   <trkpt lat="-3.0904540" lon="37.3745750">
    <ele>4936.3</ele>
    <time>2026-06-23T06:26:54Z</time>
   </trkpt>
   <trkpt lat="-3.0904620" lon="37.3745860">
    <ele>4936.0</ele>
    <time>2026-06-23T06:26:55Z</time>
   </trkpt>
   <trkpt lat="-3.0904660" lon="37.3745960">
    <ele>4935.7</ele>
    <time>2026-06-23T06:26:56Z</time>
   </trkpt>
   <trkpt lat="-3.0904740" lon="37.3746050">
    <ele>4935.4</ele>
    <time>2026-06-23T06:26:57Z</time>
   </trkpt>
   <trkpt lat="-3.0904830" lon="37.3746100">
    <ele>4935.2</ele>
    <time>2026-06-23T06:26:58Z</time>
   </trkpt>
   <trkpt lat="-3.0904920" lon="37.3746190">
    <ele>4934.9</ele>
    <time>2026-06-23T06:26:59Z</time>
   </trkpt>
   <trkpt lat="-3.0904960" lon="37.3746250">
    <ele>4934.7</ele>
    <time>2026-06-23T06:27:00Z</time>
   </trkpt>
   <trkpt lat="-3.0905010" lon="37.3746340">
    <ele>4934.4</ele>
    <time>2026-06-23T06:27:01Z</time>
   </trkpt>
   <trkpt lat="-3.0905010" lon="37.3746420">
    <ele>4934.2</ele>
    <time>2026-06-23T06:27:02Z</time>
   </trkpt>
   <trkpt lat="-3.0905030" lon="37.3746500">
    <ele>4934.1</ele>
    <time>2026-06-23T06:27:03Z</time>
   </trkpt>
   <trkpt lat="-3.0905050" lon="37.3746600">
    <ele>4933.8</ele>
    <time>2026-06-23T06:27:04Z</time>
   </trkpt>
   <trkpt lat="-3.0905070" lon="37.3746680">
    <ele>4933.6</ele>
    <time>2026-06-23T06:27:05Z</time>
   </trkpt>
   <trkpt lat="-3.0905100" lon="37.3746780">
    <ele>4933.4</ele>
    <time>2026-06-23T06:27:06Z</time>
   </trkpt>
   <trkpt lat="-3.0905120" lon="37.3746880">
    <ele>4933.1</ele>
    <time>2026-06-23T06:27:07Z</time>
   </trkpt>
   <trkpt lat="-3.0905150" lon="37.3746990">
    <ele>4932.8</ele>
    <time>2026-06-23T06:27:08Z</time>
   </trkpt>
   <trkpt lat="-3.0905170" lon="37.3747090">
    <ele>4932.6</ele>
    <time>2026-06-23T06:27:09Z</time>
   </trkpt>
   <trkpt lat="-3.0905180" lon="37.3747110">
    <ele>4932.5</ele>
    <time>2026-06-23T06:27:10Z</time>
   </trkpt>
   <trkpt lat="-3.0905170" lon="37.3747080">
    <ele>4932.5</ele>
    <time>2026-06-23T06:27:11Z</time>
   </trkpt>
   <trkpt lat="-3.0905250" lon="37.3747180">
    <ele>4932.2</ele>
    <time>2026-06-23T06:27:12Z</time>
   </trkpt>
   <trkpt lat="-3.0905340" lon="37.3747300">
    <ele>4931.8</ele>
    <time>2026-06-23T06:27:13Z</time>
   </trkpt>
   <trkpt lat="-3.0905400" lon="37.3747410">
    <ele>4931.5</ele>
    <time>2026-06-23T06:27:14Z</time>
   </trkpt>
   <trkpt lat="-3.0905440" lon="37.3747490">
    <ele>4931.3</ele>
    <time>2026-06-23T06:27:15Z</time>
   </trkpt>
   <trkpt lat="-3.0905510" lon="37.3747590">
    <ele>4931.0</ele>
    <time>2026-06-23T06:27:16Z</time>
   </trkpt>
   <trkpt lat="-3.0905580" lon="37.3747670">
    <ele>4930.7</ele>
    <time>2026-06-23T06:27:17Z</time>
   </trkpt>
   <trkpt lat="-3.0905650" lon="37.3747740">
    <ele>4930.5</ele>
    <time>2026-06-23T06:27:18Z</time>
   </trkpt>
   <trkpt lat="-3.0905720" lon="37.3747810">
    <ele>4930.3</ele>
    <time>2026-06-23T06:27:19Z</time>
   </trkpt>
   <trkpt lat="-3.0905800" lon="37.3747870">
    <ele>4930.0</ele>
    <time>2026-06-23T06:27:20Z</time>
   </trkpt>
   <trkpt lat="-3.0905860" lon="37.3747930">
    <ele>4929.8</ele>
    <time>2026-06-23T06:27:21Z</time>
   </trkpt>
   <trkpt lat="-3.0905920" lon="37.3748020">
    <ele>4929.6</ele>
    <time>2026-06-23T06:27:22Z</time>
   </trkpt>
   <trkpt lat="-3.0905960" lon="37.3748120">
    <ele>4929.3</ele>
    <time>2026-06-23T06:27:23Z</time>
   </trkpt>
   <trkpt lat="-3.0906000" lon="37.3748210">
    <ele>4929.1</ele>
    <time>2026-06-23T06:27:24Z</time>
   </trkpt>
   <trkpt lat="-3.0906040" lon="37.3748290">
    <ele>4928.9</ele>
    <time>2026-06-23T06:27:25Z</time>
   </trkpt>
   <trkpt lat="-3.0906100" lon="37.3748390">
    <ele>4928.6</ele>
    <time>2026-06-23T06:27:26Z</time>
   </trkpt>
   <trkpt lat="-3.0906220" lon="37.3748500">
    <ele>4928.2</ele>
    <time>2026-06-23T06:27:27Z</time>
   </trkpt>
   <trkpt lat="-3.0906290" lon="37.3748530">
    <ele>4928.1</ele>
    <time>2026-06-23T06:27:28Z</time>
   </trkpt>
   <trkpt lat="-3.0906360" lon="37.3748590">
    <ele>4927.9</ele>
    <time>2026-06-23T06:27:29Z</time>
   </trkpt>
   <trkpt lat="-3.0906410" lon="37.3748650">
    <ele>4927.7</ele>
    <time>2026-06-23T06:27:30Z</time>
   </trkpt>
   <trkpt lat="-3.0906480" lon="37.3748720">
    <ele>4927.5</ele>
    <time>2026-06-23T06:27:31Z</time>
   </trkpt>
   <trkpt lat="-3.0906540" lon="37.3748760">
    <ele>4927.3</ele>
    <time>2026-06-23T06:27:32Z</time>
   </trkpt>
   <trkpt lat="-3.0906630" lon="37.3748810">
    <ele>4927.1</ele>
    <time>2026-06-23T06:27:33Z</time>
   </trkpt>
   <trkpt lat="-3.0906690" lon="37.3748860">
    <ele>4926.9</ele>
    <time>2026-06-23T06:27:34Z</time>
   </trkpt>
   <trkpt lat="-3.0906710" lon="37.3748880">
    <ele>4926.8</ele>
    <time>2026-06-23T06:27:35Z</time>
   </trkpt>
   <trkpt lat="-3.0906700" lon="37.3748820">
    <ele>4926.7</ele>
    <time>2026-06-23T06:27:36Z</time>
   </trkpt>
   <trkpt lat="-3.0906710" lon="37.3748830">
    <ele>4926.7</ele>
    <time>2026-06-23T06:27:37Z</time>
   </trkpt>
   <trkpt lat="-3.0906720" lon="37.3748820">
    <ele>4926.6</ele>
    <time>2026-06-23T06:27:38Z</time>
   </trkpt>
   <trkpt lat="-3.0906710" lon="37.3748830">
    <ele>4926.6</ele>
    <time>2026-06-23T06:27:39Z</time>
   </trkpt>
   <trkpt lat="-3.0906730" lon="37.3748840">
    <ele>4926.5</ele>
    <time>2026-06-23T06:27:40Z</time>
   </trkpt>
   <trkpt lat="-3.0906750" lon="37.3748860">
    <ele>4926.5</ele>
    <time>2026-06-23T06:27:41Z</time>
   </trkpt>
   <trkpt lat="-3.0906750" lon="37.3748860">
    <ele>4926.5</ele>
    <time>2026-06-23T06:27:42Z</time>
   </trkpt>
   <trkpt lat="-3.0906730" lon="37.3748870">
    <ele>4926.4</ele>
    <time>2026-06-23T06:27:43Z</time>
   </trkpt>
   <trkpt lat="-3.0906750" lon="37.3748860">
    <ele>4926.4</ele>
    <time>2026-06-23T06:27:44Z</time>
   </trkpt>
   <trkpt lat="-3.0906770" lon="37.3748890">
    <ele>4926.3</ele>
    <time>2026-06-23T06:27:45Z</time>
   </trkpt>
   <trkpt lat="-3.0906760" lon="37.3748890">
    <ele>4926.3</ele>
    <time>2026-06-23T06:27:46Z</time>
   </trkpt>
   <trkpt lat="-3.0906750" lon="37.3748890">
    <ele>4926.3</ele>
    <time>2026-06-23T06:27:47Z</time>
   </trkpt>
   <trkpt lat="-3.0906750" lon="37.3748890">
    <ele>4926.3</ele>
    <time>2026-06-23T06:27:48Z</time>
   </trkpt>
   <trkpt lat="-3.0906760" lon="37.3748890">
    <ele>4926.2</ele>
    <time>2026-06-23T06:27:49Z</time>
   </trkpt>
   <trkpt lat="-3.0906770" lon="37.3748900">
    <ele>4926.2</ele>
    <time>2026-06-23T06:27:50Z</time>
   </trkpt>
   <trkpt lat="-3.0906770" lon="37.3748910">
    <ele>4926.2</ele>
    <time>2026-06-23T06:27:51Z</time>
   </trkpt>
   <trkpt lat="-3.0906770" lon="37.3748910">
    <ele>4926.2</ele>
    <time>2026-06-23T06:27:52Z</time>
   </trkpt>
   <trkpt lat="-3.0906790" lon="37.3748930">
    <ele>4926.1</ele>
    <time>2026-06-23T06:27:53Z</time>
   </trkpt>
   <trkpt lat="-3.0906770" lon="37.3748890">
    <ele>4926.0</ele>
    <time>2026-06-23T06:27:54Z</time>
   </trkpt>
   <trkpt lat="-3.0906750" lon="37.3748870">
    <ele>4926.0</ele>
    <time>2026-06-23T06:27:55Z</time>
   </trkpt>
   <trkpt lat="-3.0906790" lon="37.3748880">
    <ele>4925.9</ele>
    <time>2026-06-23T06:27:56Z</time>
   </trkpt>
   <trkpt lat="-3.0906780" lon="37.3748880">
    <ele>4925.9</ele>
    <time>2026-06-23T06:27:57Z</time>
   </trkpt>
   <trkpt lat="-3.0906760" lon="37.3748870">
    <ele>4925.8</ele>
    <time>2026-06-23T06:27:58Z</time>
   </trkpt>
   <trkpt lat="-3.0906760" lon="37.3748860">
    <ele>4925.8</ele>
    <time>2026-06-23T06:27:59Z</time>
   </trkpt>
   <trkpt lat="-3.0906760" lon="37.3748850">
    <ele>4925.8</ele>
    <time>2026-06-23T06:28:00Z</time>
   </trkpt>
   <trkpt lat="-3.0906740" lon="37.3748860">
    <ele>4925.7</ele>
    <time>2026-06-23T06:28:01Z</time>
   </trkpt>
   <trkpt lat="-3.0906730" lon="37.3748880">
    <ele>4925.7</ele>
    <time>2026-06-23T06:28:02Z</time>
   </trkpt>
   <trkpt lat="-3.0906730" lon="37.3748870">
    <ele>4925.6</ele>
    <time>2026-06-23T06:28:03Z</time>
   </trkpt>
   <trkpt lat="-3.0906740" lon="37.3748880">
    <ele>4925.6</ele>
    <time>2026-06-23T06:28:04Z</time>
   </trkpt>
   <trkpt lat="-3.0906750" lon="37.3748910">
    <ele>4925.5</ele>
    <time>2026-06-23T06:28:05Z</time>
   </trkpt>
   <trkpt lat="-3.0906760" lon="37.3748900">
    <ele>4925.5</ele>
    <time>2026-06-23T06:28:06Z</time>
   </trkpt>
   <trkpt lat="-3.0906760" lon="37.3748870">
    <ele>4925.4</ele>
    <time>2026-06-23T06:28:07Z</time>
   </trkpt>
   <trkpt lat="-3.0906760" lon="37.3748890">
    <ele>4925.4</ele>
    <time>2026-06-23T06:28:08Z</time>
   </trkpt>
   <trkpt lat="-3.0906760" lon="37.3748900">
    <ele>4925.4</ele>
    <time>2026-06-23T06:28:09Z</time>
   </trkpt>
   <trkpt lat="-3.0906760" lon="37.3748900">
    <ele>4925.4</ele>
    <time>2026-06-23T06:28:10Z</time>
   </trkpt>
   <trkpt lat="-3.0906750" lon="37.3748900">
    <ele>4925.4</ele>
    <time>2026-06-23T06:28:11Z</time>
   </trkpt>
   <trkpt lat="-3.0906750" lon="37.3748900">
    <ele>4925.4</ele>
    <time>2026-06-23T06:28:12Z</time>
   </trkpt>
   <trkpt lat="-3.0906750" lon="37.3748900">
    <ele>4925.4</ele>
    <time>2026-06-23T06:28:13Z</time>
   </trkpt>
   <trkpt lat="-3.0906740" lon="37.3748890">
    <ele>4925.3</ele>
    <time>2026-06-23T06:28:14Z</time>
   </trkpt>
   <trkpt lat="-3.0906750" lon="37.3748900">
    <ele>4925.3</ele>
    <time>2026-06-23T06:28:15Z</time>
   </trkpt>
   <trkpt lat="-3.0906750" lon="37.3748890">
    <ele>4925.3</ele>
    <time>2026-06-23T06:28:16Z</time>
   </trkpt>
   <trkpt lat="-3.0906750" lon="37.3748910">
    <ele>4925.2</ele>
    <time>2026-06-23T06:28:17Z</time>
   </trkpt>
   <trkpt lat="-3.0906750" lon="37.3748910">
    <ele>4925.2</ele>
    <time>2026-06-23T06:28:18Z</time>
   </trkpt>
   <trkpt lat="-3.0906760" lon="37.3748910">
    <ele>4925.2</ele>
    <time>2026-06-23T06:28:19Z</time>
   </trkpt>
   <trkpt lat="-3.0906760" lon="37.3748910">
    <ele>4925.2</ele>
    <time>2026-06-23T06:28:20Z</time>
   </trkpt>
   <trkpt lat="-3.0906740" lon="37.3748900">
    <ele>4925.2</ele>
    <time>2026-06-23T06:28:21Z</time>
   </trkpt>
   <trkpt lat="-3.0906730" lon="37.3748900">
    <ele>4925.1</ele>
    <time>2026-06-23T06:28:22Z</time>
   </trkpt>
   <trkpt lat="-3.0906740" lon="37.3748900">
    <ele>4925.1</ele>
    <time>2026-06-23T06:28:23Z</time>
   </trkpt>
   <trkpt lat="-3.0906730" lon="37.3748900">
    <ele>4925.1</ele>
    <time>2026-06-23T06:28:24Z</time>
   </trkpt>
   <trkpt lat="-3.0906740" lon="37.3748900">
    <ele>4925.1</ele>
    <time>2026-06-23T06:28:25Z</time>
   </trkpt>
   <trkpt lat="-3.0906720" lon="37.3748920">
    <ele>4925.0</ele>
    <time>2026-06-23T06:28:26Z</time>
   </trkpt>
   <trkpt lat="-3.0906720" lon="37.3748920">
    <ele>4925.0</ele>
    <time>2026-06-23T06:28:27Z</time>
   </trkpt>
   <trkpt lat="-3.0906720" lon="37.3748930">
    <ele>4925.0</ele>
    <time>2026-06-23T06:28:28Z</time>
   </trkpt>
   <trkpt lat="-3.0906720" lon="37.3748910">
    <ele>4924.9</ele>
    <time>2026-06-23T06:28:29Z</time>
   </trkpt>
   <trkpt lat="-3.0906720" lon="37.3748920">
    <ele>4924.9</ele>
    <time>2026-06-23T06:28:30Z</time>
   </trkpt>
   <trkpt lat="-3.0906710" lon="37.3748920">
    <ele>4924.9</ele>
    <time>2026-06-23T06:28:31Z</time>
   </trkpt>
   <trkpt lat="-3.0906710" lon="37.3748920">
    <ele>4924.9</ele>
    <time>2026-06-23T06:28:32Z</time>
   </trkpt>
   <trkpt lat="-3.0906710" lon="37.3748910">
    <ele>4924.9</ele>
    <time>2026-06-23T06:28:33Z</time>
   </trkpt>
   <trkpt lat="-3.0906710" lon="37.3748910">
    <ele>4924.9</ele>
    <time>2026-06-23T06:28:34Z</time>
   </trkpt>
   <trkpt lat="-3.0906700" lon="37.3748910">
    <ele>4924.9</ele>
    <time>2026-06-23T06:28:35Z</time>
   </trkpt>
   <trkpt lat="-3.0906700" lon="37.3748910">
    <ele>4924.9</ele>
    <time>2026-06-23T06:28:36Z</time>
   </trkpt>
   <trkpt lat="-3.0906710" lon="37.3748920">
    <ele>4924.8</ele>
    <time>2026-06-23T06:28:37Z</time>
   </trkpt>
   <trkpt lat="-3.0906700" lon="37.3748920">
    <ele>4924.8</ele>
    <time>2026-06-23T06:28:38Z</time>
   </trkpt>
   <trkpt lat="-3.0906690" lon="37.3748930">
    <ele>4924.8</ele>
    <time>2026-06-23T06:28:39Z</time>
   </trkpt>
   <trkpt lat="-3.0906710" lon="37.3748940">
    <ele>4924.7</ele>
    <time>2026-06-23T06:28:40Z</time>
   </trkpt>
   <trkpt lat="-3.0906710" lon="37.3748940">
    <ele>4924.7</ele>
    <time>2026-06-23T06:28:41Z</time>
   </trkpt>
   <trkpt lat="-3.0906700" lon="37.3748940">
    <ele>4924.7</ele>
    <time>2026-06-23T06:28:42Z</time>
   </trkpt>
   <trkpt lat="-3.0906700" lon="37.3748940">
    <ele>4924.7</ele>
    <time>2026-06-23T06:28:43Z</time>
   </trkpt>
   <trkpt lat="-3.0906700" lon="37.3748950">
    <ele>4924.7</ele>
    <time>2026-06-23T06:28:44Z</time>
   </trkpt>
   <trkpt lat="-3.0906710" lon="37.3748950">
    <ele>4924.7</ele>
    <time>2026-06-23T06:28:45Z</time>
   </trkpt>
   <trkpt lat="-3.0906720" lon="37.3748960">
    <ele>4924.6</ele>
    <time>2026-06-23T06:28:46Z</time>
   </trkpt>
   <trkpt lat="-3.0906710" lon="37.3748930">
    <ele>4924.6</ele>
    <time>2026-06-23T06:28:47Z</time>
   </trkpt>
   <trkpt lat="-3.0906700" lon="37.3748930">
    <ele>4924.5</ele>
    <time>2026-06-23T06:28:48Z</time>
   </trkpt>
   <trkpt lat="-3.0906700" lon="37.3748930">
    <ele>4924.5</ele>
    <time>2026-06-23T06:28:49Z</time>
   </trkpt>
   <trkpt lat="-3.0906690" lon="37.3748920">
    <ele>4924.5</ele>
    <time>2026-06-23T06:28:50Z</time>
   </trkpt>
   <trkpt lat="-3.0906700" lon="37.3748920">
    <ele>4924.5</ele>
    <time>2026-06-23T06:28:51Z</time>
   </trkpt>
   <trkpt lat="-3.0906700" lon="37.3748920">
    <ele>4924.5</ele>
    <time>2026-06-23T06:28:52Z</time>
   </trkpt>
   <trkpt lat="-3.0906700" lon="37.3748920">
    <ele>4924.5</ele>
    <time>2026-06-23T06:28:53Z</time>
   </trkpt>
   <trkpt lat="-3.0906690" lon="37.3748930">
    <ele>4924.5</ele>
    <time>2026-06-23T06:28:54Z</time>
   </trkpt>
   <trkpt lat="-3.0906690" lon="37.3748940">
    <ele>4924.4</ele>
    <time>2026-06-23T06:28:55Z</time>
   </trkpt>
   <trkpt lat="-3.0906680" lon="37.3748950">
    <ele>4924.4</ele>
    <time>2026-06-23T06:28:56Z</time>
   </trkpt>
   <trkpt lat="-3.0906680" lon="37.3748940">
    <ele>4924.4</ele>
    <time>2026-06-23T06:28:57Z</time>
   </trkpt>
   <trkpt lat="-3.0906690" lon="37.3748950">
    <ele>4924.4</ele>
    <time>2026-06-23T06:28:58Z</time>
   </trkpt>
   <trkpt lat="-3.0906690" lon="37.3748940">
    <ele>4924.3</ele>
    <time>2026-06-23T06:28:59Z</time>
   </trkpt>
   <trkpt lat="-3.0906690" lon="37.3748950">
    <ele>4924.3</ele>
    <time>2026-06-23T06:29:00Z</time>
   </trkpt>
   <trkpt lat="-3.0906690" lon="37.3748950">
    <ele>4924.3</ele>
    <time>2026-06-23T06:29:01Z</time>
   </trkpt>
   <trkpt lat="-3.0906680" lon="37.3748940">
    <ele>4924.3</ele>
    <time>2026-06-23T06:29:02Z</time>
   </trkpt>
   <trkpt lat="-3.0906680" lon="37.3748940">
    <ele>4924.3</ele>
    <time>2026-06-23T06:29:03Z</time>
   </trkpt>
   <trkpt lat="-3.0906680" lon="37.3748940">
    <ele>4924.3</ele>
    <time>2026-06-23T06:29:04Z</time>
   </trkpt>
   <trkpt lat="-3.0906690" lon="37.3748950">
    <ele>4924.3</ele>
    <time>2026-06-23T06:29:05Z</time>
   </trkpt>
   <trkpt lat="-3.0906680" lon="37.3748940">
    <ele>4924.2</ele>
    <time>2026-06-23T06:29:06Z</time>
   </trkpt>
   <trkpt lat="-3.0906680" lon="37.3748940">
    <ele>4924.2</ele>
    <time>2026-06-23T06:29:07Z</time>
   </trkpt>
   <trkpt lat="-3.0906680" lon="37.3748940">
    <ele>4924.2</ele>
    <time>2026-06-23T06:29:08Z</time>
   </trkpt>
   <trkpt lat="-3.0906680" lon="37.3748940">
    <ele>4924.2</ele>
    <time>2026-06-23T06:29:09Z</time>
   </trkpt>
   <trkpt lat="-3.0906690" lon="37.3748940">
    <ele>4924.2</ele>
    <time>2026-06-23T06:29:10Z</time>
   </trkpt>
   <trkpt lat="-3.0906690" lon="37.3748940">
    <ele>4924.2</ele>
    <time>2026-06-23T06:29:11Z</time>
   </trkpt>
   <trkpt lat="-3.0906700" lon="37.3748940">
    <ele>4924.2</ele>
    <time>2026-06-23T06:29:12Z</time>
   </trkpt>
   <trkpt lat="-3.0906690" lon="37.3748940">
    <ele>4924.2</ele>
    <time>2026-06-23T06:29:13Z</time>
   </trkpt>
   <trkpt lat="-3.0906690" lon="37.3748940">
    <ele>4924.2</ele>
    <time>2026-06-23T06:29:14Z</time>
   </trkpt>
   <trkpt lat="-3.0906690" lon="37.3748940">
    <ele>4924.2</ele>
    <time>2026-06-23T06:29:15Z</time>
   </trkpt>
   <trkpt lat="-3.0906690" lon="37.3748940">
    <ele>4924.2</ele>
    <time>2026-06-23T06:29:16Z</time>
   </trkpt>
   <trkpt lat="-3.0906690" lon="37.3748930">
    <ele>4924.1</ele>
    <time>2026-06-23T06:29:17Z</time>
   </trkpt>
   <trkpt lat="-3.0906690" lon="37.3748930">
    <ele>4924.1</ele>
    <time>2026-06-23T06:29:18Z</time>
   </trkpt>
   <trkpt lat="-3.0906680" lon="37.3748950">
    <ele>4924.1</ele>
    <time>2026-06-23T06:29:19Z</time>
   </trkpt>
   <trkpt lat="-3.0906670" lon="37.3748950">
    <ele>4924.1</ele>
    <time>2026-06-23T06:29:20Z</time>
   </trkpt>
   <trkpt lat="-3.0906670" lon="37.3748950">
    <ele>4924.1</ele>
    <time>2026-06-23T06:29:21Z</time>
   </trkpt>
   <trkpt lat="-3.0906690" lon="37.3748920">
    <ele>4924.0</ele>
    <time>2026-06-23T06:29:22Z</time>
   </trkpt>
   <trkpt lat="-3.0906680" lon="37.3748920">
    <ele>4924.0</ele>
    <time>2026-06-23T06:29:23Z</time>
   </trkpt>
   <trkpt lat="-3.0906680" lon="37.3748910">
    <ele>4924.0</ele>
    <time>2026-06-23T06:29:24Z</time>
   </trkpt>
   <trkpt lat="-3.0906680" lon="37.3748910">
    <ele>4924.0</ele>
    <time>2026-06-23T06:29:25Z</time>
   </trkpt>
   <trkpt lat="-3.0906680" lon="37.3748910">
    <ele>4924.0</ele>
    <time>2026-06-23T06:29:26Z</time>
   </trkpt>
   <trkpt lat="-3.0906680" lon="37.3748910">
    <ele>4924.0</ele>
    <time>2026-06-23T06:29:27Z</time>
   </trkpt>
   <trkpt lat="-3.0906670" lon="37.3748900">
    <ele>4923.9</ele>
    <time>2026-06-23T06:29:28Z</time>
   </trkpt>
   <trkpt lat="-3.0906670" lon="37.3748900">
    <ele>4923.9</ele>
    <time>2026-06-23T06:29:29Z</time>
   </trkpt>
   <trkpt lat="-3.0906680" lon="37.3748900">
    <ele>4923.9</ele>
    <time>2026-06-23T06:29:30Z</time>
   </trkpt>
   <trkpt lat="-3.0906680" lon="37.3748900">
    <ele>4923.9</ele>
    <time>2026-06-23T06:29:31Z</time>
   </trkpt>
   <trkpt lat="-3.0906680" lon="37.3748900">
    <ele>4923.9</ele>
    <time>2026-06-23T06:29:32Z</time>
   </trkpt>
   <trkpt lat="-3.0906670" lon="37.3748900">
    <ele>4923.9</ele>
    <time>2026-06-23T06:29:33Z</time>
   </trkpt>
   <trkpt lat="-3.0906680" lon="37.3748920">
    <ele>4923.8</ele>
    <time>2026-06-23T06:29:34Z</time>
   </trkpt>
   <trkpt lat="-3.0906690" lon="37.3748910">
    <ele>4923.8</ele>
    <time>2026-06-23T06:29:35Z</time>
   </trkpt>
   <trkpt lat="-3.0906700" lon="37.3748910">
    <ele>4923.8</ele>
    <time>2026-06-23T06:29:36Z</time>
   </trkpt>
   <trkpt lat="-3.0906690" lon="37.3748910">
    <ele>4923.8</ele>
    <time>2026-06-23T06:29:37Z</time>
   </trkpt>
   <trkpt lat="-3.0906700" lon="37.3748920">
    <ele>4923.7</ele>
    <time>2026-06-23T06:29:38Z</time>
   </trkpt>
   <trkpt lat="-3.0906700" lon="37.3748920">
    <ele>4923.7</ele>
    <time>2026-06-23T06:29:39Z</time>
   </trkpt>
   <trkpt lat="-3.0906700" lon="37.3748910">
    <ele>4923.7</ele>
    <time>2026-06-23T06:29:40Z</time>
   </trkpt>
   <trkpt lat="-3.0906700" lon="37.3748900">
    <ele>4923.7</ele>
    <time>2026-06-23T06:29:41Z</time>
   </trkpt>
   <trkpt lat="-3.0906700" lon="37.3748890">
    <ele>4923.7</ele>
    <time>2026-06-23T06:29:42Z</time>
   </trkpt>
   <trkpt lat="-3.0906690" lon="37.3748870">
    <ele>4923.6</ele>
    <time>2026-06-23T06:29:43Z</time>
   </trkpt>
   <trkpt lat="-3.0906680" lon="37.3748870">
    <ele>4923.6</ele>
    <time>2026-06-23T06:29:44Z</time>
   </trkpt>
   <trkpt lat="-3.0906680" lon="37.3748860">
    <ele>4923.6</ele>
    <time>2026-06-23T06:29:45Z</time>
   </trkpt>
   <trkpt lat="-3.0906690" lon="37.3748850">
    <ele>4923.6</ele>
    <time>2026-06-23T06:29:46Z</time>
   </trkpt>
   <trkpt lat="-3.0906690" lon="37.3748850">
    <ele>4923.6</ele>
    <time>2026-06-23T06:29:47Z</time>
   </trkpt>
   <trkpt lat="-3.0906680" lon="37.3748850">
    <ele>4923.5</ele>
    <time>2026-06-23T06:29:48Z</time>
   </trkpt>
   <trkpt lat="-3.0906690" lon="37.3748850">
    <ele>4923.5</ele>
    <time>2026-06-23T06:29:49Z</time>
   </trkpt>
   <trkpt lat="-3.0906690" lon="37.3748850">
    <ele>4923.5</ele>
    <time>2026-06-23T06:29:50Z</time>
   </trkpt>
   <trkpt lat="-3.0906690" lon="37.3748850">
    <ele>4923.5</ele>
    <time>2026-06-23T06:29:51Z</time>
   </trkpt>
   <trkpt lat="-3.0906680" lon="37.3748850">
    <ele>4923.5</ele>
    <time>2026-06-23T06:29:52Z</time>
   </trkpt>
   <trkpt lat="-3.0906680" lon="37.3748860">
    <ele>4923.5</ele>
    <time>2026-06-23T06:29:53Z</time>
   </trkpt>
   <trkpt lat="-3.0906680" lon="37.3748870">
    <ele>4923.5</ele>
    <time>2026-06-23T06:29:54Z</time>
   </trkpt>
   <trkpt lat="-3.0906680" lon="37.3748870">
    <ele>4923.5</ele>
    <time>2026-06-23T06:29:55Z</time>
   </trkpt>
   <trkpt lat="-3.0906680" lon="37.3748860">
    <ele>4923.4</ele>
    <time>2026-06-23T06:29:56Z</time>
   </trkpt>
   <trkpt lat="-3.0906690" lon="37.3748860">
    <ele>4923.4</ele>
    <time>2026-06-23T06:29:57Z</time>
   </trkpt>
   <trkpt lat="-3.0906680" lon="37.3748870">
    <ele>4923.4</ele>
    <time>2026-06-23T06:29:58Z</time>
   </trkpt>
   <trkpt lat="-3.0906670" lon="37.3748880">
    <ele>4923.4</ele>
    <time>2026-06-23T06:29:59Z</time>
   </trkpt>
   <trkpt lat="-3.0906680" lon="37.3748890">
    <ele>4923.3</ele>
    <time>2026-06-23T06:30:00Z</time>
   </trkpt>
   <trkpt lat="-3.0906680" lon="37.3748870">
    <ele>4923.3</ele>
    <time>2026-06-23T06:30:01Z</time>
   </trkpt>
   <trkpt lat="-3.0906680" lon="37.3748870">
    <ele>4923.3</ele>
    <time>2026-06-23T06:30:02Z</time>
   </trkpt>
   <trkpt lat="-3.0906680" lon="37.3748880">
    <ele>4923.3</ele>
    <time>2026-06-23T06:30:03Z</time>
   </trkpt>
   <trkpt lat="-3.0906680" lon="37.3748880">
    <ele>4923.3</ele>
    <time>2026-06-23T06:30:04Z</time>
   </trkpt>
   <trkpt lat="-3.0906680" lon="37.3748870">
    <ele>4923.3</ele>
    <time>2026-06-23T06:30:05Z</time>
   </trkpt>
   <trkpt lat="-3.0906680" lon="37.3748840">
    <ele>4923.2</ele>
    <time>2026-06-23T06:30:06Z</time>
   </trkpt>
   <trkpt lat="-3.0906680" lon="37.3748840">
    <ele>4923.2</ele>
    <time>2026-06-23T06:30:07Z</time>
   </trkpt>
   <trkpt lat="-3.0906680" lon="37.3748860">
    <ele>4923.1</ele>
    <time>2026-06-23T06:30:08Z</time>
   </trkpt>
   <trkpt lat="-3.0906680" lon="37.3748870">
    <ele>4923.1</ele>
    <time>2026-06-23T06:30:09Z</time>
   </trkpt>
   <trkpt lat="-3.0906700" lon="37.3748880">
    <ele>4923.1</ele>
    <time>2026-06-23T06:30:10Z</time>
   </trkpt>
   <trkpt lat="-3.0906690" lon="37.3748890">
    <ele>4923.1</ele>
    <time>2026-06-23T06:30:11Z</time>
   </trkpt>
   <trkpt lat="-3.0906700" lon="37.3748880">
    <ele>4923.0</ele>
    <time>2026-06-23T06:30:12Z</time>
   </trkpt>
   <trkpt lat="-3.0906700" lon="37.3748880">
    <ele>4923.0</ele>
    <time>2026-06-23T06:30:13Z</time>
   </trkpt>
   <trkpt lat="-3.0906700" lon="37.3748880">
    <ele>4923.0</ele>
    <time>2026-06-23T06:30:14Z</time>
   </trkpt>
   <trkpt lat="-3.0906700" lon="37.3748880">
    <ele>4923.0</ele>
    <time>2026-06-23T06:30:15Z</time>
   </trkpt>
   <trkpt lat="-3.0906700" lon="37.3748880">
    <ele>4923.0</ele>
    <time>2026-06-23T06:30:16Z</time>
   </trkpt>
   <trkpt lat="-3.0906690" lon="37.3748860">
    <ele>4923.0</ele>
    <time>2026-06-23T06:30:17Z</time>
   </trkpt>
   <trkpt lat="-3.0906690" lon="37.3748860">
    <ele>4923.0</ele>
    <time>2026-06-23T06:30:18Z</time>
   </trkpt>
   <trkpt lat="-3.0906690" lon="37.3748870">
    <ele>4923.0</ele>
    <time>2026-06-23T06:30:19Z</time>
   </trkpt>
   <trkpt lat="-3.0906690" lon="37.3748870">
    <ele>4923.0</ele>
    <time>2026-06-23T06:30:20Z</time>
   </trkpt>
   <trkpt lat="-3.0906690" lon="37.3748870">
    <ele>4923.0</ele>
    <time>2026-06-23T06:30:21Z</time>
   </trkpt>
   <trkpt lat="-3.0906690" lon="37.3748880">
    <ele>4922.9</ele>
    <time>2026-06-23T06:30:22Z</time>
   </trkpt>
   <trkpt lat="-3.0906690" lon="37.3748880">
    <ele>4922.9</ele>
    <time>2026-06-23T06:30:23Z</time>
   </trkpt>
   <trkpt lat="-3.0906690" lon="37.3748890">
    <ele>4922.9</ele>
    <time>2026-06-23T06:30:24Z</time>
   </trkpt>
   <trkpt lat="-3.0906690" lon="37.3748890">
    <ele>4922.9</ele>
    <time>2026-06-23T06:30:25Z</time>
   </trkpt>
   <trkpt lat="-3.0906690" lon="37.3748880">
    <ele>4922.9</ele>
    <time>2026-06-23T06:30:26Z</time>
   </trkpt>
   <trkpt lat="-3.0906690" lon="37.3748880">
    <ele>4922.9</ele>
    <time>2026-06-23T06:30:27Z</time>
   </trkpt>
   <trkpt lat="-3.0906680" lon="37.3748880">
    <ele>4922.9</ele>
    <time>2026-06-23T06:30:28Z</time>
   </trkpt>
   <trkpt lat="-3.0906690" lon="37.3748880">
    <ele>4922.9</ele>
    <time>2026-06-23T06:30:29Z</time>
   </trkpt>
   <trkpt lat="-3.0906690" lon="37.3748880">
    <ele>4922.9</ele>
    <time>2026-06-23T06:30:30Z</time>
   </trkpt>
   <trkpt lat="-3.0906690" lon="37.3748880">
    <ele>4922.9</ele>
    <time>2026-06-23T06:30:31Z</time>
   </trkpt>
   <trkpt lat="-3.0906690" lon="37.3748880">
    <ele>4922.9</ele>
    <time>2026-06-23T06:30:32Z</time>
   </trkpt>
   <trkpt lat="-3.0906690" lon="37.3748880">
    <ele>4922.9</ele>
    <time>2026-06-23T06:30:33Z</time>
   </trkpt>
   <trkpt lat="-3.0906700" lon="37.3748870">
    <ele>4922.8</ele>
    <time>2026-06-23T06:30:34Z</time>
   </trkpt>
   <trkpt lat="-3.0906700" lon="37.3748870">
    <ele>4922.8</ele>
    <time>2026-06-23T06:30:35Z</time>
   </trkpt>
   <trkpt lat="-3.0906700" lon="37.3748870">
    <ele>4922.8</ele>
    <time>2026-06-23T06:30:36Z</time>
   </trkpt>
   <trkpt lat="-3.0906700" lon="37.3748870">
    <ele>4922.8</ele>
    <time>2026-06-23T06:30:37Z</time>
   </trkpt>
   <trkpt lat="-3.0906700" lon="37.3748840">
    <ele>4922.8</ele>
    <time>2026-06-23T06:30:38Z</time>
   </trkpt>
   <trkpt lat="-3.0906700" lon="37.3748840">
    <ele>4922.8</ele>
    <time>2026-06-23T06:30:39Z</time>
   </trkpt>
   <trkpt lat="-3.0906700" lon="37.3748840">
    <ele>4922.8</ele>
    <time>2026-06-23T06:30:40Z</time>
   </trkpt>
   <trkpt lat="-3.0906700" lon="37.3748840">
    <ele>4922.8</ele>
    <time>2026-06-23T06:30:41Z</time>
   </trkpt>
   <trkpt lat="-3.0906700" lon="37.3748840">
    <ele>4922.8</ele>
    <time>2026-06-23T06:30:42Z</time>
   </trkpt>
   <trkpt lat="-3.0906710" lon="37.3748830">
    <ele>4922.7</ele>
    <time>2026-06-23T06:30:43Z</time>
   </trkpt>
   <trkpt lat="-3.0906710" lon="37.3748830">
    <ele>4922.7</ele>
    <time>2026-06-23T06:30:44Z</time>
   </trkpt>
   <trkpt lat="-3.0906710" lon="37.3748830">
    <ele>4922.7</ele>
    <time>2026-06-23T06:30:45Z</time>
   </trkpt>
   <trkpt lat="-3.0906710" lon="37.3748830">
    <ele>4922.7</ele>
    <time>2026-06-23T06:30:46Z</time>
   </trkpt>
   <trkpt lat="-3.0906710" lon="37.3748830">
    <ele>4922.7</ele>
    <time>2026-06-23T06:30:47Z</time>
   </trkpt>
   <trkpt lat="-3.0906710" lon="37.3748830">
    <ele>4922.7</ele>
    <time>2026-06-23T06:30:48Z</time>
   </trkpt>
   <trkpt lat="-3.0906710" lon="37.3748830">
    <ele>4922.7</ele>
    <time>2026-06-23T06:30:49Z</time>
   </trkpt>
   <trkpt lat="-3.0906710" lon="37.3748830">
    <ele>4922.7</ele>
    <time>2026-06-23T06:30:50Z</time>
   </trkpt>
   <trkpt lat="-3.0906710" lon="37.3748830">
    <ele>4922.7</ele>
    <time>2026-06-23T06:30:51Z</time>
   </trkpt>
   <trkpt lat="-3.0906720" lon="37.3748830">
    <ele>4922.7</ele>
    <time>2026-06-23T06:30:52Z</time>
   </trkpt>
   <trkpt lat="-3.0906720" lon="37.3748830">
    <ele>4922.7</ele>
    <time>2026-06-23T06:30:53Z</time>
   </trkpt>
   <trkpt lat="-3.0906720" lon="37.3748820">
    <ele>4922.7</ele>
    <time>2026-06-23T06:30:54Z</time>
   </trkpt>
   <trkpt lat="-3.0906730" lon="37.3748820">
    <ele>4922.7</ele>
    <time>2026-06-23T06:30:55Z</time>
   </trkpt>
   <trkpt lat="-3.0906720" lon="37.3748830">
    <ele>4922.6</ele>
    <time>2026-06-23T06:30:56Z</time>
   </trkpt>
   <trkpt lat="-3.0906720" lon="37.3748830">
    <ele>4922.6</ele>
    <time>2026-06-23T06:30:57Z</time>
   </trkpt>
   <trkpt lat="-3.0906720" lon="37.3748830">
    <ele>4922.6</ele>
    <time>2026-06-23T06:30:58Z</time>
   </trkpt>
   <trkpt lat="-3.0906720" lon="37.3748830">
    <ele>4922.6</ele>
    <time>2026-06-23T06:30:59Z</time>
   </trkpt>
   <trkpt lat="-3.0906710" lon="37.3748830">
    <ele>4922.6</ele>
    <time>2026-06-23T06:31:00Z</time>
   </trkpt>
   <trkpt lat="-3.0906710" lon="37.3748840">
    <ele>4922.6</ele>
    <time>2026-06-23T06:31:01Z</time>
   </trkpt>
   <trkpt lat="-3.0906700" lon="37.3748850">
    <ele>4922.6</ele>
    <time>2026-06-23T06:31:02Z</time>
   </trkpt>
   <trkpt lat="-3.0906710" lon="37.3748840">
    <ele>4922.5</ele>
    <time>2026-06-23T06:31:03Z</time>
   </trkpt>
   <trkpt lat="-3.0906700" lon="37.3748840">
    <ele>4922.5</ele>
    <time>2026-06-23T06:31:04Z</time>
   </trkpt>
   <trkpt lat="-3.0906720" lon="37.3748860">
    <ele>4922.5</ele>
    <time>2026-06-23T06:31:05Z</time>
   </trkpt>
   <trkpt lat="-3.0906750" lon="37.3748880">
    <ele>4922.4</ele>
    <time>2026-06-23T06:31:06Z</time>
   </trkpt>
   <trkpt lat="-3.0906770" lon="37.3748900">
    <ele>4922.3</ele>
    <time>2026-06-23T06:31:07Z</time>
   </trkpt>
   <trkpt lat="-3.0906750" lon="37.3748870">
    <ele>4922.3</ele>
    <time>2026-06-23T06:31:08Z</time>
   </trkpt>
   <trkpt lat="-3.0906740" lon="37.3748870">
    <ele>4922.2</ele>
    <time>2026-06-23T06:31:09Z</time>
   </trkpt>
   <trkpt lat="-3.0906730" lon="37.3748860">
    <ele>4922.2</ele>
    <time>2026-06-23T06:31:10Z</time>
   </trkpt>
   <trkpt lat="-3.0906730" lon="37.3748870">
    <ele>4922.2</ele>
    <time>2026-06-23T06:31:11Z</time>
   </trkpt>
   <trkpt lat="-3.0906700" lon="37.3748880">
    <ele>4922.1</ele>
    <time>2026-06-23T06:31:12Z</time>
   </trkpt>
   <trkpt lat="-3.0906720" lon="37.3748870">
    <ele>4922.1</ele>
    <time>2026-06-23T06:31:13Z</time>
   </trkpt>
   <trkpt lat="-3.0906720" lon="37.3748860">
    <ele>4922.1</ele>
    <time>2026-06-23T06:31:14Z</time>
   </trkpt>
   <trkpt lat="-3.0906700" lon="37.3748890">
    <ele>4922.0</ele>
    <time>2026-06-23T06:31:15Z</time>
   </trkpt>
   <trkpt lat="-3.0906700" lon="37.3748890">
    <ele>4922.0</ele>
    <time>2026-06-23T06:31:16Z</time>
   </trkpt>
   <trkpt lat="-3.0906700" lon="37.3748890">
    <ele>4922.0</ele>
    <time>2026-06-23T06:31:17Z</time>
   </trkpt>
   <trkpt lat="-3.0906700" lon="37.3748890">
    <ele>4922.0</ele>
    <time>2026-06-23T06:31:18Z</time>
   </trkpt>
   <trkpt lat="-3.0906690" lon="37.3748930">
    <ele>4921.9</ele>
    <time>2026-06-23T06:31:19Z</time>
   </trkpt>
   <trkpt lat="-3.0906690" lon="37.3748930">
    <ele>4921.9</ele>
    <time>2026-06-23T06:31:20Z</time>
   </trkpt>
   <trkpt lat="-3.0906690" lon="37.3748930">
    <ele>4921.9</ele>
    <time>2026-06-23T06:31:21Z</time>
   </trkpt>
   <trkpt lat="-3.0906690" lon="37.3748930">
    <ele>4921.9</ele>
    <time>2026-06-23T06:31:22Z</time>
   </trkpt>
   <trkpt lat="-3.0906720" lon="37.3748940">
    <ele>4921.8</ele>
    <time>2026-06-23T06:31:23Z</time>
   </trkpt>
   <trkpt lat="-3.0906720" lon="37.3748940">
    <ele>4921.8</ele>
    <time>2026-06-23T06:31:24Z</time>
   </trkpt>
   <trkpt lat="-3.0906720" lon="37.3748940">
    <ele>4921.8</ele>
    <time>2026-06-23T06:31:25Z</time>
   </trkpt>
   <trkpt lat="-3.0906720" lon="37.3748940">
    <ele>4921.8</ele>
    <time>2026-06-23T06:31:26Z</time>
   </trkpt>
   <trkpt lat="-3.0906720" lon="37.3748940">
    <ele>4921.8</ele>
    <time>2026-06-23T06:31:27Z</time>
   </trkpt>
   <trkpt lat="-3.0906720" lon="37.3748940">
    <ele>4921.8</ele>
    <time>2026-06-23T06:31:28Z</time>
   </trkpt>
   <trkpt lat="-3.0906720" lon="37.3748940">
    <ele>4921.8</ele>
    <time>2026-06-23T06:31:29Z</time>
   </trkpt>
   <trkpt lat="-3.0906720" lon="37.3748940">
    <ele>4921.8</ele>
    <time>2026-06-23T06:31:30Z</time>
   </trkpt>
   <trkpt lat="-3.0906690" lon="37.3748960">
    <ele>4921.8</ele>
    <time>2026-06-23T06:31:31Z</time>
   </trkpt>
   <trkpt lat="-3.0906690" lon="37.3748960">
    <ele>4921.8</ele>
    <time>2026-06-23T06:31:32Z</time>
   </trkpt>
   <trkpt lat="-3.0906680" lon="37.3748960">
    <ele>4921.7</ele>
    <time>2026-06-23T06:31:33Z</time>
   </trkpt>
   <trkpt lat="-3.0906680" lon="37.3748960">
    <ele>4921.7</ele>
    <time>2026-06-23T06:31:34Z</time>
   </trkpt>
   <trkpt lat="-3.0906680" lon="37.3748960">
    <ele>4921.7</ele>
    <time>2026-06-23T06:31:35Z</time>
   </trkpt>
   <trkpt lat="-3.0906650" lon="37.3748950">
    <ele>4921.7</ele>
    <time>2026-06-23T06:31:36Z</time>
   </trkpt>
   <trkpt lat="-3.0906680" lon="37.3748950">
    <ele>4921.6</ele>
    <time>2026-06-23T06:31:37Z</time>
   </trkpt>
   <trkpt lat="-3.0906630" lon="37.3748890">
    <ele>4921.5</ele>
    <time>2026-06-23T06:31:38Z</time>
   </trkpt>
   <trkpt lat="-3.0906620" lon="37.3748880">
    <ele>4921.4</ele>
    <time>2026-06-23T06:31:39Z</time>
   </trkpt>
   <trkpt lat="-3.0906630" lon="37.3748890">
    <ele>4921.4</ele>
    <time>2026-06-23T06:31:40Z</time>
   </trkpt>
   <trkpt lat="-3.0906640" lon="37.3748890">
    <ele>4921.4</ele>
    <time>2026-06-23T06:31:41Z</time>
   </trkpt>
   <trkpt lat="-3.0906650" lon="37.3748880">
    <ele>4921.4</ele>
    <time>2026-06-23T06:31:42Z</time>
   </trkpt>
   <trkpt lat="-3.0906640" lon="37.3748900">
    <ele>4921.3</ele>
    <time>2026-06-23T06:31:43Z</time>
   </trkpt>
   <trkpt lat="-3.0906650" lon="37.3748890">
    <ele>4921.3</ele>
    <time>2026-06-23T06:31:44Z</time>
   </trkpt>
   <trkpt lat="-3.0906650" lon="37.3748890">
    <ele>4921.3</ele>
    <time>2026-06-23T06:31:45Z</time>
   </trkpt>
   <trkpt lat="-3.0906660" lon="37.3748900">
    <ele>4921.3</ele>
    <time>2026-06-23T06:31:46Z</time>
   </trkpt>
   <trkpt lat="-3.0906660" lon="37.3748920">
    <ele>4921.2</ele>
    <time>2026-06-23T06:31:47Z</time>
   </trkpt>
   <trkpt lat="-3.0906660" lon="37.3748920">
    <ele>4921.2</ele>
    <time>2026-06-23T06:31:48Z</time>
   </trkpt>
   <trkpt lat="-3.0906670" lon="37.3748920">
    <ele>4921.2</ele>
    <time>2026-06-23T06:31:49Z</time>
   </trkpt>
   <trkpt lat="-3.0906660" lon="37.3748930">
    <ele>4921.2</ele>
    <time>2026-06-23T06:31:50Z</time>
   </trkpt>
   <trkpt lat="-3.0906650" lon="37.3748950">
    <ele>4921.1</ele>
    <time>2026-06-23T06:31:51Z</time>
   </trkpt>
   <trkpt lat="-3.0906650" lon="37.3748970">
    <ele>4921.1</ele>
    <time>2026-06-23T06:31:52Z</time>
   </trkpt>
   <trkpt lat="-3.0906640" lon="37.3748960">
    <ele>4921.1</ele>
    <time>2026-06-23T06:31:53Z</time>
   </trkpt>
   <trkpt lat="-3.0906650" lon="37.3748930">
    <ele>4921.0</ele>
    <time>2026-06-23T06:31:54Z</time>
   </trkpt>
   <trkpt lat="-3.0906670" lon="37.3748940">
    <ele>4921.0</ele>
    <time>2026-06-23T06:31:55Z</time>
   </trkpt>
   <trkpt lat="-3.0906680" lon="37.3748930">
    <ele>4920.9</ele>
    <time>2026-06-23T06:31:56Z</time>
   </trkpt>
   <trkpt lat="-3.0906690" lon="37.3748930">
    <ele>4920.9</ele>
    <time>2026-06-23T06:31:57Z</time>
   </trkpt>
   <trkpt lat="-3.0906690" lon="37.3748920">
    <ele>4920.9</ele>
    <time>2026-06-23T06:31:58Z</time>
   </trkpt>
   <trkpt lat="-3.0906660" lon="37.3748880">
    <ele>4920.8</ele>
    <time>2026-06-23T06:31:59Z</time>
   </trkpt>
   <trkpt lat="-3.0906670" lon="37.3748900">
    <ele>4920.8</ele>
    <time>2026-06-23T06:32:00Z</time>
   </trkpt>
   <trkpt lat="-3.0906680" lon="37.3748910">
    <ele>4920.7</ele>
    <time>2026-06-23T06:32:01Z</time>
   </trkpt>
   <trkpt lat="-3.0906670" lon="37.3748910">
    <ele>4920.7</ele>
    <time>2026-06-23T06:32:02Z</time>
   </trkpt>
   <trkpt lat="-3.0906680" lon="37.3748900">
    <ele>4920.7</ele>
    <time>2026-06-23T06:32:03Z</time>
   </trkpt>
   <trkpt lat="-3.0906690" lon="37.3748910">
    <ele>4920.7</ele>
    <time>2026-06-23T06:32:04Z</time>
   </trkpt>
   <trkpt lat="-3.0906690" lon="37.3748890">
    <ele>4920.6</ele>
    <time>2026-06-23T06:32:05Z</time>
   </trkpt>
   <trkpt lat="-3.0906700" lon="37.3748900">
    <ele>4920.6</ele>
    <time>2026-06-23T06:32:06Z</time>
   </trkpt>
   <trkpt lat="-3.0906700" lon="37.3748900">
    <ele>4920.6</ele>
    <time>2026-06-23T06:32:07Z</time>
   </trkpt>
   <trkpt lat="-3.0906700" lon="37.3748910">
    <ele>4920.6</ele>
    <time>2026-06-23T06:32:08Z</time>
   </trkpt>
   <trkpt lat="-3.0906700" lon="37.3748910">
    <ele>4920.6</ele>
    <time>2026-06-23T06:32:09Z</time>
   </trkpt>
   <trkpt lat="-3.0906700" lon="37.3748910">
    <ele>4920.6</ele>
    <time>2026-06-23T06:32:10Z</time>
   </trkpt>
   <trkpt lat="-3.0906700" lon="37.3748910">
    <ele>4920.6</ele>
    <time>2026-06-23T06:32:11Z</time>
   </trkpt>
   <trkpt lat="-3.0906700" lon="37.3748910">
    <ele>4920.6</ele>
    <time>2026-06-23T06:32:12Z</time>
   </trkpt>
   <trkpt lat="-3.0906680" lon="37.3748890">
    <ele>4920.5</ele>
    <time>2026-06-23T06:32:13Z</time>
   </trkpt>
   <trkpt lat="-3.0906670" lon="37.3748920">
    <ele>4920.5</ele>
    <time>2026-06-23T06:32:14Z</time>
   </trkpt>
   <trkpt lat="-3.0906680" lon="37.3748920">
    <ele>4920.4</ele>
    <time>2026-06-23T06:32:15Z</time>
   </trkpt>
   <trkpt lat="-3.0906690" lon="37.3748910">
    <ele>4920.4</ele>
    <time>2026-06-23T06:32:16Z</time>
   </trkpt>
   <trkpt lat="-3.0906690" lon="37.3748910">
    <ele>4920.4</ele>
    <time>2026-06-23T06:32:17Z</time>
   </trkpt>
   <trkpt lat="-3.0906690" lon="37.3748910">
    <ele>4920.4</ele>
    <time>2026-06-23T06:32:18Z</time>
   </trkpt>
   <trkpt lat="-3.0906700" lon="37.3748930">
    <ele>4920.4</ele>
    <time>2026-06-23T06:32:19Z</time>
   </trkpt>
   <trkpt lat="-3.0906700" lon="37.3748930">
    <ele>4920.4</ele>
    <time>2026-06-23T06:32:20Z</time>
   </trkpt>
   <trkpt lat="-3.0906710" lon="37.3748920">
    <ele>4920.3</ele>
    <time>2026-06-23T06:32:21Z</time>
   </trkpt>
   <trkpt lat="-3.0906710" lon="37.3748930">
    <ele>4920.3</ele>
    <time>2026-06-23T06:32:22Z</time>
   </trkpt>
   <trkpt lat="-3.0906710" lon="37.3748930">
    <ele>4920.3</ele>
    <time>2026-06-23T06:32:23Z</time>
   </trkpt>
   <trkpt lat="-3.0906710" lon="37.3748920">
    <ele>4920.3</ele>
    <time>2026-06-23T06:32:24Z</time>
   </trkpt>
   <trkpt lat="-3.0906690" lon="37.3748920">
    <ele>4920.3</ele>
    <time>2026-06-23T06:32:25Z</time>
   </trkpt>
   <trkpt lat="-3.0906710" lon="37.3748920">
    <ele>4920.2</ele>
    <time>2026-06-23T06:32:26Z</time>
   </trkpt>
   <trkpt lat="-3.0906700" lon="37.3748920">
    <ele>4920.2</ele>
    <time>2026-06-23T06:32:27Z</time>
   </trkpt>
   <trkpt lat="-3.0906700" lon="37.3748920">
    <ele>4920.2</ele>
    <time>2026-06-23T06:32:28Z</time>
   </trkpt>
   <trkpt lat="-3.0906700" lon="37.3748920">
    <ele>4920.2</ele>
    <time>2026-06-23T06:32:29Z</time>
   </trkpt>
   <trkpt lat="-3.0906700" lon="37.3748920">
    <ele>4920.2</ele>
    <time>2026-06-23T06:32:30Z</time>
   </trkpt>
   <trkpt lat="-3.0906700" lon="37.3748940">
    <ele>4920.2</ele>
    <time>2026-06-23T06:32:31Z</time>
   </trkpt>
   <trkpt lat="-3.0906700" lon="37.3748940">
    <ele>4920.2</ele>
    <time>2026-06-23T06:32:32Z</time>
   </trkpt>
   <trkpt lat="-3.0906700" lon="37.3748940">
    <ele>4920.2</ele>
    <time>2026-06-23T06:32:33Z</time>
   </trkpt>
   <trkpt lat="-3.0906700" lon="37.3748930">
    <ele>4920.1</ele>
    <time>2026-06-23T06:32:34Z</time>
   </trkpt>
   <trkpt lat="-3.0906690" lon="37.3748920">
    <ele>4920.1</ele>
    <time>2026-06-23T06:32:35Z</time>
   </trkpt>
   <trkpt lat="-3.0906690" lon="37.3748930">
    <ele>4920.1</ele>
    <time>2026-06-23T06:32:36Z</time>
   </trkpt>
   <trkpt lat="-3.0906680" lon="37.3748930">
    <ele>4920.1</ele>
    <time>2026-06-23T06:32:37Z</time>
   </trkpt>
   <trkpt lat="-3.0906690" lon="37.3748920">
    <ele>4920.0</ele>
    <time>2026-06-23T06:32:38Z</time>
   </trkpt>
   <trkpt lat="-3.0906690" lon="37.3748920">
    <ele>4920.0</ele>
    <time>2026-06-23T06:32:39Z</time>
   </trkpt>
   <trkpt lat="-3.0906700" lon="37.3748880">
    <ele>4920.0</ele>
    <time>2026-06-23T06:32:40Z</time>
   </trkpt>
   <trkpt lat="-3.0906650" lon="37.3748940">
    <ele>4919.8</ele>
    <time>2026-06-23T06:32:41Z</time>
   </trkpt>
   <trkpt lat="-3.0906660" lon="37.3748940">
    <ele>4919.8</ele>
    <time>2026-06-23T06:32:42Z</time>
   </trkpt>
   <trkpt lat="-3.0906670" lon="37.3748940">
    <ele>4919.8</ele>
    <time>2026-06-23T06:32:43Z</time>
   </trkpt>
   <trkpt lat="-3.0906670" lon="37.3748940">
    <ele>4919.8</ele>
    <time>2026-06-23T06:32:44Z</time>
   </trkpt>
   <trkpt lat="-3.0906660" lon="37.3748940">
    <ele>4919.7</ele>
    <time>2026-06-23T06:32:45Z</time>
   </trkpt>
   <trkpt lat="-3.0906670" lon="37.3748950">
    <ele>4919.7</ele>
    <time>2026-06-23T06:32:46Z</time>
   </trkpt>
   <trkpt lat="-3.0906670" lon="37.3748950">
    <ele>4919.7</ele>
    <time>2026-06-23T06:32:47Z</time>
   </trkpt>
   <trkpt lat="-3.0906670" lon="37.3748950">
    <ele>4919.7</ele>
    <time>2026-06-23T06:32:48Z</time>
   </trkpt>
   <trkpt lat="-3.0906670" lon="37.3748940">
    <ele>4919.7</ele>
    <time>2026-06-23T06:32:49Z</time>
   </trkpt>
   <trkpt lat="-3.0906670" lon="37.3748940">
    <ele>4919.7</ele>
    <time>2026-06-23T06:32:50Z</time>
   </trkpt>
   <trkpt lat="-3.0906680" lon="37.3748940">
    <ele>4919.7</ele>
    <time>2026-06-23T06:32:51Z</time>
   </trkpt>
   <trkpt lat="-3.0906670" lon="37.3748940">
    <ele>4919.7</ele>
    <time>2026-06-23T06:32:52Z</time>
   </trkpt>
   <trkpt lat="-3.0906670" lon="37.3748960">
    <ele>4919.6</ele>
    <time>2026-06-23T06:32:53Z</time>
   </trkpt>
   <trkpt lat="-3.0906660" lon="37.3748950">
    <ele>4919.6</ele>
    <time>2026-06-23T06:32:54Z</time>
   </trkpt>
   <trkpt lat="-3.0906660" lon="37.3748950">
    <ele>4919.6</ele>
    <time>2026-06-23T06:32:55Z</time>
   </trkpt>
   <trkpt lat="-3.0906670" lon="37.3748950">
    <ele>4919.6</ele>
    <time>2026-06-23T06:32:56Z</time>
   </trkpt>
   <trkpt lat="-3.0906670" lon="37.3748940">
    <ele>4919.6</ele>
    <time>2026-06-23T06:32:57Z</time>
   </trkpt>
   <trkpt lat="-3.0906670" lon="37.3748950">
    <ele>4919.5</ele>
    <time>2026-06-23T06:32:58Z</time>
   </trkpt>
   <trkpt lat="-3.0906660" lon="37.3748950">
    <ele>4919.5</ele>
    <time>2026-06-23T06:32:59Z</time>
   </trkpt>
   <trkpt lat="-3.0906660" lon="37.3748940">
    <ele>4919.5</ele>
    <time>2026-06-23T06:33:00Z</time>
   </trkpt>
   <trkpt lat="-3.0906640" lon="37.3748960">
    <ele>4919.4</ele>
    <time>2026-06-23T06:33:01Z</time>
   </trkpt>
   <trkpt lat="-3.0906660" lon="37.3748940">
    <ele>4919.4</ele>
    <time>2026-06-23T06:33:02Z</time>
   </trkpt>
   <trkpt lat="-3.0906650" lon="37.3748950">
    <ele>4919.4</ele>
    <time>2026-06-23T06:33:03Z</time>
   </trkpt>
   <trkpt lat="-3.0906660" lon="37.3748950">
    <ele>4919.3</ele>
    <time>2026-06-23T06:33:04Z</time>
   </trkpt>
   <trkpt lat="-3.0906660" lon="37.3748950">
    <ele>4919.3</ele>
    <time>2026-06-23T06:33:05Z</time>
   </trkpt>
   <trkpt lat="-3.0906670" lon="37.3748950">
    <ele>4919.3</ele>
    <time>2026-06-23T06:33:06Z</time>
   </trkpt>
   <trkpt lat="-3.0906670" lon="37.3748950">
    <ele>4919.3</ele>
    <time>2026-06-23T06:33:07Z</time>
   </trkpt>
   <trkpt lat="-3.0906680" lon="37.3748950">
    <ele>4919.3</ele>
    <time>2026-06-23T06:33:08Z</time>
   </trkpt>
   <trkpt lat="-3.0906690" lon="37.3748960">
    <ele>4919.3</ele>
    <time>2026-06-23T06:33:09Z</time>
   </trkpt>
   <trkpt lat="-3.0906660" lon="37.3748950">
    <ele>4919.2</ele>
    <time>2026-06-23T06:33:10Z</time>
   </trkpt>
   <trkpt lat="-3.0906670" lon="37.3748960">
    <ele>4919.2</ele>
    <time>2026-06-23T06:33:11Z</time>
   </trkpt>
   <trkpt lat="-3.0906680" lon="37.3748960">
    <ele>4919.2</ele>
    <time>2026-06-23T06:33:12Z</time>
   </trkpt>
   <trkpt lat="-3.0906670" lon="37.3748950">
    <ele>4919.1</ele>
    <time>2026-06-23T06:33:13Z</time>
   </trkpt>
   <trkpt lat="-3.0906670" lon="37.3748950">
    <ele>4919.1</ele>
    <time>2026-06-23T06:33:14Z</time>
   </trkpt>
   <trkpt lat="-3.0906670" lon="37.3748940">
    <ele>4919.1</ele>
    <time>2026-06-23T06:33:15Z</time>
   </trkpt>
   <trkpt lat="-3.0906670" lon="37.3748940">
    <ele>4919.1</ele>
    <time>2026-06-23T06:33:16Z</time>
   </trkpt>
   <trkpt lat="-3.0906670" lon="37.3748940">
    <ele>4919.1</ele>
    <time>2026-06-23T06:33:17Z</time>
   </trkpt>
   <trkpt lat="-3.0906670" lon="37.3748940">
    <ele>4919.1</ele>
    <time>2026-06-23T06:33:18Z</time>
   </trkpt>
   <trkpt lat="-3.0906670" lon="37.3748950">
    <ele>4919.1</ele>
    <time>2026-06-23T06:33:19Z</time>
   </trkpt>
   <trkpt lat="-3.0906660" lon="37.3748940">
    <ele>4919.1</ele>
    <time>2026-06-23T06:33:20Z</time>
   </trkpt>
   <trkpt lat="-3.0906660" lon="37.3748940">
    <ele>4919.1</ele>
    <time>2026-06-23T06:33:21Z</time>
   </trkpt>
   <trkpt lat="-3.0906660" lon="37.3748940">
    <ele>4919.1</ele>
    <time>2026-06-23T06:33:22Z</time>
   </trkpt>
   <trkpt lat="-3.0906660" lon="37.3748940">
    <ele>4919.1</ele>
    <time>2026-06-23T06:33:23Z</time>
   </trkpt>
   <trkpt lat="-3.0906660" lon="37.3748940">
    <ele>4919.1</ele>
    <time>2026-06-23T06:33:24Z</time>
   </trkpt>
   <trkpt lat="-3.0906660" lon="37.3748940">
    <ele>4919.1</ele>
    <time>2026-06-23T06:33:25Z</time>
   </trkpt>
   <trkpt lat="-3.0906660" lon="37.3748930">
    <ele>4919.0</ele>
    <time>2026-06-23T06:33:26Z</time>
   </trkpt>
   <trkpt lat="-3.0906660" lon="37.3748930">
    <ele>4919.0</ele>
    <time>2026-06-23T06:33:27Z</time>
   </trkpt>
   <trkpt lat="-3.0906670" lon="37.3748930">
    <ele>4919.0</ele>
    <time>2026-06-23T06:33:28Z</time>
   </trkpt>
   <trkpt lat="-3.0906670" lon="37.3748930">
    <ele>4919.0</ele>
    <time>2026-06-23T06:33:29Z</time>
   </trkpt>
   <trkpt lat="-3.0906670" lon="37.3748930">
    <ele>4919.0</ele>
    <time>2026-06-23T06:33:30Z</time>
   </trkpt>
   <trkpt lat="-3.0906670" lon="37.3748930">
    <ele>4919.0</ele>
    <time>2026-06-23T06:33:31Z</time>
   </trkpt>
   <trkpt lat="-3.0906680" lon="37.3748930">
    <ele>4919.0</ele>
    <time>2026-06-23T06:33:32Z</time>
   </trkpt>
   <trkpt lat="-3.0906680" lon="37.3748930">
    <ele>4919.0</ele>
    <time>2026-06-23T06:33:33Z</time>
   </trkpt>
   <trkpt lat="-3.0906680" lon="37.3748930">
    <ele>4919.0</ele>
    <time>2026-06-23T06:33:34Z</time>
   </trkpt>
   <trkpt lat="-3.0906680" lon="37.3748930">
    <ele>4919.0</ele>
    <time>2026-06-23T06:33:35Z</time>
   </trkpt>
   <trkpt lat="-3.0906680" lon="37.3748930">
    <ele>4919.0</ele>
    <time>2026-06-23T06:33:36Z</time>
   </trkpt>
   <trkpt lat="-3.0906680" lon="37.3748930">
    <ele>4919.0</ele>
    <time>2026-06-23T06:33:37Z</time>
   </trkpt>
   <trkpt lat="-3.0906680" lon="37.3748930">
    <ele>4919.0</ele>
    <time>2026-06-23T06:33:38Z</time>
   </trkpt>
   <trkpt lat="-3.0906680" lon="37.3748940">
    <ele>4919.0</ele>
    <time>2026-06-23T06:33:39Z</time>
   </trkpt>
   <trkpt lat="-3.0906680" lon="37.3748940">
    <ele>4919.0</ele>
    <time>2026-06-23T06:33:40Z</time>
   </trkpt>
   <trkpt lat="-3.0906680" lon="37.3748940">
    <ele>4919.0</ele>
    <time>2026-06-23T06:33:41Z</time>
   </trkpt>
   <trkpt lat="-3.0906680" lon="37.3748950">
    <ele>4919.0</ele>
    <time>2026-06-23T06:33:42Z</time>
   </trkpt>
   <trkpt lat="-3.0906680" lon="37.3748940">
    <ele>4919.0</ele>
    <time>2026-06-23T06:33:43Z</time>
   </trkpt>
   <trkpt lat="-3.0906680" lon="37.3748940">
    <ele>4919.0</ele>
    <time>2026-06-23T06:33:44Z</time>
   </trkpt>
   <trkpt lat="-3.0906680" lon="37.3748940">
    <ele>4919.0</ele>
    <time>2026-06-23T06:33:45Z</time>
   </trkpt>
   <trkpt lat="-3.0906680" lon="37.3748940">
    <ele>4919.0</ele>
    <time>2026-06-23T06:33:46Z</time>
   </trkpt>
   <trkpt lat="-3.0906690" lon="37.3748940">
    <ele>4918.9</ele>
    <time>2026-06-23T06:33:47Z</time>
   </trkpt>
   <trkpt lat="-3.0906690" lon="37.3748940">
    <ele>4918.9</ele>
    <time>2026-06-23T06:33:48Z</time>
   </trkpt>
   <trkpt lat="-3.0906690" lon="37.3748940">
    <ele>4918.9</ele>
    <time>2026-06-23T06:33:49Z</time>
   </trkpt>
   <trkpt lat="-3.0906680" lon="37.3748940">
    <ele>4918.9</ele>
    <time>2026-06-23T06:33:50Z</time>
   </trkpt>
   <trkpt lat="-3.0906680" lon="37.3748930">
    <ele>4918.9</ele>
    <time>2026-06-23T06:33:51Z</time>
   </trkpt>
   <trkpt lat="-3.0906680" lon="37.3748920">
    <ele>4918.9</ele>
    <time>2026-06-23T06:33:52Z</time>
   </trkpt>
   <trkpt lat="-3.0906670" lon="37.3748920">
    <ele>4918.9</ele>
    <time>2026-06-23T06:33:53Z</time>
   </trkpt>
   <trkpt lat="-3.0906680" lon="37.3748930">
    <ele>4918.8</ele>
    <time>2026-06-23T06:33:54Z</time>
   </trkpt>
   <trkpt lat="-3.0906680" lon="37.3748930">
    <ele>4918.8</ele>
    <time>2026-06-23T06:33:55Z</time>
   </trkpt>
   <trkpt lat="-3.0906690" lon="37.3748940">
    <ele>4918.8</ele>
    <time>2026-06-23T06:33:56Z</time>
   </trkpt>
   <trkpt lat="-3.0906650" lon="37.3748920">
    <ele>4918.7</ele>
    <time>2026-06-23T06:33:57Z</time>
   </trkpt>
   <trkpt lat="-3.0906660" lon="37.3748980">
    <ele>4918.6</ele>
    <time>2026-06-23T06:33:58Z</time>
   </trkpt>
   <trkpt lat="-3.0906650" lon="37.3748990">
    <ele>4918.6</ele>
    <time>2026-06-23T06:33:59Z</time>
   </trkpt>
   <trkpt lat="-3.0906650" lon="37.3748970">
    <ele>4918.5</ele>
    <time>2026-06-23T06:34:00Z</time>
   </trkpt>
   <trkpt lat="-3.0906700" lon="37.3749060">
    <ele>4918.3</ele>
    <time>2026-06-23T06:34:01Z</time>
   </trkpt>
   <trkpt lat="-3.0906740" lon="37.3749060">
    <ele>4918.2</ele>
    <time>2026-06-23T06:34:02Z</time>
   </trkpt>
   <trkpt lat="-3.0906730" lon="37.3749050">
    <ele>4918.2</ele>
    <time>2026-06-23T06:34:03Z</time>
   </trkpt>
   <trkpt lat="-3.0906730" lon="37.3748970">
    <ele>4918.1</ele>
    <time>2026-06-23T06:34:04Z</time>
   </trkpt>
   <trkpt lat="-3.0906720" lon="37.3748960">
    <ele>4918.0</ele>
    <time>2026-06-23T06:34:05Z</time>
   </trkpt>
   <trkpt lat="-3.0906690" lon="37.3748960">
    <ele>4918.0</ele>
    <time>2026-06-23T06:34:06Z</time>
   </trkpt>
   <trkpt lat="-3.0906680" lon="37.3748940">
    <ele>4917.9</ele>
    <time>2026-06-23T06:34:07Z</time>
   </trkpt>
   <trkpt lat="-3.0906680" lon="37.3748890">
    <ele>4917.8</ele>
    <time>2026-06-23T06:34:08Z</time>
   </trkpt>
   <trkpt lat="-3.0906690" lon="37.3748870">
    <ele>4917.8</ele>
    <time>2026-06-23T06:34:09Z</time>
   </trkpt>
   <trkpt lat="-3.0906680" lon="37.3748870">
    <ele>4917.8</ele>
    <time>2026-06-23T06:34:10Z</time>
   </trkpt>
   <trkpt lat="-3.0906690" lon="37.3748840">
    <ele>4917.7</ele>
    <time>2026-06-23T06:34:11Z</time>
   </trkpt>
   <trkpt lat="-3.0906750" lon="37.3748830">
    <ele>4917.6</ele>
    <time>2026-06-23T06:34:12Z</time>
   </trkpt>
   <trkpt lat="-3.0906850" lon="37.3748830">
    <ele>4917.4</ele>
    <time>2026-06-23T06:34:13Z</time>
   </trkpt>
   <trkpt lat="-3.0906980" lon="37.3748840">
    <ele>4917.1</ele>
    <time>2026-06-23T06:34:14Z</time>
   </trkpt>
   <trkpt lat="-3.0907110" lon="37.3748940">
    <ele>4916.8</ele>
    <time>2026-06-23T06:34:15Z</time>
   </trkpt>
   <trkpt lat="-3.0907240" lon="37.3749040">
    <ele>4916.5</ele>
    <time>2026-06-23T06:34:16Z</time>
   </trkpt>
   <trkpt lat="-3.0907310" lon="37.3749130">
    <ele>4916.3</ele>
    <time>2026-06-23T06:34:17Z</time>
   </trkpt>
   <trkpt lat="-3.0907360" lon="37.3749230">
    <ele>4916.1</ele>
    <time>2026-06-23T06:34:18Z</time>
   </trkpt>
   <trkpt lat="-3.0907410" lon="37.3749340">
    <ele>4915.9</ele>
    <time>2026-06-23T06:34:19Z</time>
   </trkpt>
   <trkpt lat="-3.0907430" lon="37.3749470">
    <ele>4915.6</ele>
    <time>2026-06-23T06:34:20Z</time>
   </trkpt>
   <trkpt lat="-3.0907440" lon="37.3749610">
    <ele>4915.4</ele>
    <time>2026-06-23T06:34:21Z</time>
   </trkpt>
   <trkpt lat="-3.0907480" lon="37.3749700">
    <ele>4915.2</ele>
    <time>2026-06-23T06:34:22Z</time>
   </trkpt>
   <trkpt lat="-3.0907560" lon="37.3749780">
    <ele>4915.0</ele>
    <time>2026-06-23T06:34:23Z</time>
   </trkpt>
   <trkpt lat="-3.0907570" lon="37.3749900">
    <ele>4914.7</ele>
    <time>2026-06-23T06:34:24Z</time>
   </trkpt>
   <trkpt lat="-3.0907580" lon="37.3750000">
    <ele>4914.6</ele>
    <time>2026-06-23T06:34:25Z</time>
   </trkpt>
   <trkpt lat="-3.0907650" lon="37.3750110">
    <ele>4914.3</ele>
    <time>2026-06-23T06:34:26Z</time>
   </trkpt>
   <trkpt lat="-3.0907740" lon="37.3750190">
    <ele>4914.1</ele>
    <time>2026-06-23T06:34:27Z</time>
   </trkpt>
   <trkpt lat="-3.0907840" lon="37.3750250">
    <ele>4913.9</ele>
    <time>2026-06-23T06:34:28Z</time>
   </trkpt>
   <trkpt lat="-3.0907930" lon="37.3750330">
    <ele>4913.7</ele>
    <time>2026-06-23T06:34:29Z</time>
   </trkpt>
   <trkpt lat="-3.0907960" lon="37.3750460">
    <ele>4913.4</ele>
    <time>2026-06-23T06:34:30Z</time>
   </trkpt>
   <trkpt lat="-3.0907970" lon="37.3750600">
    <ele>4913.2</ele>
    <time>2026-06-23T06:34:31Z</time>
   </trkpt>
   <trkpt lat="-3.0908030" lon="37.3750690">
    <ele>4913.0</ele>
    <time>2026-06-23T06:34:32Z</time>
   </trkpt>
   <trkpt lat="-3.0908140" lon="37.3750760">
    <ele>4912.7</ele>
    <time>2026-06-23T06:34:33Z</time>
   </trkpt>
   <trkpt lat="-3.0908260" lon="37.3750820">
    <ele>4912.5</ele>
    <time>2026-06-23T06:34:34Z</time>
   </trkpt>
   <trkpt lat="-3.0908350" lon="37.3750880">
    <ele>4912.3</ele>
    <time>2026-06-23T06:34:35Z</time>
   </trkpt>
   <trkpt lat="-3.0908450" lon="37.3750930">
    <ele>4912.1</ele>
    <time>2026-06-23T06:34:36Z</time>
   </trkpt>
   <trkpt lat="-3.0908580" lon="37.3751000">
    <ele>4911.8</ele>
    <time>2026-06-23T06:34:37Z</time>
   </trkpt>
   <trkpt lat="-3.0908630" lon="37.3751020">
    <ele>4911.6</ele>
    <time>2026-06-23T06:34:38Z</time>
   </trkpt>
   <trkpt lat="-3.0908660" lon="37.3751000">
    <ele>4911.5</ele>
    <time>2026-06-23T06:34:39Z</time>
   </trkpt>
   <trkpt lat="-3.0908770" lon="37.3751050">
    <ele>4911.3</ele>
    <time>2026-06-23T06:34:40Z</time>
   </trkpt>
   <trkpt lat="-3.0908870" lon="37.3751080">
    <ele>4911.0</ele>
    <time>2026-06-23T06:34:41Z</time>
   </trkpt>
   <trkpt lat="-3.0908960" lon="37.3751110">
    <ele>4910.8</ele>
    <time>2026-06-23T06:34:42Z</time>
   </trkpt>
   <trkpt lat="-3.0909060" lon="37.3751120">
    <ele>4910.5</ele>
    <time>2026-06-23T06:34:43Z</time>
   </trkpt>
   <trkpt lat="-3.0909170" lon="37.3751120">
    <ele>4910.3</ele>
    <time>2026-06-23T06:34:44Z</time>
   </trkpt>
   <trkpt lat="-3.0909280" lon="37.3751130">
    <ele>4910.0</ele>
    <time>2026-06-23T06:34:45Z</time>
   </trkpt>
   <trkpt lat="-3.0909320" lon="37.3751160">
    <ele>4909.9</ele>
    <time>2026-06-23T06:34:46Z</time>
   </trkpt>
   <trkpt lat="-3.0909380" lon="37.3751160">
    <ele>4909.7</ele>
    <time>2026-06-23T06:34:47Z</time>
   </trkpt>
   <trkpt lat="-3.0909530" lon="37.3751280">
    <ele>4909.3</ele>
    <time>2026-06-23T06:34:48Z</time>
   </trkpt>
   <trkpt lat="-3.0909620" lon="37.3751380">
    <ele>4909.0</ele>
    <time>2026-06-23T06:34:49Z</time>
   </trkpt>
   <trkpt lat="-3.0909660" lon="37.3751480">
    <ele>4908.7</ele>
    <time>2026-06-23T06:34:50Z</time>
   </trkpt>
   <trkpt lat="-3.0909710" lon="37.3751620">
    <ele>4908.4</ele>
    <time>2026-06-23T06:34:51Z</time>
   </trkpt>
   <trkpt lat="-3.0909790" lon="37.3751690">
    <ele>4908.1</ele>
    <time>2026-06-23T06:34:52Z</time>
   </trkpt>
   <trkpt lat="-3.0909930" lon="37.3751790">
    <ele>4907.7</ele>
    <time>2026-06-23T06:34:53Z</time>
   </trkpt>
   <trkpt lat="-3.0910030" lon="37.3751860">
    <ele>4907.4</ele>
    <time>2026-06-23T06:34:54Z</time>
   </trkpt>
   <trkpt lat="-3.0910060" lon="37.3751890">
    <ele>4907.3</ele>
    <time>2026-06-23T06:34:55Z</time>
   </trkpt>
   <trkpt lat="-3.0910130" lon="37.3751980">
    <ele>4907.0</ele>
    <time>2026-06-23T06:34:56Z</time>
   </trkpt>
   <trkpt lat="-3.0910200" lon="37.3752090">
    <ele>4906.7</ele>
    <time>2026-06-23T06:34:57Z</time>
   </trkpt>
   <trkpt lat="-3.0910240" lon="37.3752170">
    <ele>4906.5</ele>
    <time>2026-06-23T06:34:58Z</time>
   </trkpt>
   <trkpt lat="-3.0910250" lon="37.3752240">
    <ele>4906.3</ele>
    <time>2026-06-23T06:34:59Z</time>
   </trkpt>
   <trkpt lat="-3.0910300" lon="37.3752320">
    <ele>4906.1</ele>
    <time>2026-06-23T06:35:00Z</time>
   </trkpt>
   <trkpt lat="-3.0910350" lon="37.3752420">
    <ele>4905.8</ele>
    <time>2026-06-23T06:35:01Z</time>
   </trkpt>
   <trkpt lat="-3.0910390" lon="37.3752440">
    <ele>4905.7</ele>
    <time>2026-06-23T06:35:02Z</time>
   </trkpt>
   <trkpt lat="-3.0910390" lon="37.3752380">
    <ele>4905.5</ele>
    <time>2026-06-23T06:35:03Z</time>
   </trkpt>
   <trkpt lat="-3.0910380" lon="37.3752370">
    <ele>4905.5</ele>
    <time>2026-06-23T06:35:04Z</time>
   </trkpt>
   <trkpt lat="-3.0910380" lon="37.3752360">
    <ele>4905.5</ele>
    <time>2026-06-23T06:35:05Z</time>
   </trkpt>
   <trkpt lat="-3.0910390" lon="37.3752370">
    <ele>4905.4</ele>
    <time>2026-06-23T06:35:06Z</time>
   </trkpt>
   <trkpt lat="-3.0910380" lon="37.3752380">
    <ele>4905.4</ele>
    <time>2026-06-23T06:35:07Z</time>
   </trkpt>
   <trkpt lat="-3.0910390" lon="37.3752400">
    <ele>4905.3</ele>
    <time>2026-06-23T06:35:08Z</time>
   </trkpt>
   <trkpt lat="-3.0910410" lon="37.3752460">
    <ele>4905.2</ele>
    <time>2026-06-23T06:35:09Z</time>
   </trkpt>
   <trkpt lat="-3.0910450" lon="37.3752580">
    <ele>4904.9</ele>
    <time>2026-06-23T06:35:10Z</time>
   </trkpt>
   <trkpt lat="-3.0910480" lon="37.3752630">
    <ele>4904.7</ele>
    <time>2026-06-23T06:35:11Z</time>
   </trkpt>
   <trkpt lat="-3.0910520" lon="37.3752680">
    <ele>4904.6</ele>
    <time>2026-06-23T06:35:12Z</time>
   </trkpt>
   <trkpt lat="-3.0910560" lon="37.3752680">
    <ele>4904.5</ele>
    <time>2026-06-23T06:35:13Z</time>
   </trkpt>
   <trkpt lat="-3.0910610" lon="37.3752700">
    <ele>4904.3</ele>
    <time>2026-06-23T06:35:14Z</time>
   </trkpt>
   <trkpt lat="-3.0910620" lon="37.3752740">
    <ele>4904.2</ele>
    <time>2026-06-23T06:35:15Z</time>
   </trkpt>
   <trkpt lat="-3.0910620" lon="37.3752740">
    <ele>4904.2</ele>
    <time>2026-06-23T06:35:16Z</time>
   </trkpt>
   <trkpt lat="-3.0910650" lon="37.3752790">
    <ele>4904.1</ele>
    <time>2026-06-23T06:35:17Z</time>
   </trkpt>
   <trkpt lat="-3.0910670" lon="37.3752810">
    <ele>4904.0</ele>
    <time>2026-06-23T06:35:18Z</time>
   </trkpt>
   <trkpt lat="-3.0910680" lon="37.3752840">
    <ele>4903.9</ele>
    <time>2026-06-23T06:35:19Z</time>
   </trkpt>
   <trkpt lat="-3.0910730" lon="37.3752910">
    <ele>4903.7</ele>
    <time>2026-06-23T06:35:20Z</time>
   </trkpt>
   <trkpt lat="-3.0910760" lon="37.3753020">
    <ele>4903.5</ele>
    <time>2026-06-23T06:35:21Z</time>
   </trkpt>
   <trkpt lat="-3.0910740" lon="37.3753070">
    <ele>4903.3</ele>
    <time>2026-06-23T06:35:22Z</time>
   </trkpt>
   <trkpt lat="-3.0910700" lon="37.3753160">
    <ele>4903.1</ele>
    <time>2026-06-23T06:35:23Z</time>
   </trkpt>
   <trkpt lat="-3.0910680" lon="37.3753270">
    <ele>4902.8</ele>
    <time>2026-06-23T06:35:24Z</time>
   </trkpt>
   <trkpt lat="-3.0910580" lon="37.3753470">
    <ele>4902.3</ele>
    <time>2026-06-23T06:35:25Z</time>
   </trkpt>
   <trkpt lat="-3.0910620" lon="37.3753580">
    <ele>4902.0</ele>
    <time>2026-06-23T06:35:26Z</time>
   </trkpt>
   <trkpt lat="-3.0910670" lon="37.3753700">
    <ele>4901.6</ele>
    <time>2026-06-23T06:35:27Z</time>
   </trkpt>
   <trkpt lat="-3.0910730" lon="37.3753830">
    <ele>4901.3</ele>
    <time>2026-06-23T06:35:28Z</time>
   </trkpt>
   <trkpt lat="-3.0910730" lon="37.3753930">
    <ele>4901.0</ele>
    <time>2026-06-23T06:35:29Z</time>
   </trkpt>
   <trkpt lat="-3.0910760" lon="37.3754020">
    <ele>4900.8</ele>
    <time>2026-06-23T06:35:30Z</time>
   </trkpt>
   <trkpt lat="-3.0910740" lon="37.3754110">
    <ele>4900.6</ele>
    <time>2026-06-23T06:35:31Z</time>
   </trkpt>
   <trkpt lat="-3.0910740" lon="37.3754230">
    <ele>4900.3</ele>
    <time>2026-06-23T06:35:32Z</time>
   </trkpt>
   <trkpt lat="-3.0910730" lon="37.3754270">
    <ele>4900.1</ele>
    <time>2026-06-23T06:35:33Z</time>
   </trkpt>
   <trkpt lat="-3.0910780" lon="37.3754300">
    <ele>4900.0</ele>
    <time>2026-06-23T06:35:34Z</time>
   </trkpt>
   <trkpt lat="-3.0910830" lon="37.3754440">
    <ele>4899.6</ele>
    <time>2026-06-23T06:35:35Z</time>
   </trkpt>
   <trkpt lat="-3.0910820" lon="37.3754500">
    <ele>4899.5</ele>
    <time>2026-06-23T06:35:36Z</time>
   </trkpt>
   <trkpt lat="-3.0910820" lon="37.3754630">
    <ele>4899.1</ele>
    <time>2026-06-23T06:35:37Z</time>
   </trkpt>
   <trkpt lat="-3.0910820" lon="37.3754740">
    <ele>4898.8</ele>
    <time>2026-06-23T06:35:38Z</time>
   </trkpt>
   <trkpt lat="-3.0910820" lon="37.3754880">
    <ele>4898.5</ele>
    <time>2026-06-23T06:35:39Z</time>
   </trkpt>
   <trkpt lat="-3.0910880" lon="37.3755050">
    <ele>4898.0</ele>
    <time>2026-06-23T06:35:40Z</time>
   </trkpt>
   <trkpt lat="-3.0910910" lon="37.3755110">
    <ele>4897.8</ele>
    <time>2026-06-23T06:35:41Z</time>
   </trkpt>
   <trkpt lat="-3.0910970" lon="37.3755140">
    <ele>4897.6</ele>
    <time>2026-06-23T06:35:42Z</time>
   </trkpt>
   <trkpt lat="-3.0911020" lon="37.3755210">
    <ele>4897.4</ele>
    <time>2026-06-23T06:35:43Z</time>
   </trkpt>
   <trkpt lat="-3.0911080" lon="37.3755280">
    <ele>4897.1</ele>
    <time>2026-06-23T06:35:44Z</time>
   </trkpt>
   <trkpt lat="-3.0911080" lon="37.3755350">
    <ele>4897.0</ele>
    <time>2026-06-23T06:35:45Z</time>
   </trkpt>
   <trkpt lat="-3.0911080" lon="37.3755470">
    <ele>4896.6</ele>
    <time>2026-06-23T06:35:46Z</time>
   </trkpt>
   <trkpt lat="-3.0911140" lon="37.3755560">
    <ele>4896.3</ele>
    <time>2026-06-23T06:35:47Z</time>
   </trkpt>
   <trkpt lat="-3.0911220" lon="37.3755620">
    <ele>4896.1</ele>
    <time>2026-06-23T06:35:48Z</time>
   </trkpt>
   <trkpt lat="-3.0911310" lon="37.3755690">
    <ele>4895.8</ele>
    <time>2026-06-23T06:35:49Z</time>
   </trkpt>
   <trkpt lat="-3.0911400" lon="37.3755710">
    <ele>4895.5</ele>
    <time>2026-06-23T06:35:50Z</time>
   </trkpt>
   <trkpt lat="-3.0911580" lon="37.3755780">
    <ele>4895.0</ele>
    <time>2026-06-23T06:35:51Z</time>
   </trkpt>
   <trkpt lat="-3.0911650" lon="37.3755850">
    <ele>4894.7</ele>
    <time>2026-06-23T06:35:52Z</time>
   </trkpt>
   <trkpt lat="-3.0911780" lon="37.3755900">
    <ele>4894.4</ele>
    <time>2026-06-23T06:35:53Z</time>
   </trkpt>
   <trkpt lat="-3.0911860" lon="37.3755980">
    <ele>4894.1</ele>
    <time>2026-06-23T06:35:54Z</time>
   </trkpt>
   <trkpt lat="-3.0911910" lon="37.3756080">
    <ele>4893.8</ele>
    <time>2026-06-23T06:35:55Z</time>
   </trkpt>
   <trkpt lat="-3.0911910" lon="37.3756170">
    <ele>4893.6</ele>
    <time>2026-06-23T06:35:56Z</time>
   </trkpt>
   <trkpt lat="-3.0911970" lon="37.3756280">
    <ele>4893.3</ele>
    <time>2026-06-23T06:35:57Z</time>
   </trkpt>
   <trkpt lat="-3.0912030" lon="37.3756400">
    <ele>4892.9</ele>
    <time>2026-06-23T06:35:58Z</time>
   </trkpt>
   <trkpt lat="-3.0912060" lon="37.3756510">
    <ele>4892.7</ele>
    <time>2026-06-23T06:35:59Z</time>
   </trkpt>
   <trkpt lat="-3.0912110" lon="37.3756580">
    <ele>4892.4</ele>
    <time>2026-06-23T06:36:00Z</time>
   </trkpt>
   <trkpt lat="-3.0912230" lon="37.3756680">
    <ele>4892.1</ele>
    <time>2026-06-23T06:36:01Z</time>
   </trkpt>
   <trkpt lat="-3.0912340" lon="37.3756810">
    <ele>4891.7</ele>
    <time>2026-06-23T06:36:02Z</time>
   </trkpt>
   <trkpt lat="-3.0912440" lon="37.3756840">
    <ele>4891.4</ele>
    <time>2026-06-23T06:36:03Z</time>
   </trkpt>
   <trkpt lat="-3.0912570" lon="37.3756880">
    <ele>4891.1</ele>
    <time>2026-06-23T06:36:04Z</time>
   </trkpt>
   <trkpt lat="-3.0912720" lon="37.3756900">
    <ele>4890.8</ele>
    <time>2026-06-23T06:36:05Z</time>
   </trkpt>
   <trkpt lat="-3.0912840" lon="37.3756920">
    <ele>4890.5</ele>
    <time>2026-06-23T06:36:06Z</time>
   </trkpt>
   <trkpt lat="-3.0912940" lon="37.3756940">
    <ele>4890.2</ele>
    <time>2026-06-23T06:36:07Z</time>
   </trkpt>
   <trkpt lat="-3.0913070" lon="37.3756930">
    <ele>4890.0</ele>
    <time>2026-06-23T06:36:08Z</time>
   </trkpt>
   <trkpt lat="-3.0913240" lon="37.3756920">
    <ele>4889.6</ele>
    <time>2026-06-23T06:36:09Z</time>
   </trkpt>
   <trkpt lat="-3.0913350" lon="37.3756930">
    <ele>4889.3</ele>
    <time>2026-06-23T06:36:10Z</time>
   </trkpt>
   <trkpt lat="-3.0913430" lon="37.3756950">
    <ele>4889.1</ele>
    <time>2026-06-23T06:36:11Z</time>
   </trkpt>
   <trkpt lat="-3.0913590" lon="37.3756940">
    <ele>4888.8</ele>
    <time>2026-06-23T06:36:12Z</time>
   </trkpt>
   <trkpt lat="-3.0913720" lon="37.3756990">
    <ele>4888.5</ele>
    <time>2026-06-23T06:36:13Z</time>
   </trkpt>
   <trkpt lat="-3.0913850" lon="37.3757070">
    <ele>4888.1</ele>
    <time>2026-06-23T06:36:14Z</time>
   </trkpt>
   <trkpt lat="-3.0913930" lon="37.3757140">
    <ele>4887.9</ele>
    <time>2026-06-23T06:36:15Z</time>
   </trkpt>
   <trkpt lat="-3.0913980" lon="37.3757210">
    <ele>4887.7</ele>
    <time>2026-06-23T06:36:16Z</time>
   </trkpt>
   <trkpt lat="-3.0914010" lon="37.3757270">
    <ele>4887.6</ele>
    <time>2026-06-23T06:36:17Z</time>
   </trkpt>
   <trkpt lat="-3.0914010" lon="37.3757330">
    <ele>4887.4</ele>
    <time>2026-06-23T06:36:18Z</time>
   </trkpt>
   <trkpt lat="-3.0913980" lon="37.3757390">
    <ele>4887.3</ele>
    <time>2026-06-23T06:36:19Z</time>
   </trkpt>
   <trkpt lat="-3.0913980" lon="37.3757530">
    <ele>4887.0</ele>
    <time>2026-06-23T06:36:20Z</time>
   </trkpt>
   <trkpt lat="-3.0913970" lon="37.3757590">
    <ele>4886.8</ele>
    <time>2026-06-23T06:36:21Z</time>
   </trkpt>
   <trkpt lat="-3.0913960" lon="37.3757660">
    <ele>4886.7</ele>
    <time>2026-06-23T06:36:22Z</time>
   </trkpt>
   <trkpt lat="-3.0914020" lon="37.3757740">
    <ele>4886.5</ele>
    <time>2026-06-23T06:36:23Z</time>
   </trkpt>
   <trkpt lat="-3.0914080" lon="37.3757760">
    <ele>4886.3</ele>
    <time>2026-06-23T06:36:24Z</time>
   </trkpt>
   <trkpt lat="-3.0914160" lon="37.3757810">
    <ele>4886.1</ele>
    <time>2026-06-23T06:36:25Z</time>
   </trkpt>
   <trkpt lat="-3.0914270" lon="37.3757870">
    <ele>4885.8</ele>
    <time>2026-06-23T06:36:26Z</time>
   </trkpt>
   <trkpt lat="-3.0914350" lon="37.3757910">
    <ele>4885.6</ele>
    <time>2026-06-23T06:36:27Z</time>
   </trkpt>
   <trkpt lat="-3.0914420" lon="37.3757990">
    <ele>4885.4</ele>
    <time>2026-06-23T06:36:28Z</time>
   </trkpt>
   <trkpt lat="-3.0914490" lon="37.3758090">
    <ele>4885.1</ele>
    <time>2026-06-23T06:36:29Z</time>
   </trkpt>
   <trkpt lat="-3.0914510" lon="37.3758210">
    <ele>4884.9</ele>
    <time>2026-06-23T06:36:30Z</time>
   </trkpt>
   <trkpt lat="-3.0914520" lon="37.3758290">
    <ele>4884.7</ele>
    <time>2026-06-23T06:36:31Z</time>
   </trkpt>
   <trkpt lat="-3.0914520" lon="37.3758350">
    <ele>4884.6</ele>
    <time>2026-06-23T06:36:32Z</time>
   </trkpt>
   <trkpt lat="-3.0914580" lon="37.3758440">
    <ele>4884.3</ele>
    <time>2026-06-23T06:36:33Z</time>
   </trkpt>
   <trkpt lat="-3.0914650" lon="37.3758510">
    <ele>4884.1</ele>
    <time>2026-06-23T06:36:34Z</time>
   </trkpt>
   <trkpt lat="-3.0914720" lon="37.3758600">
    <ele>4883.9</ele>
    <time>2026-06-23T06:36:35Z</time>
   </trkpt>
   <trkpt lat="-3.0914770" lon="37.3758700">
    <ele>4883.6</ele>
    <time>2026-06-23T06:36:36Z</time>
   </trkpt>
   <trkpt lat="-3.0914800" lon="37.3758820">
    <ele>4883.4</ele>
    <time>2026-06-23T06:36:37Z</time>
   </trkpt>
   <trkpt lat="-3.0914820" lon="37.3758930">
    <ele>4883.1</ele>
    <time>2026-06-23T06:36:38Z</time>
   </trkpt>
   <trkpt lat="-3.0914810" lon="37.3759030">
    <ele>4882.9</ele>
    <time>2026-06-23T06:36:39Z</time>
   </trkpt>
   <trkpt lat="-3.0914860" lon="37.3759090">
    <ele>4882.8</ele>
    <time>2026-06-23T06:36:40Z</time>
   </trkpt>
   <trkpt lat="-3.0914950" lon="37.3759170">
    <ele>4882.5</ele>
    <time>2026-06-23T06:36:41Z</time>
   </trkpt>
   <trkpt lat="-3.0915070" lon="37.3759270">
    <ele>4882.2</ele>
    <time>2026-06-23T06:36:42Z</time>
   </trkpt>
   <trkpt lat="-3.0915170" lon="37.3759370">
    <ele>4881.9</ele>
    <time>2026-06-23T06:36:43Z</time>
   </trkpt>
   <trkpt lat="-3.0915230" lon="37.3759420">
    <ele>4881.8</ele>
    <time>2026-06-23T06:36:44Z</time>
   </trkpt>
   <trkpt lat="-3.0915330" lon="37.3759520">
    <ele>4881.5</ele>
    <time>2026-06-23T06:36:45Z</time>
   </trkpt>
   <trkpt lat="-3.0915390" lon="37.3759610">
    <ele>4881.3</ele>
    <time>2026-06-23T06:36:46Z</time>
   </trkpt>
   <trkpt lat="-3.0915440" lon="37.3759650">
    <ele>4881.2</ele>
    <time>2026-06-23T06:36:47Z</time>
   </trkpt>
   <trkpt lat="-3.0915490" lon="37.3759750">
    <ele>4881.0</ele>
    <time>2026-06-23T06:36:48Z</time>
   </trkpt>
   <trkpt lat="-3.0915570" lon="37.3759860">
    <ele>4880.8</ele>
    <time>2026-06-23T06:36:49Z</time>
   </trkpt>
   <trkpt lat="-3.0915670" lon="37.3759890">
    <ele>4880.6</ele>
    <time>2026-06-23T06:36:50Z</time>
   </trkpt>
   <trkpt lat="-3.0915800" lon="37.3759970">
    <ele>4880.4</ele>
    <time>2026-06-23T06:36:51Z</time>
   </trkpt>
   <trkpt lat="-3.0915920" lon="37.3760010">
    <ele>4880.2</ele>
    <time>2026-06-23T06:36:52Z</time>
   </trkpt>
   <trkpt lat="-3.0916010" lon="37.3760080">
    <ele>4880.1</ele>
    <time>2026-06-23T06:36:53Z</time>
   </trkpt>
   <trkpt lat="-3.0916110" lon="37.3760160">
    <ele>4879.9</ele>
    <time>2026-06-23T06:36:54Z</time>
   </trkpt>
   <trkpt lat="-3.0916210" lon="37.3760210">
    <ele>4879.7</ele>
    <time>2026-06-23T06:36:55Z</time>
   </trkpt>
   <trkpt lat="-3.0916300" lon="37.3760210">
    <ele>4879.6</ele>
    <time>2026-06-23T06:36:56Z</time>
   </trkpt>
   <trkpt lat="-3.0916420" lon="37.3760240">
    <ele>4879.5</ele>
    <time>2026-06-23T06:36:57Z</time>
   </trkpt>
   <trkpt lat="-3.0916540" lon="37.3760330">
    <ele>4879.3</ele>
    <time>2026-06-23T06:36:58Z</time>
   </trkpt>
   <trkpt lat="-3.0916650" lon="37.3760410">
    <ele>4879.2</ele>
    <time>2026-06-23T06:36:59Z</time>
   </trkpt>
   <trkpt lat="-3.0916780" lon="37.3760460">
    <ele>4879.0</ele>
    <time>2026-06-23T06:37:00Z</time>
   </trkpt>
   <trkpt lat="-3.0916860" lon="37.3760450">
    <ele>4879.0</ele>
    <time>2026-06-23T06:37:01Z</time>
   </trkpt>
   <trkpt lat="-3.0916960" lon="37.3760490">
    <ele>4878.9</ele>
    <time>2026-06-23T06:37:02Z</time>
   </trkpt>
   <trkpt lat="-3.0917040" lon="37.3760570">
    <ele>4878.7</ele>
    <time>2026-06-23T06:37:03Z</time>
   </trkpt>
   <trkpt lat="-3.0917120" lon="37.3760650">
    <ele>4878.6</ele>
    <time>2026-06-23T06:37:04Z</time>
   </trkpt>
   <trkpt lat="-3.0917240" lon="37.3760710">
    <ele>4878.5</ele>
    <time>2026-06-23T06:37:05Z</time>
   </trkpt>
   <trkpt lat="-3.0917360" lon="37.3760750">
    <ele>4878.4</ele>
    <time>2026-06-23T06:37:06Z</time>
   </trkpt>
   <trkpt lat="-3.0917430" lon="37.3760730">
    <ele>4878.3</ele>
    <time>2026-06-23T06:37:07Z</time>
   </trkpt>
   <trkpt lat="-3.0917440" lon="37.3760680">
    <ele>4878.2</ele>
    <time>2026-06-23T06:37:08Z</time>
   </trkpt>
   <trkpt lat="-3.0917520" lon="37.3760680">
    <ele>4878.2</ele>
    <time>2026-06-23T06:37:09Z</time>
   </trkpt>
   <trkpt lat="-3.0917550" lon="37.3760700">
    <ele>4878.1</ele>
    <time>2026-06-23T06:37:10Z</time>
   </trkpt>
   <trkpt lat="-3.0917610" lon="37.3760750">
    <ele>4878.0</ele>
    <time>2026-06-23T06:37:11Z</time>
   </trkpt>
   <trkpt lat="-3.0917640" lon="37.3760820">
    <ele>4878.0</ele>
    <time>2026-06-23T06:37:12Z</time>
   </trkpt>
   <trkpt lat="-3.0917650" lon="37.3760900">
    <ele>4877.9</ele>
    <time>2026-06-23T06:37:13Z</time>
   </trkpt>
   <trkpt lat="-3.0917680" lon="37.3761010">
    <ele>4877.7</ele>
    <time>2026-06-23T06:37:14Z</time>
   </trkpt>
   <trkpt lat="-3.0917710" lon="37.3761110">
    <ele>4877.6</ele>
    <time>2026-06-23T06:37:15Z</time>
   </trkpt>
   <trkpt lat="-3.0917760" lon="37.3761180">
    <ele>4877.5</ele>
    <time>2026-06-23T06:37:16Z</time>
   </trkpt>
   <trkpt lat="-3.0917790" lon="37.3761250">
    <ele>4877.4</ele>
    <time>2026-06-23T06:37:17Z</time>
   </trkpt>
   <trkpt lat="-3.0917780" lon="37.3761360">
    <ele>4877.3</ele>
    <time>2026-06-23T06:37:18Z</time>
   </trkpt>
   <trkpt lat="-3.0917810" lon="37.3761510">
    <ele>4877.1</ele>
    <time>2026-06-23T06:37:19Z</time>
   </trkpt>
   <trkpt lat="-3.0917840" lon="37.3761610">
    <ele>4877.0</ele>
    <time>2026-06-23T06:37:20Z</time>
   </trkpt>
   <trkpt lat="-3.0917920" lon="37.3761640">
    <ele>4876.9</ele>
    <time>2026-06-23T06:37:21Z</time>
   </trkpt>
   <trkpt lat="-3.0917950" lon="37.3761740">
    <ele>4876.7</ele>
    <time>2026-06-23T06:37:22Z</time>
   </trkpt>
   <trkpt lat="-3.0917990" lon="37.3761780">
    <ele>4876.6</ele>
    <time>2026-06-23T06:37:23Z</time>
   </trkpt>
   <trkpt lat="-3.0918070" lon="37.3761810">
    <ele>4876.5</ele>
    <time>2026-06-23T06:37:24Z</time>
   </trkpt>
   <trkpt lat="-3.0918160" lon="37.3761890">
    <ele>4876.4</ele>
    <time>2026-06-23T06:37:25Z</time>
   </trkpt>
   <trkpt lat="-3.0918220" lon="37.3761960">
    <ele>4876.3</ele>
    <time>2026-06-23T06:37:26Z</time>
   </trkpt>
   <trkpt lat="-3.0918260" lon="37.3762010">
    <ele>4876.2</ele>
    <time>2026-06-23T06:37:27Z</time>
   </trkpt>
   <trkpt lat="-3.0918270" lon="37.3762050">
    <ele>4876.1</ele>
    <time>2026-06-23T06:37:28Z</time>
   </trkpt>
   <trkpt lat="-3.0918240" lon="37.3762100">
    <ele>4876.0</ele>
    <time>2026-06-23T06:37:29Z</time>
   </trkpt>
   <trkpt lat="-3.0918220" lon="37.3762140">
    <ele>4876.0</ele>
    <time>2026-06-23T06:37:30Z</time>
   </trkpt>
   <trkpt lat="-3.0918230" lon="37.3762150">
    <ele>4876.0</ele>
    <time>2026-06-23T06:37:31Z</time>
   </trkpt>
   <trkpt lat="-3.0918280" lon="37.3762250">
    <ele>4875.8</ele>
    <time>2026-06-23T06:37:32Z</time>
   </trkpt>
   <trkpt lat="-3.0918350" lon="37.3762320">
    <ele>4875.7</ele>
    <time>2026-06-23T06:37:33Z</time>
   </trkpt>
   <trkpt lat="-3.0918430" lon="37.3762300">
    <ele>4875.6</ele>
    <time>2026-06-23T06:37:34Z</time>
   </trkpt>
   <trkpt lat="-3.0918500" lon="37.3762260">
    <ele>4875.5</ele>
    <time>2026-06-23T06:37:35Z</time>
   </trkpt>
   <trkpt lat="-3.0918620" lon="37.3762210">
    <ele>4875.3</ele>
    <time>2026-06-23T06:37:36Z</time>
   </trkpt>
   <trkpt lat="-3.0918630" lon="37.3762280">
    <ele>4875.2</ele>
    <time>2026-06-23T06:37:37Z</time>
   </trkpt>
   <trkpt lat="-3.0918630" lon="37.3762410">
    <ele>4875.1</ele>
    <time>2026-06-23T06:37:38Z</time>
   </trkpt>
   <trkpt lat="-3.0918660" lon="37.3762520">
    <ele>4874.9</ele>
    <time>2026-06-23T06:37:39Z</time>
   </trkpt>
   <trkpt lat="-3.0918710" lon="37.3762590">
    <ele>4874.8</ele>
    <time>2026-06-23T06:37:40Z</time>
   </trkpt>
   <trkpt lat="-3.0918880" lon="37.3762680">
    <ele>4874.6</ele>
    <time>2026-06-23T06:37:41Z</time>
   </trkpt>
   <trkpt lat="-3.0919000" lon="37.3762690">
    <ele>4874.5</ele>
    <time>2026-06-23T06:37:42Z</time>
   </trkpt>
   <trkpt lat="-3.0919100" lon="37.3762710">
    <ele>4874.4</ele>
    <time>2026-06-23T06:37:43Z</time>
   </trkpt>
   <trkpt lat="-3.0919210" lon="37.3762680">
    <ele>4874.2</ele>
    <time>2026-06-23T06:37:44Z</time>
   </trkpt>
   <trkpt lat="-3.0919320" lon="37.3762650">
    <ele>4874.1</ele>
    <time>2026-06-23T06:37:45Z</time>
   </trkpt>
   <trkpt lat="-3.0919360" lon="37.3762680">
    <ele>4874.1</ele>
    <time>2026-06-23T06:37:46Z</time>
   </trkpt>
   <trkpt lat="-3.0919440" lon="37.3762720">
    <ele>4874.0</ele>
    <time>2026-06-23T06:37:47Z</time>
   </trkpt>
   <trkpt lat="-3.0919530" lon="37.3762750">
    <ele>4873.9</ele>
    <time>2026-06-23T06:37:48Z</time>
   </trkpt>
   <trkpt lat="-3.0919590" lon="37.3762800">
    <ele>4873.8</ele>
    <time>2026-06-23T06:37:49Z</time>
   </trkpt>
   <trkpt lat="-3.0919650" lon="37.3762850">
    <ele>4873.7</ele>
    <time>2026-06-23T06:37:50Z</time>
   </trkpt>
   <trkpt lat="-3.0919680" lon="37.3762950">
    <ele>4873.6</ele>
    <time>2026-06-23T06:37:51Z</time>
   </trkpt>
   <trkpt lat="-3.0919740" lon="37.3762980">
    <ele>4873.6</ele>
    <time>2026-06-23T06:37:52Z</time>
   </trkpt>
   <trkpt lat="-3.0919790" lon="37.3763010">
    <ele>4873.5</ele>
    <time>2026-06-23T06:37:53Z</time>
   </trkpt>
   <trkpt lat="-3.0919800" lon="37.3763000">
    <ele>4873.5</ele>
    <time>2026-06-23T06:37:54Z</time>
   </trkpt>
   <trkpt lat="-3.0919830" lon="37.3762990">
    <ele>4873.5</ele>
    <time>2026-06-23T06:37:55Z</time>
   </trkpt>
   <trkpt lat="-3.0919830" lon="37.3763020">
    <ele>4873.4</ele>
    <time>2026-06-23T06:37:56Z</time>
   </trkpt>
   <trkpt lat="-3.0919820" lon="37.3763000">
    <ele>4873.4</ele>
    <time>2026-06-23T06:37:57Z</time>
   </trkpt>
   <trkpt lat="-3.0919830" lon="37.3763010">
    <ele>4873.4</ele>
    <time>2026-06-23T06:37:58Z</time>
   </trkpt>
   <trkpt lat="-3.0919880" lon="37.3762990">
    <ele>4873.4</ele>
    <time>2026-06-23T06:37:59Z</time>
   </trkpt>
   <trkpt lat="-3.0919890" lon="37.3763010">
    <ele>4873.3</ele>
    <time>2026-06-23T06:38:00Z</time>
   </trkpt>
   <trkpt lat="-3.0919870" lon="37.3762990">
    <ele>4873.3</ele>
    <time>2026-06-23T06:38:01Z</time>
   </trkpt>
   <trkpt lat="-3.0919920" lon="37.3763070">
    <ele>4873.2</ele>
    <time>2026-06-23T06:38:02Z</time>
   </trkpt>
   <trkpt lat="-3.0919950" lon="37.3763090">
    <ele>4873.2</ele>
    <time>2026-06-23T06:38:03Z</time>
   </trkpt>
   <trkpt lat="-3.0919950" lon="37.3763130">
    <ele>4873.2</ele>
    <time>2026-06-23T06:38:04Z</time>
   </trkpt>
   <trkpt lat="-3.0919950" lon="37.3763190">
    <ele>4873.1</ele>
    <time>2026-06-23T06:38:05Z</time>
   </trkpt>
   <trkpt lat="-3.0919960" lon="37.3763270">
    <ele>4873.0</ele>
    <time>2026-06-23T06:38:06Z</time>
   </trkpt>
   <trkpt lat="-3.0919950" lon="37.3763360">
    <ele>4872.9</ele>
    <time>2026-06-23T06:38:07Z</time>
   </trkpt>
   <trkpt lat="-3.0919940" lon="37.3763450">
    <ele>4872.9</ele>
    <time>2026-06-23T06:38:08Z</time>
   </trkpt>
   <trkpt lat="-3.0919980" lon="37.3763500">
    <ele>4872.8</ele>
    <time>2026-06-23T06:38:09Z</time>
   </trkpt>
   <trkpt lat="-3.0920020" lon="37.3763520">
    <ele>4872.8</ele>
    <time>2026-06-23T06:38:10Z</time>
   </trkpt>
   <trkpt lat="-3.0920050" lon="37.3763550">
    <ele>4872.7</ele>
    <time>2026-06-23T06:38:11Z</time>
   </trkpt>
   <trkpt lat="-3.0920070" lon="37.3763610">
    <ele>4872.7</ele>
    <time>2026-06-23T06:38:12Z</time>
   </trkpt>
   <trkpt lat="-3.0920090" lon="37.3763630">
    <ele>4872.7</ele>
    <time>2026-06-23T06:38:13Z</time>
   </trkpt>
   <trkpt lat="-3.0920140" lon="37.3763680">
    <ele>4872.6</ele>
    <time>2026-06-23T06:38:14Z</time>
   </trkpt>
   <trkpt lat="-3.0920170" lon="37.3763730">
    <ele>4872.6</ele>
    <time>2026-06-23T06:38:15Z</time>
   </trkpt>
   <trkpt lat="-3.0920190" lon="37.3763780">
    <ele>4872.5</ele>
    <time>2026-06-23T06:38:16Z</time>
   </trkpt>
   <trkpt lat="-3.0920160" lon="37.3763880">
    <ele>4872.5</ele>
    <time>2026-06-23T06:38:17Z</time>
   </trkpt>
   <trkpt lat="-3.0920140" lon="37.3763990">
    <ele>4872.4</ele>
    <time>2026-06-23T06:38:18Z</time>
   </trkpt>
   <trkpt lat="-3.0920090" lon="37.3764110">
    <ele>4872.3</ele>
    <time>2026-06-23T06:38:19Z</time>
   </trkpt>
   <trkpt lat="-3.0920050" lon="37.3764220">
    <ele>4872.3</ele>
    <time>2026-06-23T06:38:20Z</time>
   </trkpt>
   <trkpt lat="-3.0920120" lon="37.3764240">
    <ele>4872.2</ele>
    <time>2026-06-23T06:38:21Z</time>
   </trkpt>
   <trkpt lat="-3.0920220" lon="37.3764200">
    <ele>4872.2</ele>
    <time>2026-06-23T06:38:22Z</time>
   </trkpt>
   <trkpt lat="-3.0920490" lon="37.3764240">
    <ele>4872.1</ele>
    <time>2026-06-23T06:38:23Z</time>
   </trkpt>
   <trkpt lat="-3.0920550" lon="37.3764240">
    <ele>4872.1</ele>
    <time>2026-06-23T06:38:24Z</time>
   </trkpt>
   <trkpt lat="-3.0920570" lon="37.3764210">
    <ele>4872.0</ele>
    <time>2026-06-23T06:38:25Z</time>
   </trkpt>
   <trkpt lat="-3.0920670" lon="37.3764220">
    <ele>4872.0</ele>
    <time>2026-06-23T06:38:26Z</time>
   </trkpt>
   <trkpt lat="-3.0920730" lon="37.3764220">
    <ele>4872.0</ele>
    <time>2026-06-23T06:38:27Z</time>
   </trkpt>
   <trkpt lat="-3.0920840" lon="37.3764280">
    <ele>4872.0</ele>
    <time>2026-06-23T06:38:28Z</time>
   </trkpt>
   <trkpt lat="-3.0920910" lon="37.3764320">
    <ele>4872.0</ele>
    <time>2026-06-23T06:38:29Z</time>
   </trkpt>
   <trkpt lat="-3.0921000" lon="37.3764360">
    <ele>4871.9</ele>
    <time>2026-06-23T06:38:30Z</time>
   </trkpt>
   <trkpt lat="-3.0921080" lon="37.3764370">
    <ele>4871.9</ele>
    <time>2026-06-23T06:38:31Z</time>
   </trkpt>
   <trkpt lat="-3.0921150" lon="37.3764360">
    <ele>4871.9</ele>
    <time>2026-06-23T06:38:32Z</time>
   </trkpt>
   <trkpt lat="-3.0921210" lon="37.3764350">
    <ele>4871.9</ele>
    <time>2026-06-23T06:38:33Z</time>
   </trkpt>
   <trkpt lat="-3.0921280" lon="37.3764320">
    <ele>4871.9</ele>
    <time>2026-06-23T06:38:34Z</time>
   </trkpt>
   <trkpt lat="-3.0921380" lon="37.3764280">
    <ele>4871.8</ele>
    <time>2026-06-23T06:38:35Z</time>
   </trkpt>
   <trkpt lat="-3.0921460" lon="37.3764270">
    <ele>4871.8</ele>
    <time>2026-06-23T06:38:36Z</time>
   </trkpt>
   <trkpt lat="-3.0921530" lon="37.3764280">
    <ele>4871.8</ele>
    <time>2026-06-23T06:38:37Z</time>
   </trkpt>
   <trkpt lat="-3.0921630" lon="37.3764270">
    <ele>4871.8</ele>
    <time>2026-06-23T06:38:38Z</time>
   </trkpt>
   <trkpt lat="-3.0921700" lon="37.3764280">
    <ele>4871.7</ele>
    <time>2026-06-23T06:38:39Z</time>
   </trkpt>
   <trkpt lat="-3.0921760" lon="37.3764330">
    <ele>4871.7</ele>
    <time>2026-06-23T06:38:40Z</time>
   </trkpt>
   <trkpt lat="-3.0921810" lon="37.3764370">
    <ele>4871.7</ele>
    <time>2026-06-23T06:38:41Z</time>
   </trkpt>
   <trkpt lat="-3.0921900" lon="37.3764410">
    <ele>4871.6</ele>
    <time>2026-06-23T06:38:42Z</time>
   </trkpt>
   <trkpt lat="-3.0922030" lon="37.3764430">
    <ele>4871.6</ele>
    <time>2026-06-23T06:38:43Z</time>
   </trkpt>
   <trkpt lat="-3.0922050" lon="37.3764410">
    <ele>4871.6</ele>
    <time>2026-06-23T06:38:44Z</time>
   </trkpt>
   <trkpt lat="-3.0922140" lon="37.3764410">
    <ele>4871.5</ele>
    <time>2026-06-23T06:38:45Z</time>
   </trkpt>
   <trkpt lat="-3.0922260" lon="37.3764410">
    <ele>4871.5</ele>
    <time>2026-06-23T06:38:46Z</time>
   </trkpt>
   <trkpt lat="-3.0922390" lon="37.3764400">
    <ele>4871.4</ele>
    <time>2026-06-23T06:38:47Z</time>
   </trkpt>
   <trkpt lat="-3.0922490" lon="37.3764470">
    <ele>4871.3</ele>
    <time>2026-06-23T06:38:48Z</time>
   </trkpt>
   <trkpt lat="-3.0922610" lon="37.3764540">
    <ele>4871.3</ele>
    <time>2026-06-23T06:38:49Z</time>
   </trkpt>
   <trkpt lat="-3.0922710" lon="37.3764590">
    <ele>4871.2</ele>
    <time>2026-06-23T06:38:50Z</time>
   </trkpt>
   <trkpt lat="-3.0922830" lon="37.3764680">
    <ele>4871.1</ele>
    <time>2026-06-23T06:38:51Z</time>
   </trkpt>
   <trkpt lat="-3.0922940" lon="37.3764760">
    <ele>4871.0</ele>
    <time>2026-06-23T06:38:52Z</time>
   </trkpt>
   <trkpt lat="-3.0923040" lon="37.3764820">
    <ele>4871.0</ele>
    <time>2026-06-23T06:38:53Z</time>
   </trkpt>
   <trkpt lat="-3.0923120" lon="37.3764890">
    <ele>4870.9</ele>
    <time>2026-06-23T06:38:54Z</time>
   </trkpt>
   <trkpt lat="-3.0923180" lon="37.3764930">
    <ele>4870.9</ele>
    <time>2026-06-23T06:38:55Z</time>
   </trkpt>
   <trkpt lat="-3.0923250" lon="37.3765030">
    <ele>4870.8</ele>
    <time>2026-06-23T06:38:56Z</time>
   </trkpt>
   <trkpt lat="-3.0923320" lon="37.3765120">
    <ele>4870.7</ele>
    <time>2026-06-23T06:38:57Z</time>
   </trkpt>
   <trkpt lat="-3.0923380" lon="37.3765170">
    <ele>4870.7</ele>
    <time>2026-06-23T06:38:58Z</time>
   </trkpt>
   <trkpt lat="-3.0923450" lon="37.3765230">
    <ele>4870.6</ele>
    <time>2026-06-23T06:38:59Z</time>
   </trkpt>
   <trkpt lat="-3.0923540" lon="37.3765270">
    <ele>4870.6</ele>
    <time>2026-06-23T06:39:00Z</time>
   </trkpt>
   <trkpt lat="-3.0923640" lon="37.3765340">
    <ele>4870.5</ele>
    <time>2026-06-23T06:39:01Z</time>
   </trkpt>
   <trkpt lat="-3.0923720" lon="37.3765380">
    <ele>4870.4</ele>
    <time>2026-06-23T06:39:02Z</time>
   </trkpt>
   <trkpt lat="-3.0923810" lon="37.3765420">
    <ele>4870.4</ele>
    <time>2026-06-23T06:39:03Z</time>
   </trkpt>
   <trkpt lat="-3.0923940" lon="37.3765470">
    <ele>4870.3</ele>
    <time>2026-06-23T06:39:04Z</time>
   </trkpt>
   <trkpt lat="-3.0924060" lon="37.3765490">
    <ele>4870.2</ele>
    <time>2026-06-23T06:39:05Z</time>
   </trkpt>
   <trkpt lat="-3.0924120" lon="37.3765490">
    <ele>4870.2</ele>
    <time>2026-06-23T06:39:06Z</time>
   </trkpt>
   <trkpt lat="-3.0924270" lon="37.3765560">
    <ele>4870.1</ele>
    <time>2026-06-23T06:39:07Z</time>
   </trkpt>
   <trkpt lat="-3.0924410" lon="37.3765600">
    <ele>4870.0</ele>
    <time>2026-06-23T06:39:08Z</time>
   </trkpt>
   <trkpt lat="-3.0924510" lon="37.3765660">
    <ele>4869.9</ele>
    <time>2026-06-23T06:39:09Z</time>
   </trkpt>
   <trkpt lat="-3.0924640" lon="37.3765670">
    <ele>4869.9</ele>
    <time>2026-06-23T06:39:10Z</time>
   </trkpt>
   <trkpt lat="-3.0924750" lon="37.3765670">
    <ele>4869.8</ele>
    <time>2026-06-23T06:39:11Z</time>
   </trkpt>
   <trkpt lat="-3.0924850" lon="37.3765680">
    <ele>4869.7</ele>
    <time>2026-06-23T06:39:12Z</time>
   </trkpt>
   <trkpt lat="-3.0924940" lon="37.3765680">
    <ele>4869.7</ele>
    <time>2026-06-23T06:39:13Z</time>
   </trkpt>
   <trkpt lat="-3.0925060" lon="37.3765680">
    <ele>4869.6</ele>
    <time>2026-06-23T06:39:14Z</time>
   </trkpt>
   <trkpt lat="-3.0925180" lon="37.3765690">
    <ele>4869.5</ele>
    <time>2026-06-23T06:39:15Z</time>
   </trkpt>
   <trkpt lat="-3.0925280" lon="37.3765670">
    <ele>4869.4</ele>
    <time>2026-06-23T06:39:16Z</time>
   </trkpt>
   <trkpt lat="-3.0925360" lon="37.3765670">
    <ele>4869.3</ele>
    <time>2026-06-23T06:39:17Z</time>
   </trkpt>
   <trkpt lat="-3.0925460" lon="37.3765700">
    <ele>4869.3</ele>
    <time>2026-06-23T06:39:18Z</time>
   </trkpt>
   <trkpt lat="-3.0925550" lon="37.3765730">
    <ele>4869.2</ele>
    <time>2026-06-23T06:39:19Z</time>
   </trkpt>
   <trkpt lat="-3.0925640" lon="37.3765750">
    <ele>4869.1</ele>
    <time>2026-06-23T06:39:20Z</time>
   </trkpt>
   <trkpt lat="-3.0925750" lon="37.3765790">
    <ele>4869.0</ele>
    <time>2026-06-23T06:39:21Z</time>
   </trkpt>
   <trkpt lat="-3.0925860" lon="37.3765820">
    <ele>4868.9</ele>
    <time>2026-06-23T06:39:22Z</time>
   </trkpt>
   <trkpt lat="-3.0925950" lon="37.3765850">
    <ele>4868.8</ele>
    <time>2026-06-23T06:39:23Z</time>
   </trkpt>
   <trkpt lat="-3.0926040" lon="37.3765900">
    <ele>4868.7</ele>
    <time>2026-06-23T06:39:24Z</time>
   </trkpt>
   <trkpt lat="-3.0926130" lon="37.3765930">
    <ele>4868.6</ele>
    <time>2026-06-23T06:39:25Z</time>
   </trkpt>
   <trkpt lat="-3.0926240" lon="37.3765950">
    <ele>4868.5</ele>
    <time>2026-06-23T06:39:26Z</time>
   </trkpt>
   <trkpt lat="-3.0926360" lon="37.3765990">
    <ele>4868.4</ele>
    <time>2026-06-23T06:39:27Z</time>
   </trkpt>
   <trkpt lat="-3.0926450" lon="37.3765980">
    <ele>4868.3</ele>
    <time>2026-06-23T06:39:28Z</time>
   </trkpt>
   <trkpt lat="-3.0926540" lon="37.3765970">
    <ele>4868.2</ele>
    <time>2026-06-23T06:39:29Z</time>
   </trkpt>
   <trkpt lat="-3.0926710" lon="37.3765950">
    <ele>4868.0</ele>
    <time>2026-06-23T06:39:30Z</time>
   </trkpt>
   <trkpt lat="-3.0926810" lon="37.3765940">
    <ele>4867.9</ele>
    <time>2026-06-23T06:39:31Z</time>
   </trkpt>
   <trkpt lat="-3.0926900" lon="37.3765950">
    <ele>4867.8</ele>
    <time>2026-06-23T06:39:32Z</time>
   </trkpt>
   <trkpt lat="-3.0926990" lon="37.3765950">
    <ele>4867.7</ele>
    <time>2026-06-23T06:39:33Z</time>
   </trkpt>
   <trkpt lat="-3.0927110" lon="37.3765970">
    <ele>4867.6</ele>
    <time>2026-06-23T06:39:34Z</time>
   </trkpt>
   <trkpt lat="-3.0927200" lon="37.3765990">
    <ele>4867.5</ele>
    <time>2026-06-23T06:39:35Z</time>
   </trkpt>
   <trkpt lat="-3.0927290" lon="37.3766000">
    <ele>4867.3</ele>
    <time>2026-06-23T06:39:36Z</time>
   </trkpt>
   <trkpt lat="-3.0927390" lon="37.3765980">
    <ele>4867.2</ele>
    <time>2026-06-23T06:39:37Z</time>
   </trkpt>
   <trkpt lat="-3.0927510" lon="37.3765970">
    <ele>4867.0</ele>
    <time>2026-06-23T06:39:38Z</time>
   </trkpt>
   <trkpt lat="-3.0927580" lon="37.3765960">
    <ele>4866.9</ele>
    <time>2026-06-23T06:39:39Z</time>
   </trkpt>
   <trkpt lat="-3.0927700" lon="37.3765960">
    <ele>4866.8</ele>
    <time>2026-06-23T06:39:40Z</time>
   </trkpt>
   <trkpt lat="-3.0927790" lon="37.3765950">
    <ele>4866.6</ele>
    <time>2026-06-23T06:39:41Z</time>
   </trkpt>
   <trkpt lat="-3.0927850" lon="37.3765920">
    <ele>4866.5</ele>
    <time>2026-06-23T06:39:42Z</time>
   </trkpt>
   <trkpt lat="-3.0927900" lon="37.3765900">
    <ele>4866.5</ele>
    <time>2026-06-23T06:39:43Z</time>
   </trkpt>
   <trkpt lat="-3.0927960" lon="37.3765820">
    <ele>4866.3</ele>
    <time>2026-06-23T06:39:44Z</time>
   </trkpt>
   <trkpt lat="-3.0928000" lon="37.3765780">
    <ele>4866.2</ele>
    <time>2026-06-23T06:39:45Z</time>
   </trkpt>
   <trkpt lat="-3.0928060" lon="37.3765750">
    <ele>4866.1</ele>
    <time>2026-06-23T06:39:46Z</time>
   </trkpt>
   <trkpt lat="-3.0928120" lon="37.3765770">
    <ele>4866.0</ele>
    <time>2026-06-23T06:39:47Z</time>
   </trkpt>
   <trkpt lat="-3.0928200" lon="37.3765860">
    <ele>4865.8</ele>
    <time>2026-06-23T06:39:48Z</time>
   </trkpt>
   <trkpt lat="-3.0928280" lon="37.3765960">
    <ele>4865.6</ele>
    <time>2026-06-23T06:39:49Z</time>
   </trkpt>
   <trkpt lat="-3.0928300" lon="37.3766010">
    <ele>4865.5</ele>
    <time>2026-06-23T06:39:50Z</time>
   </trkpt>
   <trkpt lat="-3.0928370" lon="37.3765970">
    <ele>4865.4</ele>
    <time>2026-06-23T06:39:51Z</time>
   </trkpt>
   <trkpt lat="-3.0928490" lon="37.3765950">
    <ele>4865.1</ele>
    <time>2026-06-23T06:39:52Z</time>
   </trkpt>
   <trkpt lat="-3.0928630" lon="37.3765930">
    <ele>4864.9</ele>
    <time>2026-06-23T06:39:53Z</time>
   </trkpt>
   <trkpt lat="-3.0928750" lon="37.3765930">
    <ele>4864.7</ele>
    <time>2026-06-23T06:39:54Z</time>
   </trkpt>
   <trkpt lat="-3.0928810" lon="37.3765940">
    <ele>4864.6</ele>
    <time>2026-06-23T06:39:55Z</time>
   </trkpt>
   <trkpt lat="-3.0928920" lon="37.3765950">
    <ele>4864.3</ele>
    <time>2026-06-23T06:39:56Z</time>
   </trkpt>
   <trkpt lat="-3.0929020" lon="37.3765960">
    <ele>4864.1</ele>
    <time>2026-06-23T06:39:57Z</time>
   </trkpt>
   <trkpt lat="-3.0929070" lon="37.3765950">
    <ele>4864.0</ele>
    <time>2026-06-23T06:39:58Z</time>
   </trkpt>
   <trkpt lat="-3.0929160" lon="37.3765960">
    <ele>4863.9</ele>
    <time>2026-06-23T06:39:59Z</time>
   </trkpt>
   <trkpt lat="-3.0929240" lon="37.3765960">
    <ele>4863.7</ele>
    <time>2026-06-23T06:40:00Z</time>
   </trkpt>
   <trkpt lat="-3.0929270" lon="37.3765940">
    <ele>4863.6</ele>
    <time>2026-06-23T06:40:01Z</time>
   </trkpt>
   <trkpt lat="-3.0929350" lon="37.3765970">
    <ele>4863.5</ele>
    <time>2026-06-23T06:40:02Z</time>
   </trkpt>
   <trkpt lat="-3.0929440" lon="37.3766000">
    <ele>4863.3</ele>
    <time>2026-06-23T06:40:03Z</time>
   </trkpt>
   <trkpt lat="-3.0929500" lon="37.3766020">
    <ele>4863.2</ele>
    <time>2026-06-23T06:40:04Z</time>
   </trkpt>
   <trkpt lat="-3.0929550" lon="37.3766020">
    <ele>4863.0</ele>
    <time>2026-06-23T06:40:05Z</time>
   </trkpt>
   <trkpt lat="-3.0929630" lon="37.3766010">
    <ele>4862.9</ele>
    <time>2026-06-23T06:40:06Z</time>
   </trkpt>
   <trkpt lat="-3.0929730" lon="37.3766000">
    <ele>4862.7</ele>
    <time>2026-06-23T06:40:07Z</time>
   </trkpt>
   <trkpt lat="-3.0929830" lon="37.3766010">
    <ele>4862.5</ele>
    <time>2026-06-23T06:40:08Z</time>
   </trkpt>
   <trkpt lat="-3.0929970" lon="37.3766040">
    <ele>4862.2</ele>
    <time>2026-06-23T06:40:09Z</time>
   </trkpt>
   <trkpt lat="-3.0930010" lon="37.3765980">
    <ele>4862.0</ele>
    <time>2026-06-23T06:40:10Z</time>
   </trkpt>
   <trkpt lat="-3.0930050" lon="37.3765960">
    <ele>4861.9</ele>
    <time>2026-06-23T06:40:11Z</time>
   </trkpt>
   <trkpt lat="-3.0930200" lon="37.3765990">
    <ele>4861.6</ele>
    <time>2026-06-23T06:40:12Z</time>
   </trkpt>
   <trkpt lat="-3.0930230" lon="37.3766070">
    <ele>4861.4</ele>
    <time>2026-06-23T06:40:13Z</time>
   </trkpt>
   <trkpt lat="-3.0930290" lon="37.3766180">
    <ele>4861.1</ele>
    <time>2026-06-23T06:40:14Z</time>
   </trkpt>
   <trkpt lat="-3.0930280" lon="37.3766270">
    <ele>4860.9</ele>
    <time>2026-06-23T06:40:15Z</time>
   </trkpt>
   <trkpt lat="-3.0930320" lon="37.3766360">
    <ele>4860.7</ele>
    <time>2026-06-23T06:40:16Z</time>
   </trkpt>
   <trkpt lat="-3.0930370" lon="37.3766490">
    <ele>4860.3</ele>
    <time>2026-06-23T06:40:17Z</time>
   </trkpt>
   <trkpt lat="-3.0930390" lon="37.3766570">
    <ele>4860.2</ele>
    <time>2026-06-23T06:40:18Z</time>
   </trkpt>
   <trkpt lat="-3.0930410" lon="37.3766630">
    <ele>4860.0</ele>
    <time>2026-06-23T06:40:19Z</time>
   </trkpt>
   <trkpt lat="-3.0930470" lon="37.3766590">
    <ele>4859.8</ele>
    <time>2026-06-23T06:40:20Z</time>
   </trkpt>
   <trkpt lat="-3.0930580" lon="37.3766620">
    <ele>4859.6</ele>
    <time>2026-06-23T06:40:21Z</time>
   </trkpt>
   <trkpt lat="-3.0930580" lon="37.3766690">
    <ele>4859.4</ele>
    <time>2026-06-23T06:40:22Z</time>
   </trkpt>
   <trkpt lat="-3.0930570" lon="37.3766800">
    <ele>4859.2</ele>
    <time>2026-06-23T06:40:23Z</time>
   </trkpt>
   <trkpt lat="-3.0930590" lon="37.3766990">
    <ele>4858.7</ele>
    <time>2026-06-23T06:40:24Z</time>
   </trkpt>
   <trkpt lat="-3.0930650" lon="37.3767070">
    <ele>4858.5</ele>
    <time>2026-06-23T06:40:25Z</time>
   </trkpt>
   <trkpt lat="-3.0930680" lon="37.3767130">
    <ele>4858.4</ele>
    <time>2026-06-23T06:40:26Z</time>
   </trkpt>
   <trkpt lat="-3.0930710" lon="37.3767190">
    <ele>4858.2</ele>
    <time>2026-06-23T06:40:27Z</time>
   </trkpt>
   <trkpt lat="-3.0930780" lon="37.3767240">
    <ele>4858.0</ele>
    <time>2026-06-23T06:40:28Z</time>
   </trkpt>
   <trkpt lat="-3.0930880" lon="37.3767290">
    <ele>4857.7</ele>
    <time>2026-06-23T06:40:29Z</time>
   </trkpt>
   <trkpt lat="-3.0930960" lon="37.3767340">
    <ele>4857.5</ele>
    <time>2026-06-23T06:40:30Z</time>
   </trkpt>
   <trkpt lat="-3.0931020" lon="37.3767330">
    <ele>4857.4</ele>
    <time>2026-06-23T06:40:31Z</time>
   </trkpt>
   <trkpt lat="-3.0931070" lon="37.3767350">
    <ele>4857.3</ele>
    <time>2026-06-23T06:40:32Z</time>
   </trkpt>
   <trkpt lat="-3.0931220" lon="37.3767350">
    <ele>4856.9</ele>
    <time>2026-06-23T06:40:33Z</time>
   </trkpt>
   <trkpt lat="-3.0931320" lon="37.3767300">
    <ele>4856.7</ele>
    <time>2026-06-23T06:40:34Z</time>
   </trkpt>
   <trkpt lat="-3.0931470" lon="37.3767270">
    <ele>4856.3</ele>
    <time>2026-06-23T06:40:35Z</time>
   </trkpt>
   <trkpt lat="-3.0931580" lon="37.3767260">
    <ele>4856.1</ele>
    <time>2026-06-23T06:40:36Z</time>
   </trkpt>
   <trkpt lat="-3.0931650" lon="37.3767270">
    <ele>4855.9</ele>
    <time>2026-06-23T06:40:37Z</time>
   </trkpt>
   <trkpt lat="-3.0931730" lon="37.3767310">
    <ele>4855.7</ele>
    <time>2026-06-23T06:40:38Z</time>
   </trkpt>
   <trkpt lat="-3.0931790" lon="37.3767410">
    <ele>4855.4</ele>
    <time>2026-06-23T06:40:39Z</time>
   </trkpt>
   <trkpt lat="-3.0931900" lon="37.3767530">
    <ele>4855.1</ele>
    <time>2026-06-23T06:40:40Z</time>
   </trkpt>
   <trkpt lat="-3.0931990" lon="37.3767620">
    <ele>4854.8</ele>
    <time>2026-06-23T06:40:41Z</time>
   </trkpt>
   <trkpt lat="-3.0932140" lon="37.3767730">
    <ele>4854.4</ele>
    <time>2026-06-23T06:40:42Z</time>
   </trkpt>
   <trkpt lat="-3.0932260" lon="37.3767740">
    <ele>4854.1</ele>
    <time>2026-06-23T06:40:43Z</time>
   </trkpt>
   <trkpt lat="-3.0932430" lon="37.3767770">
    <ele>4853.7</ele>
    <time>2026-06-23T06:40:44Z</time>
   </trkpt>
   <trkpt lat="-3.0932570" lon="37.3767760">
    <ele>4853.4</ele>
    <time>2026-06-23T06:40:45Z</time>
   </trkpt>
   <trkpt lat="-3.0932710" lon="37.3767780">
    <ele>4853.1</ele>
    <time>2026-06-23T06:40:46Z</time>
   </trkpt>
   <trkpt lat="-3.0932850" lon="37.3767760">
    <ele>4852.8</ele>
    <time>2026-06-23T06:40:47Z</time>
   </trkpt>
   <trkpt lat="-3.0932980" lon="37.3767680">
    <ele>4852.4</ele>
    <time>2026-06-23T06:40:48Z</time>
   </trkpt>
   <trkpt lat="-3.0933110" lon="37.3767660">
    <ele>4852.1</ele>
    <time>2026-06-23T06:40:49Z</time>
   </trkpt>
   <trkpt lat="-3.0933190" lon="37.3767700">
    <ele>4851.9</ele>
    <time>2026-06-23T06:40:50Z</time>
   </trkpt>
   <trkpt lat="-3.0933220" lon="37.3767890">
    <ele>4851.5</ele>
    <time>2026-06-23T06:40:51Z</time>
   </trkpt>
   <trkpt lat="-3.0933290" lon="37.3768080">
    <ele>4851.0</ele>
    <time>2026-06-23T06:40:52Z</time>
   </trkpt>
   <trkpt lat="-3.0933410" lon="37.3768200">
    <ele>4850.7</ele>
    <time>2026-06-23T06:40:53Z</time>
   </trkpt>
   <trkpt lat="-3.0933550" lon="37.3768270">
    <ele>4850.3</ele>
    <time>2026-06-23T06:40:54Z</time>
   </trkpt>
   <trkpt lat="-3.0933710" lon="37.3768320">
    <ele>4849.9</ele>
    <time>2026-06-23T06:40:55Z</time>
   </trkpt>
   <trkpt lat="-3.0933890" lon="37.3768330">
    <ele>4849.5</ele>
    <time>2026-06-23T06:40:56Z</time>
   </trkpt>
   <trkpt lat="-3.0934040" lon="37.3768360">
    <ele>4849.1</ele>
    <time>2026-06-23T06:40:57Z</time>
   </trkpt>
   <trkpt lat="-3.0934160" lon="37.3768440">
    <ele>4848.8</ele>
    <time>2026-06-23T06:40:58Z</time>
   </trkpt>
   <trkpt lat="-3.0934290" lon="37.3768550">
    <ele>4848.4</ele>
    <time>2026-06-23T06:40:59Z</time>
   </trkpt>
   <trkpt lat="-3.0934380" lon="37.3768640">
    <ele>4848.1</ele>
    <time>2026-06-23T06:41:00Z</time>
   </trkpt>
   <trkpt lat="-3.0934530" lon="37.3768630">
    <ele>4847.8</ele>
    <time>2026-06-23T06:41:01Z</time>
   </trkpt>
   <trkpt lat="-3.0934690" lon="37.3768580">
    <ele>4847.4</ele>
    <time>2026-06-23T06:41:02Z</time>
   </trkpt>
   <trkpt lat="-3.0934840" lon="37.3768610">
    <ele>4847.0</ele>
    <time>2026-06-23T06:41:03Z</time>
   </trkpt>
   <trkpt lat="-3.0934960" lon="37.3768660">
    <ele>4846.7</ele>
    <time>2026-06-23T06:41:04Z</time>
   </trkpt>
   <trkpt lat="-3.0935080" lon="37.3768640">
    <ele>4846.4</ele>
    <time>2026-06-23T06:41:05Z</time>
   </trkpt>
   <trkpt lat="-3.0935220" lon="37.3768600">
    <ele>4846.1</ele>
    <time>2026-06-23T06:41:06Z</time>
   </trkpt>
   <trkpt lat="-3.0935330" lon="37.3768530">
    <ele>4845.8</ele>
    <time>2026-06-23T06:41:07Z</time>
   </trkpt>
   <trkpt lat="-3.0935430" lon="37.3768450">
    <ele>4845.5</ele>
    <time>2026-06-23T06:41:08Z</time>
   </trkpt>
   <trkpt lat="-3.0935560" lon="37.3768440">
    <ele>4845.2</ele>
    <time>2026-06-23T06:41:09Z</time>
   </trkpt>
   <trkpt lat="-3.0935690" lon="37.3768540">
    <ele>4844.8</ele>
    <time>2026-06-23T06:41:10Z</time>
   </trkpt>
   <trkpt lat="-3.0935770" lon="37.3768660">
    <ele>4844.5</ele>
    <time>2026-06-23T06:41:11Z</time>
   </trkpt>
   <trkpt lat="-3.0935910" lon="37.3768680">
    <ele>4844.2</ele>
    <time>2026-06-23T06:41:12Z</time>
   </trkpt>
   <trkpt lat="-3.0936090" lon="37.3768600">
    <ele>4843.8</ele>
    <time>2026-06-23T06:41:13Z</time>
   </trkpt>
   <trkpt lat="-3.0936230" lon="37.3768690">
    <ele>4843.4</ele>
    <time>2026-06-23T06:41:14Z</time>
   </trkpt>
   <trkpt lat="-3.0936340" lon="37.3768780">
    <ele>4843.1</ele>
    <time>2026-06-23T06:41:15Z</time>
   </trkpt>
   <trkpt lat="-3.0936450" lon="37.3768870">
    <ele>4842.8</ele>
    <time>2026-06-23T06:41:16Z</time>
   </trkpt>
   <trkpt lat="-3.0936600" lon="37.3768890">
    <ele>4842.5</ele>
    <time>2026-06-23T06:41:17Z</time>
   </trkpt>
   <trkpt lat="-3.0936760" lon="37.3768860">
    <ele>4842.1</ele>
    <time>2026-06-23T06:41:18Z</time>
   </trkpt>
   <trkpt lat="-3.0936900" lon="37.3768800">
    <ele>4841.8</ele>
    <time>2026-06-23T06:41:19Z</time>
   </trkpt>
   <trkpt lat="-3.0937020" lon="37.3768760">
    <ele>4841.5</ele>
    <time>2026-06-23T06:41:20Z</time>
   </trkpt>
   <trkpt lat="-3.0937130" lon="37.3768730">
    <ele>4841.3</ele>
    <time>2026-06-23T06:41:21Z</time>
   </trkpt>
   <trkpt lat="-3.0937270" lon="37.3768830">
    <ele>4840.9</ele>
    <time>2026-06-23T06:41:22Z</time>
   </trkpt>
   <trkpt lat="-3.0937390" lon="37.3768950">
    <ele>4840.5</ele>
    <time>2026-06-23T06:41:23Z</time>
   </trkpt>
   <trkpt lat="-3.0937510" lon="37.3769040">
    <ele>4840.2</ele>
    <time>2026-06-23T06:41:24Z</time>
   </trkpt>
   <trkpt lat="-3.0937650" lon="37.3769090">
    <ele>4839.9</ele>
    <time>2026-06-23T06:41:25Z</time>
   </trkpt>
   <trkpt lat="-3.0937810" lon="37.3769020">
    <ele>4839.5</ele>
    <time>2026-06-23T06:41:26Z</time>
   </trkpt>
   <trkpt lat="-3.0937940" lon="37.3768890">
    <ele>4839.1</ele>
    <time>2026-06-23T06:41:27Z</time>
   </trkpt>
   <trkpt lat="-3.0938090" lon="37.3768850">
    <ele>4838.8</ele>
    <time>2026-06-23T06:41:28Z</time>
   </trkpt>
   <trkpt lat="-3.0938240" lon="37.3768850">
    <ele>4838.5</ele>
    <time>2026-06-23T06:41:29Z</time>
   </trkpt>
   <trkpt lat="-3.0938380" lon="37.3768900">
    <ele>4838.2</ele>
    <time>2026-06-23T06:41:30Z</time>
   </trkpt>
   <trkpt lat="-3.0938530" lon="37.3768910">
    <ele>4837.8</ele>
    <time>2026-06-23T06:41:31Z</time>
   </trkpt>
   <trkpt lat="-3.0938670" lon="37.3768900">
    <ele>4837.6</ele>
    <time>2026-06-23T06:41:32Z</time>
   </trkpt>
   <trkpt lat="-3.0938820" lon="37.3768990">
    <ele>4837.2</ele>
    <time>2026-06-23T06:41:33Z</time>
   </trkpt>
   <trkpt lat="-3.0938940" lon="37.3769050">
    <ele>4836.9</ele>
    <time>2026-06-23T06:41:34Z</time>
   </trkpt>
   <trkpt lat="-3.0939070" lon="37.3769110">
    <ele>4836.6</ele>
    <time>2026-06-23T06:41:35Z</time>
   </trkpt>
   <trkpt lat="-3.0939200" lon="37.3769180">
    <ele>4836.3</ele>
    <time>2026-06-23T06:41:36Z</time>
   </trkpt>
   <trkpt lat="-3.0939320" lon="37.3769210">
    <ele>4836.1</ele>
    <time>2026-06-23T06:41:37Z</time>
   </trkpt>
   <trkpt lat="-3.0939430" lon="37.3769260">
    <ele>4835.9</ele>
    <time>2026-06-23T06:41:38Z</time>
   </trkpt>
   <trkpt lat="-3.0939560" lon="37.3769300">
    <ele>4835.6</ele>
    <time>2026-06-23T06:41:39Z</time>
   </trkpt>
   <trkpt lat="-3.0939690" lon="37.3769330">
    <ele>4835.3</ele>
    <time>2026-06-23T06:41:40Z</time>
   </trkpt>
   <trkpt lat="-3.0939840" lon="37.3769370">
    <ele>4835.0</ele>
    <time>2026-06-23T06:41:41Z</time>
   </trkpt>
   <trkpt lat="-3.0939950" lon="37.3769390">
    <ele>4834.8</ele>
    <time>2026-06-23T06:41:42Z</time>
   </trkpt>
   <trkpt lat="-3.0940080" lon="37.3769430">
    <ele>4834.6</ele>
    <time>2026-06-23T06:41:43Z</time>
   </trkpt>
   <trkpt lat="-3.0940150" lon="37.3769480">
    <ele>4834.4</ele>
    <time>2026-06-23T06:41:44Z</time>
   </trkpt>
   <trkpt lat="-3.0940260" lon="37.3769520">
    <ele>4834.2</ele>
    <time>2026-06-23T06:41:45Z</time>
   </trkpt>
   <trkpt lat="-3.0940380" lon="37.3769530">
    <ele>4833.9</ele>
    <time>2026-06-23T06:41:46Z</time>
   </trkpt>
   <trkpt lat="-3.0940510" lon="37.3769530">
    <ele>4833.7</ele>
    <time>2026-06-23T06:41:47Z</time>
   </trkpt>
   <trkpt lat="-3.0940670" lon="37.3769520">
    <ele>4833.4</ele>
    <time>2026-06-23T06:41:48Z</time>
   </trkpt>
   <trkpt lat="-3.0940770" lon="37.3769530">
    <ele>4833.2</ele>
    <time>2026-06-23T06:41:49Z</time>
   </trkpt>
   <trkpt lat="-3.0940880" lon="37.3769560">
    <ele>4832.9</ele>
    <time>2026-06-23T06:41:50Z</time>
   </trkpt>
   <trkpt lat="-3.0941010" lon="37.3769590">
    <ele>4832.7</ele>
    <time>2026-06-23T06:41:51Z</time>
   </trkpt>
   <trkpt lat="-3.0941130" lon="37.3769620">
    <ele>4832.4</ele>
    <time>2026-06-23T06:41:52Z</time>
   </trkpt>
   <trkpt lat="-3.0941270" lon="37.3769660">
    <ele>4832.2</ele>
    <time>2026-06-23T06:41:53Z</time>
   </trkpt>
   <trkpt lat="-3.0941390" lon="37.3769630">
    <ele>4831.9</ele>
    <time>2026-06-23T06:41:54Z</time>
   </trkpt>
   <trkpt lat="-3.0941520" lon="37.3769630">
    <ele>4831.7</ele>
    <time>2026-06-23T06:41:55Z</time>
   </trkpt>
   <trkpt lat="-3.0941610" lon="37.3769650">
    <ele>4831.5</ele>
    <time>2026-06-23T06:41:56Z</time>
   </trkpt>
   <trkpt lat="-3.0941750" lon="37.3769720">
    <ele>4831.2</ele>
    <time>2026-06-23T06:41:57Z</time>
   </trkpt>
   <trkpt lat="-3.0941870" lon="37.3769780">
    <ele>4830.9</ele>
    <time>2026-06-23T06:41:58Z</time>
   </trkpt>
   <trkpt lat="-3.0941980" lon="37.3769870">
    <ele>4830.6</ele>
    <time>2026-06-23T06:41:59Z</time>
   </trkpt>
   <trkpt lat="-3.0942070" lon="37.3769940">
    <ele>4830.4</ele>
    <time>2026-06-23T06:42:00Z</time>
   </trkpt>
   <trkpt lat="-3.0942120" lon="37.3769980">
    <ele>4830.3</ele>
    <time>2026-06-23T06:42:01Z</time>
   </trkpt>
   <trkpt lat="-3.0942280" lon="37.3770050">
    <ele>4829.9</ele>
    <time>2026-06-23T06:42:02Z</time>
   </trkpt>
   <trkpt lat="-3.0942370" lon="37.3770080">
    <ele>4829.7</ele>
    <time>2026-06-23T06:42:03Z</time>
   </trkpt>
   <trkpt lat="-3.0942480" lon="37.3770090">
    <ele>4829.5</ele>
    <time>2026-06-23T06:42:04Z</time>
   </trkpt>
   <trkpt lat="-3.0942590" lon="37.3770070">
    <ele>4829.3</ele>
    <time>2026-06-23T06:42:05Z</time>
   </trkpt>
   <trkpt lat="-3.0942700" lon="37.3770050">
    <ele>4829.0</ele>
    <time>2026-06-23T06:42:06Z</time>
   </trkpt>
   <trkpt lat="-3.0942810" lon="37.3770070">
    <ele>4828.8</ele>
    <time>2026-06-23T06:42:07Z</time>
   </trkpt>
   <trkpt lat="-3.0942910" lon="37.3770130">
    <ele>4828.6</ele>
    <time>2026-06-23T06:42:08Z</time>
   </trkpt>
   <trkpt lat="-3.0943000" lon="37.3770160">
    <ele>4828.4</ele>
    <time>2026-06-23T06:42:09Z</time>
   </trkpt>
   <trkpt lat="-3.0943100" lon="37.3770160">
    <ele>4828.2</ele>
    <time>2026-06-23T06:42:10Z</time>
   </trkpt>
   <trkpt lat="-3.0943210" lon="37.3770160">
    <ele>4828.0</ele>
    <time>2026-06-23T06:42:11Z</time>
   </trkpt>
   <trkpt lat="-3.0943340" lon="37.3770170">
    <ele>4827.7</ele>
    <time>2026-06-23T06:42:12Z</time>
   </trkpt>
   <trkpt lat="-3.0943430" lon="37.3770210">
    <ele>4827.5</ele>
    <time>2026-06-23T06:42:13Z</time>
   </trkpt>
   <trkpt lat="-3.0943530" lon="37.3770320">
    <ele>4827.2</ele>
    <time>2026-06-23T06:42:14Z</time>
   </trkpt>
   <trkpt lat="-3.0943590" lon="37.3770420">
    <ele>4826.9</ele>
    <time>2026-06-23T06:42:15Z</time>
   </trkpt>
   <trkpt lat="-3.0943690" lon="37.3770510">
    <ele>4826.6</ele>
    <time>2026-06-23T06:42:16Z</time>
   </trkpt>
   <trkpt lat="-3.0943760" lon="37.3770590">
    <ele>4826.4</ele>
    <time>2026-06-23T06:42:17Z</time>
   </trkpt>
   <trkpt lat="-3.0943870" lon="37.3770650">
    <ele>4826.1</ele>
    <time>2026-06-23T06:42:18Z</time>
   </trkpt>
   <trkpt lat="-3.0944000" lon="37.3770720">
    <ele>4825.8</ele>
    <time>2026-06-23T06:42:19Z</time>
   </trkpt>
   <trkpt lat="-3.0944110" lon="37.3770750">
    <ele>4825.6</ele>
    <time>2026-06-23T06:42:20Z</time>
   </trkpt>
   <trkpt lat="-3.0944230" lon="37.3770750">
    <ele>4825.3</ele>
    <time>2026-06-23T06:42:21Z</time>
   </trkpt>
   <trkpt lat="-3.0944360" lon="37.3770750">
    <ele>4825.1</ele>
    <time>2026-06-23T06:42:22Z</time>
   </trkpt>
   <trkpt lat="-3.0944500" lon="37.3770770">
    <ele>4824.7</ele>
    <time>2026-06-23T06:42:23Z</time>
   </trkpt>
   <trkpt lat="-3.0944620" lon="37.3770740">
    <ele>4824.5</ele>
    <time>2026-06-23T06:42:24Z</time>
   </trkpt>
   <trkpt lat="-3.0944770" lon="37.3770700">
    <ele>4824.1</ele>
    <time>2026-06-23T06:42:25Z</time>
   </trkpt>
   <trkpt lat="-3.0944900" lon="37.3770640">
    <ele>4823.8</ele>
    <time>2026-06-23T06:42:26Z</time>
   </trkpt>
   <trkpt lat="-3.0944990" lon="37.3770640">
    <ele>4823.6</ele>
    <time>2026-06-23T06:42:27Z</time>
   </trkpt>
   <trkpt lat="-3.0945080" lon="37.3770710">
    <ele>4823.4</ele>
    <time>2026-06-23T06:42:28Z</time>
   </trkpt>
   <trkpt lat="-3.0945210" lon="37.3770770">
    <ele>4823.1</ele>
    <time>2026-06-23T06:42:29Z</time>
   </trkpt>
   <trkpt lat="-3.0945310" lon="37.3770810">
    <ele>4822.8</ele>
    <time>2026-06-23T06:42:30Z</time>
   </trkpt>
   <trkpt lat="-3.0945410" lon="37.3770820">
    <ele>4822.6</ele>
    <time>2026-06-23T06:42:31Z</time>
   </trkpt>
   <trkpt lat="-3.0945520" lon="37.3770840">
    <ele>4822.4</ele>
    <time>2026-06-23T06:42:32Z</time>
   </trkpt>
   <trkpt lat="-3.0945610" lon="37.3770830">
    <ele>4822.2</ele>
    <time>2026-06-23T06:42:33Z</time>
   </trkpt>
   <trkpt lat="-3.0945730" lon="37.3770850">
    <ele>4821.9</ele>
    <time>2026-06-23T06:42:34Z</time>
   </trkpt>
   <trkpt lat="-3.0945800" lon="37.3770860">
    <ele>4821.8</ele>
    <time>2026-06-23T06:42:35Z</time>
   </trkpt>
   <trkpt lat="-3.0945890" lon="37.3770910">
    <ele>4821.5</ele>
    <time>2026-06-23T06:42:36Z</time>
   </trkpt>
   <trkpt lat="-3.0946000" lon="37.3770980">
    <ele>4821.3</ele>
    <time>2026-06-23T06:42:37Z</time>
   </trkpt>
   <trkpt lat="-3.0946120" lon="37.3771040">
    <ele>4821.0</ele>
    <time>2026-06-23T06:42:38Z</time>
   </trkpt>
   <trkpt lat="-3.0946220" lon="37.3771070">
    <ele>4820.7</ele>
    <time>2026-06-23T06:42:39Z</time>
   </trkpt>
   <trkpt lat="-3.0946340" lon="37.3771120">
    <ele>4820.5</ele>
    <time>2026-06-23T06:42:40Z</time>
   </trkpt>
   <trkpt lat="-3.0946430" lon="37.3771160">
    <ele>4820.2</ele>
    <time>2026-06-23T06:42:41Z</time>
   </trkpt>
   <trkpt lat="-3.0946480" lon="37.3771210">
    <ele>4820.1</ele>
    <time>2026-06-23T06:42:42Z</time>
   </trkpt>
   <trkpt lat="-3.0946590" lon="37.3771330">
    <ele>4819.7</ele>
    <time>2026-06-23T06:42:43Z</time>
   </trkpt>
   <trkpt lat="-3.0946670" lon="37.3771390">
    <ele>4819.5</ele>
    <time>2026-06-23T06:42:44Z</time>
   </trkpt>
   <trkpt lat="-3.0946780" lon="37.3771420">
    <ele>4819.3</ele>
    <time>2026-06-23T06:42:45Z</time>
   </trkpt>
   <trkpt lat="-3.0946890" lon="37.3771440">
    <ele>4819.0</ele>
    <time>2026-06-23T06:42:46Z</time>
   </trkpt>
   <trkpt lat="-3.0947010" lon="37.3771490">
    <ele>4818.8</ele>
    <time>2026-06-23T06:42:47Z</time>
   </trkpt>
   <trkpt lat="-3.0947110" lon="37.3771510">
    <ele>4818.6</ele>
    <time>2026-06-23T06:42:48Z</time>
   </trkpt>
   <trkpt lat="-3.0947200" lon="37.3771530">
    <ele>4818.4</ele>
    <time>2026-06-23T06:42:49Z</time>
   </trkpt>
   <trkpt lat="-3.0947320" lon="37.3771540">
    <ele>4818.1</ele>
    <time>2026-06-23T06:42:50Z</time>
   </trkpt>
   <trkpt lat="-3.0947410" lon="37.3771550">
    <ele>4817.9</ele>
    <time>2026-06-23T06:42:51Z</time>
   </trkpt>
   <trkpt lat="-3.0947540" lon="37.3771580">
    <ele>4817.6</ele>
    <time>2026-06-23T06:42:52Z</time>
   </trkpt>
   <trkpt lat="-3.0947660" lon="37.3771600">
    <ele>4817.4</ele>
    <time>2026-06-23T06:42:53Z</time>
   </trkpt>
   <trkpt lat="-3.0947770" lon="37.3771640">
    <ele>4817.1</ele>
    <time>2026-06-23T06:42:54Z</time>
   </trkpt>
   <trkpt lat="-3.0947880" lon="37.3771720">
    <ele>4816.8</ele>
    <time>2026-06-23T06:42:55Z</time>
   </trkpt>
   <trkpt lat="-3.0947990" lon="37.3771750">
    <ele>4816.6</ele>
    <time>2026-06-23T06:42:56Z</time>
   </trkpt>
   <trkpt lat="-3.0948120" lon="37.3771760">
    <ele>4816.3</ele>
    <time>2026-06-23T06:42:57Z</time>
   </trkpt>
   <trkpt lat="-3.0948220" lon="37.3771790">
    <ele>4816.1</ele>
    <time>2026-06-23T06:42:58Z</time>
   </trkpt>
   <trkpt lat="-3.0948340" lon="37.3771890">
    <ele>4815.8</ele>
    <time>2026-06-23T06:42:59Z</time>
   </trkpt>
   <trkpt lat="-3.0948440" lon="37.3771930">
    <ele>4815.5</ele>
    <time>2026-06-23T06:43:00Z</time>
   </trkpt>
   <trkpt lat="-3.0948570" lon="37.3771960">
    <ele>4815.3</ele>
    <time>2026-06-23T06:43:01Z</time>
   </trkpt>
   <trkpt lat="-3.0948690" lon="37.3771990">
    <ele>4815.0</ele>
    <time>2026-06-23T06:43:02Z</time>
   </trkpt>
   <trkpt lat="-3.0948810" lon="37.3772040">
    <ele>4814.7</ele>
    <time>2026-06-23T06:43:03Z</time>
   </trkpt>
   <trkpt lat="-3.0948910" lon="37.3772090">
    <ele>4814.5</ele>
    <time>2026-06-23T06:43:04Z</time>
   </trkpt>
   <trkpt lat="-3.0949030" lon="37.3772160">
    <ele>4814.3</ele>
    <time>2026-06-23T06:43:05Z</time>
   </trkpt>
   <trkpt lat="-3.0949150" lon="37.3772200">
    <ele>4814.0</ele>
    <time>2026-06-23T06:43:06Z</time>
   </trkpt>
   <trkpt lat="-3.0949290" lon="37.3772230">
    <ele>4813.7</ele>
    <time>2026-06-23T06:43:07Z</time>
   </trkpt>
   <trkpt lat="-3.0949460" lon="37.3772210">
    <ele>4813.4</ele>
    <time>2026-06-23T06:43:08Z</time>
   </trkpt>
   <trkpt lat="-3.0949570" lon="37.3772200">
    <ele>4813.2</ele>
    <time>2026-06-23T06:43:09Z</time>
   </trkpt>
   <trkpt lat="-3.0949700" lon="37.3772220">
    <ele>4812.9</ele>
    <time>2026-06-23T06:43:10Z</time>
   </trkpt>
   <trkpt lat="-3.0949800" lon="37.3772230">
    <ele>4812.7</ele>
    <time>2026-06-23T06:43:11Z</time>
   </trkpt>
   <trkpt lat="-3.0949940" lon="37.3772270">
    <ele>4812.5</ele>
    <time>2026-06-23T06:43:12Z</time>
   </trkpt>
   <trkpt lat="-3.0950100" lon="37.3772300">
    <ele>4812.2</ele>
    <time>2026-06-23T06:43:13Z</time>
   </trkpt>
   <trkpt lat="-3.0950230" lon="37.3772290">
    <ele>4811.9</ele>
    <time>2026-06-23T06:43:14Z</time>
   </trkpt>
   <trkpt lat="-3.0950360" lon="37.3772270">
    <ele>4811.7</ele>
    <time>2026-06-23T06:43:15Z</time>
   </trkpt>
   <trkpt lat="-3.0950510" lon="37.3772220">
    <ele>4811.4</ele>
    <time>2026-06-23T06:43:16Z</time>
   </trkpt>
   <trkpt lat="-3.0950630" lon="37.3772190">
    <ele>4811.2</ele>
    <time>2026-06-23T06:43:17Z</time>
   </trkpt>
   <trkpt lat="-3.0950740" lon="37.3772230">
    <ele>4811.0</ele>
    <time>2026-06-23T06:43:18Z</time>
   </trkpt>
   <trkpt lat="-3.0950890" lon="37.3772300">
    <ele>4810.7</ele>
    <time>2026-06-23T06:43:19Z</time>
   </trkpt>
   <trkpt lat="-3.0950980" lon="37.3772380">
    <ele>4810.5</ele>
    <time>2026-06-23T06:43:20Z</time>
   </trkpt>
   <trkpt lat="-3.0951090" lon="37.3772400">
    <ele>4810.3</ele>
    <time>2026-06-23T06:43:21Z</time>
   </trkpt>
   <trkpt lat="-3.0951220" lon="37.3772440">
    <ele>4810.1</ele>
    <time>2026-06-23T06:43:22Z</time>
   </trkpt>
   <trkpt lat="-3.0951350" lon="37.3772480">
    <ele>4809.8</ele>
    <time>2026-06-23T06:43:23Z</time>
   </trkpt>
   <trkpt lat="-3.0951450" lon="37.3772540">
    <ele>4809.6</ele>
    <time>2026-06-23T06:43:24Z</time>
   </trkpt>
   <trkpt lat="-3.0951580" lon="37.3772590">
    <ele>4809.4</ele>
    <time>2026-06-23T06:43:25Z</time>
   </trkpt>
   <trkpt lat="-3.0951670" lon="37.3772650">
    <ele>4809.2</ele>
    <time>2026-06-23T06:43:26Z</time>
   </trkpt>
   <trkpt lat="-3.0951770" lon="37.3772710">
    <ele>4809.0</ele>
    <time>2026-06-23T06:43:27Z</time>
   </trkpt>
   <trkpt lat="-3.0951870" lon="37.3772790">
    <ele>4808.8</ele>
    <time>2026-06-23T06:43:28Z</time>
   </trkpt>
   <trkpt lat="-3.0951990" lon="37.3772820">
    <ele>4808.6</ele>
    <time>2026-06-23T06:43:29Z</time>
   </trkpt>
   <trkpt lat="-3.0952120" lon="37.3772800">
    <ele>4808.4</ele>
    <time>2026-06-23T06:43:30Z</time>
   </trkpt>
   <trkpt lat="-3.0952250" lon="37.3772760">
    <ele>4808.2</ele>
    <time>2026-06-23T06:43:31Z</time>
   </trkpt>
   <trkpt lat="-3.0952370" lon="37.3772720">
    <ele>4808.0</ele>
    <time>2026-06-23T06:43:32Z</time>
   </trkpt>
   <trkpt lat="-3.0952480" lon="37.3772690">
    <ele>4807.8</ele>
    <time>2026-06-23T06:43:33Z</time>
   </trkpt>
   <trkpt lat="-3.0952570" lon="37.3772650">
    <ele>4807.7</ele>
    <time>2026-06-23T06:43:34Z</time>
   </trkpt>
   <trkpt lat="-3.0952640" lon="37.3772620">
    <ele>4807.5</ele>
    <time>2026-06-23T06:43:35Z</time>
   </trkpt>
   <trkpt lat="-3.0952730" lon="37.3772590">
    <ele>4807.4</ele>
    <time>2026-06-23T06:43:36Z</time>
   </trkpt>
   <trkpt lat="-3.0952830" lon="37.3772590">
    <ele>4807.2</ele>
    <time>2026-06-23T06:43:37Z</time>
   </trkpt>
   <trkpt lat="-3.0952900" lon="37.3772630">
    <ele>4807.1</ele>
    <time>2026-06-23T06:43:38Z</time>
   </trkpt>
   <trkpt lat="-3.0953000" lon="37.3772720">
    <ele>4806.9</ele>
    <time>2026-06-23T06:43:39Z</time>
   </trkpt>
   <trkpt lat="-3.0953180" lon="37.3772840">
    <ele>4806.5</ele>
    <time>2026-06-23T06:43:40Z</time>
   </trkpt>
   <trkpt lat="-3.0953270" lon="37.3772860">
    <ele>4806.4</ele>
    <time>2026-06-23T06:43:41Z</time>
   </trkpt>
   <trkpt lat="-3.0953330" lon="37.3772830">
    <ele>4806.3</ele>
    <time>2026-06-23T06:43:42Z</time>
   </trkpt>
   <trkpt lat="-3.0953440" lon="37.3772820">
    <ele>4806.1</ele>
    <time>2026-06-23T06:43:43Z</time>
   </trkpt>
   <trkpt lat="-3.0953560" lon="37.3772820">
    <ele>4805.9</ele>
    <time>2026-06-23T06:43:44Z</time>
   </trkpt>
   <trkpt lat="-3.0953650" lon="37.3772870">
    <ele>4805.8</ele>
    <time>2026-06-23T06:43:45Z</time>
   </trkpt>
   <trkpt lat="-3.0953730" lon="37.3772940">
    <ele>4805.6</ele>
    <time>2026-06-23T06:43:46Z</time>
   </trkpt>
   <trkpt lat="-3.0953820" lon="37.3773010">
    <ele>4805.4</ele>
    <time>2026-06-23T06:43:47Z</time>
   </trkpt>
   <trkpt lat="-3.0953930" lon="37.3773020">
    <ele>4805.2</ele>
    <time>2026-06-23T06:43:48Z</time>
   </trkpt>
   <trkpt lat="-3.0954090" lon="37.3773010">
    <ele>4805.0</ele>
    <time>2026-06-23T06:43:49Z</time>
   </trkpt>
   <trkpt lat="-3.0954150" lon="37.3773020">
    <ele>4804.9</ele>
    <time>2026-06-23T06:43:50Z</time>
   </trkpt>
   <trkpt lat="-3.0954190" lon="37.3772980">
    <ele>4804.8</ele>
    <time>2026-06-23T06:43:51Z</time>
   </trkpt>
   <trkpt lat="-3.0954260" lon="37.3772940">
    <ele>4804.6</ele>
    <time>2026-06-23T06:43:52Z</time>
   </trkpt>
   <trkpt lat="-3.0954380" lon="37.3772920">
    <ele>4804.4</ele>
    <time>2026-06-23T06:43:53Z</time>
   </trkpt>
   <trkpt lat="-3.0954440" lon="37.3772920">
    <ele>4804.3</ele>
    <time>2026-06-23T06:43:54Z</time>
   </trkpt>
   <trkpt lat="-3.0954550" lon="37.3772930">
    <ele>4804.2</ele>
    <time>2026-06-23T06:43:55Z</time>
   </trkpt>
   <trkpt lat="-3.0954670" lon="37.3772930">
    <ele>4804.0</ele>
    <time>2026-06-23T06:43:56Z</time>
   </trkpt>
   <trkpt lat="-3.0954790" lon="37.3772920">
    <ele>4803.8</ele>
    <time>2026-06-23T06:43:57Z</time>
   </trkpt>
   <trkpt lat="-3.0954870" lon="37.3772860">
    <ele>4803.6</ele>
    <time>2026-06-23T06:43:58Z</time>
   </trkpt>
   <trkpt lat="-3.0954950" lon="37.3772840">
    <ele>4803.5</ele>
    <time>2026-06-23T06:43:59Z</time>
   </trkpt>
   <trkpt lat="-3.0955040" lon="37.3772900">
    <ele>4803.3</ele>
    <time>2026-06-23T06:44:00Z</time>
   </trkpt>
   <trkpt lat="-3.0955150" lon="37.3772980">
    <ele>4803.1</ele>
    <time>2026-06-23T06:44:01Z</time>
   </trkpt>
   <trkpt lat="-3.0955250" lon="37.3772930">
    <ele>4802.9</ele>
    <time>2026-06-23T06:44:02Z</time>
   </trkpt>
   <trkpt lat="-3.0955380" lon="37.3772910">
    <ele>4802.6</ele>
    <time>2026-06-23T06:44:03Z</time>
   </trkpt>
   <trkpt lat="-3.0955530" lon="37.3772880">
    <ele>4802.4</ele>
    <time>2026-06-23T06:44:04Z</time>
   </trkpt>
   <trkpt lat="-3.0955630" lon="37.3772850">
    <ele>4802.2</ele>
    <time>2026-06-23T06:44:05Z</time>
   </trkpt>
   <trkpt lat="-3.0955730" lon="37.3772830">
    <ele>4802.0</ele>
    <time>2026-06-23T06:44:06Z</time>
   </trkpt>
   <trkpt lat="-3.0955860" lon="37.3772860">
    <ele>4801.8</ele>
    <time>2026-06-23T06:44:07Z</time>
   </trkpt>
   <trkpt lat="-3.0955880" lon="37.3772910">
    <ele>4801.7</ele>
    <time>2026-06-23T06:44:08Z</time>
   </trkpt>
   <trkpt lat="-3.0956010" lon="37.3773010">
    <ele>4801.4</ele>
    <time>2026-06-23T06:44:09Z</time>
   </trkpt>
   <trkpt lat="-3.0956120" lon="37.3773080">
    <ele>4801.1</ele>
    <time>2026-06-23T06:44:10Z</time>
   </trkpt>
   <trkpt lat="-3.0956210" lon="37.3773140">
    <ele>4800.9</ele>
    <time>2026-06-23T06:44:11Z</time>
   </trkpt>
   <trkpt lat="-3.0956260" lon="37.3773200">
    <ele>4800.8</ele>
    <time>2026-06-23T06:44:12Z</time>
   </trkpt>
   <trkpt lat="-3.0956320" lon="37.3773230">
    <ele>4800.7</ele>
    <time>2026-06-23T06:44:13Z</time>
   </trkpt>
   <trkpt lat="-3.0956420" lon="37.3773270">
    <ele>4800.5</ele>
    <time>2026-06-23T06:44:14Z</time>
   </trkpt>
   <trkpt lat="-3.0956500" lon="37.3773330">
    <ele>4800.3</ele>
    <time>2026-06-23T06:44:15Z</time>
   </trkpt>
   <trkpt lat="-3.0956560" lon="37.3773420">
    <ele>4800.1</ele>
    <time>2026-06-23T06:44:16Z</time>
   </trkpt>
   <trkpt lat="-3.0956580" lon="37.3773510">
    <ele>4799.9</ele>
    <time>2026-06-23T06:44:17Z</time>
   </trkpt>
   <trkpt lat="-3.0956610" lon="37.3773640">
    <ele>4799.7</ele>
    <time>2026-06-23T06:44:18Z</time>
   </trkpt>
   <trkpt lat="-3.0956680" lon="37.3773710">
    <ele>4799.5</ele>
    <time>2026-06-23T06:44:19Z</time>
   </trkpt>
   <trkpt lat="-3.0956810" lon="37.3773710">
    <ele>4799.3</ele>
    <time>2026-06-23T06:44:20Z</time>
   </trkpt>
   <trkpt lat="-3.0956980" lon="37.3773630">
    <ele>4798.9</ele>
    <time>2026-06-23T06:44:21Z</time>
   </trkpt>
   <trkpt lat="-3.0957090" lon="37.3773600">
    <ele>4798.7</ele>
    <time>2026-06-23T06:44:22Z</time>
   </trkpt>
   <trkpt lat="-3.0957200" lon="37.3773680">
    <ele>4798.4</ele>
    <time>2026-06-23T06:44:23Z</time>
   </trkpt>
   <trkpt lat="-3.0957290" lon="37.3773770">
    <ele>4798.2</ele>
    <time>2026-06-23T06:44:24Z</time>
   </trkpt>
   <trkpt lat="-3.0957370" lon="37.3773800">
    <ele>4798.0</ele>
    <time>2026-06-23T06:44:25Z</time>
   </trkpt>
   <trkpt lat="-3.0957450" lon="37.3773840">
    <ele>4797.8</ele>
    <time>2026-06-23T06:44:26Z</time>
   </trkpt>
   <trkpt lat="-3.0957580" lon="37.3773880">
    <ele>4797.6</ele>
    <time>2026-06-23T06:44:27Z</time>
   </trkpt>
   <trkpt lat="-3.0957620" lon="37.3773900">
    <ele>4797.5</ele>
    <time>2026-06-23T06:44:28Z</time>
   </trkpt>
   <trkpt lat="-3.0957660" lon="37.3773870">
    <ele>4797.4</ele>
    <time>2026-06-23T06:44:29Z</time>
   </trkpt>
   <trkpt lat="-3.0957770" lon="37.3773830">
    <ele>4797.2</ele>
    <time>2026-06-23T06:44:30Z</time>
   </trkpt>
   <trkpt lat="-3.0957840" lon="37.3773800">
    <ele>4797.0</ele>
    <time>2026-06-23T06:44:31Z</time>
   </trkpt>
   <trkpt lat="-3.0957900" lon="37.3773810">
    <ele>4796.9</ele>
    <time>2026-06-23T06:44:32Z</time>
   </trkpt>
   <trkpt lat="-3.0957980" lon="37.3773790">
    <ele>4796.7</ele>
    <time>2026-06-23T06:44:33Z</time>
   </trkpt>
   <trkpt lat="-3.0958070" lon="37.3773800">
    <ele>4796.5</ele>
    <time>2026-06-23T06:44:34Z</time>
   </trkpt>
   <trkpt lat="-3.0958160" lon="37.3773830">
    <ele>4796.3</ele>
    <time>2026-06-23T06:44:35Z</time>
   </trkpt>
   <trkpt lat="-3.0958300" lon="37.3773820">
    <ele>4796.0</ele>
    <time>2026-06-23T06:44:36Z</time>
   </trkpt>
   <trkpt lat="-3.0958400" lon="37.3773800">
    <ele>4795.8</ele>
    <time>2026-06-23T06:44:37Z</time>
   </trkpt>
   <trkpt lat="-3.0958480" lon="37.3773850">
    <ele>4795.6</ele>
    <time>2026-06-23T06:44:38Z</time>
   </trkpt>
   <trkpt lat="-3.0958520" lon="37.3773920">
    <ele>4795.4</ele>
    <time>2026-06-23T06:44:39Z</time>
   </trkpt>
   <trkpt lat="-3.0958570" lon="37.3774030">
    <ele>4795.2</ele>
    <time>2026-06-23T06:44:40Z</time>
   </trkpt>
   <trkpt lat="-3.0958610" lon="37.3774080">
    <ele>4795.0</ele>
    <time>2026-06-23T06:44:41Z</time>
   </trkpt>
   <trkpt lat="-3.0958670" lon="37.3774070">
    <ele>4794.9</ele>
    <time>2026-06-23T06:44:42Z</time>
   </trkpt>
   <trkpt lat="-3.0958740" lon="37.3774040">
    <ele>4794.8</ele>
    <time>2026-06-23T06:44:43Z</time>
   </trkpt>
   <trkpt lat="-3.0958850" lon="37.3774020">
    <ele>4794.5</ele>
    <time>2026-06-23T06:44:44Z</time>
   </trkpt>
   <trkpt lat="-3.0958880" lon="37.3774020">
    <ele>4794.4</ele>
    <time>2026-06-23T06:44:45Z</time>
   </trkpt>
   <trkpt lat="-3.0958910" lon="37.3774040">
    <ele>4794.4</ele>
    <time>2026-06-23T06:44:46Z</time>
   </trkpt>
   <trkpt lat="-3.0958930" lon="37.3774030">
    <ele>4794.3</ele>
    <time>2026-06-23T06:44:47Z</time>
   </trkpt>
   <trkpt lat="-3.0958950" lon="37.3774050">
    <ele>4794.3</ele>
    <time>2026-06-23T06:44:48Z</time>
   </trkpt>
   <trkpt lat="-3.0959000" lon="37.3774040">
    <ele>4794.1</ele>
    <time>2026-06-23T06:44:49Z</time>
   </trkpt>
   <trkpt lat="-3.0959000" lon="37.3774040">
    <ele>4794.1</ele>
    <time>2026-06-23T06:44:50Z</time>
   </trkpt>
   <trkpt lat="-3.0959030" lon="37.3774070">
    <ele>4794.0</ele>
    <time>2026-06-23T06:44:51Z</time>
   </trkpt>
   <trkpt lat="-3.0959040" lon="37.3774090">
    <ele>4794.0</ele>
    <time>2026-06-23T06:44:52Z</time>
   </trkpt>
   <trkpt lat="-3.0959050" lon="37.3774090">
    <ele>4794.0</ele>
    <time>2026-06-23T06:44:53Z</time>
   </trkpt>
   <trkpt lat="-3.0959080" lon="37.3774140">
    <ele>4793.8</ele>
    <time>2026-06-23T06:44:54Z</time>
   </trkpt>
   <trkpt lat="-3.0959140" lon="37.3774160">
    <ele>4793.7</ele>
    <time>2026-06-23T06:44:55Z</time>
   </trkpt>
   <trkpt lat="-3.0959190" lon="37.3774150">
    <ele>4793.6</ele>
    <time>2026-06-23T06:44:56Z</time>
   </trkpt>
   <trkpt lat="-3.0959210" lon="37.3774140">
    <ele>4793.5</ele>
    <time>2026-06-23T06:44:57Z</time>
   </trkpt>
   <trkpt lat="-3.0959280" lon="37.3774180">
    <ele>4793.3</ele>
    <time>2026-06-23T06:44:58Z</time>
   </trkpt>
   <trkpt lat="-3.0959290" lon="37.3774260">
    <ele>4793.2</ele>
    <time>2026-06-23T06:44:59Z</time>
   </trkpt>
   <trkpt lat="-3.0959270" lon="37.3774300">
    <ele>4793.1</ele>
    <time>2026-06-23T06:45:00Z</time>
   </trkpt>
   <trkpt lat="-3.0959280" lon="37.3774340">
    <ele>4793.0</ele>
    <time>2026-06-23T06:45:01Z</time>
   </trkpt>
   <trkpt lat="-3.0959290" lon="37.3774320">
    <ele>4792.9</ele>
    <time>2026-06-23T06:45:02Z</time>
   </trkpt>
   <trkpt lat="-3.0959330" lon="37.3774320">
    <ele>4792.8</ele>
    <time>2026-06-23T06:45:03Z</time>
   </trkpt>
   <trkpt lat="-3.0959410" lon="37.3774330">
    <ele>4792.6</ele>
    <time>2026-06-23T06:45:04Z</time>
   </trkpt>
   <trkpt lat="-3.0959520" lon="37.3774390">
    <ele>4792.3</ele>
    <time>2026-06-23T06:45:05Z</time>
   </trkpt>
   <trkpt lat="-3.0959560" lon="37.3774450">
    <ele>4792.2</ele>
    <time>2026-06-23T06:45:06Z</time>
   </trkpt>
   <trkpt lat="-3.0959600" lon="37.3774500">
    <ele>4792.0</ele>
    <time>2026-06-23T06:45:07Z</time>
   </trkpt>
   <trkpt lat="-3.0959610" lon="37.3774560">
    <ele>4791.9</ele>
    <time>2026-06-23T06:45:08Z</time>
   </trkpt>
   <trkpt lat="-3.0959750" lon="37.3774590">
    <ele>4791.5</ele>
    <time>2026-06-23T06:45:09Z</time>
   </trkpt>
   <trkpt lat="-3.0959850" lon="37.3774590">
    <ele>4791.3</ele>
    <time>2026-06-23T06:45:10Z</time>
   </trkpt>
   <trkpt lat="-3.0959920" lon="37.3774570">
    <ele>4791.1</ele>
    <time>2026-06-23T06:45:11Z</time>
   </trkpt>
   <trkpt lat="-3.0960000" lon="37.3774560">
    <ele>4790.9</ele>
    <time>2026-06-23T06:45:12Z</time>
   </trkpt>
   <trkpt lat="-3.0960050" lon="37.3774530">
    <ele>4790.8</ele>
    <time>2026-06-23T06:45:13Z</time>
   </trkpt>
   <trkpt lat="-3.0960100" lon="37.3774490">
    <ele>4790.6</ele>
    <time>2026-06-23T06:45:14Z</time>
   </trkpt>
   <trkpt lat="-3.0960150" lon="37.3774420">
    <ele>4790.4</ele>
    <time>2026-06-23T06:45:15Z</time>
   </trkpt>
   <trkpt lat="-3.0960210" lon="37.3774390">
    <ele>4790.2</ele>
    <time>2026-06-23T06:45:16Z</time>
   </trkpt>
   <trkpt lat="-3.0960240" lon="37.3774410">
    <ele>4790.1</ele>
    <time>2026-06-23T06:45:17Z</time>
   </trkpt>
   <trkpt lat="-3.0960300" lon="37.3774460">
    <ele>4789.9</ele>
    <time>2026-06-23T06:45:18Z</time>
   </trkpt>
   <trkpt lat="-3.0960340" lon="37.3774540">
    <ele>4789.7</ele>
    <time>2026-06-23T06:45:19Z</time>
   </trkpt>
   <trkpt lat="-3.0960350" lon="37.3774600">
    <ele>4789.6</ele>
    <time>2026-06-23T06:45:20Z</time>
   </trkpt>
   <trkpt lat="-3.0960350" lon="37.3774650">
    <ele>4789.4</ele>
    <time>2026-06-23T06:45:21Z</time>
   </trkpt>
   <trkpt lat="-3.0960350" lon="37.3774660">
    <ele>4789.4</ele>
    <time>2026-06-23T06:45:22Z</time>
   </trkpt>
   <trkpt lat="-3.0960420" lon="37.3774730">
    <ele>4789.1</ele>
    <time>2026-06-23T06:45:23Z</time>
   </trkpt>
   <trkpt lat="-3.0960470" lon="37.3774750">
    <ele>4789.0</ele>
    <time>2026-06-23T06:45:24Z</time>
   </trkpt>
   <trkpt lat="-3.0960520" lon="37.3774770">
    <ele>4788.9</ele>
    <time>2026-06-23T06:45:25Z</time>
   </trkpt>
   <trkpt lat="-3.0960590" lon="37.3774790">
    <ele>4788.7</ele>
    <time>2026-06-23T06:45:26Z</time>
   </trkpt>
   <trkpt lat="-3.0960580" lon="37.3774820">
    <ele>4788.6</ele>
    <time>2026-06-23T06:45:27Z</time>
   </trkpt>
   <trkpt lat="-3.0960540" lon="37.3774870">
    <ele>4788.4</ele>
    <time>2026-06-23T06:45:28Z</time>
   </trkpt>
   <trkpt lat="-3.0960530" lon="37.3774930">
    <ele>4788.3</ele>
    <time>2026-06-23T06:45:29Z</time>
   </trkpt>
   <trkpt lat="-3.0960540" lon="37.3774960">
    <ele>4788.2</ele>
    <time>2026-06-23T06:45:30Z</time>
   </trkpt>
   <trkpt lat="-3.0960580" lon="37.3774990">
    <ele>4788.1</ele>
    <time>2026-06-23T06:45:31Z</time>
   </trkpt>
   <trkpt lat="-3.0960640" lon="37.3774990">
    <ele>4787.9</ele>
    <time>2026-06-23T06:45:32Z</time>
   </trkpt>
   <trkpt lat="-3.0960690" lon="37.3774920">
    <ele>4787.7</ele>
    <time>2026-06-23T06:45:33Z</time>
   </trkpt>
   <trkpt lat="-3.0960740" lon="37.3774850">
    <ele>4787.4</ele>
    <time>2026-06-23T06:45:34Z</time>
   </trkpt>
   <trkpt lat="-3.0960780" lon="37.3774810">
    <ele>4787.3</ele>
    <time>2026-06-23T06:45:35Z</time>
   </trkpt>
   <trkpt lat="-3.0960810" lon="37.3774740">
    <ele>4787.1</ele>
    <time>2026-06-23T06:45:36Z</time>
   </trkpt>
   <trkpt lat="-3.0960800" lon="37.3774720">
    <ele>4787.0</ele>
    <time>2026-06-23T06:45:37Z</time>
   </trkpt>
   <trkpt lat="-3.0960820" lon="37.3774730">
    <ele>4786.9</ele>
    <time>2026-06-23T06:45:38Z</time>
   </trkpt>
   <trkpt lat="-3.0960850" lon="37.3774720">
    <ele>4786.9</ele>
    <time>2026-06-23T06:45:39Z</time>
   </trkpt>
   <trkpt lat="-3.0960870" lon="37.3774770">
    <ele>4786.7</ele>
    <time>2026-06-23T06:45:40Z</time>
   </trkpt>
   <trkpt lat="-3.0960890" lon="37.3774800">
    <ele>4786.6</ele>
    <time>2026-06-23T06:45:41Z</time>
   </trkpt>
   <trkpt lat="-3.0960880" lon="37.3774890">
    <ele>4786.4</ele>
    <time>2026-06-23T06:45:42Z</time>
   </trkpt>
   <trkpt lat="-3.0960910" lon="37.3774930">
    <ele>4786.2</ele>
    <time>2026-06-23T06:45:43Z</time>
   </trkpt>
   <trkpt lat="-3.0960920" lon="37.3774990">
    <ele>4786.0</ele>
    <time>2026-06-23T06:45:44Z</time>
   </trkpt>
   <trkpt lat="-3.0960950" lon="37.3775020">
    <ele>4785.9</ele>
    <time>2026-06-23T06:45:45Z</time>
   </trkpt>
   <trkpt lat="-3.0961020" lon="37.3775070">
    <ele>4785.7</ele>
    <time>2026-06-23T06:45:46Z</time>
   </trkpt>
   <trkpt lat="-3.0961080" lon="37.3775090">
    <ele>4785.5</ele>
    <time>2026-06-23T06:45:47Z</time>
   </trkpt>
   <trkpt lat="-3.0961140" lon="37.3775050">
    <ele>4785.3</ele>
    <time>2026-06-23T06:45:48Z</time>
   </trkpt>
   <trkpt lat="-3.0961180" lon="37.3775010">
    <ele>4785.2</ele>
    <time>2026-06-23T06:45:49Z</time>
   </trkpt>
   <trkpt lat="-3.0961200" lon="37.3774930">
    <ele>4784.9</ele>
    <time>2026-06-23T06:45:50Z</time>
   </trkpt>
   <trkpt lat="-3.0961250" lon="37.3774860">
    <ele>4784.7</ele>
    <time>2026-06-23T06:45:51Z</time>
   </trkpt>
   <trkpt lat="-3.0961300" lon="37.3774810">
    <ele>4784.5</ele>
    <time>2026-06-23T06:45:52Z</time>
   </trkpt>
   <trkpt lat="-3.0961360" lon="37.3774810">
    <ele>4784.3</ele>
    <time>2026-06-23T06:45:53Z</time>
   </trkpt>
   <trkpt lat="-3.0961440" lon="37.3774870">
    <ele>4784.0</ele>
    <time>2026-06-23T06:45:54Z</time>
   </trkpt>
   <trkpt lat="-3.0961460" lon="37.3774960">
    <ele>4783.7</ele>
    <time>2026-06-23T06:45:55Z</time>
   </trkpt>
   <trkpt lat="-3.0961490" lon="37.3775040">
    <ele>4783.5</ele>
    <time>2026-06-23T06:45:56Z</time>
   </trkpt>
   <trkpt lat="-3.0961500" lon="37.3775090">
    <ele>4783.3</ele>
    <time>2026-06-23T06:45:57Z</time>
   </trkpt>
   <trkpt lat="-3.0961520" lon="37.3775110">
    <ele>4783.3</ele>
    <time>2026-06-23T06:45:58Z</time>
   </trkpt>
   <trkpt lat="-3.0961560" lon="37.3775170">
    <ele>4783.1</ele>
    <time>2026-06-23T06:45:59Z</time>
   </trkpt>
   <trkpt lat="-3.0961580" lon="37.3775200">
    <ele>4783.0</ele>
    <time>2026-06-23T06:46:00Z</time>
   </trkpt>
   <trkpt lat="-3.0961570" lon="37.3775220">
    <ele>4782.9</ele>
    <time>2026-06-23T06:46:01Z</time>
   </trkpt>
   <trkpt lat="-3.0961600" lon="37.3775290">
    <ele>4782.7</ele>
    <time>2026-06-23T06:46:02Z</time>
   </trkpt>
   <trkpt lat="-3.0961660" lon="37.3775360">
    <ele>4782.4</ele>
    <time>2026-06-23T06:46:03Z</time>
   </trkpt>
   <trkpt lat="-3.0961640" lon="37.3775360">
    <ele>4782.3</ele>
    <time>2026-06-23T06:46:04Z</time>
   </trkpt>
   <trkpt lat="-3.0961650" lon="37.3775380">
    <ele>4782.3</ele>
    <time>2026-06-23T06:46:05Z</time>
   </trkpt>
   <trkpt lat="-3.0961640" lon="37.3775370">
    <ele>4782.2</ele>
    <time>2026-06-23T06:46:06Z</time>
   </trkpt>
   <trkpt lat="-3.0961650" lon="37.3775370">
    <ele>4782.2</ele>
    <time>2026-06-23T06:46:07Z</time>
   </trkpt>
   <trkpt lat="-3.0961650" lon="37.3775380">
    <ele>4782.2</ele>
    <time>2026-06-23T06:46:08Z</time>
   </trkpt>
   <trkpt lat="-3.0961650" lon="37.3775380">
    <ele>4782.2</ele>
    <time>2026-06-23T06:46:09Z</time>
   </trkpt>
   <trkpt lat="-3.0961650" lon="37.3775380">
    <ele>4782.2</ele>
    <time>2026-06-23T06:46:10Z</time>
   </trkpt>
   <trkpt lat="-3.0961650" lon="37.3775380">
    <ele>4782.2</ele>
    <time>2026-06-23T06:46:11Z</time>
   </trkpt>
   <trkpt lat="-3.0961640" lon="37.3775400">
    <ele>4782.1</ele>
    <time>2026-06-23T06:46:12Z</time>
   </trkpt>
   <trkpt lat="-3.0961630" lon="37.3775400">
    <ele>4782.1</ele>
    <time>2026-06-23T06:46:13Z</time>
   </trkpt>
   <trkpt lat="-3.0961630" lon="37.3775440">
    <ele>4782.0</ele>
    <time>2026-06-23T06:46:14Z</time>
   </trkpt>
   <trkpt lat="-3.0961600" lon="37.3775470">
    <ele>4781.8</ele>
    <time>2026-06-23T06:46:15Z</time>
   </trkpt>
   <trkpt lat="-3.0961590" lon="37.3775470">
    <ele>4781.8</ele>
    <time>2026-06-23T06:46:16Z</time>
   </trkpt>
   <trkpt lat="-3.0961590" lon="37.3775520">
    <ele>4781.7</ele>
    <time>2026-06-23T06:46:17Z</time>
   </trkpt>
   <trkpt lat="-3.0961610" lon="37.3775560">
    <ele>4781.5</ele>
    <time>2026-06-23T06:46:18Z</time>
   </trkpt>
   <trkpt lat="-3.0961600" lon="37.3775610">
    <ele>4781.4</ele>
    <time>2026-06-23T06:46:19Z</time>
   </trkpt>
   <trkpt lat="-3.0961580" lon="37.3775620">
    <ele>4781.3</ele>
    <time>2026-06-23T06:46:20Z</time>
   </trkpt>
   <trkpt lat="-3.0961620" lon="37.3775660">
    <ele>4781.1</ele>
    <time>2026-06-23T06:46:21Z</time>
   </trkpt>
   <trkpt lat="-3.0961700" lon="37.3775680">
    <ele>4780.9</ele>
    <time>2026-06-23T06:46:22Z</time>
   </trkpt>
   <trkpt lat="-3.0961780" lon="37.3775660">
    <ele>4780.6</ele>
    <time>2026-06-23T06:46:23Z</time>
   </trkpt>
   <trkpt lat="-3.0961860" lon="37.3775720">
    <ele>4780.3</ele>
    <time>2026-06-23T06:46:24Z</time>
   </trkpt>
   <trkpt lat="-3.0961920" lon="37.3775690">
    <ele>4780.1</ele>
    <time>2026-06-23T06:46:25Z</time>
   </trkpt>
   <trkpt lat="-3.0961970" lon="37.3775730">
    <ele>4779.9</ele>
    <time>2026-06-23T06:46:26Z</time>
   </trkpt>
   <trkpt lat="-3.0962020" lon="37.3775710">
    <ele>4779.8</ele>
    <time>2026-06-23T06:46:27Z</time>
   </trkpt>
   <trkpt lat="-3.0962090" lon="37.3775730">
    <ele>4779.5</ele>
    <time>2026-06-23T06:46:28Z</time>
   </trkpt>
   <trkpt lat="-3.0962130" lon="37.3775710">
    <ele>4779.4</ele>
    <time>2026-06-23T06:46:29Z</time>
   </trkpt>
   <trkpt lat="-3.0962190" lon="37.3775690">
    <ele>4779.2</ele>
    <time>2026-06-23T06:46:30Z</time>
   </trkpt>
   <trkpt lat="-3.0962200" lon="37.3775650">
    <ele>4779.1</ele>
    <time>2026-06-23T06:46:31Z</time>
   </trkpt>
   <trkpt lat="-3.0962210" lon="37.3775610">
    <ele>4779.0</ele>
    <time>2026-06-23T06:46:32Z</time>
   </trkpt>
   <trkpt lat="-3.0962260" lon="37.3775580">
    <ele>4778.8</ele>
    <time>2026-06-23T06:46:33Z</time>
   </trkpt>
   <trkpt lat="-3.0962350" lon="37.3775570">
    <ele>4778.5</ele>
    <time>2026-06-23T06:46:34Z</time>
   </trkpt>
   <trkpt lat="-3.0962410" lon="37.3775610">
    <ele>4778.3</ele>
    <time>2026-06-23T06:46:35Z</time>
   </trkpt>
   <trkpt lat="-3.0962450" lon="37.3775670">
    <ele>4778.0</ele>
    <time>2026-06-23T06:46:36Z</time>
   </trkpt>
   <trkpt lat="-3.0962470" lon="37.3775710">
    <ele>4777.9</ele>
    <time>2026-06-23T06:46:37Z</time>
   </trkpt>
   <trkpt lat="-3.0962450" lon="37.3775770">
    <ele>4777.7</ele>
    <time>2026-06-23T06:46:38Z</time>
   </trkpt>
   <trkpt lat="-3.0962490" lon="37.3775870">
    <ele>4777.4</ele>
    <time>2026-06-23T06:46:39Z</time>
   </trkpt>
   <trkpt lat="-3.0962490" lon="37.3775930">
    <ele>4777.2</ele>
    <time>2026-06-23T06:46:40Z</time>
   </trkpt>
   <trkpt lat="-3.0962500" lon="37.3775980">
    <ele>4777.0</ele>
    <time>2026-06-23T06:46:41Z</time>
   </trkpt>
   <trkpt lat="-3.0962520" lon="37.3776010">
    <ele>4776.9</ele>
    <time>2026-06-23T06:46:42Z</time>
   </trkpt>
   <trkpt lat="-3.0962550" lon="37.3776010">
    <ele>4776.8</ele>
    <time>2026-06-23T06:46:43Z</time>
   </trkpt>
   <trkpt lat="-3.0962670" lon="37.3776030">
    <ele>4776.4</ele>
    <time>2026-06-23T06:46:44Z</time>
   </trkpt>
   <trkpt lat="-3.0962750" lon="37.3776010">
    <ele>4776.2</ele>
    <time>2026-06-23T06:46:45Z</time>
   </trkpt>
   <trkpt lat="-3.0962800" lon="37.3775950">
    <ele>4775.9</ele>
    <time>2026-06-23T06:46:46Z</time>
   </trkpt>
   <trkpt lat="-3.0962820" lon="37.3775920">
    <ele>4775.8</ele>
    <time>2026-06-23T06:46:47Z</time>
   </trkpt>
   <trkpt lat="-3.0962870" lon="37.3775860">
    <ele>4775.6</ele>
    <time>2026-06-23T06:46:48Z</time>
   </trkpt>
   <trkpt lat="-3.0962870" lon="37.3775860">
    <ele>4775.6</ele>
    <time>2026-06-23T06:46:49Z</time>
   </trkpt>
   <trkpt lat="-3.0962920" lon="37.3775840">
    <ele>4775.4</ele>
    <time>2026-06-23T06:46:50Z</time>
   </trkpt>
   <trkpt lat="-3.0962930" lon="37.3775800">
    <ele>4775.3</ele>
    <time>2026-06-23T06:46:51Z</time>
   </trkpt>
   <trkpt lat="-3.0962990" lon="37.3775750">
    <ele>4775.0</ele>
    <time>2026-06-23T06:46:52Z</time>
   </trkpt>
   <trkpt lat="-3.0963020" lon="37.3775750">
    <ele>4774.9</ele>
    <time>2026-06-23T06:46:53Z</time>
   </trkpt>
   <trkpt lat="-3.0963070" lon="37.3775750">
    <ele>4774.8</ele>
    <time>2026-06-23T06:46:54Z</time>
   </trkpt>
   <trkpt lat="-3.0963110" lon="37.3775740">
    <ele>4774.6</ele>
    <time>2026-06-23T06:46:55Z</time>
   </trkpt>
   <trkpt lat="-3.0963160" lon="37.3775730">
    <ele>4774.5</ele>
    <time>2026-06-23T06:46:57Z</time>
   </trkpt>
   <trkpt lat="-3.0963190" lon="37.3775710">
    <ele>4774.3</ele>
    <time>2026-06-23T06:46:58Z</time>
   </trkpt>
   <trkpt lat="-3.0963210" lon="37.3775670">
    <ele>4774.2</ele>
    <time>2026-06-23T06:46:59Z</time>
   </trkpt>
   <trkpt lat="-3.0963190" lon="37.3775620">
    <ele>4774.0</ele>
    <time>2026-06-23T06:47:00Z</time>
   </trkpt>
   <trkpt lat="-3.0963210" lon="37.3775560">
    <ele>4773.8</ele>
    <time>2026-06-23T06:47:01Z</time>
   </trkpt>
   <trkpt lat="-3.0963230" lon="37.3775610">
    <ele>4773.7</ele>
    <time>2026-06-23T06:47:02Z</time>
   </trkpt>
   <trkpt lat="-3.0963340" lon="37.3775640">
    <ele>4773.3</ele>
    <time>2026-06-23T06:47:03Z</time>
   </trkpt>
   <trkpt lat="-3.0963420" lon="37.3775650">
    <ele>4773.0</ele>
    <time>2026-06-23T06:47:04Z</time>
   </trkpt>
   <trkpt lat="-3.0963440" lon="37.3775610">
    <ele>4772.9</ele>
    <time>2026-06-23T06:47:05Z</time>
   </trkpt>
   <trkpt lat="-3.0963570" lon="37.3775540">
    <ele>4772.4</ele>
    <time>2026-06-23T06:47:06Z</time>
   </trkpt>
   <trkpt lat="-3.0963590" lon="37.3775470">
    <ele>4772.1</ele>
    <time>2026-06-23T06:47:07Z</time>
   </trkpt>
   <trkpt lat="-3.0963640" lon="37.3775460">
    <ele>4772.0</ele>
    <time>2026-06-23T06:47:08Z</time>
   </trkpt>
   <trkpt lat="-3.0963680" lon="37.3775470">
    <ele>4771.8</ele>
    <time>2026-06-23T06:47:09Z</time>
   </trkpt>
   <trkpt lat="-3.0963770" lon="37.3775400">
    <ele>4771.5</ele>
    <time>2026-06-23T06:47:10Z</time>
   </trkpt>
   <trkpt lat="-3.0963860" lon="37.3775370">
    <ele>4771.2</ele>
    <time>2026-06-23T06:47:11Z</time>
   </trkpt>
   <trkpt lat="-3.0963900" lon="37.3775430">
    <ele>4770.9</ele>
    <time>2026-06-23T06:47:12Z</time>
   </trkpt>
   <trkpt lat="-3.0963940" lon="37.3775490">
    <ele>4770.7</ele>
    <time>2026-06-23T06:47:13Z</time>
   </trkpt>
   <trkpt lat="-3.0963960" lon="37.3775610">
    <ele>4770.3</ele>
    <time>2026-06-23T06:47:14Z</time>
   </trkpt>
   <trkpt lat="-3.0963950" lon="37.3775680">
    <ele>4770.0</ele>
    <time>2026-06-23T06:47:15Z</time>
   </trkpt>
   <trkpt lat="-3.0963940" lon="37.3775750">
    <ele>4769.8</ele>
    <time>2026-06-23T06:47:16Z</time>
   </trkpt>
   <trkpt lat="-3.0963960" lon="37.3775780">
    <ele>4769.7</ele>
    <time>2026-06-23T06:47:17Z</time>
   </trkpt>
   <trkpt lat="-3.0963970" lon="37.3775810">
    <ele>4769.6</ele>
    <time>2026-06-23T06:47:18Z</time>
   </trkpt>
   <trkpt lat="-3.0963950" lon="37.3775880">
    <ele>4769.4</ele>
    <time>2026-06-23T06:47:19Z</time>
   </trkpt>
   <trkpt lat="-3.0963940" lon="37.3775880">
    <ele>4769.3</ele>
    <time>2026-06-23T06:47:20Z</time>
   </trkpt>
   <trkpt lat="-3.0963880" lon="37.3775800">
    <ele>4769.0</ele>
    <time>2026-06-23T06:47:21Z</time>
   </trkpt>
   <trkpt lat="-3.0964130" lon="37.3776050">
    <ele>4767.8</ele>
    <time>2026-06-23T06:47:22Z</time>
   </trkpt>
   <trkpt lat="-3.0964130" lon="37.3775960">
    <ele>4767.5</ele>
    <time>2026-06-23T06:47:23Z</time>
   </trkpt>
   <trkpt lat="-3.0964140" lon="37.3776000">
    <ele>4767.4</ele>
    <time>2026-06-23T06:47:24Z</time>
   </trkpt>
   <trkpt lat="-3.0964140" lon="37.3776030">
    <ele>4767.3</ele>
    <time>2026-06-23T06:47:25Z</time>
   </trkpt>
   <trkpt lat="-3.0964170" lon="37.3776110">
    <ele>4767.0</ele>
    <time>2026-06-23T06:47:26Z</time>
   </trkpt>
   <trkpt lat="-3.0964100" lon="37.3776080">
    <ele>4766.8</ele>
    <time>2026-06-23T06:47:27Z</time>
   </trkpt>
   <trkpt lat="-3.0964140" lon="37.3776210">
    <ele>4766.3</ele>
    <time>2026-06-23T06:47:28Z</time>
   </trkpt>
   <trkpt lat="-3.0964150" lon="37.3776270">
    <ele>4766.1</ele>
    <time>2026-06-23T06:47:29Z</time>
   </trkpt>
   <trkpt lat="-3.0964180" lon="37.3776310">
    <ele>4766.0</ele>
    <time>2026-06-23T06:47:30Z</time>
   </trkpt>
   <trkpt lat="-3.0964220" lon="37.3776370">
    <ele>4765.7</ele>
    <time>2026-06-23T06:47:31Z</time>
   </trkpt>
   <trkpt lat="-3.0964210" lon="37.3776360">
    <ele>4765.7</ele>
    <time>2026-06-23T06:47:32Z</time>
   </trkpt>
   <trkpt lat="-3.0964230" lon="37.3776390">
    <ele>4765.6</ele>
    <time>2026-06-23T06:47:33Z</time>
   </trkpt>
   <trkpt lat="-3.0964270" lon="37.3776410">
    <ele>4765.4</ele>
    <time>2026-06-23T06:47:34Z</time>
   </trkpt>
   <trkpt lat="-3.0964290" lon="37.3776390">
    <ele>4765.3</ele>
    <time>2026-06-23T06:47:35Z</time>
   </trkpt>
   <trkpt lat="-3.0964340" lon="37.3776460">
    <ele>4765.1</ele>
    <time>2026-06-23T06:47:36Z</time>
   </trkpt>
   <trkpt lat="-3.0964390" lon="37.3776480">
    <ele>4764.9</ele>
    <time>2026-06-23T06:47:37Z</time>
   </trkpt>
   <trkpt lat="-3.0964420" lon="37.3776500">
    <ele>4764.8</ele>
    <time>2026-06-23T06:47:38Z</time>
   </trkpt>
   <trkpt lat="-3.0964460" lon="37.3776530">
    <ele>4764.6</ele>
    <time>2026-06-23T06:47:39Z</time>
   </trkpt>
   <trkpt lat="-3.0964530" lon="37.3776560">
    <ele>4764.4</ele>
    <time>2026-06-23T06:47:40Z</time>
   </trkpt>
   <trkpt lat="-3.0964660" lon="37.3776560">
    <ele>4763.9</ele>
    <time>2026-06-23T06:47:41Z</time>
   </trkpt>
   <trkpt lat="-3.0964780" lon="37.3776560">
    <ele>4763.5</ele>
    <time>2026-06-23T06:47:42Z</time>
   </trkpt>
   <trkpt lat="-3.0964820" lon="37.3776640">
    <ele>4763.3</ele>
    <time>2026-06-23T06:47:43Z</time>
   </trkpt>
   <trkpt lat="-3.0964860" lon="37.3776720">
    <ele>4763.0</ele>
    <time>2026-06-23T06:47:44Z</time>
   </trkpt>
   <trkpt lat="-3.0964880" lon="37.3776780">
    <ele>4762.8</ele>
    <time>2026-06-23T06:47:45Z</time>
   </trkpt>
   <trkpt lat="-3.0964930" lon="37.3776840">
    <ele>4762.5</ele>
    <time>2026-06-23T06:47:46Z</time>
   </trkpt>
   <trkpt lat="-3.0964970" lon="37.3776890">
    <ele>4762.3</ele>
    <time>2026-06-23T06:47:47Z</time>
   </trkpt>
   <trkpt lat="-3.0965020" lon="37.3776980">
    <ele>4762.0</ele>
    <time>2026-06-23T06:47:48Z</time>
   </trkpt>
   <trkpt lat="-3.0965040" lon="37.3777040">
    <ele>4761.8</ele>
    <time>2026-06-23T06:47:49Z</time>
   </trkpt>
   <trkpt lat="-3.0965060" lon="37.3777130">
    <ele>4761.5</ele>
    <time>2026-06-23T06:47:50Z</time>
   </trkpt>
   <trkpt lat="-3.0965060" lon="37.3777200">
    <ele>4761.2</ele>
    <time>2026-06-23T06:47:51Z</time>
   </trkpt>
   <trkpt lat="-3.0965040" lon="37.3777240">
    <ele>4761.1</ele>
    <time>2026-06-23T06:47:52Z</time>
   </trkpt>
   <trkpt lat="-3.0965010" lon="37.3777310">
    <ele>4760.8</ele>
    <time>2026-06-23T06:47:53Z</time>
   </trkpt>
   <trkpt lat="-3.0965040" lon="37.3777310">
    <ele>4760.7</ele>
    <time>2026-06-23T06:47:54Z</time>
   </trkpt>
   <trkpt lat="-3.0965080" lon="37.3777320">
    <ele>4760.6</ele>
    <time>2026-06-23T06:47:55Z</time>
   </trkpt>
   <trkpt lat="-3.0965160" lon="37.3777430">
    <ele>4760.2</ele>
    <time>2026-06-23T06:47:56Z</time>
   </trkpt>
   <trkpt lat="-3.0965220" lon="37.3777470">
    <ele>4759.9</ele>
    <time>2026-06-23T06:47:57Z</time>
   </trkpt>
   <trkpt lat="-3.0965270" lon="37.3777490">
    <ele>4759.8</ele>
    <time>2026-06-23T06:47:58Z</time>
   </trkpt>
   <trkpt lat="-3.0965310" lon="37.3777490">
    <ele>4759.6</ele>
    <time>2026-06-23T06:47:59Z</time>
   </trkpt>
   <trkpt lat="-3.0965320" lon="37.3777460">
    <ele>4759.5</ele>
    <time>2026-06-23T06:48:00Z</time>
   </trkpt>
   <trkpt lat="-3.0965360" lon="37.3777450">
    <ele>4759.4</ele>
    <time>2026-06-23T06:48:01Z</time>
   </trkpt>
   <trkpt lat="-3.0965420" lon="37.3777370">
    <ele>4759.0</ele>
    <time>2026-06-23T06:48:02Z</time>
   </trkpt>
   <trkpt lat="-3.0965470" lon="37.3777300">
    <ele>4758.7</ele>
    <time>2026-06-23T06:48:03Z</time>
   </trkpt>
   <trkpt lat="-3.0965470" lon="37.3777310">
    <ele>4758.7</ele>
    <time>2026-06-23T06:48:04Z</time>
   </trkpt>
   <trkpt lat="-3.0965470" lon="37.3777310">
    <ele>4758.7</ele>
    <time>2026-06-23T06:48:05Z</time>
   </trkpt>
   <trkpt lat="-3.0965490" lon="37.3777260">
    <ele>4758.5</ele>
    <time>2026-06-23T06:48:06Z</time>
   </trkpt>
   <trkpt lat="-3.0965490" lon="37.3777260">
    <ele>4758.5</ele>
    <time>2026-06-23T06:48:07Z</time>
   </trkpt>
   <trkpt lat="-3.0965540" lon="37.3777220">
    <ele>4758.3</ele>
    <time>2026-06-23T06:48:08Z</time>
   </trkpt>
   <trkpt lat="-3.0965570" lon="37.3777230">
    <ele>4758.2</ele>
    <time>2026-06-23T06:48:09Z</time>
   </trkpt>
   <trkpt lat="-3.0965610" lon="37.3777190">
    <ele>4758.0</ele>
    <time>2026-06-23T06:48:10Z</time>
   </trkpt>
   <trkpt lat="-3.0965660" lon="37.3777160">
    <ele>4757.8</ele>
    <time>2026-06-23T06:48:11Z</time>
   </trkpt>
   <trkpt lat="-3.0965720" lon="37.3777140">
    <ele>4757.6</ele>
    <time>2026-06-23T06:48:12Z</time>
   </trkpt>
   <trkpt lat="-3.0965760" lon="37.3777170">
    <ele>4757.4</ele>
    <time>2026-06-23T06:48:13Z</time>
   </trkpt>
   <trkpt lat="-3.0965800" lon="37.3777190">
    <ele>4757.3</ele>
    <time>2026-06-23T06:48:14Z</time>
   </trkpt>
   <trkpt lat="-3.0965850" lon="37.3777200">
    <ele>4757.1</ele>
    <time>2026-06-23T06:48:15Z</time>
   </trkpt>
   <trkpt lat="-3.0965870" lon="37.3777200">
    <ele>4757.1</ele>
    <time>2026-06-23T06:48:16Z</time>
   </trkpt>
   <trkpt lat="-3.0965930" lon="37.3777300">
    <ele>4756.7</ele>
    <time>2026-06-23T06:48:17Z</time>
   </trkpt>
   <trkpt lat="-3.0965930" lon="37.3777290">
    <ele>4756.6</ele>
    <time>2026-06-23T06:48:18Z</time>
   </trkpt>
   <trkpt lat="-3.0965950" lon="37.3777300">
    <ele>4756.6</ele>
    <time>2026-06-23T06:48:19Z</time>
   </trkpt>
   <trkpt lat="-3.0965990" lon="37.3777310">
    <ele>4756.4</ele>
    <time>2026-06-23T06:48:20Z</time>
   </trkpt>
   <trkpt lat="-3.0966030" lon="37.3777280">
    <ele>4756.2</ele>
    <time>2026-06-23T06:48:21Z</time>
   </trkpt>
   <trkpt lat="-3.0966040" lon="37.3777250">
    <ele>4756.1</ele>
    <time>2026-06-23T06:48:22Z</time>
   </trkpt>
   <trkpt lat="-3.0966110" lon="37.3777240">
    <ele>4755.8</ele>
    <time>2026-06-23T06:48:23Z</time>
   </trkpt>
   <trkpt lat="-3.0966120" lon="37.3777220">
    <ele>4755.7</ele>
    <time>2026-06-23T06:48:24Z</time>
   </trkpt>
   <trkpt lat="-3.0966140" lon="37.3777190">
    <ele>4755.6</ele>
    <time>2026-06-23T06:48:25Z</time>
   </trkpt>
   <trkpt lat="-3.0966170" lon="37.3777220">
    <ele>4755.4</ele>
    <time>2026-06-23T06:48:26Z</time>
   </trkpt>
   <trkpt lat="-3.0966190" lon="37.3777170">
    <ele>4755.2</ele>
    <time>2026-06-23T06:48:27Z</time>
   </trkpt>
   <trkpt lat="-3.0966220" lon="37.3777210">
    <ele>4755.1</ele>
    <time>2026-06-23T06:48:28Z</time>
   </trkpt>
   <trkpt lat="-3.0966260" lon="37.3777190">
    <ele>4754.9</ele>
    <time>2026-06-23T06:48:29Z</time>
   </trkpt>
   <trkpt lat="-3.0966270" lon="37.3777170">
    <ele>4754.8</ele>
    <time>2026-06-23T06:48:30Z</time>
   </trkpt>
   <trkpt lat="-3.0966310" lon="37.3777170">
    <ele>4754.7</ele>
    <time>2026-06-23T06:48:31Z</time>
   </trkpt>
   <trkpt lat="-3.0966340" lon="37.3777160">
    <ele>4754.5</ele>
    <time>2026-06-23T06:48:32Z</time>
   </trkpt>
   <trkpt lat="-3.0966330" lon="37.3777160">
    <ele>4754.5</ele>
    <time>2026-06-23T06:48:33Z</time>
   </trkpt>
   <trkpt lat="-3.0966320" lon="37.3777130">
    <ele>4754.4</ele>
    <time>2026-06-23T06:48:34Z</time>
   </trkpt>
   <trkpt lat="-3.0966400" lon="37.3777130">
    <ele>4754.1</ele>
    <time>2026-06-23T06:48:35Z</time>
   </trkpt>
   <trkpt lat="-3.0966390" lon="37.3777090">
    <ele>4753.9</ele>
    <time>2026-06-23T06:48:36Z</time>
   </trkpt>
   <trkpt lat="-3.0966420" lon="37.3777060">
    <ele>4753.8</ele>
    <time>2026-06-23T06:48:37Z</time>
   </trkpt>
   <trkpt lat="-3.0966460" lon="37.3777060">
    <ele>4753.6</ele>
    <time>2026-06-23T06:48:38Z</time>
   </trkpt>
   <trkpt lat="-3.0966480" lon="37.3777080">
    <ele>4753.5</ele>
    <time>2026-06-23T06:48:39Z</time>
   </trkpt>
   <trkpt lat="-3.0966490" lon="37.3777110">
    <ele>4753.4</ele>
    <time>2026-06-23T06:48:40Z</time>
   </trkpt>
   <trkpt lat="-3.0966550" lon="37.3777100">
    <ele>4753.2</ele>
    <time>2026-06-23T06:48:41Z</time>
   </trkpt>
   <trkpt lat="-3.0966560" lon="37.3777120">
    <ele>4753.1</ele>
    <time>2026-06-23T06:48:42Z</time>
   </trkpt>
   <trkpt lat="-3.0966580" lon="37.3777090">
    <ele>4752.9</ele>
    <time>2026-06-23T06:48:43Z</time>
   </trkpt>
   <trkpt lat="-3.0966570" lon="37.3777150">
    <ele>4752.7</ele>
    <time>2026-06-23T06:48:44Z</time>
   </trkpt>
   <trkpt lat="-3.0966570" lon="37.3777150">
    <ele>4752.7</ele>
    <time>2026-06-23T06:48:45Z</time>
   </trkpt>
   <trkpt lat="-3.0966570" lon="37.3777140">
    <ele>4752.7</ele>
    <time>2026-06-23T06:48:46Z</time>
   </trkpt>
   <trkpt lat="-3.0966600" lon="37.3777150">
    <ele>4752.6</ele>
    <time>2026-06-23T06:48:47Z</time>
   </trkpt>
   <trkpt lat="-3.0966610" lon="37.3777190">
    <ele>4752.4</ele>
    <time>2026-06-23T06:48:48Z</time>
   </trkpt>
   <trkpt lat="-3.0966640" lon="37.3777180">
    <ele>4752.3</ele>
    <time>2026-06-23T06:48:49Z</time>
   </trkpt>
   <trkpt lat="-3.0966650" lon="37.3777200">
    <ele>4752.2</ele>
    <time>2026-06-23T06:48:50Z</time>
   </trkpt>
   <trkpt lat="-3.0966660" lon="37.3777220">
    <ele>4752.1</ele>
    <time>2026-06-23T06:48:51Z</time>
   </trkpt>
   <trkpt lat="-3.0966620" lon="37.3777240">
    <ele>4751.9</ele>
    <time>2026-06-23T06:48:52Z</time>
   </trkpt>
   <trkpt lat="-3.0966650" lon="37.3777240">
    <ele>4751.8</ele>
    <time>2026-06-23T06:48:53Z</time>
   </trkpt>
   <trkpt lat="-3.0966700" lon="37.3777220">
    <ele>4751.6</ele>
    <time>2026-06-23T06:48:54Z</time>
   </trkpt>
   <trkpt lat="-3.0966730" lon="37.3777180">
    <ele>4751.4</ele>
    <time>2026-06-23T06:48:55Z</time>
   </trkpt>
   <trkpt lat="-3.0966810" lon="37.3777220">
    <ele>4751.1</ele>
    <time>2026-06-23T06:48:56Z</time>
   </trkpt>
   <trkpt lat="-3.0966830" lon="37.3777270">
    <ele>4750.9</ele>
    <time>2026-06-23T06:48:57Z</time>
   </trkpt>
   <trkpt lat="-3.0966860" lon="37.3777300">
    <ele>4750.7</ele>
    <time>2026-06-23T06:48:58Z</time>
   </trkpt>
   <trkpt lat="-3.0966890" lon="37.3777310">
    <ele>4750.6</ele>
    <time>2026-06-23T06:48:59Z</time>
   </trkpt>
   <trkpt lat="-3.0966940" lon="37.3777270">
    <ele>4750.4</ele>
    <time>2026-06-23T06:49:00Z</time>
   </trkpt>
   <trkpt lat="-3.0967020" lon="37.3777270">
    <ele>4750.1</ele>
    <time>2026-06-23T06:49:01Z</time>
   </trkpt>
   <trkpt lat="-3.0967030" lon="37.3777290">
    <ele>4750.0</ele>
    <time>2026-06-23T06:49:03Z</time>
   </trkpt>
   <trkpt lat="-3.0967080" lon="37.3777370">
    <ele>4749.6</ele>
    <time>2026-06-23T06:49:04Z</time>
   </trkpt>
   <trkpt lat="-3.0967090" lon="37.3777380">
    <ele>4749.6</ele>
    <time>2026-06-23T06:49:05Z</time>
   </trkpt>
   <trkpt lat="-3.0967100" lon="37.3777380">
    <ele>4749.6</ele>
    <time>2026-06-23T06:49:06Z</time>
   </trkpt>
   <trkpt lat="-3.0967120" lon="37.3777400">
    <ele>4749.4</ele>
    <time>2026-06-23T06:49:07Z</time>
   </trkpt>
   <trkpt lat="-3.0967140" lon="37.3777420">
    <ele>4749.3</ele>
    <time>2026-06-23T06:49:08Z</time>
   </trkpt>
   <trkpt lat="-3.0967150" lon="37.3777430">
    <ele>4749.3</ele>
    <time>2026-06-23T06:49:09Z</time>
   </trkpt>
   <trkpt lat="-3.0967200" lon="37.3777450">
    <ele>4749.1</ele>
    <time>2026-06-23T06:49:10Z</time>
   </trkpt>
   <trkpt lat="-3.0967250" lon="37.3777440">
    <ele>4748.9</ele>
    <time>2026-06-23T06:49:11Z</time>
   </trkpt>
   <trkpt lat="-3.0967270" lon="37.3777430">
    <ele>4748.8</ele>
    <time>2026-06-23T06:49:12Z</time>
   </trkpt>
   <trkpt lat="-3.0967290" lon="37.3777470">
    <ele>4748.6</ele>
    <time>2026-06-23T06:49:13Z</time>
   </trkpt>
   <trkpt lat="-3.0967310" lon="37.3777520">
    <ele>4748.5</ele>
    <time>2026-06-23T06:49:14Z</time>
   </trkpt>
   <trkpt lat="-3.0967360" lon="37.3777580">
    <ele>4748.2</ele>
    <time>2026-06-23T06:49:15Z</time>
   </trkpt>
   <trkpt lat="-3.0967380" lon="37.3777620">
    <ele>4748.0</ele>
    <time>2026-06-23T06:49:16Z</time>
   </trkpt>
   <trkpt lat="-3.0967410" lon="37.3777660">
    <ele>4747.9</ele>
    <time>2026-06-23T06:49:17Z</time>
   </trkpt>
   <trkpt lat="-3.0967440" lon="37.3777700">
    <ele>4747.7</ele>
    <time>2026-06-23T06:49:18Z</time>
   </trkpt>
   <trkpt lat="-3.0967460" lon="37.3777690">
    <ele>4747.6</ele>
    <time>2026-06-23T06:49:19Z</time>
   </trkpt>
   <trkpt lat="-3.0967490" lon="37.3777730">
    <ele>4747.4</ele>
    <time>2026-06-23T06:49:20Z</time>
   </trkpt>
   <trkpt lat="-3.0967480" lon="37.3777760">
    <ele>4747.3</ele>
    <time>2026-06-23T06:49:21Z</time>
   </trkpt>
   <trkpt lat="-3.0967500" lon="37.3777780">
    <ele>4747.2</ele>
    <time>2026-06-23T06:49:22Z</time>
   </trkpt>
   <trkpt lat="-3.0967560" lon="37.3777820">
    <ele>4747.0</ele>
    <time>2026-06-23T06:49:23Z</time>
   </trkpt>
   <trkpt lat="-3.0967640" lon="37.3777910">
    <ele>4746.6</ele>
    <time>2026-06-23T06:49:24Z</time>
   </trkpt>
   <trkpt lat="-3.0967700" lon="37.3777970">
    <ele>4746.3</ele>
    <time>2026-06-23T06:49:25Z</time>
   </trkpt>
   <trkpt lat="-3.0967720" lon="37.3778050">
    <ele>4746.1</ele>
    <time>2026-06-23T06:49:26Z</time>
   </trkpt>
   <trkpt lat="-3.0967710" lon="37.3778120">
    <ele>4745.8</ele>
    <time>2026-06-23T06:49:27Z</time>
   </trkpt>
   <trkpt lat="-3.0967720" lon="37.3778230">
    <ele>4745.5</ele>
    <time>2026-06-23T06:49:28Z</time>
   </trkpt>
   <trkpt lat="-3.0967690" lon="37.3778310">
    <ele>4745.2</ele>
    <time>2026-06-23T06:49:29Z</time>
   </trkpt>
   <trkpt lat="-3.0967660" lon="37.3778380">
    <ele>4745.0</ele>
    <time>2026-06-23T06:49:30Z</time>
   </trkpt>
   <trkpt lat="-3.0967620" lon="37.3778450">
    <ele>4744.8</ele>
    <time>2026-06-23T06:49:31Z</time>
   </trkpt>
   <trkpt lat="-3.0967600" lon="37.3778530">
    <ele>4744.5</ele>
    <time>2026-06-23T06:49:32Z</time>
   </trkpt>
   <trkpt lat="-3.0967670" lon="37.3778620">
    <ele>4744.2</ele>
    <time>2026-06-23T06:49:33Z</time>
   </trkpt>
   <trkpt lat="-3.0967700" lon="37.3778670">
    <ele>4744.0</ele>
    <time>2026-06-23T06:49:34Z</time>
   </trkpt>
   <trkpt lat="-3.0967730" lon="37.3778730">
    <ele>4743.8</ele>
    <time>2026-06-23T06:49:35Z</time>
   </trkpt>
   <trkpt lat="-3.0967760" lon="37.3778740">
    <ele>4743.7</ele>
    <time>2026-06-23T06:49:36Z</time>
   </trkpt>
   <trkpt lat="-3.0967840" lon="37.3778720">
    <ele>4743.5</ele>
    <time>2026-06-23T06:49:37Z</time>
   </trkpt>
   <trkpt lat="-3.0967910" lon="37.3778690">
    <ele>4743.3</ele>
    <time>2026-06-23T06:49:38Z</time>
   </trkpt>
   <trkpt lat="-3.0967940" lon="37.3778680">
    <ele>4743.2</ele>
    <time>2026-06-23T06:49:39Z</time>
   </trkpt>
   <trkpt lat="-3.0967940" lon="37.3778660">
    <ele>4743.1</ele>
    <time>2026-06-23T06:49:40Z</time>
   </trkpt>
   <trkpt lat="-3.0967970" lon="37.3778610">
    <ele>4743.0</ele>
    <time>2026-06-23T06:49:41Z</time>
   </trkpt>
   <trkpt lat="-3.0968020" lon="37.3778610">
    <ele>4742.8</ele>
    <time>2026-06-23T06:49:42Z</time>
   </trkpt>
   <trkpt lat="-3.0968030" lon="37.3778600">
    <ele>4742.8</ele>
    <time>2026-06-23T06:49:43Z</time>
   </trkpt>
   <trkpt lat="-3.0968070" lon="37.3778580">
    <ele>4742.7</ele>
    <time>2026-06-23T06:49:44Z</time>
   </trkpt>
   <trkpt lat="-3.0968130" lon="37.3778550">
    <ele>4742.5</ele>
    <time>2026-06-23T06:49:45Z</time>
   </trkpt>
   <trkpt lat="-3.0968180" lon="37.3778520">
    <ele>4742.3</ele>
    <time>2026-06-23T06:49:46Z</time>
   </trkpt>
   <trkpt lat="-3.0968230" lon="37.3778490">
    <ele>4742.2</ele>
    <time>2026-06-23T06:49:47Z</time>
   </trkpt>
   <trkpt lat="-3.0968270" lon="37.3778510">
    <ele>4742.0</ele>
    <time>2026-06-23T06:49:48Z</time>
   </trkpt>
   <trkpt lat="-3.0968350" lon="37.3778540">
    <ele>4741.8</ele>
    <time>2026-06-23T06:49:49Z</time>
   </trkpt>
   <trkpt lat="-3.0968360" lon="37.3778580">
    <ele>4741.7</ele>
    <time>2026-06-23T06:49:50Z</time>
   </trkpt>
   <trkpt lat="-3.0968430" lon="37.3778620">
    <ele>4741.5</ele>
    <time>2026-06-23T06:49:51Z</time>
   </trkpt>
   <trkpt lat="-3.0968460" lon="37.3778680">
    <ele>4741.3</ele>
    <time>2026-06-23T06:49:52Z</time>
   </trkpt>
   <trkpt lat="-3.0968500" lon="37.3778710">
    <ele>4741.1</ele>
    <time>2026-06-23T06:49:53Z</time>
   </trkpt>
   <trkpt lat="-3.0968580" lon="37.3778740">
    <ele>4740.9</ele>
    <time>2026-06-23T06:49:54Z</time>
   </trkpt>
   <trkpt lat="-3.0968680" lon="37.3778770">
    <ele>4740.6</ele>
    <time>2026-06-23T06:49:55Z</time>
   </trkpt>
   <trkpt lat="-3.0968730" lon="37.3778780">
    <ele>4740.4</ele>
    <time>2026-06-23T06:49:56Z</time>
   </trkpt>
   <trkpt lat="-3.0968780" lon="37.3778790">
    <ele>4740.3</ele>
    <time>2026-06-23T06:49:57Z</time>
   </trkpt>
   <trkpt lat="-3.0968810" lon="37.3778830">
    <ele>4740.1</ele>
    <time>2026-06-23T06:49:58Z</time>
   </trkpt>
   <trkpt lat="-3.0968850" lon="37.3778860">
    <ele>4740.0</ele>
    <time>2026-06-23T06:49:59Z</time>
   </trkpt>
   <trkpt lat="-3.0968920" lon="37.3778920">
    <ele>4739.7</ele>
    <time>2026-06-23T06:50:00Z</time>
   </trkpt>
   <trkpt lat="-3.0968970" lon="37.3779010">
    <ele>4739.4</ele>
    <time>2026-06-23T06:50:01Z</time>
   </trkpt>
   <trkpt lat="-3.0968970" lon="37.3779060">
    <ele>4739.3</ele>
    <time>2026-06-23T06:50:02Z</time>
   </trkpt>
   <trkpt lat="-3.0968950" lon="37.3779100">
    <ele>4739.1</ele>
    <time>2026-06-23T06:50:03Z</time>
   </trkpt>
   <trkpt lat="-3.0968960" lon="37.3779110">
    <ele>4739.1</ele>
    <time>2026-06-23T06:50:04Z</time>
   </trkpt>
   <trkpt lat="-3.0968990" lon="37.3779210">
    <ele>4738.8</ele>
    <time>2026-06-23T06:50:05Z</time>
   </trkpt>
   <trkpt lat="-3.0969010" lon="37.3779210">
    <ele>4738.7</ele>
    <time>2026-06-23T06:50:06Z</time>
   </trkpt>
   <trkpt lat="-3.0969030" lon="37.3779200">
    <ele>4738.6</ele>
    <time>2026-06-23T06:50:07Z</time>
   </trkpt>
   <trkpt lat="-3.0969050" lon="37.3779240">
    <ele>4738.5</ele>
    <time>2026-06-23T06:50:08Z</time>
   </trkpt>
   <trkpt lat="-3.0969090" lon="37.3779270">
    <ele>4738.3</ele>
    <time>2026-06-23T06:50:09Z</time>
   </trkpt>
   <trkpt lat="-3.0969110" lon="37.3779320">
    <ele>4738.2</ele>
    <time>2026-06-23T06:50:10Z</time>
   </trkpt>
   <trkpt lat="-3.0969100" lon="37.3779330">
    <ele>4738.1</ele>
    <time>2026-06-23T06:50:11Z</time>
   </trkpt>
   <trkpt lat="-3.0969120" lon="37.3779350">
    <ele>4738.0</ele>
    <time>2026-06-23T06:50:12Z</time>
   </trkpt>
   <trkpt lat="-3.0969150" lon="37.3779380">
    <ele>4737.9</ele>
    <time>2026-06-23T06:50:13Z</time>
   </trkpt>
   <trkpt lat="-3.0969180" lon="37.3779400">
    <ele>4737.8</ele>
    <time>2026-06-23T06:50:14Z</time>
   </trkpt>
   <trkpt lat="-3.0969200" lon="37.3779400">
    <ele>4737.7</ele>
    <time>2026-06-23T06:50:15Z</time>
   </trkpt>
   <trkpt lat="-3.0969220" lon="37.3779410">
    <ele>4737.7</ele>
    <time>2026-06-23T06:50:16Z</time>
   </trkpt>
   <trkpt lat="-3.0969260" lon="37.3779440">
    <ele>4737.5</ele>
    <time>2026-06-23T06:50:17Z</time>
   </trkpt>
   <trkpt lat="-3.0969270" lon="37.3779400">
    <ele>4737.4</ele>
    <time>2026-06-23T06:50:18Z</time>
   </trkpt>
   <trkpt lat="-3.0969300" lon="37.3779430">
    <ele>4737.2</ele>
    <time>2026-06-23T06:50:19Z</time>
   </trkpt>
   <trkpt lat="-3.0969350" lon="37.3779500">
    <ele>4736.9</ele>
    <time>2026-06-23T06:50:20Z</time>
   </trkpt>
   <trkpt lat="-3.0969360" lon="37.3779480">
    <ele>4736.9</ele>
    <time>2026-06-23T06:50:21Z</time>
   </trkpt>
   <trkpt lat="-3.0969390" lon="37.3779490">
    <ele>4736.8</ele>
    <time>2026-06-23T06:50:22Z</time>
   </trkpt>
   <trkpt lat="-3.0969400" lon="37.3779460">
    <ele>4736.7</ele>
    <time>2026-06-23T06:50:23Z</time>
   </trkpt>
   <trkpt lat="-3.0969430" lon="37.3779460">
    <ele>4736.6</ele>
    <time>2026-06-23T06:50:24Z</time>
   </trkpt>
   <trkpt lat="-3.0969460" lon="37.3779470">
    <ele>4736.5</ele>
    <time>2026-06-23T06:50:25Z</time>
   </trkpt>
   <trkpt lat="-3.0969500" lon="37.3779480">
    <ele>4736.3</ele>
    <time>2026-06-23T06:50:26Z</time>
   </trkpt>
   <trkpt lat="-3.0969520" lon="37.3779500">
    <ele>4736.2</ele>
    <time>2026-06-23T06:50:27Z</time>
   </trkpt>
   <trkpt lat="-3.0969520" lon="37.3779490">
    <ele>4736.2</ele>
    <time>2026-06-23T06:50:28Z</time>
   </trkpt>
   <trkpt lat="-3.0969540" lon="37.3779500">
    <ele>4736.1</ele>
    <time>2026-06-23T06:50:29Z</time>
   </trkpt>
   <trkpt lat="-3.0969570" lon="37.3779530">
    <ele>4736.0</ele>
    <time>2026-06-23T06:50:30Z</time>
   </trkpt>
   <trkpt lat="-3.0969610" lon="37.3779530">
    <ele>4735.9</ele>
    <time>2026-06-23T06:50:31Z</time>
   </trkpt>
   <trkpt lat="-3.0969650" lon="37.3779520">
    <ele>4735.7</ele>
    <time>2026-06-23T06:50:32Z</time>
   </trkpt>
   <trkpt lat="-3.0969710" lon="37.3779530">
    <ele>4735.5</ele>
    <time>2026-06-23T06:50:33Z</time>
   </trkpt>
   <trkpt lat="-3.0969760" lon="37.3779510">
    <ele>4735.3</ele>
    <time>2026-06-23T06:50:34Z</time>
   </trkpt>
   <trkpt lat="-3.0969810" lon="37.3779500">
    <ele>4735.1</ele>
    <time>2026-06-23T06:50:35Z</time>
   </trkpt>
   <trkpt lat="-3.0969840" lon="37.3779490">
    <ele>4735.0</ele>
    <time>2026-06-23T06:50:36Z</time>
   </trkpt>
   <trkpt lat="-3.0969910" lon="37.3779490">
    <ele>4734.8</ele>
    <time>2026-06-23T06:50:37Z</time>
   </trkpt>
   <trkpt lat="-3.0969940" lon="37.3779490">
    <ele>4734.7</ele>
    <time>2026-06-23T06:50:38Z</time>
   </trkpt>
   <trkpt lat="-3.0969980" lon="37.3779480">
    <ele>4734.5</ele>
    <time>2026-06-23T06:50:39Z</time>
   </trkpt>
   <trkpt lat="-3.0970020" lon="37.3779470">
    <ele>4734.4</ele>
    <time>2026-06-23T06:50:40Z</time>
   </trkpt>
   <trkpt lat="-3.0970080" lon="37.3779450">
    <ele>4734.2</ele>
    <time>2026-06-23T06:50:41Z</time>
   </trkpt>
   <trkpt lat="-3.0970100" lon="37.3779430">
    <ele>4734.1</ele>
    <time>2026-06-23T06:50:42Z</time>
   </trkpt>
   <trkpt lat="-3.0970100" lon="37.3779390">
    <ele>4733.9</ele>
    <time>2026-06-23T06:50:43Z</time>
   </trkpt>
   <trkpt lat="-3.0970190" lon="37.3779400">
    <ele>4733.6</ele>
    <time>2026-06-23T06:50:44Z</time>
   </trkpt>
   <trkpt lat="-3.0970230" lon="37.3779400">
    <ele>4733.5</ele>
    <time>2026-06-23T06:50:45Z</time>
   </trkpt>
   <trkpt lat="-3.0970250" lon="37.3779390">
    <ele>4733.4</ele>
    <time>2026-06-23T06:50:46Z</time>
   </trkpt>
   <trkpt lat="-3.0970310" lon="37.3779400">
    <ele>4733.2</ele>
    <time>2026-06-23T06:50:47Z</time>
   </trkpt>
   <trkpt lat="-3.0970340" lon="37.3779380">
    <ele>4733.1</ele>
    <time>2026-06-23T06:50:48Z</time>
   </trkpt>
   <trkpt lat="-3.0970390" lon="37.3779390">
    <ele>4732.9</ele>
    <time>2026-06-23T06:50:49Z</time>
   </trkpt>
   <trkpt lat="-3.0970410" lon="37.3779400">
    <ele>4732.8</ele>
    <time>2026-06-23T06:50:50Z</time>
   </trkpt>
   <trkpt lat="-3.0970400" lon="37.3779380">
    <ele>4732.7</ele>
    <time>2026-06-23T06:50:51Z</time>
   </trkpt>
   <trkpt lat="-3.0970420" lon="37.3779360">
    <ele>4732.6</ele>
    <time>2026-06-23T06:50:52Z</time>
   </trkpt>
   <trkpt lat="-3.0970510" lon="37.3779350">
    <ele>4732.3</ele>
    <time>2026-06-23T06:50:53Z</time>
   </trkpt>
   <trkpt lat="-3.0970540" lon="37.3779340">
    <ele>4732.2</ele>
    <time>2026-06-23T06:50:54Z</time>
   </trkpt>
   <trkpt lat="-3.0970550" lon="37.3779330">
    <ele>4732.2</ele>
    <time>2026-06-23T06:50:55Z</time>
   </trkpt>
   <trkpt lat="-3.0970640" lon="37.3779330">
    <ele>4731.9</ele>
    <time>2026-06-23T06:50:56Z</time>
   </trkpt>
   <trkpt lat="-3.0970660" lon="37.3779320">
    <ele>4731.8</ele>
    <time>2026-06-23T06:50:57Z</time>
   </trkpt>
   <trkpt lat="-3.0970700" lon="37.3779330">
    <ele>4731.6</ele>
    <time>2026-06-23T06:50:58Z</time>
   </trkpt>
   <trkpt lat="-3.0970700" lon="37.3779340">
    <ele>4731.6</ele>
    <time>2026-06-23T06:50:59Z</time>
   </trkpt>
   <trkpt lat="-3.0970730" lon="37.3779370">
    <ele>4731.4</ele>
    <time>2026-06-23T06:51:00Z</time>
   </trkpt>
   <trkpt lat="-3.0970770" lon="37.3779390">
    <ele>4731.3</ele>
    <time>2026-06-23T06:51:01Z</time>
   </trkpt>
   <trkpt lat="-3.0970810" lon="37.3779410">
    <ele>4731.1</ele>
    <time>2026-06-23T06:51:02Z</time>
   </trkpt>
   <trkpt lat="-3.0970860" lon="37.3779410">
    <ele>4730.9</ele>
    <time>2026-06-23T06:51:03Z</time>
   </trkpt>
   <trkpt lat="-3.0970880" lon="37.3779450">
    <ele>4730.8</ele>
    <time>2026-06-23T06:51:04Z</time>
   </trkpt>
   <trkpt lat="-3.0970920" lon="37.3779460">
    <ele>4730.6</ele>
    <time>2026-06-23T06:51:05Z</time>
   </trkpt>
   <trkpt lat="-3.0970940" lon="37.3779470">
    <ele>4730.6</ele>
    <time>2026-06-23T06:51:06Z</time>
   </trkpt>
   <trkpt lat="-3.0970930" lon="37.3779480">
    <ele>4730.5</ele>
    <time>2026-06-23T06:51:07Z</time>
   </trkpt>
   <trkpt lat="-3.0970970" lon="37.3779490">
    <ele>4730.4</ele>
    <time>2026-06-23T06:51:09Z</time>
   </trkpt>
   <trkpt lat="-3.0971000" lon="37.3779500">
    <ele>4730.3</ele>
    <time>2026-06-23T06:51:10Z</time>
   </trkpt>
   <trkpt lat="-3.0971020" lon="37.3779490">
    <ele>4730.2</ele>
    <time>2026-06-23T06:51:11Z</time>
   </trkpt>
   <trkpt lat="-3.0971050" lon="37.3779470">
    <ele>4730.0</ele>
    <time>2026-06-23T06:51:12Z</time>
   </trkpt>
   <trkpt lat="-3.0971090" lon="37.3779460">
    <ele>4729.9</ele>
    <time>2026-06-23T06:51:13Z</time>
   </trkpt>
   <trkpt lat="-3.0971120" lon="37.3779480">
    <ele>4729.8</ele>
    <time>2026-06-23T06:51:14Z</time>
   </trkpt>
   <trkpt lat="-3.0971110" lon="37.3779530">
    <ele>4729.6</ele>
    <time>2026-06-23T06:51:15Z</time>
   </trkpt>
   <trkpt lat="-3.0971130" lon="37.3779570">
    <ele>4729.4</ele>
    <time>2026-06-23T06:51:16Z</time>
   </trkpt>
   <trkpt lat="-3.0971150" lon="37.3779570">
    <ele>4729.4</ele>
    <time>2026-06-23T06:51:17Z</time>
   </trkpt>
   <trkpt lat="-3.0971190" lon="37.3779590">
    <ele>4729.2</ele>
    <time>2026-06-23T06:51:18Z</time>
   </trkpt>
   <trkpt lat="-3.0971210" lon="37.3779600">
    <ele>4729.1</ele>
    <time>2026-06-23T06:51:19Z</time>
   </trkpt>
   <trkpt lat="-3.0971230" lon="37.3779600">
    <ele>4729.1</ele>
    <time>2026-06-23T06:51:20Z</time>
   </trkpt>
   <trkpt lat="-3.0971280" lon="37.3779600">
    <ele>4728.9</ele>
    <time>2026-06-23T06:51:21Z</time>
   </trkpt>
   <trkpt lat="-3.0971320" lon="37.3779610">
    <ele>4728.7</ele>
    <time>2026-06-23T06:51:22Z</time>
   </trkpt>
   <trkpt lat="-3.0971360" lon="37.3779600">
    <ele>4728.6</ele>
    <time>2026-06-23T06:51:23Z</time>
   </trkpt>
   <trkpt lat="-3.0971380" lon="37.3779610">
    <ele>4728.5</ele>
    <time>2026-06-23T06:51:24Z</time>
   </trkpt>
   <trkpt lat="-3.0971390" lon="37.3779630">
    <ele>4728.4</ele>
    <time>2026-06-23T06:51:25Z</time>
   </trkpt>
   <trkpt lat="-3.0971420" lon="37.3779620">
    <ele>4728.3</ele>
    <time>2026-06-23T06:51:26Z</time>
   </trkpt>
   <trkpt lat="-3.0971460" lon="37.3779620">
    <ele>4728.2</ele>
    <time>2026-06-23T06:51:27Z</time>
   </trkpt>
   <trkpt lat="-3.0971510" lon="37.3779620">
    <ele>4728.0</ele>
    <time>2026-06-23T06:51:28Z</time>
   </trkpt>
   <trkpt lat="-3.0971510" lon="37.3779620">
    <ele>4728.0</ele>
    <time>2026-06-23T06:51:29Z</time>
   </trkpt>
   <trkpt lat="-3.0971550" lon="37.3779620">
    <ele>4727.8</ele>
    <time>2026-06-23T06:51:30Z</time>
   </trkpt>
   <trkpt lat="-3.0971610" lon="37.3779620">
    <ele>4727.6</ele>
    <time>2026-06-23T06:51:31Z</time>
   </trkpt>
   <trkpt lat="-3.0971620" lon="37.3779650">
    <ele>4727.5</ele>
    <time>2026-06-23T06:51:32Z</time>
   </trkpt>
   <trkpt lat="-3.0971610" lon="37.3779670">
    <ele>4727.4</ele>
    <time>2026-06-23T06:51:33Z</time>
   </trkpt>
   <trkpt lat="-3.0971630" lon="37.3779710">
    <ele>4727.2</ele>
    <time>2026-06-23T06:51:34Z</time>
   </trkpt>
   <trkpt lat="-3.0971640" lon="37.3779720">
    <ele>4727.2</ele>
    <time>2026-06-23T06:51:35Z</time>
   </trkpt>
   <trkpt lat="-3.0971680" lon="37.3779720">
    <ele>4727.0</ele>
    <time>2026-06-23T06:51:36Z</time>
   </trkpt>
   <trkpt lat="-3.0971720" lon="37.3779700">
    <ele>4726.9</ele>
    <time>2026-06-23T06:51:37Z</time>
   </trkpt>
   <trkpt lat="-3.0971780" lon="37.3779700">
    <ele>4726.6</ele>
    <time>2026-06-23T06:51:38Z</time>
   </trkpt>
   <trkpt lat="-3.0971800" lon="37.3779690">
    <ele>4726.6</ele>
    <time>2026-06-23T06:51:39Z</time>
   </trkpt>
   <trkpt lat="-3.0971790" lon="37.3779710">
    <ele>4726.5</ele>
    <time>2026-06-23T06:51:40Z</time>
   </trkpt>
   <trkpt lat="-3.0971780" lon="37.3779730">
    <ele>4726.4</ele>
    <time>2026-06-23T06:51:41Z</time>
   </trkpt>
   <trkpt lat="-3.0971820" lon="37.3779760">
    <ele>4726.2</ele>
    <time>2026-06-23T06:51:42Z</time>
   </trkpt>
   <trkpt lat="-3.0971850" lon="37.3779770">
    <ele>4726.1</ele>
    <time>2026-06-23T06:51:43Z</time>
   </trkpt>
   <trkpt lat="-3.0971850" lon="37.3779790">
    <ele>4726.0</ele>
    <time>2026-06-23T06:51:44Z</time>
   </trkpt>
   <trkpt lat="-3.0971850" lon="37.3779840">
    <ele>4725.8</ele>
    <time>2026-06-23T06:51:45Z</time>
   </trkpt>
   <trkpt lat="-3.0971870" lon="37.3779880">
    <ele>4725.6</ele>
    <time>2026-06-23T06:51:46Z</time>
   </trkpt>
   <trkpt lat="-3.0971880" lon="37.3779910">
    <ele>4725.5</ele>
    <time>2026-06-23T06:51:47Z</time>
   </trkpt>
   <trkpt lat="-3.0971900" lon="37.3779920">
    <ele>4725.4</ele>
    <time>2026-06-23T06:51:49Z</time>
   </trkpt>
   <trkpt lat="-3.0971950" lon="37.3779950">
    <ele>4725.2</ele>
    <time>2026-06-23T06:51:50Z</time>
   </trkpt>
   <trkpt lat="-3.0971920" lon="37.3780010">
    <ele>4724.9</ele>
    <time>2026-06-23T06:51:51Z</time>
   </trkpt>
   <trkpt lat="-3.0971940" lon="37.3780010">
    <ele>4724.8</ele>
    <time>2026-06-23T06:51:52Z</time>
   </trkpt>
   <trkpt lat="-3.0971970" lon="37.3780040">
    <ele>4724.7</ele>
    <time>2026-06-23T06:51:53Z</time>
   </trkpt>
   <trkpt lat="-3.0971990" lon="37.3780070">
    <ele>4724.5</ele>
    <time>2026-06-23T06:51:54Z</time>
   </trkpt>
   <trkpt lat="-3.0972020" lon="37.3780090">
    <ele>4724.4</ele>
    <time>2026-06-23T06:51:55Z</time>
   </trkpt>
   <trkpt lat="-3.0972040" lon="37.3780110">
    <ele>4724.3</ele>
    <time>2026-06-23T06:51:56Z</time>
   </trkpt>
   <trkpt lat="-3.0972070" lon="37.3780110">
    <ele>4724.2</ele>
    <time>2026-06-23T06:51:57Z</time>
   </trkpt>
   <trkpt lat="-3.0972140" lon="37.3780090">
    <ele>4723.9</ele>
    <time>2026-06-23T06:51:58Z</time>
   </trkpt>
   <trkpt lat="-3.0972190" lon="37.3780090">
    <ele>4723.7</ele>
    <time>2026-06-23T06:51:59Z</time>
   </trkpt>
   <trkpt lat="-3.0972230" lon="37.3780120">
    <ele>4723.5</ele>
    <time>2026-06-23T06:52:00Z</time>
   </trkpt>
   <trkpt lat="-3.0972250" lon="37.3780130">
    <ele>4723.4</ele>
    <time>2026-06-23T06:52:01Z</time>
   </trkpt>
   <trkpt lat="-3.0972290" lon="37.3780140">
    <ele>4723.2</ele>
    <time>2026-06-23T06:52:02Z</time>
   </trkpt>
   <trkpt lat="-3.0972310" lon="37.3780150">
    <ele>4723.1</ele>
    <time>2026-06-23T06:52:03Z</time>
   </trkpt>
   <trkpt lat="-3.0972360" lon="37.3780190">
    <ele>4722.9</ele>
    <time>2026-06-23T06:52:04Z</time>
   </trkpt>
   <trkpt lat="-3.0972400" lon="37.3780210">
    <ele>4722.7</ele>
    <time>2026-06-23T06:52:05Z</time>
   </trkpt>
   <trkpt lat="-3.0972420" lon="37.3780230">
    <ele>4722.6</ele>
    <time>2026-06-23T06:52:06Z</time>
   </trkpt>
   <trkpt lat="-3.0972440" lon="37.3780270">
    <ele>4722.4</ele>
    <time>2026-06-23T06:52:07Z</time>
   </trkpt>
   <trkpt lat="-3.0972470" lon="37.3780290">
    <ele>4722.3</ele>
    <time>2026-06-23T06:52:08Z</time>
   </trkpt>
   <trkpt lat="-3.0972500" lon="37.3780300">
    <ele>4722.2</ele>
    <time>2026-06-23T06:52:09Z</time>
   </trkpt>
   <trkpt lat="-3.0972550" lon="37.3780300">
    <ele>4722.0</ele>
    <time>2026-06-23T06:52:10Z</time>
   </trkpt>
   <trkpt lat="-3.0972580" lon="37.3780320">
    <ele>4721.8</ele>
    <time>2026-06-23T06:52:11Z</time>
   </trkpt>
   <trkpt lat="-3.0972620" lon="37.3780320">
    <ele>4721.7</ele>
    <time>2026-06-23T06:52:12Z</time>
   </trkpt>
   <trkpt lat="-3.0972770" lon="37.3780400">
    <ele>4721.0</ele>
    <time>2026-06-23T06:52:13Z</time>
   </trkpt>
   <trkpt lat="-3.0972690" lon="37.3780400">
    <ele>4720.7</ele>
    <time>2026-06-23T06:52:14Z</time>
   </trkpt>
   <trkpt lat="-3.0972680" lon="37.3780450">
    <ele>4720.5</ele>
    <time>2026-06-23T06:52:15Z</time>
   </trkpt>
   <trkpt lat="-3.0972660" lon="37.3780440">
    <ele>4720.4</ele>
    <time>2026-06-23T06:52:16Z</time>
   </trkpt>
   <trkpt lat="-3.0972650" lon="37.3780450">
    <ele>4720.4</ele>
    <time>2026-06-23T06:52:17Z</time>
   </trkpt>
   <trkpt lat="-3.0972630" lon="37.3780520">
    <ele>4720.1</ele>
    <time>2026-06-23T06:52:18Z</time>
   </trkpt>
   <trkpt lat="-3.0972610" lon="37.3780570">
    <ele>4719.9</ele>
    <time>2026-06-23T06:52:19Z</time>
   </trkpt>
   <trkpt lat="-3.0972600" lon="37.3780610">
    <ele>4719.7</ele>
    <time>2026-06-23T06:52:20Z</time>
   </trkpt>
   <trkpt lat="-3.0972560" lon="37.3780650">
    <ele>4719.5</ele>
    <time>2026-06-23T06:52:21Z</time>
   </trkpt>
   <trkpt lat="-3.0972550" lon="37.3780670">
    <ele>4719.4</ele>
    <time>2026-06-23T06:52:22Z</time>
   </trkpt>
   <trkpt lat="-3.0972560" lon="37.3780720">
    <ele>4719.2</ele>
    <time>2026-06-23T06:52:23Z</time>
   </trkpt>
   <trkpt lat="-3.0972550" lon="37.3780700">
    <ele>4719.1</ele>
    <time>2026-06-23T06:52:24Z</time>
   </trkpt>
   <trkpt lat="-3.0972550" lon="37.3780730">
    <ele>4719.0</ele>
    <time>2026-06-23T06:52:25Z</time>
   </trkpt>
   <trkpt lat="-3.0972570" lon="37.3780760">
    <ele>4718.8</ele>
    <time>2026-06-23T06:52:26Z</time>
   </trkpt>
   <trkpt lat="-3.0972560" lon="37.3780790">
    <ele>4718.7</ele>
    <time>2026-06-23T06:52:27Z</time>
   </trkpt>
   <trkpt lat="-3.0972560" lon="37.3780800">
    <ele>4718.7</ele>
    <time>2026-06-23T06:52:28Z</time>
   </trkpt>
   <trkpt lat="-3.0972550" lon="37.3780830">
    <ele>4718.6</ele>
    <time>2026-06-23T06:52:29Z</time>
   </trkpt>
   <trkpt lat="-3.0972550" lon="37.3780860">
    <ele>4718.4</ele>
    <time>2026-06-23T06:52:30Z</time>
   </trkpt>
   <trkpt lat="-3.0972550" lon="37.3780900">
    <ele>4718.3</ele>
    <time>2026-06-23T06:52:31Z</time>
   </trkpt>
   <trkpt lat="-3.0972550" lon="37.3780880">
    <ele>4718.2</ele>
    <time>2026-06-23T06:52:32Z</time>
   </trkpt>
   <trkpt lat="-3.0972570" lon="37.3780900">
    <ele>4718.1</ele>
    <time>2026-06-23T06:52:33Z</time>
   </trkpt>
   <trkpt lat="-3.0972550" lon="37.3780940">
    <ele>4717.9</ele>
    <time>2026-06-23T06:52:34Z</time>
   </trkpt>
   <trkpt lat="-3.0972540" lon="37.3780950">
    <ele>4717.9</ele>
    <time>2026-06-23T06:52:35Z</time>
   </trkpt>
   <trkpt lat="-3.0972530" lon="37.3781030">
    <ele>4717.5</ele>
    <time>2026-06-23T06:52:36Z</time>
   </trkpt>
   <trkpt lat="-3.0972530" lon="37.3781040">
    <ele>4717.5</ele>
    <time>2026-06-23T06:52:37Z</time>
   </trkpt>
   <trkpt lat="-3.0972530" lon="37.3781030">
    <ele>4717.5</ele>
    <time>2026-06-23T06:52:38Z</time>
   </trkpt>
   <trkpt lat="-3.0972520" lon="37.3781030">
    <ele>4717.4</ele>
    <time>2026-06-23T06:52:39Z</time>
   </trkpt>
   <trkpt lat="-3.0972540" lon="37.3781060">
    <ele>4717.3</ele>
    <time>2026-06-23T06:52:40Z</time>
   </trkpt>
   <trkpt lat="-3.0972570" lon="37.3781070">
    <ele>4717.2</ele>
    <time>2026-06-23T06:52:41Z</time>
   </trkpt>
   <trkpt lat="-3.0972590" lon="37.3781110">
    <ele>4717.0</ele>
    <time>2026-06-23T06:52:42Z</time>
   </trkpt>
   <trkpt lat="-3.0972600" lon="37.3781100">
    <ele>4716.9</ele>
    <time>2026-06-23T06:52:43Z</time>
   </trkpt>
   <trkpt lat="-3.0972620" lon="37.3781130">
    <ele>4716.8</ele>
    <time>2026-06-23T06:52:44Z</time>
   </trkpt>
   <trkpt lat="-3.0972610" lon="37.3781140">
    <ele>4716.7</ele>
    <time>2026-06-23T06:52:45Z</time>
   </trkpt>
   <trkpt lat="-3.0972630" lon="37.3781180">
    <ele>4716.6</ele>
    <time>2026-06-23T06:52:46Z</time>
   </trkpt>
   <trkpt lat="-3.0972600" lon="37.3781190">
    <ele>4716.4</ele>
    <time>2026-06-23T06:52:47Z</time>
   </trkpt>
   <trkpt lat="-3.0972620" lon="37.3781260">
    <ele>4716.2</ele>
    <time>2026-06-23T06:52:48Z</time>
   </trkpt>
   <trkpt lat="-3.0972610" lon="37.3781240">
    <ele>4716.1</ele>
    <time>2026-06-23T06:52:49Z</time>
   </trkpt>
   <trkpt lat="-3.0972610" lon="37.3781240">
    <ele>4716.1</ele>
    <time>2026-06-23T06:52:50Z</time>
   </trkpt>
   <trkpt lat="-3.0972640" lon="37.3781270">
    <ele>4715.9</ele>
    <time>2026-06-23T06:52:51Z</time>
   </trkpt>
   <trkpt lat="-3.0972690" lon="37.3781320">
    <ele>4715.6</ele>
    <time>2026-06-23T06:52:52Z</time>
   </trkpt>
   <trkpt lat="-3.0972710" lon="37.3781340">
    <ele>4715.5</ele>
    <time>2026-06-23T06:52:53Z</time>
   </trkpt>
   <trkpt lat="-3.0972710" lon="37.3781320">
    <ele>4715.4</ele>
    <time>2026-06-23T06:52:54Z</time>
   </trkpt>
   <trkpt lat="-3.0972720" lon="37.3781360">
    <ele>4715.3</ele>
    <time>2026-06-23T06:52:55Z</time>
   </trkpt>
   <trkpt lat="-3.0972740" lon="37.3781350">
    <ele>4715.2</ele>
    <time>2026-06-23T06:52:56Z</time>
   </trkpt>
   <trkpt lat="-3.0972760" lon="37.3781370">
    <ele>4715.1</ele>
    <time>2026-06-23T06:52:57Z</time>
   </trkpt>
   <trkpt lat="-3.0972750" lon="37.3781350">
    <ele>4715.0</ele>
    <time>2026-06-23T06:52:58Z</time>
   </trkpt>
   <trkpt lat="-3.0972780" lon="37.3781330">
    <ele>4714.8</ele>
    <time>2026-06-23T06:52:59Z</time>
   </trkpt>
   <trkpt lat="-3.0972780" lon="37.3781370">
    <ele>4714.7</ele>
    <time>2026-06-23T06:53:00Z</time>
   </trkpt>
   <trkpt lat="-3.0972800" lon="37.3781370">
    <ele>4714.6</ele>
    <time>2026-06-23T06:53:01Z</time>
   </trkpt>
   <trkpt lat="-3.0972830" lon="37.3781420">
    <ele>4714.4</ele>
    <time>2026-06-23T06:53:02Z</time>
   </trkpt>
   <trkpt lat="-3.0972840" lon="37.3781400">
    <ele>4714.3</ele>
    <time>2026-06-23T06:53:03Z</time>
   </trkpt>
   <trkpt lat="-3.0972850" lon="37.3781400">
    <ele>4714.3</ele>
    <time>2026-06-23T06:53:04Z</time>
   </trkpt>
   <trkpt lat="-3.0972860" lon="37.3781400">
    <ele>4714.2</ele>
    <time>2026-06-23T06:53:05Z</time>
   </trkpt>
   <trkpt lat="-3.0972880" lon="37.3781390">
    <ele>4714.1</ele>
    <time>2026-06-23T06:53:06Z</time>
   </trkpt>
   <trkpt lat="-3.0972950" lon="37.3781430">
    <ele>4713.8</ele>
    <time>2026-06-23T06:53:07Z</time>
   </trkpt>
   <trkpt lat="-3.0973010" lon="37.3781390">
    <ele>4713.5</ele>
    <time>2026-06-23T06:53:08Z</time>
   </trkpt>
   <trkpt lat="-3.0973060" lon="37.3781410">
    <ele>4713.3</ele>
    <time>2026-06-23T06:53:09Z</time>
   </trkpt>
   <trkpt lat="-3.0973070" lon="37.3781420">
    <ele>4713.3</ele>
    <time>2026-06-23T06:53:10Z</time>
   </trkpt>
   <trkpt lat="-3.0973080" lon="37.3781410">
    <ele>4713.2</ele>
    <time>2026-06-23T06:53:11Z</time>
   </trkpt>
   <trkpt lat="-3.0973100" lon="37.3781420">
    <ele>4713.1</ele>
    <time>2026-06-23T06:53:12Z</time>
   </trkpt>
   <trkpt lat="-3.0973130" lon="37.3781410">
    <ele>4713.0</ele>
    <time>2026-06-23T06:53:13Z</time>
   </trkpt>
   <trkpt lat="-3.0973150" lon="37.3781440">
    <ele>4712.9</ele>
    <time>2026-06-23T06:53:14Z</time>
   </trkpt>
   <trkpt lat="-3.0973210" lon="37.3781430">
    <ele>4712.6</ele>
    <time>2026-06-23T06:53:15Z</time>
   </trkpt>
   <trkpt lat="-3.0973230" lon="37.3781450">
    <ele>4712.5</ele>
    <time>2026-06-23T06:53:16Z</time>
   </trkpt>
   <trkpt lat="-3.0973280" lon="37.3781530">
    <ele>4712.1</ele>
    <time>2026-06-23T06:53:17Z</time>
   </trkpt>
   <trkpt lat="-3.0973240" lon="37.3781530">
    <ele>4712.0</ele>
    <time>2026-06-23T06:53:18Z</time>
   </trkpt>
   <trkpt lat="-3.0973250" lon="37.3781560">
    <ele>4711.9</ele>
    <time>2026-06-23T06:53:19Z</time>
   </trkpt>
   <trkpt lat="-3.0973270" lon="37.3781560">
    <ele>4711.8</ele>
    <time>2026-06-23T06:53:20Z</time>
   </trkpt>
   <trkpt lat="-3.0973330" lon="37.3781630">
    <ele>4711.5</ele>
    <time>2026-06-23T06:53:21Z</time>
   </trkpt>
   <trkpt lat="-3.0973360" lon="37.3781660">
    <ele>4711.3</ele>
    <time>2026-06-23T06:53:22Z</time>
   </trkpt>
   <trkpt lat="-3.0973350" lon="37.3781660">
    <ele>4711.3</ele>
    <time>2026-06-23T06:53:23Z</time>
   </trkpt>
   <trkpt lat="-3.0973350" lon="37.3781660">
    <ele>4711.3</ele>
    <time>2026-06-23T06:53:24Z</time>
   </trkpt>
   <trkpt lat="-3.0973370" lon="37.3781680">
    <ele>4711.2</ele>
    <time>2026-06-23T06:53:25Z</time>
   </trkpt>
   <trkpt lat="-3.0973390" lon="37.3781690">
    <ele>4711.1</ele>
    <time>2026-06-23T06:53:26Z</time>
   </trkpt>
   <trkpt lat="-3.0973420" lon="37.3781730">
    <ele>4710.9</ele>
    <time>2026-06-23T06:53:27Z</time>
   </trkpt>
   <trkpt lat="-3.0973450" lon="37.3781760">
    <ele>4710.8</ele>
    <time>2026-06-23T06:53:28Z</time>
   </trkpt>
   <trkpt lat="-3.0973450" lon="37.3781810">
    <ele>4710.6</ele>
    <time>2026-06-23T06:53:29Z</time>
   </trkpt>
   <trkpt lat="-3.0973470" lon="37.3781850">
    <ele>4710.4</ele>
    <time>2026-06-23T06:53:30Z</time>
   </trkpt>
   <trkpt lat="-3.0973480" lon="37.3781890">
    <ele>4710.3</ele>
    <time>2026-06-23T06:53:31Z</time>
   </trkpt>
   <trkpt lat="-3.0973470" lon="37.3781910">
    <ele>4710.2</ele>
    <time>2026-06-23T06:53:32Z</time>
   </trkpt>
   <trkpt lat="-3.0973490" lon="37.3781940">
    <ele>4710.1</ele>
    <time>2026-06-23T06:53:33Z</time>
   </trkpt>
   <trkpt lat="-3.0973510" lon="37.3781970">
    <ele>4710.0</ele>
    <time>2026-06-23T06:53:34Z</time>
   </trkpt>
   <trkpt lat="-3.0973530" lon="37.3781990">
    <ele>4709.9</ele>
    <time>2026-06-23T06:53:35Z</time>
   </trkpt>
   <trkpt lat="-3.0973570" lon="37.3782000">
    <ele>4709.7</ele>
    <time>2026-06-23T06:53:36Z</time>
   </trkpt>
   <trkpt lat="-3.0973560" lon="37.3781970">
    <ele>4709.6</ele>
    <time>2026-06-23T06:53:37Z</time>
   </trkpt>
   <trkpt lat="-3.0973590" lon="37.3781920">
    <ele>4709.4</ele>
    <time>2026-06-23T06:53:38Z</time>
   </trkpt>
   <trkpt lat="-3.0973620" lon="37.3781880">
    <ele>4709.2</ele>
    <time>2026-06-23T06:53:39Z</time>
   </trkpt>
   <trkpt lat="-3.0973670" lon="37.3781900">
    <ele>4709.1</ele>
    <time>2026-06-23T06:53:40Z</time>
   </trkpt>
   <trkpt lat="-3.0973710" lon="37.3781930">
    <ele>4708.9</ele>
    <time>2026-06-23T06:53:41Z</time>
   </trkpt>
   <trkpt lat="-3.0973720" lon="37.3782000">
    <ele>4708.6</ele>
    <time>2026-06-23T06:53:42Z</time>
   </trkpt>
   <trkpt lat="-3.0973710" lon="37.3782040">
    <ele>4708.5</ele>
    <time>2026-06-23T06:53:43Z</time>
   </trkpt>
   <trkpt lat="-3.0973720" lon="37.3782090">
    <ele>4708.4</ele>
    <time>2026-06-23T06:53:44Z</time>
   </trkpt>
   <trkpt lat="-3.0973720" lon="37.3782140">
    <ele>4708.2</ele>
    <time>2026-06-23T06:53:45Z</time>
   </trkpt>
   <trkpt lat="-3.0973720" lon="37.3782160">
    <ele>4708.1</ele>
    <time>2026-06-23T06:53:46Z</time>
   </trkpt>
   <trkpt lat="-3.0973770" lon="37.3782210">
    <ele>4707.9</ele>
    <time>2026-06-23T06:53:47Z</time>
   </trkpt>
   <trkpt lat="-3.0973810" lon="37.3782220">
    <ele>4707.8</ele>
    <time>2026-06-23T06:53:48Z</time>
   </trkpt>
   <trkpt lat="-3.0973850" lon="37.3782160">
    <ele>4707.6</ele>
    <time>2026-06-23T06:53:49Z</time>
   </trkpt>
   <trkpt lat="-3.0973950" lon="37.3782150">
    <ele>4707.3</ele>
    <time>2026-06-23T06:53:50Z</time>
   </trkpt>
   <trkpt lat="-3.0974000" lon="37.3782140">
    <ele>4707.1</ele>
    <time>2026-06-23T06:53:51Z</time>
   </trkpt>
   <trkpt lat="-3.0974020" lon="37.3782150">
    <ele>4707.1</ele>
    <time>2026-06-23T06:53:52Z</time>
   </trkpt>
   <trkpt lat="-3.0974130" lon="37.3782130">
    <ele>4706.7</ele>
    <time>2026-06-23T06:53:53Z</time>
   </trkpt>
   <trkpt lat="-3.0974240" lon="37.3782100">
    <ele>4706.4</ele>
    <time>2026-06-23T06:53:54Z</time>
   </trkpt>
   <trkpt lat="-3.0974260" lon="37.3782080">
    <ele>4706.3</ele>
    <time>2026-06-23T06:53:55Z</time>
   </trkpt>
   <trkpt lat="-3.0974310" lon="37.3782060">
    <ele>4706.2</ele>
    <time>2026-06-23T06:53:56Z</time>
   </trkpt>
   <trkpt lat="-3.0974330" lon="37.3782050">
    <ele>4706.1</ele>
    <time>2026-06-23T06:53:57Z</time>
   </trkpt>
   <trkpt lat="-3.0974410" lon="37.3782020">
    <ele>4705.9</ele>
    <time>2026-06-23T06:53:58Z</time>
   </trkpt>
   <trkpt lat="-3.0974460" lon="37.3781980">
    <ele>4705.7</ele>
    <time>2026-06-23T06:53:59Z</time>
   </trkpt>
   <trkpt lat="-3.0974520" lon="37.3781950">
    <ele>4705.5</ele>
    <time>2026-06-23T06:54:00Z</time>
   </trkpt>
   <trkpt lat="-3.0974550" lon="37.3781920">
    <ele>4705.4</ele>
    <time>2026-06-23T06:54:01Z</time>
   </trkpt>
   <trkpt lat="-3.0974590" lon="37.3781840">
    <ele>4705.2</ele>
    <time>2026-06-23T06:54:02Z</time>
   </trkpt>
   <trkpt lat="-3.0974620" lon="37.3781780">
    <ele>4705.0</ele>
    <time>2026-06-23T06:54:03Z</time>
   </trkpt>
   <trkpt lat="-3.0974670" lon="37.3781760">
    <ele>4704.8</ele>
    <time>2026-06-23T06:54:04Z</time>
   </trkpt>
   <trkpt lat="-3.0974720" lon="37.3781760">
    <ele>4704.7</ele>
    <time>2026-06-23T06:54:05Z</time>
   </trkpt>
   <trkpt lat="-3.0974800" lon="37.3781700">
    <ele>4704.5</ele>
    <time>2026-06-23T06:54:06Z</time>
   </trkpt>
   <trkpt lat="-3.0974850" lon="37.3781650">
    <ele>4704.3</ele>
    <time>2026-06-23T06:54:07Z</time>
   </trkpt>
   <trkpt lat="-3.0974870" lon="37.3781640">
    <ele>4704.2</ele>
    <time>2026-06-23T06:54:08Z</time>
   </trkpt>
   <trkpt lat="-3.0974930" lon="37.3781650">
    <ele>4704.0</ele>
    <time>2026-06-23T06:54:09Z</time>
   </trkpt>
   <trkpt lat="-3.0974960" lon="37.3781670">
    <ele>4704.0</ele>
    <time>2026-06-23T06:54:10Z</time>
   </trkpt>
   <trkpt lat="-3.0975180" lon="37.3781690">
    <ele>4703.4</ele>
    <time>2026-06-23T06:54:11Z</time>
   </trkpt>
   <trkpt lat="-3.0975200" lon="37.3781780">
    <ele>4703.1</ele>
    <time>2026-06-23T06:54:12Z</time>
   </trkpt>
   <trkpt lat="-3.0975230" lon="37.3781890">
    <ele>4702.8</ele>
    <time>2026-06-23T06:54:13Z</time>
   </trkpt>
   <trkpt lat="-3.0975250" lon="37.3781840">
    <ele>4702.7</ele>
    <time>2026-06-23T06:54:14Z</time>
   </trkpt>
   <trkpt lat="-3.0975290" lon="37.3781890">
    <ele>4702.5</ele>
    <time>2026-06-23T06:54:15Z</time>
   </trkpt>
   <trkpt lat="-3.0975290" lon="37.3781930">
    <ele>4702.4</ele>
    <time>2026-06-23T06:54:16Z</time>
   </trkpt>
   <trkpt lat="-3.0975300" lon="37.3781980">
    <ele>4702.3</ele>
    <time>2026-06-23T06:54:17Z</time>
   </trkpt>
   <trkpt lat="-3.0975320" lon="37.3782000">
    <ele>4702.2</ele>
    <time>2026-06-23T06:54:18Z</time>
   </trkpt>
   <trkpt lat="-3.0975370" lon="37.3782000">
    <ele>4702.1</ele>
    <time>2026-06-23T06:54:19Z</time>
   </trkpt>
   <trkpt lat="-3.0975380" lon="37.3781970">
    <ele>4702.0</ele>
    <time>2026-06-23T06:54:20Z</time>
   </trkpt>
   <trkpt lat="-3.0975470" lon="37.3781960">
    <ele>4701.8</ele>
    <time>2026-06-23T06:54:21Z</time>
   </trkpt>
   <trkpt lat="-3.0975520" lon="37.3781940">
    <ele>4701.7</ele>
    <time>2026-06-23T06:54:22Z</time>
   </trkpt>
   <trkpt lat="-3.0975570" lon="37.3781960">
    <ele>4701.5</ele>
    <time>2026-06-23T06:54:23Z</time>
   </trkpt>
   <trkpt lat="-3.0975580" lon="37.3781980">
    <ele>4701.5</ele>
    <time>2026-06-23T06:54:24Z</time>
   </trkpt>
   <trkpt lat="-3.0975600" lon="37.3782030">
    <ele>4701.3</ele>
    <time>2026-06-23T06:54:25Z</time>
   </trkpt>
   <trkpt lat="-3.0975610" lon="37.3782050">
    <ele>4701.3</ele>
    <time>2026-06-23T06:54:26Z</time>
   </trkpt>
   <trkpt lat="-3.0975690" lon="37.3782090">
    <ele>4701.0</ele>
    <time>2026-06-23T06:54:27Z</time>
   </trkpt>
   <trkpt lat="-3.0975750" lon="37.3782060">
    <ele>4700.9</ele>
    <time>2026-06-23T06:54:28Z</time>
   </trkpt>
   <trkpt lat="-3.0975810" lon="37.3782080">
    <ele>4700.7</ele>
    <time>2026-06-23T06:54:29Z</time>
   </trkpt>
   <trkpt lat="-3.0975840" lon="37.3782150">
    <ele>4700.5</ele>
    <time>2026-06-23T06:54:30Z</time>
   </trkpt>
   <trkpt lat="-3.0975910" lon="37.3782230">
    <ele>4700.2</ele>
    <time>2026-06-23T06:54:31Z</time>
   </trkpt>
   <trkpt lat="-3.0975890" lon="37.3782290">
    <ele>4700.1</ele>
    <time>2026-06-23T06:54:32Z</time>
   </trkpt>
   <trkpt lat="-3.0975920" lon="37.3782350">
    <ele>4699.9</ele>
    <time>2026-06-23T06:54:33Z</time>
   </trkpt>
   <trkpt lat="-3.0975980" lon="37.3782340">
    <ele>4699.8</ele>
    <time>2026-06-23T06:54:34Z</time>
   </trkpt>
   <trkpt lat="-3.0976100" lon="37.3782340">
    <ele>4699.5</ele>
    <time>2026-06-23T06:54:35Z</time>
   </trkpt>
   <trkpt lat="-3.0976180" lon="37.3782300">
    <ele>4699.3</ele>
    <time>2026-06-23T06:54:36Z</time>
   </trkpt>
   <trkpt lat="-3.0976240" lon="37.3782260">
    <ele>4699.1</ele>
    <time>2026-06-23T06:54:37Z</time>
   </trkpt>
   <trkpt lat="-3.0976280" lon="37.3782220">
    <ele>4699.0</ele>
    <time>2026-06-23T06:54:38Z</time>
   </trkpt>
   <trkpt lat="-3.0976350" lon="37.3782200">
    <ele>4698.8</ele>
    <time>2026-06-23T06:54:39Z</time>
   </trkpt>
   <trkpt lat="-3.0976400" lon="37.3782180">
    <ele>4698.7</ele>
    <time>2026-06-23T06:54:40Z</time>
   </trkpt>
   <trkpt lat="-3.0976440" lon="37.3782150">
    <ele>4698.5</ele>
    <time>2026-06-23T06:54:41Z</time>
   </trkpt>
   <trkpt lat="-3.0976520" lon="37.3782100">
    <ele>4698.3</ele>
    <time>2026-06-23T06:54:42Z</time>
   </trkpt>
   <trkpt lat="-3.0976590" lon="37.3782050">
    <ele>4698.1</ele>
    <time>2026-06-23T06:54:43Z</time>
   </trkpt>
   <trkpt lat="-3.0976650" lon="37.3782020">
    <ele>4697.9</ele>
    <time>2026-06-23T06:54:44Z</time>
   </trkpt>
   <trkpt lat="-3.0976690" lon="37.3781970">
    <ele>4697.8</ele>
    <time>2026-06-23T06:54:45Z</time>
   </trkpt>
   <trkpt lat="-3.0976710" lon="37.3781920">
    <ele>4697.7</ele>
    <time>2026-06-23T06:54:46Z</time>
   </trkpt>
   <trkpt lat="-3.0976770" lon="37.3781840">
    <ele>4697.4</ele>
    <time>2026-06-23T06:54:47Z</time>
   </trkpt>
   <trkpt lat="-3.0976820" lon="37.3781790">
    <ele>4697.3</ele>
    <time>2026-06-23T06:54:48Z</time>
   </trkpt>
   <trkpt lat="-3.0976900" lon="37.3781770">
    <ele>4697.1</ele>
    <time>2026-06-23T06:54:49Z</time>
   </trkpt>
   <trkpt lat="-3.0976950" lon="37.3781910">
    <ele>4696.7</ele>
    <time>2026-06-23T06:54:50Z</time>
   </trkpt>
   <trkpt lat="-3.0977040" lon="37.3781910">
    <ele>4696.5</ele>
    <time>2026-06-23T06:54:51Z</time>
   </trkpt>
   <trkpt lat="-3.0977100" lon="37.3781980">
    <ele>4696.3</ele>
    <time>2026-06-23T06:54:52Z</time>
   </trkpt>
   <trkpt lat="-3.0977150" lon="37.3782010">
    <ele>4696.1</ele>
    <time>2026-06-23T06:54:53Z</time>
   </trkpt>
   <trkpt lat="-3.0977240" lon="37.3782010">
    <ele>4695.9</ele>
    <time>2026-06-23T06:54:54Z</time>
   </trkpt>
   <trkpt lat="-3.0977310" lon="37.3781950">
    <ele>4695.7</ele>
    <time>2026-06-23T06:54:55Z</time>
   </trkpt>
   <trkpt lat="-3.0977410" lon="37.3781900">
    <ele>4695.4</ele>
    <time>2026-06-23T06:54:56Z</time>
   </trkpt>
   <trkpt lat="-3.0977480" lon="37.3781880">
    <ele>4695.2</ele>
    <time>2026-06-23T06:54:57Z</time>
   </trkpt>
   <trkpt lat="-3.0977530" lon="37.3781850">
    <ele>4695.1</ele>
    <time>2026-06-23T06:54:58Z</time>
   </trkpt>
   <trkpt lat="-3.0977570" lon="37.3781820">
    <ele>4695.0</ele>
    <time>2026-06-23T06:54:59Z</time>
   </trkpt>
   <trkpt lat="-3.0977660" lon="37.3781770">
    <ele>4694.7</ele>
    <time>2026-06-23T06:55:00Z</time>
   </trkpt>
   <trkpt lat="-3.0977680" lon="37.3781700">
    <ele>4694.5</ele>
    <time>2026-06-23T06:55:01Z</time>
   </trkpt>
   <trkpt lat="-3.0977740" lon="37.3781630">
    <ele>4694.3</ele>
    <time>2026-06-23T06:55:02Z</time>
   </trkpt>
   <trkpt lat="-3.0977790" lon="37.3781590">
    <ele>4694.1</ele>
    <time>2026-06-23T06:55:03Z</time>
   </trkpt>
   <trkpt lat="-3.0977840" lon="37.3781580">
    <ele>4694.0</ele>
    <time>2026-06-23T06:55:04Z</time>
   </trkpt>
   <trkpt lat="-3.0977950" lon="37.3781570">
    <ele>4693.7</ele>
    <time>2026-06-23T06:55:05Z</time>
   </trkpt>
   <trkpt lat="-3.0978020" lon="37.3781590">
    <ele>4693.6</ele>
    <time>2026-06-23T06:55:06Z</time>
   </trkpt>
   <trkpt lat="-3.0978060" lon="37.3781650">
    <ele>4693.4</ele>
    <time>2026-06-23T06:55:07Z</time>
   </trkpt>
   <trkpt lat="-3.0978130" lon="37.3781710">
    <ele>4693.1</ele>
    <time>2026-06-23T06:55:08Z</time>
   </trkpt>
   <trkpt lat="-3.0978190" lon="37.3781750">
    <ele>4693.0</ele>
    <time>2026-06-23T06:55:09Z</time>
   </trkpt>
   <trkpt lat="-3.0978260" lon="37.3781790">
    <ele>4692.8</ele>
    <time>2026-06-23T06:55:10Z</time>
   </trkpt>
   <trkpt lat="-3.0978340" lon="37.3781850">
    <ele>4692.5</ele>
    <time>2026-06-23T06:55:11Z</time>
   </trkpt>
   <trkpt lat="-3.0978480" lon="37.3781900">
    <ele>4692.1</ele>
    <time>2026-06-23T06:55:12Z</time>
   </trkpt>
   <trkpt lat="-3.0978520" lon="37.3781850">
    <ele>4691.9</ele>
    <time>2026-06-23T06:55:13Z</time>
   </trkpt>
   <trkpt lat="-3.0978580" lon="37.3781790">
    <ele>4691.7</ele>
    <time>2026-06-23T06:55:14Z</time>
   </trkpt>
   <trkpt lat="-3.0978660" lon="37.3781760">
    <ele>4691.5</ele>
    <time>2026-06-23T06:55:15Z</time>
   </trkpt>
   <trkpt lat="-3.0978770" lon="37.3781740">
    <ele>4691.2</ele>
    <time>2026-06-23T06:55:16Z</time>
   </trkpt>
   <trkpt lat="-3.0978820" lon="37.3781740">
    <ele>4691.0</ele>
    <time>2026-06-23T06:55:17Z</time>
   </trkpt>
   <trkpt lat="-3.0978890" lon="37.3781740">
    <ele>4690.8</ele>
    <time>2026-06-23T06:55:18Z</time>
   </trkpt>
   <trkpt lat="-3.0978970" lon="37.3781730">
    <ele>4690.6</ele>
    <time>2026-06-23T06:55:19Z</time>
   </trkpt>
   <trkpt lat="-3.0979040" lon="37.3781690">
    <ele>4690.4</ele>
    <time>2026-06-23T06:55:20Z</time>
   </trkpt>
   <trkpt lat="-3.0979080" lon="37.3781610">
    <ele>4690.1</ele>
    <time>2026-06-23T06:55:21Z</time>
   </trkpt>
   <trkpt lat="-3.0979130" lon="37.3781580">
    <ele>4690.0</ele>
    <time>2026-06-23T06:55:22Z</time>
   </trkpt>
   <trkpt lat="-3.0979200" lon="37.3781600">
    <ele>4689.8</ele>
    <time>2026-06-23T06:55:23Z</time>
   </trkpt>
   <trkpt lat="-3.0979290" lon="37.3781610">
    <ele>4689.5</ele>
    <time>2026-06-23T06:55:24Z</time>
   </trkpt>
   <trkpt lat="-3.0979360" lon="37.3781630">
    <ele>4689.3</ele>
    <time>2026-06-23T06:55:25Z</time>
   </trkpt>
   <trkpt lat="-3.0979390" lon="37.3781670">
    <ele>4689.2</ele>
    <time>2026-06-23T06:55:26Z</time>
   </trkpt>
   <trkpt lat="-3.0979420" lon="37.3781700">
    <ele>4689.1</ele>
    <time>2026-06-23T06:55:27Z</time>
   </trkpt>
   <trkpt lat="-3.0979520" lon="37.3781700">
    <ele>4688.8</ele>
    <time>2026-06-23T06:55:28Z</time>
   </trkpt>
   <trkpt lat="-3.0979560" lon="37.3781680">
    <ele>4688.7</ele>
    <time>2026-06-23T06:55:29Z</time>
   </trkpt>
   <trkpt lat="-3.0979630" lon="37.3781730">
    <ele>4688.5</ele>
    <time>2026-06-23T06:55:30Z</time>
   </trkpt>
   <trkpt lat="-3.0979700" lon="37.3781830">
    <ele>4688.1</ele>
    <time>2026-06-23T06:55:31Z</time>
   </trkpt>
   <trkpt lat="-3.0979730" lon="37.3781900">
    <ele>4687.9</ele>
    <time>2026-06-23T06:55:32Z</time>
   </trkpt>
   <trkpt lat="-3.0979750" lon="37.3781910">
    <ele>4687.9</ele>
    <time>2026-06-23T06:55:33Z</time>
   </trkpt>
   <trkpt lat="-3.0979810" lon="37.3781860">
    <ele>4687.7</ele>
    <time>2026-06-23T06:55:34Z</time>
   </trkpt>
   <trkpt lat="-3.0979900" lon="37.3781840">
    <ele>4687.4</ele>
    <time>2026-06-23T06:55:35Z</time>
   </trkpt>
   <trkpt lat="-3.0979950" lon="37.3781880">
    <ele>4687.2</ele>
    <time>2026-06-23T06:55:36Z</time>
   </trkpt>
   <trkpt lat="-3.0980000" lon="37.3781890">
    <ele>4687.1</ele>
    <time>2026-06-23T06:55:37Z</time>
   </trkpt>
   <trkpt lat="-3.0980080" lon="37.3781940">
    <ele>4686.8</ele>
    <time>2026-06-23T06:55:38Z</time>
   </trkpt>
   <trkpt lat="-3.0980090" lon="37.3782000">
    <ele>4686.7</ele>
    <time>2026-06-23T06:55:39Z</time>
   </trkpt>
   <trkpt lat="-3.0980120" lon="37.3782080">
    <ele>4686.4</ele>
    <time>2026-06-23T06:55:40Z</time>
   </trkpt>
   <trkpt lat="-3.0980140" lon="37.3782120">
    <ele>4686.3</ele>
    <time>2026-06-23T06:55:41Z</time>
   </trkpt>
   <trkpt lat="-3.0980200" lon="37.3782140">
    <ele>4686.1</ele>
    <time>2026-06-23T06:55:42Z</time>
   </trkpt>
   <trkpt lat="-3.0980280" lon="37.3782100">
    <ele>4685.9</ele>
    <time>2026-06-23T06:55:43Z</time>
   </trkpt>
   <trkpt lat="-3.0980350" lon="37.3782040">
    <ele>4685.6</ele>
    <time>2026-06-23T06:55:44Z</time>
   </trkpt>
   <trkpt lat="-3.0980420" lon="37.3781970">
    <ele>4685.4</ele>
    <time>2026-06-23T06:55:45Z</time>
   </trkpt>
   <trkpt lat="-3.0980440" lon="37.3781910">
    <ele>4685.2</ele>
    <time>2026-06-23T06:55:46Z</time>
   </trkpt>
   <trkpt lat="-3.0980480" lon="37.3781880">
    <ele>4685.1</ele>
    <time>2026-06-23T06:55:47Z</time>
   </trkpt>
   <trkpt lat="-3.0980510" lon="37.3781890">
    <ele>4685.0</ele>
    <time>2026-06-23T06:55:48Z</time>
   </trkpt>
   <trkpt lat="-3.0980600" lon="37.3781880">
    <ele>4684.7</ele>
    <time>2026-06-23T06:55:49Z</time>
   </trkpt>
   <trkpt lat="-3.0980630" lon="37.3781930">
    <ele>4684.6</ele>
    <time>2026-06-23T06:55:50Z</time>
   </trkpt>
   <trkpt lat="-3.0980650" lon="37.3781930">
    <ele>4684.5</ele>
    <time>2026-06-23T06:55:51Z</time>
   </trkpt>
   <trkpt lat="-3.0980650" lon="37.3781940">
    <ele>4684.5</ele>
    <time>2026-06-23T06:55:52Z</time>
   </trkpt>
   <trkpt lat="-3.0980700" lon="37.3781950">
    <ele>4684.4</ele>
    <time>2026-06-23T06:55:53Z</time>
   </trkpt>
   <trkpt lat="-3.0980760" lon="37.3781980">
    <ele>4684.2</ele>
    <time>2026-06-23T06:55:54Z</time>
   </trkpt>
   <trkpt lat="-3.0980740" lon="37.3782020">
    <ele>4684.1</ele>
    <time>2026-06-23T06:55:55Z</time>
   </trkpt>
   <trkpt lat="-3.0980740" lon="37.3782060">
    <ele>4684.0</ele>
    <time>2026-06-23T06:55:56Z</time>
   </trkpt>
   <trkpt lat="-3.0980790" lon="37.3782110">
    <ele>4683.8</ele>
    <time>2026-06-23T06:55:57Z</time>
   </trkpt>
   <trkpt lat="-3.0980830" lon="37.3782140">
    <ele>4683.6</ele>
    <time>2026-06-23T06:55:58Z</time>
   </trkpt>
   <trkpt lat="-3.0980860" lon="37.3782160">
    <ele>4683.5</ele>
    <time>2026-06-23T06:55:59Z</time>
   </trkpt>
   <trkpt lat="-3.0980910" lon="37.3782210">
    <ele>4683.3</ele>
    <time>2026-06-23T06:56:00Z</time>
   </trkpt>
   <trkpt lat="-3.0980970" lon="37.3782240">
    <ele>4683.1</ele>
    <time>2026-06-23T06:56:01Z</time>
   </trkpt>
   <trkpt lat="-3.0981010" lon="37.3782260">
    <ele>4683.0</ele>
    <time>2026-06-23T06:56:02Z</time>
   </trkpt>
   <trkpt lat="-3.0981060" lon="37.3782300">
    <ele>4682.9</ele>
    <time>2026-06-23T06:56:03Z</time>
   </trkpt>
   <trkpt lat="-3.0981120" lon="37.3782350">
    <ele>4682.6</ele>
    <time>2026-06-23T06:56:04Z</time>
   </trkpt>
   <trkpt lat="-3.0981210" lon="37.3782410">
    <ele>4682.4</ele>
    <time>2026-06-23T06:56:05Z</time>
   </trkpt>
   <trkpt lat="-3.0981250" lon="37.3782390">
    <ele>4682.3</ele>
    <time>2026-06-23T06:56:06Z</time>
   </trkpt>
   <trkpt lat="-3.0981340" lon="37.3782380">
    <ele>4682.0</ele>
    <time>2026-06-23T06:56:07Z</time>
   </trkpt>
   <trkpt lat="-3.0981440" lon="37.3782340">
    <ele>4681.8</ele>
    <time>2026-06-23T06:56:08Z</time>
   </trkpt>
   <trkpt lat="-3.0981520" lon="37.3782320">
    <ele>4681.6</ele>
    <time>2026-06-23T06:56:09Z</time>
   </trkpt>
   <trkpt lat="-3.0981590" lon="37.3782310">
    <ele>4681.4</ele>
    <time>2026-06-23T06:56:10Z</time>
   </trkpt>
   <trkpt lat="-3.0981690" lon="37.3782290">
    <ele>4681.2</ele>
    <time>2026-06-23T06:56:11Z</time>
   </trkpt>
   <trkpt lat="-3.0981780" lon="37.3782280">
    <ele>4680.9</ele>
    <time>2026-06-23T06:56:12Z</time>
   </trkpt>
   <trkpt lat="-3.0981830" lon="37.3782280">
    <ele>4680.8</ele>
    <time>2026-06-23T06:56:13Z</time>
   </trkpt>
   <trkpt lat="-3.0981880" lon="37.3782310">
    <ele>4680.7</ele>
    <time>2026-06-23T06:56:14Z</time>
   </trkpt>
   <trkpt lat="-3.0982000" lon="37.3782300">
    <ele>4680.4</ele>
    <time>2026-06-23T06:56:15Z</time>
   </trkpt>
   <trkpt lat="-3.0982070" lon="37.3782290">
    <ele>4680.2</ele>
    <time>2026-06-23T06:56:16Z</time>
   </trkpt>
   <trkpt lat="-3.0982150" lon="37.3782260">
    <ele>4680.1</ele>
    <time>2026-06-23T06:56:17Z</time>
   </trkpt>
   <trkpt lat="-3.0982190" lon="37.3782230">
    <ele>4680.0</ele>
    <time>2026-06-23T06:56:18Z</time>
   </trkpt>
   <trkpt lat="-3.0982310" lon="37.3782240">
    <ele>4679.7</ele>
    <time>2026-06-23T06:56:19Z</time>
   </trkpt>
   <trkpt lat="-3.0982370" lon="37.3782180">
    <ele>4679.5</ele>
    <time>2026-06-23T06:56:20Z</time>
   </trkpt>
   <trkpt lat="-3.0982420" lon="37.3782140">
    <ele>4679.4</ele>
    <time>2026-06-23T06:56:21Z</time>
   </trkpt>
   <trkpt lat="-3.0982500" lon="37.3782070">
    <ele>4679.1</ele>
    <time>2026-06-23T06:56:22Z</time>
   </trkpt>
   <trkpt lat="-3.0982580" lon="37.3782060">
    <ele>4679.0</ele>
    <time>2026-06-23T06:56:23Z</time>
   </trkpt>
   <trkpt lat="-3.0982660" lon="37.3782060">
    <ele>4678.8</ele>
    <time>2026-06-23T06:56:24Z</time>
   </trkpt>
   <trkpt lat="-3.0982770" lon="37.3782080">
    <ele>4678.6</ele>
    <time>2026-06-23T06:56:25Z</time>
   </trkpt>
   <trkpt lat="-3.0982860" lon="37.3782070">
    <ele>4678.4</ele>
    <time>2026-06-23T06:56:26Z</time>
   </trkpt>
   <trkpt lat="-3.0982960" lon="37.3782070">
    <ele>4678.2</ele>
    <time>2026-06-23T06:56:27Z</time>
   </trkpt>
   <trkpt lat="-3.0983040" lon="37.3782070">
    <ele>4678.0</ele>
    <time>2026-06-23T06:56:28Z</time>
   </trkpt>
   <trkpt lat="-3.0983160" lon="37.3782120">
    <ele>4677.7</ele>
    <time>2026-06-23T06:56:29Z</time>
   </trkpt>
   <trkpt lat="-3.0983260" lon="37.3782090">
    <ele>4677.5</ele>
    <time>2026-06-23T06:56:30Z</time>
   </trkpt>
   <trkpt lat="-3.0983310" lon="37.3782030">
    <ele>4677.4</ele>
    <time>2026-06-23T06:56:31Z</time>
   </trkpt>
   <trkpt lat="-3.0983330" lon="37.3781940">
    <ele>4677.2</ele>
    <time>2026-06-23T06:56:32Z</time>
   </trkpt>
   <trkpt lat="-3.0983430" lon="37.3781870">
    <ele>4676.9</ele>
    <time>2026-06-23T06:56:33Z</time>
   </trkpt>
   <trkpt lat="-3.0983510" lon="37.3781870">
    <ele>4676.7</ele>
    <time>2026-06-23T06:56:34Z</time>
   </trkpt>
   <trkpt lat="-3.0983600" lon="37.3781910">
    <ele>4676.5</ele>
    <time>2026-06-23T06:56:35Z</time>
   </trkpt>
   <trkpt lat="-3.0983690" lon="37.3781960">
    <ele>4676.3</ele>
    <time>2026-06-23T06:56:36Z</time>
   </trkpt>
   <trkpt lat="-3.0983780" lon="37.3782020">
    <ele>4676.1</ele>
    <time>2026-06-23T06:56:37Z</time>
   </trkpt>
   <trkpt lat="-3.0983820" lon="37.3782040">
    <ele>4676.0</ele>
    <time>2026-06-23T06:56:38Z</time>
   </trkpt>
   <trkpt lat="-3.0983880" lon="37.3782000">
    <ele>4675.9</ele>
    <time>2026-06-23T06:56:39Z</time>
   </trkpt>
   <trkpt lat="-3.0983980" lon="37.3781910">
    <ele>4675.6</ele>
    <time>2026-06-23T06:56:40Z</time>
   </trkpt>
   <trkpt lat="-3.0984040" lon="37.3781810">
    <ele>4675.3</ele>
    <time>2026-06-23T06:56:41Z</time>
   </trkpt>
   <trkpt lat="-3.0984130" lon="37.3781810">
    <ele>4675.1</ele>
    <time>2026-06-23T06:56:42Z</time>
   </trkpt>
   <trkpt lat="-3.0984230" lon="37.3781870">
    <ele>4674.9</ele>
    <time>2026-06-23T06:56:43Z</time>
   </trkpt>
   <trkpt lat="-3.0984300" lon="37.3781930">
    <ele>4674.7</ele>
    <time>2026-06-23T06:56:44Z</time>
   </trkpt>
   <trkpt lat="-3.0984330" lon="37.3782010">
    <ele>4674.5</ele>
    <time>2026-06-23T06:56:45Z</time>
   </trkpt>
   <trkpt lat="-3.0984350" lon="37.3782050">
    <ele>4674.4</ele>
    <time>2026-06-23T06:56:46Z</time>
   </trkpt>
   <trkpt lat="-3.0984400" lon="37.3782120">
    <ele>4674.3</ele>
    <time>2026-06-23T06:56:47Z</time>
   </trkpt>
   <trkpt lat="-3.0984470" lon="37.3782150">
    <ele>4674.1</ele>
    <time>2026-06-23T06:56:48Z</time>
   </trkpt>
   <trkpt lat="-3.0984550" lon="37.3782150">
    <ele>4673.9</ele>
    <time>2026-06-23T06:56:49Z</time>
   </trkpt>
   <trkpt lat="-3.0984630" lon="37.3782130">
    <ele>4673.8</ele>
    <time>2026-06-23T06:56:50Z</time>
   </trkpt>
   <trkpt lat="-3.0984710" lon="37.3782180">
    <ele>4673.6</ele>
    <time>2026-06-23T06:56:51Z</time>
   </trkpt>
   <trkpt lat="-3.0984780" lon="37.3782210">
    <ele>4673.4</ele>
    <time>2026-06-23T06:56:52Z</time>
   </trkpt>
   <trkpt lat="-3.0984840" lon="37.3782220">
    <ele>4673.3</ele>
    <time>2026-06-23T06:56:53Z</time>
   </trkpt>
   <trkpt lat="-3.0984880" lon="37.3782190">
    <ele>4673.2</ele>
    <time>2026-06-23T06:56:54Z</time>
   </trkpt>
   <trkpt lat="-3.0984990" lon="37.3782140">
    <ele>4672.9</ele>
    <time>2026-06-23T06:56:55Z</time>
   </trkpt>
   <trkpt lat="-3.0985120" lon="37.3782090">
    <ele>4672.6</ele>
    <time>2026-06-23T06:56:56Z</time>
   </trkpt>
   <trkpt lat="-3.0985150" lon="37.3782120">
    <ele>4672.6</ele>
    <time>2026-06-23T06:56:57Z</time>
   </trkpt>
   <trkpt lat="-3.0985220" lon="37.3782190">
    <ele>4672.4</ele>
    <time>2026-06-23T06:56:58Z</time>
   </trkpt>
   <trkpt lat="-3.0985260" lon="37.3782330">
    <ele>4672.1</ele>
    <time>2026-06-23T06:56:59Z</time>
   </trkpt>
   <trkpt lat="-3.0985320" lon="37.3782330">
    <ele>4672.0</ele>
    <time>2026-06-23T06:57:00Z</time>
   </trkpt>
   <trkpt lat="-3.0985400" lon="37.3782330">
    <ele>4671.8</ele>
    <time>2026-06-23T06:57:01Z</time>
   </trkpt>
   <trkpt lat="-3.0985520" lon="37.3782330">
    <ele>4671.6</ele>
    <time>2026-06-23T06:57:02Z</time>
   </trkpt>
   <trkpt lat="-3.0985620" lon="37.3782300">
    <ele>4671.4</ele>
    <time>2026-06-23T06:57:03Z</time>
   </trkpt>
   <trkpt lat="-3.0985680" lon="37.3782240">
    <ele>4671.3</ele>
    <time>2026-06-23T06:57:04Z</time>
   </trkpt>
   <trkpt lat="-3.0985770" lon="37.3782200">
    <ele>4671.1</ele>
    <time>2026-06-23T06:57:05Z</time>
   </trkpt>
   <trkpt lat="-3.0985850" lon="37.3782240">
    <ele>4671.0</ele>
    <time>2026-06-23T06:57:06Z</time>
   </trkpt>
   <trkpt lat="-3.0985980" lon="37.3782170">
    <ele>4670.7</ele>
    <time>2026-06-23T06:57:07Z</time>
   </trkpt>
   <trkpt lat="-3.0986080" lon="37.3782080">
    <ele>4670.5</ele>
    <time>2026-06-23T06:57:08Z</time>
   </trkpt>
   <trkpt lat="-3.0986150" lon="37.3782050">
    <ele>4670.4</ele>
    <time>2026-06-23T06:57:09Z</time>
   </trkpt>
   <trkpt lat="-3.0986230" lon="37.3782020">
    <ele>4670.3</ele>
    <time>2026-06-23T06:57:10Z</time>
   </trkpt>
   <trkpt lat="-3.0986330" lon="37.3781960">
    <ele>4670.1</ele>
    <time>2026-06-23T06:57:11Z</time>
   </trkpt>
   <trkpt lat="-3.0986410" lon="37.3781870">
    <ele>4670.0</ele>
    <time>2026-06-23T06:57:12Z</time>
   </trkpt>
   <trkpt lat="-3.0986490" lon="37.3781840">
    <ele>4669.9</ele>
    <time>2026-06-23T06:57:13Z</time>
   </trkpt>
   <trkpt lat="-3.0986580" lon="37.3781830">
    <ele>4669.7</ele>
    <time>2026-06-23T06:57:14Z</time>
   </trkpt>
   <trkpt lat="-3.0986680" lon="37.3781850">
    <ele>4669.6</ele>
    <time>2026-06-23T06:57:15Z</time>
   </trkpt>
   <trkpt lat="-3.0986810" lon="37.3781890">
    <ele>4669.4</ele>
    <time>2026-06-23T06:57:16Z</time>
   </trkpt>
   <trkpt lat="-3.0986940" lon="37.3781870">
    <ele>4669.3</ele>
    <time>2026-06-23T06:57:17Z</time>
   </trkpt>
   <trkpt lat="-3.0987010" lon="37.3781810">
    <ele>4669.2</ele>
    <time>2026-06-23T06:57:18Z</time>
   </trkpt>
   <trkpt lat="-3.0987120" lon="37.3781740">
    <ele>4669.1</ele>
    <time>2026-06-23T06:57:19Z</time>
   </trkpt>
   <trkpt lat="-3.0987210" lon="37.3781700">
    <ele>4668.9</ele>
    <time>2026-06-23T06:57:20Z</time>
   </trkpt>
   <trkpt lat="-3.0987290" lon="37.3781650">
    <ele>4668.8</ele>
    <time>2026-06-23T06:57:21Z</time>
   </trkpt>
   <trkpt lat="-3.0987400" lon="37.3781630">
    <ele>4668.7</ele>
    <time>2026-06-23T06:57:22Z</time>
   </trkpt>
   <trkpt lat="-3.0987510" lon="37.3781640">
    <ele>4668.6</ele>
    <time>2026-06-23T06:57:23Z</time>
   </trkpt>
   <trkpt lat="-3.0987640" lon="37.3781690">
    <ele>4668.5</ele>
    <time>2026-06-23T06:57:24Z</time>
   </trkpt>
   <trkpt lat="-3.0987750" lon="37.3781720">
    <ele>4668.4</ele>
    <time>2026-06-23T06:57:25Z</time>
   </trkpt>
   <trkpt lat="-3.0987850" lon="37.3781730">
    <ele>4668.3</ele>
    <time>2026-06-23T06:57:27Z</time>
   </trkpt>
   <trkpt lat="-3.0987910" lon="37.3781680">
    <ele>4668.2</ele>
    <time>2026-06-23T06:57:28Z</time>
   </trkpt>
   <trkpt lat="-3.0987940" lon="37.3781520">
    <ele>4668.1</ele>
    <time>2026-06-23T06:57:29Z</time>
   </trkpt>
   <trkpt lat="-3.0988060" lon="37.3781460">
    <ele>4667.9</ele>
    <time>2026-06-23T06:57:30Z</time>
   </trkpt>
   <trkpt lat="-3.0988100" lon="37.3781430">
    <ele>4667.9</ele>
    <time>2026-06-23T06:57:31Z</time>
   </trkpt>
   <trkpt lat="-3.0988220" lon="37.3781390">
    <ele>4667.8</ele>
    <time>2026-06-23T06:57:32Z</time>
   </trkpt>
   <trkpt lat="-3.0988350" lon="37.3781370">
    <ele>4667.7</ele>
    <time>2026-06-23T06:57:33Z</time>
   </trkpt>
   <trkpt lat="-3.0988470" lon="37.3781330">
    <ele>4667.6</ele>
    <time>2026-06-23T06:57:34Z</time>
   </trkpt>
   <trkpt lat="-3.0988560" lon="37.3781310">
    <ele>4667.5</ele>
    <time>2026-06-23T06:57:35Z</time>
   </trkpt>
   <trkpt lat="-3.0988700" lon="37.3781270">
    <ele>4667.3</ele>
    <time>2026-06-23T06:57:36Z</time>
   </trkpt>
   <trkpt lat="-3.0988820" lon="37.3781270">
    <ele>4667.2</ele>
    <time>2026-06-23T06:57:37Z</time>
   </trkpt>
   <trkpt lat="-3.0988910" lon="37.3781250">
    <ele>4667.2</ele>
    <time>2026-06-23T06:57:38Z</time>
   </trkpt>
   <trkpt lat="-3.0989020" lon="37.3781270">
    <ele>4667.1</ele>
    <time>2026-06-23T06:57:39Z</time>
   </trkpt>
   <trkpt lat="-3.0989130" lon="37.3781280">
    <ele>4667.0</ele>
    <time>2026-06-23T06:57:40Z</time>
   </trkpt>
   <trkpt lat="-3.0989230" lon="37.3781280">
    <ele>4666.9</ele>
    <time>2026-06-23T06:57:41Z</time>
   </trkpt>
   <trkpt lat="-3.0989330" lon="37.3781270">
    <ele>4666.8</ele>
    <time>2026-06-23T06:57:42Z</time>
   </trkpt>
   <trkpt lat="-3.0989450" lon="37.3781270">
    <ele>4666.7</ele>
    <time>2026-06-23T06:57:43Z</time>
   </trkpt>
   <trkpt lat="-3.0989570" lon="37.3781270">
    <ele>4666.6</ele>
    <time>2026-06-23T06:57:44Z</time>
   </trkpt>
   <trkpt lat="-3.0989690" lon="37.3781280">
    <ele>4666.4</ele>
    <time>2026-06-23T06:57:45Z</time>
   </trkpt>
   <trkpt lat="-3.0989800" lon="37.3781280">
    <ele>4666.3</ele>
    <time>2026-06-23T06:57:46Z</time>
   </trkpt>
   <trkpt lat="-3.0989880" lon="37.3781280">
    <ele>4666.2</ele>
    <time>2026-06-23T06:57:47Z</time>
   </trkpt>
   <trkpt lat="-3.0989990" lon="37.3781280">
    <ele>4666.1</ele>
    <time>2026-06-23T06:57:48Z</time>
   </trkpt>
   <trkpt lat="-3.0990060" lon="37.3781220">
    <ele>4666.0</ele>
    <time>2026-06-23T06:57:49Z</time>
   </trkpt>
   <trkpt lat="-3.0990170" lon="37.3781150">
    <ele>4665.9</ele>
    <time>2026-06-23T06:57:50Z</time>
   </trkpt>
   <trkpt lat="-3.0990290" lon="37.3781120">
    <ele>4665.8</ele>
    <time>2026-06-23T06:57:51Z</time>
   </trkpt>
   <trkpt lat="-3.0990380" lon="37.3781140">
    <ele>4665.7</ele>
    <time>2026-06-23T06:57:52Z</time>
   </trkpt>
   <trkpt lat="-3.0990510" lon="37.3781180">
    <ele>4665.6</ele>
    <time>2026-06-23T06:57:53Z</time>
   </trkpt>
   <trkpt lat="-3.0990630" lon="37.3781170">
    <ele>4665.5</ele>
    <time>2026-06-23T06:57:54Z</time>
   </trkpt>
   <trkpt lat="-3.0990740" lon="37.3781140">
    <ele>4665.4</ele>
    <time>2026-06-23T06:57:55Z</time>
   </trkpt>
   <trkpt lat="-3.0990800" lon="37.3781100">
    <ele>4665.4</ele>
    <time>2026-06-23T06:57:56Z</time>
   </trkpt>
   <trkpt lat="-3.0990900" lon="37.3781070">
    <ele>4665.3</ele>
    <time>2026-06-23T06:57:57Z</time>
   </trkpt>
   <trkpt lat="-3.0991000" lon="37.3781050">
    <ele>4665.2</ele>
    <time>2026-06-23T06:57:58Z</time>
   </trkpt>
   <trkpt lat="-3.0991100" lon="37.3781020">
    <ele>4665.2</ele>
    <time>2026-06-23T06:57:59Z</time>
   </trkpt>
   <trkpt lat="-3.0991250" lon="37.3780980">
    <ele>4665.1</ele>
    <time>2026-06-23T06:58:00Z</time>
   </trkpt>
   <trkpt lat="-3.0991360" lon="37.3780950">
    <ele>4665.0</ele>
    <time>2026-06-23T06:58:01Z</time>
   </trkpt>
   <trkpt lat="-3.0991430" lon="37.3780920">
    <ele>4665.0</ele>
    <time>2026-06-23T06:58:02Z</time>
   </trkpt>
   <trkpt lat="-3.0991500" lon="37.3780920">
    <ele>4664.9</ele>
    <time>2026-06-23T06:58:03Z</time>
   </trkpt>
   <trkpt lat="-3.0991600" lon="37.3780900">
    <ele>4664.9</ele>
    <time>2026-06-23T06:58:04Z</time>
   </trkpt>
   <trkpt lat="-3.0991710" lon="37.3780910">
    <ele>4664.8</ele>
    <time>2026-06-23T06:58:05Z</time>
   </trkpt>
   <trkpt lat="-3.0991830" lon="37.3780900">
    <ele>4664.7</ele>
    <time>2026-06-23T06:58:06Z</time>
   </trkpt>
   <trkpt lat="-3.0991950" lon="37.3780860">
    <ele>4664.6</ele>
    <time>2026-06-23T06:58:07Z</time>
   </trkpt>
   <trkpt lat="-3.0992010" lon="37.3780840">
    <ele>4664.6</ele>
    <time>2026-06-23T06:58:08Z</time>
   </trkpt>
   <trkpt lat="-3.0992120" lon="37.3780790">
    <ele>4664.5</ele>
    <time>2026-06-23T06:58:09Z</time>
   </trkpt>
   <trkpt lat="-3.0992230" lon="37.3780740">
    <ele>4664.4</ele>
    <time>2026-06-23T06:58:10Z</time>
   </trkpt>
   <trkpt lat="-3.0992280" lon="37.3780670">
    <ele>4664.4</ele>
    <time>2026-06-23T06:58:11Z</time>
   </trkpt>
   <trkpt lat="-3.0992290" lon="37.3780570">
    <ele>4664.3</ele>
    <time>2026-06-23T06:58:12Z</time>
   </trkpt>
   <trkpt lat="-3.0992300" lon="37.3780460">
    <ele>4664.3</ele>
    <time>2026-06-23T06:58:13Z</time>
   </trkpt>
   <trkpt lat="-3.0992340" lon="37.3780380">
    <ele>4664.2</ele>
    <time>2026-06-23T06:58:14Z</time>
   </trkpt>
   <trkpt lat="-3.0992380" lon="37.3780320">
    <ele>4664.1</ele>
    <time>2026-06-23T06:58:15Z</time>
   </trkpt>
   <trkpt lat="-3.0992440" lon="37.3780220">
    <ele>4664.1</ele>
    <time>2026-06-23T06:58:16Z</time>
   </trkpt>
   <trkpt lat="-3.0992530" lon="37.3780170">
    <ele>4664.0</ele>
    <time>2026-06-23T06:58:17Z</time>
   </trkpt>
   <trkpt lat="-3.0992680" lon="37.3780190">
    <ele>4663.9</ele>
    <time>2026-06-23T06:58:18Z</time>
   </trkpt>
   <trkpt lat="-3.0992790" lon="37.3780240">
    <ele>4663.8</ele>
    <time>2026-06-23T06:58:19Z</time>
   </trkpt>
   <trkpt lat="-3.0992810" lon="37.3780240">
    <ele>4663.8</ele>
    <time>2026-06-23T06:58:20Z</time>
   </trkpt>
   <trkpt lat="-3.0992880" lon="37.3780240">
    <ele>4663.8</ele>
    <time>2026-06-23T06:58:21Z</time>
   </trkpt>
   <trkpt lat="-3.0992990" lon="37.3780210">
    <ele>4663.7</ele>
    <time>2026-06-23T06:58:22Z</time>
   </trkpt>
   <trkpt lat="-3.0993160" lon="37.3780300">
    <ele>4663.6</ele>
    <time>2026-06-23T06:58:23Z</time>
   </trkpt>
   <trkpt lat="-3.0993230" lon="37.3780400">
    <ele>4663.5</ele>
    <time>2026-06-23T06:58:24Z</time>
   </trkpt>
   <trkpt lat="-3.0993300" lon="37.3780480">
    <ele>4663.4</ele>
    <time>2026-06-23T06:58:25Z</time>
   </trkpt>
   <trkpt lat="-3.0993390" lon="37.3780480">
    <ele>4663.4</ele>
    <time>2026-06-23T06:58:26Z</time>
   </trkpt>
   <trkpt lat="-3.0993500" lon="37.3780500">
    <ele>4663.3</ele>
    <time>2026-06-23T06:58:27Z</time>
   </trkpt>
   <trkpt lat="-3.0993600" lon="37.3780560">
    <ele>4663.2</ele>
    <time>2026-06-23T06:58:28Z</time>
   </trkpt>
   <trkpt lat="-3.0993630" lon="37.3780590">
    <ele>4663.2</ele>
    <time>2026-06-23T06:58:29Z</time>
   </trkpt>
   <trkpt lat="-3.0993750" lon="37.3780620">
    <ele>4663.2</ele>
    <time>2026-06-23T06:58:30Z</time>
   </trkpt>
   <trkpt lat="-3.0993840" lon="37.3780630">
    <ele>4663.1</ele>
    <time>2026-06-23T06:58:31Z</time>
   </trkpt>
   <trkpt lat="-3.0993930" lon="37.3780640">
    <ele>4663.1</ele>
    <time>2026-06-23T06:58:32Z</time>
   </trkpt>
   <trkpt lat="-3.0993970" lon="37.3780610">
    <ele>4663.0</ele>
    <time>2026-06-23T06:58:33Z</time>
   </trkpt>
   <trkpt lat="-3.0994070" lon="37.3780610">
    <ele>4663.0</ele>
    <time>2026-06-23T06:58:34Z</time>
   </trkpt>
   <trkpt lat="-3.0994190" lon="37.3780610">
    <ele>4662.9</ele>
    <time>2026-06-23T06:58:35Z</time>
   </trkpt>
   <trkpt lat="-3.0994270" lon="37.3780620">
    <ele>4662.9</ele>
    <time>2026-06-23T06:58:36Z</time>
   </trkpt>
   <trkpt lat="-3.0994370" lon="37.3780620">
    <ele>4662.8</ele>
    <time>2026-06-23T06:58:37Z</time>
   </trkpt>
   <trkpt lat="-3.0994430" lon="37.3780630">
    <ele>4662.8</ele>
    <time>2026-06-23T06:58:38Z</time>
   </trkpt>
   <trkpt lat="-3.0994500" lon="37.3780690">
    <ele>4662.7</ele>
    <time>2026-06-23T06:58:39Z</time>
   </trkpt>
   <trkpt lat="-3.0994590" lon="37.3780730">
    <ele>4662.7</ele>
    <time>2026-06-23T06:58:40Z</time>
   </trkpt>
   <trkpt lat="-3.0994650" lon="37.3780740">
    <ele>4662.6</ele>
    <time>2026-06-23T06:58:41Z</time>
   </trkpt>
   <trkpt lat="-3.0994800" lon="37.3780760">
    <ele>4662.5</ele>
    <time>2026-06-23T06:58:42Z</time>
   </trkpt>
   <trkpt lat="-3.0994870" lon="37.3780740">
    <ele>4662.5</ele>
    <time>2026-06-23T06:58:43Z</time>
   </trkpt>
   <trkpt lat="-3.0994980" lon="37.3780710">
    <ele>4662.4</ele>
    <time>2026-06-23T06:58:44Z</time>
   </trkpt>
   <trkpt lat="-3.0995060" lon="37.3780700">
    <ele>4662.4</ele>
    <time>2026-06-23T06:58:45Z</time>
   </trkpt>
   <trkpt lat="-3.0995150" lon="37.3780720">
    <ele>4662.3</ele>
    <time>2026-06-23T06:58:46Z</time>
   </trkpt>
   <trkpt lat="-3.0995260" lon="37.3780760">
    <ele>4662.3</ele>
    <time>2026-06-23T06:58:47Z</time>
   </trkpt>
   <trkpt lat="-3.0995430" lon="37.3780800">
    <ele>4662.2</ele>
    <time>2026-06-23T06:58:48Z</time>
   </trkpt>
   <trkpt lat="-3.0995470" lon="37.3780780">
    <ele>4662.1</ele>
    <time>2026-06-23T06:58:49Z</time>
   </trkpt>
   <trkpt lat="-3.0995560" lon="37.3780800">
    <ele>4662.1</ele>
    <time>2026-06-23T06:58:50Z</time>
   </trkpt>
   <trkpt lat="-3.0995650" lon="37.3780810">
    <ele>4662.0</ele>
    <time>2026-06-23T06:58:51Z</time>
   </trkpt>
   <trkpt lat="-3.0995760" lon="37.3780820">
    <ele>4661.9</ele>
    <time>2026-06-23T06:58:52Z</time>
   </trkpt>
   <trkpt lat="-3.0995850" lon="37.3780820">
    <ele>4661.9</ele>
    <time>2026-06-23T06:58:53Z</time>
   </trkpt>
   <trkpt lat="-3.0995900" lon="37.3780830">
    <ele>4661.9</ele>
    <time>2026-06-23T06:58:54Z</time>
   </trkpt>
   <trkpt lat="-3.0995970" lon="37.3780830">
    <ele>4661.8</ele>
    <time>2026-06-23T06:58:55Z</time>
   </trkpt>
   <trkpt lat="-3.0996050" lon="37.3780830">
    <ele>4661.7</ele>
    <time>2026-06-23T06:58:56Z</time>
   </trkpt>
   <trkpt lat="-3.0996110" lon="37.3780810">
    <ele>4661.7</ele>
    <time>2026-06-23T06:58:57Z</time>
   </trkpt>
   <trkpt lat="-3.0996230" lon="37.3780830">
    <ele>4661.6</ele>
    <time>2026-06-23T06:58:58Z</time>
   </trkpt>
   <trkpt lat="-3.0996330" lon="37.3780810">
    <ele>4661.5</ele>
    <time>2026-06-23T06:58:59Z</time>
   </trkpt>
   <trkpt lat="-3.0996440" lon="37.3780780">
    <ele>4661.4</ele>
    <time>2026-06-23T06:59:00Z</time>
   </trkpt>
   <trkpt lat="-3.0996540" lon="37.3780790">
    <ele>4661.3</ele>
    <time>2026-06-23T06:59:01Z</time>
   </trkpt>
   <trkpt lat="-3.0996610" lon="37.3780790">
    <ele>4661.3</ele>
    <time>2026-06-23T06:59:02Z</time>
   </trkpt>
   <trkpt lat="-3.0996680" lon="37.3780770">
    <ele>4661.2</ele>
    <time>2026-06-23T06:59:03Z</time>
   </trkpt>
   <trkpt lat="-3.0996780" lon="37.3780790">
    <ele>4661.1</ele>
    <time>2026-06-23T06:59:04Z</time>
   </trkpt>
   <trkpt lat="-3.0996860" lon="37.3780860">
    <ele>4661.0</ele>
    <time>2026-06-23T06:59:05Z</time>
   </trkpt>
   <trkpt lat="-3.0996920" lon="37.3780900">
    <ele>4660.9</ele>
    <time>2026-06-23T06:59:06Z</time>
   </trkpt>
   <trkpt lat="-3.0996970" lon="37.3780940">
    <ele>4660.8</ele>
    <time>2026-06-23T06:59:07Z</time>
   </trkpt>
   <trkpt lat="-3.0997040" lon="37.3780980">
    <ele>4660.7</ele>
    <time>2026-06-23T06:59:08Z</time>
   </trkpt>
   <trkpt lat="-3.0997070" lon="37.3781000">
    <ele>4660.7</ele>
    <time>2026-06-23T06:59:09Z</time>
   </trkpt>
   <trkpt lat="-3.0997090" lon="37.3781010">
    <ele>4660.7</ele>
    <time>2026-06-23T06:59:10Z</time>
   </trkpt>
   <trkpt lat="-3.0997100" lon="37.3781020">
    <ele>4660.7</ele>
    <time>2026-06-23T06:59:11Z</time>
   </trkpt>
   <trkpt lat="-3.0997130" lon="37.3781020">
    <ele>4660.6</ele>
    <time>2026-06-23T06:59:12Z</time>
   </trkpt>
   <trkpt lat="-3.0997170" lon="37.3781100">
    <ele>4660.5</ele>
    <time>2026-06-23T06:59:13Z</time>
   </trkpt>
   <trkpt lat="-3.0997220" lon="37.3781120">
    <ele>4660.4</ele>
    <time>2026-06-23T06:59:14Z</time>
   </trkpt>
   <trkpt lat="-3.0997260" lon="37.3781160">
    <ele>4660.4</ele>
    <time>2026-06-23T06:59:15Z</time>
   </trkpt>
   <trkpt lat="-3.0997320" lon="37.3781230">
    <ele>4660.3</ele>
    <time>2026-06-23T06:59:16Z</time>
   </trkpt>
   <trkpt lat="-3.0997340" lon="37.3781250">
    <ele>4660.2</ele>
    <time>2026-06-23T06:59:17Z</time>
   </trkpt>
   <trkpt lat="-3.0997410" lon="37.3781250">
    <ele>4660.1</ele>
    <time>2026-06-23T06:59:18Z</time>
   </trkpt>
   <trkpt lat="-3.0997500" lon="37.3781250">
    <ele>4660.0</ele>
    <time>2026-06-23T06:59:19Z</time>
   </trkpt>
   <trkpt lat="-3.0997590" lon="37.3781330">
    <ele>4659.8</ele>
    <time>2026-06-23T06:59:20Z</time>
   </trkpt>
   <trkpt lat="-3.0997600" lon="37.3781420">
    <ele>4659.7</ele>
    <time>2026-06-23T06:59:21Z</time>
   </trkpt>
   <trkpt lat="-3.0997620" lon="37.3781510">
    <ele>4659.6</ele>
    <time>2026-06-23T06:59:22Z</time>
   </trkpt>
   <trkpt lat="-3.0997670" lon="37.3781550">
    <ele>4659.5</ele>
    <time>2026-06-23T06:59:23Z</time>
   </trkpt>
   <trkpt lat="-3.0997730" lon="37.3781570">
    <ele>4659.4</ele>
    <time>2026-06-23T06:59:24Z</time>
   </trkpt>
   <trkpt lat="-3.0997820" lon="37.3781600">
    <ele>4659.2</ele>
    <time>2026-06-23T06:59:25Z</time>
   </trkpt>
   <trkpt lat="-3.0997890" lon="37.3781660">
    <ele>4659.1</ele>
    <time>2026-06-23T06:59:26Z</time>
   </trkpt>
   <trkpt lat="-3.0997930" lon="37.3781760">
    <ele>4658.9</ele>
    <time>2026-06-23T06:59:27Z</time>
   </trkpt>
   <trkpt lat="-3.0997960" lon="37.3781800">
    <ele>4658.9</ele>
    <time>2026-06-23T06:59:28Z</time>
   </trkpt>
   <trkpt lat="-3.0998070" lon="37.3781830">
    <ele>4658.7</ele>
    <time>2026-06-23T06:59:29Z</time>
   </trkpt>
   <trkpt lat="-3.0998140" lon="37.3781830">
    <ele>4658.6</ele>
    <time>2026-06-23T06:59:30Z</time>
   </trkpt>
   <trkpt lat="-3.0998250" lon="37.3781830">
    <ele>4658.4</ele>
    <time>2026-06-23T06:59:31Z</time>
   </trkpt>
   <trkpt lat="-3.0998350" lon="37.3781840">
    <ele>4658.3</ele>
    <time>2026-06-23T06:59:33Z</time>
   </trkpt>
   <trkpt lat="-3.0998440" lon="37.3781870">
    <ele>4658.1</ele>
    <time>2026-06-23T06:59:34Z</time>
   </trkpt>
   <trkpt lat="-3.0998530" lon="37.3781880">
    <ele>4658.0</ele>
    <time>2026-06-23T06:59:35Z</time>
   </trkpt>
   <trkpt lat="-3.0998610" lon="37.3781910">
    <ele>4657.8</ele>
    <time>2026-06-23T06:59:36Z</time>
   </trkpt>
   <trkpt lat="-3.0998720" lon="37.3781930">
    <ele>4657.7</ele>
    <time>2026-06-23T06:59:37Z</time>
   </trkpt>
   <trkpt lat="-3.0998800" lon="37.3781970">
    <ele>4657.5</ele>
    <time>2026-06-23T06:59:38Z</time>
   </trkpt>
   <trkpt lat="-3.0998920" lon="37.3782020">
    <ele>4657.3</ele>
    <time>2026-06-23T06:59:39Z</time>
   </trkpt>
   <trkpt lat="-3.0999010" lon="37.3782040">
    <ele>4657.2</ele>
    <time>2026-06-23T06:59:40Z</time>
   </trkpt>
   <trkpt lat="-3.0999100" lon="37.3782030">
    <ele>4657.1</ele>
    <time>2026-06-23T06:59:41Z</time>
   </trkpt>
   <trkpt lat="-3.0999190" lon="37.3782000">
    <ele>4656.9</ele>
    <time>2026-06-23T06:59:42Z</time>
   </trkpt>
   <trkpt lat="-3.0999250" lon="37.3782020">
    <ele>4656.8</ele>
    <time>2026-06-23T06:59:43Z</time>
   </trkpt>
   <trkpt lat="-3.0999310" lon="37.3782070">
    <ele>4656.7</ele>
    <time>2026-06-23T06:59:44Z</time>
   </trkpt>
   <trkpt lat="-3.0999370" lon="37.3782140">
    <ele>4656.6</ele>
    <time>2026-06-23T06:59:45Z</time>
   </trkpt>
   <trkpt lat="-3.0999460" lon="37.3782190">
    <ele>4656.4</ele>
    <time>2026-06-23T06:59:46Z</time>
   </trkpt>
   <trkpt lat="-3.0999550" lon="37.3782200">
    <ele>4656.3</ele>
    <time>2026-06-23T06:59:47Z</time>
   </trkpt>
   <trkpt lat="-3.0999660" lon="37.3782210">
    <ele>4656.1</ele>
    <time>2026-06-23T06:59:48Z</time>
   </trkpt>
   <trkpt lat="-3.0999750" lon="37.3782210">
    <ele>4656.0</ele>
    <time>2026-06-23T06:59:49Z</time>
   </trkpt>
   <trkpt lat="-3.0999830" lon="37.3782230">
    <ele>4655.8</ele>
    <time>2026-06-23T06:59:50Z</time>
   </trkpt>
   <trkpt lat="-3.0999890" lon="37.3782260">
    <ele>4655.7</ele>
    <time>2026-06-23T06:59:51Z</time>
   </trkpt>
   <trkpt lat="-3.0999970" lon="37.3782310">
    <ele>4655.6</ele>
    <time>2026-06-23T06:59:52Z</time>
   </trkpt>
   <trkpt lat="-3.1000020" lon="37.3782330">
    <ele>4655.5</ele>
    <time>2026-06-23T06:59:53Z</time>
   </trkpt>
   <trkpt lat="-3.1000100" lon="37.3782310">
    <ele>4655.4</ele>
    <time>2026-06-23T06:59:54Z</time>
   </trkpt>
   <trkpt lat="-3.1000190" lon="37.3782290">
    <ele>4655.2</ele>
    <time>2026-06-23T06:59:55Z</time>
   </trkpt>
   <trkpt lat="-3.1000260" lon="37.3782270">
    <ele>4655.1</ele>
    <time>2026-06-23T06:59:56Z</time>
   </trkpt>
   <trkpt lat="-3.1000360" lon="37.3782220">
    <ele>4654.9</ele>
    <time>2026-06-23T06:59:57Z</time>
   </trkpt>
   <trkpt lat="-3.1000420" lon="37.3782180">
    <ele>4654.8</ele>
    <time>2026-06-23T06:59:58Z</time>
   </trkpt>
   <trkpt lat="-3.1000520" lon="37.3782230">
    <ele>4654.6</ele>
    <time>2026-06-23T06:59:59Z</time>
   </trkpt>
   <trkpt lat="-3.1000640" lon="37.3782280">
    <ele>4654.4</ele>
    <time>2026-06-23T07:00:00Z</time>
   </trkpt>
   <trkpt lat="-3.1000680" lon="37.3782260">
    <ele>4654.3</ele>
    <time>2026-06-23T07:00:01Z</time>
   </trkpt>
   <trkpt lat="-3.1000740" lon="37.3782170">
    <ele>4654.1</ele>
    <time>2026-06-23T07:00:02Z</time>
   </trkpt>
   <trkpt lat="-3.1000940" lon="37.3782180">
    <ele>4653.7</ele>
    <time>2026-06-23T07:00:03Z</time>
   </trkpt>
   <trkpt lat="-3.1001020" lon="37.3782240">
    <ele>4653.6</ele>
    <time>2026-06-23T07:00:04Z</time>
   </trkpt>
   <trkpt lat="-3.1001070" lon="37.3782260">
    <ele>4653.5</ele>
    <time>2026-06-23T07:00:05Z</time>
   </trkpt>
   <trkpt lat="-3.1001090" lon="37.3782210">
    <ele>4653.4</ele>
    <time>2026-06-23T07:00:06Z</time>
   </trkpt>
   <trkpt lat="-3.1001130" lon="37.3782200">
    <ele>4653.3</ele>
    <time>2026-06-23T07:00:07Z</time>
   </trkpt>
   <trkpt lat="-3.1001210" lon="37.3782260">
    <ele>4653.1</ele>
    <time>2026-06-23T07:00:08Z</time>
   </trkpt>
   <trkpt lat="-3.1001300" lon="37.3782340">
    <ele>4652.9</ele>
    <time>2026-06-23T07:00:09Z</time>
   </trkpt>
   <trkpt lat="-3.1001350" lon="37.3782370">
    <ele>4652.8</ele>
    <time>2026-06-23T07:00:10Z</time>
   </trkpt>
   <trkpt lat="-3.1001360" lon="37.3782420">
    <ele>4652.7</ele>
    <time>2026-06-23T07:00:11Z</time>
   </trkpt>
   <trkpt lat="-3.1001440" lon="37.3782490">
    <ele>4652.5</ele>
    <time>2026-06-23T07:00:12Z</time>
   </trkpt>
   <trkpt lat="-3.1001510" lon="37.3782500">
    <ele>4652.3</ele>
    <time>2026-06-23T07:00:13Z</time>
   </trkpt>
   <trkpt lat="-3.1001620" lon="37.3782530">
    <ele>4652.1</ele>
    <time>2026-06-23T07:00:14Z</time>
   </trkpt>
   <trkpt lat="-3.1001620" lon="37.3782520">
    <ele>4652.1</ele>
    <time>2026-06-23T07:00:15Z</time>
   </trkpt>
   <trkpt lat="-3.1001680" lon="37.3782570">
    <ele>4652.0</ele>
    <time>2026-06-23T07:00:16Z</time>
   </trkpt>
   <trkpt lat="-3.1001720" lon="37.3782620">
    <ele>4651.9</ele>
    <time>2026-06-23T07:00:17Z</time>
   </trkpt>
   <trkpt lat="-3.1001760" lon="37.3782630">
    <ele>4651.8</ele>
    <time>2026-06-23T07:00:18Z</time>
   </trkpt>
   <trkpt lat="-3.1001830" lon="37.3782670">
    <ele>4651.6</ele>
    <time>2026-06-23T07:00:19Z</time>
   </trkpt>
   <trkpt lat="-3.1001940" lon="37.3782710">
    <ele>4651.4</ele>
    <time>2026-06-23T07:00:20Z</time>
   </trkpt>
   <trkpt lat="-3.1002030" lon="37.3782700">
    <ele>4651.2</ele>
    <time>2026-06-23T07:00:21Z</time>
   </trkpt>
   <trkpt lat="-3.1002060" lon="37.3782730">
    <ele>4651.2</ele>
    <time>2026-06-23T07:00:22Z</time>
   </trkpt>
   <trkpt lat="-3.1002190" lon="37.3782780">
    <ele>4650.9</ele>
    <time>2026-06-23T07:00:23Z</time>
   </trkpt>
   <trkpt lat="-3.1002220" lon="37.3782760">
    <ele>4650.9</ele>
    <time>2026-06-23T07:00:24Z</time>
   </trkpt>
   <trkpt lat="-3.1002300" lon="37.3782800">
    <ele>4650.7</ele>
    <time>2026-06-23T07:00:25Z</time>
   </trkpt>
   <trkpt lat="-3.1002350" lon="37.3782830">
    <ele>4650.6</ele>
    <time>2026-06-23T07:00:26Z</time>
   </trkpt>
   <trkpt lat="-3.1002380" lon="37.3782860">
    <ele>4650.5</ele>
    <time>2026-06-23T07:00:27Z</time>
   </trkpt>
   <trkpt lat="-3.1002490" lon="37.3782910">
    <ele>4650.3</ele>
    <time>2026-06-23T07:00:28Z</time>
   </trkpt>
   <trkpt lat="-3.1002560" lon="37.3782940">
    <ele>4650.2</ele>
    <time>2026-06-23T07:00:29Z</time>
   </trkpt>
   <trkpt lat="-3.1002570" lon="37.3782940">
    <ele>4650.2</ele>
    <time>2026-06-23T07:00:30Z</time>
   </trkpt>
   <trkpt lat="-3.1002640" lon="37.3782940">
    <ele>4650.1</ele>
    <time>2026-06-23T07:00:31Z</time>
   </trkpt>
   <trkpt lat="-3.1002730" lon="37.3782930">
    <ele>4649.9</ele>
    <time>2026-06-23T07:00:32Z</time>
   </trkpt>
   <trkpt lat="-3.1002820" lon="37.3782910">
    <ele>4649.8</ele>
    <time>2026-06-23T07:00:33Z</time>
   </trkpt>
   <trkpt lat="-3.1002900" lon="37.3782900">
    <ele>4649.7</ele>
    <time>2026-06-23T07:00:34Z</time>
   </trkpt>
   <trkpt lat="-3.1002880" lon="37.3782950">
    <ele>4649.6</ele>
    <time>2026-06-23T07:00:35Z</time>
   </trkpt>
   <trkpt lat="-3.1003010" lon="37.3782960">
    <ele>4649.4</ele>
    <time>2026-06-23T07:00:36Z</time>
   </trkpt>
   <trkpt lat="-3.1003150" lon="37.3783010">
    <ele>4649.2</ele>
    <time>2026-06-23T07:00:37Z</time>
   </trkpt>
   <trkpt lat="-3.1003200" lon="37.3783020">
    <ele>4649.2</ele>
    <time>2026-06-23T07:00:38Z</time>
   </trkpt>
   <trkpt lat="-3.1003270" lon="37.3783010">
    <ele>4649.1</ele>
    <time>2026-06-23T07:00:39Z</time>
   </trkpt>
   <trkpt lat="-3.1003360" lon="37.3783020">
    <ele>4649.0</ele>
    <time>2026-06-23T07:00:40Z</time>
   </trkpt>
   <trkpt lat="-3.1003470" lon="37.3783030">
    <ele>4648.8</ele>
    <time>2026-06-23T07:00:41Z</time>
   </trkpt>
   <trkpt lat="-3.1003560" lon="37.3783050">
    <ele>4648.7</ele>
    <time>2026-06-23T07:00:42Z</time>
   </trkpt>
   <trkpt lat="-3.1003600" lon="37.3783000">
    <ele>4648.7</ele>
    <time>2026-06-23T07:00:43Z</time>
   </trkpt>
   <trkpt lat="-3.1003670" lon="37.3782940">
    <ele>4648.6</ele>
    <time>2026-06-23T07:00:44Z</time>
   </trkpt>
   <trkpt lat="-3.1003800" lon="37.3782940">
    <ele>4648.4</ele>
    <time>2026-06-23T07:00:45Z</time>
   </trkpt>
   <trkpt lat="-3.1003890" lon="37.3782990">
    <ele>4648.3</ele>
    <time>2026-06-23T07:00:46Z</time>
   </trkpt>
   <trkpt lat="-3.1003980" lon="37.3783010">
    <ele>4648.2</ele>
    <time>2026-06-23T07:00:47Z</time>
   </trkpt>
   <trkpt lat="-3.1004150" lon="37.3782980">
    <ele>4648.1</ele>
    <time>2026-06-23T07:00:48Z</time>
   </trkpt>
   <trkpt lat="-3.1004260" lon="37.3782960">
    <ele>4647.9</ele>
    <time>2026-06-23T07:00:49Z</time>
   </trkpt>
   <trkpt lat="-3.1004350" lon="37.3782960">
    <ele>4647.9</ele>
    <time>2026-06-23T07:00:50Z</time>
   </trkpt>
   <trkpt lat="-3.1004460" lon="37.3782970">
    <ele>4647.8</ele>
    <time>2026-06-23T07:00:51Z</time>
   </trkpt>
   <trkpt lat="-3.1004540" lon="37.3782980">
    <ele>4647.7</ele>
    <time>2026-06-23T07:00:52Z</time>
   </trkpt>
   <trkpt lat="-3.1004610" lon="37.3782960">
    <ele>4647.6</ele>
    <time>2026-06-23T07:00:53Z</time>
   </trkpt>
   <trkpt lat="-3.1004670" lon="37.3782930">
    <ele>4647.6</ele>
    <time>2026-06-23T07:00:54Z</time>
   </trkpt>
   <trkpt lat="-3.1004740" lon="37.3782910">
    <ele>4647.5</ele>
    <time>2026-06-23T07:00:55Z</time>
   </trkpt>
   <trkpt lat="-3.1004780" lon="37.3782890">
    <ele>4647.5</ele>
    <time>2026-06-23T07:00:56Z</time>
   </trkpt>
   <trkpt lat="-3.1004790" lon="37.3782900">
    <ele>4647.5</ele>
    <time>2026-06-23T07:00:57Z</time>
   </trkpt>
   <trkpt lat="-3.1004920" lon="37.3782990">
    <ele>4647.3</ele>
    <time>2026-06-23T07:00:58Z</time>
   </trkpt>
   <trkpt lat="-3.1004980" lon="37.3783010">
    <ele>4647.3</ele>
    <time>2026-06-23T07:00:59Z</time>
   </trkpt>
   <trkpt lat="-3.1005060" lon="37.3782980">
    <ele>4647.2</ele>
    <time>2026-06-23T07:01:00Z</time>
   </trkpt>
   <trkpt lat="-3.1005130" lon="37.3782980">
    <ele>4647.1</ele>
    <time>2026-06-23T07:01:01Z</time>
   </trkpt>
   <trkpt lat="-3.1005210" lon="37.3783060">
    <ele>4647.0</ele>
    <time>2026-06-23T07:01:02Z</time>
   </trkpt>
   <trkpt lat="-3.1005250" lon="37.3783150">
    <ele>4646.9</ele>
    <time>2026-06-23T07:01:03Z</time>
   </trkpt>
   <trkpt lat="-3.1005270" lon="37.3783170">
    <ele>4646.9</ele>
    <time>2026-06-23T07:01:04Z</time>
   </trkpt>
   <trkpt lat="-3.1005290" lon="37.3783190">
    <ele>4646.9</ele>
    <time>2026-06-23T07:01:05Z</time>
   </trkpt>
   <trkpt lat="-3.1005370" lon="37.3783210">
    <ele>4646.8</ele>
    <time>2026-06-23T07:01:06Z</time>
   </trkpt>
   <trkpt lat="-3.1005440" lon="37.3783200">
    <ele>4646.7</ele>
    <time>2026-06-23T07:01:07Z</time>
   </trkpt>
   <trkpt lat="-3.1005480" lon="37.3783180">
    <ele>4646.7</ele>
    <time>2026-06-23T07:01:08Z</time>
   </trkpt>
   <trkpt lat="-3.1005510" lon="37.3783190">
    <ele>4646.7</ele>
    <time>2026-06-23T07:01:09Z</time>
   </trkpt>
   <trkpt lat="-3.1005580" lon="37.3783220">
    <ele>4646.6</ele>
    <time>2026-06-23T07:01:10Z</time>
   </trkpt>
   <trkpt lat="-3.1005610" lon="37.3783220">
    <ele>4646.6</ele>
    <time>2026-06-23T07:01:11Z</time>
   </trkpt>
   <trkpt lat="-3.1005680" lon="37.3783220">
    <ele>4646.5</ele>
    <time>2026-06-23T07:01:12Z</time>
   </trkpt>
   <trkpt lat="-3.1005760" lon="37.3783240">
    <ele>4646.4</ele>
    <time>2026-06-23T07:01:13Z</time>
   </trkpt>
   <trkpt lat="-3.1005880" lon="37.3783230">
    <ele>4646.3</ele>
    <time>2026-06-23T07:01:14Z</time>
   </trkpt>
   <trkpt lat="-3.1005910" lon="37.3783270">
    <ele>4646.3</ele>
    <time>2026-06-23T07:01:15Z</time>
   </trkpt>
   <trkpt lat="-3.1005960" lon="37.3783330">
    <ele>4646.2</ele>
    <time>2026-06-23T07:01:16Z</time>
   </trkpt>
   <trkpt lat="-3.1006090" lon="37.3783420">
    <ele>4646.0</ele>
    <time>2026-06-23T07:01:17Z</time>
   </trkpt>
   <trkpt lat="-3.1006150" lon="37.3783430">
    <ele>4645.9</ele>
    <time>2026-06-23T07:01:18Z</time>
   </trkpt>
   <trkpt lat="-3.1006220" lon="37.3783410">
    <ele>4645.9</ele>
    <time>2026-06-23T07:01:19Z</time>
   </trkpt>
   <trkpt lat="-3.1006320" lon="37.3783390">
    <ele>4645.7</ele>
    <time>2026-06-23T07:01:20Z</time>
   </trkpt>
   <trkpt lat="-3.1006390" lon="37.3783350">
    <ele>4645.6</ele>
    <time>2026-06-23T07:01:21Z</time>
   </trkpt>
   <trkpt lat="-3.1006450" lon="37.3783320">
    <ele>4645.6</ele>
    <time>2026-06-23T07:01:22Z</time>
   </trkpt>
   <trkpt lat="-3.1006520" lon="37.3783300">
    <ele>4645.5</ele>
    <time>2026-06-23T07:01:23Z</time>
   </trkpt>
   <trkpt lat="-3.1006630" lon="37.3783320">
    <ele>4645.3</ele>
    <time>2026-06-23T07:01:24Z</time>
   </trkpt>
   <trkpt lat="-3.1006700" lon="37.3783330">
    <ele>4645.2</ele>
    <time>2026-06-23T07:01:25Z</time>
   </trkpt>
   <trkpt lat="-3.1006790" lon="37.3783360">
    <ele>4645.1</ele>
    <time>2026-06-23T07:01:26Z</time>
   </trkpt>
   <trkpt lat="-3.1006830" lon="37.3783430">
    <ele>4645.0</ele>
    <time>2026-06-23T07:01:27Z</time>
   </trkpt>
   <trkpt lat="-3.1006910" lon="37.3783510">
    <ele>4644.9</ele>
    <time>2026-06-23T07:01:28Z</time>
   </trkpt>
   <trkpt lat="-3.1006990" lon="37.3783490">
    <ele>4644.8</ele>
    <time>2026-06-23T07:01:29Z</time>
   </trkpt>
   <trkpt lat="-3.1007140" lon="37.3783470">
    <ele>4644.6</ele>
    <time>2026-06-23T07:01:30Z</time>
   </trkpt>
   <trkpt lat="-3.1007200" lon="37.3783500">
    <ele>4644.5</ele>
    <time>2026-06-23T07:01:31Z</time>
   </trkpt>
   <trkpt lat="-3.1007240" lon="37.3783570">
    <ele>4644.4</ele>
    <time>2026-06-23T07:01:32Z</time>
   </trkpt>
   <trkpt lat="-3.1007270" lon="37.3783620">
    <ele>4644.3</ele>
    <time>2026-06-23T07:01:33Z</time>
   </trkpt>
   <trkpt lat="-3.1007320" lon="37.3783740">
    <ele>4644.1</ele>
    <time>2026-06-23T07:01:34Z</time>
   </trkpt>
   <trkpt lat="-3.1007300" lon="37.3783810">
    <ele>4644.0</ele>
    <time>2026-06-23T07:01:35Z</time>
   </trkpt>
   <trkpt lat="-3.1007250" lon="37.3783890">
    <ele>4643.9</ele>
    <time>2026-06-23T07:01:36Z</time>
   </trkpt>
   <trkpt lat="-3.1007260" lon="37.3783940">
    <ele>4643.8</ele>
    <time>2026-06-23T07:01:37Z</time>
   </trkpt>
   <trkpt lat="-3.1007330" lon="37.3783870">
    <ele>4643.7</ele>
    <time>2026-06-23T07:01:39Z</time>
   </trkpt>
   <trkpt lat="-3.1007470" lon="37.3783820">
    <ele>4643.5</ele>
    <time>2026-06-23T07:01:40Z</time>
   </trkpt>
   <trkpt lat="-3.1007550" lon="37.3783800">
    <ele>4643.3</ele>
    <time>2026-06-23T07:01:41Z</time>
   </trkpt>
   <trkpt lat="-3.1007610" lon="37.3783780">
    <ele>4643.3</ele>
    <time>2026-06-23T07:01:42Z</time>
   </trkpt>
   <trkpt lat="-3.1007670" lon="37.3783790">
    <ele>4643.2</ele>
    <time>2026-06-23T07:01:43Z</time>
   </trkpt>
   <trkpt lat="-3.1007720" lon="37.3783800">
    <ele>4643.1</ele>
    <time>2026-06-23T07:01:44Z</time>
   </trkpt>
   <trkpt lat="-3.1007770" lon="37.3783820">
    <ele>4643.0</ele>
    <time>2026-06-23T07:01:45Z</time>
   </trkpt>
   <trkpt lat="-3.1007810" lon="37.3783850">
    <ele>4642.9</ele>
    <time>2026-06-23T07:01:46Z</time>
   </trkpt>
   <trkpt lat="-3.1007840" lon="37.3783890">
    <ele>4642.9</ele>
    <time>2026-06-23T07:01:47Z</time>
   </trkpt>
   <trkpt lat="-3.1007910" lon="37.3783920">
    <ele>4642.8</ele>
    <time>2026-06-23T07:01:48Z</time>
   </trkpt>
   <trkpt lat="-3.1007890" lon="37.3783900">
    <ele>4642.7</ele>
    <time>2026-06-23T07:01:49Z</time>
   </trkpt>
   <trkpt lat="-3.1007900" lon="37.3783800">
    <ele>4642.6</ele>
    <time>2026-06-23T07:01:50Z</time>
   </trkpt>
   <trkpt lat="-3.1007910" lon="37.3783730">
    <ele>4642.5</ele>
    <time>2026-06-23T07:01:51Z</time>
   </trkpt>
   <trkpt lat="-3.1007940" lon="37.3783710">
    <ele>4642.4</ele>
    <time>2026-06-23T07:01:52Z</time>
   </trkpt>
   <trkpt lat="-3.1007930" lon="37.3783670">
    <ele>4642.3</ele>
    <time>2026-06-23T07:01:53Z</time>
   </trkpt>
   <trkpt lat="-3.1007950" lon="37.3783650">
    <ele>4642.3</ele>
    <time>2026-06-23T07:01:54Z</time>
   </trkpt>
   <trkpt lat="-3.1007970" lon="37.3783610">
    <ele>4642.2</ele>
    <time>2026-06-23T07:01:55Z</time>
   </trkpt>
   <trkpt lat="-3.1007980" lon="37.3783550">
    <ele>4642.1</ele>
    <time>2026-06-23T07:01:56Z</time>
   </trkpt>
   <trkpt lat="-3.1008020" lon="37.3783520">
    <ele>4642.0</ele>
    <time>2026-06-23T07:01:57Z</time>
   </trkpt>
   <trkpt lat="-3.1008070" lon="37.3783500">
    <ele>4641.9</ele>
    <time>2026-06-23T07:01:58Z</time>
   </trkpt>
   <trkpt lat="-3.1008090" lon="37.3783490">
    <ele>4641.9</ele>
    <time>2026-06-23T07:01:59Z</time>
   </trkpt>
   <trkpt lat="-3.1008120" lon="37.3783470">
    <ele>4641.8</ele>
    <time>2026-06-23T07:02:00Z</time>
   </trkpt>
   <trkpt lat="-3.1008130" lon="37.3783460">
    <ele>4641.8</ele>
    <time>2026-06-23T07:02:01Z</time>
   </trkpt>
   <trkpt lat="-3.1008160" lon="37.3783450">
    <ele>4641.8</ele>
    <time>2026-06-23T07:02:02Z</time>
   </trkpt>
   <trkpt lat="-3.1008200" lon="37.3783410">
    <ele>4641.7</ele>
    <time>2026-06-23T07:02:03Z</time>
   </trkpt>
   <trkpt lat="-3.1008210" lon="37.3783420">
    <ele>4641.7</ele>
    <time>2026-06-23T07:02:04Z</time>
   </trkpt>
   <trkpt lat="-3.1008230" lon="37.3783400">
    <ele>4641.6</ele>
    <time>2026-06-23T07:02:05Z</time>
   </trkpt>
   <trkpt lat="-3.1008240" lon="37.3783390">
    <ele>4641.6</ele>
    <time>2026-06-23T07:02:06Z</time>
   </trkpt>
   <trkpt lat="-3.1008260" lon="37.3783350">
    <ele>4641.5</ele>
    <time>2026-06-23T07:02:07Z</time>
   </trkpt>
   <trkpt lat="-3.1008300" lon="37.3783320">
    <ele>4641.4</ele>
    <time>2026-06-23T07:02:08Z</time>
   </trkpt>
   <trkpt lat="-3.1008290" lon="37.3783320">
    <ele>4641.4</ele>
    <time>2026-06-23T07:02:09Z</time>
   </trkpt>
   <trkpt lat="-3.1008320" lon="37.3783330">
    <ele>4641.3</ele>
    <time>2026-06-23T07:02:10Z</time>
   </trkpt>
   <trkpt lat="-3.1008370" lon="37.3783330">
    <ele>4641.3</ele>
    <time>2026-06-23T07:02:11Z</time>
   </trkpt>
   <trkpt lat="-3.1008320" lon="37.3783330">
    <ele>4641.2</ele>
    <time>2026-06-23T07:02:12Z</time>
   </trkpt>
   <trkpt lat="-3.1008360" lon="37.3783300">
    <ele>4641.1</ele>
    <time>2026-06-23T07:02:13Z</time>
   </trkpt>
   <trkpt lat="-3.1008390" lon="37.3783250">
    <ele>4641.0</ele>
    <time>2026-06-23T07:02:14Z</time>
   </trkpt>
   <trkpt lat="-3.1008390" lon="37.3783250">
    <ele>4641.0</ele>
    <time>2026-06-23T07:02:15Z</time>
   </trkpt>
   <trkpt lat="-3.1008400" lon="37.3783220">
    <ele>4640.9</ele>
    <time>2026-06-23T07:02:16Z</time>
   </trkpt>
   <trkpt lat="-3.1008470" lon="37.3783160">
    <ele>4640.8</ele>
    <time>2026-06-23T07:02:17Z</time>
   </trkpt>
   <trkpt lat="-3.1008470" lon="37.3783140">
    <ele>4640.7</ele>
    <time>2026-06-23T07:02:18Z</time>
   </trkpt>
   <trkpt lat="-3.1008540" lon="37.3783120">
    <ele>4640.6</ele>
    <time>2026-06-23T07:02:19Z</time>
   </trkpt>
   <trkpt lat="-3.1008640" lon="37.3783120">
    <ele>4640.4</ele>
    <time>2026-06-23T07:02:20Z</time>
   </trkpt>
   <trkpt lat="-3.1008670" lon="37.3783110">
    <ele>4640.4</ele>
    <time>2026-06-23T07:02:21Z</time>
   </trkpt>
   <trkpt lat="-3.1008710" lon="37.3783140">
    <ele>4640.3</ele>
    <time>2026-06-23T07:02:22Z</time>
   </trkpt>
   <trkpt lat="-3.1008750" lon="37.3783180">
    <ele>4640.2</ele>
    <time>2026-06-23T07:02:23Z</time>
   </trkpt>
   <trkpt lat="-3.1008790" lon="37.3783180">
    <ele>4640.1</ele>
    <time>2026-06-23T07:02:24Z</time>
   </trkpt>
   <trkpt lat="-3.1008840" lon="37.3783240">
    <ele>4639.9</ele>
    <time>2026-06-23T07:02:25Z</time>
   </trkpt>
   <trkpt lat="-3.1008860" lon="37.3783280">
    <ele>4639.8</ele>
    <time>2026-06-23T07:02:26Z</time>
   </trkpt>
   <trkpt lat="-3.1008910" lon="37.3783280">
    <ele>4639.8</ele>
    <time>2026-06-23T07:02:27Z</time>
   </trkpt>
   <trkpt lat="-3.1008980" lon="37.3783290">
    <ele>4639.6</ele>
    <time>2026-06-23T07:02:28Z</time>
   </trkpt>
   <trkpt lat="-3.1009060" lon="37.3783290">
    <ele>4639.4</ele>
    <time>2026-06-23T07:02:29Z</time>
   </trkpt>
   <trkpt lat="-3.1009080" lon="37.3783280">
    <ele>4639.3</ele>
    <time>2026-06-23T07:02:30Z</time>
   </trkpt>
   <trkpt lat="-3.1009110" lon="37.3783280">
    <ele>4639.3</ele>
    <time>2026-06-23T07:02:31Z</time>
   </trkpt>
   <trkpt lat="-3.1009190" lon="37.3783270">
    <ele>4639.1</ele>
    <time>2026-06-23T07:02:32Z</time>
   </trkpt>
   <trkpt lat="-3.1009200" lon="37.3783230">
    <ele>4639.0</ele>
    <time>2026-06-23T07:02:33Z</time>
   </trkpt>
   <trkpt lat="-3.1009220" lon="37.3783170">
    <ele>4638.8</ele>
    <time>2026-06-23T07:02:34Z</time>
   </trkpt>
   <trkpt lat="-3.1009270" lon="37.3783100">
    <ele>4638.6</ele>
    <time>2026-06-23T07:02:35Z</time>
   </trkpt>
   <trkpt lat="-3.1009280" lon="37.3783080">
    <ele>4638.6</ele>
    <time>2026-06-23T07:02:36Z</time>
   </trkpt>
   <trkpt lat="-3.1009330" lon="37.3783020">
    <ele>4638.4</ele>
    <time>2026-06-23T07:02:37Z</time>
   </trkpt>
   <trkpt lat="-3.1009390" lon="37.3783050">
    <ele>4638.3</ele>
    <time>2026-06-23T07:02:38Z</time>
   </trkpt>
   <trkpt lat="-3.1009430" lon="37.3783150">
    <ele>4638.0</ele>
    <time>2026-06-23T07:02:39Z</time>
   </trkpt>
   <trkpt lat="-3.1009500" lon="37.3783220">
    <ele>4637.8</ele>
    <time>2026-06-23T07:02:40Z</time>
   </trkpt>
   <trkpt lat="-3.1009600" lon="37.3783310">
    <ele>4637.5</ele>
    <time>2026-06-23T07:02:41Z</time>
   </trkpt>
   <trkpt lat="-3.1009640" lon="37.3783320">
    <ele>4637.4</ele>
    <time>2026-06-23T07:02:42Z</time>
   </trkpt>
   <trkpt lat="-3.1009710" lon="37.3783370">
    <ele>4637.2</ele>
    <time>2026-06-23T07:02:43Z</time>
   </trkpt>
   <trkpt lat="-3.1009750" lon="37.3783390">
    <ele>4637.1</ele>
    <time>2026-06-23T07:02:44Z</time>
   </trkpt>
   <trkpt lat="-3.1009790" lon="37.3783430">
    <ele>4636.9</ele>
    <time>2026-06-23T07:02:45Z</time>
   </trkpt>
   <trkpt lat="-3.1009820" lon="37.3783460">
    <ele>4636.8</ele>
    <time>2026-06-23T07:02:46Z</time>
   </trkpt>
   <trkpt lat="-3.1009870" lon="37.3783500">
    <ele>4636.7</ele>
    <time>2026-06-23T07:02:47Z</time>
   </trkpt>
   <trkpt lat="-3.1009930" lon="37.3783540">
    <ele>4636.5</ele>
    <time>2026-06-23T07:02:48Z</time>
   </trkpt>
   <trkpt lat="-3.1010010" lon="37.3783580">
    <ele>4636.3</ele>
    <time>2026-06-23T07:02:49Z</time>
   </trkpt>
   <trkpt lat="-3.1010070" lon="37.3783590">
    <ele>4636.2</ele>
    <time>2026-06-23T07:02:50Z</time>
   </trkpt>
   <trkpt lat="-3.1010150" lon="37.3783640">
    <ele>4636.0</ele>
    <time>2026-06-23T07:02:51Z</time>
   </trkpt>
   <trkpt lat="-3.1010200" lon="37.3783680">
    <ele>4635.8</ele>
    <time>2026-06-23T07:02:52Z</time>
   </trkpt>
   <trkpt lat="-3.1010250" lon="37.3783720">
    <ele>4635.7</ele>
    <time>2026-06-23T07:02:53Z</time>
   </trkpt>
   <trkpt lat="-3.1010270" lon="37.3783760">
    <ele>4635.6</ele>
    <time>2026-06-23T07:02:54Z</time>
   </trkpt>
   <trkpt lat="-3.1010300" lon="37.3783820">
    <ele>4635.4</ele>
    <time>2026-06-23T07:02:55Z</time>
   </trkpt>
   <trkpt lat="-3.1010330" lon="37.3783900">
    <ele>4635.3</ele>
    <time>2026-06-23T07:02:56Z</time>
   </trkpt>
   <trkpt lat="-3.1010400" lon="37.3783990">
    <ele>4635.0</ele>
    <time>2026-06-23T07:02:57Z</time>
   </trkpt>
   <trkpt lat="-3.1010360" lon="37.3783980">
    <ele>4634.9</ele>
    <time>2026-06-23T07:02:58Z</time>
   </trkpt>
   <trkpt lat="-3.1010390" lon="37.3784040">
    <ele>4634.8</ele>
    <time>2026-06-23T07:02:59Z</time>
   </trkpt>
   <trkpt lat="-3.1010460" lon="37.3784140">
    <ele>4634.5</ele>
    <time>2026-06-23T07:03:00Z</time>
   </trkpt>
   <trkpt lat="-3.1010550" lon="37.3784150">
    <ele>4634.3</ele>
    <time>2026-06-23T07:03:01Z</time>
   </trkpt>
   <trkpt lat="-3.1010580" lon="37.3784080">
    <ele>4634.1</ele>
    <time>2026-06-23T07:03:02Z</time>
   </trkpt>
   <trkpt lat="-3.1010640" lon="37.3784110">
    <ele>4634.0</ele>
    <time>2026-06-23T07:03:03Z</time>
   </trkpt>
   <trkpt lat="-3.1010720" lon="37.3784090">
    <ele>4633.8</ele>
    <time>2026-06-23T07:03:04Z</time>
   </trkpt>
   <trkpt lat="-3.1010740" lon="37.3784100">
    <ele>4633.7</ele>
    <time>2026-06-23T07:03:05Z</time>
   </trkpt>
   <trkpt lat="-3.1010820" lon="37.3784100">
    <ele>4633.6</ele>
    <time>2026-06-23T07:03:06Z</time>
   </trkpt>
   <trkpt lat="-3.1010890" lon="37.3784180">
    <ele>4633.3</ele>
    <time>2026-06-23T07:03:07Z</time>
   </trkpt>
   <trkpt lat="-3.1010940" lon="37.3784190">
    <ele>4633.2</ele>
    <time>2026-06-23T07:03:08Z</time>
   </trkpt>
   <trkpt lat="-3.1010990" lon="37.3784160">
    <ele>4633.1</ele>
    <time>2026-06-23T07:03:09Z</time>
   </trkpt>
   <trkpt lat="-3.1011030" lon="37.3784120">
    <ele>4633.0</ele>
    <time>2026-06-23T07:03:10Z</time>
   </trkpt>
   <trkpt lat="-3.1011090" lon="37.3784090">
    <ele>4632.8</ele>
    <time>2026-06-23T07:03:11Z</time>
   </trkpt>
   <trkpt lat="-3.1011220" lon="37.3784070">
    <ele>4632.5</ele>
    <time>2026-06-23T07:03:12Z</time>
   </trkpt>
   <trkpt lat="-3.1011350" lon="37.3784060">
    <ele>4632.2</ele>
    <time>2026-06-23T07:03:13Z</time>
   </trkpt>
   <trkpt lat="-3.1011400" lon="37.3784050">
    <ele>4632.1</ele>
    <time>2026-06-23T07:03:14Z</time>
   </trkpt>
   <trkpt lat="-3.1011480" lon="37.3784040">
    <ele>4631.9</ele>
    <time>2026-06-23T07:03:15Z</time>
   </trkpt>
   <trkpt lat="-3.1011580" lon="37.3784010">
    <ele>4631.7</ele>
    <time>2026-06-23T07:03:16Z</time>
   </trkpt>
   <trkpt lat="-3.1011640" lon="37.3783990">
    <ele>4631.6</ele>
    <time>2026-06-23T07:03:17Z</time>
   </trkpt>
   <trkpt lat="-3.1011730" lon="37.3783950">
    <ele>4631.3</ele>
    <time>2026-06-23T07:03:18Z</time>
   </trkpt>
   <trkpt lat="-3.1011790" lon="37.3783920">
    <ele>4631.2</ele>
    <time>2026-06-23T07:03:19Z</time>
   </trkpt>
   <trkpt lat="-3.1011810" lon="37.3783920">
    <ele>4631.2</ele>
    <time>2026-06-23T07:03:20Z</time>
   </trkpt>
   <trkpt lat="-3.1011840" lon="37.3783930">
    <ele>4631.1</ele>
    <time>2026-06-23T07:03:21Z</time>
   </trkpt>
   <trkpt lat="-3.1011900" lon="37.3783920">
    <ele>4630.9</ele>
    <time>2026-06-23T07:03:22Z</time>
   </trkpt>
   <trkpt lat="-3.1012010" lon="37.3783890">
    <ele>4630.7</ele>
    <time>2026-06-23T07:03:23Z</time>
   </trkpt>
   <trkpt lat="-3.1012010" lon="37.3783860">
    <ele>4630.6</ele>
    <time>2026-06-23T07:03:24Z</time>
   </trkpt>
   <trkpt lat="-3.1012010" lon="37.3783860">
    <ele>4630.6</ele>
    <time>2026-06-23T07:03:25Z</time>
   </trkpt>
   <trkpt lat="-3.1012020" lon="37.3783820">
    <ele>4630.5</ele>
    <time>2026-06-23T07:03:26Z</time>
   </trkpt>
   <trkpt lat="-3.1012070" lon="37.3783830">
    <ele>4630.4</ele>
    <time>2026-06-23T07:03:27Z</time>
   </trkpt>
   <trkpt lat="-3.1012100" lon="37.3783830">
    <ele>4630.3</ele>
    <time>2026-06-23T07:03:28Z</time>
   </trkpt>
   <trkpt lat="-3.1012200" lon="37.3783760">
    <ele>4630.1</ele>
    <time>2026-06-23T07:03:29Z</time>
   </trkpt>
   <trkpt lat="-3.1012180" lon="37.3783760">
    <ele>4630.0</ele>
    <time>2026-06-23T07:03:30Z</time>
   </trkpt>
   <trkpt lat="-3.1012200" lon="37.3783750">
    <ele>4630.0</ele>
    <time>2026-06-23T07:03:31Z</time>
   </trkpt>
   <trkpt lat="-3.1012250" lon="37.3783680">
    <ele>4629.8</ele>
    <time>2026-06-23T07:03:32Z</time>
   </trkpt>
   <trkpt lat="-3.1012280" lon="37.3783700">
    <ele>4629.7</ele>
    <time>2026-06-23T07:03:33Z</time>
   </trkpt>
   <trkpt lat="-3.1012290" lon="37.3783730">
    <ele>4629.6</ele>
    <time>2026-06-23T07:03:34Z</time>
   </trkpt>
   <trkpt lat="-3.1012320" lon="37.3783780">
    <ele>4629.5</ele>
    <time>2026-06-23T07:03:35Z</time>
   </trkpt>
   <trkpt lat="-3.1012340" lon="37.3783810">
    <ele>4629.4</ele>
    <time>2026-06-23T07:03:36Z</time>
   </trkpt>
   <trkpt lat="-3.1012350" lon="37.3783830">
    <ele>4629.4</ele>
    <time>2026-06-23T07:03:37Z</time>
   </trkpt>
   <trkpt lat="-3.1012370" lon="37.3783860">
    <ele>4629.3</ele>
    <time>2026-06-23T07:03:38Z</time>
   </trkpt>
   <trkpt lat="-3.1012370" lon="37.3783900">
    <ele>4629.2</ele>
    <time>2026-06-23T07:03:39Z</time>
   </trkpt>
   <trkpt lat="-3.1012410" lon="37.3783950">
    <ele>4629.0</ele>
    <time>2026-06-23T07:03:40Z</time>
   </trkpt>
   <trkpt lat="-3.1012430" lon="37.3783970">
    <ele>4629.0</ele>
    <time>2026-06-23T07:03:41Z</time>
   </trkpt>
   <trkpt lat="-3.1012460" lon="37.3784010">
    <ele>4628.9</ele>
    <time>2026-06-23T07:03:42Z</time>
   </trkpt>
   <trkpt lat="-3.1012500" lon="37.3784050">
    <ele>4628.7</ele>
    <time>2026-06-23T07:03:43Z</time>
   </trkpt>
   <trkpt lat="-3.1012550" lon="37.3784090">
    <ele>4628.6</ele>
    <time>2026-06-23T07:03:45Z</time>
   </trkpt>
   <trkpt lat="-3.1012600" lon="37.3784150">
    <ele>4628.4</ele>
    <time>2026-06-23T07:03:46Z</time>
   </trkpt>
   <trkpt lat="-3.1012610" lon="37.3784240">
    <ele>4628.2</ele>
    <time>2026-06-23T07:03:47Z</time>
   </trkpt>
   <trkpt lat="-3.1012640" lon="37.3784320">
    <ele>4628.0</ele>
    <time>2026-06-23T07:03:48Z</time>
   </trkpt>
   <trkpt lat="-3.1012750" lon="37.3784350">
    <ele>4627.8</ele>
    <time>2026-06-23T07:03:49Z</time>
   </trkpt>
   <trkpt lat="-3.1012780" lon="37.3784350">
    <ele>4627.7</ele>
    <time>2026-06-23T07:03:50Z</time>
   </trkpt>
   <trkpt lat="-3.1012840" lon="37.3784370">
    <ele>4627.5</ele>
    <time>2026-06-23T07:03:51Z</time>
   </trkpt>
   <trkpt lat="-3.1012950" lon="37.3784350">
    <ele>4627.3</ele>
    <time>2026-06-23T07:03:52Z</time>
   </trkpt>
   <trkpt lat="-3.1013010" lon="37.3784330">
    <ele>4627.1</ele>
    <time>2026-06-23T07:03:53Z</time>
   </trkpt>
   <trkpt lat="-3.1013020" lon="37.3784270">
    <ele>4627.0</ele>
    <time>2026-06-23T07:03:54Z</time>
   </trkpt>
   <trkpt lat="-3.1013100" lon="37.3784220">
    <ele>4626.8</ele>
    <time>2026-06-23T07:03:55Z</time>
   </trkpt>
   <trkpt lat="-3.1013170" lon="37.3784220">
    <ele>4626.6</ele>
    <time>2026-06-23T07:03:56Z</time>
   </trkpt>
   <trkpt lat="-3.1013250" lon="37.3784180">
    <ele>4626.4</ele>
    <time>2026-06-23T07:03:57Z</time>
   </trkpt>
   <trkpt lat="-3.1013340" lon="37.3784190">
    <ele>4626.2</ele>
    <time>2026-06-23T07:03:58Z</time>
   </trkpt>
   <trkpt lat="-3.1013380" lon="37.3784220">
    <ele>4626.1</ele>
    <time>2026-06-23T07:03:59Z</time>
   </trkpt>
   <trkpt lat="-3.1013420" lon="37.3784220">
    <ele>4626.0</ele>
    <time>2026-06-23T07:04:00Z</time>
   </trkpt>
   <trkpt lat="-3.1013410" lon="37.3784220">
    <ele>4626.0</ele>
    <time>2026-06-23T07:04:01Z</time>
   </trkpt>
   <trkpt lat="-3.1013410" lon="37.3784210">
    <ele>4626.0</ele>
    <time>2026-06-23T07:04:02Z</time>
   </trkpt>
   <trkpt lat="-3.1013410" lon="37.3784210">
    <ele>4626.0</ele>
    <time>2026-06-23T07:04:03Z</time>
   </trkpt>
   <trkpt lat="-3.1013400" lon="37.3784210">
    <ele>4626.0</ele>
    <time>2026-06-23T07:04:04Z</time>
   </trkpt>
   <trkpt lat="-3.1013380" lon="37.3784190">
    <ele>4625.9</ele>
    <time>2026-06-23T07:04:05Z</time>
   </trkpt>
   <trkpt lat="-3.1013350" lon="37.3784160">
    <ele>4625.8</ele>
    <time>2026-06-23T07:04:06Z</time>
   </trkpt>
   <trkpt lat="-3.1013280" lon="37.3784130">
    <ele>4625.6</ele>
    <time>2026-06-23T07:04:07Z</time>
   </trkpt>
   <trkpt lat="-3.1013270" lon="37.3784100">
    <ele>4625.6</ele>
    <time>2026-06-23T07:04:08Z</time>
   </trkpt>
   <trkpt lat="-3.1013290" lon="37.3784100">
    <ele>4625.5</ele>
    <time>2026-06-23T07:04:09Z</time>
   </trkpt>
   <trkpt lat="-3.1013280" lon="37.3784090">
    <ele>4625.5</ele>
    <time>2026-06-23T07:04:10Z</time>
   </trkpt>
   <trkpt lat="-3.1013280" lon="37.3784110">
    <ele>4625.4</ele>
    <time>2026-06-23T07:04:11Z</time>
   </trkpt>
   <trkpt lat="-3.1013350" lon="37.3784070">
    <ele>4625.3</ele>
    <time>2026-06-23T07:04:12Z</time>
   </trkpt>
   <trkpt lat="-3.1013350" lon="37.3784090">
    <ele>4625.2</ele>
    <time>2026-06-23T07:04:13Z</time>
   </trkpt>
   <trkpt lat="-3.1013360" lon="37.3784060">
    <ele>4625.2</ele>
    <time>2026-06-23T07:04:14Z</time>
   </trkpt>
   <trkpt lat="-3.1013410" lon="37.3784060">
    <ele>4625.1</ele>
    <time>2026-06-23T07:04:15Z</time>
   </trkpt>
   <trkpt lat="-3.1013410" lon="37.3784030">
    <ele>4625.0</ele>
    <time>2026-06-23T07:04:16Z</time>
   </trkpt>
   <trkpt lat="-3.1013390" lon="37.3784010">
    <ele>4624.9</ele>
    <time>2026-06-23T07:04:17Z</time>
   </trkpt>
   <trkpt lat="-3.1013420" lon="37.3784010">
    <ele>4624.9</ele>
    <time>2026-06-23T07:04:18Z</time>
   </trkpt>
   <trkpt lat="-3.1013420" lon="37.3784020">
    <ele>4624.8</ele>
    <time>2026-06-23T07:04:19Z</time>
   </trkpt>
   <trkpt lat="-3.1013430" lon="37.3784000">
    <ele>4624.8</ele>
    <time>2026-06-23T07:04:20Z</time>
   </trkpt>
   <trkpt lat="-3.1013450" lon="37.3784000">
    <ele>4624.8</ele>
    <time>2026-06-23T07:04:21Z</time>
   </trkpt>
   <trkpt lat="-3.1013450" lon="37.3783990">
    <ele>4624.7</ele>
    <time>2026-06-23T07:04:22Z</time>
   </trkpt>
   <trkpt lat="-3.1013450" lon="37.3783990">
    <ele>4624.7</ele>
    <time>2026-06-23T07:04:23Z</time>
   </trkpt>
   <trkpt lat="-3.1013450" lon="37.3784000">
    <ele>4624.7</ele>
    <time>2026-06-23T07:04:24Z</time>
   </trkpt>
   <trkpt lat="-3.1013450" lon="37.3784000">
    <ele>4624.7</ele>
    <time>2026-06-23T07:04:25Z</time>
   </trkpt>
   <trkpt lat="-3.1013440" lon="37.3784010">
    <ele>4624.7</ele>
    <time>2026-06-23T07:04:26Z</time>
   </trkpt>
   <trkpt lat="-3.1013430" lon="37.3784010">
    <ele>4624.7</ele>
    <time>2026-06-23T07:04:27Z</time>
   </trkpt>
   <trkpt lat="-3.1013430" lon="37.3783990">
    <ele>4624.6</ele>
    <time>2026-06-23T07:04:28Z</time>
   </trkpt>
   <trkpt lat="-3.1013450" lon="37.3784000">
    <ele>4624.6</ele>
    <time>2026-06-23T07:04:29Z</time>
   </trkpt>
   <trkpt lat="-3.1013430" lon="37.3784010">
    <ele>4624.5</ele>
    <time>2026-06-23T07:04:30Z</time>
   </trkpt>
   <trkpt lat="-3.1013440" lon="37.3783990">
    <ele>4624.5</ele>
    <time>2026-06-23T07:04:31Z</time>
   </trkpt>
   <trkpt lat="-3.1013420" lon="37.3784000">
    <ele>4624.4</ele>
    <time>2026-06-23T07:04:32Z</time>
   </trkpt>
   <trkpt lat="-3.1013460" lon="37.3784000">
    <ele>4624.4</ele>
    <time>2026-06-23T07:04:33Z</time>
   </trkpt>
   <trkpt lat="-3.1013420" lon="37.3784000">
    <ele>4624.3</ele>
    <time>2026-06-23T07:04:34Z</time>
   </trkpt>
   <trkpt lat="-3.1013420" lon="37.3784010">
    <ele>4624.2</ele>
    <time>2026-06-23T07:04:35Z</time>
   </trkpt>
   <trkpt lat="-3.1013420" lon="37.3784010">
    <ele>4624.2</ele>
    <time>2026-06-23T07:04:36Z</time>
   </trkpt>
   <trkpt lat="-3.1013470" lon="37.3783990">
    <ele>4624.1</ele>
    <time>2026-06-23T07:04:37Z</time>
   </trkpt>
   <trkpt lat="-3.1013500" lon="37.3784000">
    <ele>4624.1</ele>
    <time>2026-06-23T07:04:38Z</time>
   </trkpt>
   <trkpt lat="-3.1013510" lon="37.3783990">
    <ele>4624.0</ele>
    <time>2026-06-23T07:04:39Z</time>
   </trkpt>
   <trkpt lat="-3.1013500" lon="37.3783990">
    <ele>4624.0</ele>
    <time>2026-06-23T07:04:40Z</time>
   </trkpt>
   <trkpt lat="-3.1013510" lon="37.3783980">
    <ele>4624.0</ele>
    <time>2026-06-23T07:04:41Z</time>
   </trkpt>
   <trkpt lat="-3.1013550" lon="37.3783970">
    <ele>4623.9</ele>
    <time>2026-06-23T07:04:42Z</time>
   </trkpt>
   <trkpt lat="-3.1013580" lon="37.3783970">
    <ele>4623.8</ele>
    <time>2026-06-23T07:04:43Z</time>
   </trkpt>
   <trkpt lat="-3.1013550" lon="37.3783970">
    <ele>4623.8</ele>
    <time>2026-06-23T07:04:44Z</time>
   </trkpt>
   <trkpt lat="-3.1013530" lon="37.3783970">
    <ele>4623.7</ele>
    <time>2026-06-23T07:04:45Z</time>
   </trkpt>
   <trkpt lat="-3.1013540" lon="37.3783970">
    <ele>4623.7</ele>
    <time>2026-06-23T07:04:46Z</time>
   </trkpt>
   <trkpt lat="-3.1013540" lon="37.3783980">
    <ele>4623.7</ele>
    <time>2026-06-23T07:04:47Z</time>
   </trkpt>
   <trkpt lat="-3.1013550" lon="37.3783990">
    <ele>4623.7</ele>
    <time>2026-06-23T07:04:48Z</time>
   </trkpt>
   <trkpt lat="-3.1013550" lon="37.3784010">
    <ele>4623.6</ele>
    <time>2026-06-23T07:04:49Z</time>
   </trkpt>
   <trkpt lat="-3.1013590" lon="37.3784050">
    <ele>4623.5</ele>
    <time>2026-06-23T07:04:50Z</time>
   </trkpt>
   <trkpt lat="-3.1013620" lon="37.3784100">
    <ele>4623.4</ele>
    <time>2026-06-23T07:04:51Z</time>
   </trkpt>
   <trkpt lat="-3.1013650" lon="37.3784150">
    <ele>4623.3</ele>
    <time>2026-06-23T07:04:52Z</time>
   </trkpt>
   <trkpt lat="-3.1013630" lon="37.3784180">
    <ele>4623.2</ele>
    <time>2026-06-23T07:04:53Z</time>
   </trkpt>
   <trkpt lat="-3.1013640" lon="37.3784240">
    <ele>4623.1</ele>
    <time>2026-06-23T07:04:54Z</time>
   </trkpt>
   <trkpt lat="-3.1013590" lon="37.3784320">
    <ele>4622.9</ele>
    <time>2026-06-23T07:04:55Z</time>
   </trkpt>
   <trkpt lat="-3.1013580" lon="37.3784370">
    <ele>4622.8</ele>
    <time>2026-06-23T07:04:56Z</time>
   </trkpt>
   <trkpt lat="-3.1013590" lon="37.3784370">
    <ele>4622.7</ele>
    <time>2026-06-23T07:04:57Z</time>
   </trkpt>
   <trkpt lat="-3.1013610" lon="37.3784340">
    <ele>4622.7</ele>
    <time>2026-06-23T07:04:58Z</time>
   </trkpt>
   <trkpt lat="-3.1013610" lon="37.3784370">
    <ele>4622.6</ele>
    <time>2026-06-23T07:04:59Z</time>
   </trkpt>
   <trkpt lat="-3.1013620" lon="37.3784400">
    <ele>4622.5</ele>
    <time>2026-06-23T07:05:00Z</time>
   </trkpt>
   <trkpt lat="-3.1013640" lon="37.3784440">
    <ele>4622.5</ele>
    <time>2026-06-23T07:05:01Z</time>
   </trkpt>
   <trkpt lat="-3.1013650" lon="37.3784460">
    <ele>4622.4</ele>
    <time>2026-06-23T07:05:02Z</time>
   </trkpt>
   <trkpt lat="-3.1013680" lon="37.3784480">
    <ele>4622.3</ele>
    <time>2026-06-23T07:05:03Z</time>
   </trkpt>
   <trkpt lat="-3.1013700" lon="37.3784540">
    <ele>4622.2</ele>
    <time>2026-06-23T07:05:04Z</time>
   </trkpt>
   <trkpt lat="-3.1013790" lon="37.3784630">
    <ele>4622.0</ele>
    <time>2026-06-23T07:05:05Z</time>
   </trkpt>
   <trkpt lat="-3.1013740" lon="37.3784710">
    <ele>4621.8</ele>
    <time>2026-06-23T07:05:06Z</time>
   </trkpt>
   <trkpt lat="-3.1013720" lon="37.3784750">
    <ele>4621.7</ele>
    <time>2026-06-23T07:05:07Z</time>
   </trkpt>
   <trkpt lat="-3.1013700" lon="37.3784750">
    <ele>4621.6</ele>
    <time>2026-06-23T07:05:08Z</time>
   </trkpt>
   <trkpt lat="-3.1013740" lon="37.3784840">
    <ele>4621.5</ele>
    <time>2026-06-23T07:05:09Z</time>
   </trkpt>
   <trkpt lat="-3.1013750" lon="37.3784950">
    <ele>4621.2</ele>
    <time>2026-06-23T07:05:10Z</time>
   </trkpt>
   <trkpt lat="-3.1013740" lon="37.3784980">
    <ele>4621.2</ele>
    <time>2026-06-23T07:05:11Z</time>
   </trkpt>
   <trkpt lat="-3.1013760" lon="37.3785010">
    <ele>4621.1</ele>
    <time>2026-06-23T07:05:12Z</time>
   </trkpt>
   <trkpt lat="-3.1013790" lon="37.3785080">
    <ele>4620.9</ele>
    <time>2026-06-23T07:05:13Z</time>
   </trkpt>
   <trkpt lat="-3.1013800" lon="37.3785130">
    <ele>4620.8</ele>
    <time>2026-06-23T07:05:14Z</time>
   </trkpt>
   <trkpt lat="-3.1013830" lon="37.3785130">
    <ele>4620.8</ele>
    <time>2026-06-23T07:05:15Z</time>
   </trkpt>
   <trkpt lat="-3.1013880" lon="37.3785230">
    <ele>4620.6</ele>
    <time>2026-06-23T07:05:16Z</time>
   </trkpt>
   <trkpt lat="-3.1013920" lon="37.3785270">
    <ele>4620.5</ele>
    <time>2026-06-23T07:05:17Z</time>
   </trkpt>
   <trkpt lat="-3.1013940" lon="37.3785300">
    <ele>4620.4</ele>
    <time>2026-06-23T07:05:18Z</time>
   </trkpt>
   <trkpt lat="-3.1013960" lon="37.3785340">
    <ele>4620.3</ele>
    <time>2026-06-23T07:05:19Z</time>
   </trkpt>
   <trkpt lat="-3.1013980" lon="37.3785390">
    <ele>4620.3</ele>
    <time>2026-06-23T07:05:20Z</time>
   </trkpt>
   <trkpt lat="-3.1014030" lon="37.3785430">
    <ele>4620.2</ele>
    <time>2026-06-23T07:05:21Z</time>
   </trkpt>
   <trkpt lat="-3.1014040" lon="37.3785450">
    <ele>4620.1</ele>
    <time>2026-06-23T07:05:22Z</time>
   </trkpt>
   <trkpt lat="-3.1014070" lon="37.3785510">
    <ele>4620.1</ele>
    <time>2026-06-23T07:05:23Z</time>
   </trkpt>
   <trkpt lat="-3.1014030" lon="37.3785570">
    <ele>4620.0</ele>
    <time>2026-06-23T07:05:24Z</time>
   </trkpt>
   <trkpt lat="-3.1014020" lon="37.3785640">
    <ele>4619.9</ele>
    <time>2026-06-23T07:05:25Z</time>
   </trkpt>
   <trkpt lat="-3.1013990" lon="37.3785720">
    <ele>4619.7</ele>
    <time>2026-06-23T07:05:26Z</time>
   </trkpt>
   <trkpt lat="-3.1013980" lon="37.3785760">
    <ele>4619.7</ele>
    <time>2026-06-23T07:05:27Z</time>
   </trkpt>
   <trkpt lat="-3.1013980" lon="37.3785830">
    <ele>4619.6</ele>
    <time>2026-06-23T07:05:28Z</time>
   </trkpt>
   <trkpt lat="-3.1013980" lon="37.3785930">
    <ele>4619.4</ele>
    <time>2026-06-23T07:05:29Z</time>
   </trkpt>
   <trkpt lat="-3.1014000" lon="37.3785960">
    <ele>4619.4</ele>
    <time>2026-06-23T07:05:30Z</time>
   </trkpt>
   <trkpt lat="-3.1014000" lon="37.3785950">
    <ele>4619.4</ele>
    <time>2026-06-23T07:05:31Z</time>
   </trkpt>
   <trkpt lat="-3.1014030" lon="37.3785960">
    <ele>4619.3</ele>
    <time>2026-06-23T07:05:32Z</time>
   </trkpt>
   <trkpt lat="-3.1014040" lon="37.3785960">
    <ele>4619.3</ele>
    <time>2026-06-23T07:05:33Z</time>
   </trkpt>
   <trkpt lat="-3.1014060" lon="37.3785960">
    <ele>4619.3</ele>
    <time>2026-06-23T07:05:34Z</time>
   </trkpt>
   <trkpt lat="-3.1014050" lon="37.3785970">
    <ele>4619.3</ele>
    <time>2026-06-23T07:05:35Z</time>
   </trkpt>
   <trkpt lat="-3.1014030" lon="37.3785990">
    <ele>4619.2</ele>
    <time>2026-06-23T07:05:36Z</time>
   </trkpt>
   <trkpt lat="-3.1014020" lon="37.3785950">
    <ele>4619.2</ele>
    <time>2026-06-23T07:05:37Z</time>
   </trkpt>
   <trkpt lat="-3.1014020" lon="37.3785990">
    <ele>4619.1</ele>
    <time>2026-06-23T07:05:38Z</time>
   </trkpt>
   <trkpt lat="-3.1014070" lon="37.3786010">
    <ele>4619.1</ele>
    <time>2026-06-23T07:05:39Z</time>
   </trkpt>
   <trkpt lat="-3.1014110" lon="37.3786020">
    <ele>4619.0</ele>
    <time>2026-06-23T07:05:40Z</time>
   </trkpt>
   <trkpt lat="-3.1014090" lon="37.3786000">
    <ele>4619.0</ele>
    <time>2026-06-23T07:05:41Z</time>
   </trkpt>
   <trkpt lat="-3.1014100" lon="37.3786010">
    <ele>4618.9</ele>
    <time>2026-06-23T07:05:42Z</time>
   </trkpt>
   <trkpt lat="-3.1014080" lon="37.3786040">
    <ele>4618.9</ele>
    <time>2026-06-23T07:05:43Z</time>
   </trkpt>
   <trkpt lat="-3.1014080" lon="37.3786070">
    <ele>4618.8</ele>
    <time>2026-06-23T07:05:44Z</time>
   </trkpt>
   <trkpt lat="-3.1014070" lon="37.3786050">
    <ele>4618.8</ele>
    <time>2026-06-23T07:05:45Z</time>
   </trkpt>
   <trkpt lat="-3.1014050" lon="37.3786060">
    <ele>4618.8</ele>
    <time>2026-06-23T07:05:46Z</time>
   </trkpt>
   <trkpt lat="-3.1014050" lon="37.3786070">
    <ele>4618.8</ele>
    <time>2026-06-23T07:05:47Z</time>
   </trkpt>
   <trkpt lat="-3.1014060" lon="37.3786080">
    <ele>4618.7</ele>
    <time>2026-06-23T07:05:48Z</time>
   </trkpt>
   <trkpt lat="-3.1014060" lon="37.3786090">
    <ele>4618.7</ele>
    <time>2026-06-23T07:05:49Z</time>
   </trkpt>
   <trkpt lat="-3.1014060" lon="37.3786110">
    <ele>4618.7</ele>
    <time>2026-06-23T07:05:51Z</time>
   </trkpt>
   <trkpt lat="-3.1014040" lon="37.3786120">
    <ele>4618.7</ele>
    <time>2026-06-23T07:05:52Z</time>
   </trkpt>
   <trkpt lat="-3.1014030" lon="37.3786080">
    <ele>4618.6</ele>
    <time>2026-06-23T07:05:53Z</time>
   </trkpt>
   <trkpt lat="-3.1014040" lon="37.3786060">
    <ele>4618.6</ele>
    <time>2026-06-23T07:05:54Z</time>
   </trkpt>
   <trkpt lat="-3.1014040" lon="37.3786060">
    <ele>4618.6</ele>
    <time>2026-06-23T07:05:55Z</time>
   </trkpt>
   <trkpt lat="-3.1014040" lon="37.3786060">
    <ele>4618.6</ele>
    <time>2026-06-23T07:05:56Z</time>
   </trkpt>
   <trkpt lat="-3.1014040" lon="37.3786060">
    <ele>4618.6</ele>
    <time>2026-06-23T07:05:57Z</time>
   </trkpt>
   <trkpt lat="-3.1014040" lon="37.3786060">
    <ele>4618.6</ele>
    <time>2026-06-23T07:05:58Z</time>
   </trkpt>
   <trkpt lat="-3.1014040" lon="37.3786060">
    <ele>4618.6</ele>
    <time>2026-06-23T07:05:59Z</time>
   </trkpt>
   <trkpt lat="-3.1014040" lon="37.3786060">
    <ele>4618.6</ele>
    <time>2026-06-23T07:06:00Z</time>
   </trkpt>
   <trkpt lat="-3.1014040" lon="37.3786060">
    <ele>4618.6</ele>
    <time>2026-06-23T07:06:01Z</time>
   </trkpt>
   <trkpt lat="-3.1014040" lon="37.3786060">
    <ele>4618.6</ele>
    <time>2026-06-23T07:06:02Z</time>
   </trkpt>
   <trkpt lat="-3.1014040" lon="37.3786060">
    <ele>4618.6</ele>
    <time>2026-06-23T07:06:03Z</time>
   </trkpt>
   <trkpt lat="-3.1014040" lon="37.3786060">
    <ele>4618.6</ele>
    <time>2026-06-23T07:06:04Z</time>
   </trkpt>
   <trkpt lat="-3.1014040" lon="37.3786060">
    <ele>4618.6</ele>
    <time>2026-06-23T07:06:05Z</time>
   </trkpt>
   <trkpt lat="-3.1014040" lon="37.3786060">
    <ele>4618.6</ele>
    <time>2026-06-23T07:06:06Z</time>
   </trkpt>
   <trkpt lat="-3.1014040" lon="37.3786060">
    <ele>4618.6</ele>
    <time>2026-06-23T07:06:07Z</time>
   </trkpt>
   <trkpt lat="-3.1014040" lon="37.3786060">
    <ele>4618.6</ele>
    <time>2026-06-23T07:06:08Z</time>
   </trkpt>
   <trkpt lat="-3.1014040" lon="37.3786060">
    <ele>4618.6</ele>
    <time>2026-06-23T07:06:09Z</time>
   </trkpt>
   <trkpt lat="-3.1014040" lon="37.3786060">
    <ele>4618.6</ele>
    <time>2026-06-23T07:06:10Z</time>
   </trkpt>
   <trkpt lat="-3.1014040" lon="37.3786060">
    <ele>4618.6</ele>
    <time>2026-06-23T07:06:11Z</time>
   </trkpt>
   <trkpt lat="-3.1014040" lon="37.3786060">
    <ele>4618.6</ele>
    <time>2026-06-23T07:06:12Z</time>
   </trkpt>
   <trkpt lat="-3.1014040" lon="37.3786060">
    <ele>4618.6</ele>
    <time>2026-06-23T07:06:13Z</time>
   </trkpt>
   <trkpt lat="-3.1014040" lon="37.3786060">
    <ele>4618.6</ele>
    <time>2026-06-23T07:06:14Z</time>
   </trkpt>
   <trkpt lat="-3.1014040" lon="37.3786060">
    <ele>4618.6</ele>
    <time>2026-06-23T07:06:15Z</time>
   </trkpt>
   <trkpt lat="-3.1014040" lon="37.3786060">
    <ele>4618.6</ele>
    <time>2026-06-23T07:06:16Z</time>
   </trkpt>
   <trkpt lat="-3.1014040" lon="37.3786060">
    <ele>4618.6</ele>
    <time>2026-06-23T07:06:17Z</time>
   </trkpt>
   <trkpt lat="-3.1014040" lon="37.3786060">
    <ele>4618.6</ele>
    <time>2026-06-23T07:06:18Z</time>
   </trkpt>
   <trkpt lat="-3.1014040" lon="37.3786060">
    <ele>4618.6</ele>
    <time>2026-06-23T07:06:19Z</time>
   </trkpt>
   <trkpt lat="-3.1014040" lon="37.3786060">
    <ele>4618.6</ele>
    <time>2026-06-23T07:06:20Z</time>
   </trkpt>
   <trkpt lat="-3.1014040" lon="37.3786060">
    <ele>4618.6</ele>
    <time>2026-06-23T07:06:21Z</time>
   </trkpt>
   <trkpt lat="-3.1014040" lon="37.3786060">
    <ele>4618.6</ele>
    <time>2026-06-23T07:06:22Z</time>
   </trkpt>
   <trkpt lat="-3.1014040" lon="37.3786060">
    <ele>4618.6</ele>
    <time>2026-06-23T07:06:23Z</time>
   </trkpt>
   <trkpt lat="-3.1014040" lon="37.3786060">
    <ele>4618.6</ele>
    <time>2026-06-23T07:06:24Z</time>
   </trkpt>
   <trkpt lat="-3.1014040" lon="37.3786060">
    <ele>4618.6</ele>
    <time>2026-06-23T07:06:25Z</time>
   </trkpt>
   <trkpt lat="-3.1014040" lon="37.3786060">
    <ele>4618.6</ele>
    <time>2026-06-23T07:06:26Z</time>
   </trkpt>
   <trkpt lat="-3.1014040" lon="37.3786060">
    <ele>4618.6</ele>
    <time>2026-06-23T07:06:27Z</time>
   </trkpt>
   <trkpt lat="-3.1014040" lon="37.3786060">
    <ele>4618.6</ele>
    <time>2026-06-23T07:06:28Z</time>
   </trkpt>
   <trkpt lat="-3.1014040" lon="37.3786060">
    <ele>4618.6</ele>
    <time>2026-06-23T07:06:29Z</time>
   </trkpt>
   <trkpt lat="-3.1014040" lon="37.3786060">
    <ele>4618.6</ele>
    <time>2026-06-23T07:06:30Z</time>
   </trkpt>
   <trkpt lat="-3.1014040" lon="37.3786060">
    <ele>4618.6</ele>
    <time>2026-06-23T07:06:31Z</time>
   </trkpt>
   <trkpt lat="-3.1014040" lon="37.3786060">
    <ele>4618.6</ele>
    <time>2026-06-23T07:06:32Z</time>
   </trkpt>
   <trkpt lat="-3.1014040" lon="37.3786060">
    <ele>4618.6</ele>
    <time>2026-06-23T07:06:33Z</time>
   </trkpt>
   <trkpt lat="-3.1014040" lon="37.3786060">
    <ele>4618.6</ele>
    <time>2026-06-23T07:06:34Z</time>
   </trkpt>
   <trkpt lat="-3.1014040" lon="37.3786060">
    <ele>4618.6</ele>
    <time>2026-06-23T07:06:35Z</time>
   </trkpt>
   <trkpt lat="-3.1014040" lon="37.3786060">
    <ele>4618.6</ele>
    <time>2026-06-23T07:06:36Z</time>
   </trkpt>
   <trkpt lat="-3.1014040" lon="37.3786060">
    <ele>4618.6</ele>
    <time>2026-06-23T07:06:37Z</time>
   </trkpt>
   <trkpt lat="-3.1014040" lon="37.3786060">
    <ele>4618.6</ele>
    <time>2026-06-23T07:06:38Z</time>
   </trkpt>
   <trkpt lat="-3.1014040" lon="37.3786060">
    <ele>4618.6</ele>
    <time>2026-06-23T07:06:39Z</time>
   </trkpt>
   <trkpt lat="-3.1014040" lon="37.3786060">
    <ele>4618.6</ele>
    <time>2026-06-23T07:06:40Z</time>
   </trkpt>
   <trkpt lat="-3.1014040" lon="37.3786060">
    <ele>4618.6</ele>
    <time>2026-06-23T07:06:41Z</time>
   </trkpt>
   <trkpt lat="-3.1014040" lon="37.3786060">
    <ele>4618.6</ele>
    <time>2026-06-23T07:06:42Z</time>
   </trkpt>
   <trkpt lat="-3.1014040" lon="37.3786060">
    <ele>4618.6</ele>
    <time>2026-06-23T07:06:43Z</time>
   </trkpt>
   <trkpt lat="-3.1014040" lon="37.3786060">
    <ele>4618.6</ele>
    <time>2026-06-23T07:06:44Z</time>
   </trkpt>
   <trkpt lat="-3.1014040" lon="37.3786060">
    <ele>4618.6</ele>
    <time>2026-06-23T07:06:45Z</time>
   </trkpt>
   <trkpt lat="-3.1014040" lon="37.3786060">
    <ele>4618.6</ele>
    <time>2026-06-23T07:06:46Z</time>
   </trkpt>
   <trkpt lat="-3.1014040" lon="37.3786060">
    <ele>4618.6</ele>
    <time>2026-06-23T07:06:47Z</time>
   </trkpt>
   <trkpt lat="-3.1014040" lon="37.3786060">
    <ele>4618.6</ele>
    <time>2026-06-23T07:06:48Z</time>
   </trkpt>
   <trkpt lat="-3.1014040" lon="37.3786060">
    <ele>4618.6</ele>
    <time>2026-06-23T07:06:49Z</time>
   </trkpt>
   <trkpt lat="-3.1014040" lon="37.3786060">
    <ele>4618.6</ele>
    <time>2026-06-23T07:06:50Z</time>
   </trkpt>
   <trkpt lat="-3.1014040" lon="37.3786060">
    <ele>4618.6</ele>
    <time>2026-06-23T07:06:51Z</time>
   </trkpt>
   <trkpt lat="-3.1014040" lon="37.3786060">
    <ele>4618.6</ele>
    <time>2026-06-23T07:06:52Z</time>
   </trkpt>
   <trkpt lat="-3.1014040" lon="37.3786060">
    <ele>4618.6</ele>
    <time>2026-06-23T07:06:53Z</time>
   </trkpt>
   <trkpt lat="-3.1014040" lon="37.3786060">
    <ele>4618.6</ele>
    <time>2026-06-23T07:06:54Z</time>
   </trkpt>
   <trkpt lat="-3.1014040" lon="37.3786060">
    <ele>4618.6</ele>
    <time>2026-06-23T07:06:55Z</time>
   </trkpt>
   <trkpt lat="-3.1014040" lon="37.3786060">
    <ele>4618.6</ele>
    <time>2026-06-23T07:06:56Z</time>
   </trkpt>
   <trkpt lat="-3.1014040" lon="37.3786060">
    <ele>4618.6</ele>
    <time>2026-06-23T07:06:57Z</time>
   </trkpt>
   <trkpt lat="-3.1014040" lon="37.3786060">
    <ele>4618.6</ele>
    <time>2026-06-23T07:06:58Z</time>
   </trkpt>
   <trkpt lat="-3.1014040" lon="37.3786060">
    <ele>4618.6</ele>
    <time>2026-06-23T07:06:59Z</time>
   </trkpt>
   <trkpt lat="-3.1014040" lon="37.3786060">
    <ele>4618.6</ele>
    <time>2026-06-23T07:07:00Z</time>
   </trkpt>
   <trkpt lat="-3.1014040" lon="37.3786060">
    <ele>4618.6</ele>
    <time>2026-06-23T07:07:01Z</time>
   </trkpt>
   <trkpt lat="-3.1014040" lon="37.3786060">
    <ele>4618.6</ele>
    <time>2026-06-23T07:07:02Z</time>
   </trkpt>
   <trkpt lat="-3.1014040" lon="37.3786060">
    <ele>4618.6</ele>
    <time>2026-06-23T07:07:03Z</time>
   </trkpt>
   <trkpt lat="-3.1014040" lon="37.3786060">
    <ele>4618.6</ele>
    <time>2026-06-23T07:07:04Z</time>
   </trkpt>
   <trkpt lat="-3.1014040" lon="37.3786060">
    <ele>4618.6</ele>
    <time>2026-06-23T07:07:05Z</time>
   </trkpt>
   <trkpt lat="-3.1014040" lon="37.3786060">
    <ele>4618.6</ele>
    <time>2026-06-23T07:07:06Z</time>
   </trkpt>
   <trkpt lat="-3.1014040" lon="37.3786060">
    <ele>4618.6</ele>
    <time>2026-06-23T07:07:07Z</time>
   </trkpt>
   <trkpt lat="-3.1014040" lon="37.3786060">
    <ele>4618.6</ele>
    <time>2026-06-23T07:07:08Z</time>
   </trkpt>
   <trkpt lat="-3.1014040" lon="37.3786060">
    <ele>4618.6</ele>
    <time>2026-06-23T07:07:09Z</time>
   </trkpt>
   <trkpt lat="-3.1014040" lon="37.3786060">
    <ele>4618.6</ele>
    <time>2026-06-23T07:07:10Z</time>
   </trkpt>
   <trkpt lat="-3.1014040" lon="37.3786060">
    <ele>4618.6</ele>
    <time>2026-06-23T07:07:11Z</time>
   </trkpt>
   <trkpt lat="-3.1014040" lon="37.3786060">
    <ele>4618.6</ele>
    <time>2026-06-23T07:07:12Z</time>
   </trkpt>
   <trkpt lat="-3.1014040" lon="37.3786060">
    <ele>4618.6</ele>
    <time>2026-06-23T07:07:13Z</time>
   </trkpt>
   <trkpt lat="-3.1014040" lon="37.3786060">
    <ele>4618.6</ele>
    <time>2026-06-23T07:07:14Z</time>
   </trkpt>
   <trkpt lat="-3.1014040" lon="37.3786060">
    <ele>4618.6</ele>
    <time>2026-06-23T07:07:15Z</time>
   </trkpt>
   <trkpt lat="-3.1014040" lon="37.3786060">
    <ele>4618.6</ele>
    <time>2026-06-23T07:07:16Z</time>
   </trkpt>
   <trkpt lat="-3.1014040" lon="37.3786060">
    <ele>4618.6</ele>
    <time>2026-06-23T07:07:17Z</time>
   </trkpt>
   <trkpt lat="-3.1014040" lon="37.3786060">
    <ele>4618.6</ele>
    <time>2026-06-23T07:07:18Z</time>
   </trkpt>
   <trkpt lat="-3.1014040" lon="37.3786060">
    <ele>4618.6</ele>
    <time>2026-06-23T07:07:19Z</time>
   </trkpt>
   <trkpt lat="-3.1014040" lon="37.3786060">
    <ele>4618.6</ele>
    <time>2026-06-23T07:07:20Z</time>
   </trkpt>
   <trkpt lat="-3.1014040" lon="37.3786060">
    <ele>4618.6</ele>
    <time>2026-06-23T07:07:21Z</time>
   </trkpt>
   <trkpt lat="-3.1014040" lon="37.3786060">
    <ele>4618.6</ele>
    <time>2026-06-23T07:07:22Z</time>
   </trkpt>
   <trkpt lat="-3.1014040" lon="37.3786060">
    <ele>4618.6</ele>
    <time>2026-06-23T07:07:23Z</time>
   </trkpt>
   <trkpt lat="-3.1014040" lon="37.3786060">
    <ele>4618.6</ele>
    <time>2026-06-23T07:07:24Z</time>
   </trkpt>
   <trkpt lat="-3.1014040" lon="37.3786060">
    <ele>4618.6</ele>
    <time>2026-06-23T07:07:25Z</time>
   </trkpt>
   <trkpt lat="-3.1014040" lon="37.3786060">
    <ele>4618.6</ele>
    <time>2026-06-23T07:07:26Z</time>
   </trkpt>
   <trkpt lat="-3.1014040" lon="37.3786060">
    <ele>4618.6</ele>
    <time>2026-06-23T07:07:27Z</time>
   </trkpt>
   <trkpt lat="-3.1014040" lon="37.3786060">
    <ele>4618.6</ele>
    <time>2026-06-23T07:07:28Z</time>
   </trkpt>
   <trkpt lat="-3.1014040" lon="37.3786060">
    <ele>4618.6</ele>
    <time>2026-06-23T07:07:29Z</time>
   </trkpt>
   <trkpt lat="-3.1014040" lon="37.3786060">
    <ele>4618.6</ele>
    <time>2026-06-23T07:07:30Z</time>
   </trkpt>
   <trkpt lat="-3.1014040" lon="37.3786060">
    <ele>4618.6</ele>
    <time>2026-06-23T07:07:31Z</time>
   </trkpt>
   <trkpt lat="-3.1014040" lon="37.3786060">
    <ele>4618.6</ele>
    <time>2026-06-23T07:07:32Z</time>
   </trkpt>
   <trkpt lat="-3.1014040" lon="37.3786060">
    <ele>4618.6</ele>
    <time>2026-06-23T07:07:33Z</time>
   </trkpt>
   <trkpt lat="-3.1014040" lon="37.3786060">
    <ele>4618.6</ele>
    <time>2026-06-23T07:07:34Z</time>
   </trkpt>
   <trkpt lat="-3.1014040" lon="37.3786060">
    <ele>4618.6</ele>
    <time>2026-06-23T07:07:35Z</time>
   </trkpt>
   <trkpt lat="-3.1014040" lon="37.3786060">
    <ele>4618.6</ele>
    <time>2026-06-23T07:07:36Z</time>
   </trkpt>
   <trkpt lat="-3.1014040" lon="37.3786060">
    <ele>4618.6</ele>
    <time>2026-06-23T07:07:37Z</time>
   </trkpt>
   <trkpt lat="-3.1014040" lon="37.3786060">
    <ele>4618.6</ele>
    <time>2026-06-23T07:07:38Z</time>
   </trkpt>
   <trkpt lat="-3.1014040" lon="37.3786060">
    <ele>4618.6</ele>
    <time>2026-06-23T07:07:39Z</time>
   </trkpt>
   <trkpt lat="-3.1014040" lon="37.3786060">
    <ele>4618.6</ele>
    <time>2026-06-23T07:07:40Z</time>
   </trkpt>
   <trkpt lat="-3.1014040" lon="37.3786060">
    <ele>4618.6</ele>
    <time>2026-06-23T07:07:41Z</time>
   </trkpt>
   <trkpt lat="-3.1014040" lon="37.3786060">
    <ele>4618.6</ele>
    <time>2026-06-23T07:07:42Z</time>
   </trkpt>
   <trkpt lat="-3.1014040" lon="37.3786060">
    <ele>4618.6</ele>
    <time>2026-06-23T07:07:43Z</time>
   </trkpt>
   <trkpt lat="-3.1014040" lon="37.3786060">
    <ele>4618.6</ele>
    <time>2026-06-23T07:07:44Z</time>
   </trkpt>
   <trkpt lat="-3.1014040" lon="37.3786060">
    <ele>4618.6</ele>
    <time>2026-06-23T07:07:45Z</time>
   </trkpt>
   <trkpt lat="-3.1014040" lon="37.3786060">
    <ele>4618.6</ele>
    <time>2026-06-23T07:07:46Z</time>
   </trkpt>
   <trkpt lat="-3.1014040" lon="37.3786060">
    <ele>4618.6</ele>
    <time>2026-06-23T07:07:47Z</time>
   </trkpt>
   <trkpt lat="-3.1014040" lon="37.3786060">
    <ele>4618.6</ele>
    <time>2026-06-23T07:07:48Z</time>
   </trkpt>
   <trkpt lat="-3.1014040" lon="37.3786060">
    <ele>4618.6</ele>
    <time>2026-06-23T07:07:49Z</time>
   </trkpt>
   <trkpt lat="-3.1014040" lon="37.3786060">
    <ele>4618.6</ele>
    <time>2026-06-23T07:07:50Z</time>
   </trkpt>
   <trkpt lat="-3.1014040" lon="37.3786060">
    <ele>4618.6</ele>
    <time>2026-06-23T07:07:51Z</time>
   </trkpt>
   <trkpt lat="-3.1014040" lon="37.3786060">
    <ele>4618.6</ele>
    <time>2026-06-23T07:07:52Z</time>
   </trkpt>
   <trkpt lat="-3.1014040" lon="37.3786060">
    <ele>4618.6</ele>
    <time>2026-06-23T07:07:53Z</time>
   </trkpt>
   <trkpt lat="-3.1014040" lon="37.3786060">
    <ele>4618.6</ele>
    <time>2026-06-23T07:07:54Z</time>
   </trkpt>
   <trkpt lat="-3.1014040" lon="37.3786060">
    <ele>4618.6</ele>
    <time>2026-06-23T07:07:55Z</time>
   </trkpt>
   <trkpt lat="-3.1014040" lon="37.3786060">
    <ele>4618.6</ele>
    <time>2026-06-23T07:07:57Z</time>
   </trkpt>
   <trkpt lat="-3.1014040" lon="37.3786060">
    <ele>4618.6</ele>
    <time>2026-06-23T07:07:58Z</time>
   </trkpt>
   <trkpt lat="-3.1014040" lon="37.3786060">
    <ele>4618.6</ele>
    <time>2026-06-23T07:07:59Z</time>
   </trkpt>
   <trkpt lat="-3.1014040" lon="37.3786060">
    <ele>4618.6</ele>
    <time>2026-06-23T07:08:00Z</time>
   </trkpt>
   <trkpt lat="-3.1014040" lon="37.3786060">
    <ele>4618.6</ele>
    <time>2026-06-23T07:08:01Z</time>
   </trkpt>
   <trkpt lat="-3.1014040" lon="37.3786060">
    <ele>4618.6</ele>
    <time>2026-06-23T07:08:02Z</time>
   </trkpt>
   <trkpt lat="-3.1014040" lon="37.3786060">
    <ele>4618.6</ele>
    <time>2026-06-23T07:08:03Z</time>
   </trkpt>
   <trkpt lat="-3.1014040" lon="37.3786060">
    <ele>4618.6</ele>
    <time>2026-06-23T07:08:04Z</time>
   </trkpt>
   <trkpt lat="-3.1014040" lon="37.3786060">
    <ele>4618.6</ele>
    <time>2026-06-23T07:08:05Z</time>
   </trkpt>
   <trkpt lat="-3.1014040" lon="37.3786060">
    <ele>4618.6</ele>
    <time>2026-06-23T07:08:06Z</time>
   </trkpt>
   <trkpt lat="-3.1014040" lon="37.3786060">
    <ele>4618.6</ele>
    <time>2026-06-23T07:08:07Z</time>
   </trkpt>
   <trkpt lat="-3.1014110" lon="37.3786100">
    <ele>4618.5</ele>
    <time>2026-06-23T07:08:08Z</time>
   </trkpt>
   <trkpt lat="-3.1014120" lon="37.3786120">
    <ele>4618.4</ele>
    <time>2026-06-23T07:08:09Z</time>
   </trkpt>
   <trkpt lat="-3.1014160" lon="37.3786180">
    <ele>4618.3</ele>
    <time>2026-06-23T07:08:10Z</time>
   </trkpt>
   <trkpt lat="-3.1014140" lon="37.3786170">
    <ele>4618.3</ele>
    <time>2026-06-23T07:08:11Z</time>
   </trkpt>
   <trkpt lat="-3.1014140" lon="37.3786130">
    <ele>4618.3</ele>
    <time>2026-06-23T07:08:12Z</time>
   </trkpt>
   <trkpt lat="-3.1014210" lon="37.3786130">
    <ele>4618.2</ele>
    <time>2026-06-23T07:08:13Z</time>
   </trkpt>
   <trkpt lat="-3.1014200" lon="37.3786120">
    <ele>4618.1</ele>
    <time>2026-06-23T07:08:14Z</time>
   </trkpt>
  </trkseg>
 </trk>
</gpx>
